<?xml version="1.0" encoding="UTF-8"?>
<gpx version="1.1" creator="https://www.youtrack.es" xsi:schemaLocation="http://www.topografix.com/GPX/1/1 http://www.topografix.com/GPX/1/1/gpx.xsd http://www.garmin.com/xmlschemas/GpxExtensions/v3 http://www.garmin.com/xmlschemas/GpxExtensionsv3.xsd http://www.garmin.com/xmlschemas/TrackPointExtension/v1 http://www.garmin.com/xmlschemas/TrackPointExtensionv1.xsd" xmlns:gpxtpx="http://www.garmin.com/xmlschemas/TrackPointExtension/v1" xmlns:gpxx="http://www.garmin.com/xmlschemas/GpxExtensions/v3" xmlns:xsi="http://www.w3.org/2001/XMLSchema-instance">
  <metadata>
    <link href="https://www.youtrack.es">
      <text>YouTrack.es</text>
    </link>
    <time>2026-05-08T17:04:33Z</time>
  </metadata>
  <trk>
    <src>https://www.youtrack.es</src>
    <link href="https://www.youtrack.es/ruta/7324-purito-2019--5-2--unida">
      <text>YouTrack.es</text>
    </link>
    <trkseg>
      <trkpt lat="42.46509167" lon="1.49105833">
        <ele>904.0</ele>
        <time>2019-08-04T06:04:05.794Z</time>
      </trkpt>
      <trkpt lat="42.46509167" lon="1.49105833">
        <ele>904.0</ele>
        <time>2019-08-04T06:04:06.770Z</time>
      </trkpt>
      <trkpt lat="42.46509167" lon="1.49105833">
        <ele>904.0</ele>
        <time>2019-08-04T06:04:07.778Z</time>
      </trkpt>
      <trkpt lat="42.46509167" lon="1.49105833">
        <ele>904.0</ele>
        <time>2019-08-04T06:04:08.786Z</time>
      </trkpt>
      <trkpt lat="42.46509167" lon="1.49105833">
        <ele>904.0</ele>
        <time>2019-08-04T06:04:09.798Z</time>
      </trkpt>
      <trkpt lat="42.46509167" lon="1.49105833">
        <ele>904.0</ele>
        <time>2019-08-04T06:04:10.785Z</time>
      </trkpt>
      <trkpt lat="42.46509167" lon="1.49105833">
        <ele>904.0</ele>
        <time>2019-08-04T06:04:11.777Z</time>
      </trkpt>
      <trkpt lat="42.46509167" lon="1.49105833">
        <ele>904.0</ele>
        <time>2019-08-04T06:04:12.798Z</time>
      </trkpt>
      <trkpt lat="42.46509167" lon="1.49105833">
        <ele>904.0</ele>
        <time>2019-08-04T06:04:13.790Z</time>
      </trkpt>
      <trkpt lat="42.46509167" lon="1.49105833">
        <ele>904.0</ele>
        <time>2019-08-04T06:04:14.785Z</time>
      </trkpt>
      <trkpt lat="42.46509167" lon="1.49105833">
        <ele>904.0</ele>
        <time>2019-08-04T06:04:15.778Z</time>
      </trkpt>
      <trkpt lat="42.46509167" lon="1.49105833">
        <ele>904.0</ele>
        <time>2019-08-04T06:04:16.799Z</time>
      </trkpt>
      <trkpt lat="42.46509167" lon="1.49105833">
        <ele>904.0</ele>
        <time>2019-08-04T06:04:17.779Z</time>
      </trkpt>
      <trkpt lat="42.46509167" lon="1.49105833">
        <ele>904.0</ele>
        <time>2019-08-04T06:04:18.777Z</time>
      </trkpt>
      <trkpt lat="42.46509167" lon="1.49105833">
        <ele>904.0</ele>
        <time>2019-08-04T06:04:19.781Z</time>
      </trkpt>
      <trkpt lat="42.46509167" lon="1.49105833">
        <ele>904.0</ele>
        <time>2019-08-04T06:04:20.796Z</time>
      </trkpt>
      <trkpt lat="42.46509167" lon="1.49105833">
        <ele>904.0</ele>
        <time>2019-08-04T06:04:21.780Z</time>
      </trkpt>
      <trkpt lat="42.46509167" lon="1.49105833">
        <ele>904.0</ele>
        <time>2019-08-04T06:04:22.781Z</time>
      </trkpt>
      <trkpt lat="42.46509167" lon="1.49105833">
        <ele>904.0</ele>
        <time>2019-08-04T06:04:23.781Z</time>
      </trkpt>
      <trkpt lat="42.46509167" lon="1.49105833">
        <ele>904.0</ele>
        <time>2019-08-04T06:04:24.798Z</time>
      </trkpt>
      <trkpt lat="42.46509167" lon="1.49105833">
        <ele>904.0</ele>
        <time>2019-08-04T06:04:25.786Z</time>
      </trkpt>
      <trkpt lat="42.46509167" lon="1.49105833">
        <ele>904.0</ele>
        <time>2019-08-04T06:04:26.792Z</time>
      </trkpt>
      <trkpt lat="42.46509167" lon="1.49105833">
        <ele>904.0</ele>
        <time>2019-08-04T06:04:27.775Z</time>
      </trkpt>
      <trkpt lat="42.46509167" lon="1.49105833">
        <ele>904.0</ele>
        <time>2019-08-04T06:04:28.781Z</time>
      </trkpt>
      <trkpt lat="42.46509167" lon="1.49105833">
        <ele>904.0</ele>
        <time>2019-08-04T06:04:29.777Z</time>
      </trkpt>
      <trkpt lat="42.46509167" lon="1.49105833">
        <ele>904.0</ele>
        <time>2019-08-04T06:04:30.799Z</time>
      </trkpt>
      <trkpt lat="42.46509167" lon="1.49105833">
        <ele>904.0</ele>
        <time>2019-08-04T06:04:31.778Z</time>
      </trkpt>
      <trkpt lat="42.46509167" lon="1.49105833">
        <ele>904.0</ele>
        <time>2019-08-04T06:04:32.796Z</time>
      </trkpt>
      <trkpt lat="42.46509167" lon="1.49105833">
        <ele>904.0</ele>
        <time>2019-08-04T06:04:33.778Z</time>
      </trkpt>
      <trkpt lat="42.46509167" lon="1.49105833">
        <ele>904.0</ele>
        <time>2019-08-04T06:04:34.796Z</time>
      </trkpt>
      <trkpt lat="42.46509167" lon="1.49105833">
        <ele>904.0</ele>
        <time>2019-08-04T06:04:35.782Z</time>
      </trkpt>
      <trkpt lat="42.46509167" lon="1.49105833">
        <ele>904.0</ele>
        <time>2019-08-04T06:04:36.799Z</time>
      </trkpt>
      <trkpt lat="42.46509167" lon="1.49105833">
        <ele>904.0</ele>
        <time>2019-08-04T06:04:37.778Z</time>
      </trkpt>
      <trkpt lat="42.46509167" lon="1.49105833">
        <ele>904.0</ele>
        <time>2019-08-04T06:04:38.798Z</time>
      </trkpt>
      <trkpt lat="42.46509167" lon="1.49105833">
        <ele>904.0</ele>
        <time>2019-08-04T06:04:39.779Z</time>
      </trkpt>
      <trkpt lat="42.46509167" lon="1.49105833">
        <ele>904.0</ele>
        <time>2019-08-04T06:04:40.781Z</time>
      </trkpt>
      <trkpt lat="42.46509167" lon="1.49105833">
        <ele>904.0</ele>
        <time>2019-08-04T06:04:41.797Z</time>
      </trkpt>
      <trkpt lat="42.46509167" lon="1.49105833">
        <ele>904.0</ele>
        <time>2019-08-04T06:04:42.776Z</time>
      </trkpt>
      <trkpt lat="42.46509167" lon="1.49105833">
        <ele>904.0</ele>
        <time>2019-08-04T06:04:43.799Z</time>
      </trkpt>
      <trkpt lat="42.46509167" lon="1.49105833">
        <ele>904.0</ele>
        <time>2019-08-04T06:04:44.781Z</time>
      </trkpt>
      <trkpt lat="42.46509167" lon="1.49105833">
        <ele>904.0</ele>
        <time>2019-08-04T06:04:45.778Z</time>
      </trkpt>
      <trkpt lat="42.46509167" lon="1.49105833">
        <ele>904.0</ele>
        <time>2019-08-04T06:04:46.779Z</time>
      </trkpt>
      <trkpt lat="42.46509167" lon="1.49105833">
        <ele>904.0</ele>
        <time>2019-08-04T06:04:47.795Z</time>
      </trkpt>
      <trkpt lat="42.46509167" lon="1.49105833">
        <ele>904.0</ele>
        <time>2019-08-04T06:04:48.789Z</time>
      </trkpt>
      <trkpt lat="42.46509167" lon="1.49105833">
        <ele>904.0</ele>
        <time>2019-08-04T06:04:49.783Z</time>
      </trkpt>
      <trkpt lat="42.46509167" lon="1.49105833">
        <ele>904.0</ele>
        <time>2019-08-04T06:04:50.782Z</time>
      </trkpt>
      <trkpt lat="42.46509167" lon="1.49105833">
        <ele>904.0</ele>
        <time>2019-08-04T06:04:51.776Z</time>
      </trkpt>
      <trkpt lat="42.46509167" lon="1.49105833">
        <ele>904.0</ele>
        <time>2019-08-04T06:04:52.797Z</time>
      </trkpt>
      <trkpt lat="42.46509167" lon="1.49105833">
        <ele>904.0</ele>
        <time>2019-08-04T06:04:53.798Z</time>
      </trkpt>
      <trkpt lat="42.46509167" lon="1.49105833">
        <ele>904.0</ele>
        <time>2019-08-04T06:04:54.776Z</time>
      </trkpt>
      <trkpt lat="42.46509167" lon="1.49105833">
        <ele>904.0</ele>
        <time>2019-08-04T06:04:55.795Z</time>
      </trkpt>
      <trkpt lat="42.46509167" lon="1.49105833">
        <ele>904.0</ele>
        <time>2019-08-04T06:04:56.781Z</time>
      </trkpt>
      <trkpt lat="42.46509167" lon="1.49105833">
        <ele>904.0</ele>
        <time>2019-08-04T06:04:57.769Z</time>
      </trkpt>
      <trkpt lat="42.46509167" lon="1.49105833">
        <ele>904.0</ele>
        <time>2019-08-04T06:04:58.790Z</time>
      </trkpt>
      <trkpt lat="42.46512833" lon="1.49108">
        <ele>899.0</ele>
        <time>2019-08-04T06:04:59.767Z</time>
      </trkpt>
      <trkpt lat="42.46513667" lon="1.49108333">
        <ele>899.0</ele>
        <time>2019-08-04T06:05:00.795Z</time>
      </trkpt>
      <trkpt lat="42.46513667" lon="1.49108333">
        <ele>899.0</ele>
        <time>2019-08-04T06:05:01.787Z</time>
      </trkpt>
      <trkpt lat="42.46514833" lon="1.491095">
        <ele>899.0</ele>
        <time>2019-08-04T06:05:02.771Z</time>
      </trkpt>
      <trkpt lat="42.46514833" lon="1.491095">
        <ele>899.0</ele>
        <time>2019-08-04T06:05:03.791Z</time>
      </trkpt>
      <trkpt lat="42.46516333" lon="1.491115">
        <ele>898.0</ele>
        <time>2019-08-04T06:05:04.794Z</time>
      </trkpt>
      <trkpt lat="42.46516333" lon="1.491115">
        <ele>898.0</ele>
        <time>2019-08-04T06:05:05.765Z</time>
      </trkpt>
      <trkpt lat="42.465175" lon="1.49112667">
        <ele>897.0</ele>
        <time>2019-08-04T06:05:06.796Z</time>
      </trkpt>
      <trkpt lat="42.465175" lon="1.49112667">
        <ele>897.0</ele>
        <time>2019-08-04T06:05:07.791Z</time>
      </trkpt>
      <trkpt lat="42.46519333" lon="1.49114833">
        <ele>896.0</ele>
        <time>2019-08-04T06:05:08.794Z</time>
      </trkpt>
      <trkpt lat="42.46519333" lon="1.49114833">
        <ele>896.0</ele>
        <time>2019-08-04T06:05:09.781Z</time>
      </trkpt>
      <trkpt lat="42.46521167" lon="1.49117">
        <ele>896.0</ele>
        <time>2019-08-04T06:05:10.767Z</time>
      </trkpt>
      <trkpt lat="42.46521167" lon="1.49117">
        <ele>896.0</ele>
        <time>2019-08-04T06:05:11.789Z</time>
      </trkpt>
      <trkpt lat="42.46523333" lon="1.49118833">
        <ele>896.0</ele>
        <time>2019-08-04T06:05:12.771Z</time>
      </trkpt>
      <trkpt lat="42.46523333" lon="1.49118833">
        <ele>896.0</ele>
        <time>2019-08-04T06:05:13.790Z</time>
      </trkpt>
      <trkpt lat="42.46526333" lon="1.49120833">
        <ele>895.0</ele>
        <time>2019-08-04T06:05:14.771Z</time>
      </trkpt>
      <trkpt lat="42.46526333" lon="1.49120833">
        <ele>895.0</ele>
        <time>2019-08-04T06:05:15.801Z</time>
      </trkpt>
      <trkpt lat="42.46530167" lon="1.49123167">
        <ele>895.0</ele>
        <time>2019-08-04T06:05:16.795Z</time>
      </trkpt>
      <trkpt lat="42.46530167" lon="1.49123167">
        <ele>895.0</ele>
        <time>2019-08-04T06:05:17.789Z</time>
      </trkpt>
      <trkpt lat="42.465335" lon="1.49125833">
        <ele>894.0</ele>
        <time>2019-08-04T06:05:18.769Z</time>
      </trkpt>
      <trkpt lat="42.46535167" lon="1.49127167">
        <ele>894.0</ele>
        <time>2019-08-04T06:05:19.794Z</time>
      </trkpt>
      <trkpt lat="42.46535167" lon="1.49127167">
        <ele>894.0</ele>
        <time>2019-08-04T06:05:20.788Z</time>
      </trkpt>
      <trkpt lat="42.46539" lon="1.49130667">
        <ele>893.0</ele>
        <time>2019-08-04T06:05:21.770Z</time>
      </trkpt>
      <trkpt lat="42.46539" lon="1.49130667">
        <ele>893.0</ele>
        <time>2019-08-04T06:05:22.770Z</time>
      </trkpt>
      <trkpt lat="42.46542667" lon="1.49135833">
        <ele>893.0</ele>
        <time>2019-08-04T06:05:23.795Z</time>
      </trkpt>
      <trkpt lat="42.46542667" lon="1.49135833">
        <ele>893.0</ele>
        <time>2019-08-04T06:05:24.801Z</time>
      </trkpt>
      <trkpt lat="42.46546" lon="1.49142333">
        <ele>893.0</ele>
        <time>2019-08-04T06:05:25.774Z</time>
      </trkpt>
      <trkpt lat="42.46548333" lon="1.49144667">
        <ele>892.0</ele>
        <time>2019-08-04T06:05:26.794Z</time>
      </trkpt>
      <trkpt lat="42.4655" lon="1.49148">
        <ele>892.0</ele>
        <time>2019-08-04T06:05:27.794Z</time>
      </trkpt>
      <trkpt lat="42.4655" lon="1.49148">
        <ele>892.0</ele>
        <time>2019-08-04T06:05:28.766Z</time>
      </trkpt>
      <trkpt lat="42.46554833" lon="1.491525">
        <ele>893.0</ele>
        <time>2019-08-04T06:05:29.790Z</time>
      </trkpt>
      <trkpt lat="42.46557" lon="1.49155">
        <ele>892.0</ele>
        <time>2019-08-04T06:05:30.797Z</time>
      </trkpt>
      <trkpt lat="42.46557" lon="1.49155">
        <ele>892.0</ele>
        <time>2019-08-04T06:05:31.788Z</time>
      </trkpt>
      <trkpt lat="42.46560667" lon="1.49161333">
        <ele>892.0</ele>
        <time>2019-08-04T06:05:32.782Z</time>
      </trkpt>
      <trkpt lat="42.46560667" lon="1.49161333">
        <ele>892.0</ele>
        <time>2019-08-04T06:05:33.804Z</time>
      </trkpt>
      <trkpt lat="42.46564333" lon="1.49166833">
        <ele>892.0</ele>
        <time>2019-08-04T06:05:34.794Z</time>
      </trkpt>
      <trkpt lat="42.46564333" lon="1.49166833">
        <ele>892.0</ele>
        <time>2019-08-04T06:05:35.789Z</time>
      </trkpt>
      <trkpt lat="42.46568667" lon="1.491715">
        <ele>893.0</ele>
        <time>2019-08-04T06:05:36.793Z</time>
      </trkpt>
      <trkpt lat="42.46568667" lon="1.491715">
        <ele>893.0</ele>
        <time>2019-08-04T06:05:37.804Z</time>
      </trkpt>
      <trkpt lat="42.46575167" lon="1.49177667">
        <ele>893.0</ele>
        <time>2019-08-04T06:05:38.796Z</time>
      </trkpt>
      <trkpt lat="42.46575167" lon="1.49177667">
        <ele>893.0</ele>
        <time>2019-08-04T06:05:39.789Z</time>
      </trkpt>
      <trkpt lat="42.46582" lon="1.49183167">
        <ele>893.0</ele>
        <time>2019-08-04T06:05:40.793Z</time>
      </trkpt>
      <trkpt lat="42.46582" lon="1.49183167">
        <ele>893.0</ele>
        <time>2019-08-04T06:05:41.788Z</time>
      </trkpt>
      <trkpt lat="42.46589667" lon="1.49189833">
        <ele>894.0</ele>
        <time>2019-08-04T06:05:42.787Z</time>
      </trkpt>
      <trkpt lat="42.46589667" lon="1.49189833">
        <ele>894.0</ele>
        <time>2019-08-04T06:05:43.771Z</time>
      </trkpt>
      <trkpt lat="42.46598833" lon="1.49198">
        <ele>895.0</ele>
        <time>2019-08-04T06:05:44.794Z</time>
      </trkpt>
      <trkpt lat="42.46603167" lon="1.49201167">
        <ele>896.0</ele>
        <time>2019-08-04T06:05:45.774Z</time>
      </trkpt>
      <trkpt lat="42.46603167" lon="1.49201167">
        <ele>896.0</ele>
        <time>2019-08-04T06:05:46.765Z</time>
      </trkpt>
      <trkpt lat="42.46610833" lon="1.492075">
        <ele>896.0</ele>
        <time>2019-08-04T06:05:47.791Z</time>
      </trkpt>
      <trkpt lat="42.46610833" lon="1.492075">
        <ele>896.0</ele>
        <time>2019-08-04T06:05:48.789Z</time>
      </trkpt>
      <trkpt lat="42.466185" lon="1.49213167">
        <ele>897.0</ele>
        <time>2019-08-04T06:05:49.784Z</time>
      </trkpt>
      <trkpt lat="42.46622" lon="1.49217">
        <ele>898.0</ele>
        <time>2019-08-04T06:05:50.765Z</time>
      </trkpt>
      <trkpt lat="42.46622" lon="1.49217">
        <ele>898.0</ele>
        <time>2019-08-04T06:05:51.790Z</time>
      </trkpt>
      <trkpt lat="42.46628333" lon="1.492235">
        <ele>899.0</ele>
        <time>2019-08-04T06:05:52.772Z</time>
      </trkpt>
      <trkpt lat="42.46628333" lon="1.492235">
        <ele>899.0</ele>
        <time>2019-08-04T06:05:53.794Z</time>
      </trkpt>
      <trkpt lat="42.46636167" lon="1.49228667">
        <ele>900.0</ele>
        <time>2019-08-04T06:05:54.797Z</time>
      </trkpt>
      <trkpt lat="42.46640833" lon="1.49232333">
        <ele>900.0</ele>
        <time>2019-08-04T06:05:55.800Z</time>
      </trkpt>
      <trkpt lat="42.46640833" lon="1.49232333">
        <ele>900.0</ele>
        <time>2019-08-04T06:05:56.797Z</time>
      </trkpt>
      <trkpt lat="42.46650333" lon="1.49238">
        <ele>900.0</ele>
        <time>2019-08-04T06:05:57.794Z</time>
      </trkpt>
      <trkpt lat="42.46650333" lon="1.49238">
        <ele>900.0</ele>
        <time>2019-08-04T06:05:58.790Z</time>
      </trkpt>
      <trkpt lat="42.46660167" lon="1.49243833">
        <ele>901.0</ele>
        <time>2019-08-04T06:05:59.791Z</time>
      </trkpt>
      <trkpt lat="42.46660167" lon="1.49243833">
        <ele>901.0</ele>
        <time>2019-08-04T06:06:00.781Z</time>
      </trkpt>
      <trkpt lat="42.466695" lon="1.492465">
        <ele>902.0</ele>
        <time>2019-08-04T06:06:01.804Z</time>
      </trkpt>
      <trkpt lat="42.46675" lon="1.49249">
        <ele>903.0</ele>
        <time>2019-08-04T06:06:02.793Z</time>
      </trkpt>
      <trkpt lat="42.46675" lon="1.49249">
        <ele>903.0</ele>
        <time>2019-08-04T06:06:03.789Z</time>
      </trkpt>
      <trkpt lat="42.46686167" lon="1.49253">
        <ele>905.0</ele>
        <time>2019-08-04T06:06:04.769Z</time>
      </trkpt>
      <trkpt lat="42.46686167" lon="1.49253">
        <ele>905.0</ele>
        <time>2019-08-04T06:06:05.789Z</time>
      </trkpt>
      <trkpt lat="42.46698" lon="1.492565">
        <ele>905.0</ele>
        <time>2019-08-04T06:06:06.795Z</time>
      </trkpt>
      <trkpt lat="42.46698" lon="1.492565">
        <ele>905.0</ele>
        <time>2019-08-04T06:06:07.788Z</time>
      </trkpt>
      <trkpt lat="42.46707167" lon="1.49263833">
        <ele>904.0</ele>
        <time>2019-08-04T06:06:08.769Z</time>
      </trkpt>
      <trkpt lat="42.46707167" lon="1.49263833">
        <ele>904.0</ele>
        <time>2019-08-04T06:06:09.792Z</time>
      </trkpt>
      <trkpt lat="42.46717667" lon="1.49271">
        <ele>904.0</ele>
        <time>2019-08-04T06:06:10.769Z</time>
      </trkpt>
      <trkpt lat="42.46717667" lon="1.49271">
        <ele>904.0</ele>
        <time>2019-08-04T06:06:11.798Z</time>
      </trkpt>
      <trkpt lat="42.46728333" lon="1.49276667">
        <ele>904.0</ele>
        <time>2019-08-04T06:06:12.771Z</time>
      </trkpt>
      <trkpt lat="42.46728333" lon="1.49276667">
        <ele>904.0</ele>
        <time>2019-08-04T06:06:13.791Z</time>
      </trkpt>
      <trkpt lat="42.46740333" lon="1.49283667">
        <ele>905.0</ele>
        <time>2019-08-04T06:06:14.771Z</time>
      </trkpt>
      <trkpt lat="42.46740333" lon="1.49283667">
        <ele>905.0</ele>
        <time>2019-08-04T06:06:15.793Z</time>
      </trkpt>
      <trkpt lat="42.46752" lon="1.49289833">
        <ele>906.0</ele>
        <time>2019-08-04T06:06:16.798Z</time>
      </trkpt>
      <trkpt lat="42.46752" lon="1.49289833">
        <ele>906.0</ele>
        <time>2019-08-04T06:06:17.797Z</time>
      </trkpt>
      <trkpt lat="42.46764" lon="1.49296833">
        <ele>907.0</ele>
        <time>2019-08-04T06:06:18.793Z</time>
      </trkpt>
      <trkpt lat="42.46764" lon="1.49296833">
        <ele>907.0</ele>
        <time>2019-08-04T06:06:19.788Z</time>
      </trkpt>
      <trkpt lat="42.46774333" lon="1.49303333">
        <ele>906.0</ele>
        <time>2019-08-04T06:06:20.770Z</time>
      </trkpt>
      <trkpt lat="42.46774333" lon="1.49303333">
        <ele>906.0</ele>
        <time>2019-08-04T06:06:21.790Z</time>
      </trkpt>
      <trkpt lat="42.46785167" lon="1.493095">
        <ele>907.0</ele>
        <time>2019-08-04T06:06:22.788Z</time>
      </trkpt>
      <trkpt lat="42.46785167" lon="1.493095">
        <ele>907.0</ele>
        <time>2019-08-04T06:06:23.771Z</time>
      </trkpt>
      <trkpt lat="42.46795833" lon="1.493145">
        <ele>907.0</ele>
        <time>2019-08-04T06:06:24.805Z</time>
      </trkpt>
      <trkpt lat="42.46795833" lon="1.493145">
        <ele>907.0</ele>
        <time>2019-08-04T06:06:25.788Z</time>
      </trkpt>
      <trkpt lat="42.468065" lon="1.49320333">
        <ele>908.0</ele>
        <time>2019-08-04T06:06:26.772Z</time>
      </trkpt>
      <trkpt lat="42.468065" lon="1.49320333">
        <ele>908.0</ele>
        <time>2019-08-04T06:06:27.792Z</time>
      </trkpt>
      <trkpt lat="42.468175" lon="1.49325167">
        <ele>909.0</ele>
        <time>2019-08-04T06:06:28.790Z</time>
      </trkpt>
      <trkpt lat="42.468175" lon="1.49325167">
        <ele>909.0</ele>
        <time>2019-08-04T06:06:29.771Z</time>
      </trkpt>
      <trkpt lat="42.46827833" lon="1.49328">
        <ele>910.0</ele>
        <time>2019-08-04T06:06:30.791Z</time>
      </trkpt>
      <trkpt lat="42.46832833" lon="1.49325333">
        <ele>912.0</ele>
        <time>2019-08-04T06:06:31.794Z</time>
      </trkpt>
      <trkpt lat="42.468385" lon="1.49323333">
        <ele>914.0</ele>
        <time>2019-08-04T06:06:32.781Z</time>
      </trkpt>
      <trkpt lat="42.468385" lon="1.49323333">
        <ele>914.0</ele>
        <time>2019-08-04T06:06:33.803Z</time>
      </trkpt>
      <trkpt lat="42.46849333" lon="1.49321833">
        <ele>915.0</ele>
        <time>2019-08-04T06:06:34.775Z</time>
      </trkpt>
      <trkpt lat="42.46849333" lon="1.49321833">
        <ele>915.0</ele>
        <time>2019-08-04T06:06:35.795Z</time>
      </trkpt>
      <trkpt lat="42.46859833" lon="1.49321">
        <ele>915.0</ele>
        <time>2019-08-04T06:06:36.796Z</time>
      </trkpt>
      <trkpt lat="42.46865" lon="1.49320667">
        <ele>916.0</ele>
        <time>2019-08-04T06:06:37.794Z</time>
      </trkpt>
      <trkpt lat="42.46865" lon="1.49320667">
        <ele>916.0</ele>
        <time>2019-08-04T06:06:38.792Z</time>
      </trkpt>
      <trkpt lat="42.46874667" lon="1.4932">
        <ele>917.0</ele>
        <time>2019-08-04T06:06:39.795Z</time>
      </trkpt>
      <trkpt lat="42.468795" lon="1.49319667">
        <ele>917.0</ele>
        <time>2019-08-04T06:06:40.795Z</time>
      </trkpt>
      <trkpt lat="42.468795" lon="1.49319667">
        <ele>917.0</ele>
        <time>2019-08-04T06:06:41.787Z</time>
      </trkpt>
      <trkpt lat="42.468875" lon="1.49319333">
        <ele>918.0</ele>
        <time>2019-08-04T06:06:42.773Z</time>
      </trkpt>
      <trkpt lat="42.468875" lon="1.49319333">
        <ele>918.0</ele>
        <time>2019-08-04T06:06:43.792Z</time>
      </trkpt>
      <trkpt lat="42.46894833" lon="1.493195">
        <ele>918.0</ele>
        <time>2019-08-04T06:06:44.796Z</time>
      </trkpt>
      <trkpt lat="42.46894833" lon="1.493195">
        <ele>918.0</ele>
        <time>2019-08-04T06:06:45.790Z</time>
      </trkpt>
      <trkpt lat="42.469025" lon="1.49319167">
        <ele>919.0</ele>
        <time>2019-08-04T06:06:46.795Z</time>
      </trkpt>
      <trkpt lat="42.469025" lon="1.49319167">
        <ele>919.0</ele>
        <time>2019-08-04T06:06:47.804Z</time>
      </trkpt>
      <trkpt lat="42.46910333" lon="1.49319667">
        <ele>919.0</ele>
        <time>2019-08-04T06:06:48.791Z</time>
      </trkpt>
      <trkpt lat="42.46910333" lon="1.49319667">
        <ele>919.0</ele>
        <time>2019-08-04T06:06:49.769Z</time>
      </trkpt>
      <trkpt lat="42.46919667" lon="1.49319">
        <ele>920.0</ele>
        <time>2019-08-04T06:06:50.794Z</time>
      </trkpt>
      <trkpt lat="42.46923833" lon="1.49318833">
        <ele>920.0</ele>
        <time>2019-08-04T06:06:51.794Z</time>
      </trkpt>
      <trkpt lat="42.46923833" lon="1.49318833">
        <ele>920.0</ele>
        <time>2019-08-04T06:06:52.801Z</time>
      </trkpt>
      <trkpt lat="42.46931167" lon="1.49319333">
        <ele>921.0</ele>
        <time>2019-08-04T06:06:53.791Z</time>
      </trkpt>
      <trkpt lat="42.46931167" lon="1.49319333">
        <ele>921.0</ele>
        <time>2019-08-04T06:06:54.770Z</time>
      </trkpt>
      <trkpt lat="42.46937667" lon="1.49318167">
        <ele>922.0</ele>
        <time>2019-08-04T06:06:55.796Z</time>
      </trkpt>
      <trkpt lat="42.469405" lon="1.49317833">
        <ele>922.0</ele>
        <time>2019-08-04T06:06:56.799Z</time>
      </trkpt>
      <trkpt lat="42.469405" lon="1.49317833">
        <ele>922.0</ele>
        <time>2019-08-04T06:06:57.785Z</time>
      </trkpt>
      <trkpt lat="42.46946" lon="1.49318">
        <ele>923.0</ele>
        <time>2019-08-04T06:06:58.770Z</time>
      </trkpt>
      <trkpt lat="42.46946" lon="1.49318">
        <ele>923.0</ele>
        <time>2019-08-04T06:06:59.793Z</time>
      </trkpt>
      <trkpt lat="42.46951167" lon="1.49317333">
        <ele>924.0</ele>
        <time>2019-08-04T06:07:00.793Z</time>
      </trkpt>
      <trkpt lat="42.46953333" lon="1.493175">
        <ele>925.0</ele>
        <time>2019-08-04T06:07:01.794Z</time>
      </trkpt>
      <trkpt lat="42.46955667" lon="1.49317833">
        <ele>926.0</ele>
        <time>2019-08-04T06:07:02.771Z</time>
      </trkpt>
      <trkpt lat="42.46955667" lon="1.49317833">
        <ele>926.0</ele>
        <time>2019-08-04T06:07:03.799Z</time>
      </trkpt>
      <trkpt lat="42.46961667" lon="1.493175">
        <ele>929.0</ele>
        <time>2019-08-04T06:07:04.795Z</time>
      </trkpt>
      <trkpt lat="42.46961667" lon="1.493175">
        <ele>929.0</ele>
        <time>2019-08-04T06:07:05.788Z</time>
      </trkpt>
      <trkpt lat="42.46969167" lon="1.493175">
        <ele>931.0</ele>
        <time>2019-08-04T06:07:06.769Z</time>
      </trkpt>
      <trkpt lat="42.46972833" lon="1.49317333">
        <ele>932.0</ele>
        <time>2019-08-04T06:07:07.798Z</time>
      </trkpt>
      <trkpt lat="42.46976167" lon="1.493175">
        <ele>932.0</ele>
        <time>2019-08-04T06:07:08.796Z</time>
      </trkpt>
      <trkpt lat="42.46976167" lon="1.493175">
        <ele>932.0</ele>
        <time>2019-08-04T06:07:09.787Z</time>
      </trkpt>
      <trkpt lat="42.46984" lon="1.49316">
        <ele>933.0</ele>
        <time>2019-08-04T06:07:10.766Z</time>
      </trkpt>
      <trkpt lat="42.46984" lon="1.49316">
        <ele>933.0</ele>
        <time>2019-08-04T06:07:11.788Z</time>
      </trkpt>
      <trkpt lat="42.46991667" lon="1.49314833">
        <ele>934.0</ele>
        <time>2019-08-04T06:07:12.776Z</time>
      </trkpt>
      <trkpt lat="42.46991667" lon="1.49314833">
        <ele>934.0</ele>
        <time>2019-08-04T06:07:13.795Z</time>
      </trkpt>
      <trkpt lat="42.46998167" lon="1.493155">
        <ele>936.0</ele>
        <time>2019-08-04T06:07:14.793Z</time>
      </trkpt>
      <trkpt lat="42.46998167" lon="1.493155">
        <ele>936.0</ele>
        <time>2019-08-04T06:07:15.788Z</time>
      </trkpt>
      <trkpt lat="42.47007167" lon="1.49313167">
        <ele>937.0</ele>
        <time>2019-08-04T06:07:16.768Z</time>
      </trkpt>
      <trkpt lat="42.47007167" lon="1.49313167">
        <ele>937.0</ele>
        <time>2019-08-04T06:07:17.765Z</time>
      </trkpt>
      <trkpt lat="42.47016167" lon="1.49312167">
        <ele>939.0</ele>
        <time>2019-08-04T06:07:18.794Z</time>
      </trkpt>
      <trkpt lat="42.47016167" lon="1.49312167">
        <ele>939.0</ele>
        <time>2019-08-04T06:07:19.785Z</time>
      </trkpt>
      <trkpt lat="42.47024167" lon="1.493105">
        <ele>941.0</ele>
        <time>2019-08-04T06:07:20.768Z</time>
      </trkpt>
      <trkpt lat="42.47024167" lon="1.493105">
        <ele>941.0</ele>
        <time>2019-08-04T06:07:21.797Z</time>
      </trkpt>
      <trkpt lat="42.47031167" lon="1.49310667">
        <ele>940.0</ele>
        <time>2019-08-04T06:07:22.771Z</time>
      </trkpt>
      <trkpt lat="42.47031167" lon="1.49310667">
        <ele>940.0</ele>
        <time>2019-08-04T06:07:23.792Z</time>
      </trkpt>
      <trkpt lat="42.47039" lon="1.49314">
        <ele>936.0</ele>
        <time>2019-08-04T06:07:24.794Z</time>
      </trkpt>
      <trkpt lat="42.47042833" lon="1.49314833">
        <ele>935.0</ele>
        <time>2019-08-04T06:07:25.795Z</time>
      </trkpt>
      <trkpt lat="42.47046667" lon="1.49315333">
        <ele>936.0</ele>
        <time>2019-08-04T06:07:26.794Z</time>
      </trkpt>
      <trkpt lat="42.47046667" lon="1.49315333">
        <ele>936.0</ele>
        <time>2019-08-04T06:07:27.796Z</time>
      </trkpt>
      <trkpt lat="42.470545" lon="1.49316167">
        <ele>936.0</ele>
        <time>2019-08-04T06:07:28.790Z</time>
      </trkpt>
      <trkpt lat="42.47058333" lon="1.493165">
        <ele>937.0</ele>
        <time>2019-08-04T06:07:29.771Z</time>
      </trkpt>
      <trkpt lat="42.47058333" lon="1.493165">
        <ele>937.0</ele>
        <time>2019-08-04T06:07:30.792Z</time>
      </trkpt>
      <trkpt lat="42.47066667" lon="1.49317">
        <ele>937.0</ele>
        <time>2019-08-04T06:07:31.794Z</time>
      </trkpt>
      <trkpt lat="42.47070833" lon="1.49317667">
        <ele>937.0</ele>
        <time>2019-08-04T06:07:32.771Z</time>
      </trkpt>
      <trkpt lat="42.47070833" lon="1.49317667">
        <ele>937.0</ele>
        <time>2019-08-04T06:07:33.791Z</time>
      </trkpt>
      <trkpt lat="42.47079" lon="1.4932">
        <ele>935.0</ele>
        <time>2019-08-04T06:07:34.797Z</time>
      </trkpt>
      <trkpt lat="42.47079" lon="1.4932">
        <ele>935.0</ele>
        <time>2019-08-04T06:07:35.791Z</time>
      </trkpt>
      <trkpt lat="42.470875" lon="1.493235">
        <ele>931.0</ele>
        <time>2019-08-04T06:07:36.771Z</time>
      </trkpt>
      <trkpt lat="42.47092" lon="1.49324167">
        <ele>931.0</ele>
        <time>2019-08-04T06:07:37.784Z</time>
      </trkpt>
      <trkpt lat="42.47092" lon="1.49324167">
        <ele>931.0</ele>
        <time>2019-08-04T06:07:38.804Z</time>
      </trkpt>
      <trkpt lat="42.47100667" lon="1.49325">
        <ele>930.0</ele>
        <time>2019-08-04T06:07:39.794Z</time>
      </trkpt>
      <trkpt lat="42.47105333" lon="1.49325833">
        <ele>930.0</ele>
        <time>2019-08-04T06:07:40.795Z</time>
      </trkpt>
      <trkpt lat="42.47105333" lon="1.49325833">
        <ele>930.0</ele>
        <time>2019-08-04T06:07:41.770Z</time>
      </trkpt>
      <trkpt lat="42.47114167" lon="1.49328">
        <ele>929.0</ele>
        <time>2019-08-04T06:07:42.765Z</time>
      </trkpt>
      <trkpt lat="42.47114167" lon="1.49328">
        <ele>929.0</ele>
        <time>2019-08-04T06:07:43.787Z</time>
      </trkpt>
      <trkpt lat="42.47122667" lon="1.49331167">
        <ele>928.0</ele>
        <time>2019-08-04T06:07:44.768Z</time>
      </trkpt>
      <trkpt lat="42.47122667" lon="1.49331167">
        <ele>928.0</ele>
        <time>2019-08-04T06:07:45.787Z</time>
      </trkpt>
      <trkpt lat="42.47133" lon="1.49332333">
        <ele>929.0</ele>
        <time>2019-08-04T06:07:46.767Z</time>
      </trkpt>
      <trkpt lat="42.47133" lon="1.49332333">
        <ele>929.0</ele>
        <time>2019-08-04T06:07:47.795Z</time>
      </trkpt>
      <trkpt lat="42.47143667" lon="1.493335">
        <ele>929.0</ele>
        <time>2019-08-04T06:07:48.796Z</time>
      </trkpt>
      <trkpt lat="42.47143667" lon="1.493335">
        <ele>929.0</ele>
        <time>2019-08-04T06:07:49.788Z</time>
      </trkpt>
      <trkpt lat="42.47154167" lon="1.49334167">
        <ele>929.0</ele>
        <time>2019-08-04T06:07:50.768Z</time>
      </trkpt>
      <trkpt lat="42.47154167" lon="1.49334167">
        <ele>929.0</ele>
        <time>2019-08-04T06:07:51.789Z</time>
      </trkpt>
      <trkpt lat="42.47165167" lon="1.49334667">
        <ele>929.0</ele>
        <time>2019-08-04T06:07:52.774Z</time>
      </trkpt>
      <trkpt lat="42.47165167" lon="1.49334667">
        <ele>929.0</ele>
        <time>2019-08-04T06:07:53.794Z</time>
      </trkpt>
      <trkpt lat="42.471755" lon="1.49334">
        <ele>929.0</ele>
        <time>2019-08-04T06:07:54.794Z</time>
      </trkpt>
      <trkpt lat="42.471755" lon="1.49334">
        <ele>929.0</ele>
        <time>2019-08-04T06:07:55.792Z</time>
      </trkpt>
      <trkpt lat="42.47187" lon="1.49335333">
        <ele>930.0</ele>
        <time>2019-08-04T06:07:56.770Z</time>
      </trkpt>
      <trkpt lat="42.47187" lon="1.49335333">
        <ele>930.0</ele>
        <time>2019-08-04T06:07:57.803Z</time>
      </trkpt>
      <trkpt lat="42.471985" lon="1.49336333">
        <ele>930.0</ele>
        <time>2019-08-04T06:07:58.794Z</time>
      </trkpt>
      <trkpt lat="42.471985" lon="1.49336333">
        <ele>930.0</ele>
        <time>2019-08-04T06:07:59.787Z</time>
      </trkpt>
      <trkpt lat="42.47211333" lon="1.49336833">
        <ele>930.0</ele>
        <time>2019-08-04T06:08:00.769Z</time>
      </trkpt>
      <trkpt lat="42.47211333" lon="1.49336833">
        <ele>930.0</ele>
        <time>2019-08-04T06:08:01.790Z</time>
      </trkpt>
      <trkpt lat="42.472235" lon="1.49336833">
        <ele>931.0</ele>
        <time>2019-08-04T06:08:02.788Z</time>
      </trkpt>
      <trkpt lat="42.472235" lon="1.49336833">
        <ele>931.0</ele>
        <time>2019-08-04T06:08:03.771Z</time>
      </trkpt>
      <trkpt lat="42.472365" lon="1.49337667">
        <ele>933.0</ele>
        <time>2019-08-04T06:08:04.795Z</time>
      </trkpt>
      <trkpt lat="42.472365" lon="1.49337667">
        <ele>933.0</ele>
        <time>2019-08-04T06:08:05.795Z</time>
      </trkpt>
      <trkpt lat="42.47249667" lon="1.49338">
        <ele>934.0</ele>
        <time>2019-08-04T06:08:06.794Z</time>
      </trkpt>
      <trkpt lat="42.47256333" lon="1.49338167">
        <ele>934.0</ele>
        <time>2019-08-04T06:08:07.801Z</time>
      </trkpt>
      <trkpt lat="42.47256333" lon="1.49338167">
        <ele>934.0</ele>
        <time>2019-08-04T06:08:08.792Z</time>
      </trkpt>
      <trkpt lat="42.47269667" lon="1.49337667">
        <ele>935.0</ele>
        <time>2019-08-04T06:08:09.795Z</time>
      </trkpt>
      <trkpt lat="42.47276667" lon="1.49337">
        <ele>937.0</ele>
        <time>2019-08-04T06:08:10.797Z</time>
      </trkpt>
      <trkpt lat="42.47276667" lon="1.49337">
        <ele>937.0</ele>
        <time>2019-08-04T06:08:11.786Z</time>
      </trkpt>
      <trkpt lat="42.47291" lon="1.49333667">
        <ele>939.0</ele>
        <time>2019-08-04T06:08:12.781Z</time>
      </trkpt>
      <trkpt lat="42.47291" lon="1.49333667">
        <ele>939.0</ele>
        <time>2019-08-04T06:08:13.800Z</time>
      </trkpt>
      <trkpt lat="42.47304167" lon="1.49326667">
        <ele>941.0</ele>
        <time>2019-08-04T06:08:14.801Z</time>
      </trkpt>
      <trkpt lat="42.47304167" lon="1.49326667">
        <ele>941.0</ele>
        <time>2019-08-04T06:08:15.789Z</time>
      </trkpt>
      <trkpt lat="42.473175" lon="1.49317667">
        <ele>942.0</ele>
        <time>2019-08-04T06:08:16.769Z</time>
      </trkpt>
      <trkpt lat="42.473175" lon="1.49317667">
        <ele>942.0</ele>
        <time>2019-08-04T06:08:17.790Z</time>
      </trkpt>
      <trkpt lat="42.47329" lon="1.49305833">
        <ele>943.0</ele>
        <time>2019-08-04T06:08:18.769Z</time>
      </trkpt>
      <trkpt lat="42.47329" lon="1.49305833">
        <ele>943.0</ele>
        <time>2019-08-04T06:08:19.789Z</time>
      </trkpt>
      <trkpt lat="42.47339167" lon="1.49291167">
        <ele>944.0</ele>
        <time>2019-08-04T06:08:20.783Z</time>
      </trkpt>
      <trkpt lat="42.47339167" lon="1.49291167">
        <ele>944.0</ele>
        <time>2019-08-04T06:08:21.770Z</time>
      </trkpt>
      <trkpt lat="42.47348" lon="1.49274833">
        <ele>944.0</ele>
        <time>2019-08-04T06:08:22.771Z</time>
      </trkpt>
      <trkpt lat="42.47348" lon="1.49274833">
        <ele>944.0</ele>
        <time>2019-08-04T06:08:23.791Z</time>
      </trkpt>
      <trkpt lat="42.47355667" lon="1.49256833">
        <ele>945.0</ele>
        <time>2019-08-04T06:08:24.772Z</time>
      </trkpt>
      <trkpt lat="42.47359167" lon="1.492475">
        <ele>945.0</ele>
        <time>2019-08-04T06:08:25.798Z</time>
      </trkpt>
      <trkpt lat="42.47362833" lon="1.49237667">
        <ele>945.0</ele>
        <time>2019-08-04T06:08:26.796Z</time>
      </trkpt>
      <trkpt lat="42.47362833" lon="1.49237667">
        <ele>945.0</ele>
        <time>2019-08-04T06:08:27.799Z</time>
      </trkpt>
      <trkpt lat="42.47369333" lon="1.49218333">
        <ele>945.0</ele>
        <time>2019-08-04T06:08:28.795Z</time>
      </trkpt>
      <trkpt lat="42.47369333" lon="1.49218333">
        <ele>945.0</ele>
        <time>2019-08-04T06:08:29.792Z</time>
      </trkpt>
      <trkpt lat="42.47375667" lon="1.492005">
        <ele>946.0</ele>
        <time>2019-08-04T06:08:30.794Z</time>
      </trkpt>
      <trkpt lat="42.47379333" lon="1.491915">
        <ele>946.0</ele>
        <time>2019-08-04T06:08:31.794Z</time>
      </trkpt>
      <trkpt lat="42.47379333" lon="1.491915">
        <ele>946.0</ele>
        <time>2019-08-04T06:08:32.770Z</time>
      </trkpt>
      <trkpt lat="42.47386833" lon="1.49173833">
        <ele>946.0</ele>
        <time>2019-08-04T06:08:33.794Z</time>
      </trkpt>
      <trkpt lat="42.47390833" lon="1.49165167">
        <ele>946.0</ele>
        <time>2019-08-04T06:08:34.795Z</time>
      </trkpt>
      <trkpt lat="42.47390833" lon="1.49165167">
        <ele>946.0</ele>
        <time>2019-08-04T06:08:35.789Z</time>
      </trkpt>
      <trkpt lat="42.47398833" lon="1.49149">
        <ele>946.0</ele>
        <time>2019-08-04T06:08:36.769Z</time>
      </trkpt>
      <trkpt lat="42.47398833" lon="1.49149">
        <ele>946.0</ele>
        <time>2019-08-04T06:08:37.801Z</time>
      </trkpt>
      <trkpt lat="42.47405833" lon="1.49134667">
        <ele>946.0</ele>
        <time>2019-08-04T06:08:38.796Z</time>
      </trkpt>
      <trkpt lat="42.47405833" lon="1.49134667">
        <ele>946.0</ele>
        <time>2019-08-04T06:08:39.790Z</time>
      </trkpt>
      <trkpt lat="42.47413" lon="1.49123667">
        <ele>946.0</ele>
        <time>2019-08-04T06:08:40.769Z</time>
      </trkpt>
      <trkpt lat="42.47413" lon="1.49123667">
        <ele>946.0</ele>
        <time>2019-08-04T06:08:41.790Z</time>
      </trkpt>
      <trkpt lat="42.47420167" lon="1.49114333">
        <ele>947.0</ele>
        <time>2019-08-04T06:08:42.786Z</time>
      </trkpt>
      <trkpt lat="42.47424167" lon="1.49110833">
        <ele>947.0</ele>
        <time>2019-08-04T06:08:43.766Z</time>
      </trkpt>
      <trkpt lat="42.47424167" lon="1.49110833">
        <ele>947.0</ele>
        <time>2019-08-04T06:08:44.792Z</time>
      </trkpt>
      <trkpt lat="42.474315" lon="1.49105167">
        <ele>948.0</ele>
        <time>2019-08-04T06:08:45.795Z</time>
      </trkpt>
      <trkpt lat="42.47435167" lon="1.49102667">
        <ele>948.0</ele>
        <time>2019-08-04T06:08:46.796Z</time>
      </trkpt>
      <trkpt lat="42.47435167" lon="1.49102667">
        <ele>948.0</ele>
        <time>2019-08-04T06:08:47.789Z</time>
      </trkpt>
      <trkpt lat="42.47443" lon="1.49098333">
        <ele>948.0</ele>
        <time>2019-08-04T06:08:48.770Z</time>
      </trkpt>
      <trkpt lat="42.47443" lon="1.49098333">
        <ele>948.0</ele>
        <time>2019-08-04T06:08:49.792Z</time>
      </trkpt>
      <trkpt lat="42.47451167" lon="1.49095">
        <ele>949.0</ele>
        <time>2019-08-04T06:08:50.772Z</time>
      </trkpt>
      <trkpt lat="42.47451167" lon="1.49095">
        <ele>949.0</ele>
        <time>2019-08-04T06:08:51.793Z</time>
      </trkpt>
      <trkpt lat="42.47459167" lon="1.49092167">
        <ele>950.0</ele>
        <time>2019-08-04T06:08:52.774Z</time>
      </trkpt>
      <trkpt lat="42.47459167" lon="1.49092167">
        <ele>950.0</ele>
        <time>2019-08-04T06:08:53.797Z</time>
      </trkpt>
      <trkpt lat="42.47467167" lon="1.49089167">
        <ele>950.0</ele>
        <time>2019-08-04T06:08:54.793Z</time>
      </trkpt>
      <trkpt lat="42.47467167" lon="1.49089167">
        <ele>950.0</ele>
        <time>2019-08-04T06:08:55.797Z</time>
      </trkpt>
      <trkpt lat="42.47475833" lon="1.49086667">
        <ele>951.0</ele>
        <time>2019-08-04T06:08:56.795Z</time>
      </trkpt>
      <trkpt lat="42.47475833" lon="1.49086667">
        <ele>951.0</ele>
        <time>2019-08-04T06:08:57.799Z</time>
      </trkpt>
      <trkpt lat="42.474855" lon="1.49083">
        <ele>951.0</ele>
        <time>2019-08-04T06:08:58.794Z</time>
      </trkpt>
      <trkpt lat="42.474905" lon="1.49081167">
        <ele>952.0</ele>
        <time>2019-08-04T06:08:59.794Z</time>
      </trkpt>
      <trkpt lat="42.474905" lon="1.49081167">
        <ele>952.0</ele>
        <time>2019-08-04T06:09:00.788Z</time>
      </trkpt>
      <trkpt lat="42.47500667" lon="1.49077833">
        <ele>952.0</ele>
        <time>2019-08-04T06:09:01.771Z</time>
      </trkpt>
      <trkpt lat="42.47506333" lon="1.49076667">
        <ele>953.0</ele>
        <time>2019-08-04T06:09:02.789Z</time>
      </trkpt>
      <trkpt lat="42.47506333" lon="1.49076667">
        <ele>953.0</ele>
        <time>2019-08-04T06:09:03.771Z</time>
      </trkpt>
      <trkpt lat="42.47517833" lon="1.49074833">
        <ele>953.0</ele>
        <time>2019-08-04T06:09:04.795Z</time>
      </trkpt>
      <trkpt lat="42.47517833" lon="1.49074833">
        <ele>953.0</ele>
        <time>2019-08-04T06:09:05.792Z</time>
      </trkpt>
      <trkpt lat="42.4753" lon="1.49073667">
        <ele>953.0</ele>
        <time>2019-08-04T06:09:06.794Z</time>
      </trkpt>
      <trkpt lat="42.4753" lon="1.49073667">
        <ele>953.0</ele>
        <time>2019-08-04T06:09:07.770Z</time>
      </trkpt>
      <trkpt lat="42.47543333" lon="1.49072833">
        <ele>953.0</ele>
        <time>2019-08-04T06:09:08.771Z</time>
      </trkpt>
      <trkpt lat="42.47550333" lon="1.49072333">
        <ele>953.0</ele>
        <time>2019-08-04T06:09:09.793Z</time>
      </trkpt>
      <trkpt lat="42.475575" lon="1.49072167">
        <ele>953.0</ele>
        <time>2019-08-04T06:09:10.799Z</time>
      </trkpt>
      <trkpt lat="42.475575" lon="1.49072167">
        <ele>953.0</ele>
        <time>2019-08-04T06:09:11.789Z</time>
      </trkpt>
      <trkpt lat="42.47571833" lon="1.49071333">
        <ele>952.0</ele>
        <time>2019-08-04T06:09:12.781Z</time>
      </trkpt>
      <trkpt lat="42.47571833" lon="1.49071333">
        <ele>952.0</ele>
        <time>2019-08-04T06:09:13.804Z</time>
      </trkpt>
      <trkpt lat="42.47585333" lon="1.4907">
        <ele>953.0</ele>
        <time>2019-08-04T06:09:14.804Z</time>
      </trkpt>
      <trkpt lat="42.47585333" lon="1.4907">
        <ele>953.0</ele>
        <time>2019-08-04T06:09:15.789Z</time>
      </trkpt>
      <trkpt lat="42.47599" lon="1.490665">
        <ele>952.0</ele>
        <time>2019-08-04T06:09:16.775Z</time>
      </trkpt>
      <trkpt lat="42.47599" lon="1.490665">
        <ele>952.0</ele>
        <time>2019-08-04T06:09:17.795Z</time>
      </trkpt>
      <trkpt lat="42.47612667" lon="1.49061833">
        <ele>952.0</ele>
        <time>2019-08-04T06:09:18.797Z</time>
      </trkpt>
      <trkpt lat="42.47612667" lon="1.49061833">
        <ele>952.0</ele>
        <time>2019-08-04T06:09:19.792Z</time>
      </trkpt>
      <trkpt lat="42.476255" lon="1.49058167">
        <ele>952.0</ele>
        <time>2019-08-04T06:09:20.773Z</time>
      </trkpt>
      <trkpt lat="42.476255" lon="1.49058167">
        <ele>952.0</ele>
        <time>2019-08-04T06:09:21.800Z</time>
      </trkpt>
      <trkpt lat="42.47637" lon="1.49057">
        <ele>951.0</ele>
        <time>2019-08-04T06:09:22.774Z</time>
      </trkpt>
      <trkpt lat="42.47637" lon="1.49057">
        <ele>951.0</ele>
        <time>2019-08-04T06:09:23.793Z</time>
      </trkpt>
      <trkpt lat="42.47649833" lon="1.49058667">
        <ele>951.0</ele>
        <time>2019-08-04T06:09:24.794Z</time>
      </trkpt>
      <trkpt lat="42.47656333" lon="1.49058833">
        <ele>951.0</ele>
        <time>2019-08-04T06:09:25.795Z</time>
      </trkpt>
      <trkpt lat="42.47662833" lon="1.49058833">
        <ele>951.0</ele>
        <time>2019-08-04T06:09:26.797Z</time>
      </trkpt>
      <trkpt lat="42.47662833" lon="1.49058833">
        <ele>951.0</ele>
        <time>2019-08-04T06:09:27.796Z</time>
      </trkpt>
      <trkpt lat="42.47675833" lon="1.49059833">
        <ele>950.0</ele>
        <time>2019-08-04T06:09:28.796Z</time>
      </trkpt>
      <trkpt lat="42.47675833" lon="1.49059833">
        <ele>950.0</ele>
        <time>2019-08-04T06:09:29.788Z</time>
      </trkpt>
      <trkpt lat="42.47689167" lon="1.49060167">
        <ele>951.0</ele>
        <time>2019-08-04T06:09:30.768Z</time>
      </trkpt>
      <trkpt lat="42.47696" lon="1.49059667">
        <ele>951.0</ele>
        <time>2019-08-04T06:09:31.771Z</time>
      </trkpt>
      <trkpt lat="42.47696" lon="1.49059667">
        <ele>951.0</ele>
        <time>2019-08-04T06:09:32.771Z</time>
      </trkpt>
      <trkpt lat="42.4771" lon="1.49056833">
        <ele>952.0</ele>
        <time>2019-08-04T06:09:33.794Z</time>
      </trkpt>
      <trkpt lat="42.47715667" lon="1.49056">
        <ele>950.0</ele>
        <time>2019-08-04T06:09:34.793Z</time>
      </trkpt>
      <trkpt lat="42.47715667" lon="1.49056">
        <ele>950.0</ele>
        <time>2019-08-04T06:09:35.789Z</time>
      </trkpt>
      <trkpt lat="42.4773" lon="1.49052167">
        <ele>950.0</ele>
        <time>2019-08-04T06:09:36.769Z</time>
      </trkpt>
      <trkpt lat="42.4773" lon="1.49052167">
        <ele>950.0</ele>
        <time>2019-08-04T06:09:37.792Z</time>
      </trkpt>
      <trkpt lat="42.47744333" lon="1.49046667">
        <ele>949.0</ele>
        <time>2019-08-04T06:09:38.776Z</time>
      </trkpt>
      <trkpt lat="42.47744333" lon="1.49046667">
        <ele>949.0</ele>
        <time>2019-08-04T06:09:39.795Z</time>
      </trkpt>
      <trkpt lat="42.47758333" lon="1.49039333">
        <ele>948.0</ele>
        <time>2019-08-04T06:09:40.794Z</time>
      </trkpt>
      <trkpt lat="42.47758333" lon="1.49039333">
        <ele>948.0</ele>
        <time>2019-08-04T06:09:41.792Z</time>
      </trkpt>
      <trkpt lat="42.47772" lon="1.49031833">
        <ele>948.0</ele>
        <time>2019-08-04T06:09:42.785Z</time>
      </trkpt>
      <trkpt lat="42.47772" lon="1.49031833">
        <ele>948.0</ele>
        <time>2019-08-04T06:09:43.805Z</time>
      </trkpt>
      <trkpt lat="42.47787333" lon="1.49023">
        <ele>948.0</ele>
        <time>2019-08-04T06:09:44.796Z</time>
      </trkpt>
      <trkpt lat="42.47787333" lon="1.49023">
        <ele>948.0</ele>
        <time>2019-08-04T06:09:45.789Z</time>
      </trkpt>
      <trkpt lat="42.47802167" lon="1.49014">
        <ele>948.0</ele>
        <time>2019-08-04T06:09:46.769Z</time>
      </trkpt>
      <trkpt lat="42.47802167" lon="1.49014">
        <ele>948.0</ele>
        <time>2019-08-04T06:09:47.790Z</time>
      </trkpt>
      <trkpt lat="42.47817833" lon="1.49005333">
        <ele>948.0</ele>
        <time>2019-08-04T06:09:48.780Z</time>
      </trkpt>
      <trkpt lat="42.47817833" lon="1.49005333">
        <ele>948.0</ele>
        <time>2019-08-04T06:09:49.799Z</time>
      </trkpt>
      <trkpt lat="42.47832333" lon="1.48998">
        <ele>948.0</ele>
        <time>2019-08-04T06:09:50.796Z</time>
      </trkpt>
      <trkpt lat="42.47832333" lon="1.48998">
        <ele>948.0</ele>
        <time>2019-08-04T06:09:51.789Z</time>
      </trkpt>
      <trkpt lat="42.47847333" lon="1.48989667">
        <ele>948.0</ele>
        <time>2019-08-04T06:09:52.781Z</time>
      </trkpt>
      <trkpt lat="42.47847333" lon="1.48989667">
        <ele>948.0</ele>
        <time>2019-08-04T06:09:53.800Z</time>
      </trkpt>
      <trkpt lat="42.47861333" lon="1.48981667">
        <ele>948.0</ele>
        <time>2019-08-04T06:09:54.795Z</time>
      </trkpt>
      <trkpt lat="42.47861333" lon="1.48981667">
        <ele>948.0</ele>
        <time>2019-08-04T06:09:55.767Z</time>
      </trkpt>
      <trkpt lat="42.47875167" lon="1.48974">
        <ele>948.0</ele>
        <time>2019-08-04T06:09:56.797Z</time>
      </trkpt>
      <trkpt lat="42.47875167" lon="1.48974">
        <ele>948.0</ele>
        <time>2019-08-04T06:09:57.801Z</time>
      </trkpt>
      <trkpt lat="42.478885" lon="1.48966833">
        <ele>948.0</ele>
        <time>2019-08-04T06:09:58.798Z</time>
      </trkpt>
      <trkpt lat="42.478885" lon="1.48966833">
        <ele>948.0</ele>
        <time>2019-08-04T06:09:59.790Z</time>
      </trkpt>
      <trkpt lat="42.47901333" lon="1.48959667">
        <ele>947.0</ele>
        <time>2019-08-04T06:10:00.771Z</time>
      </trkpt>
      <trkpt lat="42.47908333" lon="1.48956167">
        <ele>947.0</ele>
        <time>2019-08-04T06:10:01.795Z</time>
      </trkpt>
      <trkpt lat="42.47915167" lon="1.48952333">
        <ele>947.0</ele>
        <time>2019-08-04T06:10:02.774Z</time>
      </trkpt>
      <trkpt lat="42.47915167" lon="1.48952333">
        <ele>947.0</ele>
        <time>2019-08-04T06:10:03.794Z</time>
      </trkpt>
      <trkpt lat="42.47928667" lon="1.48945667">
        <ele>947.0</ele>
        <time>2019-08-04T06:10:04.796Z</time>
      </trkpt>
      <trkpt lat="42.47928667" lon="1.48945667">
        <ele>947.0</ele>
        <time>2019-08-04T06:10:05.795Z</time>
      </trkpt>
      <trkpt lat="42.479425" lon="1.48940333">
        <ele>946.0</ele>
        <time>2019-08-04T06:10:06.795Z</time>
      </trkpt>
      <trkpt lat="42.479425" lon="1.48940333">
        <ele>946.0</ele>
        <time>2019-08-04T06:10:07.790Z</time>
      </trkpt>
      <trkpt lat="42.479565" lon="1.48935333">
        <ele>946.0</ele>
        <time>2019-08-04T06:10:08.778Z</time>
      </trkpt>
      <trkpt lat="42.479565" lon="1.48935333">
        <ele>946.0</ele>
        <time>2019-08-04T06:10:09.793Z</time>
      </trkpt>
      <trkpt lat="42.47970333" lon="1.48932667">
        <ele>946.0</ele>
        <time>2019-08-04T06:10:10.795Z</time>
      </trkpt>
      <trkpt lat="42.47970333" lon="1.48932667">
        <ele>946.0</ele>
        <time>2019-08-04T06:10:11.790Z</time>
      </trkpt>
      <trkpt lat="42.47985" lon="1.48932667">
        <ele>945.0</ele>
        <time>2019-08-04T06:10:12.771Z</time>
      </trkpt>
      <trkpt lat="42.47992" lon="1.48932833">
        <ele>945.0</ele>
        <time>2019-08-04T06:10:13.768Z</time>
      </trkpt>
      <trkpt lat="42.47992" lon="1.48932833">
        <ele>945.0</ele>
        <time>2019-08-04T06:10:14.769Z</time>
      </trkpt>
      <trkpt lat="42.48005833" lon="1.48934">
        <ele>945.0</ele>
        <time>2019-08-04T06:10:15.801Z</time>
      </trkpt>
      <trkpt lat="42.48013167" lon="1.48934833">
        <ele>945.0</ele>
        <time>2019-08-04T06:10:16.795Z</time>
      </trkpt>
      <trkpt lat="42.48013167" lon="1.48934833">
        <ele>945.0</ele>
        <time>2019-08-04T06:10:17.790Z</time>
      </trkpt>
      <trkpt lat="42.48027667" lon="1.48936833">
        <ele>944.0</ele>
        <time>2019-08-04T06:10:18.775Z</time>
      </trkpt>
      <trkpt lat="42.48027667" lon="1.48936833">
        <ele>944.0</ele>
        <time>2019-08-04T06:10:19.800Z</time>
      </trkpt>
      <trkpt lat="42.48042" lon="1.48938667">
        <ele>944.0</ele>
        <time>2019-08-04T06:10:20.766Z</time>
      </trkpt>
      <trkpt lat="42.48042" lon="1.48938667">
        <ele>944.0</ele>
        <time>2019-08-04T06:10:21.790Z</time>
      </trkpt>
      <trkpt lat="42.48056333" lon="1.48940667">
        <ele>944.0</ele>
        <time>2019-08-04T06:10:22.786Z</time>
      </trkpt>
      <trkpt lat="42.48056333" lon="1.48940667">
        <ele>944.0</ele>
        <time>2019-08-04T06:10:23.767Z</time>
      </trkpt>
      <trkpt lat="42.48070667" lon="1.48943333">
        <ele>944.0</ele>
        <time>2019-08-04T06:10:24.794Z</time>
      </trkpt>
      <trkpt lat="42.48070667" lon="1.48943333">
        <ele>944.0</ele>
        <time>2019-08-04T06:10:25.790Z</time>
      </trkpt>
      <trkpt lat="42.480855" lon="1.48944167">
        <ele>946.0</ele>
        <time>2019-08-04T06:10:26.770Z</time>
      </trkpt>
      <trkpt lat="42.480855" lon="1.48944167">
        <ele>946.0</ele>
        <time>2019-08-04T06:10:27.768Z</time>
      </trkpt>
      <trkpt lat="42.48099833" lon="1.48944167">
        <ele>950.0</ele>
        <time>2019-08-04T06:10:28.795Z</time>
      </trkpt>
      <trkpt lat="42.48099833" lon="1.48944167">
        <ele>950.0</ele>
        <time>2019-08-04T06:10:29.788Z</time>
      </trkpt>
      <trkpt lat="42.48114" lon="1.489425">
        <ele>957.0</ele>
        <time>2019-08-04T06:10:30.767Z</time>
      </trkpt>
      <trkpt lat="42.48121167" lon="1.48942">
        <ele>961.0</ele>
        <time>2019-08-04T06:10:31.793Z</time>
      </trkpt>
      <trkpt lat="42.48121167" lon="1.48942">
        <ele>961.0</ele>
        <time>2019-08-04T06:10:32.804Z</time>
      </trkpt>
      <trkpt lat="42.48135667" lon="1.48941333">
        <ele>969.0</ele>
        <time>2019-08-04T06:10:33.794Z</time>
      </trkpt>
      <trkpt lat="42.48142833" lon="1.489435">
        <ele>970.0</ele>
        <time>2019-08-04T06:10:34.794Z</time>
      </trkpt>
      <trkpt lat="42.48142833" lon="1.489435">
        <ele>970.0</ele>
        <time>2019-08-04T06:10:35.788Z</time>
      </trkpt>
      <trkpt lat="42.48156333" lon="1.48947">
        <ele>972.0</ele>
        <time>2019-08-04T06:10:36.767Z</time>
      </trkpt>
      <trkpt lat="42.48163333" lon="1.48949333">
        <ele>974.0</ele>
        <time>2019-08-04T06:10:37.796Z</time>
      </trkpt>
      <trkpt lat="42.48170333" lon="1.48951333">
        <ele>975.0</ele>
        <time>2019-08-04T06:10:38.800Z</time>
      </trkpt>
      <trkpt lat="42.48170333" lon="1.48951333">
        <ele>975.0</ele>
        <time>2019-08-04T06:10:39.791Z</time>
      </trkpt>
      <trkpt lat="42.48183333" lon="1.48956">
        <ele>977.0</ele>
        <time>2019-08-04T06:10:40.798Z</time>
      </trkpt>
      <trkpt lat="42.48189167" lon="1.48959833">
        <ele>978.0</ele>
        <time>2019-08-04T06:10:41.797Z</time>
      </trkpt>
      <trkpt lat="42.48189167" lon="1.48959833">
        <ele>978.0</ele>
        <time>2019-08-04T06:10:42.804Z</time>
      </trkpt>
      <trkpt lat="42.48202" lon="1.48965833">
        <ele>980.0</ele>
        <time>2019-08-04T06:10:43.797Z</time>
      </trkpt>
      <trkpt lat="42.48202" lon="1.48965833">
        <ele>980.0</ele>
        <time>2019-08-04T06:10:44.791Z</time>
      </trkpt>
      <trkpt lat="42.48213833" lon="1.48971667">
        <ele>981.0</ele>
        <time>2019-08-04T06:10:45.778Z</time>
      </trkpt>
      <trkpt lat="42.48219667" lon="1.489745">
        <ele>982.0</ele>
        <time>2019-08-04T06:10:46.798Z</time>
      </trkpt>
      <trkpt lat="42.48219667" lon="1.489745">
        <ele>982.0</ele>
        <time>2019-08-04T06:10:47.791Z</time>
      </trkpt>
      <trkpt lat="42.48231167" lon="1.48980167">
        <ele>982.0</ele>
        <time>2019-08-04T06:10:48.771Z</time>
      </trkpt>
      <trkpt lat="42.48231167" lon="1.48980167">
        <ele>982.0</ele>
        <time>2019-08-04T06:10:49.794Z</time>
      </trkpt>
      <trkpt lat="42.48242333" lon="1.48986167">
        <ele>982.0</ele>
        <time>2019-08-04T06:10:50.798Z</time>
      </trkpt>
      <trkpt lat="42.48242333" lon="1.48986167">
        <ele>982.0</ele>
        <time>2019-08-04T06:10:51.792Z</time>
      </trkpt>
      <trkpt lat="42.482535" lon="1.48992167">
        <ele>982.0</ele>
        <time>2019-08-04T06:10:52.773Z</time>
      </trkpt>
      <trkpt lat="42.482535" lon="1.48992167">
        <ele>982.0</ele>
        <time>2019-08-04T06:10:53.792Z</time>
      </trkpt>
      <trkpt lat="42.48264333" lon="1.48998">
        <ele>983.0</ele>
        <time>2019-08-04T06:10:54.773Z</time>
      </trkpt>
      <trkpt lat="42.48264333" lon="1.48998">
        <ele>983.0</ele>
        <time>2019-08-04T06:10:55.798Z</time>
      </trkpt>
      <trkpt lat="42.482755" lon="1.49002667">
        <ele>983.0</ele>
        <time>2019-08-04T06:10:56.794Z</time>
      </trkpt>
      <trkpt lat="42.482755" lon="1.49002667">
        <ele>983.0</ele>
        <time>2019-08-04T06:10:57.765Z</time>
      </trkpt>
      <trkpt lat="42.48286" lon="1.490085">
        <ele>984.0</ele>
        <time>2019-08-04T06:10:58.797Z</time>
      </trkpt>
      <trkpt lat="42.48286" lon="1.490085">
        <ele>984.0</ele>
        <time>2019-08-04T06:10:59.797Z</time>
      </trkpt>
      <trkpt lat="42.48296667" lon="1.49013833">
        <ele>985.0</ele>
        <time>2019-08-04T06:11:00.796Z</time>
      </trkpt>
      <trkpt lat="42.48296667" lon="1.49013833">
        <ele>985.0</ele>
        <time>2019-08-04T06:11:01.792Z</time>
      </trkpt>
      <trkpt lat="42.48307" lon="1.49019667">
        <ele>987.0</ele>
        <time>2019-08-04T06:11:02.788Z</time>
      </trkpt>
      <trkpt lat="42.48307" lon="1.49019667">
        <ele>987.0</ele>
        <time>2019-08-04T06:11:03.770Z</time>
      </trkpt>
      <trkpt lat="42.48317667" lon="1.49023833">
        <ele>987.0</ele>
        <time>2019-08-04T06:11:04.797Z</time>
      </trkpt>
      <trkpt lat="42.48317667" lon="1.49023833">
        <ele>987.0</ele>
        <time>2019-08-04T06:11:05.772Z</time>
      </trkpt>
      <trkpt lat="42.48325333" lon="1.49030833">
        <ele>987.0</ele>
        <time>2019-08-04T06:11:06.796Z</time>
      </trkpt>
      <trkpt lat="42.48325333" lon="1.49030833">
        <ele>987.0</ele>
        <time>2019-08-04T06:11:07.791Z</time>
      </trkpt>
      <trkpt lat="42.48335167" lon="1.49036167">
        <ele>988.0</ele>
        <time>2019-08-04T06:11:08.772Z</time>
      </trkpt>
      <trkpt lat="42.48335167" lon="1.49036167">
        <ele>988.0</ele>
        <time>2019-08-04T06:11:09.800Z</time>
      </trkpt>
      <trkpt lat="42.48344833" lon="1.49043167">
        <ele>988.0</ele>
        <time>2019-08-04T06:11:10.796Z</time>
      </trkpt>
      <trkpt lat="42.48344833" lon="1.49043167">
        <ele>988.0</ele>
        <time>2019-08-04T06:11:11.790Z</time>
      </trkpt>
      <trkpt lat="42.483525" lon="1.490505">
        <ele>988.0</ele>
        <time>2019-08-04T06:11:12.772Z</time>
      </trkpt>
      <trkpt lat="42.483525" lon="1.490505">
        <ele>988.0</ele>
        <time>2019-08-04T06:11:13.793Z</time>
      </trkpt>
      <trkpt lat="42.48361167" lon="1.49058667">
        <ele>986.0</ele>
        <time>2019-08-04T06:11:14.772Z</time>
      </trkpt>
      <trkpt lat="42.48361167" lon="1.49058667">
        <ele>986.0</ele>
        <time>2019-08-04T06:11:15.792Z</time>
      </trkpt>
      <trkpt lat="42.4837" lon="1.49064667">
        <ele>984.0</ele>
        <time>2019-08-04T06:11:16.789Z</time>
      </trkpt>
      <trkpt lat="42.4837" lon="1.49064667">
        <ele>984.0</ele>
        <time>2019-08-04T06:11:17.769Z</time>
      </trkpt>
      <trkpt lat="42.48379667" lon="1.49069833">
        <ele>984.0</ele>
        <time>2019-08-04T06:11:18.796Z</time>
      </trkpt>
      <trkpt lat="42.48379667" lon="1.49069833">
        <ele>984.0</ele>
        <time>2019-08-04T06:11:19.795Z</time>
      </trkpt>
      <trkpt lat="42.48389667" lon="1.49076333">
        <ele>982.0</ele>
        <time>2019-08-04T06:11:20.795Z</time>
      </trkpt>
      <trkpt lat="42.48389667" lon="1.49076333">
        <ele>982.0</ele>
        <time>2019-08-04T06:11:21.770Z</time>
      </trkpt>
      <trkpt lat="42.48399167" lon="1.49083167">
        <ele>979.0</ele>
        <time>2019-08-04T06:11:22.781Z</time>
      </trkpt>
      <trkpt lat="42.48399167" lon="1.49083167">
        <ele>979.0</ele>
        <time>2019-08-04T06:11:23.801Z</time>
      </trkpt>
      <trkpt lat="42.48408333" lon="1.49092333">
        <ele>975.0</ele>
        <time>2019-08-04T06:11:24.796Z</time>
      </trkpt>
      <trkpt lat="42.48410667" lon="1.49099">
        <ele>974.0</ele>
        <time>2019-08-04T06:11:25.796Z</time>
      </trkpt>
      <trkpt lat="42.484125" lon="1.49106">
        <ele>974.0</ele>
        <time>2019-08-04T06:11:26.798Z</time>
      </trkpt>
      <trkpt lat="42.484125" lon="1.49106">
        <ele>974.0</ele>
        <time>2019-08-04T06:11:27.801Z</time>
      </trkpt>
      <trkpt lat="42.48415833" lon="1.491195">
        <ele>972.0</ele>
        <time>2019-08-04T06:11:28.796Z</time>
      </trkpt>
      <trkpt lat="42.48415833" lon="1.491195">
        <ele>972.0</ele>
        <time>2019-08-04T06:11:29.803Z</time>
      </trkpt>
      <trkpt lat="42.48421833" lon="1.491325">
        <ele>970.0</ele>
        <time>2019-08-04T06:11:30.795Z</time>
      </trkpt>
      <trkpt lat="42.48421833" lon="1.491325">
        <ele>970.0</ele>
        <time>2019-08-04T06:11:31.790Z</time>
      </trkpt>
      <trkpt lat="42.48430833" lon="1.49141">
        <ele>969.0</ele>
        <time>2019-08-04T06:11:32.784Z</time>
      </trkpt>
      <trkpt lat="42.48430833" lon="1.49141">
        <ele>969.0</ele>
        <time>2019-08-04T06:11:33.771Z</time>
      </trkpt>
      <trkpt lat="42.48439667" lon="1.49149667">
        <ele>968.0</ele>
        <time>2019-08-04T06:11:34.796Z</time>
      </trkpt>
      <trkpt lat="42.48439667" lon="1.49149667">
        <ele>968.0</ele>
        <time>2019-08-04T06:11:35.792Z</time>
      </trkpt>
      <trkpt lat="42.48446667" lon="1.491605">
        <ele>968.0</ele>
        <time>2019-08-04T06:11:36.771Z</time>
      </trkpt>
      <trkpt lat="42.48446667" lon="1.491605">
        <ele>968.0</ele>
        <time>2019-08-04T06:11:37.790Z</time>
      </trkpt>
      <trkpt lat="42.48452833" lon="1.49171833">
        <ele>967.0</ele>
        <time>2019-08-04T06:11:38.769Z</time>
      </trkpt>
      <trkpt lat="42.48452833" lon="1.49171833">
        <ele>967.0</ele>
        <time>2019-08-04T06:11:39.799Z</time>
      </trkpt>
      <trkpt lat="42.48457" lon="1.49185">
        <ele>968.0</ele>
        <time>2019-08-04T06:11:40.797Z</time>
      </trkpt>
      <trkpt lat="42.48457" lon="1.49185">
        <ele>968.0</ele>
        <time>2019-08-04T06:11:41.791Z</time>
      </trkpt>
      <trkpt lat="42.48460833" lon="1.49198833">
        <ele>967.0</ele>
        <time>2019-08-04T06:11:42.778Z</time>
      </trkpt>
      <trkpt lat="42.48463333" lon="1.492055">
        <ele>967.0</ele>
        <time>2019-08-04T06:11:43.798Z</time>
      </trkpt>
      <trkpt lat="42.48466333" lon="1.49212333">
        <ele>967.0</ele>
        <time>2019-08-04T06:11:44.797Z</time>
      </trkpt>
      <trkpt lat="42.48466333" lon="1.49212333">
        <ele>967.0</ele>
        <time>2019-08-04T06:11:45.797Z</time>
      </trkpt>
      <trkpt lat="42.48471333" lon="1.49225833">
        <ele>966.0</ele>
        <time>2019-08-04T06:11:46.766Z</time>
      </trkpt>
      <trkpt lat="42.48471333" lon="1.49225833">
        <ele>966.0</ele>
        <time>2019-08-04T06:11:47.791Z</time>
      </trkpt>
      <trkpt lat="42.48475833" lon="1.49241">
        <ele>965.0</ele>
        <time>2019-08-04T06:11:48.771Z</time>
      </trkpt>
      <trkpt lat="42.48475833" lon="1.49241">
        <ele>965.0</ele>
        <time>2019-08-04T06:11:49.795Z</time>
      </trkpt>
      <trkpt lat="42.48481833" lon="1.49255833">
        <ele>964.0</ele>
        <time>2019-08-04T06:11:50.769Z</time>
      </trkpt>
      <trkpt lat="42.484855" lon="1.49263">
        <ele>964.0</ele>
        <time>2019-08-04T06:11:51.797Z</time>
      </trkpt>
      <trkpt lat="42.484855" lon="1.49263">
        <ele>964.0</ele>
        <time>2019-08-04T06:11:52.775Z</time>
      </trkpt>
      <trkpt lat="42.48493667" lon="1.49276833">
        <ele>963.0</ele>
        <time>2019-08-04T06:11:53.796Z</time>
      </trkpt>
      <trkpt lat="42.48493667" lon="1.49276833">
        <ele>963.0</ele>
        <time>2019-08-04T06:11:54.790Z</time>
      </trkpt>
      <trkpt lat="42.48502333" lon="1.492905">
        <ele>962.0</ele>
        <time>2019-08-04T06:11:55.786Z</time>
      </trkpt>
      <trkpt lat="42.485065" lon="1.492975">
        <ele>961.0</ele>
        <time>2019-08-04T06:11:56.768Z</time>
      </trkpt>
      <trkpt lat="42.485065" lon="1.492975">
        <ele>961.0</ele>
        <time>2019-08-04T06:11:57.788Z</time>
      </trkpt>
      <trkpt lat="42.48514833" lon="1.49311167">
        <ele>961.0</ele>
        <time>2019-08-04T06:11:58.768Z</time>
      </trkpt>
      <trkpt lat="42.48514833" lon="1.49311167">
        <ele>961.0</ele>
        <time>2019-08-04T06:11:59.796Z</time>
      </trkpt>
      <trkpt lat="42.485235" lon="1.49325">
        <ele>960.0</ele>
        <time>2019-08-04T06:12:00.794Z</time>
      </trkpt>
      <trkpt lat="42.48528" lon="1.49332">
        <ele>960.0</ele>
        <time>2019-08-04T06:12:01.796Z</time>
      </trkpt>
      <trkpt lat="42.485325" lon="1.49339167">
        <ele>960.0</ele>
        <time>2019-08-04T06:12:02.775Z</time>
      </trkpt>
      <trkpt lat="42.485325" lon="1.49339167">
        <ele>960.0</ele>
        <time>2019-08-04T06:12:03.794Z</time>
      </trkpt>
      <trkpt lat="42.48541833" lon="1.49354167">
        <ele>959.0</ele>
        <time>2019-08-04T06:12:04.796Z</time>
      </trkpt>
      <trkpt lat="42.48541833" lon="1.49354167">
        <ele>959.0</ele>
        <time>2019-08-04T06:12:05.802Z</time>
      </trkpt>
      <trkpt lat="42.48550667" lon="1.49369167">
        <ele>959.0</ele>
        <time>2019-08-04T06:12:06.796Z</time>
      </trkpt>
      <trkpt lat="42.48555333" lon="1.49376333">
        <ele>959.0</ele>
        <time>2019-08-04T06:12:07.796Z</time>
      </trkpt>
      <trkpt lat="42.48560167" lon="1.49383">
        <ele>959.0</ele>
        <time>2019-08-04T06:12:08.798Z</time>
      </trkpt>
      <trkpt lat="42.48560167" lon="1.49383">
        <ele>959.0</ele>
        <time>2019-08-04T06:12:09.791Z</time>
      </trkpt>
      <trkpt lat="42.48570667" lon="1.49395667">
        <ele>958.0</ele>
        <time>2019-08-04T06:12:10.794Z</time>
      </trkpt>
      <trkpt lat="42.48575833" lon="1.49402">
        <ele>958.0</ele>
        <time>2019-08-04T06:12:11.795Z</time>
      </trkpt>
      <trkpt lat="42.48575833" lon="1.49402">
        <ele>958.0</ele>
        <time>2019-08-04T06:12:12.801Z</time>
      </trkpt>
      <trkpt lat="42.485865" lon="1.494145">
        <ele>958.0</ele>
        <time>2019-08-04T06:12:13.796Z</time>
      </trkpt>
      <trkpt lat="42.48592" lon="1.49420833">
        <ele>958.0</ele>
        <time>2019-08-04T06:12:14.798Z</time>
      </trkpt>
      <trkpt lat="42.48592" lon="1.49420833">
        <ele>958.0</ele>
        <time>2019-08-04T06:12:15.797Z</time>
      </trkpt>
      <trkpt lat="42.48603333" lon="1.49433">
        <ele>958.0</ele>
        <time>2019-08-04T06:12:16.797Z</time>
      </trkpt>
      <trkpt lat="42.48603333" lon="1.49433">
        <ele>958.0</ele>
        <time>2019-08-04T06:12:17.793Z</time>
      </trkpt>
      <trkpt lat="42.48614833" lon="1.49443667">
        <ele>958.0</ele>
        <time>2019-08-04T06:12:18.772Z</time>
      </trkpt>
      <trkpt lat="42.48614833" lon="1.49443667">
        <ele>958.0</ele>
        <time>2019-08-04T06:12:19.792Z</time>
      </trkpt>
      <trkpt lat="42.486275" lon="1.49452833">
        <ele>958.0</ele>
        <time>2019-08-04T06:12:20.776Z</time>
      </trkpt>
      <trkpt lat="42.48634" lon="1.49457167">
        <ele>958.0</ele>
        <time>2019-08-04T06:12:21.796Z</time>
      </trkpt>
      <trkpt lat="42.486405" lon="1.49461">
        <ele>958.0</ele>
        <time>2019-08-04T06:12:22.781Z</time>
      </trkpt>
      <trkpt lat="42.48647167" lon="1.49464333">
        <ele>958.0</ele>
        <time>2019-08-04T06:12:23.800Z</time>
      </trkpt>
      <trkpt lat="42.48647167" lon="1.49464333">
        <ele>958.0</ele>
        <time>2019-08-04T06:12:24.794Z</time>
      </trkpt>
      <trkpt lat="42.486605" lon="1.49470167">
        <ele>959.0</ele>
        <time>2019-08-04T06:12:25.796Z</time>
      </trkpt>
      <trkpt lat="42.48667" lon="1.49472667">
        <ele>959.0</ele>
        <time>2019-08-04T06:12:26.798Z</time>
      </trkpt>
      <trkpt lat="42.48667" lon="1.49472667">
        <ele>959.0</ele>
        <time>2019-08-04T06:12:27.790Z</time>
      </trkpt>
      <trkpt lat="42.48680333" lon="1.49476667">
        <ele>959.0</ele>
        <time>2019-08-04T06:12:28.771Z</time>
      </trkpt>
      <trkpt lat="42.48680333" lon="1.49476667">
        <ele>959.0</ele>
        <time>2019-08-04T06:12:29.792Z</time>
      </trkpt>
      <trkpt lat="42.48693833" lon="1.49479">
        <ele>959.0</ele>
        <time>2019-08-04T06:12:30.776Z</time>
      </trkpt>
      <trkpt lat="42.48693833" lon="1.49479">
        <ele>959.0</ele>
        <time>2019-08-04T06:12:31.796Z</time>
      </trkpt>
      <trkpt lat="42.487075" lon="1.49479833">
        <ele>959.0</ele>
        <time>2019-08-04T06:12:32.783Z</time>
      </trkpt>
      <trkpt lat="42.48714167" lon="1.49480167">
        <ele>960.0</ele>
        <time>2019-08-04T06:12:33.771Z</time>
      </trkpt>
      <trkpt lat="42.48714167" lon="1.49480167">
        <ele>960.0</ele>
        <time>2019-08-04T06:12:34.792Z</time>
      </trkpt>
      <trkpt lat="42.48727667" lon="1.494795">
        <ele>960.0</ele>
        <time>2019-08-04T06:12:35.771Z</time>
      </trkpt>
      <trkpt lat="42.48727667" lon="1.494795">
        <ele>960.0</ele>
        <time>2019-08-04T06:12:36.792Z</time>
      </trkpt>
      <trkpt lat="42.48740333" lon="1.49477667">
        <ele>961.0</ele>
        <time>2019-08-04T06:12:37.771Z</time>
      </trkpt>
      <trkpt lat="42.48746833" lon="1.49476333">
        <ele>961.0</ele>
        <time>2019-08-04T06:12:38.799Z</time>
      </trkpt>
      <trkpt lat="42.48746833" lon="1.49476333">
        <ele>961.0</ele>
        <time>2019-08-04T06:12:39.792Z</time>
      </trkpt>
      <trkpt lat="42.48759" lon="1.49473833">
        <ele>962.0</ele>
        <time>2019-08-04T06:12:40.799Z</time>
      </trkpt>
      <trkpt lat="42.48759" lon="1.49473833">
        <ele>962.0</ele>
        <time>2019-08-04T06:12:41.790Z</time>
      </trkpt>
      <trkpt lat="42.48771833" lon="1.49473667">
        <ele>962.0</ele>
        <time>2019-08-04T06:12:42.778Z</time>
      </trkpt>
      <trkpt lat="42.48771833" lon="1.49473667">
        <ele>962.0</ele>
        <time>2019-08-04T06:12:43.797Z</time>
      </trkpt>
      <trkpt lat="42.487845" lon="1.49475167">
        <ele>964.0</ele>
        <time>2019-08-04T06:12:44.797Z</time>
      </trkpt>
      <trkpt lat="42.487845" lon="1.49475167">
        <ele>964.0</ele>
        <time>2019-08-04T06:12:45.793Z</time>
      </trkpt>
      <trkpt lat="42.48795833" lon="1.49478833">
        <ele>964.0</ele>
        <time>2019-08-04T06:12:46.797Z</time>
      </trkpt>
      <trkpt lat="42.48801333" lon="1.494815">
        <ele>964.0</ele>
        <time>2019-08-04T06:12:47.797Z</time>
      </trkpt>
      <trkpt lat="42.48801333" lon="1.494815">
        <ele>964.0</ele>
        <time>2019-08-04T06:12:48.791Z</time>
      </trkpt>
      <trkpt lat="42.488105" lon="1.494875">
        <ele>966.0</ele>
        <time>2019-08-04T06:12:49.770Z</time>
      </trkpt>
      <trkpt lat="42.48814667" lon="1.49491333">
        <ele>966.0</ele>
        <time>2019-08-04T06:12:50.774Z</time>
      </trkpt>
      <trkpt lat="42.48814667" lon="1.49491333">
        <ele>966.0</ele>
        <time>2019-08-04T06:12:51.793Z</time>
      </trkpt>
      <trkpt lat="42.48822667" lon="1.49499833">
        <ele>968.0</ele>
        <time>2019-08-04T06:12:52.798Z</time>
      </trkpt>
      <trkpt lat="42.48822667" lon="1.49499833">
        <ele>968.0</ele>
        <time>2019-08-04T06:12:53.796Z</time>
      </trkpt>
      <trkpt lat="42.48829667" lon="1.49509667">
        <ele>969.0</ele>
        <time>2019-08-04T06:12:54.797Z</time>
      </trkpt>
      <trkpt lat="42.48833" lon="1.49514">
        <ele>969.0</ele>
        <time>2019-08-04T06:12:55.804Z</time>
      </trkpt>
      <trkpt lat="42.48836167" lon="1.49518667">
        <ele>970.0</ele>
        <time>2019-08-04T06:12:56.799Z</time>
      </trkpt>
      <trkpt lat="42.48836167" lon="1.49518667">
        <ele>970.0</ele>
        <time>2019-08-04T06:12:57.790Z</time>
      </trkpt>
      <trkpt lat="42.488425" lon="1.49528">
        <ele>971.0</ele>
        <time>2019-08-04T06:12:58.797Z</time>
      </trkpt>
      <trkpt lat="42.488425" lon="1.49528">
        <ele>971.0</ele>
        <time>2019-08-04T06:12:59.793Z</time>
      </trkpt>
      <trkpt lat="42.488505" lon="1.495365">
        <ele>971.0</ele>
        <time>2019-08-04T06:13:00.779Z</time>
      </trkpt>
      <trkpt lat="42.488505" lon="1.495365">
        <ele>971.0</ele>
        <time>2019-08-04T06:13:01.798Z</time>
      </trkpt>
      <trkpt lat="42.48857333" lon="1.49543833">
        <ele>973.0</ele>
        <time>2019-08-04T06:13:02.784Z</time>
      </trkpt>
      <trkpt lat="42.48857333" lon="1.49543833">
        <ele>973.0</ele>
        <time>2019-08-04T06:13:03.766Z</time>
      </trkpt>
      <trkpt lat="42.48864667" lon="1.49549667">
        <ele>974.0</ele>
        <time>2019-08-04T06:13:04.796Z</time>
      </trkpt>
      <trkpt lat="42.48864667" lon="1.49549667">
        <ele>974.0</ele>
        <time>2019-08-04T06:13:05.767Z</time>
      </trkpt>
      <trkpt lat="42.48872333" lon="1.49555333">
        <ele>975.0</ele>
        <time>2019-08-04T06:13:06.772Z</time>
      </trkpt>
      <trkpt lat="42.48876" lon="1.49558167">
        <ele>975.0</ele>
        <time>2019-08-04T06:13:07.796Z</time>
      </trkpt>
      <trkpt lat="42.4888" lon="1.49560833">
        <ele>975.0</ele>
        <time>2019-08-04T06:13:08.774Z</time>
      </trkpt>
      <trkpt lat="42.48884" lon="1.49563833">
        <ele>976.0</ele>
        <time>2019-08-04T06:13:09.797Z</time>
      </trkpt>
      <trkpt lat="42.48884" lon="1.49563833">
        <ele>976.0</ele>
        <time>2019-08-04T06:13:10.799Z</time>
      </trkpt>
      <trkpt lat="42.48891833" lon="1.49569667">
        <ele>977.0</ele>
        <time>2019-08-04T06:13:11.802Z</time>
      </trkpt>
      <trkpt lat="42.48895667" lon="1.49572833">
        <ele>977.0</ele>
        <time>2019-08-04T06:13:12.783Z</time>
      </trkpt>
      <trkpt lat="42.48895667" lon="1.49572833">
        <ele>977.0</ele>
        <time>2019-08-04T06:13:13.766Z</time>
      </trkpt>
      <trkpt lat="42.48903667" lon="1.49578833">
        <ele>977.0</ele>
        <time>2019-08-04T06:13:14.798Z</time>
      </trkpt>
      <trkpt lat="42.48903667" lon="1.49578833">
        <ele>977.0</ele>
        <time>2019-08-04T06:13:15.795Z</time>
      </trkpt>
      <trkpt lat="42.489115" lon="1.49585">
        <ele>978.0</ele>
        <time>2019-08-04T06:13:16.798Z</time>
      </trkpt>
      <trkpt lat="42.489115" lon="1.49585">
        <ele>978.0</ele>
        <time>2019-08-04T06:13:17.790Z</time>
      </trkpt>
      <trkpt lat="42.48919667" lon="1.49591167">
        <ele>979.0</ele>
        <time>2019-08-04T06:13:18.770Z</time>
      </trkpt>
      <trkpt lat="42.48919667" lon="1.49591167">
        <ele>979.0</ele>
        <time>2019-08-04T06:13:19.791Z</time>
      </trkpt>
      <trkpt lat="42.48927167" lon="1.49597667">
        <ele>979.0</ele>
        <time>2019-08-04T06:13:20.772Z</time>
      </trkpt>
      <trkpt lat="42.48927167" lon="1.49597667">
        <ele>979.0</ele>
        <time>2019-08-04T06:13:21.795Z</time>
      </trkpt>
      <trkpt lat="42.48934333" lon="1.49604333">
        <ele>979.0</ele>
        <time>2019-08-04T06:13:22.780Z</time>
      </trkpt>
      <trkpt lat="42.48934333" lon="1.49604333">
        <ele>979.0</ele>
        <time>2019-08-04T06:13:23.799Z</time>
      </trkpt>
      <trkpt lat="42.48941833" lon="1.49611167">
        <ele>980.0</ele>
        <time>2019-08-04T06:13:24.796Z</time>
      </trkpt>
      <trkpt lat="42.48945833" lon="1.496145">
        <ele>980.0</ele>
        <time>2019-08-04T06:13:25.797Z</time>
      </trkpt>
      <trkpt lat="42.48945833" lon="1.496145">
        <ele>980.0</ele>
        <time>2019-08-04T06:13:26.794Z</time>
      </trkpt>
      <trkpt lat="42.489535" lon="1.49621667">
        <ele>980.0</ele>
        <time>2019-08-04T06:13:27.796Z</time>
      </trkpt>
      <trkpt lat="42.48957667" lon="1.49625">
        <ele>981.0</ele>
        <time>2019-08-04T06:13:28.797Z</time>
      </trkpt>
      <trkpt lat="42.48957667" lon="1.49625">
        <ele>981.0</ele>
        <time>2019-08-04T06:13:29.791Z</time>
      </trkpt>
      <trkpt lat="42.48966833" lon="1.49629">
        <ele>981.0</ele>
        <time>2019-08-04T06:13:30.777Z</time>
      </trkpt>
      <trkpt lat="42.48972" lon="1.49629833">
        <ele>981.0</ele>
        <time>2019-08-04T06:13:31.797Z</time>
      </trkpt>
      <trkpt lat="42.48972" lon="1.49629833">
        <ele>981.0</ele>
        <time>2019-08-04T06:13:32.770Z</time>
      </trkpt>
      <trkpt lat="42.48983" lon="1.49630667">
        <ele>982.0</ele>
        <time>2019-08-04T06:13:33.796Z</time>
      </trkpt>
      <trkpt lat="42.48988" lon="1.496305">
        <ele>982.0</ele>
        <time>2019-08-04T06:13:34.796Z</time>
      </trkpt>
      <trkpt lat="42.48988" lon="1.496305">
        <ele>982.0</ele>
        <time>2019-08-04T06:13:35.797Z</time>
      </trkpt>
      <trkpt lat="42.48997833" lon="1.49630333">
        <ele>983.0</ele>
        <time>2019-08-04T06:13:36.797Z</time>
      </trkpt>
      <trkpt lat="42.48997833" lon="1.49630333">
        <ele>983.0</ele>
        <time>2019-08-04T06:13:37.791Z</time>
      </trkpt>
      <trkpt lat="42.49007333" lon="1.49630167">
        <ele>983.0</ele>
        <time>2019-08-04T06:13:38.771Z</time>
      </trkpt>
      <trkpt lat="42.49007333" lon="1.49630167">
        <ele>983.0</ele>
        <time>2019-08-04T06:13:39.793Z</time>
      </trkpt>
      <trkpt lat="42.49017333" lon="1.49630333">
        <ele>984.0</ele>
        <time>2019-08-04T06:13:40.777Z</time>
      </trkpt>
      <trkpt lat="42.49017333" lon="1.49630333">
        <ele>984.0</ele>
        <time>2019-08-04T06:13:41.771Z</time>
      </trkpt>
      <trkpt lat="42.49027167" lon="1.49629833">
        <ele>985.0</ele>
        <time>2019-08-04T06:13:42.775Z</time>
      </trkpt>
      <trkpt lat="42.49032" lon="1.49629833">
        <ele>985.0</ele>
        <time>2019-08-04T06:13:43.796Z</time>
      </trkpt>
      <trkpt lat="42.49032" lon="1.49629833">
        <ele>985.0</ele>
        <time>2019-08-04T06:13:44.795Z</time>
      </trkpt>
      <trkpt lat="42.49042" lon="1.49629833">
        <ele>986.0</ele>
        <time>2019-08-04T06:13:45.797Z</time>
      </trkpt>
      <trkpt lat="42.49047" lon="1.49629667">
        <ele>986.0</ele>
        <time>2019-08-04T06:13:46.794Z</time>
      </trkpt>
      <trkpt lat="42.49052" lon="1.49629667">
        <ele>986.0</ele>
        <time>2019-08-04T06:13:47.798Z</time>
      </trkpt>
      <trkpt lat="42.49052" lon="1.49629667">
        <ele>986.0</ele>
        <time>2019-08-04T06:13:48.794Z</time>
      </trkpt>
      <trkpt lat="42.49061833" lon="1.49629833">
        <ele>987.0</ele>
        <time>2019-08-04T06:13:49.794Z</time>
      </trkpt>
      <trkpt lat="42.49067167" lon="1.49629833">
        <ele>988.0</ele>
        <time>2019-08-04T06:13:50.799Z</time>
      </trkpt>
      <trkpt lat="42.49067167" lon="1.49629833">
        <ele>988.0</ele>
        <time>2019-08-04T06:13:51.787Z</time>
      </trkpt>
      <trkpt lat="42.49077167" lon="1.4963">
        <ele>988.0</ele>
        <time>2019-08-04T06:13:52.784Z</time>
      </trkpt>
      <trkpt lat="42.49077167" lon="1.4963">
        <ele>988.0</ele>
        <time>2019-08-04T06:13:53.772Z</time>
      </trkpt>
      <trkpt lat="42.49086" lon="1.496305">
        <ele>989.0</ele>
        <time>2019-08-04T06:13:54.798Z</time>
      </trkpt>
      <trkpt lat="42.49086" lon="1.496305">
        <ele>989.0</ele>
        <time>2019-08-04T06:13:55.799Z</time>
      </trkpt>
      <trkpt lat="42.49095" lon="1.49631833">
        <ele>989.0</ele>
        <time>2019-08-04T06:13:56.797Z</time>
      </trkpt>
      <trkpt lat="42.49095" lon="1.49631833">
        <ele>989.0</ele>
        <time>2019-08-04T06:13:57.801Z</time>
      </trkpt>
      <trkpt lat="42.49103833" lon="1.49635">
        <ele>988.0</ele>
        <time>2019-08-04T06:13:58.796Z</time>
      </trkpt>
      <trkpt lat="42.49103833" lon="1.49635">
        <ele>988.0</ele>
        <time>2019-08-04T06:13:59.770Z</time>
      </trkpt>
      <trkpt lat="42.49112833" lon="1.49639">
        <ele>988.0</ele>
        <time>2019-08-04T06:14:00.798Z</time>
      </trkpt>
      <trkpt lat="42.49112833" lon="1.49639">
        <ele>988.0</ele>
        <time>2019-08-04T06:14:01.775Z</time>
      </trkpt>
      <trkpt lat="42.49122" lon="1.496475">
        <ele>984.0</ele>
        <time>2019-08-04T06:14:02.790Z</time>
      </trkpt>
      <trkpt lat="42.49122" lon="1.496475">
        <ele>984.0</ele>
        <time>2019-08-04T06:14:03.778Z</time>
      </trkpt>
      <trkpt lat="42.491295" lon="1.496565">
        <ele>983.0</ele>
        <time>2019-08-04T06:14:04.799Z</time>
      </trkpt>
      <trkpt lat="42.491295" lon="1.496565">
        <ele>983.0</ele>
        <time>2019-08-04T06:14:05.791Z</time>
      </trkpt>
      <trkpt lat="42.49136333" lon="1.49666333">
        <ele>982.0</ele>
        <time>2019-08-04T06:14:06.771Z</time>
      </trkpt>
      <trkpt lat="42.491395" lon="1.49671333">
        <ele>982.0</ele>
        <time>2019-08-04T06:14:07.797Z</time>
      </trkpt>
      <trkpt lat="42.49142833" lon="1.49676667">
        <ele>982.0</ele>
        <time>2019-08-04T06:14:08.799Z</time>
      </trkpt>
      <trkpt lat="42.49142833" lon="1.49676667">
        <ele>982.0</ele>
        <time>2019-08-04T06:14:09.791Z</time>
      </trkpt>
      <trkpt lat="42.49149167" lon="1.49687">
        <ele>982.0</ele>
        <time>2019-08-04T06:14:10.775Z</time>
      </trkpt>
      <trkpt lat="42.49149167" lon="1.49687">
        <ele>982.0</ele>
        <time>2019-08-04T06:14:11.797Z</time>
      </trkpt>
      <trkpt lat="42.49155833" lon="1.49696667">
        <ele>981.0</ele>
        <time>2019-08-04T06:14:12.772Z</time>
      </trkpt>
      <trkpt lat="42.49155833" lon="1.49696667">
        <ele>981.0</ele>
        <time>2019-08-04T06:14:13.793Z</time>
      </trkpt>
      <trkpt lat="42.49162167" lon="1.49707167">
        <ele>981.0</ele>
        <time>2019-08-04T06:14:14.772Z</time>
      </trkpt>
      <trkpt lat="42.49162167" lon="1.49707167">
        <ele>981.0</ele>
        <time>2019-08-04T06:14:15.791Z</time>
      </trkpt>
      <trkpt lat="42.49168" lon="1.49717667">
        <ele>981.0</ele>
        <time>2019-08-04T06:14:16.771Z</time>
      </trkpt>
      <trkpt lat="42.49168" lon="1.49717667">
        <ele>981.0</ele>
        <time>2019-08-04T06:14:17.792Z</time>
      </trkpt>
      <trkpt lat="42.49174333" lon="1.49727833">
        <ele>981.0</ele>
        <time>2019-08-04T06:14:18.775Z</time>
      </trkpt>
      <trkpt lat="42.49174333" lon="1.49727833">
        <ele>981.0</ele>
        <time>2019-08-04T06:14:19.795Z</time>
      </trkpt>
      <trkpt lat="42.491805" lon="1.49737667">
        <ele>981.0</ele>
        <time>2019-08-04T06:14:20.772Z</time>
      </trkpt>
      <trkpt lat="42.491805" lon="1.49737667">
        <ele>981.0</ele>
        <time>2019-08-04T06:14:21.798Z</time>
      </trkpt>
      <trkpt lat="42.49187167" lon="1.497475">
        <ele>981.0</ele>
        <time>2019-08-04T06:14:22.780Z</time>
      </trkpt>
      <trkpt lat="42.491905" lon="1.49752833">
        <ele>981.0</ele>
        <time>2019-08-04T06:14:23.802Z</time>
      </trkpt>
      <trkpt lat="42.491905" lon="1.49752833">
        <ele>981.0</ele>
        <time>2019-08-04T06:14:24.792Z</time>
      </trkpt>
      <trkpt lat="42.49197" lon="1.497635">
        <ele>982.0</ele>
        <time>2019-08-04T06:14:25.771Z</time>
      </trkpt>
      <trkpt lat="42.492" lon="1.49769167">
        <ele>982.0</ele>
        <time>2019-08-04T06:14:26.798Z</time>
      </trkpt>
      <trkpt lat="42.49203" lon="1.497745">
        <ele>982.0</ele>
        <time>2019-08-04T06:14:27.796Z</time>
      </trkpt>
      <trkpt lat="42.49203" lon="1.497745">
        <ele>982.0</ele>
        <time>2019-08-04T06:14:28.793Z</time>
      </trkpt>
      <trkpt lat="42.49209333" lon="1.49785167">
        <ele>982.0</ele>
        <time>2019-08-04T06:14:29.772Z</time>
      </trkpt>
      <trkpt lat="42.49209333" lon="1.49785167">
        <ele>982.0</ele>
        <time>2019-08-04T06:14:30.795Z</time>
      </trkpt>
      <trkpt lat="42.49215333" lon="1.49795667">
        <ele>982.0</ele>
        <time>2019-08-04T06:14:31.800Z</time>
      </trkpt>
      <trkpt lat="42.49215333" lon="1.49795667">
        <ele>982.0</ele>
        <time>2019-08-04T06:14:32.768Z</time>
      </trkpt>
      <trkpt lat="42.49221167" lon="1.49806167">
        <ele>982.0</ele>
        <time>2019-08-04T06:14:33.796Z</time>
      </trkpt>
      <trkpt lat="42.49224" lon="1.49811667">
        <ele>983.0</ele>
        <time>2019-08-04T06:14:34.798Z</time>
      </trkpt>
      <trkpt lat="42.49226667" lon="1.49817333">
        <ele>983.0</ele>
        <time>2019-08-04T06:14:35.796Z</time>
      </trkpt>
      <trkpt lat="42.49226667" lon="1.49817333">
        <ele>983.0</ele>
        <time>2019-08-04T06:14:36.794Z</time>
      </trkpt>
      <trkpt lat="42.49232333" lon="1.498285">
        <ele>983.0</ele>
        <time>2019-08-04T06:14:37.774Z</time>
      </trkpt>
      <trkpt lat="42.49235167" lon="1.498345">
        <ele>984.0</ele>
        <time>2019-08-04T06:14:38.799Z</time>
      </trkpt>
      <trkpt lat="42.49235167" lon="1.498345">
        <ele>984.0</ele>
        <time>2019-08-04T06:14:39.797Z</time>
      </trkpt>
      <trkpt lat="42.49241167" lon="1.49846833">
        <ele>984.0</ele>
        <time>2019-08-04T06:14:40.798Z</time>
      </trkpt>
      <trkpt lat="42.49241167" lon="1.49846833">
        <ele>984.0</ele>
        <time>2019-08-04T06:14:41.802Z</time>
      </trkpt>
      <trkpt lat="42.49247333" lon="1.49859167">
        <ele>984.0</ele>
        <time>2019-08-04T06:14:42.772Z</time>
      </trkpt>
      <trkpt lat="42.49247333" lon="1.49859167">
        <ele>984.0</ele>
        <time>2019-08-04T06:14:43.793Z</time>
      </trkpt>
      <trkpt lat="42.49253833" lon="1.49872167">
        <ele>984.0</ele>
        <time>2019-08-04T06:14:44.773Z</time>
      </trkpt>
      <trkpt lat="42.49253833" lon="1.49872167">
        <ele>984.0</ele>
        <time>2019-08-04T06:14:45.795Z</time>
      </trkpt>
      <trkpt lat="42.492605" lon="1.49885667">
        <ele>984.0</ele>
        <time>2019-08-04T06:14:46.798Z</time>
      </trkpt>
      <trkpt lat="42.492605" lon="1.49885667">
        <ele>984.0</ele>
        <time>2019-08-04T06:14:47.795Z</time>
      </trkpt>
      <trkpt lat="42.49266667" lon="1.49899333">
        <ele>984.0</ele>
        <time>2019-08-04T06:14:48.774Z</time>
      </trkpt>
      <trkpt lat="42.49269833" lon="1.49906">
        <ele>984.0</ele>
        <time>2019-08-04T06:14:49.798Z</time>
      </trkpt>
      <trkpt lat="42.49269833" lon="1.49906">
        <ele>984.0</ele>
        <time>2019-08-04T06:14:50.796Z</time>
      </trkpt>
      <trkpt lat="42.49276333" lon="1.49919667">
        <ele>985.0</ele>
        <time>2019-08-04T06:14:51.800Z</time>
      </trkpt>
      <trkpt lat="42.49280167" lon="1.49927">
        <ele>985.0</ele>
        <time>2019-08-04T06:14:52.790Z</time>
      </trkpt>
      <trkpt lat="42.49280167" lon="1.49927">
        <ele>985.0</ele>
        <time>2019-08-04T06:14:53.770Z</time>
      </trkpt>
      <trkpt lat="42.49288667" lon="1.49940833">
        <ele>984.0</ele>
        <time>2019-08-04T06:14:54.797Z</time>
      </trkpt>
      <trkpt lat="42.49288667" lon="1.49940833">
        <ele>984.0</ele>
        <time>2019-08-04T06:14:55.797Z</time>
      </trkpt>
      <trkpt lat="42.49298" lon="1.49954333">
        <ele>984.0</ele>
        <time>2019-08-04T06:14:56.800Z</time>
      </trkpt>
      <trkpt lat="42.49298" lon="1.49954333">
        <ele>984.0</ele>
        <time>2019-08-04T06:14:57.795Z</time>
      </trkpt>
      <trkpt lat="42.493085" lon="1.499675">
        <ele>984.0</ele>
        <time>2019-08-04T06:14:58.798Z</time>
      </trkpt>
      <trkpt lat="42.493085" lon="1.499675">
        <ele>984.0</ele>
        <time>2019-08-04T06:14:59.794Z</time>
      </trkpt>
      <trkpt lat="42.49319333" lon="1.49981">
        <ele>983.0</ele>
        <time>2019-08-04T06:15:00.775Z</time>
      </trkpt>
      <trkpt lat="42.49319333" lon="1.49981">
        <ele>983.0</ele>
        <time>2019-08-04T06:15:01.798Z</time>
      </trkpt>
      <trkpt lat="42.4933" lon="1.49994667">
        <ele>984.0</ele>
        <time>2019-08-04T06:15:02.790Z</time>
      </trkpt>
      <trkpt lat="42.4933" lon="1.49994667">
        <ele>984.0</ele>
        <time>2019-08-04T06:15:03.781Z</time>
      </trkpt>
      <trkpt lat="42.49340333" lon="1.50008667">
        <ele>984.0</ele>
        <time>2019-08-04T06:15:04.802Z</time>
      </trkpt>
      <trkpt lat="42.49340333" lon="1.50008667">
        <ele>984.0</ele>
        <time>2019-08-04T06:15:05.771Z</time>
      </trkpt>
      <trkpt lat="42.49351" lon="1.50021667">
        <ele>985.0</ele>
        <time>2019-08-04T06:15:06.799Z</time>
      </trkpt>
      <trkpt lat="42.49351" lon="1.50021667">
        <ele>985.0</ele>
        <time>2019-08-04T06:15:07.793Z</time>
      </trkpt>
      <trkpt lat="42.49361333" lon="1.50035167">
        <ele>985.0</ele>
        <time>2019-08-04T06:15:08.772Z</time>
      </trkpt>
      <trkpt lat="42.49361333" lon="1.50035167">
        <ele>985.0</ele>
        <time>2019-08-04T06:15:09.792Z</time>
      </trkpt>
      <trkpt lat="42.49372167" lon="1.500495">
        <ele>984.0</ele>
        <time>2019-08-04T06:15:10.772Z</time>
      </trkpt>
      <trkpt lat="42.49372167" lon="1.500495">
        <ele>984.0</ele>
        <time>2019-08-04T06:15:11.799Z</time>
      </trkpt>
      <trkpt lat="42.49382167" lon="1.50064833">
        <ele>983.0</ele>
        <time>2019-08-04T06:15:12.770Z</time>
      </trkpt>
      <trkpt lat="42.49382167" lon="1.50064833">
        <ele>983.0</ele>
        <time>2019-08-04T06:15:13.794Z</time>
      </trkpt>
      <trkpt lat="42.49390167" lon="1.50081167">
        <ele>983.0</ele>
        <time>2019-08-04T06:15:14.773Z</time>
      </trkpt>
      <trkpt lat="42.49390167" lon="1.50081167">
        <ele>983.0</ele>
        <time>2019-08-04T06:15:15.796Z</time>
      </trkpt>
      <trkpt lat="42.493965" lon="1.50098">
        <ele>982.0</ele>
        <time>2019-08-04T06:15:16.798Z</time>
      </trkpt>
      <trkpt lat="42.493965" lon="1.50098">
        <ele>982.0</ele>
        <time>2019-08-04T06:15:17.795Z</time>
      </trkpt>
      <trkpt lat="42.49403333" lon="1.501135">
        <ele>982.0</ele>
        <time>2019-08-04T06:15:18.794Z</time>
      </trkpt>
      <trkpt lat="42.49407333" lon="1.501205">
        <ele>982.0</ele>
        <time>2019-08-04T06:15:19.797Z</time>
      </trkpt>
      <trkpt lat="42.49407333" lon="1.501205">
        <ele>982.0</ele>
        <time>2019-08-04T06:15:20.795Z</time>
      </trkpt>
      <trkpt lat="42.49415" lon="1.50135167">
        <ele>981.0</ele>
        <time>2019-08-04T06:15:21.796Z</time>
      </trkpt>
      <trkpt lat="42.49415" lon="1.50135167">
        <ele>981.0</ele>
        <time>2019-08-04T06:15:22.766Z</time>
      </trkpt>
      <trkpt lat="42.49422" lon="1.50151333">
        <ele>981.0</ele>
        <time>2019-08-04T06:15:23.797Z</time>
      </trkpt>
      <trkpt lat="42.49425167" lon="1.50159833">
        <ele>981.0</ele>
        <time>2019-08-04T06:15:24.796Z</time>
      </trkpt>
      <trkpt lat="42.49425167" lon="1.50159833">
        <ele>981.0</ele>
        <time>2019-08-04T06:15:25.793Z</time>
      </trkpt>
      <trkpt lat="42.49431167" lon="1.50177167">
        <ele>981.0</ele>
        <time>2019-08-04T06:15:26.800Z</time>
      </trkpt>
      <trkpt lat="42.49431167" lon="1.50177167">
        <ele>981.0</ele>
        <time>2019-08-04T06:15:27.794Z</time>
      </trkpt>
      <trkpt lat="42.49436833" lon="1.50194">
        <ele>980.0</ele>
        <time>2019-08-04T06:15:28.798Z</time>
      </trkpt>
      <trkpt lat="42.49436833" lon="1.50194">
        <ele>980.0</ele>
        <time>2019-08-04T06:15:29.795Z</time>
      </trkpt>
      <trkpt lat="42.49442667" lon="1.50211">
        <ele>980.0</ele>
        <time>2019-08-04T06:15:30.798Z</time>
      </trkpt>
      <trkpt lat="42.49442667" lon="1.50211">
        <ele>980.0</ele>
        <time>2019-08-04T06:15:31.795Z</time>
      </trkpt>
      <trkpt lat="42.49448667" lon="1.502275">
        <ele>980.0</ele>
        <time>2019-08-04T06:15:32.794Z</time>
      </trkpt>
      <trkpt lat="42.49451667" lon="1.50235">
        <ele>980.0</ele>
        <time>2019-08-04T06:15:33.783Z</time>
      </trkpt>
      <trkpt lat="42.49451667" lon="1.50235">
        <ele>980.0</ele>
        <time>2019-08-04T06:15:34.803Z</time>
      </trkpt>
      <trkpt lat="42.49459" lon="1.50250833">
        <ele>980.0</ele>
        <time>2019-08-04T06:15:35.798Z</time>
      </trkpt>
      <trkpt lat="42.49459" lon="1.50250833">
        <ele>980.0</ele>
        <time>2019-08-04T06:15:36.794Z</time>
      </trkpt>
      <trkpt lat="42.49466333" lon="1.50267167">
        <ele>980.0</ele>
        <time>2019-08-04T06:15:37.798Z</time>
      </trkpt>
      <trkpt lat="42.49466333" lon="1.50267167">
        <ele>980.0</ele>
        <time>2019-08-04T06:15:38.799Z</time>
      </trkpt>
      <trkpt lat="42.49473333" lon="1.50283167">
        <ele>979.0</ele>
        <time>2019-08-04T06:15:39.798Z</time>
      </trkpt>
      <trkpt lat="42.49473333" lon="1.50283167">
        <ele>979.0</ele>
        <time>2019-08-04T06:15:40.777Z</time>
      </trkpt>
      <trkpt lat="42.49480667" lon="1.50299667">
        <ele>980.0</ele>
        <time>2019-08-04T06:15:41.797Z</time>
      </trkpt>
      <trkpt lat="42.49484333" lon="1.50307333">
        <ele>980.0</ele>
        <time>2019-08-04T06:15:42.769Z</time>
      </trkpt>
      <trkpt lat="42.49488" lon="1.50315333">
        <ele>981.0</ele>
        <time>2019-08-04T06:15:43.798Z</time>
      </trkpt>
      <trkpt lat="42.49488" lon="1.50315333">
        <ele>981.0</ele>
        <time>2019-08-04T06:15:44.793Z</time>
      </trkpt>
      <trkpt lat="42.49495" lon="1.50331667">
        <ele>981.0</ele>
        <time>2019-08-04T06:15:45.775Z</time>
      </trkpt>
      <trkpt lat="42.49498333" lon="1.50339833">
        <ele>982.0</ele>
        <time>2019-08-04T06:15:46.798Z</time>
      </trkpt>
      <trkpt lat="42.49498333" lon="1.50339833">
        <ele>982.0</ele>
        <time>2019-08-04T06:15:47.795Z</time>
      </trkpt>
      <trkpt lat="42.49502833" lon="1.503555">
        <ele>982.0</ele>
        <time>2019-08-04T06:15:48.774Z</time>
      </trkpt>
      <trkpt lat="42.49502833" lon="1.503555">
        <ele>982.0</ele>
        <time>2019-08-04T06:15:49.795Z</time>
      </trkpt>
      <trkpt lat="42.49503833" lon="1.50370833">
        <ele>984.0</ele>
        <time>2019-08-04T06:15:50.791Z</time>
      </trkpt>
      <trkpt lat="42.495025" lon="1.50377833">
        <ele>984.0</ele>
        <time>2019-08-04T06:15:51.772Z</time>
      </trkpt>
      <trkpt lat="42.495025" lon="1.50377833">
        <ele>984.0</ele>
        <time>2019-08-04T06:15:52.770Z</time>
      </trkpt>
      <trkpt lat="42.495005" lon="1.50391833">
        <ele>985.0</ele>
        <time>2019-08-04T06:15:53.798Z</time>
      </trkpt>
      <trkpt lat="42.495005" lon="1.50391833">
        <ele>985.0</ele>
        <time>2019-08-04T06:15:54.796Z</time>
      </trkpt>
      <trkpt lat="42.49502" lon="1.50404833">
        <ele>986.0</ele>
        <time>2019-08-04T06:15:55.768Z</time>
      </trkpt>
      <trkpt lat="42.49502" lon="1.50404833">
        <ele>986.0</ele>
        <time>2019-08-04T06:15:56.797Z</time>
      </trkpt>
      <trkpt lat="42.49504" lon="1.50416833">
        <ele>987.0</ele>
        <time>2019-08-04T06:15:57.798Z</time>
      </trkpt>
      <trkpt lat="42.49503833" lon="1.50422667">
        <ele>987.0</ele>
        <time>2019-08-04T06:15:58.774Z</time>
      </trkpt>
      <trkpt lat="42.49503833" lon="1.50422667">
        <ele>987.0</ele>
        <time>2019-08-04T06:15:59.796Z</time>
      </trkpt>
      <trkpt lat="42.49503" lon="1.50435333">
        <ele>987.0</ele>
        <time>2019-08-04T06:16:00.798Z</time>
      </trkpt>
      <trkpt lat="42.49502667" lon="1.50442">
        <ele>987.0</ele>
        <time>2019-08-04T06:16:01.774Z</time>
      </trkpt>
      <trkpt lat="42.49502667" lon="1.50442">
        <ele>987.0</ele>
        <time>2019-08-04T06:16:02.788Z</time>
      </trkpt>
      <trkpt lat="42.495025" lon="1.50455">
        <ele>988.0</ele>
        <time>2019-08-04T06:16:03.768Z</time>
      </trkpt>
      <trkpt lat="42.495025" lon="1.50461667">
        <ele>988.0</ele>
        <time>2019-08-04T06:16:04.799Z</time>
      </trkpt>
      <trkpt lat="42.49502833" lon="1.504685">
        <ele>988.0</ele>
        <time>2019-08-04T06:16:05.798Z</time>
      </trkpt>
      <trkpt lat="42.49502833" lon="1.504685">
        <ele>988.0</ele>
        <time>2019-08-04T06:16:06.798Z</time>
      </trkpt>
      <trkpt lat="42.49504667" lon="1.50483333">
        <ele>988.0</ele>
        <time>2019-08-04T06:16:07.798Z</time>
      </trkpt>
      <trkpt lat="42.49506333" lon="1.50491333">
        <ele>988.0</ele>
        <time>2019-08-04T06:16:08.797Z</time>
      </trkpt>
      <trkpt lat="42.49506333" lon="1.50491333">
        <ele>988.0</ele>
        <time>2019-08-04T06:16:09.767Z</time>
      </trkpt>
      <trkpt lat="42.49510833" lon="1.50507667">
        <ele>988.0</ele>
        <time>2019-08-04T06:16:10.797Z</time>
      </trkpt>
      <trkpt lat="42.49510833" lon="1.50507667">
        <ele>988.0</ele>
        <time>2019-08-04T06:16:11.795Z</time>
      </trkpt>
      <trkpt lat="42.49516667" lon="1.50524833">
        <ele>988.0</ele>
        <time>2019-08-04T06:16:12.769Z</time>
      </trkpt>
      <trkpt lat="42.49520333" lon="1.50533667">
        <ele>988.0</ele>
        <time>2019-08-04T06:16:13.797Z</time>
      </trkpt>
      <trkpt lat="42.495245" lon="1.50542667">
        <ele>988.0</ele>
        <time>2019-08-04T06:16:14.798Z</time>
      </trkpt>
      <trkpt lat="42.495245" lon="1.50542667">
        <ele>988.0</ele>
        <time>2019-08-04T06:16:15.795Z</time>
      </trkpt>
      <trkpt lat="42.49534667" lon="1.50560333">
        <ele>989.0</ele>
        <time>2019-08-04T06:16:16.799Z</time>
      </trkpt>
      <trkpt lat="42.49534667" lon="1.50560333">
        <ele>989.0</ele>
        <time>2019-08-04T06:16:17.796Z</time>
      </trkpt>
      <trkpt lat="42.49545333" lon="1.505785">
        <ele>989.0</ele>
        <time>2019-08-04T06:16:18.775Z</time>
      </trkpt>
      <trkpt lat="42.495505" lon="1.50587667">
        <ele>989.0</ele>
        <time>2019-08-04T06:16:19.797Z</time>
      </trkpt>
      <trkpt lat="42.495505" lon="1.50587667">
        <ele>989.0</ele>
        <time>2019-08-04T06:16:20.776Z</time>
      </trkpt>
      <trkpt lat="42.49561" lon="1.506055">
        <ele>988.0</ele>
        <time>2019-08-04T06:16:21.798Z</time>
      </trkpt>
      <trkpt lat="42.49566333" lon="1.50614333">
        <ele>988.0</ele>
        <time>2019-08-04T06:16:22.784Z</time>
      </trkpt>
      <trkpt lat="42.495715" lon="1.50623">
        <ele>988.0</ele>
        <time>2019-08-04T06:16:23.781Z</time>
      </trkpt>
      <trkpt lat="42.495715" lon="1.50623">
        <ele>988.0</ele>
        <time>2019-08-04T06:16:24.800Z</time>
      </trkpt>
      <trkpt lat="42.49582167" lon="1.5064">
        <ele>987.0</ele>
        <time>2019-08-04T06:16:25.799Z</time>
      </trkpt>
      <trkpt lat="42.49587333" lon="1.50648667">
        <ele>987.0</ele>
        <time>2019-08-04T06:16:26.799Z</time>
      </trkpt>
      <trkpt lat="42.49587333" lon="1.50648667">
        <ele>987.0</ele>
        <time>2019-08-04T06:16:27.793Z</time>
      </trkpt>
      <trkpt lat="42.49598" lon="1.50665167">
        <ele>987.0</ele>
        <time>2019-08-04T06:16:28.772Z</time>
      </trkpt>
      <trkpt lat="42.49598" lon="1.50665167">
        <ele>987.0</ele>
        <time>2019-08-04T06:16:29.794Z</time>
      </trkpt>
      <trkpt lat="42.49608" lon="1.50681667">
        <ele>986.0</ele>
        <time>2019-08-04T06:16:30.798Z</time>
      </trkpt>
      <trkpt lat="42.49608" lon="1.50681667">
        <ele>986.0</ele>
        <time>2019-08-04T06:16:31.795Z</time>
      </trkpt>
      <trkpt lat="42.49618" lon="1.50698167">
        <ele>986.0</ele>
        <time>2019-08-04T06:16:32.777Z</time>
      </trkpt>
      <trkpt lat="42.49618" lon="1.50698167">
        <ele>986.0</ele>
        <time>2019-08-04T06:16:33.768Z</time>
      </trkpt>
      <trkpt lat="42.49628333" lon="1.50714667">
        <ele>987.0</ele>
        <time>2019-08-04T06:16:34.797Z</time>
      </trkpt>
      <trkpt lat="42.49628333" lon="1.50714667">
        <ele>987.0</ele>
        <time>2019-08-04T06:16:35.795Z</time>
      </trkpt>
      <trkpt lat="42.49638333" lon="1.50731">
        <ele>986.0</ele>
        <time>2019-08-04T06:16:36.800Z</time>
      </trkpt>
      <trkpt lat="42.49643333" lon="1.50739167">
        <ele>986.0</ele>
        <time>2019-08-04T06:16:37.797Z</time>
      </trkpt>
      <trkpt lat="42.49643333" lon="1.50739167">
        <ele>986.0</ele>
        <time>2019-08-04T06:16:38.797Z</time>
      </trkpt>
      <trkpt lat="42.496535" lon="1.507555">
        <ele>986.0</ele>
        <time>2019-08-04T06:16:39.797Z</time>
      </trkpt>
      <trkpt lat="42.496585" lon="1.50763833">
        <ele>986.0</ele>
        <time>2019-08-04T06:16:40.798Z</time>
      </trkpt>
      <trkpt lat="42.496585" lon="1.50763833">
        <ele>986.0</ele>
        <time>2019-08-04T06:16:41.793Z</time>
      </trkpt>
      <trkpt lat="42.49668167" lon="1.507805">
        <ele>986.0</ele>
        <time>2019-08-04T06:16:42.794Z</time>
      </trkpt>
      <trkpt lat="42.49672667" lon="1.50788667">
        <ele>986.0</ele>
        <time>2019-08-04T06:16:43.798Z</time>
      </trkpt>
      <trkpt lat="42.49677" lon="1.50797167">
        <ele>986.0</ele>
        <time>2019-08-04T06:16:44.803Z</time>
      </trkpt>
      <trkpt lat="42.49681" lon="1.508055">
        <ele>987.0</ele>
        <time>2019-08-04T06:16:45.799Z</time>
      </trkpt>
      <trkpt lat="42.49681" lon="1.508055">
        <ele>987.0</ele>
        <time>2019-08-04T06:16:46.796Z</time>
      </trkpt>
      <trkpt lat="42.49688833" lon="1.50821833">
        <ele>987.0</ele>
        <time>2019-08-04T06:16:47.779Z</time>
      </trkpt>
      <trkpt lat="42.49688833" lon="1.50821833">
        <ele>987.0</ele>
        <time>2019-08-04T06:16:48.798Z</time>
      </trkpt>
      <trkpt lat="42.496965" lon="1.508375">
        <ele>987.0</ele>
        <time>2019-08-04T06:16:49.798Z</time>
      </trkpt>
      <trkpt lat="42.497005" lon="1.50845333">
        <ele>987.0</ele>
        <time>2019-08-04T06:16:50.799Z</time>
      </trkpt>
      <trkpt lat="42.497005" lon="1.50845333">
        <ele>987.0</ele>
        <time>2019-08-04T06:16:51.795Z</time>
      </trkpt>
      <trkpt lat="42.49708333" lon="1.50861167">
        <ele>987.0</ele>
        <time>2019-08-04T06:16:52.783Z</time>
      </trkpt>
      <trkpt lat="42.49708333" lon="1.50861167">
        <ele>987.0</ele>
        <time>2019-08-04T06:16:53.771Z</time>
      </trkpt>
      <trkpt lat="42.497165" lon="1.50877833">
        <ele>988.0</ele>
        <time>2019-08-04T06:16:54.797Z</time>
      </trkpt>
      <trkpt lat="42.497165" lon="1.50877833">
        <ele>988.0</ele>
        <time>2019-08-04T06:16:55.796Z</time>
      </trkpt>
      <trkpt lat="42.49724333" lon="1.50894333">
        <ele>988.0</ele>
        <time>2019-08-04T06:16:56.775Z</time>
      </trkpt>
      <trkpt lat="42.49724333" lon="1.50894333">
        <ele>988.0</ele>
        <time>2019-08-04T06:16:57.794Z</time>
      </trkpt>
      <trkpt lat="42.497325" lon="1.50911167">
        <ele>989.0</ele>
        <time>2019-08-04T06:16:58.769Z</time>
      </trkpt>
      <trkpt lat="42.497325" lon="1.50911167">
        <ele>989.0</ele>
        <time>2019-08-04T06:16:59.795Z</time>
      </trkpt>
      <trkpt lat="42.4974" lon="1.50927167">
        <ele>989.0</ele>
        <time>2019-08-04T06:17:00.799Z</time>
      </trkpt>
      <trkpt lat="42.4974" lon="1.50927167">
        <ele>989.0</ele>
        <time>2019-08-04T06:17:01.795Z</time>
      </trkpt>
      <trkpt lat="42.49747833" lon="1.50943667">
        <ele>989.0</ele>
        <time>2019-08-04T06:17:02.781Z</time>
      </trkpt>
      <trkpt lat="42.49747833" lon="1.50943667">
        <ele>989.0</ele>
        <time>2019-08-04T06:17:03.766Z</time>
      </trkpt>
      <trkpt lat="42.49756" lon="1.50960833">
        <ele>990.0</ele>
        <time>2019-08-04T06:17:04.799Z</time>
      </trkpt>
      <trkpt lat="42.49756" lon="1.50960833">
        <ele>990.0</ele>
        <time>2019-08-04T06:17:05.794Z</time>
      </trkpt>
      <trkpt lat="42.49764833" lon="1.50978333">
        <ele>990.0</ele>
        <time>2019-08-04T06:17:06.773Z</time>
      </trkpt>
      <trkpt lat="42.49764833" lon="1.50978333">
        <ele>990.0</ele>
        <time>2019-08-04T06:17:07.795Z</time>
      </trkpt>
      <trkpt lat="42.49773667" lon="1.50996667">
        <ele>990.0</ele>
        <time>2019-08-04T06:17:08.775Z</time>
      </trkpt>
      <trkpt lat="42.49773667" lon="1.50996667">
        <ele>990.0</ele>
        <time>2019-08-04T06:17:09.795Z</time>
      </trkpt>
      <trkpt lat="42.497835" lon="1.510155">
        <ele>990.0</ele>
        <time>2019-08-04T06:17:10.798Z</time>
      </trkpt>
      <trkpt lat="42.497835" lon="1.510155">
        <ele>990.0</ele>
        <time>2019-08-04T06:17:11.795Z</time>
      </trkpt>
      <trkpt lat="42.49793333" lon="1.51034">
        <ele>990.0</ele>
        <time>2019-08-04T06:17:12.785Z</time>
      </trkpt>
      <trkpt lat="42.49793333" lon="1.51034">
        <ele>990.0</ele>
        <time>2019-08-04T06:17:13.769Z</time>
      </trkpt>
      <trkpt lat="42.49804333" lon="1.51053">
        <ele>989.0</ele>
        <time>2019-08-04T06:17:14.798Z</time>
      </trkpt>
      <trkpt lat="42.49809333" lon="1.51062833">
        <ele>989.0</ele>
        <time>2019-08-04T06:17:15.800Z</time>
      </trkpt>
      <trkpt lat="42.49814333" lon="1.51072833">
        <ele>989.0</ele>
        <time>2019-08-04T06:17:16.771Z</time>
      </trkpt>
      <trkpt lat="42.49814333" lon="1.51072833">
        <ele>989.0</ele>
        <time>2019-08-04T06:17:17.800Z</time>
      </trkpt>
      <trkpt lat="42.49830333" lon="1.510855">
        <ele>990.0</ele>
        <time>2019-08-04T06:17:18.798Z</time>
      </trkpt>
      <trkpt lat="42.49839667" lon="1.51088">
        <ele>990.0</ele>
        <time>2019-08-04T06:17:19.799Z</time>
      </trkpt>
      <trkpt lat="42.49848333" lon="1.51092333">
        <ele>990.0</ele>
        <time>2019-08-04T06:17:20.800Z</time>
      </trkpt>
      <trkpt lat="42.49848333" lon="1.51092333">
        <ele>990.0</ele>
        <time>2019-08-04T06:17:21.799Z</time>
      </trkpt>
      <trkpt lat="42.498645" lon="1.51104667">
        <ele>990.0</ele>
        <time>2019-08-04T06:17:22.778Z</time>
      </trkpt>
      <trkpt lat="42.498645" lon="1.51104667">
        <ele>990.0</ele>
        <time>2019-08-04T06:17:23.800Z</time>
      </trkpt>
      <trkpt lat="42.49879667" lon="1.511165">
        <ele>990.0</ele>
        <time>2019-08-04T06:17:24.798Z</time>
      </trkpt>
      <trkpt lat="42.49879667" lon="1.511165">
        <ele>990.0</ele>
        <time>2019-08-04T06:17:25.795Z</time>
      </trkpt>
      <trkpt lat="42.49894" lon="1.51128">
        <ele>990.0</ele>
        <time>2019-08-04T06:17:26.773Z</time>
      </trkpt>
      <trkpt lat="42.49894" lon="1.51128">
        <ele>990.0</ele>
        <time>2019-08-04T06:17:27.794Z</time>
      </trkpt>
      <trkpt lat="42.49908" lon="1.51138667">
        <ele>990.0</ele>
        <time>2019-08-04T06:17:28.774Z</time>
      </trkpt>
      <trkpt lat="42.49908" lon="1.51138667">
        <ele>990.0</ele>
        <time>2019-08-04T06:17:29.795Z</time>
      </trkpt>
      <trkpt lat="42.49921667" lon="1.51149">
        <ele>990.0</ele>
        <time>2019-08-04T06:17:30.774Z</time>
      </trkpt>
      <trkpt lat="42.49921667" lon="1.51149">
        <ele>990.0</ele>
        <time>2019-08-04T06:17:31.794Z</time>
      </trkpt>
      <trkpt lat="42.49935167" lon="1.51159667">
        <ele>990.0</ele>
        <time>2019-08-04T06:17:32.787Z</time>
      </trkpt>
      <trkpt lat="42.49935167" lon="1.51159667">
        <ele>990.0</ele>
        <time>2019-08-04T06:17:33.784Z</time>
      </trkpt>
      <trkpt lat="42.49948333" lon="1.51170333">
        <ele>990.0</ele>
        <time>2019-08-04T06:17:34.803Z</time>
      </trkpt>
      <trkpt lat="42.49948333" lon="1.51170333">
        <ele>990.0</ele>
        <time>2019-08-04T06:17:35.793Z</time>
      </trkpt>
      <trkpt lat="42.49961333" lon="1.51181">
        <ele>990.0</ele>
        <time>2019-08-04T06:17:36.773Z</time>
      </trkpt>
      <trkpt lat="42.49967833" lon="1.51186333">
        <ele>990.0</ele>
        <time>2019-08-04T06:17:37.799Z</time>
      </trkpt>
      <trkpt lat="42.49967833" lon="1.51186333">
        <ele>990.0</ele>
        <time>2019-08-04T06:17:38.796Z</time>
      </trkpt>
      <trkpt lat="42.499805" lon="1.51197333">
        <ele>990.0</ele>
        <time>2019-08-04T06:17:39.798Z</time>
      </trkpt>
      <trkpt lat="42.499805" lon="1.51197333">
        <ele>990.0</ele>
        <time>2019-08-04T06:17:40.797Z</time>
      </trkpt>
      <trkpt lat="42.49994167" lon="1.51207833">
        <ele>990.0</ele>
        <time>2019-08-04T06:17:41.798Z</time>
      </trkpt>
      <trkpt lat="42.50000833" lon="1.51213333">
        <ele>990.0</ele>
        <time>2019-08-04T06:17:42.782Z</time>
      </trkpt>
      <trkpt lat="42.50000833" lon="1.51213333">
        <ele>990.0</ele>
        <time>2019-08-04T06:17:43.767Z</time>
      </trkpt>
      <trkpt lat="42.50014167" lon="1.51224">
        <ele>990.0</ele>
        <time>2019-08-04T06:17:44.800Z</time>
      </trkpt>
      <trkpt lat="42.50014167" lon="1.51224">
        <ele>990.0</ele>
        <time>2019-08-04T06:17:45.797Z</time>
      </trkpt>
      <trkpt lat="42.50028333" lon="1.51234667">
        <ele>990.0</ele>
        <time>2019-08-04T06:17:46.800Z</time>
      </trkpt>
      <trkpt lat="42.50028333" lon="1.51234667">
        <ele>990.0</ele>
        <time>2019-08-04T06:17:47.795Z</time>
      </trkpt>
      <trkpt lat="42.50042667" lon="1.51244333">
        <ele>990.0</ele>
        <time>2019-08-04T06:17:48.775Z</time>
      </trkpt>
      <trkpt lat="42.50049833" lon="1.51248833">
        <ele>990.0</ele>
        <time>2019-08-04T06:17:49.799Z</time>
      </trkpt>
      <trkpt lat="42.50049833" lon="1.51248833">
        <ele>990.0</ele>
        <time>2019-08-04T06:17:50.798Z</time>
      </trkpt>
      <trkpt lat="42.50063833" lon="1.51257833">
        <ele>990.0</ele>
        <time>2019-08-04T06:17:51.799Z</time>
      </trkpt>
      <trkpt lat="42.50063833" lon="1.51257833">
        <ele>990.0</ele>
        <time>2019-08-04T06:17:52.787Z</time>
      </trkpt>
      <trkpt lat="42.50076833" lon="1.512675">
        <ele>990.0</ele>
        <time>2019-08-04T06:17:53.780Z</time>
      </trkpt>
      <trkpt lat="42.50076833" lon="1.512675">
        <ele>990.0</ele>
        <time>2019-08-04T06:17:54.799Z</time>
      </trkpt>
      <trkpt lat="42.50089667" lon="1.51277667">
        <ele>990.0</ele>
        <time>2019-08-04T06:17:55.789Z</time>
      </trkpt>
      <trkpt lat="42.50089667" lon="1.51277667">
        <ele>990.0</ele>
        <time>2019-08-04T06:17:56.768Z</time>
      </trkpt>
      <trkpt lat="42.50102167" lon="1.51287833">
        <ele>990.0</ele>
        <time>2019-08-04T06:17:57.800Z</time>
      </trkpt>
      <trkpt lat="42.501085" lon="1.51293">
        <ele>990.0</ele>
        <time>2019-08-04T06:17:58.799Z</time>
      </trkpt>
      <trkpt lat="42.50115167" lon="1.51298167">
        <ele>990.0</ele>
        <time>2019-08-04T06:17:59.799Z</time>
      </trkpt>
      <trkpt lat="42.50115167" lon="1.51298167">
        <ele>990.0</ele>
        <time>2019-08-04T06:18:00.796Z</time>
      </trkpt>
      <trkpt lat="42.50128" lon="1.51308833">
        <ele>990.0</ele>
        <time>2019-08-04T06:18:01.798Z</time>
      </trkpt>
      <trkpt lat="42.50134" lon="1.51313833">
        <ele>990.0</ele>
        <time>2019-08-04T06:18:02.792Z</time>
      </trkpt>
      <trkpt lat="42.50134" lon="1.51313833">
        <ele>990.0</ele>
        <time>2019-08-04T06:18:03.776Z</time>
      </trkpt>
      <trkpt lat="42.50146333" lon="1.51324">
        <ele>990.0</ele>
        <time>2019-08-04T06:18:04.798Z</time>
      </trkpt>
      <trkpt lat="42.50146333" lon="1.51324">
        <ele>990.0</ele>
        <time>2019-08-04T06:18:05.803Z</time>
      </trkpt>
      <trkpt lat="42.50159" lon="1.51334167">
        <ele>990.0</ele>
        <time>2019-08-04T06:18:06.800Z</time>
      </trkpt>
      <trkpt lat="42.50159" lon="1.51334167">
        <ele>990.0</ele>
        <time>2019-08-04T06:18:07.796Z</time>
      </trkpt>
      <trkpt lat="42.501715" lon="1.51344167">
        <ele>990.0</ele>
        <time>2019-08-04T06:18:08.776Z</time>
      </trkpt>
      <trkpt lat="42.501715" lon="1.51344167">
        <ele>990.0</ele>
        <time>2019-08-04T06:18:09.800Z</time>
      </trkpt>
      <trkpt lat="42.50183833" lon="1.51354667">
        <ele>991.0</ele>
        <time>2019-08-04T06:18:10.800Z</time>
      </trkpt>
      <trkpt lat="42.50183833" lon="1.51354667">
        <ele>991.0</ele>
        <time>2019-08-04T06:18:11.796Z</time>
      </trkpt>
      <trkpt lat="42.50196667" lon="1.51364833">
        <ele>991.0</ele>
        <time>2019-08-04T06:18:12.775Z</time>
      </trkpt>
      <trkpt lat="42.50202667" lon="1.51370333">
        <ele>991.0</ele>
        <time>2019-08-04T06:18:13.804Z</time>
      </trkpt>
      <trkpt lat="42.50202667" lon="1.51370333">
        <ele>991.0</ele>
        <time>2019-08-04T06:18:14.798Z</time>
      </trkpt>
      <trkpt lat="42.50215" lon="1.51381333">
        <ele>991.0</ele>
        <time>2019-08-04T06:18:15.799Z</time>
      </trkpt>
      <trkpt lat="42.50220333" lon="1.51387667">
        <ele>991.0</ele>
        <time>2019-08-04T06:18:16.796Z</time>
      </trkpt>
      <trkpt lat="42.50220333" lon="1.51387667">
        <ele>991.0</ele>
        <time>2019-08-04T06:18:17.775Z</time>
      </trkpt>
      <trkpt lat="42.50230167" lon="1.51401833">
        <ele>992.0</ele>
        <time>2019-08-04T06:18:18.798Z</time>
      </trkpt>
      <trkpt lat="42.50230167" lon="1.51401833">
        <ele>992.0</ele>
        <time>2019-08-04T06:18:19.795Z</time>
      </trkpt>
      <trkpt lat="42.502365" lon="1.51417">
        <ele>992.0</ele>
        <time>2019-08-04T06:18:20.774Z</time>
      </trkpt>
      <trkpt lat="42.502365" lon="1.51417">
        <ele>992.0</ele>
        <time>2019-08-04T06:18:21.794Z</time>
      </trkpt>
      <trkpt lat="42.502425" lon="1.514335">
        <ele>992.0</ele>
        <time>2019-08-04T06:18:22.781Z</time>
      </trkpt>
      <trkpt lat="42.502425" lon="1.514335">
        <ele>992.0</ele>
        <time>2019-08-04T06:18:23.770Z</time>
      </trkpt>
      <trkpt lat="42.50248667" lon="1.51449833">
        <ele>993.0</ele>
        <time>2019-08-04T06:18:24.799Z</time>
      </trkpt>
      <trkpt lat="42.50248667" lon="1.51449833">
        <ele>993.0</ele>
        <time>2019-08-04T06:18:25.796Z</time>
      </trkpt>
      <trkpt lat="42.50253833" lon="1.514655">
        <ele>993.0</ele>
        <time>2019-08-04T06:18:26.777Z</time>
      </trkpt>
      <trkpt lat="42.50253833" lon="1.514655">
        <ele>993.0</ele>
        <time>2019-08-04T06:18:27.801Z</time>
      </trkpt>
      <trkpt lat="42.502605" lon="1.51480167">
        <ele>993.0</ele>
        <time>2019-08-04T06:18:28.800Z</time>
      </trkpt>
      <trkpt lat="42.502605" lon="1.51480167">
        <ele>993.0</ele>
        <time>2019-08-04T06:18:29.795Z</time>
      </trkpt>
      <trkpt lat="42.502675" lon="1.514935">
        <ele>994.0</ele>
        <time>2019-08-04T06:18:30.775Z</time>
      </trkpt>
      <trkpt lat="42.502675" lon="1.514935">
        <ele>994.0</ele>
        <time>2019-08-04T06:18:31.795Z</time>
      </trkpt>
      <trkpt lat="42.50275667" lon="1.51507167">
        <ele>994.0</ele>
        <time>2019-08-04T06:18:32.790Z</time>
      </trkpt>
      <trkpt lat="42.50275667" lon="1.51507167">
        <ele>994.0</ele>
        <time>2019-08-04T06:18:33.778Z</time>
      </trkpt>
      <trkpt lat="42.50284" lon="1.51521">
        <ele>995.0</ele>
        <time>2019-08-04T06:18:34.802Z</time>
      </trkpt>
      <trkpt lat="42.502885" lon="1.515275">
        <ele>995.0</ele>
        <time>2019-08-04T06:18:35.799Z</time>
      </trkpt>
      <trkpt lat="42.502885" lon="1.515275">
        <ele>995.0</ele>
        <time>2019-08-04T06:18:36.794Z</time>
      </trkpt>
      <trkpt lat="42.502975" lon="1.51541">
        <ele>996.0</ele>
        <time>2019-08-04T06:18:37.773Z</time>
      </trkpt>
      <trkpt lat="42.503015" lon="1.51547333">
        <ele>996.0</ele>
        <time>2019-08-04T06:18:38.802Z</time>
      </trkpt>
      <trkpt lat="42.503015" lon="1.51547333">
        <ele>996.0</ele>
        <time>2019-08-04T06:18:39.790Z</time>
      </trkpt>
      <trkpt lat="42.50310333" lon="1.51560667">
        <ele>997.0</ele>
        <time>2019-08-04T06:18:40.769Z</time>
      </trkpt>
      <trkpt lat="42.50310333" lon="1.51560667">
        <ele>997.0</ele>
        <time>2019-08-04T06:18:41.795Z</time>
      </trkpt>
      <trkpt lat="42.50319167" lon="1.51573167">
        <ele>998.0</ele>
        <time>2019-08-04T06:18:42.780Z</time>
      </trkpt>
      <trkpt lat="42.50319167" lon="1.51573167">
        <ele>998.0</ele>
        <time>2019-08-04T06:18:43.799Z</time>
      </trkpt>
      <trkpt lat="42.50328833" lon="1.51585833">
        <ele>999.0</ele>
        <time>2019-08-04T06:18:44.795Z</time>
      </trkpt>
      <trkpt lat="42.50328833" lon="1.51585833">
        <ele>999.0</ele>
        <time>2019-08-04T06:18:45.781Z</time>
      </trkpt>
      <trkpt lat="42.50337667" lon="1.51598667">
        <ele>999.0</ele>
        <time>2019-08-04T06:18:46.800Z</time>
      </trkpt>
      <trkpt lat="42.50337667" lon="1.51598667">
        <ele>999.0</ele>
        <time>2019-08-04T06:18:47.793Z</time>
      </trkpt>
      <trkpt lat="42.50346167" lon="1.51612167">
        <ele>999.0</ele>
        <time>2019-08-04T06:18:48.798Z</time>
      </trkpt>
      <trkpt lat="42.50346167" lon="1.51612167">
        <ele>999.0</ele>
        <time>2019-08-04T06:18:49.796Z</time>
      </trkpt>
      <trkpt lat="42.503535" lon="1.51626333">
        <ele>1000.0</ele>
        <time>2019-08-04T06:18:50.779Z</time>
      </trkpt>
      <trkpt lat="42.503535" lon="1.51626333">
        <ele>1000.0</ele>
        <time>2019-08-04T06:18:51.799Z</time>
      </trkpt>
      <trkpt lat="42.50359167" lon="1.51641167">
        <ele>1000.0</ele>
        <time>2019-08-04T06:18:52.780Z</time>
      </trkpt>
      <trkpt lat="42.50359167" lon="1.51641167">
        <ele>1000.0</ele>
        <time>2019-08-04T06:18:53.799Z</time>
      </trkpt>
      <trkpt lat="42.50363667" lon="1.51656667">
        <ele>1000.0</ele>
        <time>2019-08-04T06:18:54.790Z</time>
      </trkpt>
      <trkpt lat="42.50365167" lon="1.51664833">
        <ele>1000.0</ele>
        <time>2019-08-04T06:18:55.778Z</time>
      </trkpt>
      <trkpt lat="42.50366167" lon="1.51673">
        <ele>1000.0</ele>
        <time>2019-08-04T06:18:56.801Z</time>
      </trkpt>
      <trkpt lat="42.50366167" lon="1.51673">
        <ele>1000.0</ele>
        <time>2019-08-04T06:18:57.796Z</time>
      </trkpt>
      <trkpt lat="42.50367667" lon="1.51690167">
        <ele>1000.0</ele>
        <time>2019-08-04T06:18:58.798Z</time>
      </trkpt>
      <trkpt lat="42.50367667" lon="1.51690167">
        <ele>1000.0</ele>
        <time>2019-08-04T06:18:59.793Z</time>
      </trkpt>
      <trkpt lat="42.503685" lon="1.51707333">
        <ele>1000.0</ele>
        <time>2019-08-04T06:19:00.773Z</time>
      </trkpt>
      <trkpt lat="42.503685" lon="1.51707333">
        <ele>1000.0</ele>
        <time>2019-08-04T06:19:01.797Z</time>
      </trkpt>
      <trkpt lat="42.50369" lon="1.51724667">
        <ele>1000.0</ele>
        <time>2019-08-04T06:19:02.779Z</time>
      </trkpt>
      <trkpt lat="42.50368833" lon="1.51733833">
        <ele>1000.0</ele>
        <time>2019-08-04T06:19:03.798Z</time>
      </trkpt>
      <trkpt lat="42.50368833" lon="1.51733833">
        <ele>1000.0</ele>
        <time>2019-08-04T06:19:04.801Z</time>
      </trkpt>
      <trkpt lat="42.503685" lon="1.51752167">
        <ele>1000.0</ele>
        <time>2019-08-04T06:19:05.799Z</time>
      </trkpt>
      <trkpt lat="42.503685" lon="1.51752167">
        <ele>1000.0</ele>
        <time>2019-08-04T06:19:06.776Z</time>
      </trkpt>
      <trkpt lat="42.50367333" lon="1.51770667">
        <ele>1000.0</ele>
        <time>2019-08-04T06:19:07.799Z</time>
      </trkpt>
      <trkpt lat="42.50366667" lon="1.51779833">
        <ele>1000.0</ele>
        <time>2019-08-04T06:19:08.800Z</time>
      </trkpt>
      <trkpt lat="42.50366667" lon="1.51779833">
        <ele>1000.0</ele>
        <time>2019-08-04T06:19:09.797Z</time>
      </trkpt>
      <trkpt lat="42.50365333" lon="1.51798167">
        <ele>1000.0</ele>
        <time>2019-08-04T06:19:10.797Z</time>
      </trkpt>
      <trkpt lat="42.50365333" lon="1.51798167">
        <ele>1000.0</ele>
        <time>2019-08-04T06:19:11.796Z</time>
      </trkpt>
      <trkpt lat="42.50364167" lon="1.51816667">
        <ele>1000.0</ele>
        <time>2019-08-04T06:19:12.782Z</time>
      </trkpt>
      <trkpt lat="42.50364167" lon="1.51816667">
        <ele>1000.0</ele>
        <time>2019-08-04T06:19:13.802Z</time>
      </trkpt>
      <trkpt lat="42.50362833" lon="1.51835">
        <ele>1000.0</ele>
        <time>2019-08-04T06:19:14.801Z</time>
      </trkpt>
      <trkpt lat="42.50362833" lon="1.51835">
        <ele>1000.0</ele>
        <time>2019-08-04T06:19:15.797Z</time>
      </trkpt>
      <trkpt lat="42.50361667" lon="1.51853167">
        <ele>1000.0</ele>
        <time>2019-08-04T06:19:16.802Z</time>
      </trkpt>
      <trkpt lat="42.50361667" lon="1.51853167">
        <ele>1000.0</ele>
        <time>2019-08-04T06:19:17.797Z</time>
      </trkpt>
      <trkpt lat="42.503605" lon="1.51871167">
        <ele>1000.0</ele>
        <time>2019-08-04T06:19:18.776Z</time>
      </trkpt>
      <trkpt lat="42.50359833" lon="1.51880167">
        <ele>1000.0</ele>
        <time>2019-08-04T06:19:19.800Z</time>
      </trkpt>
      <trkpt lat="42.50359833" lon="1.51880167">
        <ele>1000.0</ele>
        <time>2019-08-04T06:19:20.796Z</time>
      </trkpt>
      <trkpt lat="42.50358333" lon="1.518975">
        <ele>1000.0</ele>
        <time>2019-08-04T06:19:21.781Z</time>
      </trkpt>
      <trkpt lat="42.50357167" lon="1.51905667">
        <ele>1000.0</ele>
        <time>2019-08-04T06:19:22.775Z</time>
      </trkpt>
      <trkpt lat="42.50357167" lon="1.51905667">
        <ele>1000.0</ele>
        <time>2019-08-04T06:19:23.795Z</time>
      </trkpt>
      <trkpt lat="42.50352833" lon="1.519215">
        <ele>999.0</ele>
        <time>2019-08-04T06:19:24.776Z</time>
      </trkpt>
      <trkpt lat="42.50352833" lon="1.519215">
        <ele>999.0</ele>
        <time>2019-08-04T06:19:25.798Z</time>
      </trkpt>
      <trkpt lat="42.50351" lon="1.51938333">
        <ele>1000.0</ele>
        <time>2019-08-04T06:19:26.777Z</time>
      </trkpt>
      <trkpt lat="42.50351" lon="1.51938333">
        <ele>1000.0</ele>
        <time>2019-08-04T06:19:27.796Z</time>
      </trkpt>
      <trkpt lat="42.50356333" lon="1.51954167">
        <ele>1000.0</ele>
        <time>2019-08-04T06:19:28.775Z</time>
      </trkpt>
      <trkpt lat="42.50356333" lon="1.51954167">
        <ele>1000.0</ele>
        <time>2019-08-04T06:19:29.796Z</time>
      </trkpt>
      <trkpt lat="42.50365833" lon="1.51967667">
        <ele>1000.0</ele>
        <time>2019-08-04T06:19:30.776Z</time>
      </trkpt>
      <trkpt lat="42.50369833" lon="1.51975">
        <ele>1000.0</ele>
        <time>2019-08-04T06:19:31.803Z</time>
      </trkpt>
      <trkpt lat="42.50373333" lon="1.51982833">
        <ele>1000.0</ele>
        <time>2019-08-04T06:19:32.793Z</time>
      </trkpt>
      <trkpt lat="42.50373333" lon="1.51982833">
        <ele>1000.0</ele>
        <time>2019-08-04T06:19:33.774Z</time>
      </trkpt>
      <trkpt lat="42.50380167" lon="1.51999167">
        <ele>1000.0</ele>
        <time>2019-08-04T06:19:34.768Z</time>
      </trkpt>
      <trkpt lat="42.50380167" lon="1.51999167">
        <ele>1000.0</ele>
        <time>2019-08-04T06:19:35.797Z</time>
      </trkpt>
      <trkpt lat="42.50386833" lon="1.52015167">
        <ele>1001.0</ele>
        <time>2019-08-04T06:19:36.799Z</time>
      </trkpt>
      <trkpt lat="42.50386833" lon="1.52015167">
        <ele>1001.0</ele>
        <time>2019-08-04T06:19:37.794Z</time>
      </trkpt>
      <trkpt lat="42.50393667" lon="1.52032">
        <ele>1001.0</ele>
        <time>2019-08-04T06:19:38.773Z</time>
      </trkpt>
      <trkpt lat="42.50393667" lon="1.52032">
        <ele>1001.0</ele>
        <time>2019-08-04T06:19:39.797Z</time>
      </trkpt>
      <trkpt lat="42.50400333" lon="1.52048333">
        <ele>1001.0</ele>
        <time>2019-08-04T06:19:40.800Z</time>
      </trkpt>
      <trkpt lat="42.50400333" lon="1.52048333">
        <ele>1001.0</ele>
        <time>2019-08-04T06:19:41.796Z</time>
      </trkpt>
      <trkpt lat="42.50407167" lon="1.52064667">
        <ele>1001.0</ele>
        <time>2019-08-04T06:19:42.776Z</time>
      </trkpt>
      <trkpt lat="42.50407167" lon="1.52064667">
        <ele>1001.0</ele>
        <time>2019-08-04T06:19:43.796Z</time>
      </trkpt>
      <trkpt lat="42.50413833" lon="1.52081167">
        <ele>1001.0</ele>
        <time>2019-08-04T06:19:44.781Z</time>
      </trkpt>
      <trkpt lat="42.50413833" lon="1.52081167">
        <ele>1001.0</ele>
        <time>2019-08-04T06:19:45.797Z</time>
      </trkpt>
      <trkpt lat="42.50420667" lon="1.52097">
        <ele>1001.0</ele>
        <time>2019-08-04T06:19:46.799Z</time>
      </trkpt>
      <trkpt lat="42.50420667" lon="1.52097">
        <ele>1001.0</ele>
        <time>2019-08-04T06:19:47.793Z</time>
      </trkpt>
      <trkpt lat="42.504275" lon="1.52113">
        <ele>1001.0</ele>
        <time>2019-08-04T06:19:48.773Z</time>
      </trkpt>
      <trkpt lat="42.504275" lon="1.52113">
        <ele>1001.0</ele>
        <time>2019-08-04T06:19:49.796Z</time>
      </trkpt>
      <trkpt lat="42.50434333" lon="1.521295">
        <ele>1001.0</ele>
        <time>2019-08-04T06:19:50.800Z</time>
      </trkpt>
      <trkpt lat="42.50434333" lon="1.521295">
        <ele>1001.0</ele>
        <time>2019-08-04T06:19:51.793Z</time>
      </trkpt>
      <trkpt lat="42.50440167" lon="1.52145833">
        <ele>1001.0</ele>
        <time>2019-08-04T06:19:52.783Z</time>
      </trkpt>
      <trkpt lat="42.50440167" lon="1.52145833">
        <ele>1001.0</ele>
        <time>2019-08-04T06:19:53.802Z</time>
      </trkpt>
      <trkpt lat="42.50445167" lon="1.52162167">
        <ele>1001.0</ele>
        <time>2019-08-04T06:19:54.766Z</time>
      </trkpt>
      <trkpt lat="42.50445167" lon="1.52162167">
        <ele>1001.0</ele>
        <time>2019-08-04T06:19:55.799Z</time>
      </trkpt>
      <trkpt lat="42.50449667" lon="1.521795">
        <ele>1001.0</ele>
        <time>2019-08-04T06:19:56.800Z</time>
      </trkpt>
      <trkpt lat="42.50449667" lon="1.521795">
        <ele>1001.0</ele>
        <time>2019-08-04T06:19:57.801Z</time>
      </trkpt>
      <trkpt lat="42.50453" lon="1.52197167">
        <ele>1001.0</ele>
        <time>2019-08-04T06:19:58.798Z</time>
      </trkpt>
      <trkpt lat="42.50453" lon="1.52197167">
        <ele>1001.0</ele>
        <time>2019-08-04T06:19:59.796Z</time>
      </trkpt>
      <trkpt lat="42.50455333" lon="1.52215833">
        <ele>1001.0</ele>
        <time>2019-08-04T06:20:00.779Z</time>
      </trkpt>
      <trkpt lat="42.50456667" lon="1.52225">
        <ele>1002.0</ele>
        <time>2019-08-04T06:20:01.799Z</time>
      </trkpt>
      <trkpt lat="42.50456667" lon="1.52225">
        <ele>1002.0</ele>
        <time>2019-08-04T06:20:02.768Z</time>
      </trkpt>
      <trkpt lat="42.50458333" lon="1.52243667">
        <ele>1002.0</ele>
        <time>2019-08-04T06:20:03.798Z</time>
      </trkpt>
      <trkpt lat="42.50458333" lon="1.52243667">
        <ele>1002.0</ele>
        <time>2019-08-04T06:20:04.796Z</time>
      </trkpt>
      <trkpt lat="42.50459667" lon="1.52263167">
        <ele>1002.0</ele>
        <time>2019-08-04T06:20:05.804Z</time>
      </trkpt>
      <trkpt lat="42.50459667" lon="1.52263167">
        <ele>1002.0</ele>
        <time>2019-08-04T06:20:06.797Z</time>
      </trkpt>
      <trkpt lat="42.504615" lon="1.52283167">
        <ele>1002.0</ele>
        <time>2019-08-04T06:20:07.798Z</time>
      </trkpt>
      <trkpt lat="42.504625" lon="1.52293">
        <ele>1002.0</ele>
        <time>2019-08-04T06:20:08.777Z</time>
      </trkpt>
      <trkpt lat="42.504625" lon="1.52293">
        <ele>1002.0</ele>
        <time>2019-08-04T06:20:09.796Z</time>
      </trkpt>
      <trkpt lat="42.504645" lon="1.52312167">
        <ele>1002.0</ele>
        <time>2019-08-04T06:20:10.788Z</time>
      </trkpt>
      <trkpt lat="42.504645" lon="1.52312167">
        <ele>1002.0</ele>
        <time>2019-08-04T06:20:11.769Z</time>
      </trkpt>
      <trkpt lat="42.50468167" lon="1.523315">
        <ele>1002.0</ele>
        <time>2019-08-04T06:20:12.774Z</time>
      </trkpt>
      <trkpt lat="42.50468167" lon="1.523315">
        <ele>1002.0</ele>
        <time>2019-08-04T06:20:13.796Z</time>
      </trkpt>
      <trkpt lat="42.50472" lon="1.52350667">
        <ele>1002.0</ele>
        <time>2019-08-04T06:20:14.770Z</time>
      </trkpt>
      <trkpt lat="42.50472" lon="1.52350667">
        <ele>1002.0</ele>
        <time>2019-08-04T06:20:15.766Z</time>
      </trkpt>
      <trkpt lat="42.50476" lon="1.52369333">
        <ele>1002.0</ele>
        <time>2019-08-04T06:20:16.797Z</time>
      </trkpt>
      <trkpt lat="42.50476" lon="1.52369333">
        <ele>1002.0</ele>
        <time>2019-08-04T06:20:17.797Z</time>
      </trkpt>
      <trkpt lat="42.504805" lon="1.52387333">
        <ele>1003.0</ele>
        <time>2019-08-04T06:20:18.799Z</time>
      </trkpt>
      <trkpt lat="42.504805" lon="1.52387333">
        <ele>1003.0</ele>
        <time>2019-08-04T06:20:19.797Z</time>
      </trkpt>
      <trkpt lat="42.50484333" lon="1.52405">
        <ele>1003.0</ele>
        <time>2019-08-04T06:20:20.777Z</time>
      </trkpt>
      <trkpt lat="42.50484333" lon="1.52405">
        <ele>1003.0</ele>
        <time>2019-08-04T06:20:21.796Z</time>
      </trkpt>
      <trkpt lat="42.50487667" lon="1.52423">
        <ele>1004.0</ele>
        <time>2019-08-04T06:20:22.789Z</time>
      </trkpt>
      <trkpt lat="42.50489333" lon="1.524325">
        <ele>1004.0</ele>
        <time>2019-08-04T06:20:23.775Z</time>
      </trkpt>
      <trkpt lat="42.50489333" lon="1.524325">
        <ele>1004.0</ele>
        <time>2019-08-04T06:20:24.796Z</time>
      </trkpt>
      <trkpt lat="42.50491333" lon="1.52451833">
        <ele>1004.0</ele>
        <time>2019-08-04T06:20:25.779Z</time>
      </trkpt>
      <trkpt lat="42.50492333" lon="1.524615">
        <ele>1004.0</ele>
        <time>2019-08-04T06:20:26.802Z</time>
      </trkpt>
      <trkpt lat="42.50492333" lon="1.524615">
        <ele>1004.0</ele>
        <time>2019-08-04T06:20:27.770Z</time>
      </trkpt>
      <trkpt lat="42.50493667" lon="1.52480167">
        <ele>1004.0</ele>
        <time>2019-08-04T06:20:28.800Z</time>
      </trkpt>
      <trkpt lat="42.50493667" lon="1.52480167">
        <ele>1004.0</ele>
        <time>2019-08-04T06:20:29.796Z</time>
      </trkpt>
      <trkpt lat="42.50495667" lon="1.52499167">
        <ele>1004.0</ele>
        <time>2019-08-04T06:20:30.799Z</time>
      </trkpt>
      <trkpt lat="42.50495667" lon="1.52499167">
        <ele>1004.0</ele>
        <time>2019-08-04T06:20:31.796Z</time>
      </trkpt>
      <trkpt lat="42.50498" lon="1.52518167">
        <ele>1003.0</ele>
        <time>2019-08-04T06:20:32.788Z</time>
      </trkpt>
      <trkpt lat="42.50498" lon="1.52518167">
        <ele>1003.0</ele>
        <time>2019-08-04T06:20:33.780Z</time>
      </trkpt>
      <trkpt lat="42.505005" lon="1.52537333">
        <ele>1003.0</ele>
        <time>2019-08-04T06:20:34.800Z</time>
      </trkpt>
      <trkpt lat="42.505005" lon="1.52537333">
        <ele>1003.0</ele>
        <time>2019-08-04T06:20:35.787Z</time>
      </trkpt>
      <trkpt lat="42.50502833" lon="1.52556">
        <ele>1003.0</ele>
        <time>2019-08-04T06:20:36.769Z</time>
      </trkpt>
      <trkpt lat="42.50502833" lon="1.52556">
        <ele>1003.0</ele>
        <time>2019-08-04T06:20:37.797Z</time>
      </trkpt>
      <trkpt lat="42.50505333" lon="1.52575">
        <ele>1003.0</ele>
        <time>2019-08-04T06:20:38.776Z</time>
      </trkpt>
      <trkpt lat="42.50505333" lon="1.52575">
        <ele>1003.0</ele>
        <time>2019-08-04T06:20:39.779Z</time>
      </trkpt>
      <trkpt lat="42.50507667" lon="1.52593667">
        <ele>1003.0</ele>
        <time>2019-08-04T06:20:40.802Z</time>
      </trkpt>
      <trkpt lat="42.50507667" lon="1.52593667">
        <ele>1003.0</ele>
        <time>2019-08-04T06:20:41.798Z</time>
      </trkpt>
      <trkpt lat="42.505105" lon="1.52611667">
        <ele>1003.0</ele>
        <time>2019-08-04T06:20:42.779Z</time>
      </trkpt>
      <trkpt lat="42.505105" lon="1.52611667">
        <ele>1003.0</ele>
        <time>2019-08-04T06:20:43.798Z</time>
      </trkpt>
      <trkpt lat="42.505125" lon="1.5263">
        <ele>1003.0</ele>
        <time>2019-08-04T06:20:44.777Z</time>
      </trkpt>
      <trkpt lat="42.505125" lon="1.5263">
        <ele>1003.0</ele>
        <time>2019-08-04T06:20:45.765Z</time>
      </trkpt>
      <trkpt lat="42.50515" lon="1.52648333">
        <ele>1003.0</ele>
        <time>2019-08-04T06:20:46.800Z</time>
      </trkpt>
      <trkpt lat="42.50515" lon="1.52648333">
        <ele>1003.0</ele>
        <time>2019-08-04T06:20:47.796Z</time>
      </trkpt>
      <trkpt lat="42.50517" lon="1.526675">
        <ele>1003.0</ele>
        <time>2019-08-04T06:20:48.775Z</time>
      </trkpt>
      <trkpt lat="42.50517" lon="1.526675">
        <ele>1003.0</ele>
        <time>2019-08-04T06:20:49.798Z</time>
      </trkpt>
      <trkpt lat="42.50518833" lon="1.52686167">
        <ele>1003.0</ele>
        <time>2019-08-04T06:20:50.779Z</time>
      </trkpt>
      <trkpt lat="42.50518833" lon="1.52686167">
        <ele>1003.0</ele>
        <time>2019-08-04T06:20:51.798Z</time>
      </trkpt>
      <trkpt lat="42.50520167" lon="1.52705333">
        <ele>1003.0</ele>
        <time>2019-08-04T06:20:52.800Z</time>
      </trkpt>
      <trkpt lat="42.50520167" lon="1.52705333">
        <ele>1003.0</ele>
        <time>2019-08-04T06:20:53.797Z</time>
      </trkpt>
      <trkpt lat="42.50520667" lon="1.52724333">
        <ele>1003.0</ele>
        <time>2019-08-04T06:20:54.776Z</time>
      </trkpt>
      <trkpt lat="42.50520667" lon="1.52724333">
        <ele>1003.0</ele>
        <time>2019-08-04T06:20:55.770Z</time>
      </trkpt>
      <trkpt lat="42.50520833" lon="1.52742167">
        <ele>1002.0</ele>
        <time>2019-08-04T06:20:56.802Z</time>
      </trkpt>
      <trkpt lat="42.50520833" lon="1.52742167">
        <ele>1002.0</ele>
        <time>2019-08-04T06:20:57.802Z</time>
      </trkpt>
      <trkpt lat="42.50520833" lon="1.52758833">
        <ele>1002.0</ele>
        <time>2019-08-04T06:20:58.800Z</time>
      </trkpt>
      <trkpt lat="42.50520833" lon="1.52758833">
        <ele>1002.0</ele>
        <time>2019-08-04T06:20:59.797Z</time>
      </trkpt>
      <trkpt lat="42.50520667" lon="1.52776">
        <ele>1002.0</ele>
        <time>2019-08-04T06:21:00.776Z</time>
      </trkpt>
      <trkpt lat="42.50520667" lon="1.52776">
        <ele>1002.0</ele>
        <time>2019-08-04T06:21:01.797Z</time>
      </trkpt>
      <trkpt lat="42.50518333" lon="1.52793">
        <ele>1002.0</ele>
        <time>2019-08-04T06:21:02.778Z</time>
      </trkpt>
      <trkpt lat="42.50518333" lon="1.52793">
        <ele>1002.0</ele>
        <time>2019-08-04T06:21:03.798Z</time>
      </trkpt>
      <trkpt lat="42.50519333" lon="1.52810333">
        <ele>1003.0</ele>
        <time>2019-08-04T06:21:04.775Z</time>
      </trkpt>
      <trkpt lat="42.50519333" lon="1.52810333">
        <ele>1003.0</ele>
        <time>2019-08-04T06:21:05.799Z</time>
      </trkpt>
      <trkpt lat="42.50522667" lon="1.52827">
        <ele>1004.0</ele>
        <time>2019-08-04T06:21:06.777Z</time>
      </trkpt>
      <trkpt lat="42.50522667" lon="1.52827">
        <ele>1004.0</ele>
        <time>2019-08-04T06:21:07.796Z</time>
      </trkpt>
      <trkpt lat="42.50527667" lon="1.52844667">
        <ele>1005.0</ele>
        <time>2019-08-04T06:21:08.775Z</time>
      </trkpt>
      <trkpt lat="42.50527667" lon="1.52844667">
        <ele>1005.0</ele>
        <time>2019-08-04T06:21:09.804Z</time>
      </trkpt>
      <trkpt lat="42.50531833" lon="1.52860833">
        <ele>1006.0</ele>
        <time>2019-08-04T06:21:10.801Z</time>
      </trkpt>
      <trkpt lat="42.50531833" lon="1.52860833">
        <ele>1006.0</ele>
        <time>2019-08-04T06:21:11.796Z</time>
      </trkpt>
      <trkpt lat="42.505375" lon="1.52878">
        <ele>1007.0</ele>
        <time>2019-08-04T06:21:12.776Z</time>
      </trkpt>
      <trkpt lat="42.505375" lon="1.52878">
        <ele>1007.0</ele>
        <time>2019-08-04T06:21:13.796Z</time>
      </trkpt>
      <trkpt lat="42.505395" lon="1.528935">
        <ele>1009.0</ele>
        <time>2019-08-04T06:21:14.775Z</time>
      </trkpt>
      <trkpt lat="42.505395" lon="1.528935">
        <ele>1009.0</ele>
        <time>2019-08-04T06:21:15.804Z</time>
      </trkpt>
      <trkpt lat="42.50543333" lon="1.52909167">
        <ele>1010.0</ele>
        <time>2019-08-04T06:21:16.801Z</time>
      </trkpt>
      <trkpt lat="42.50545333" lon="1.52916833">
        <ele>1011.0</ele>
        <time>2019-08-04T06:21:17.800Z</time>
      </trkpt>
      <trkpt lat="42.50545333" lon="1.52916833">
        <ele>1011.0</ele>
        <time>2019-08-04T06:21:18.797Z</time>
      </trkpt>
      <trkpt lat="42.50548833" lon="1.529325">
        <ele>1012.0</ele>
        <time>2019-08-04T06:21:19.775Z</time>
      </trkpt>
      <trkpt lat="42.50550333" lon="1.52939833">
        <ele>1013.0</ele>
        <time>2019-08-04T06:21:20.803Z</time>
      </trkpt>
      <trkpt lat="42.50550333" lon="1.52939833">
        <ele>1013.0</ele>
        <time>2019-08-04T06:21:21.792Z</time>
      </trkpt>
      <trkpt lat="42.50553333" lon="1.52955167">
        <ele>1014.0</ele>
        <time>2019-08-04T06:21:22.776Z</time>
      </trkpt>
      <trkpt lat="42.50553333" lon="1.52955167">
        <ele>1014.0</ele>
        <time>2019-08-04T06:21:23.769Z</time>
      </trkpt>
      <trkpt lat="42.50556" lon="1.52969833">
        <ele>1014.0</ele>
        <time>2019-08-04T06:21:24.800Z</time>
      </trkpt>
      <trkpt lat="42.50556" lon="1.52969833">
        <ele>1014.0</ele>
        <time>2019-08-04T06:21:25.801Z</time>
      </trkpt>
      <trkpt lat="42.505585" lon="1.52985">
        <ele>1015.0</ele>
        <time>2019-08-04T06:21:26.775Z</time>
      </trkpt>
      <trkpt lat="42.505585" lon="1.52985">
        <ele>1015.0</ele>
        <time>2019-08-04T06:21:27.798Z</time>
      </trkpt>
      <trkpt lat="42.50561333" lon="1.53">
        <ele>1016.0</ele>
        <time>2019-08-04T06:21:28.801Z</time>
      </trkpt>
      <trkpt lat="42.50561333" lon="1.53">
        <ele>1016.0</ele>
        <time>2019-08-04T06:21:29.797Z</time>
      </trkpt>
      <trkpt lat="42.50564333" lon="1.53015833">
        <ele>1017.0</ele>
        <time>2019-08-04T06:21:30.800Z</time>
      </trkpt>
      <trkpt lat="42.50566" lon="1.530235">
        <ele>1017.0</ele>
        <time>2019-08-04T06:21:31.798Z</time>
      </trkpt>
      <trkpt lat="42.50567667" lon="1.53031">
        <ele>1017.0</ele>
        <time>2019-08-04T06:21:32.781Z</time>
      </trkpt>
      <trkpt lat="42.50567667" lon="1.53031">
        <ele>1017.0</ele>
        <time>2019-08-04T06:21:33.800Z</time>
      </trkpt>
      <trkpt lat="42.50570833" lon="1.53045667">
        <ele>1018.0</ele>
        <time>2019-08-04T06:21:34.802Z</time>
      </trkpt>
      <trkpt lat="42.50570833" lon="1.53045667">
        <ele>1018.0</ele>
        <time>2019-08-04T06:21:35.799Z</time>
      </trkpt>
      <trkpt lat="42.50573333" lon="1.53059667">
        <ele>1019.0</ele>
        <time>2019-08-04T06:21:36.800Z</time>
      </trkpt>
      <trkpt lat="42.50573333" lon="1.53059667">
        <ele>1019.0</ele>
        <time>2019-08-04T06:21:37.797Z</time>
      </trkpt>
      <trkpt lat="42.50576333" lon="1.53073833">
        <ele>1020.0</ele>
        <time>2019-08-04T06:21:38.776Z</time>
      </trkpt>
      <trkpt lat="42.50576333" lon="1.53073833">
        <ele>1020.0</ele>
        <time>2019-08-04T06:21:39.797Z</time>
      </trkpt>
      <trkpt lat="42.50579" lon="1.53087167">
        <ele>1020.0</ele>
        <time>2019-08-04T06:21:40.765Z</time>
      </trkpt>
      <trkpt lat="42.50579" lon="1.53087167">
        <ele>1020.0</ele>
        <time>2019-08-04T06:21:41.797Z</time>
      </trkpt>
      <trkpt lat="42.50582167" lon="1.531005">
        <ele>1021.0</ele>
        <time>2019-08-04T06:21:42.792Z</time>
      </trkpt>
      <trkpt lat="42.50582167" lon="1.531005">
        <ele>1021.0</ele>
        <time>2019-08-04T06:21:43.771Z</time>
      </trkpt>
      <trkpt lat="42.505855" lon="1.53114">
        <ele>1022.0</ele>
        <time>2019-08-04T06:21:44.803Z</time>
      </trkpt>
      <trkpt lat="42.505855" lon="1.53114">
        <ele>1022.0</ele>
        <time>2019-08-04T06:21:45.797Z</time>
      </trkpt>
      <trkpt lat="42.50589" lon="1.53127833">
        <ele>1023.0</ele>
        <time>2019-08-04T06:21:46.799Z</time>
      </trkpt>
      <trkpt lat="42.50589" lon="1.53127833">
        <ele>1023.0</ele>
        <time>2019-08-04T06:21:47.797Z</time>
      </trkpt>
      <trkpt lat="42.50592667" lon="1.53142">
        <ele>1024.0</ele>
        <time>2019-08-04T06:21:48.802Z</time>
      </trkpt>
      <trkpt lat="42.50594" lon="1.53149333">
        <ele>1024.0</ele>
        <time>2019-08-04T06:21:49.800Z</time>
      </trkpt>
      <trkpt lat="42.50594833" lon="1.53156833">
        <ele>1024.0</ele>
        <time>2019-08-04T06:21:50.802Z</time>
      </trkpt>
      <trkpt lat="42.50594833" lon="1.53156833">
        <ele>1024.0</ele>
        <time>2019-08-04T06:21:51.797Z</time>
      </trkpt>
      <trkpt lat="42.50596833" lon="1.53172167">
        <ele>1024.0</ele>
        <time>2019-08-04T06:21:52.803Z</time>
      </trkpt>
      <trkpt lat="42.50596833" lon="1.53172167">
        <ele>1024.0</ele>
        <time>2019-08-04T06:21:53.794Z</time>
      </trkpt>
      <trkpt lat="42.506015" lon="1.531865">
        <ele>1024.0</ele>
        <time>2019-08-04T06:21:54.774Z</time>
      </trkpt>
      <trkpt lat="42.506015" lon="1.531865">
        <ele>1024.0</ele>
        <time>2019-08-04T06:21:55.800Z</time>
      </trkpt>
      <trkpt lat="42.50606" lon="1.53201333">
        <ele>1023.0</ele>
        <time>2019-08-04T06:21:56.781Z</time>
      </trkpt>
      <trkpt lat="42.506075" lon="1.53208833">
        <ele>1023.0</ele>
        <time>2019-08-04T06:21:57.802Z</time>
      </trkpt>
      <trkpt lat="42.50608833" lon="1.53216667">
        <ele>1023.0</ele>
        <time>2019-08-04T06:21:58.797Z</time>
      </trkpt>
      <trkpt lat="42.50608833" lon="1.53216667">
        <ele>1023.0</ele>
        <time>2019-08-04T06:21:59.777Z</time>
      </trkpt>
      <trkpt lat="42.50612333" lon="1.53232167">
        <ele>1023.0</ele>
        <time>2019-08-04T06:22:00.800Z</time>
      </trkpt>
      <trkpt lat="42.50612333" lon="1.53232167">
        <ele>1023.0</ele>
        <time>2019-08-04T06:22:01.797Z</time>
      </trkpt>
      <trkpt lat="42.50615833" lon="1.53247667">
        <ele>1023.0</ele>
        <time>2019-08-04T06:22:02.781Z</time>
      </trkpt>
      <trkpt lat="42.50617667" lon="1.53255167">
        <ele>1023.0</ele>
        <time>2019-08-04T06:22:03.803Z</time>
      </trkpt>
      <trkpt lat="42.50617667" lon="1.53255167">
        <ele>1023.0</ele>
        <time>2019-08-04T06:22:04.797Z</time>
      </trkpt>
      <trkpt lat="42.50620167" lon="1.53269">
        <ele>1023.0</ele>
        <time>2019-08-04T06:22:05.771Z</time>
      </trkpt>
      <trkpt lat="42.50620167" lon="1.53269">
        <ele>1023.0</ele>
        <time>2019-08-04T06:22:06.800Z</time>
      </trkpt>
      <trkpt lat="42.50622833" lon="1.5328">
        <ele>1023.0</ele>
        <time>2019-08-04T06:22:07.802Z</time>
      </trkpt>
      <trkpt lat="42.50623667" lon="1.53284833">
        <ele>1023.0</ele>
        <time>2019-08-04T06:22:08.802Z</time>
      </trkpt>
      <trkpt lat="42.50623667" lon="1.53284833">
        <ele>1023.0</ele>
        <time>2019-08-04T06:22:09.797Z</time>
      </trkpt>
      <trkpt lat="42.506245" lon="1.53292833">
        <ele>1023.0</ele>
        <time>2019-08-04T06:22:10.777Z</time>
      </trkpt>
      <trkpt lat="42.506245" lon="1.53292833">
        <ele>1023.0</ele>
        <time>2019-08-04T06:22:11.797Z</time>
      </trkpt>
      <trkpt lat="42.50626333" lon="1.53302333">
        <ele>1024.0</ele>
        <time>2019-08-04T06:22:12.782Z</time>
      </trkpt>
      <trkpt lat="42.50626333" lon="1.53302333">
        <ele>1024.0</ele>
        <time>2019-08-04T06:22:13.802Z</time>
      </trkpt>
      <trkpt lat="42.50627167" lon="1.53312">
        <ele>1024.0</ele>
        <time>2019-08-04T06:22:14.800Z</time>
      </trkpt>
      <trkpt lat="42.50627167" lon="1.53312">
        <ele>1024.0</ele>
        <time>2019-08-04T06:22:15.799Z</time>
      </trkpt>
      <trkpt lat="42.50628667" lon="1.53321167">
        <ele>1025.0</ele>
        <time>2019-08-04T06:22:16.802Z</time>
      </trkpt>
      <trkpt lat="42.50628667" lon="1.53321167">
        <ele>1025.0</ele>
        <time>2019-08-04T06:22:17.798Z</time>
      </trkpt>
      <trkpt lat="42.50630833" lon="1.53330167">
        <ele>1025.0</ele>
        <time>2019-08-04T06:22:18.777Z</time>
      </trkpt>
      <trkpt lat="42.50630833" lon="1.53330167">
        <ele>1025.0</ele>
        <time>2019-08-04T06:22:19.798Z</time>
      </trkpt>
      <trkpt lat="42.50632833" lon="1.53339667">
        <ele>1026.0</ele>
        <time>2019-08-04T06:22:20.777Z</time>
      </trkpt>
      <trkpt lat="42.50632833" lon="1.53339667">
        <ele>1026.0</ele>
        <time>2019-08-04T06:22:21.797Z</time>
      </trkpt>
      <trkpt lat="42.506355" lon="1.53349">
        <ele>1026.0</ele>
        <time>2019-08-04T06:22:22.786Z</time>
      </trkpt>
      <trkpt lat="42.506355" lon="1.53349">
        <ele>1026.0</ele>
        <time>2019-08-04T06:22:23.765Z</time>
      </trkpt>
      <trkpt lat="42.50636333" lon="1.53358167">
        <ele>1027.0</ele>
        <time>2019-08-04T06:22:24.802Z</time>
      </trkpt>
      <trkpt lat="42.50636333" lon="1.53358167">
        <ele>1027.0</ele>
        <time>2019-08-04T06:22:25.803Z</time>
      </trkpt>
      <trkpt lat="42.506385" lon="1.53366833">
        <ele>1027.0</ele>
        <time>2019-08-04T06:22:26.803Z</time>
      </trkpt>
      <trkpt lat="42.506385" lon="1.53366833">
        <ele>1027.0</ele>
        <time>2019-08-04T06:22:27.770Z</time>
      </trkpt>
      <trkpt lat="42.50640167" lon="1.53375667">
        <ele>1028.0</ele>
        <time>2019-08-04T06:22:28.803Z</time>
      </trkpt>
      <trkpt lat="42.50640167" lon="1.53375667">
        <ele>1028.0</ele>
        <time>2019-08-04T06:22:29.797Z</time>
      </trkpt>
      <trkpt lat="42.50642333" lon="1.53383833">
        <ele>1029.0</ele>
        <time>2019-08-04T06:22:30.800Z</time>
      </trkpt>
      <trkpt lat="42.50642333" lon="1.53383833">
        <ele>1029.0</ele>
        <time>2019-08-04T06:22:31.798Z</time>
      </trkpt>
      <trkpt lat="42.50644" lon="1.53392167">
        <ele>1030.0</ele>
        <time>2019-08-04T06:22:32.781Z</time>
      </trkpt>
      <trkpt lat="42.50644" lon="1.53392167">
        <ele>1030.0</ele>
        <time>2019-08-04T06:22:33.800Z</time>
      </trkpt>
      <trkpt lat="42.50646333" lon="1.53399333">
        <ele>1031.0</ele>
        <time>2019-08-04T06:22:34.803Z</time>
      </trkpt>
      <trkpt lat="42.50646333" lon="1.53399333">
        <ele>1031.0</ele>
        <time>2019-08-04T06:22:35.798Z</time>
      </trkpt>
      <trkpt lat="42.50647" lon="1.534065">
        <ele>1032.0</ele>
        <time>2019-08-04T06:22:36.783Z</time>
      </trkpt>
      <trkpt lat="42.50647" lon="1.534065">
        <ele>1032.0</ele>
        <time>2019-08-04T06:22:37.802Z</time>
      </trkpt>
      <trkpt lat="42.50647667" lon="1.53415333">
        <ele>1032.0</ele>
        <time>2019-08-04T06:22:38.802Z</time>
      </trkpt>
      <trkpt lat="42.50647667" lon="1.53415333">
        <ele>1032.0</ele>
        <time>2019-08-04T06:22:39.793Z</time>
      </trkpt>
      <trkpt lat="42.50650667" lon="1.53423833">
        <ele>1033.0</ele>
        <time>2019-08-04T06:22:40.773Z</time>
      </trkpt>
      <trkpt lat="42.50650667" lon="1.53423833">
        <ele>1033.0</ele>
        <time>2019-08-04T06:22:41.798Z</time>
      </trkpt>
      <trkpt lat="42.50653333" lon="1.53431333">
        <ele>1034.0</ele>
        <time>2019-08-04T06:22:42.792Z</time>
      </trkpt>
      <trkpt lat="42.50654167" lon="1.53435">
        <ele>1035.0</ele>
        <time>2019-08-04T06:22:43.773Z</time>
      </trkpt>
      <trkpt lat="42.50656333" lon="1.534385">
        <ele>1035.0</ele>
        <time>2019-08-04T06:22:44.802Z</time>
      </trkpt>
      <trkpt lat="42.50656333" lon="1.534385">
        <ele>1035.0</ele>
        <time>2019-08-04T06:22:45.798Z</time>
      </trkpt>
      <trkpt lat="42.50659333" lon="1.53446167">
        <ele>1036.0</ele>
        <time>2019-08-04T06:22:46.781Z</time>
      </trkpt>
      <trkpt lat="42.50659333" lon="1.53446167">
        <ele>1036.0</ele>
        <time>2019-08-04T06:22:47.800Z</time>
      </trkpt>
      <trkpt lat="42.50662" lon="1.53453333">
        <ele>1038.0</ele>
        <time>2019-08-04T06:22:48.802Z</time>
      </trkpt>
      <trkpt lat="42.50663" lon="1.53457167">
        <ele>1038.0</ele>
        <time>2019-08-04T06:22:49.802Z</time>
      </trkpt>
      <trkpt lat="42.50663" lon="1.53457167">
        <ele>1038.0</ele>
        <time>2019-08-04T06:22:50.800Z</time>
      </trkpt>
      <trkpt lat="42.50664833" lon="1.53465333">
        <ele>1040.0</ele>
        <time>2019-08-04T06:22:51.769Z</time>
      </trkpt>
      <trkpt lat="42.50665667" lon="1.53469333">
        <ele>1040.0</ele>
        <time>2019-08-04T06:22:52.781Z</time>
      </trkpt>
      <trkpt lat="42.50665667" lon="1.53469333">
        <ele>1040.0</ele>
        <time>2019-08-04T06:22:53.800Z</time>
      </trkpt>
      <trkpt lat="42.506675" lon="1.53478833">
        <ele>1041.0</ele>
        <time>2019-08-04T06:22:54.800Z</time>
      </trkpt>
      <trkpt lat="42.506675" lon="1.53478833">
        <ele>1041.0</ele>
        <time>2019-08-04T06:22:55.785Z</time>
      </trkpt>
      <trkpt lat="42.506685" lon="1.53488">
        <ele>1041.0</ele>
        <time>2019-08-04T06:22:56.774Z</time>
      </trkpt>
      <trkpt lat="42.506685" lon="1.53488">
        <ele>1041.0</ele>
        <time>2019-08-04T06:22:57.798Z</time>
      </trkpt>
      <trkpt lat="42.506705" lon="1.53495833">
        <ele>1042.0</ele>
        <time>2019-08-04T06:22:58.778Z</time>
      </trkpt>
      <trkpt lat="42.506705" lon="1.53495833">
        <ele>1042.0</ele>
        <time>2019-08-04T06:22:59.798Z</time>
      </trkpt>
      <trkpt lat="42.50673833" lon="1.535035">
        <ele>1042.0</ele>
        <time>2019-08-04T06:23:00.803Z</time>
      </trkpt>
      <trkpt lat="42.50673833" lon="1.535035">
        <ele>1042.0</ele>
        <time>2019-08-04T06:23:01.797Z</time>
      </trkpt>
      <trkpt lat="42.506765" lon="1.53511667">
        <ele>1042.0</ele>
        <time>2019-08-04T06:23:02.781Z</time>
      </trkpt>
      <trkpt lat="42.506765" lon="1.53511667">
        <ele>1042.0</ele>
        <time>2019-08-04T06:23:03.800Z</time>
      </trkpt>
      <trkpt lat="42.50677833" lon="1.53520167">
        <ele>1043.0</ele>
        <time>2019-08-04T06:23:04.803Z</time>
      </trkpt>
      <trkpt lat="42.50677833" lon="1.53520167">
        <ele>1043.0</ele>
        <time>2019-08-04T06:23:05.798Z</time>
      </trkpt>
      <trkpt lat="42.50678667" lon="1.53528167">
        <ele>1044.0</ele>
        <time>2019-08-04T06:23:06.784Z</time>
      </trkpt>
      <trkpt lat="42.50679667" lon="1.53532167">
        <ele>1044.0</ele>
        <time>2019-08-04T06:23:07.803Z</time>
      </trkpt>
      <trkpt lat="42.50679667" lon="1.53532167">
        <ele>1044.0</ele>
        <time>2019-08-04T06:23:08.797Z</time>
      </trkpt>
      <trkpt lat="42.50680167" lon="1.53541333">
        <ele>1045.0</ele>
        <time>2019-08-04T06:23:09.782Z</time>
      </trkpt>
      <trkpt lat="42.506805" lon="1.53546167">
        <ele>1045.0</ele>
        <time>2019-08-04T06:23:10.803Z</time>
      </trkpt>
      <trkpt lat="42.506805" lon="1.53546167">
        <ele>1045.0</ele>
        <time>2019-08-04T06:23:11.799Z</time>
      </trkpt>
      <trkpt lat="42.50681833" lon="1.535545">
        <ele>1045.0</ele>
        <time>2019-08-04T06:23:12.778Z</time>
      </trkpt>
      <trkpt lat="42.50681833" lon="1.535545">
        <ele>1045.0</ele>
        <time>2019-08-04T06:23:13.770Z</time>
      </trkpt>
      <trkpt lat="42.50683333" lon="1.535635">
        <ele>1046.0</ele>
        <time>2019-08-04T06:23:14.802Z</time>
      </trkpt>
      <trkpt lat="42.50683333" lon="1.535635">
        <ele>1046.0</ele>
        <time>2019-08-04T06:23:15.800Z</time>
      </trkpt>
      <trkpt lat="42.50684833" lon="1.53572">
        <ele>1047.0</ele>
        <time>2019-08-04T06:23:16.803Z</time>
      </trkpt>
      <trkpt lat="42.50684833" lon="1.53572">
        <ele>1047.0</ele>
        <time>2019-08-04T06:23:17.796Z</time>
      </trkpt>
      <trkpt lat="42.506865" lon="1.53581333">
        <ele>1047.0</ele>
        <time>2019-08-04T06:23:18.775Z</time>
      </trkpt>
      <trkpt lat="42.506865" lon="1.53581333">
        <ele>1047.0</ele>
        <time>2019-08-04T06:23:19.798Z</time>
      </trkpt>
      <trkpt lat="42.506875" lon="1.53589833">
        <ele>1047.0</ele>
        <time>2019-08-04T06:23:20.780Z</time>
      </trkpt>
      <trkpt lat="42.506875" lon="1.53589833">
        <ele>1047.0</ele>
        <time>2019-08-04T06:23:21.799Z</time>
      </trkpt>
      <trkpt lat="42.50689" lon="1.53598167">
        <ele>1048.0</ele>
        <time>2019-08-04T06:23:22.779Z</time>
      </trkpt>
      <trkpt lat="42.50689" lon="1.53598167">
        <ele>1048.0</ele>
        <time>2019-08-04T06:23:23.799Z</time>
      </trkpt>
      <trkpt lat="42.506905" lon="1.53607167">
        <ele>1048.0</ele>
        <time>2019-08-04T06:23:24.778Z</time>
      </trkpt>
      <trkpt lat="42.506905" lon="1.53607167">
        <ele>1048.0</ele>
        <time>2019-08-04T06:23:25.798Z</time>
      </trkpt>
      <trkpt lat="42.50691333" lon="1.53616167">
        <ele>1049.0</ele>
        <time>2019-08-04T06:23:26.777Z</time>
      </trkpt>
      <trkpt lat="42.50691333" lon="1.53616167">
        <ele>1049.0</ele>
        <time>2019-08-04T06:23:27.768Z</time>
      </trkpt>
      <trkpt lat="42.50691667" lon="1.53625333">
        <ele>1049.0</ele>
        <time>2019-08-04T06:23:28.804Z</time>
      </trkpt>
      <trkpt lat="42.50691667" lon="1.53625333">
        <ele>1049.0</ele>
        <time>2019-08-04T06:23:29.777Z</time>
      </trkpt>
      <trkpt lat="42.50693" lon="1.53633333">
        <ele>1049.0</ele>
        <time>2019-08-04T06:23:30.804Z</time>
      </trkpt>
      <trkpt lat="42.50693333" lon="1.53637167">
        <ele>1050.0</ele>
        <time>2019-08-04T06:23:31.803Z</time>
      </trkpt>
      <trkpt lat="42.50693333" lon="1.53637167">
        <ele>1050.0</ele>
        <time>2019-08-04T06:23:32.782Z</time>
      </trkpt>
      <trkpt lat="42.50694167" lon="1.53645833">
        <ele>1050.0</ele>
        <time>2019-08-04T06:23:33.802Z</time>
      </trkpt>
      <trkpt lat="42.50694167" lon="1.5365">
        <ele>1050.0</ele>
        <time>2019-08-04T06:23:34.803Z</time>
      </trkpt>
      <trkpt lat="42.50694167" lon="1.5365">
        <ele>1050.0</ele>
        <time>2019-08-04T06:23:35.798Z</time>
      </trkpt>
      <trkpt lat="42.506955" lon="1.536585">
        <ele>1051.0</ele>
        <time>2019-08-04T06:23:36.778Z</time>
      </trkpt>
      <trkpt lat="42.506955" lon="1.536585">
        <ele>1051.0</ele>
        <time>2019-08-04T06:23:37.801Z</time>
      </trkpt>
      <trkpt lat="42.50697167" lon="1.53666333">
        <ele>1051.0</ele>
        <time>2019-08-04T06:23:38.804Z</time>
      </trkpt>
      <trkpt lat="42.50698833" lon="1.53670167">
        <ele>1052.0</ele>
        <time>2019-08-04T06:23:39.803Z</time>
      </trkpt>
      <trkpt lat="42.50698833" lon="1.53670167">
        <ele>1052.0</ele>
        <time>2019-08-04T06:23:40.797Z</time>
      </trkpt>
      <trkpt lat="42.507025" lon="1.53678">
        <ele>1052.0</ele>
        <time>2019-08-04T06:23:41.776Z</time>
      </trkpt>
      <trkpt lat="42.507025" lon="1.53678">
        <ele>1052.0</ele>
        <time>2019-08-04T06:23:42.786Z</time>
      </trkpt>
      <trkpt lat="42.50705667" lon="1.536865">
        <ele>1052.0</ele>
        <time>2019-08-04T06:23:43.765Z</time>
      </trkpt>
      <trkpt lat="42.50706833" lon="1.53691167">
        <ele>1053.0</ele>
        <time>2019-08-04T06:23:44.803Z</time>
      </trkpt>
      <trkpt lat="42.50706833" lon="1.53691167">
        <ele>1053.0</ele>
        <time>2019-08-04T06:23:45.796Z</time>
      </trkpt>
      <trkpt lat="42.50708833" lon="1.53700167">
        <ele>1053.0</ele>
        <time>2019-08-04T06:23:46.775Z</time>
      </trkpt>
      <trkpt lat="42.50708833" lon="1.53700167">
        <ele>1053.0</ele>
        <time>2019-08-04T06:23:47.800Z</time>
      </trkpt>
      <trkpt lat="42.507105" lon="1.53709">
        <ele>1053.0</ele>
        <time>2019-08-04T06:23:48.803Z</time>
      </trkpt>
      <trkpt lat="42.507105" lon="1.53709">
        <ele>1053.0</ele>
        <time>2019-08-04T06:23:49.798Z</time>
      </trkpt>
      <trkpt lat="42.507125" lon="1.53717667">
        <ele>1054.0</ele>
        <time>2019-08-04T06:23:50.791Z</time>
      </trkpt>
      <trkpt lat="42.507125" lon="1.53717667">
        <ele>1054.0</ele>
        <time>2019-08-04T06:23:51.786Z</time>
      </trkpt>
      <trkpt lat="42.50714667" lon="1.53725667">
        <ele>1054.0</ele>
        <time>2019-08-04T06:23:52.784Z</time>
      </trkpt>
      <trkpt lat="42.50714667" lon="1.53725667">
        <ele>1054.0</ele>
        <time>2019-08-04T06:23:53.802Z</time>
      </trkpt>
      <trkpt lat="42.50716333" lon="1.53734167">
        <ele>1055.0</ele>
        <time>2019-08-04T06:23:54.779Z</time>
      </trkpt>
      <trkpt lat="42.50716333" lon="1.53734167">
        <ele>1055.0</ele>
        <time>2019-08-04T06:23:55.804Z</time>
      </trkpt>
      <trkpt lat="42.50717" lon="1.53742167">
        <ele>1056.0</ele>
        <time>2019-08-04T06:23:56.765Z</time>
      </trkpt>
      <trkpt lat="42.50717" lon="1.53742167">
        <ele>1056.0</ele>
        <time>2019-08-04T06:23:57.771Z</time>
      </trkpt>
      <trkpt lat="42.50717" lon="1.537485">
        <ele>1057.0</ele>
        <time>2019-08-04T06:23:58.804Z</time>
      </trkpt>
      <trkpt lat="42.50717" lon="1.537485">
        <ele>1057.0</ele>
        <time>2019-08-04T06:23:59.804Z</time>
      </trkpt>
      <trkpt lat="42.50716333" lon="1.53754333">
        <ele>1057.0</ele>
        <time>2019-08-04T06:24:00.803Z</time>
      </trkpt>
      <trkpt lat="42.50716333" lon="1.53754333">
        <ele>1057.0</ele>
        <time>2019-08-04T06:24:01.798Z</time>
      </trkpt>
      <trkpt lat="42.50716167" lon="1.53760167">
        <ele>1058.0</ele>
        <time>2019-08-04T06:24:02.779Z</time>
      </trkpt>
      <trkpt lat="42.50716167" lon="1.53760167">
        <ele>1058.0</ele>
        <time>2019-08-04T06:24:03.799Z</time>
      </trkpt>
      <trkpt lat="42.50715667" lon="1.53766333">
        <ele>1059.0</ele>
        <time>2019-08-04T06:24:04.781Z</time>
      </trkpt>
      <trkpt lat="42.50715667" lon="1.53766333">
        <ele>1059.0</ele>
        <time>2019-08-04T06:24:05.801Z</time>
      </trkpt>
      <trkpt lat="42.50715333" lon="1.53773667">
        <ele>1059.0</ele>
        <time>2019-08-04T06:24:06.767Z</time>
      </trkpt>
      <trkpt lat="42.50713167" lon="1.53776667">
        <ele>1060.0</ele>
        <time>2019-08-04T06:24:07.767Z</time>
      </trkpt>
      <trkpt lat="42.50713167" lon="1.53776667">
        <ele>1060.0</ele>
        <time>2019-08-04T06:24:08.799Z</time>
      </trkpt>
      <trkpt lat="42.50713" lon="1.53785167">
        <ele>1060.0</ele>
        <time>2019-08-04T06:24:09.778Z</time>
      </trkpt>
      <trkpt lat="42.50713333" lon="1.537885">
        <ele>1060.0</ele>
        <time>2019-08-04T06:24:10.765Z</time>
      </trkpt>
      <trkpt lat="42.50713333" lon="1.537885">
        <ele>1060.0</ele>
        <time>2019-08-04T06:24:11.798Z</time>
      </trkpt>
      <trkpt lat="42.50714167" lon="1.53796167">
        <ele>1061.0</ele>
        <time>2019-08-04T06:24:12.794Z</time>
      </trkpt>
      <trkpt lat="42.50714833" lon="1.53800333">
        <ele>1061.0</ele>
        <time>2019-08-04T06:24:13.773Z</time>
      </trkpt>
      <trkpt lat="42.50714833" lon="1.53800333">
        <ele>1061.0</ele>
        <time>2019-08-04T06:24:14.799Z</time>
      </trkpt>
      <trkpt lat="42.507155" lon="1.538075">
        <ele>1061.0</ele>
        <time>2019-08-04T06:24:15.782Z</time>
      </trkpt>
      <trkpt lat="42.50717333" lon="1.53811667">
        <ele>1062.0</ele>
        <time>2019-08-04T06:24:16.804Z</time>
      </trkpt>
      <trkpt lat="42.50717333" lon="1.53811667">
        <ele>1062.0</ele>
        <time>2019-08-04T06:24:17.772Z</time>
      </trkpt>
      <trkpt lat="42.50721333" lon="1.53821">
        <ele>1063.0</ele>
        <time>2019-08-04T06:24:18.804Z</time>
      </trkpt>
      <trkpt lat="42.50721333" lon="1.53821">
        <ele>1063.0</ele>
        <time>2019-08-04T06:24:19.800Z</time>
      </trkpt>
      <trkpt lat="42.50725833" lon="1.53829333">
        <ele>1064.0</ele>
        <time>2019-08-04T06:24:20.779Z</time>
      </trkpt>
      <trkpt lat="42.50725833" lon="1.53829333">
        <ele>1064.0</ele>
        <time>2019-08-04T06:24:21.799Z</time>
      </trkpt>
      <trkpt lat="42.50728167" lon="1.53837667">
        <ele>1064.0</ele>
        <time>2019-08-04T06:24:22.789Z</time>
      </trkpt>
      <trkpt lat="42.50728167" lon="1.53837667">
        <ele>1064.0</ele>
        <time>2019-08-04T06:24:23.770Z</time>
      </trkpt>
      <trkpt lat="42.50730167" lon="1.53845833">
        <ele>1064.0</ele>
        <time>2019-08-04T06:24:24.802Z</time>
      </trkpt>
      <trkpt lat="42.50730167" lon="1.53845833">
        <ele>1064.0</ele>
        <time>2019-08-04T06:24:25.797Z</time>
      </trkpt>
      <trkpt lat="42.50731833" lon="1.53854333">
        <ele>1065.0</ele>
        <time>2019-08-04T06:24:26.776Z</time>
      </trkpt>
      <trkpt lat="42.50731833" lon="1.53854333">
        <ele>1065.0</ele>
        <time>2019-08-04T06:24:27.780Z</time>
      </trkpt>
      <trkpt lat="42.50733" lon="1.53862167">
        <ele>1066.0</ele>
        <time>2019-08-04T06:24:28.802Z</time>
      </trkpt>
      <trkpt lat="42.50733" lon="1.53862167">
        <ele>1066.0</ele>
        <time>2019-08-04T06:24:29.770Z</time>
      </trkpt>
      <trkpt lat="42.50734333" lon="1.53870833">
        <ele>1067.0</ele>
        <time>2019-08-04T06:24:30.804Z</time>
      </trkpt>
      <trkpt lat="42.507355" lon="1.53875333">
        <ele>1068.0</ele>
        <time>2019-08-04T06:24:31.802Z</time>
      </trkpt>
      <trkpt lat="42.50736167" lon="1.53879667">
        <ele>1068.0</ele>
        <time>2019-08-04T06:24:32.787Z</time>
      </trkpt>
      <trkpt lat="42.50736167" lon="1.53879667">
        <ele>1068.0</ele>
        <time>2019-08-04T06:24:33.766Z</time>
      </trkpt>
      <trkpt lat="42.50737667" lon="1.538875">
        <ele>1069.0</ele>
        <time>2019-08-04T06:24:34.804Z</time>
      </trkpt>
      <trkpt lat="42.50737667" lon="1.538875">
        <ele>1069.0</ele>
        <time>2019-08-04T06:24:35.796Z</time>
      </trkpt>
      <trkpt lat="42.50739167" lon="1.53896">
        <ele>1069.0</ele>
        <time>2019-08-04T06:24:36.780Z</time>
      </trkpt>
      <trkpt lat="42.50739167" lon="1.53896">
        <ele>1069.0</ele>
        <time>2019-08-04T06:24:37.802Z</time>
      </trkpt>
      <trkpt lat="42.50740167" lon="1.539045">
        <ele>1070.0</ele>
        <time>2019-08-04T06:24:38.779Z</time>
      </trkpt>
      <trkpt lat="42.50740167" lon="1.539045">
        <ele>1070.0</ele>
        <time>2019-08-04T06:24:39.798Z</time>
      </trkpt>
      <trkpt lat="42.507415" lon="1.53912333">
        <ele>1071.0</ele>
        <time>2019-08-04T06:24:40.780Z</time>
      </trkpt>
      <trkpt lat="42.507415" lon="1.53912333">
        <ele>1071.0</ele>
        <time>2019-08-04T06:24:41.802Z</time>
      </trkpt>
      <trkpt lat="42.50744333" lon="1.53920333">
        <ele>1071.0</ele>
        <time>2019-08-04T06:24:42.795Z</time>
      </trkpt>
      <trkpt lat="42.50744333" lon="1.53920333">
        <ele>1071.0</ele>
        <time>2019-08-04T06:24:43.774Z</time>
      </trkpt>
      <trkpt lat="42.50746667" lon="1.539295">
        <ele>1071.0</ele>
        <time>2019-08-04T06:24:44.804Z</time>
      </trkpt>
      <trkpt lat="42.50746667" lon="1.539295">
        <ele>1071.0</ele>
        <time>2019-08-04T06:24:45.800Z</time>
      </trkpt>
      <trkpt lat="42.507485" lon="1.53938167">
        <ele>1072.0</ele>
        <time>2019-08-04T06:24:46.804Z</time>
      </trkpt>
      <trkpt lat="42.507485" lon="1.53938167">
        <ele>1072.0</ele>
        <time>2019-08-04T06:24:47.794Z</time>
      </trkpt>
      <trkpt lat="42.50751333" lon="1.53946833">
        <ele>1072.0</ele>
        <time>2019-08-04T06:24:48.802Z</time>
      </trkpt>
      <trkpt lat="42.50752833" lon="1.539515">
        <ele>1072.0</ele>
        <time>2019-08-04T06:24:49.789Z</time>
      </trkpt>
      <trkpt lat="42.50754167" lon="1.53956167">
        <ele>1073.0</ele>
        <time>2019-08-04T06:24:50.774Z</time>
      </trkpt>
      <trkpt lat="42.50754167" lon="1.53956167">
        <ele>1073.0</ele>
        <time>2019-08-04T06:24:51.798Z</time>
      </trkpt>
      <trkpt lat="42.50756333" lon="1.53965333">
        <ele>1073.0</ele>
        <time>2019-08-04T06:24:52.782Z</time>
      </trkpt>
      <trkpt lat="42.50756333" lon="1.53965333">
        <ele>1073.0</ele>
        <time>2019-08-04T06:24:53.800Z</time>
      </trkpt>
      <trkpt lat="42.507585" lon="1.53974">
        <ele>1073.0</ele>
        <time>2019-08-04T06:24:54.780Z</time>
      </trkpt>
      <trkpt lat="42.507585" lon="1.53974">
        <ele>1073.0</ele>
        <time>2019-08-04T06:24:55.801Z</time>
      </trkpt>
      <trkpt lat="42.50760333" lon="1.53983">
        <ele>1073.0</ele>
        <time>2019-08-04T06:24:56.802Z</time>
      </trkpt>
      <trkpt lat="42.50760333" lon="1.53983">
        <ele>1073.0</ele>
        <time>2019-08-04T06:24:57.773Z</time>
      </trkpt>
      <trkpt lat="42.50762167" lon="1.53992333">
        <ele>1074.0</ele>
        <time>2019-08-04T06:24:58.765Z</time>
      </trkpt>
      <trkpt lat="42.50762167" lon="1.53992333">
        <ele>1074.0</ele>
        <time>2019-08-04T06:24:59.800Z</time>
      </trkpt>
      <trkpt lat="42.507625" lon="1.54001667">
        <ele>1074.0</ele>
        <time>2019-08-04T06:25:00.803Z</time>
      </trkpt>
      <trkpt lat="42.50762167" lon="1.54005833">
        <ele>1074.0</ele>
        <time>2019-08-04T06:25:01.804Z</time>
      </trkpt>
      <trkpt lat="42.50761833" lon="1.54010667">
        <ele>1074.0</ele>
        <time>2019-08-04T06:25:02.787Z</time>
      </trkpt>
      <trkpt lat="42.50761833" lon="1.54010667">
        <ele>1074.0</ele>
        <time>2019-08-04T06:25:03.766Z</time>
      </trkpt>
      <trkpt lat="42.50761167" lon="1.540185">
        <ele>1074.0</ele>
        <time>2019-08-04T06:25:04.804Z</time>
      </trkpt>
      <trkpt lat="42.50761167" lon="1.540185">
        <ele>1074.0</ele>
        <time>2019-08-04T06:25:05.794Z</time>
      </trkpt>
      <trkpt lat="42.50762" lon="1.54027667">
        <ele>1074.0</ele>
        <time>2019-08-04T06:25:06.802Z</time>
      </trkpt>
      <trkpt lat="42.50762" lon="1.54027667">
        <ele>1074.0</ele>
        <time>2019-08-04T06:25:07.797Z</time>
      </trkpt>
      <trkpt lat="42.50763167" lon="1.54037667">
        <ele>1074.0</ele>
        <time>2019-08-04T06:25:08.795Z</time>
      </trkpt>
      <trkpt lat="42.50763667" lon="1.54042833">
        <ele>1074.0</ele>
        <time>2019-08-04T06:25:09.790Z</time>
      </trkpt>
      <trkpt lat="42.50764167" lon="1.54047833">
        <ele>1074.0</ele>
        <time>2019-08-04T06:25:10.772Z</time>
      </trkpt>
      <trkpt lat="42.50764167" lon="1.54047833">
        <ele>1074.0</ele>
        <time>2019-08-04T06:25:11.799Z</time>
      </trkpt>
      <trkpt lat="42.50764" lon="1.54058167">
        <ele>1074.0</ele>
        <time>2019-08-04T06:25:12.798Z</time>
      </trkpt>
      <trkpt lat="42.50764" lon="1.54058167">
        <ele>1074.0</ele>
        <time>2019-08-04T06:25:13.797Z</time>
      </trkpt>
      <trkpt lat="42.507645" lon="1.54068667">
        <ele>1073.0</ele>
        <time>2019-08-04T06:25:14.777Z</time>
      </trkpt>
      <trkpt lat="42.507645" lon="1.54068667">
        <ele>1073.0</ele>
        <time>2019-08-04T06:25:15.799Z</time>
      </trkpt>
      <trkpt lat="42.50765167" lon="1.54078167">
        <ele>1073.0</ele>
        <time>2019-08-04T06:25:16.779Z</time>
      </trkpt>
      <trkpt lat="42.50765167" lon="1.54078167">
        <ele>1073.0</ele>
        <time>2019-08-04T06:25:17.798Z</time>
      </trkpt>
      <trkpt lat="42.507655" lon="1.54086833">
        <ele>1073.0</ele>
        <time>2019-08-04T06:25:18.783Z</time>
      </trkpt>
      <trkpt lat="42.50765833" lon="1.54091167">
        <ele>1073.0</ele>
        <time>2019-08-04T06:25:19.803Z</time>
      </trkpt>
      <trkpt lat="42.50766" lon="1.54095167">
        <ele>1073.0</ele>
        <time>2019-08-04T06:25:20.766Z</time>
      </trkpt>
      <trkpt lat="42.50766" lon="1.54095167">
        <ele>1073.0</ele>
        <time>2019-08-04T06:25:21.798Z</time>
      </trkpt>
      <trkpt lat="42.50768667" lon="1.54104167">
        <ele>1074.0</ele>
        <time>2019-08-04T06:25:22.793Z</time>
      </trkpt>
      <trkpt lat="42.50768667" lon="1.54104167">
        <ele>1074.0</ele>
        <time>2019-08-04T06:25:23.774Z</time>
      </trkpt>
      <trkpt lat="42.507725" lon="1.54114">
        <ele>1074.0</ele>
        <time>2019-08-04T06:25:24.802Z</time>
      </trkpt>
      <trkpt lat="42.507725" lon="1.54114">
        <ele>1074.0</ele>
        <time>2019-08-04T06:25:25.797Z</time>
      </trkpt>
      <trkpt lat="42.507775" lon="1.54124167">
        <ele>1074.0</ele>
        <time>2019-08-04T06:25:26.776Z</time>
      </trkpt>
      <trkpt lat="42.507775" lon="1.54124167">
        <ele>1074.0</ele>
        <time>2019-08-04T06:25:27.797Z</time>
      </trkpt>
      <trkpt lat="42.507805" lon="1.54135">
        <ele>1074.0</ele>
        <time>2019-08-04T06:25:28.780Z</time>
      </trkpt>
      <trkpt lat="42.507805" lon="1.54135">
        <ele>1074.0</ele>
        <time>2019-08-04T06:25:29.798Z</time>
      </trkpt>
      <trkpt lat="42.50784" lon="1.54144833">
        <ele>1075.0</ele>
        <time>2019-08-04T06:25:30.772Z</time>
      </trkpt>
      <trkpt lat="42.50785167" lon="1.54149667">
        <ele>1075.0</ele>
        <time>2019-08-04T06:25:31.804Z</time>
      </trkpt>
      <trkpt lat="42.50785167" lon="1.54149667">
        <ele>1075.0</ele>
        <time>2019-08-04T06:25:32.771Z</time>
      </trkpt>
      <trkpt lat="42.50787" lon="1.54158833">
        <ele>1075.0</ele>
        <time>2019-08-04T06:25:33.802Z</time>
      </trkpt>
      <trkpt lat="42.50788" lon="1.54163333">
        <ele>1075.0</ele>
        <time>2019-08-04T06:25:34.804Z</time>
      </trkpt>
      <trkpt lat="42.50788" lon="1.54163333">
        <ele>1075.0</ele>
        <time>2019-08-04T06:25:35.798Z</time>
      </trkpt>
      <trkpt lat="42.507905" lon="1.54173">
        <ele>1076.0</ele>
        <time>2019-08-04T06:25:36.777Z</time>
      </trkpt>
      <trkpt lat="42.507905" lon="1.54173">
        <ele>1076.0</ele>
        <time>2019-08-04T06:25:37.799Z</time>
      </trkpt>
      <trkpt lat="42.50793333" lon="1.54183167">
        <ele>1076.0</ele>
        <time>2019-08-04T06:25:38.779Z</time>
      </trkpt>
      <trkpt lat="42.50793333" lon="1.54183167">
        <ele>1076.0</ele>
        <time>2019-08-04T06:25:39.799Z</time>
      </trkpt>
      <trkpt lat="42.50796" lon="1.54193167">
        <ele>1077.0</ele>
        <time>2019-08-04T06:25:40.779Z</time>
      </trkpt>
      <trkpt lat="42.50796" lon="1.54193167">
        <ele>1077.0</ele>
        <time>2019-08-04T06:25:41.800Z</time>
      </trkpt>
      <trkpt lat="42.50798167" lon="1.54202833">
        <ele>1078.0</ele>
        <time>2019-08-04T06:25:42.790Z</time>
      </trkpt>
      <trkpt lat="42.50798167" lon="1.54202833">
        <ele>1078.0</ele>
        <time>2019-08-04T06:25:43.771Z</time>
      </trkpt>
      <trkpt lat="42.50800333" lon="1.54212833">
        <ele>1078.0</ele>
        <time>2019-08-04T06:25:44.802Z</time>
      </trkpt>
      <trkpt lat="42.50800333" lon="1.54212833">
        <ele>1078.0</ele>
        <time>2019-08-04T06:25:45.797Z</time>
      </trkpt>
      <trkpt lat="42.50802167" lon="1.54223">
        <ele>1078.0</ele>
        <time>2019-08-04T06:25:46.793Z</time>
      </trkpt>
      <trkpt lat="42.50802167" lon="1.54223">
        <ele>1078.0</ele>
        <time>2019-08-04T06:25:47.772Z</time>
      </trkpt>
      <trkpt lat="42.50803667" lon="1.54232167">
        <ele>1079.0</ele>
        <time>2019-08-04T06:25:48.775Z</time>
      </trkpt>
      <trkpt lat="42.50803667" lon="1.54232167">
        <ele>1079.0</ele>
        <time>2019-08-04T06:25:49.798Z</time>
      </trkpt>
      <trkpt lat="42.50805333" lon="1.54241833">
        <ele>1079.0</ele>
        <time>2019-08-04T06:25:50.783Z</time>
      </trkpt>
      <trkpt lat="42.50805333" lon="1.54241833">
        <ele>1079.0</ele>
        <time>2019-08-04T06:25:51.766Z</time>
      </trkpt>
      <trkpt lat="42.50806833" lon="1.54251667">
        <ele>1079.0</ele>
        <time>2019-08-04T06:25:52.783Z</time>
      </trkpt>
      <trkpt lat="42.50806833" lon="1.54251667">
        <ele>1079.0</ele>
        <time>2019-08-04T06:25:53.802Z</time>
      </trkpt>
      <trkpt lat="42.50808167" lon="1.54260667">
        <ele>1079.0</ele>
        <time>2019-08-04T06:25:54.803Z</time>
      </trkpt>
      <trkpt lat="42.50808167" lon="1.542645">
        <ele>1079.0</ele>
        <time>2019-08-04T06:25:55.767Z</time>
      </trkpt>
      <trkpt lat="42.50808167" lon="1.542645">
        <ele>1079.0</ele>
        <time>2019-08-04T06:25:56.799Z</time>
      </trkpt>
      <trkpt lat="42.50811333" lon="1.542715">
        <ele>1079.0</ele>
        <time>2019-08-04T06:25:57.778Z</time>
      </trkpt>
      <trkpt lat="42.50813" lon="1.54275333">
        <ele>1080.0</ele>
        <time>2019-08-04T06:25:58.768Z</time>
      </trkpt>
      <trkpt lat="42.50813" lon="1.54275333">
        <ele>1080.0</ele>
        <time>2019-08-04T06:25:59.800Z</time>
      </trkpt>
      <trkpt lat="42.50813" lon="1.542855">
        <ele>1080.0</ele>
        <time>2019-08-04T06:26:00.780Z</time>
      </trkpt>
      <trkpt lat="42.50813333" lon="1.54290333">
        <ele>1080.0</ele>
        <time>2019-08-04T06:26:01.765Z</time>
      </trkpt>
      <trkpt lat="42.50814" lon="1.54295333">
        <ele>1080.0</ele>
        <time>2019-08-04T06:26:02.791Z</time>
      </trkpt>
      <trkpt lat="42.50814" lon="1.54295333">
        <ele>1080.0</ele>
        <time>2019-08-04T06:26:03.781Z</time>
      </trkpt>
      <trkpt lat="42.50815667" lon="1.54305167">
        <ele>1080.0</ele>
        <time>2019-08-04T06:26:04.804Z</time>
      </trkpt>
      <trkpt lat="42.50815667" lon="1.54305167">
        <ele>1080.0</ele>
        <time>2019-08-04T06:26:05.801Z</time>
      </trkpt>
      <trkpt lat="42.50816833" lon="1.54315">
        <ele>1080.0</ele>
        <time>2019-08-04T06:26:06.772Z</time>
      </trkpt>
      <trkpt lat="42.50816833" lon="1.54315">
        <ele>1080.0</ele>
        <time>2019-08-04T06:26:07.799Z</time>
      </trkpt>
      <trkpt lat="42.50818167" lon="1.54325167">
        <ele>1080.0</ele>
        <time>2019-08-04T06:26:08.792Z</time>
      </trkpt>
      <trkpt lat="42.50818167" lon="1.54325167">
        <ele>1080.0</ele>
        <time>2019-08-04T06:26:09.778Z</time>
      </trkpt>
      <trkpt lat="42.50820333" lon="1.54335333">
        <ele>1080.0</ele>
        <time>2019-08-04T06:26:10.766Z</time>
      </trkpt>
      <trkpt lat="42.50820333" lon="1.54335333">
        <ele>1080.0</ele>
        <time>2019-08-04T06:26:11.799Z</time>
      </trkpt>
      <trkpt lat="42.50823167" lon="1.54345167">
        <ele>1080.0</ele>
        <time>2019-08-04T06:26:12.784Z</time>
      </trkpt>
      <trkpt lat="42.50823167" lon="1.54345167">
        <ele>1080.0</ele>
        <time>2019-08-04T06:26:13.803Z</time>
      </trkpt>
      <trkpt lat="42.50826333" lon="1.54354">
        <ele>1080.0</ele>
        <time>2019-08-04T06:26:14.765Z</time>
      </trkpt>
      <trkpt lat="42.50826333" lon="1.54354">
        <ele>1080.0</ele>
        <time>2019-08-04T06:26:15.799Z</time>
      </trkpt>
      <trkpt lat="42.50831167" lon="1.54363333">
        <ele>1081.0</ele>
        <time>2019-08-04T06:26:16.778Z</time>
      </trkpt>
      <trkpt lat="42.50831167" lon="1.54363333">
        <ele>1081.0</ele>
        <time>2019-08-04T06:26:17.800Z</time>
      </trkpt>
      <trkpt lat="42.50836167" lon="1.54372667">
        <ele>1082.0</ele>
        <time>2019-08-04T06:26:18.788Z</time>
      </trkpt>
      <trkpt lat="42.50837833" lon="1.54377167">
        <ele>1082.0</ele>
        <time>2019-08-04T06:26:19.774Z</time>
      </trkpt>
      <trkpt lat="42.50837833" lon="1.54377167">
        <ele>1082.0</ele>
        <time>2019-08-04T06:26:20.798Z</time>
      </trkpt>
      <trkpt lat="42.50841333" lon="1.54386333">
        <ele>1083.0</ele>
        <time>2019-08-04T06:26:21.789Z</time>
      </trkpt>
      <trkpt lat="42.50842833" lon="1.543905">
        <ele>1083.0</ele>
        <time>2019-08-04T06:26:22.794Z</time>
      </trkpt>
      <trkpt lat="42.50842833" lon="1.543905">
        <ele>1083.0</ele>
        <time>2019-08-04T06:26:23.773Z</time>
      </trkpt>
      <trkpt lat="42.50845333" lon="1.54398167">
        <ele>1084.0</ele>
        <time>2019-08-04T06:26:24.800Z</time>
      </trkpt>
      <trkpt lat="42.50845333" lon="1.54398167">
        <ele>1084.0</ele>
        <time>2019-08-04T06:26:25.779Z</time>
      </trkpt>
      <trkpt lat="42.50847167" lon="1.54406167">
        <ele>1085.0</ele>
        <time>2019-08-04T06:26:26.805Z</time>
      </trkpt>
      <trkpt lat="42.50847167" lon="1.54406167">
        <ele>1085.0</ele>
        <time>2019-08-04T06:26:27.799Z</time>
      </trkpt>
      <trkpt lat="42.50848333" lon="1.544135">
        <ele>1086.0</ele>
        <time>2019-08-04T06:26:28.777Z</time>
      </trkpt>
      <trkpt lat="42.50848333" lon="1.544135">
        <ele>1086.0</ele>
        <time>2019-08-04T06:26:29.770Z</time>
      </trkpt>
      <trkpt lat="42.5085" lon="1.54420667">
        <ele>1086.0</ele>
        <time>2019-08-04T06:26:30.772Z</time>
      </trkpt>
      <trkpt lat="42.5085" lon="1.54420667">
        <ele>1086.0</ele>
        <time>2019-08-04T06:26:31.797Z</time>
      </trkpt>
      <trkpt lat="42.50851" lon="1.54427667">
        <ele>1087.0</ele>
        <time>2019-08-04T06:26:32.783Z</time>
      </trkpt>
      <trkpt lat="42.50851" lon="1.54427667">
        <ele>1087.0</ele>
        <time>2019-08-04T06:26:33.802Z</time>
      </trkpt>
      <trkpt lat="42.508525" lon="1.54434667">
        <ele>1088.0</ele>
        <time>2019-08-04T06:26:34.765Z</time>
      </trkpt>
      <trkpt lat="42.508525" lon="1.54434667">
        <ele>1088.0</ele>
        <time>2019-08-04T06:26:35.796Z</time>
      </trkpt>
      <trkpt lat="42.50853" lon="1.54441667">
        <ele>1089.0</ele>
        <time>2019-08-04T06:26:36.776Z</time>
      </trkpt>
      <trkpt lat="42.50853" lon="1.54441667">
        <ele>1089.0</ele>
        <time>2019-08-04T06:26:37.799Z</time>
      </trkpt>
      <trkpt lat="42.50852667" lon="1.54448333">
        <ele>1090.0</ele>
        <time>2019-08-04T06:26:38.778Z</time>
      </trkpt>
      <trkpt lat="42.50852667" lon="1.54448333">
        <ele>1090.0</ele>
        <time>2019-08-04T06:26:39.801Z</time>
      </trkpt>
      <trkpt lat="42.508535" lon="1.544545">
        <ele>1090.0</ele>
        <time>2019-08-04T06:26:40.767Z</time>
      </trkpt>
      <trkpt lat="42.508535" lon="1.544545">
        <ele>1090.0</ele>
        <time>2019-08-04T06:26:41.799Z</time>
      </trkpt>
      <trkpt lat="42.50854167" lon="1.54461167">
        <ele>1092.0</ele>
        <time>2019-08-04T06:26:42.788Z</time>
      </trkpt>
      <trkpt lat="42.50854167" lon="1.54461167">
        <ele>1092.0</ele>
        <time>2019-08-04T06:26:43.766Z</time>
      </trkpt>
      <trkpt lat="42.50854" lon="1.54468667">
        <ele>1093.0</ele>
        <time>2019-08-04T06:26:44.770Z</time>
      </trkpt>
      <trkpt lat="42.50854" lon="1.54468667">
        <ele>1093.0</ele>
        <time>2019-08-04T06:26:45.775Z</time>
      </trkpt>
      <trkpt lat="42.50854333" lon="1.54476333">
        <ele>1093.0</ele>
        <time>2019-08-04T06:26:46.804Z</time>
      </trkpt>
      <trkpt lat="42.50854333" lon="1.54476333">
        <ele>1093.0</ele>
        <time>2019-08-04T06:26:47.799Z</time>
      </trkpt>
      <trkpt lat="42.508535" lon="1.54484">
        <ele>1094.0</ele>
        <time>2019-08-04T06:26:48.778Z</time>
      </trkpt>
      <trkpt lat="42.508535" lon="1.54484">
        <ele>1094.0</ele>
        <time>2019-08-04T06:26:49.770Z</time>
      </trkpt>
      <trkpt lat="42.50851833" lon="1.54491667">
        <ele>1095.0</ele>
        <time>2019-08-04T06:26:50.765Z</time>
      </trkpt>
      <trkpt lat="42.50851833" lon="1.54491667">
        <ele>1095.0</ele>
        <time>2019-08-04T06:26:51.798Z</time>
      </trkpt>
      <trkpt lat="42.50850333" lon="1.544985">
        <ele>1096.0</ele>
        <time>2019-08-04T06:26:52.785Z</time>
      </trkpt>
      <trkpt lat="42.50850333" lon="1.544985">
        <ele>1096.0</ele>
        <time>2019-08-04T06:26:53.804Z</time>
      </trkpt>
      <trkpt lat="42.50848833" lon="1.54504833">
        <ele>1096.0</ele>
        <time>2019-08-04T06:26:54.804Z</time>
      </trkpt>
      <trkpt lat="42.50848833" lon="1.54504833">
        <ele>1096.0</ele>
        <time>2019-08-04T06:26:55.786Z</time>
      </trkpt>
      <trkpt lat="42.50846667" lon="1.545115">
        <ele>1096.0</ele>
        <time>2019-08-04T06:26:56.767Z</time>
      </trkpt>
      <trkpt lat="42.50846667" lon="1.545115">
        <ele>1096.0</ele>
        <time>2019-08-04T06:26:57.765Z</time>
      </trkpt>
      <trkpt lat="42.50843667" lon="1.54518167">
        <ele>1097.0</ele>
        <time>2019-08-04T06:26:58.765Z</time>
      </trkpt>
      <trkpt lat="42.50843667" lon="1.54518167">
        <ele>1097.0</ele>
        <time>2019-08-04T06:26:59.800Z</time>
      </trkpt>
      <trkpt lat="42.50840833" lon="1.54525333">
        <ele>1097.0</ele>
        <time>2019-08-04T06:27:00.801Z</time>
      </trkpt>
      <trkpt lat="42.50840833" lon="1.54525333">
        <ele>1097.0</ele>
        <time>2019-08-04T06:27:01.797Z</time>
      </trkpt>
      <trkpt lat="42.50839333" lon="1.54532167">
        <ele>1098.0</ele>
        <time>2019-08-04T06:27:02.790Z</time>
      </trkpt>
      <trkpt lat="42.50839333" lon="1.54532167">
        <ele>1098.0</ele>
        <time>2019-08-04T06:27:03.784Z</time>
      </trkpt>
      <trkpt lat="42.50837833" lon="1.54539">
        <ele>1099.0</ele>
        <time>2019-08-04T06:27:04.766Z</time>
      </trkpt>
      <trkpt lat="42.50837833" lon="1.54539">
        <ele>1099.0</ele>
        <time>2019-08-04T06:27:05.797Z</time>
      </trkpt>
      <trkpt lat="42.50836333" lon="1.54546167">
        <ele>1099.0</ele>
        <time>2019-08-04T06:27:06.804Z</time>
      </trkpt>
      <trkpt lat="42.50836333" lon="1.54546167">
        <ele>1099.0</ele>
        <time>2019-08-04T06:27:07.798Z</time>
      </trkpt>
      <trkpt lat="42.50834167" lon="1.54553333">
        <ele>1100.0</ele>
        <time>2019-08-04T06:27:08.777Z</time>
      </trkpt>
      <trkpt lat="42.50834167" lon="1.54553333">
        <ele>1100.0</ele>
        <time>2019-08-04T06:27:09.800Z</time>
      </trkpt>
      <trkpt lat="42.50831833" lon="1.545605">
        <ele>1101.0</ele>
        <time>2019-08-04T06:27:10.767Z</time>
      </trkpt>
      <trkpt lat="42.50831833" lon="1.545605">
        <ele>1101.0</ele>
        <time>2019-08-04T06:27:11.799Z</time>
      </trkpt>
      <trkpt lat="42.50829833" lon="1.54568">
        <ele>1101.0</ele>
        <time>2019-08-04T06:27:12.790Z</time>
      </trkpt>
      <trkpt lat="42.50829833" lon="1.54568">
        <ele>1101.0</ele>
        <time>2019-08-04T06:27:13.772Z</time>
      </trkpt>
      <trkpt lat="42.50827333" lon="1.54575">
        <ele>1102.0</ele>
        <time>2019-08-04T06:27:14.765Z</time>
      </trkpt>
      <trkpt lat="42.50827333" lon="1.54575">
        <ele>1102.0</ele>
        <time>2019-08-04T06:27:15.795Z</time>
      </trkpt>
      <trkpt lat="42.50825333" lon="1.545815">
        <ele>1103.0</ele>
        <time>2019-08-04T06:27:16.775Z</time>
      </trkpt>
      <trkpt lat="42.50825333" lon="1.545815">
        <ele>1103.0</ele>
        <time>2019-08-04T06:27:17.800Z</time>
      </trkpt>
      <trkpt lat="42.50822833" lon="1.54588333">
        <ele>1103.0</ele>
        <time>2019-08-04T06:27:18.780Z</time>
      </trkpt>
      <trkpt lat="42.508215" lon="1.54591333">
        <ele>1103.0</ele>
        <time>2019-08-04T06:27:19.771Z</time>
      </trkpt>
      <trkpt lat="42.508215" lon="1.54591333">
        <ele>1103.0</ele>
        <time>2019-08-04T06:27:20.765Z</time>
      </trkpt>
      <trkpt lat="42.50819167" lon="1.54598167">
        <ele>1104.0</ele>
        <time>2019-08-04T06:27:21.765Z</time>
      </trkpt>
      <trkpt lat="42.50818333" lon="1.546015">
        <ele>1104.0</ele>
        <time>2019-08-04T06:27:22.791Z</time>
      </trkpt>
      <trkpt lat="42.50818333" lon="1.546015">
        <ele>1104.0</ele>
        <time>2019-08-04T06:27:23.773Z</time>
      </trkpt>
      <trkpt lat="42.50816167" lon="1.54608">
        <ele>1105.0</ele>
        <time>2019-08-04T06:27:24.800Z</time>
      </trkpt>
      <trkpt lat="42.50816167" lon="1.54608">
        <ele>1105.0</ele>
        <time>2019-08-04T06:27:25.779Z</time>
      </trkpt>
      <trkpt lat="42.50813333" lon="1.546145">
        <ele>1105.0</ele>
        <time>2019-08-04T06:27:26.774Z</time>
      </trkpt>
      <trkpt lat="42.50813333" lon="1.546145">
        <ele>1105.0</ele>
        <time>2019-08-04T06:27:27.798Z</time>
      </trkpt>
      <trkpt lat="42.50812167" lon="1.54622167">
        <ele>1106.0</ele>
        <time>2019-08-04T06:27:28.776Z</time>
      </trkpt>
      <trkpt lat="42.50812167" lon="1.54622167">
        <ele>1106.0</ele>
        <time>2019-08-04T06:27:29.789Z</time>
      </trkpt>
      <trkpt lat="42.50812667" lon="1.54630167">
        <ele>1107.0</ele>
        <time>2019-08-04T06:27:30.766Z</time>
      </trkpt>
      <trkpt lat="42.508125" lon="1.54633833">
        <ele>1108.0</ele>
        <time>2019-08-04T06:27:31.805Z</time>
      </trkpt>
      <trkpt lat="42.508125" lon="1.54633833">
        <ele>1108.0</ele>
        <time>2019-08-04T06:27:32.780Z</time>
      </trkpt>
      <trkpt lat="42.50812" lon="1.54640667">
        <ele>1109.0</ele>
        <time>2019-08-04T06:27:33.765Z</time>
      </trkpt>
      <trkpt lat="42.50808833" lon="1.54642">
        <ele>1110.0</ele>
        <time>2019-08-04T06:27:34.769Z</time>
      </trkpt>
      <trkpt lat="42.50808833" lon="1.54642">
        <ele>1110.0</ele>
        <time>2019-08-04T06:27:35.799Z</time>
      </trkpt>
      <trkpt lat="42.50808333" lon="1.546485">
        <ele>1112.0</ele>
        <time>2019-08-04T06:27:36.779Z</time>
      </trkpt>
      <trkpt lat="42.50808333" lon="1.546485">
        <ele>1112.0</ele>
        <time>2019-08-04T06:27:37.800Z</time>
      </trkpt>
      <trkpt lat="42.508095" lon="1.54656333">
        <ele>1113.0</ele>
        <time>2019-08-04T06:27:38.779Z</time>
      </trkpt>
      <trkpt lat="42.508095" lon="1.54656333">
        <ele>1113.0</ele>
        <time>2019-08-04T06:27:39.769Z</time>
      </trkpt>
      <trkpt lat="42.50810667" lon="1.546635">
        <ele>1113.0</ele>
        <time>2019-08-04T06:27:40.765Z</time>
      </trkpt>
      <trkpt lat="42.50810667" lon="1.546635">
        <ele>1113.0</ele>
        <time>2019-08-04T06:27:41.799Z</time>
      </trkpt>
      <trkpt lat="42.50811167" lon="1.54670667">
        <ele>1114.0</ele>
        <time>2019-08-04T06:27:42.786Z</time>
      </trkpt>
      <trkpt lat="42.50811167" lon="1.54670667">
        <ele>1114.0</ele>
        <time>2019-08-04T06:27:43.765Z</time>
      </trkpt>
      <trkpt lat="42.508135" lon="1.54678333">
        <ele>1115.0</ele>
        <time>2019-08-04T06:27:44.766Z</time>
      </trkpt>
      <trkpt lat="42.508135" lon="1.54678333">
        <ele>1115.0</ele>
        <time>2019-08-04T06:27:45.797Z</time>
      </trkpt>
      <trkpt lat="42.50816" lon="1.54685667">
        <ele>1116.0</ele>
        <time>2019-08-04T06:27:46.794Z</time>
      </trkpt>
      <trkpt lat="42.50816" lon="1.54685667">
        <ele>1116.0</ele>
        <time>2019-08-04T06:27:47.773Z</time>
      </trkpt>
      <trkpt lat="42.50819167" lon="1.54693167">
        <ele>1116.0</ele>
        <time>2019-08-04T06:27:48.766Z</time>
      </trkpt>
      <trkpt lat="42.50819167" lon="1.54693167">
        <ele>1116.0</ele>
        <time>2019-08-04T06:27:49.765Z</time>
      </trkpt>
      <trkpt lat="42.50822167" lon="1.54700167">
        <ele>1117.0</ele>
        <time>2019-08-04T06:27:50.780Z</time>
      </trkpt>
      <trkpt lat="42.50822167" lon="1.54700167">
        <ele>1117.0</ele>
        <time>2019-08-04T06:27:51.770Z</time>
      </trkpt>
      <trkpt lat="42.50823833" lon="1.547065">
        <ele>1118.0</ele>
        <time>2019-08-04T06:27:52.786Z</time>
      </trkpt>
      <trkpt lat="42.50823833" lon="1.547065">
        <ele>1118.0</ele>
        <time>2019-08-04T06:27:53.765Z</time>
      </trkpt>
      <trkpt lat="42.508265" lon="1.54712833">
        <ele>1119.0</ele>
        <time>2019-08-04T06:27:54.780Z</time>
      </trkpt>
      <trkpt lat="42.508265" lon="1.54712833">
        <ele>1119.0</ele>
        <time>2019-08-04T06:27:55.794Z</time>
      </trkpt>
      <trkpt lat="42.50827667" lon="1.54717167">
        <ele>1120.0</ele>
        <time>2019-08-04T06:27:56.774Z</time>
      </trkpt>
      <trkpt lat="42.50827667" lon="1.54717167">
        <ele>1120.0</ele>
        <time>2019-08-04T06:27:57.769Z</time>
      </trkpt>
      <trkpt lat="42.50832667" lon="1.54724167">
        <ele>1121.0</ele>
        <time>2019-08-04T06:27:58.804Z</time>
      </trkpt>
      <trkpt lat="42.50832667" lon="1.54724167">
        <ele>1121.0</ele>
        <time>2019-08-04T06:27:59.809Z</time>
      </trkpt>
      <trkpt lat="42.50837833" lon="1.547305">
        <ele>1122.0</ele>
        <time>2019-08-04T06:28:00.804Z</time>
      </trkpt>
      <trkpt lat="42.50837833" lon="1.547305">
        <ele>1122.0</ele>
        <time>2019-08-04T06:28:01.798Z</time>
      </trkpt>
      <trkpt lat="42.50842333" lon="1.54736333">
        <ele>1123.0</ele>
        <time>2019-08-04T06:28:02.784Z</time>
      </trkpt>
      <trkpt lat="42.50842333" lon="1.54736333">
        <ele>1123.0</ele>
        <time>2019-08-04T06:28:03.803Z</time>
      </trkpt>
      <trkpt lat="42.50847" lon="1.54741667">
        <ele>1124.0</ele>
        <time>2019-08-04T06:28:04.766Z</time>
      </trkpt>
      <trkpt lat="42.50847" lon="1.54741667">
        <ele>1124.0</ele>
        <time>2019-08-04T06:28:05.802Z</time>
      </trkpt>
      <trkpt lat="42.50852167" lon="1.54746667">
        <ele>1124.0</ele>
        <time>2019-08-04T06:28:06.770Z</time>
      </trkpt>
      <trkpt lat="42.50852167" lon="1.54746667">
        <ele>1124.0</ele>
        <time>2019-08-04T06:28:07.797Z</time>
      </trkpt>
      <trkpt lat="42.50857333" lon="1.547505">
        <ele>1125.0</ele>
        <time>2019-08-04T06:28:08.778Z</time>
      </trkpt>
      <trkpt lat="42.50857333" lon="1.547505">
        <ele>1125.0</ele>
        <time>2019-08-04T06:28:09.797Z</time>
      </trkpt>
      <trkpt lat="42.50860833" lon="1.54755">
        <ele>1126.0</ele>
        <time>2019-08-04T06:28:10.779Z</time>
      </trkpt>
      <trkpt lat="42.50860833" lon="1.54755">
        <ele>1126.0</ele>
        <time>2019-08-04T06:28:11.800Z</time>
      </trkpt>
      <trkpt lat="42.50864833" lon="1.54758667">
        <ele>1127.0</ele>
        <time>2019-08-04T06:28:12.784Z</time>
      </trkpt>
      <trkpt lat="42.50864833" lon="1.54758667">
        <ele>1127.0</ele>
        <time>2019-08-04T06:28:13.803Z</time>
      </trkpt>
      <trkpt lat="42.50869667" lon="1.54761333">
        <ele>1128.0</ele>
        <time>2019-08-04T06:28:14.766Z</time>
      </trkpt>
      <trkpt lat="42.50869667" lon="1.54761333">
        <ele>1128.0</ele>
        <time>2019-08-04T06:28:15.802Z</time>
      </trkpt>
      <trkpt lat="42.508745" lon="1.54763833">
        <ele>1129.0</ele>
        <time>2019-08-04T06:28:16.766Z</time>
      </trkpt>
      <trkpt lat="42.508745" lon="1.54763833">
        <ele>1129.0</ele>
        <time>2019-08-04T06:28:17.797Z</time>
      </trkpt>
      <trkpt lat="42.5088" lon="1.54765833">
        <ele>1130.0</ele>
        <time>2019-08-04T06:28:18.776Z</time>
      </trkpt>
      <trkpt lat="42.5088" lon="1.54765833">
        <ele>1130.0</ele>
        <time>2019-08-04T06:28:19.797Z</time>
      </trkpt>
      <trkpt lat="42.508855" lon="1.54768">
        <ele>1131.0</ele>
        <time>2019-08-04T06:28:20.781Z</time>
      </trkpt>
      <trkpt lat="42.508855" lon="1.54768">
        <ele>1131.0</ele>
        <time>2019-08-04T06:28:21.800Z</time>
      </trkpt>
      <trkpt lat="42.508915" lon="1.547695">
        <ele>1132.0</ele>
        <time>2019-08-04T06:28:22.785Z</time>
      </trkpt>
      <trkpt lat="42.508915" lon="1.547695">
        <ele>1132.0</ele>
        <time>2019-08-04T06:28:23.804Z</time>
      </trkpt>
      <trkpt lat="42.50897" lon="1.54770833">
        <ele>1133.0</ele>
        <time>2019-08-04T06:28:24.765Z</time>
      </trkpt>
      <trkpt lat="42.50897" lon="1.54770833">
        <ele>1133.0</ele>
        <time>2019-08-04T06:28:25.798Z</time>
      </trkpt>
      <trkpt lat="42.50902" lon="1.54772167">
        <ele>1134.0</ele>
        <time>2019-08-04T06:28:26.777Z</time>
      </trkpt>
      <trkpt lat="42.50904667" lon="1.54772833">
        <ele>1134.0</ele>
        <time>2019-08-04T06:28:27.767Z</time>
      </trkpt>
      <trkpt lat="42.50904667" lon="1.54772833">
        <ele>1134.0</ele>
        <time>2019-08-04T06:28:28.802Z</time>
      </trkpt>
      <trkpt lat="42.50909667" lon="1.54775">
        <ele>1135.0</ele>
        <time>2019-08-04T06:28:29.800Z</time>
      </trkpt>
      <trkpt lat="42.50909667" lon="1.54775">
        <ele>1135.0</ele>
        <time>2019-08-04T06:28:30.794Z</time>
      </trkpt>
      <trkpt lat="42.50914833" lon="1.54776833">
        <ele>1136.0</ele>
        <time>2019-08-04T06:28:31.775Z</time>
      </trkpt>
      <trkpt lat="42.50914833" lon="1.54776833">
        <ele>1136.0</ele>
        <time>2019-08-04T06:28:32.780Z</time>
      </trkpt>
      <trkpt lat="42.50919333" lon="1.54779">
        <ele>1137.0</ele>
        <time>2019-08-04T06:28:33.765Z</time>
      </trkpt>
      <trkpt lat="42.50921667" lon="1.54780333">
        <ele>1137.0</ele>
        <time>2019-08-04T06:28:34.765Z</time>
      </trkpt>
      <trkpt lat="42.50921667" lon="1.54780333">
        <ele>1137.0</ele>
        <time>2019-08-04T06:28:35.798Z</time>
      </trkpt>
      <trkpt lat="42.50926333" lon="1.54783">
        <ele>1138.0</ele>
        <time>2019-08-04T06:28:36.778Z</time>
      </trkpt>
      <trkpt lat="42.50928833" lon="1.54784">
        <ele>1138.0</ele>
        <time>2019-08-04T06:28:37.766Z</time>
      </trkpt>
      <trkpt lat="42.50931667" lon="1.54785">
        <ele>1139.0</ele>
        <time>2019-08-04T06:28:38.765Z</time>
      </trkpt>
      <trkpt lat="42.50931667" lon="1.54785">
        <ele>1139.0</ele>
        <time>2019-08-04T06:28:39.765Z</time>
      </trkpt>
      <trkpt lat="42.50937333" lon="1.54787167">
        <ele>1140.0</ele>
        <time>2019-08-04T06:28:40.790Z</time>
      </trkpt>
      <trkpt lat="42.50940167" lon="1.54788333">
        <ele>1140.0</ele>
        <time>2019-08-04T06:28:41.775Z</time>
      </trkpt>
      <trkpt lat="42.50943167" lon="1.547895">
        <ele>1141.0</ele>
        <time>2019-08-04T06:28:42.777Z</time>
      </trkpt>
      <trkpt lat="42.50943167" lon="1.547895">
        <ele>1141.0</ele>
        <time>2019-08-04T06:28:43.799Z</time>
      </trkpt>
      <trkpt lat="42.50948333" lon="1.54791667">
        <ele>1142.0</ele>
        <time>2019-08-04T06:28:44.778Z</time>
      </trkpt>
      <trkpt lat="42.50948333" lon="1.54791667">
        <ele>1142.0</ele>
        <time>2019-08-04T06:28:45.766Z</time>
      </trkpt>
      <trkpt lat="42.50953833" lon="1.547935">
        <ele>1143.0</ele>
        <time>2019-08-04T06:28:46.765Z</time>
      </trkpt>
      <trkpt lat="42.50953833" lon="1.547935">
        <ele>1143.0</ele>
        <time>2019-08-04T06:28:47.798Z</time>
      </trkpt>
      <trkpt lat="42.50958833" lon="1.54795333">
        <ele>1143.0</ele>
        <time>2019-08-04T06:28:48.777Z</time>
      </trkpt>
      <trkpt lat="42.50958833" lon="1.54795333">
        <ele>1143.0</ele>
        <time>2019-08-04T06:28:49.798Z</time>
      </trkpt>
      <trkpt lat="42.50965333" lon="1.54797333">
        <ele>1144.0</ele>
        <time>2019-08-04T06:28:50.787Z</time>
      </trkpt>
      <trkpt lat="42.50965333" lon="1.54797333">
        <ele>1144.0</ele>
        <time>2019-08-04T06:28:51.766Z</time>
      </trkpt>
      <trkpt lat="42.509705" lon="1.54801167">
        <ele>1145.0</ele>
        <time>2019-08-04T06:28:52.785Z</time>
      </trkpt>
      <trkpt lat="42.509705" lon="1.54801167">
        <ele>1145.0</ele>
        <time>2019-08-04T06:28:53.804Z</time>
      </trkpt>
      <trkpt lat="42.50976167" lon="1.54804333">
        <ele>1146.0</ele>
        <time>2019-08-04T06:28:54.765Z</time>
      </trkpt>
      <trkpt lat="42.50976167" lon="1.54804333">
        <ele>1146.0</ele>
        <time>2019-08-04T06:28:55.803Z</time>
      </trkpt>
      <trkpt lat="42.50982" lon="1.54810833">
        <ele>1147.0</ele>
        <time>2019-08-04T06:28:56.765Z</time>
      </trkpt>
      <trkpt lat="42.50982" lon="1.54810833">
        <ele>1147.0</ele>
        <time>2019-08-04T06:28:57.803Z</time>
      </trkpt>
      <trkpt lat="42.50986667" lon="1.54818167">
        <ele>1147.0</ele>
        <time>2019-08-04T06:28:58.765Z</time>
      </trkpt>
      <trkpt lat="42.50986667" lon="1.54818167">
        <ele>1147.0</ele>
        <time>2019-08-04T06:28:59.797Z</time>
      </trkpt>
      <trkpt lat="42.50993" lon="1.54824667">
        <ele>1149.0</ele>
        <time>2019-08-04T06:29:00.780Z</time>
      </trkpt>
      <trkpt lat="42.50993" lon="1.54824667">
        <ele>1149.0</ele>
        <time>2019-08-04T06:29:01.802Z</time>
      </trkpt>
      <trkpt lat="42.51001833" lon="1.548255">
        <ele>1151.0</ele>
        <time>2019-08-04T06:29:02.791Z</time>
      </trkpt>
      <trkpt lat="42.51001833" lon="1.548255">
        <ele>1151.0</ele>
        <time>2019-08-04T06:29:03.785Z</time>
      </trkpt>
      <trkpt lat="42.51014167" lon="1.54826167">
        <ele>1150.0</ele>
        <time>2019-08-04T06:29:04.765Z</time>
      </trkpt>
      <trkpt lat="42.51014167" lon="1.54826167">
        <ele>1150.0</ele>
        <time>2019-08-04T06:29:05.800Z</time>
      </trkpt>
      <trkpt lat="42.51029667" lon="1.54828833">
        <ele>1147.0</ele>
        <time>2019-08-04T06:29:06.767Z</time>
      </trkpt>
      <trkpt lat="42.51029667" lon="1.54828833">
        <ele>1147.0</ele>
        <time>2019-08-04T06:29:07.799Z</time>
      </trkpt>
      <trkpt lat="42.51046333" lon="1.54833167">
        <ele>1146.0</ele>
        <time>2019-08-04T06:29:08.779Z</time>
      </trkpt>
      <trkpt lat="42.51046333" lon="1.54833167">
        <ele>1146.0</ele>
        <time>2019-08-04T06:29:09.798Z</time>
      </trkpt>
      <trkpt lat="42.51069833" lon="1.54838833">
        <ele>1142.0</ele>
        <time>2019-08-04T06:29:10.781Z</time>
      </trkpt>
      <trkpt lat="42.51069833" lon="1.54838833">
        <ele>1142.0</ele>
        <time>2019-08-04T06:29:11.802Z</time>
      </trkpt>
      <trkpt lat="42.51091333" lon="1.54847167">
        <ele>1137.0</ele>
        <time>2019-08-04T06:29:12.783Z</time>
      </trkpt>
      <trkpt lat="42.51101833" lon="1.54852667">
        <ele>1135.0</ele>
        <time>2019-08-04T06:29:13.765Z</time>
      </trkpt>
      <trkpt lat="42.51101833" lon="1.54852667">
        <ele>1135.0</ele>
        <time>2019-08-04T06:29:14.799Z</time>
      </trkpt>
      <trkpt lat="42.51122167" lon="1.54868667">
        <ele>1132.0</ele>
        <time>2019-08-04T06:29:15.786Z</time>
      </trkpt>
      <trkpt lat="42.5113" lon="1.54881">
        <ele>1131.0</ele>
        <time>2019-08-04T06:29:16.766Z</time>
      </trkpt>
      <trkpt lat="42.5113" lon="1.54881">
        <ele>1131.0</ele>
        <time>2019-08-04T06:29:17.798Z</time>
      </trkpt>
      <trkpt lat="42.51141833" lon="1.54909667">
        <ele>1128.0</ele>
        <time>2019-08-04T06:29:18.777Z</time>
      </trkpt>
      <trkpt lat="42.51148333" lon="1.54923833">
        <ele>1127.0</ele>
        <time>2019-08-04T06:29:19.766Z</time>
      </trkpt>
      <trkpt lat="42.51148333" lon="1.54923833">
        <ele>1127.0</ele>
        <time>2019-08-04T06:29:20.770Z</time>
      </trkpt>
      <trkpt lat="42.51164" lon="1.54950667">
        <ele>1124.0</ele>
        <time>2019-08-04T06:29:21.804Z</time>
      </trkpt>
      <trkpt lat="42.51172833" lon="1.54963833">
        <ele>1123.0</ele>
        <time>2019-08-04T06:29:22.785Z</time>
      </trkpt>
      <trkpt lat="42.51172833" lon="1.54963833">
        <ele>1123.0</ele>
        <time>2019-08-04T06:29:23.765Z</time>
      </trkpt>
      <trkpt lat="42.51188" lon="1.54993667">
        <ele>1120.0</ele>
        <time>2019-08-04T06:29:24.765Z</time>
      </trkpt>
      <trkpt lat="42.51188" lon="1.54993667">
        <ele>1120.0</ele>
        <time>2019-08-04T06:29:25.799Z</time>
      </trkpt>
      <trkpt lat="42.512025" lon="1.550245">
        <ele>1118.0</ele>
        <time>2019-08-04T06:29:26.788Z</time>
      </trkpt>
      <trkpt lat="42.512025" lon="1.550245">
        <ele>1118.0</ele>
        <time>2019-08-04T06:29:27.767Z</time>
      </trkpt>
      <trkpt lat="42.51217333" lon="1.550545">
        <ele>1116.0</ele>
        <time>2019-08-04T06:29:28.765Z</time>
      </trkpt>
      <trkpt lat="42.51217333" lon="1.550545">
        <ele>1116.0</ele>
        <time>2019-08-04T06:29:29.780Z</time>
      </trkpt>
      <trkpt lat="42.51237667" lon="1.55077">
        <ele>1116.0</ele>
        <time>2019-08-04T06:29:30.770Z</time>
      </trkpt>
      <trkpt lat="42.51237667" lon="1.55077">
        <ele>1116.0</ele>
        <time>2019-08-04T06:29:31.770Z</time>
      </trkpt>
      <trkpt lat="42.51256" lon="1.55095">
        <ele>1115.0</ele>
        <time>2019-08-04T06:29:32.790Z</time>
      </trkpt>
      <trkpt lat="42.51256" lon="1.55095">
        <ele>1115.0</ele>
        <time>2019-08-04T06:29:33.773Z</time>
      </trkpt>
      <trkpt lat="42.51271667" lon="1.551115">
        <ele>1115.0</ele>
        <time>2019-08-04T06:29:34.768Z</time>
      </trkpt>
      <trkpt lat="42.51271667" lon="1.551115">
        <ele>1115.0</ele>
        <time>2019-08-04T06:29:35.798Z</time>
      </trkpt>
      <trkpt lat="42.51285667" lon="1.551255">
        <ele>1115.0</ele>
        <time>2019-08-04T06:29:36.777Z</time>
      </trkpt>
      <trkpt lat="42.51285667" lon="1.551255">
        <ele>1115.0</ele>
        <time>2019-08-04T06:29:37.770Z</time>
      </trkpt>
      <trkpt lat="42.512965" lon="1.551395">
        <ele>1115.0</ele>
        <time>2019-08-04T06:29:38.765Z</time>
      </trkpt>
      <trkpt lat="42.512965" lon="1.551395">
        <ele>1115.0</ele>
        <time>2019-08-04T06:29:39.803Z</time>
      </trkpt>
      <trkpt lat="42.51305167" lon="1.55153833">
        <ele>1115.0</ele>
        <time>2019-08-04T06:29:40.772Z</time>
      </trkpt>
      <trkpt lat="42.51305167" lon="1.55153833">
        <ele>1115.0</ele>
        <time>2019-08-04T06:29:41.799Z</time>
      </trkpt>
      <trkpt lat="42.51311167" lon="1.55166833">
        <ele>1115.0</ele>
        <time>2019-08-04T06:29:42.792Z</time>
      </trkpt>
      <trkpt lat="42.51311167" lon="1.55166833">
        <ele>1115.0</ele>
        <time>2019-08-04T06:29:43.784Z</time>
      </trkpt>
      <trkpt lat="42.51315667" lon="1.55179833">
        <ele>1116.0</ele>
        <time>2019-08-04T06:29:44.788Z</time>
      </trkpt>
      <trkpt lat="42.51315667" lon="1.55179833">
        <ele>1116.0</ele>
        <time>2019-08-04T06:29:45.767Z</time>
      </trkpt>
      <trkpt lat="42.51319" lon="1.55192">
        <ele>1116.0</ele>
        <time>2019-08-04T06:29:46.765Z</time>
      </trkpt>
      <trkpt lat="42.51319" lon="1.55192">
        <ele>1116.0</ele>
        <time>2019-08-04T06:29:47.798Z</time>
      </trkpt>
      <trkpt lat="42.5132" lon="1.55202167">
        <ele>1116.0</ele>
        <time>2019-08-04T06:29:48.777Z</time>
      </trkpt>
      <trkpt lat="42.5132" lon="1.55202167">
        <ele>1116.0</ele>
        <time>2019-08-04T06:29:49.800Z</time>
      </trkpt>
      <trkpt lat="42.51321667" lon="1.55211333">
        <ele>1116.0</ele>
        <time>2019-08-04T06:29:50.789Z</time>
      </trkpt>
      <trkpt lat="42.51321667" lon="1.55211333">
        <ele>1116.0</ele>
        <time>2019-08-04T06:29:51.798Z</time>
      </trkpt>
      <trkpt lat="42.51324333" lon="1.552205">
        <ele>1117.0</ele>
        <time>2019-08-04T06:29:52.788Z</time>
      </trkpt>
      <trkpt lat="42.51324333" lon="1.552205">
        <ele>1117.0</ele>
        <time>2019-08-04T06:29:53.766Z</time>
      </trkpt>
      <trkpt lat="42.51326833" lon="1.552285">
        <ele>1117.0</ele>
        <time>2019-08-04T06:29:54.765Z</time>
      </trkpt>
      <trkpt lat="42.51326833" lon="1.552285">
        <ele>1117.0</ele>
        <time>2019-08-04T06:29:55.766Z</time>
      </trkpt>
      <trkpt lat="42.51328333" lon="1.55236">
        <ele>1117.0</ele>
        <time>2019-08-04T06:29:56.804Z</time>
      </trkpt>
      <trkpt lat="42.51328333" lon="1.55236">
        <ele>1117.0</ele>
        <time>2019-08-04T06:29:57.802Z</time>
      </trkpt>
      <trkpt lat="42.51330667" lon="1.55244">
        <ele>1117.0</ele>
        <time>2019-08-04T06:29:58.766Z</time>
      </trkpt>
      <trkpt lat="42.51330667" lon="1.55244">
        <ele>1117.0</ele>
        <time>2019-08-04T06:29:59.798Z</time>
      </trkpt>
      <trkpt lat="42.51334167" lon="1.552515">
        <ele>1118.0</ele>
        <time>2019-08-04T06:30:00.788Z</time>
      </trkpt>
      <trkpt lat="42.51335667" lon="1.55254833">
        <ele>1118.0</ele>
        <time>2019-08-04T06:30:01.775Z</time>
      </trkpt>
      <trkpt lat="42.51340333" lon="1.5526">
        <ele>1118.0</ele>
        <time>2019-08-04T06:30:02.791Z</time>
      </trkpt>
      <trkpt lat="42.51340333" lon="1.5526">
        <ele>1118.0</ele>
        <time>2019-08-04T06:30:03.773Z</time>
      </trkpt>
      <trkpt lat="42.513505" lon="1.55269167">
        <ele>1120.0</ele>
        <time>2019-08-04T06:30:04.766Z</time>
      </trkpt>
      <trkpt lat="42.513505" lon="1.55269167">
        <ele>1120.0</ele>
        <time>2019-08-04T06:30:05.798Z</time>
      </trkpt>
      <trkpt lat="42.51358833" lon="1.55276333">
        <ele>1121.0</ele>
        <time>2019-08-04T06:30:06.765Z</time>
      </trkpt>
      <trkpt lat="42.51358833" lon="1.55276333">
        <ele>1121.0</ele>
        <time>2019-08-04T06:30:07.798Z</time>
      </trkpt>
      <trkpt lat="42.51365833" lon="1.55282833">
        <ele>1122.0</ele>
        <time>2019-08-04T06:30:08.778Z</time>
      </trkpt>
      <trkpt lat="42.51365833" lon="1.55282833">
        <ele>1122.0</ele>
        <time>2019-08-04T06:30:09.798Z</time>
      </trkpt>
      <trkpt lat="42.51372833" lon="1.55288667">
        <ele>1123.0</ele>
        <time>2019-08-04T06:30:10.778Z</time>
      </trkpt>
      <trkpt lat="42.51372833" lon="1.55288667">
        <ele>1123.0</ele>
        <time>2019-08-04T06:30:11.767Z</time>
      </trkpt>
      <trkpt lat="42.51380833" lon="1.55294167">
        <ele>1123.0</ele>
        <time>2019-08-04T06:30:12.785Z</time>
      </trkpt>
      <trkpt lat="42.51380833" lon="1.55294167">
        <ele>1123.0</ele>
        <time>2019-08-04T06:30:13.804Z</time>
      </trkpt>
      <trkpt lat="42.51388833" lon="1.55298">
        <ele>1124.0</ele>
        <time>2019-08-04T06:30:14.765Z</time>
      </trkpt>
      <trkpt lat="42.51388833" lon="1.55298">
        <ele>1124.0</ele>
        <time>2019-08-04T06:30:15.797Z</time>
      </trkpt>
      <trkpt lat="42.513965" lon="1.55302833">
        <ele>1125.0</ele>
        <time>2019-08-04T06:30:16.776Z</time>
      </trkpt>
      <trkpt lat="42.513965" lon="1.55302833">
        <ele>1125.0</ele>
        <time>2019-08-04T06:30:17.799Z</time>
      </trkpt>
      <trkpt lat="42.51404" lon="1.55307667">
        <ele>1126.0</ele>
        <time>2019-08-04T06:30:18.778Z</time>
      </trkpt>
      <trkpt lat="42.514075" lon="1.55310167">
        <ele>1126.0</ele>
        <time>2019-08-04T06:30:19.766Z</time>
      </trkpt>
      <trkpt lat="42.5141" lon="1.55312833">
        <ele>1127.0</ele>
        <time>2019-08-04T06:30:20.769Z</time>
      </trkpt>
      <trkpt lat="42.5141" lon="1.55312833">
        <ele>1127.0</ele>
        <time>2019-08-04T06:30:21.794Z</time>
      </trkpt>
      <trkpt lat="42.514165" lon="1.553175">
        <ele>1128.0</ele>
        <time>2019-08-04T06:30:22.790Z</time>
      </trkpt>
      <trkpt lat="42.514165" lon="1.553175">
        <ele>1128.0</ele>
        <time>2019-08-04T06:30:23.768Z</time>
      </trkpt>
      <trkpt lat="42.51421333" lon="1.55323">
        <ele>1128.0</ele>
        <time>2019-08-04T06:30:24.804Z</time>
      </trkpt>
      <trkpt lat="42.51423667" lon="1.55326">
        <ele>1129.0</ele>
        <time>2019-08-04T06:30:25.765Z</time>
      </trkpt>
      <trkpt lat="42.51423667" lon="1.55326">
        <ele>1129.0</ele>
        <time>2019-08-04T06:30:26.800Z</time>
      </trkpt>
      <trkpt lat="42.514285" lon="1.55331167">
        <ele>1130.0</ele>
        <time>2019-08-04T06:30:27.778Z</time>
      </trkpt>
      <trkpt lat="42.514305" lon="1.55334">
        <ele>1131.0</ele>
        <time>2019-08-04T06:30:28.765Z</time>
      </trkpt>
      <trkpt lat="42.514305" lon="1.55334">
        <ele>1131.0</ele>
        <time>2019-08-04T06:30:29.798Z</time>
      </trkpt>
      <trkpt lat="42.51436" lon="1.55339167">
        <ele>1132.0</ele>
        <time>2019-08-04T06:30:30.775Z</time>
      </trkpt>
      <trkpt lat="42.51436" lon="1.55339167">
        <ele>1132.0</ele>
        <time>2019-08-04T06:30:31.768Z</time>
      </trkpt>
      <trkpt lat="42.51441167" lon="1.55343167">
        <ele>1134.0</ele>
        <time>2019-08-04T06:30:32.785Z</time>
      </trkpt>
      <trkpt lat="42.51441167" lon="1.55343167">
        <ele>1134.0</ele>
        <time>2019-08-04T06:30:33.765Z</time>
      </trkpt>
      <trkpt lat="42.51445833" lon="1.553475">
        <ele>1135.0</ele>
        <time>2019-08-04T06:30:34.766Z</time>
      </trkpt>
      <trkpt lat="42.51445833" lon="1.553475">
        <ele>1135.0</ele>
        <time>2019-08-04T06:30:35.802Z</time>
      </trkpt>
      <trkpt lat="42.51452667" lon="1.55350333">
        <ele>1136.0</ele>
        <time>2019-08-04T06:30:36.804Z</time>
      </trkpt>
      <trkpt lat="42.51452667" lon="1.55350333">
        <ele>1136.0</ele>
        <time>2019-08-04T06:30:37.796Z</time>
      </trkpt>
      <trkpt lat="42.51458833" lon="1.553525">
        <ele>1137.0</ele>
        <time>2019-08-04T06:30:38.776Z</time>
      </trkpt>
      <trkpt lat="42.51458833" lon="1.553525">
        <ele>1137.0</ele>
        <time>2019-08-04T06:30:39.799Z</time>
      </trkpt>
      <trkpt lat="42.514655" lon="1.55355333">
        <ele>1138.0</ele>
        <time>2019-08-04T06:30:40.778Z</time>
      </trkpt>
      <trkpt lat="42.514655" lon="1.55355333">
        <ele>1138.0</ele>
        <time>2019-08-04T06:30:41.799Z</time>
      </trkpt>
      <trkpt lat="42.514705" lon="1.55357167">
        <ele>1139.0</ele>
        <time>2019-08-04T06:30:42.784Z</time>
      </trkpt>
      <trkpt lat="42.514705" lon="1.55357167">
        <ele>1139.0</ele>
        <time>2019-08-04T06:30:43.803Z</time>
      </trkpt>
      <trkpt lat="42.51475333" lon="1.55358167">
        <ele>1140.0</ele>
        <time>2019-08-04T06:30:44.775Z</time>
      </trkpt>
      <trkpt lat="42.51475333" lon="1.55358167">
        <ele>1140.0</ele>
        <time>2019-08-04T06:30:45.765Z</time>
      </trkpt>
      <trkpt lat="42.51479333" lon="1.55359">
        <ele>1140.0</ele>
        <time>2019-08-04T06:30:46.766Z</time>
      </trkpt>
      <trkpt lat="42.51479333" lon="1.55359">
        <ele>1140.0</ele>
        <time>2019-08-04T06:30:47.777Z</time>
      </trkpt>
      <trkpt lat="42.514825" lon="1.55361">
        <ele>1141.0</ele>
        <time>2019-08-04T06:30:48.766Z</time>
      </trkpt>
      <trkpt lat="42.51486" lon="1.55362">
        <ele>1142.0</ele>
        <time>2019-08-04T06:30:49.766Z</time>
      </trkpt>
      <trkpt lat="42.51488333" lon="1.55363">
        <ele>1142.0</ele>
        <time>2019-08-04T06:30:50.804Z</time>
      </trkpt>
      <trkpt lat="42.51488333" lon="1.55363">
        <ele>1142.0</ele>
        <time>2019-08-04T06:30:51.800Z</time>
      </trkpt>
      <trkpt lat="42.51492833" lon="1.55366167">
        <ele>1143.0</ele>
        <time>2019-08-04T06:30:52.783Z</time>
      </trkpt>
      <trkpt lat="42.51492833" lon="1.55366167">
        <ele>1143.0</ele>
        <time>2019-08-04T06:30:53.804Z</time>
      </trkpt>
      <trkpt lat="42.51497333" lon="1.553685">
        <ele>1144.0</ele>
        <time>2019-08-04T06:30:54.765Z</time>
      </trkpt>
      <trkpt lat="42.51498667" lon="1.55370667">
        <ele>1144.0</ele>
        <time>2019-08-04T06:30:55.786Z</time>
      </trkpt>
      <trkpt lat="42.51504833" lon="1.553755">
        <ele>1145.0</ele>
        <time>2019-08-04T06:30:56.767Z</time>
      </trkpt>
      <trkpt lat="42.51504833" lon="1.553755">
        <ele>1145.0</ele>
        <time>2019-08-04T06:30:57.798Z</time>
      </trkpt>
      <trkpt lat="42.515125" lon="1.55382">
        <ele>1146.0</ele>
        <time>2019-08-04T06:30:58.777Z</time>
      </trkpt>
      <trkpt lat="42.515125" lon="1.55382">
        <ele>1146.0</ele>
        <time>2019-08-04T06:30:59.799Z</time>
      </trkpt>
      <trkpt lat="42.51519" lon="1.55389167">
        <ele>1148.0</ele>
        <time>2019-08-04T06:31:00.779Z</time>
      </trkpt>
      <trkpt lat="42.51519" lon="1.55389167">
        <ele>1148.0</ele>
        <time>2019-08-04T06:31:01.767Z</time>
      </trkpt>
      <trkpt lat="42.51525667" lon="1.553945">
        <ele>1149.0</ele>
        <time>2019-08-04T06:31:02.793Z</time>
      </trkpt>
      <trkpt lat="42.51525667" lon="1.553945">
        <ele>1149.0</ele>
        <time>2019-08-04T06:31:03.774Z</time>
      </trkpt>
      <trkpt lat="42.51532" lon="1.55399833">
        <ele>1150.0</ele>
        <time>2019-08-04T06:31:04.766Z</time>
      </trkpt>
      <trkpt lat="42.51532" lon="1.55399833">
        <ele>1150.0</ele>
        <time>2019-08-04T06:31:05.803Z</time>
      </trkpt>
      <trkpt lat="42.51539" lon="1.55404">
        <ele>1151.0</ele>
        <time>2019-08-04T06:31:06.775Z</time>
      </trkpt>
      <trkpt lat="42.51539" lon="1.55404">
        <ele>1151.0</ele>
        <time>2019-08-04T06:31:07.799Z</time>
      </trkpt>
      <trkpt lat="42.51546167" lon="1.554075">
        <ele>1152.0</ele>
        <time>2019-08-04T06:31:08.778Z</time>
      </trkpt>
      <trkpt lat="42.51546167" lon="1.554075">
        <ele>1152.0</ele>
        <time>2019-08-04T06:31:09.799Z</time>
      </trkpt>
      <trkpt lat="42.51554667" lon="1.55410667">
        <ele>1153.0</ele>
        <time>2019-08-04T06:31:10.779Z</time>
      </trkpt>
      <trkpt lat="42.51554667" lon="1.55410667">
        <ele>1153.0</ele>
        <time>2019-08-04T06:31:11.770Z</time>
      </trkpt>
      <trkpt lat="42.51561833" lon="1.55413167">
        <ele>1153.0</ele>
        <time>2019-08-04T06:31:12.784Z</time>
      </trkpt>
      <trkpt lat="42.51561833" lon="1.55413167">
        <ele>1153.0</ele>
        <time>2019-08-04T06:31:13.803Z</time>
      </trkpt>
      <trkpt lat="42.51568833" lon="1.554155">
        <ele>1154.0</ele>
        <time>2019-08-04T06:31:14.767Z</time>
      </trkpt>
      <trkpt lat="42.51568833" lon="1.554155">
        <ele>1154.0</ele>
        <time>2019-08-04T06:31:15.802Z</time>
      </trkpt>
      <trkpt lat="42.51577" lon="1.55415833">
        <ele>1155.0</ele>
        <time>2019-08-04T06:31:16.765Z</time>
      </trkpt>
      <trkpt lat="42.51577" lon="1.55415833">
        <ele>1155.0</ele>
        <time>2019-08-04T06:31:17.774Z</time>
      </trkpt>
      <trkpt lat="42.51584833" lon="1.55416">
        <ele>1156.0</ele>
        <time>2019-08-04T06:31:18.767Z</time>
      </trkpt>
      <trkpt lat="42.51588667" lon="1.55416333">
        <ele>1156.0</ele>
        <time>2019-08-04T06:31:19.765Z</time>
      </trkpt>
      <trkpt lat="42.51588667" lon="1.55416333">
        <ele>1156.0</ele>
        <time>2019-08-04T06:31:20.800Z</time>
      </trkpt>
      <trkpt lat="42.51595667" lon="1.55416667">
        <ele>1157.0</ele>
        <time>2019-08-04T06:31:21.780Z</time>
      </trkpt>
      <trkpt lat="42.51595667" lon="1.55416667">
        <ele>1157.0</ele>
        <time>2019-08-04T06:31:22.778Z</time>
      </trkpt>
      <trkpt lat="42.51603" lon="1.55416167">
        <ele>1158.0</ele>
        <time>2019-08-04T06:31:23.767Z</time>
      </trkpt>
      <trkpt lat="42.51603" lon="1.55416167">
        <ele>1158.0</ele>
        <time>2019-08-04T06:31:24.802Z</time>
      </trkpt>
      <trkpt lat="42.51609167" lon="1.55414333">
        <ele>1159.0</ele>
        <time>2019-08-04T06:31:25.765Z</time>
      </trkpt>
      <trkpt lat="42.51612167" lon="1.55413167">
        <ele>1160.0</ele>
        <time>2019-08-04T06:31:26.766Z</time>
      </trkpt>
      <trkpt lat="42.51612167" lon="1.55413167">
        <ele>1160.0</ele>
        <time>2019-08-04T06:31:27.804Z</time>
      </trkpt>
      <trkpt lat="42.51617833" lon="1.554095">
        <ele>1163.0</ele>
        <time>2019-08-04T06:31:28.772Z</time>
      </trkpt>
      <trkpt lat="42.51617833" lon="1.554095">
        <ele>1163.0</ele>
        <time>2019-08-04T06:31:29.770Z</time>
      </trkpt>
      <trkpt lat="42.516235" lon="1.55406333">
        <ele>1165.0</ele>
        <time>2019-08-04T06:31:30.769Z</time>
      </trkpt>
      <trkpt lat="42.516235" lon="1.55406333">
        <ele>1165.0</ele>
        <time>2019-08-04T06:31:31.801Z</time>
      </trkpt>
      <trkpt lat="42.51629167" lon="1.55403333">
        <ele>1166.0</ele>
        <time>2019-08-04T06:31:32.791Z</time>
      </trkpt>
      <trkpt lat="42.51629167" lon="1.55403333">
        <ele>1166.0</ele>
        <time>2019-08-04T06:31:33.774Z</time>
      </trkpt>
      <trkpt lat="42.51634833" lon="1.55400167">
        <ele>1168.0</ele>
        <time>2019-08-04T06:31:34.772Z</time>
      </trkpt>
      <trkpt lat="42.51634833" lon="1.55400167">
        <ele>1168.0</ele>
        <time>2019-08-04T06:31:35.800Z</time>
      </trkpt>
      <trkpt lat="42.51640167" lon="1.55397667">
        <ele>1169.0</ele>
        <time>2019-08-04T06:31:36.779Z</time>
      </trkpt>
      <trkpt lat="42.51643" lon="1.55396167">
        <ele>1170.0</ele>
        <time>2019-08-04T06:31:37.766Z</time>
      </trkpt>
      <trkpt lat="42.51645667" lon="1.55394833">
        <ele>1170.0</ele>
        <time>2019-08-04T06:31:38.768Z</time>
      </trkpt>
      <trkpt lat="42.51645667" lon="1.55394833">
        <ele>1170.0</ele>
        <time>2019-08-04T06:31:39.800Z</time>
      </trkpt>
      <trkpt lat="42.51651" lon="1.55392167">
        <ele>1172.0</ele>
        <time>2019-08-04T06:31:40.779Z</time>
      </trkpt>
      <trkpt lat="42.51651" lon="1.55392167">
        <ele>1172.0</ele>
        <time>2019-08-04T06:31:41.766Z</time>
      </trkpt>
      <trkpt lat="42.51655833" lon="1.55389833">
        <ele>1173.0</ele>
        <time>2019-08-04T06:31:42.789Z</time>
      </trkpt>
      <trkpt lat="42.51655833" lon="1.55389833">
        <ele>1173.0</ele>
        <time>2019-08-04T06:31:43.767Z</time>
      </trkpt>
      <trkpt lat="42.51661" lon="1.55387833">
        <ele>1174.0</ele>
        <time>2019-08-04T06:31:44.766Z</time>
      </trkpt>
      <trkpt lat="42.51661" lon="1.55387833">
        <ele>1174.0</ele>
        <time>2019-08-04T06:31:45.804Z</time>
      </trkpt>
      <trkpt lat="42.51667167" lon="1.55386667">
        <ele>1174.0</ele>
        <time>2019-08-04T06:31:46.767Z</time>
      </trkpt>
      <trkpt lat="42.51667167" lon="1.55386667">
        <ele>1174.0</ele>
        <time>2019-08-04T06:31:47.770Z</time>
      </trkpt>
      <trkpt lat="42.51672" lon="1.55387">
        <ele>1175.0</ele>
        <time>2019-08-04T06:31:48.766Z</time>
      </trkpt>
      <trkpt lat="42.51674833" lon="1.55387333">
        <ele>1175.0</ele>
        <time>2019-08-04T06:31:49.767Z</time>
      </trkpt>
      <trkpt lat="42.51674833" lon="1.55387333">
        <ele>1175.0</ele>
        <time>2019-08-04T06:31:50.774Z</time>
      </trkpt>
      <trkpt lat="42.51681167" lon="1.55388833">
        <ele>1175.0</ele>
        <time>2019-08-04T06:31:51.765Z</time>
      </trkpt>
      <trkpt lat="42.51683667" lon="1.5539">
        <ele>1174.0</ele>
        <time>2019-08-04T06:31:52.793Z</time>
      </trkpt>
      <trkpt lat="42.51683667" lon="1.5539">
        <ele>1174.0</ele>
        <time>2019-08-04T06:31:53.784Z</time>
      </trkpt>
      <trkpt lat="42.51689167" lon="1.55393167">
        <ele>1174.0</ele>
        <time>2019-08-04T06:31:54.769Z</time>
      </trkpt>
      <trkpt lat="42.51689167" lon="1.55393167">
        <ele>1174.0</ele>
        <time>2019-08-04T06:31:55.803Z</time>
      </trkpt>
      <trkpt lat="42.51693833" lon="1.553975">
        <ele>1174.0</ele>
        <time>2019-08-04T06:31:56.766Z</time>
      </trkpt>
      <trkpt lat="42.51693833" lon="1.553975">
        <ele>1174.0</ele>
        <time>2019-08-04T06:31:57.765Z</time>
      </trkpt>
      <trkpt lat="42.51701333" lon="1.554035">
        <ele>1172.0</ele>
        <time>2019-08-04T06:31:58.767Z</time>
      </trkpt>
      <trkpt lat="42.51701333" lon="1.554035">
        <ele>1172.0</ele>
        <time>2019-08-04T06:31:59.797Z</time>
      </trkpt>
      <trkpt lat="42.51709167" lon="1.55409333">
        <ele>1170.0</ele>
        <time>2019-08-04T06:32:00.779Z</time>
      </trkpt>
      <trkpt lat="42.51709167" lon="1.55409333">
        <ele>1170.0</ele>
        <time>2019-08-04T06:32:01.804Z</time>
      </trkpt>
      <trkpt lat="42.51714167" lon="1.55413833">
        <ele>1170.0</ele>
        <time>2019-08-04T06:32:02.790Z</time>
      </trkpt>
      <trkpt lat="42.51716833" lon="1.55416667">
        <ele>1170.0</ele>
        <time>2019-08-04T06:32:03.770Z</time>
      </trkpt>
      <trkpt lat="42.51720333" lon="1.55419333">
        <ele>1170.0</ele>
        <time>2019-08-04T06:32:04.767Z</time>
      </trkpt>
      <trkpt lat="42.51720333" lon="1.55419333">
        <ele>1170.0</ele>
        <time>2019-08-04T06:32:05.786Z</time>
      </trkpt>
      <trkpt lat="42.51725833" lon="1.55424333">
        <ele>1170.0</ele>
        <time>2019-08-04T06:32:06.766Z</time>
      </trkpt>
      <trkpt lat="42.51725833" lon="1.55424333">
        <ele>1170.0</ele>
        <time>2019-08-04T06:32:07.797Z</time>
      </trkpt>
      <trkpt lat="42.51732" lon="1.55429833">
        <ele>1169.0</ele>
        <time>2019-08-04T06:32:08.778Z</time>
      </trkpt>
      <trkpt lat="42.51732" lon="1.55429833">
        <ele>1169.0</ele>
        <time>2019-08-04T06:32:09.800Z</time>
      </trkpt>
      <trkpt lat="42.51736167" lon="1.554355">
        <ele>1169.0</ele>
        <time>2019-08-04T06:32:10.779Z</time>
      </trkpt>
      <trkpt lat="42.51736167" lon="1.554355">
        <ele>1169.0</ele>
        <time>2019-08-04T06:32:11.800Z</time>
      </trkpt>
      <trkpt lat="42.51740833" lon="1.55441167">
        <ele>1169.0</ele>
        <time>2019-08-04T06:32:12.779Z</time>
      </trkpt>
      <trkpt lat="42.51740833" lon="1.55441167">
        <ele>1169.0</ele>
        <time>2019-08-04T06:32:13.802Z</time>
      </trkpt>
      <trkpt lat="42.51745667" lon="1.55446333">
        <ele>1170.0</ele>
        <time>2019-08-04T06:32:14.782Z</time>
      </trkpt>
      <trkpt lat="42.51745667" lon="1.55446333">
        <ele>1170.0</ele>
        <time>2019-08-04T06:32:15.804Z</time>
      </trkpt>
      <trkpt lat="42.51750667" lon="1.55452">
        <ele>1169.0</ele>
        <time>2019-08-04T06:32:16.766Z</time>
      </trkpt>
      <trkpt lat="42.51750667" lon="1.55452">
        <ele>1169.0</ele>
        <time>2019-08-04T06:32:17.767Z</time>
      </trkpt>
      <trkpt lat="42.517555" lon="1.55457333">
        <ele>1170.0</ele>
        <time>2019-08-04T06:32:18.767Z</time>
      </trkpt>
      <trkpt lat="42.517555" lon="1.55457333">
        <ele>1170.0</ele>
        <time>2019-08-04T06:32:19.804Z</time>
      </trkpt>
      <trkpt lat="42.51759167" lon="1.55463667">
        <ele>1170.0</ele>
        <time>2019-08-04T06:32:20.766Z</time>
      </trkpt>
      <trkpt lat="42.51759167" lon="1.55463667">
        <ele>1170.0</ele>
        <time>2019-08-04T06:32:21.800Z</time>
      </trkpt>
      <trkpt lat="42.51763167" lon="1.55469667">
        <ele>1170.0</ele>
        <time>2019-08-04T06:32:22.767Z</time>
      </trkpt>
      <trkpt lat="42.51765167" lon="1.55472833">
        <ele>1170.0</ele>
        <time>2019-08-04T06:32:23.766Z</time>
      </trkpt>
      <trkpt lat="42.51765167" lon="1.55472833">
        <ele>1170.0</ele>
        <time>2019-08-04T06:32:24.804Z</time>
      </trkpt>
      <trkpt lat="42.51769" lon="1.55478667">
        <ele>1170.0</ele>
        <time>2019-08-04T06:32:25.765Z</time>
      </trkpt>
      <trkpt lat="42.51770667" lon="1.554815">
        <ele>1171.0</ele>
        <time>2019-08-04T06:32:26.768Z</time>
      </trkpt>
      <trkpt lat="42.51770667" lon="1.554815">
        <ele>1171.0</ele>
        <time>2019-08-04T06:32:27.797Z</time>
      </trkpt>
      <trkpt lat="42.51774333" lon="1.55488167">
        <ele>1171.0</ele>
        <time>2019-08-04T06:32:28.776Z</time>
      </trkpt>
      <trkpt lat="42.51774333" lon="1.55488167">
        <ele>1171.0</ele>
        <time>2019-08-04T06:32:29.803Z</time>
      </trkpt>
      <trkpt lat="42.51777833" lon="1.55496167">
        <ele>1171.0</ele>
        <time>2019-08-04T06:32:30.805Z</time>
      </trkpt>
      <trkpt lat="42.51777833" lon="1.55496167">
        <ele>1171.0</ele>
        <time>2019-08-04T06:32:31.800Z</time>
      </trkpt>
      <trkpt lat="42.51779667" lon="1.55506167">
        <ele>1171.0</ele>
        <time>2019-08-04T06:32:32.796Z</time>
      </trkpt>
      <trkpt lat="42.51779667" lon="1.55506167">
        <ele>1171.0</ele>
        <time>2019-08-04T06:32:33.776Z</time>
      </trkpt>
      <trkpt lat="42.51779" lon="1.55518">
        <ele>1171.0</ele>
        <time>2019-08-04T06:32:34.770Z</time>
      </trkpt>
      <trkpt lat="42.51779" lon="1.55518">
        <ele>1171.0</ele>
        <time>2019-08-04T06:32:35.804Z</time>
      </trkpt>
      <trkpt lat="42.51777833" lon="1.55530167">
        <ele>1171.0</ele>
        <time>2019-08-04T06:32:36.767Z</time>
      </trkpt>
      <trkpt lat="42.51777833" lon="1.55536167">
        <ele>1171.0</ele>
        <time>2019-08-04T06:32:37.766Z</time>
      </trkpt>
      <trkpt lat="42.51777833" lon="1.55536167">
        <ele>1171.0</ele>
        <time>2019-08-04T06:32:38.804Z</time>
      </trkpt>
      <trkpt lat="42.51779833" lon="1.55548167">
        <ele>1171.0</ele>
        <time>2019-08-04T06:32:39.766Z</time>
      </trkpt>
      <trkpt lat="42.51782167" lon="1.55553333">
        <ele>1171.0</ele>
        <time>2019-08-04T06:32:40.804Z</time>
      </trkpt>
      <trkpt lat="42.51782167" lon="1.55553333">
        <ele>1171.0</ele>
        <time>2019-08-04T06:32:41.800Z</time>
      </trkpt>
      <trkpt lat="42.51788" lon="1.55562833">
        <ele>1171.0</ele>
        <time>2019-08-04T06:32:42.781Z</time>
      </trkpt>
      <trkpt lat="42.51788" lon="1.55562833">
        <ele>1171.0</ele>
        <time>2019-08-04T06:32:43.800Z</time>
      </trkpt>
      <trkpt lat="42.51796" lon="1.55567833">
        <ele>1171.0</ele>
        <time>2019-08-04T06:32:44.779Z</time>
      </trkpt>
      <trkpt lat="42.51796" lon="1.55567833">
        <ele>1171.0</ele>
        <time>2019-08-04T06:32:45.801Z</time>
      </trkpt>
      <trkpt lat="42.51805167" lon="1.55569667">
        <ele>1171.0</ele>
        <time>2019-08-04T06:32:46.780Z</time>
      </trkpt>
      <trkpt lat="42.51805167" lon="1.55569667">
        <ele>1171.0</ele>
        <time>2019-08-04T06:32:47.803Z</time>
      </trkpt>
      <trkpt lat="42.51813333" lon="1.55572">
        <ele>1172.0</ele>
        <time>2019-08-04T06:32:48.766Z</time>
      </trkpt>
      <trkpt lat="42.51813333" lon="1.55572">
        <ele>1172.0</ele>
        <time>2019-08-04T06:32:49.797Z</time>
      </trkpt>
      <trkpt lat="42.51820667" lon="1.55577167">
        <ele>1172.0</ele>
        <time>2019-08-04T06:32:50.777Z</time>
      </trkpt>
      <trkpt lat="42.51820667" lon="1.55577167">
        <ele>1172.0</ele>
        <time>2019-08-04T06:32:51.804Z</time>
      </trkpt>
      <trkpt lat="42.51828" lon="1.55586167">
        <ele>1172.0</ele>
        <time>2019-08-04T06:32:52.787Z</time>
      </trkpt>
      <trkpt lat="42.51828" lon="1.55586167">
        <ele>1172.0</ele>
        <time>2019-08-04T06:32:53.765Z</time>
      </trkpt>
      <trkpt lat="42.51836333" lon="1.55598333">
        <ele>1172.0</ele>
        <time>2019-08-04T06:32:54.767Z</time>
      </trkpt>
      <trkpt lat="42.51836333" lon="1.55598333">
        <ele>1172.0</ele>
        <time>2019-08-04T06:32:55.804Z</time>
      </trkpt>
      <trkpt lat="42.518475" lon="1.55612833">
        <ele>1171.0</ele>
        <time>2019-08-04T06:32:56.768Z</time>
      </trkpt>
      <trkpt lat="42.518475" lon="1.55612833">
        <ele>1171.0</ele>
        <time>2019-08-04T06:32:57.803Z</time>
      </trkpt>
      <trkpt lat="42.51860333" lon="1.556285">
        <ele>1171.0</ele>
        <time>2019-08-04T06:32:58.767Z</time>
      </trkpt>
      <trkpt lat="42.51860333" lon="1.556285">
        <ele>1171.0</ele>
        <time>2019-08-04T06:32:59.800Z</time>
      </trkpt>
      <trkpt lat="42.51874833" lon="1.55642">
        <ele>1171.0</ele>
        <time>2019-08-04T06:33:00.785Z</time>
      </trkpt>
      <trkpt lat="42.51882167" lon="1.556475">
        <ele>1171.0</ele>
        <time>2019-08-04T06:33:01.765Z</time>
      </trkpt>
      <trkpt lat="42.51889833" lon="1.55652">
        <ele>1171.0</ele>
        <time>2019-08-04T06:33:02.792Z</time>
      </trkpt>
      <trkpt lat="42.51889833" lon="1.55652">
        <ele>1171.0</ele>
        <time>2019-08-04T06:33:03.774Z</time>
      </trkpt>
      <trkpt lat="42.51904" lon="1.55659167">
        <ele>1171.0</ele>
        <time>2019-08-04T06:33:04.765Z</time>
      </trkpt>
      <trkpt lat="42.51910167" lon="1.55663">
        <ele>1171.0</ele>
        <time>2019-08-04T06:33:05.770Z</time>
      </trkpt>
      <trkpt lat="42.51910167" lon="1.55663">
        <ele>1171.0</ele>
        <time>2019-08-04T06:33:06.779Z</time>
      </trkpt>
      <trkpt lat="42.51922" lon="1.55670833">
        <ele>1171.0</ele>
        <time>2019-08-04T06:33:07.766Z</time>
      </trkpt>
      <trkpt lat="42.51922" lon="1.55670833">
        <ele>1171.0</ele>
        <time>2019-08-04T06:33:08.804Z</time>
      </trkpt>
      <trkpt lat="42.51933667" lon="1.556775">
        <ele>1172.0</ele>
        <time>2019-08-04T06:33:09.805Z</time>
      </trkpt>
      <trkpt lat="42.51933667" lon="1.556775">
        <ele>1172.0</ele>
        <time>2019-08-04T06:33:10.774Z</time>
      </trkpt>
      <trkpt lat="42.51943833" lon="1.55685167">
        <ele>1172.0</ele>
        <time>2019-08-04T06:33:11.767Z</time>
      </trkpt>
      <trkpt lat="42.51943833" lon="1.55685167">
        <ele>1172.0</ele>
        <time>2019-08-04T06:33:12.789Z</time>
      </trkpt>
      <trkpt lat="42.51953167" lon="1.55692167">
        <ele>1172.0</ele>
        <time>2019-08-04T06:33:13.777Z</time>
      </trkpt>
      <trkpt lat="42.51957667" lon="1.55696">
        <ele>1172.0</ele>
        <time>2019-08-04T06:33:14.768Z</time>
      </trkpt>
      <trkpt lat="42.51957667" lon="1.55696">
        <ele>1172.0</ele>
        <time>2019-08-04T06:33:15.803Z</time>
      </trkpt>
      <trkpt lat="42.51967167" lon="1.55704">
        <ele>1172.0</ele>
        <time>2019-08-04T06:33:16.767Z</time>
      </trkpt>
      <trkpt lat="42.51967167" lon="1.55704">
        <ele>1172.0</ele>
        <time>2019-08-04T06:33:17.805Z</time>
      </trkpt>
      <trkpt lat="42.51976833" lon="1.55712667">
        <ele>1172.0</ele>
        <time>2019-08-04T06:33:18.804Z</time>
      </trkpt>
      <trkpt lat="42.51976833" lon="1.55712667">
        <ele>1172.0</ele>
        <time>2019-08-04T06:33:19.803Z</time>
      </trkpt>
      <trkpt lat="42.51987" lon="1.55721667">
        <ele>1173.0</ele>
        <time>2019-08-04T06:33:20.785Z</time>
      </trkpt>
      <trkpt lat="42.51987" lon="1.55721667">
        <ele>1173.0</ele>
        <time>2019-08-04T06:33:21.804Z</time>
      </trkpt>
      <trkpt lat="42.51997667" lon="1.55730167">
        <ele>1173.0</ele>
        <time>2019-08-04T06:33:22.803Z</time>
      </trkpt>
      <trkpt lat="42.51997667" lon="1.55730167">
        <ele>1173.0</ele>
        <time>2019-08-04T06:33:23.779Z</time>
      </trkpt>
      <trkpt lat="42.52006833" lon="1.557395">
        <ele>1174.0</ele>
        <time>2019-08-04T06:33:24.766Z</time>
      </trkpt>
      <trkpt lat="42.520115" lon="1.55743833">
        <ele>1174.0</ele>
        <time>2019-08-04T06:33:25.769Z</time>
      </trkpt>
      <trkpt lat="42.520115" lon="1.55743833">
        <ele>1174.0</ele>
        <time>2019-08-04T06:33:26.804Z</time>
      </trkpt>
      <trkpt lat="42.52021" lon="1.55753">
        <ele>1174.0</ele>
        <time>2019-08-04T06:33:27.772Z</time>
      </trkpt>
      <trkpt lat="42.52026333" lon="1.55757">
        <ele>1175.0</ele>
        <time>2019-08-04T06:33:28.766Z</time>
      </trkpt>
      <trkpt lat="42.52026333" lon="1.55757">
        <ele>1175.0</ele>
        <time>2019-08-04T06:33:29.780Z</time>
      </trkpt>
      <trkpt lat="42.52036" lon="1.55766">
        <ele>1175.0</ele>
        <time>2019-08-04T06:33:30.767Z</time>
      </trkpt>
      <trkpt lat="42.52036" lon="1.55766">
        <ele>1175.0</ele>
        <time>2019-08-04T06:33:31.804Z</time>
      </trkpt>
      <trkpt lat="42.52045667" lon="1.55774667">
        <ele>1176.0</ele>
        <time>2019-08-04T06:33:32.765Z</time>
      </trkpt>
      <trkpt lat="42.52045667" lon="1.55774667">
        <ele>1176.0</ele>
        <time>2019-08-04T06:33:33.804Z</time>
      </trkpt>
      <trkpt lat="42.52055" lon="1.557835">
        <ele>1176.0</ele>
        <time>2019-08-04T06:33:34.768Z</time>
      </trkpt>
      <trkpt lat="42.52055" lon="1.557835">
        <ele>1176.0</ele>
        <time>2019-08-04T06:33:35.802Z</time>
      </trkpt>
      <trkpt lat="42.52063667" lon="1.55792167">
        <ele>1176.0</ele>
        <time>2019-08-04T06:33:36.781Z</time>
      </trkpt>
      <trkpt lat="42.52068167" lon="1.55796333">
        <ele>1177.0</ele>
        <time>2019-08-04T06:33:37.767Z</time>
      </trkpt>
      <trkpt lat="42.52068167" lon="1.55796333">
        <ele>1177.0</ele>
        <time>2019-08-04T06:33:38.804Z</time>
      </trkpt>
      <trkpt lat="42.52076667" lon="1.558055">
        <ele>1177.0</ele>
        <time>2019-08-04T06:33:39.767Z</time>
      </trkpt>
      <trkpt lat="42.52080833" lon="1.55810167">
        <ele>1177.0</ele>
        <time>2019-08-04T06:33:40.769Z</time>
      </trkpt>
      <trkpt lat="42.52080833" lon="1.55810167">
        <ele>1177.0</ele>
        <time>2019-08-04T06:33:41.802Z</time>
      </trkpt>
      <trkpt lat="42.52089833" lon="1.55819167">
        <ele>1178.0</ele>
        <time>2019-08-04T06:33:42.799Z</time>
      </trkpt>
      <trkpt lat="42.52089833" lon="1.55819167">
        <ele>1178.0</ele>
        <time>2019-08-04T06:33:43.774Z</time>
      </trkpt>
      <trkpt lat="42.52098333" lon="1.558285">
        <ele>1178.0</ele>
        <time>2019-08-04T06:33:44.769Z</time>
      </trkpt>
      <trkpt lat="42.52102833" lon="1.55833167">
        <ele>1178.0</ele>
        <time>2019-08-04T06:33:45.767Z</time>
      </trkpt>
      <trkpt lat="42.52102833" lon="1.55833167">
        <ele>1178.0</ele>
        <time>2019-08-04T06:33:46.804Z</time>
      </trkpt>
      <trkpt lat="42.52111333" lon="1.55843167">
        <ele>1179.0</ele>
        <time>2019-08-04T06:33:47.767Z</time>
      </trkpt>
      <trkpt lat="42.52111333" lon="1.55843167">
        <ele>1179.0</ele>
        <time>2019-08-04T06:33:48.800Z</time>
      </trkpt>
      <trkpt lat="42.52120333" lon="1.55853167">
        <ele>1179.0</ele>
        <time>2019-08-04T06:33:49.779Z</time>
      </trkpt>
      <trkpt lat="42.52125167" lon="1.55858333">
        <ele>1179.0</ele>
        <time>2019-08-04T06:33:50.769Z</time>
      </trkpt>
      <trkpt lat="42.52129667" lon="1.558635">
        <ele>1180.0</ele>
        <time>2019-08-04T06:33:51.767Z</time>
      </trkpt>
      <trkpt lat="42.52129667" lon="1.558635">
        <ele>1180.0</ele>
        <time>2019-08-04T06:33:52.772Z</time>
      </trkpt>
      <trkpt lat="42.52139" lon="1.55874333">
        <ele>1180.0</ele>
        <time>2019-08-04T06:33:53.804Z</time>
      </trkpt>
      <trkpt lat="42.52139" lon="1.55874333">
        <ele>1180.0</ele>
        <time>2019-08-04T06:33:54.805Z</time>
      </trkpt>
      <trkpt lat="42.52148333" lon="1.55885667">
        <ele>1180.0</ele>
        <time>2019-08-04T06:33:55.784Z</time>
      </trkpt>
      <trkpt lat="42.52152667" lon="1.55891333">
        <ele>1180.0</ele>
        <time>2019-08-04T06:33:56.768Z</time>
      </trkpt>
      <trkpt lat="42.52152667" lon="1.55891333">
        <ele>1180.0</ele>
        <time>2019-08-04T06:33:57.765Z</time>
      </trkpt>
      <trkpt lat="42.5216" lon="1.55903">
        <ele>1180.0</ele>
        <time>2019-08-04T06:33:58.767Z</time>
      </trkpt>
      <trkpt lat="42.5216" lon="1.55903">
        <ele>1180.0</ele>
        <time>2019-08-04T06:33:59.765Z</time>
      </trkpt>
      <trkpt lat="42.52169833" lon="1.55915667">
        <ele>1180.0</ele>
        <time>2019-08-04T06:34:00.804Z</time>
      </trkpt>
      <trkpt lat="42.52169833" lon="1.55915667">
        <ele>1180.0</ele>
        <time>2019-08-04T06:34:01.800Z</time>
      </trkpt>
      <trkpt lat="42.52179" lon="1.55929167">
        <ele>1180.0</ele>
        <time>2019-08-04T06:34:02.792Z</time>
      </trkpt>
      <trkpt lat="42.52179" lon="1.55929167">
        <ele>1180.0</ele>
        <time>2019-08-04T06:34:03.778Z</time>
      </trkpt>
      <trkpt lat="42.52189167" lon="1.55943167">
        <ele>1181.0</ele>
        <time>2019-08-04T06:34:04.765Z</time>
      </trkpt>
      <trkpt lat="42.52189167" lon="1.55943167">
        <ele>1181.0</ele>
        <time>2019-08-04T06:34:05.801Z</time>
      </trkpt>
      <trkpt lat="42.521985" lon="1.55957">
        <ele>1181.0</ele>
        <time>2019-08-04T06:34:06.770Z</time>
      </trkpt>
      <trkpt lat="42.522035" lon="1.55964667">
        <ele>1180.0</ele>
        <time>2019-08-04T06:34:07.779Z</time>
      </trkpt>
      <trkpt lat="42.522035" lon="1.55964667">
        <ele>1180.0</ele>
        <time>2019-08-04T06:34:08.765Z</time>
      </trkpt>
      <trkpt lat="42.52213" lon="1.55980333">
        <ele>1180.0</ele>
        <time>2019-08-04T06:34:09.804Z</time>
      </trkpt>
      <trkpt lat="42.52217333" lon="1.55988333">
        <ele>1180.0</ele>
        <time>2019-08-04T06:34:10.769Z</time>
      </trkpt>
      <trkpt lat="42.52217333" lon="1.55988333">
        <ele>1180.0</ele>
        <time>2019-08-04T06:34:11.765Z</time>
      </trkpt>
      <trkpt lat="42.52224833" lon="1.56005167">
        <ele>1180.0</ele>
        <time>2019-08-04T06:34:12.783Z</time>
      </trkpt>
      <trkpt lat="42.52224833" lon="1.56005167">
        <ele>1180.0</ele>
        <time>2019-08-04T06:34:13.767Z</time>
      </trkpt>
      <trkpt lat="42.52232167" lon="1.56021667">
        <ele>1180.0</ele>
        <time>2019-08-04T06:34:14.767Z</time>
      </trkpt>
      <trkpt lat="42.52232167" lon="1.56021667">
        <ele>1180.0</ele>
        <time>2019-08-04T06:34:15.767Z</time>
      </trkpt>
      <trkpt lat="42.522405" lon="1.56038667">
        <ele>1180.0</ele>
        <time>2019-08-04T06:34:16.767Z</time>
      </trkpt>
      <trkpt lat="42.522405" lon="1.56038667">
        <ele>1180.0</ele>
        <time>2019-08-04T06:34:17.804Z</time>
      </trkpt>
      <trkpt lat="42.52249" lon="1.56055167">
        <ele>1180.0</ele>
        <time>2019-08-04T06:34:18.768Z</time>
      </trkpt>
      <trkpt lat="42.52249" lon="1.56055167">
        <ele>1180.0</ele>
        <time>2019-08-04T06:34:19.804Z</time>
      </trkpt>
      <trkpt lat="42.52259167" lon="1.56071">
        <ele>1180.0</ele>
        <time>2019-08-04T06:34:20.783Z</time>
      </trkpt>
      <trkpt lat="42.52259167" lon="1.56071">
        <ele>1180.0</ele>
        <time>2019-08-04T06:34:21.803Z</time>
      </trkpt>
      <trkpt lat="42.5227" lon="1.56085833">
        <ele>1179.0</ele>
        <time>2019-08-04T06:34:22.784Z</time>
      </trkpt>
      <trkpt lat="42.5227" lon="1.56085833">
        <ele>1179.0</ele>
        <time>2019-08-04T06:34:23.770Z</time>
      </trkpt>
      <trkpt lat="42.522805" lon="1.56100333">
        <ele>1180.0</ele>
        <time>2019-08-04T06:34:24.766Z</time>
      </trkpt>
      <trkpt lat="42.52285667" lon="1.561075">
        <ele>1180.0</ele>
        <time>2019-08-04T06:34:25.768Z</time>
      </trkpt>
      <trkpt lat="42.52285667" lon="1.561075">
        <ele>1180.0</ele>
        <time>2019-08-04T06:34:26.765Z</time>
      </trkpt>
      <trkpt lat="42.52296667" lon="1.56121333">
        <ele>1180.0</ele>
        <time>2019-08-04T06:34:27.766Z</time>
      </trkpt>
      <trkpt lat="42.523025" lon="1.56128667">
        <ele>1180.0</ele>
        <time>2019-08-04T06:34:28.767Z</time>
      </trkpt>
      <trkpt lat="42.523025" lon="1.56128667">
        <ele>1180.0</ele>
        <time>2019-08-04T06:34:29.780Z</time>
      </trkpt>
      <trkpt lat="42.523145" lon="1.56142333">
        <ele>1180.0</ele>
        <time>2019-08-04T06:34:30.768Z</time>
      </trkpt>
      <trkpt lat="42.52319833" lon="1.56148833">
        <ele>1180.0</ele>
        <time>2019-08-04T06:34:31.766Z</time>
      </trkpt>
      <trkpt lat="42.52319833" lon="1.56148833">
        <ele>1180.0</ele>
        <time>2019-08-04T06:34:32.773Z</time>
      </trkpt>
      <trkpt lat="42.52330833" lon="1.56161">
        <ele>1180.0</ele>
        <time>2019-08-04T06:34:33.768Z</time>
      </trkpt>
      <trkpt lat="42.52337" lon="1.56167">
        <ele>1180.0</ele>
        <time>2019-08-04T06:34:34.768Z</time>
      </trkpt>
      <trkpt lat="42.52337" lon="1.56167">
        <ele>1180.0</ele>
        <time>2019-08-04T06:34:35.765Z</time>
      </trkpt>
      <trkpt lat="42.52349" lon="1.561785">
        <ele>1181.0</ele>
        <time>2019-08-04T06:34:36.769Z</time>
      </trkpt>
      <trkpt lat="42.52355167" lon="1.56183667">
        <ele>1181.0</ele>
        <time>2019-08-04T06:34:37.767Z</time>
      </trkpt>
      <trkpt lat="42.52355167" lon="1.56183667">
        <ele>1181.0</ele>
        <time>2019-08-04T06:34:38.804Z</time>
      </trkpt>
      <trkpt lat="42.52366167" lon="1.56193833">
        <ele>1181.0</ele>
        <time>2019-08-04T06:34:39.767Z</time>
      </trkpt>
      <trkpt lat="42.52371667" lon="1.56199167">
        <ele>1181.0</ele>
        <time>2019-08-04T06:34:40.767Z</time>
      </trkpt>
      <trkpt lat="42.52371667" lon="1.56199167">
        <ele>1181.0</ele>
        <time>2019-08-04T06:34:41.802Z</time>
      </trkpt>
      <trkpt lat="42.52384833" lon="1.56209667">
        <ele>1182.0</ele>
        <time>2019-08-04T06:34:42.798Z</time>
      </trkpt>
      <trkpt lat="42.52384833" lon="1.56209667">
        <ele>1182.0</ele>
        <time>2019-08-04T06:34:43.780Z</time>
      </trkpt>
      <trkpt lat="42.52397667" lon="1.5622">
        <ele>1182.0</ele>
        <time>2019-08-04T06:34:44.768Z</time>
      </trkpt>
      <trkpt lat="42.52397667" lon="1.5622">
        <ele>1182.0</ele>
        <time>2019-08-04T06:34:45.766Z</time>
      </trkpt>
      <trkpt lat="42.52410167" lon="1.5623">
        <ele>1182.0</ele>
        <time>2019-08-04T06:34:46.768Z</time>
      </trkpt>
      <trkpt lat="42.52410167" lon="1.5623">
        <ele>1182.0</ele>
        <time>2019-08-04T06:34:47.803Z</time>
      </trkpt>
      <trkpt lat="42.524225" lon="1.56240333">
        <ele>1182.0</ele>
        <time>2019-08-04T06:34:48.767Z</time>
      </trkpt>
      <trkpt lat="42.524225" lon="1.56240333">
        <ele>1182.0</ele>
        <time>2019-08-04T06:34:49.800Z</time>
      </trkpt>
      <trkpt lat="42.52434667" lon="1.562515">
        <ele>1182.0</ele>
        <time>2019-08-04T06:34:50.780Z</time>
      </trkpt>
      <trkpt lat="42.52434667" lon="1.562515">
        <ele>1182.0</ele>
        <time>2019-08-04T06:34:51.765Z</time>
      </trkpt>
      <trkpt lat="42.524445" lon="1.56264167">
        <ele>1182.0</ele>
        <time>2019-08-04T06:34:52.785Z</time>
      </trkpt>
      <trkpt lat="42.524445" lon="1.56264167">
        <ele>1182.0</ele>
        <time>2019-08-04T06:34:53.774Z</time>
      </trkpt>
      <trkpt lat="42.524535" lon="1.562775">
        <ele>1182.0</ele>
        <time>2019-08-04T06:34:54.767Z</time>
      </trkpt>
      <trkpt lat="42.524535" lon="1.562775">
        <ele>1182.0</ele>
        <time>2019-08-04T06:34:55.803Z</time>
      </trkpt>
      <trkpt lat="42.52461" lon="1.56291833">
        <ele>1183.0</ele>
        <time>2019-08-04T06:34:56.783Z</time>
      </trkpt>
      <trkpt lat="42.52461" lon="1.56291833">
        <ele>1183.0</ele>
        <time>2019-08-04T06:34:57.804Z</time>
      </trkpt>
      <trkpt lat="42.52468" lon="1.56307167">
        <ele>1183.0</ele>
        <time>2019-08-04T06:34:58.768Z</time>
      </trkpt>
      <trkpt lat="42.52468" lon="1.56307167">
        <ele>1183.0</ele>
        <time>2019-08-04T06:34:59.804Z</time>
      </trkpt>
      <trkpt lat="42.52473833" lon="1.56322">
        <ele>1183.0</ele>
        <time>2019-08-04T06:35:00.770Z</time>
      </trkpt>
      <trkpt lat="42.52473833" lon="1.56322">
        <ele>1183.0</ele>
        <time>2019-08-04T06:35:01.804Z</time>
      </trkpt>
      <trkpt lat="42.52478833" lon="1.56336667">
        <ele>1184.0</ele>
        <time>2019-08-04T06:35:02.789Z</time>
      </trkpt>
      <trkpt lat="42.52478833" lon="1.56336667">
        <ele>1184.0</ele>
        <time>2019-08-04T06:35:03.770Z</time>
      </trkpt>
      <trkpt lat="42.52482833" lon="1.56351833">
        <ele>1184.0</ele>
        <time>2019-08-04T06:35:04.768Z</time>
      </trkpt>
      <trkpt lat="42.52482833" lon="1.56351833">
        <ele>1184.0</ele>
        <time>2019-08-04T06:35:05.780Z</time>
      </trkpt>
      <trkpt lat="42.52486833" lon="1.56366333">
        <ele>1184.0</ele>
        <time>2019-08-04T06:35:06.767Z</time>
      </trkpt>
      <trkpt lat="42.52486833" lon="1.56366333">
        <ele>1184.0</ele>
        <time>2019-08-04T06:35:07.804Z</time>
      </trkpt>
      <trkpt lat="42.524905" lon="1.56380167">
        <ele>1184.0</ele>
        <time>2019-08-04T06:35:08.765Z</time>
      </trkpt>
      <trkpt lat="42.524905" lon="1.56380167">
        <ele>1184.0</ele>
        <time>2019-08-04T06:35:09.799Z</time>
      </trkpt>
      <trkpt lat="42.52493167" lon="1.56393">
        <ele>1185.0</ele>
        <time>2019-08-04T06:35:10.778Z</time>
      </trkpt>
      <trkpt lat="42.52493167" lon="1.56393">
        <ele>1185.0</ele>
        <time>2019-08-04T06:35:11.765Z</time>
      </trkpt>
      <trkpt lat="42.52496167" lon="1.56405167">
        <ele>1185.0</ele>
        <time>2019-08-04T06:35:12.784Z</time>
      </trkpt>
      <trkpt lat="42.52497333" lon="1.56411333">
        <ele>1185.0</ele>
        <time>2019-08-04T06:35:13.777Z</time>
      </trkpt>
      <trkpt lat="42.52497333" lon="1.56411333">
        <ele>1185.0</ele>
        <time>2019-08-04T06:35:14.805Z</time>
      </trkpt>
      <trkpt lat="42.52501" lon="1.56424667">
        <ele>1185.0</ele>
        <time>2019-08-04T06:35:15.768Z</time>
      </trkpt>
      <trkpt lat="42.52503" lon="1.564315">
        <ele>1186.0</ele>
        <time>2019-08-04T06:35:16.768Z</time>
      </trkpt>
      <trkpt lat="42.52503" lon="1.564315">
        <ele>1186.0</ele>
        <time>2019-08-04T06:35:17.766Z</time>
      </trkpt>
      <trkpt lat="42.52506667" lon="1.56444167">
        <ele>1186.0</ele>
        <time>2019-08-04T06:35:18.768Z</time>
      </trkpt>
      <trkpt lat="42.52506667" lon="1.56444167">
        <ele>1186.0</ele>
        <time>2019-08-04T06:35:19.804Z</time>
      </trkpt>
      <trkpt lat="42.52510667" lon="1.56456">
        <ele>1187.0</ele>
        <time>2019-08-04T06:35:20.783Z</time>
      </trkpt>
      <trkpt lat="42.52510667" lon="1.56456">
        <ele>1187.0</ele>
        <time>2019-08-04T06:35:21.804Z</time>
      </trkpt>
      <trkpt lat="42.52513833" lon="1.56468333">
        <ele>1187.0</ele>
        <time>2019-08-04T06:35:22.784Z</time>
      </trkpt>
      <trkpt lat="42.52513833" lon="1.56468333">
        <ele>1187.0</ele>
        <time>2019-08-04T06:35:23.776Z</time>
      </trkpt>
      <trkpt lat="42.52516333" lon="1.56480333">
        <ele>1188.0</ele>
        <time>2019-08-04T06:35:24.767Z</time>
      </trkpt>
      <trkpt lat="42.52517833" lon="1.56486333">
        <ele>1188.0</ele>
        <time>2019-08-04T06:35:25.768Z</time>
      </trkpt>
      <trkpt lat="42.525185" lon="1.56491667">
        <ele>1188.0</ele>
        <time>2019-08-04T06:35:26.768Z</time>
      </trkpt>
      <trkpt lat="42.525185" lon="1.56491667">
        <ele>1188.0</ele>
        <time>2019-08-04T06:35:27.802Z</time>
      </trkpt>
      <trkpt lat="42.525215" lon="1.56502333">
        <ele>1189.0</ele>
        <time>2019-08-04T06:35:28.781Z</time>
      </trkpt>
      <trkpt lat="42.525215" lon="1.56502333">
        <ele>1189.0</ele>
        <time>2019-08-04T06:35:29.785Z</time>
      </trkpt>
      <trkpt lat="42.52524333" lon="1.56513">
        <ele>1189.0</ele>
        <time>2019-08-04T06:35:30.768Z</time>
      </trkpt>
      <trkpt lat="42.52524333" lon="1.56513">
        <ele>1189.0</ele>
        <time>2019-08-04T06:35:31.801Z</time>
      </trkpt>
      <trkpt lat="42.52526833" lon="1.56522667">
        <ele>1189.0</ele>
        <time>2019-08-04T06:35:32.782Z</time>
      </trkpt>
      <trkpt lat="42.52526833" lon="1.56522667">
        <ele>1189.0</ele>
        <time>2019-08-04T06:35:33.768Z</time>
      </trkpt>
      <trkpt lat="42.52531333" lon="1.56533333">
        <ele>1190.0</ele>
        <time>2019-08-04T06:35:34.768Z</time>
      </trkpt>
      <trkpt lat="42.52531333" lon="1.56533333">
        <ele>1190.0</ele>
        <time>2019-08-04T06:35:35.766Z</time>
      </trkpt>
      <trkpt lat="42.52534667" lon="1.56543667">
        <ele>1191.0</ele>
        <time>2019-08-04T06:35:36.770Z</time>
      </trkpt>
      <trkpt lat="42.52536667" lon="1.565485">
        <ele>1191.0</ele>
        <time>2019-08-04T06:35:37.769Z</time>
      </trkpt>
      <trkpt lat="42.52539667" lon="1.56553667">
        <ele>1191.0</ele>
        <time>2019-08-04T06:35:38.768Z</time>
      </trkpt>
      <trkpt lat="42.52539667" lon="1.56553667">
        <ele>1191.0</ele>
        <time>2019-08-04T06:35:39.765Z</time>
      </trkpt>
      <trkpt lat="42.525445" lon="1.56563167">
        <ele>1191.0</ele>
        <time>2019-08-04T06:35:40.768Z</time>
      </trkpt>
      <trkpt lat="42.525445" lon="1.56563167">
        <ele>1191.0</ele>
        <time>2019-08-04T06:35:41.766Z</time>
      </trkpt>
      <trkpt lat="42.525495" lon="1.56572333">
        <ele>1192.0</ele>
        <time>2019-08-04T06:35:42.791Z</time>
      </trkpt>
      <trkpt lat="42.52551833" lon="1.56576833">
        <ele>1192.0</ele>
        <time>2019-08-04T06:35:43.770Z</time>
      </trkpt>
      <trkpt lat="42.52551833" lon="1.56576833">
        <ele>1192.0</ele>
        <time>2019-08-04T06:35:44.766Z</time>
      </trkpt>
      <trkpt lat="42.52555667" lon="1.56586">
        <ele>1193.0</ele>
        <time>2019-08-04T06:35:45.767Z</time>
      </trkpt>
      <trkpt lat="42.52555667" lon="1.56586">
        <ele>1193.0</ele>
        <time>2019-08-04T06:35:46.766Z</time>
      </trkpt>
      <trkpt lat="42.525595" lon="1.565945">
        <ele>1193.0</ele>
        <time>2019-08-04T06:35:47.774Z</time>
      </trkpt>
      <trkpt lat="42.52563333" lon="1.56599167">
        <ele>1194.0</ele>
        <time>2019-08-04T06:35:48.768Z</time>
      </trkpt>
      <trkpt lat="42.52563333" lon="1.56599167">
        <ele>1194.0</ele>
        <time>2019-08-04T06:35:49.803Z</time>
      </trkpt>
      <trkpt lat="42.52569333" lon="1.566075">
        <ele>1195.0</ele>
        <time>2019-08-04T06:35:50.783Z</time>
      </trkpt>
      <trkpt lat="42.52569333" lon="1.566075">
        <ele>1195.0</ele>
        <time>2019-08-04T06:35:51.804Z</time>
      </trkpt>
      <trkpt lat="42.52574833" lon="1.56615667">
        <ele>1195.0</ele>
        <time>2019-08-04T06:35:52.800Z</time>
      </trkpt>
      <trkpt lat="42.52574833" lon="1.56615667">
        <ele>1195.0</ele>
        <time>2019-08-04T06:35:53.780Z</time>
      </trkpt>
      <trkpt lat="42.52581167" lon="1.56624167">
        <ele>1196.0</ele>
        <time>2019-08-04T06:35:54.794Z</time>
      </trkpt>
      <trkpt lat="42.52584333" lon="1.56628667">
        <ele>1197.0</ele>
        <time>2019-08-04T06:35:55.788Z</time>
      </trkpt>
      <trkpt lat="42.52587667" lon="1.566335">
        <ele>1197.0</ele>
        <time>2019-08-04T06:35:56.768Z</time>
      </trkpt>
      <trkpt lat="42.52587667" lon="1.566335">
        <ele>1197.0</ele>
        <time>2019-08-04T06:35:57.766Z</time>
      </trkpt>
      <trkpt lat="42.52593333" lon="1.56642">
        <ele>1198.0</ele>
        <time>2019-08-04T06:35:58.765Z</time>
      </trkpt>
      <trkpt lat="42.52593333" lon="1.56642">
        <ele>1198.0</ele>
        <time>2019-08-04T06:35:59.770Z</time>
      </trkpt>
      <trkpt lat="42.52598833" lon="1.56649833">
        <ele>1199.0</ele>
        <time>2019-08-04T06:36:00.768Z</time>
      </trkpt>
      <trkpt lat="42.52598833" lon="1.56649833">
        <ele>1199.0</ele>
        <time>2019-08-04T06:36:01.804Z</time>
      </trkpt>
      <trkpt lat="42.52604833" lon="1.56657333">
        <ele>1199.0</ele>
        <time>2019-08-04T06:36:02.784Z</time>
      </trkpt>
      <trkpt lat="42.52604833" lon="1.56657333">
        <ele>1199.0</ele>
        <time>2019-08-04T06:36:03.804Z</time>
      </trkpt>
      <trkpt lat="42.52611333" lon="1.566645">
        <ele>1200.0</ele>
        <time>2019-08-04T06:36:04.772Z</time>
      </trkpt>
      <trkpt lat="42.52613833" lon="1.56668">
        <ele>1200.0</ele>
        <time>2019-08-04T06:36:05.785Z</time>
      </trkpt>
      <trkpt lat="42.52613833" lon="1.56668">
        <ele>1200.0</ele>
        <time>2019-08-04T06:36:06.804Z</time>
      </trkpt>
      <trkpt lat="42.52619667" lon="1.56675">
        <ele>1201.0</ele>
        <time>2019-08-04T06:36:07.768Z</time>
      </trkpt>
      <trkpt lat="42.526225" lon="1.56678667">
        <ele>1201.0</ele>
        <time>2019-08-04T06:36:08.769Z</time>
      </trkpt>
      <trkpt lat="42.52625333" lon="1.56682333">
        <ele>1201.0</ele>
        <time>2019-08-04T06:36:09.768Z</time>
      </trkpt>
      <trkpt lat="42.52625333" lon="1.56682333">
        <ele>1201.0</ele>
        <time>2019-08-04T06:36:10.766Z</time>
      </trkpt>
      <trkpt lat="42.526315" lon="1.56689333">
        <ele>1202.0</ele>
        <time>2019-08-04T06:36:11.767Z</time>
      </trkpt>
      <trkpt lat="42.526345" lon="1.56692667">
        <ele>1203.0</ele>
        <time>2019-08-04T06:36:12.775Z</time>
      </trkpt>
      <trkpt lat="42.526345" lon="1.56692667">
        <ele>1203.0</ele>
        <time>2019-08-04T06:36:13.802Z</time>
      </trkpt>
      <trkpt lat="42.52640167" lon="1.56699667">
        <ele>1203.0</ele>
        <time>2019-08-04T06:36:14.782Z</time>
      </trkpt>
      <trkpt lat="42.52640167" lon="1.56699667">
        <ele>1203.0</ele>
        <time>2019-08-04T06:36:15.765Z</time>
      </trkpt>
      <trkpt lat="42.52646" lon="1.567065">
        <ele>1204.0</ele>
        <time>2019-08-04T06:36:16.768Z</time>
      </trkpt>
      <trkpt lat="42.52646" lon="1.567065">
        <ele>1204.0</ele>
        <time>2019-08-04T06:36:17.804Z</time>
      </trkpt>
      <trkpt lat="42.52651667" lon="1.56713333">
        <ele>1205.0</ele>
        <time>2019-08-04T06:36:18.768Z</time>
      </trkpt>
      <trkpt lat="42.52651667" lon="1.56713333">
        <ele>1205.0</ele>
        <time>2019-08-04T06:36:19.802Z</time>
      </trkpt>
      <trkpt lat="42.52657" lon="1.5672">
        <ele>1205.0</ele>
        <time>2019-08-04T06:36:20.784Z</time>
      </trkpt>
      <trkpt lat="42.52657" lon="1.5672">
        <ele>1205.0</ele>
        <time>2019-08-04T06:36:21.765Z</time>
      </trkpt>
      <trkpt lat="42.52662333" lon="1.56726667">
        <ele>1206.0</ele>
        <time>2019-08-04T06:36:22.794Z</time>
      </trkpt>
      <trkpt lat="42.52662333" lon="1.56726667">
        <ele>1206.0</ele>
        <time>2019-08-04T06:36:23.776Z</time>
      </trkpt>
      <trkpt lat="42.52668167" lon="1.567335">
        <ele>1206.0</ele>
        <time>2019-08-04T06:36:24.773Z</time>
      </trkpt>
      <trkpt lat="42.52671167" lon="1.56737167">
        <ele>1207.0</ele>
        <time>2019-08-04T06:36:25.770Z</time>
      </trkpt>
      <trkpt lat="42.52671167" lon="1.56737167">
        <ele>1207.0</ele>
        <time>2019-08-04T06:36:26.766Z</time>
      </trkpt>
      <trkpt lat="42.52676333" lon="1.56744333">
        <ele>1207.0</ele>
        <time>2019-08-04T06:36:27.775Z</time>
      </trkpt>
      <trkpt lat="42.52678667" lon="1.56747833">
        <ele>1207.0</ele>
        <time>2019-08-04T06:36:28.768Z</time>
      </trkpt>
      <trkpt lat="42.52678667" lon="1.56747833">
        <ele>1207.0</ele>
        <time>2019-08-04T06:36:29.780Z</time>
      </trkpt>
      <trkpt lat="42.526835" lon="1.56755">
        <ele>1208.0</ele>
        <time>2019-08-04T06:36:30.772Z</time>
      </trkpt>
      <trkpt lat="42.526835" lon="1.56755">
        <ele>1208.0</ele>
        <time>2019-08-04T06:36:31.802Z</time>
      </trkpt>
      <trkpt lat="42.52688833" lon="1.56763">
        <ele>1208.0</ele>
        <time>2019-08-04T06:36:32.785Z</time>
      </trkpt>
      <trkpt lat="42.52688833" lon="1.56763">
        <ele>1208.0</ele>
        <time>2019-08-04T06:36:33.766Z</time>
      </trkpt>
      <trkpt lat="42.52693667" lon="1.56771167">
        <ele>1208.0</ele>
        <time>2019-08-04T06:36:34.776Z</time>
      </trkpt>
      <trkpt lat="42.52693667" lon="1.56771167">
        <ele>1208.0</ele>
        <time>2019-08-04T06:36:35.768Z</time>
      </trkpt>
      <trkpt lat="42.526985" lon="1.56779333">
        <ele>1209.0</ele>
        <time>2019-08-04T06:36:36.768Z</time>
      </trkpt>
      <trkpt lat="42.526985" lon="1.56779333">
        <ele>1209.0</ele>
        <time>2019-08-04T06:36:37.804Z</time>
      </trkpt>
      <trkpt lat="42.52703167" lon="1.56787">
        <ele>1209.0</ele>
        <time>2019-08-04T06:36:38.784Z</time>
      </trkpt>
      <trkpt lat="42.52703167" lon="1.56787">
        <ele>1209.0</ele>
        <time>2019-08-04T06:36:39.804Z</time>
      </trkpt>
      <trkpt lat="42.52707333" lon="1.56795">
        <ele>1210.0</ele>
        <time>2019-08-04T06:36:40.769Z</time>
      </trkpt>
      <trkpt lat="42.52707333" lon="1.56795">
        <ele>1210.0</ele>
        <time>2019-08-04T06:36:41.799Z</time>
      </trkpt>
      <trkpt lat="42.52710667" lon="1.568035">
        <ele>1210.0</ele>
        <time>2019-08-04T06:36:42.792Z</time>
      </trkpt>
      <trkpt lat="42.52710667" lon="1.568035">
        <ele>1210.0</ele>
        <time>2019-08-04T06:36:43.771Z</time>
      </trkpt>
      <trkpt lat="42.52714667" lon="1.56812">
        <ele>1210.0</ele>
        <time>2019-08-04T06:36:44.772Z</time>
      </trkpt>
      <trkpt lat="42.52714667" lon="1.56812">
        <ele>1210.0</ele>
        <time>2019-08-04T06:36:45.801Z</time>
      </trkpt>
      <trkpt lat="42.52718" lon="1.56820833">
        <ele>1210.0</ele>
        <time>2019-08-04T06:36:46.780Z</time>
      </trkpt>
      <trkpt lat="42.52718" lon="1.56820833">
        <ele>1210.0</ele>
        <time>2019-08-04T06:36:47.804Z</time>
      </trkpt>
      <trkpt lat="42.527205" lon="1.56828833">
        <ele>1210.0</ele>
        <time>2019-08-04T06:36:48.783Z</time>
      </trkpt>
      <trkpt lat="42.527205" lon="1.56828833">
        <ele>1210.0</ele>
        <time>2019-08-04T06:36:49.804Z</time>
      </trkpt>
      <trkpt lat="42.52723167" lon="1.56836833">
        <ele>1211.0</ele>
        <time>2019-08-04T06:36:50.785Z</time>
      </trkpt>
      <trkpt lat="42.52723167" lon="1.56836833">
        <ele>1211.0</ele>
        <time>2019-08-04T06:36:51.804Z</time>
      </trkpt>
      <trkpt lat="42.52727" lon="1.56845167">
        <ele>1211.0</ele>
        <time>2019-08-04T06:36:52.789Z</time>
      </trkpt>
      <trkpt lat="42.52727" lon="1.56845167">
        <ele>1211.0</ele>
        <time>2019-08-04T06:36:53.768Z</time>
      </trkpt>
      <trkpt lat="42.527295" lon="1.56852667">
        <ele>1211.0</ele>
        <time>2019-08-04T06:36:54.770Z</time>
      </trkpt>
      <trkpt lat="42.527295" lon="1.56852667">
        <ele>1211.0</ele>
        <time>2019-08-04T06:36:55.791Z</time>
      </trkpt>
      <trkpt lat="42.52731333" lon="1.56859833">
        <ele>1211.0</ele>
        <time>2019-08-04T06:36:56.771Z</time>
      </trkpt>
      <trkpt lat="42.52731333" lon="1.56859833">
        <ele>1211.0</ele>
        <time>2019-08-04T06:36:57.769Z</time>
      </trkpt>
      <trkpt lat="42.52735667" lon="1.56867167">
        <ele>1212.0</ele>
        <time>2019-08-04T06:36:58.768Z</time>
      </trkpt>
      <trkpt lat="42.52735667" lon="1.56867167">
        <ele>1212.0</ele>
        <time>2019-08-04T06:36:59.765Z</time>
      </trkpt>
      <trkpt lat="42.527395" lon="1.56873667">
        <ele>1213.0</ele>
        <time>2019-08-04T06:37:00.766Z</time>
      </trkpt>
      <trkpt lat="42.52742333" lon="1.56877">
        <ele>1213.0</ele>
        <time>2019-08-04T06:37:01.769Z</time>
      </trkpt>
      <trkpt lat="42.52742333" lon="1.56877">
        <ele>1213.0</ele>
        <time>2019-08-04T06:37:02.783Z</time>
      </trkpt>
      <trkpt lat="42.52748167" lon="1.568835">
        <ele>1214.0</ele>
        <time>2019-08-04T06:37:03.767Z</time>
      </trkpt>
      <trkpt lat="42.52750333" lon="1.56887">
        <ele>1214.0</ele>
        <time>2019-08-04T06:37:04.770Z</time>
      </trkpt>
      <trkpt lat="42.52750333" lon="1.56887">
        <ele>1214.0</ele>
        <time>2019-08-04T06:37:05.765Z</time>
      </trkpt>
      <trkpt lat="42.52754333" lon="1.56893333">
        <ele>1215.0</ele>
        <time>2019-08-04T06:37:06.772Z</time>
      </trkpt>
      <trkpt lat="42.52754333" lon="1.56893333">
        <ele>1215.0</ele>
        <time>2019-08-04T06:37:07.765Z</time>
      </trkpt>
      <trkpt lat="42.52758" lon="1.568995">
        <ele>1215.0</ele>
        <time>2019-08-04T06:37:08.769Z</time>
      </trkpt>
      <trkpt lat="42.5276" lon="1.569025">
        <ele>1216.0</ele>
        <time>2019-08-04T06:37:09.768Z</time>
      </trkpt>
      <trkpt lat="42.52762167" lon="1.56905667">
        <ele>1216.0</ele>
        <time>2019-08-04T06:37:10.769Z</time>
      </trkpt>
      <trkpt lat="42.52762167" lon="1.56905667">
        <ele>1216.0</ele>
        <time>2019-08-04T06:37:11.765Z</time>
      </trkpt>
      <trkpt lat="42.52766667" lon="1.56911833">
        <ele>1216.0</ele>
        <time>2019-08-04T06:37:12.774Z</time>
      </trkpt>
      <trkpt lat="42.52766667" lon="1.56911833">
        <ele>1216.0</ele>
        <time>2019-08-04T06:37:13.803Z</time>
      </trkpt>
      <trkpt lat="42.52771667" lon="1.56917833">
        <ele>1217.0</ele>
        <time>2019-08-04T06:37:14.785Z</time>
      </trkpt>
      <trkpt lat="42.52771667" lon="1.56917833">
        <ele>1217.0</ele>
        <time>2019-08-04T06:37:15.766Z</time>
      </trkpt>
      <trkpt lat="42.52774167" lon="1.56923667">
        <ele>1218.0</ele>
        <time>2019-08-04T06:37:16.765Z</time>
      </trkpt>
      <trkpt lat="42.52774167" lon="1.56923667">
        <ele>1218.0</ele>
        <time>2019-08-04T06:37:17.802Z</time>
      </trkpt>
      <trkpt lat="42.52778333" lon="1.56930667">
        <ele>1219.0</ele>
        <time>2019-08-04T06:37:18.781Z</time>
      </trkpt>
      <trkpt lat="42.52778333" lon="1.56930667">
        <ele>1219.0</ele>
        <time>2019-08-04T06:37:19.765Z</time>
      </trkpt>
      <trkpt lat="42.527815" lon="1.56939">
        <ele>1219.0</ele>
        <time>2019-08-04T06:37:20.784Z</time>
      </trkpt>
      <trkpt lat="42.52782833" lon="1.56942667">
        <ele>1220.0</ele>
        <time>2019-08-04T06:37:21.795Z</time>
      </trkpt>
      <trkpt lat="42.52782833" lon="1.56942667">
        <ele>1220.0</ele>
        <time>2019-08-04T06:37:22.800Z</time>
      </trkpt>
      <trkpt lat="42.52785" lon="1.5695">
        <ele>1221.0</ele>
        <time>2019-08-04T06:37:23.766Z</time>
      </trkpt>
      <trkpt lat="42.52785" lon="1.5695">
        <ele>1221.0</ele>
        <time>2019-08-04T06:37:24.772Z</time>
      </trkpt>
      <trkpt lat="42.52788167" lon="1.56955833">
        <ele>1221.0</ele>
        <time>2019-08-04T06:37:25.789Z</time>
      </trkpt>
      <trkpt lat="42.52788167" lon="1.56955833">
        <ele>1221.0</ele>
        <time>2019-08-04T06:37:26.768Z</time>
      </trkpt>
      <trkpt lat="42.52790667" lon="1.56962">
        <ele>1222.0</ele>
        <time>2019-08-04T06:37:27.803Z</time>
      </trkpt>
      <trkpt lat="42.52790667" lon="1.56962">
        <ele>1222.0</ele>
        <time>2019-08-04T06:37:28.781Z</time>
      </trkpt>
      <trkpt lat="42.52793333" lon="1.56968">
        <ele>1222.0</ele>
        <time>2019-08-04T06:37:29.770Z</time>
      </trkpt>
      <trkpt lat="42.52793333" lon="1.56968">
        <ele>1222.0</ele>
        <time>2019-08-04T06:37:30.765Z</time>
      </trkpt>
      <trkpt lat="42.52796" lon="1.56973833">
        <ele>1223.0</ele>
        <time>2019-08-04T06:37:31.765Z</time>
      </trkpt>
      <trkpt lat="42.52797333" lon="1.56976667">
        <ele>1223.0</ele>
        <time>2019-08-04T06:37:32.769Z</time>
      </trkpt>
      <trkpt lat="42.52797333" lon="1.56976667">
        <ele>1223.0</ele>
        <time>2019-08-04T06:37:33.765Z</time>
      </trkpt>
      <trkpt lat="42.527995" lon="1.56982167">
        <ele>1224.0</ele>
        <time>2019-08-04T06:37:34.770Z</time>
      </trkpt>
      <trkpt lat="42.527995" lon="1.56982167">
        <ele>1224.0</ele>
        <time>2019-08-04T06:37:35.802Z</time>
      </trkpt>
      <trkpt lat="42.52801667" lon="1.56988">
        <ele>1225.0</ele>
        <time>2019-08-04T06:37:36.781Z</time>
      </trkpt>
      <trkpt lat="42.52801667" lon="1.56988">
        <ele>1225.0</ele>
        <time>2019-08-04T06:37:37.765Z</time>
      </trkpt>
      <trkpt lat="42.52801667" lon="1.56988">
        <ele>1225.0</ele>
        <time>2019-08-04T06:37:38.765Z</time>
      </trkpt>
      <trkpt lat="42.52801667" lon="1.56988">
        <ele>1225.0</ele>
        <time>2019-08-04T06:37:39.765Z</time>
      </trkpt>
      <trkpt lat="42.52801667" lon="1.56988">
        <ele>1225.0</ele>
        <time>2019-08-04T06:37:40.786Z</time>
      </trkpt>
      <trkpt lat="42.52801667" lon="1.56988">
        <ele>1225.0</ele>
        <time>2019-08-04T06:37:41.765Z</time>
      </trkpt>
      <trkpt lat="42.52801667" lon="1.56988">
        <ele>1225.0</ele>
        <time>2019-08-04T06:37:42.776Z</time>
      </trkpt>
      <trkpt lat="42.52801667" lon="1.56988">
        <ele>1225.0</ele>
        <time>2019-08-04T06:37:43.766Z</time>
      </trkpt>
      <trkpt lat="42.52801667" lon="1.56988">
        <ele>1225.0</ele>
        <time>2019-08-04T06:37:44.785Z</time>
      </trkpt>
      <trkpt lat="42.52801667" lon="1.56988">
        <ele>1225.0</ele>
        <time>2019-08-04T06:37:45.775Z</time>
      </trkpt>
      <trkpt lat="42.52801667" lon="1.56988">
        <ele>1225.0</ele>
        <time>2019-08-04T06:37:46.767Z</time>
      </trkpt>
      <trkpt lat="42.52801667" lon="1.56988">
        <ele>1225.0</ele>
        <time>2019-08-04T06:37:47.803Z</time>
      </trkpt>
      <trkpt lat="42.52801667" lon="1.56988">
        <ele>1225.0</ele>
        <time>2019-08-04T06:37:48.782Z</time>
      </trkpt>
      <trkpt lat="42.52801667" lon="1.56988">
        <ele>1225.0</ele>
        <time>2019-08-04T06:37:49.766Z</time>
      </trkpt>
      <trkpt lat="42.52801667" lon="1.56988">
        <ele>1225.0</ele>
        <time>2019-08-04T06:37:50.765Z</time>
      </trkpt>
      <trkpt lat="42.52801667" lon="1.56988">
        <ele>1225.0</ele>
        <time>2019-08-04T06:37:51.786Z</time>
      </trkpt>
      <trkpt lat="42.52801667" lon="1.56988">
        <ele>1225.0</ele>
        <time>2019-08-04T06:37:52.780Z</time>
      </trkpt>
      <trkpt lat="42.52801667" lon="1.56988">
        <ele>1225.0</ele>
        <time>2019-08-04T06:37:53.767Z</time>
      </trkpt>
      <trkpt lat="42.52801667" lon="1.56988">
        <ele>1225.0</ele>
        <time>2019-08-04T06:37:54.765Z</time>
      </trkpt>
      <trkpt lat="42.52801667" lon="1.56988">
        <ele>1225.0</ele>
        <time>2019-08-04T06:37:55.800Z</time>
      </trkpt>
      <trkpt lat="42.52801667" lon="1.56988">
        <ele>1225.0</ele>
        <time>2019-08-04T06:37:56.791Z</time>
      </trkpt>
      <trkpt lat="42.52801667" lon="1.56988">
        <ele>1225.0</ele>
        <time>2019-08-04T06:37:57.772Z</time>
      </trkpt>
      <trkpt lat="42.52801667" lon="1.56988">
        <ele>1225.0</ele>
        <time>2019-08-04T06:37:58.800Z</time>
      </trkpt>
      <trkpt lat="42.52801667" lon="1.56988">
        <ele>1225.0</ele>
        <time>2019-08-04T06:37:59.779Z</time>
      </trkpt>
      <trkpt lat="42.52801667" lon="1.56988">
        <ele>1225.0</ele>
        <time>2019-08-04T06:38:00.805Z</time>
      </trkpt>
      <trkpt lat="42.52801667" lon="1.56988">
        <ele>1225.0</ele>
        <time>2019-08-04T06:38:01.785Z</time>
      </trkpt>
      <trkpt lat="42.52801667" lon="1.56988">
        <ele>1225.0</ele>
        <time>2019-08-04T06:38:02.784Z</time>
      </trkpt>
      <trkpt lat="42.52801667" lon="1.56988">
        <ele>1225.0</ele>
        <time>2019-08-04T06:38:03.802Z</time>
      </trkpt>
      <trkpt lat="42.52801667" lon="1.56988">
        <ele>1225.0</ele>
        <time>2019-08-04T06:38:04.770Z</time>
      </trkpt>
      <trkpt lat="42.52801667" lon="1.56988">
        <ele>1225.0</ele>
        <time>2019-08-04T06:38:05.776Z</time>
      </trkpt>
      <trkpt lat="42.52801667" lon="1.56988">
        <ele>1225.0</ele>
        <time>2019-08-04T06:38:06.767Z</time>
      </trkpt>
      <trkpt lat="42.52801667" lon="1.56988">
        <ele>1225.0</ele>
        <time>2019-08-04T06:38:07.766Z</time>
      </trkpt>
      <trkpt lat="42.52801667" lon="1.56988">
        <ele>1225.0</ele>
        <time>2019-08-04T06:38:08.775Z</time>
      </trkpt>
      <trkpt lat="42.52801667" lon="1.56988">
        <ele>1225.0</ele>
        <time>2019-08-04T06:38:09.769Z</time>
      </trkpt>
      <trkpt lat="42.52801667" lon="1.56988">
        <ele>1225.0</ele>
        <time>2019-08-04T06:38:10.767Z</time>
      </trkpt>
      <trkpt lat="42.52801667" lon="1.56988">
        <ele>1225.0</ele>
        <time>2019-08-04T06:38:11.765Z</time>
      </trkpt>
      <trkpt lat="42.52911" lon="1.57111">
        <ele>1240.0</ele>
        <time>2019-08-04T06:38:12.786Z</time>
      </trkpt>
      <trkpt lat="42.52911" lon="1.57111">
        <ele>1240.0</ele>
        <time>2019-08-04T06:38:13.767Z</time>
      </trkpt>
      <trkpt lat="42.52909" lon="1.57117">
        <ele>1233.0</ele>
        <time>2019-08-04T06:38:14.779Z</time>
      </trkpt>
      <trkpt lat="42.52909" lon="1.57117">
        <ele>1233.0</ele>
        <time>2019-08-04T06:38:15.773Z</time>
      </trkpt>
      <trkpt lat="42.52913" lon="1.57123667">
        <ele>1234.0</ele>
        <time>2019-08-04T06:38:16.769Z</time>
      </trkpt>
      <trkpt lat="42.52913" lon="1.57123667">
        <ele>1234.0</ele>
        <time>2019-08-04T06:38:17.781Z</time>
      </trkpt>
      <trkpt lat="42.52917" lon="1.57131167">
        <ele>1234.0</ele>
        <time>2019-08-04T06:38:18.768Z</time>
      </trkpt>
      <trkpt lat="42.52917" lon="1.57131167">
        <ele>1234.0</ele>
        <time>2019-08-04T06:38:19.802Z</time>
      </trkpt>
      <trkpt lat="42.52920333" lon="1.571385">
        <ele>1235.0</ele>
        <time>2019-08-04T06:38:20.782Z</time>
      </trkpt>
      <trkpt lat="42.52920333" lon="1.571385">
        <ele>1235.0</ele>
        <time>2019-08-04T06:38:21.804Z</time>
      </trkpt>
      <trkpt lat="42.52923833" lon="1.57146">
        <ele>1236.0</ele>
        <time>2019-08-04T06:38:22.786Z</time>
      </trkpt>
      <trkpt lat="42.52923833" lon="1.57146">
        <ele>1236.0</ele>
        <time>2019-08-04T06:38:23.766Z</time>
      </trkpt>
      <trkpt lat="42.52927333" lon="1.57152833">
        <ele>1237.0</ele>
        <time>2019-08-04T06:38:24.769Z</time>
      </trkpt>
      <trkpt lat="42.52929333" lon="1.57155833">
        <ele>1238.0</ele>
        <time>2019-08-04T06:38:25.770Z</time>
      </trkpt>
      <trkpt lat="42.52929333" lon="1.57155833">
        <ele>1238.0</ele>
        <time>2019-08-04T06:38:26.766Z</time>
      </trkpt>
      <trkpt lat="42.52935167" lon="1.57160667">
        <ele>1240.0</ele>
        <time>2019-08-04T06:38:27.769Z</time>
      </trkpt>
      <trkpt lat="42.52938333" lon="1.571615">
        <ele>1241.0</ele>
        <time>2019-08-04T06:38:28.769Z</time>
      </trkpt>
      <trkpt lat="42.52938333" lon="1.571615">
        <ele>1241.0</ele>
        <time>2019-08-04T06:38:29.803Z</time>
      </trkpt>
      <trkpt lat="42.52946" lon="1.57159">
        <ele>1242.0</ele>
        <time>2019-08-04T06:38:30.784Z</time>
      </trkpt>
      <trkpt lat="42.529495" lon="1.57155167">
        <ele>1243.0</ele>
        <time>2019-08-04T06:38:31.769Z</time>
      </trkpt>
      <trkpt lat="42.529495" lon="1.57155167">
        <ele>1243.0</ele>
        <time>2019-08-04T06:38:32.782Z</time>
      </trkpt>
      <trkpt lat="42.52953167" lon="1.57144">
        <ele>1243.0</ele>
        <time>2019-08-04T06:38:33.767Z</time>
      </trkpt>
      <trkpt lat="42.52954167" lon="1.571375">
        <ele>1244.0</ele>
        <time>2019-08-04T06:38:34.769Z</time>
      </trkpt>
      <trkpt lat="42.52954167" lon="1.571375">
        <ele>1244.0</ele>
        <time>2019-08-04T06:38:35.777Z</time>
      </trkpt>
      <trkpt lat="42.52956167" lon="1.571235">
        <ele>1244.0</ele>
        <time>2019-08-04T06:38:36.771Z</time>
      </trkpt>
      <trkpt lat="42.52956167" lon="1.571235">
        <ele>1244.0</ele>
        <time>2019-08-04T06:38:37.765Z</time>
      </trkpt>
      <trkpt lat="42.52961" lon="1.57112333">
        <ele>1242.0</ele>
        <time>2019-08-04T06:38:38.785Z</time>
      </trkpt>
      <trkpt lat="42.52961" lon="1.57112333">
        <ele>1242.0</ele>
        <time>2019-08-04T06:38:39.766Z</time>
      </trkpt>
      <trkpt lat="42.52967667" lon="1.57102">
        <ele>1240.0</ele>
        <time>2019-08-04T06:38:40.770Z</time>
      </trkpt>
      <trkpt lat="42.52967667" lon="1.57102">
        <ele>1240.0</ele>
        <time>2019-08-04T06:38:41.766Z</time>
      </trkpt>
      <trkpt lat="42.52976667" lon="1.570895">
        <ele>1236.0</ele>
        <time>2019-08-04T06:38:42.797Z</time>
      </trkpt>
      <trkpt lat="42.52982" lon="1.570825">
        <ele>1235.0</ele>
        <time>2019-08-04T06:38:43.777Z</time>
      </trkpt>
      <trkpt lat="42.52982" lon="1.570825">
        <ele>1235.0</ele>
        <time>2019-08-04T06:38:44.767Z</time>
      </trkpt>
      <trkpt lat="42.52992" lon="1.57066667">
        <ele>1233.0</ele>
        <time>2019-08-04T06:38:45.775Z</time>
      </trkpt>
      <trkpt lat="42.52997667" lon="1.57058">
        <ele>1233.0</ele>
        <time>2019-08-04T06:38:46.769Z</time>
      </trkpt>
      <trkpt lat="42.52997667" lon="1.57058">
        <ele>1233.0</ele>
        <time>2019-08-04T06:38:47.770Z</time>
      </trkpt>
      <trkpt lat="42.53007833" lon="1.57042833">
        <ele>1231.0</ele>
        <time>2019-08-04T06:38:48.768Z</time>
      </trkpt>
      <trkpt lat="42.53007833" lon="1.57042833">
        <ele>1231.0</ele>
        <time>2019-08-04T06:38:49.765Z</time>
      </trkpt>
      <trkpt lat="42.53018833" lon="1.57032667">
        <ele>1230.0</ele>
        <time>2019-08-04T06:38:50.770Z</time>
      </trkpt>
      <trkpt lat="42.53018833" lon="1.57032667">
        <ele>1230.0</ele>
        <time>2019-08-04T06:38:51.803Z</time>
      </trkpt>
      <trkpt lat="42.530315" lon="1.570305">
        <ele>1229.0</ele>
        <time>2019-08-04T06:38:52.797Z</time>
      </trkpt>
      <trkpt lat="42.530315" lon="1.570305">
        <ele>1229.0</ele>
        <time>2019-08-04T06:38:53.778Z</time>
      </trkpt>
      <trkpt lat="42.53043833" lon="1.57037">
        <ele>1228.0</ele>
        <time>2019-08-04T06:38:54.768Z</time>
      </trkpt>
      <trkpt lat="42.53050833" lon="1.57041167">
        <ele>1228.0</ele>
        <time>2019-08-04T06:38:55.795Z</time>
      </trkpt>
      <trkpt lat="42.530575" lon="1.570445">
        <ele>1227.0</ele>
        <time>2019-08-04T06:38:56.777Z</time>
      </trkpt>
      <trkpt lat="42.530575" lon="1.570445">
        <ele>1227.0</ele>
        <time>2019-08-04T06:38:57.766Z</time>
      </trkpt>
      <trkpt lat="42.53070333" lon="1.57051667">
        <ele>1227.0</ele>
        <time>2019-08-04T06:38:58.768Z</time>
      </trkpt>
      <trkpt lat="42.53070333" lon="1.57051667">
        <ele>1227.0</ele>
        <time>2019-08-04T06:38:59.765Z</time>
      </trkpt>
      <trkpt lat="42.53083833" lon="1.570555">
        <ele>1226.0</ele>
        <time>2019-08-04T06:39:00.768Z</time>
      </trkpt>
      <trkpt lat="42.53083833" lon="1.570555">
        <ele>1226.0</ele>
        <time>2019-08-04T06:39:01.765Z</time>
      </trkpt>
      <trkpt lat="42.53093833" lon="1.57059167">
        <ele>1226.0</ele>
        <time>2019-08-04T06:39:02.791Z</time>
      </trkpt>
      <trkpt lat="42.53093833" lon="1.57059167">
        <ele>1226.0</ele>
        <time>2019-08-04T06:39:03.771Z</time>
      </trkpt>
      <trkpt lat="42.53104667" lon="1.570605">
        <ele>1225.0</ele>
        <time>2019-08-04T06:39:04.770Z</time>
      </trkpt>
      <trkpt lat="42.53104667" lon="1.570605">
        <ele>1225.0</ele>
        <time>2019-08-04T06:39:05.792Z</time>
      </trkpt>
      <trkpt lat="42.53114833" lon="1.570625">
        <ele>1225.0</ele>
        <time>2019-08-04T06:39:06.769Z</time>
      </trkpt>
      <trkpt lat="42.53114833" lon="1.570625">
        <ele>1225.0</ele>
        <time>2019-08-04T06:39:07.804Z</time>
      </trkpt>
      <trkpt lat="42.53123833" lon="1.57063667">
        <ele>1224.0</ele>
        <time>2019-08-04T06:39:08.784Z</time>
      </trkpt>
      <trkpt lat="42.53123833" lon="1.57063667">
        <ele>1224.0</ele>
        <time>2019-08-04T06:39:09.766Z</time>
      </trkpt>
      <trkpt lat="42.53131167" lon="1.57065333">
        <ele>1223.0</ele>
        <time>2019-08-04T06:39:10.769Z</time>
      </trkpt>
      <trkpt lat="42.53131167" lon="1.57065333">
        <ele>1223.0</ele>
        <time>2019-08-04T06:39:11.766Z</time>
      </trkpt>
      <trkpt lat="42.53136833" lon="1.57071667">
        <ele>1223.0</ele>
        <time>2019-08-04T06:39:12.784Z</time>
      </trkpt>
      <trkpt lat="42.53136833" lon="1.57071667">
        <ele>1223.0</ele>
        <time>2019-08-04T06:39:13.765Z</time>
      </trkpt>
      <trkpt lat="42.53146333" lon="1.57078167">
        <ele>1224.0</ele>
        <time>2019-08-04T06:39:14.786Z</time>
      </trkpt>
      <trkpt lat="42.53146333" lon="1.57078167">
        <ele>1224.0</ele>
        <time>2019-08-04T06:39:15.768Z</time>
      </trkpt>
      <trkpt lat="42.53154" lon="1.57083833">
        <ele>1224.0</ele>
        <time>2019-08-04T06:39:16.777Z</time>
      </trkpt>
      <trkpt lat="42.53154" lon="1.57083833">
        <ele>1224.0</ele>
        <time>2019-08-04T06:39:17.770Z</time>
      </trkpt>
      <trkpt lat="42.53162" lon="1.57089">
        <ele>1224.0</ele>
        <time>2019-08-04T06:39:18.770Z</time>
      </trkpt>
      <trkpt lat="42.53162" lon="1.57089">
        <ele>1224.0</ele>
        <time>2019-08-04T06:39:19.766Z</time>
      </trkpt>
      <trkpt lat="42.5317" lon="1.57094">
        <ele>1224.0</ele>
        <time>2019-08-04T06:39:20.771Z</time>
      </trkpt>
      <trkpt lat="42.5317" lon="1.57094">
        <ele>1224.0</ele>
        <time>2019-08-04T06:39:21.800Z</time>
      </trkpt>
      <trkpt lat="42.53180333" lon="1.57099833">
        <ele>1224.0</ele>
        <time>2019-08-04T06:39:22.792Z</time>
      </trkpt>
      <trkpt lat="42.53180333" lon="1.57099833">
        <ele>1224.0</ele>
        <time>2019-08-04T06:39:23.771Z</time>
      </trkpt>
      <trkpt lat="42.531885" lon="1.57105">
        <ele>1224.0</ele>
        <time>2019-08-04T06:39:24.769Z</time>
      </trkpt>
      <trkpt lat="42.53193167" lon="1.57108167">
        <ele>1225.0</ele>
        <time>2019-08-04T06:39:25.769Z</time>
      </trkpt>
      <trkpt lat="42.53198833" lon="1.57110833">
        <ele>1225.0</ele>
        <time>2019-08-04T06:39:26.778Z</time>
      </trkpt>
      <trkpt lat="42.53198833" lon="1.57110833">
        <ele>1225.0</ele>
        <time>2019-08-04T06:39:27.767Z</time>
      </trkpt>
      <trkpt lat="42.53205667" lon="1.57115667">
        <ele>1225.0</ele>
        <time>2019-08-04T06:39:28.770Z</time>
      </trkpt>
      <trkpt lat="42.53205667" lon="1.57115667">
        <ele>1225.0</ele>
        <time>2019-08-04T06:39:29.767Z</time>
      </trkpt>
      <trkpt lat="42.53212667" lon="1.57120667">
        <ele>1225.0</ele>
        <time>2019-08-04T06:39:30.782Z</time>
      </trkpt>
      <trkpt lat="42.53212667" lon="1.57120667">
        <ele>1225.0</ele>
        <time>2019-08-04T06:39:31.804Z</time>
      </trkpt>
      <trkpt lat="42.53219167" lon="1.57124333">
        <ele>1225.0</ele>
        <time>2019-08-04T06:39:32.787Z</time>
      </trkpt>
      <trkpt lat="42.53219167" lon="1.57124333">
        <ele>1225.0</ele>
        <time>2019-08-04T06:39:33.767Z</time>
      </trkpt>
      <trkpt lat="42.532245" lon="1.57126833">
        <ele>1224.0</ele>
        <time>2019-08-04T06:39:34.770Z</time>
      </trkpt>
      <trkpt lat="42.532245" lon="1.57126833">
        <ele>1224.0</ele>
        <time>2019-08-04T06:39:35.767Z</time>
      </trkpt>
      <trkpt lat="42.53229833" lon="1.57130667">
        <ele>1224.0</ele>
        <time>2019-08-04T06:39:36.802Z</time>
      </trkpt>
      <trkpt lat="42.53229833" lon="1.57130667">
        <ele>1224.0</ele>
        <time>2019-08-04T06:39:37.781Z</time>
      </trkpt>
      <trkpt lat="42.53232333" lon="1.57136833">
        <ele>1224.0</ele>
        <time>2019-08-04T06:39:38.771Z</time>
      </trkpt>
      <trkpt lat="42.53232333" lon="1.57136833">
        <ele>1224.0</ele>
        <time>2019-08-04T06:39:39.766Z</time>
      </trkpt>
      <trkpt lat="42.532435" lon="1.571475">
        <ele>1225.0</ele>
        <time>2019-08-04T06:39:40.774Z</time>
      </trkpt>
      <trkpt lat="42.532435" lon="1.571475">
        <ele>1225.0</ele>
        <time>2019-08-04T06:39:41.766Z</time>
      </trkpt>
      <trkpt lat="42.53250833" lon="1.57158167">
        <ele>1225.0</ele>
        <time>2019-08-04T06:39:42.786Z</time>
      </trkpt>
      <trkpt lat="42.53255" lon="1.57164167">
        <ele>1225.0</ele>
        <time>2019-08-04T06:39:43.770Z</time>
      </trkpt>
      <trkpt lat="42.53255" lon="1.57164167">
        <ele>1225.0</ele>
        <time>2019-08-04T06:39:44.767Z</time>
      </trkpt>
      <trkpt lat="42.53262667" lon="1.57176">
        <ele>1226.0</ele>
        <time>2019-08-04T06:39:45.770Z</time>
      </trkpt>
      <trkpt lat="42.53262667" lon="1.57176">
        <ele>1226.0</ele>
        <time>2019-08-04T06:39:46.799Z</time>
      </trkpt>
      <trkpt lat="42.53270333" lon="1.57187667">
        <ele>1226.0</ele>
        <time>2019-08-04T06:39:47.778Z</time>
      </trkpt>
      <trkpt lat="42.53270333" lon="1.57187667">
        <ele>1226.0</ele>
        <time>2019-08-04T06:39:48.766Z</time>
      </trkpt>
      <trkpt lat="42.532775" lon="1.57200167">
        <ele>1227.0</ele>
        <time>2019-08-04T06:39:49.769Z</time>
      </trkpt>
      <trkpt lat="42.53280833" lon="1.57206333">
        <ele>1227.0</ele>
        <time>2019-08-04T06:39:50.772Z</time>
      </trkpt>
      <trkpt lat="42.53280833" lon="1.57206333">
        <ele>1227.0</ele>
        <time>2019-08-04T06:39:51.803Z</time>
      </trkpt>
      <trkpt lat="42.532865" lon="1.5722">
        <ele>1227.0</ele>
        <time>2019-08-04T06:39:52.786Z</time>
      </trkpt>
      <trkpt lat="42.532865" lon="1.5722">
        <ele>1227.0</ele>
        <time>2019-08-04T06:39:53.766Z</time>
      </trkpt>
      <trkpt lat="42.53293167" lon="1.57233167">
        <ele>1228.0</ele>
        <time>2019-08-04T06:39:54.790Z</time>
      </trkpt>
      <trkpt lat="42.53293167" lon="1.57233167">
        <ele>1228.0</ele>
        <time>2019-08-04T06:39:55.784Z</time>
      </trkpt>
      <trkpt lat="42.53298667" lon="1.57246">
        <ele>1228.0</ele>
        <time>2019-08-04T06:39:56.804Z</time>
      </trkpt>
      <trkpt lat="42.53302167" lon="1.57251333">
        <ele>1228.0</ele>
        <time>2019-08-04T06:39:57.784Z</time>
      </trkpt>
      <trkpt lat="42.53307167" lon="1.57256167">
        <ele>1228.0</ele>
        <time>2019-08-04T06:39:58.770Z</time>
      </trkpt>
      <trkpt lat="42.53307167" lon="1.57256167">
        <ele>1228.0</ele>
        <time>2019-08-04T06:39:59.774Z</time>
      </trkpt>
      <trkpt lat="42.53316333" lon="1.57265333">
        <ele>1229.0</ele>
        <time>2019-08-04T06:40:00.769Z</time>
      </trkpt>
      <trkpt lat="42.533215" lon="1.57269667">
        <ele>1229.0</ele>
        <time>2019-08-04T06:40:01.770Z</time>
      </trkpt>
      <trkpt lat="42.53325333" lon="1.57274">
        <ele>1229.0</ele>
        <time>2019-08-04T06:40:02.765Z</time>
      </trkpt>
      <trkpt lat="42.53330333" lon="1.57278667">
        <ele>1230.0</ele>
        <time>2019-08-04T06:40:03.784Z</time>
      </trkpt>
      <trkpt lat="42.53330333" lon="1.57278667">
        <ele>1230.0</ele>
        <time>2019-08-04T06:40:04.767Z</time>
      </trkpt>
      <trkpt lat="42.53337333" lon="1.57287833">
        <ele>1230.0</ele>
        <time>2019-08-04T06:40:05.787Z</time>
      </trkpt>
      <trkpt lat="42.53337333" lon="1.57287833">
        <ele>1230.0</ele>
        <time>2019-08-04T06:40:06.780Z</time>
      </trkpt>
      <trkpt lat="42.53342167" lon="1.57296833">
        <ele>1231.0</ele>
        <time>2019-08-04T06:40:07.769Z</time>
      </trkpt>
      <trkpt lat="42.53344833" lon="1.57301">
        <ele>1231.0</ele>
        <time>2019-08-04T06:40:08.771Z</time>
      </trkpt>
      <trkpt lat="42.53344833" lon="1.57301">
        <ele>1231.0</ele>
        <time>2019-08-04T06:40:09.767Z</time>
      </trkpt>
      <trkpt lat="42.53348" lon="1.57309667">
        <ele>1231.0</ele>
        <time>2019-08-04T06:40:10.780Z</time>
      </trkpt>
      <trkpt lat="42.53348" lon="1.57309667">
        <ele>1231.0</ele>
        <time>2019-08-04T06:40:11.803Z</time>
      </trkpt>
      <trkpt lat="42.53352667" lon="1.57320333">
        <ele>1232.0</ele>
        <time>2019-08-04T06:40:12.768Z</time>
      </trkpt>
      <trkpt lat="42.53352667" lon="1.57320333">
        <ele>1232.0</ele>
        <time>2019-08-04T06:40:13.766Z</time>
      </trkpt>
      <trkpt lat="42.53355333" lon="1.573305">
        <ele>1232.0</ele>
        <time>2019-08-04T06:40:14.771Z</time>
      </trkpt>
      <trkpt lat="42.53355333" lon="1.573305">
        <ele>1232.0</ele>
        <time>2019-08-04T06:40:15.767Z</time>
      </trkpt>
      <trkpt lat="42.53360333" lon="1.57337333">
        <ele>1233.0</ele>
        <time>2019-08-04T06:40:16.775Z</time>
      </trkpt>
      <trkpt lat="42.53360333" lon="1.57337333">
        <ele>1233.0</ele>
        <time>2019-08-04T06:40:17.768Z</time>
      </trkpt>
      <trkpt lat="42.53368333" lon="1.5734">
        <ele>1233.0</ele>
        <time>2019-08-04T06:40:18.770Z</time>
      </trkpt>
      <trkpt lat="42.53368333" lon="1.5734">
        <ele>1233.0</ele>
        <time>2019-08-04T06:40:19.767Z</time>
      </trkpt>
      <trkpt lat="42.533765" lon="1.57336333">
        <ele>1234.0</ele>
        <time>2019-08-04T06:40:20.780Z</time>
      </trkpt>
      <trkpt lat="42.533765" lon="1.57336333">
        <ele>1234.0</ele>
        <time>2019-08-04T06:40:21.804Z</time>
      </trkpt>
      <trkpt lat="42.53378833" lon="1.57327167">
        <ele>1235.0</ele>
        <time>2019-08-04T06:40:22.786Z</time>
      </trkpt>
      <trkpt lat="42.53378833" lon="1.57327167">
        <ele>1235.0</ele>
        <time>2019-08-04T06:40:23.767Z</time>
      </trkpt>
      <trkpt lat="42.53377333" lon="1.57317833">
        <ele>1235.0</ele>
        <time>2019-08-04T06:40:24.770Z</time>
      </trkpt>
      <trkpt lat="42.53377333" lon="1.57317833">
        <ele>1235.0</ele>
        <time>2019-08-04T06:40:25.804Z</time>
      </trkpt>
      <trkpt lat="42.53375833" lon="1.57307833">
        <ele>1235.0</ele>
        <time>2019-08-04T06:40:26.785Z</time>
      </trkpt>
      <trkpt lat="42.53375833" lon="1.57307833">
        <ele>1235.0</ele>
        <time>2019-08-04T06:40:27.768Z</time>
      </trkpt>
      <trkpt lat="42.53373833" lon="1.57298667">
        <ele>1236.0</ele>
        <time>2019-08-04T06:40:28.770Z</time>
      </trkpt>
      <trkpt lat="42.53373833" lon="1.57298667">
        <ele>1236.0</ele>
        <time>2019-08-04T06:40:29.767Z</time>
      </trkpt>
      <trkpt lat="42.53371333" lon="1.57289833">
        <ele>1237.0</ele>
        <time>2019-08-04T06:40:30.770Z</time>
      </trkpt>
      <trkpt lat="42.53371333" lon="1.57289833">
        <ele>1237.0</ele>
        <time>2019-08-04T06:40:31.766Z</time>
      </trkpt>
      <trkpt lat="42.53369667" lon="1.57279667">
        <ele>1237.0</ele>
        <time>2019-08-04T06:40:32.804Z</time>
      </trkpt>
      <trkpt lat="42.53369667" lon="1.57279667">
        <ele>1237.0</ele>
        <time>2019-08-04T06:40:33.784Z</time>
      </trkpt>
      <trkpt lat="42.53368" lon="1.57269">
        <ele>1237.0</ele>
        <time>2019-08-04T06:40:34.771Z</time>
      </trkpt>
      <trkpt lat="42.53368" lon="1.57269">
        <ele>1237.0</ele>
        <time>2019-08-04T06:40:35.769Z</time>
      </trkpt>
      <trkpt lat="42.53368167" lon="1.572605">
        <ele>1238.0</ele>
        <time>2019-08-04T06:40:36.771Z</time>
      </trkpt>
      <trkpt lat="42.53368167" lon="1.572605">
        <ele>1238.0</ele>
        <time>2019-08-04T06:40:37.767Z</time>
      </trkpt>
      <trkpt lat="42.533705" lon="1.57253833">
        <ele>1238.0</ele>
        <time>2019-08-04T06:40:38.786Z</time>
      </trkpt>
      <trkpt lat="42.533705" lon="1.57253833">
        <ele>1238.0</ele>
        <time>2019-08-04T06:40:39.766Z</time>
      </trkpt>
      <trkpt lat="42.53373833" lon="1.572485">
        <ele>1239.0</ele>
        <time>2019-08-04T06:40:40.770Z</time>
      </trkpt>
      <trkpt lat="42.53373833" lon="1.572485">
        <ele>1239.0</ele>
        <time>2019-08-04T06:40:41.768Z</time>
      </trkpt>
      <trkpt lat="42.53377333" lon="1.57245333">
        <ele>1239.0</ele>
        <time>2019-08-04T06:40:42.778Z</time>
      </trkpt>
      <trkpt lat="42.53377333" lon="1.57245333">
        <ele>1239.0</ele>
        <time>2019-08-04T06:40:43.804Z</time>
      </trkpt>
      <trkpt lat="42.53382333" lon="1.57242">
        <ele>1240.0</ele>
        <time>2019-08-04T06:40:44.784Z</time>
      </trkpt>
      <trkpt lat="42.53382333" lon="1.57242">
        <ele>1240.0</ele>
        <time>2019-08-04T06:40:45.768Z</time>
      </trkpt>
      <trkpt lat="42.53387833" lon="1.57238333">
        <ele>1241.0</ele>
        <time>2019-08-04T06:40:46.770Z</time>
      </trkpt>
      <trkpt lat="42.53387833" lon="1.57238333">
        <ele>1241.0</ele>
        <time>2019-08-04T06:40:47.765Z</time>
      </trkpt>
      <trkpt lat="42.53394" lon="1.572345">
        <ele>1241.0</ele>
        <time>2019-08-04T06:40:48.784Z</time>
      </trkpt>
      <trkpt lat="42.53394" lon="1.572345">
        <ele>1241.0</ele>
        <time>2019-08-04T06:40:49.767Z</time>
      </trkpt>
      <trkpt lat="42.53398333" lon="1.57230833">
        <ele>1242.0</ele>
        <time>2019-08-04T06:40:50.788Z</time>
      </trkpt>
      <trkpt lat="42.53398333" lon="1.57230833">
        <ele>1242.0</ele>
        <time>2019-08-04T06:40:51.767Z</time>
      </trkpt>
      <trkpt lat="42.53402833" lon="1.57227167">
        <ele>1243.0</ele>
        <time>2019-08-04T06:40:52.787Z</time>
      </trkpt>
      <trkpt lat="42.53402833" lon="1.57227167">
        <ele>1243.0</ele>
        <time>2019-08-04T06:40:53.767Z</time>
      </trkpt>
      <trkpt lat="42.53406667" lon="1.57223667">
        <ele>1244.0</ele>
        <time>2019-08-04T06:40:54.782Z</time>
      </trkpt>
      <trkpt lat="42.53406667" lon="1.57223667">
        <ele>1244.0</ele>
        <time>2019-08-04T06:40:55.768Z</time>
      </trkpt>
      <trkpt lat="42.53410167" lon="1.57222">
        <ele>1245.0</ele>
        <time>2019-08-04T06:40:56.779Z</time>
      </trkpt>
      <trkpt lat="42.53410167" lon="1.57222">
        <ele>1245.0</ele>
        <time>2019-08-04T06:40:57.767Z</time>
      </trkpt>
      <trkpt lat="42.53414" lon="1.57219333">
        <ele>1246.0</ele>
        <time>2019-08-04T06:40:58.771Z</time>
      </trkpt>
      <trkpt lat="42.53414" lon="1.57219333">
        <ele>1246.0</ele>
        <time>2019-08-04T06:40:59.765Z</time>
      </trkpt>
      <trkpt lat="42.534175" lon="1.57217">
        <ele>1246.0</ele>
        <time>2019-08-04T06:41:00.784Z</time>
      </trkpt>
      <trkpt lat="42.534175" lon="1.57217">
        <ele>1246.0</ele>
        <time>2019-08-04T06:41:01.767Z</time>
      </trkpt>
      <trkpt lat="42.53420667" lon="1.57212667">
        <ele>1247.0</ele>
        <time>2019-08-04T06:41:02.799Z</time>
      </trkpt>
      <trkpt lat="42.53420667" lon="1.57212667">
        <ele>1247.0</ele>
        <time>2019-08-04T06:41:03.779Z</time>
      </trkpt>
      <trkpt lat="42.53423333" lon="1.572065">
        <ele>1248.0</ele>
        <time>2019-08-04T06:41:04.770Z</time>
      </trkpt>
      <trkpt lat="42.53423333" lon="1.572065">
        <ele>1248.0</ele>
        <time>2019-08-04T06:41:05.769Z</time>
      </trkpt>
      <trkpt lat="42.53424167" lon="1.57198667">
        <ele>1248.0</ele>
        <time>2019-08-04T06:41:06.784Z</time>
      </trkpt>
      <trkpt lat="42.53424167" lon="1.57198667">
        <ele>1248.0</ele>
        <time>2019-08-04T06:41:07.766Z</time>
      </trkpt>
      <trkpt lat="42.53424" lon="1.57190667">
        <ele>1249.0</ele>
        <time>2019-08-04T06:41:08.786Z</time>
      </trkpt>
      <trkpt lat="42.53424" lon="1.57190667">
        <ele>1249.0</ele>
        <time>2019-08-04T06:41:09.769Z</time>
      </trkpt>
      <trkpt lat="42.534225" lon="1.57182833">
        <ele>1250.0</ele>
        <time>2019-08-04T06:41:10.774Z</time>
      </trkpt>
      <trkpt lat="42.534225" lon="1.57182833">
        <ele>1250.0</ele>
        <time>2019-08-04T06:41:11.770Z</time>
      </trkpt>
      <trkpt lat="42.53418833" lon="1.57176833">
        <ele>1251.0</ele>
        <time>2019-08-04T06:41:12.778Z</time>
      </trkpt>
      <trkpt lat="42.53418833" lon="1.57176833">
        <ele>1251.0</ele>
        <time>2019-08-04T06:41:13.769Z</time>
      </trkpt>
      <trkpt lat="42.53414667" lon="1.571745">
        <ele>1251.0</ele>
        <time>2019-08-04T06:41:14.774Z</time>
      </trkpt>
      <trkpt lat="42.53414667" lon="1.571745">
        <ele>1251.0</ele>
        <time>2019-08-04T06:41:15.797Z</time>
      </trkpt>
      <trkpt lat="42.53407667" lon="1.57172667">
        <ele>1252.0</ele>
        <time>2019-08-04T06:41:16.778Z</time>
      </trkpt>
      <trkpt lat="42.53407667" lon="1.57172667">
        <ele>1252.0</ele>
        <time>2019-08-04T06:41:17.778Z</time>
      </trkpt>
      <trkpt lat="42.53401167" lon="1.57172167">
        <ele>1253.0</ele>
        <time>2019-08-04T06:41:18.772Z</time>
      </trkpt>
      <trkpt lat="42.53401167" lon="1.57172167">
        <ele>1253.0</ele>
        <time>2019-08-04T06:41:19.770Z</time>
      </trkpt>
      <trkpt lat="42.53396333" lon="1.57170167">
        <ele>1253.0</ele>
        <time>2019-08-04T06:41:20.776Z</time>
      </trkpt>
      <trkpt lat="42.53396333" lon="1.57170167">
        <ele>1253.0</ele>
        <time>2019-08-04T06:41:21.770Z</time>
      </trkpt>
      <trkpt lat="42.53391" lon="1.57167333">
        <ele>1254.0</ele>
        <time>2019-08-04T06:41:22.804Z</time>
      </trkpt>
      <trkpt lat="42.53391" lon="1.57167333">
        <ele>1254.0</ele>
        <time>2019-08-04T06:41:23.790Z</time>
      </trkpt>
      <trkpt lat="42.53384667" lon="1.57163333">
        <ele>1254.0</ele>
        <time>2019-08-04T06:41:24.772Z</time>
      </trkpt>
      <trkpt lat="42.53384667" lon="1.57163333">
        <ele>1254.0</ele>
        <time>2019-08-04T06:41:25.766Z</time>
      </trkpt>
      <trkpt lat="42.53379167" lon="1.57157833">
        <ele>1255.0</ele>
        <time>2019-08-04T06:41:26.785Z</time>
      </trkpt>
      <trkpt lat="42.53379167" lon="1.57157833">
        <ele>1255.0</ele>
        <time>2019-08-04T06:41:27.770Z</time>
      </trkpt>
      <trkpt lat="42.533755" lon="1.57150833">
        <ele>1255.0</ele>
        <time>2019-08-04T06:41:28.772Z</time>
      </trkpt>
      <trkpt lat="42.533755" lon="1.57150833">
        <ele>1255.0</ele>
        <time>2019-08-04T06:41:29.771Z</time>
      </trkpt>
      <trkpt lat="42.53372167" lon="1.57144">
        <ele>1256.0</ele>
        <time>2019-08-04T06:41:30.776Z</time>
      </trkpt>
      <trkpt lat="42.53372167" lon="1.57144">
        <ele>1256.0</ele>
        <time>2019-08-04T06:41:31.771Z</time>
      </trkpt>
      <trkpt lat="42.53368833" lon="1.57136333">
        <ele>1256.0</ele>
        <time>2019-08-04T06:41:32.769Z</time>
      </trkpt>
      <trkpt lat="42.53368833" lon="1.57136333">
        <ele>1256.0</ele>
        <time>2019-08-04T06:41:33.771Z</time>
      </trkpt>
      <trkpt lat="42.53365833" lon="1.57129">
        <ele>1257.0</ele>
        <time>2019-08-04T06:41:34.775Z</time>
      </trkpt>
      <trkpt lat="42.53365833" lon="1.57129">
        <ele>1257.0</ele>
        <time>2019-08-04T06:41:35.771Z</time>
      </trkpt>
      <trkpt lat="42.53363333" lon="1.57121333">
        <ele>1257.0</ele>
        <time>2019-08-04T06:41:36.772Z</time>
      </trkpt>
      <trkpt lat="42.53363333" lon="1.57121333">
        <ele>1257.0</ele>
        <time>2019-08-04T06:41:37.765Z</time>
      </trkpt>
      <trkpt lat="42.53360667" lon="1.57112333">
        <ele>1258.0</ele>
        <time>2019-08-04T06:41:38.773Z</time>
      </trkpt>
      <trkpt lat="42.53360667" lon="1.57112333">
        <ele>1258.0</ele>
        <time>2019-08-04T06:41:39.769Z</time>
      </trkpt>
      <trkpt lat="42.533585" lon="1.57103167">
        <ele>1259.0</ele>
        <time>2019-08-04T06:41:40.783Z</time>
      </trkpt>
      <trkpt lat="42.533585" lon="1.57103167">
        <ele>1259.0</ele>
        <time>2019-08-04T06:41:41.771Z</time>
      </trkpt>
      <trkpt lat="42.53356333" lon="1.57093333">
        <ele>1259.0</ele>
        <time>2019-08-04T06:41:42.790Z</time>
      </trkpt>
      <trkpt lat="42.53356333" lon="1.57093333">
        <ele>1259.0</ele>
        <time>2019-08-04T06:41:43.782Z</time>
      </trkpt>
      <trkpt lat="42.53353167" lon="1.57083333">
        <ele>1260.0</ele>
        <time>2019-08-04T06:41:44.776Z</time>
      </trkpt>
      <trkpt lat="42.53353167" lon="1.57083333">
        <ele>1260.0</ele>
        <time>2019-08-04T06:41:45.769Z</time>
      </trkpt>
      <trkpt lat="42.53349833" lon="1.57072667">
        <ele>1260.0</ele>
        <time>2019-08-04T06:41:46.771Z</time>
      </trkpt>
      <trkpt lat="42.53349833" lon="1.57072667">
        <ele>1260.0</ele>
        <time>2019-08-04T06:41:47.781Z</time>
      </trkpt>
      <trkpt lat="42.533475" lon="1.57061333">
        <ele>1260.0</ele>
        <time>2019-08-04T06:41:48.774Z</time>
      </trkpt>
      <trkpt lat="42.533475" lon="1.57061333">
        <ele>1260.0</ele>
        <time>2019-08-04T06:41:49.771Z</time>
      </trkpt>
      <trkpt lat="42.53346833" lon="1.5705">
        <ele>1261.0</ele>
        <time>2019-08-04T06:41:50.775Z</time>
      </trkpt>
      <trkpt lat="42.53346833" lon="1.5705">
        <ele>1261.0</ele>
        <time>2019-08-04T06:41:51.771Z</time>
      </trkpt>
      <trkpt lat="42.53349333" lon="1.57040667">
        <ele>1261.0</ele>
        <time>2019-08-04T06:41:52.805Z</time>
      </trkpt>
      <trkpt lat="42.53349333" lon="1.57040667">
        <ele>1261.0</ele>
        <time>2019-08-04T06:41:53.765Z</time>
      </trkpt>
      <trkpt lat="42.53353" lon="1.57032667">
        <ele>1261.0</ele>
        <time>2019-08-04T06:41:54.770Z</time>
      </trkpt>
      <trkpt lat="42.53353" lon="1.57032667">
        <ele>1261.0</ele>
        <time>2019-08-04T06:41:55.785Z</time>
      </trkpt>
      <trkpt lat="42.533565" lon="1.57024833">
        <ele>1262.0</ele>
        <time>2019-08-04T06:41:56.780Z</time>
      </trkpt>
      <trkpt lat="42.533565" lon="1.57024833">
        <ele>1262.0</ele>
        <time>2019-08-04T06:41:57.775Z</time>
      </trkpt>
      <trkpt lat="42.53358333" lon="1.57016167">
        <ele>1262.0</ele>
        <time>2019-08-04T06:41:58.771Z</time>
      </trkpt>
      <trkpt lat="42.53358333" lon="1.57016167">
        <ele>1262.0</ele>
        <time>2019-08-04T06:41:59.768Z</time>
      </trkpt>
      <trkpt lat="42.53355667" lon="1.57005833">
        <ele>1262.0</ele>
        <time>2019-08-04T06:42:00.775Z</time>
      </trkpt>
      <trkpt lat="42.53355667" lon="1.57005833">
        <ele>1262.0</ele>
        <time>2019-08-04T06:42:01.769Z</time>
      </trkpt>
      <trkpt lat="42.53353167" lon="1.56996667">
        <ele>1262.0</ele>
        <time>2019-08-04T06:42:02.800Z</time>
      </trkpt>
      <trkpt lat="42.53353167" lon="1.56996667">
        <ele>1262.0</ele>
        <time>2019-08-04T06:42:03.803Z</time>
      </trkpt>
      <trkpt lat="42.53348833" lon="1.56988833">
        <ele>1262.0</ele>
        <time>2019-08-04T06:42:04.785Z</time>
      </trkpt>
      <trkpt lat="42.53348833" lon="1.56988833">
        <ele>1262.0</ele>
        <time>2019-08-04T06:42:05.803Z</time>
      </trkpt>
      <trkpt lat="42.53341167" lon="1.56982833">
        <ele>1262.0</ele>
        <time>2019-08-04T06:42:06.788Z</time>
      </trkpt>
      <trkpt lat="42.53341167" lon="1.56982833">
        <ele>1262.0</ele>
        <time>2019-08-04T06:42:07.795Z</time>
      </trkpt>
      <trkpt lat="42.53335167" lon="1.56979">
        <ele>1262.0</ele>
        <time>2019-08-04T06:42:08.774Z</time>
      </trkpt>
      <trkpt lat="42.53335167" lon="1.56979">
        <ele>1262.0</ele>
        <time>2019-08-04T06:42:09.768Z</time>
      </trkpt>
      <trkpt lat="42.53328333" lon="1.56977833">
        <ele>1263.0</ele>
        <time>2019-08-04T06:42:10.775Z</time>
      </trkpt>
      <trkpt lat="42.53328333" lon="1.56977833">
        <ele>1263.0</ele>
        <time>2019-08-04T06:42:11.768Z</time>
      </trkpt>
      <trkpt lat="42.53322667" lon="1.56978167">
        <ele>1263.0</ele>
        <time>2019-08-04T06:42:12.789Z</time>
      </trkpt>
      <trkpt lat="42.53322667" lon="1.56978167">
        <ele>1263.0</ele>
        <time>2019-08-04T06:42:13.772Z</time>
      </trkpt>
      <trkpt lat="42.53317333" lon="1.56979">
        <ele>1263.0</ele>
        <time>2019-08-04T06:42:14.772Z</time>
      </trkpt>
      <trkpt lat="42.53317333" lon="1.56979">
        <ele>1263.0</ele>
        <time>2019-08-04T06:42:15.768Z</time>
      </trkpt>
      <trkpt lat="42.533125" lon="1.56979333">
        <ele>1264.0</ele>
        <time>2019-08-04T06:42:16.772Z</time>
      </trkpt>
      <trkpt lat="42.533125" lon="1.56979333">
        <ele>1264.0</ele>
        <time>2019-08-04T06:42:17.784Z</time>
      </trkpt>
      <trkpt lat="42.53307" lon="1.56980167">
        <ele>1264.0</ele>
        <time>2019-08-04T06:42:18.771Z</time>
      </trkpt>
      <trkpt lat="42.53307" lon="1.56980167">
        <ele>1264.0</ele>
        <time>2019-08-04T06:42:19.770Z</time>
      </trkpt>
      <trkpt lat="42.53302167" lon="1.56979667">
        <ele>1265.0</ele>
        <time>2019-08-04T06:42:20.784Z</time>
      </trkpt>
      <trkpt lat="42.53299833" lon="1.56979167">
        <ele>1265.0</ele>
        <time>2019-08-04T06:42:21.793Z</time>
      </trkpt>
      <trkpt lat="42.53299833" lon="1.56979167">
        <ele>1265.0</ele>
        <time>2019-08-04T06:42:22.799Z</time>
      </trkpt>
      <trkpt lat="42.532945" lon="1.56976667">
        <ele>1265.0</ele>
        <time>2019-08-04T06:42:23.768Z</time>
      </trkpt>
      <trkpt lat="42.53291667" lon="1.56975">
        <ele>1266.0</ele>
        <time>2019-08-04T06:42:24.774Z</time>
      </trkpt>
      <trkpt lat="42.53289" lon="1.56973333">
        <ele>1266.0</ele>
        <time>2019-08-04T06:42:25.782Z</time>
      </trkpt>
      <trkpt lat="42.53289" lon="1.56973333">
        <ele>1266.0</ele>
        <time>2019-08-04T06:42:26.769Z</time>
      </trkpt>
      <trkpt lat="42.53284333" lon="1.56967667">
        <ele>1266.0</ele>
        <time>2019-08-04T06:42:27.770Z</time>
      </trkpt>
      <trkpt lat="42.53282333" lon="1.56964833">
        <ele>1266.0</ele>
        <time>2019-08-04T06:42:28.773Z</time>
      </trkpt>
      <trkpt lat="42.53282333" lon="1.56964833">
        <ele>1266.0</ele>
        <time>2019-08-04T06:42:29.766Z</time>
      </trkpt>
      <trkpt lat="42.53278333" lon="1.56959667">
        <ele>1266.0</ele>
        <time>2019-08-04T06:42:30.771Z</time>
      </trkpt>
      <trkpt lat="42.53278333" lon="1.56959667">
        <ele>1266.0</ele>
        <time>2019-08-04T06:42:31.779Z</time>
      </trkpt>
      <trkpt lat="42.53274167" lon="1.56955333">
        <ele>1267.0</ele>
        <time>2019-08-04T06:42:32.765Z</time>
      </trkpt>
      <trkpt lat="42.53274167" lon="1.56955333">
        <ele>1267.0</ele>
        <time>2019-08-04T06:42:33.769Z</time>
      </trkpt>
      <trkpt lat="42.53270333" lon="1.56952167">
        <ele>1267.0</ele>
        <time>2019-08-04T06:42:34.774Z</time>
      </trkpt>
      <trkpt lat="42.53270333" lon="1.56952167">
        <ele>1267.0</ele>
        <time>2019-08-04T06:42:35.770Z</time>
      </trkpt>
      <trkpt lat="42.53266333" lon="1.569495">
        <ele>1267.0</ele>
        <time>2019-08-04T06:42:36.771Z</time>
      </trkpt>
      <trkpt lat="42.53266333" lon="1.569495">
        <ele>1267.0</ele>
        <time>2019-08-04T06:42:37.774Z</time>
      </trkpt>
      <trkpt lat="42.53261833" lon="1.56948167">
        <ele>1268.0</ele>
        <time>2019-08-04T06:42:38.771Z</time>
      </trkpt>
      <trkpt lat="42.53261833" lon="1.56948167">
        <ele>1268.0</ele>
        <time>2019-08-04T06:42:39.766Z</time>
      </trkpt>
      <trkpt lat="42.53257167" lon="1.56948667">
        <ele>1269.0</ele>
        <time>2019-08-04T06:42:40.771Z</time>
      </trkpt>
      <trkpt lat="42.53257167" lon="1.56948667">
        <ele>1269.0</ele>
        <time>2019-08-04T06:42:41.771Z</time>
      </trkpt>
      <trkpt lat="42.53252167" lon="1.56949667">
        <ele>1270.0</ele>
        <time>2019-08-04T06:42:42.793Z</time>
      </trkpt>
      <trkpt lat="42.5325" lon="1.56950333">
        <ele>1270.0</ele>
        <time>2019-08-04T06:42:43.780Z</time>
      </trkpt>
      <trkpt lat="42.53247667" lon="1.56950833">
        <ele>1271.0</ele>
        <time>2019-08-04T06:42:44.773Z</time>
      </trkpt>
      <trkpt lat="42.53247667" lon="1.56950833">
        <ele>1271.0</ele>
        <time>2019-08-04T06:42:45.769Z</time>
      </trkpt>
      <trkpt lat="42.53242667" lon="1.56951667">
        <ele>1271.0</ele>
        <time>2019-08-04T06:42:46.770Z</time>
      </trkpt>
      <trkpt lat="42.53242667" lon="1.56951667">
        <ele>1271.0</ele>
        <time>2019-08-04T06:42:47.776Z</time>
      </trkpt>
      <trkpt lat="42.53237667" lon="1.56952333">
        <ele>1272.0</ele>
        <time>2019-08-04T06:42:48.768Z</time>
      </trkpt>
      <trkpt lat="42.532355" lon="1.56952">
        <ele>1273.0</ele>
        <time>2019-08-04T06:42:49.771Z</time>
      </trkpt>
      <trkpt lat="42.532355" lon="1.56952">
        <ele>1273.0</ele>
        <time>2019-08-04T06:42:50.769Z</time>
      </trkpt>
      <trkpt lat="42.53230833" lon="1.56950833">
        <ele>1273.0</ele>
        <time>2019-08-04T06:42:51.771Z</time>
      </trkpt>
      <trkpt lat="42.532285" lon="1.56949833">
        <ele>1274.0</ele>
        <time>2019-08-04T06:42:52.801Z</time>
      </trkpt>
      <trkpt lat="42.532285" lon="1.56949833">
        <ele>1274.0</ele>
        <time>2019-08-04T06:42:53.785Z</time>
      </trkpt>
      <trkpt lat="42.53224167" lon="1.56946833">
        <ele>1274.0</ele>
        <time>2019-08-04T06:42:54.772Z</time>
      </trkpt>
      <trkpt lat="42.53224167" lon="1.56946833">
        <ele>1274.0</ele>
        <time>2019-08-04T06:42:55.784Z</time>
      </trkpt>
      <trkpt lat="42.53219833" lon="1.56944333">
        <ele>1275.0</ele>
        <time>2019-08-04T06:42:56.774Z</time>
      </trkpt>
      <trkpt lat="42.53219833" lon="1.56944333">
        <ele>1275.0</ele>
        <time>2019-08-04T06:42:57.773Z</time>
      </trkpt>
      <trkpt lat="42.53216833" lon="1.5694">
        <ele>1275.0</ele>
        <time>2019-08-04T06:42:58.769Z</time>
      </trkpt>
      <trkpt lat="42.53216833" lon="1.5694">
        <ele>1275.0</ele>
        <time>2019-08-04T06:42:59.768Z</time>
      </trkpt>
      <trkpt lat="42.53214833" lon="1.56935">
        <ele>1276.0</ele>
        <time>2019-08-04T06:43:00.777Z</time>
      </trkpt>
      <trkpt lat="42.53214833" lon="1.56935">
        <ele>1276.0</ele>
        <time>2019-08-04T06:43:01.769Z</time>
      </trkpt>
      <trkpt lat="42.53212667" lon="1.56929333">
        <ele>1276.0</ele>
        <time>2019-08-04T06:43:02.765Z</time>
      </trkpt>
      <trkpt lat="42.53212667" lon="1.56929333">
        <ele>1276.0</ele>
        <time>2019-08-04T06:43:03.768Z</time>
      </trkpt>
      <trkpt lat="42.53211" lon="1.56923167">
        <ele>1277.0</ele>
        <time>2019-08-04T06:43:04.769Z</time>
      </trkpt>
      <trkpt lat="42.53211" lon="1.56923167">
        <ele>1277.0</ele>
        <time>2019-08-04T06:43:05.768Z</time>
      </trkpt>
      <trkpt lat="42.53210667" lon="1.56917833">
        <ele>1278.0</ele>
        <time>2019-08-04T06:43:06.773Z</time>
      </trkpt>
      <trkpt lat="42.53210667" lon="1.56917833">
        <ele>1278.0</ele>
        <time>2019-08-04T06:43:07.770Z</time>
      </trkpt>
      <trkpt lat="42.53211" lon="1.56912667">
        <ele>1278.0</ele>
        <time>2019-08-04T06:43:08.774Z</time>
      </trkpt>
      <trkpt lat="42.53211" lon="1.56912667">
        <ele>1278.0</ele>
        <time>2019-08-04T06:43:09.772Z</time>
      </trkpt>
      <trkpt lat="42.53212667" lon="1.56907333">
        <ele>1279.0</ele>
        <time>2019-08-04T06:43:10.773Z</time>
      </trkpt>
      <trkpt lat="42.53212667" lon="1.56907333">
        <ele>1279.0</ele>
        <time>2019-08-04T06:43:11.769Z</time>
      </trkpt>
      <trkpt lat="42.53215167" lon="1.569025">
        <ele>1280.0</ele>
        <time>2019-08-04T06:43:12.765Z</time>
      </trkpt>
      <trkpt lat="42.53215167" lon="1.569025">
        <ele>1280.0</ele>
        <time>2019-08-04T06:43:13.787Z</time>
      </trkpt>
      <trkpt lat="42.53218833" lon="1.56897667">
        <ele>1280.0</ele>
        <time>2019-08-04T06:43:14.773Z</time>
      </trkpt>
      <trkpt lat="42.53218833" lon="1.56897667">
        <ele>1280.0</ele>
        <time>2019-08-04T06:43:15.769Z</time>
      </trkpt>
      <trkpt lat="42.53222667" lon="1.56894333">
        <ele>1281.0</ele>
        <time>2019-08-04T06:43:16.769Z</time>
      </trkpt>
      <trkpt lat="42.53222667" lon="1.56894333">
        <ele>1281.0</ele>
        <time>2019-08-04T06:43:17.779Z</time>
      </trkpt>
      <trkpt lat="42.53226167" lon="1.56892">
        <ele>1282.0</ele>
        <time>2019-08-04T06:43:18.772Z</time>
      </trkpt>
      <trkpt lat="42.532275" lon="1.56890667">
        <ele>1282.0</ele>
        <time>2019-08-04T06:43:19.773Z</time>
      </trkpt>
      <trkpt lat="42.532275" lon="1.56890667">
        <ele>1282.0</ele>
        <time>2019-08-04T06:43:20.767Z</time>
      </trkpt>
      <trkpt lat="42.53229833" lon="1.56887667">
        <ele>1283.0</ele>
        <time>2019-08-04T06:43:21.773Z</time>
      </trkpt>
      <trkpt lat="42.532315" lon="1.56885833">
        <ele>1284.0</ele>
        <time>2019-08-04T06:43:22.765Z</time>
      </trkpt>
      <trkpt lat="42.532315" lon="1.56885833">
        <ele>1284.0</ele>
        <time>2019-08-04T06:43:23.785Z</time>
      </trkpt>
      <trkpt lat="42.53235" lon="1.56882">
        <ele>1285.0</ele>
        <time>2019-08-04T06:43:24.772Z</time>
      </trkpt>
      <trkpt lat="42.53235" lon="1.56882">
        <ele>1285.0</ele>
        <time>2019-08-04T06:43:25.769Z</time>
      </trkpt>
      <trkpt lat="42.53239" lon="1.56878167">
        <ele>1286.0</ele>
        <time>2019-08-04T06:43:26.772Z</time>
      </trkpt>
      <trkpt lat="42.53239" lon="1.56878167">
        <ele>1286.0</ele>
        <time>2019-08-04T06:43:27.766Z</time>
      </trkpt>
      <trkpt lat="42.53242833" lon="1.56874667">
        <ele>1287.0</ele>
        <time>2019-08-04T06:43:28.770Z</time>
      </trkpt>
      <trkpt lat="42.53242833" lon="1.56874667">
        <ele>1287.0</ele>
        <time>2019-08-04T06:43:29.769Z</time>
      </trkpt>
      <trkpt lat="42.532465" lon="1.56871667">
        <ele>1287.0</ele>
        <time>2019-08-04T06:43:30.772Z</time>
      </trkpt>
      <trkpt lat="42.532485" lon="1.5687">
        <ele>1288.0</ele>
        <time>2019-08-04T06:43:31.777Z</time>
      </trkpt>
      <trkpt lat="42.532505" lon="1.56868833">
        <ele>1288.0</ele>
        <time>2019-08-04T06:43:32.767Z</time>
      </trkpt>
      <trkpt lat="42.532505" lon="1.56868833">
        <ele>1288.0</ele>
        <time>2019-08-04T06:43:33.769Z</time>
      </trkpt>
      <trkpt lat="42.53254167" lon="1.56865667">
        <ele>1289.0</ele>
        <time>2019-08-04T06:43:34.770Z</time>
      </trkpt>
      <trkpt lat="42.53254167" lon="1.56865667">
        <ele>1289.0</ele>
        <time>2019-08-04T06:43:35.769Z</time>
      </trkpt>
      <trkpt lat="42.53258167" lon="1.56862167">
        <ele>1289.0</ele>
        <time>2019-08-04T06:43:36.771Z</time>
      </trkpt>
      <trkpt lat="42.532605" lon="1.56860667">
        <ele>1290.0</ele>
        <time>2019-08-04T06:43:37.772Z</time>
      </trkpt>
      <trkpt lat="42.532605" lon="1.56860667">
        <ele>1290.0</ele>
        <time>2019-08-04T06:43:38.772Z</time>
      </trkpt>
      <trkpt lat="42.532655" lon="1.56858833">
        <ele>1291.0</ele>
        <time>2019-08-04T06:43:39.771Z</time>
      </trkpt>
      <trkpt lat="42.53267833" lon="1.56858">
        <ele>1291.0</ele>
        <time>2019-08-04T06:43:40.773Z</time>
      </trkpt>
      <trkpt lat="42.53267833" lon="1.56858">
        <ele>1291.0</ele>
        <time>2019-08-04T06:43:41.769Z</time>
      </trkpt>
      <trkpt lat="42.53273" lon="1.56855167">
        <ele>1292.0</ele>
        <time>2019-08-04T06:43:42.801Z</time>
      </trkpt>
      <trkpt lat="42.53273" lon="1.56855167">
        <ele>1292.0</ele>
        <time>2019-08-04T06:43:43.782Z</time>
      </trkpt>
      <trkpt lat="42.53277333" lon="1.56852833">
        <ele>1293.0</ele>
        <time>2019-08-04T06:43:44.774Z</time>
      </trkpt>
      <trkpt lat="42.53277333" lon="1.56852833">
        <ele>1293.0</ele>
        <time>2019-08-04T06:43:45.766Z</time>
      </trkpt>
      <trkpt lat="42.53281667" lon="1.56851833">
        <ele>1294.0</ele>
        <time>2019-08-04T06:43:46.787Z</time>
      </trkpt>
      <trkpt lat="42.53281667" lon="1.56851833">
        <ele>1294.0</ele>
        <time>2019-08-04T06:43:47.769Z</time>
      </trkpt>
      <trkpt lat="42.53285667" lon="1.568515">
        <ele>1295.0</ele>
        <time>2019-08-04T06:43:48.779Z</time>
      </trkpt>
      <trkpt lat="42.53285667" lon="1.568515">
        <ele>1295.0</ele>
        <time>2019-08-04T06:43:49.768Z</time>
      </trkpt>
      <trkpt lat="42.53290333" lon="1.56850667">
        <ele>1296.0</ele>
        <time>2019-08-04T06:43:50.791Z</time>
      </trkpt>
      <trkpt lat="42.53290333" lon="1.56850667">
        <ele>1296.0</ele>
        <time>2019-08-04T06:43:51.770Z</time>
      </trkpt>
      <trkpt lat="42.53295167" lon="1.56850333">
        <ele>1297.0</ele>
        <time>2019-08-04T06:43:52.766Z</time>
      </trkpt>
      <trkpt lat="42.53295167" lon="1.56850333">
        <ele>1297.0</ele>
        <time>2019-08-04T06:43:53.791Z</time>
      </trkpt>
      <trkpt lat="42.53299333" lon="1.5685">
        <ele>1298.0</ele>
        <time>2019-08-04T06:43:54.777Z</time>
      </trkpt>
      <trkpt lat="42.53299333" lon="1.5685">
        <ele>1298.0</ele>
        <time>2019-08-04T06:43:55.769Z</time>
      </trkpt>
      <trkpt lat="42.53303" lon="1.56847">
        <ele>1298.0</ele>
        <time>2019-08-04T06:43:56.774Z</time>
      </trkpt>
      <trkpt lat="42.533045" lon="1.56844833">
        <ele>1299.0</ele>
        <time>2019-08-04T06:43:57.800Z</time>
      </trkpt>
      <trkpt lat="42.53305333" lon="1.56841833">
        <ele>1299.0</ele>
        <time>2019-08-04T06:43:58.782Z</time>
      </trkpt>
      <trkpt lat="42.53305333" lon="1.56841833">
        <ele>1299.0</ele>
        <time>2019-08-04T06:43:59.770Z</time>
      </trkpt>
      <trkpt lat="42.53305667" lon="1.56835667">
        <ele>1300.0</ele>
        <time>2019-08-04T06:44:00.771Z</time>
      </trkpt>
      <trkpt lat="42.53305667" lon="1.56835667">
        <ele>1300.0</ele>
        <time>2019-08-04T06:44:01.767Z</time>
      </trkpt>
      <trkpt lat="42.53302833" lon="1.56830833">
        <ele>1300.0</ele>
        <time>2019-08-04T06:44:02.767Z</time>
      </trkpt>
      <trkpt lat="42.53302833" lon="1.56830833">
        <ele>1300.0</ele>
        <time>2019-08-04T06:44:03.787Z</time>
      </trkpt>
      <trkpt lat="42.53299167" lon="1.56827333">
        <ele>1300.0</ele>
        <time>2019-08-04T06:44:04.774Z</time>
      </trkpt>
      <trkpt lat="42.53299167" lon="1.56827333">
        <ele>1300.0</ele>
        <time>2019-08-04T06:44:05.802Z</time>
      </trkpt>
      <trkpt lat="42.53295167" lon="1.56825333">
        <ele>1300.0</ele>
        <time>2019-08-04T06:44:06.783Z</time>
      </trkpt>
      <trkpt lat="42.53295167" lon="1.56825333">
        <ele>1300.0</ele>
        <time>2019-08-04T06:44:07.769Z</time>
      </trkpt>
      <trkpt lat="42.53290833" lon="1.56823333">
        <ele>1301.0</ele>
        <time>2019-08-04T06:44:08.778Z</time>
      </trkpt>
      <trkpt lat="42.53290833" lon="1.56823333">
        <ele>1301.0</ele>
        <time>2019-08-04T06:44:09.769Z</time>
      </trkpt>
      <trkpt lat="42.532865" lon="1.56821333">
        <ele>1301.0</ele>
        <time>2019-08-04T06:44:10.776Z</time>
      </trkpt>
      <trkpt lat="42.532865" lon="1.56821333">
        <ele>1301.0</ele>
        <time>2019-08-04T06:44:11.766Z</time>
      </trkpt>
      <trkpt lat="42.53281667" lon="1.56820667">
        <ele>1302.0</ele>
        <time>2019-08-04T06:44:12.798Z</time>
      </trkpt>
      <trkpt lat="42.53281667" lon="1.56820667">
        <ele>1302.0</ele>
        <time>2019-08-04T06:44:13.779Z</time>
      </trkpt>
      <trkpt lat="42.53277333" lon="1.56819333">
        <ele>1302.0</ele>
        <time>2019-08-04T06:44:14.773Z</time>
      </trkpt>
      <trkpt lat="42.53277333" lon="1.56819333">
        <ele>1302.0</ele>
        <time>2019-08-04T06:44:15.805Z</time>
      </trkpt>
      <trkpt lat="42.53272167" lon="1.56817667">
        <ele>1303.0</ele>
        <time>2019-08-04T06:44:16.786Z</time>
      </trkpt>
      <trkpt lat="42.53272167" lon="1.56817667">
        <ele>1303.0</ele>
        <time>2019-08-04T06:44:17.778Z</time>
      </trkpt>
      <trkpt lat="42.53266667" lon="1.56816333">
        <ele>1303.0</ele>
        <time>2019-08-04T06:44:18.778Z</time>
      </trkpt>
      <trkpt lat="42.53266667" lon="1.56816333">
        <ele>1303.0</ele>
        <time>2019-08-04T06:44:19.769Z</time>
      </trkpt>
      <trkpt lat="42.53261" lon="1.56814833">
        <ele>1303.0</ele>
        <time>2019-08-04T06:44:20.788Z</time>
      </trkpt>
      <trkpt lat="42.53261" lon="1.56814833">
        <ele>1303.0</ele>
        <time>2019-08-04T06:44:21.769Z</time>
      </trkpt>
      <trkpt lat="42.53254833" lon="1.56813333">
        <ele>1304.0</ele>
        <time>2019-08-04T06:44:22.804Z</time>
      </trkpt>
      <trkpt lat="42.53254833" lon="1.56813333">
        <ele>1304.0</ele>
        <time>2019-08-04T06:44:23.791Z</time>
      </trkpt>
      <trkpt lat="42.53249167" lon="1.568115">
        <ele>1304.0</ele>
        <time>2019-08-04T06:44:24.773Z</time>
      </trkpt>
      <trkpt lat="42.53246333" lon="1.568105">
        <ele>1305.0</ele>
        <time>2019-08-04T06:44:25.786Z</time>
      </trkpt>
      <trkpt lat="42.53246333" lon="1.568105">
        <ele>1305.0</ele>
        <time>2019-08-04T06:44:26.771Z</time>
      </trkpt>
      <trkpt lat="42.53240333" lon="1.56808">
        <ele>1305.0</ele>
        <time>2019-08-04T06:44:27.772Z</time>
      </trkpt>
      <trkpt lat="42.53237167" lon="1.56807167">
        <ele>1305.0</ele>
        <time>2019-08-04T06:44:28.779Z</time>
      </trkpt>
      <trkpt lat="42.53237167" lon="1.56807167">
        <ele>1305.0</ele>
        <time>2019-08-04T06:44:29.766Z</time>
      </trkpt>
      <trkpt lat="42.53230667" lon="1.568055">
        <ele>1306.0</ele>
        <time>2019-08-04T06:44:30.786Z</time>
      </trkpt>
      <trkpt lat="42.53230667" lon="1.568055">
        <ele>1306.0</ele>
        <time>2019-08-04T06:44:31.769Z</time>
      </trkpt>
      <trkpt lat="42.53224" lon="1.56803667">
        <ele>1306.0</ele>
        <time>2019-08-04T06:44:32.804Z</time>
      </trkpt>
      <trkpt lat="42.53224" lon="1.56803667">
        <ele>1306.0</ele>
        <time>2019-08-04T06:44:33.783Z</time>
      </trkpt>
      <trkpt lat="42.53216833" lon="1.568015">
        <ele>1306.0</ele>
        <time>2019-08-04T06:44:34.773Z</time>
      </trkpt>
      <trkpt lat="42.53216833" lon="1.568015">
        <ele>1306.0</ele>
        <time>2019-08-04T06:44:35.770Z</time>
      </trkpt>
      <trkpt lat="42.53209833" lon="1.56798833">
        <ele>1306.0</ele>
        <time>2019-08-04T06:44:36.771Z</time>
      </trkpt>
      <trkpt lat="42.53209833" lon="1.56798833">
        <ele>1306.0</ele>
        <time>2019-08-04T06:44:37.769Z</time>
      </trkpt>
      <trkpt lat="42.53202833" lon="1.56795667">
        <ele>1306.0</ele>
        <time>2019-08-04T06:44:38.793Z</time>
      </trkpt>
      <trkpt lat="42.53202833" lon="1.56795667">
        <ele>1306.0</ele>
        <time>2019-08-04T06:44:39.772Z</time>
      </trkpt>
      <trkpt lat="42.53195667" lon="1.56792">
        <ele>1306.0</ele>
        <time>2019-08-04T06:44:40.792Z</time>
      </trkpt>
      <trkpt lat="42.53195667" lon="1.56792">
        <ele>1306.0</ele>
        <time>2019-08-04T06:44:41.771Z</time>
      </trkpt>
      <trkpt lat="42.53188333" lon="1.56787667">
        <ele>1306.0</ele>
        <time>2019-08-04T06:44:42.801Z</time>
      </trkpt>
      <trkpt lat="42.53188333" lon="1.56787667">
        <ele>1306.0</ele>
        <time>2019-08-04T06:44:43.781Z</time>
      </trkpt>
      <trkpt lat="42.53181167" lon="1.56782833">
        <ele>1306.0</ele>
        <time>2019-08-04T06:44:44.772Z</time>
      </trkpt>
      <trkpt lat="42.53181167" lon="1.56782833">
        <ele>1306.0</ele>
        <time>2019-08-04T06:44:45.770Z</time>
      </trkpt>
      <trkpt lat="42.53173833" lon="1.567775">
        <ele>1307.0</ele>
        <time>2019-08-04T06:44:46.773Z</time>
      </trkpt>
      <trkpt lat="42.53173833" lon="1.567775">
        <ele>1307.0</ele>
        <time>2019-08-04T06:44:47.766Z</time>
      </trkpt>
      <trkpt lat="42.53166833" lon="1.56772333">
        <ele>1307.0</ele>
        <time>2019-08-04T06:44:48.788Z</time>
      </trkpt>
      <trkpt lat="42.53166833" lon="1.56772333">
        <ele>1307.0</ele>
        <time>2019-08-04T06:44:49.769Z</time>
      </trkpt>
      <trkpt lat="42.53160333" lon="1.56766167">
        <ele>1307.0</ele>
        <time>2019-08-04T06:44:50.788Z</time>
      </trkpt>
      <trkpt lat="42.53160333" lon="1.56766167">
        <ele>1307.0</ele>
        <time>2019-08-04T06:44:51.769Z</time>
      </trkpt>
      <trkpt lat="42.53155" lon="1.56757833">
        <ele>1307.0</ele>
        <time>2019-08-04T06:44:52.790Z</time>
      </trkpt>
      <trkpt lat="42.53155" lon="1.56757833">
        <ele>1307.0</ele>
        <time>2019-08-04T06:44:53.770Z</time>
      </trkpt>
      <trkpt lat="42.53151833" lon="1.56748167">
        <ele>1307.0</ele>
        <time>2019-08-04T06:44:54.772Z</time>
      </trkpt>
      <trkpt lat="42.53151833" lon="1.56748167">
        <ele>1307.0</ele>
        <time>2019-08-04T06:44:55.779Z</time>
      </trkpt>
      <trkpt lat="42.53150167" lon="1.56739333">
        <ele>1309.0</ele>
        <time>2019-08-04T06:44:56.775Z</time>
      </trkpt>
      <trkpt lat="42.53150167" lon="1.56739333">
        <ele>1309.0</ele>
        <time>2019-08-04T06:44:57.769Z</time>
      </trkpt>
      <trkpt lat="42.53149333" lon="1.56731333">
        <ele>1309.0</ele>
        <time>2019-08-04T06:44:58.774Z</time>
      </trkpt>
      <trkpt lat="42.53149333" lon="1.56731333">
        <ele>1309.0</ele>
        <time>2019-08-04T06:44:59.767Z</time>
      </trkpt>
      <trkpt lat="42.53148667" lon="1.56723333">
        <ele>1310.0</ele>
        <time>2019-08-04T06:45:00.774Z</time>
      </trkpt>
      <trkpt lat="42.53148667" lon="1.56723333">
        <ele>1310.0</ele>
        <time>2019-08-04T06:45:01.770Z</time>
      </trkpt>
      <trkpt lat="42.53148" lon="1.567155">
        <ele>1311.0</ele>
        <time>2019-08-04T06:45:02.802Z</time>
      </trkpt>
      <trkpt lat="42.53148" lon="1.567155">
        <ele>1311.0</ele>
        <time>2019-08-04T06:45:03.781Z</time>
      </trkpt>
      <trkpt lat="42.53147667" lon="1.56708333">
        <ele>1311.0</ele>
        <time>2019-08-04T06:45:04.774Z</time>
      </trkpt>
      <trkpt lat="42.53147667" lon="1.56708333">
        <ele>1311.0</ele>
        <time>2019-08-04T06:45:05.803Z</time>
      </trkpt>
      <trkpt lat="42.531475" lon="1.56701833">
        <ele>1312.0</ele>
        <time>2019-08-04T06:45:06.772Z</time>
      </trkpt>
      <trkpt lat="42.531475" lon="1.56701833">
        <ele>1312.0</ele>
        <time>2019-08-04T06:45:07.769Z</time>
      </trkpt>
      <trkpt lat="42.53147667" lon="1.56694833">
        <ele>1313.0</ele>
        <time>2019-08-04T06:45:08.788Z</time>
      </trkpt>
      <trkpt lat="42.53147667" lon="1.56694833">
        <ele>1313.0</ele>
        <time>2019-08-04T06:45:09.770Z</time>
      </trkpt>
      <trkpt lat="42.53148333" lon="1.566875">
        <ele>1314.0</ele>
        <time>2019-08-04T06:45:10.774Z</time>
      </trkpt>
      <trkpt lat="42.53148333" lon="1.566875">
        <ele>1314.0</ele>
        <time>2019-08-04T06:45:11.770Z</time>
      </trkpt>
      <trkpt lat="42.53149333" lon="1.5668">
        <ele>1314.0</ele>
        <time>2019-08-04T06:45:12.773Z</time>
      </trkpt>
      <trkpt lat="42.53149333" lon="1.5668">
        <ele>1314.0</ele>
        <time>2019-08-04T06:45:13.770Z</time>
      </trkpt>
      <trkpt lat="42.53150333" lon="1.566725">
        <ele>1315.0</ele>
        <time>2019-08-04T06:45:14.773Z</time>
      </trkpt>
      <trkpt lat="42.53150333" lon="1.566725">
        <ele>1315.0</ele>
        <time>2019-08-04T06:45:15.770Z</time>
      </trkpt>
      <trkpt lat="42.53152" lon="1.566655">
        <ele>1316.0</ele>
        <time>2019-08-04T06:45:16.773Z</time>
      </trkpt>
      <trkpt lat="42.53152" lon="1.566655">
        <ele>1316.0</ele>
        <time>2019-08-04T06:45:17.777Z</time>
      </trkpt>
      <trkpt lat="42.53154333" lon="1.56657667">
        <ele>1316.0</ele>
        <time>2019-08-04T06:45:18.773Z</time>
      </trkpt>
      <trkpt lat="42.53154333" lon="1.56657667">
        <ele>1316.0</ele>
        <time>2019-08-04T06:45:19.771Z</time>
      </trkpt>
      <trkpt lat="42.53156333" lon="1.56650167">
        <ele>1317.0</ele>
        <time>2019-08-04T06:45:20.779Z</time>
      </trkpt>
      <trkpt lat="42.53156333" lon="1.56650167">
        <ele>1317.0</ele>
        <time>2019-08-04T06:45:21.768Z</time>
      </trkpt>
      <trkpt lat="42.53158667" lon="1.566425">
        <ele>1317.0</ele>
        <time>2019-08-04T06:45:22.802Z</time>
      </trkpt>
      <trkpt lat="42.53158667" lon="1.566425">
        <ele>1317.0</ele>
        <time>2019-08-04T06:45:23.790Z</time>
      </trkpt>
      <trkpt lat="42.53161333" lon="1.566355">
        <ele>1318.0</ele>
        <time>2019-08-04T06:45:24.772Z</time>
      </trkpt>
      <trkpt lat="42.53161333" lon="1.566355">
        <ele>1318.0</ele>
        <time>2019-08-04T06:45:25.767Z</time>
      </trkpt>
      <trkpt lat="42.53164167" lon="1.56627167">
        <ele>1318.0</ele>
        <time>2019-08-04T06:45:26.786Z</time>
      </trkpt>
      <trkpt lat="42.53164167" lon="1.56627167">
        <ele>1318.0</ele>
        <time>2019-08-04T06:45:27.770Z</time>
      </trkpt>
      <trkpt lat="42.53168833" lon="1.56617167">
        <ele>1319.0</ele>
        <time>2019-08-04T06:45:28.773Z</time>
      </trkpt>
      <trkpt lat="42.53168833" lon="1.56617167">
        <ele>1319.0</ele>
        <time>2019-08-04T06:45:29.802Z</time>
      </trkpt>
      <trkpt lat="42.53175833" lon="1.56602833">
        <ele>1320.0</ele>
        <time>2019-08-04T06:45:30.787Z</time>
      </trkpt>
      <trkpt lat="42.53175833" lon="1.56602833">
        <ele>1320.0</ele>
        <time>2019-08-04T06:45:31.800Z</time>
      </trkpt>
      <trkpt lat="42.53183667" lon="1.56586667">
        <ele>1320.0</ele>
        <time>2019-08-04T06:45:32.804Z</time>
      </trkpt>
      <trkpt lat="42.53183667" lon="1.56586667">
        <ele>1320.0</ele>
        <time>2019-08-04T06:45:33.784Z</time>
      </trkpt>
      <trkpt lat="42.53191667" lon="1.56570833">
        <ele>1321.0</ele>
        <time>2019-08-04T06:45:34.774Z</time>
      </trkpt>
      <trkpt lat="42.53191667" lon="1.56570833">
        <ele>1321.0</ele>
        <time>2019-08-04T06:45:35.770Z</time>
      </trkpt>
      <trkpt lat="42.53199167" lon="1.56556667">
        <ele>1321.0</ele>
        <time>2019-08-04T06:45:36.776Z</time>
      </trkpt>
      <trkpt lat="42.53202833" lon="1.56550167">
        <ele>1321.0</ele>
        <time>2019-08-04T06:45:37.773Z</time>
      </trkpt>
      <trkpt lat="42.53202833" lon="1.56550167">
        <ele>1321.0</ele>
        <time>2019-08-04T06:45:38.771Z</time>
      </trkpt>
      <trkpt lat="42.53206833" lon="1.56539333">
        <ele>1322.0</ele>
        <time>2019-08-04T06:45:39.793Z</time>
      </trkpt>
      <trkpt lat="42.53207667" lon="1.56535167">
        <ele>1323.0</ele>
        <time>2019-08-04T06:45:40.774Z</time>
      </trkpt>
      <trkpt lat="42.53207667" lon="1.56535167">
        <ele>1323.0</ele>
        <time>2019-08-04T06:45:41.770Z</time>
      </trkpt>
      <trkpt lat="42.53207167" lon="1.56526833">
        <ele>1324.0</ele>
        <time>2019-08-04T06:45:42.801Z</time>
      </trkpt>
      <trkpt lat="42.53207167" lon="1.56526833">
        <ele>1324.0</ele>
        <time>2019-08-04T06:45:43.781Z</time>
      </trkpt>
      <trkpt lat="42.53204167" lon="1.565185">
        <ele>1326.0</ele>
        <time>2019-08-04T06:45:44.773Z</time>
      </trkpt>
      <trkpt lat="42.53204167" lon="1.565185">
        <ele>1326.0</ele>
        <time>2019-08-04T06:45:45.770Z</time>
      </trkpt>
      <trkpt lat="42.53200167" lon="1.56514167">
        <ele>1327.0</ele>
        <time>2019-08-04T06:45:46.774Z</time>
      </trkpt>
      <trkpt lat="42.53200167" lon="1.56514167">
        <ele>1327.0</ele>
        <time>2019-08-04T06:45:47.782Z</time>
      </trkpt>
      <trkpt lat="42.53195" lon="1.56514333">
        <ele>1327.0</ele>
        <time>2019-08-04T06:45:48.773Z</time>
      </trkpt>
      <trkpt lat="42.53192833" lon="1.56515333">
        <ele>1327.0</ele>
        <time>2019-08-04T06:45:49.773Z</time>
      </trkpt>
      <trkpt lat="42.53191167" lon="1.565165">
        <ele>1327.0</ele>
        <time>2019-08-04T06:45:50.774Z</time>
      </trkpt>
      <trkpt lat="42.53191167" lon="1.565165">
        <ele>1327.0</ele>
        <time>2019-08-04T06:45:51.766Z</time>
      </trkpt>
      <trkpt lat="42.53187333" lon="1.56518667">
        <ele>1326.0</ele>
        <time>2019-08-04T06:45:52.766Z</time>
      </trkpt>
      <trkpt lat="42.53187333" lon="1.56518667">
        <ele>1326.0</ele>
        <time>2019-08-04T06:45:53.790Z</time>
      </trkpt>
      <trkpt lat="42.53183667" lon="1.565195">
        <ele>1326.0</ele>
        <time>2019-08-04T06:45:54.771Z</time>
      </trkpt>
      <trkpt lat="42.53183667" lon="1.565195">
        <ele>1326.0</ele>
        <time>2019-08-04T06:45:55.782Z</time>
      </trkpt>
      <trkpt lat="42.53179667" lon="1.56519">
        <ele>1327.0</ele>
        <time>2019-08-04T06:45:56.791Z</time>
      </trkpt>
      <trkpt lat="42.53179667" lon="1.56519">
        <ele>1327.0</ele>
        <time>2019-08-04T06:45:57.793Z</time>
      </trkpt>
      <trkpt lat="42.53175667" lon="1.56517">
        <ele>1327.0</ele>
        <time>2019-08-04T06:45:58.774Z</time>
      </trkpt>
      <trkpt lat="42.53175667" lon="1.56517">
        <ele>1327.0</ele>
        <time>2019-08-04T06:45:59.770Z</time>
      </trkpt>
      <trkpt lat="42.531725" lon="1.56513833">
        <ele>1327.0</ele>
        <time>2019-08-04T06:46:00.784Z</time>
      </trkpt>
      <trkpt lat="42.531725" lon="1.56513833">
        <ele>1327.0</ele>
        <time>2019-08-04T06:46:01.770Z</time>
      </trkpt>
      <trkpt lat="42.531695" lon="1.56509833">
        <ele>1327.0</ele>
        <time>2019-08-04T06:46:02.766Z</time>
      </trkpt>
      <trkpt lat="42.53167333" lon="1.565085">
        <ele>1327.0</ele>
        <time>2019-08-04T06:46:03.787Z</time>
      </trkpt>
      <trkpt lat="42.53167333" lon="1.565085">
        <ele>1327.0</ele>
        <time>2019-08-04T06:46:04.769Z</time>
      </trkpt>
      <trkpt lat="42.53162833" lon="1.565065">
        <ele>1328.0</ele>
        <time>2019-08-04T06:46:05.773Z</time>
      </trkpt>
      <trkpt lat="42.53162833" lon="1.565065">
        <ele>1328.0</ele>
        <time>2019-08-04T06:46:06.783Z</time>
      </trkpt>
      <trkpt lat="42.53158667" lon="1.565045">
        <ele>1328.0</ele>
        <time>2019-08-04T06:46:07.774Z</time>
      </trkpt>
      <trkpt lat="42.53158667" lon="1.565045">
        <ele>1328.0</ele>
        <time>2019-08-04T06:46:08.770Z</time>
      </trkpt>
      <trkpt lat="42.53154667" lon="1.565015">
        <ele>1328.0</ele>
        <time>2019-08-04T06:46:09.775Z</time>
      </trkpt>
      <trkpt lat="42.53153167" lon="1.56499333">
        <ele>1328.0</ele>
        <time>2019-08-04T06:46:10.774Z</time>
      </trkpt>
      <trkpt lat="42.53153167" lon="1.56499333">
        <ele>1328.0</ele>
        <time>2019-08-04T06:46:11.799Z</time>
      </trkpt>
      <trkpt lat="42.53151167" lon="1.56494">
        <ele>1329.0</ele>
        <time>2019-08-04T06:46:12.775Z</time>
      </trkpt>
      <trkpt lat="42.53151167" lon="1.56494">
        <ele>1329.0</ele>
        <time>2019-08-04T06:46:13.770Z</time>
      </trkpt>
      <trkpt lat="42.53149333" lon="1.56488667">
        <ele>1329.0</ele>
        <time>2019-08-04T06:46:14.775Z</time>
      </trkpt>
      <trkpt lat="42.53149333" lon="1.56488667">
        <ele>1329.0</ele>
        <time>2019-08-04T06:46:15.775Z</time>
      </trkpt>
      <trkpt lat="42.531485" lon="1.56484">
        <ele>1330.0</ele>
        <time>2019-08-04T06:46:16.773Z</time>
      </trkpt>
      <trkpt lat="42.531485" lon="1.56484">
        <ele>1330.0</ele>
        <time>2019-08-04T06:46:17.770Z</time>
      </trkpt>
      <trkpt lat="42.53148" lon="1.5648">
        <ele>1330.0</ele>
        <time>2019-08-04T06:46:18.773Z</time>
      </trkpt>
      <trkpt lat="42.53147667" lon="1.56477667">
        <ele>1330.0</ele>
        <time>2019-08-04T06:46:19.777Z</time>
      </trkpt>
      <trkpt lat="42.53147667" lon="1.56477667">
        <ele>1330.0</ele>
        <time>2019-08-04T06:46:20.769Z</time>
      </trkpt>
      <trkpt lat="42.53146667" lon="1.56470833">
        <ele>1331.0</ele>
        <time>2019-08-04T06:46:21.774Z</time>
      </trkpt>
      <trkpt lat="42.53147167" lon="1.564675">
        <ele>1331.0</ele>
        <time>2019-08-04T06:46:22.798Z</time>
      </trkpt>
      <trkpt lat="42.53147167" lon="1.564675">
        <ele>1331.0</ele>
        <time>2019-08-04T06:46:23.791Z</time>
      </trkpt>
      <trkpt lat="42.53149333" lon="1.56462167">
        <ele>1332.0</ele>
        <time>2019-08-04T06:46:24.773Z</time>
      </trkpt>
      <trkpt lat="42.53149333" lon="1.56462167">
        <ele>1332.0</ele>
        <time>2019-08-04T06:46:25.768Z</time>
      </trkpt>
      <trkpt lat="42.53153167" lon="1.56458167">
        <ele>1333.0</ele>
        <time>2019-08-04T06:46:26.788Z</time>
      </trkpt>
      <trkpt lat="42.53153167" lon="1.56458167">
        <ele>1333.0</ele>
        <time>2019-08-04T06:46:27.770Z</time>
      </trkpt>
      <trkpt lat="42.53157333" lon="1.564565">
        <ele>1333.0</ele>
        <time>2019-08-04T06:46:28.798Z</time>
      </trkpt>
      <trkpt lat="42.53157333" lon="1.564565">
        <ele>1333.0</ele>
        <time>2019-08-04T06:46:29.792Z</time>
      </trkpt>
      <trkpt lat="42.53161833" lon="1.56456167">
        <ele>1334.0</ele>
        <time>2019-08-04T06:46:30.773Z</time>
      </trkpt>
      <trkpt lat="42.53161833" lon="1.56456167">
        <ele>1334.0</ele>
        <time>2019-08-04T06:46:31.770Z</time>
      </trkpt>
      <trkpt lat="42.53166333" lon="1.56456833">
        <ele>1334.0</ele>
        <time>2019-08-04T06:46:32.797Z</time>
      </trkpt>
      <trkpt lat="42.53166333" lon="1.56456833">
        <ele>1334.0</ele>
        <time>2019-08-04T06:46:33.787Z</time>
      </trkpt>
      <trkpt lat="42.53170667" lon="1.564565">
        <ele>1334.0</ele>
        <time>2019-08-04T06:46:34.774Z</time>
      </trkpt>
      <trkpt lat="42.53170667" lon="1.564565">
        <ele>1334.0</ele>
        <time>2019-08-04T06:46:35.767Z</time>
      </trkpt>
      <trkpt lat="42.53174667" lon="1.56456333">
        <ele>1335.0</ele>
        <time>2019-08-04T06:46:36.787Z</time>
      </trkpt>
      <trkpt lat="42.53174667" lon="1.56456333">
        <ele>1335.0</ele>
        <time>2019-08-04T06:46:37.770Z</time>
      </trkpt>
      <trkpt lat="42.53179" lon="1.564565">
        <ele>1335.0</ele>
        <time>2019-08-04T06:46:38.789Z</time>
      </trkpt>
      <trkpt lat="42.53179" lon="1.564565">
        <ele>1335.0</ele>
        <time>2019-08-04T06:46:39.769Z</time>
      </trkpt>
      <trkpt lat="42.53183667" lon="1.56457">
        <ele>1336.0</ele>
        <time>2019-08-04T06:46:40.785Z</time>
      </trkpt>
      <trkpt lat="42.53183667" lon="1.56457">
        <ele>1336.0</ele>
        <time>2019-08-04T06:46:41.770Z</time>
      </trkpt>
      <trkpt lat="42.53188" lon="1.56457833">
        <ele>1336.0</ele>
        <time>2019-08-04T06:46:42.766Z</time>
      </trkpt>
      <trkpt lat="42.53188" lon="1.56457833">
        <ele>1336.0</ele>
        <time>2019-08-04T06:46:43.785Z</time>
      </trkpt>
      <trkpt lat="42.53192167" lon="1.56457667">
        <ele>1336.0</ele>
        <time>2019-08-04T06:46:44.773Z</time>
      </trkpt>
      <trkpt lat="42.53192167" lon="1.56457667">
        <ele>1336.0</ele>
        <time>2019-08-04T06:46:45.778Z</time>
      </trkpt>
      <trkpt lat="42.53196167" lon="1.56457833">
        <ele>1337.0</ele>
        <time>2019-08-04T06:46:46.774Z</time>
      </trkpt>
      <trkpt lat="42.53196167" lon="1.56457833">
        <ele>1337.0</ele>
        <time>2019-08-04T06:46:47.770Z</time>
      </trkpt>
      <trkpt lat="42.53200333" lon="1.56459">
        <ele>1338.0</ele>
        <time>2019-08-04T06:46:48.770Z</time>
      </trkpt>
      <trkpt lat="42.53200333" lon="1.56459">
        <ele>1338.0</ele>
        <time>2019-08-04T06:46:49.771Z</time>
      </trkpt>
      <trkpt lat="42.53204167" lon="1.56459167">
        <ele>1339.0</ele>
        <time>2019-08-04T06:46:50.776Z</time>
      </trkpt>
      <trkpt lat="42.53204167" lon="1.56459167">
        <ele>1339.0</ele>
        <time>2019-08-04T06:46:51.770Z</time>
      </trkpt>
      <trkpt lat="42.53208833" lon="1.56457667">
        <ele>1340.0</ele>
        <time>2019-08-04T06:46:52.803Z</time>
      </trkpt>
      <trkpt lat="42.53208833" lon="1.56457667">
        <ele>1340.0</ele>
        <time>2019-08-04T06:46:53.791Z</time>
      </trkpt>
      <trkpt lat="42.53212833" lon="1.56455333">
        <ele>1340.0</ele>
        <time>2019-08-04T06:46:54.773Z</time>
      </trkpt>
      <trkpt lat="42.53212833" lon="1.56455333">
        <ele>1340.0</ele>
        <time>2019-08-04T06:46:55.782Z</time>
      </trkpt>
      <trkpt lat="42.532165" lon="1.56453">
        <ele>1340.0</ele>
        <time>2019-08-04T06:46:56.775Z</time>
      </trkpt>
      <trkpt lat="42.532165" lon="1.56453">
        <ele>1340.0</ele>
        <time>2019-08-04T06:46:57.770Z</time>
      </trkpt>
      <trkpt lat="42.53220167" lon="1.56448833">
        <ele>1340.0</ele>
        <time>2019-08-04T06:46:58.792Z</time>
      </trkpt>
      <trkpt lat="42.53220167" lon="1.56448833">
        <ele>1340.0</ele>
        <time>2019-08-04T06:46:59.773Z</time>
      </trkpt>
      <trkpt lat="42.53222" lon="1.564445">
        <ele>1340.0</ele>
        <time>2019-08-04T06:47:00.778Z</time>
      </trkpt>
      <trkpt lat="42.53222" lon="1.564445">
        <ele>1340.0</ele>
        <time>2019-08-04T06:47:01.771Z</time>
      </trkpt>
      <trkpt lat="42.53223667" lon="1.56439167">
        <ele>1341.0</ele>
        <time>2019-08-04T06:47:02.801Z</time>
      </trkpt>
      <trkpt lat="42.53223667" lon="1.56439167">
        <ele>1341.0</ele>
        <time>2019-08-04T06:47:03.781Z</time>
      </trkpt>
      <trkpt lat="42.532245" lon="1.56434833">
        <ele>1341.0</ele>
        <time>2019-08-04T06:47:04.776Z</time>
      </trkpt>
      <trkpt lat="42.532245" lon="1.56434833">
        <ele>1341.0</ele>
        <time>2019-08-04T06:47:05.771Z</time>
      </trkpt>
      <trkpt lat="42.53225" lon="1.564315">
        <ele>1341.0</ele>
        <time>2019-08-04T06:47:06.774Z</time>
      </trkpt>
      <trkpt lat="42.53225" lon="1.564315">
        <ele>1341.0</ele>
        <time>2019-08-04T06:47:07.772Z</time>
      </trkpt>
      <trkpt lat="42.53225833" lon="1.56427167">
        <ele>1342.0</ele>
        <time>2019-08-04T06:47:08.776Z</time>
      </trkpt>
      <trkpt lat="42.53225833" lon="1.56427167">
        <ele>1342.0</ele>
        <time>2019-08-04T06:47:09.768Z</time>
      </trkpt>
      <trkpt lat="42.53228167" lon="1.56422833">
        <ele>1342.0</ele>
        <time>2019-08-04T06:47:10.775Z</time>
      </trkpt>
      <trkpt lat="42.53228167" lon="1.56422833">
        <ele>1342.0</ele>
        <time>2019-08-04T06:47:11.768Z</time>
      </trkpt>
      <trkpt lat="42.53230667" lon="1.56419167">
        <ele>1342.0</ele>
        <time>2019-08-04T06:47:12.802Z</time>
      </trkpt>
      <trkpt lat="42.53230667" lon="1.56419167">
        <ele>1342.0</ele>
        <time>2019-08-04T06:47:13.782Z</time>
      </trkpt>
      <trkpt lat="42.53233333" lon="1.56416333">
        <ele>1342.0</ele>
        <time>2019-08-04T06:47:14.772Z</time>
      </trkpt>
      <trkpt lat="42.53233333" lon="1.56416333">
        <ele>1342.0</ele>
        <time>2019-08-04T06:47:15.772Z</time>
      </trkpt>
      <trkpt lat="42.53238667" lon="1.56414667">
        <ele>1343.0</ele>
        <time>2019-08-04T06:47:16.779Z</time>
      </trkpt>
      <trkpt lat="42.53238667" lon="1.56414667">
        <ele>1343.0</ele>
        <time>2019-08-04T06:47:17.767Z</time>
      </trkpt>
      <trkpt lat="42.53243333" lon="1.56412833">
        <ele>1343.0</ele>
        <time>2019-08-04T06:47:18.786Z</time>
      </trkpt>
      <trkpt lat="42.53243333" lon="1.56412833">
        <ele>1343.0</ele>
        <time>2019-08-04T06:47:19.768Z</time>
      </trkpt>
      <trkpt lat="42.53246667" lon="1.56410667">
        <ele>1344.0</ele>
        <time>2019-08-04T06:47:20.774Z</time>
      </trkpt>
      <trkpt lat="42.53246667" lon="1.56410667">
        <ele>1344.0</ele>
        <time>2019-08-04T06:47:21.769Z</time>
      </trkpt>
      <trkpt lat="42.53249167" lon="1.56406167">
        <ele>1344.0</ele>
        <time>2019-08-04T06:47:22.802Z</time>
      </trkpt>
      <trkpt lat="42.53249167" lon="1.56406167">
        <ele>1344.0</ele>
        <time>2019-08-04T06:47:23.791Z</time>
      </trkpt>
      <trkpt lat="42.53249167" lon="1.564005">
        <ele>1345.0</ele>
        <time>2019-08-04T06:47:24.772Z</time>
      </trkpt>
      <trkpt lat="42.53249167" lon="1.564005">
        <ele>1345.0</ele>
        <time>2019-08-04T06:47:25.769Z</time>
      </trkpt>
      <trkpt lat="42.532465" lon="1.563965">
        <ele>1345.0</ele>
        <time>2019-08-04T06:47:26.788Z</time>
      </trkpt>
      <trkpt lat="42.53244833" lon="1.56395833">
        <ele>1345.0</ele>
        <time>2019-08-04T06:47:27.774Z</time>
      </trkpt>
      <trkpt lat="42.53244833" lon="1.56395833">
        <ele>1345.0</ele>
        <time>2019-08-04T06:47:28.767Z</time>
      </trkpt>
      <trkpt lat="42.53241167" lon="1.563975">
        <ele>1346.0</ele>
        <time>2019-08-04T06:47:29.797Z</time>
      </trkpt>
      <trkpt lat="42.53241167" lon="1.563975">
        <ele>1346.0</ele>
        <time>2019-08-04T06:47:30.790Z</time>
      </trkpt>
      <trkpt lat="42.53237333" lon="1.563995">
        <ele>1347.0</ele>
        <time>2019-08-04T06:47:31.778Z</time>
      </trkpt>
      <trkpt lat="42.53235833" lon="1.56400333">
        <ele>1348.0</ele>
        <time>2019-08-04T06:47:32.802Z</time>
      </trkpt>
      <trkpt lat="42.53235833" lon="1.56400333">
        <ele>1348.0</ele>
        <time>2019-08-04T06:47:33.782Z</time>
      </trkpt>
      <trkpt lat="42.53232667" lon="1.56401833">
        <ele>1348.0</ele>
        <time>2019-08-04T06:47:34.777Z</time>
      </trkpt>
      <trkpt lat="42.53232667" lon="1.56401833">
        <ele>1348.0</ele>
        <time>2019-08-04T06:47:35.769Z</time>
      </trkpt>
      <trkpt lat="42.532295" lon="1.56403833">
        <ele>1349.0</ele>
        <time>2019-08-04T06:47:36.790Z</time>
      </trkpt>
      <trkpt lat="42.53227" lon="1.564045">
        <ele>1349.0</ele>
        <time>2019-08-04T06:47:37.772Z</time>
      </trkpt>
      <trkpt lat="42.53227" lon="1.564045">
        <ele>1349.0</ele>
        <time>2019-08-04T06:47:38.769Z</time>
      </trkpt>
      <trkpt lat="42.532235" lon="1.56407">
        <ele>1350.0</ele>
        <time>2019-08-04T06:47:39.772Z</time>
      </trkpt>
      <trkpt lat="42.53222167" lon="1.56408167">
        <ele>1350.0</ele>
        <time>2019-08-04T06:47:40.780Z</time>
      </trkpt>
      <trkpt lat="42.53222167" lon="1.56408167">
        <ele>1350.0</ele>
        <time>2019-08-04T06:47:41.768Z</time>
      </trkpt>
      <trkpt lat="42.53219667" lon="1.56410667">
        <ele>1351.0</ele>
        <time>2019-08-04T06:47:42.798Z</time>
      </trkpt>
      <trkpt lat="42.53219667" lon="1.56410667">
        <ele>1351.0</ele>
        <time>2019-08-04T06:47:43.781Z</time>
      </trkpt>
      <trkpt lat="42.53216667" lon="1.56412833">
        <ele>1352.0</ele>
        <time>2019-08-04T06:47:44.774Z</time>
      </trkpt>
      <trkpt lat="42.53216667" lon="1.56412833">
        <ele>1352.0</ele>
        <time>2019-08-04T06:47:45.767Z</time>
      </trkpt>
      <trkpt lat="42.53213833" lon="1.56414833">
        <ele>1352.0</ele>
        <time>2019-08-04T06:47:46.786Z</time>
      </trkpt>
      <trkpt lat="42.53213833" lon="1.56414833">
        <ele>1352.0</ele>
        <time>2019-08-04T06:47:47.769Z</time>
      </trkpt>
      <trkpt lat="42.53210167" lon="1.564165">
        <ele>1353.0</ele>
        <time>2019-08-04T06:47:48.789Z</time>
      </trkpt>
      <trkpt lat="42.53210167" lon="1.564165">
        <ele>1353.0</ele>
        <time>2019-08-04T06:47:49.768Z</time>
      </trkpt>
      <trkpt lat="42.53206667" lon="1.56415833">
        <ele>1354.0</ele>
        <time>2019-08-04T06:47:50.791Z</time>
      </trkpt>
      <trkpt lat="42.53206667" lon="1.56415833">
        <ele>1354.0</ele>
        <time>2019-08-04T06:47:51.769Z</time>
      </trkpt>
      <trkpt lat="42.53203167" lon="1.56413333">
        <ele>1354.0</ele>
        <time>2019-08-04T06:47:52.767Z</time>
      </trkpt>
      <trkpt lat="42.53203167" lon="1.56413333">
        <ele>1354.0</ele>
        <time>2019-08-04T06:47:53.791Z</time>
      </trkpt>
      <trkpt lat="42.531995" lon="1.56410167">
        <ele>1355.0</ele>
        <time>2019-08-04T06:47:54.773Z</time>
      </trkpt>
      <trkpt lat="42.53198167" lon="1.56407833">
        <ele>1355.0</ele>
        <time>2019-08-04T06:47:55.787Z</time>
      </trkpt>
      <trkpt lat="42.53198167" lon="1.56407833">
        <ele>1355.0</ele>
        <time>2019-08-04T06:47:56.767Z</time>
      </trkpt>
      <trkpt lat="42.531955" lon="1.56402833">
        <ele>1355.0</ele>
        <time>2019-08-04T06:47:57.793Z</time>
      </trkpt>
      <trkpt lat="42.531955" lon="1.56402833">
        <ele>1355.0</ele>
        <time>2019-08-04T06:47:58.774Z</time>
      </trkpt>
      <trkpt lat="42.53193" lon="1.56397833">
        <ele>1356.0</ele>
        <time>2019-08-04T06:47:59.780Z</time>
      </trkpt>
      <trkpt lat="42.53191833" lon="1.563955">
        <ele>1356.0</ele>
        <time>2019-08-04T06:48:00.777Z</time>
      </trkpt>
      <trkpt lat="42.53191833" lon="1.563955">
        <ele>1356.0</ele>
        <time>2019-08-04T06:48:01.767Z</time>
      </trkpt>
      <trkpt lat="42.53189667" lon="1.56390667">
        <ele>1357.0</ele>
        <time>2019-08-04T06:48:02.805Z</time>
      </trkpt>
      <trkpt lat="42.53189667" lon="1.56390667">
        <ele>1357.0</ele>
        <time>2019-08-04T06:48:03.786Z</time>
      </trkpt>
      <trkpt lat="42.53187667" lon="1.56386">
        <ele>1357.0</ele>
        <time>2019-08-04T06:48:04.772Z</time>
      </trkpt>
      <trkpt lat="42.53187667" lon="1.56386">
        <ele>1357.0</ele>
        <time>2019-08-04T06:48:05.767Z</time>
      </trkpt>
      <trkpt lat="42.53185667" lon="1.56380833">
        <ele>1357.0</ele>
        <time>2019-08-04T06:48:06.775Z</time>
      </trkpt>
      <trkpt lat="42.53185667" lon="1.56380833">
        <ele>1357.0</ele>
        <time>2019-08-04T06:48:07.773Z</time>
      </trkpt>
      <trkpt lat="42.53183833" lon="1.56375833">
        <ele>1358.0</ele>
        <time>2019-08-04T06:48:08.775Z</time>
      </trkpt>
      <trkpt lat="42.53183833" lon="1.56375833">
        <ele>1358.0</ele>
        <time>2019-08-04T06:48:09.801Z</time>
      </trkpt>
      <trkpt lat="42.53182" lon="1.56371333">
        <ele>1358.0</ele>
        <time>2019-08-04T06:48:10.790Z</time>
      </trkpt>
      <trkpt lat="42.53182" lon="1.56371333">
        <ele>1358.0</ele>
        <time>2019-08-04T06:48:11.769Z</time>
      </trkpt>
      <trkpt lat="42.53180333" lon="1.56366333">
        <ele>1359.0</ele>
        <time>2019-08-04T06:48:12.804Z</time>
      </trkpt>
      <trkpt lat="42.53180333" lon="1.56366333">
        <ele>1359.0</ele>
        <time>2019-08-04T06:48:13.783Z</time>
      </trkpt>
      <trkpt lat="42.53178167" lon="1.56361833">
        <ele>1359.0</ele>
        <time>2019-08-04T06:48:14.775Z</time>
      </trkpt>
      <trkpt lat="42.53178167" lon="1.56361833">
        <ele>1359.0</ele>
        <time>2019-08-04T06:48:15.768Z</time>
      </trkpt>
      <trkpt lat="42.53176" lon="1.563575">
        <ele>1360.0</ele>
        <time>2019-08-04T06:48:16.788Z</time>
      </trkpt>
      <trkpt lat="42.53176" lon="1.563575">
        <ele>1360.0</ele>
        <time>2019-08-04T06:48:17.770Z</time>
      </trkpt>
      <trkpt lat="42.53174" lon="1.56353333">
        <ele>1360.0</ele>
        <time>2019-08-04T06:48:18.789Z</time>
      </trkpt>
      <trkpt lat="42.53174" lon="1.56353333">
        <ele>1360.0</ele>
        <time>2019-08-04T06:48:19.768Z</time>
      </trkpt>
      <trkpt lat="42.53172" lon="1.56349167">
        <ele>1361.0</ele>
        <time>2019-08-04T06:48:20.789Z</time>
      </trkpt>
      <trkpt lat="42.53172" lon="1.56349167">
        <ele>1361.0</ele>
        <time>2019-08-04T06:48:21.769Z</time>
      </trkpt>
      <trkpt lat="42.531695" lon="1.56344833">
        <ele>1361.0</ele>
        <time>2019-08-04T06:48:22.767Z</time>
      </trkpt>
      <trkpt lat="42.531695" lon="1.56344833">
        <ele>1361.0</ele>
        <time>2019-08-04T06:48:23.790Z</time>
      </trkpt>
      <trkpt lat="42.53166667" lon="1.56340833">
        <ele>1361.0</ele>
        <time>2019-08-04T06:48:24.775Z</time>
      </trkpt>
      <trkpt lat="42.531655" lon="1.56338833">
        <ele>1362.0</ele>
        <time>2019-08-04T06:48:25.775Z</time>
      </trkpt>
      <trkpt lat="42.531655" lon="1.56338833">
        <ele>1362.0</ele>
        <time>2019-08-04T06:48:26.768Z</time>
      </trkpt>
      <trkpt lat="42.53163167" lon="1.56335">
        <ele>1362.0</ele>
        <time>2019-08-04T06:48:27.787Z</time>
      </trkpt>
      <trkpt lat="42.53162" lon="1.56333">
        <ele>1362.0</ele>
        <time>2019-08-04T06:48:28.775Z</time>
      </trkpt>
      <trkpt lat="42.53162" lon="1.56333">
        <ele>1362.0</ele>
        <time>2019-08-04T06:48:29.768Z</time>
      </trkpt>
      <trkpt lat="42.531595" lon="1.56329167">
        <ele>1362.0</ele>
        <time>2019-08-04T06:48:30.791Z</time>
      </trkpt>
      <trkpt lat="42.531595" lon="1.56329167">
        <ele>1362.0</ele>
        <time>2019-08-04T06:48:31.780Z</time>
      </trkpt>
      <trkpt lat="42.53157833" lon="1.56325667">
        <ele>1363.0</ele>
        <time>2019-08-04T06:48:32.799Z</time>
      </trkpt>
      <trkpt lat="42.53157833" lon="1.56325667">
        <ele>1363.0</ele>
        <time>2019-08-04T06:48:33.781Z</time>
      </trkpt>
      <trkpt lat="42.53154833" lon="1.56322">
        <ele>1363.0</ele>
        <time>2019-08-04T06:48:34.779Z</time>
      </trkpt>
      <trkpt lat="42.53154833" lon="1.56322">
        <ele>1363.0</ele>
        <time>2019-08-04T06:48:35.767Z</time>
      </trkpt>
      <trkpt lat="42.53151833" lon="1.56318">
        <ele>1363.0</ele>
        <time>2019-08-04T06:48:36.788Z</time>
      </trkpt>
      <trkpt lat="42.53151833" lon="1.56318">
        <ele>1363.0</ele>
        <time>2019-08-04T06:48:37.770Z</time>
      </trkpt>
      <trkpt lat="42.53148833" lon="1.56314167">
        <ele>1364.0</ele>
        <time>2019-08-04T06:48:38.777Z</time>
      </trkpt>
      <trkpt lat="42.53148833" lon="1.56314167">
        <ele>1364.0</ele>
        <time>2019-08-04T06:48:39.768Z</time>
      </trkpt>
      <trkpt lat="42.53145833" lon="1.56310667">
        <ele>1364.0</ele>
        <time>2019-08-04T06:48:40.794Z</time>
      </trkpt>
      <trkpt lat="42.53145833" lon="1.56310667">
        <ele>1364.0</ele>
        <time>2019-08-04T06:48:41.768Z</time>
      </trkpt>
      <trkpt lat="42.53143167" lon="1.56307167">
        <ele>1365.0</ele>
        <time>2019-08-04T06:48:42.771Z</time>
      </trkpt>
      <trkpt lat="42.53143167" lon="1.56307167">
        <ele>1365.0</ele>
        <time>2019-08-04T06:48:43.767Z</time>
      </trkpt>
      <trkpt lat="42.53141" lon="1.56302667">
        <ele>1365.0</ele>
        <time>2019-08-04T06:48:44.786Z</time>
      </trkpt>
      <trkpt lat="42.53141" lon="1.56302667">
        <ele>1365.0</ele>
        <time>2019-08-04T06:48:45.770Z</time>
      </trkpt>
      <trkpt lat="42.53138667" lon="1.56298333">
        <ele>1365.0</ele>
        <time>2019-08-04T06:48:46.790Z</time>
      </trkpt>
      <trkpt lat="42.53138667" lon="1.56298333">
        <ele>1365.0</ele>
        <time>2019-08-04T06:48:47.770Z</time>
      </trkpt>
      <trkpt lat="42.531365" lon="1.562935">
        <ele>1366.0</ele>
        <time>2019-08-04T06:48:48.790Z</time>
      </trkpt>
      <trkpt lat="42.531365" lon="1.562935">
        <ele>1366.0</ele>
        <time>2019-08-04T06:48:49.772Z</time>
      </trkpt>
      <trkpt lat="42.53134167" lon="1.56288833">
        <ele>1366.0</ele>
        <time>2019-08-04T06:48:50.775Z</time>
      </trkpt>
      <trkpt lat="42.53134167" lon="1.56288833">
        <ele>1366.0</ele>
        <time>2019-08-04T06:48:51.768Z</time>
      </trkpt>
      <trkpt lat="42.53132" lon="1.56284">
        <ele>1367.0</ele>
        <time>2019-08-04T06:48:52.766Z</time>
      </trkpt>
      <trkpt lat="42.53132" lon="1.56284">
        <ele>1367.0</ele>
        <time>2019-08-04T06:48:53.791Z</time>
      </trkpt>
      <trkpt lat="42.53130167" lon="1.562795">
        <ele>1367.0</ele>
        <time>2019-08-04T06:48:54.770Z</time>
      </trkpt>
      <trkpt lat="42.53130167" lon="1.562795">
        <ele>1367.0</ele>
        <time>2019-08-04T06:48:55.794Z</time>
      </trkpt>
      <trkpt lat="42.53128167" lon="1.562755">
        <ele>1368.0</ele>
        <time>2019-08-04T06:48:56.777Z</time>
      </trkpt>
      <trkpt lat="42.53128167" lon="1.562755">
        <ele>1368.0</ele>
        <time>2019-08-04T06:48:57.767Z</time>
      </trkpt>
      <trkpt lat="42.531265" lon="1.56271333">
        <ele>1368.0</ele>
        <time>2019-08-04T06:48:58.777Z</time>
      </trkpt>
      <trkpt lat="42.531265" lon="1.56271333">
        <ele>1368.0</ele>
        <time>2019-08-04T06:48:59.767Z</time>
      </trkpt>
      <trkpt lat="42.53125" lon="1.56266833">
        <ele>1369.0</ele>
        <time>2019-08-04T06:49:00.772Z</time>
      </trkpt>
      <trkpt lat="42.53125" lon="1.56266833">
        <ele>1369.0</ele>
        <time>2019-08-04T06:49:01.768Z</time>
      </trkpt>
      <trkpt lat="42.531245" lon="1.562625">
        <ele>1369.0</ele>
        <time>2019-08-04T06:49:02.802Z</time>
      </trkpt>
      <trkpt lat="42.531245" lon="1.562625">
        <ele>1369.0</ele>
        <time>2019-08-04T06:49:03.782Z</time>
      </trkpt>
      <trkpt lat="42.53126833" lon="1.56258333">
        <ele>1370.0</ele>
        <time>2019-08-04T06:49:04.773Z</time>
      </trkpt>
      <trkpt lat="42.53126833" lon="1.56258333">
        <ele>1370.0</ele>
        <time>2019-08-04T06:49:05.769Z</time>
      </trkpt>
      <trkpt lat="42.53129333" lon="1.56256667">
        <ele>1371.0</ele>
        <time>2019-08-04T06:49:06.777Z</time>
      </trkpt>
      <trkpt lat="42.53129333" lon="1.56256667">
        <ele>1371.0</ele>
        <time>2019-08-04T06:49:07.768Z</time>
      </trkpt>
      <trkpt lat="42.53133" lon="1.56257333">
        <ele>1372.0</ele>
        <time>2019-08-04T06:49:08.788Z</time>
      </trkpt>
      <trkpt lat="42.53133" lon="1.56257333">
        <ele>1372.0</ele>
        <time>2019-08-04T06:49:09.768Z</time>
      </trkpt>
      <trkpt lat="42.53136333" lon="1.56260667">
        <ele>1372.0</ele>
        <time>2019-08-04T06:49:10.788Z</time>
      </trkpt>
      <trkpt lat="42.53136333" lon="1.56260667">
        <ele>1372.0</ele>
        <time>2019-08-04T06:49:11.775Z</time>
      </trkpt>
      <trkpt lat="42.53138833" lon="1.56266167">
        <ele>1373.0</ele>
        <time>2019-08-04T06:49:12.766Z</time>
      </trkpt>
      <trkpt lat="42.53138833" lon="1.56266167">
        <ele>1373.0</ele>
        <time>2019-08-04T06:49:13.786Z</time>
      </trkpt>
      <trkpt lat="42.53140667" lon="1.56270667">
        <ele>1374.0</ele>
        <time>2019-08-04T06:49:14.774Z</time>
      </trkpt>
      <trkpt lat="42.531415" lon="1.56272833">
        <ele>1375.0</ele>
        <time>2019-08-04T06:49:15.777Z</time>
      </trkpt>
      <trkpt lat="42.531415" lon="1.56272833">
        <ele>1375.0</ele>
        <time>2019-08-04T06:49:16.773Z</time>
      </trkpt>
      <trkpt lat="42.531435" lon="1.56277">
        <ele>1376.0</ele>
        <time>2019-08-04T06:49:17.781Z</time>
      </trkpt>
      <trkpt lat="42.531435" lon="1.56277">
        <ele>1376.0</ele>
        <time>2019-08-04T06:49:18.768Z</time>
      </trkpt>
      <trkpt lat="42.53146333" lon="1.562805">
        <ele>1377.0</ele>
        <time>2019-08-04T06:49:19.788Z</time>
      </trkpt>
      <trkpt lat="42.53148167" lon="1.56282333">
        <ele>1377.0</ele>
        <time>2019-08-04T06:49:20.775Z</time>
      </trkpt>
      <trkpt lat="42.53148167" lon="1.56282333">
        <ele>1377.0</ele>
        <time>2019-08-04T06:49:21.772Z</time>
      </trkpt>
      <trkpt lat="42.53151333" lon="1.56285333">
        <ele>1378.0</ele>
        <time>2019-08-04T06:49:22.768Z</time>
      </trkpt>
      <trkpt lat="42.53151333" lon="1.56285333">
        <ele>1378.0</ele>
        <time>2019-08-04T06:49:23.787Z</time>
      </trkpt>
      <trkpt lat="42.53154333" lon="1.56286667">
        <ele>1378.0</ele>
        <time>2019-08-04T06:49:24.775Z</time>
      </trkpt>
      <trkpt lat="42.53154333" lon="1.56286667">
        <ele>1378.0</ele>
        <time>2019-08-04T06:49:25.768Z</time>
      </trkpt>
      <trkpt lat="42.53157333" lon="1.562885">
        <ele>1379.0</ele>
        <time>2019-08-04T06:49:26.788Z</time>
      </trkpt>
      <trkpt lat="42.53157333" lon="1.562885">
        <ele>1379.0</ele>
        <time>2019-08-04T06:49:27.768Z</time>
      </trkpt>
      <trkpt lat="42.53160833" lon="1.56290833">
        <ele>1380.0</ele>
        <time>2019-08-04T06:49:28.789Z</time>
      </trkpt>
      <trkpt lat="42.53160833" lon="1.56290833">
        <ele>1380.0</ele>
        <time>2019-08-04T06:49:29.778Z</time>
      </trkpt>
      <trkpt lat="42.53164" lon="1.56292667">
        <ele>1380.0</ele>
        <time>2019-08-04T06:49:30.772Z</time>
      </trkpt>
      <trkpt lat="42.53164" lon="1.56292667">
        <ele>1380.0</ele>
        <time>2019-08-04T06:49:31.772Z</time>
      </trkpt>
      <trkpt lat="42.53167333" lon="1.56294833">
        <ele>1381.0</ele>
        <time>2019-08-04T06:49:32.768Z</time>
      </trkpt>
      <trkpt lat="42.53167333" lon="1.56294833">
        <ele>1381.0</ele>
        <time>2019-08-04T06:49:33.788Z</time>
      </trkpt>
      <trkpt lat="42.53171" lon="1.562965">
        <ele>1382.0</ele>
        <time>2019-08-04T06:49:34.776Z</time>
      </trkpt>
      <trkpt lat="42.53171" lon="1.562965">
        <ele>1382.0</ele>
        <time>2019-08-04T06:49:35.769Z</time>
      </trkpt>
      <trkpt lat="42.53174" lon="1.562985">
        <ele>1383.0</ele>
        <time>2019-08-04T06:49:36.789Z</time>
      </trkpt>
      <trkpt lat="42.53174" lon="1.562985">
        <ele>1383.0</ele>
        <time>2019-08-04T06:49:37.768Z</time>
      </trkpt>
      <trkpt lat="42.53177333" lon="1.56300667">
        <ele>1384.0</ele>
        <time>2019-08-04T06:49:38.788Z</time>
      </trkpt>
      <trkpt lat="42.53177333" lon="1.56300667">
        <ele>1384.0</ele>
        <time>2019-08-04T06:49:39.768Z</time>
      </trkpt>
      <trkpt lat="42.531805" lon="1.56302">
        <ele>1385.0</ele>
        <time>2019-08-04T06:49:40.788Z</time>
      </trkpt>
      <trkpt lat="42.531805" lon="1.56302">
        <ele>1385.0</ele>
        <time>2019-08-04T06:49:41.773Z</time>
      </trkpt>
      <trkpt lat="42.53184333" lon="1.563045">
        <ele>1385.0</ele>
        <time>2019-08-04T06:49:42.801Z</time>
      </trkpt>
      <trkpt lat="42.53184333" lon="1.563045">
        <ele>1385.0</ele>
        <time>2019-08-04T06:49:43.782Z</time>
      </trkpt>
      <trkpt lat="42.531885" lon="1.56306333">
        <ele>1386.0</ele>
        <time>2019-08-04T06:49:44.775Z</time>
      </trkpt>
      <trkpt lat="42.531885" lon="1.56306333">
        <ele>1386.0</ele>
        <time>2019-08-04T06:49:45.768Z</time>
      </trkpt>
      <trkpt lat="42.53192167" lon="1.56309667">
        <ele>1387.0</ele>
        <time>2019-08-04T06:49:46.787Z</time>
      </trkpt>
      <trkpt lat="42.53192167" lon="1.56309667">
        <ele>1387.0</ele>
        <time>2019-08-04T06:49:47.767Z</time>
      </trkpt>
      <trkpt lat="42.53196" lon="1.56313167">
        <ele>1388.0</ele>
        <time>2019-08-04T06:49:48.787Z</time>
      </trkpt>
      <trkpt lat="42.53197667" lon="1.56315167">
        <ele>1388.0</ele>
        <time>2019-08-04T06:49:49.776Z</time>
      </trkpt>
      <trkpt lat="42.53197667" lon="1.56315167">
        <ele>1388.0</ele>
        <time>2019-08-04T06:49:50.769Z</time>
      </trkpt>
      <trkpt lat="42.53200833" lon="1.56318333">
        <ele>1389.0</ele>
        <time>2019-08-04T06:49:51.791Z</time>
      </trkpt>
      <trkpt lat="42.53200833" lon="1.56318333">
        <ele>1389.0</ele>
        <time>2019-08-04T06:49:52.792Z</time>
      </trkpt>
      <trkpt lat="42.53204667" lon="1.56321333">
        <ele>1390.0</ele>
        <time>2019-08-04T06:49:53.774Z</time>
      </trkpt>
      <trkpt lat="42.53204667" lon="1.56321333">
        <ele>1390.0</ele>
        <time>2019-08-04T06:49:54.769Z</time>
      </trkpt>
      <trkpt lat="42.53208667" lon="1.56324">
        <ele>1391.0</ele>
        <time>2019-08-04T06:49:55.783Z</time>
      </trkpt>
      <trkpt lat="42.53210333" lon="1.56325167">
        <ele>1391.0</ele>
        <time>2019-08-04T06:49:56.777Z</time>
      </trkpt>
      <trkpt lat="42.53212167" lon="1.56325833">
        <ele>1392.0</ele>
        <time>2019-08-04T06:49:57.802Z</time>
      </trkpt>
      <trkpt lat="42.53212167" lon="1.56325833">
        <ele>1392.0</ele>
        <time>2019-08-04T06:49:58.783Z</time>
      </trkpt>
      <trkpt lat="42.53216" lon="1.56325667">
        <ele>1392.0</ele>
        <time>2019-08-04T06:49:59.776Z</time>
      </trkpt>
      <trkpt lat="42.53217833" lon="1.563245">
        <ele>1392.0</ele>
        <time>2019-08-04T06:50:00.777Z</time>
      </trkpt>
      <trkpt lat="42.53217833" lon="1.563245">
        <ele>1392.0</ele>
        <time>2019-08-04T06:50:01.770Z</time>
      </trkpt>
      <trkpt lat="42.53221667" lon="1.56321667">
        <ele>1393.0</ele>
        <time>2019-08-04T06:50:02.770Z</time>
      </trkpt>
      <trkpt lat="42.53221667" lon="1.56321667">
        <ele>1393.0</ele>
        <time>2019-08-04T06:50:03.791Z</time>
      </trkpt>
      <trkpt lat="42.532255" lon="1.56319333">
        <ele>1393.0</ele>
        <time>2019-08-04T06:50:04.775Z</time>
      </trkpt>
      <trkpt lat="42.532255" lon="1.56319333">
        <ele>1393.0</ele>
        <time>2019-08-04T06:50:05.771Z</time>
      </trkpt>
      <trkpt lat="42.53228667" lon="1.563165">
        <ele>1393.0</ele>
        <time>2019-08-04T06:50:06.791Z</time>
      </trkpt>
      <trkpt lat="42.53228667" lon="1.563165">
        <ele>1393.0</ele>
        <time>2019-08-04T06:50:07.772Z</time>
      </trkpt>
      <trkpt lat="42.532325" lon="1.56315167">
        <ele>1394.0</ele>
        <time>2019-08-04T06:50:08.777Z</time>
      </trkpt>
      <trkpt lat="42.532325" lon="1.56315167">
        <ele>1394.0</ele>
        <time>2019-08-04T06:50:09.776Z</time>
      </trkpt>
      <trkpt lat="42.53236167" lon="1.56315">
        <ele>1394.0</ele>
        <time>2019-08-04T06:50:10.776Z</time>
      </trkpt>
      <trkpt lat="42.53236167" lon="1.56315">
        <ele>1394.0</ele>
        <time>2019-08-04T06:50:11.769Z</time>
      </trkpt>
      <trkpt lat="42.53239833" lon="1.56315">
        <ele>1395.0</ele>
        <time>2019-08-04T06:50:12.800Z</time>
      </trkpt>
      <trkpt lat="42.532415" lon="1.56315">
        <ele>1395.0</ele>
        <time>2019-08-04T06:50:13.785Z</time>
      </trkpt>
      <trkpt lat="42.532415" lon="1.56315">
        <ele>1395.0</ele>
        <time>2019-08-04T06:50:14.770Z</time>
      </trkpt>
      <trkpt lat="42.53244833" lon="1.56314833">
        <ele>1396.0</ele>
        <time>2019-08-04T06:50:15.800Z</time>
      </trkpt>
      <trkpt lat="42.53246667" lon="1.56314167">
        <ele>1396.0</ele>
        <time>2019-08-04T06:50:16.785Z</time>
      </trkpt>
      <trkpt lat="42.53246667" lon="1.56314167">
        <ele>1396.0</ele>
        <time>2019-08-04T06:50:17.769Z</time>
      </trkpt>
      <trkpt lat="42.53250167" lon="1.56312167">
        <ele>1397.0</ele>
        <time>2019-08-04T06:50:18.788Z</time>
      </trkpt>
      <trkpt lat="42.53250167" lon="1.56312167">
        <ele>1397.0</ele>
        <time>2019-08-04T06:50:19.769Z</time>
      </trkpt>
      <trkpt lat="42.53253833" lon="1.56308667">
        <ele>1397.0</ele>
        <time>2019-08-04T06:50:20.777Z</time>
      </trkpt>
      <trkpt lat="42.53253833" lon="1.56308667">
        <ele>1397.0</ele>
        <time>2019-08-04T06:50:21.778Z</time>
      </trkpt>
      <trkpt lat="42.53256333" lon="1.56304667">
        <ele>1397.0</ele>
        <time>2019-08-04T06:50:22.782Z</time>
      </trkpt>
      <trkpt lat="42.53256333" lon="1.56304667">
        <ele>1397.0</ele>
        <time>2019-08-04T06:50:23.769Z</time>
      </trkpt>
      <trkpt lat="42.532585" lon="1.56300667">
        <ele>1398.0</ele>
        <time>2019-08-04T06:50:24.788Z</time>
      </trkpt>
      <trkpt lat="42.532585" lon="1.56300667">
        <ele>1398.0</ele>
        <time>2019-08-04T06:50:25.769Z</time>
      </trkpt>
      <trkpt lat="42.53260167" lon="1.56296333">
        <ele>1399.0</ele>
        <time>2019-08-04T06:50:26.788Z</time>
      </trkpt>
      <trkpt lat="42.53260167" lon="1.56296333">
        <ele>1399.0</ele>
        <time>2019-08-04T06:50:27.768Z</time>
      </trkpt>
      <trkpt lat="42.53262" lon="1.56291333">
        <ele>1399.0</ele>
        <time>2019-08-04T06:50:28.787Z</time>
      </trkpt>
      <trkpt lat="42.53262" lon="1.56291333">
        <ele>1399.0</ele>
        <time>2019-08-04T06:50:29.769Z</time>
      </trkpt>
      <trkpt lat="42.532635" lon="1.56286667">
        <ele>1400.0</ele>
        <time>2019-08-04T06:50:30.789Z</time>
      </trkpt>
      <trkpt lat="42.532645" lon="1.56284333">
        <ele>1400.0</ele>
        <time>2019-08-04T06:50:31.791Z</time>
      </trkpt>
      <trkpt lat="42.532645" lon="1.56284333">
        <ele>1400.0</ele>
        <time>2019-08-04T06:50:32.788Z</time>
      </trkpt>
      <trkpt lat="42.532655" lon="1.5628">
        <ele>1401.0</ele>
        <time>2019-08-04T06:50:33.776Z</time>
      </trkpt>
      <trkpt lat="42.53266" lon="1.56277833">
        <ele>1401.0</ele>
        <time>2019-08-04T06:50:34.775Z</time>
      </trkpt>
      <trkpt lat="42.53266" lon="1.56277833">
        <ele>1401.0</ele>
        <time>2019-08-04T06:50:35.769Z</time>
      </trkpt>
      <trkpt lat="42.532675" lon="1.56273333">
        <ele>1401.0</ele>
        <time>2019-08-04T06:50:36.790Z</time>
      </trkpt>
      <trkpt lat="42.532675" lon="1.56273333">
        <ele>1401.0</ele>
        <time>2019-08-04T06:50:37.771Z</time>
      </trkpt>
      <trkpt lat="42.53268667" lon="1.56268833">
        <ele>1402.0</ele>
        <time>2019-08-04T06:50:38.791Z</time>
      </trkpt>
      <trkpt lat="42.53268667" lon="1.56268833">
        <ele>1402.0</ele>
        <time>2019-08-04T06:50:39.772Z</time>
      </trkpt>
      <trkpt lat="42.53271" lon="1.56264333">
        <ele>1402.0</ele>
        <time>2019-08-04T06:50:40.776Z</time>
      </trkpt>
      <trkpt lat="42.53271" lon="1.56264333">
        <ele>1402.0</ele>
        <time>2019-08-04T06:50:41.771Z</time>
      </trkpt>
      <trkpt lat="42.53272167" lon="1.56259833">
        <ele>1402.0</ele>
        <time>2019-08-04T06:50:42.804Z</time>
      </trkpt>
      <trkpt lat="42.53272167" lon="1.56259833">
        <ele>1402.0</ele>
        <time>2019-08-04T06:50:43.784Z</time>
      </trkpt>
      <trkpt lat="42.53273" lon="1.56255333">
        <ele>1402.0</ele>
        <time>2019-08-04T06:50:44.776Z</time>
      </trkpt>
      <trkpt lat="42.53273" lon="1.56255333">
        <ele>1402.0</ele>
        <time>2019-08-04T06:50:45.768Z</time>
      </trkpt>
      <trkpt lat="42.53273833" lon="1.56250833">
        <ele>1403.0</ele>
        <time>2019-08-04T06:50:46.790Z</time>
      </trkpt>
      <trkpt lat="42.53273833" lon="1.56250833">
        <ele>1403.0</ele>
        <time>2019-08-04T06:50:47.772Z</time>
      </trkpt>
      <trkpt lat="42.532755" lon="1.56246333">
        <ele>1403.0</ele>
        <time>2019-08-04T06:50:48.775Z</time>
      </trkpt>
      <trkpt lat="42.532765" lon="1.56244">
        <ele>1403.0</ele>
        <time>2019-08-04T06:50:49.774Z</time>
      </trkpt>
      <trkpt lat="42.532765" lon="1.56244">
        <ele>1403.0</ele>
        <time>2019-08-04T06:50:50.773Z</time>
      </trkpt>
      <trkpt lat="42.53277833" lon="1.56239">
        <ele>1404.0</ele>
        <time>2019-08-04T06:50:51.777Z</time>
      </trkpt>
      <trkpt lat="42.53277833" lon="1.56239">
        <ele>1404.0</ele>
        <time>2019-08-04T06:50:52.795Z</time>
      </trkpt>
      <trkpt lat="42.5328" lon="1.56234833">
        <ele>1404.0</ele>
        <time>2019-08-04T06:50:53.777Z</time>
      </trkpt>
      <trkpt lat="42.5328" lon="1.56234833">
        <ele>1404.0</ele>
        <time>2019-08-04T06:50:54.768Z</time>
      </trkpt>
      <trkpt lat="42.53282333" lon="1.56230667">
        <ele>1405.0</ele>
        <time>2019-08-04T06:50:55.790Z</time>
      </trkpt>
      <trkpt lat="42.532835" lon="1.56228333">
        <ele>1405.0</ele>
        <time>2019-08-04T06:50:56.779Z</time>
      </trkpt>
      <trkpt lat="42.532835" lon="1.56228333">
        <ele>1405.0</ele>
        <time>2019-08-04T06:50:57.770Z</time>
      </trkpt>
      <trkpt lat="42.53286333" lon="1.56224">
        <ele>1405.0</ele>
        <time>2019-08-04T06:50:58.777Z</time>
      </trkpt>
      <trkpt lat="42.53286333" lon="1.56224">
        <ele>1405.0</ele>
        <time>2019-08-04T06:50:59.768Z</time>
      </trkpt>
      <trkpt lat="42.532875" lon="1.5622">
        <ele>1406.0</ele>
        <time>2019-08-04T06:51:00.790Z</time>
      </trkpt>
      <trkpt lat="42.53288167" lon="1.56217833">
        <ele>1406.0</ele>
        <time>2019-08-04T06:51:01.785Z</time>
      </trkpt>
      <trkpt lat="42.53288167" lon="1.56217833">
        <ele>1406.0</ele>
        <time>2019-08-04T06:51:02.782Z</time>
      </trkpt>
      <trkpt lat="42.53290667" lon="1.56213333">
        <ele>1406.0</ele>
        <time>2019-08-04T06:51:03.777Z</time>
      </trkpt>
      <trkpt lat="42.53292" lon="1.562115">
        <ele>1406.0</ele>
        <time>2019-08-04T06:51:04.776Z</time>
      </trkpt>
      <trkpt lat="42.53292" lon="1.562115">
        <ele>1406.0</ele>
        <time>2019-08-04T06:51:05.777Z</time>
      </trkpt>
      <trkpt lat="42.53295333" lon="1.56208167">
        <ele>1407.0</ele>
        <time>2019-08-04T06:51:06.778Z</time>
      </trkpt>
      <trkpt lat="42.53295333" lon="1.56208167">
        <ele>1407.0</ele>
        <time>2019-08-04T06:51:07.770Z</time>
      </trkpt>
      <trkpt lat="42.53298333" lon="1.562045">
        <ele>1407.0</ele>
        <time>2019-08-04T06:51:08.791Z</time>
      </trkpt>
      <trkpt lat="42.532995" lon="1.56202833">
        <ele>1407.0</ele>
        <time>2019-08-04T06:51:09.776Z</time>
      </trkpt>
      <trkpt lat="42.53300333" lon="1.56201">
        <ele>1408.0</ele>
        <time>2019-08-04T06:51:10.778Z</time>
      </trkpt>
      <trkpt lat="42.53300333" lon="1.56201">
        <ele>1408.0</ele>
        <time>2019-08-04T06:51:11.769Z</time>
      </trkpt>
      <trkpt lat="42.53303" lon="1.561975">
        <ele>1408.0</ele>
        <time>2019-08-04T06:51:12.798Z</time>
      </trkpt>
      <trkpt lat="42.53304" lon="1.56195333">
        <ele>1409.0</ele>
        <time>2019-08-04T06:51:13.778Z</time>
      </trkpt>
      <trkpt lat="42.53304833" lon="1.56193333">
        <ele>1409.0</ele>
        <time>2019-08-04T06:51:14.776Z</time>
      </trkpt>
      <trkpt lat="42.53304833" lon="1.56193333">
        <ele>1409.0</ele>
        <time>2019-08-04T06:51:15.768Z</time>
      </trkpt>
      <trkpt lat="42.53305833" lon="1.56189333">
        <ele>1409.0</ele>
        <time>2019-08-04T06:51:16.788Z</time>
      </trkpt>
      <trkpt lat="42.53305833" lon="1.56189333">
        <ele>1409.0</ele>
        <time>2019-08-04T06:51:17.769Z</time>
      </trkpt>
      <trkpt lat="42.53308" lon="1.56186667">
        <ele>1410.0</ele>
        <time>2019-08-04T06:51:18.788Z</time>
      </trkpt>
      <trkpt lat="42.53308" lon="1.56186667">
        <ele>1410.0</ele>
        <time>2019-08-04T06:51:19.776Z</time>
      </trkpt>
      <trkpt lat="42.533105" lon="1.56183833">
        <ele>1410.0</ele>
        <time>2019-08-04T06:51:20.774Z</time>
      </trkpt>
      <trkpt lat="42.533105" lon="1.56183833">
        <ele>1410.0</ele>
        <time>2019-08-04T06:51:21.770Z</time>
      </trkpt>
      <trkpt lat="42.533135" lon="1.56180333">
        <ele>1411.0</ele>
        <time>2019-08-04T06:51:22.792Z</time>
      </trkpt>
      <trkpt lat="42.533135" lon="1.56180333">
        <ele>1411.0</ele>
        <time>2019-08-04T06:51:23.772Z</time>
      </trkpt>
      <trkpt lat="42.53315333" lon="1.56176667">
        <ele>1411.0</ele>
        <time>2019-08-04T06:51:24.791Z</time>
      </trkpt>
      <trkpt lat="42.53315333" lon="1.56176667">
        <ele>1411.0</ele>
        <time>2019-08-04T06:51:25.774Z</time>
      </trkpt>
      <trkpt lat="42.53317667" lon="1.56173667">
        <ele>1412.0</ele>
        <time>2019-08-04T06:51:26.778Z</time>
      </trkpt>
      <trkpt lat="42.53317667" lon="1.56173667">
        <ele>1412.0</ele>
        <time>2019-08-04T06:51:27.769Z</time>
      </trkpt>
      <trkpt lat="42.53320667" lon="1.56171">
        <ele>1413.0</ele>
        <time>2019-08-04T06:51:28.788Z</time>
      </trkpt>
      <trkpt lat="42.53320667" lon="1.56171">
        <ele>1413.0</ele>
        <time>2019-08-04T06:51:29.769Z</time>
      </trkpt>
      <trkpt lat="42.53323333" lon="1.561675">
        <ele>1414.0</ele>
        <time>2019-08-04T06:51:30.790Z</time>
      </trkpt>
      <trkpt lat="42.53323333" lon="1.561675">
        <ele>1414.0</ele>
        <time>2019-08-04T06:51:31.791Z</time>
      </trkpt>
      <trkpt lat="42.53325167" lon="1.561635">
        <ele>1414.0</ele>
        <time>2019-08-04T06:51:32.765Z</time>
      </trkpt>
      <trkpt lat="42.53325167" lon="1.561635">
        <ele>1414.0</ele>
        <time>2019-08-04T06:51:33.785Z</time>
      </trkpt>
      <trkpt lat="42.53325333" lon="1.56159667">
        <ele>1415.0</ele>
        <time>2019-08-04T06:51:34.777Z</time>
      </trkpt>
      <trkpt lat="42.53325333" lon="1.56159667">
        <ele>1415.0</ele>
        <time>2019-08-04T06:51:35.770Z</time>
      </trkpt>
      <trkpt lat="42.53328167" lon="1.56157">
        <ele>1415.0</ele>
        <time>2019-08-04T06:51:36.790Z</time>
      </trkpt>
      <trkpt lat="42.53328167" lon="1.56157">
        <ele>1415.0</ele>
        <time>2019-08-04T06:51:37.785Z</time>
      </trkpt>
      <trkpt lat="42.53330833" lon="1.56156167">
        <ele>1416.0</ele>
        <time>2019-08-04T06:51:38.776Z</time>
      </trkpt>
      <trkpt lat="42.53330833" lon="1.56156167">
        <ele>1416.0</ele>
        <time>2019-08-04T06:51:39.769Z</time>
      </trkpt>
      <trkpt lat="42.53332833" lon="1.56152833">
        <ele>1417.0</ele>
        <time>2019-08-04T06:51:40.789Z</time>
      </trkpt>
      <trkpt lat="42.53332833" lon="1.56152833">
        <ele>1417.0</ele>
        <time>2019-08-04T06:51:41.769Z</time>
      </trkpt>
      <trkpt lat="42.53336833" lon="1.56150167">
        <ele>1417.0</ele>
        <time>2019-08-04T06:51:42.804Z</time>
      </trkpt>
      <trkpt lat="42.53336833" lon="1.56150167">
        <ele>1417.0</ele>
        <time>2019-08-04T06:51:43.793Z</time>
      </trkpt>
      <trkpt lat="42.53340833" lon="1.56147">
        <ele>1418.0</ele>
        <time>2019-08-04T06:51:44.777Z</time>
      </trkpt>
      <trkpt lat="42.53340833" lon="1.56147">
        <ele>1418.0</ele>
        <time>2019-08-04T06:51:45.771Z</time>
      </trkpt>
      <trkpt lat="42.53341667" lon="1.56142">
        <ele>1418.0</ele>
        <time>2019-08-04T06:51:46.777Z</time>
      </trkpt>
      <trkpt lat="42.53341667" lon="1.56142">
        <ele>1418.0</ele>
        <time>2019-08-04T06:51:47.769Z</time>
      </trkpt>
      <trkpt lat="42.533405" lon="1.56136667">
        <ele>1419.0</ele>
        <time>2019-08-04T06:51:48.788Z</time>
      </trkpt>
      <trkpt lat="42.533405" lon="1.56136667">
        <ele>1419.0</ele>
        <time>2019-08-04T06:51:49.769Z</time>
      </trkpt>
      <trkpt lat="42.53338667" lon="1.56132333">
        <ele>1419.0</ele>
        <time>2019-08-04T06:51:50.793Z</time>
      </trkpt>
      <trkpt lat="42.53338667" lon="1.56132333">
        <ele>1419.0</ele>
        <time>2019-08-04T06:51:51.774Z</time>
      </trkpt>
      <trkpt lat="42.53337" lon="1.56131">
        <ele>1420.0</ele>
        <time>2019-08-04T06:51:52.773Z</time>
      </trkpt>
      <trkpt lat="42.53337" lon="1.56131">
        <ele>1420.0</ele>
        <time>2019-08-04T06:51:53.770Z</time>
      </trkpt>
      <trkpt lat="42.53334833" lon="1.56133167">
        <ele>1420.0</ele>
        <time>2019-08-04T06:51:54.789Z</time>
      </trkpt>
      <trkpt lat="42.53334833" lon="1.56133167">
        <ele>1420.0</ele>
        <time>2019-08-04T06:51:55.784Z</time>
      </trkpt>
      <trkpt lat="42.53331667" lon="1.56136333">
        <ele>1421.0</ele>
        <time>2019-08-04T06:51:56.777Z</time>
      </trkpt>
      <trkpt lat="42.53331667" lon="1.56136333">
        <ele>1421.0</ele>
        <time>2019-08-04T06:51:57.779Z</time>
      </trkpt>
      <trkpt lat="42.53329" lon="1.56139667">
        <ele>1422.0</ele>
        <time>2019-08-04T06:51:58.777Z</time>
      </trkpt>
      <trkpt lat="42.53329" lon="1.56139667">
        <ele>1422.0</ele>
        <time>2019-08-04T06:51:59.770Z</time>
      </trkpt>
      <trkpt lat="42.53325" lon="1.56144667">
        <ele>1423.0</ele>
        <time>2019-08-04T06:52:00.800Z</time>
      </trkpt>
      <trkpt lat="42.53324" lon="1.56147667">
        <ele>1423.0</ele>
        <time>2019-08-04T06:52:01.789Z</time>
      </trkpt>
      <trkpt lat="42.533235" lon="1.56150167">
        <ele>1424.0</ele>
        <time>2019-08-04T06:52:02.776Z</time>
      </trkpt>
      <trkpt lat="42.533235" lon="1.56150167">
        <ele>1424.0</ele>
        <time>2019-08-04T06:52:03.770Z</time>
      </trkpt>
      <trkpt lat="42.53323" lon="1.56156333">
        <ele>1425.0</ele>
        <time>2019-08-04T06:52:04.792Z</time>
      </trkpt>
      <trkpt lat="42.53323" lon="1.56156333">
        <ele>1425.0</ele>
        <time>2019-08-04T06:52:05.769Z</time>
      </trkpt>
      <trkpt lat="42.53320667" lon="1.56161833">
        <ele>1426.0</ele>
        <time>2019-08-04T06:52:06.802Z</time>
      </trkpt>
      <trkpt lat="42.53318333" lon="1.56164333">
        <ele>1426.0</ele>
        <time>2019-08-04T06:52:07.788Z</time>
      </trkpt>
      <trkpt lat="42.53318333" lon="1.56164333">
        <ele>1426.0</ele>
        <time>2019-08-04T06:52:08.775Z</time>
      </trkpt>
      <trkpt lat="42.53314333" lon="1.56168333">
        <ele>1427.0</ele>
        <time>2019-08-04T06:52:09.777Z</time>
      </trkpt>
      <trkpt lat="42.533125" lon="1.56170167">
        <ele>1428.0</ele>
        <time>2019-08-04T06:52:10.777Z</time>
      </trkpt>
      <trkpt lat="42.533125" lon="1.56170167">
        <ele>1428.0</ele>
        <time>2019-08-04T06:52:11.775Z</time>
      </trkpt>
      <trkpt lat="42.53307333" lon="1.56172667">
        <ele>1428.0</ele>
        <time>2019-08-04T06:52:12.766Z</time>
      </trkpt>
      <trkpt lat="42.53307333" lon="1.56172667">
        <ele>1428.0</ele>
        <time>2019-08-04T06:52:13.783Z</time>
      </trkpt>
      <trkpt lat="42.53302333" lon="1.56176167">
        <ele>1429.0</ele>
        <time>2019-08-04T06:52:14.778Z</time>
      </trkpt>
      <trkpt lat="42.53300333" lon="1.56178">
        <ele>1429.0</ele>
        <time>2019-08-04T06:52:15.777Z</time>
      </trkpt>
      <trkpt lat="42.53297833" lon="1.56179833">
        <ele>1430.0</ele>
        <time>2019-08-04T06:52:16.777Z</time>
      </trkpt>
      <trkpt lat="42.53297833" lon="1.56179833">
        <ele>1430.0</ele>
        <time>2019-08-04T06:52:17.788Z</time>
      </trkpt>
      <trkpt lat="42.53293" lon="1.56182167">
        <ele>1431.0</ele>
        <time>2019-08-04T06:52:18.777Z</time>
      </trkpt>
      <trkpt lat="42.53293" lon="1.56182167">
        <ele>1431.0</ele>
        <time>2019-08-04T06:52:19.770Z</time>
      </trkpt>
      <trkpt lat="42.53288667" lon="1.56185">
        <ele>1431.0</ele>
        <time>2019-08-04T06:52:20.789Z</time>
      </trkpt>
      <trkpt lat="42.53288667" lon="1.56185">
        <ele>1431.0</ele>
        <time>2019-08-04T06:52:21.773Z</time>
      </trkpt>
      <trkpt lat="42.53284167" lon="1.56187667">
        <ele>1432.0</ele>
        <time>2019-08-04T06:52:22.787Z</time>
      </trkpt>
      <trkpt lat="42.53284167" lon="1.56187667">
        <ele>1432.0</ele>
        <time>2019-08-04T06:52:23.767Z</time>
      </trkpt>
      <trkpt lat="42.53279833" lon="1.56190333">
        <ele>1432.0</ele>
        <time>2019-08-04T06:52:24.786Z</time>
      </trkpt>
      <trkpt lat="42.53279833" lon="1.56190333">
        <ele>1432.0</ele>
        <time>2019-08-04T06:52:25.775Z</time>
      </trkpt>
      <trkpt lat="42.53275667" lon="1.561925">
        <ele>1433.0</ele>
        <time>2019-08-04T06:52:26.777Z</time>
      </trkpt>
      <trkpt lat="42.53275667" lon="1.561925">
        <ele>1433.0</ele>
        <time>2019-08-04T06:52:27.770Z</time>
      </trkpt>
      <trkpt lat="42.53271167" lon="1.561935">
        <ele>1433.0</ele>
        <time>2019-08-04T06:52:28.788Z</time>
      </trkpt>
      <trkpt lat="42.53271167" lon="1.561935">
        <ele>1433.0</ele>
        <time>2019-08-04T06:52:29.769Z</time>
      </trkpt>
      <trkpt lat="42.53266" lon="1.56194333">
        <ele>1434.0</ele>
        <time>2019-08-04T06:52:30.788Z</time>
      </trkpt>
      <trkpt lat="42.53266" lon="1.56194333">
        <ele>1434.0</ele>
        <time>2019-08-04T06:52:31.782Z</time>
      </trkpt>
      <trkpt lat="42.53260833" lon="1.56195833">
        <ele>1434.0</ele>
        <time>2019-08-04T06:52:32.770Z</time>
      </trkpt>
      <trkpt lat="42.53260833" lon="1.56195833">
        <ele>1434.0</ele>
        <time>2019-08-04T06:52:33.783Z</time>
      </trkpt>
      <trkpt lat="42.53256333" lon="1.56197167">
        <ele>1435.0</ele>
        <time>2019-08-04T06:52:34.777Z</time>
      </trkpt>
      <trkpt lat="42.53256333" lon="1.56197167">
        <ele>1435.0</ele>
        <time>2019-08-04T06:52:35.770Z</time>
      </trkpt>
      <trkpt lat="42.53251667" lon="1.56198667">
        <ele>1435.0</ele>
        <time>2019-08-04T06:52:36.790Z</time>
      </trkpt>
      <trkpt lat="42.53249333" lon="1.561995">
        <ele>1436.0</ele>
        <time>2019-08-04T06:52:37.777Z</time>
      </trkpt>
      <trkpt lat="42.53249333" lon="1.561995">
        <ele>1436.0</ele>
        <time>2019-08-04T06:52:38.774Z</time>
      </trkpt>
      <trkpt lat="42.53245667" lon="1.56200667">
        <ele>1436.0</ele>
        <time>2019-08-04T06:52:39.777Z</time>
      </trkpt>
      <trkpt lat="42.53244" lon="1.56201167">
        <ele>1436.0</ele>
        <time>2019-08-04T06:52:40.777Z</time>
      </trkpt>
      <trkpt lat="42.53244" lon="1.56201167">
        <ele>1436.0</ele>
        <time>2019-08-04T06:52:41.767Z</time>
      </trkpt>
      <trkpt lat="42.53239833" lon="1.56202167">
        <ele>1436.0</ele>
        <time>2019-08-04T06:52:42.804Z</time>
      </trkpt>
      <trkpt lat="42.53239833" lon="1.56202167">
        <ele>1436.0</ele>
        <time>2019-08-04T06:52:43.790Z</time>
      </trkpt>
      <trkpt lat="42.53235833" lon="1.56203667">
        <ele>1437.0</ele>
        <time>2019-08-04T06:52:44.775Z</time>
      </trkpt>
      <trkpt lat="42.53235833" lon="1.56203667">
        <ele>1437.0</ele>
        <time>2019-08-04T06:52:45.770Z</time>
      </trkpt>
      <trkpt lat="42.53231333" lon="1.562045">
        <ele>1437.0</ele>
        <time>2019-08-04T06:52:46.789Z</time>
      </trkpt>
      <trkpt lat="42.53231333" lon="1.562045">
        <ele>1437.0</ele>
        <time>2019-08-04T06:52:47.788Z</time>
      </trkpt>
      <trkpt lat="42.53226833" lon="1.56204667">
        <ele>1437.0</ele>
        <time>2019-08-04T06:52:48.775Z</time>
      </trkpt>
      <trkpt lat="42.53226833" lon="1.56204667">
        <ele>1437.0</ele>
        <time>2019-08-04T06:52:49.769Z</time>
      </trkpt>
      <trkpt lat="42.53222167" lon="1.56205">
        <ele>1438.0</ele>
        <time>2019-08-04T06:52:50.790Z</time>
      </trkpt>
      <trkpt lat="42.53219667" lon="1.56205">
        <ele>1438.0</ele>
        <time>2019-08-04T06:52:51.778Z</time>
      </trkpt>
      <trkpt lat="42.53217333" lon="1.56204833">
        <ele>1438.0</ele>
        <time>2019-08-04T06:52:52.803Z</time>
      </trkpt>
      <trkpt lat="42.53217333" lon="1.56204833">
        <ele>1438.0</ele>
        <time>2019-08-04T06:52:53.770Z</time>
      </trkpt>
      <trkpt lat="42.53212667" lon="1.56204833">
        <ele>1439.0</ele>
        <time>2019-08-04T06:52:54.789Z</time>
      </trkpt>
      <trkpt lat="42.53212667" lon="1.56204833">
        <ele>1439.0</ele>
        <time>2019-08-04T06:52:55.785Z</time>
      </trkpt>
      <trkpt lat="42.532085" lon="1.562025">
        <ele>1439.0</ele>
        <time>2019-08-04T06:52:56.778Z</time>
      </trkpt>
      <trkpt lat="42.532085" lon="1.562025">
        <ele>1439.0</ele>
        <time>2019-08-04T06:52:57.776Z</time>
      </trkpt>
      <trkpt lat="42.53206833" lon="1.56197">
        <ele>1439.0</ele>
        <time>2019-08-04T06:52:58.779Z</time>
      </trkpt>
      <trkpt lat="42.53206833" lon="1.56197">
        <ele>1439.0</ele>
        <time>2019-08-04T06:52:59.775Z</time>
      </trkpt>
      <trkpt lat="42.53209333" lon="1.56191333">
        <ele>1440.0</ele>
        <time>2019-08-04T06:53:00.777Z</time>
      </trkpt>
      <trkpt lat="42.53209333" lon="1.56191333">
        <ele>1440.0</ele>
        <time>2019-08-04T06:53:01.773Z</time>
      </trkpt>
      <trkpt lat="42.53212667" lon="1.56187667">
        <ele>1440.0</ele>
        <time>2019-08-04T06:53:02.770Z</time>
      </trkpt>
      <trkpt lat="42.53212667" lon="1.56187667">
        <ele>1440.0</ele>
        <time>2019-08-04T06:53:03.791Z</time>
      </trkpt>
      <trkpt lat="42.532165" lon="1.56186333">
        <ele>1441.0</ele>
        <time>2019-08-04T06:53:04.777Z</time>
      </trkpt>
      <trkpt lat="42.532165" lon="1.56186333">
        <ele>1441.0</ele>
        <time>2019-08-04T06:53:05.774Z</time>
      </trkpt>
      <trkpt lat="42.53220167" lon="1.56187">
        <ele>1442.0</ele>
        <time>2019-08-04T06:53:06.786Z</time>
      </trkpt>
      <trkpt lat="42.53222" lon="1.56187333">
        <ele>1442.0</ele>
        <time>2019-08-04T06:53:07.778Z</time>
      </trkpt>
      <trkpt lat="42.53222" lon="1.56187333">
        <ele>1442.0</ele>
        <time>2019-08-04T06:53:08.774Z</time>
      </trkpt>
      <trkpt lat="42.53225333" lon="1.56187333">
        <ele>1443.0</ele>
        <time>2019-08-04T06:53:09.778Z</time>
      </trkpt>
      <trkpt lat="42.53225333" lon="1.56187333">
        <ele>1443.0</ele>
        <time>2019-08-04T06:53:10.772Z</time>
      </trkpt>
      <trkpt lat="42.53228833" lon="1.56185">
        <ele>1444.0</ele>
        <time>2019-08-04T06:53:11.796Z</time>
      </trkpt>
      <trkpt lat="42.53230333" lon="1.561835">
        <ele>1444.0</ele>
        <time>2019-08-04T06:53:12.804Z</time>
      </trkpt>
      <trkpt lat="42.53230333" lon="1.561835">
        <ele>1444.0</ele>
        <time>2019-08-04T06:53:13.790Z</time>
      </trkpt>
      <trkpt lat="42.53234167" lon="1.5618">
        <ele>1445.0</ele>
        <time>2019-08-04T06:53:14.778Z</time>
      </trkpt>
      <trkpt lat="42.53234167" lon="1.5618">
        <ele>1445.0</ele>
        <time>2019-08-04T06:53:15.770Z</time>
      </trkpt>
      <trkpt lat="42.53238" lon="1.56177">
        <ele>1445.0</ele>
        <time>2019-08-04T06:53:16.789Z</time>
      </trkpt>
      <trkpt lat="42.53238" lon="1.56177">
        <ele>1445.0</ele>
        <time>2019-08-04T06:53:17.774Z</time>
      </trkpt>
      <trkpt lat="42.53241667" lon="1.56174">
        <ele>1446.0</ele>
        <time>2019-08-04T06:53:18.776Z</time>
      </trkpt>
      <trkpt lat="42.53241667" lon="1.56174">
        <ele>1446.0</ele>
        <time>2019-08-04T06:53:19.774Z</time>
      </trkpt>
      <trkpt lat="42.53245" lon="1.56172">
        <ele>1447.0</ele>
        <time>2019-08-04T06:53:20.779Z</time>
      </trkpt>
      <trkpt lat="42.53245" lon="1.56172">
        <ele>1447.0</ele>
        <time>2019-08-04T06:53:21.774Z</time>
      </trkpt>
      <trkpt lat="42.53248333" lon="1.56170667">
        <ele>1447.0</ele>
        <time>2019-08-04T06:53:22.768Z</time>
      </trkpt>
      <trkpt lat="42.53248333" lon="1.56170667">
        <ele>1447.0</ele>
        <time>2019-08-04T06:53:23.797Z</time>
      </trkpt>
      <trkpt lat="42.53252333" lon="1.561685">
        <ele>1448.0</ele>
        <time>2019-08-04T06:53:24.777Z</time>
      </trkpt>
      <trkpt lat="42.53254167" lon="1.56167167">
        <ele>1448.0</ele>
        <time>2019-08-04T06:53:25.778Z</time>
      </trkpt>
      <trkpt lat="42.53254167" lon="1.56167167">
        <ele>1448.0</ele>
        <time>2019-08-04T06:53:26.774Z</time>
      </trkpt>
      <trkpt lat="42.53257833" lon="1.56163833">
        <ele>1449.0</ele>
        <time>2019-08-04T06:53:27.776Z</time>
      </trkpt>
      <trkpt lat="42.532595" lon="1.56162833">
        <ele>1449.0</ele>
        <time>2019-08-04T06:53:28.791Z</time>
      </trkpt>
      <trkpt lat="42.532595" lon="1.56162833">
        <ele>1449.0</ele>
        <time>2019-08-04T06:53:29.770Z</time>
      </trkpt>
      <trkpt lat="42.53263333" lon="1.561605">
        <ele>1450.0</ele>
        <time>2019-08-04T06:53:30.790Z</time>
      </trkpt>
      <trkpt lat="42.53263333" lon="1.561605">
        <ele>1450.0</ele>
        <time>2019-08-04T06:53:31.774Z</time>
      </trkpt>
      <trkpt lat="42.53266333" lon="1.56155833">
        <ele>1451.0</ele>
        <time>2019-08-04T06:53:32.804Z</time>
      </trkpt>
      <trkpt lat="42.53266333" lon="1.56155833">
        <ele>1451.0</ele>
        <time>2019-08-04T06:53:33.792Z</time>
      </trkpt>
      <trkpt lat="42.53265833" lon="1.5615">
        <ele>1451.0</ele>
        <time>2019-08-04T06:53:34.778Z</time>
      </trkpt>
      <trkpt lat="42.53265833" lon="1.5615">
        <ele>1451.0</ele>
        <time>2019-08-04T06:53:35.771Z</time>
      </trkpt>
      <trkpt lat="42.53263167" lon="1.56145833">
        <ele>1451.0</ele>
        <time>2019-08-04T06:53:36.791Z</time>
      </trkpt>
      <trkpt lat="42.53263167" lon="1.56145833">
        <ele>1451.0</ele>
        <time>2019-08-04T06:53:37.774Z</time>
      </trkpt>
      <trkpt lat="42.53258667" lon="1.56144">
        <ele>1452.0</ele>
        <time>2019-08-04T06:53:38.777Z</time>
      </trkpt>
      <trkpt lat="42.53258667" lon="1.56144">
        <ele>1452.0</ele>
        <time>2019-08-04T06:53:39.770Z</time>
      </trkpt>
      <trkpt lat="42.53253833" lon="1.56145">
        <ele>1453.0</ele>
        <time>2019-08-04T06:53:40.791Z</time>
      </trkpt>
      <trkpt lat="42.53253833" lon="1.56145">
        <ele>1453.0</ele>
        <time>2019-08-04T06:53:41.773Z</time>
      </trkpt>
      <trkpt lat="42.532495" lon="1.56145833">
        <ele>1454.0</ele>
        <time>2019-08-04T06:53:42.774Z</time>
      </trkpt>
      <trkpt lat="42.532495" lon="1.56145833">
        <ele>1454.0</ele>
        <time>2019-08-04T06:53:43.775Z</time>
      </trkpt>
      <trkpt lat="42.53244833" lon="1.56147167">
        <ele>1454.0</ele>
        <time>2019-08-04T06:53:44.778Z</time>
      </trkpt>
      <trkpt lat="42.53244833" lon="1.56147167">
        <ele>1454.0</ele>
        <time>2019-08-04T06:53:45.776Z</time>
      </trkpt>
      <trkpt lat="42.532405" lon="1.56148833">
        <ele>1455.0</ele>
        <time>2019-08-04T06:53:46.778Z</time>
      </trkpt>
      <trkpt lat="42.532405" lon="1.56148833">
        <ele>1455.0</ele>
        <time>2019-08-04T06:53:47.770Z</time>
      </trkpt>
      <trkpt lat="42.532355" lon="1.56149167">
        <ele>1455.0</ele>
        <time>2019-08-04T06:53:48.789Z</time>
      </trkpt>
      <trkpt lat="42.532355" lon="1.56149167">
        <ele>1455.0</ele>
        <time>2019-08-04T06:53:49.773Z</time>
      </trkpt>
      <trkpt lat="42.53231667" lon="1.56148333">
        <ele>1456.0</ele>
        <time>2019-08-04T06:53:50.793Z</time>
      </trkpt>
      <trkpt lat="42.53231667" lon="1.56148333">
        <ele>1456.0</ele>
        <time>2019-08-04T06:53:51.773Z</time>
      </trkpt>
      <trkpt lat="42.532275" lon="1.56148167">
        <ele>1456.0</ele>
        <time>2019-08-04T06:53:52.801Z</time>
      </trkpt>
      <trkpt lat="42.532275" lon="1.56148167">
        <ele>1456.0</ele>
        <time>2019-08-04T06:53:53.784Z</time>
      </trkpt>
      <trkpt lat="42.53223333" lon="1.56148333">
        <ele>1456.0</ele>
        <time>2019-08-04T06:53:54.776Z</time>
      </trkpt>
      <trkpt lat="42.53223333" lon="1.56148333">
        <ele>1456.0</ele>
        <time>2019-08-04T06:53:55.771Z</time>
      </trkpt>
      <trkpt lat="42.53218833" lon="1.56147667">
        <ele>1456.0</ele>
        <time>2019-08-04T06:53:56.790Z</time>
      </trkpt>
      <trkpt lat="42.53218833" lon="1.56147667">
        <ele>1456.0</ele>
        <time>2019-08-04T06:53:57.770Z</time>
      </trkpt>
      <trkpt lat="42.532145" lon="1.56146667">
        <ele>1456.0</ele>
        <time>2019-08-04T06:53:58.789Z</time>
      </trkpt>
      <trkpt lat="42.532145" lon="1.56146667">
        <ele>1456.0</ele>
        <time>2019-08-04T06:53:59.774Z</time>
      </trkpt>
      <trkpt lat="42.5321" lon="1.56145333">
        <ele>1457.0</ele>
        <time>2019-08-04T06:54:00.796Z</time>
      </trkpt>
      <trkpt lat="42.5321" lon="1.56145333">
        <ele>1457.0</ele>
        <time>2019-08-04T06:54:01.775Z</time>
      </trkpt>
      <trkpt lat="42.53205833" lon="1.56144333">
        <ele>1457.0</ele>
        <time>2019-08-04T06:54:02.771Z</time>
      </trkpt>
      <trkpt lat="42.53205833" lon="1.56144333">
        <ele>1457.0</ele>
        <time>2019-08-04T06:54:03.796Z</time>
      </trkpt>
      <trkpt lat="42.532025" lon="1.56143167">
        <ele>1457.0</ele>
        <time>2019-08-04T06:54:04.779Z</time>
      </trkpt>
      <trkpt lat="42.532025" lon="1.56143167">
        <ele>1457.0</ele>
        <time>2019-08-04T06:54:05.777Z</time>
      </trkpt>
      <trkpt lat="42.53199" lon="1.56142167">
        <ele>1458.0</ele>
        <time>2019-08-04T06:54:06.778Z</time>
      </trkpt>
      <trkpt lat="42.53199" lon="1.56142167">
        <ele>1458.0</ele>
        <time>2019-08-04T06:54:07.771Z</time>
      </trkpt>
      <trkpt lat="42.53195" lon="1.56140333">
        <ele>1459.0</ele>
        <time>2019-08-04T06:54:08.791Z</time>
      </trkpt>
      <trkpt lat="42.53195" lon="1.56140333">
        <ele>1459.0</ele>
        <time>2019-08-04T06:54:09.773Z</time>
      </trkpt>
      <trkpt lat="42.53191167" lon="1.56138333">
        <ele>1459.0</ele>
        <time>2019-08-04T06:54:10.778Z</time>
      </trkpt>
      <trkpt lat="42.53191167" lon="1.56138333">
        <ele>1459.0</ele>
        <time>2019-08-04T06:54:11.770Z</time>
      </trkpt>
      <trkpt lat="42.53187833" lon="1.56134833">
        <ele>1459.0</ele>
        <time>2019-08-04T06:54:12.802Z</time>
      </trkpt>
      <trkpt lat="42.53187833" lon="1.56134833">
        <ele>1459.0</ele>
        <time>2019-08-04T06:54:13.785Z</time>
      </trkpt>
      <trkpt lat="42.53184167" lon="1.56131167">
        <ele>1461.0</ele>
        <time>2019-08-04T06:54:14.779Z</time>
      </trkpt>
      <trkpt lat="42.53184167" lon="1.56131167">
        <ele>1461.0</ele>
        <time>2019-08-04T06:54:15.774Z</time>
      </trkpt>
      <trkpt lat="42.53181667" lon="1.561265">
        <ele>1462.0</ele>
        <time>2019-08-04T06:54:16.778Z</time>
      </trkpt>
      <trkpt lat="42.53181667" lon="1.561265">
        <ele>1462.0</ele>
        <time>2019-08-04T06:54:17.789Z</time>
      </trkpt>
      <trkpt lat="42.53179833" lon="1.56121167">
        <ele>1464.0</ele>
        <time>2019-08-04T06:54:18.776Z</time>
      </trkpt>
      <trkpt lat="42.53178833" lon="1.561185">
        <ele>1464.0</ele>
        <time>2019-08-04T06:54:19.778Z</time>
      </trkpt>
      <trkpt lat="42.53178833" lon="1.561185">
        <ele>1464.0</ele>
        <time>2019-08-04T06:54:20.774Z</time>
      </trkpt>
      <trkpt lat="42.53177" lon="1.56112833">
        <ele>1465.0</ele>
        <time>2019-08-04T06:54:21.774Z</time>
      </trkpt>
      <trkpt lat="42.53176167" lon="1.56110167">
        <ele>1466.0</ele>
        <time>2019-08-04T06:54:22.766Z</time>
      </trkpt>
      <trkpt lat="42.53176167" lon="1.56110167">
        <ele>1466.0</ele>
        <time>2019-08-04T06:54:23.794Z</time>
      </trkpt>
      <trkpt lat="42.53174167" lon="1.56105">
        <ele>1467.0</ele>
        <time>2019-08-04T06:54:24.777Z</time>
      </trkpt>
      <trkpt lat="42.53174167" lon="1.56105">
        <ele>1467.0</ele>
        <time>2019-08-04T06:54:25.773Z</time>
      </trkpt>
      <trkpt lat="42.53173833" lon="1.56098833">
        <ele>1468.0</ele>
        <time>2019-08-04T06:54:26.791Z</time>
      </trkpt>
      <trkpt lat="42.53173833" lon="1.56098833">
        <ele>1468.0</ele>
        <time>2019-08-04T06:54:27.775Z</time>
      </trkpt>
      <trkpt lat="42.53173833" lon="1.560935">
        <ele>1468.0</ele>
        <time>2019-08-04T06:54:28.778Z</time>
      </trkpt>
      <trkpt lat="42.53173833" lon="1.560935">
        <ele>1468.0</ele>
        <time>2019-08-04T06:54:29.805Z</time>
      </trkpt>
      <trkpt lat="42.53174333" lon="1.56088">
        <ele>1469.0</ele>
        <time>2019-08-04T06:54:30.787Z</time>
      </trkpt>
      <trkpt lat="42.53174833" lon="1.56085333">
        <ele>1469.0</ele>
        <time>2019-08-04T06:54:31.790Z</time>
      </trkpt>
      <trkpt lat="42.53174833" lon="1.56085333">
        <ele>1469.0</ele>
        <time>2019-08-04T06:54:32.800Z</time>
      </trkpt>
      <trkpt lat="42.53176167" lon="1.5608">
        <ele>1470.0</ele>
        <time>2019-08-04T06:54:33.780Z</time>
      </trkpt>
      <trkpt lat="42.531765" lon="1.56077">
        <ele>1470.0</ele>
        <time>2019-08-04T06:54:34.778Z</time>
      </trkpt>
      <trkpt lat="42.531765" lon="1.56077">
        <ele>1470.0</ele>
        <time>2019-08-04T06:54:35.774Z</time>
      </trkpt>
      <trkpt lat="42.531765" lon="1.56071833">
        <ele>1471.0</ele>
        <time>2019-08-04T06:54:36.778Z</time>
      </trkpt>
      <trkpt lat="42.53176333" lon="1.56069">
        <ele>1471.0</ele>
        <time>2019-08-04T06:54:37.778Z</time>
      </trkpt>
      <trkpt lat="42.53176333" lon="1.56069">
        <ele>1471.0</ele>
        <time>2019-08-04T06:54:38.776Z</time>
      </trkpt>
      <trkpt lat="42.53175" lon="1.56063333">
        <ele>1472.0</ele>
        <time>2019-08-04T06:54:39.779Z</time>
      </trkpt>
      <trkpt lat="42.53173833" lon="1.56061">
        <ele>1472.0</ele>
        <time>2019-08-04T06:54:40.778Z</time>
      </trkpt>
      <trkpt lat="42.53173833" lon="1.56061">
        <ele>1472.0</ele>
        <time>2019-08-04T06:54:41.774Z</time>
      </trkpt>
      <trkpt lat="42.531705" lon="1.56056">
        <ele>1473.0</ele>
        <time>2019-08-04T06:54:42.802Z</time>
      </trkpt>
      <trkpt lat="42.531705" lon="1.56056">
        <ele>1473.0</ele>
        <time>2019-08-04T06:54:43.784Z</time>
      </trkpt>
      <trkpt lat="42.53167333" lon="1.56051167">
        <ele>1473.0</ele>
        <time>2019-08-04T06:54:44.780Z</time>
      </trkpt>
      <trkpt lat="42.53167333" lon="1.56051167">
        <ele>1473.0</ele>
        <time>2019-08-04T06:54:45.775Z</time>
      </trkpt>
      <trkpt lat="42.53164" lon="1.56046">
        <ele>1474.0</ele>
        <time>2019-08-04T06:54:46.778Z</time>
      </trkpt>
      <trkpt lat="42.53164" lon="1.56046">
        <ele>1474.0</ele>
        <time>2019-08-04T06:54:47.786Z</time>
      </trkpt>
      <trkpt lat="42.53161" lon="1.560415">
        <ele>1474.0</ele>
        <time>2019-08-04T06:54:48.777Z</time>
      </trkpt>
      <trkpt lat="42.5316" lon="1.56039333">
        <ele>1475.0</ele>
        <time>2019-08-04T06:54:49.779Z</time>
      </trkpt>
      <trkpt lat="42.5316" lon="1.56039333">
        <ele>1475.0</ele>
        <time>2019-08-04T06:54:50.775Z</time>
      </trkpt>
      <trkpt lat="42.531585" lon="1.56035333">
        <ele>1475.0</ele>
        <time>2019-08-04T06:54:51.777Z</time>
      </trkpt>
      <trkpt lat="42.531575" lon="1.56033167">
        <ele>1475.0</ele>
        <time>2019-08-04T06:54:52.769Z</time>
      </trkpt>
      <trkpt lat="42.531575" lon="1.56033167">
        <ele>1475.0</ele>
        <time>2019-08-04T06:54:53.791Z</time>
      </trkpt>
      <trkpt lat="42.53155167" lon="1.5603">
        <ele>1476.0</ele>
        <time>2019-08-04T06:54:54.772Z</time>
      </trkpt>
      <trkpt lat="42.53155167" lon="1.5603">
        <ele>1476.0</ele>
        <time>2019-08-04T06:54:55.794Z</time>
      </trkpt>
      <trkpt lat="42.53152667" lon="1.56025167">
        <ele>1476.0</ele>
        <time>2019-08-04T06:54:56.778Z</time>
      </trkpt>
      <trkpt lat="42.53152667" lon="1.56025167">
        <ele>1476.0</ele>
        <time>2019-08-04T06:54:57.774Z</time>
      </trkpt>
      <trkpt lat="42.53149833" lon="1.56021">
        <ele>1476.0</ele>
        <time>2019-08-04T06:54:58.791Z</time>
      </trkpt>
      <trkpt lat="42.53149833" lon="1.56021">
        <ele>1476.0</ele>
        <time>2019-08-04T06:54:59.781Z</time>
      </trkpt>
      <trkpt lat="42.531475" lon="1.56016">
        <ele>1477.0</ele>
        <time>2019-08-04T06:55:00.778Z</time>
      </trkpt>
      <trkpt lat="42.531475" lon="1.56016">
        <ele>1477.0</ele>
        <time>2019-08-04T06:55:01.774Z</time>
      </trkpt>
      <trkpt lat="42.53145167" lon="1.560115">
        <ele>1477.0</ele>
        <time>2019-08-04T06:55:02.804Z</time>
      </trkpt>
      <trkpt lat="42.53145167" lon="1.560115">
        <ele>1477.0</ele>
        <time>2019-08-04T06:55:03.789Z</time>
      </trkpt>
      <trkpt lat="42.53142667" lon="1.56007333">
        <ele>1477.0</ele>
        <time>2019-08-04T06:55:04.800Z</time>
      </trkpt>
      <trkpt lat="42.531415" lon="1.56005667">
        <ele>1478.0</ele>
        <time>2019-08-04T06:55:05.772Z</time>
      </trkpt>
      <trkpt lat="42.531415" lon="1.56005667">
        <ele>1478.0</ele>
        <time>2019-08-04T06:55:06.775Z</time>
      </trkpt>
      <trkpt lat="42.53138833" lon="1.56002333">
        <ele>1478.0</ele>
        <time>2019-08-04T06:55:07.777Z</time>
      </trkpt>
      <trkpt lat="42.53137833" lon="1.56000167">
        <ele>1478.0</ele>
        <time>2019-08-04T06:55:08.776Z</time>
      </trkpt>
      <trkpt lat="42.53137833" lon="1.56000167">
        <ele>1478.0</ele>
        <time>2019-08-04T06:55:09.771Z</time>
      </trkpt>
      <trkpt lat="42.53135667" lon="1.55996333">
        <ele>1479.0</ele>
        <time>2019-08-04T06:55:10.791Z</time>
      </trkpt>
      <trkpt lat="42.53135667" lon="1.55996333">
        <ele>1479.0</ele>
        <time>2019-08-04T06:55:11.774Z</time>
      </trkpt>
      <trkpt lat="42.53133333" lon="1.55992333">
        <ele>1479.0</ele>
        <time>2019-08-04T06:55:12.780Z</time>
      </trkpt>
      <trkpt lat="42.53133333" lon="1.55992333">
        <ele>1479.0</ele>
        <time>2019-08-04T06:55:13.774Z</time>
      </trkpt>
      <trkpt lat="42.53130833" lon="1.55988333">
        <ele>1480.0</ele>
        <time>2019-08-04T06:55:14.799Z</time>
      </trkpt>
      <trkpt lat="42.53130833" lon="1.55988333">
        <ele>1480.0</ele>
        <time>2019-08-04T06:55:15.777Z</time>
      </trkpt>
      <trkpt lat="42.531285" lon="1.55984833">
        <ele>1480.0</ele>
        <time>2019-08-04T06:55:16.778Z</time>
      </trkpt>
      <trkpt lat="42.531285" lon="1.55984833">
        <ele>1480.0</ele>
        <time>2019-08-04T06:55:17.775Z</time>
      </trkpt>
      <trkpt lat="42.53125667" lon="1.55981833">
        <ele>1480.0</ele>
        <time>2019-08-04T06:55:18.778Z</time>
      </trkpt>
      <trkpt lat="42.53125667" lon="1.55981833">
        <ele>1480.0</ele>
        <time>2019-08-04T06:55:19.768Z</time>
      </trkpt>
      <trkpt lat="42.53123833" lon="1.55978333">
        <ele>1481.0</ele>
        <time>2019-08-04T06:55:20.788Z</time>
      </trkpt>
      <trkpt lat="42.53123833" lon="1.55978333">
        <ele>1481.0</ele>
        <time>2019-08-04T06:55:21.775Z</time>
      </trkpt>
      <trkpt lat="42.53123333" lon="1.55973333">
        <ele>1481.0</ele>
        <time>2019-08-04T06:55:22.768Z</time>
      </trkpt>
      <trkpt lat="42.53123333" lon="1.55973333">
        <ele>1481.0</ele>
        <time>2019-08-04T06:55:23.791Z</time>
      </trkpt>
      <trkpt lat="42.53124833" lon="1.55969667">
        <ele>1482.0</ele>
        <time>2019-08-04T06:55:24.780Z</time>
      </trkpt>
      <trkpt lat="42.53124833" lon="1.55969667">
        <ele>1482.0</ele>
        <time>2019-08-04T06:55:25.774Z</time>
      </trkpt>
      <trkpt lat="42.53127667" lon="1.55968167">
        <ele>1482.0</ele>
        <time>2019-08-04T06:55:26.793Z</time>
      </trkpt>
      <trkpt lat="42.53127667" lon="1.55968167">
        <ele>1482.0</ele>
        <time>2019-08-04T06:55:27.774Z</time>
      </trkpt>
      <trkpt lat="42.53130833" lon="1.55968833">
        <ele>1483.0</ele>
        <time>2019-08-04T06:55:28.793Z</time>
      </trkpt>
      <trkpt lat="42.53130833" lon="1.55968833">
        <ele>1483.0</ele>
        <time>2019-08-04T06:55:29.775Z</time>
      </trkpt>
      <trkpt lat="42.53134" lon="1.55972667">
        <ele>1483.0</ele>
        <time>2019-08-04T06:55:30.778Z</time>
      </trkpt>
      <trkpt lat="42.53134" lon="1.55972667">
        <ele>1483.0</ele>
        <time>2019-08-04T06:55:31.775Z</time>
      </trkpt>
      <trkpt lat="42.53137167" lon="1.55977333">
        <ele>1484.0</ele>
        <time>2019-08-04T06:55:32.796Z</time>
      </trkpt>
      <trkpt lat="42.53137167" lon="1.55977333">
        <ele>1484.0</ele>
        <time>2019-08-04T06:55:33.776Z</time>
      </trkpt>
      <trkpt lat="42.53140667" lon="1.55983">
        <ele>1484.0</ele>
        <time>2019-08-04T06:55:34.784Z</time>
      </trkpt>
      <trkpt lat="42.53140667" lon="1.55983">
        <ele>1484.0</ele>
        <time>2019-08-04T06:55:35.775Z</time>
      </trkpt>
      <trkpt lat="42.531445" lon="1.55987833">
        <ele>1485.0</ele>
        <time>2019-08-04T06:55:36.778Z</time>
      </trkpt>
      <trkpt lat="42.531445" lon="1.55987833">
        <ele>1485.0</ele>
        <time>2019-08-04T06:55:37.774Z</time>
      </trkpt>
      <trkpt lat="42.53149667" lon="1.55990667">
        <ele>1485.0</ele>
        <time>2019-08-04T06:55:38.794Z</time>
      </trkpt>
      <trkpt lat="42.53149667" lon="1.55990667">
        <ele>1485.0</ele>
        <time>2019-08-04T06:55:39.775Z</time>
      </trkpt>
      <trkpt lat="42.53154833" lon="1.559925">
        <ele>1485.0</ele>
        <time>2019-08-04T06:55:40.778Z</time>
      </trkpt>
      <trkpt lat="42.53154833" lon="1.559925">
        <ele>1485.0</ele>
        <time>2019-08-04T06:55:41.775Z</time>
      </trkpt>
      <trkpt lat="42.53159667" lon="1.55993667">
        <ele>1486.0</ele>
        <time>2019-08-04T06:55:42.804Z</time>
      </trkpt>
      <trkpt lat="42.53161833" lon="1.55994167">
        <ele>1486.0</ele>
        <time>2019-08-04T06:55:43.786Z</time>
      </trkpt>
      <trkpt lat="42.53161833" lon="1.55994167">
        <ele>1486.0</ele>
        <time>2019-08-04T06:55:44.781Z</time>
      </trkpt>
      <trkpt lat="42.53167333" lon="1.55996833">
        <ele>1487.0</ele>
        <time>2019-08-04T06:55:45.775Z</time>
      </trkpt>
      <trkpt lat="42.53169667" lon="1.55998333">
        <ele>1487.0</ele>
        <time>2019-08-04T06:55:46.779Z</time>
      </trkpt>
      <trkpt lat="42.53169667" lon="1.55998333">
        <ele>1487.0</ele>
        <time>2019-08-04T06:55:47.775Z</time>
      </trkpt>
      <trkpt lat="42.53173333" lon="1.56002">
        <ele>1488.0</ele>
        <time>2019-08-04T06:55:48.777Z</time>
      </trkpt>
      <trkpt lat="42.53173333" lon="1.56002">
        <ele>1488.0</ele>
        <time>2019-08-04T06:55:49.775Z</time>
      </trkpt>
      <trkpt lat="42.53176333" lon="1.560065">
        <ele>1489.0</ele>
        <time>2019-08-04T06:55:50.779Z</time>
      </trkpt>
      <trkpt lat="42.53176333" lon="1.560065">
        <ele>1489.0</ele>
        <time>2019-08-04T06:55:51.774Z</time>
      </trkpt>
      <trkpt lat="42.53178833" lon="1.560105">
        <ele>1489.0</ele>
        <time>2019-08-04T06:55:52.769Z</time>
      </trkpt>
      <trkpt lat="42.53178833" lon="1.560105">
        <ele>1489.0</ele>
        <time>2019-08-04T06:55:53.791Z</time>
      </trkpt>
      <trkpt lat="42.53181167" lon="1.56015167">
        <ele>1490.0</ele>
        <time>2019-08-04T06:55:54.780Z</time>
      </trkpt>
      <trkpt lat="42.53181167" lon="1.56015167">
        <ele>1490.0</ele>
        <time>2019-08-04T06:55:55.789Z</time>
      </trkpt>
      <trkpt lat="42.53183833" lon="1.56019833">
        <ele>1490.0</ele>
        <time>2019-08-04T06:55:56.776Z</time>
      </trkpt>
      <trkpt lat="42.53183833" lon="1.56019833">
        <ele>1490.0</ele>
        <time>2019-08-04T06:55:57.773Z</time>
      </trkpt>
      <trkpt lat="42.53186" lon="1.56025333">
        <ele>1491.0</ele>
        <time>2019-08-04T06:55:58.800Z</time>
      </trkpt>
      <trkpt lat="42.53186" lon="1.56025333">
        <ele>1491.0</ele>
        <time>2019-08-04T06:55:59.779Z</time>
      </trkpt>
      <trkpt lat="42.53188833" lon="1.56030167">
        <ele>1493.0</ele>
        <time>2019-08-04T06:56:00.780Z</time>
      </trkpt>
      <trkpt lat="42.53188833" lon="1.56030167">
        <ele>1493.0</ele>
        <time>2019-08-04T06:56:01.772Z</time>
      </trkpt>
      <trkpt lat="42.53192333" lon="1.56032833">
        <ele>1494.0</ele>
        <time>2019-08-04T06:56:02.801Z</time>
      </trkpt>
      <trkpt lat="42.53192333" lon="1.56032833">
        <ele>1494.0</ele>
        <time>2019-08-04T06:56:03.780Z</time>
      </trkpt>
      <trkpt lat="42.53196667" lon="1.560355">
        <ele>1495.0</ele>
        <time>2019-08-04T06:56:04.785Z</time>
      </trkpt>
      <trkpt lat="42.53196667" lon="1.560355">
        <ele>1495.0</ele>
        <time>2019-08-04T06:56:05.772Z</time>
      </trkpt>
      <trkpt lat="42.53201167" lon="1.56036833">
        <ele>1496.0</ele>
        <time>2019-08-04T06:56:06.779Z</time>
      </trkpt>
      <trkpt lat="42.53203667" lon="1.56037667">
        <ele>1497.0</ele>
        <time>2019-08-04T06:56:07.779Z</time>
      </trkpt>
      <trkpt lat="42.53203667" lon="1.56037667">
        <ele>1497.0</ele>
        <time>2019-08-04T06:56:08.777Z</time>
      </trkpt>
      <trkpt lat="42.5321" lon="1.56037667">
        <ele>1498.0</ele>
        <time>2019-08-04T06:56:09.778Z</time>
      </trkpt>
      <trkpt lat="42.53213167" lon="1.56037667">
        <ele>1498.0</ele>
        <time>2019-08-04T06:56:10.779Z</time>
      </trkpt>
      <trkpt lat="42.53213167" lon="1.56037667">
        <ele>1498.0</ele>
        <time>2019-08-04T06:56:11.773Z</time>
      </trkpt>
      <trkpt lat="42.53218833" lon="1.56036667">
        <ele>1499.0</ele>
        <time>2019-08-04T06:56:12.770Z</time>
      </trkpt>
      <trkpt lat="42.53218833" lon="1.56036667">
        <ele>1499.0</ele>
        <time>2019-08-04T06:56:13.776Z</time>
      </trkpt>
      <trkpt lat="42.53224667" lon="1.56032667">
        <ele>1498.0</ele>
        <time>2019-08-04T06:56:14.791Z</time>
      </trkpt>
      <trkpt lat="42.53227333" lon="1.560305">
        <ele>1498.0</ele>
        <time>2019-08-04T06:56:15.779Z</time>
      </trkpt>
      <trkpt lat="42.53227333" lon="1.560305">
        <ele>1498.0</ele>
        <time>2019-08-04T06:56:16.776Z</time>
      </trkpt>
      <trkpt lat="42.53231333" lon="1.56025333">
        <ele>1498.0</ele>
        <time>2019-08-04T06:56:17.788Z</time>
      </trkpt>
      <trkpt lat="42.53232667" lon="1.56022">
        <ele>1498.0</ele>
        <time>2019-08-04T06:56:18.779Z</time>
      </trkpt>
      <trkpt lat="42.53233667" lon="1.56018333">
        <ele>1498.0</ele>
        <time>2019-08-04T06:56:19.778Z</time>
      </trkpt>
      <trkpt lat="42.53234167" lon="1.56014833">
        <ele>1498.0</ele>
        <time>2019-08-04T06:56:20.780Z</time>
      </trkpt>
      <trkpt lat="42.53234167" lon="1.56014833">
        <ele>1498.0</ele>
        <time>2019-08-04T06:56:21.776Z</time>
      </trkpt>
      <trkpt lat="42.53235" lon="1.56007">
        <ele>1498.0</ele>
        <time>2019-08-04T06:56:22.769Z</time>
      </trkpt>
      <trkpt lat="42.53235" lon="1.56007">
        <ele>1498.0</ele>
        <time>2019-08-04T06:56:23.791Z</time>
      </trkpt>
      <trkpt lat="42.53235333" lon="1.55999333">
        <ele>1498.0</ele>
        <time>2019-08-04T06:56:24.777Z</time>
      </trkpt>
      <trkpt lat="42.53235333" lon="1.55995833">
        <ele>1498.0</ele>
        <time>2019-08-04T06:56:25.787Z</time>
      </trkpt>
      <trkpt lat="42.53235" lon="1.559925">
        <ele>1498.0</ele>
        <time>2019-08-04T06:56:26.780Z</time>
      </trkpt>
      <trkpt lat="42.53235" lon="1.559925">
        <ele>1498.0</ele>
        <time>2019-08-04T06:56:27.776Z</time>
      </trkpt>
      <trkpt lat="42.53232833" lon="1.559865">
        <ele>1498.0</ele>
        <time>2019-08-04T06:56:28.776Z</time>
      </trkpt>
      <trkpt lat="42.53232833" lon="1.559865">
        <ele>1498.0</ele>
        <time>2019-08-04T06:56:29.773Z</time>
      </trkpt>
      <trkpt lat="42.53230333" lon="1.55981333">
        <ele>1498.0</ele>
        <time>2019-08-04T06:56:30.792Z</time>
      </trkpt>
      <trkpt lat="42.53230333" lon="1.55981333">
        <ele>1498.0</ele>
        <time>2019-08-04T06:56:31.788Z</time>
      </trkpt>
      <trkpt lat="42.53227833" lon="1.55976667">
        <ele>1498.0</ele>
        <time>2019-08-04T06:56:32.769Z</time>
      </trkpt>
      <trkpt lat="42.53227833" lon="1.55976667">
        <ele>1498.0</ele>
        <time>2019-08-04T06:56:33.789Z</time>
      </trkpt>
      <trkpt lat="42.53225333" lon="1.55972333">
        <ele>1498.0</ele>
        <time>2019-08-04T06:56:34.779Z</time>
      </trkpt>
      <trkpt lat="42.53225333" lon="1.55972333">
        <ele>1498.0</ele>
        <time>2019-08-04T06:56:35.776Z</time>
      </trkpt>
      <trkpt lat="42.53224333" lon="1.55965667">
        <ele>1498.0</ele>
        <time>2019-08-04T06:56:36.778Z</time>
      </trkpt>
      <trkpt lat="42.53224333" lon="1.55965667">
        <ele>1498.0</ele>
        <time>2019-08-04T06:56:37.776Z</time>
      </trkpt>
      <trkpt lat="42.53225" lon="1.55959667">
        <ele>1498.0</ele>
        <time>2019-08-04T06:56:38.778Z</time>
      </trkpt>
      <trkpt lat="42.53225" lon="1.55959667">
        <ele>1498.0</ele>
        <time>2019-08-04T06:56:39.772Z</time>
      </trkpt>
      <trkpt lat="42.53227" lon="1.55955167">
        <ele>1498.0</ele>
        <time>2019-08-04T06:56:40.792Z</time>
      </trkpt>
      <trkpt lat="42.53227" lon="1.55955167">
        <ele>1498.0</ele>
        <time>2019-08-04T06:56:41.776Z</time>
      </trkpt>
      <trkpt lat="42.53230833" lon="1.55950833">
        <ele>1498.0</ele>
        <time>2019-08-04T06:56:42.771Z</time>
      </trkpt>
      <trkpt lat="42.53230833" lon="1.55950833">
        <ele>1498.0</ele>
        <time>2019-08-04T06:56:43.790Z</time>
      </trkpt>
      <trkpt lat="42.53234" lon="1.55947667">
        <ele>1498.0</ele>
        <time>2019-08-04T06:56:44.780Z</time>
      </trkpt>
      <trkpt lat="42.53234" lon="1.55947667">
        <ele>1498.0</ele>
        <time>2019-08-04T06:56:45.784Z</time>
      </trkpt>
      <trkpt lat="42.53235667" lon="1.55947333">
        <ele>1499.0</ele>
        <time>2019-08-04T06:56:46.779Z</time>
      </trkpt>
      <trkpt lat="42.53235667" lon="1.55947333">
        <ele>1499.0</ele>
        <time>2019-08-04T06:56:47.786Z</time>
      </trkpt>
      <trkpt lat="42.53238667" lon="1.55948">
        <ele>1500.0</ele>
        <time>2019-08-04T06:56:48.779Z</time>
      </trkpt>
      <trkpt lat="42.53238667" lon="1.55948">
        <ele>1500.0</ele>
        <time>2019-08-04T06:56:49.774Z</time>
      </trkpt>
      <trkpt lat="42.532435" lon="1.559485">
        <ele>1500.0</ele>
        <time>2019-08-04T06:56:50.795Z</time>
      </trkpt>
      <trkpt lat="42.532435" lon="1.559485">
        <ele>1500.0</ele>
        <time>2019-08-04T06:56:51.775Z</time>
      </trkpt>
      <trkpt lat="42.53248167" lon="1.55946833">
        <ele>1501.0</ele>
        <time>2019-08-04T06:56:52.801Z</time>
      </trkpt>
      <trkpt lat="42.53248167" lon="1.55946833">
        <ele>1501.0</ele>
        <time>2019-08-04T06:56:53.791Z</time>
      </trkpt>
      <trkpt lat="42.53253" lon="1.55945">
        <ele>1501.0</ele>
        <time>2019-08-04T06:56:54.778Z</time>
      </trkpt>
      <trkpt lat="42.53253" lon="1.55945">
        <ele>1501.0</ele>
        <time>2019-08-04T06:56:55.782Z</time>
      </trkpt>
      <trkpt lat="42.53256167" lon="1.55942167">
        <ele>1501.0</ele>
        <time>2019-08-04T06:56:56.779Z</time>
      </trkpt>
      <trkpt lat="42.53256167" lon="1.55942167">
        <ele>1501.0</ele>
        <time>2019-08-04T06:56:57.776Z</time>
      </trkpt>
      <trkpt lat="42.53258167" lon="1.55938667">
        <ele>1501.0</ele>
        <time>2019-08-04T06:56:58.791Z</time>
      </trkpt>
      <trkpt lat="42.53258167" lon="1.55938667">
        <ele>1501.0</ele>
        <time>2019-08-04T06:56:59.774Z</time>
      </trkpt>
      <trkpt lat="42.53259833" lon="1.55935667">
        <ele>1502.0</ele>
        <time>2019-08-04T06:57:00.782Z</time>
      </trkpt>
      <trkpt lat="42.53259833" lon="1.55935667">
        <ele>1502.0</ele>
        <time>2019-08-04T06:57:01.775Z</time>
      </trkpt>
      <trkpt lat="42.53262167" lon="1.559305">
        <ele>1502.0</ele>
        <time>2019-08-04T06:57:02.771Z</time>
      </trkpt>
      <trkpt lat="42.53262167" lon="1.559305">
        <ele>1502.0</ele>
        <time>2019-08-04T06:57:03.791Z</time>
      </trkpt>
      <trkpt lat="42.53265167" lon="1.55925667">
        <ele>1503.0</ele>
        <time>2019-08-04T06:57:04.778Z</time>
      </trkpt>
      <trkpt lat="42.53265167" lon="1.55925667">
        <ele>1503.0</ele>
        <time>2019-08-04T06:57:05.794Z</time>
      </trkpt>
      <trkpt lat="42.53268167" lon="1.55920667">
        <ele>1503.0</ele>
        <time>2019-08-04T06:57:06.779Z</time>
      </trkpt>
      <trkpt lat="42.53268167" lon="1.55920667">
        <ele>1503.0</ele>
        <time>2019-08-04T06:57:07.776Z</time>
      </trkpt>
      <trkpt lat="42.53271167" lon="1.559165">
        <ele>1503.0</ele>
        <time>2019-08-04T06:57:08.780Z</time>
      </trkpt>
      <trkpt lat="42.53271167" lon="1.559165">
        <ele>1503.0</ele>
        <time>2019-08-04T06:57:09.773Z</time>
      </trkpt>
      <trkpt lat="42.53275" lon="1.559135">
        <ele>1503.0</ele>
        <time>2019-08-04T06:57:10.793Z</time>
      </trkpt>
      <trkpt lat="42.53275" lon="1.559135">
        <ele>1503.0</ele>
        <time>2019-08-04T06:57:11.776Z</time>
      </trkpt>
      <trkpt lat="42.53278333" lon="1.55914">
        <ele>1504.0</ele>
        <time>2019-08-04T06:57:12.766Z</time>
      </trkpt>
      <trkpt lat="42.53278333" lon="1.55914">
        <ele>1504.0</ele>
        <time>2019-08-04T06:57:13.787Z</time>
      </trkpt>
      <trkpt lat="42.53282167" lon="1.55914">
        <ele>1504.0</ele>
        <time>2019-08-04T06:57:14.781Z</time>
      </trkpt>
      <trkpt lat="42.53282167" lon="1.55914">
        <ele>1504.0</ele>
        <time>2019-08-04T06:57:15.780Z</time>
      </trkpt>
      <trkpt lat="42.53285833" lon="1.55915">
        <ele>1505.0</ele>
        <time>2019-08-04T06:57:16.779Z</time>
      </trkpt>
      <trkpt lat="42.53285833" lon="1.55915">
        <ele>1505.0</ele>
        <time>2019-08-04T06:57:17.786Z</time>
      </trkpt>
      <trkpt lat="42.53291167" lon="1.559155">
        <ele>1506.0</ele>
        <time>2019-08-04T06:57:18.778Z</time>
      </trkpt>
      <trkpt lat="42.53294333" lon="1.55915667">
        <ele>1507.0</ele>
        <time>2019-08-04T06:57:19.779Z</time>
      </trkpt>
      <trkpt lat="42.53294333" lon="1.55915667">
        <ele>1507.0</ele>
        <time>2019-08-04T06:57:20.778Z</time>
      </trkpt>
      <trkpt lat="42.53299167" lon="1.55916667">
        <ele>1509.0</ele>
        <time>2019-08-04T06:57:21.778Z</time>
      </trkpt>
      <trkpt lat="42.53302" lon="1.55917333">
        <ele>1509.0</ele>
        <time>2019-08-04T06:57:22.770Z</time>
      </trkpt>
      <trkpt lat="42.53302" lon="1.55917333">
        <ele>1509.0</ele>
        <time>2019-08-04T06:57:23.791Z</time>
      </trkpt>
      <trkpt lat="42.533075" lon="1.559185">
        <ele>1510.0</ele>
        <time>2019-08-04T06:57:24.779Z</time>
      </trkpt>
      <trkpt lat="42.533075" lon="1.559185">
        <ele>1510.0</ele>
        <time>2019-08-04T06:57:25.781Z</time>
      </trkpt>
      <trkpt lat="42.53313" lon="1.55920333">
        <ele>1512.0</ele>
        <time>2019-08-04T06:57:26.781Z</time>
      </trkpt>
      <trkpt lat="42.53313" lon="1.55920333">
        <ele>1512.0</ele>
        <time>2019-08-04T06:57:27.773Z</time>
      </trkpt>
      <trkpt lat="42.533185" lon="1.55922333">
        <ele>1513.0</ele>
        <time>2019-08-04T06:57:28.781Z</time>
      </trkpt>
      <trkpt lat="42.533185" lon="1.55922333">
        <ele>1513.0</ele>
        <time>2019-08-04T06:57:29.774Z</time>
      </trkpt>
      <trkpt lat="42.53322833" lon="1.55923167">
        <ele>1514.0</ele>
        <time>2019-08-04T06:57:30.778Z</time>
      </trkpt>
      <trkpt lat="42.53325667" lon="1.55922333">
        <ele>1514.0</ele>
        <time>2019-08-04T06:57:31.778Z</time>
      </trkpt>
      <trkpt lat="42.53328167" lon="1.55920833">
        <ele>1515.0</ele>
        <time>2019-08-04T06:57:32.772Z</time>
      </trkpt>
      <trkpt lat="42.53328167" lon="1.55920833">
        <ele>1515.0</ele>
        <time>2019-08-04T06:57:33.775Z</time>
      </trkpt>
      <trkpt lat="42.53332833" lon="1.55914667">
        <ele>1515.0</ele>
        <time>2019-08-04T06:57:34.779Z</time>
      </trkpt>
      <trkpt lat="42.53332833" lon="1.55914667">
        <ele>1515.0</ele>
        <time>2019-08-04T06:57:35.779Z</time>
      </trkpt>
      <trkpt lat="42.53334167" lon="1.55907167">
        <ele>1516.0</ele>
        <time>2019-08-04T06:57:36.778Z</time>
      </trkpt>
      <trkpt lat="42.53334167" lon="1.55907167">
        <ele>1516.0</ele>
        <time>2019-08-04T06:57:37.773Z</time>
      </trkpt>
      <trkpt lat="42.53333333" lon="1.55900167">
        <ele>1516.0</ele>
        <time>2019-08-04T06:57:38.792Z</time>
      </trkpt>
      <trkpt lat="42.53333333" lon="1.55900167">
        <ele>1516.0</ele>
        <time>2019-08-04T06:57:39.775Z</time>
      </trkpt>
      <trkpt lat="42.53330667" lon="1.55894167">
        <ele>1516.0</ele>
        <time>2019-08-04T06:57:40.776Z</time>
      </trkpt>
      <trkpt lat="42.53330667" lon="1.55894167">
        <ele>1516.0</ele>
        <time>2019-08-04T06:57:41.777Z</time>
      </trkpt>
      <trkpt lat="42.533265" lon="1.55889833">
        <ele>1517.0</ele>
        <time>2019-08-04T06:57:42.772Z</time>
      </trkpt>
      <trkpt lat="42.533265" lon="1.55889833">
        <ele>1517.0</ele>
        <time>2019-08-04T06:57:43.791Z</time>
      </trkpt>
      <trkpt lat="42.533215" lon="1.55886833">
        <ele>1517.0</ele>
        <time>2019-08-04T06:57:44.777Z</time>
      </trkpt>
      <trkpt lat="42.533215" lon="1.55886833">
        <ele>1517.0</ele>
        <time>2019-08-04T06:57:45.784Z</time>
      </trkpt>
      <trkpt lat="42.53316667" lon="1.55883667">
        <ele>1517.0</ele>
        <time>2019-08-04T06:57:46.779Z</time>
      </trkpt>
      <trkpt lat="42.53316667" lon="1.55883667">
        <ele>1517.0</ele>
        <time>2019-08-04T06:57:47.776Z</time>
      </trkpt>
      <trkpt lat="42.53312" lon="1.55880333">
        <ele>1518.0</ele>
        <time>2019-08-04T06:57:48.779Z</time>
      </trkpt>
      <trkpt lat="42.53312" lon="1.55880333">
        <ele>1518.0</ele>
        <time>2019-08-04T06:57:49.773Z</time>
      </trkpt>
      <trkpt lat="42.53306667" lon="1.55876833">
        <ele>1517.0</ele>
        <time>2019-08-04T06:57:50.793Z</time>
      </trkpt>
      <trkpt lat="42.53306667" lon="1.55876833">
        <ele>1517.0</ele>
        <time>2019-08-04T06:57:51.775Z</time>
      </trkpt>
      <trkpt lat="42.53301167" lon="1.558735">
        <ele>1517.0</ele>
        <time>2019-08-04T06:57:52.770Z</time>
      </trkpt>
      <trkpt lat="42.53301167" lon="1.558735">
        <ele>1517.0</ele>
        <time>2019-08-04T06:57:53.791Z</time>
      </trkpt>
      <trkpt lat="42.53295333" lon="1.55870833">
        <ele>1518.0</ele>
        <time>2019-08-04T06:57:54.794Z</time>
      </trkpt>
      <trkpt lat="42.53292333" lon="1.55869167">
        <ele>1518.0</ele>
        <time>2019-08-04T06:57:55.789Z</time>
      </trkpt>
      <trkpt lat="42.53289167" lon="1.558675">
        <ele>1518.0</ele>
        <time>2019-08-04T06:57:56.781Z</time>
      </trkpt>
      <trkpt lat="42.53289167" lon="1.558675">
        <ele>1518.0</ele>
        <time>2019-08-04T06:57:57.774Z</time>
      </trkpt>
      <trkpt lat="42.53283167" lon="1.55864667">
        <ele>1517.0</ele>
        <time>2019-08-04T06:57:58.793Z</time>
      </trkpt>
      <trkpt lat="42.53283167" lon="1.55864667">
        <ele>1517.0</ele>
        <time>2019-08-04T06:57:59.780Z</time>
      </trkpt>
      <trkpt lat="42.53276667" lon="1.55863167">
        <ele>1518.0</ele>
        <time>2019-08-04T06:58:00.779Z</time>
      </trkpt>
      <trkpt lat="42.53276667" lon="1.55863167">
        <ele>1518.0</ele>
        <time>2019-08-04T06:58:01.774Z</time>
      </trkpt>
      <trkpt lat="42.53270167" lon="1.55862833">
        <ele>1518.0</ele>
        <time>2019-08-04T06:58:02.804Z</time>
      </trkpt>
      <trkpt lat="42.53270167" lon="1.55862833">
        <ele>1518.0</ele>
        <time>2019-08-04T06:58:03.785Z</time>
      </trkpt>
      <trkpt lat="42.53264167" lon="1.558615">
        <ele>1518.0</ele>
        <time>2019-08-04T06:58:04.777Z</time>
      </trkpt>
      <trkpt lat="42.53264167" lon="1.558615">
        <ele>1518.0</ele>
        <time>2019-08-04T06:58:05.784Z</time>
      </trkpt>
      <trkpt lat="42.53258167" lon="1.55860833">
        <ele>1518.0</ele>
        <time>2019-08-04T06:58:06.779Z</time>
      </trkpt>
      <trkpt lat="42.53258167" lon="1.55860833">
        <ele>1518.0</ele>
        <time>2019-08-04T06:58:07.774Z</time>
      </trkpt>
      <trkpt lat="42.53252833" lon="1.55858667">
        <ele>1518.0</ele>
        <time>2019-08-04T06:58:08.795Z</time>
      </trkpt>
      <trkpt lat="42.53252833" lon="1.55858667">
        <ele>1518.0</ele>
        <time>2019-08-04T06:58:09.776Z</time>
      </trkpt>
      <trkpt lat="42.53247667" lon="1.55857667">
        <ele>1518.0</ele>
        <time>2019-08-04T06:58:10.783Z</time>
      </trkpt>
      <trkpt lat="42.53247667" lon="1.55857667">
        <ele>1518.0</ele>
        <time>2019-08-04T06:58:11.776Z</time>
      </trkpt>
      <trkpt lat="42.532415" lon="1.55856333">
        <ele>1518.0</ele>
        <time>2019-08-04T06:58:12.801Z</time>
      </trkpt>
      <trkpt lat="42.532415" lon="1.55856333">
        <ele>1518.0</ele>
        <time>2019-08-04T06:58:13.780Z</time>
      </trkpt>
      <trkpt lat="42.53235167" lon="1.55855167">
        <ele>1519.0</ele>
        <time>2019-08-04T06:58:14.780Z</time>
      </trkpt>
      <trkpt lat="42.53235167" lon="1.55855167">
        <ele>1519.0</ele>
        <time>2019-08-04T06:58:15.778Z</time>
      </trkpt>
      <trkpt lat="42.53228667" lon="1.55854333">
        <ele>1519.0</ele>
        <time>2019-08-04T06:58:16.779Z</time>
      </trkpt>
      <trkpt lat="42.53228667" lon="1.55854333">
        <ele>1519.0</ele>
        <time>2019-08-04T06:58:17.774Z</time>
      </trkpt>
      <trkpt lat="42.53222833" lon="1.55854833">
        <ele>1520.0</ele>
        <time>2019-08-04T06:58:18.794Z</time>
      </trkpt>
      <trkpt lat="42.53222833" lon="1.55854833">
        <ele>1520.0</ele>
        <time>2019-08-04T06:58:19.773Z</time>
      </trkpt>
      <trkpt lat="42.53216667" lon="1.55854167">
        <ele>1520.0</ele>
        <time>2019-08-04T06:58:20.795Z</time>
      </trkpt>
      <trkpt lat="42.53216667" lon="1.55854167">
        <ele>1520.0</ele>
        <time>2019-08-04T06:58:21.775Z</time>
      </trkpt>
      <trkpt lat="42.53210667" lon="1.55852">
        <ele>1520.0</ele>
        <time>2019-08-04T06:58:22.770Z</time>
      </trkpt>
      <trkpt lat="42.53207667" lon="1.55851">
        <ele>1520.0</ele>
        <time>2019-08-04T06:58:23.791Z</time>
      </trkpt>
      <trkpt lat="42.53207667" lon="1.55851">
        <ele>1520.0</ele>
        <time>2019-08-04T06:58:24.774Z</time>
      </trkpt>
      <trkpt lat="42.53202" lon="1.55849667">
        <ele>1520.0</ele>
        <time>2019-08-04T06:58:25.779Z</time>
      </trkpt>
      <trkpt lat="42.53202" lon="1.55849667">
        <ele>1520.0</ele>
        <time>2019-08-04T06:58:26.776Z</time>
      </trkpt>
      <trkpt lat="42.53196167" lon="1.5585">
        <ele>1521.0</ele>
        <time>2019-08-04T06:58:27.780Z</time>
      </trkpt>
      <trkpt lat="42.53193" lon="1.55849333">
        <ele>1521.0</ele>
        <time>2019-08-04T06:58:28.782Z</time>
      </trkpt>
      <trkpt lat="42.53193" lon="1.55849333">
        <ele>1521.0</ele>
        <time>2019-08-04T06:58:29.774Z</time>
      </trkpt>
      <trkpt lat="42.531865" lon="1.55848167">
        <ele>1521.0</ele>
        <time>2019-08-04T06:58:30.793Z</time>
      </trkpt>
      <trkpt lat="42.531865" lon="1.55848167">
        <ele>1521.0</ele>
        <time>2019-08-04T06:58:31.776Z</time>
      </trkpt>
      <trkpt lat="42.53181167" lon="1.55847">
        <ele>1522.0</ele>
        <time>2019-08-04T06:58:32.770Z</time>
      </trkpt>
      <trkpt lat="42.53181167" lon="1.55847">
        <ele>1522.0</ele>
        <time>2019-08-04T06:58:33.790Z</time>
      </trkpt>
      <trkpt lat="42.53175667" lon="1.55846167">
        <ele>1522.0</ele>
        <time>2019-08-04T06:58:34.780Z</time>
      </trkpt>
      <trkpt lat="42.53175667" lon="1.55846167">
        <ele>1522.0</ele>
        <time>2019-08-04T06:58:35.779Z</time>
      </trkpt>
      <trkpt lat="42.531705" lon="1.55845167">
        <ele>1522.0</ele>
        <time>2019-08-04T06:58:36.771Z</time>
      </trkpt>
      <trkpt lat="42.53167833" lon="1.55844667">
        <ele>1522.0</ele>
        <time>2019-08-04T06:58:37.791Z</time>
      </trkpt>
      <trkpt lat="42.53165" lon="1.558445">
        <ele>1522.0</ele>
        <time>2019-08-04T06:58:38.780Z</time>
      </trkpt>
      <trkpt lat="42.53162" lon="1.55844">
        <ele>1523.0</ele>
        <time>2019-08-04T06:58:39.780Z</time>
      </trkpt>
      <trkpt lat="42.53162" lon="1.55844">
        <ele>1523.0</ele>
        <time>2019-08-04T06:58:40.778Z</time>
      </trkpt>
      <trkpt lat="42.53156833" lon="1.55842667">
        <ele>1523.0</ele>
        <time>2019-08-04T06:58:41.793Z</time>
      </trkpt>
      <trkpt lat="42.53156833" lon="1.55842667">
        <ele>1523.0</ele>
        <time>2019-08-04T06:58:42.793Z</time>
      </trkpt>
      <trkpt lat="42.53151833" lon="1.55841333">
        <ele>1523.0</ele>
        <time>2019-08-04T06:58:43.779Z</time>
      </trkpt>
      <trkpt lat="42.531495" lon="1.55840333">
        <ele>1523.0</ele>
        <time>2019-08-04T06:58:44.781Z</time>
      </trkpt>
      <trkpt lat="42.531495" lon="1.55840333">
        <ele>1523.0</ele>
        <time>2019-08-04T06:58:45.774Z</time>
      </trkpt>
      <trkpt lat="42.53144833" lon="1.55837333">
        <ele>1523.0</ele>
        <time>2019-08-04T06:58:46.771Z</time>
      </trkpt>
      <trkpt lat="42.53142167" lon="1.55835833">
        <ele>1523.0</ele>
        <time>2019-08-04T06:58:47.791Z</time>
      </trkpt>
      <trkpt lat="42.5314" lon="1.558345">
        <ele>1523.0</ele>
        <time>2019-08-04T06:58:48.780Z</time>
      </trkpt>
      <trkpt lat="42.5314" lon="1.558345">
        <ele>1523.0</ele>
        <time>2019-08-04T06:58:49.776Z</time>
      </trkpt>
      <trkpt lat="42.53135333" lon="1.55831833">
        <ele>1524.0</ele>
        <time>2019-08-04T06:58:50.791Z</time>
      </trkpt>
      <trkpt lat="42.53135333" lon="1.55831833">
        <ele>1524.0</ele>
        <time>2019-08-04T06:58:51.777Z</time>
      </trkpt>
      <trkpt lat="42.53131167" lon="1.55828833">
        <ele>1524.0</ele>
        <time>2019-08-04T06:58:52.781Z</time>
      </trkpt>
      <trkpt lat="42.53131167" lon="1.55828833">
        <ele>1524.0</ele>
        <time>2019-08-04T06:58:53.776Z</time>
      </trkpt>
      <trkpt lat="42.53127" lon="1.55825667">
        <ele>1525.0</ele>
        <time>2019-08-04T06:58:54.778Z</time>
      </trkpt>
      <trkpt lat="42.53125" lon="1.55824">
        <ele>1525.0</ele>
        <time>2019-08-04T06:58:55.789Z</time>
      </trkpt>
      <trkpt lat="42.53125" lon="1.55824">
        <ele>1525.0</ele>
        <time>2019-08-04T06:58:56.789Z</time>
      </trkpt>
      <trkpt lat="42.53120667" lon="1.55819833">
        <ele>1525.0</ele>
        <time>2019-08-04T06:58:57.780Z</time>
      </trkpt>
      <trkpt lat="42.531185" lon="1.55817833">
        <ele>1525.0</ele>
        <time>2019-08-04T06:58:58.780Z</time>
      </trkpt>
      <trkpt lat="42.531185" lon="1.55817833">
        <ele>1525.0</ele>
        <time>2019-08-04T06:58:59.774Z</time>
      </trkpt>
      <trkpt lat="42.53114833" lon="1.558145">
        <ele>1526.0</ele>
        <time>2019-08-04T06:59:00.794Z</time>
      </trkpt>
      <trkpt lat="42.53114833" lon="1.558145">
        <ele>1526.0</ele>
        <time>2019-08-04T06:59:01.777Z</time>
      </trkpt>
      <trkpt lat="42.53111833" lon="1.55810833">
        <ele>1526.0</ele>
        <time>2019-08-04T06:59:02.772Z</time>
      </trkpt>
      <trkpt lat="42.53111833" lon="1.55810833">
        <ele>1526.0</ele>
        <time>2019-08-04T06:59:03.795Z</time>
      </trkpt>
      <trkpt lat="42.531085" lon="1.55807833">
        <ele>1527.0</ele>
        <time>2019-08-04T06:59:04.781Z</time>
      </trkpt>
      <trkpt lat="42.531085" lon="1.55807833">
        <ele>1527.0</ele>
        <time>2019-08-04T06:59:05.781Z</time>
      </trkpt>
      <trkpt lat="42.53105333" lon="1.55805167">
        <ele>1528.0</ele>
        <time>2019-08-04T06:59:06.770Z</time>
      </trkpt>
      <trkpt lat="42.53105333" lon="1.55805167">
        <ele>1528.0</ele>
        <time>2019-08-04T06:59:07.776Z</time>
      </trkpt>
      <trkpt lat="42.53101833" lon="1.55802">
        <ele>1528.0</ele>
        <time>2019-08-04T06:59:08.781Z</time>
      </trkpt>
      <trkpt lat="42.53099833" lon="1.558005">
        <ele>1528.0</ele>
        <time>2019-08-04T06:59:09.780Z</time>
      </trkpt>
      <trkpt lat="42.53098" lon="1.557995">
        <ele>1529.0</ele>
        <time>2019-08-04T06:59:10.780Z</time>
      </trkpt>
      <trkpt lat="42.53098" lon="1.557995">
        <ele>1529.0</ele>
        <time>2019-08-04T06:59:11.776Z</time>
      </trkpt>
      <trkpt lat="42.53094167" lon="1.55797667">
        <ele>1529.0</ele>
        <time>2019-08-04T06:59:12.801Z</time>
      </trkpt>
      <trkpt lat="42.53094167" lon="1.55797667">
        <ele>1529.0</ele>
        <time>2019-08-04T06:59:13.781Z</time>
      </trkpt>
      <trkpt lat="42.53089333" lon="1.55797667">
        <ele>1530.0</ele>
        <time>2019-08-04T06:59:14.781Z</time>
      </trkpt>
      <trkpt lat="42.53089333" lon="1.55797667">
        <ele>1530.0</ele>
        <time>2019-08-04T06:59:15.778Z</time>
      </trkpt>
      <trkpt lat="42.53084667" lon="1.55798">
        <ele>1530.0</ele>
        <time>2019-08-04T06:59:16.777Z</time>
      </trkpt>
      <trkpt lat="42.53084667" lon="1.55798">
        <ele>1530.0</ele>
        <time>2019-08-04T06:59:17.773Z</time>
      </trkpt>
      <trkpt lat="42.53079667" lon="1.55799167">
        <ele>1531.0</ele>
        <time>2019-08-04T06:59:18.793Z</time>
      </trkpt>
      <trkpt lat="42.53079667" lon="1.55799167">
        <ele>1531.0</ele>
        <time>2019-08-04T06:59:19.776Z</time>
      </trkpt>
      <trkpt lat="42.530745" lon="1.55801167">
        <ele>1532.0</ele>
        <time>2019-08-04T06:59:20.795Z</time>
      </trkpt>
      <trkpt lat="42.530745" lon="1.55801167">
        <ele>1532.0</ele>
        <time>2019-08-04T06:59:21.776Z</time>
      </trkpt>
      <trkpt lat="42.53069667" lon="1.55803167">
        <ele>1533.0</ele>
        <time>2019-08-04T06:59:22.771Z</time>
      </trkpt>
      <trkpt lat="42.53069667" lon="1.55803167">
        <ele>1533.0</ele>
        <time>2019-08-04T06:59:23.790Z</time>
      </trkpt>
      <trkpt lat="42.53065333" lon="1.55805667">
        <ele>1533.0</ele>
        <time>2019-08-04T06:59:24.779Z</time>
      </trkpt>
      <trkpt lat="42.53065333" lon="1.55805667">
        <ele>1533.0</ele>
        <time>2019-08-04T06:59:25.775Z</time>
      </trkpt>
      <trkpt lat="42.53061667" lon="1.55808333">
        <ele>1534.0</ele>
        <time>2019-08-04T06:59:26.795Z</time>
      </trkpt>
      <trkpt lat="42.53061667" lon="1.55808333">
        <ele>1534.0</ele>
        <time>2019-08-04T06:59:27.780Z</time>
      </trkpt>
      <trkpt lat="42.53058167" lon="1.55811333">
        <ele>1535.0</ele>
        <time>2019-08-04T06:59:28.779Z</time>
      </trkpt>
      <trkpt lat="42.53058167" lon="1.55811333">
        <ele>1535.0</ele>
        <time>2019-08-04T06:59:29.777Z</time>
      </trkpt>
      <trkpt lat="42.53054667" lon="1.55814333">
        <ele>1535.0</ele>
        <time>2019-08-04T06:59:30.780Z</time>
      </trkpt>
      <trkpt lat="42.53054667" lon="1.55814333">
        <ele>1535.0</ele>
        <time>2019-08-04T06:59:31.776Z</time>
      </trkpt>
      <trkpt lat="42.53050333" lon="1.55817333">
        <ele>1536.0</ele>
        <time>2019-08-04T06:59:32.782Z</time>
      </trkpt>
      <trkpt lat="42.53050333" lon="1.55817333">
        <ele>1536.0</ele>
        <time>2019-08-04T06:59:33.778Z</time>
      </trkpt>
      <trkpt lat="42.530465" lon="1.55823">
        <ele>1538.0</ele>
        <time>2019-08-04T06:59:34.780Z</time>
      </trkpt>
      <trkpt lat="42.530465" lon="1.55823">
        <ele>1538.0</ele>
        <time>2019-08-04T06:59:35.770Z</time>
      </trkpt>
      <trkpt lat="42.530425" lon="1.558285">
        <ele>1539.0</ele>
        <time>2019-08-04T06:59:36.790Z</time>
      </trkpt>
      <trkpt lat="42.530405" lon="1.55830333">
        <ele>1540.0</ele>
        <time>2019-08-04T06:59:37.780Z</time>
      </trkpt>
      <trkpt lat="42.530405" lon="1.55830333">
        <ele>1540.0</ele>
        <time>2019-08-04T06:59:38.778Z</time>
      </trkpt>
      <trkpt lat="42.53036333" lon="1.55833833">
        <ele>1540.0</ele>
        <time>2019-08-04T06:59:39.780Z</time>
      </trkpt>
      <trkpt lat="42.53034833" lon="1.558355">
        <ele>1541.0</ele>
        <time>2019-08-04T06:59:40.780Z</time>
      </trkpt>
      <trkpt lat="42.53034833" lon="1.558355">
        <ele>1541.0</ele>
        <time>2019-08-04T06:59:41.776Z</time>
      </trkpt>
      <trkpt lat="42.53031" lon="1.55838167">
        <ele>1542.0</ele>
        <time>2019-08-04T06:59:42.802Z</time>
      </trkpt>
      <trkpt lat="42.53031" lon="1.55838167">
        <ele>1542.0</ele>
        <time>2019-08-04T06:59:43.781Z</time>
      </trkpt>
      <trkpt lat="42.53028" lon="1.55840167">
        <ele>1542.0</ele>
        <time>2019-08-04T06:59:44.783Z</time>
      </trkpt>
      <trkpt lat="42.53028" lon="1.55840167">
        <ele>1542.0</ele>
        <time>2019-08-04T06:59:45.777Z</time>
      </trkpt>
      <trkpt lat="42.530245" lon="1.558405">
        <ele>1543.0</ele>
        <time>2019-08-04T06:59:46.780Z</time>
      </trkpt>
      <trkpt lat="42.530245" lon="1.558405">
        <ele>1543.0</ele>
        <time>2019-08-04T06:59:47.777Z</time>
      </trkpt>
      <trkpt lat="42.53022167" lon="1.55839167">
        <ele>1544.0</ele>
        <time>2019-08-04T06:59:48.782Z</time>
      </trkpt>
      <trkpt lat="42.53021667" lon="1.55838">
        <ele>1544.0</ele>
        <time>2019-08-04T06:59:49.781Z</time>
      </trkpt>
      <trkpt lat="42.53021667" lon="1.55838">
        <ele>1544.0</ele>
        <time>2019-08-04T06:59:50.778Z</time>
      </trkpt>
      <trkpt lat="42.5302" lon="1.558345">
        <ele>1545.0</ele>
        <time>2019-08-04T06:59:51.779Z</time>
      </trkpt>
      <trkpt lat="42.530205" lon="1.55832667">
        <ele>1545.0</ele>
        <time>2019-08-04T06:59:52.801Z</time>
      </trkpt>
      <trkpt lat="42.530205" lon="1.55832667">
        <ele>1545.0</ele>
        <time>2019-08-04T06:59:53.780Z</time>
      </trkpt>
      <trkpt lat="42.530225" lon="1.558285">
        <ele>1546.0</ele>
        <time>2019-08-04T06:59:54.778Z</time>
      </trkpt>
      <trkpt lat="42.530235" lon="1.558265">
        <ele>1546.0</ele>
        <time>2019-08-04T06:59:55.789Z</time>
      </trkpt>
      <trkpt lat="42.530235" lon="1.558265">
        <ele>1546.0</ele>
        <time>2019-08-04T06:59:56.779Z</time>
      </trkpt>
      <trkpt lat="42.53026333" lon="1.55822667">
        <ele>1547.0</ele>
        <time>2019-08-04T06:59:57.794Z</time>
      </trkpt>
      <trkpt lat="42.53026333" lon="1.55822667">
        <ele>1547.0</ele>
        <time>2019-08-04T06:59:58.775Z</time>
      </trkpt>
      <trkpt lat="42.530285" lon="1.558195">
        <ele>1547.0</ele>
        <time>2019-08-04T06:59:59.780Z</time>
      </trkpt>
      <trkpt lat="42.530285" lon="1.558195">
        <ele>1547.0</ele>
        <time>2019-08-04T07:00:00.776Z</time>
      </trkpt>
      <trkpt lat="42.53029833" lon="1.55814333">
        <ele>1548.0</ele>
        <time>2019-08-04T07:00:01.780Z</time>
      </trkpt>
      <trkpt lat="42.530305" lon="1.55812167">
        <ele>1549.0</ele>
        <time>2019-08-04T07:00:02.781Z</time>
      </trkpt>
      <trkpt lat="42.530305" lon="1.55812167">
        <ele>1549.0</ele>
        <time>2019-08-04T07:00:03.774Z</time>
      </trkpt>
      <trkpt lat="42.53033167" lon="1.55807167">
        <ele>1549.0</ele>
        <time>2019-08-04T07:00:04.801Z</time>
      </trkpt>
      <trkpt lat="42.53033167" lon="1.55807167">
        <ele>1549.0</ele>
        <time>2019-08-04T07:00:05.785Z</time>
      </trkpt>
      <trkpt lat="42.53035833" lon="1.55802833">
        <ele>1550.0</ele>
        <time>2019-08-04T07:00:06.779Z</time>
      </trkpt>
      <trkpt lat="42.53036833" lon="1.55801167">
        <ele>1550.0</ele>
        <time>2019-08-04T07:00:07.780Z</time>
      </trkpt>
      <trkpt lat="42.53036833" lon="1.55801167">
        <ele>1550.0</ele>
        <time>2019-08-04T07:00:08.775Z</time>
      </trkpt>
      <trkpt lat="42.53039333" lon="1.557975">
        <ele>1551.0</ele>
        <time>2019-08-04T07:00:09.795Z</time>
      </trkpt>
      <trkpt lat="42.53040833" lon="1.55796167">
        <ele>1551.0</ele>
        <time>2019-08-04T07:00:10.782Z</time>
      </trkpt>
      <trkpt lat="42.53040833" lon="1.55796167">
        <ele>1551.0</ele>
        <time>2019-08-04T07:00:11.778Z</time>
      </trkpt>
      <trkpt lat="42.53044" lon="1.55794167">
        <ele>1552.0</ele>
        <time>2019-08-04T07:00:12.800Z</time>
      </trkpt>
      <trkpt lat="42.53044" lon="1.55794167">
        <ele>1552.0</ele>
        <time>2019-08-04T07:00:13.780Z</time>
      </trkpt>
      <trkpt lat="42.530485" lon="1.55792167">
        <ele>1553.0</ele>
        <time>2019-08-04T07:00:14.781Z</time>
      </trkpt>
      <trkpt lat="42.530485" lon="1.55792167">
        <ele>1553.0</ele>
        <time>2019-08-04T07:00:15.778Z</time>
      </trkpt>
      <trkpt lat="42.53051833" lon="1.55790333">
        <ele>1554.0</ele>
        <time>2019-08-04T07:00:16.780Z</time>
      </trkpt>
      <trkpt lat="42.53051833" lon="1.55790333">
        <ele>1554.0</ele>
        <time>2019-08-04T07:00:17.775Z</time>
      </trkpt>
      <trkpt lat="42.53055667" lon="1.55786667">
        <ele>1555.0</ele>
        <time>2019-08-04T07:00:18.794Z</time>
      </trkpt>
      <trkpt lat="42.53055667" lon="1.55786667">
        <ele>1555.0</ele>
        <time>2019-08-04T07:00:19.785Z</time>
      </trkpt>
      <trkpt lat="42.53058833" lon="1.55781833">
        <ele>1555.0</ele>
        <time>2019-08-04T07:00:20.781Z</time>
      </trkpt>
      <trkpt lat="42.53058833" lon="1.55781833">
        <ele>1555.0</ele>
        <time>2019-08-04T07:00:21.776Z</time>
      </trkpt>
      <trkpt lat="42.530625" lon="1.55777667">
        <ele>1556.0</ele>
        <time>2019-08-04T07:00:22.797Z</time>
      </trkpt>
      <trkpt lat="42.530625" lon="1.55777667">
        <ele>1556.0</ele>
        <time>2019-08-04T07:00:23.777Z</time>
      </trkpt>
      <trkpt lat="42.53065333" lon="1.55774167">
        <ele>1556.0</ele>
        <time>2019-08-04T07:00:24.780Z</time>
      </trkpt>
      <trkpt lat="42.53066333" lon="1.55773333">
        <ele>1557.0</ele>
        <time>2019-08-04T07:00:25.780Z</time>
      </trkpt>
      <trkpt lat="42.53066333" lon="1.55773333">
        <ele>1557.0</ele>
        <time>2019-08-04T07:00:26.776Z</time>
      </trkpt>
      <trkpt lat="42.530685" lon="1.55769167">
        <ele>1557.0</ele>
        <time>2019-08-04T07:00:27.795Z</time>
      </trkpt>
      <trkpt lat="42.53069667" lon="1.55767167">
        <ele>1558.0</ele>
        <time>2019-08-04T07:00:28.780Z</time>
      </trkpt>
      <trkpt lat="42.53069667" lon="1.55767167">
        <ele>1558.0</ele>
        <time>2019-08-04T07:00:29.776Z</time>
      </trkpt>
      <trkpt lat="42.53072667" lon="1.55763">
        <ele>1559.0</ele>
        <time>2019-08-04T07:00:30.783Z</time>
      </trkpt>
      <trkpt lat="42.53072667" lon="1.55763">
        <ele>1559.0</ele>
        <time>2019-08-04T07:00:31.775Z</time>
      </trkpt>
      <trkpt lat="42.530765" lon="1.557595">
        <ele>1559.0</ele>
        <time>2019-08-04T07:00:32.804Z</time>
      </trkpt>
      <trkpt lat="42.530765" lon="1.557595">
        <ele>1559.0</ele>
        <time>2019-08-04T07:00:33.786Z</time>
      </trkpt>
      <trkpt lat="42.53080667" lon="1.55760167">
        <ele>1561.0</ele>
        <time>2019-08-04T07:00:34.778Z</time>
      </trkpt>
      <trkpt lat="42.53080667" lon="1.55760167">
        <ele>1561.0</ele>
        <time>2019-08-04T07:00:35.799Z</time>
      </trkpt>
      <trkpt lat="42.53085667" lon="1.55763167">
        <ele>1562.0</ele>
        <time>2019-08-04T07:00:36.781Z</time>
      </trkpt>
      <trkpt lat="42.53085667" lon="1.55763167">
        <ele>1562.0</ele>
        <time>2019-08-04T07:00:37.780Z</time>
      </trkpt>
      <trkpt lat="42.53090333" lon="1.55766167">
        <ele>1564.0</ele>
        <time>2019-08-04T07:00:38.782Z</time>
      </trkpt>
      <trkpt lat="42.53090333" lon="1.55766167">
        <ele>1564.0</ele>
        <time>2019-08-04T07:00:39.777Z</time>
      </trkpt>
      <trkpt lat="42.53095" lon="1.55768">
        <ele>1565.0</ele>
        <time>2019-08-04T07:00:40.795Z</time>
      </trkpt>
      <trkpt lat="42.53095" lon="1.55768">
        <ele>1565.0</ele>
        <time>2019-08-04T07:00:41.775Z</time>
      </trkpt>
      <trkpt lat="42.53099667" lon="1.557695">
        <ele>1566.0</ele>
        <time>2019-08-04T07:00:42.804Z</time>
      </trkpt>
      <trkpt lat="42.53099667" lon="1.557695">
        <ele>1566.0</ele>
        <time>2019-08-04T07:00:43.801Z</time>
      </trkpt>
      <trkpt lat="42.531045" lon="1.55770333">
        <ele>1567.0</ele>
        <time>2019-08-04T07:00:44.781Z</time>
      </trkpt>
      <trkpt lat="42.531045" lon="1.55770333">
        <ele>1567.0</ele>
        <time>2019-08-04T07:00:45.775Z</time>
      </trkpt>
      <trkpt lat="42.531095" lon="1.557705">
        <ele>1568.0</ele>
        <time>2019-08-04T07:00:46.801Z</time>
      </trkpt>
      <trkpt lat="42.531095" lon="1.557705">
        <ele>1568.0</ele>
        <time>2019-08-04T07:00:47.781Z</time>
      </trkpt>
      <trkpt lat="42.53114167" lon="1.557705">
        <ele>1569.0</ele>
        <time>2019-08-04T07:00:48.780Z</time>
      </trkpt>
      <trkpt lat="42.53114167" lon="1.557705">
        <ele>1569.0</ele>
        <time>2019-08-04T07:00:49.774Z</time>
      </trkpt>
      <trkpt lat="42.53118" lon="1.55771167">
        <ele>1570.0</ele>
        <time>2019-08-04T07:00:50.793Z</time>
      </trkpt>
      <trkpt lat="42.53118" lon="1.55771167">
        <ele>1570.0</ele>
        <time>2019-08-04T07:00:51.776Z</time>
      </trkpt>
      <trkpt lat="42.53122" lon="1.55772167">
        <ele>1571.0</ele>
        <time>2019-08-04T07:00:52.803Z</time>
      </trkpt>
      <trkpt lat="42.53122" lon="1.55772167">
        <ele>1571.0</ele>
        <time>2019-08-04T07:00:53.782Z</time>
      </trkpt>
      <trkpt lat="42.53126167" lon="1.55772833">
        <ele>1572.0</ele>
        <time>2019-08-04T07:00:54.780Z</time>
      </trkpt>
      <trkpt lat="42.53126167" lon="1.55772833">
        <ele>1572.0</ele>
        <time>2019-08-04T07:00:55.784Z</time>
      </trkpt>
      <trkpt lat="42.53130333" lon="1.55773">
        <ele>1573.0</ele>
        <time>2019-08-04T07:00:56.782Z</time>
      </trkpt>
      <trkpt lat="42.53130333" lon="1.55773">
        <ele>1573.0</ele>
        <time>2019-08-04T07:00:57.777Z</time>
      </trkpt>
      <trkpt lat="42.53134333" lon="1.557725">
        <ele>1574.0</ele>
        <time>2019-08-04T07:00:58.781Z</time>
      </trkpt>
      <trkpt lat="42.53134333" lon="1.557725">
        <ele>1574.0</ele>
        <time>2019-08-04T07:00:59.790Z</time>
      </trkpt>
      <trkpt lat="42.53138" lon="1.5577">
        <ele>1574.0</ele>
        <time>2019-08-04T07:01:00.789Z</time>
      </trkpt>
      <trkpt lat="42.53138" lon="1.5577">
        <ele>1574.0</ele>
        <time>2019-08-04T07:01:01.775Z</time>
      </trkpt>
      <trkpt lat="42.531415" lon="1.55767">
        <ele>1574.0</ele>
        <time>2019-08-04T07:01:02.769Z</time>
      </trkpt>
      <trkpt lat="42.531415" lon="1.55767">
        <ele>1574.0</ele>
        <time>2019-08-04T07:01:03.788Z</time>
      </trkpt>
      <trkpt lat="42.53144833" lon="1.557635">
        <ele>1575.0</ele>
        <time>2019-08-04T07:01:04.780Z</time>
      </trkpt>
      <trkpt lat="42.53144833" lon="1.557635">
        <ele>1575.0</ele>
        <time>2019-08-04T07:01:05.781Z</time>
      </trkpt>
      <trkpt lat="42.53147333" lon="1.55759333">
        <ele>1575.0</ele>
        <time>2019-08-04T07:01:06.789Z</time>
      </trkpt>
      <trkpt lat="42.53147333" lon="1.55759333">
        <ele>1575.0</ele>
        <time>2019-08-04T07:01:07.795Z</time>
      </trkpt>
      <trkpt lat="42.531475" lon="1.55754167">
        <ele>1575.0</ele>
        <time>2019-08-04T07:01:08.777Z</time>
      </trkpt>
      <trkpt lat="42.531475" lon="1.55754167">
        <ele>1575.0</ele>
        <time>2019-08-04T07:01:09.775Z</time>
      </trkpt>
      <trkpt lat="42.53145333" lon="1.55749333">
        <ele>1576.0</ele>
        <time>2019-08-04T07:01:10.798Z</time>
      </trkpt>
      <trkpt lat="42.53145333" lon="1.55749333">
        <ele>1576.0</ele>
        <time>2019-08-04T07:01:11.778Z</time>
      </trkpt>
      <trkpt lat="42.53141667" lon="1.55745833">
        <ele>1576.0</ele>
        <time>2019-08-04T07:01:12.802Z</time>
      </trkpt>
      <trkpt lat="42.53141667" lon="1.55745833">
        <ele>1576.0</ele>
        <time>2019-08-04T07:01:13.781Z</time>
      </trkpt>
      <trkpt lat="42.53139" lon="1.55742">
        <ele>1576.0</ele>
        <time>2019-08-04T07:01:14.782Z</time>
      </trkpt>
      <trkpt lat="42.53139" lon="1.55742">
        <ele>1576.0</ele>
        <time>2019-08-04T07:01:15.779Z</time>
      </trkpt>
      <trkpt lat="42.53136167" lon="1.55737333">
        <ele>1577.0</ele>
        <time>2019-08-04T07:01:16.780Z</time>
      </trkpt>
      <trkpt lat="42.53136167" lon="1.55737333">
        <ele>1577.0</ele>
        <time>2019-08-04T07:01:17.790Z</time>
      </trkpt>
      <trkpt lat="42.531335" lon="1.55733">
        <ele>1577.0</ele>
        <time>2019-08-04T07:01:18.780Z</time>
      </trkpt>
      <trkpt lat="42.53132333" lon="1.55730667">
        <ele>1578.0</ele>
        <time>2019-08-04T07:01:19.780Z</time>
      </trkpt>
      <trkpt lat="42.53131167" lon="1.55728333">
        <ele>1578.0</ele>
        <time>2019-08-04T07:01:20.782Z</time>
      </trkpt>
      <trkpt lat="42.53131167" lon="1.55728333">
        <ele>1578.0</ele>
        <time>2019-08-04T07:01:21.777Z</time>
      </trkpt>
      <trkpt lat="42.53129167" lon="1.55723167">
        <ele>1579.0</ele>
        <time>2019-08-04T07:01:22.771Z</time>
      </trkpt>
      <trkpt lat="42.53129167" lon="1.55723167">
        <ele>1579.0</ele>
        <time>2019-08-04T07:01:23.790Z</time>
      </trkpt>
      <trkpt lat="42.53128" lon="1.55718">
        <ele>1580.0</ele>
        <time>2019-08-04T07:01:24.779Z</time>
      </trkpt>
      <trkpt lat="42.53127167" lon="1.55715667">
        <ele>1580.0</ele>
        <time>2019-08-04T07:01:25.780Z</time>
      </trkpt>
      <trkpt lat="42.531265" lon="1.55713167">
        <ele>1580.0</ele>
        <time>2019-08-04T07:01:26.782Z</time>
      </trkpt>
      <trkpt lat="42.531265" lon="1.55713167">
        <ele>1580.0</ele>
        <time>2019-08-04T07:01:27.778Z</time>
      </trkpt>
      <trkpt lat="42.53125167" lon="1.55708167">
        <ele>1581.0</ele>
        <time>2019-08-04T07:01:28.781Z</time>
      </trkpt>
      <trkpt lat="42.53125167" lon="1.55708167">
        <ele>1581.0</ele>
        <time>2019-08-04T07:01:29.777Z</time>
      </trkpt>
      <trkpt lat="42.53123833" lon="1.55702833">
        <ele>1582.0</ele>
        <time>2019-08-04T07:01:30.780Z</time>
      </trkpt>
      <trkpt lat="42.53123333" lon="1.55700167">
        <ele>1582.0</ele>
        <time>2019-08-04T07:01:31.780Z</time>
      </trkpt>
      <trkpt lat="42.53123333" lon="1.55697667">
        <ele>1582.0</ele>
        <time>2019-08-04T07:01:32.773Z</time>
      </trkpt>
      <trkpt lat="42.53123333" lon="1.55697667">
        <ele>1582.0</ele>
        <time>2019-08-04T07:01:33.793Z</time>
      </trkpt>
      <trkpt lat="42.531245" lon="1.55693">
        <ele>1583.0</ele>
        <time>2019-08-04T07:01:34.781Z</time>
      </trkpt>
      <trkpt lat="42.531245" lon="1.55693">
        <ele>1583.0</ele>
        <time>2019-08-04T07:01:35.777Z</time>
      </trkpt>
      <trkpt lat="42.53127333" lon="1.55689167">
        <ele>1584.0</ele>
        <time>2019-08-04T07:01:36.781Z</time>
      </trkpt>
      <trkpt lat="42.53127333" lon="1.55689167">
        <ele>1584.0</ele>
        <time>2019-08-04T07:01:37.789Z</time>
      </trkpt>
      <trkpt lat="42.53130833" lon="1.55688833">
        <ele>1584.0</ele>
        <time>2019-08-04T07:01:38.782Z</time>
      </trkpt>
      <trkpt lat="42.53130833" lon="1.55688833">
        <ele>1584.0</ele>
        <time>2019-08-04T07:01:39.777Z</time>
      </trkpt>
      <trkpt lat="42.53133167" lon="1.55693">
        <ele>1585.0</ele>
        <time>2019-08-04T07:01:40.789Z</time>
      </trkpt>
      <trkpt lat="42.53133167" lon="1.55693">
        <ele>1585.0</ele>
        <time>2019-08-04T07:01:41.778Z</time>
      </trkpt>
      <trkpt lat="42.53135167" lon="1.55697167">
        <ele>1587.0</ele>
        <time>2019-08-04T07:01:42.768Z</time>
      </trkpt>
      <trkpt lat="42.53135167" lon="1.55697167">
        <ele>1587.0</ele>
        <time>2019-08-04T07:01:43.801Z</time>
      </trkpt>
      <trkpt lat="42.53137667" lon="1.55701667">
        <ele>1587.0</ele>
        <time>2019-08-04T07:01:44.782Z</time>
      </trkpt>
      <trkpt lat="42.53137667" lon="1.55701667">
        <ele>1587.0</ele>
        <time>2019-08-04T07:01:45.777Z</time>
      </trkpt>
      <trkpt lat="42.53140333" lon="1.55706167">
        <ele>1588.0</ele>
        <time>2019-08-04T07:01:46.786Z</time>
      </trkpt>
      <trkpt lat="42.53140333" lon="1.55706167">
        <ele>1588.0</ele>
        <time>2019-08-04T07:01:47.785Z</time>
      </trkpt>
      <trkpt lat="42.53142833" lon="1.55710333">
        <ele>1588.0</ele>
        <time>2019-08-04T07:01:48.781Z</time>
      </trkpt>
      <trkpt lat="42.53142833" lon="1.55710333">
        <ele>1588.0</ele>
        <time>2019-08-04T07:01:49.777Z</time>
      </trkpt>
      <trkpt lat="42.531465" lon="1.557135">
        <ele>1588.0</ele>
        <time>2019-08-04T07:01:50.796Z</time>
      </trkpt>
      <trkpt lat="42.531465" lon="1.557135">
        <ele>1588.0</ele>
        <time>2019-08-04T07:01:51.776Z</time>
      </trkpt>
      <trkpt lat="42.531505" lon="1.55713">
        <ele>1589.0</ele>
        <time>2019-08-04T07:01:52.774Z</time>
      </trkpt>
      <trkpt lat="42.531505" lon="1.55713">
        <ele>1589.0</ele>
        <time>2019-08-04T07:01:53.793Z</time>
      </trkpt>
      <trkpt lat="42.53153667" lon="1.55708667">
        <ele>1589.0</ele>
        <time>2019-08-04T07:01:54.781Z</time>
      </trkpt>
      <trkpt lat="42.53153667" lon="1.55708667">
        <ele>1589.0</ele>
        <time>2019-08-04T07:01:55.786Z</time>
      </trkpt>
      <trkpt lat="42.53155167" lon="1.55702833">
        <ele>1590.0</ele>
        <time>2019-08-04T07:01:56.783Z</time>
      </trkpt>
      <trkpt lat="42.53155167" lon="1.55702833">
        <ele>1590.0</ele>
        <time>2019-08-04T07:01:57.775Z</time>
      </trkpt>
      <trkpt lat="42.531555" lon="1.55696833">
        <ele>1589.0</ele>
        <time>2019-08-04T07:01:58.790Z</time>
      </trkpt>
      <trkpt lat="42.531555" lon="1.55696833">
        <ele>1589.0</ele>
        <time>2019-08-04T07:01:59.777Z</time>
      </trkpt>
      <trkpt lat="42.53156333" lon="1.55691333">
        <ele>1590.0</ele>
        <time>2019-08-04T07:02:00.788Z</time>
      </trkpt>
      <trkpt lat="42.53156333" lon="1.55691333">
        <ele>1590.0</ele>
        <time>2019-08-04T07:02:01.777Z</time>
      </trkpt>
      <trkpt lat="42.53157333" lon="1.55686667">
        <ele>1590.0</ele>
        <time>2019-08-04T07:02:02.774Z</time>
      </trkpt>
      <trkpt lat="42.53157333" lon="1.55686667">
        <ele>1590.0</ele>
        <time>2019-08-04T07:02:03.794Z</time>
      </trkpt>
      <trkpt lat="42.53158833" lon="1.55682167">
        <ele>1591.0</ele>
        <time>2019-08-04T07:02:04.779Z</time>
      </trkpt>
      <trkpt lat="42.53158833" lon="1.55682167">
        <ele>1591.0</ele>
        <time>2019-08-04T07:02:05.785Z</time>
      </trkpt>
      <trkpt lat="42.53160667" lon="1.55678">
        <ele>1591.0</ele>
        <time>2019-08-04T07:02:06.774Z</time>
      </trkpt>
      <trkpt lat="42.53161167" lon="1.556755">
        <ele>1592.0</ele>
        <time>2019-08-04T07:02:07.799Z</time>
      </trkpt>
      <trkpt lat="42.53161333" lon="1.55672833">
        <ele>1592.0</ele>
        <time>2019-08-04T07:02:08.795Z</time>
      </trkpt>
      <trkpt lat="42.53161333" lon="1.55672833">
        <ele>1592.0</ele>
        <time>2019-08-04T07:02:09.778Z</time>
      </trkpt>
      <trkpt lat="42.53160667" lon="1.55667833">
        <ele>1593.0</ele>
        <time>2019-08-04T07:02:10.782Z</time>
      </trkpt>
      <trkpt lat="42.53160667" lon="1.55667833">
        <ele>1593.0</ele>
        <time>2019-08-04T07:02:11.775Z</time>
      </trkpt>
      <trkpt lat="42.53159667" lon="1.55662333">
        <ele>1594.0</ele>
        <time>2019-08-04T07:02:12.766Z</time>
      </trkpt>
      <trkpt lat="42.53159667" lon="1.55662333">
        <ele>1594.0</ele>
        <time>2019-08-04T07:02:13.801Z</time>
      </trkpt>
      <trkpt lat="42.53158667" lon="1.55656333">
        <ele>1594.0</ele>
        <time>2019-08-04T07:02:14.782Z</time>
      </trkpt>
      <trkpt lat="42.53158667" lon="1.55656333">
        <ele>1594.0</ele>
        <time>2019-08-04T07:02:15.779Z</time>
      </trkpt>
      <trkpt lat="42.53157333" lon="1.55649833">
        <ele>1595.0</ele>
        <time>2019-08-04T07:02:16.781Z</time>
      </trkpt>
      <trkpt lat="42.53157333" lon="1.55649833">
        <ele>1595.0</ele>
        <time>2019-08-04T07:02:17.777Z</time>
      </trkpt>
      <trkpt lat="42.53155167" lon="1.55643667">
        <ele>1595.0</ele>
        <time>2019-08-04T07:02:18.781Z</time>
      </trkpt>
      <trkpt lat="42.53155167" lon="1.55643667">
        <ele>1595.0</ele>
        <time>2019-08-04T07:02:19.778Z</time>
      </trkpt>
      <trkpt lat="42.531535" lon="1.55637">
        <ele>1596.0</ele>
        <time>2019-08-04T07:02:20.797Z</time>
      </trkpt>
      <trkpt lat="42.531535" lon="1.55637">
        <ele>1596.0</ele>
        <time>2019-08-04T07:02:21.777Z</time>
      </trkpt>
      <trkpt lat="42.53152167" lon="1.55630167">
        <ele>1596.0</ele>
        <time>2019-08-04T07:02:22.768Z</time>
      </trkpt>
      <trkpt lat="42.53152167" lon="1.55630167">
        <ele>1596.0</ele>
        <time>2019-08-04T07:02:23.789Z</time>
      </trkpt>
      <trkpt lat="42.53150167" lon="1.55624">
        <ele>1597.0</ele>
        <time>2019-08-04T07:02:24.781Z</time>
      </trkpt>
      <trkpt lat="42.53150167" lon="1.55624">
        <ele>1597.0</ele>
        <time>2019-08-04T07:02:25.777Z</time>
      </trkpt>
      <trkpt lat="42.53147667" lon="1.55618">
        <ele>1597.0</ele>
        <time>2019-08-04T07:02:26.796Z</time>
      </trkpt>
      <trkpt lat="42.53147667" lon="1.55618">
        <ele>1597.0</ele>
        <time>2019-08-04T07:02:27.777Z</time>
      </trkpt>
      <trkpt lat="42.53145" lon="1.55612167">
        <ele>1598.0</ele>
        <time>2019-08-04T07:02:28.778Z</time>
      </trkpt>
      <trkpt lat="42.53145" lon="1.55612167">
        <ele>1598.0</ele>
        <time>2019-08-04T07:02:29.778Z</time>
      </trkpt>
      <trkpt lat="42.531425" lon="1.55606">
        <ele>1598.0</ele>
        <time>2019-08-04T07:02:30.781Z</time>
      </trkpt>
      <trkpt lat="42.531425" lon="1.55606">
        <ele>1598.0</ele>
        <time>2019-08-04T07:02:31.778Z</time>
      </trkpt>
      <trkpt lat="42.5314" lon="1.55600667">
        <ele>1598.0</ele>
        <time>2019-08-04T07:02:32.777Z</time>
      </trkpt>
      <trkpt lat="42.5314" lon="1.55600667">
        <ele>1598.0</ele>
        <time>2019-08-04T07:02:33.777Z</time>
      </trkpt>
      <trkpt lat="42.53136667" lon="1.55595833">
        <ele>1599.0</ele>
        <time>2019-08-04T07:02:34.778Z</time>
      </trkpt>
      <trkpt lat="42.53136667" lon="1.55595833">
        <ele>1599.0</ele>
        <time>2019-08-04T07:02:35.778Z</time>
      </trkpt>
      <trkpt lat="42.53133333" lon="1.55590167">
        <ele>1599.0</ele>
        <time>2019-08-04T07:02:36.781Z</time>
      </trkpt>
      <trkpt lat="42.53132" lon="1.55587333">
        <ele>1599.0</ele>
        <time>2019-08-04T07:02:37.792Z</time>
      </trkpt>
      <trkpt lat="42.53132" lon="1.55587333">
        <ele>1599.0</ele>
        <time>2019-08-04T07:02:38.779Z</time>
      </trkpt>
      <trkpt lat="42.53130667" lon="1.55580167">
        <ele>1599.0</ele>
        <time>2019-08-04T07:02:39.781Z</time>
      </trkpt>
      <trkpt lat="42.53131167" lon="1.55576667">
        <ele>1599.0</ele>
        <time>2019-08-04T07:02:40.781Z</time>
      </trkpt>
      <trkpt lat="42.53131167" lon="1.55576667">
        <ele>1599.0</ele>
        <time>2019-08-04T07:02:41.776Z</time>
      </trkpt>
      <trkpt lat="42.53134667" lon="1.55571333">
        <ele>1599.0</ele>
        <time>2019-08-04T07:02:42.767Z</time>
      </trkpt>
      <trkpt lat="42.53134667" lon="1.55571333">
        <ele>1599.0</ele>
        <time>2019-08-04T07:02:43.790Z</time>
      </trkpt>
      <trkpt lat="42.53139167" lon="1.55569833">
        <ele>1599.0</ele>
        <time>2019-08-04T07:02:44.781Z</time>
      </trkpt>
      <trkpt lat="42.53139167" lon="1.55569833">
        <ele>1599.0</ele>
        <time>2019-08-04T07:02:45.775Z</time>
      </trkpt>
      <trkpt lat="42.53143167" lon="1.55573167">
        <ele>1600.0</ele>
        <time>2019-08-04T07:02:46.794Z</time>
      </trkpt>
      <trkpt lat="42.53143167" lon="1.55573167">
        <ele>1600.0</ele>
        <time>2019-08-04T07:02:47.778Z</time>
      </trkpt>
      <trkpt lat="42.53146167" lon="1.555785">
        <ele>1600.0</ele>
        <time>2019-08-04T07:02:48.804Z</time>
      </trkpt>
      <trkpt lat="42.53147833" lon="1.55581667">
        <ele>1601.0</ele>
        <time>2019-08-04T07:02:49.788Z</time>
      </trkpt>
      <trkpt lat="42.53149167" lon="1.55584833">
        <ele>1601.0</ele>
        <time>2019-08-04T07:02:50.782Z</time>
      </trkpt>
      <trkpt lat="42.53149167" lon="1.55584833">
        <ele>1601.0</ele>
        <time>2019-08-04T07:02:51.778Z</time>
      </trkpt>
      <trkpt lat="42.53152167" lon="1.55591667">
        <ele>1601.0</ele>
        <time>2019-08-04T07:02:52.775Z</time>
      </trkpt>
      <trkpt lat="42.53152167" lon="1.55591667">
        <ele>1601.0</ele>
        <time>2019-08-04T07:02:53.794Z</time>
      </trkpt>
      <trkpt lat="42.531555" lon="1.55598333">
        <ele>1602.0</ele>
        <time>2019-08-04T07:02:54.783Z</time>
      </trkpt>
      <trkpt lat="42.531555" lon="1.55598333">
        <ele>1602.0</ele>
        <time>2019-08-04T07:02:55.782Z</time>
      </trkpt>
      <trkpt lat="42.531585" lon="1.55605833">
        <ele>1602.0</ele>
        <time>2019-08-04T07:02:56.783Z</time>
      </trkpt>
      <trkpt lat="42.531585" lon="1.55605833">
        <ele>1602.0</ele>
        <time>2019-08-04T07:02:57.777Z</time>
      </trkpt>
      <trkpt lat="42.531625" lon="1.55613167">
        <ele>1603.0</ele>
        <time>2019-08-04T07:02:58.799Z</time>
      </trkpt>
      <trkpt lat="42.531625" lon="1.55613167">
        <ele>1603.0</ele>
        <time>2019-08-04T07:02:59.770Z</time>
      </trkpt>
      <trkpt lat="42.531665" lon="1.556195">
        <ele>1604.0</ele>
        <time>2019-08-04T07:03:00.793Z</time>
      </trkpt>
      <trkpt lat="42.53168667" lon="1.55623">
        <ele>1604.0</ele>
        <time>2019-08-04T07:03:01.781Z</time>
      </trkpt>
      <trkpt lat="42.53171" lon="1.556265">
        <ele>1604.0</ele>
        <time>2019-08-04T07:03:02.765Z</time>
      </trkpt>
      <trkpt lat="42.53171" lon="1.556265">
        <ele>1604.0</ele>
        <time>2019-08-04T07:03:03.787Z</time>
      </trkpt>
      <trkpt lat="42.53175167" lon="1.55632333">
        <ele>1605.0</ele>
        <time>2019-08-04T07:03:04.786Z</time>
      </trkpt>
      <trkpt lat="42.53175167" lon="1.55632333">
        <ele>1605.0</ele>
        <time>2019-08-04T07:03:05.786Z</time>
      </trkpt>
      <trkpt lat="42.53179" lon="1.55637667">
        <ele>1606.0</ele>
        <time>2019-08-04T07:03:06.770Z</time>
      </trkpt>
      <trkpt lat="42.53180833" lon="1.556405">
        <ele>1606.0</ele>
        <time>2019-08-04T07:03:07.776Z</time>
      </trkpt>
      <trkpt lat="42.531825" lon="1.55643167">
        <ele>1606.0</ele>
        <time>2019-08-04T07:03:08.782Z</time>
      </trkpt>
      <trkpt lat="42.531825" lon="1.55643167">
        <ele>1606.0</ele>
        <time>2019-08-04T07:03:09.776Z</time>
      </trkpt>
      <trkpt lat="42.53185833" lon="1.55648333">
        <ele>1607.0</ele>
        <time>2019-08-04T07:03:10.797Z</time>
      </trkpt>
      <trkpt lat="42.53185833" lon="1.55648333">
        <ele>1607.0</ele>
        <time>2019-08-04T07:03:11.778Z</time>
      </trkpt>
      <trkpt lat="42.531895" lon="1.55652833">
        <ele>1607.0</ele>
        <time>2019-08-04T07:03:12.783Z</time>
      </trkpt>
      <trkpt lat="42.531895" lon="1.55652833">
        <ele>1607.0</ele>
        <time>2019-08-04T07:03:13.778Z</time>
      </trkpt>
      <trkpt lat="42.53193833" lon="1.55656667">
        <ele>1607.0</ele>
        <time>2019-08-04T07:03:14.784Z</time>
      </trkpt>
      <trkpt lat="42.53193833" lon="1.55656667">
        <ele>1607.0</ele>
        <time>2019-08-04T07:03:15.778Z</time>
      </trkpt>
      <trkpt lat="42.53198833" lon="1.55659167">
        <ele>1607.0</ele>
        <time>2019-08-04T07:03:16.779Z</time>
      </trkpt>
      <trkpt lat="42.53198833" lon="1.55659167">
        <ele>1607.0</ele>
        <time>2019-08-04T07:03:17.779Z</time>
      </trkpt>
      <trkpt lat="42.53204167" lon="1.55659167">
        <ele>1608.0</ele>
        <time>2019-08-04T07:03:18.787Z</time>
      </trkpt>
      <trkpt lat="42.53204167" lon="1.55659167">
        <ele>1608.0</ele>
        <time>2019-08-04T07:03:19.775Z</time>
      </trkpt>
      <trkpt lat="42.53209667" lon="1.55657167">
        <ele>1608.0</ele>
        <time>2019-08-04T07:03:20.794Z</time>
      </trkpt>
      <trkpt lat="42.53209667" lon="1.55657167">
        <ele>1608.0</ele>
        <time>2019-08-04T07:03:21.778Z</time>
      </trkpt>
      <trkpt lat="42.53214833" lon="1.55653667">
        <ele>1609.0</ele>
        <time>2019-08-04T07:03:22.766Z</time>
      </trkpt>
      <trkpt lat="42.53214833" lon="1.55653667">
        <ele>1609.0</ele>
        <time>2019-08-04T07:03:23.790Z</time>
      </trkpt>
      <trkpt lat="42.53220167" lon="1.55648">
        <ele>1609.0</ele>
        <time>2019-08-04T07:03:24.781Z</time>
      </trkpt>
      <trkpt lat="42.53220167" lon="1.55648">
        <ele>1609.0</ele>
        <time>2019-08-04T07:03:25.779Z</time>
      </trkpt>
      <trkpt lat="42.53223667" lon="1.55640167">
        <ele>1609.0</ele>
        <time>2019-08-04T07:03:26.780Z</time>
      </trkpt>
      <trkpt lat="42.53223667" lon="1.55640167">
        <ele>1609.0</ele>
        <time>2019-08-04T07:03:27.777Z</time>
      </trkpt>
      <trkpt lat="42.53226167" lon="1.55631333">
        <ele>1608.0</ele>
        <time>2019-08-04T07:03:28.800Z</time>
      </trkpt>
      <trkpt lat="42.53226167" lon="1.55631333">
        <ele>1608.0</ele>
        <time>2019-08-04T07:03:29.785Z</time>
      </trkpt>
      <trkpt lat="42.53225667" lon="1.556225">
        <ele>1608.0</ele>
        <time>2019-08-04T07:03:30.781Z</time>
      </trkpt>
      <trkpt lat="42.53225667" lon="1.556225">
        <ele>1608.0</ele>
        <time>2019-08-04T07:03:31.778Z</time>
      </trkpt>
      <trkpt lat="42.53223667" lon="1.55614">
        <ele>1608.0</ele>
        <time>2019-08-04T07:03:32.804Z</time>
      </trkpt>
      <trkpt lat="42.53223667" lon="1.55614">
        <ele>1608.0</ele>
        <time>2019-08-04T07:03:33.784Z</time>
      </trkpt>
      <trkpt lat="42.53221167" lon="1.556065">
        <ele>1608.0</ele>
        <time>2019-08-04T07:03:34.779Z</time>
      </trkpt>
      <trkpt lat="42.53221167" lon="1.556065">
        <ele>1608.0</ele>
        <time>2019-08-04T07:03:35.779Z</time>
      </trkpt>
      <trkpt lat="42.53217667" lon="1.555995">
        <ele>1608.0</ele>
        <time>2019-08-04T07:03:36.781Z</time>
      </trkpt>
      <trkpt lat="42.53217667" lon="1.555995">
        <ele>1608.0</ele>
        <time>2019-08-04T07:03:37.776Z</time>
      </trkpt>
      <trkpt lat="42.53214" lon="1.55592667">
        <ele>1608.0</ele>
        <time>2019-08-04T07:03:38.798Z</time>
      </trkpt>
      <trkpt lat="42.53214" lon="1.55592667">
        <ele>1608.0</ele>
        <time>2019-08-04T07:03:39.779Z</time>
      </trkpt>
      <trkpt lat="42.53209667" lon="1.55586833">
        <ele>1608.0</ele>
        <time>2019-08-04T07:03:40.782Z</time>
      </trkpt>
      <trkpt lat="42.53209667" lon="1.55586833">
        <ele>1608.0</ele>
        <time>2019-08-04T07:03:41.776Z</time>
      </trkpt>
      <trkpt lat="42.53205333" lon="1.55581">
        <ele>1608.0</ele>
        <time>2019-08-04T07:03:42.766Z</time>
      </trkpt>
      <trkpt lat="42.53205333" lon="1.55581">
        <ele>1608.0</ele>
        <time>2019-08-04T07:03:43.791Z</time>
      </trkpt>
      <trkpt lat="42.53201667" lon="1.55575333">
        <ele>1608.0</ele>
        <time>2019-08-04T07:03:44.782Z</time>
      </trkpt>
      <trkpt lat="42.53201667" lon="1.55575333">
        <ele>1608.0</ele>
        <time>2019-08-04T07:03:45.778Z</time>
      </trkpt>
      <trkpt lat="42.53198667" lon="1.555695">
        <ele>1608.0</ele>
        <time>2019-08-04T07:03:46.784Z</time>
      </trkpt>
      <trkpt lat="42.53198667" lon="1.555695">
        <ele>1608.0</ele>
        <time>2019-08-04T07:03:47.794Z</time>
      </trkpt>
      <trkpt lat="42.53196" lon="1.55563167">
        <ele>1608.0</ele>
        <time>2019-08-04T07:03:48.787Z</time>
      </trkpt>
      <trkpt lat="42.53196" lon="1.55563167">
        <ele>1608.0</ele>
        <time>2019-08-04T07:03:49.778Z</time>
      </trkpt>
      <trkpt lat="42.53193667" lon="1.55556667">
        <ele>1608.0</ele>
        <time>2019-08-04T07:03:50.798Z</time>
      </trkpt>
      <trkpt lat="42.531925" lon="1.555535">
        <ele>1608.0</ele>
        <time>2019-08-04T07:03:51.781Z</time>
      </trkpt>
      <trkpt lat="42.531925" lon="1.555535">
        <ele>1608.0</ele>
        <time>2019-08-04T07:03:52.798Z</time>
      </trkpt>
      <trkpt lat="42.53190167" lon="1.55547333">
        <ele>1608.0</ele>
        <time>2019-08-04T07:03:53.781Z</time>
      </trkpt>
      <trkpt lat="42.53190167" lon="1.55547333">
        <ele>1608.0</ele>
        <time>2019-08-04T07:03:54.778Z</time>
      </trkpt>
      <trkpt lat="42.53187667" lon="1.555415">
        <ele>1608.0</ele>
        <time>2019-08-04T07:03:55.785Z</time>
      </trkpt>
      <trkpt lat="42.53186667" lon="1.55538333">
        <ele>1609.0</ele>
        <time>2019-08-04T07:03:56.783Z</time>
      </trkpt>
      <trkpt lat="42.53186667" lon="1.55538333">
        <ele>1609.0</ele>
        <time>2019-08-04T07:03:57.776Z</time>
      </trkpt>
      <trkpt lat="42.53184667" lon="1.55532167">
        <ele>1609.0</ele>
        <time>2019-08-04T07:03:58.804Z</time>
      </trkpt>
      <trkpt lat="42.53184667" lon="1.55532167">
        <ele>1609.0</ele>
        <time>2019-08-04T07:03:59.789Z</time>
      </trkpt>
      <trkpt lat="42.53183" lon="1.555255">
        <ele>1610.0</ele>
        <time>2019-08-04T07:04:00.781Z</time>
      </trkpt>
      <trkpt lat="42.53183" lon="1.555255">
        <ele>1610.0</ele>
        <time>2019-08-04T07:04:01.778Z</time>
      </trkpt>
      <trkpt lat="42.53181167" lon="1.555185">
        <ele>1609.0</ele>
        <time>2019-08-04T07:04:02.772Z</time>
      </trkpt>
      <trkpt lat="42.53181167" lon="1.555185">
        <ele>1609.0</ele>
        <time>2019-08-04T07:04:03.791Z</time>
      </trkpt>
      <trkpt lat="42.531795" lon="1.555115">
        <ele>1610.0</ele>
        <time>2019-08-04T07:04:04.782Z</time>
      </trkpt>
      <trkpt lat="42.531795" lon="1.555115">
        <ele>1610.0</ele>
        <time>2019-08-04T07:04:05.772Z</time>
      </trkpt>
      <trkpt lat="42.53177667" lon="1.55504667">
        <ele>1610.0</ele>
        <time>2019-08-04T07:04:06.777Z</time>
      </trkpt>
      <trkpt lat="42.53176667" lon="1.55501333">
        <ele>1610.0</ele>
        <time>2019-08-04T07:04:07.797Z</time>
      </trkpt>
      <trkpt lat="42.53176667" lon="1.55501333">
        <ele>1610.0</ele>
        <time>2019-08-04T07:04:08.780Z</time>
      </trkpt>
      <trkpt lat="42.53174833" lon="1.55494333">
        <ele>1610.0</ele>
        <time>2019-08-04T07:04:09.789Z</time>
      </trkpt>
      <trkpt lat="42.53173833" lon="1.55491">
        <ele>1610.0</ele>
        <time>2019-08-04T07:04:10.783Z</time>
      </trkpt>
      <trkpt lat="42.53173833" lon="1.55491">
        <ele>1610.0</ele>
        <time>2019-08-04T07:04:11.775Z</time>
      </trkpt>
      <trkpt lat="42.53171667" lon="1.55484333">
        <ele>1610.0</ele>
        <time>2019-08-04T07:04:12.773Z</time>
      </trkpt>
      <trkpt lat="42.53171667" lon="1.55484333">
        <ele>1610.0</ele>
        <time>2019-08-04T07:04:13.792Z</time>
      </trkpt>
      <trkpt lat="42.53169167" lon="1.55478">
        <ele>1610.0</ele>
        <time>2019-08-04T07:04:14.782Z</time>
      </trkpt>
      <trkpt lat="42.53169167" lon="1.55478">
        <ele>1610.0</ele>
        <time>2019-08-04T07:04:15.778Z</time>
      </trkpt>
      <trkpt lat="42.53166" lon="1.55472">
        <ele>1610.0</ele>
        <time>2019-08-04T07:04:16.782Z</time>
      </trkpt>
      <trkpt lat="42.53166" lon="1.55472">
        <ele>1610.0</ele>
        <time>2019-08-04T07:04:17.794Z</time>
      </trkpt>
      <trkpt lat="42.53162167" lon="1.55466833">
        <ele>1610.0</ele>
        <time>2019-08-04T07:04:18.780Z</time>
      </trkpt>
      <trkpt lat="42.53160167" lon="1.55464833">
        <ele>1610.0</ele>
        <time>2019-08-04T07:04:19.782Z</time>
      </trkpt>
      <trkpt lat="42.53158333" lon="1.55463">
        <ele>1610.0</ele>
        <time>2019-08-04T07:04:20.783Z</time>
      </trkpt>
      <trkpt lat="42.53158333" lon="1.55463">
        <ele>1610.0</ele>
        <time>2019-08-04T07:04:21.778Z</time>
      </trkpt>
      <trkpt lat="42.53154333" lon="1.55459667">
        <ele>1610.0</ele>
        <time>2019-08-04T07:04:22.772Z</time>
      </trkpt>
      <trkpt lat="42.53154333" lon="1.55459667">
        <ele>1610.0</ele>
        <time>2019-08-04T07:04:23.801Z</time>
      </trkpt>
      <trkpt lat="42.53150333" lon="1.554565">
        <ele>1611.0</ele>
        <time>2019-08-04T07:04:24.782Z</time>
      </trkpt>
      <trkpt lat="42.53148167" lon="1.55455167">
        <ele>1611.0</ele>
        <time>2019-08-04T07:04:25.781Z</time>
      </trkpt>
      <trkpt lat="42.53146167" lon="1.55453667">
        <ele>1611.0</ele>
        <time>2019-08-04T07:04:26.782Z</time>
      </trkpt>
      <trkpt lat="42.53146167" lon="1.55453667">
        <ele>1611.0</ele>
        <time>2019-08-04T07:04:27.778Z</time>
      </trkpt>
      <trkpt lat="42.531415" lon="1.55449833">
        <ele>1611.0</ele>
        <time>2019-08-04T07:04:28.779Z</time>
      </trkpt>
      <trkpt lat="42.531415" lon="1.55449833">
        <ele>1611.0</ele>
        <time>2019-08-04T07:04:29.771Z</time>
      </trkpt>
      <trkpt lat="42.531365" lon="1.55446833">
        <ele>1611.0</ele>
        <time>2019-08-04T07:04:30.792Z</time>
      </trkpt>
      <trkpt lat="42.531365" lon="1.55446833">
        <ele>1611.0</ele>
        <time>2019-08-04T07:04:31.779Z</time>
      </trkpt>
      <trkpt lat="42.5313" lon="1.55446">
        <ele>1612.0</ele>
        <time>2019-08-04T07:04:32.774Z</time>
      </trkpt>
      <trkpt lat="42.5313" lon="1.55446">
        <ele>1612.0</ele>
        <time>2019-08-04T07:04:33.793Z</time>
      </trkpt>
      <trkpt lat="42.53124" lon="1.55445667">
        <ele>1613.0</ele>
        <time>2019-08-04T07:04:34.779Z</time>
      </trkpt>
      <trkpt lat="42.53124" lon="1.55445667">
        <ele>1613.0</ele>
        <time>2019-08-04T07:04:35.779Z</time>
      </trkpt>
      <trkpt lat="42.53117833" lon="1.55445333">
        <ele>1613.0</ele>
        <time>2019-08-04T07:04:36.782Z</time>
      </trkpt>
      <trkpt lat="42.531145" lon="1.55445333">
        <ele>1614.0</ele>
        <time>2019-08-04T07:04:37.782Z</time>
      </trkpt>
      <trkpt lat="42.531115" lon="1.554455">
        <ele>1614.0</ele>
        <time>2019-08-04T07:04:38.783Z</time>
      </trkpt>
      <trkpt lat="42.531115" lon="1.554455">
        <ele>1614.0</ele>
        <time>2019-08-04T07:04:39.783Z</time>
      </trkpt>
      <trkpt lat="42.531055" lon="1.55446167">
        <ele>1615.0</ele>
        <time>2019-08-04T07:04:40.782Z</time>
      </trkpt>
      <trkpt lat="42.531055" lon="1.55446167">
        <ele>1615.0</ele>
        <time>2019-08-04T07:04:41.780Z</time>
      </trkpt>
      <trkpt lat="42.53099667" lon="1.55446">
        <ele>1616.0</ele>
        <time>2019-08-04T07:04:42.781Z</time>
      </trkpt>
      <trkpt lat="42.53099667" lon="1.55446">
        <ele>1616.0</ele>
        <time>2019-08-04T07:04:43.780Z</time>
      </trkpt>
      <trkpt lat="42.53093833" lon="1.55446">
        <ele>1617.0</ele>
        <time>2019-08-04T07:04:44.783Z</time>
      </trkpt>
      <trkpt lat="42.53093833" lon="1.55446">
        <ele>1617.0</ele>
        <time>2019-08-04T07:04:45.780Z</time>
      </trkpt>
      <trkpt lat="42.53087667" lon="1.55446">
        <ele>1618.0</ele>
        <time>2019-08-04T07:04:46.782Z</time>
      </trkpt>
      <trkpt lat="42.53087667" lon="1.55446">
        <ele>1618.0</ele>
        <time>2019-08-04T07:04:47.776Z</time>
      </trkpt>
      <trkpt lat="42.530815" lon="1.55445833">
        <ele>1618.0</ele>
        <time>2019-08-04T07:04:48.796Z</time>
      </trkpt>
      <trkpt lat="42.530815" lon="1.55445833">
        <ele>1618.0</ele>
        <time>2019-08-04T07:04:49.784Z</time>
      </trkpt>
      <trkpt lat="42.53076333" lon="1.55444167">
        <ele>1618.0</ele>
        <time>2019-08-04T07:04:50.780Z</time>
      </trkpt>
      <trkpt lat="42.53076333" lon="1.55444167">
        <ele>1618.0</ele>
        <time>2019-08-04T07:04:51.777Z</time>
      </trkpt>
      <trkpt lat="42.53071167" lon="1.55441833">
        <ele>1619.0</ele>
        <time>2019-08-04T07:04:52.772Z</time>
      </trkpt>
      <trkpt lat="42.53071167" lon="1.55441833">
        <ele>1619.0</ele>
        <time>2019-08-04T07:04:53.801Z</time>
      </trkpt>
      <trkpt lat="42.53065667" lon="1.55440667">
        <ele>1619.0</ele>
        <time>2019-08-04T07:04:54.782Z</time>
      </trkpt>
      <trkpt lat="42.53062833" lon="1.55440333">
        <ele>1619.0</ele>
        <time>2019-08-04T07:04:55.783Z</time>
      </trkpt>
      <trkpt lat="42.53062833" lon="1.55440333">
        <ele>1619.0</ele>
        <time>2019-08-04T07:04:56.781Z</time>
      </trkpt>
      <trkpt lat="42.53057" lon="1.55438667">
        <ele>1619.0</ele>
        <time>2019-08-04T07:04:57.781Z</time>
      </trkpt>
      <trkpt lat="42.53054667" lon="1.55437833">
        <ele>1620.0</ele>
        <time>2019-08-04T07:04:58.779Z</time>
      </trkpt>
      <trkpt lat="42.53054667" lon="1.55437833">
        <ele>1620.0</ele>
        <time>2019-08-04T07:04:59.785Z</time>
      </trkpt>
      <trkpt lat="42.5305" lon="1.55436333">
        <ele>1619.0</ele>
        <time>2019-08-04T07:05:00.793Z</time>
      </trkpt>
      <trkpt lat="42.5305" lon="1.55436333">
        <ele>1619.0</ele>
        <time>2019-08-04T07:05:01.779Z</time>
      </trkpt>
      <trkpt lat="42.53045" lon="1.55434">
        <ele>1619.0</ele>
        <time>2019-08-04T07:05:02.774Z</time>
      </trkpt>
      <trkpt lat="42.53045" lon="1.55434">
        <ele>1619.0</ele>
        <time>2019-08-04T07:05:03.793Z</time>
      </trkpt>
      <trkpt lat="42.530395" lon="1.55431833">
        <ele>1619.0</ele>
        <time>2019-08-04T07:05:04.780Z</time>
      </trkpt>
      <trkpt lat="42.530395" lon="1.55431833">
        <ele>1619.0</ele>
        <time>2019-08-04T07:05:05.781Z</time>
      </trkpt>
      <trkpt lat="42.53034667" lon="1.55429833">
        <ele>1619.0</ele>
        <time>2019-08-04T07:05:06.787Z</time>
      </trkpt>
      <trkpt lat="42.53032" lon="1.55429">
        <ele>1619.0</ele>
        <time>2019-08-04T07:05:07.793Z</time>
      </trkpt>
      <trkpt lat="42.53032" lon="1.55429">
        <ele>1619.0</ele>
        <time>2019-08-04T07:05:08.780Z</time>
      </trkpt>
      <trkpt lat="42.530265" lon="1.55427667">
        <ele>1619.0</ele>
        <time>2019-08-04T07:05:09.782Z</time>
      </trkpt>
      <trkpt lat="42.53024" lon="1.55426833">
        <ele>1620.0</ele>
        <time>2019-08-04T07:05:10.783Z</time>
      </trkpt>
      <trkpt lat="42.53024" lon="1.55426833">
        <ele>1620.0</ele>
        <time>2019-08-04T07:05:11.788Z</time>
      </trkpt>
      <trkpt lat="42.53019333" lon="1.55425">
        <ele>1620.0</ele>
        <time>2019-08-04T07:05:12.770Z</time>
      </trkpt>
      <trkpt lat="42.53019333" lon="1.55425">
        <ele>1620.0</ele>
        <time>2019-08-04T07:05:13.792Z</time>
      </trkpt>
      <trkpt lat="42.53014" lon="1.55421167">
        <ele>1620.0</ele>
        <time>2019-08-04T07:05:14.781Z</time>
      </trkpt>
      <trkpt lat="42.53014" lon="1.55421167">
        <ele>1620.0</ele>
        <time>2019-08-04T07:05:15.801Z</time>
      </trkpt>
      <trkpt lat="42.53009" lon="1.55416167">
        <ele>1620.0</ele>
        <time>2019-08-04T07:05:16.782Z</time>
      </trkpt>
      <trkpt lat="42.53009" lon="1.55416167">
        <ele>1620.0</ele>
        <time>2019-08-04T07:05:17.785Z</time>
      </trkpt>
      <trkpt lat="42.53004167" lon="1.55411167">
        <ele>1620.0</ele>
        <time>2019-08-04T07:05:18.782Z</time>
      </trkpt>
      <trkpt lat="42.53001833" lon="1.55409167">
        <ele>1620.0</ele>
        <time>2019-08-04T07:05:19.782Z</time>
      </trkpt>
      <trkpt lat="42.52999333" lon="1.55407167">
        <ele>1620.0</ele>
        <time>2019-08-04T07:05:20.802Z</time>
      </trkpt>
      <trkpt lat="42.52999333" lon="1.55407167">
        <ele>1620.0</ele>
        <time>2019-08-04T07:05:21.781Z</time>
      </trkpt>
      <trkpt lat="42.52993833" lon="1.55403667">
        <ele>1620.0</ele>
        <time>2019-08-04T07:05:22.803Z</time>
      </trkpt>
      <trkpt lat="42.52993833" lon="1.55403667">
        <ele>1620.0</ele>
        <time>2019-08-04T07:05:23.782Z</time>
      </trkpt>
      <trkpt lat="42.52988167" lon="1.55401667">
        <ele>1620.0</ele>
        <time>2019-08-04T07:05:24.782Z</time>
      </trkpt>
      <trkpt lat="42.52985167" lon="1.55400833">
        <ele>1620.0</ele>
        <time>2019-08-04T07:05:25.779Z</time>
      </trkpt>
      <trkpt lat="42.52982667" lon="1.55400167">
        <ele>1620.0</ele>
        <time>2019-08-04T07:05:26.798Z</time>
      </trkpt>
      <trkpt lat="42.52982667" lon="1.55400167">
        <ele>1620.0</ele>
        <time>2019-08-04T07:05:27.779Z</time>
      </trkpt>
      <trkpt lat="42.52977" lon="1.55398833">
        <ele>1621.0</ele>
        <time>2019-08-04T07:05:28.782Z</time>
      </trkpt>
      <trkpt lat="42.52974" lon="1.553995">
        <ele>1621.0</ele>
        <time>2019-08-04T07:05:29.781Z</time>
      </trkpt>
      <trkpt lat="42.52974" lon="1.553995">
        <ele>1621.0</ele>
        <time>2019-08-04T07:05:30.777Z</time>
      </trkpt>
      <trkpt lat="42.52968" lon="1.55401">
        <ele>1621.0</ele>
        <time>2019-08-04T07:05:31.796Z</time>
      </trkpt>
      <trkpt lat="42.52964833" lon="1.55401333">
        <ele>1621.0</ele>
        <time>2019-08-04T07:05:32.775Z</time>
      </trkpt>
      <trkpt lat="42.52964833" lon="1.55401333">
        <ele>1621.0</ele>
        <time>2019-08-04T07:05:33.795Z</time>
      </trkpt>
      <trkpt lat="42.52959" lon="1.55402333">
        <ele>1622.0</ele>
        <time>2019-08-04T07:05:34.782Z</time>
      </trkpt>
      <trkpt lat="42.52959" lon="1.55402333">
        <ele>1622.0</ele>
        <time>2019-08-04T07:05:35.777Z</time>
      </trkpt>
      <trkpt lat="42.52953833" lon="1.554025">
        <ele>1622.0</ele>
        <time>2019-08-04T07:05:36.797Z</time>
      </trkpt>
      <trkpt lat="42.52953833" lon="1.554025">
        <ele>1622.0</ele>
        <time>2019-08-04T07:05:37.790Z</time>
      </trkpt>
      <trkpt lat="42.52947" lon="1.55402333">
        <ele>1623.0</ele>
        <time>2019-08-04T07:05:38.782Z</time>
      </trkpt>
      <trkpt lat="42.52947" lon="1.55402333">
        <ele>1623.0</ele>
        <time>2019-08-04T07:05:39.779Z</time>
      </trkpt>
      <trkpt lat="42.52941667" lon="1.55401">
        <ele>1623.0</ele>
        <time>2019-08-04T07:05:40.794Z</time>
      </trkpt>
      <trkpt lat="42.52941667" lon="1.55401">
        <ele>1623.0</ele>
        <time>2019-08-04T07:05:41.779Z</time>
      </trkpt>
      <trkpt lat="42.52936333" lon="1.55399833">
        <ele>1624.0</ele>
        <time>2019-08-04T07:05:42.803Z</time>
      </trkpt>
      <trkpt lat="42.52936333" lon="1.55399833">
        <ele>1624.0</ele>
        <time>2019-08-04T07:05:43.782Z</time>
      </trkpt>
      <trkpt lat="42.52931833" lon="1.55396667">
        <ele>1624.0</ele>
        <time>2019-08-04T07:05:44.783Z</time>
      </trkpt>
      <trkpt lat="42.52931833" lon="1.55396667">
        <ele>1624.0</ele>
        <time>2019-08-04T07:05:45.780Z</time>
      </trkpt>
      <trkpt lat="42.52927167" lon="1.55394167">
        <ele>1625.0</ele>
        <time>2019-08-04T07:05:46.783Z</time>
      </trkpt>
      <trkpt lat="42.52927167" lon="1.55394167">
        <ele>1625.0</ele>
        <time>2019-08-04T07:05:47.780Z</time>
      </trkpt>
      <trkpt lat="42.52922667" lon="1.55391667">
        <ele>1627.0</ele>
        <time>2019-08-04T07:05:48.782Z</time>
      </trkpt>
      <trkpt lat="42.52920833" lon="1.55389">
        <ele>1628.0</ele>
        <time>2019-08-04T07:05:49.782Z</time>
      </trkpt>
      <trkpt lat="42.529195" lon="1.55386333">
        <ele>1628.0</ele>
        <time>2019-08-04T07:05:50.797Z</time>
      </trkpt>
      <trkpt lat="42.529195" lon="1.55386333">
        <ele>1628.0</ele>
        <time>2019-08-04T07:05:51.780Z</time>
      </trkpt>
      <trkpt lat="42.529175" lon="1.553795">
        <ele>1629.0</ele>
        <time>2019-08-04T07:05:52.805Z</time>
      </trkpt>
      <trkpt lat="42.529175" lon="1.553795">
        <ele>1629.0</ele>
        <time>2019-08-04T07:05:53.791Z</time>
      </trkpt>
      <trkpt lat="42.52916667" lon="1.55372833">
        <ele>1630.0</ele>
        <time>2019-08-04T07:05:54.784Z</time>
      </trkpt>
      <trkpt lat="42.52916667" lon="1.55372833">
        <ele>1630.0</ele>
        <time>2019-08-04T07:05:55.781Z</time>
      </trkpt>
      <trkpt lat="42.52917667" lon="1.55365667">
        <ele>1631.0</ele>
        <time>2019-08-04T07:05:56.784Z</time>
      </trkpt>
      <trkpt lat="42.52917667" lon="1.55365667">
        <ele>1631.0</ele>
        <time>2019-08-04T07:05:57.779Z</time>
      </trkpt>
      <trkpt lat="42.52918667" lon="1.55358667">
        <ele>1631.0</ele>
        <time>2019-08-04T07:05:58.782Z</time>
      </trkpt>
      <trkpt lat="42.52918667" lon="1.55358667">
        <ele>1631.0</ele>
        <time>2019-08-04T07:05:59.780Z</time>
      </trkpt>
      <trkpt lat="42.52920333" lon="1.553525">
        <ele>1632.0</ele>
        <time>2019-08-04T07:06:00.790Z</time>
      </trkpt>
      <trkpt lat="42.52920333" lon="1.553525">
        <ele>1632.0</ele>
        <time>2019-08-04T07:06:01.780Z</time>
      </trkpt>
      <trkpt lat="42.52924167" lon="1.55346833">
        <ele>1632.0</ele>
        <time>2019-08-04T07:06:02.766Z</time>
      </trkpt>
      <trkpt lat="42.52924167" lon="1.55346833">
        <ele>1632.0</ele>
        <time>2019-08-04T07:06:03.788Z</time>
      </trkpt>
      <trkpt lat="42.52928167" lon="1.55343333">
        <ele>1633.0</ele>
        <time>2019-08-04T07:06:04.783Z</time>
      </trkpt>
      <trkpt lat="42.52928167" lon="1.55343333">
        <ele>1633.0</ele>
        <time>2019-08-04T07:06:05.783Z</time>
      </trkpt>
      <trkpt lat="42.52931833" lon="1.55342167">
        <ele>1633.0</ele>
        <time>2019-08-04T07:06:06.781Z</time>
      </trkpt>
      <trkpt lat="42.52934167" lon="1.553415">
        <ele>1634.0</ele>
        <time>2019-08-04T07:06:07.788Z</time>
      </trkpt>
      <trkpt lat="42.52937167" lon="1.55340667">
        <ele>1634.0</ele>
        <time>2019-08-04T07:06:08.794Z</time>
      </trkpt>
      <trkpt lat="42.52937167" lon="1.55340667">
        <ele>1634.0</ele>
        <time>2019-08-04T07:06:09.780Z</time>
      </trkpt>
      <trkpt lat="42.529425" lon="1.55339833">
        <ele>1635.0</ele>
        <time>2019-08-04T07:06:10.802Z</time>
      </trkpt>
      <trkpt lat="42.529425" lon="1.55339833">
        <ele>1635.0</ele>
        <time>2019-08-04T07:06:11.793Z</time>
      </trkpt>
      <trkpt lat="42.52948167" lon="1.5534">
        <ele>1636.0</ele>
        <time>2019-08-04T07:06:12.801Z</time>
      </trkpt>
      <trkpt lat="42.52948167" lon="1.5534">
        <ele>1636.0</ele>
        <time>2019-08-04T07:06:13.780Z</time>
      </trkpt>
      <trkpt lat="42.52952833" lon="1.55341167">
        <ele>1636.0</ele>
        <time>2019-08-04T07:06:14.785Z</time>
      </trkpt>
      <trkpt lat="42.52956" lon="1.55342833">
        <ele>1637.0</ele>
        <time>2019-08-04T07:06:15.795Z</time>
      </trkpt>
      <trkpt lat="42.52956" lon="1.55342833">
        <ele>1637.0</ele>
        <time>2019-08-04T07:06:16.777Z</time>
      </trkpt>
      <trkpt lat="42.52962167" lon="1.55346167">
        <ele>1637.0</ele>
        <time>2019-08-04T07:06:17.797Z</time>
      </trkpt>
      <trkpt lat="42.52962167" lon="1.55346167">
        <ele>1637.0</ele>
        <time>2019-08-04T07:06:18.780Z</time>
      </trkpt>
      <trkpt lat="42.52967333" lon="1.55349833">
        <ele>1638.0</ele>
        <time>2019-08-04T07:06:19.782Z</time>
      </trkpt>
      <trkpt lat="42.52967333" lon="1.55349833">
        <ele>1638.0</ele>
        <time>2019-08-04T07:06:20.777Z</time>
      </trkpt>
      <trkpt lat="42.52972167" lon="1.553525">
        <ele>1638.0</ele>
        <time>2019-08-04T07:06:21.796Z</time>
      </trkpt>
      <trkpt lat="42.52972167" lon="1.553525">
        <ele>1638.0</ele>
        <time>2019-08-04T07:06:22.800Z</time>
      </trkpt>
      <trkpt lat="42.529775" lon="1.55355833">
        <ele>1639.0</ele>
        <time>2019-08-04T07:06:23.783Z</time>
      </trkpt>
      <trkpt lat="42.529775" lon="1.55355833">
        <ele>1639.0</ele>
        <time>2019-08-04T07:06:24.777Z</time>
      </trkpt>
      <trkpt lat="42.52982667" lon="1.55359167">
        <ele>1640.0</ele>
        <time>2019-08-04T07:06:25.796Z</time>
      </trkpt>
      <trkpt lat="42.529845" lon="1.553595">
        <ele>1640.0</ele>
        <time>2019-08-04T07:06:26.781Z</time>
      </trkpt>
      <trkpt lat="42.529845" lon="1.553595">
        <ele>1640.0</ele>
        <time>2019-08-04T07:06:27.779Z</time>
      </trkpt>
      <trkpt lat="42.5299" lon="1.553625">
        <ele>1641.0</ele>
        <time>2019-08-04T07:06:28.783Z</time>
      </trkpt>
      <trkpt lat="42.5299" lon="1.553625">
        <ele>1641.0</ele>
        <time>2019-08-04T07:06:29.776Z</time>
      </trkpt>
      <trkpt lat="42.52994833" lon="1.55364333">
        <ele>1641.0</ele>
        <time>2019-08-04T07:06:30.784Z</time>
      </trkpt>
      <trkpt lat="42.52994833" lon="1.55364333">
        <ele>1641.0</ele>
        <time>2019-08-04T07:06:31.780Z</time>
      </trkpt>
      <trkpt lat="42.53" lon="1.55364333">
        <ele>1642.0</ele>
        <time>2019-08-04T07:06:32.803Z</time>
      </trkpt>
      <trkpt lat="42.53" lon="1.55364333">
        <ele>1642.0</ele>
        <time>2019-08-04T07:06:33.780Z</time>
      </trkpt>
      <trkpt lat="42.53004333" lon="1.553655">
        <ele>1642.0</ele>
        <time>2019-08-04T07:06:34.784Z</time>
      </trkpt>
      <trkpt lat="42.53004333" lon="1.553655">
        <ele>1642.0</ele>
        <time>2019-08-04T07:06:35.780Z</time>
      </trkpt>
      <trkpt lat="42.53009167" lon="1.55365833">
        <ele>1643.0</ele>
        <time>2019-08-04T07:06:36.781Z</time>
      </trkpt>
      <trkpt lat="42.53012167" lon="1.55366">
        <ele>1643.0</ele>
        <time>2019-08-04T07:06:37.784Z</time>
      </trkpt>
      <trkpt lat="42.53015" lon="1.55365667">
        <ele>1644.0</ele>
        <time>2019-08-04T07:06:38.781Z</time>
      </trkpt>
      <trkpt lat="42.53015" lon="1.55365667">
        <ele>1644.0</ele>
        <time>2019-08-04T07:06:39.780Z</time>
      </trkpt>
      <trkpt lat="42.53020667" lon="1.55365667">
        <ele>1645.0</ele>
        <time>2019-08-04T07:06:40.802Z</time>
      </trkpt>
      <trkpt lat="42.53020667" lon="1.55365667">
        <ele>1645.0</ele>
        <time>2019-08-04T07:06:41.782Z</time>
      </trkpt>
      <trkpt lat="42.53026" lon="1.55364333">
        <ele>1645.0</ele>
        <time>2019-08-04T07:06:42.771Z</time>
      </trkpt>
      <trkpt lat="42.53026" lon="1.55364333">
        <ele>1645.0</ele>
        <time>2019-08-04T07:06:43.792Z</time>
      </trkpt>
      <trkpt lat="42.53031833" lon="1.55361667">
        <ele>1645.0</ele>
        <time>2019-08-04T07:06:44.780Z</time>
      </trkpt>
      <trkpt lat="42.53031833" lon="1.55361667">
        <ele>1645.0</ele>
        <time>2019-08-04T07:06:45.778Z</time>
      </trkpt>
      <trkpt lat="42.53037833" lon="1.55358833">
        <ele>1645.0</ele>
        <time>2019-08-04T07:06:46.797Z</time>
      </trkpt>
      <trkpt lat="42.53037833" lon="1.55358833">
        <ele>1645.0</ele>
        <time>2019-08-04T07:06:47.792Z</time>
      </trkpt>
      <trkpt lat="42.53043" lon="1.55356167">
        <ele>1645.0</ele>
        <time>2019-08-04T07:06:48.782Z</time>
      </trkpt>
      <trkpt lat="42.53043" lon="1.55356167">
        <ele>1645.0</ele>
        <time>2019-08-04T07:06:49.780Z</time>
      </trkpt>
      <trkpt lat="42.53047833" lon="1.55353333">
        <ele>1646.0</ele>
        <time>2019-08-04T07:06:50.799Z</time>
      </trkpt>
      <trkpt lat="42.53047833" lon="1.55353333">
        <ele>1646.0</ele>
        <time>2019-08-04T07:06:51.780Z</time>
      </trkpt>
      <trkpt lat="42.53053167" lon="1.55349333">
        <ele>1646.0</ele>
        <time>2019-08-04T07:06:52.803Z</time>
      </trkpt>
      <trkpt lat="42.53053167" lon="1.55349333">
        <ele>1646.0</ele>
        <time>2019-08-04T07:06:53.782Z</time>
      </trkpt>
      <trkpt lat="42.53058333" lon="1.553455">
        <ele>1646.0</ele>
        <time>2019-08-04T07:06:54.779Z</time>
      </trkpt>
      <trkpt lat="42.53060833" lon="1.55344">
        <ele>1646.0</ele>
        <time>2019-08-04T07:06:55.786Z</time>
      </trkpt>
      <trkpt lat="42.53060833" lon="1.55344">
        <ele>1646.0</ele>
        <time>2019-08-04T07:06:56.779Z</time>
      </trkpt>
      <trkpt lat="42.53065833" lon="1.55341833">
        <ele>1646.0</ele>
        <time>2019-08-04T07:06:57.798Z</time>
      </trkpt>
      <trkpt lat="42.53068333" lon="1.55340833">
        <ele>1646.0</ele>
        <time>2019-08-04T07:06:58.781Z</time>
      </trkpt>
      <trkpt lat="42.53068333" lon="1.55340833">
        <ele>1646.0</ele>
        <time>2019-08-04T07:06:59.780Z</time>
      </trkpt>
      <trkpt lat="42.53072833" lon="1.55340333">
        <ele>1647.0</ele>
        <time>2019-08-04T07:07:00.794Z</time>
      </trkpt>
      <trkpt lat="42.530755" lon="1.55339833">
        <ele>1647.0</ele>
        <time>2019-08-04T07:07:01.783Z</time>
      </trkpt>
      <trkpt lat="42.53077833" lon="1.55339167">
        <ele>1647.0</ele>
        <time>2019-08-04T07:07:02.771Z</time>
      </trkpt>
      <trkpt lat="42.53077833" lon="1.55339167">
        <ele>1647.0</ele>
        <time>2019-08-04T07:07:03.792Z</time>
      </trkpt>
      <trkpt lat="42.53083" lon="1.55337667">
        <ele>1648.0</ele>
        <time>2019-08-04T07:07:04.783Z</time>
      </trkpt>
      <trkpt lat="42.53085833" lon="1.55337">
        <ele>1648.0</ele>
        <time>2019-08-04T07:07:05.793Z</time>
      </trkpt>
      <trkpt lat="42.53085833" lon="1.55337">
        <ele>1648.0</ele>
        <time>2019-08-04T07:07:06.771Z</time>
      </trkpt>
      <trkpt lat="42.53091333" lon="1.55336">
        <ele>1648.0</ele>
        <time>2019-08-04T07:07:07.793Z</time>
      </trkpt>
      <trkpt lat="42.53094167" lon="1.55336167">
        <ele>1649.0</ele>
        <time>2019-08-04T07:07:08.786Z</time>
      </trkpt>
      <trkpt lat="42.53094167" lon="1.55336167">
        <ele>1649.0</ele>
        <time>2019-08-04T07:07:09.781Z</time>
      </trkpt>
      <trkpt lat="42.530995" lon="1.55337167">
        <ele>1649.0</ele>
        <time>2019-08-04T07:07:10.784Z</time>
      </trkpt>
      <trkpt lat="42.530995" lon="1.55337167">
        <ele>1649.0</ele>
        <time>2019-08-04T07:07:11.778Z</time>
      </trkpt>
      <trkpt lat="42.531055" lon="1.55339">
        <ele>1650.0</ele>
        <time>2019-08-04T07:07:12.784Z</time>
      </trkpt>
      <trkpt lat="42.531055" lon="1.55339">
        <ele>1650.0</ele>
        <time>2019-08-04T07:07:13.780Z</time>
      </trkpt>
      <trkpt lat="42.53112167" lon="1.55339667">
        <ele>1651.0</ele>
        <time>2019-08-04T07:07:14.781Z</time>
      </trkpt>
      <trkpt lat="42.53112167" lon="1.55339667">
        <ele>1651.0</ele>
        <time>2019-08-04T07:07:15.777Z</time>
      </trkpt>
      <trkpt lat="42.53119667" lon="1.553415">
        <ele>1652.0</ele>
        <time>2019-08-04T07:07:16.797Z</time>
      </trkpt>
      <trkpt lat="42.53119667" lon="1.553415">
        <ele>1652.0</ele>
        <time>2019-08-04T07:07:17.780Z</time>
      </trkpt>
      <trkpt lat="42.53126833" lon="1.55344167">
        <ele>1652.0</ele>
        <time>2019-08-04T07:07:18.784Z</time>
      </trkpt>
      <trkpt lat="42.53126833" lon="1.55344167">
        <ele>1652.0</ele>
        <time>2019-08-04T07:07:19.780Z</time>
      </trkpt>
      <trkpt lat="42.53134" lon="1.55346167">
        <ele>1653.0</ele>
        <time>2019-08-04T07:07:20.784Z</time>
      </trkpt>
      <trkpt lat="42.53134" lon="1.55346167">
        <ele>1653.0</ele>
        <time>2019-08-04T07:07:21.777Z</time>
      </trkpt>
      <trkpt lat="42.53141167" lon="1.553495">
        <ele>1654.0</ele>
        <time>2019-08-04T07:07:22.768Z</time>
      </trkpt>
      <trkpt lat="42.53141167" lon="1.553495">
        <ele>1654.0</ele>
        <time>2019-08-04T07:07:23.801Z</time>
      </trkpt>
      <trkpt lat="42.53147833" lon="1.55352667">
        <ele>1654.0</ele>
        <time>2019-08-04T07:07:24.782Z</time>
      </trkpt>
      <trkpt lat="42.53150833" lon="1.55354667">
        <ele>1654.0</ele>
        <time>2019-08-04T07:07:25.783Z</time>
      </trkpt>
      <trkpt lat="42.53150833" lon="1.55354667">
        <ele>1654.0</ele>
        <time>2019-08-04T07:07:26.780Z</time>
      </trkpt>
      <trkpt lat="42.53156667" lon="1.55359167">
        <ele>1654.0</ele>
        <time>2019-08-04T07:07:27.783Z</time>
      </trkpt>
      <trkpt lat="42.531595" lon="1.55361167">
        <ele>1655.0</ele>
        <time>2019-08-04T07:07:28.784Z</time>
      </trkpt>
      <trkpt lat="42.531595" lon="1.55361167">
        <ele>1655.0</ele>
        <time>2019-08-04T07:07:29.779Z</time>
      </trkpt>
      <trkpt lat="42.53164833" lon="1.55365333">
        <ele>1655.0</ele>
        <time>2019-08-04T07:07:30.798Z</time>
      </trkpt>
      <trkpt lat="42.53167333" lon="1.55367667">
        <ele>1655.0</ele>
        <time>2019-08-04T07:07:31.785Z</time>
      </trkpt>
      <trkpt lat="42.53169833" lon="1.5537">
        <ele>1655.0</ele>
        <time>2019-08-04T07:07:32.772Z</time>
      </trkpt>
      <trkpt lat="42.53169833" lon="1.5537">
        <ele>1655.0</ele>
        <time>2019-08-04T07:07:33.781Z</time>
      </trkpt>
      <trkpt lat="42.53175167" lon="1.55374833">
        <ele>1656.0</ele>
        <time>2019-08-04T07:07:34.784Z</time>
      </trkpt>
      <trkpt lat="42.53175167" lon="1.55374833">
        <ele>1656.0</ele>
        <time>2019-08-04T07:07:35.785Z</time>
      </trkpt>
      <trkpt lat="42.531805" lon="1.553805">
        <ele>1656.0</ele>
        <time>2019-08-04T07:07:36.783Z</time>
      </trkpt>
      <trkpt lat="42.531805" lon="1.553805">
        <ele>1656.0</ele>
        <time>2019-08-04T07:07:37.780Z</time>
      </trkpt>
      <trkpt lat="42.53186" lon="1.55384333">
        <ele>1656.0</ele>
        <time>2019-08-04T07:07:38.785Z</time>
      </trkpt>
      <trkpt lat="42.53186" lon="1.55384333">
        <ele>1656.0</ele>
        <time>2019-08-04T07:07:39.779Z</time>
      </trkpt>
      <trkpt lat="42.53191667" lon="1.55389333">
        <ele>1656.0</ele>
        <time>2019-08-04T07:07:40.784Z</time>
      </trkpt>
      <trkpt lat="42.53191667" lon="1.55389333">
        <ele>1656.0</ele>
        <time>2019-08-04T07:07:41.783Z</time>
      </trkpt>
      <trkpt lat="42.53196833" lon="1.553945">
        <ele>1657.0</ele>
        <time>2019-08-04T07:07:42.766Z</time>
      </trkpt>
      <trkpt lat="42.53196833" lon="1.553945">
        <ele>1657.0</ele>
        <time>2019-08-04T07:07:43.785Z</time>
      </trkpt>
      <trkpt lat="42.53202333" lon="1.55400167">
        <ele>1657.0</ele>
        <time>2019-08-04T07:07:44.785Z</time>
      </trkpt>
      <trkpt lat="42.53202333" lon="1.55400167">
        <ele>1657.0</ele>
        <time>2019-08-04T07:07:45.780Z</time>
      </trkpt>
      <trkpt lat="42.53207833" lon="1.55406167">
        <ele>1656.0</ele>
        <time>2019-08-04T07:07:46.784Z</time>
      </trkpt>
      <trkpt lat="42.53207833" lon="1.55406167">
        <ele>1656.0</ele>
        <time>2019-08-04T07:07:47.787Z</time>
      </trkpt>
      <trkpt lat="42.53213" lon="1.55413833">
        <ele>1656.0</ele>
        <time>2019-08-04T07:07:48.782Z</time>
      </trkpt>
      <trkpt lat="42.53215667" lon="1.55417833">
        <ele>1657.0</ele>
        <time>2019-08-04T07:07:49.784Z</time>
      </trkpt>
      <trkpt lat="42.53215667" lon="1.55417833">
        <ele>1657.0</ele>
        <time>2019-08-04T07:07:50.782Z</time>
      </trkpt>
      <trkpt lat="42.53220167" lon="1.55426">
        <ele>1657.0</ele>
        <time>2019-08-04T07:07:51.802Z</time>
      </trkpt>
      <trkpt lat="42.53222333" lon="1.5543">
        <ele>1657.0</ele>
        <time>2019-08-04T07:07:52.765Z</time>
      </trkpt>
      <trkpt lat="42.53222333" lon="1.5543">
        <ele>1657.0</ele>
        <time>2019-08-04T07:07:53.784Z</time>
      </trkpt>
      <trkpt lat="42.53226333" lon="1.554385">
        <ele>1657.0</ele>
        <time>2019-08-04T07:07:54.783Z</time>
      </trkpt>
      <trkpt lat="42.53228167" lon="1.55443">
        <ele>1658.0</ele>
        <time>2019-08-04T07:07:55.765Z</time>
      </trkpt>
      <trkpt lat="42.532305" lon="1.55447167">
        <ele>1658.0</ele>
        <time>2019-08-04T07:07:56.785Z</time>
      </trkpt>
      <trkpt lat="42.532305" lon="1.55447167">
        <ele>1658.0</ele>
        <time>2019-08-04T07:07:57.780Z</time>
      </trkpt>
      <trkpt lat="42.53234167" lon="1.55456167">
        <ele>1659.0</ele>
        <time>2019-08-04T07:07:58.784Z</time>
      </trkpt>
      <trkpt lat="42.53234167" lon="1.55456167">
        <ele>1659.0</ele>
        <time>2019-08-04T07:07:59.780Z</time>
      </trkpt>
      <trkpt lat="42.532375" lon="1.55464667">
        <ele>1659.0</ele>
        <time>2019-08-04T07:08:00.780Z</time>
      </trkpt>
      <trkpt lat="42.532375" lon="1.55464667">
        <ele>1659.0</ele>
        <time>2019-08-04T07:08:01.777Z</time>
      </trkpt>
      <trkpt lat="42.532415" lon="1.554725">
        <ele>1660.0</ele>
        <time>2019-08-04T07:08:02.768Z</time>
      </trkpt>
      <trkpt lat="42.532415" lon="1.554725">
        <ele>1660.0</ele>
        <time>2019-08-04T07:08:03.791Z</time>
      </trkpt>
      <trkpt lat="42.532455" lon="1.554805">
        <ele>1661.0</ele>
        <time>2019-08-04T07:08:04.784Z</time>
      </trkpt>
      <trkpt lat="42.532455" lon="1.554805">
        <ele>1661.0</ele>
        <time>2019-08-04T07:08:05.799Z</time>
      </trkpt>
      <trkpt lat="42.5325" lon="1.55487833">
        <ele>1661.0</ele>
        <time>2019-08-04T07:08:06.784Z</time>
      </trkpt>
      <trkpt lat="42.5325" lon="1.55487833">
        <ele>1661.0</ele>
        <time>2019-08-04T07:08:07.780Z</time>
      </trkpt>
      <trkpt lat="42.53255667" lon="1.55494333">
        <ele>1662.0</ele>
        <time>2019-08-04T07:08:08.785Z</time>
      </trkpt>
      <trkpt lat="42.53255667" lon="1.55494333">
        <ele>1662.0</ele>
        <time>2019-08-04T07:08:09.778Z</time>
      </trkpt>
      <trkpt lat="42.53262333" lon="1.554985">
        <ele>1662.0</ele>
        <time>2019-08-04T07:08:10.798Z</time>
      </trkpt>
      <trkpt lat="42.53262333" lon="1.554985">
        <ele>1662.0</ele>
        <time>2019-08-04T07:08:11.779Z</time>
      </trkpt>
      <trkpt lat="42.53269667" lon="1.555015">
        <ele>1662.0</ele>
        <time>2019-08-04T07:08:12.766Z</time>
      </trkpt>
      <trkpt lat="42.53269667" lon="1.555015">
        <ele>1662.0</ele>
        <time>2019-08-04T07:08:13.785Z</time>
      </trkpt>
      <trkpt lat="42.53277167" lon="1.55503333">
        <ele>1663.0</ele>
        <time>2019-08-04T07:08:14.785Z</time>
      </trkpt>
      <trkpt lat="42.53277167" lon="1.55503333">
        <ele>1663.0</ele>
        <time>2019-08-04T07:08:15.780Z</time>
      </trkpt>
      <trkpt lat="42.53285" lon="1.55502">
        <ele>1664.0</ele>
        <time>2019-08-04T07:08:16.784Z</time>
      </trkpt>
      <trkpt lat="42.53285" lon="1.55502">
        <ele>1664.0</ele>
        <time>2019-08-04T07:08:17.787Z</time>
      </trkpt>
      <trkpt lat="42.53291833" lon="1.55496833">
        <ele>1664.0</ele>
        <time>2019-08-04T07:08:18.781Z</time>
      </trkpt>
      <trkpt lat="42.53291833" lon="1.55496833">
        <ele>1664.0</ele>
        <time>2019-08-04T07:08:19.779Z</time>
      </trkpt>
      <trkpt lat="42.53296" lon="1.55488167">
        <ele>1663.0</ele>
        <time>2019-08-04T07:08:20.785Z</time>
      </trkpt>
      <trkpt lat="42.53296" lon="1.55488167">
        <ele>1663.0</ele>
        <time>2019-08-04T07:08:21.780Z</time>
      </trkpt>
      <trkpt lat="42.53293667" lon="1.55478">
        <ele>1663.0</ele>
        <time>2019-08-04T07:08:22.804Z</time>
      </trkpt>
      <trkpt lat="42.53293667" lon="1.55478">
        <ele>1663.0</ele>
        <time>2019-08-04T07:08:23.783Z</time>
      </trkpt>
      <trkpt lat="42.53288667" lon="1.55470333">
        <ele>1662.0</ele>
        <time>2019-08-04T07:08:24.783Z</time>
      </trkpt>
      <trkpt lat="42.53285667" lon="1.55467333">
        <ele>1662.0</ele>
        <time>2019-08-04T07:08:25.804Z</time>
      </trkpt>
      <trkpt lat="42.532825" lon="1.55464833">
        <ele>1662.0</ele>
        <time>2019-08-04T07:08:26.784Z</time>
      </trkpt>
      <trkpt lat="42.532825" lon="1.55464833">
        <ele>1662.0</ele>
        <time>2019-08-04T07:08:27.777Z</time>
      </trkpt>
      <trkpt lat="42.53276667" lon="1.554605">
        <ele>1662.0</ele>
        <time>2019-08-04T07:08:28.796Z</time>
      </trkpt>
      <trkpt lat="42.53276667" lon="1.554605">
        <ele>1662.0</ele>
        <time>2019-08-04T07:08:29.780Z</time>
      </trkpt>
      <trkpt lat="42.532705" lon="1.55455167">
        <ele>1662.0</ele>
        <time>2019-08-04T07:08:30.798Z</time>
      </trkpt>
      <trkpt lat="42.532705" lon="1.55455167">
        <ele>1662.0</ele>
        <time>2019-08-04T07:08:31.778Z</time>
      </trkpt>
      <trkpt lat="42.53264333" lon="1.55449">
        <ele>1662.0</ele>
        <time>2019-08-04T07:08:32.785Z</time>
      </trkpt>
      <trkpt lat="42.53264333" lon="1.55449">
        <ele>1662.0</ele>
        <time>2019-08-04T07:08:33.781Z</time>
      </trkpt>
      <trkpt lat="42.53259167" lon="1.55442333">
        <ele>1662.0</ele>
        <time>2019-08-04T07:08:34.784Z</time>
      </trkpt>
      <trkpt lat="42.53259167" lon="1.55442333">
        <ele>1662.0</ele>
        <time>2019-08-04T07:08:35.780Z</time>
      </trkpt>
      <trkpt lat="42.53254667" lon="1.55435333">
        <ele>1662.0</ele>
        <time>2019-08-04T07:08:36.784Z</time>
      </trkpt>
      <trkpt lat="42.53254667" lon="1.55435333">
        <ele>1662.0</ele>
        <time>2019-08-04T07:08:37.781Z</time>
      </trkpt>
      <trkpt lat="42.5325" lon="1.55427167">
        <ele>1662.0</ele>
        <time>2019-08-04T07:08:38.785Z</time>
      </trkpt>
      <trkpt lat="42.5325" lon="1.55427167">
        <ele>1662.0</ele>
        <time>2019-08-04T07:08:39.781Z</time>
      </trkpt>
      <trkpt lat="42.53245333" lon="1.55419167">
        <ele>1662.0</ele>
        <time>2019-08-04T07:08:40.784Z</time>
      </trkpt>
      <trkpt lat="42.53245333" lon="1.55419167">
        <ele>1662.0</ele>
        <time>2019-08-04T07:08:41.778Z</time>
      </trkpt>
      <trkpt lat="42.53241333" lon="1.55411">
        <ele>1663.0</ele>
        <time>2019-08-04T07:08:42.803Z</time>
      </trkpt>
      <trkpt lat="42.53241333" lon="1.55411">
        <ele>1663.0</ele>
        <time>2019-08-04T07:08:43.782Z</time>
      </trkpt>
      <trkpt lat="42.53236833" lon="1.55402667">
        <ele>1663.0</ele>
        <time>2019-08-04T07:08:44.785Z</time>
      </trkpt>
      <trkpt lat="42.53236833" lon="1.55402667">
        <ele>1663.0</ele>
        <time>2019-08-04T07:08:45.778Z</time>
      </trkpt>
      <trkpt lat="42.53232167" lon="1.553945">
        <ele>1663.0</ele>
        <time>2019-08-04T07:08:46.798Z</time>
      </trkpt>
      <trkpt lat="42.53232167" lon="1.553945">
        <ele>1663.0</ele>
        <time>2019-08-04T07:08:47.780Z</time>
      </trkpt>
      <trkpt lat="42.53227667" lon="1.55385833">
        <ele>1664.0</ele>
        <time>2019-08-04T07:08:48.783Z</time>
      </trkpt>
      <trkpt lat="42.53227667" lon="1.55385833">
        <ele>1664.0</ele>
        <time>2019-08-04T07:08:49.780Z</time>
      </trkpt>
      <trkpt lat="42.53223167" lon="1.55377167">
        <ele>1665.0</ele>
        <time>2019-08-04T07:08:50.799Z</time>
      </trkpt>
      <trkpt lat="42.53223167" lon="1.55377167">
        <ele>1665.0</ele>
        <time>2019-08-04T07:08:51.781Z</time>
      </trkpt>
      <trkpt lat="42.53218333" lon="1.55369">
        <ele>1667.0</ele>
        <time>2019-08-04T07:08:52.767Z</time>
      </trkpt>
      <trkpt lat="42.53218333" lon="1.55369">
        <ele>1667.0</ele>
        <time>2019-08-04T07:08:53.801Z</time>
      </trkpt>
      <trkpt lat="42.53214333" lon="1.55360333">
        <ele>1667.0</ele>
        <time>2019-08-04T07:08:54.780Z</time>
      </trkpt>
      <trkpt lat="42.53214333" lon="1.55360333">
        <ele>1667.0</ele>
        <time>2019-08-04T07:08:55.768Z</time>
      </trkpt>
      <trkpt lat="42.532105" lon="1.55352167">
        <ele>1668.0</ele>
        <time>2019-08-04T07:08:56.792Z</time>
      </trkpt>
      <trkpt lat="42.532105" lon="1.55352167">
        <ele>1668.0</ele>
        <time>2019-08-04T07:08:57.778Z</time>
      </trkpt>
      <trkpt lat="42.53206833" lon="1.55344">
        <ele>1668.0</ele>
        <time>2019-08-04T07:08:58.797Z</time>
      </trkpt>
      <trkpt lat="42.53206833" lon="1.55344">
        <ele>1668.0</ele>
        <time>2019-08-04T07:08:59.779Z</time>
      </trkpt>
      <trkpt lat="42.53203667" lon="1.553355">
        <ele>1669.0</ele>
        <time>2019-08-04T07:09:00.768Z</time>
      </trkpt>
      <trkpt lat="42.53203667" lon="1.553355">
        <ele>1669.0</ele>
        <time>2019-08-04T07:09:01.790Z</time>
      </trkpt>
      <trkpt lat="42.53200333" lon="1.55327">
        <ele>1669.0</ele>
        <time>2019-08-04T07:09:02.773Z</time>
      </trkpt>
      <trkpt lat="42.53200333" lon="1.55327">
        <ele>1669.0</ele>
        <time>2019-08-04T07:09:03.800Z</time>
      </trkpt>
      <trkpt lat="42.53197333" lon="1.55317833">
        <ele>1670.0</ele>
        <time>2019-08-04T07:09:04.785Z</time>
      </trkpt>
      <trkpt lat="42.53197333" lon="1.55317833">
        <ele>1670.0</ele>
        <time>2019-08-04T07:09:05.786Z</time>
      </trkpt>
      <trkpt lat="42.53194" lon="1.55308167">
        <ele>1670.0</ele>
        <time>2019-08-04T07:09:06.796Z</time>
      </trkpt>
      <trkpt lat="42.53192333" lon="1.553035">
        <ele>1670.0</ele>
        <time>2019-08-04T07:09:07.802Z</time>
      </trkpt>
      <trkpt lat="42.53192333" lon="1.553035">
        <ele>1670.0</ele>
        <time>2019-08-04T07:09:08.780Z</time>
      </trkpt>
      <trkpt lat="42.53188833" lon="1.55294">
        <ele>1670.0</ele>
        <time>2019-08-04T07:09:09.781Z</time>
      </trkpt>
      <trkpt lat="42.53186833" lon="1.552895">
        <ele>1670.0</ele>
        <time>2019-08-04T07:09:10.783Z</time>
      </trkpt>
      <trkpt lat="42.53186833" lon="1.552895">
        <ele>1670.0</ele>
        <time>2019-08-04T07:09:11.795Z</time>
      </trkpt>
      <trkpt lat="42.53182667" lon="1.55281167">
        <ele>1670.0</ele>
        <time>2019-08-04T07:09:12.769Z</time>
      </trkpt>
      <trkpt lat="42.531805" lon="1.55277333">
        <ele>1670.0</ele>
        <time>2019-08-04T07:09:13.794Z</time>
      </trkpt>
      <trkpt lat="42.531805" lon="1.55277333">
        <ele>1670.0</ele>
        <time>2019-08-04T07:09:14.779Z</time>
      </trkpt>
      <trkpt lat="42.53175833" lon="1.5527">
        <ele>1671.0</ele>
        <time>2019-08-04T07:09:15.782Z</time>
      </trkpt>
      <trkpt lat="42.53173167" lon="1.55266667">
        <ele>1671.0</ele>
        <time>2019-08-04T07:09:16.784Z</time>
      </trkpt>
      <trkpt lat="42.53173167" lon="1.55266667">
        <ele>1671.0</ele>
        <time>2019-08-04T07:09:17.790Z</time>
      </trkpt>
      <trkpt lat="42.53167833" lon="1.552605">
        <ele>1671.0</ele>
        <time>2019-08-04T07:09:18.783Z</time>
      </trkpt>
      <trkpt lat="42.53165167" lon="1.55257667">
        <ele>1671.0</ele>
        <time>2019-08-04T07:09:19.782Z</time>
      </trkpt>
      <trkpt lat="42.53162333" lon="1.55255">
        <ele>1671.0</ele>
        <time>2019-08-04T07:09:20.786Z</time>
      </trkpt>
      <trkpt lat="42.53159167" lon="1.552525">
        <ele>1671.0</ele>
        <time>2019-08-04T07:09:21.789Z</time>
      </trkpt>
      <trkpt lat="42.53159167" lon="1.552525">
        <ele>1671.0</ele>
        <time>2019-08-04T07:09:22.795Z</time>
      </trkpt>
      <trkpt lat="42.531535" lon="1.55247667">
        <ele>1671.0</ele>
        <time>2019-08-04T07:09:23.781Z</time>
      </trkpt>
      <trkpt lat="42.531535" lon="1.55247667">
        <ele>1671.0</ele>
        <time>2019-08-04T07:09:24.778Z</time>
      </trkpt>
      <trkpt lat="42.53146833" lon="1.55243833">
        <ele>1672.0</ele>
        <time>2019-08-04T07:09:25.797Z</time>
      </trkpt>
      <trkpt lat="42.53146833" lon="1.55243833">
        <ele>1672.0</ele>
        <time>2019-08-04T07:09:26.778Z</time>
      </trkpt>
      <trkpt lat="42.53140167" lon="1.552405">
        <ele>1672.0</ele>
        <time>2019-08-04T07:09:27.797Z</time>
      </trkpt>
      <trkpt lat="42.53137" lon="1.55239167">
        <ele>1673.0</ele>
        <time>2019-08-04T07:09:28.787Z</time>
      </trkpt>
      <trkpt lat="42.53137" lon="1.55239167">
        <ele>1673.0</ele>
        <time>2019-08-04T07:09:29.778Z</time>
      </trkpt>
      <trkpt lat="42.53130833" lon="1.55237167">
        <ele>1673.0</ele>
        <time>2019-08-04T07:09:30.802Z</time>
      </trkpt>
      <trkpt lat="42.53130833" lon="1.55237167">
        <ele>1673.0</ele>
        <time>2019-08-04T07:09:31.789Z</time>
      </trkpt>
      <trkpt lat="42.53123333" lon="1.55235">
        <ele>1673.0</ele>
        <time>2019-08-04T07:09:32.768Z</time>
      </trkpt>
      <trkpt lat="42.53123333" lon="1.55235">
        <ele>1673.0</ele>
        <time>2019-08-04T07:09:33.790Z</time>
      </trkpt>
      <trkpt lat="42.53116167" lon="1.55233167">
        <ele>1674.0</ele>
        <time>2019-08-04T07:09:34.785Z</time>
      </trkpt>
      <trkpt lat="42.53116167" lon="1.55233167">
        <ele>1674.0</ele>
        <time>2019-08-04T07:09:35.778Z</time>
      </trkpt>
      <trkpt lat="42.53109333" lon="1.55231833">
        <ele>1674.0</ele>
        <time>2019-08-04T07:09:36.798Z</time>
      </trkpt>
      <trkpt lat="42.53105833" lon="1.55231333">
        <ele>1674.0</ele>
        <time>2019-08-04T07:09:37.789Z</time>
      </trkpt>
      <trkpt lat="42.531025" lon="1.55230667">
        <ele>1674.0</ele>
        <time>2019-08-04T07:09:38.785Z</time>
      </trkpt>
      <trkpt lat="42.531025" lon="1.55230667">
        <ele>1674.0</ele>
        <time>2019-08-04T07:09:39.780Z</time>
      </trkpt>
      <trkpt lat="42.53095167" lon="1.55230167">
        <ele>1675.0</ele>
        <time>2019-08-04T07:09:40.801Z</time>
      </trkpt>
      <trkpt lat="42.53095167" lon="1.55230167">
        <ele>1675.0</ele>
        <time>2019-08-04T07:09:41.781Z</time>
      </trkpt>
      <trkpt lat="42.53088" lon="1.55230167">
        <ele>1675.0</ele>
        <time>2019-08-04T07:09:42.774Z</time>
      </trkpt>
      <trkpt lat="42.53088" lon="1.55230167">
        <ele>1675.0</ele>
        <time>2019-08-04T07:09:43.794Z</time>
      </trkpt>
      <trkpt lat="42.53080167" lon="1.55231333">
        <ele>1676.0</ele>
        <time>2019-08-04T07:09:44.781Z</time>
      </trkpt>
      <trkpt lat="42.53080167" lon="1.55231333">
        <ele>1676.0</ele>
        <time>2019-08-04T07:09:45.786Z</time>
      </trkpt>
      <trkpt lat="42.530735" lon="1.55233">
        <ele>1676.0</ele>
        <time>2019-08-04T07:09:46.784Z</time>
      </trkpt>
      <trkpt lat="42.530735" lon="1.55233">
        <ele>1676.0</ele>
        <time>2019-08-04T07:09:47.790Z</time>
      </trkpt>
      <trkpt lat="42.530675" lon="1.552355">
        <ele>1677.0</ele>
        <time>2019-08-04T07:09:48.784Z</time>
      </trkpt>
      <trkpt lat="42.53064333" lon="1.55236167">
        <ele>1677.0</ele>
        <time>2019-08-04T07:09:49.781Z</time>
      </trkpt>
      <trkpt lat="42.53061333" lon="1.55236667">
        <ele>1677.0</ele>
        <time>2019-08-04T07:09:50.785Z</time>
      </trkpt>
      <trkpt lat="42.53061333" lon="1.55236667">
        <ele>1677.0</ele>
        <time>2019-08-04T07:09:51.780Z</time>
      </trkpt>
      <trkpt lat="42.53055" lon="1.552365">
        <ele>1678.0</ele>
        <time>2019-08-04T07:09:52.803Z</time>
      </trkpt>
      <trkpt lat="42.53055" lon="1.552365">
        <ele>1678.0</ele>
        <time>2019-08-04T07:09:53.782Z</time>
      </trkpt>
      <trkpt lat="42.53048833" lon="1.55235">
        <ele>1678.0</ele>
        <time>2019-08-04T07:09:54.784Z</time>
      </trkpt>
      <trkpt lat="42.53048833" lon="1.55235">
        <ele>1678.0</ele>
        <time>2019-08-04T07:09:55.785Z</time>
      </trkpt>
      <trkpt lat="42.53042833" lon="1.55234333">
        <ele>1678.0</ele>
        <time>2019-08-04T07:09:56.781Z</time>
      </trkpt>
      <trkpt lat="42.53039833" lon="1.55233">
        <ele>1678.0</ele>
        <time>2019-08-04T07:09:57.784Z</time>
      </trkpt>
      <trkpt lat="42.530365" lon="1.55232">
        <ele>1678.0</ele>
        <time>2019-08-04T07:09:58.783Z</time>
      </trkpt>
      <trkpt lat="42.530365" lon="1.55232">
        <ele>1678.0</ele>
        <time>2019-08-04T07:09:59.779Z</time>
      </trkpt>
      <trkpt lat="42.53028833" lon="1.55228833">
        <ele>1679.0</ele>
        <time>2019-08-04T07:10:00.781Z</time>
      </trkpt>
      <trkpt lat="42.530255" lon="1.55227">
        <ele>1680.0</ele>
        <time>2019-08-04T07:10:01.785Z</time>
      </trkpt>
      <trkpt lat="42.530255" lon="1.55227">
        <ele>1680.0</ele>
        <time>2019-08-04T07:10:02.801Z</time>
      </trkpt>
      <trkpt lat="42.530185" lon="1.55225">
        <ele>1682.0</ele>
        <time>2019-08-04T07:10:03.784Z</time>
      </trkpt>
      <trkpt lat="42.53016" lon="1.552225">
        <ele>1682.0</ele>
        <time>2019-08-04T07:10:04.785Z</time>
      </trkpt>
      <trkpt lat="42.53016" lon="1.552225">
        <ele>1682.0</ele>
        <time>2019-08-04T07:10:05.799Z</time>
      </trkpt>
      <trkpt lat="42.53010333" lon="1.55219167">
        <ele>1683.0</ele>
        <time>2019-08-04T07:10:06.781Z</time>
      </trkpt>
      <trkpt lat="42.53007167" lon="1.55218">
        <ele>1684.0</ele>
        <time>2019-08-04T07:10:07.787Z</time>
      </trkpt>
      <trkpt lat="42.530045" lon="1.55215333">
        <ele>1684.0</ele>
        <time>2019-08-04T07:10:08.794Z</time>
      </trkpt>
      <trkpt lat="42.530045" lon="1.55215333">
        <ele>1684.0</ele>
        <time>2019-08-04T07:10:09.781Z</time>
      </trkpt>
      <trkpt lat="42.52999333" lon="1.55209333">
        <ele>1685.0</ele>
        <time>2019-08-04T07:10:10.785Z</time>
      </trkpt>
      <trkpt lat="42.52999333" lon="1.55209333">
        <ele>1685.0</ele>
        <time>2019-08-04T07:10:11.788Z</time>
      </trkpt>
      <trkpt lat="42.52994333" lon="1.55202833">
        <ele>1685.0</ele>
        <time>2019-08-04T07:10:12.771Z</time>
      </trkpt>
      <trkpt lat="42.52994333" lon="1.55202833">
        <ele>1685.0</ele>
        <time>2019-08-04T07:10:13.794Z</time>
      </trkpt>
      <trkpt lat="42.5299" lon="1.55196333">
        <ele>1685.0</ele>
        <time>2019-08-04T07:10:14.783Z</time>
      </trkpt>
      <trkpt lat="42.5299" lon="1.55196333">
        <ele>1685.0</ele>
        <time>2019-08-04T07:10:15.779Z</time>
      </trkpt>
      <trkpt lat="42.52986333" lon="1.5519">
        <ele>1686.0</ele>
        <time>2019-08-04T07:10:16.799Z</time>
      </trkpt>
      <trkpt lat="42.52986333" lon="1.5519">
        <ele>1686.0</ele>
        <time>2019-08-04T07:10:17.788Z</time>
      </trkpt>
      <trkpt lat="42.52982333" lon="1.55183667">
        <ele>1687.0</ele>
        <time>2019-08-04T07:10:18.784Z</time>
      </trkpt>
      <trkpt lat="42.52982333" lon="1.55183667">
        <ele>1687.0</ele>
        <time>2019-08-04T07:10:19.779Z</time>
      </trkpt>
      <trkpt lat="42.52978833" lon="1.55177333">
        <ele>1687.0</ele>
        <time>2019-08-04T07:10:20.798Z</time>
      </trkpt>
      <trkpt lat="42.52978833" lon="1.55177333">
        <ele>1687.0</ele>
        <time>2019-08-04T07:10:21.779Z</time>
      </trkpt>
      <trkpt lat="42.52975" lon="1.55171">
        <ele>1688.0</ele>
        <time>2019-08-04T07:10:22.769Z</time>
      </trkpt>
      <trkpt lat="42.52975" lon="1.55171">
        <ele>1688.0</ele>
        <time>2019-08-04T07:10:23.790Z</time>
      </trkpt>
      <trkpt lat="42.52972" lon="1.55164667">
        <ele>1688.0</ele>
        <time>2019-08-04T07:10:24.784Z</time>
      </trkpt>
      <trkpt lat="42.52972" lon="1.55164667">
        <ele>1688.0</ele>
        <time>2019-08-04T07:10:25.782Z</time>
      </trkpt>
      <trkpt lat="42.52968833" lon="1.551585">
        <ele>1688.0</ele>
        <time>2019-08-04T07:10:26.801Z</time>
      </trkpt>
      <trkpt lat="42.52968833" lon="1.551585">
        <ele>1688.0</ele>
        <time>2019-08-04T07:10:27.782Z</time>
      </trkpt>
      <trkpt lat="42.52965833" lon="1.55151667">
        <ele>1688.0</ele>
        <time>2019-08-04T07:10:28.784Z</time>
      </trkpt>
      <trkpt lat="42.52965833" lon="1.55151667">
        <ele>1688.0</ele>
        <time>2019-08-04T07:10:29.779Z</time>
      </trkpt>
      <trkpt lat="42.52962" lon="1.55145333">
        <ele>1689.0</ele>
        <time>2019-08-04T07:10:30.802Z</time>
      </trkpt>
      <trkpt lat="42.52962" lon="1.55145333">
        <ele>1689.0</ele>
        <time>2019-08-04T07:10:31.781Z</time>
      </trkpt>
      <trkpt lat="42.52958" lon="1.55139833">
        <ele>1689.0</ele>
        <time>2019-08-04T07:10:32.774Z</time>
      </trkpt>
      <trkpt lat="42.52958" lon="1.55139833">
        <ele>1689.0</ele>
        <time>2019-08-04T07:10:33.779Z</time>
      </trkpt>
      <trkpt lat="42.52953667" lon="1.551355">
        <ele>1689.0</ele>
        <time>2019-08-04T07:10:34.799Z</time>
      </trkpt>
      <trkpt lat="42.52953667" lon="1.551355">
        <ele>1689.0</ele>
        <time>2019-08-04T07:10:35.779Z</time>
      </trkpt>
      <trkpt lat="42.52948667" lon="1.551315">
        <ele>1690.0</ele>
        <time>2019-08-04T07:10:36.798Z</time>
      </trkpt>
      <trkpt lat="42.52948667" lon="1.551315">
        <ele>1690.0</ele>
        <time>2019-08-04T07:10:37.781Z</time>
      </trkpt>
      <trkpt lat="42.52944" lon="1.55128">
        <ele>1690.0</ele>
        <time>2019-08-04T07:10:38.800Z</time>
      </trkpt>
      <trkpt lat="42.52944" lon="1.55128">
        <ele>1690.0</ele>
        <time>2019-08-04T07:10:39.782Z</time>
      </trkpt>
      <trkpt lat="42.52939167" lon="1.55125167">
        <ele>1690.0</ele>
        <time>2019-08-04T07:10:40.783Z</time>
      </trkpt>
      <trkpt lat="42.52939167" lon="1.55125167">
        <ele>1690.0</ele>
        <time>2019-08-04T07:10:41.780Z</time>
      </trkpt>
      <trkpt lat="42.52934333" lon="1.55122167">
        <ele>1690.0</ele>
        <time>2019-08-04T07:10:42.780Z</time>
      </trkpt>
      <trkpt lat="42.52934333" lon="1.55122167">
        <ele>1690.0</ele>
        <time>2019-08-04T07:10:43.800Z</time>
      </trkpt>
      <trkpt lat="42.52929667" lon="1.55119667">
        <ele>1691.0</ele>
        <time>2019-08-04T07:10:44.784Z</time>
      </trkpt>
      <trkpt lat="42.52929667" lon="1.55119667">
        <ele>1691.0</ele>
        <time>2019-08-04T07:10:45.781Z</time>
      </trkpt>
      <trkpt lat="42.52924833" lon="1.55117">
        <ele>1691.0</ele>
        <time>2019-08-04T07:10:46.785Z</time>
      </trkpt>
      <trkpt lat="42.52924833" lon="1.55117">
        <ele>1691.0</ele>
        <time>2019-08-04T07:10:47.787Z</time>
      </trkpt>
      <trkpt lat="42.52920333" lon="1.55114167">
        <ele>1691.0</ele>
        <time>2019-08-04T07:10:48.784Z</time>
      </trkpt>
      <trkpt lat="42.52917833" lon="1.55112833">
        <ele>1691.0</ele>
        <time>2019-08-04T07:10:49.784Z</time>
      </trkpt>
      <trkpt lat="42.529155" lon="1.55111">
        <ele>1691.0</ele>
        <time>2019-08-04T07:10:50.765Z</time>
      </trkpt>
      <trkpt lat="42.529155" lon="1.55111">
        <ele>1691.0</ele>
        <time>2019-08-04T07:10:51.784Z</time>
      </trkpt>
      <trkpt lat="42.52911" lon="1.55108">
        <ele>1691.0</ele>
        <time>2019-08-04T07:10:52.771Z</time>
      </trkpt>
      <trkpt lat="42.52911" lon="1.55108">
        <ele>1691.0</ele>
        <time>2019-08-04T07:10:53.801Z</time>
      </trkpt>
      <trkpt lat="42.529075" lon="1.55105333">
        <ele>1691.0</ele>
        <time>2019-08-04T07:10:54.781Z</time>
      </trkpt>
      <trkpt lat="42.529075" lon="1.55105333">
        <ele>1691.0</ele>
        <time>2019-08-04T07:10:55.802Z</time>
      </trkpt>
      <trkpt lat="42.52902833" lon="1.55102667">
        <ele>1692.0</ele>
        <time>2019-08-04T07:10:56.786Z</time>
      </trkpt>
      <trkpt lat="42.52902833" lon="1.55102667">
        <ele>1692.0</ele>
        <time>2019-08-04T07:10:57.780Z</time>
      </trkpt>
      <trkpt lat="42.52898333" lon="1.55101">
        <ele>1692.0</ele>
        <time>2019-08-04T07:10:58.799Z</time>
      </trkpt>
      <trkpt lat="42.52898333" lon="1.55101">
        <ele>1692.0</ele>
        <time>2019-08-04T07:10:59.779Z</time>
      </trkpt>
      <trkpt lat="42.52893167" lon="1.550995">
        <ele>1692.0</ele>
        <time>2019-08-04T07:11:00.798Z</time>
      </trkpt>
      <trkpt lat="42.52893167" lon="1.550995">
        <ele>1692.0</ele>
        <time>2019-08-04T07:11:01.780Z</time>
      </trkpt>
      <trkpt lat="42.52888" lon="1.55099667">
        <ele>1693.0</ele>
        <time>2019-08-04T07:11:02.765Z</time>
      </trkpt>
      <trkpt lat="42.52888" lon="1.55099667">
        <ele>1693.0</ele>
        <time>2019-08-04T07:11:03.781Z</time>
      </trkpt>
      <trkpt lat="42.52883167" lon="1.55099833">
        <ele>1693.0</ele>
        <time>2019-08-04T07:11:04.785Z</time>
      </trkpt>
      <trkpt lat="42.52883167" lon="1.55099833">
        <ele>1693.0</ele>
        <time>2019-08-04T07:11:05.789Z</time>
      </trkpt>
      <trkpt lat="42.52878167" lon="1.55100333">
        <ele>1694.0</ele>
        <time>2019-08-04T07:11:06.788Z</time>
      </trkpt>
      <trkpt lat="42.52878167" lon="1.55100333">
        <ele>1694.0</ele>
        <time>2019-08-04T07:11:07.779Z</time>
      </trkpt>
      <trkpt lat="42.52873" lon="1.55100167">
        <ele>1695.0</ele>
        <time>2019-08-04T07:11:08.799Z</time>
      </trkpt>
      <trkpt lat="42.52873" lon="1.55100167">
        <ele>1695.0</ele>
        <time>2019-08-04T07:11:09.780Z</time>
      </trkpt>
      <trkpt lat="42.52867667" lon="1.55101">
        <ele>1695.0</ele>
        <time>2019-08-04T07:11:10.784Z</time>
      </trkpt>
      <trkpt lat="42.52867667" lon="1.55101">
        <ele>1695.0</ele>
        <time>2019-08-04T07:11:11.780Z</time>
      </trkpt>
      <trkpt lat="42.52862167" lon="1.55100833">
        <ele>1696.0</ele>
        <time>2019-08-04T07:11:12.766Z</time>
      </trkpt>
      <trkpt lat="42.52862167" lon="1.55100833">
        <ele>1696.0</ele>
        <time>2019-08-04T07:11:13.792Z</time>
      </trkpt>
      <trkpt lat="42.52857" lon="1.551015">
        <ele>1696.0</ele>
        <time>2019-08-04T07:11:14.784Z</time>
      </trkpt>
      <trkpt lat="42.52857" lon="1.551015">
        <ele>1696.0</ele>
        <time>2019-08-04T07:11:15.779Z</time>
      </trkpt>
      <trkpt lat="42.52851333" lon="1.551025">
        <ele>1696.0</ele>
        <time>2019-08-04T07:11:16.798Z</time>
      </trkpt>
      <trkpt lat="42.52851333" lon="1.551025">
        <ele>1696.0</ele>
        <time>2019-08-04T07:11:17.787Z</time>
      </trkpt>
      <trkpt lat="42.52845333" lon="1.55103667">
        <ele>1697.0</ele>
        <time>2019-08-04T07:11:18.785Z</time>
      </trkpt>
      <trkpt lat="42.52842833" lon="1.55104667">
        <ele>1697.0</ele>
        <time>2019-08-04T07:11:19.781Z</time>
      </trkpt>
      <trkpt lat="42.528405" lon="1.55105833">
        <ele>1698.0</ele>
        <time>2019-08-04T07:11:20.805Z</time>
      </trkpt>
      <trkpt lat="42.528405" lon="1.55105833">
        <ele>1698.0</ele>
        <time>2019-08-04T07:11:21.783Z</time>
      </trkpt>
      <trkpt lat="42.52834" lon="1.55109167">
        <ele>1699.0</ele>
        <time>2019-08-04T07:11:22.772Z</time>
      </trkpt>
      <trkpt lat="42.52834" lon="1.55109167">
        <ele>1699.0</ele>
        <time>2019-08-04T07:11:23.801Z</time>
      </trkpt>
      <trkpt lat="42.528275" lon="1.55115">
        <ele>1701.0</ele>
        <time>2019-08-04T07:11:24.781Z</time>
      </trkpt>
      <trkpt lat="42.52824833" lon="1.55117667">
        <ele>1702.0</ele>
        <time>2019-08-04T07:11:25.791Z</time>
      </trkpt>
      <trkpt lat="42.52824833" lon="1.55117667">
        <ele>1702.0</ele>
        <time>2019-08-04T07:11:26.780Z</time>
      </trkpt>
      <trkpt lat="42.5282" lon="1.55123167">
        <ele>1703.0</ele>
        <time>2019-08-04T07:11:27.799Z</time>
      </trkpt>
      <trkpt lat="42.52818333" lon="1.55125667">
        <ele>1704.0</ele>
        <time>2019-08-04T07:11:28.785Z</time>
      </trkpt>
      <trkpt lat="42.52818333" lon="1.55125667">
        <ele>1704.0</ele>
        <time>2019-08-04T07:11:29.781Z</time>
      </trkpt>
      <trkpt lat="42.52815" lon="1.55131167">
        <ele>1705.0</ele>
        <time>2019-08-04T07:11:30.801Z</time>
      </trkpt>
      <trkpt lat="42.52815" lon="1.55131167">
        <ele>1705.0</ele>
        <time>2019-08-04T07:11:31.781Z</time>
      </trkpt>
      <trkpt lat="42.528115" lon="1.551375">
        <ele>1706.0</ele>
        <time>2019-08-04T07:11:32.770Z</time>
      </trkpt>
      <trkpt lat="42.528115" lon="1.551375">
        <ele>1706.0</ele>
        <time>2019-08-04T07:11:33.793Z</time>
      </trkpt>
      <trkpt lat="42.528075" lon="1.55143333">
        <ele>1707.0</ele>
        <time>2019-08-04T07:11:34.785Z</time>
      </trkpt>
      <trkpt lat="42.528075" lon="1.55143333">
        <ele>1707.0</ele>
        <time>2019-08-04T07:11:35.780Z</time>
      </trkpt>
      <trkpt lat="42.52804" lon="1.55149167">
        <ele>1708.0</ele>
        <time>2019-08-04T07:11:36.781Z</time>
      </trkpt>
      <trkpt lat="42.52804" lon="1.55149167">
        <ele>1708.0</ele>
        <time>2019-08-04T07:11:37.779Z</time>
      </trkpt>
      <trkpt lat="42.52800667" lon="1.55155667">
        <ele>1709.0</ele>
        <time>2019-08-04T07:11:38.798Z</time>
      </trkpt>
      <trkpt lat="42.52800667" lon="1.55155667">
        <ele>1709.0</ele>
        <time>2019-08-04T07:11:39.779Z</time>
      </trkpt>
      <trkpt lat="42.527975" lon="1.55161167">
        <ele>1709.0</ele>
        <time>2019-08-04T07:11:40.799Z</time>
      </trkpt>
      <trkpt lat="42.527975" lon="1.55161167">
        <ele>1709.0</ele>
        <time>2019-08-04T07:11:41.782Z</time>
      </trkpt>
      <trkpt lat="42.52792833" lon="1.55167167">
        <ele>1710.0</ele>
        <time>2019-08-04T07:11:42.804Z</time>
      </trkpt>
      <trkpt lat="42.52792833" lon="1.55167167">
        <ele>1710.0</ele>
        <time>2019-08-04T07:11:43.783Z</time>
      </trkpt>
      <trkpt lat="42.52789" lon="1.55170667">
        <ele>1711.0</ele>
        <time>2019-08-04T07:11:44.792Z</time>
      </trkpt>
      <trkpt lat="42.52789" lon="1.55170667">
        <ele>1711.0</ele>
        <time>2019-08-04T07:11:45.781Z</time>
      </trkpt>
      <trkpt lat="42.52785" lon="1.55176">
        <ele>1712.0</ele>
        <time>2019-08-04T07:11:46.800Z</time>
      </trkpt>
      <trkpt lat="42.52785" lon="1.55176">
        <ele>1712.0</ele>
        <time>2019-08-04T07:11:47.781Z</time>
      </trkpt>
      <trkpt lat="42.52779667" lon="1.551825">
        <ele>1713.0</ele>
        <time>2019-08-04T07:11:48.781Z</time>
      </trkpt>
      <trkpt lat="42.52779667" lon="1.551825">
        <ele>1713.0</ele>
        <time>2019-08-04T07:11:49.780Z</time>
      </trkpt>
      <trkpt lat="42.52774667" lon="1.551875">
        <ele>1715.0</ele>
        <time>2019-08-04T07:11:50.799Z</time>
      </trkpt>
      <trkpt lat="42.52774667" lon="1.551875">
        <ele>1715.0</ele>
        <time>2019-08-04T07:11:51.779Z</time>
      </trkpt>
      <trkpt lat="42.52768833" lon="1.55192667">
        <ele>1717.0</ele>
        <time>2019-08-04T07:11:52.771Z</time>
      </trkpt>
      <trkpt lat="42.52768833" lon="1.55192667">
        <ele>1717.0</ele>
        <time>2019-08-04T07:11:53.769Z</time>
      </trkpt>
      <trkpt lat="42.52763" lon="1.551965">
        <ele>1718.0</ele>
        <time>2019-08-04T07:11:54.794Z</time>
      </trkpt>
      <trkpt lat="42.52763" lon="1.551965">
        <ele>1718.0</ele>
        <time>2019-08-04T07:11:55.783Z</time>
      </trkpt>
      <trkpt lat="42.52757333" lon="1.55198333">
        <ele>1719.0</ele>
        <time>2019-08-04T07:11:56.786Z</time>
      </trkpt>
      <trkpt lat="42.52757333" lon="1.55198333">
        <ele>1719.0</ele>
        <time>2019-08-04T07:11:57.778Z</time>
      </trkpt>
      <trkpt lat="42.527515" lon="1.55196833">
        <ele>1720.0</ele>
        <time>2019-08-04T07:11:58.797Z</time>
      </trkpt>
      <trkpt lat="42.527515" lon="1.55196833">
        <ele>1720.0</ele>
        <time>2019-08-04T07:11:59.778Z</time>
      </trkpt>
      <trkpt lat="42.527465" lon="1.55191333">
        <ele>1720.0</ele>
        <time>2019-08-04T07:12:00.800Z</time>
      </trkpt>
      <trkpt lat="42.527465" lon="1.55191333">
        <ele>1720.0</ele>
        <time>2019-08-04T07:12:01.779Z</time>
      </trkpt>
      <trkpt lat="42.52744" lon="1.55182833">
        <ele>1720.0</ele>
        <time>2019-08-04T07:12:02.773Z</time>
      </trkpt>
      <trkpt lat="42.52744" lon="1.55182833">
        <ele>1720.0</ele>
        <time>2019-08-04T07:12:03.792Z</time>
      </trkpt>
      <trkpt lat="42.52743833" lon="1.55175">
        <ele>1721.0</ele>
        <time>2019-08-04T07:12:04.787Z</time>
      </trkpt>
      <trkpt lat="42.52743833" lon="1.55175">
        <ele>1721.0</ele>
        <time>2019-08-04T07:12:05.782Z</time>
      </trkpt>
      <trkpt lat="42.527455" lon="1.55168">
        <ele>1721.0</ele>
        <time>2019-08-04T07:12:06.770Z</time>
      </trkpt>
      <trkpt lat="42.52746667" lon="1.55165333">
        <ele>1722.0</ele>
        <time>2019-08-04T07:12:07.778Z</time>
      </trkpt>
      <trkpt lat="42.52746667" lon="1.55165333">
        <ele>1722.0</ele>
        <time>2019-08-04T07:12:08.784Z</time>
      </trkpt>
      <trkpt lat="42.52749667" lon="1.55161167">
        <ele>1722.0</ele>
        <time>2019-08-04T07:12:09.784Z</time>
      </trkpt>
      <trkpt lat="42.52751" lon="1.55159333">
        <ele>1723.0</ele>
        <time>2019-08-04T07:12:10.796Z</time>
      </trkpt>
      <trkpt lat="42.52751" lon="1.55159333">
        <ele>1723.0</ele>
        <time>2019-08-04T07:12:11.790Z</time>
      </trkpt>
      <trkpt lat="42.52753833" lon="1.55154833">
        <ele>1723.0</ele>
        <time>2019-08-04T07:12:12.766Z</time>
      </trkpt>
      <trkpt lat="42.52753833" lon="1.55154833">
        <ele>1723.0</ele>
        <time>2019-08-04T07:12:13.785Z</time>
      </trkpt>
      <trkpt lat="42.52756333" lon="1.55150333">
        <ele>1724.0</ele>
        <time>2019-08-04T07:12:14.785Z</time>
      </trkpt>
      <trkpt lat="42.52756333" lon="1.55150333">
        <ele>1724.0</ele>
        <time>2019-08-04T07:12:15.781Z</time>
      </trkpt>
      <trkpt lat="42.527595" lon="1.551455">
        <ele>1725.0</ele>
        <time>2019-08-04T07:12:16.786Z</time>
      </trkpt>
      <trkpt lat="42.527595" lon="1.551455">
        <ele>1725.0</ele>
        <time>2019-08-04T07:12:17.788Z</time>
      </trkpt>
      <trkpt lat="42.52761833" lon="1.55139333">
        <ele>1725.0</ele>
        <time>2019-08-04T07:12:18.786Z</time>
      </trkpt>
      <trkpt lat="42.52761833" lon="1.55139333">
        <ele>1725.0</ele>
        <time>2019-08-04T07:12:19.778Z</time>
      </trkpt>
      <trkpt lat="42.52764167" lon="1.55133">
        <ele>1726.0</ele>
        <time>2019-08-04T07:12:20.797Z</time>
      </trkpt>
      <trkpt lat="42.52764167" lon="1.55133">
        <ele>1726.0</ele>
        <time>2019-08-04T07:12:21.779Z</time>
      </trkpt>
      <trkpt lat="42.52766167" lon="1.55124833">
        <ele>1726.0</ele>
        <time>2019-08-04T07:12:22.765Z</time>
      </trkpt>
      <trkpt lat="42.52766167" lon="1.55124833">
        <ele>1726.0</ele>
        <time>2019-08-04T07:12:23.784Z</time>
      </trkpt>
      <trkpt lat="42.52767667" lon="1.55117333">
        <ele>1727.0</ele>
        <time>2019-08-04T07:12:24.784Z</time>
      </trkpt>
      <trkpt lat="42.52768333" lon="1.55113333">
        <ele>1727.0</ele>
        <time>2019-08-04T07:12:25.790Z</time>
      </trkpt>
      <trkpt lat="42.52768333" lon="1.55113333">
        <ele>1727.0</ele>
        <time>2019-08-04T07:12:26.781Z</time>
      </trkpt>
      <trkpt lat="42.52768667" lon="1.55105833">
        <ele>1727.0</ele>
        <time>2019-08-04T07:12:27.801Z</time>
      </trkpt>
      <trkpt lat="42.52768667" lon="1.55105833">
        <ele>1727.0</ele>
        <time>2019-08-04T07:12:28.781Z</time>
      </trkpt>
      <trkpt lat="42.52769" lon="1.55098833">
        <ele>1728.0</ele>
        <time>2019-08-04T07:12:29.769Z</time>
      </trkpt>
      <trkpt lat="42.52769" lon="1.55098833">
        <ele>1728.0</ele>
        <time>2019-08-04T07:12:30.791Z</time>
      </trkpt>
      <trkpt lat="42.527695" lon="1.55090833">
        <ele>1729.0</ele>
        <time>2019-08-04T07:12:31.784Z</time>
      </trkpt>
      <trkpt lat="42.52769667" lon="1.55087">
        <ele>1729.0</ele>
        <time>2019-08-04T07:12:32.770Z</time>
      </trkpt>
      <trkpt lat="42.52769667" lon="1.55087">
        <ele>1729.0</ele>
        <time>2019-08-04T07:12:33.780Z</time>
      </trkpt>
      <trkpt lat="42.52769833" lon="1.5508">
        <ele>1730.0</ele>
        <time>2019-08-04T07:12:34.801Z</time>
      </trkpt>
      <trkpt lat="42.52769833" lon="1.5508">
        <ele>1730.0</ele>
        <time>2019-08-04T07:12:35.782Z</time>
      </trkpt>
      <trkpt lat="42.5277" lon="1.550725">
        <ele>1730.0</ele>
        <time>2019-08-04T07:12:36.784Z</time>
      </trkpt>
      <trkpt lat="42.5277" lon="1.550725">
        <ele>1730.0</ele>
        <time>2019-08-04T07:12:37.779Z</time>
      </trkpt>
      <trkpt lat="42.527705" lon="1.55065833">
        <ele>1731.0</ele>
        <time>2019-08-04T07:12:38.798Z</time>
      </trkpt>
      <trkpt lat="42.527705" lon="1.55065833">
        <ele>1731.0</ele>
        <time>2019-08-04T07:12:39.779Z</time>
      </trkpt>
      <trkpt lat="42.52772167" lon="1.550585">
        <ele>1731.0</ele>
        <time>2019-08-04T07:12:40.799Z</time>
      </trkpt>
      <trkpt lat="42.52772167" lon="1.550585">
        <ele>1731.0</ele>
        <time>2019-08-04T07:12:41.779Z</time>
      </trkpt>
      <trkpt lat="42.527745" lon="1.55051833">
        <ele>1731.0</ele>
        <time>2019-08-04T07:12:42.772Z</time>
      </trkpt>
      <trkpt lat="42.527745" lon="1.55051833">
        <ele>1731.0</ele>
        <time>2019-08-04T07:12:43.795Z</time>
      </trkpt>
      <trkpt lat="42.52777333" lon="1.55045833">
        <ele>1731.0</ele>
        <time>2019-08-04T07:12:44.786Z</time>
      </trkpt>
      <trkpt lat="42.52777333" lon="1.55045833">
        <ele>1731.0</ele>
        <time>2019-08-04T07:12:45.779Z</time>
      </trkpt>
      <trkpt lat="42.527805" lon="1.55041333">
        <ele>1731.0</ele>
        <time>2019-08-04T07:12:46.798Z</time>
      </trkpt>
      <trkpt lat="42.527805" lon="1.55041333">
        <ele>1731.0</ele>
        <time>2019-08-04T07:12:47.790Z</time>
      </trkpt>
      <trkpt lat="42.52785" lon="1.55036667">
        <ele>1732.0</ele>
        <time>2019-08-04T07:12:48.784Z</time>
      </trkpt>
      <trkpt lat="42.52785" lon="1.55036667">
        <ele>1732.0</ele>
        <time>2019-08-04T07:12:49.779Z</time>
      </trkpt>
      <trkpt lat="42.52790167" lon="1.55031833">
        <ele>1732.0</ele>
        <time>2019-08-04T07:12:50.798Z</time>
      </trkpt>
      <trkpt lat="42.52790167" lon="1.55031833">
        <ele>1732.0</ele>
        <time>2019-08-04T07:12:51.780Z</time>
      </trkpt>
      <trkpt lat="42.52795167" lon="1.55026667">
        <ele>1733.0</ele>
        <time>2019-08-04T07:12:52.769Z</time>
      </trkpt>
      <trkpt lat="42.52797833" lon="1.55023833">
        <ele>1733.0</ele>
        <time>2019-08-04T07:12:53.767Z</time>
      </trkpt>
      <trkpt lat="42.52797833" lon="1.55023833">
        <ele>1733.0</ele>
        <time>2019-08-04T07:12:54.786Z</time>
      </trkpt>
      <trkpt lat="42.52802667" lon="1.55019167">
        <ele>1734.0</ele>
        <time>2019-08-04T07:12:55.789Z</time>
      </trkpt>
      <trkpt lat="42.52802667" lon="1.55019167">
        <ele>1734.0</ele>
        <time>2019-08-04T07:12:56.781Z</time>
      </trkpt>
      <trkpt lat="42.528075" lon="1.55014167">
        <ele>1735.0</ele>
        <time>2019-08-04T07:12:57.800Z</time>
      </trkpt>
      <trkpt lat="42.52809833" lon="1.55011833">
        <ele>1735.0</ele>
        <time>2019-08-04T07:12:58.786Z</time>
      </trkpt>
      <trkpt lat="42.52809833" lon="1.55011833">
        <ele>1735.0</ele>
        <time>2019-08-04T07:12:59.779Z</time>
      </trkpt>
      <trkpt lat="42.52814" lon="1.55007667">
        <ele>1736.0</ele>
        <time>2019-08-04T07:13:00.798Z</time>
      </trkpt>
      <trkpt lat="42.52814" lon="1.55007667">
        <ele>1736.0</ele>
        <time>2019-08-04T07:13:01.790Z</time>
      </trkpt>
      <trkpt lat="42.52818333" lon="1.55003333">
        <ele>1736.0</ele>
        <time>2019-08-04T07:13:02.773Z</time>
      </trkpt>
      <trkpt lat="42.52818333" lon="1.55003333">
        <ele>1736.0</ele>
        <time>2019-08-04T07:13:03.794Z</time>
      </trkpt>
      <trkpt lat="42.52823167" lon="1.54999167">
        <ele>1737.0</ele>
        <time>2019-08-04T07:13:04.784Z</time>
      </trkpt>
      <trkpt lat="42.52823167" lon="1.54999167">
        <ele>1737.0</ele>
        <time>2019-08-04T07:13:05.781Z</time>
      </trkpt>
      <trkpt lat="42.528285" lon="1.54996">
        <ele>1737.0</ele>
        <time>2019-08-04T07:13:06.798Z</time>
      </trkpt>
      <trkpt lat="42.52831" lon="1.549945">
        <ele>1738.0</ele>
        <time>2019-08-04T07:13:07.804Z</time>
      </trkpt>
      <trkpt lat="42.52831" lon="1.549945">
        <ele>1738.0</ele>
        <time>2019-08-04T07:13:08.774Z</time>
      </trkpt>
      <trkpt lat="42.52836" lon="1.54991167">
        <ele>1738.0</ele>
        <time>2019-08-04T07:13:09.780Z</time>
      </trkpt>
      <trkpt lat="42.528385" lon="1.549895">
        <ele>1738.0</ele>
        <time>2019-08-04T07:13:10.801Z</time>
      </trkpt>
      <trkpt lat="42.528385" lon="1.549895">
        <ele>1738.0</ele>
        <time>2019-08-04T07:13:11.790Z</time>
      </trkpt>
      <trkpt lat="42.52843333" lon="1.54986833">
        <ele>1739.0</ele>
        <time>2019-08-04T07:13:12.772Z</time>
      </trkpt>
      <trkpt lat="42.52843333" lon="1.54986833">
        <ele>1739.0</ele>
        <time>2019-08-04T07:13:13.795Z</time>
      </trkpt>
      <trkpt lat="42.52849167" lon="1.54985167">
        <ele>1739.0</ele>
        <time>2019-08-04T07:13:14.795Z</time>
      </trkpt>
      <trkpt lat="42.52849167" lon="1.54985167">
        <ele>1739.0</ele>
        <time>2019-08-04T07:13:15.780Z</time>
      </trkpt>
      <trkpt lat="42.52855" lon="1.54984333">
        <ele>1740.0</ele>
        <time>2019-08-04T07:13:16.799Z</time>
      </trkpt>
      <trkpt lat="42.52855" lon="1.54984333">
        <ele>1740.0</ele>
        <time>2019-08-04T07:13:17.790Z</time>
      </trkpt>
      <trkpt lat="42.528605" lon="1.549825">
        <ele>1741.0</ele>
        <time>2019-08-04T07:13:18.785Z</time>
      </trkpt>
      <trkpt lat="42.528605" lon="1.549825">
        <ele>1741.0</ele>
        <time>2019-08-04T07:13:19.780Z</time>
      </trkpt>
      <trkpt lat="42.52866" lon="1.54980667">
        <ele>1741.0</ele>
        <time>2019-08-04T07:13:20.799Z</time>
      </trkpt>
      <trkpt lat="42.52866" lon="1.54980667">
        <ele>1741.0</ele>
        <time>2019-08-04T07:13:21.779Z</time>
      </trkpt>
      <trkpt lat="42.528715" lon="1.549785">
        <ele>1742.0</ele>
        <time>2019-08-04T07:13:22.767Z</time>
      </trkpt>
      <trkpt lat="42.52874" lon="1.549775">
        <ele>1743.0</ele>
        <time>2019-08-04T07:13:23.787Z</time>
      </trkpt>
      <trkpt lat="42.52874" lon="1.549775">
        <ele>1743.0</ele>
        <time>2019-08-04T07:13:24.781Z</time>
      </trkpt>
      <trkpt lat="42.52878667" lon="1.54975167">
        <ele>1744.0</ele>
        <time>2019-08-04T07:13:25.801Z</time>
      </trkpt>
      <trkpt lat="42.52878667" lon="1.54975167">
        <ele>1744.0</ele>
        <time>2019-08-04T07:13:26.784Z</time>
      </trkpt>
      <trkpt lat="42.52883333" lon="1.54972167">
        <ele>1744.0</ele>
        <time>2019-08-04T07:13:27.785Z</time>
      </trkpt>
      <trkpt lat="42.52885333" lon="1.54970833">
        <ele>1745.0</ele>
        <time>2019-08-04T07:13:28.787Z</time>
      </trkpt>
      <trkpt lat="42.52885333" lon="1.54970833">
        <ele>1745.0</ele>
        <time>2019-08-04T07:13:29.780Z</time>
      </trkpt>
      <trkpt lat="42.52889333" lon="1.54968333">
        <ele>1746.0</ele>
        <time>2019-08-04T07:13:30.801Z</time>
      </trkpt>
      <trkpt lat="42.52889333" lon="1.54968333">
        <ele>1746.0</ele>
        <time>2019-08-04T07:13:31.781Z</time>
      </trkpt>
      <trkpt lat="42.52893667" lon="1.54966333">
        <ele>1746.0</ele>
        <time>2019-08-04T07:13:32.775Z</time>
      </trkpt>
      <trkpt lat="42.52893667" lon="1.54966333">
        <ele>1746.0</ele>
        <time>2019-08-04T07:13:33.782Z</time>
      </trkpt>
      <trkpt lat="42.52899333" lon="1.54964667">
        <ele>1747.0</ele>
        <time>2019-08-04T07:13:34.778Z</time>
      </trkpt>
      <trkpt lat="42.52902" lon="1.54964">
        <ele>1748.0</ele>
        <time>2019-08-04T07:13:35.797Z</time>
      </trkpt>
      <trkpt lat="42.52902" lon="1.54964">
        <ele>1748.0</ele>
        <time>2019-08-04T07:13:36.780Z</time>
      </trkpt>
      <trkpt lat="42.52907667" lon="1.54962667">
        <ele>1749.0</ele>
        <time>2019-08-04T07:13:37.800Z</time>
      </trkpt>
      <trkpt lat="42.52910333" lon="1.549625">
        <ele>1749.0</ele>
        <time>2019-08-04T07:13:38.784Z</time>
      </trkpt>
      <trkpt lat="42.52910333" lon="1.549625">
        <ele>1749.0</ele>
        <time>2019-08-04T07:13:39.781Z</time>
      </trkpt>
      <trkpt lat="42.529155" lon="1.54962333">
        <ele>1750.0</ele>
        <time>2019-08-04T07:13:40.801Z</time>
      </trkpt>
      <trkpt lat="42.529155" lon="1.54962333">
        <ele>1750.0</ele>
        <time>2019-08-04T07:13:41.781Z</time>
      </trkpt>
      <trkpt lat="42.52920333" lon="1.54963">
        <ele>1751.0</ele>
        <time>2019-08-04T07:13:42.786Z</time>
      </trkpt>
      <trkpt lat="42.52920333" lon="1.54963">
        <ele>1751.0</ele>
        <time>2019-08-04T07:13:43.779Z</time>
      </trkpt>
      <trkpt lat="42.52925333" lon="1.54963">
        <ele>1753.0</ele>
        <time>2019-08-04T07:13:44.801Z</time>
      </trkpt>
      <trkpt lat="42.52928" lon="1.54962833">
        <ele>1753.0</ele>
        <time>2019-08-04T07:13:45.786Z</time>
      </trkpt>
      <trkpt lat="42.52930667" lon="1.54962833">
        <ele>1754.0</ele>
        <time>2019-08-04T07:13:46.786Z</time>
      </trkpt>
      <trkpt lat="42.52930667" lon="1.54962833">
        <ele>1754.0</ele>
        <time>2019-08-04T07:13:47.781Z</time>
      </trkpt>
      <trkpt lat="42.52936" lon="1.54963833">
        <ele>1754.0</ele>
        <time>2019-08-04T07:13:48.786Z</time>
      </trkpt>
      <trkpt lat="42.52936" lon="1.54963833">
        <ele>1754.0</ele>
        <time>2019-08-04T07:13:49.781Z</time>
      </trkpt>
      <trkpt lat="42.52940833" lon="1.54964167">
        <ele>1755.0</ele>
        <time>2019-08-04T07:13:50.800Z</time>
      </trkpt>
      <trkpt lat="42.52940833" lon="1.54964167">
        <ele>1755.0</ele>
        <time>2019-08-04T07:13:51.780Z</time>
      </trkpt>
      <trkpt lat="42.529455" lon="1.54964667">
        <ele>1756.0</ele>
        <time>2019-08-04T07:13:52.772Z</time>
      </trkpt>
      <trkpt lat="42.52948167" lon="1.54965">
        <ele>1757.0</ele>
        <time>2019-08-04T07:13:53.767Z</time>
      </trkpt>
      <trkpt lat="42.52948167" lon="1.54965">
        <ele>1757.0</ele>
        <time>2019-08-04T07:13:54.786Z</time>
      </trkpt>
      <trkpt lat="42.52953333" lon="1.549665">
        <ele>1758.0</ele>
        <time>2019-08-04T07:13:55.788Z</time>
      </trkpt>
      <trkpt lat="42.52955667" lon="1.549675">
        <ele>1759.0</ele>
        <time>2019-08-04T07:13:56.786Z</time>
      </trkpt>
      <trkpt lat="42.52955667" lon="1.549675">
        <ele>1759.0</ele>
        <time>2019-08-04T07:13:57.780Z</time>
      </trkpt>
      <trkpt lat="42.52960833" lon="1.5497">
        <ele>1761.0</ele>
        <time>2019-08-04T07:13:58.799Z</time>
      </trkpt>
      <trkpt lat="42.52960833" lon="1.5497">
        <ele>1761.0</ele>
        <time>2019-08-04T07:13:59.781Z</time>
      </trkpt>
      <trkpt lat="42.52966333" lon="1.54973333">
        <ele>1760.0</ele>
        <time>2019-08-04T07:14:00.798Z</time>
      </trkpt>
      <trkpt lat="42.52966333" lon="1.54973333">
        <ele>1760.0</ele>
        <time>2019-08-04T07:14:01.780Z</time>
      </trkpt>
      <trkpt lat="42.52971" lon="1.54978">
        <ele>1761.0</ele>
        <time>2019-08-04T07:14:02.765Z</time>
      </trkpt>
      <trkpt lat="42.52971" lon="1.54978">
        <ele>1761.0</ele>
        <time>2019-08-04T07:14:03.785Z</time>
      </trkpt>
      <trkpt lat="42.52974833" lon="1.54983">
        <ele>1762.0</ele>
        <time>2019-08-04T07:14:04.786Z</time>
      </trkpt>
      <trkpt lat="42.52974833" lon="1.54983">
        <ele>1762.0</ele>
        <time>2019-08-04T07:14:05.790Z</time>
      </trkpt>
      <trkpt lat="42.52979" lon="1.54987667">
        <ele>1762.0</ele>
        <time>2019-08-04T07:14:06.783Z</time>
      </trkpt>
      <trkpt lat="42.52979" lon="1.54987667">
        <ele>1762.0</ele>
        <time>2019-08-04T07:14:07.781Z</time>
      </trkpt>
      <trkpt lat="42.529835" lon="1.54992667">
        <ele>1763.0</ele>
        <time>2019-08-04T07:14:08.800Z</time>
      </trkpt>
      <trkpt lat="42.529835" lon="1.54992667">
        <ele>1763.0</ele>
        <time>2019-08-04T07:14:09.780Z</time>
      </trkpt>
      <trkpt lat="42.529875" lon="1.54997833">
        <ele>1763.0</ele>
        <time>2019-08-04T07:14:10.803Z</time>
      </trkpt>
      <trkpt lat="42.529875" lon="1.54997833">
        <ele>1763.0</ele>
        <time>2019-08-04T07:14:11.783Z</time>
      </trkpt>
      <trkpt lat="42.52991833" lon="1.55002">
        <ele>1763.0</ele>
        <time>2019-08-04T07:14:12.772Z</time>
      </trkpt>
      <trkpt lat="42.52991833" lon="1.55002">
        <ele>1763.0</ele>
        <time>2019-08-04T07:14:13.795Z</time>
      </trkpt>
      <trkpt lat="42.52996667" lon="1.55005833">
        <ele>1764.0</ele>
        <time>2019-08-04T07:14:14.786Z</time>
      </trkpt>
      <trkpt lat="42.52996667" lon="1.55005833">
        <ele>1764.0</ele>
        <time>2019-08-04T07:14:15.780Z</time>
      </trkpt>
      <trkpt lat="42.53001833" lon="1.550105">
        <ele>1764.0</ele>
        <time>2019-08-04T07:14:16.800Z</time>
      </trkpt>
      <trkpt lat="42.53001833" lon="1.550105">
        <ele>1764.0</ele>
        <time>2019-08-04T07:14:17.790Z</time>
      </trkpt>
      <trkpt lat="42.53007" lon="1.55015333">
        <ele>1764.0</ele>
        <time>2019-08-04T07:14:18.786Z</time>
      </trkpt>
      <trkpt lat="42.53007" lon="1.55015333">
        <ele>1764.0</ele>
        <time>2019-08-04T07:14:19.780Z</time>
      </trkpt>
      <trkpt lat="42.530115" lon="1.55020333">
        <ele>1765.0</ele>
        <time>2019-08-04T07:14:20.800Z</time>
      </trkpt>
      <trkpt lat="42.530115" lon="1.55020333">
        <ele>1765.0</ele>
        <time>2019-08-04T07:14:21.781Z</time>
      </trkpt>
      <trkpt lat="42.53016167" lon="1.55025333">
        <ele>1766.0</ele>
        <time>2019-08-04T07:14:22.766Z</time>
      </trkpt>
      <trkpt lat="42.53016167" lon="1.55025333">
        <ele>1766.0</ele>
        <time>2019-08-04T07:14:23.785Z</time>
      </trkpt>
      <trkpt lat="42.53020167" lon="1.55031">
        <ele>1767.0</ele>
        <time>2019-08-04T07:14:24.786Z</time>
      </trkpt>
      <trkpt lat="42.530225" lon="1.55034333">
        <ele>1767.0</ele>
        <time>2019-08-04T07:14:25.787Z</time>
      </trkpt>
      <trkpt lat="42.530225" lon="1.55034333">
        <ele>1767.0</ele>
        <time>2019-08-04T07:14:26.782Z</time>
      </trkpt>
      <trkpt lat="42.53027167" lon="1.55039833">
        <ele>1768.0</ele>
        <time>2019-08-04T07:14:27.801Z</time>
      </trkpt>
      <trkpt lat="42.53029833" lon="1.55041833">
        <ele>1768.0</ele>
        <time>2019-08-04T07:14:28.786Z</time>
      </trkpt>
      <trkpt lat="42.53029833" lon="1.55041833">
        <ele>1768.0</ele>
        <time>2019-08-04T07:14:29.781Z</time>
      </trkpt>
      <trkpt lat="42.53034833" lon="1.550445">
        <ele>1769.0</ele>
        <time>2019-08-04T07:14:30.801Z</time>
      </trkpt>
      <trkpt lat="42.53034833" lon="1.550445">
        <ele>1769.0</ele>
        <time>2019-08-04T07:14:31.780Z</time>
      </trkpt>
      <trkpt lat="42.53039333" lon="1.55046">
        <ele>1770.0</ele>
        <time>2019-08-04T07:14:32.770Z</time>
      </trkpt>
      <trkpt lat="42.53039333" lon="1.55046">
        <ele>1770.0</ele>
        <time>2019-08-04T07:14:33.799Z</time>
      </trkpt>
      <trkpt lat="42.53044333" lon="1.55042167">
        <ele>1771.0</ele>
        <time>2019-08-04T07:14:34.786Z</time>
      </trkpt>
      <trkpt lat="42.53044333" lon="1.55042167">
        <ele>1771.0</ele>
        <time>2019-08-04T07:14:35.782Z</time>
      </trkpt>
      <trkpt lat="42.53047333" lon="1.55036667">
        <ele>1771.0</ele>
        <time>2019-08-04T07:14:36.786Z</time>
      </trkpt>
      <trkpt lat="42.530485" lon="1.55033333">
        <ele>1772.0</ele>
        <time>2019-08-04T07:14:37.787Z</time>
      </trkpt>
      <trkpt lat="42.53049167" lon="1.55029167">
        <ele>1772.0</ele>
        <time>2019-08-04T07:14:38.787Z</time>
      </trkpt>
      <trkpt lat="42.53049167" lon="1.55029167">
        <ele>1772.0</ele>
        <time>2019-08-04T07:14:39.782Z</time>
      </trkpt>
      <trkpt lat="42.53048167" lon="1.55021833">
        <ele>1772.0</ele>
        <time>2019-08-04T07:14:40.787Z</time>
      </trkpt>
      <trkpt lat="42.53048167" lon="1.55021833">
        <ele>1772.0</ele>
        <time>2019-08-04T07:14:41.782Z</time>
      </trkpt>
      <trkpt lat="42.53045833" lon="1.55015333">
        <ele>1773.0</ele>
        <time>2019-08-04T07:14:42.803Z</time>
      </trkpt>
      <trkpt lat="42.53045833" lon="1.55015333">
        <ele>1773.0</ele>
        <time>2019-08-04T07:14:43.783Z</time>
      </trkpt>
      <trkpt lat="42.530425" lon="1.55009833">
        <ele>1774.0</ele>
        <time>2019-08-04T07:14:44.786Z</time>
      </trkpt>
      <trkpt lat="42.530425" lon="1.55009833">
        <ele>1774.0</ele>
        <time>2019-08-04T07:14:45.765Z</time>
      </trkpt>
      <trkpt lat="42.53037833" lon="1.55006333">
        <ele>1774.0</ele>
        <time>2019-08-04T07:14:46.786Z</time>
      </trkpt>
      <trkpt lat="42.53037833" lon="1.55006333">
        <ele>1774.0</ele>
        <time>2019-08-04T07:14:47.788Z</time>
      </trkpt>
      <trkpt lat="42.53032167" lon="1.55004">
        <ele>1774.0</ele>
        <time>2019-08-04T07:14:48.783Z</time>
      </trkpt>
      <trkpt lat="42.53032167" lon="1.55004">
        <ele>1774.0</ele>
        <time>2019-08-04T07:14:49.780Z</time>
      </trkpt>
      <trkpt lat="42.53026333" lon="1.55002">
        <ele>1772.0</ele>
        <time>2019-08-04T07:14:50.800Z</time>
      </trkpt>
      <trkpt lat="42.53026333" lon="1.55002">
        <ele>1772.0</ele>
        <time>2019-08-04T07:14:51.781Z</time>
      </trkpt>
      <trkpt lat="42.53021" lon="1.54998167">
        <ele>1772.0</ele>
        <time>2019-08-04T07:14:52.767Z</time>
      </trkpt>
      <trkpt lat="42.53018333" lon="1.54996167">
        <ele>1773.0</ele>
        <time>2019-08-04T07:14:53.787Z</time>
      </trkpt>
      <trkpt lat="42.53018333" lon="1.54996167">
        <ele>1773.0</ele>
        <time>2019-08-04T07:14:54.780Z</time>
      </trkpt>
      <trkpt lat="42.530135" lon="1.54991167">
        <ele>1773.0</ele>
        <time>2019-08-04T07:14:55.799Z</time>
      </trkpt>
      <trkpt lat="42.53011167" lon="1.54988333">
        <ele>1773.0</ele>
        <time>2019-08-04T07:14:56.786Z</time>
      </trkpt>
      <trkpt lat="42.53011167" lon="1.54988333">
        <ele>1773.0</ele>
        <time>2019-08-04T07:14:57.780Z</time>
      </trkpt>
      <trkpt lat="42.53007167" lon="1.54982833">
        <ele>1772.0</ele>
        <time>2019-08-04T07:14:58.799Z</time>
      </trkpt>
      <trkpt lat="42.53007167" lon="1.54982833">
        <ele>1772.0</ele>
        <time>2019-08-04T07:14:59.781Z</time>
      </trkpt>
      <trkpt lat="42.530035" lon="1.54976833">
        <ele>1772.0</ele>
        <time>2019-08-04T07:15:00.800Z</time>
      </trkpt>
      <trkpt lat="42.530035" lon="1.54976833">
        <ele>1772.0</ele>
        <time>2019-08-04T07:15:01.799Z</time>
      </trkpt>
      <trkpt lat="42.53" lon="1.54971333">
        <ele>1772.0</ele>
        <time>2019-08-04T07:15:02.775Z</time>
      </trkpt>
      <trkpt lat="42.53" lon="1.54971333">
        <ele>1772.0</ele>
        <time>2019-08-04T07:15:03.795Z</time>
      </trkpt>
      <trkpt lat="42.52996667" lon="1.54965333">
        <ele>1772.0</ele>
        <time>2019-08-04T07:15:04.786Z</time>
      </trkpt>
      <trkpt lat="42.52996667" lon="1.54965333">
        <ele>1772.0</ele>
        <time>2019-08-04T07:15:05.798Z</time>
      </trkpt>
      <trkpt lat="42.52993667" lon="1.549595">
        <ele>1771.0</ele>
        <time>2019-08-04T07:15:06.795Z</time>
      </trkpt>
      <trkpt lat="42.52993667" lon="1.549595">
        <ele>1771.0</ele>
        <time>2019-08-04T07:15:07.801Z</time>
      </trkpt>
      <trkpt lat="42.529905" lon="1.54953">
        <ele>1771.0</ele>
        <time>2019-08-04T07:15:08.769Z</time>
      </trkpt>
      <trkpt lat="42.52988833" lon="1.54949667">
        <ele>1771.0</ele>
        <time>2019-08-04T07:15:09.795Z</time>
      </trkpt>
      <trkpt lat="42.52987167" lon="1.549465">
        <ele>1771.0</ele>
        <time>2019-08-04T07:15:10.787Z</time>
      </trkpt>
      <trkpt lat="42.52987167" lon="1.549465">
        <ele>1771.0</ele>
        <time>2019-08-04T07:15:11.791Z</time>
      </trkpt>
      <trkpt lat="42.52983667" lon="1.549405">
        <ele>1771.0</ele>
        <time>2019-08-04T07:15:12.775Z</time>
      </trkpt>
      <trkpt lat="42.52983667" lon="1.549405">
        <ele>1771.0</ele>
        <time>2019-08-04T07:15:13.795Z</time>
      </trkpt>
      <trkpt lat="42.52980333" lon="1.549345">
        <ele>1770.0</ele>
        <time>2019-08-04T07:15:14.788Z</time>
      </trkpt>
      <trkpt lat="42.52980333" lon="1.549345">
        <ele>1770.0</ele>
        <time>2019-08-04T07:15:15.781Z</time>
      </trkpt>
      <trkpt lat="42.529775" lon="1.54928333">
        <ele>1770.0</ele>
        <time>2019-08-04T07:15:16.800Z</time>
      </trkpt>
      <trkpt lat="42.529775" lon="1.54928333">
        <ele>1770.0</ele>
        <time>2019-08-04T07:15:17.790Z</time>
      </trkpt>
      <trkpt lat="42.52974333" lon="1.54922">
        <ele>1770.0</ele>
        <time>2019-08-04T07:15:18.786Z</time>
      </trkpt>
      <trkpt lat="42.529725" lon="1.54919167">
        <ele>1769.0</ele>
        <time>2019-08-04T07:15:19.790Z</time>
      </trkpt>
      <trkpt lat="42.529725" lon="1.54919167">
        <ele>1769.0</ele>
        <time>2019-08-04T07:15:20.784Z</time>
      </trkpt>
      <trkpt lat="42.52968667" lon="1.54914">
        <ele>1769.0</ele>
        <time>2019-08-04T07:15:21.786Z</time>
      </trkpt>
      <trkpt lat="42.52968667" lon="1.54914">
        <ele>1769.0</ele>
        <time>2019-08-04T07:15:22.796Z</time>
      </trkpt>
      <trkpt lat="42.52965333" lon="1.54907667">
        <ele>1769.0</ele>
        <time>2019-08-04T07:15:23.787Z</time>
      </trkpt>
      <trkpt lat="42.52965333" lon="1.54907667">
        <ele>1769.0</ele>
        <time>2019-08-04T07:15:24.781Z</time>
      </trkpt>
      <trkpt lat="42.52962" lon="1.54903">
        <ele>1768.0</ele>
        <time>2019-08-04T07:15:25.781Z</time>
      </trkpt>
      <trkpt lat="42.52960333" lon="1.54900667">
        <ele>1768.0</ele>
        <time>2019-08-04T07:15:26.800Z</time>
      </trkpt>
      <trkpt lat="42.52960333" lon="1.54900667">
        <ele>1768.0</ele>
        <time>2019-08-04T07:15:27.781Z</time>
      </trkpt>
      <trkpt lat="42.529565" lon="1.54896667">
        <ele>1768.0</ele>
        <time>2019-08-04T07:15:28.801Z</time>
      </trkpt>
      <trkpt lat="42.529565" lon="1.54896667">
        <ele>1768.0</ele>
        <time>2019-08-04T07:15:29.781Z</time>
      </trkpt>
      <trkpt lat="42.52952167" lon="1.54893">
        <ele>1768.0</ele>
        <time>2019-08-04T07:15:30.786Z</time>
      </trkpt>
      <trkpt lat="42.52952167" lon="1.54893">
        <ele>1768.0</ele>
        <time>2019-08-04T07:15:31.781Z</time>
      </trkpt>
      <trkpt lat="42.529485" lon="1.54889333">
        <ele>1767.0</ele>
        <time>2019-08-04T07:15:32.773Z</time>
      </trkpt>
      <trkpt lat="42.529485" lon="1.54889333">
        <ele>1767.0</ele>
        <time>2019-08-04T07:15:33.785Z</time>
      </trkpt>
      <trkpt lat="42.52945" lon="1.54885667">
        <ele>1767.0</ele>
        <time>2019-08-04T07:15:34.784Z</time>
      </trkpt>
      <trkpt lat="42.52945" lon="1.54885667">
        <ele>1767.0</ele>
        <time>2019-08-04T07:15:35.790Z</time>
      </trkpt>
      <trkpt lat="42.52941" lon="1.54882167">
        <ele>1767.0</ele>
        <time>2019-08-04T07:15:36.786Z</time>
      </trkpt>
      <trkpt lat="42.52941" lon="1.54882167">
        <ele>1767.0</ele>
        <time>2019-08-04T07:15:37.781Z</time>
      </trkpt>
      <trkpt lat="42.52936833" lon="1.548795">
        <ele>1766.0</ele>
        <time>2019-08-04T07:15:38.801Z</time>
      </trkpt>
      <trkpt lat="42.52936833" lon="1.548795">
        <ele>1766.0</ele>
        <time>2019-08-04T07:15:39.781Z</time>
      </trkpt>
      <trkpt lat="42.52932833" lon="1.54876">
        <ele>1766.0</ele>
        <time>2019-08-04T07:15:40.804Z</time>
      </trkpt>
      <trkpt lat="42.52932833" lon="1.54876">
        <ele>1766.0</ele>
        <time>2019-08-04T07:15:41.785Z</time>
      </trkpt>
      <trkpt lat="42.52928167" lon="1.54873333">
        <ele>1766.0</ele>
        <time>2019-08-04T07:15:42.774Z</time>
      </trkpt>
      <trkpt lat="42.52928167" lon="1.54873333">
        <ele>1766.0</ele>
        <time>2019-08-04T07:15:43.794Z</time>
      </trkpt>
      <trkpt lat="42.529225" lon="1.548705">
        <ele>1765.0</ele>
        <time>2019-08-04T07:15:44.784Z</time>
      </trkpt>
      <trkpt lat="42.529225" lon="1.548705">
        <ele>1765.0</ele>
        <time>2019-08-04T07:15:45.788Z</time>
      </trkpt>
      <trkpt lat="42.52916833" lon="1.54867667">
        <ele>1765.0</ele>
        <time>2019-08-04T07:15:46.787Z</time>
      </trkpt>
      <trkpt lat="42.52916833" lon="1.54867667">
        <ele>1765.0</ele>
        <time>2019-08-04T07:15:47.791Z</time>
      </trkpt>
      <trkpt lat="42.52911333" lon="1.548655">
        <ele>1765.0</ele>
        <time>2019-08-04T07:15:48.787Z</time>
      </trkpt>
      <trkpt lat="42.52908667" lon="1.54864667">
        <ele>1765.0</ele>
        <time>2019-08-04T07:15:49.784Z</time>
      </trkpt>
      <trkpt lat="42.52908667" lon="1.54864667">
        <ele>1765.0</ele>
        <time>2019-08-04T07:15:50.782Z</time>
      </trkpt>
      <trkpt lat="42.52903167" lon="1.54863333">
        <ele>1764.0</ele>
        <time>2019-08-04T07:15:51.801Z</time>
      </trkpt>
      <trkpt lat="42.52903167" lon="1.54863333">
        <ele>1764.0</ele>
        <time>2019-08-04T07:15:52.798Z</time>
      </trkpt>
      <trkpt lat="42.52897333" lon="1.54862667">
        <ele>1764.0</ele>
        <time>2019-08-04T07:15:53.784Z</time>
      </trkpt>
      <trkpt lat="42.52897333" lon="1.54862667">
        <ele>1764.0</ele>
        <time>2019-08-04T07:15:54.785Z</time>
      </trkpt>
      <trkpt lat="42.52891333" lon="1.548605">
        <ele>1764.0</ele>
        <time>2019-08-04T07:15:55.793Z</time>
      </trkpt>
      <trkpt lat="42.52891333" lon="1.548605">
        <ele>1764.0</ele>
        <time>2019-08-04T07:15:56.781Z</time>
      </trkpt>
      <trkpt lat="42.52885333" lon="1.54861667">
        <ele>1764.0</ele>
        <time>2019-08-04T07:15:57.800Z</time>
      </trkpt>
      <trkpt lat="42.52885333" lon="1.54861667">
        <ele>1764.0</ele>
        <time>2019-08-04T07:15:58.780Z</time>
      </trkpt>
      <trkpt lat="42.52879833" lon="1.54863">
        <ele>1764.0</ele>
        <time>2019-08-04T07:15:59.800Z</time>
      </trkpt>
      <trkpt lat="42.52879833" lon="1.54863">
        <ele>1764.0</ele>
        <time>2019-08-04T07:16:00.780Z</time>
      </trkpt>
      <trkpt lat="42.52874333" lon="1.54864167">
        <ele>1764.0</ele>
        <time>2019-08-04T07:16:01.803Z</time>
      </trkpt>
      <trkpt lat="42.528715" lon="1.548645">
        <ele>1764.0</ele>
        <time>2019-08-04T07:16:02.775Z</time>
      </trkpt>
      <trkpt lat="42.528715" lon="1.548645">
        <ele>1764.0</ele>
        <time>2019-08-04T07:16:03.794Z</time>
      </trkpt>
      <trkpt lat="42.52866667" lon="1.54864667">
        <ele>1764.0</ele>
        <time>2019-08-04T07:16:04.787Z</time>
      </trkpt>
      <trkpt lat="42.52866667" lon="1.54864667">
        <ele>1764.0</ele>
        <time>2019-08-04T07:16:05.798Z</time>
      </trkpt>
      <trkpt lat="42.52861333" lon="1.54865333">
        <ele>1764.0</ele>
        <time>2019-08-04T07:16:06.777Z</time>
      </trkpt>
      <trkpt lat="42.52858667" lon="1.54865333">
        <ele>1764.0</ele>
        <time>2019-08-04T07:16:07.784Z</time>
      </trkpt>
      <trkpt lat="42.52858667" lon="1.54865333">
        <ele>1764.0</ele>
        <time>2019-08-04T07:16:08.790Z</time>
      </trkpt>
      <trkpt lat="42.52854" lon="1.54863167">
        <ele>1764.0</ele>
        <time>2019-08-04T07:16:09.796Z</time>
      </trkpt>
      <trkpt lat="42.52852" lon="1.54861167">
        <ele>1764.0</ele>
        <time>2019-08-04T07:16:10.788Z</time>
      </trkpt>
      <trkpt lat="42.52852" lon="1.54861167">
        <ele>1764.0</ele>
        <time>2019-08-04T07:16:11.780Z</time>
      </trkpt>
      <trkpt lat="42.52847667" lon="1.54857333">
        <ele>1764.0</ele>
        <time>2019-08-04T07:16:12.775Z</time>
      </trkpt>
      <trkpt lat="42.52847667" lon="1.54857333">
        <ele>1764.0</ele>
        <time>2019-08-04T07:16:13.794Z</time>
      </trkpt>
      <trkpt lat="42.52843167" lon="1.54854">
        <ele>1764.0</ele>
        <time>2019-08-04T07:16:14.788Z</time>
      </trkpt>
      <trkpt lat="42.52843167" lon="1.54854">
        <ele>1764.0</ele>
        <time>2019-08-04T07:16:15.782Z</time>
      </trkpt>
      <trkpt lat="42.52839333" lon="1.54849">
        <ele>1764.0</ele>
        <time>2019-08-04T07:16:16.803Z</time>
      </trkpt>
      <trkpt lat="42.52839333" lon="1.54849">
        <ele>1764.0</ele>
        <time>2019-08-04T07:16:17.783Z</time>
      </trkpt>
      <trkpt lat="42.52835667" lon="1.548445">
        <ele>1764.0</ele>
        <time>2019-08-04T07:16:18.784Z</time>
      </trkpt>
      <trkpt lat="42.52833667" lon="1.54842167">
        <ele>1763.0</ele>
        <time>2019-08-04T07:16:19.790Z</time>
      </trkpt>
      <trkpt lat="42.52833667" lon="1.54842167">
        <ele>1763.0</ele>
        <time>2019-08-04T07:16:20.782Z</time>
      </trkpt>
      <trkpt lat="42.52829167" lon="1.54837667">
        <ele>1763.0</ele>
        <time>2019-08-04T07:16:21.784Z</time>
      </trkpt>
      <trkpt lat="42.52826667" lon="1.54835333">
        <ele>1764.0</ele>
        <time>2019-08-04T07:16:22.805Z</time>
      </trkpt>
      <trkpt lat="42.52826667" lon="1.54835333">
        <ele>1764.0</ele>
        <time>2019-08-04T07:16:23.784Z</time>
      </trkpt>
      <trkpt lat="42.52821833" lon="1.54831667">
        <ele>1764.0</ele>
        <time>2019-08-04T07:16:24.784Z</time>
      </trkpt>
      <trkpt lat="42.52821833" lon="1.54831667">
        <ele>1764.0</ele>
        <time>2019-08-04T07:16:25.777Z</time>
      </trkpt>
      <trkpt lat="42.528165" lon="1.54829">
        <ele>1764.0</ele>
        <time>2019-08-04T07:16:26.796Z</time>
      </trkpt>
      <trkpt lat="42.528165" lon="1.54829">
        <ele>1764.0</ele>
        <time>2019-08-04T07:16:27.781Z</time>
      </trkpt>
      <trkpt lat="42.52811" lon="1.54827">
        <ele>1765.0</ele>
        <time>2019-08-04T07:16:28.801Z</time>
      </trkpt>
      <trkpt lat="42.52811" lon="1.54827">
        <ele>1765.0</ele>
        <time>2019-08-04T07:16:29.780Z</time>
      </trkpt>
      <trkpt lat="42.52805333" lon="1.548265">
        <ele>1766.0</ele>
        <time>2019-08-04T07:16:30.799Z</time>
      </trkpt>
      <trkpt lat="42.52805333" lon="1.548265">
        <ele>1766.0</ele>
        <time>2019-08-04T07:16:31.781Z</time>
      </trkpt>
      <trkpt lat="42.527995" lon="1.54827833">
        <ele>1766.0</ele>
        <time>2019-08-04T07:16:32.766Z</time>
      </trkpt>
      <trkpt lat="42.527995" lon="1.54827833">
        <ele>1766.0</ele>
        <time>2019-08-04T07:16:33.773Z</time>
      </trkpt>
      <trkpt lat="42.52794" lon="1.54831167">
        <ele>1767.0</ele>
        <time>2019-08-04T07:16:34.794Z</time>
      </trkpt>
      <trkpt lat="42.52794" lon="1.54831167">
        <ele>1767.0</ele>
        <time>2019-08-04T07:16:35.783Z</time>
      </trkpt>
      <trkpt lat="42.52787" lon="1.54836">
        <ele>1769.0</ele>
        <time>2019-08-04T07:16:36.798Z</time>
      </trkpt>
      <trkpt lat="42.52787" lon="1.54836">
        <ele>1769.0</ele>
        <time>2019-08-04T07:16:37.780Z</time>
      </trkpt>
      <trkpt lat="42.52781167" lon="1.54841667">
        <ele>1771.0</ele>
        <time>2019-08-04T07:16:38.800Z</time>
      </trkpt>
      <trkpt lat="42.52781167" lon="1.54841667">
        <ele>1771.0</ele>
        <time>2019-08-04T07:16:39.782Z</time>
      </trkpt>
      <trkpt lat="42.527755" lon="1.54848167">
        <ele>1774.0</ele>
        <time>2019-08-04T07:16:40.801Z</time>
      </trkpt>
      <trkpt lat="42.527755" lon="1.54848167">
        <ele>1774.0</ele>
        <time>2019-08-04T07:16:41.784Z</time>
      </trkpt>
      <trkpt lat="42.5277" lon="1.54853833">
        <ele>1775.0</ele>
        <time>2019-08-04T07:16:42.775Z</time>
      </trkpt>
      <trkpt lat="42.5277" lon="1.54853833">
        <ele>1775.0</ele>
        <time>2019-08-04T07:16:43.795Z</time>
      </trkpt>
      <trkpt lat="42.52764833" lon="1.54858833">
        <ele>1777.0</ele>
        <time>2019-08-04T07:16:44.788Z</time>
      </trkpt>
      <trkpt lat="42.52764833" lon="1.54858833">
        <ele>1777.0</ele>
        <time>2019-08-04T07:16:45.780Z</time>
      </trkpt>
      <trkpt lat="42.52759833" lon="1.54862167">
        <ele>1778.0</ele>
        <time>2019-08-04T07:16:46.787Z</time>
      </trkpt>
      <trkpt lat="42.52759833" lon="1.54862167">
        <ele>1778.0</ele>
        <time>2019-08-04T07:16:47.777Z</time>
      </trkpt>
      <trkpt lat="42.52754333" lon="1.54865333">
        <ele>1779.0</ele>
        <time>2019-08-04T07:16:48.796Z</time>
      </trkpt>
      <trkpt lat="42.52754333" lon="1.54865333">
        <ele>1779.0</ele>
        <time>2019-08-04T07:16:49.780Z</time>
      </trkpt>
      <trkpt lat="42.52748833" lon="1.54868333">
        <ele>1780.0</ele>
        <time>2019-08-04T07:16:50.800Z</time>
      </trkpt>
      <trkpt lat="42.52748833" lon="1.54868333">
        <ele>1780.0</ele>
        <time>2019-08-04T07:16:51.782Z</time>
      </trkpt>
      <trkpt lat="42.52744333" lon="1.548705">
        <ele>1780.0</ele>
        <time>2019-08-04T07:16:52.775Z</time>
      </trkpt>
      <trkpt lat="42.52744333" lon="1.548705">
        <ele>1780.0</ele>
        <time>2019-08-04T07:16:53.794Z</time>
      </trkpt>
      <trkpt lat="42.52739667" lon="1.54872833">
        <ele>1781.0</ele>
        <time>2019-08-04T07:16:54.784Z</time>
      </trkpt>
      <trkpt lat="42.52737167" lon="1.54873833">
        <ele>1781.0</ele>
        <time>2019-08-04T07:16:55.790Z</time>
      </trkpt>
      <trkpt lat="42.52737167" lon="1.54873833">
        <ele>1781.0</ele>
        <time>2019-08-04T07:16:56.779Z</time>
      </trkpt>
      <trkpt lat="42.52731667" lon="1.54876167">
        <ele>1781.0</ele>
        <time>2019-08-04T07:16:57.798Z</time>
      </trkpt>
      <trkpt lat="42.52729" lon="1.54876667">
        <ele>1781.0</ele>
        <time>2019-08-04T07:16:58.787Z</time>
      </trkpt>
      <trkpt lat="42.52729" lon="1.54876667">
        <ele>1781.0</ele>
        <time>2019-08-04T07:16:59.780Z</time>
      </trkpt>
      <trkpt lat="42.527235" lon="1.54877">
        <ele>1782.0</ele>
        <time>2019-08-04T07:17:00.799Z</time>
      </trkpt>
      <trkpt lat="42.52720667" lon="1.54877167">
        <ele>1783.0</ele>
        <time>2019-08-04T07:17:01.803Z</time>
      </trkpt>
      <trkpt lat="42.52718" lon="1.548765">
        <ele>1783.0</ele>
        <time>2019-08-04T07:17:02.774Z</time>
      </trkpt>
      <trkpt lat="42.52718" lon="1.548765">
        <ele>1783.0</ele>
        <time>2019-08-04T07:17:03.801Z</time>
      </trkpt>
      <trkpt lat="42.52713333" lon="1.54873">
        <ele>1783.0</ele>
        <time>2019-08-04T07:17:04.788Z</time>
      </trkpt>
      <trkpt lat="42.52713333" lon="1.54873">
        <ele>1783.0</ele>
        <time>2019-08-04T07:17:05.801Z</time>
      </trkpt>
      <trkpt lat="42.52712167" lon="1.548665">
        <ele>1784.0</ele>
        <time>2019-08-04T07:17:06.792Z</time>
      </trkpt>
      <trkpt lat="42.52712667" lon="1.54863333">
        <ele>1785.0</ele>
        <time>2019-08-04T07:17:07.798Z</time>
      </trkpt>
      <trkpt lat="42.52713833" lon="1.54860167">
        <ele>1785.0</ele>
        <time>2019-08-04T07:17:08.788Z</time>
      </trkpt>
      <trkpt lat="42.52713833" lon="1.54860167">
        <ele>1785.0</ele>
        <time>2019-08-04T07:17:09.783Z</time>
      </trkpt>
      <trkpt lat="42.52717" lon="1.54855667">
        <ele>1785.0</ele>
        <time>2019-08-04T07:17:10.788Z</time>
      </trkpt>
      <trkpt lat="42.52717" lon="1.54855667">
        <ele>1785.0</ele>
        <time>2019-08-04T07:17:11.782Z</time>
      </trkpt>
      <trkpt lat="42.52720333" lon="1.548525">
        <ele>1786.0</ele>
        <time>2019-08-04T07:17:12.775Z</time>
      </trkpt>
      <trkpt lat="42.52720333" lon="1.548525">
        <ele>1786.0</ele>
        <time>2019-08-04T07:17:13.794Z</time>
      </trkpt>
      <trkpt lat="42.52723167" lon="1.54851667">
        <ele>1788.0</ele>
        <time>2019-08-04T07:17:14.789Z</time>
      </trkpt>
      <trkpt lat="42.52723167" lon="1.54851667">
        <ele>1788.0</ele>
        <time>2019-08-04T07:17:15.787Z</time>
      </trkpt>
      <trkpt lat="42.527275" lon="1.54851167">
        <ele>1789.0</ele>
        <time>2019-08-04T07:17:16.795Z</time>
      </trkpt>
      <trkpt lat="42.527275" lon="1.54851167">
        <ele>1789.0</ele>
        <time>2019-08-04T07:17:17.781Z</time>
      </trkpt>
      <trkpt lat="42.52732667" lon="1.54849833">
        <ele>1790.0</ele>
        <time>2019-08-04T07:17:18.804Z</time>
      </trkpt>
      <trkpt lat="42.52732667" lon="1.54849833">
        <ele>1790.0</ele>
        <time>2019-08-04T07:17:19.784Z</time>
      </trkpt>
      <trkpt lat="42.52737333" lon="1.54847167">
        <ele>1792.0</ele>
        <time>2019-08-04T07:17:20.789Z</time>
      </trkpt>
      <trkpt lat="42.52737333" lon="1.54847167">
        <ele>1792.0</ele>
        <time>2019-08-04T07:17:21.779Z</time>
      </trkpt>
      <trkpt lat="42.52741" lon="1.54843167">
        <ele>1793.0</ele>
        <time>2019-08-04T07:17:22.768Z</time>
      </trkpt>
      <trkpt lat="42.52741" lon="1.54843167">
        <ele>1793.0</ele>
        <time>2019-08-04T07:17:23.787Z</time>
      </trkpt>
      <trkpt lat="42.52745167" lon="1.54838833">
        <ele>1794.0</ele>
        <time>2019-08-04T07:17:24.788Z</time>
      </trkpt>
      <trkpt lat="42.52745167" lon="1.54838833">
        <ele>1794.0</ele>
        <time>2019-08-04T07:17:25.785Z</time>
      </trkpt>
      <trkpt lat="42.52749167" lon="1.54834833">
        <ele>1795.0</ele>
        <time>2019-08-04T07:17:26.792Z</time>
      </trkpt>
      <trkpt lat="42.52749167" lon="1.54834833">
        <ele>1795.0</ele>
        <time>2019-08-04T07:17:27.790Z</time>
      </trkpt>
      <trkpt lat="42.527525" lon="1.54831">
        <ele>1796.0</ele>
        <time>2019-08-04T07:17:28.787Z</time>
      </trkpt>
      <trkpt lat="42.527525" lon="1.54831">
        <ele>1796.0</ele>
        <time>2019-08-04T07:17:29.781Z</time>
      </trkpt>
      <trkpt lat="42.52755333" lon="1.54826833">
        <ele>1797.0</ele>
        <time>2019-08-04T07:17:30.800Z</time>
      </trkpt>
      <trkpt lat="42.52755333" lon="1.54826833">
        <ele>1797.0</ele>
        <time>2019-08-04T07:17:31.781Z</time>
      </trkpt>
      <trkpt lat="42.52758" lon="1.54823167">
        <ele>1797.0</ele>
        <time>2019-08-04T07:17:32.768Z</time>
      </trkpt>
      <trkpt lat="42.52758" lon="1.54823167">
        <ele>1797.0</ele>
        <time>2019-08-04T07:17:33.765Z</time>
      </trkpt>
      <trkpt lat="42.527605" lon="1.54819167">
        <ele>1798.0</ele>
        <time>2019-08-04T07:17:34.788Z</time>
      </trkpt>
      <trkpt lat="42.52762333" lon="1.54816333">
        <ele>1799.0</ele>
        <time>2019-08-04T07:17:35.788Z</time>
      </trkpt>
      <trkpt lat="42.52762333" lon="1.54816333">
        <ele>1799.0</ele>
        <time>2019-08-04T07:17:36.784Z</time>
      </trkpt>
      <trkpt lat="42.527655" lon="1.548075">
        <ele>1800.0</ele>
        <time>2019-08-04T07:17:37.784Z</time>
      </trkpt>
      <trkpt lat="42.52767167" lon="1.54802833">
        <ele>1800.0</ele>
        <time>2019-08-04T07:17:38.789Z</time>
      </trkpt>
      <trkpt lat="42.52767167" lon="1.54802833">
        <ele>1800.0</ele>
        <time>2019-08-04T07:17:39.778Z</time>
      </trkpt>
      <trkpt lat="42.52770667" lon="1.54793833">
        <ele>1801.0</ele>
        <time>2019-08-04T07:17:40.797Z</time>
      </trkpt>
      <trkpt lat="42.52770667" lon="1.54793833">
        <ele>1801.0</ele>
        <time>2019-08-04T07:17:41.783Z</time>
      </trkpt>
      <trkpt lat="42.52774333" lon="1.54785333">
        <ele>1801.0</ele>
        <time>2019-08-04T07:17:42.775Z</time>
      </trkpt>
      <trkpt lat="42.52774333" lon="1.54785333">
        <ele>1801.0</ele>
        <time>2019-08-04T07:17:43.794Z</time>
      </trkpt>
      <trkpt lat="42.52777333" lon="1.54776167">
        <ele>1802.0</ele>
        <time>2019-08-04T07:17:44.788Z</time>
      </trkpt>
      <trkpt lat="42.52777333" lon="1.54776167">
        <ele>1802.0</ele>
        <time>2019-08-04T07:17:45.782Z</time>
      </trkpt>
      <trkpt lat="42.52781333" lon="1.54767167">
        <ele>1802.0</ele>
        <time>2019-08-04T07:17:46.801Z</time>
      </trkpt>
      <trkpt lat="42.52781333" lon="1.54767167">
        <ele>1802.0</ele>
        <time>2019-08-04T07:17:47.784Z</time>
      </trkpt>
      <trkpt lat="42.52785667" lon="1.54757">
        <ele>1803.0</ele>
        <time>2019-08-04T07:17:48.789Z</time>
      </trkpt>
      <trkpt lat="42.52787667" lon="1.54751833">
        <ele>1803.0</ele>
        <time>2019-08-04T07:17:49.797Z</time>
      </trkpt>
      <trkpt lat="42.52787667" lon="1.54751833">
        <ele>1803.0</ele>
        <time>2019-08-04T07:17:50.788Z</time>
      </trkpt>
      <trkpt lat="42.52792667" lon="1.54740667">
        <ele>1804.0</ele>
        <time>2019-08-04T07:17:51.784Z</time>
      </trkpt>
      <trkpt lat="42.52795" lon="1.54734167">
        <ele>1804.0</ele>
        <time>2019-08-04T07:17:52.778Z</time>
      </trkpt>
      <trkpt lat="42.52795" lon="1.54734167">
        <ele>1804.0</ele>
        <time>2019-08-04T07:17:53.797Z</time>
      </trkpt>
      <trkpt lat="42.528005" lon="1.5472">
        <ele>1804.0</ele>
        <time>2019-08-04T07:17:54.788Z</time>
      </trkpt>
      <trkpt lat="42.528005" lon="1.5472">
        <ele>1804.0</ele>
        <time>2019-08-04T07:17:55.782Z</time>
      </trkpt>
      <trkpt lat="42.52807333" lon="1.54704667">
        <ele>1805.0</ele>
        <time>2019-08-04T07:17:56.766Z</time>
      </trkpt>
      <trkpt lat="42.52807333" lon="1.54704667">
        <ele>1805.0</ele>
        <time>2019-08-04T07:17:57.785Z</time>
      </trkpt>
      <trkpt lat="42.52814667" lon="1.54688">
        <ele>1805.0</ele>
        <time>2019-08-04T07:17:58.785Z</time>
      </trkpt>
      <trkpt lat="42.52814667" lon="1.54688">
        <ele>1805.0</ele>
        <time>2019-08-04T07:17:59.784Z</time>
      </trkpt>
      <trkpt lat="42.52823167" lon="1.54670333">
        <ele>1806.0</ele>
        <time>2019-08-04T07:18:00.803Z</time>
      </trkpt>
      <trkpt lat="42.52823167" lon="1.54670333">
        <ele>1806.0</ele>
        <time>2019-08-04T07:18:01.800Z</time>
      </trkpt>
      <trkpt lat="42.52830167" lon="1.54651">
        <ele>1806.0</ele>
        <time>2019-08-04T07:18:02.778Z</time>
      </trkpt>
      <trkpt lat="42.52830167" lon="1.54651">
        <ele>1806.0</ele>
        <time>2019-08-04T07:18:03.801Z</time>
      </trkpt>
      <trkpt lat="42.52837333" lon="1.546315">
        <ele>1806.0</ele>
        <time>2019-08-04T07:18:04.788Z</time>
      </trkpt>
      <trkpt lat="42.52837333" lon="1.546315">
        <ele>1806.0</ele>
        <time>2019-08-04T07:18:05.775Z</time>
      </trkpt>
      <trkpt lat="42.52846333" lon="1.54612333">
        <ele>1807.0</ele>
        <time>2019-08-04T07:18:06.765Z</time>
      </trkpt>
      <trkpt lat="42.52851833" lon="1.54604167">
        <ele>1807.0</ele>
        <time>2019-08-04T07:18:07.778Z</time>
      </trkpt>
      <trkpt lat="42.52851833" lon="1.54604167">
        <ele>1807.0</ele>
        <time>2019-08-04T07:18:08.784Z</time>
      </trkpt>
      <trkpt lat="42.52866333" lon="1.54594167">
        <ele>1807.0</ele>
        <time>2019-08-04T07:18:09.776Z</time>
      </trkpt>
      <trkpt lat="42.52866333" lon="1.54594167">
        <ele>1807.0</ele>
        <time>2019-08-04T07:18:10.796Z</time>
      </trkpt>
      <trkpt lat="42.52884" lon="1.54590333">
        <ele>1807.0</ele>
        <time>2019-08-04T07:18:11.787Z</time>
      </trkpt>
      <trkpt lat="42.52893333" lon="1.545885">
        <ele>1807.0</ele>
        <time>2019-08-04T07:18:12.775Z</time>
      </trkpt>
      <trkpt lat="42.52893333" lon="1.545885">
        <ele>1807.0</ele>
        <time>2019-08-04T07:18:13.795Z</time>
      </trkpt>
      <trkpt lat="42.52913333" lon="1.54583833">
        <ele>1806.0</ele>
        <time>2019-08-04T07:18:14.788Z</time>
      </trkpt>
      <trkpt lat="42.52913333" lon="1.54583833">
        <ele>1806.0</ele>
        <time>2019-08-04T07:18:15.785Z</time>
      </trkpt>
      <trkpt lat="42.52935" lon="1.545785">
        <ele>1806.0</ele>
        <time>2019-08-04T07:18:16.788Z</time>
      </trkpt>
      <trkpt lat="42.52935" lon="1.545785">
        <ele>1806.0</ele>
        <time>2019-08-04T07:18:17.781Z</time>
      </trkpt>
      <trkpt lat="42.52958333" lon="1.54578">
        <ele>1804.0</ele>
        <time>2019-08-04T07:18:18.791Z</time>
      </trkpt>
      <trkpt lat="42.529705" lon="1.54580333">
        <ele>1804.0</ele>
        <time>2019-08-04T07:18:19.788Z</time>
      </trkpt>
      <trkpt lat="42.529705" lon="1.54580333">
        <ele>1804.0</ele>
        <time>2019-08-04T07:18:20.787Z</time>
      </trkpt>
      <trkpt lat="42.52994667" lon="1.54590667">
        <ele>1803.0</ele>
        <time>2019-08-04T07:18:21.784Z</time>
      </trkpt>
      <trkpt lat="42.530065" lon="1.54597">
        <ele>1802.0</ele>
        <time>2019-08-04T07:18:22.769Z</time>
      </trkpt>
      <trkpt lat="42.530065" lon="1.54597">
        <ele>1802.0</ele>
        <time>2019-08-04T07:18:23.788Z</time>
      </trkpt>
      <trkpt lat="42.53030167" lon="1.54610167">
        <ele>1801.0</ele>
        <time>2019-08-04T07:18:24.784Z</time>
      </trkpt>
      <trkpt lat="42.53042333" lon="1.54615833">
        <ele>1800.0</ele>
        <time>2019-08-04T07:18:25.788Z</time>
      </trkpt>
      <trkpt lat="42.53042333" lon="1.54615833">
        <ele>1800.0</ele>
        <time>2019-08-04T07:18:26.791Z</time>
      </trkpt>
      <trkpt lat="42.53068333" lon="1.54618167">
        <ele>1798.0</ele>
        <time>2019-08-04T07:18:27.789Z</time>
      </trkpt>
      <trkpt lat="42.53068333" lon="1.54618167">
        <ele>1798.0</ele>
        <time>2019-08-04T07:18:28.785Z</time>
      </trkpt>
      <trkpt lat="42.53093" lon="1.546095">
        <ele>1797.0</ele>
        <time>2019-08-04T07:18:29.787Z</time>
      </trkpt>
      <trkpt lat="42.53104833" lon="1.54603">
        <ele>1797.0</ele>
        <time>2019-08-04T07:18:30.788Z</time>
      </trkpt>
      <trkpt lat="42.53104833" lon="1.54603">
        <ele>1797.0</ele>
        <time>2019-08-04T07:18:31.782Z</time>
      </trkpt>
      <trkpt lat="42.53127667" lon="1.54587667">
        <ele>1796.0</ele>
        <time>2019-08-04T07:18:32.788Z</time>
      </trkpt>
      <trkpt lat="42.53127667" lon="1.54587667">
        <ele>1796.0</ele>
        <time>2019-08-04T07:18:33.800Z</time>
      </trkpt>
      <trkpt lat="42.53149833" lon="1.54572333">
        <ele>1795.0</ele>
        <time>2019-08-04T07:18:34.788Z</time>
      </trkpt>
      <trkpt lat="42.53149833" lon="1.54572333">
        <ele>1795.0</ele>
        <time>2019-08-04T07:18:35.786Z</time>
      </trkpt>
      <trkpt lat="42.531725" lon="1.545575">
        <ele>1793.0</ele>
        <time>2019-08-04T07:18:36.789Z</time>
      </trkpt>
      <trkpt lat="42.531725" lon="1.545575">
        <ele>1793.0</ele>
        <time>2019-08-04T07:18:37.786Z</time>
      </trkpt>
      <trkpt lat="42.53197" lon="1.54545667">
        <ele>1792.0</ele>
        <time>2019-08-04T07:18:38.789Z</time>
      </trkpt>
      <trkpt lat="42.5321" lon="1.54542667">
        <ele>1791.0</ele>
        <time>2019-08-04T07:18:39.788Z</time>
      </trkpt>
      <trkpt lat="42.5321" lon="1.54542667">
        <ele>1791.0</ele>
        <time>2019-08-04T07:18:40.785Z</time>
      </trkpt>
      <trkpt lat="42.53237" lon="1.54541833">
        <ele>1789.0</ele>
        <time>2019-08-04T07:18:41.789Z</time>
      </trkpt>
      <trkpt lat="42.53250667" lon="1.54543667">
        <ele>1788.0</ele>
        <time>2019-08-04T07:18:42.765Z</time>
      </trkpt>
      <trkpt lat="42.53250667" lon="1.54543667">
        <ele>1788.0</ele>
        <time>2019-08-04T07:18:43.784Z</time>
      </trkpt>
      <trkpt lat="42.53277667" lon="1.54548667">
        <ele>1786.0</ele>
        <time>2019-08-04T07:18:44.803Z</time>
      </trkpt>
      <trkpt lat="42.53291" lon="1.545515">
        <ele>1785.0</ele>
        <time>2019-08-04T07:18:45.785Z</time>
      </trkpt>
      <trkpt lat="42.53291" lon="1.545515">
        <ele>1785.0</ele>
        <time>2019-08-04T07:18:46.786Z</time>
      </trkpt>
      <trkpt lat="42.53318167" lon="1.54555667">
        <ele>1783.0</ele>
        <time>2019-08-04T07:18:47.767Z</time>
      </trkpt>
      <trkpt lat="42.53318167" lon="1.54555667">
        <ele>1783.0</ele>
        <time>2019-08-04T07:18:48.785Z</time>
      </trkpt>
      <trkpt lat="42.53345167" lon="1.545585">
        <ele>1781.0</ele>
        <time>2019-08-04T07:18:49.784Z</time>
      </trkpt>
      <trkpt lat="42.53358667" lon="1.545595">
        <ele>1780.0</ele>
        <time>2019-08-04T07:18:50.765Z</time>
      </trkpt>
      <trkpt lat="42.53358667" lon="1.545595">
        <ele>1780.0</ele>
        <time>2019-08-04T07:18:51.785Z</time>
      </trkpt>
      <trkpt lat="42.53386667" lon="1.54559167">
        <ele>1779.0</ele>
        <time>2019-08-04T07:18:52.774Z</time>
      </trkpt>
      <trkpt lat="42.53386667" lon="1.54559167">
        <ele>1779.0</ele>
        <time>2019-08-04T07:18:53.794Z</time>
      </trkpt>
      <trkpt lat="42.53414833" lon="1.54557333">
        <ele>1777.0</ele>
        <time>2019-08-04T07:18:54.784Z</time>
      </trkpt>
      <trkpt lat="42.53429167" lon="1.54556167">
        <ele>1776.0</ele>
        <time>2019-08-04T07:18:55.789Z</time>
      </trkpt>
      <trkpt lat="42.53429167" lon="1.54556167">
        <ele>1776.0</ele>
        <time>2019-08-04T07:18:56.783Z</time>
      </trkpt>
      <trkpt lat="42.53457333" lon="1.54557333">
        <ele>1775.0</ele>
        <time>2019-08-04T07:18:57.803Z</time>
      </trkpt>
      <trkpt lat="42.53470833" lon="1.54562833">
        <ele>1774.0</ele>
        <time>2019-08-04T07:18:58.788Z</time>
      </trkpt>
      <trkpt lat="42.53470833" lon="1.54562833">
        <ele>1774.0</ele>
        <time>2019-08-04T07:18:59.781Z</time>
      </trkpt>
      <trkpt lat="42.53495333" lon="1.54584167">
        <ele>1773.0</ele>
        <time>2019-08-04T07:19:00.801Z</time>
      </trkpt>
      <trkpt lat="42.53495333" lon="1.54584167">
        <ele>1773.0</ele>
        <time>2019-08-04T07:19:01.790Z</time>
      </trkpt>
      <trkpt lat="42.53518" lon="1.54608833">
        <ele>1771.0</ele>
        <time>2019-08-04T07:19:02.773Z</time>
      </trkpt>
      <trkpt lat="42.53518" lon="1.54608833">
        <ele>1771.0</ele>
        <time>2019-08-04T07:19:03.794Z</time>
      </trkpt>
      <trkpt lat="42.53538" lon="1.546365">
        <ele>1769.0</ele>
        <time>2019-08-04T07:19:04.787Z</time>
      </trkpt>
      <trkpt lat="42.53538" lon="1.546365">
        <ele>1769.0</ele>
        <time>2019-08-04T07:19:05.765Z</time>
      </trkpt>
      <trkpt lat="42.53558333" lon="1.54665">
        <ele>1768.0</ele>
        <time>2019-08-04T07:19:06.787Z</time>
      </trkpt>
      <trkpt lat="42.53558333" lon="1.54665">
        <ele>1768.0</ele>
        <time>2019-08-04T07:19:07.783Z</time>
      </trkpt>
      <trkpt lat="42.53579833" lon="1.54693167">
        <ele>1766.0</ele>
        <time>2019-08-04T07:19:08.804Z</time>
      </trkpt>
      <trkpt lat="42.53591" lon="1.54706833">
        <ele>1765.0</ele>
        <time>2019-08-04T07:19:09.789Z</time>
      </trkpt>
      <trkpt lat="42.53591" lon="1.54706833">
        <ele>1765.0</ele>
        <time>2019-08-04T07:19:10.786Z</time>
      </trkpt>
      <trkpt lat="42.536145" lon="1.547295">
        <ele>1764.0</ele>
        <time>2019-08-04T07:19:11.789Z</time>
      </trkpt>
      <trkpt lat="42.53627" lon="1.54738">
        <ele>1763.0</ele>
        <time>2019-08-04T07:19:12.783Z</time>
      </trkpt>
      <trkpt lat="42.53627" lon="1.54738">
        <ele>1763.0</ele>
        <time>2019-08-04T07:19:13.803Z</time>
      </trkpt>
      <trkpt lat="42.53652" lon="1.54752167">
        <ele>1761.0</ele>
        <time>2019-08-04T07:19:14.789Z</time>
      </trkpt>
      <trkpt lat="42.53652" lon="1.54752167">
        <ele>1761.0</ele>
        <time>2019-08-04T07:19:15.783Z</time>
      </trkpt>
      <trkpt lat="42.53676167" lon="1.54765667">
        <ele>1760.0</ele>
        <time>2019-08-04T07:19:16.802Z</time>
      </trkpt>
      <trkpt lat="42.53676167" lon="1.54765667">
        <ele>1760.0</ele>
        <time>2019-08-04T07:19:17.782Z</time>
      </trkpt>
      <trkpt lat="42.53698833" lon="1.547835">
        <ele>1758.0</ele>
        <time>2019-08-04T07:19:18.803Z</time>
      </trkpt>
      <trkpt lat="42.53698833" lon="1.547835">
        <ele>1758.0</ele>
        <time>2019-08-04T07:19:19.783Z</time>
      </trkpt>
      <trkpt lat="42.53719167" lon="1.548055">
        <ele>1757.0</ele>
        <time>2019-08-04T07:19:20.804Z</time>
      </trkpt>
      <trkpt lat="42.537285" lon="1.54817833">
        <ele>1757.0</ele>
        <time>2019-08-04T07:19:21.789Z</time>
      </trkpt>
      <trkpt lat="42.53737" lon="1.54831">
        <ele>1756.0</ele>
        <time>2019-08-04T07:19:22.765Z</time>
      </trkpt>
      <trkpt lat="42.53737" lon="1.54831">
        <ele>1756.0</ele>
        <time>2019-08-04T07:19:23.784Z</time>
      </trkpt>
      <trkpt lat="42.53751833" lon="1.54857833">
        <ele>1755.0</ele>
        <time>2019-08-04T07:19:24.803Z</time>
      </trkpt>
      <trkpt lat="42.53751833" lon="1.54857833">
        <ele>1755.0</ele>
        <time>2019-08-04T07:19:25.784Z</time>
      </trkpt>
      <trkpt lat="42.53767" lon="1.54882167">
        <ele>1754.0</ele>
        <time>2019-08-04T07:19:26.803Z</time>
      </trkpt>
      <trkpt lat="42.53767" lon="1.54882167">
        <ele>1754.0</ele>
        <time>2019-08-04T07:19:27.784Z</time>
      </trkpt>
      <trkpt lat="42.537785" lon="1.54901667">
        <ele>1753.0</ele>
        <time>2019-08-04T07:19:28.803Z</time>
      </trkpt>
      <trkpt lat="42.537785" lon="1.54901667">
        <ele>1753.0</ele>
        <time>2019-08-04T07:19:29.786Z</time>
      </trkpt>
      <trkpt lat="42.53791333" lon="1.54910667">
        <ele>1752.0</ele>
        <time>2019-08-04T07:19:30.767Z</time>
      </trkpt>
      <trkpt lat="42.53797833" lon="1.54907">
        <ele>1752.0</ele>
        <time>2019-08-04T07:19:31.788Z</time>
      </trkpt>
      <trkpt lat="42.53801" lon="1.54898">
        <ele>1753.0</ele>
        <time>2019-08-04T07:19:32.776Z</time>
      </trkpt>
      <trkpt lat="42.53801" lon="1.54898">
        <ele>1753.0</ele>
        <time>2019-08-04T07:19:33.796Z</time>
      </trkpt>
      <trkpt lat="42.53796667" lon="1.548795">
        <ele>1752.0</ele>
        <time>2019-08-04T07:19:34.788Z</time>
      </trkpt>
      <trkpt lat="42.53796667" lon="1.548795">
        <ele>1752.0</ele>
        <time>2019-08-04T07:19:35.786Z</time>
      </trkpt>
      <trkpt lat="42.53784833" lon="1.54862">
        <ele>1750.0</ele>
        <time>2019-08-04T07:19:36.788Z</time>
      </trkpt>
      <trkpt lat="42.53778333" lon="1.54851667">
        <ele>1750.0</ele>
        <time>2019-08-04T07:19:37.796Z</time>
      </trkpt>
      <trkpt lat="42.53778333" lon="1.54851667">
        <ele>1750.0</ele>
        <time>2019-08-04T07:19:38.786Z</time>
      </trkpt>
      <trkpt lat="42.53764667" lon="1.54828">
        <ele>1748.0</ele>
        <time>2019-08-04T07:19:39.789Z</time>
      </trkpt>
      <trkpt lat="42.53757833" lon="1.54815">
        <ele>1748.0</ele>
        <time>2019-08-04T07:19:40.788Z</time>
      </trkpt>
      <trkpt lat="42.53757833" lon="1.54815">
        <ele>1748.0</ele>
        <time>2019-08-04T07:19:41.784Z</time>
      </trkpt>
      <trkpt lat="42.53746" lon="1.54787833">
        <ele>1747.0</ele>
        <time>2019-08-04T07:19:42.767Z</time>
      </trkpt>
      <trkpt lat="42.53746" lon="1.54787833">
        <ele>1747.0</ele>
        <time>2019-08-04T07:19:43.786Z</time>
      </trkpt>
      <trkpt lat="42.53732833" lon="1.54760167">
        <ele>1745.0</ele>
        <time>2019-08-04T07:19:44.789Z</time>
      </trkpt>
      <trkpt lat="42.53732833" lon="1.54760167">
        <ele>1745.0</ele>
        <time>2019-08-04T07:19:45.782Z</time>
      </trkpt>
      <trkpt lat="42.537185" lon="1.54731833">
        <ele>1744.0</ele>
        <time>2019-08-04T07:19:46.801Z</time>
      </trkpt>
      <trkpt lat="42.537185" lon="1.54731833">
        <ele>1744.0</ele>
        <time>2019-08-04T07:19:47.790Z</time>
      </trkpt>
      <trkpt lat="42.53703167" lon="1.54702333">
        <ele>1743.0</ele>
        <time>2019-08-04T07:19:48.787Z</time>
      </trkpt>
      <trkpt lat="42.53694833" lon="1.54688333">
        <ele>1742.0</ele>
        <time>2019-08-04T07:19:49.787Z</time>
      </trkpt>
      <trkpt lat="42.53694833" lon="1.54688333">
        <ele>1742.0</ele>
        <time>2019-08-04T07:19:50.786Z</time>
      </trkpt>
      <trkpt lat="42.53672" lon="1.546635">
        <ele>1741.0</ele>
        <time>2019-08-04T07:19:51.789Z</time>
      </trkpt>
      <trkpt lat="42.53662" lon="1.54649">
        <ele>1740.0</ele>
        <time>2019-08-04T07:19:52.778Z</time>
      </trkpt>
      <trkpt lat="42.53662" lon="1.54649">
        <ele>1740.0</ele>
        <time>2019-08-04T07:19:53.801Z</time>
      </trkpt>
      <trkpt lat="42.53646167" lon="1.54617333">
        <ele>1739.0</ele>
        <time>2019-08-04T07:19:54.789Z</time>
      </trkpt>
      <trkpt lat="42.53646167" lon="1.54617333">
        <ele>1739.0</ele>
        <time>2019-08-04T07:19:55.787Z</time>
      </trkpt>
      <trkpt lat="42.53631667" lon="1.54585">
        <ele>1737.0</ele>
        <time>2019-08-04T07:19:56.789Z</time>
      </trkpt>
      <trkpt lat="42.53631667" lon="1.54585">
        <ele>1737.0</ele>
        <time>2019-08-04T07:19:57.782Z</time>
      </trkpt>
      <trkpt lat="42.53623333" lon="1.54551333">
        <ele>1736.0</ele>
        <time>2019-08-04T07:19:58.800Z</time>
      </trkpt>
      <trkpt lat="42.53623333" lon="1.54551333">
        <ele>1736.0</ele>
        <time>2019-08-04T07:19:59.786Z</time>
      </trkpt>
      <trkpt lat="42.53621833" lon="1.54518667">
        <ele>1735.0</ele>
        <time>2019-08-04T07:20:00.800Z</time>
      </trkpt>
      <trkpt lat="42.53626333" lon="1.545045">
        <ele>1734.0</ele>
        <time>2019-08-04T07:20:01.789Z</time>
      </trkpt>
      <trkpt lat="42.53632167" lon="1.54491833">
        <ele>1733.0</ele>
        <time>2019-08-04T07:20:02.775Z</time>
      </trkpt>
      <trkpt lat="42.53632167" lon="1.54491833">
        <ele>1733.0</ele>
        <time>2019-08-04T07:20:03.795Z</time>
      </trkpt>
      <trkpt lat="42.53635667" lon="1.54467167">
        <ele>1731.0</ele>
        <time>2019-08-04T07:20:04.787Z</time>
      </trkpt>
      <trkpt lat="42.53635667" lon="1.54467167">
        <ele>1731.0</ele>
        <time>2019-08-04T07:20:05.803Z</time>
      </trkpt>
      <trkpt lat="42.53630167" lon="1.54438167">
        <ele>1729.0</ele>
        <time>2019-08-04T07:20:06.788Z</time>
      </trkpt>
      <trkpt lat="42.53626667" lon="1.54422667">
        <ele>1728.0</ele>
        <time>2019-08-04T07:20:07.800Z</time>
      </trkpt>
      <trkpt lat="42.53626667" lon="1.54422667">
        <ele>1728.0</ele>
        <time>2019-08-04T07:20:08.787Z</time>
      </trkpt>
      <trkpt lat="42.53621" lon="1.543885">
        <ele>1726.0</ele>
        <time>2019-08-04T07:20:09.787Z</time>
      </trkpt>
      <trkpt lat="42.536205" lon="1.54370167">
        <ele>1726.0</ele>
        <time>2019-08-04T07:20:10.789Z</time>
      </trkpt>
      <trkpt lat="42.53619167" lon="1.54352333">
        <ele>1725.0</ele>
        <time>2019-08-04T07:20:11.789Z</time>
      </trkpt>
      <trkpt lat="42.536175" lon="1.54335167">
        <ele>1724.0</ele>
        <time>2019-08-04T07:20:12.775Z</time>
      </trkpt>
      <trkpt lat="42.536175" lon="1.54335167">
        <ele>1724.0</ele>
        <time>2019-08-04T07:20:13.794Z</time>
      </trkpt>
      <trkpt lat="42.53614667" lon="1.54303833">
        <ele>1721.0</ele>
        <time>2019-08-04T07:20:14.789Z</time>
      </trkpt>
      <trkpt lat="42.53614667" lon="1.54303833">
        <ele>1721.0</ele>
        <time>2019-08-04T07:20:15.784Z</time>
      </trkpt>
      <trkpt lat="42.53608167" lon="1.54277833">
        <ele>1719.0</ele>
        <time>2019-08-04T07:20:16.789Z</time>
      </trkpt>
      <trkpt lat="42.53608167" lon="1.54277833">
        <ele>1719.0</ele>
        <time>2019-08-04T07:20:17.786Z</time>
      </trkpt>
      <trkpt lat="42.53595833" lon="1.54260167">
        <ele>1716.0</ele>
        <time>2019-08-04T07:20:18.800Z</time>
      </trkpt>
      <trkpt lat="42.53588" lon="1.54256167">
        <ele>1715.0</ele>
        <time>2019-08-04T07:20:19.789Z</time>
      </trkpt>
      <trkpt lat="42.53588" lon="1.54256167">
        <ele>1715.0</ele>
        <time>2019-08-04T07:20:20.768Z</time>
      </trkpt>
      <trkpt lat="42.53563" lon="1.54259333">
        <ele>1713.0</ele>
        <time>2019-08-04T07:20:21.789Z</time>
      </trkpt>
      <trkpt lat="42.53545833" lon="1.542655">
        <ele>1712.0</ele>
        <time>2019-08-04T07:20:22.769Z</time>
      </trkpt>
      <trkpt lat="42.53545833" lon="1.542655">
        <ele>1712.0</ele>
        <time>2019-08-04T07:20:23.789Z</time>
      </trkpt>
      <trkpt lat="42.53520167" lon="1.54265167">
        <ele>1710.0</ele>
        <time>2019-08-04T07:20:24.787Z</time>
      </trkpt>
      <trkpt lat="42.53508333" lon="1.54262667">
        <ele>1709.0</ele>
        <time>2019-08-04T07:20:25.767Z</time>
      </trkpt>
      <trkpt lat="42.53508333" lon="1.54262667">
        <ele>1709.0</ele>
        <time>2019-08-04T07:20:26.786Z</time>
      </trkpt>
      <trkpt lat="42.53483167" lon="1.542585">
        <ele>1707.0</ele>
        <time>2019-08-04T07:20:27.789Z</time>
      </trkpt>
      <trkpt lat="42.53470833" lon="1.54256">
        <ele>1706.0</ele>
        <time>2019-08-04T07:20:28.789Z</time>
      </trkpt>
      <trkpt lat="42.53470833" lon="1.54256">
        <ele>1706.0</ele>
        <time>2019-08-04T07:20:29.787Z</time>
      </trkpt>
      <trkpt lat="42.53446333" lon="1.54250667">
        <ele>1704.0</ele>
        <time>2019-08-04T07:20:30.785Z</time>
      </trkpt>
      <trkpt lat="42.53446333" lon="1.54250667">
        <ele>1704.0</ele>
        <time>2019-08-04T07:20:31.786Z</time>
      </trkpt>
      <trkpt lat="42.53420833" lon="1.54245">
        <ele>1702.0</ele>
        <time>2019-08-04T07:20:32.785Z</time>
      </trkpt>
      <trkpt lat="42.53420833" lon="1.54245">
        <ele>1702.0</ele>
        <time>2019-08-04T07:20:33.779Z</time>
      </trkpt>
      <trkpt lat="42.53396833" lon="1.542405">
        <ele>1699.0</ele>
        <time>2019-08-04T07:20:34.799Z</time>
      </trkpt>
      <trkpt lat="42.53396833" lon="1.542405">
        <ele>1699.0</ele>
        <time>2019-08-04T07:20:35.786Z</time>
      </trkpt>
      <trkpt lat="42.53372333" lon="1.542375">
        <ele>1697.0</ele>
        <time>2019-08-04T07:20:36.788Z</time>
      </trkpt>
      <trkpt lat="42.53372333" lon="1.542375">
        <ele>1697.0</ele>
        <time>2019-08-04T07:20:37.783Z</time>
      </trkpt>
      <trkpt lat="42.53349333" lon="1.54230833">
        <ele>1694.0</ele>
        <time>2019-08-04T07:20:38.802Z</time>
      </trkpt>
      <trkpt lat="42.53349333" lon="1.54230833">
        <ele>1694.0</ele>
        <time>2019-08-04T07:20:39.786Z</time>
      </trkpt>
      <trkpt lat="42.53326833" lon="1.54223833">
        <ele>1692.0</ele>
        <time>2019-08-04T07:20:40.789Z</time>
      </trkpt>
      <trkpt lat="42.53326833" lon="1.54223833">
        <ele>1692.0</ele>
        <time>2019-08-04T07:20:41.783Z</time>
      </trkpt>
      <trkpt lat="42.53303833" lon="1.54214833">
        <ele>1690.0</ele>
        <time>2019-08-04T07:20:42.768Z</time>
      </trkpt>
      <trkpt lat="42.53303833" lon="1.54214833">
        <ele>1690.0</ele>
        <time>2019-08-04T07:20:43.787Z</time>
      </trkpt>
      <trkpt lat="42.53281167" lon="1.54202833">
        <ele>1689.0</ele>
        <time>2019-08-04T07:20:44.788Z</time>
      </trkpt>
      <trkpt lat="42.53281167" lon="1.54202833">
        <ele>1689.0</ele>
        <time>2019-08-04T07:20:45.786Z</time>
      </trkpt>
      <trkpt lat="42.53259667" lon="1.54189333">
        <ele>1687.0</ele>
        <time>2019-08-04T07:20:46.789Z</time>
      </trkpt>
      <trkpt lat="42.53259667" lon="1.54189333">
        <ele>1687.0</ele>
        <time>2019-08-04T07:20:47.789Z</time>
      </trkpt>
      <trkpt lat="42.53243" lon="1.541715">
        <ele>1685.0</ele>
        <time>2019-08-04T07:20:48.784Z</time>
      </trkpt>
      <trkpt lat="42.53237833" lon="1.54161333">
        <ele>1684.0</ele>
        <time>2019-08-04T07:20:49.803Z</time>
      </trkpt>
      <trkpt lat="42.53235" lon="1.54151">
        <ele>1684.0</ele>
        <time>2019-08-04T07:20:50.790Z</time>
      </trkpt>
      <trkpt lat="42.53235" lon="1.54141167">
        <ele>1683.0</ele>
        <time>2019-08-04T07:20:51.789Z</time>
      </trkpt>
      <trkpt lat="42.53241667" lon="1.54135">
        <ele>1682.0</ele>
        <time>2019-08-04T07:20:52.767Z</time>
      </trkpt>
      <trkpt lat="42.53241667" lon="1.54135">
        <ele>1682.0</ele>
        <time>2019-08-04T07:20:53.786Z</time>
      </trkpt>
      <trkpt lat="42.53258833" lon="1.54139667">
        <ele>1681.0</ele>
        <time>2019-08-04T07:20:54.788Z</time>
      </trkpt>
      <trkpt lat="42.53258833" lon="1.54139667">
        <ele>1681.0</ele>
        <time>2019-08-04T07:20:55.790Z</time>
      </trkpt>
      <trkpt lat="42.53278333" lon="1.54149333">
        <ele>1679.0</ele>
        <time>2019-08-04T07:20:56.790Z</time>
      </trkpt>
      <trkpt lat="42.532895" lon="1.54151">
        <ele>1678.0</ele>
        <time>2019-08-04T07:20:57.788Z</time>
      </trkpt>
      <trkpt lat="42.532895" lon="1.54151">
        <ele>1678.0</ele>
        <time>2019-08-04T07:20:58.783Z</time>
      </trkpt>
      <trkpt lat="42.53312833" lon="1.54148">
        <ele>1676.0</ele>
        <time>2019-08-04T07:20:59.767Z</time>
      </trkpt>
      <trkpt lat="42.53312833" lon="1.54148">
        <ele>1676.0</ele>
        <time>2019-08-04T07:21:00.800Z</time>
      </trkpt>
      <trkpt lat="42.53335833" lon="1.54139833">
        <ele>1673.0</ele>
        <time>2019-08-04T07:21:01.796Z</time>
      </trkpt>
      <trkpt lat="42.53347333" lon="1.54133833">
        <ele>1671.0</ele>
        <time>2019-08-04T07:21:02.769Z</time>
      </trkpt>
      <trkpt lat="42.53347333" lon="1.54133833">
        <ele>1671.0</ele>
        <time>2019-08-04T07:21:03.788Z</time>
      </trkpt>
      <trkpt lat="42.53367667" lon="1.54113333">
        <ele>1668.0</ele>
        <time>2019-08-04T07:21:04.789Z</time>
      </trkpt>
      <trkpt lat="42.53367667" lon="1.54113333">
        <ele>1668.0</ele>
        <time>2019-08-04T07:21:05.765Z</time>
      </trkpt>
      <trkpt lat="42.53387667" lon="1.54092333">
        <ele>1666.0</ele>
        <time>2019-08-04T07:21:06.783Z</time>
      </trkpt>
      <trkpt lat="42.53387667" lon="1.54092333">
        <ele>1666.0</ele>
        <time>2019-08-04T07:21:07.789Z</time>
      </trkpt>
      <trkpt lat="42.53411833" lon="1.54079667">
        <ele>1664.0</ele>
        <time>2019-08-04T07:21:08.798Z</time>
      </trkpt>
      <trkpt lat="42.53411833" lon="1.54079667">
        <ele>1664.0</ele>
        <time>2019-08-04T07:21:09.787Z</time>
      </trkpt>
      <trkpt lat="42.534375" lon="1.54072667">
        <ele>1663.0</ele>
        <time>2019-08-04T07:21:10.789Z</time>
      </trkpt>
      <trkpt lat="42.534375" lon="1.54072667">
        <ele>1663.0</ele>
        <time>2019-08-04T07:21:11.801Z</time>
      </trkpt>
      <trkpt lat="42.53463167" lon="1.54079">
        <ele>1661.0</ele>
        <time>2019-08-04T07:21:12.766Z</time>
      </trkpt>
      <trkpt lat="42.53463167" lon="1.54079">
        <ele>1661.0</ele>
        <time>2019-08-04T07:21:13.786Z</time>
      </trkpt>
      <trkpt lat="42.534885" lon="1.54084833">
        <ele>1659.0</ele>
        <time>2019-08-04T07:21:14.789Z</time>
      </trkpt>
      <trkpt lat="42.53501167" lon="1.54084667">
        <ele>1658.0</ele>
        <time>2019-08-04T07:21:15.789Z</time>
      </trkpt>
      <trkpt lat="42.53501167" lon="1.54084667">
        <ele>1658.0</ele>
        <time>2019-08-04T07:21:16.787Z</time>
      </trkpt>
      <trkpt lat="42.53527167" lon="1.540825">
        <ele>1656.0</ele>
        <time>2019-08-04T07:21:17.788Z</time>
      </trkpt>
      <trkpt lat="42.53540167" lon="1.54081">
        <ele>1655.0</ele>
        <time>2019-08-04T07:21:18.790Z</time>
      </trkpt>
      <trkpt lat="42.53552333" lon="1.54076667">
        <ele>1653.0</ele>
        <time>2019-08-04T07:21:19.789Z</time>
      </trkpt>
      <trkpt lat="42.53564333" lon="1.54069">
        <ele>1652.0</ele>
        <time>2019-08-04T07:21:20.790Z</time>
      </trkpt>
      <trkpt lat="42.53564333" lon="1.54069">
        <ele>1652.0</ele>
        <time>2019-08-04T07:21:21.786Z</time>
      </trkpt>
      <trkpt lat="42.53588333" lon="1.54054833">
        <ele>1649.0</ele>
        <time>2019-08-04T07:21:22.776Z</time>
      </trkpt>
      <trkpt lat="42.53588333" lon="1.54054833">
        <ele>1649.0</ele>
        <time>2019-08-04T07:21:23.768Z</time>
      </trkpt>
      <trkpt lat="42.53615833" lon="1.54045167">
        <ele>1647.0</ele>
        <time>2019-08-04T07:21:24.789Z</time>
      </trkpt>
      <trkpt lat="42.536295" lon="1.54039333">
        <ele>1645.0</ele>
        <time>2019-08-04T07:21:25.789Z</time>
      </trkpt>
      <trkpt lat="42.536295" lon="1.54039333">
        <ele>1645.0</ele>
        <time>2019-08-04T07:21:26.787Z</time>
      </trkpt>
      <trkpt lat="42.536535" lon="1.54026833">
        <ele>1642.0</ele>
        <time>2019-08-04T07:21:27.789Z</time>
      </trkpt>
      <trkpt lat="42.53664833" lon="1.540215">
        <ele>1641.0</ele>
        <time>2019-08-04T07:21:28.791Z</time>
      </trkpt>
      <trkpt lat="42.53664833" lon="1.540215">
        <ele>1641.0</ele>
        <time>2019-08-04T07:21:29.783Z</time>
      </trkpt>
      <trkpt lat="42.53685833" lon="1.54015">
        <ele>1638.0</ele>
        <time>2019-08-04T07:21:30.802Z</time>
      </trkpt>
      <trkpt lat="42.53685833" lon="1.54015">
        <ele>1638.0</ele>
        <time>2019-08-04T07:21:31.784Z</time>
      </trkpt>
      <trkpt lat="42.53703333" lon="1.54007833">
        <ele>1635.0</ele>
        <time>2019-08-04T07:21:32.769Z</time>
      </trkpt>
      <trkpt lat="42.53703333" lon="1.54007833">
        <ele>1635.0</ele>
        <time>2019-08-04T07:21:33.786Z</time>
      </trkpt>
      <trkpt lat="42.53716667" lon="1.53999167">
        <ele>1633.0</ele>
        <time>2019-08-04T07:21:34.789Z</time>
      </trkpt>
      <trkpt lat="42.53716667" lon="1.53999167">
        <ele>1633.0</ele>
        <time>2019-08-04T07:21:35.787Z</time>
      </trkpt>
      <trkpt lat="42.53729" lon="1.53999833">
        <ele>1631.0</ele>
        <time>2019-08-04T07:21:36.789Z</time>
      </trkpt>
      <trkpt lat="42.53729" lon="1.53999833">
        <ele>1631.0</ele>
        <time>2019-08-04T07:21:37.787Z</time>
      </trkpt>
      <trkpt lat="42.53737333" lon="1.54014833">
        <ele>1628.0</ele>
        <time>2019-08-04T07:21:38.790Z</time>
      </trkpt>
      <trkpt lat="42.53737333" lon="1.54014833">
        <ele>1628.0</ele>
        <time>2019-08-04T07:21:39.786Z</time>
      </trkpt>
      <trkpt lat="42.53743" lon="1.54036667">
        <ele>1627.0</ele>
        <time>2019-08-04T07:21:40.789Z</time>
      </trkpt>
      <trkpt lat="42.53743" lon="1.54036667">
        <ele>1627.0</ele>
        <time>2019-08-04T07:21:41.787Z</time>
      </trkpt>
      <trkpt lat="42.53751" lon="1.54061">
        <ele>1625.0</ele>
        <time>2019-08-04T07:21:42.769Z</time>
      </trkpt>
      <trkpt lat="42.53751" lon="1.54061">
        <ele>1625.0</ele>
        <time>2019-08-04T07:21:43.788Z</time>
      </trkpt>
      <trkpt lat="42.537605" lon="1.54087">
        <ele>1623.0</ele>
        <time>2019-08-04T07:21:44.790Z</time>
      </trkpt>
      <trkpt lat="42.53766" lon="1.541">
        <ele>1623.0</ele>
        <time>2019-08-04T07:21:45.789Z</time>
      </trkpt>
      <trkpt lat="42.53766" lon="1.541">
        <ele>1623.0</ele>
        <time>2019-08-04T07:21:46.786Z</time>
      </trkpt>
      <trkpt lat="42.53778" lon="1.54126833">
        <ele>1621.0</ele>
        <time>2019-08-04T07:21:47.786Z</time>
      </trkpt>
      <trkpt lat="42.53785333" lon="1.541405">
        <ele>1620.0</ele>
        <time>2019-08-04T07:21:48.789Z</time>
      </trkpt>
      <trkpt lat="42.53793333" lon="1.54153667">
        <ele>1619.0</ele>
        <time>2019-08-04T07:21:49.789Z</time>
      </trkpt>
      <trkpt lat="42.53793333" lon="1.54153667">
        <ele>1619.0</ele>
        <time>2019-08-04T07:21:50.786Z</time>
      </trkpt>
      <trkpt lat="42.53808" lon="1.54179167">
        <ele>1618.0</ele>
        <time>2019-08-04T07:21:51.788Z</time>
      </trkpt>
      <trkpt lat="42.53813167" lon="1.541905">
        <ele>1617.0</ele>
        <time>2019-08-04T07:21:52.768Z</time>
      </trkpt>
      <trkpt lat="42.53813167" lon="1.541905">
        <ele>1617.0</ele>
        <time>2019-08-04T07:21:53.787Z</time>
      </trkpt>
      <trkpt lat="42.53818" lon="1.54212667">
        <ele>1616.0</ele>
        <time>2019-08-04T07:21:54.788Z</time>
      </trkpt>
      <trkpt lat="42.53820667" lon="1.54222167">
        <ele>1615.0</ele>
        <time>2019-08-04T07:21:55.800Z</time>
      </trkpt>
      <trkpt lat="42.53820667" lon="1.54222167">
        <ele>1615.0</ele>
        <time>2019-08-04T07:21:56.787Z</time>
      </trkpt>
      <trkpt lat="42.53826667" lon="1.54235333">
        <ele>1613.0</ele>
        <time>2019-08-04T07:21:57.789Z</time>
      </trkpt>
      <trkpt lat="42.53830833" lon="1.54235833">
        <ele>1613.0</ele>
        <time>2019-08-04T07:21:58.789Z</time>
      </trkpt>
      <trkpt lat="42.53830833" lon="1.54235833">
        <ele>1613.0</ele>
        <time>2019-08-04T07:21:59.783Z</time>
      </trkpt>
      <trkpt lat="42.53833167" lon="1.54218167">
        <ele>1611.0</ele>
        <time>2019-08-04T07:22:00.802Z</time>
      </trkpt>
      <trkpt lat="42.53833167" lon="1.54218167">
        <ele>1611.0</ele>
        <time>2019-08-04T07:22:01.787Z</time>
      </trkpt>
      <trkpt lat="42.53831333" lon="1.54194667">
        <ele>1610.0</ele>
        <time>2019-08-04T07:22:02.779Z</time>
      </trkpt>
      <trkpt lat="42.53831333" lon="1.54194667">
        <ele>1610.0</ele>
        <time>2019-08-04T07:22:03.798Z</time>
      </trkpt>
      <trkpt lat="42.53826333" lon="1.54166167">
        <ele>1609.0</ele>
        <time>2019-08-04T07:22:04.789Z</time>
      </trkpt>
      <trkpt lat="42.53826333" lon="1.54166167">
        <ele>1609.0</ele>
        <time>2019-08-04T07:22:05.804Z</time>
      </trkpt>
      <trkpt lat="42.53816333" lon="1.54137667">
        <ele>1607.0</ele>
        <time>2019-08-04T07:22:06.776Z</time>
      </trkpt>
      <trkpt lat="42.53816333" lon="1.54137667">
        <ele>1607.0</ele>
        <time>2019-08-04T07:22:07.782Z</time>
      </trkpt>
      <trkpt lat="42.53808833" lon="1.54105667">
        <ele>1606.0</ele>
        <time>2019-08-04T07:22:08.790Z</time>
      </trkpt>
      <trkpt lat="42.53806833" lon="1.54089333">
        <ele>1605.0</ele>
        <time>2019-08-04T07:22:09.789Z</time>
      </trkpt>
      <trkpt lat="42.53805333" lon="1.54072667">
        <ele>1604.0</ele>
        <time>2019-08-04T07:22:10.790Z</time>
      </trkpt>
      <trkpt lat="42.53805333" lon="1.54072667">
        <ele>1604.0</ele>
        <time>2019-08-04T07:22:11.798Z</time>
      </trkpt>
      <trkpt lat="42.53805333" lon="1.54034833">
        <ele>1602.0</ele>
        <time>2019-08-04T07:22:12.780Z</time>
      </trkpt>
      <trkpt lat="42.53805333" lon="1.54034833">
        <ele>1602.0</ele>
        <time>2019-08-04T07:22:13.799Z</time>
      </trkpt>
      <trkpt lat="42.538085" lon="1.53994333">
        <ele>1601.0</ele>
        <time>2019-08-04T07:22:14.792Z</time>
      </trkpt>
      <trkpt lat="42.538085" lon="1.53994333">
        <ele>1601.0</ele>
        <time>2019-08-04T07:22:15.787Z</time>
      </trkpt>
      <trkpt lat="42.53809333" lon="1.53956333">
        <ele>1599.0</ele>
        <time>2019-08-04T07:22:16.789Z</time>
      </trkpt>
      <trkpt lat="42.53809333" lon="1.53956333">
        <ele>1599.0</ele>
        <time>2019-08-04T07:22:17.787Z</time>
      </trkpt>
      <trkpt lat="42.53802833" lon="1.53921667">
        <ele>1597.0</ele>
        <time>2019-08-04T07:22:18.789Z</time>
      </trkpt>
      <trkpt lat="42.53802833" lon="1.53921667">
        <ele>1597.0</ele>
        <time>2019-08-04T07:22:19.784Z</time>
      </trkpt>
      <trkpt lat="42.53790167" lon="1.53891667">
        <ele>1595.0</ele>
        <time>2019-08-04T07:22:20.804Z</time>
      </trkpt>
      <trkpt lat="42.53790167" lon="1.53891667">
        <ele>1595.0</ele>
        <time>2019-08-04T07:22:21.786Z</time>
      </trkpt>
      <trkpt lat="42.53776" lon="1.53870833">
        <ele>1593.0</ele>
        <time>2019-08-04T07:22:22.805Z</time>
      </trkpt>
      <trkpt lat="42.53776" lon="1.53870833">
        <ele>1593.0</ele>
        <time>2019-08-04T07:22:23.784Z</time>
      </trkpt>
      <trkpt lat="42.53755167" lon="1.53861167">
        <ele>1591.0</ele>
        <time>2019-08-04T07:22:24.803Z</time>
      </trkpt>
      <trkpt lat="42.53743833" lon="1.53859333">
        <ele>1590.0</ele>
        <time>2019-08-04T07:22:25.802Z</time>
      </trkpt>
      <trkpt lat="42.53743833" lon="1.53859333">
        <ele>1590.0</ele>
        <time>2019-08-04T07:22:26.787Z</time>
      </trkpt>
      <trkpt lat="42.53720167" lon="1.53861">
        <ele>1588.0</ele>
        <time>2019-08-04T07:22:27.788Z</time>
      </trkpt>
      <trkpt lat="42.53708167" lon="1.53863333">
        <ele>1587.0</ele>
        <time>2019-08-04T07:22:28.788Z</time>
      </trkpt>
      <trkpt lat="42.53708167" lon="1.53863333">
        <ele>1587.0</ele>
        <time>2019-08-04T07:22:29.784Z</time>
      </trkpt>
      <trkpt lat="42.53683333" lon="1.53864167">
        <ele>1585.0</ele>
        <time>2019-08-04T07:22:30.804Z</time>
      </trkpt>
      <trkpt lat="42.53683333" lon="1.53864167">
        <ele>1585.0</ele>
        <time>2019-08-04T07:22:31.787Z</time>
      </trkpt>
      <trkpt lat="42.53658833" lon="1.53856167">
        <ele>1583.0</ele>
        <time>2019-08-04T07:22:32.800Z</time>
      </trkpt>
      <trkpt lat="42.53658833" lon="1.53856167">
        <ele>1583.0</ele>
        <time>2019-08-04T07:22:33.787Z</time>
      </trkpt>
      <trkpt lat="42.536375" lon="1.53838833">
        <ele>1582.0</ele>
        <time>2019-08-04T07:22:34.789Z</time>
      </trkpt>
      <trkpt lat="42.536375" lon="1.53838833">
        <ele>1582.0</ele>
        <time>2019-08-04T07:22:35.787Z</time>
      </trkpt>
      <trkpt lat="42.53616333" lon="1.53823333">
        <ele>1580.0</ele>
        <time>2019-08-04T07:22:36.789Z</time>
      </trkpt>
      <trkpt lat="42.53616333" lon="1.53823333">
        <ele>1580.0</ele>
        <time>2019-08-04T07:22:37.784Z</time>
      </trkpt>
      <trkpt lat="42.53593167" lon="1.53812333">
        <ele>1579.0</ele>
        <time>2019-08-04T07:22:38.803Z</time>
      </trkpt>
      <trkpt lat="42.53593167" lon="1.53812333">
        <ele>1579.0</ele>
        <time>2019-08-04T07:22:39.785Z</time>
      </trkpt>
      <trkpt lat="42.535695" lon="1.538035">
        <ele>1577.0</ele>
        <time>2019-08-04T07:22:40.789Z</time>
      </trkpt>
      <trkpt lat="42.535695" lon="1.538035">
        <ele>1577.0</ele>
        <time>2019-08-04T07:22:41.787Z</time>
      </trkpt>
      <trkpt lat="42.53545" lon="1.53793333">
        <ele>1575.0</ele>
        <time>2019-08-04T07:22:42.768Z</time>
      </trkpt>
      <trkpt lat="42.53545" lon="1.53793333">
        <ele>1575.0</ele>
        <time>2019-08-04T07:22:43.787Z</time>
      </trkpt>
      <trkpt lat="42.53525667" lon="1.53788">
        <ele>1573.0</ele>
        <time>2019-08-04T07:22:44.789Z</time>
      </trkpt>
      <trkpt lat="42.53525667" lon="1.53788">
        <ele>1573.0</ele>
        <time>2019-08-04T07:22:45.787Z</time>
      </trkpt>
      <trkpt lat="42.53511333" lon="1.537725">
        <ele>1572.0</ele>
        <time>2019-08-04T07:22:46.790Z</time>
      </trkpt>
      <trkpt lat="42.53511333" lon="1.537725">
        <ele>1572.0</ele>
        <time>2019-08-04T07:22:47.789Z</time>
      </trkpt>
      <trkpt lat="42.535095" lon="1.53746333">
        <ele>1571.0</ele>
        <time>2019-08-04T07:22:48.790Z</time>
      </trkpt>
      <trkpt lat="42.535095" lon="1.53746333">
        <ele>1571.0</ele>
        <time>2019-08-04T07:22:49.784Z</time>
      </trkpt>
      <trkpt lat="42.53515667" lon="1.53716">
        <ele>1570.0</ele>
        <time>2019-08-04T07:22:50.765Z</time>
      </trkpt>
      <trkpt lat="42.53515667" lon="1.53716">
        <ele>1570.0</ele>
        <time>2019-08-04T07:22:51.784Z</time>
      </trkpt>
      <trkpt lat="42.53522" lon="1.53687833">
        <ele>1568.0</ele>
        <time>2019-08-04T07:22:52.768Z</time>
      </trkpt>
      <trkpt lat="42.53522" lon="1.53687833">
        <ele>1568.0</ele>
        <time>2019-08-04T07:22:53.787Z</time>
      </trkpt>
      <trkpt lat="42.53526167" lon="1.536645">
        <ele>1567.0</ele>
        <time>2019-08-04T07:22:54.790Z</time>
      </trkpt>
      <trkpt lat="42.53526167" lon="1.536645">
        <ele>1567.0</ele>
        <time>2019-08-04T07:22:55.789Z</time>
      </trkpt>
      <trkpt lat="42.53521833" lon="1.53642667">
        <ele>1565.0</ele>
        <time>2019-08-04T07:22:56.790Z</time>
      </trkpt>
      <trkpt lat="42.53521833" lon="1.53642667">
        <ele>1565.0</ele>
        <time>2019-08-04T07:22:57.784Z</time>
      </trkpt>
      <trkpt lat="42.53504833" lon="1.53630833">
        <ele>1564.0</ele>
        <time>2019-08-04T07:22:58.803Z</time>
      </trkpt>
      <trkpt lat="42.53504833" lon="1.53630833">
        <ele>1564.0</ele>
        <time>2019-08-04T07:22:59.787Z</time>
      </trkpt>
      <trkpt lat="42.53487667" lon="1.53628667">
        <ele>1562.0</ele>
        <time>2019-08-04T07:23:00.789Z</time>
      </trkpt>
      <trkpt lat="42.53487667" lon="1.53628667">
        <ele>1562.0</ele>
        <time>2019-08-04T07:23:01.795Z</time>
      </trkpt>
      <trkpt lat="42.53473167" lon="1.53626167">
        <ele>1560.0</ele>
        <time>2019-08-04T07:23:02.768Z</time>
      </trkpt>
      <trkpt lat="42.53473167" lon="1.53626167">
        <ele>1560.0</ele>
        <time>2019-08-04T07:23:03.787Z</time>
      </trkpt>
      <trkpt lat="42.534685" lon="1.53611167">
        <ele>1559.0</ele>
        <time>2019-08-04T07:23:04.791Z</time>
      </trkpt>
      <trkpt lat="42.534685" lon="1.53611167">
        <ele>1559.0</ele>
        <time>2019-08-04T07:23:05.768Z</time>
      </trkpt>
      <trkpt lat="42.53475" lon="1.536">
        <ele>1557.0</ele>
        <time>2019-08-04T07:23:06.778Z</time>
      </trkpt>
      <trkpt lat="42.53475" lon="1.536">
        <ele>1557.0</ele>
        <time>2019-08-04T07:23:07.798Z</time>
      </trkpt>
      <trkpt lat="42.53498" lon="1.53596667">
        <ele>1555.0</ele>
        <time>2019-08-04T07:23:08.790Z</time>
      </trkpt>
      <trkpt lat="42.53498" lon="1.53596667">
        <ele>1555.0</ele>
        <time>2019-08-04T07:23:09.787Z</time>
      </trkpt>
      <trkpt lat="42.53516833" lon="1.53596833">
        <ele>1553.0</ele>
        <time>2019-08-04T07:23:10.790Z</time>
      </trkpt>
      <trkpt lat="42.53516833" lon="1.53596833">
        <ele>1553.0</ele>
        <time>2019-08-04T07:23:11.784Z</time>
      </trkpt>
      <trkpt lat="42.53530667" lon="1.53612167">
        <ele>1551.0</ele>
        <time>2019-08-04T07:23:12.777Z</time>
      </trkpt>
      <trkpt lat="42.53530667" lon="1.53612167">
        <ele>1551.0</ele>
        <time>2019-08-04T07:23:13.796Z</time>
      </trkpt>
      <trkpt lat="42.53540833" lon="1.53621333">
        <ele>1548.0</ele>
        <time>2019-08-04T07:23:14.786Z</time>
      </trkpt>
      <trkpt lat="42.53545833" lon="1.5362">
        <ele>1547.0</ele>
        <time>2019-08-04T07:23:15.768Z</time>
      </trkpt>
      <trkpt lat="42.53545833" lon="1.5362">
        <ele>1547.0</ele>
        <time>2019-08-04T07:23:16.787Z</time>
      </trkpt>
      <trkpt lat="42.53551667" lon="1.53601667">
        <ele>1545.0</ele>
        <time>2019-08-04T07:23:17.790Z</time>
      </trkpt>
      <trkpt lat="42.53551667" lon="1.53601667">
        <ele>1545.0</ele>
        <time>2019-08-04T07:23:18.787Z</time>
      </trkpt>
      <trkpt lat="42.53552333" lon="1.53576167">
        <ele>1543.0</ele>
        <time>2019-08-04T07:23:19.790Z</time>
      </trkpt>
      <trkpt lat="42.535545" lon="1.53562167">
        <ele>1542.0</ele>
        <time>2019-08-04T07:23:20.791Z</time>
      </trkpt>
      <trkpt lat="42.535545" lon="1.53562167">
        <ele>1542.0</ele>
        <time>2019-08-04T07:23:21.786Z</time>
      </trkpt>
      <trkpt lat="42.5356" lon="1.53534167">
        <ele>1539.0</ele>
        <time>2019-08-04T07:23:22.770Z</time>
      </trkpt>
      <trkpt lat="42.5356" lon="1.53534167">
        <ele>1539.0</ele>
        <time>2019-08-04T07:23:23.790Z</time>
      </trkpt>
      <trkpt lat="42.53554333" lon="1.53504167">
        <ele>1536.0</ele>
        <time>2019-08-04T07:23:24.789Z</time>
      </trkpt>
      <trkpt lat="42.53545833" lon="1.53491333">
        <ele>1535.0</ele>
        <time>2019-08-04T07:23:25.790Z</time>
      </trkpt>
      <trkpt lat="42.53545833" lon="1.53491333">
        <ele>1535.0</ele>
        <time>2019-08-04T07:23:26.788Z</time>
      </trkpt>
      <trkpt lat="42.535225" lon="1.534715">
        <ele>1532.0</ele>
        <time>2019-08-04T07:23:27.789Z</time>
      </trkpt>
      <trkpt lat="42.53510167" lon="1.53464">
        <ele>1531.0</ele>
        <time>2019-08-04T07:23:28.790Z</time>
      </trkpt>
      <trkpt lat="42.53499333" lon="1.53457167">
        <ele>1530.0</ele>
        <time>2019-08-04T07:23:29.791Z</time>
      </trkpt>
      <trkpt lat="42.53499333" lon="1.53457167">
        <ele>1530.0</ele>
        <time>2019-08-04T07:23:30.787Z</time>
      </trkpt>
      <trkpt lat="42.53480333" lon="1.53443333">
        <ele>1527.0</ele>
        <time>2019-08-04T07:23:31.788Z</time>
      </trkpt>
      <trkpt lat="42.534745" lon="1.534325">
        <ele>1526.0</ele>
        <time>2019-08-04T07:23:32.771Z</time>
      </trkpt>
      <trkpt lat="42.534745" lon="1.534325">
        <ele>1526.0</ele>
        <time>2019-08-04T07:23:33.794Z</time>
      </trkpt>
      <trkpt lat="42.53469" lon="1.53403">
        <ele>1523.0</ele>
        <time>2019-08-04T07:23:34.790Z</time>
      </trkpt>
      <trkpt lat="42.53469" lon="1.53403">
        <ele>1523.0</ele>
        <time>2019-08-04T07:23:35.786Z</time>
      </trkpt>
      <trkpt lat="42.53465" lon="1.53368333">
        <ele>1521.0</ele>
        <time>2019-08-04T07:23:36.790Z</time>
      </trkpt>
      <trkpt lat="42.53465" lon="1.53368333">
        <ele>1521.0</ele>
        <time>2019-08-04T07:23:37.786Z</time>
      </trkpt>
      <trkpt lat="42.53460667" lon="1.53330333">
        <ele>1518.0</ele>
        <time>2019-08-04T07:23:38.790Z</time>
      </trkpt>
      <trkpt lat="42.53460667" lon="1.53330333">
        <ele>1518.0</ele>
        <time>2019-08-04T07:23:39.785Z</time>
      </trkpt>
      <trkpt lat="42.53458333" lon="1.53288167">
        <ele>1516.0</ele>
        <time>2019-08-04T07:23:40.804Z</time>
      </trkpt>
      <trkpt lat="42.53458333" lon="1.53288167">
        <ele>1516.0</ele>
        <time>2019-08-04T07:23:41.790Z</time>
      </trkpt>
      <trkpt lat="42.53455667" lon="1.53244">
        <ele>1513.0</ele>
        <time>2019-08-04T07:23:42.767Z</time>
      </trkpt>
      <trkpt lat="42.53455667" lon="1.53244">
        <ele>1513.0</ele>
        <time>2019-08-04T07:23:43.787Z</time>
      </trkpt>
      <trkpt lat="42.53452" lon="1.53203833">
        <ele>1511.0</ele>
        <time>2019-08-04T07:23:44.790Z</time>
      </trkpt>
      <trkpt lat="42.53448333" lon="1.53185333">
        <ele>1509.0</ele>
        <time>2019-08-04T07:23:45.769Z</time>
      </trkpt>
      <trkpt lat="42.53444333" lon="1.53167">
        <ele>1508.0</ele>
        <time>2019-08-04T07:23:46.790Z</time>
      </trkpt>
      <trkpt lat="42.53444333" lon="1.53167">
        <ele>1508.0</ele>
        <time>2019-08-04T07:23:47.789Z</time>
      </trkpt>
      <trkpt lat="42.53428833" lon="1.53130833">
        <ele>1506.0</ele>
        <time>2019-08-04T07:23:48.789Z</time>
      </trkpt>
      <trkpt lat="42.53428833" lon="1.53130833">
        <ele>1506.0</ele>
        <time>2019-08-04T07:23:49.786Z</time>
      </trkpt>
      <trkpt lat="42.53411667" lon="1.53095">
        <ele>1503.0</ele>
        <time>2019-08-04T07:23:50.765Z</time>
      </trkpt>
      <trkpt lat="42.53405833" lon="1.530785">
        <ele>1502.0</ele>
        <time>2019-08-04T07:23:51.790Z</time>
      </trkpt>
      <trkpt lat="42.53400833" lon="1.53064167">
        <ele>1501.0</ele>
        <time>2019-08-04T07:23:52.772Z</time>
      </trkpt>
      <trkpt lat="42.53400833" lon="1.53064167">
        <ele>1501.0</ele>
        <time>2019-08-04T07:23:53.791Z</time>
      </trkpt>
      <trkpt lat="42.53396" lon="1.53039">
        <ele>1498.0</ele>
        <time>2019-08-04T07:23:54.786Z</time>
      </trkpt>
      <trkpt lat="42.53396" lon="1.53039">
        <ele>1498.0</ele>
        <time>2019-08-04T07:23:55.787Z</time>
      </trkpt>
      <trkpt lat="42.53391" lon="1.53016833">
        <ele>1496.0</ele>
        <time>2019-08-04T07:23:56.765Z</time>
      </trkpt>
      <trkpt lat="42.53391" lon="1.53016833">
        <ele>1496.0</ele>
        <time>2019-08-04T07:23:57.786Z</time>
      </trkpt>
      <trkpt lat="42.53379" lon="1.53005167">
        <ele>1494.0</ele>
        <time>2019-08-04T07:23:58.790Z</time>
      </trkpt>
      <trkpt lat="42.53379" lon="1.53005167">
        <ele>1494.0</ele>
        <time>2019-08-04T07:23:59.786Z</time>
      </trkpt>
      <trkpt lat="42.53362667" lon="1.53011167">
        <ele>1492.0</ele>
        <time>2019-08-04T07:24:00.800Z</time>
      </trkpt>
      <trkpt lat="42.53354167" lon="1.53016333">
        <ele>1491.0</ele>
        <time>2019-08-04T07:24:01.767Z</time>
      </trkpt>
      <trkpt lat="42.533445" lon="1.53021667">
        <ele>1490.0</ele>
        <time>2019-08-04T07:24:02.770Z</time>
      </trkpt>
      <trkpt lat="42.533445" lon="1.53021667">
        <ele>1490.0</ele>
        <time>2019-08-04T07:24:03.789Z</time>
      </trkpt>
      <trkpt lat="42.53323667" lon="1.530305">
        <ele>1488.0</ele>
        <time>2019-08-04T07:24:04.790Z</time>
      </trkpt>
      <trkpt lat="42.53323667" lon="1.530305">
        <ele>1488.0</ele>
        <time>2019-08-04T07:24:05.767Z</time>
      </trkpt>
      <trkpt lat="42.53302" lon="1.53046833">
        <ele>1486.0</ele>
        <time>2019-08-04T07:24:06.785Z</time>
      </trkpt>
      <trkpt lat="42.53293167" lon="1.53058833">
        <ele>1485.0</ele>
        <time>2019-08-04T07:24:07.804Z</time>
      </trkpt>
      <trkpt lat="42.53284833" lon="1.53072333">
        <ele>1483.0</ele>
        <time>2019-08-04T07:24:08.791Z</time>
      </trkpt>
      <trkpt lat="42.53284833" lon="1.53072333">
        <ele>1483.0</ele>
        <time>2019-08-04T07:24:09.786Z</time>
      </trkpt>
      <trkpt lat="42.53269" lon="1.53102">
        <ele>1481.0</ele>
        <time>2019-08-04T07:24:10.790Z</time>
      </trkpt>
      <trkpt lat="42.53269" lon="1.53102">
        <ele>1481.0</ele>
        <time>2019-08-04T07:24:11.788Z</time>
      </trkpt>
      <trkpt lat="42.53250333" lon="1.531305">
        <ele>1480.0</ele>
        <time>2019-08-04T07:24:12.770Z</time>
      </trkpt>
      <trkpt lat="42.53250333" lon="1.531305">
        <ele>1480.0</ele>
        <time>2019-08-04T07:24:13.790Z</time>
      </trkpt>
      <trkpt lat="42.53230667" lon="1.53155833">
        <ele>1478.0</ele>
        <time>2019-08-04T07:24:14.790Z</time>
      </trkpt>
      <trkpt lat="42.53230667" lon="1.53155833">
        <ele>1478.0</ele>
        <time>2019-08-04T07:24:15.786Z</time>
      </trkpt>
      <trkpt lat="42.53211667" lon="1.53181167">
        <ele>1476.0</ele>
        <time>2019-08-04T07:24:16.790Z</time>
      </trkpt>
      <trkpt lat="42.53211667" lon="1.53181167">
        <ele>1476.0</ele>
        <time>2019-08-04T07:24:17.786Z</time>
      </trkpt>
      <trkpt lat="42.53197333" lon="1.53204">
        <ele>1474.0</ele>
        <time>2019-08-04T07:24:18.786Z</time>
      </trkpt>
      <trkpt lat="42.53191833" lon="1.53212333">
        <ele>1473.0</ele>
        <time>2019-08-04T07:24:19.789Z</time>
      </trkpt>
      <trkpt lat="42.53191833" lon="1.53212333">
        <ele>1473.0</ele>
        <time>2019-08-04T07:24:20.769Z</time>
      </trkpt>
      <trkpt lat="42.53180667" lon="1.53209333">
        <ele>1472.0</ele>
        <time>2019-08-04T07:24:21.789Z</time>
      </trkpt>
      <trkpt lat="42.53179" lon="1.53201">
        <ele>1472.0</ele>
        <time>2019-08-04T07:24:22.771Z</time>
      </trkpt>
      <trkpt lat="42.53179" lon="1.53201">
        <ele>1472.0</ele>
        <time>2019-08-04T07:24:23.790Z</time>
      </trkpt>
      <trkpt lat="42.531875" lon="1.53182833">
        <ele>1470.0</ele>
        <time>2019-08-04T07:24:24.789Z</time>
      </trkpt>
      <trkpt lat="42.531875" lon="1.53182833">
        <ele>1470.0</ele>
        <time>2019-08-04T07:24:25.786Z</time>
      </trkpt>
      <trkpt lat="42.53202333" lon="1.53163167">
        <ele>1469.0</ele>
        <time>2019-08-04T07:24:26.790Z</time>
      </trkpt>
      <trkpt lat="42.53202333" lon="1.53163167">
        <ele>1469.0</ele>
        <time>2019-08-04T07:24:27.783Z</time>
      </trkpt>
      <trkpt lat="42.53215833" lon="1.53137833">
        <ele>1467.0</ele>
        <time>2019-08-04T07:24:28.803Z</time>
      </trkpt>
      <trkpt lat="42.53215833" lon="1.53137833">
        <ele>1467.0</ele>
        <time>2019-08-04T07:24:29.786Z</time>
      </trkpt>
      <trkpt lat="42.53228833" lon="1.53107833">
        <ele>1465.0</ele>
        <time>2019-08-04T07:24:30.787Z</time>
      </trkpt>
      <trkpt lat="42.532355" lon="1.53091333">
        <ele>1464.0</ele>
        <time>2019-08-04T07:24:31.789Z</time>
      </trkpt>
      <trkpt lat="42.53242333" lon="1.53074">
        <ele>1464.0</ele>
        <time>2019-08-04T07:24:32.768Z</time>
      </trkpt>
      <trkpt lat="42.53242333" lon="1.53074">
        <ele>1464.0</ele>
        <time>2019-08-04T07:24:33.765Z</time>
      </trkpt>
      <trkpt lat="42.532555" lon="1.53036667">
        <ele>1461.0</ele>
        <time>2019-08-04T07:24:34.790Z</time>
      </trkpt>
      <trkpt lat="42.532555" lon="1.53036667">
        <ele>1461.0</ele>
        <time>2019-08-04T07:24:35.777Z</time>
      </trkpt>
      <trkpt lat="42.53272167" lon="1.53002167">
        <ele>1459.0</ele>
        <time>2019-08-04T07:24:36.797Z</time>
      </trkpt>
      <trkpt lat="42.53272167" lon="1.53002167">
        <ele>1459.0</ele>
        <time>2019-08-04T07:24:37.781Z</time>
      </trkpt>
      <trkpt lat="42.53293167" lon="1.52972667">
        <ele>1456.0</ele>
        <time>2019-08-04T07:24:38.767Z</time>
      </trkpt>
      <trkpt lat="42.53293167" lon="1.52972667">
        <ele>1456.0</ele>
        <time>2019-08-04T07:24:39.787Z</time>
      </trkpt>
      <trkpt lat="42.533155" lon="1.52945333">
        <ele>1454.0</ele>
        <time>2019-08-04T07:24:40.772Z</time>
      </trkpt>
      <trkpt lat="42.533265" lon="1.529315">
        <ele>1453.0</ele>
        <time>2019-08-04T07:24:41.801Z</time>
      </trkpt>
      <trkpt lat="42.53337333" lon="1.529175">
        <ele>1451.0</ele>
        <time>2019-08-04T07:24:42.768Z</time>
      </trkpt>
      <trkpt lat="42.53337333" lon="1.529175">
        <ele>1451.0</ele>
        <time>2019-08-04T07:24:43.787Z</time>
      </trkpt>
      <trkpt lat="42.53357667" lon="1.52890167">
        <ele>1449.0</ele>
        <time>2019-08-04T07:24:44.790Z</time>
      </trkpt>
      <trkpt lat="42.53357667" lon="1.52890167">
        <ele>1449.0</ele>
        <time>2019-08-04T07:24:45.787Z</time>
      </trkpt>
      <trkpt lat="42.53375333" lon="1.52860833">
        <ele>1446.0</ele>
        <time>2019-08-04T07:24:46.791Z</time>
      </trkpt>
      <trkpt lat="42.53375333" lon="1.52860833">
        <ele>1446.0</ele>
        <time>2019-08-04T07:24:47.785Z</time>
      </trkpt>
      <trkpt lat="42.53393333" lon="1.52835167">
        <ele>1443.0</ele>
        <time>2019-08-04T07:24:48.765Z</time>
      </trkpt>
      <trkpt lat="42.53393333" lon="1.52835167">
        <ele>1443.0</ele>
        <time>2019-08-04T07:24:49.787Z</time>
      </trkpt>
      <trkpt lat="42.53407333" lon="1.528155">
        <ele>1441.0</ele>
        <time>2019-08-04T07:24:50.766Z</time>
      </trkpt>
      <trkpt lat="42.53407333" lon="1.528155">
        <ele>1441.0</ele>
        <time>2019-08-04T07:24:51.790Z</time>
      </trkpt>
      <trkpt lat="42.53420833" lon="1.52801333">
        <ele>1439.0</ele>
        <time>2019-08-04T07:24:52.768Z</time>
      </trkpt>
      <trkpt lat="42.53420833" lon="1.52801333">
        <ele>1439.0</ele>
        <time>2019-08-04T07:24:53.786Z</time>
      </trkpt>
      <trkpt lat="42.53438833" lon="1.52799833">
        <ele>1437.0</ele>
        <time>2019-08-04T07:24:54.790Z</time>
      </trkpt>
      <trkpt lat="42.53438833" lon="1.52799833">
        <ele>1437.0</ele>
        <time>2019-08-04T07:24:55.787Z</time>
      </trkpt>
      <trkpt lat="42.53458167" lon="1.52809333">
        <ele>1434.0</ele>
        <time>2019-08-04T07:24:56.789Z</time>
      </trkpt>
      <trkpt lat="42.53458167" lon="1.52809333">
        <ele>1434.0</ele>
        <time>2019-08-04T07:24:57.786Z</time>
      </trkpt>
      <trkpt lat="42.53475667" lon="1.52829667">
        <ele>1432.0</ele>
        <time>2019-08-04T07:24:58.765Z</time>
      </trkpt>
      <trkpt lat="42.53475667" lon="1.52829667">
        <ele>1432.0</ele>
        <time>2019-08-04T07:24:59.787Z</time>
      </trkpt>
      <trkpt lat="42.53494667" lon="1.52850833">
        <ele>1430.0</ele>
        <time>2019-08-04T07:25:00.790Z</time>
      </trkpt>
      <trkpt lat="42.53494667" lon="1.52850833">
        <ele>1430.0</ele>
        <time>2019-08-04T07:25:01.783Z</time>
      </trkpt>
      <trkpt lat="42.53513167" lon="1.52871833">
        <ele>1428.0</ele>
        <time>2019-08-04T07:25:02.776Z</time>
      </trkpt>
      <trkpt lat="42.53513167" lon="1.52871833">
        <ele>1428.0</ele>
        <time>2019-08-04T07:25:03.801Z</time>
      </trkpt>
      <trkpt lat="42.53528833" lon="1.52895333">
        <ele>1426.0</ele>
        <time>2019-08-04T07:25:04.791Z</time>
      </trkpt>
      <trkpt lat="42.53528833" lon="1.52895333">
        <ele>1426.0</ele>
        <time>2019-08-04T07:25:05.767Z</time>
      </trkpt>
      <trkpt lat="42.53540833" lon="1.52924333">
        <ele>1423.0</ele>
        <time>2019-08-04T07:25:06.789Z</time>
      </trkpt>
      <trkpt lat="42.53540833" lon="1.52924333">
        <ele>1423.0</ele>
        <time>2019-08-04T07:25:07.787Z</time>
      </trkpt>
      <trkpt lat="42.53548667" lon="1.52955167">
        <ele>1421.0</ele>
        <time>2019-08-04T07:25:08.791Z</time>
      </trkpt>
      <trkpt lat="42.53548667" lon="1.52955167">
        <ele>1421.0</ele>
        <time>2019-08-04T07:25:09.784Z</time>
      </trkpt>
      <trkpt lat="42.53558333" lon="1.52985667">
        <ele>1419.0</ele>
        <time>2019-08-04T07:25:10.765Z</time>
      </trkpt>
      <trkpt lat="42.53558333" lon="1.52985667">
        <ele>1419.0</ele>
        <time>2019-08-04T07:25:11.787Z</time>
      </trkpt>
      <trkpt lat="42.535725" lon="1.53011167">
        <ele>1416.0</ele>
        <time>2019-08-04T07:25:12.779Z</time>
      </trkpt>
      <trkpt lat="42.535725" lon="1.53011167">
        <ele>1416.0</ele>
        <time>2019-08-04T07:25:13.798Z</time>
      </trkpt>
      <trkpt lat="42.53594333" lon="1.530275">
        <ele>1414.0</ele>
        <time>2019-08-04T07:25:14.791Z</time>
      </trkpt>
      <trkpt lat="42.53594333" lon="1.530275">
        <ele>1414.0</ele>
        <time>2019-08-04T07:25:15.787Z</time>
      </trkpt>
      <trkpt lat="42.53617333" lon="1.53037667">
        <ele>1412.0</ele>
        <time>2019-08-04T07:25:16.790Z</time>
      </trkpt>
      <trkpt lat="42.53617333" lon="1.53037667">
        <ele>1412.0</ele>
        <time>2019-08-04T07:25:17.788Z</time>
      </trkpt>
      <trkpt lat="42.536365" lon="1.53046833">
        <ele>1409.0</ele>
        <time>2019-08-04T07:25:18.788Z</time>
      </trkpt>
      <trkpt lat="42.536365" lon="1.53046833">
        <ele>1409.0</ele>
        <time>2019-08-04T07:25:19.785Z</time>
      </trkpt>
      <trkpt lat="42.53651167" lon="1.53061333">
        <ele>1407.0</ele>
        <time>2019-08-04T07:25:20.804Z</time>
      </trkpt>
      <trkpt lat="42.53651167" lon="1.53061333">
        <ele>1407.0</ele>
        <time>2019-08-04T07:25:21.786Z</time>
      </trkpt>
      <trkpt lat="42.53655" lon="1.53084167">
        <ele>1405.0</ele>
        <time>2019-08-04T07:25:22.769Z</time>
      </trkpt>
      <trkpt lat="42.53655" lon="1.53084167">
        <ele>1405.0</ele>
        <time>2019-08-04T07:25:23.788Z</time>
      </trkpt>
      <trkpt lat="42.53662167" lon="1.530975">
        <ele>1403.0</ele>
        <time>2019-08-04T07:25:24.789Z</time>
      </trkpt>
      <trkpt lat="42.53662167" lon="1.530975">
        <ele>1403.0</ele>
        <time>2019-08-04T07:25:25.787Z</time>
      </trkpt>
      <trkpt lat="42.53672833" lon="1.53092667">
        <ele>1401.0</ele>
        <time>2019-08-04T07:25:26.791Z</time>
      </trkpt>
      <trkpt lat="42.53672833" lon="1.53092667">
        <ele>1401.0</ele>
        <time>2019-08-04T07:25:27.790Z</time>
      </trkpt>
      <trkpt lat="42.53673667" lon="1.53074167">
        <ele>1399.0</ele>
        <time>2019-08-04T07:25:28.790Z</time>
      </trkpt>
      <trkpt lat="42.53673667" lon="1.53074167">
        <ele>1399.0</ele>
        <time>2019-08-04T07:25:29.787Z</time>
      </trkpt>
      <trkpt lat="42.53666" lon="1.53052333">
        <ele>1397.0</ele>
        <time>2019-08-04T07:25:30.769Z</time>
      </trkpt>
      <trkpt lat="42.53666" lon="1.53052333">
        <ele>1397.0</ele>
        <time>2019-08-04T07:25:31.785Z</time>
      </trkpt>
      <trkpt lat="42.53655167" lon="1.530305">
        <ele>1396.0</ele>
        <time>2019-08-04T07:25:32.771Z</time>
      </trkpt>
      <trkpt lat="42.53655167" lon="1.530305">
        <ele>1396.0</ele>
        <time>2019-08-04T07:25:33.791Z</time>
      </trkpt>
      <trkpt lat="42.53640667" lon="1.53011">
        <ele>1394.0</ele>
        <time>2019-08-04T07:25:34.796Z</time>
      </trkpt>
      <trkpt lat="42.53640667" lon="1.53011">
        <ele>1394.0</ele>
        <time>2019-08-04T07:25:35.788Z</time>
      </trkpt>
      <trkpt lat="42.53628333" lon="1.529885">
        <ele>1392.0</ele>
        <time>2019-08-04T07:25:36.789Z</time>
      </trkpt>
      <trkpt lat="42.53623" lon="1.529755">
        <ele>1391.0</ele>
        <time>2019-08-04T07:25:37.790Z</time>
      </trkpt>
      <trkpt lat="42.53623" lon="1.529755">
        <ele>1391.0</ele>
        <time>2019-08-04T07:25:38.785Z</time>
      </trkpt>
      <trkpt lat="42.53614667" lon="1.52947333">
        <ele>1389.0</ele>
        <time>2019-08-04T07:25:39.770Z</time>
      </trkpt>
      <trkpt lat="42.53611167" lon="1.529325">
        <ele>1388.0</ele>
        <time>2019-08-04T07:25:40.792Z</time>
      </trkpt>
      <trkpt lat="42.53611167" lon="1.529325">
        <ele>1388.0</ele>
        <time>2019-08-04T07:25:41.787Z</time>
      </trkpt>
      <trkpt lat="42.53610667" lon="1.52899333">
        <ele>1386.0</ele>
        <time>2019-08-04T07:25:42.772Z</time>
      </trkpt>
      <trkpt lat="42.53610667" lon="1.52899333">
        <ele>1386.0</ele>
        <time>2019-08-04T07:25:43.791Z</time>
      </trkpt>
      <trkpt lat="42.53602333" lon="1.528665">
        <ele>1385.0</ele>
        <time>2019-08-04T07:25:44.791Z</time>
      </trkpt>
      <trkpt lat="42.53602333" lon="1.528665">
        <ele>1385.0</ele>
        <time>2019-08-04T07:25:45.787Z</time>
      </trkpt>
      <trkpt lat="42.53591167" lon="1.52834667">
        <ele>1382.0</ele>
        <time>2019-08-04T07:25:46.791Z</time>
      </trkpt>
      <trkpt lat="42.53591167" lon="1.52834667">
        <ele>1382.0</ele>
        <time>2019-08-04T07:25:47.787Z</time>
      </trkpt>
      <trkpt lat="42.53578333" lon="1.52802667">
        <ele>1380.0</ele>
        <time>2019-08-04T07:25:48.766Z</time>
      </trkpt>
      <trkpt lat="42.53578333" lon="1.52802667">
        <ele>1380.0</ele>
        <time>2019-08-04T07:25:49.788Z</time>
      </trkpt>
      <trkpt lat="42.53561" lon="1.52775333">
        <ele>1378.0</ele>
        <time>2019-08-04T07:25:50.791Z</time>
      </trkpt>
      <trkpt lat="42.53561" lon="1.52775333">
        <ele>1378.0</ele>
        <time>2019-08-04T07:25:51.787Z</time>
      </trkpt>
      <trkpt lat="42.53546333" lon="1.52751">
        <ele>1375.0</ele>
        <time>2019-08-04T07:25:52.771Z</time>
      </trkpt>
      <trkpt lat="42.53546333" lon="1.52751">
        <ele>1375.0</ele>
        <time>2019-08-04T07:25:53.790Z</time>
      </trkpt>
      <trkpt lat="42.535355" lon="1.52730833">
        <ele>1373.0</ele>
        <time>2019-08-04T07:25:54.790Z</time>
      </trkpt>
      <trkpt lat="42.535355" lon="1.52730833">
        <ele>1373.0</ele>
        <time>2019-08-04T07:25:55.780Z</time>
      </trkpt>
      <trkpt lat="42.53523167" lon="1.52721667">
        <ele>1371.0</ele>
        <time>2019-08-04T07:25:56.800Z</time>
      </trkpt>
      <trkpt lat="42.53523167" lon="1.52721667">
        <ele>1371.0</ele>
        <time>2019-08-04T07:25:57.787Z</time>
      </trkpt>
      <trkpt lat="42.535245" lon="1.52710167">
        <ele>1368.0</ele>
        <time>2019-08-04T07:25:58.789Z</time>
      </trkpt>
      <trkpt lat="42.535245" lon="1.52710167">
        <ele>1368.0</ele>
        <time>2019-08-04T07:25:59.787Z</time>
      </trkpt>
      <trkpt lat="42.53534333" lon="1.52711833">
        <ele>1367.0</ele>
        <time>2019-08-04T07:26:00.802Z</time>
      </trkpt>
      <trkpt lat="42.53534333" lon="1.52711833">
        <ele>1367.0</ele>
        <time>2019-08-04T07:26:01.765Z</time>
      </trkpt>
      <trkpt lat="42.53546167" lon="1.52724667">
        <ele>1365.0</ele>
        <time>2019-08-04T07:26:02.776Z</time>
      </trkpt>
      <trkpt lat="42.53546167" lon="1.52724667">
        <ele>1365.0</ele>
        <time>2019-08-04T07:26:03.788Z</time>
      </trkpt>
      <trkpt lat="42.53559167" lon="1.52741">
        <ele>1363.0</ele>
        <time>2019-08-04T07:26:04.791Z</time>
      </trkpt>
      <trkpt lat="42.53559167" lon="1.52741">
        <ele>1363.0</ele>
        <time>2019-08-04T07:26:05.803Z</time>
      </trkpt>
      <trkpt lat="42.535745" lon="1.52759167">
        <ele>1360.0</ele>
        <time>2019-08-04T07:26:06.788Z</time>
      </trkpt>
      <trkpt lat="42.535745" lon="1.52759167">
        <ele>1360.0</ele>
        <time>2019-08-04T07:26:07.794Z</time>
      </trkpt>
      <trkpt lat="42.53591167" lon="1.52776333">
        <ele>1358.0</ele>
        <time>2019-08-04T07:26:08.800Z</time>
      </trkpt>
      <trkpt lat="42.53591167" lon="1.52776333">
        <ele>1358.0</ele>
        <time>2019-08-04T07:26:09.789Z</time>
      </trkpt>
      <trkpt lat="42.53608833" lon="1.527935">
        <ele>1356.0</ele>
        <time>2019-08-04T07:26:10.769Z</time>
      </trkpt>
      <trkpt lat="42.53608833" lon="1.527935">
        <ele>1356.0</ele>
        <time>2019-08-04T07:26:11.790Z</time>
      </trkpt>
      <trkpt lat="42.53625333" lon="1.52816667">
        <ele>1354.0</ele>
        <time>2019-08-04T07:26:12.766Z</time>
      </trkpt>
      <trkpt lat="42.53625333" lon="1.52816667">
        <ele>1354.0</ele>
        <time>2019-08-04T07:26:13.787Z</time>
      </trkpt>
      <trkpt lat="42.53641833" lon="1.52843167">
        <ele>1352.0</ele>
        <time>2019-08-04T07:26:14.767Z</time>
      </trkpt>
      <trkpt lat="42.53641833" lon="1.52843167">
        <ele>1352.0</ele>
        <time>2019-08-04T07:26:15.788Z</time>
      </trkpt>
      <trkpt lat="42.53660333" lon="1.52866">
        <ele>1350.0</ele>
        <time>2019-08-04T07:26:16.791Z</time>
      </trkpt>
      <trkpt lat="42.53660333" lon="1.52866">
        <ele>1350.0</ele>
        <time>2019-08-04T07:26:17.788Z</time>
      </trkpt>
      <trkpt lat="42.53676167" lon="1.52886833">
        <ele>1348.0</ele>
        <time>2019-08-04T07:26:18.791Z</time>
      </trkpt>
      <trkpt lat="42.53676167" lon="1.52886833">
        <ele>1348.0</ele>
        <time>2019-08-04T07:26:19.787Z</time>
      </trkpt>
      <trkpt lat="42.53688833" lon="1.52911333">
        <ele>1347.0</ele>
        <time>2019-08-04T07:26:20.766Z</time>
      </trkpt>
      <trkpt lat="42.53688833" lon="1.52911333">
        <ele>1347.0</ele>
        <time>2019-08-04T07:26:21.785Z</time>
      </trkpt>
      <trkpt lat="42.53706333" lon="1.52931833">
        <ele>1345.0</ele>
        <time>2019-08-04T07:26:22.770Z</time>
      </trkpt>
      <trkpt lat="42.53706333" lon="1.52931833">
        <ele>1345.0</ele>
        <time>2019-08-04T07:26:23.789Z</time>
      </trkpt>
      <trkpt lat="42.53728333" lon="1.529465">
        <ele>1343.0</ele>
        <time>2019-08-04T07:26:24.791Z</time>
      </trkpt>
      <trkpt lat="42.53728333" lon="1.529465">
        <ele>1343.0</ele>
        <time>2019-08-04T07:26:25.785Z</time>
      </trkpt>
      <trkpt lat="42.53749333" lon="1.52965667">
        <ele>1342.0</ele>
        <time>2019-08-04T07:26:26.765Z</time>
      </trkpt>
      <trkpt lat="42.53749333" lon="1.52965667">
        <ele>1342.0</ele>
        <time>2019-08-04T07:26:27.789Z</time>
      </trkpt>
      <trkpt lat="42.53769167" lon="1.529885">
        <ele>1340.0</ele>
        <time>2019-08-04T07:26:28.792Z</time>
      </trkpt>
      <trkpt lat="42.53769167" lon="1.529885">
        <ele>1340.0</ele>
        <time>2019-08-04T07:26:29.788Z</time>
      </trkpt>
      <trkpt lat="42.53787167" lon="1.53010667">
        <ele>1338.0</ele>
        <time>2019-08-04T07:26:30.790Z</time>
      </trkpt>
      <trkpt lat="42.53794667" lon="1.53019167">
        <ele>1337.0</ele>
        <time>2019-08-04T07:26:31.773Z</time>
      </trkpt>
      <trkpt lat="42.538015" lon="1.53025333">
        <ele>1336.0</ele>
        <time>2019-08-04T07:26:32.768Z</time>
      </trkpt>
      <trkpt lat="42.538015" lon="1.53025333">
        <ele>1336.0</ele>
        <time>2019-08-04T07:26:33.787Z</time>
      </trkpt>
      <trkpt lat="42.53816167" lon="1.53025667">
        <ele>1334.0</ele>
        <time>2019-08-04T07:26:34.791Z</time>
      </trkpt>
      <trkpt lat="42.53822333" lon="1.530185">
        <ele>1334.0</ele>
        <time>2019-08-04T07:26:35.789Z</time>
      </trkpt>
      <trkpt lat="42.53822333" lon="1.530185">
        <ele>1334.0</ele>
        <time>2019-08-04T07:26:36.788Z</time>
      </trkpt>
      <trkpt lat="42.53825333" lon="1.52996167">
        <ele>1333.0</ele>
        <time>2019-08-04T07:26:37.791Z</time>
      </trkpt>
      <trkpt lat="42.53825333" lon="1.52996167">
        <ele>1333.0</ele>
        <time>2019-08-04T07:26:38.789Z</time>
      </trkpt>
      <trkpt lat="42.53822167" lon="1.52975">
        <ele>1332.0</ele>
        <time>2019-08-04T07:26:39.790Z</time>
      </trkpt>
      <trkpt lat="42.53821167" lon="1.52965">
        <ele>1332.0</ele>
        <time>2019-08-04T07:26:40.770Z</time>
      </trkpt>
      <trkpt lat="42.53821167" lon="1.52965">
        <ele>1332.0</ele>
        <time>2019-08-04T07:26:41.789Z</time>
      </trkpt>
      <trkpt lat="42.53818667" lon="1.52945">
        <ele>1331.0</ele>
        <time>2019-08-04T07:26:42.779Z</time>
      </trkpt>
      <trkpt lat="42.53818667" lon="1.52945">
        <ele>1331.0</ele>
        <time>2019-08-04T07:26:43.799Z</time>
      </trkpt>
      <trkpt lat="42.53815667" lon="1.52925667">
        <ele>1330.0</ele>
        <time>2019-08-04T07:26:44.791Z</time>
      </trkpt>
      <trkpt lat="42.53814" lon="1.52916">
        <ele>1330.0</ele>
        <time>2019-08-04T07:26:45.803Z</time>
      </trkpt>
      <trkpt lat="42.53814" lon="1.52916">
        <ele>1330.0</ele>
        <time>2019-08-04T07:26:46.790Z</time>
      </trkpt>
      <trkpt lat="42.53811" lon="1.528975">
        <ele>1329.0</ele>
        <time>2019-08-04T07:26:47.790Z</time>
      </trkpt>
      <trkpt lat="42.53809667" lon="1.52888333">
        <ele>1329.0</ele>
        <time>2019-08-04T07:26:48.791Z</time>
      </trkpt>
      <trkpt lat="42.53809667" lon="1.52888333">
        <ele>1329.0</ele>
        <time>2019-08-04T07:26:49.787Z</time>
      </trkpt>
      <trkpt lat="42.53807833" lon="1.52869667">
        <ele>1328.0</ele>
        <time>2019-08-04T07:26:50.766Z</time>
      </trkpt>
      <trkpt lat="42.53807833" lon="1.52869667">
        <ele>1328.0</ele>
        <time>2019-08-04T07:26:51.789Z</time>
      </trkpt>
      <trkpt lat="42.53807667" lon="1.52851333">
        <ele>1327.0</ele>
        <time>2019-08-04T07:26:52.768Z</time>
      </trkpt>
      <trkpt lat="42.53807667" lon="1.52851333">
        <ele>1327.0</ele>
        <time>2019-08-04T07:26:53.787Z</time>
      </trkpt>
      <trkpt lat="42.53810833" lon="1.52833167">
        <ele>1326.0</ele>
        <time>2019-08-04T07:26:54.791Z</time>
      </trkpt>
      <trkpt lat="42.53810833" lon="1.52833167">
        <ele>1326.0</ele>
        <time>2019-08-04T07:26:55.790Z</time>
      </trkpt>
      <trkpt lat="42.53815" lon="1.52815167">
        <ele>1325.0</ele>
        <time>2019-08-04T07:26:56.792Z</time>
      </trkpt>
      <trkpt lat="42.53815" lon="1.52815167">
        <ele>1325.0</ele>
        <time>2019-08-04T07:26:57.790Z</time>
      </trkpt>
      <trkpt lat="42.53818" lon="1.52797333">
        <ele>1324.0</ele>
        <time>2019-08-04T07:26:58.791Z</time>
      </trkpt>
      <trkpt lat="42.53818" lon="1.52797333">
        <ele>1324.0</ele>
        <time>2019-08-04T07:26:59.788Z</time>
      </trkpt>
      <trkpt lat="42.53819" lon="1.52779167">
        <ele>1324.0</ele>
        <time>2019-08-04T07:27:00.791Z</time>
      </trkpt>
      <trkpt lat="42.53819" lon="1.52779167">
        <ele>1324.0</ele>
        <time>2019-08-04T07:27:01.787Z</time>
      </trkpt>
      <trkpt lat="42.53819" lon="1.527615">
        <ele>1324.0</ele>
        <time>2019-08-04T07:27:02.788Z</time>
      </trkpt>
      <trkpt lat="42.53819" lon="1.527615">
        <ele>1324.0</ele>
        <time>2019-08-04T07:27:03.786Z</time>
      </trkpt>
      <trkpt lat="42.538185" lon="1.52743667">
        <ele>1325.0</ele>
        <time>2019-08-04T07:27:04.766Z</time>
      </trkpt>
      <trkpt lat="42.538185" lon="1.52743667">
        <ele>1325.0</ele>
        <time>2019-08-04T07:27:05.767Z</time>
      </trkpt>
      <trkpt lat="42.538175" lon="1.52726167">
        <ele>1325.0</ele>
        <time>2019-08-04T07:27:06.799Z</time>
      </trkpt>
      <trkpt lat="42.53816833" lon="1.52717">
        <ele>1325.0</ele>
        <time>2019-08-04T07:27:07.798Z</time>
      </trkpt>
      <trkpt lat="42.53816167" lon="1.52707667">
        <ele>1325.0</ele>
        <time>2019-08-04T07:27:08.789Z</time>
      </trkpt>
      <trkpt lat="42.53816167" lon="1.52707667">
        <ele>1325.0</ele>
        <time>2019-08-04T07:27:09.788Z</time>
      </trkpt>
      <trkpt lat="42.53814833" lon="1.52688167">
        <ele>1325.0</ele>
        <time>2019-08-04T07:27:10.767Z</time>
      </trkpt>
      <trkpt lat="42.53813833" lon="1.52678667">
        <ele>1325.0</ele>
        <time>2019-08-04T07:27:11.792Z</time>
      </trkpt>
      <trkpt lat="42.53812167" lon="1.526695">
        <ele>1325.0</ele>
        <time>2019-08-04T07:27:12.767Z</time>
      </trkpt>
      <trkpt lat="42.53812167" lon="1.526695">
        <ele>1325.0</ele>
        <time>2019-08-04T07:27:13.788Z</time>
      </trkpt>
      <trkpt lat="42.53806667" lon="1.52650833">
        <ele>1325.0</ele>
        <time>2019-08-04T07:27:14.792Z</time>
      </trkpt>
      <trkpt lat="42.53806667" lon="1.52650833">
        <ele>1325.0</ele>
        <time>2019-08-04T07:27:15.787Z</time>
      </trkpt>
      <trkpt lat="42.53803333" lon="1.52629667">
        <ele>1324.0</ele>
        <time>2019-08-04T07:27:16.792Z</time>
      </trkpt>
      <trkpt lat="42.538045" lon="1.52618167">
        <ele>1324.0</ele>
        <time>2019-08-04T07:27:17.789Z</time>
      </trkpt>
      <trkpt lat="42.538045" lon="1.52618167">
        <ele>1324.0</ele>
        <time>2019-08-04T07:27:18.787Z</time>
      </trkpt>
      <trkpt lat="42.53813167" lon="1.525975">
        <ele>1324.0</ele>
        <time>2019-08-04T07:27:19.791Z</time>
      </trkpt>
      <trkpt lat="42.53820333" lon="1.52589333">
        <ele>1324.0</ele>
        <time>2019-08-04T07:27:20.793Z</time>
      </trkpt>
      <trkpt lat="42.53820333" lon="1.52589333">
        <ele>1324.0</ele>
        <time>2019-08-04T07:27:21.786Z</time>
      </trkpt>
      <trkpt lat="42.538375" lon="1.52577333">
        <ele>1323.0</ele>
        <time>2019-08-04T07:27:22.769Z</time>
      </trkpt>
      <trkpt lat="42.538375" lon="1.52577333">
        <ele>1323.0</ele>
        <time>2019-08-04T07:27:23.788Z</time>
      </trkpt>
      <trkpt lat="42.53854833" lon="1.52564167">
        <ele>1322.0</ele>
        <time>2019-08-04T07:27:24.791Z</time>
      </trkpt>
      <trkpt lat="42.538635" lon="1.52556333">
        <ele>1322.0</ele>
        <time>2019-08-04T07:27:25.792Z</time>
      </trkpt>
      <trkpt lat="42.538635" lon="1.52556333">
        <ele>1322.0</ele>
        <time>2019-08-04T07:27:26.786Z</time>
      </trkpt>
      <trkpt lat="42.538795" lon="1.52537667">
        <ele>1321.0</ele>
        <time>2019-08-04T07:27:27.765Z</time>
      </trkpt>
      <trkpt lat="42.53887333" lon="1.52527333">
        <ele>1321.0</ele>
        <time>2019-08-04T07:27:28.789Z</time>
      </trkpt>
      <trkpt lat="42.53887333" lon="1.52527333">
        <ele>1321.0</ele>
        <time>2019-08-04T07:27:29.788Z</time>
      </trkpt>
      <trkpt lat="42.53903667" lon="1.52506667">
        <ele>1320.0</ele>
        <time>2019-08-04T07:27:30.770Z</time>
      </trkpt>
      <trkpt lat="42.53913" lon="1.52496833">
        <ele>1320.0</ele>
        <time>2019-08-04T07:27:31.791Z</time>
      </trkpt>
      <trkpt lat="42.539225" lon="1.52487">
        <ele>1320.0</ele>
        <time>2019-08-04T07:27:32.777Z</time>
      </trkpt>
      <trkpt lat="42.539225" lon="1.52487">
        <ele>1320.0</ele>
        <time>2019-08-04T07:27:33.789Z</time>
      </trkpt>
      <trkpt lat="42.53942833" lon="1.52466667">
        <ele>1319.0</ele>
        <time>2019-08-04T07:27:34.792Z</time>
      </trkpt>
      <trkpt lat="42.53942833" lon="1.52466667">
        <ele>1319.0</ele>
        <time>2019-08-04T07:27:35.787Z</time>
      </trkpt>
      <trkpt lat="42.53963667" lon="1.52446">
        <ele>1318.0</ele>
        <time>2019-08-04T07:27:36.780Z</time>
      </trkpt>
      <trkpt lat="42.53963667" lon="1.52446">
        <ele>1318.0</ele>
        <time>2019-08-04T07:27:37.799Z</time>
      </trkpt>
      <trkpt lat="42.53985167" lon="1.524255">
        <ele>1317.0</ele>
        <time>2019-08-04T07:27:38.792Z</time>
      </trkpt>
      <trkpt lat="42.53985167" lon="1.524255">
        <ele>1317.0</ele>
        <time>2019-08-04T07:27:39.786Z</time>
      </trkpt>
      <trkpt lat="42.54008667" lon="1.52406">
        <ele>1315.0</ele>
        <time>2019-08-04T07:27:40.766Z</time>
      </trkpt>
      <trkpt lat="42.54008667" lon="1.52406">
        <ele>1315.0</ele>
        <time>2019-08-04T07:27:41.788Z</time>
      </trkpt>
      <trkpt lat="42.54035667" lon="1.52391667">
        <ele>1313.0</ele>
        <time>2019-08-04T07:27:42.779Z</time>
      </trkpt>
      <trkpt lat="42.54035667" lon="1.52391667">
        <ele>1313.0</ele>
        <time>2019-08-04T07:27:43.798Z</time>
      </trkpt>
      <trkpt lat="42.54063333" lon="1.52376667">
        <ele>1312.0</ele>
        <time>2019-08-04T07:27:44.793Z</time>
      </trkpt>
      <trkpt lat="42.54063333" lon="1.52376667">
        <ele>1312.0</ele>
        <time>2019-08-04T07:27:45.789Z</time>
      </trkpt>
      <trkpt lat="42.54088333" lon="1.52352667">
        <ele>1310.0</ele>
        <time>2019-08-04T07:27:46.788Z</time>
      </trkpt>
      <trkpt lat="42.54088333" lon="1.52352667">
        <ele>1310.0</ele>
        <time>2019-08-04T07:27:47.788Z</time>
      </trkpt>
      <trkpt lat="42.54109333" lon="1.52325667">
        <ele>1308.0</ele>
        <time>2019-08-04T07:27:48.791Z</time>
      </trkpt>
      <trkpt lat="42.54120167" lon="1.52314333">
        <ele>1307.0</ele>
        <time>2019-08-04T07:27:49.788Z</time>
      </trkpt>
      <trkpt lat="42.54120167" lon="1.52314333">
        <ele>1307.0</ele>
        <time>2019-08-04T07:27:50.767Z</time>
      </trkpt>
      <trkpt lat="42.54144667" lon="1.52298333">
        <ele>1305.0</ele>
        <time>2019-08-04T07:27:51.791Z</time>
      </trkpt>
      <trkpt lat="42.54157167" lon="1.52292167">
        <ele>1304.0</ele>
        <time>2019-08-04T07:27:52.780Z</time>
      </trkpt>
      <trkpt lat="42.54157167" lon="1.52292167">
        <ele>1304.0</ele>
        <time>2019-08-04T07:27:53.799Z</time>
      </trkpt>
      <trkpt lat="42.54180833" lon="1.52283333">
        <ele>1302.0</ele>
        <time>2019-08-04T07:27:54.791Z</time>
      </trkpt>
      <trkpt lat="42.54180833" lon="1.52283333">
        <ele>1302.0</ele>
        <time>2019-08-04T07:27:55.789Z</time>
      </trkpt>
      <trkpt lat="42.54205333" lon="1.52286167">
        <ele>1300.0</ele>
        <time>2019-08-04T07:27:56.792Z</time>
      </trkpt>
      <trkpt lat="42.54205333" lon="1.52286167">
        <ele>1300.0</ele>
        <time>2019-08-04T07:27:57.788Z</time>
      </trkpt>
      <trkpt lat="42.54227333" lon="1.52289833">
        <ele>1298.0</ele>
        <time>2019-08-04T07:27:58.766Z</time>
      </trkpt>
      <trkpt lat="42.54227333" lon="1.52289833">
        <ele>1298.0</ele>
        <time>2019-08-04T07:27:59.788Z</time>
      </trkpt>
      <trkpt lat="42.54246" lon="1.52291167">
        <ele>1297.0</ele>
        <time>2019-08-04T07:28:00.770Z</time>
      </trkpt>
      <trkpt lat="42.54246" lon="1.52291167">
        <ele>1297.0</ele>
        <time>2019-08-04T07:28:01.800Z</time>
      </trkpt>
      <trkpt lat="42.542635" lon="1.52292167">
        <ele>1296.0</ele>
        <time>2019-08-04T07:28:02.773Z</time>
      </trkpt>
      <trkpt lat="42.542635" lon="1.52292167">
        <ele>1296.0</ele>
        <time>2019-08-04T07:28:03.793Z</time>
      </trkpt>
      <trkpt lat="42.54278833" lon="1.52295">
        <ele>1295.0</ele>
        <time>2019-08-04T07:28:04.793Z</time>
      </trkpt>
      <trkpt lat="42.54278833" lon="1.52295">
        <ele>1295.0</ele>
        <time>2019-08-04T07:28:05.765Z</time>
      </trkpt>
      <trkpt lat="42.54293333" lon="1.52300333">
        <ele>1294.0</ele>
        <time>2019-08-04T07:28:06.765Z</time>
      </trkpt>
      <trkpt lat="42.54300167" lon="1.52304">
        <ele>1295.0</ele>
        <time>2019-08-04T07:28:07.773Z</time>
      </trkpt>
      <trkpt lat="42.54306167" lon="1.52308">
        <ele>1294.0</ele>
        <time>2019-08-04T07:28:08.793Z</time>
      </trkpt>
      <trkpt lat="42.54306167" lon="1.52308">
        <ele>1294.0</ele>
        <time>2019-08-04T07:28:09.787Z</time>
      </trkpt>
      <trkpt lat="42.54317667" lon="1.52315833">
        <ele>1294.0</ele>
        <time>2019-08-04T07:28:10.789Z</time>
      </trkpt>
      <trkpt lat="42.54317667" lon="1.52315833">
        <ele>1294.0</ele>
        <time>2019-08-04T07:28:11.788Z</time>
      </trkpt>
      <trkpt lat="42.54328167" lon="1.52321">
        <ele>1294.0</ele>
        <time>2019-08-04T07:28:12.766Z</time>
      </trkpt>
      <trkpt lat="42.54328167" lon="1.52321">
        <ele>1294.0</ele>
        <time>2019-08-04T07:28:13.789Z</time>
      </trkpt>
      <trkpt lat="42.543385" lon="1.52327167">
        <ele>1294.0</ele>
        <time>2019-08-04T07:28:14.792Z</time>
      </trkpt>
      <trkpt lat="42.543385" lon="1.52327167">
        <ele>1294.0</ele>
        <time>2019-08-04T07:28:15.788Z</time>
      </trkpt>
      <trkpt lat="42.54348833" lon="1.52332667">
        <ele>1294.0</ele>
        <time>2019-08-04T07:28:16.792Z</time>
      </trkpt>
      <trkpt lat="42.54348833" lon="1.52332667">
        <ele>1294.0</ele>
        <time>2019-08-04T07:28:17.786Z</time>
      </trkpt>
      <trkpt lat="42.54357667" lon="1.52337167">
        <ele>1294.0</ele>
        <time>2019-08-04T07:28:18.765Z</time>
      </trkpt>
      <trkpt lat="42.54357667" lon="1.52337167">
        <ele>1294.0</ele>
        <time>2019-08-04T07:28:19.789Z</time>
      </trkpt>
      <trkpt lat="42.54365167" lon="1.52338667">
        <ele>1293.0</ele>
        <time>2019-08-04T07:28:20.771Z</time>
      </trkpt>
      <trkpt lat="42.54365167" lon="1.52338667">
        <ele>1293.0</ele>
        <time>2019-08-04T07:28:21.790Z</time>
      </trkpt>
      <trkpt lat="42.54370333" lon="1.52335667">
        <ele>1293.0</ele>
        <time>2019-08-04T07:28:22.771Z</time>
      </trkpt>
      <trkpt lat="42.54373" lon="1.52335">
        <ele>1293.0</ele>
        <time>2019-08-04T07:28:23.791Z</time>
      </trkpt>
      <trkpt lat="42.54373" lon="1.52335">
        <ele>1293.0</ele>
        <time>2019-08-04T07:28:24.789Z</time>
      </trkpt>
      <trkpt lat="42.54377833" lon="1.52337333">
        <ele>1293.0</ele>
        <time>2019-08-04T07:28:25.770Z</time>
      </trkpt>
      <trkpt lat="42.54380167" lon="1.52338833">
        <ele>1293.0</ele>
        <time>2019-08-04T07:28:26.795Z</time>
      </trkpt>
      <trkpt lat="42.54380167" lon="1.52338833">
        <ele>1293.0</ele>
        <time>2019-08-04T07:28:27.793Z</time>
      </trkpt>
      <trkpt lat="42.54385167" lon="1.52338">
        <ele>1294.0</ele>
        <time>2019-08-04T07:28:28.791Z</time>
      </trkpt>
      <trkpt lat="42.54385167" lon="1.52338">
        <ele>1294.0</ele>
        <time>2019-08-04T07:28:29.788Z</time>
      </trkpt>
      <trkpt lat="42.54388833" lon="1.52337">
        <ele>1293.0</ele>
        <time>2019-08-04T07:28:30.791Z</time>
      </trkpt>
      <trkpt lat="42.54388833" lon="1.52337">
        <ele>1293.0</ele>
        <time>2019-08-04T07:28:31.786Z</time>
      </trkpt>
      <trkpt lat="42.543875" lon="1.52338">
        <ele>1293.0</ele>
        <time>2019-08-04T07:28:32.779Z</time>
      </trkpt>
      <trkpt lat="42.543875" lon="1.52338">
        <ele>1293.0</ele>
        <time>2019-08-04T07:28:33.769Z</time>
      </trkpt>
      <trkpt lat="42.54386" lon="1.52337667">
        <ele>1293.0</ele>
        <time>2019-08-04T07:28:34.790Z</time>
      </trkpt>
      <trkpt lat="42.54386" lon="1.52337667">
        <ele>1293.0</ele>
        <time>2019-08-04T07:28:35.789Z</time>
      </trkpt>
      <trkpt lat="42.543865" lon="1.523375">
        <ele>1293.0</ele>
        <time>2019-08-04T07:28:36.791Z</time>
      </trkpt>
      <trkpt lat="42.543865" lon="1.523375">
        <ele>1293.0</ele>
        <time>2019-08-04T07:28:37.788Z</time>
      </trkpt>
      <trkpt lat="42.54386333" lon="1.52337167">
        <ele>1294.0</ele>
        <time>2019-08-04T07:28:38.792Z</time>
      </trkpt>
      <trkpt lat="42.54387167" lon="1.52335667">
        <ele>1294.0</ele>
        <time>2019-08-04T07:28:39.793Z</time>
      </trkpt>
      <trkpt lat="42.54387167" lon="1.52335667">
        <ele>1294.0</ele>
        <time>2019-08-04T07:28:40.790Z</time>
      </trkpt>
      <trkpt lat="42.543875" lon="1.52334333">
        <ele>1295.0</ele>
        <time>2019-08-04T07:28:41.791Z</time>
      </trkpt>
      <trkpt lat="42.54388167" lon="1.52334333">
        <ele>1296.0</ele>
        <time>2019-08-04T07:28:42.770Z</time>
      </trkpt>
      <trkpt lat="42.54388167" lon="1.52334333">
        <ele>1296.0</ele>
        <time>2019-08-04T07:28:43.790Z</time>
      </trkpt>
      <trkpt lat="42.54389333" lon="1.52335167">
        <ele>1296.0</ele>
        <time>2019-08-04T07:28:44.793Z</time>
      </trkpt>
      <trkpt lat="42.54389333" lon="1.52335167">
        <ele>1296.0</ele>
        <time>2019-08-04T07:28:45.790Z</time>
      </trkpt>
      <trkpt lat="42.54389333" lon="1.52334667">
        <ele>1296.0</ele>
        <time>2019-08-04T07:28:46.789Z</time>
      </trkpt>
      <trkpt lat="42.54389333" lon="1.52334667">
        <ele>1296.0</ele>
        <time>2019-08-04T07:28:47.777Z</time>
      </trkpt>
      <trkpt lat="42.54389333" lon="1.52334667">
        <ele>1296.0</ele>
        <time>2019-08-04T07:28:48.804Z</time>
      </trkpt>
      <trkpt lat="42.54389333" lon="1.52334667">
        <ele>1296.0</ele>
        <time>2019-08-04T07:28:49.785Z</time>
      </trkpt>
      <trkpt lat="42.54389333" lon="1.52334667">
        <ele>1296.0</ele>
        <time>2019-08-04T07:28:50.766Z</time>
      </trkpt>
      <trkpt lat="42.54389333" lon="1.52334667">
        <ele>1296.0</ele>
        <time>2019-08-04T07:28:51.770Z</time>
      </trkpt>
      <trkpt lat="42.54389333" lon="1.52334667">
        <ele>1296.0</ele>
        <time>2019-08-04T07:28:52.769Z</time>
      </trkpt>
      <trkpt lat="42.54389333" lon="1.52334667">
        <ele>1296.0</ele>
        <time>2019-08-04T07:28:53.804Z</time>
      </trkpt>
      <trkpt lat="42.54389333" lon="1.52334667">
        <ele>1296.0</ele>
        <time>2019-08-04T07:28:54.801Z</time>
      </trkpt>
      <trkpt lat="42.54389333" lon="1.52334667">
        <ele>1296.0</ele>
        <time>2019-08-04T07:28:55.804Z</time>
      </trkpt>
      <trkpt lat="42.54389333" lon="1.52334667">
        <ele>1296.0</ele>
        <time>2019-08-04T07:28:56.786Z</time>
      </trkpt>
      <trkpt lat="42.54389333" lon="1.52334667">
        <ele>1296.0</ele>
        <time>2019-08-04T07:28:57.769Z</time>
      </trkpt>
      <trkpt lat="42.54389333" lon="1.52334667">
        <ele>1296.0</ele>
        <time>2019-08-04T07:28:58.804Z</time>
      </trkpt>
      <trkpt lat="42.54389333" lon="1.52334667">
        <ele>1296.0</ele>
        <time>2019-08-04T07:28:59.772Z</time>
      </trkpt>
      <trkpt lat="42.54389333" lon="1.52334667">
        <ele>1296.0</ele>
        <time>2019-08-04T07:29:00.776Z</time>
      </trkpt>
      <trkpt lat="42.54389333" lon="1.52334667">
        <ele>1296.0</ele>
        <time>2019-08-04T07:29:01.773Z</time>
      </trkpt>
      <trkpt lat="42.54389333" lon="1.52334667">
        <ele>1296.0</ele>
        <time>2019-08-04T07:29:02.773Z</time>
      </trkpt>
      <trkpt lat="42.54389333" lon="1.52334667">
        <ele>1296.0</ele>
        <time>2019-08-04T07:29:03.772Z</time>
      </trkpt>
      <trkpt lat="42.54389333" lon="1.52334667">
        <ele>1296.0</ele>
        <time>2019-08-04T07:29:04.775Z</time>
      </trkpt>
      <trkpt lat="42.54389333" lon="1.52334667">
        <ele>1296.0</ele>
        <time>2019-08-04T07:29:05.770Z</time>
      </trkpt>
      <trkpt lat="42.54393333" lon="1.523375">
        <ele>1303.0</ele>
        <time>2019-08-04T07:29:06.776Z</time>
      </trkpt>
      <trkpt lat="42.54393333" lon="1.523375">
        <ele>1303.0</ele>
        <time>2019-08-04T07:29:07.773Z</time>
      </trkpt>
      <trkpt lat="42.54397" lon="1.52339333">
        <ele>1303.0</ele>
        <time>2019-08-04T07:29:08.798Z</time>
      </trkpt>
      <trkpt lat="42.54397" lon="1.52339333">
        <ele>1303.0</ele>
        <time>2019-08-04T07:29:09.782Z</time>
      </trkpt>
      <trkpt lat="42.54401333" lon="1.52342333">
        <ele>1303.0</ele>
        <time>2019-08-04T07:29:10.776Z</time>
      </trkpt>
      <trkpt lat="42.54401333" lon="1.52342333">
        <ele>1303.0</ele>
        <time>2019-08-04T07:29:11.772Z</time>
      </trkpt>
      <trkpt lat="42.54406" lon="1.523455">
        <ele>1304.0</ele>
        <time>2019-08-04T07:29:12.776Z</time>
      </trkpt>
      <trkpt lat="42.54406" lon="1.523455">
        <ele>1304.0</ele>
        <time>2019-08-04T07:29:13.775Z</time>
      </trkpt>
      <trkpt lat="42.54410333" lon="1.52349833">
        <ele>1304.0</ele>
        <time>2019-08-04T07:29:14.773Z</time>
      </trkpt>
      <trkpt lat="42.54410333" lon="1.52349833">
        <ele>1304.0</ele>
        <time>2019-08-04T07:29:15.773Z</time>
      </trkpt>
      <trkpt lat="42.54414333" lon="1.52354167">
        <ele>1305.0</ele>
        <time>2019-08-04T07:29:16.775Z</time>
      </trkpt>
      <trkpt lat="42.54414333" lon="1.52354167">
        <ele>1305.0</ele>
        <time>2019-08-04T07:29:17.769Z</time>
      </trkpt>
      <trkpt lat="42.54419" lon="1.52357833">
        <ele>1306.0</ele>
        <time>2019-08-04T07:29:18.799Z</time>
      </trkpt>
      <trkpt lat="42.54419" lon="1.52357833">
        <ele>1306.0</ele>
        <time>2019-08-04T07:29:19.794Z</time>
      </trkpt>
      <trkpt lat="42.544245" lon="1.52361333">
        <ele>1306.0</ele>
        <time>2019-08-04T07:29:20.775Z</time>
      </trkpt>
      <trkpt lat="42.544245" lon="1.52361333">
        <ele>1306.0</ele>
        <time>2019-08-04T07:29:21.772Z</time>
      </trkpt>
      <trkpt lat="42.5443" lon="1.52365">
        <ele>1306.0</ele>
        <time>2019-08-04T07:29:22.795Z</time>
      </trkpt>
      <trkpt lat="42.5443" lon="1.52365">
        <ele>1306.0</ele>
        <time>2019-08-04T07:29:23.773Z</time>
      </trkpt>
      <trkpt lat="42.544345" lon="1.52368167">
        <ele>1307.0</ele>
        <time>2019-08-04T07:29:24.776Z</time>
      </trkpt>
      <trkpt lat="42.544345" lon="1.52368167">
        <ele>1307.0</ele>
        <time>2019-08-04T07:29:25.773Z</time>
      </trkpt>
      <trkpt lat="42.5444" lon="1.52371">
        <ele>1307.0</ele>
        <time>2019-08-04T07:29:26.795Z</time>
      </trkpt>
      <trkpt lat="42.5444" lon="1.52371">
        <ele>1307.0</ele>
        <time>2019-08-04T07:29:27.775Z</time>
      </trkpt>
      <trkpt lat="42.54445833" lon="1.52374167">
        <ele>1307.0</ele>
        <time>2019-08-04T07:29:28.799Z</time>
      </trkpt>
      <trkpt lat="42.54445833" lon="1.52374167">
        <ele>1307.0</ele>
        <time>2019-08-04T07:29:29.777Z</time>
      </trkpt>
      <trkpt lat="42.54453167" lon="1.523785">
        <ele>1307.0</ele>
        <time>2019-08-04T07:29:30.776Z</time>
      </trkpt>
      <trkpt lat="42.54456833" lon="1.52381">
        <ele>1308.0</ele>
        <time>2019-08-04T07:29:31.796Z</time>
      </trkpt>
      <trkpt lat="42.54460667" lon="1.52383167">
        <ele>1308.0</ele>
        <time>2019-08-04T07:29:32.790Z</time>
      </trkpt>
      <trkpt lat="42.54460667" lon="1.52383167">
        <ele>1308.0</ele>
        <time>2019-08-04T07:29:33.773Z</time>
      </trkpt>
      <trkpt lat="42.54465333" lon="1.52387167">
        <ele>1308.0</ele>
        <time>2019-08-04T07:29:34.776Z</time>
      </trkpt>
      <trkpt lat="42.54465333" lon="1.52387167">
        <ele>1308.0</ele>
        <time>2019-08-04T07:29:35.770Z</time>
      </trkpt>
      <trkpt lat="42.54471333" lon="1.52390333">
        <ele>1308.0</ele>
        <time>2019-08-04T07:29:36.789Z</time>
      </trkpt>
      <trkpt lat="42.54471333" lon="1.52390333">
        <ele>1308.0</ele>
        <time>2019-08-04T07:29:37.773Z</time>
      </trkpt>
      <trkpt lat="42.54477667" lon="1.52393">
        <ele>1308.0</ele>
        <time>2019-08-04T07:29:38.799Z</time>
      </trkpt>
      <trkpt lat="42.54477667" lon="1.52393">
        <ele>1308.0</ele>
        <time>2019-08-04T07:29:39.781Z</time>
      </trkpt>
      <trkpt lat="42.54484167" lon="1.52396">
        <ele>1308.0</ele>
        <time>2019-08-04T07:29:40.775Z</time>
      </trkpt>
      <trkpt lat="42.54484167" lon="1.52396">
        <ele>1308.0</ele>
        <time>2019-08-04T07:29:41.773Z</time>
      </trkpt>
      <trkpt lat="42.54490167" lon="1.52399333">
        <ele>1309.0</ele>
        <time>2019-08-04T07:29:42.778Z</time>
      </trkpt>
      <trkpt lat="42.54490167" lon="1.52399333">
        <ele>1309.0</ele>
        <time>2019-08-04T07:29:43.774Z</time>
      </trkpt>
      <trkpt lat="42.544975" lon="1.52402">
        <ele>1309.0</ele>
        <time>2019-08-04T07:29:44.776Z</time>
      </trkpt>
      <trkpt lat="42.544975" lon="1.52402">
        <ele>1309.0</ele>
        <time>2019-08-04T07:29:45.773Z</time>
      </trkpt>
      <trkpt lat="42.545055" lon="1.52404667">
        <ele>1310.0</ele>
        <time>2019-08-04T07:29:46.777Z</time>
      </trkpt>
      <trkpt lat="42.54509667" lon="1.52405667">
        <ele>1310.0</ele>
        <time>2019-08-04T07:29:47.776Z</time>
      </trkpt>
      <trkpt lat="42.54513167" lon="1.52408">
        <ele>1311.0</ele>
        <time>2019-08-04T07:29:48.799Z</time>
      </trkpt>
      <trkpt lat="42.54513167" lon="1.52408">
        <ele>1311.0</ele>
        <time>2019-08-04T07:29:49.777Z</time>
      </trkpt>
      <trkpt lat="42.54521667" lon="1.524115">
        <ele>1311.0</ele>
        <time>2019-08-04T07:29:50.776Z</time>
      </trkpt>
      <trkpt lat="42.54521667" lon="1.524115">
        <ele>1311.0</ele>
        <time>2019-08-04T07:29:51.771Z</time>
      </trkpt>
      <trkpt lat="42.5453" lon="1.52415">
        <ele>1311.0</ele>
        <time>2019-08-04T07:29:52.790Z</time>
      </trkpt>
      <trkpt lat="42.5453" lon="1.52415">
        <ele>1311.0</ele>
        <time>2019-08-04T07:29:53.773Z</time>
      </trkpt>
      <trkpt lat="42.54538" lon="1.52418167">
        <ele>1312.0</ele>
        <time>2019-08-04T07:29:54.792Z</time>
      </trkpt>
      <trkpt lat="42.54538" lon="1.52418167">
        <ele>1312.0</ele>
        <time>2019-08-04T07:29:55.772Z</time>
      </trkpt>
      <trkpt lat="42.545465" lon="1.52422167">
        <ele>1312.0</ele>
        <time>2019-08-04T07:29:56.796Z</time>
      </trkpt>
      <trkpt lat="42.545465" lon="1.52422167">
        <ele>1312.0</ele>
        <time>2019-08-04T07:29:57.777Z</time>
      </trkpt>
      <trkpt lat="42.54554" lon="1.52427167">
        <ele>1313.0</ele>
        <time>2019-08-04T07:29:58.791Z</time>
      </trkpt>
      <trkpt lat="42.54554" lon="1.52427167">
        <ele>1313.0</ele>
        <time>2019-08-04T07:29:59.774Z</time>
      </trkpt>
      <trkpt lat="42.54561667" lon="1.52431667">
        <ele>1314.0</ele>
        <time>2019-08-04T07:30:00.776Z</time>
      </trkpt>
      <trkpt lat="42.54561667" lon="1.52431667">
        <ele>1314.0</ele>
        <time>2019-08-04T07:30:01.801Z</time>
      </trkpt>
      <trkpt lat="42.54569833" lon="1.524365">
        <ele>1315.0</ele>
        <time>2019-08-04T07:30:02.785Z</time>
      </trkpt>
      <trkpt lat="42.54569833" lon="1.524365">
        <ele>1315.0</ele>
        <time>2019-08-04T07:30:03.773Z</time>
      </trkpt>
      <trkpt lat="42.545785" lon="1.52441333">
        <ele>1316.0</ele>
        <time>2019-08-04T07:30:04.776Z</time>
      </trkpt>
      <trkpt lat="42.54583167" lon="1.52443667">
        <ele>1316.0</ele>
        <time>2019-08-04T07:30:05.775Z</time>
      </trkpt>
      <trkpt lat="42.54583167" lon="1.52443667">
        <ele>1316.0</ele>
        <time>2019-08-04T07:30:06.782Z</time>
      </trkpt>
      <trkpt lat="42.54591333" lon="1.52448">
        <ele>1316.0</ele>
        <time>2019-08-04T07:30:07.775Z</time>
      </trkpt>
      <trkpt lat="42.54595333" lon="1.52450333">
        <ele>1317.0</ele>
        <time>2019-08-04T07:30:08.799Z</time>
      </trkpt>
      <trkpt lat="42.54595333" lon="1.52450333">
        <ele>1317.0</ele>
        <time>2019-08-04T07:30:09.782Z</time>
      </trkpt>
      <trkpt lat="42.54602833" lon="1.52455333">
        <ele>1317.0</ele>
        <time>2019-08-04T07:30:10.776Z</time>
      </trkpt>
      <trkpt lat="42.54606667" lon="1.52458167">
        <ele>1318.0</ele>
        <time>2019-08-04T07:30:11.776Z</time>
      </trkpt>
      <trkpt lat="42.54606667" lon="1.52458167">
        <ele>1318.0</ele>
        <time>2019-08-04T07:30:12.777Z</time>
      </trkpt>
      <trkpt lat="42.54615" lon="1.524635">
        <ele>1318.0</ele>
        <time>2019-08-04T07:30:13.775Z</time>
      </trkpt>
      <trkpt lat="42.54615" lon="1.524635">
        <ele>1318.0</ele>
        <time>2019-08-04T07:30:14.771Z</time>
      </trkpt>
      <trkpt lat="42.54622" lon="1.52471167">
        <ele>1319.0</ele>
        <time>2019-08-04T07:30:15.790Z</time>
      </trkpt>
      <trkpt lat="42.54625167" lon="1.524745">
        <ele>1319.0</ele>
        <time>2019-08-04T07:30:16.783Z</time>
      </trkpt>
      <trkpt lat="42.54625167" lon="1.524745">
        <ele>1319.0</ele>
        <time>2019-08-04T07:30:17.773Z</time>
      </trkpt>
      <trkpt lat="42.54633167" lon="1.52474833">
        <ele>1319.0</ele>
        <time>2019-08-04T07:30:18.779Z</time>
      </trkpt>
      <trkpt lat="42.54633167" lon="1.52474833">
        <ele>1319.0</ele>
        <time>2019-08-04T07:30:19.774Z</time>
      </trkpt>
      <trkpt lat="42.54643" lon="1.52473333">
        <ele>1319.0</ele>
        <time>2019-08-04T07:30:20.776Z</time>
      </trkpt>
      <trkpt lat="42.54643" lon="1.52473333">
        <ele>1319.0</ele>
        <time>2019-08-04T07:30:21.795Z</time>
      </trkpt>
      <trkpt lat="42.54654667" lon="1.52472667">
        <ele>1319.0</ele>
        <time>2019-08-04T07:30:22.776Z</time>
      </trkpt>
      <trkpt lat="42.54654667" lon="1.52472667">
        <ele>1319.0</ele>
        <time>2019-08-04T07:30:23.773Z</time>
      </trkpt>
      <trkpt lat="42.54667333" lon="1.52473333">
        <ele>1319.0</ele>
        <time>2019-08-04T07:30:24.774Z</time>
      </trkpt>
      <trkpt lat="42.54667333" lon="1.52473333">
        <ele>1319.0</ele>
        <time>2019-08-04T07:30:25.791Z</time>
      </trkpt>
      <trkpt lat="42.546805" lon="1.52473833">
        <ele>1319.0</ele>
        <time>2019-08-04T07:30:26.776Z</time>
      </trkpt>
      <trkpt lat="42.546805" lon="1.52473833">
        <ele>1319.0</ele>
        <time>2019-08-04T07:30:27.773Z</time>
      </trkpt>
      <trkpt lat="42.54694667" lon="1.52473">
        <ele>1320.0</ele>
        <time>2019-08-04T07:30:28.796Z</time>
      </trkpt>
      <trkpt lat="42.54694667" lon="1.52473">
        <ele>1320.0</ele>
        <time>2019-08-04T07:30:29.773Z</time>
      </trkpt>
      <trkpt lat="42.54709667" lon="1.52471167">
        <ele>1319.0</ele>
        <time>2019-08-04T07:30:30.792Z</time>
      </trkpt>
      <trkpt lat="42.54717333" lon="1.5247">
        <ele>1319.0</ele>
        <time>2019-08-04T07:30:31.775Z</time>
      </trkpt>
      <trkpt lat="42.54725167" lon="1.52468833">
        <ele>1319.0</ele>
        <time>2019-08-04T07:30:32.791Z</time>
      </trkpt>
      <trkpt lat="42.54725167" lon="1.52468833">
        <ele>1319.0</ele>
        <time>2019-08-04T07:30:33.773Z</time>
      </trkpt>
      <trkpt lat="42.54740833" lon="1.52467">
        <ele>1318.0</ele>
        <time>2019-08-04T07:30:34.773Z</time>
      </trkpt>
      <trkpt lat="42.54740833" lon="1.52467">
        <ele>1318.0</ele>
        <time>2019-08-04T07:30:35.771Z</time>
      </trkpt>
      <trkpt lat="42.54756333" lon="1.52467333">
        <ele>1317.0</ele>
        <time>2019-08-04T07:30:36.790Z</time>
      </trkpt>
      <trkpt lat="42.54756333" lon="1.52467333">
        <ele>1317.0</ele>
        <time>2019-08-04T07:30:37.774Z</time>
      </trkpt>
      <trkpt lat="42.547725" lon="1.52476333">
        <ele>1317.0</ele>
        <time>2019-08-04T07:30:38.794Z</time>
      </trkpt>
      <trkpt lat="42.547725" lon="1.52476333">
        <ele>1317.0</ele>
        <time>2019-08-04T07:30:39.771Z</time>
      </trkpt>
      <trkpt lat="42.54787667" lon="1.52490833">
        <ele>1316.0</ele>
        <time>2019-08-04T07:30:40.790Z</time>
      </trkpt>
      <trkpt lat="42.54787667" lon="1.52490833">
        <ele>1316.0</ele>
        <time>2019-08-04T07:30:41.774Z</time>
      </trkpt>
      <trkpt lat="42.54800667" lon="1.52506">
        <ele>1315.0</ele>
        <time>2019-08-04T07:30:42.777Z</time>
      </trkpt>
      <trkpt lat="42.54800667" lon="1.52506">
        <ele>1315.0</ele>
        <time>2019-08-04T07:30:43.773Z</time>
      </trkpt>
      <trkpt lat="42.54814333" lon="1.52518667">
        <ele>1314.0</ele>
        <time>2019-08-04T07:30:44.776Z</time>
      </trkpt>
      <trkpt lat="42.54814333" lon="1.52518667">
        <ele>1314.0</ele>
        <time>2019-08-04T07:30:45.773Z</time>
      </trkpt>
      <trkpt lat="42.54830833" lon="1.52527">
        <ele>1314.0</ele>
        <time>2019-08-04T07:30:46.795Z</time>
      </trkpt>
      <trkpt lat="42.54830833" lon="1.52527">
        <ele>1314.0</ele>
        <time>2019-08-04T07:30:47.778Z</time>
      </trkpt>
      <trkpt lat="42.54850167" lon="1.52533667">
        <ele>1313.0</ele>
        <time>2019-08-04T07:30:48.801Z</time>
      </trkpt>
      <trkpt lat="42.54850167" lon="1.52533667">
        <ele>1313.0</ele>
        <time>2019-08-04T07:30:49.783Z</time>
      </trkpt>
      <trkpt lat="42.54871" lon="1.52537833">
        <ele>1312.0</ele>
        <time>2019-08-04T07:30:50.776Z</time>
      </trkpt>
      <trkpt lat="42.54871" lon="1.52537833">
        <ele>1312.0</ele>
        <time>2019-08-04T07:30:51.775Z</time>
      </trkpt>
      <trkpt lat="42.54893667" lon="1.52545">
        <ele>1312.0</ele>
        <time>2019-08-04T07:30:52.775Z</time>
      </trkpt>
      <trkpt lat="42.54903667" lon="1.52550333">
        <ele>1312.0</ele>
        <time>2019-08-04T07:30:53.790Z</time>
      </trkpt>
      <trkpt lat="42.54903667" lon="1.52550333">
        <ele>1312.0</ele>
        <time>2019-08-04T07:30:54.771Z</time>
      </trkpt>
      <trkpt lat="42.54923167" lon="1.5256">
        <ele>1311.0</ele>
        <time>2019-08-04T07:30:55.791Z</time>
      </trkpt>
      <trkpt lat="42.54933833" lon="1.52565167">
        <ele>1311.0</ele>
        <time>2019-08-04T07:30:56.774Z</time>
      </trkpt>
      <trkpt lat="42.54933833" lon="1.52565167">
        <ele>1311.0</ele>
        <time>2019-08-04T07:30:57.773Z</time>
      </trkpt>
      <trkpt lat="42.54957" lon="1.52576167">
        <ele>1309.0</ele>
        <time>2019-08-04T07:30:58.798Z</time>
      </trkpt>
      <trkpt lat="42.54957" lon="1.52576167">
        <ele>1309.0</ele>
        <time>2019-08-04T07:30:59.779Z</time>
      </trkpt>
      <trkpt lat="42.54980333" lon="1.52588333">
        <ele>1308.0</ele>
        <time>2019-08-04T07:31:00.776Z</time>
      </trkpt>
      <trkpt lat="42.54980333" lon="1.52588333">
        <ele>1308.0</ele>
        <time>2019-08-04T07:31:01.773Z</time>
      </trkpt>
      <trkpt lat="42.55004167" lon="1.52600167">
        <ele>1307.0</ele>
        <time>2019-08-04T07:31:02.776Z</time>
      </trkpt>
      <trkpt lat="42.55004167" lon="1.52600167">
        <ele>1307.0</ele>
        <time>2019-08-04T07:31:03.783Z</time>
      </trkpt>
      <trkpt lat="42.55027333" lon="1.52616833">
        <ele>1306.0</ele>
        <time>2019-08-04T07:31:04.776Z</time>
      </trkpt>
      <trkpt lat="42.550395" lon="1.52624667">
        <ele>1306.0</ele>
        <time>2019-08-04T07:31:05.793Z</time>
      </trkpt>
      <trkpt lat="42.550395" lon="1.52624667">
        <ele>1306.0</ele>
        <time>2019-08-04T07:31:06.792Z</time>
      </trkpt>
      <trkpt lat="42.55063333" lon="1.52642667">
        <ele>1304.0</ele>
        <time>2019-08-04T07:31:07.766Z</time>
      </trkpt>
      <trkpt lat="42.550755" lon="1.526515">
        <ele>1304.0</ele>
        <time>2019-08-04T07:31:08.801Z</time>
      </trkpt>
      <trkpt lat="42.550755" lon="1.526515">
        <ele>1304.0</ele>
        <time>2019-08-04T07:31:09.776Z</time>
      </trkpt>
      <trkpt lat="42.55099167" lon="1.52668">
        <ele>1302.0</ele>
        <time>2019-08-04T07:31:10.776Z</time>
      </trkpt>
      <trkpt lat="42.55099167" lon="1.52668">
        <ele>1302.0</ele>
        <time>2019-08-04T07:31:11.785Z</time>
      </trkpt>
      <trkpt lat="42.551185" lon="1.526775">
        <ele>1301.0</ele>
        <time>2019-08-04T07:31:12.788Z</time>
      </trkpt>
      <trkpt lat="42.551185" lon="1.526775">
        <ele>1301.0</ele>
        <time>2019-08-04T07:31:13.771Z</time>
      </trkpt>
      <trkpt lat="42.55134667" lon="1.52673">
        <ele>1301.0</ele>
        <time>2019-08-04T07:31:14.794Z</time>
      </trkpt>
      <trkpt lat="42.55134667" lon="1.52673">
        <ele>1301.0</ele>
        <time>2019-08-04T07:31:15.774Z</time>
      </trkpt>
      <trkpt lat="42.55143" lon="1.52656333">
        <ele>1300.0</ele>
        <time>2019-08-04T07:31:16.775Z</time>
      </trkpt>
      <trkpt lat="42.55143" lon="1.52656333">
        <ele>1300.0</ele>
        <time>2019-08-04T07:31:17.771Z</time>
      </trkpt>
      <trkpt lat="42.55155" lon="1.52645167">
        <ele>1299.0</ele>
        <time>2019-08-04T07:31:18.804Z</time>
      </trkpt>
      <trkpt lat="42.55155" lon="1.52645167">
        <ele>1299.0</ele>
        <time>2019-08-04T07:31:19.783Z</time>
      </trkpt>
      <trkpt lat="42.55169667" lon="1.52649333">
        <ele>1298.0</ele>
        <time>2019-08-04T07:31:20.778Z</time>
      </trkpt>
      <trkpt lat="42.55169667" lon="1.52649333">
        <ele>1298.0</ele>
        <time>2019-08-04T07:31:21.774Z</time>
      </trkpt>
      <trkpt lat="42.55183333" lon="1.52657833">
        <ele>1297.0</ele>
        <time>2019-08-04T07:31:22.776Z</time>
      </trkpt>
      <trkpt lat="42.55188833" lon="1.52663667">
        <ele>1297.0</ele>
        <time>2019-08-04T07:31:23.782Z</time>
      </trkpt>
      <trkpt lat="42.55188833" lon="1.52663667">
        <ele>1297.0</ele>
        <time>2019-08-04T07:31:24.775Z</time>
      </trkpt>
      <trkpt lat="42.55199833" lon="1.52676167">
        <ele>1296.0</ele>
        <time>2019-08-04T07:31:25.775Z</time>
      </trkpt>
      <trkpt lat="42.552055" lon="1.52683167">
        <ele>1295.0</ele>
        <time>2019-08-04T07:31:26.778Z</time>
      </trkpt>
      <trkpt lat="42.552055" lon="1.52683167">
        <ele>1295.0</ele>
        <time>2019-08-04T07:31:27.774Z</time>
      </trkpt>
      <trkpt lat="42.552165" lon="1.52697833">
        <ele>1295.0</ele>
        <time>2019-08-04T07:31:28.797Z</time>
      </trkpt>
      <trkpt lat="42.552165" lon="1.52697833">
        <ele>1295.0</ele>
        <time>2019-08-04T07:31:29.775Z</time>
      </trkpt>
      <trkpt lat="42.552265" lon="1.52709667">
        <ele>1294.0</ele>
        <time>2019-08-04T07:31:30.773Z</time>
      </trkpt>
      <trkpt lat="42.552265" lon="1.52709667">
        <ele>1294.0</ele>
        <time>2019-08-04T07:31:31.789Z</time>
      </trkpt>
      <trkpt lat="42.55235167" lon="1.52720833">
        <ele>1293.0</ele>
        <time>2019-08-04T07:31:32.778Z</time>
      </trkpt>
      <trkpt lat="42.55235167" lon="1.52720833">
        <ele>1293.0</ele>
        <time>2019-08-04T07:31:33.773Z</time>
      </trkpt>
      <trkpt lat="42.55243" lon="1.52731333">
        <ele>1292.0</ele>
        <time>2019-08-04T07:31:34.793Z</time>
      </trkpt>
      <trkpt lat="42.55243" lon="1.52731333">
        <ele>1292.0</ele>
        <time>2019-08-04T07:31:35.774Z</time>
      </trkpt>
      <trkpt lat="42.55250667" lon="1.52741167">
        <ele>1292.0</ele>
        <time>2019-08-04T07:31:36.795Z</time>
      </trkpt>
      <trkpt lat="42.55250667" lon="1.52741167">
        <ele>1292.0</ele>
        <time>2019-08-04T07:31:37.776Z</time>
      </trkpt>
      <trkpt lat="42.55258167" lon="1.52750833">
        <ele>1291.0</ele>
        <time>2019-08-04T07:31:38.801Z</time>
      </trkpt>
      <trkpt lat="42.55258167" lon="1.52750833">
        <ele>1291.0</ele>
        <time>2019-08-04T07:31:39.783Z</time>
      </trkpt>
      <trkpt lat="42.552655" lon="1.52761333">
        <ele>1290.0</ele>
        <time>2019-08-04T07:31:40.776Z</time>
      </trkpt>
      <trkpt lat="42.55269167" lon="1.527665">
        <ele>1290.0</ele>
        <time>2019-08-04T07:31:41.776Z</time>
      </trkpt>
      <trkpt lat="42.55272667" lon="1.52771167">
        <ele>1290.0</ele>
        <time>2019-08-04T07:31:42.774Z</time>
      </trkpt>
      <trkpt lat="42.55272667" lon="1.52771167">
        <ele>1290.0</ele>
        <time>2019-08-04T07:31:43.790Z</time>
      </trkpt>
      <trkpt lat="42.55279333" lon="1.52780333">
        <ele>1289.0</ele>
        <time>2019-08-04T07:31:44.776Z</time>
      </trkpt>
      <trkpt lat="42.55279333" lon="1.52780333">
        <ele>1289.0</ele>
        <time>2019-08-04T07:31:45.771Z</time>
      </trkpt>
      <trkpt lat="42.552865" lon="1.52789667">
        <ele>1289.0</ele>
        <time>2019-08-04T07:31:46.790Z</time>
      </trkpt>
      <trkpt lat="42.55289833" lon="1.52793833">
        <ele>1289.0</ele>
        <time>2019-08-04T07:31:47.773Z</time>
      </trkpt>
      <trkpt lat="42.552935" lon="1.52798">
        <ele>1288.0</ele>
        <time>2019-08-04T07:31:48.765Z</time>
      </trkpt>
      <trkpt lat="42.552935" lon="1.52798">
        <ele>1288.0</ele>
        <time>2019-08-04T07:31:49.783Z</time>
      </trkpt>
      <trkpt lat="42.55300333" lon="1.52806333">
        <ele>1288.0</ele>
        <time>2019-08-04T07:31:50.795Z</time>
      </trkpt>
      <trkpt lat="42.553035" lon="1.52810167">
        <ele>1288.0</ele>
        <time>2019-08-04T07:31:51.773Z</time>
      </trkpt>
      <trkpt lat="42.553035" lon="1.52810167">
        <ele>1288.0</ele>
        <time>2019-08-04T07:31:52.774Z</time>
      </trkpt>
      <trkpt lat="42.5531" lon="1.52818167">
        <ele>1287.0</ele>
        <time>2019-08-04T07:31:53.773Z</time>
      </trkpt>
      <trkpt lat="42.5531" lon="1.52818167">
        <ele>1287.0</ele>
        <time>2019-08-04T07:31:54.772Z</time>
      </trkpt>
      <trkpt lat="42.55316667" lon="1.528245">
        <ele>1287.0</ele>
        <time>2019-08-04T07:31:55.791Z</time>
      </trkpt>
      <trkpt lat="42.55319667" lon="1.528275">
        <ele>1287.0</ele>
        <time>2019-08-04T07:31:56.778Z</time>
      </trkpt>
      <trkpt lat="42.55319667" lon="1.528275">
        <ele>1287.0</ele>
        <time>2019-08-04T07:31:57.773Z</time>
      </trkpt>
      <trkpt lat="42.55326" lon="1.528335">
        <ele>1286.0</ele>
        <time>2019-08-04T07:31:58.776Z</time>
      </trkpt>
      <trkpt lat="42.55326" lon="1.528335">
        <ele>1286.0</ele>
        <time>2019-08-04T07:31:59.773Z</time>
      </trkpt>
      <trkpt lat="42.553325" lon="1.52839667">
        <ele>1286.0</ele>
        <time>2019-08-04T07:32:00.794Z</time>
      </trkpt>
      <trkpt lat="42.553325" lon="1.52839667">
        <ele>1286.0</ele>
        <time>2019-08-04T07:32:01.775Z</time>
      </trkpt>
      <trkpt lat="42.55339" lon="1.52846">
        <ele>1285.0</ele>
        <time>2019-08-04T07:32:02.776Z</time>
      </trkpt>
      <trkpt lat="42.55339" lon="1.52846">
        <ele>1285.0</ele>
        <time>2019-08-04T07:32:03.784Z</time>
      </trkpt>
      <trkpt lat="42.55345167" lon="1.52852167">
        <ele>1285.0</ele>
        <time>2019-08-04T07:32:04.777Z</time>
      </trkpt>
      <trkpt lat="42.553485" lon="1.52855167">
        <ele>1285.0</ele>
        <time>2019-08-04T07:32:05.774Z</time>
      </trkpt>
      <trkpt lat="42.553485" lon="1.52855167">
        <ele>1285.0</ele>
        <time>2019-08-04T07:32:06.792Z</time>
      </trkpt>
      <trkpt lat="42.55354667" lon="1.52861667">
        <ele>1285.0</ele>
        <time>2019-08-04T07:32:07.774Z</time>
      </trkpt>
      <trkpt lat="42.55357667" lon="1.52864833">
        <ele>1284.0</ele>
        <time>2019-08-04T07:32:08.766Z</time>
      </trkpt>
      <trkpt lat="42.55357667" lon="1.52864833">
        <ele>1284.0</ele>
        <time>2019-08-04T07:32:09.794Z</time>
      </trkpt>
      <trkpt lat="42.55364667" lon="1.52869667">
        <ele>1284.0</ele>
        <time>2019-08-04T07:32:10.786Z</time>
      </trkpt>
      <trkpt lat="42.55368667" lon="1.52871833">
        <ele>1284.0</ele>
        <time>2019-08-04T07:32:11.776Z</time>
      </trkpt>
      <trkpt lat="42.55368667" lon="1.52871833">
        <ele>1284.0</ele>
        <time>2019-08-04T07:32:12.773Z</time>
      </trkpt>
      <trkpt lat="42.553765" lon="1.52876833">
        <ele>1284.0</ele>
        <time>2019-08-04T07:32:13.792Z</time>
      </trkpt>
      <trkpt lat="42.55379833" lon="1.52878">
        <ele>1283.0</ele>
        <time>2019-08-04T07:32:14.778Z</time>
      </trkpt>
      <trkpt lat="42.55379833" lon="1.52878">
        <ele>1283.0</ele>
        <time>2019-08-04T07:32:15.774Z</time>
      </trkpt>
      <trkpt lat="42.55386667" lon="1.52882167">
        <ele>1283.0</ele>
        <time>2019-08-04T07:32:16.776Z</time>
      </trkpt>
      <trkpt lat="42.55386667" lon="1.52882167">
        <ele>1283.0</ele>
        <time>2019-08-04T07:32:17.771Z</time>
      </trkpt>
      <trkpt lat="42.55393" lon="1.52885667">
        <ele>1282.0</ele>
        <time>2019-08-04T07:32:18.804Z</time>
      </trkpt>
      <trkpt lat="42.55393" lon="1.52885667">
        <ele>1282.0</ele>
        <time>2019-08-04T07:32:19.783Z</time>
      </trkpt>
      <trkpt lat="42.55399667" lon="1.52889167">
        <ele>1282.0</ele>
        <time>2019-08-04T07:32:20.778Z</time>
      </trkpt>
      <trkpt lat="42.55399667" lon="1.52889167">
        <ele>1282.0</ele>
        <time>2019-08-04T07:32:21.793Z</time>
      </trkpt>
      <trkpt lat="42.55406167" lon="1.528925">
        <ele>1281.0</ele>
        <time>2019-08-04T07:32:22.776Z</time>
      </trkpt>
      <trkpt lat="42.55406167" lon="1.528925">
        <ele>1281.0</ele>
        <time>2019-08-04T07:32:23.773Z</time>
      </trkpt>
      <trkpt lat="42.55412667" lon="1.52896667">
        <ele>1281.0</ele>
        <time>2019-08-04T07:32:24.792Z</time>
      </trkpt>
      <trkpt lat="42.55412667" lon="1.52896667">
        <ele>1281.0</ele>
        <time>2019-08-04T07:32:25.774Z</time>
      </trkpt>
      <trkpt lat="42.5542" lon="1.52902667">
        <ele>1281.0</ele>
        <time>2019-08-04T07:32:26.779Z</time>
      </trkpt>
      <trkpt lat="42.5542" lon="1.52902667">
        <ele>1281.0</ele>
        <time>2019-08-04T07:32:27.774Z</time>
      </trkpt>
      <trkpt lat="42.55427667" lon="1.52909167">
        <ele>1281.0</ele>
        <time>2019-08-04T07:32:28.797Z</time>
      </trkpt>
      <trkpt lat="42.55427667" lon="1.52909167">
        <ele>1281.0</ele>
        <time>2019-08-04T07:32:29.777Z</time>
      </trkpt>
      <trkpt lat="42.55435667" lon="1.52915">
        <ele>1281.0</ele>
        <time>2019-08-04T07:32:30.779Z</time>
      </trkpt>
      <trkpt lat="42.55435667" lon="1.52915">
        <ele>1281.0</ele>
        <time>2019-08-04T07:32:31.774Z</time>
      </trkpt>
      <trkpt lat="42.554435" lon="1.52920667">
        <ele>1282.0</ele>
        <time>2019-08-04T07:32:32.778Z</time>
      </trkpt>
      <trkpt lat="42.554435" lon="1.52920667">
        <ele>1282.0</ele>
        <time>2019-08-04T07:32:33.773Z</time>
      </trkpt>
      <trkpt lat="42.5545" lon="1.529265">
        <ele>1282.0</ele>
        <time>2019-08-04T07:32:34.792Z</time>
      </trkpt>
      <trkpt lat="42.5545" lon="1.529265">
        <ele>1282.0</ele>
        <time>2019-08-04T07:32:35.775Z</time>
      </trkpt>
      <trkpt lat="42.55456167" lon="1.52932167">
        <ele>1282.0</ele>
        <time>2019-08-04T07:32:36.778Z</time>
      </trkpt>
      <trkpt lat="42.55456167" lon="1.52932167">
        <ele>1282.0</ele>
        <time>2019-08-04T07:32:37.774Z</time>
      </trkpt>
      <trkpt lat="42.55462167" lon="1.52939167">
        <ele>1282.0</ele>
        <time>2019-08-04T07:32:38.796Z</time>
      </trkpt>
      <trkpt lat="42.55462167" lon="1.52939167">
        <ele>1282.0</ele>
        <time>2019-08-04T07:32:39.775Z</time>
      </trkpt>
      <trkpt lat="42.554685" lon="1.529475">
        <ele>1283.0</ele>
        <time>2019-08-04T07:32:40.776Z</time>
      </trkpt>
      <trkpt lat="42.554685" lon="1.529475">
        <ele>1283.0</ele>
        <time>2019-08-04T07:32:41.774Z</time>
      </trkpt>
      <trkpt lat="42.55474" lon="1.52954833">
        <ele>1283.0</ele>
        <time>2019-08-04T07:32:42.777Z</time>
      </trkpt>
      <trkpt lat="42.55474" lon="1.52954833">
        <ele>1283.0</ele>
        <time>2019-08-04T07:32:43.774Z</time>
      </trkpt>
      <trkpt lat="42.55478833" lon="1.52963167">
        <ele>1283.0</ele>
        <time>2019-08-04T07:32:44.776Z</time>
      </trkpt>
      <trkpt lat="42.55478833" lon="1.52963167">
        <ele>1283.0</ele>
        <time>2019-08-04T07:32:45.771Z</time>
      </trkpt>
      <trkpt lat="42.55484167" lon="1.52971667">
        <ele>1283.0</ele>
        <time>2019-08-04T07:32:46.791Z</time>
      </trkpt>
      <trkpt lat="42.55484167" lon="1.52971667">
        <ele>1283.0</ele>
        <time>2019-08-04T07:32:47.775Z</time>
      </trkpt>
      <trkpt lat="42.55488" lon="1.52980167">
        <ele>1284.0</ele>
        <time>2019-08-04T07:32:48.801Z</time>
      </trkpt>
      <trkpt lat="42.55488" lon="1.52980167">
        <ele>1284.0</ele>
        <time>2019-08-04T07:32:49.783Z</time>
      </trkpt>
      <trkpt lat="42.55492" lon="1.52989">
        <ele>1284.0</ele>
        <time>2019-08-04T07:32:50.777Z</time>
      </trkpt>
      <trkpt lat="42.55492" lon="1.52989">
        <ele>1284.0</ele>
        <time>2019-08-04T07:32:51.772Z</time>
      </trkpt>
      <trkpt lat="42.55496167" lon="1.52998167">
        <ele>1284.0</ele>
        <time>2019-08-04T07:32:52.790Z</time>
      </trkpt>
      <trkpt lat="42.55496167" lon="1.52998167">
        <ele>1284.0</ele>
        <time>2019-08-04T07:32:53.773Z</time>
      </trkpt>
      <trkpt lat="42.55499667" lon="1.530065">
        <ele>1284.0</ele>
        <time>2019-08-04T07:32:54.792Z</time>
      </trkpt>
      <trkpt lat="42.55499667" lon="1.530065">
        <ele>1284.0</ele>
        <time>2019-08-04T07:32:55.774Z</time>
      </trkpt>
      <trkpt lat="42.55503" lon="1.53015">
        <ele>1284.0</ele>
        <time>2019-08-04T07:32:56.778Z</time>
      </trkpt>
      <trkpt lat="42.55503" lon="1.53015">
        <ele>1284.0</ele>
        <time>2019-08-04T07:32:57.774Z</time>
      </trkpt>
      <trkpt lat="42.55506667" lon="1.53023833">
        <ele>1284.0</ele>
        <time>2019-08-04T07:32:58.766Z</time>
      </trkpt>
      <trkpt lat="42.55506667" lon="1.53023833">
        <ele>1284.0</ele>
        <time>2019-08-04T07:32:59.784Z</time>
      </trkpt>
      <trkpt lat="42.55511167" lon="1.53034167">
        <ele>1285.0</ele>
        <time>2019-08-04T07:33:00.778Z</time>
      </trkpt>
      <trkpt lat="42.55511167" lon="1.53034167">
        <ele>1285.0</ele>
        <time>2019-08-04T07:33:01.774Z</time>
      </trkpt>
      <trkpt lat="42.55515333" lon="1.53044">
        <ele>1285.0</ele>
        <time>2019-08-04T07:33:02.778Z</time>
      </trkpt>
      <trkpt lat="42.55515333" lon="1.53044">
        <ele>1285.0</ele>
        <time>2019-08-04T07:33:03.780Z</time>
      </trkpt>
      <trkpt lat="42.55519667" lon="1.530525">
        <ele>1285.0</ele>
        <time>2019-08-04T07:33:04.777Z</time>
      </trkpt>
      <trkpt lat="42.55519667" lon="1.530525">
        <ele>1285.0</ele>
        <time>2019-08-04T07:33:05.783Z</time>
      </trkpt>
      <trkpt lat="42.555245" lon="1.53061">
        <ele>1286.0</ele>
        <time>2019-08-04T07:33:06.765Z</time>
      </trkpt>
      <trkpt lat="42.555265" lon="1.53064833">
        <ele>1286.0</ele>
        <time>2019-08-04T07:33:07.773Z</time>
      </trkpt>
      <trkpt lat="42.55528333" lon="1.53069">
        <ele>1286.0</ele>
        <time>2019-08-04T07:33:08.794Z</time>
      </trkpt>
      <trkpt lat="42.55528333" lon="1.53069">
        <ele>1286.0</ele>
        <time>2019-08-04T07:33:09.775Z</time>
      </trkpt>
      <trkpt lat="42.55531833" lon="1.53077333">
        <ele>1286.0</ele>
        <time>2019-08-04T07:33:10.784Z</time>
      </trkpt>
      <trkpt lat="42.55531833" lon="1.53077333">
        <ele>1286.0</ele>
        <time>2019-08-04T07:33:11.776Z</time>
      </trkpt>
      <trkpt lat="42.55535833" lon="1.53085833">
        <ele>1286.0</ele>
        <time>2019-08-04T07:33:12.778Z</time>
      </trkpt>
      <trkpt lat="42.55538" lon="1.53090333">
        <ele>1286.0</ele>
        <time>2019-08-04T07:33:13.778Z</time>
      </trkpt>
      <trkpt lat="42.55538" lon="1.53090333">
        <ele>1286.0</ele>
        <time>2019-08-04T07:33:14.773Z</time>
      </trkpt>
      <trkpt lat="42.55542" lon="1.531">
        <ele>1287.0</ele>
        <time>2019-08-04T07:33:15.794Z</time>
      </trkpt>
      <trkpt lat="42.55544" lon="1.53104833">
        <ele>1287.0</ele>
        <time>2019-08-04T07:33:16.777Z</time>
      </trkpt>
      <trkpt lat="42.55544" lon="1.53104833">
        <ele>1287.0</ele>
        <time>2019-08-04T07:33:17.772Z</time>
      </trkpt>
      <trkpt lat="42.555475" lon="1.53114667">
        <ele>1287.0</ele>
        <time>2019-08-04T07:33:18.791Z</time>
      </trkpt>
      <trkpt lat="42.555475" lon="1.53114667">
        <ele>1287.0</ele>
        <time>2019-08-04T07:33:19.772Z</time>
      </trkpt>
      <trkpt lat="42.55550667" lon="1.531255">
        <ele>1287.0</ele>
        <time>2019-08-04T07:33:20.791Z</time>
      </trkpt>
      <trkpt lat="42.55550667" lon="1.531255">
        <ele>1287.0</ele>
        <time>2019-08-04T07:33:21.772Z</time>
      </trkpt>
      <trkpt lat="42.55553" lon="1.53135667">
        <ele>1287.0</ele>
        <time>2019-08-04T07:33:22.791Z</time>
      </trkpt>
      <trkpt lat="42.55553" lon="1.53135667">
        <ele>1287.0</ele>
        <time>2019-08-04T07:33:23.774Z</time>
      </trkpt>
      <trkpt lat="42.555545" lon="1.531455">
        <ele>1287.0</ele>
        <time>2019-08-04T07:33:24.793Z</time>
      </trkpt>
      <trkpt lat="42.555545" lon="1.531455">
        <ele>1287.0</ele>
        <time>2019-08-04T07:33:25.773Z</time>
      </trkpt>
      <trkpt lat="42.55556167" lon="1.53154333">
        <ele>1288.0</ele>
        <time>2019-08-04T07:33:26.792Z</time>
      </trkpt>
      <trkpt lat="42.55556167" lon="1.53154333">
        <ele>1288.0</ele>
        <time>2019-08-04T07:33:27.772Z</time>
      </trkpt>
      <trkpt lat="42.55557" lon="1.53164">
        <ele>1289.0</ele>
        <time>2019-08-04T07:33:28.792Z</time>
      </trkpt>
      <trkpt lat="42.55557" lon="1.53164">
        <ele>1289.0</ele>
        <time>2019-08-04T07:33:29.775Z</time>
      </trkpt>
      <trkpt lat="42.55558" lon="1.53173333">
        <ele>1290.0</ele>
        <time>2019-08-04T07:33:30.778Z</time>
      </trkpt>
      <trkpt lat="42.55558" lon="1.53173333">
        <ele>1290.0</ele>
        <time>2019-08-04T07:33:31.771Z</time>
      </trkpt>
      <trkpt lat="42.55557833" lon="1.53182833">
        <ele>1291.0</ele>
        <time>2019-08-04T07:33:32.790Z</time>
      </trkpt>
      <trkpt lat="42.55557833" lon="1.53182833">
        <ele>1291.0</ele>
        <time>2019-08-04T07:33:33.773Z</time>
      </trkpt>
      <trkpt lat="42.55558" lon="1.53192">
        <ele>1292.0</ele>
        <time>2019-08-04T07:33:34.783Z</time>
      </trkpt>
      <trkpt lat="42.55558" lon="1.53192">
        <ele>1292.0</ele>
        <time>2019-08-04T07:33:35.772Z</time>
      </trkpt>
      <trkpt lat="42.555575" lon="1.53201167">
        <ele>1292.0</ele>
        <time>2019-08-04T07:33:36.792Z</time>
      </trkpt>
      <trkpt lat="42.555575" lon="1.53201167">
        <ele>1292.0</ele>
        <time>2019-08-04T07:33:37.774Z</time>
      </trkpt>
      <trkpt lat="42.555565" lon="1.53209667">
        <ele>1293.0</ele>
        <time>2019-08-04T07:33:38.795Z</time>
      </trkpt>
      <trkpt lat="42.555565" lon="1.53209667">
        <ele>1293.0</ele>
        <time>2019-08-04T07:33:39.773Z</time>
      </trkpt>
      <trkpt lat="42.55556333" lon="1.53218333">
        <ele>1294.0</ele>
        <time>2019-08-04T07:33:40.792Z</time>
      </trkpt>
      <trkpt lat="42.55556333" lon="1.53218333">
        <ele>1294.0</ele>
        <time>2019-08-04T07:33:41.786Z</time>
      </trkpt>
      <trkpt lat="42.555555" lon="1.53227333">
        <ele>1294.0</ele>
        <time>2019-08-04T07:33:42.778Z</time>
      </trkpt>
      <trkpt lat="42.555555" lon="1.53227333">
        <ele>1294.0</ele>
        <time>2019-08-04T07:33:43.775Z</time>
      </trkpt>
      <trkpt lat="42.55555333" lon="1.53236667">
        <ele>1295.0</ele>
        <time>2019-08-04T07:33:44.778Z</time>
      </trkpt>
      <trkpt lat="42.55555333" lon="1.53236667">
        <ele>1295.0</ele>
        <time>2019-08-04T07:33:45.793Z</time>
      </trkpt>
      <trkpt lat="42.55554833" lon="1.53245">
        <ele>1296.0</ele>
        <time>2019-08-04T07:33:46.778Z</time>
      </trkpt>
      <trkpt lat="42.55554833" lon="1.53245">
        <ele>1296.0</ele>
        <time>2019-08-04T07:33:47.774Z</time>
      </trkpt>
      <trkpt lat="42.555555" lon="1.53253833">
        <ele>1296.0</ele>
        <time>2019-08-04T07:33:48.797Z</time>
      </trkpt>
      <trkpt lat="42.555555" lon="1.53253833">
        <ele>1296.0</ele>
        <time>2019-08-04T07:33:49.774Z</time>
      </trkpt>
      <trkpt lat="42.55556167" lon="1.532625">
        <ele>1297.0</ele>
        <time>2019-08-04T07:33:50.793Z</time>
      </trkpt>
      <trkpt lat="42.55556167" lon="1.532625">
        <ele>1297.0</ele>
        <time>2019-08-04T07:33:51.771Z</time>
      </trkpt>
      <trkpt lat="42.55555333" lon="1.53270167">
        <ele>1297.0</ele>
        <time>2019-08-04T07:33:52.790Z</time>
      </trkpt>
      <trkpt lat="42.55555333" lon="1.53270167">
        <ele>1297.0</ele>
        <time>2019-08-04T07:33:53.775Z</time>
      </trkpt>
      <trkpt lat="42.55555167" lon="1.53276833">
        <ele>1298.0</ele>
        <time>2019-08-04T07:33:54.778Z</time>
      </trkpt>
      <trkpt lat="42.55554" lon="1.53280167">
        <ele>1298.0</ele>
        <time>2019-08-04T07:33:55.793Z</time>
      </trkpt>
      <trkpt lat="42.55554" lon="1.53280167">
        <ele>1298.0</ele>
        <time>2019-08-04T07:33:56.774Z</time>
      </trkpt>
      <trkpt lat="42.55551" lon="1.532875">
        <ele>1298.0</ele>
        <time>2019-08-04T07:33:57.776Z</time>
      </trkpt>
      <trkpt lat="42.55549" lon="1.53290667">
        <ele>1299.0</ele>
        <time>2019-08-04T07:33:58.798Z</time>
      </trkpt>
      <trkpt lat="42.55549" lon="1.53290667">
        <ele>1299.0</ele>
        <time>2019-08-04T07:33:59.775Z</time>
      </trkpt>
      <trkpt lat="42.55544167" lon="1.53295167">
        <ele>1299.0</ele>
        <time>2019-08-04T07:34:00.778Z</time>
      </trkpt>
      <trkpt lat="42.55544167" lon="1.53295167">
        <ele>1299.0</ele>
        <time>2019-08-04T07:34:01.793Z</time>
      </trkpt>
      <trkpt lat="42.55538833" lon="1.532945">
        <ele>1299.0</ele>
        <time>2019-08-04T07:34:02.778Z</time>
      </trkpt>
      <trkpt lat="42.55538833" lon="1.532945">
        <ele>1299.0</ele>
        <time>2019-08-04T07:34:03.773Z</time>
      </trkpt>
      <trkpt lat="42.55534167" lon="1.53291">
        <ele>1299.0</ele>
        <time>2019-08-04T07:34:04.785Z</time>
      </trkpt>
      <trkpt lat="42.55534167" lon="1.53291">
        <ele>1299.0</ele>
        <time>2019-08-04T07:34:05.775Z</time>
      </trkpt>
      <trkpt lat="42.55528667" lon="1.53287">
        <ele>1300.0</ele>
        <time>2019-08-04T07:34:06.793Z</time>
      </trkpt>
      <trkpt lat="42.55528667" lon="1.53287">
        <ele>1300.0</ele>
        <time>2019-08-04T07:34:07.775Z</time>
      </trkpt>
      <trkpt lat="42.55522333" lon="1.53283167">
        <ele>1300.0</ele>
        <time>2019-08-04T07:34:08.804Z</time>
      </trkpt>
      <trkpt lat="42.55522333" lon="1.53283167">
        <ele>1300.0</ele>
        <time>2019-08-04T07:34:09.791Z</time>
      </trkpt>
      <trkpt lat="42.55516333" lon="1.53279667">
        <ele>1301.0</ele>
        <time>2019-08-04T07:34:10.776Z</time>
      </trkpt>
      <trkpt lat="42.55516333" lon="1.53279667">
        <ele>1301.0</ele>
        <time>2019-08-04T07:34:11.773Z</time>
      </trkpt>
      <trkpt lat="42.55509333" lon="1.53276">
        <ele>1301.0</ele>
        <time>2019-08-04T07:34:12.774Z</time>
      </trkpt>
      <trkpt lat="42.55509333" lon="1.53276">
        <ele>1301.0</ele>
        <time>2019-08-04T07:34:13.789Z</time>
      </trkpt>
      <trkpt lat="42.55502833" lon="1.53270833">
        <ele>1302.0</ele>
        <time>2019-08-04T07:34:14.778Z</time>
      </trkpt>
      <trkpt lat="42.55502833" lon="1.53270833">
        <ele>1302.0</ele>
        <time>2019-08-04T07:34:15.803Z</time>
      </trkpt>
      <trkpt lat="42.55496667" lon="1.53265333">
        <ele>1303.0</ele>
        <time>2019-08-04T07:34:16.778Z</time>
      </trkpt>
      <trkpt lat="42.55493333" lon="1.53262667">
        <ele>1303.0</ele>
        <time>2019-08-04T07:34:17.793Z</time>
      </trkpt>
      <trkpt lat="42.55490667" lon="1.53258833">
        <ele>1303.0</ele>
        <time>2019-08-04T07:34:18.795Z</time>
      </trkpt>
      <trkpt lat="42.55490667" lon="1.53258833">
        <ele>1303.0</ele>
        <time>2019-08-04T07:34:19.776Z</time>
      </trkpt>
      <trkpt lat="42.55484833" lon="1.53251333">
        <ele>1303.0</ele>
        <time>2019-08-04T07:34:20.779Z</time>
      </trkpt>
      <trkpt lat="42.55484833" lon="1.53251333">
        <ele>1303.0</ele>
        <time>2019-08-04T07:34:21.774Z</time>
      </trkpt>
      <trkpt lat="42.55478" lon="1.53243667">
        <ele>1304.0</ele>
        <time>2019-08-04T07:34:22.774Z</time>
      </trkpt>
      <trkpt lat="42.55474667" lon="1.53240333">
        <ele>1304.0</ele>
        <time>2019-08-04T07:34:23.789Z</time>
      </trkpt>
      <trkpt lat="42.55474667" lon="1.53240333">
        <ele>1304.0</ele>
        <time>2019-08-04T07:34:24.773Z</time>
      </trkpt>
      <trkpt lat="42.55467333" lon="1.53234833">
        <ele>1304.0</ele>
        <time>2019-08-04T07:34:25.792Z</time>
      </trkpt>
      <trkpt lat="42.55463667" lon="1.53231667">
        <ele>1305.0</ele>
        <time>2019-08-04T07:34:26.778Z</time>
      </trkpt>
      <trkpt lat="42.55463667" lon="1.53231667">
        <ele>1305.0</ele>
        <time>2019-08-04T07:34:27.794Z</time>
      </trkpt>
      <trkpt lat="42.55456333" lon="1.53225167">
        <ele>1305.0</ele>
        <time>2019-08-04T07:34:28.799Z</time>
      </trkpt>
      <trkpt lat="42.55456333" lon="1.53225167">
        <ele>1305.0</ele>
        <time>2019-08-04T07:34:29.780Z</time>
      </trkpt>
      <trkpt lat="42.55448167" lon="1.53221167">
        <ele>1306.0</ele>
        <time>2019-08-04T07:34:30.778Z</time>
      </trkpt>
      <trkpt lat="42.55448167" lon="1.53221167">
        <ele>1306.0</ele>
        <time>2019-08-04T07:34:31.793Z</time>
      </trkpt>
      <trkpt lat="42.554395" lon="1.53217667">
        <ele>1306.0</ele>
        <time>2019-08-04T07:34:32.778Z</time>
      </trkpt>
      <trkpt lat="42.554395" lon="1.53217667">
        <ele>1306.0</ele>
        <time>2019-08-04T07:34:33.793Z</time>
      </trkpt>
      <trkpt lat="42.554305" lon="1.53214667">
        <ele>1307.0</ele>
        <time>2019-08-04T07:34:34.780Z</time>
      </trkpt>
      <trkpt lat="42.554305" lon="1.53214667">
        <ele>1307.0</ele>
        <time>2019-08-04T07:34:35.774Z</time>
      </trkpt>
      <trkpt lat="42.55422167" lon="1.53211667">
        <ele>1309.0</ele>
        <time>2019-08-04T07:34:36.793Z</time>
      </trkpt>
      <trkpt lat="42.55422167" lon="1.53211667">
        <ele>1309.0</ele>
        <time>2019-08-04T07:34:37.774Z</time>
      </trkpt>
      <trkpt lat="42.55413833" lon="1.532075">
        <ele>1309.0</ele>
        <time>2019-08-04T07:34:38.798Z</time>
      </trkpt>
      <trkpt lat="42.55413833" lon="1.532075">
        <ele>1309.0</ele>
        <time>2019-08-04T07:34:39.794Z</time>
      </trkpt>
      <trkpt lat="42.554055" lon="1.532035">
        <ele>1310.0</ele>
        <time>2019-08-04T07:34:40.774Z</time>
      </trkpt>
      <trkpt lat="42.554055" lon="1.532035">
        <ele>1310.0</ele>
        <time>2019-08-04T07:34:41.789Z</time>
      </trkpt>
      <trkpt lat="42.55397" lon="1.53199667">
        <ele>1310.0</ele>
        <time>2019-08-04T07:34:42.778Z</time>
      </trkpt>
      <trkpt lat="42.55397" lon="1.53199667">
        <ele>1310.0</ele>
        <time>2019-08-04T07:34:43.772Z</time>
      </trkpt>
      <trkpt lat="42.55388333" lon="1.53195667">
        <ele>1311.0</ele>
        <time>2019-08-04T07:34:44.792Z</time>
      </trkpt>
      <trkpt lat="42.55388333" lon="1.53195667">
        <ele>1311.0</ele>
        <time>2019-08-04T07:34:45.774Z</time>
      </trkpt>
      <trkpt lat="42.55379667" lon="1.53193">
        <ele>1312.0</ele>
        <time>2019-08-04T07:34:46.793Z</time>
      </trkpt>
      <trkpt lat="42.55379667" lon="1.53193">
        <ele>1312.0</ele>
        <time>2019-08-04T07:34:47.774Z</time>
      </trkpt>
      <trkpt lat="42.55371667" lon="1.53197">
        <ele>1313.0</ele>
        <time>2019-08-04T07:34:48.798Z</time>
      </trkpt>
      <trkpt lat="42.55371667" lon="1.53197">
        <ele>1313.0</ele>
        <time>2019-08-04T07:34:49.776Z</time>
      </trkpt>
      <trkpt lat="42.55366667" lon="1.53208">
        <ele>1313.0</ele>
        <time>2019-08-04T07:34:50.778Z</time>
      </trkpt>
      <trkpt lat="42.55366667" lon="1.53208">
        <ele>1313.0</ele>
        <time>2019-08-04T07:34:51.794Z</time>
      </trkpt>
      <trkpt lat="42.55368" lon="1.53220333">
        <ele>1314.0</ele>
        <time>2019-08-04T07:34:52.778Z</time>
      </trkpt>
      <trkpt lat="42.55369667" lon="1.53225333">
        <ele>1314.0</ele>
        <time>2019-08-04T07:34:53.793Z</time>
      </trkpt>
      <trkpt lat="42.55369667" lon="1.53225333">
        <ele>1314.0</ele>
        <time>2019-08-04T07:34:54.773Z</time>
      </trkpt>
      <trkpt lat="42.55373" lon="1.53233667">
        <ele>1314.0</ele>
        <time>2019-08-04T07:34:55.792Z</time>
      </trkpt>
      <trkpt lat="42.553745" lon="1.53237833">
        <ele>1315.0</ele>
        <time>2019-08-04T07:34:56.779Z</time>
      </trkpt>
      <trkpt lat="42.553745" lon="1.53237833">
        <ele>1315.0</ele>
        <time>2019-08-04T07:34:57.794Z</time>
      </trkpt>
      <trkpt lat="42.55377" lon="1.532465">
        <ele>1316.0</ele>
        <time>2019-08-04T07:34:58.797Z</time>
      </trkpt>
      <trkpt lat="42.55377" lon="1.532465">
        <ele>1316.0</ele>
        <time>2019-08-04T07:34:59.777Z</time>
      </trkpt>
      <trkpt lat="42.55379167" lon="1.53253667">
        <ele>1316.0</ele>
        <time>2019-08-04T07:35:00.779Z</time>
      </trkpt>
      <trkpt lat="42.55379167" lon="1.53253667">
        <ele>1316.0</ele>
        <time>2019-08-04T07:35:01.793Z</time>
      </trkpt>
      <trkpt lat="42.55379833" lon="1.53261667">
        <ele>1317.0</ele>
        <time>2019-08-04T07:35:02.778Z</time>
      </trkpt>
      <trkpt lat="42.55379833" lon="1.53261667">
        <ele>1317.0</ele>
        <time>2019-08-04T07:35:03.793Z</time>
      </trkpt>
      <trkpt lat="42.553815" lon="1.53269">
        <ele>1318.0</ele>
        <time>2019-08-04T07:35:04.774Z</time>
      </trkpt>
      <trkpt lat="42.55382333" lon="1.53272667">
        <ele>1318.0</ele>
        <time>2019-08-04T07:35:05.796Z</time>
      </trkpt>
      <trkpt lat="42.55382333" lon="1.53272667">
        <ele>1318.0</ele>
        <time>2019-08-04T07:35:06.791Z</time>
      </trkpt>
      <trkpt lat="42.553835" lon="1.53279667">
        <ele>1319.0</ele>
        <time>2019-08-04T07:35:07.798Z</time>
      </trkpt>
      <trkpt lat="42.55384167" lon="1.53283333">
        <ele>1319.0</ele>
        <time>2019-08-04T07:35:08.769Z</time>
      </trkpt>
      <trkpt lat="42.55384167" lon="1.53283333">
        <ele>1319.0</ele>
        <time>2019-08-04T07:35:09.766Z</time>
      </trkpt>
      <trkpt lat="42.55385333" lon="1.532905">
        <ele>1320.0</ele>
        <time>2019-08-04T07:35:10.785Z</time>
      </trkpt>
      <trkpt lat="42.55385333" lon="1.532905">
        <ele>1320.0</ele>
        <time>2019-08-04T07:35:11.773Z</time>
      </trkpt>
      <trkpt lat="42.55386333" lon="1.53297833">
        <ele>1320.0</ele>
        <time>2019-08-04T07:35:12.774Z</time>
      </trkpt>
      <trkpt lat="42.55386333" lon="1.53297833">
        <ele>1320.0</ele>
        <time>2019-08-04T07:35:13.772Z</time>
      </trkpt>
      <trkpt lat="42.55387" lon="1.53304833">
        <ele>1321.0</ele>
        <time>2019-08-04T07:35:14.791Z</time>
      </trkpt>
      <trkpt lat="42.55387" lon="1.53304833">
        <ele>1321.0</ele>
        <time>2019-08-04T07:35:15.772Z</time>
      </trkpt>
      <trkpt lat="42.55387333" lon="1.533125">
        <ele>1321.0</ele>
        <time>2019-08-04T07:35:16.792Z</time>
      </trkpt>
      <trkpt lat="42.55387333" lon="1.533125">
        <ele>1321.0</ele>
        <time>2019-08-04T07:35:17.774Z</time>
      </trkpt>
      <trkpt lat="42.55388333" lon="1.53320667">
        <ele>1322.0</ele>
        <time>2019-08-04T07:35:18.778Z</time>
      </trkpt>
      <trkpt lat="42.55388333" lon="1.53320667">
        <ele>1322.0</ele>
        <time>2019-08-04T07:35:19.773Z</time>
      </trkpt>
      <trkpt lat="42.55389333" lon="1.533295">
        <ele>1323.0</ele>
        <time>2019-08-04T07:35:20.792Z</time>
      </trkpt>
      <trkpt lat="42.55389333" lon="1.533295">
        <ele>1323.0</ele>
        <time>2019-08-04T07:35:21.795Z</time>
      </trkpt>
      <trkpt lat="42.5539" lon="1.53337833">
        <ele>1323.0</ele>
        <time>2019-08-04T07:35:22.778Z</time>
      </trkpt>
      <trkpt lat="42.553905" lon="1.533415">
        <ele>1324.0</ele>
        <time>2019-08-04T07:35:23.792Z</time>
      </trkpt>
      <trkpt lat="42.553905" lon="1.533415">
        <ele>1324.0</ele>
        <time>2019-08-04T07:35:24.773Z</time>
      </trkpt>
      <trkpt lat="42.55391833" lon="1.53349333">
        <ele>1325.0</ele>
        <time>2019-08-04T07:35:25.792Z</time>
      </trkpt>
      <trkpt lat="42.55392667" lon="1.53353">
        <ele>1325.0</ele>
        <time>2019-08-04T07:35:26.780Z</time>
      </trkpt>
      <trkpt lat="42.55392667" lon="1.53353">
        <ele>1325.0</ele>
        <time>2019-08-04T07:35:27.772Z</time>
      </trkpt>
      <trkpt lat="42.55393" lon="1.53361">
        <ele>1325.0</ele>
        <time>2019-08-04T07:35:28.804Z</time>
      </trkpt>
      <trkpt lat="42.55393" lon="1.53361">
        <ele>1325.0</ele>
        <time>2019-08-04T07:35:29.781Z</time>
      </trkpt>
      <trkpt lat="42.55391333" lon="1.53367333">
        <ele>1326.0</ele>
        <time>2019-08-04T07:35:30.778Z</time>
      </trkpt>
      <trkpt lat="42.55391333" lon="1.53367333">
        <ele>1326.0</ele>
        <time>2019-08-04T07:35:31.792Z</time>
      </trkpt>
      <trkpt lat="42.55388333" lon="1.53373">
        <ele>1327.0</ele>
        <time>2019-08-04T07:35:32.779Z</time>
      </trkpt>
      <trkpt lat="42.55386333" lon="1.53375167">
        <ele>1327.0</ele>
        <time>2019-08-04T07:35:33.784Z</time>
      </trkpt>
      <trkpt lat="42.55386333" lon="1.53375167">
        <ele>1327.0</ele>
        <time>2019-08-04T07:35:34.790Z</time>
      </trkpt>
      <trkpt lat="42.55381833" lon="1.53377667">
        <ele>1327.0</ele>
        <time>2019-08-04T07:35:35.777Z</time>
      </trkpt>
      <trkpt lat="42.55379167" lon="1.53378">
        <ele>1328.0</ele>
        <time>2019-08-04T07:35:36.792Z</time>
      </trkpt>
      <trkpt lat="42.55379167" lon="1.53378">
        <ele>1328.0</ele>
        <time>2019-08-04T07:35:37.773Z</time>
      </trkpt>
      <trkpt lat="42.55374333" lon="1.53377">
        <ele>1329.0</ele>
        <time>2019-08-04T07:35:38.766Z</time>
      </trkpt>
      <trkpt lat="42.55374333" lon="1.53377">
        <ele>1329.0</ele>
        <time>2019-08-04T07:35:39.785Z</time>
      </trkpt>
      <trkpt lat="42.5537" lon="1.53373833">
        <ele>1329.0</ele>
        <time>2019-08-04T07:35:40.777Z</time>
      </trkpt>
      <trkpt lat="42.5537" lon="1.53373833">
        <ele>1329.0</ele>
        <time>2019-08-04T07:35:41.773Z</time>
      </trkpt>
      <trkpt lat="42.55366167" lon="1.53369833">
        <ele>1330.0</ele>
        <time>2019-08-04T07:35:42.781Z</time>
      </trkpt>
      <trkpt lat="42.55366167" lon="1.53369833">
        <ele>1330.0</ele>
        <time>2019-08-04T07:35:43.773Z</time>
      </trkpt>
      <trkpt lat="42.55362833" lon="1.53365">
        <ele>1331.0</ele>
        <time>2019-08-04T07:35:44.792Z</time>
      </trkpt>
      <trkpt lat="42.55362833" lon="1.53365">
        <ele>1331.0</ele>
        <time>2019-08-04T07:35:45.774Z</time>
      </trkpt>
      <trkpt lat="42.55358667" lon="1.53359667">
        <ele>1331.0</ele>
        <time>2019-08-04T07:35:46.794Z</time>
      </trkpt>
      <trkpt lat="42.55358667" lon="1.53359667">
        <ele>1331.0</ele>
        <time>2019-08-04T07:35:47.775Z</time>
      </trkpt>
      <trkpt lat="42.553545" lon="1.53354667">
        <ele>1332.0</ele>
        <time>2019-08-04T07:35:48.768Z</time>
      </trkpt>
      <trkpt lat="42.553545" lon="1.53354667">
        <ele>1332.0</ele>
        <time>2019-08-04T07:35:49.785Z</time>
      </trkpt>
      <trkpt lat="42.55350833" lon="1.53349">
        <ele>1333.0</ele>
        <time>2019-08-04T07:35:50.779Z</time>
      </trkpt>
      <trkpt lat="42.55350833" lon="1.53349">
        <ele>1333.0</ele>
        <time>2019-08-04T07:35:51.796Z</time>
      </trkpt>
      <trkpt lat="42.55346667" lon="1.53343833">
        <ele>1333.0</ele>
        <time>2019-08-04T07:35:52.780Z</time>
      </trkpt>
      <trkpt lat="42.55346667" lon="1.53343833">
        <ele>1333.0</ele>
        <time>2019-08-04T07:35:53.772Z</time>
      </trkpt>
      <trkpt lat="42.55342167" lon="1.53338833">
        <ele>1334.0</ele>
        <time>2019-08-04T07:35:54.791Z</time>
      </trkpt>
      <trkpt lat="42.55340167" lon="1.53336">
        <ele>1334.0</ele>
        <time>2019-08-04T07:35:55.778Z</time>
      </trkpt>
      <trkpt lat="42.55338167" lon="1.53333">
        <ele>1335.0</ele>
        <time>2019-08-04T07:35:56.793Z</time>
      </trkpt>
      <trkpt lat="42.55338167" lon="1.53333">
        <ele>1335.0</ele>
        <time>2019-08-04T07:35:57.773Z</time>
      </trkpt>
      <trkpt lat="42.55334167" lon="1.53328">
        <ele>1335.0</ele>
        <time>2019-08-04T07:35:58.767Z</time>
      </trkpt>
      <trkpt lat="42.55334167" lon="1.53328">
        <ele>1335.0</ele>
        <time>2019-08-04T07:35:59.785Z</time>
      </trkpt>
      <trkpt lat="42.55329833" lon="1.53323333">
        <ele>1336.0</ele>
        <time>2019-08-04T07:36:00.779Z</time>
      </trkpt>
      <trkpt lat="42.55329833" lon="1.53323333">
        <ele>1336.0</ele>
        <time>2019-08-04T07:36:01.770Z</time>
      </trkpt>
      <trkpt lat="42.55325667" lon="1.53319333">
        <ele>1337.0</ele>
        <time>2019-08-04T07:36:02.792Z</time>
      </trkpt>
      <trkpt lat="42.55325667" lon="1.53319333">
        <ele>1337.0</ele>
        <time>2019-08-04T07:36:03.789Z</time>
      </trkpt>
      <trkpt lat="42.553215" lon="1.53315167">
        <ele>1338.0</ele>
        <time>2019-08-04T07:36:04.792Z</time>
      </trkpt>
      <trkpt lat="42.553215" lon="1.53315167">
        <ele>1338.0</ele>
        <time>2019-08-04T07:36:05.773Z</time>
      </trkpt>
      <trkpt lat="42.553175" lon="1.53311">
        <ele>1338.0</ele>
        <time>2019-08-04T07:36:06.792Z</time>
      </trkpt>
      <trkpt lat="42.553175" lon="1.53311">
        <ele>1338.0</ele>
        <time>2019-08-04T07:36:07.774Z</time>
      </trkpt>
      <trkpt lat="42.55313167" lon="1.53308167">
        <ele>1339.0</ele>
        <time>2019-08-04T07:36:08.775Z</time>
      </trkpt>
      <trkpt lat="42.55313167" lon="1.53308167">
        <ele>1339.0</ele>
        <time>2019-08-04T07:36:09.794Z</time>
      </trkpt>
      <trkpt lat="42.55308333" lon="1.53305667">
        <ele>1340.0</ele>
        <time>2019-08-04T07:36:10.779Z</time>
      </trkpt>
      <trkpt lat="42.55305833" lon="1.53304333">
        <ele>1340.0</ele>
        <time>2019-08-04T07:36:11.774Z</time>
      </trkpt>
      <trkpt lat="42.55303" lon="1.533035">
        <ele>1340.0</ele>
        <time>2019-08-04T07:36:12.780Z</time>
      </trkpt>
      <trkpt lat="42.55303" lon="1.533035">
        <ele>1340.0</ele>
        <time>2019-08-04T07:36:13.773Z</time>
      </trkpt>
      <trkpt lat="42.552975" lon="1.53303333">
        <ele>1341.0</ele>
        <time>2019-08-04T07:36:14.792Z</time>
      </trkpt>
      <trkpt lat="42.552975" lon="1.53303333">
        <ele>1341.0</ele>
        <time>2019-08-04T07:36:15.774Z</time>
      </trkpt>
      <trkpt lat="42.55291833" lon="1.53302">
        <ele>1342.0</ele>
        <time>2019-08-04T07:36:16.794Z</time>
      </trkpt>
      <trkpt lat="42.55291833" lon="1.53302">
        <ele>1342.0</ele>
        <time>2019-08-04T07:36:17.775Z</time>
      </trkpt>
      <trkpt lat="42.55285667" lon="1.532995">
        <ele>1342.0</ele>
        <time>2019-08-04T07:36:18.774Z</time>
      </trkpt>
      <trkpt lat="42.55285667" lon="1.532995">
        <ele>1342.0</ele>
        <time>2019-08-04T07:36:19.790Z</time>
      </trkpt>
      <trkpt lat="42.55279333" lon="1.53298833">
        <ele>1343.0</ele>
        <time>2019-08-04T07:36:20.779Z</time>
      </trkpt>
      <trkpt lat="42.55279333" lon="1.53298833">
        <ele>1343.0</ele>
        <time>2019-08-04T07:36:21.795Z</time>
      </trkpt>
      <trkpt lat="42.55274667" lon="1.53296167">
        <ele>1344.0</ele>
        <time>2019-08-04T07:36:22.778Z</time>
      </trkpt>
      <trkpt lat="42.55274667" lon="1.53296167">
        <ele>1344.0</ele>
        <time>2019-08-04T07:36:23.772Z</time>
      </trkpt>
      <trkpt lat="42.55269833" lon="1.53294667">
        <ele>1345.0</ele>
        <time>2019-08-04T07:36:24.791Z</time>
      </trkpt>
      <trkpt lat="42.55269833" lon="1.53294667">
        <ele>1345.0</ele>
        <time>2019-08-04T07:36:25.772Z</time>
      </trkpt>
      <trkpt lat="42.55265" lon="1.53292">
        <ele>1345.0</ele>
        <time>2019-08-04T07:36:26.791Z</time>
      </trkpt>
      <trkpt lat="42.55265" lon="1.53292">
        <ele>1345.0</ele>
        <time>2019-08-04T07:36:27.773Z</time>
      </trkpt>
      <trkpt lat="42.5526" lon="1.532895">
        <ele>1346.0</ele>
        <time>2019-08-04T07:36:28.767Z</time>
      </trkpt>
      <trkpt lat="42.5526" lon="1.532895">
        <ele>1346.0</ele>
        <time>2019-08-04T07:36:29.786Z</time>
      </trkpt>
      <trkpt lat="42.55255" lon="1.53286833">
        <ele>1346.0</ele>
        <time>2019-08-04T07:36:30.779Z</time>
      </trkpt>
      <trkpt lat="42.55255" lon="1.53286833">
        <ele>1346.0</ele>
        <time>2019-08-04T07:36:31.773Z</time>
      </trkpt>
      <trkpt lat="42.55250167" lon="1.53284167">
        <ele>1347.0</ele>
        <time>2019-08-04T07:36:32.792Z</time>
      </trkpt>
      <trkpt lat="42.55250167" lon="1.53284167">
        <ele>1347.0</ele>
        <time>2019-08-04T07:36:33.784Z</time>
      </trkpt>
      <trkpt lat="42.55245667" lon="1.53280167">
        <ele>1348.0</ele>
        <time>2019-08-04T07:36:34.792Z</time>
      </trkpt>
      <trkpt lat="42.55245667" lon="1.53280167">
        <ele>1348.0</ele>
        <time>2019-08-04T07:36:35.772Z</time>
      </trkpt>
      <trkpt lat="42.55240833" lon="1.53276667">
        <ele>1348.0</ele>
        <time>2019-08-04T07:36:36.793Z</time>
      </trkpt>
      <trkpt lat="42.55240833" lon="1.53276667">
        <ele>1348.0</ele>
        <time>2019-08-04T07:36:37.773Z</time>
      </trkpt>
      <trkpt lat="42.55236" lon="1.53272">
        <ele>1349.0</ele>
        <time>2019-08-04T07:36:38.768Z</time>
      </trkpt>
      <trkpt lat="42.55236" lon="1.53272">
        <ele>1349.0</ele>
        <time>2019-08-04T07:36:39.794Z</time>
      </trkpt>
      <trkpt lat="42.55231167" lon="1.53266667">
        <ele>1350.0</ele>
        <time>2019-08-04T07:36:40.778Z</time>
      </trkpt>
      <trkpt lat="42.55231167" lon="1.53266667">
        <ele>1350.0</ele>
        <time>2019-08-04T07:36:41.773Z</time>
      </trkpt>
      <trkpt lat="42.55227667" lon="1.53260833">
        <ele>1351.0</ele>
        <time>2019-08-04T07:36:42.793Z</time>
      </trkpt>
      <trkpt lat="42.55227667" lon="1.53260833">
        <ele>1351.0</ele>
        <time>2019-08-04T07:36:43.777Z</time>
      </trkpt>
      <trkpt lat="42.55225333" lon="1.53254333">
        <ele>1351.0</ele>
        <time>2019-08-04T07:36:44.779Z</time>
      </trkpt>
      <trkpt lat="42.55225333" lon="1.53254333">
        <ele>1351.0</ele>
        <time>2019-08-04T07:36:45.773Z</time>
      </trkpt>
      <trkpt lat="42.552235" lon="1.53247167">
        <ele>1352.0</ele>
        <time>2019-08-04T07:36:46.793Z</time>
      </trkpt>
      <trkpt lat="42.552235" lon="1.53247167">
        <ele>1352.0</ele>
        <time>2019-08-04T07:36:47.774Z</time>
      </trkpt>
      <trkpt lat="42.55221833" lon="1.53239833">
        <ele>1353.0</ele>
        <time>2019-08-04T07:36:48.769Z</time>
      </trkpt>
      <trkpt lat="42.55221833" lon="1.53239833">
        <ele>1353.0</ele>
        <time>2019-08-04T07:36:49.785Z</time>
      </trkpt>
      <trkpt lat="42.552195" lon="1.53233">
        <ele>1353.0</ele>
        <time>2019-08-04T07:36:50.779Z</time>
      </trkpt>
      <trkpt lat="42.552195" lon="1.53233">
        <ele>1353.0</ele>
        <time>2019-08-04T07:36:51.773Z</time>
      </trkpt>
      <trkpt lat="42.55216833" lon="1.53225333">
        <ele>1354.0</ele>
        <time>2019-08-04T07:36:52.778Z</time>
      </trkpt>
      <trkpt lat="42.55216833" lon="1.53225333">
        <ele>1354.0</ele>
        <time>2019-08-04T07:36:53.773Z</time>
      </trkpt>
      <trkpt lat="42.552135" lon="1.53218333">
        <ele>1355.0</ele>
        <time>2019-08-04T07:36:54.792Z</time>
      </trkpt>
      <trkpt lat="42.552135" lon="1.53218333">
        <ele>1355.0</ele>
        <time>2019-08-04T07:36:55.772Z</time>
      </trkpt>
      <trkpt lat="42.55210833" lon="1.53211167">
        <ele>1355.0</ele>
        <time>2019-08-04T07:36:56.791Z</time>
      </trkpt>
      <trkpt lat="42.55210833" lon="1.53211167">
        <ele>1355.0</ele>
        <time>2019-08-04T07:36:57.773Z</time>
      </trkpt>
      <trkpt lat="42.55208833" lon="1.532035">
        <ele>1356.0</ele>
        <time>2019-08-04T07:36:58.766Z</time>
      </trkpt>
      <trkpt lat="42.55208833" lon="1.532035">
        <ele>1356.0</ele>
        <time>2019-08-04T07:36:59.781Z</time>
      </trkpt>
      <trkpt lat="42.552065" lon="1.53196167">
        <ele>1356.0</ele>
        <time>2019-08-04T07:37:00.779Z</time>
      </trkpt>
      <trkpt lat="42.552065" lon="1.53196167">
        <ele>1356.0</ele>
        <time>2019-08-04T07:37:01.794Z</time>
      </trkpt>
      <trkpt lat="42.55204333" lon="1.53189833">
        <ele>1358.0</ele>
        <time>2019-08-04T07:37:02.779Z</time>
      </trkpt>
      <trkpt lat="42.55204333" lon="1.53189833">
        <ele>1358.0</ele>
        <time>2019-08-04T07:37:03.784Z</time>
      </trkpt>
      <trkpt lat="42.55201833" lon="1.53183">
        <ele>1358.0</ele>
        <time>2019-08-04T07:37:04.789Z</time>
      </trkpt>
      <trkpt lat="42.55200833" lon="1.53179833">
        <ele>1359.0</ele>
        <time>2019-08-04T07:37:05.794Z</time>
      </trkpt>
      <trkpt lat="42.55200833" lon="1.53179833">
        <ele>1359.0</ele>
        <time>2019-08-04T07:37:06.768Z</time>
      </trkpt>
      <trkpt lat="42.55198167" lon="1.53173">
        <ele>1360.0</ele>
        <time>2019-08-04T07:37:07.774Z</time>
      </trkpt>
      <trkpt lat="42.55196833" lon="1.53169667">
        <ele>1360.0</ele>
        <time>2019-08-04T07:37:08.793Z</time>
      </trkpt>
      <trkpt lat="42.55196833" lon="1.53169667">
        <ele>1360.0</ele>
        <time>2019-08-04T07:37:09.774Z</time>
      </trkpt>
      <trkpt lat="42.551945" lon="1.53162">
        <ele>1361.0</ele>
        <time>2019-08-04T07:37:10.794Z</time>
      </trkpt>
      <trkpt lat="42.551945" lon="1.53162">
        <ele>1361.0</ele>
        <time>2019-08-04T07:37:11.774Z</time>
      </trkpt>
      <trkpt lat="42.55193333" lon="1.53154667">
        <ele>1361.0</ele>
        <time>2019-08-04T07:37:12.793Z</time>
      </trkpt>
      <trkpt lat="42.55193333" lon="1.53154667">
        <ele>1361.0</ele>
        <time>2019-08-04T07:37:13.776Z</time>
      </trkpt>
      <trkpt lat="42.55191167" lon="1.53146833">
        <ele>1362.0</ele>
        <time>2019-08-04T07:37:14.779Z</time>
      </trkpt>
      <trkpt lat="42.55191167" lon="1.53146833">
        <ele>1362.0</ele>
        <time>2019-08-04T07:37:15.794Z</time>
      </trkpt>
      <trkpt lat="42.55188667" lon="1.531385">
        <ele>1363.0</ele>
        <time>2019-08-04T07:37:16.779Z</time>
      </trkpt>
      <trkpt lat="42.55188667" lon="1.531385">
        <ele>1363.0</ele>
        <time>2019-08-04T07:37:17.793Z</time>
      </trkpt>
      <trkpt lat="42.55185667" lon="1.53130833">
        <ele>1364.0</ele>
        <time>2019-08-04T07:37:18.804Z</time>
      </trkpt>
      <trkpt lat="42.55185667" lon="1.53130833">
        <ele>1364.0</ele>
        <time>2019-08-04T07:37:19.781Z</time>
      </trkpt>
      <trkpt lat="42.55183" lon="1.53123167">
        <ele>1365.0</ele>
        <time>2019-08-04T07:37:20.777Z</time>
      </trkpt>
      <trkpt lat="42.55183" lon="1.53123167">
        <ele>1365.0</ele>
        <time>2019-08-04T07:37:21.794Z</time>
      </trkpt>
      <trkpt lat="42.55180833" lon="1.531155">
        <ele>1365.0</ele>
        <time>2019-08-04T07:37:22.778Z</time>
      </trkpt>
      <trkpt lat="42.55179333" lon="1.53111833">
        <ele>1366.0</ele>
        <time>2019-08-04T07:37:23.798Z</time>
      </trkpt>
      <trkpt lat="42.55178" lon="1.53108">
        <ele>1366.0</ele>
        <time>2019-08-04T07:37:24.788Z</time>
      </trkpt>
      <trkpt lat="42.55178" lon="1.53108">
        <ele>1366.0</ele>
        <time>2019-08-04T07:37:25.773Z</time>
      </trkpt>
      <trkpt lat="42.55175" lon="1.531005">
        <ele>1367.0</ele>
        <time>2019-08-04T07:37:26.782Z</time>
      </trkpt>
      <trkpt lat="42.55175" lon="1.531005">
        <ele>1367.0</ele>
        <time>2019-08-04T07:37:27.774Z</time>
      </trkpt>
      <trkpt lat="42.55171167" lon="1.530935">
        <ele>1367.0</ele>
        <time>2019-08-04T07:37:28.769Z</time>
      </trkpt>
      <trkpt lat="42.55171167" lon="1.530935">
        <ele>1367.0</ele>
        <time>2019-08-04T07:37:29.790Z</time>
      </trkpt>
      <trkpt lat="42.55167167" lon="1.53087833">
        <ele>1368.0</ele>
        <time>2019-08-04T07:37:30.779Z</time>
      </trkpt>
      <trkpt lat="42.55167167" lon="1.53087833">
        <ele>1368.0</ele>
        <time>2019-08-04T07:37:31.773Z</time>
      </trkpt>
      <trkpt lat="42.55163" lon="1.53082667">
        <ele>1368.0</ele>
        <time>2019-08-04T07:37:32.792Z</time>
      </trkpt>
      <trkpt lat="42.55163" lon="1.53082667">
        <ele>1368.0</ele>
        <time>2019-08-04T07:37:33.784Z</time>
      </trkpt>
      <trkpt lat="42.55158167" lon="1.53078167">
        <ele>1369.0</ele>
        <time>2019-08-04T07:37:34.778Z</time>
      </trkpt>
      <trkpt lat="42.55158167" lon="1.53078167">
        <ele>1369.0</ele>
        <time>2019-08-04T07:37:35.793Z</time>
      </trkpt>
      <trkpt lat="42.55152833" lon="1.53073833">
        <ele>1369.0</ele>
        <time>2019-08-04T07:37:36.780Z</time>
      </trkpt>
      <trkpt lat="42.55152833" lon="1.53073833">
        <ele>1369.0</ele>
        <time>2019-08-04T07:37:37.773Z</time>
      </trkpt>
      <trkpt lat="42.55147" lon="1.5307">
        <ele>1369.0</ele>
        <time>2019-08-04T07:37:38.804Z</time>
      </trkpt>
      <trkpt lat="42.55147" lon="1.5307">
        <ele>1369.0</ele>
        <time>2019-08-04T07:37:39.779Z</time>
      </trkpt>
      <trkpt lat="42.55141167" lon="1.53066667">
        <ele>1370.0</ele>
        <time>2019-08-04T07:37:40.778Z</time>
      </trkpt>
      <trkpt lat="42.55138333" lon="1.53064833">
        <ele>1370.0</ele>
        <time>2019-08-04T07:37:41.793Z</time>
      </trkpt>
      <trkpt lat="42.55138333" lon="1.53064833">
        <ele>1370.0</ele>
        <time>2019-08-04T07:37:42.775Z</time>
      </trkpt>
      <trkpt lat="42.55132833" lon="1.53060833">
        <ele>1371.0</ele>
        <time>2019-08-04T07:37:43.797Z</time>
      </trkpt>
      <trkpt lat="42.5513" lon="1.53058333">
        <ele>1371.0</ele>
        <time>2019-08-04T07:37:44.781Z</time>
      </trkpt>
      <trkpt lat="42.5513" lon="1.53058333">
        <ele>1371.0</ele>
        <time>2019-08-04T07:37:45.773Z</time>
      </trkpt>
      <trkpt lat="42.55125667" lon="1.53052667">
        <ele>1371.0</ele>
        <time>2019-08-04T07:37:46.792Z</time>
      </trkpt>
      <trkpt lat="42.55125667" lon="1.53052667">
        <ele>1371.0</ele>
        <time>2019-08-04T07:37:47.773Z</time>
      </trkpt>
      <trkpt lat="42.55122833" lon="1.53046167">
        <ele>1372.0</ele>
        <time>2019-08-04T07:37:48.769Z</time>
      </trkpt>
      <trkpt lat="42.55122833" lon="1.53046167">
        <ele>1372.0</ele>
        <time>2019-08-04T07:37:49.787Z</time>
      </trkpt>
      <trkpt lat="42.55120833" lon="1.53040167">
        <ele>1372.0</ele>
        <time>2019-08-04T07:37:50.780Z</time>
      </trkpt>
      <trkpt lat="42.55120833" lon="1.53040167">
        <ele>1372.0</ele>
        <time>2019-08-04T07:37:51.795Z</time>
      </trkpt>
      <trkpt lat="42.55120167" lon="1.53034">
        <ele>1372.0</ele>
        <time>2019-08-04T07:37:52.779Z</time>
      </trkpt>
      <trkpt lat="42.5512" lon="1.53031167">
        <ele>1373.0</ele>
        <time>2019-08-04T07:37:53.790Z</time>
      </trkpt>
      <trkpt lat="42.5512" lon="1.53031167">
        <ele>1373.0</ele>
        <time>2019-08-04T07:37:54.775Z</time>
      </trkpt>
      <trkpt lat="42.551195" lon="1.53026">
        <ele>1373.0</ele>
        <time>2019-08-04T07:37:55.795Z</time>
      </trkpt>
      <trkpt lat="42.551195" lon="1.53026">
        <ele>1373.0</ele>
        <time>2019-08-04T07:37:56.777Z</time>
      </trkpt>
      <trkpt lat="42.55118" lon="1.53020333">
        <ele>1374.0</ele>
        <time>2019-08-04T07:37:57.779Z</time>
      </trkpt>
      <trkpt lat="42.55117167" lon="1.53016833">
        <ele>1374.0</ele>
        <time>2019-08-04T07:37:58.805Z</time>
      </trkpt>
      <trkpt lat="42.55117167" lon="1.53016833">
        <ele>1374.0</ele>
        <time>2019-08-04T07:37:59.786Z</time>
      </trkpt>
      <trkpt lat="42.55116333" lon="1.53010167">
        <ele>1375.0</ele>
        <time>2019-08-04T07:38:00.779Z</time>
      </trkpt>
      <trkpt lat="42.55116333" lon="1.53010167">
        <ele>1375.0</ele>
        <time>2019-08-04T07:38:01.800Z</time>
      </trkpt>
      <trkpt lat="42.55116" lon="1.53004">
        <ele>1376.0</ele>
        <time>2019-08-04T07:38:02.780Z</time>
      </trkpt>
      <trkpt lat="42.55116" lon="1.53004">
        <ele>1376.0</ele>
        <time>2019-08-04T07:38:03.773Z</time>
      </trkpt>
      <trkpt lat="42.55115333" lon="1.52998167">
        <ele>1376.0</ele>
        <time>2019-08-04T07:38:04.778Z</time>
      </trkpt>
      <trkpt lat="42.55114833" lon="1.52995333">
        <ele>1376.0</ele>
        <time>2019-08-04T07:38:05.780Z</time>
      </trkpt>
      <trkpt lat="42.551145" lon="1.52992667">
        <ele>1376.0</ele>
        <time>2019-08-04T07:38:06.788Z</time>
      </trkpt>
      <trkpt lat="42.551145" lon="1.52992667">
        <ele>1376.0</ele>
        <time>2019-08-04T07:38:07.773Z</time>
      </trkpt>
      <trkpt lat="42.55113167" lon="1.52987667">
        <ele>1376.0</ele>
        <time>2019-08-04T07:38:08.796Z</time>
      </trkpt>
      <trkpt lat="42.55113167" lon="1.52987667">
        <ele>1376.0</ele>
        <time>2019-08-04T07:38:09.777Z</time>
      </trkpt>
      <trkpt lat="42.55112167" lon="1.529815">
        <ele>1377.0</ele>
        <time>2019-08-04T07:38:10.792Z</time>
      </trkpt>
      <trkpt lat="42.551115" lon="1.529785">
        <ele>1377.0</ele>
        <time>2019-08-04T07:38:11.780Z</time>
      </trkpt>
      <trkpt lat="42.55110833" lon="1.52975667">
        <ele>1377.0</ele>
        <time>2019-08-04T07:38:12.801Z</time>
      </trkpt>
      <trkpt lat="42.55110833" lon="1.52975667">
        <ele>1377.0</ele>
        <time>2019-08-04T07:38:13.777Z</time>
      </trkpt>
      <trkpt lat="42.55109667" lon="1.52969667">
        <ele>1378.0</ele>
        <time>2019-08-04T07:38:14.780Z</time>
      </trkpt>
      <trkpt lat="42.55109667" lon="1.52969667">
        <ele>1378.0</ele>
        <time>2019-08-04T07:38:15.795Z</time>
      </trkpt>
      <trkpt lat="42.551075" lon="1.52963833">
        <ele>1378.0</ele>
        <time>2019-08-04T07:38:16.776Z</time>
      </trkpt>
      <trkpt lat="42.55106333" lon="1.52961333">
        <ele>1379.0</ele>
        <time>2019-08-04T07:38:17.777Z</time>
      </trkpt>
      <trkpt lat="42.55105" lon="1.52958667">
        <ele>1379.0</ele>
        <time>2019-08-04T07:38:18.798Z</time>
      </trkpt>
      <trkpt lat="42.55105" lon="1.52958667">
        <ele>1379.0</ele>
        <time>2019-08-04T07:38:19.773Z</time>
      </trkpt>
      <trkpt lat="42.55102667" lon="1.52952833">
        <ele>1379.0</ele>
        <time>2019-08-04T07:38:20.793Z</time>
      </trkpt>
      <trkpt lat="42.55102667" lon="1.52952833">
        <ele>1379.0</ele>
        <time>2019-08-04T07:38:21.775Z</time>
      </trkpt>
      <trkpt lat="42.55100167" lon="1.52947">
        <ele>1380.0</ele>
        <time>2019-08-04T07:38:22.795Z</time>
      </trkpt>
      <trkpt lat="42.55100167" lon="1.52947">
        <ele>1380.0</ele>
        <time>2019-08-04T07:38:23.777Z</time>
      </trkpt>
      <trkpt lat="42.55098" lon="1.529415">
        <ele>1380.0</ele>
        <time>2019-08-04T07:38:24.780Z</time>
      </trkpt>
      <trkpt lat="42.55098" lon="1.529415">
        <ele>1380.0</ele>
        <time>2019-08-04T07:38:25.774Z</time>
      </trkpt>
      <trkpt lat="42.55095333" lon="1.52936167">
        <ele>1380.0</ele>
        <time>2019-08-04T07:38:26.793Z</time>
      </trkpt>
      <trkpt lat="42.55095333" lon="1.52936167">
        <ele>1380.0</ele>
        <time>2019-08-04T07:38:27.775Z</time>
      </trkpt>
      <trkpt lat="42.55093333" lon="1.529305">
        <ele>1381.0</ele>
        <time>2019-08-04T07:38:28.790Z</time>
      </trkpt>
      <trkpt lat="42.55093333" lon="1.529305">
        <ele>1381.0</ele>
        <time>2019-08-04T07:38:29.774Z</time>
      </trkpt>
      <trkpt lat="42.55091167" lon="1.52925333">
        <ele>1381.0</ele>
        <time>2019-08-04T07:38:30.794Z</time>
      </trkpt>
      <trkpt lat="42.55091167" lon="1.52925333">
        <ele>1381.0</ele>
        <time>2019-08-04T07:38:31.775Z</time>
      </trkpt>
      <trkpt lat="42.55089667" lon="1.52919833">
        <ele>1382.0</ele>
        <time>2019-08-04T07:38:32.795Z</time>
      </trkpt>
      <trkpt lat="42.55089667" lon="1.52919833">
        <ele>1382.0</ele>
        <time>2019-08-04T07:38:33.776Z</time>
      </trkpt>
      <trkpt lat="42.55088333" lon="1.52914167">
        <ele>1382.0</ele>
        <time>2019-08-04T07:38:34.778Z</time>
      </trkpt>
      <trkpt lat="42.55087667" lon="1.52911167">
        <ele>1383.0</ele>
        <time>2019-08-04T07:38:35.780Z</time>
      </trkpt>
      <trkpt lat="42.55087667" lon="1.52911167">
        <ele>1383.0</ele>
        <time>2019-08-04T07:38:36.772Z</time>
      </trkpt>
      <trkpt lat="42.55086333" lon="1.52905333">
        <ele>1383.0</ele>
        <time>2019-08-04T07:38:37.791Z</time>
      </trkpt>
      <trkpt lat="42.55085833" lon="1.52902167">
        <ele>1384.0</ele>
        <time>2019-08-04T07:38:38.800Z</time>
      </trkpt>
      <trkpt lat="42.55085833" lon="1.52902167">
        <ele>1384.0</ele>
        <time>2019-08-04T07:38:39.781Z</time>
      </trkpt>
      <trkpt lat="42.55084667" lon="1.52896167">
        <ele>1384.0</ele>
        <time>2019-08-04T07:38:40.780Z</time>
      </trkpt>
      <trkpt lat="42.55084667" lon="1.52896167">
        <ele>1384.0</ele>
        <time>2019-08-04T07:38:41.773Z</time>
      </trkpt>
      <trkpt lat="42.55084167" lon="1.52890333">
        <ele>1385.0</ele>
        <time>2019-08-04T07:38:42.792Z</time>
      </trkpt>
      <trkpt lat="42.55084167" lon="1.52890333">
        <ele>1385.0</ele>
        <time>2019-08-04T07:38:43.773Z</time>
      </trkpt>
      <trkpt lat="42.55083667" lon="1.52884333">
        <ele>1385.0</ele>
        <time>2019-08-04T07:38:44.780Z</time>
      </trkpt>
      <trkpt lat="42.55083667" lon="1.52884333">
        <ele>1385.0</ele>
        <time>2019-08-04T07:38:45.775Z</time>
      </trkpt>
      <trkpt lat="42.55083167" lon="1.52879">
        <ele>1385.0</ele>
        <time>2019-08-04T07:38:46.794Z</time>
      </trkpt>
      <trkpt lat="42.55083167" lon="1.52879">
        <ele>1385.0</ele>
        <time>2019-08-04T07:38:47.774Z</time>
      </trkpt>
      <trkpt lat="42.550825" lon="1.52873167">
        <ele>1386.0</ele>
        <time>2019-08-04T07:38:48.766Z</time>
      </trkpt>
      <trkpt lat="42.550825" lon="1.52873167">
        <ele>1386.0</ele>
        <time>2019-08-04T07:38:49.786Z</time>
      </trkpt>
      <trkpt lat="42.55081" lon="1.52868167">
        <ele>1386.0</ele>
        <time>2019-08-04T07:38:50.780Z</time>
      </trkpt>
      <trkpt lat="42.55081" lon="1.52868167">
        <ele>1386.0</ele>
        <time>2019-08-04T07:38:51.774Z</time>
      </trkpt>
      <trkpt lat="42.55079" lon="1.52863333">
        <ele>1387.0</ele>
        <time>2019-08-04T07:38:52.779Z</time>
      </trkpt>
      <trkpt lat="42.55079" lon="1.52863333">
        <ele>1387.0</ele>
        <time>2019-08-04T07:38:53.774Z</time>
      </trkpt>
      <trkpt lat="42.55077167" lon="1.52858">
        <ele>1387.0</ele>
        <time>2019-08-04T07:38:54.795Z</time>
      </trkpt>
      <trkpt lat="42.55077167" lon="1.52858">
        <ele>1387.0</ele>
        <time>2019-08-04T07:38:55.771Z</time>
      </trkpt>
      <trkpt lat="42.550745" lon="1.52853333">
        <ele>1387.0</ele>
        <time>2019-08-04T07:38:56.791Z</time>
      </trkpt>
      <trkpt lat="42.550745" lon="1.52853333">
        <ele>1387.0</ele>
        <time>2019-08-04T07:38:57.775Z</time>
      </trkpt>
      <trkpt lat="42.55071167" lon="1.528495">
        <ele>1388.0</ele>
        <time>2019-08-04T07:38:58.802Z</time>
      </trkpt>
      <trkpt lat="42.55071167" lon="1.528495">
        <ele>1388.0</ele>
        <time>2019-08-04T07:38:59.777Z</time>
      </trkpt>
      <trkpt lat="42.55067" lon="1.52847667">
        <ele>1388.0</ele>
        <time>2019-08-04T07:39:00.796Z</time>
      </trkpt>
      <trkpt lat="42.55067" lon="1.52847667">
        <ele>1388.0</ele>
        <time>2019-08-04T07:39:01.776Z</time>
      </trkpt>
      <trkpt lat="42.55062667" lon="1.52847667">
        <ele>1388.0</ele>
        <time>2019-08-04T07:39:02.779Z</time>
      </trkpt>
      <trkpt lat="42.55062667" lon="1.52847667">
        <ele>1388.0</ele>
        <time>2019-08-04T07:39:03.790Z</time>
      </trkpt>
      <trkpt lat="42.550595" lon="1.52850167">
        <ele>1388.0</ele>
        <time>2019-08-04T07:39:04.782Z</time>
      </trkpt>
      <trkpt lat="42.550595" lon="1.52850167">
        <ele>1388.0</ele>
        <time>2019-08-04T07:39:05.786Z</time>
      </trkpt>
      <trkpt lat="42.55057" lon="1.52854667">
        <ele>1389.0</ele>
        <time>2019-08-04T07:39:06.780Z</time>
      </trkpt>
      <trkpt lat="42.55057" lon="1.52854667">
        <ele>1389.0</ele>
        <time>2019-08-04T07:39:07.774Z</time>
      </trkpt>
      <trkpt lat="42.55055" lon="1.52859667">
        <ele>1389.0</ele>
        <time>2019-08-04T07:39:08.798Z</time>
      </trkpt>
      <trkpt lat="42.55055" lon="1.52859667">
        <ele>1389.0</ele>
        <time>2019-08-04T07:39:09.778Z</time>
      </trkpt>
      <trkpt lat="42.55053333" lon="1.52866">
        <ele>1390.0</ele>
        <time>2019-08-04T07:39:10.780Z</time>
      </trkpt>
      <trkpt lat="42.55052667" lon="1.52869333">
        <ele>1390.0</ele>
        <time>2019-08-04T07:39:11.780Z</time>
      </trkpt>
      <trkpt lat="42.55052667" lon="1.52869333">
        <ele>1390.0</ele>
        <time>2019-08-04T07:39:12.776Z</time>
      </trkpt>
      <trkpt lat="42.55052167" lon="1.52876167">
        <ele>1391.0</ele>
        <time>2019-08-04T07:39:13.780Z</time>
      </trkpt>
      <trkpt lat="42.55052167" lon="1.52879333">
        <ele>1391.0</ele>
        <time>2019-08-04T07:39:14.781Z</time>
      </trkpt>
      <trkpt lat="42.55052167" lon="1.52879333">
        <ele>1391.0</ele>
        <time>2019-08-04T07:39:15.774Z</time>
      </trkpt>
      <trkpt lat="42.55051333" lon="1.52885833">
        <ele>1392.0</ele>
        <time>2019-08-04T07:39:16.793Z</time>
      </trkpt>
      <trkpt lat="42.55051333" lon="1.52885833">
        <ele>1392.0</ele>
        <time>2019-08-04T07:39:17.774Z</time>
      </trkpt>
      <trkpt lat="42.55050667" lon="1.528925">
        <ele>1392.0</ele>
        <time>2019-08-04T07:39:18.770Z</time>
      </trkpt>
      <trkpt lat="42.55050667" lon="1.528925">
        <ele>1392.0</ele>
        <time>2019-08-04T07:39:19.787Z</time>
      </trkpt>
      <trkpt lat="42.55049667" lon="1.52898667">
        <ele>1393.0</ele>
        <time>2019-08-04T07:39:20.780Z</time>
      </trkpt>
      <trkpt lat="42.55049667" lon="1.52898667">
        <ele>1393.0</ele>
        <time>2019-08-04T07:39:21.774Z</time>
      </trkpt>
      <trkpt lat="42.55048333" lon="1.529045">
        <ele>1393.0</ele>
        <time>2019-08-04T07:39:22.793Z</time>
      </trkpt>
      <trkpt lat="42.550475" lon="1.52907333">
        <ele>1393.0</ele>
        <time>2019-08-04T07:39:23.781Z</time>
      </trkpt>
      <trkpt lat="42.550475" lon="1.52907333">
        <ele>1393.0</ele>
        <time>2019-08-04T07:39:24.772Z</time>
      </trkpt>
      <trkpt lat="42.55046167" lon="1.529125">
        <ele>1394.0</ele>
        <time>2019-08-04T07:39:25.790Z</time>
      </trkpt>
      <trkpt lat="42.55045333" lon="1.52915">
        <ele>1394.0</ele>
        <time>2019-08-04T07:39:26.780Z</time>
      </trkpt>
      <trkpt lat="42.55045333" lon="1.52915">
        <ele>1394.0</ele>
        <time>2019-08-04T07:39:27.774Z</time>
      </trkpt>
      <trkpt lat="42.550435" lon="1.52920667">
        <ele>1395.0</ele>
        <time>2019-08-04T07:39:28.774Z</time>
      </trkpt>
      <trkpt lat="42.550435" lon="1.52920667">
        <ele>1395.0</ele>
        <time>2019-08-04T07:39:29.795Z</time>
      </trkpt>
      <trkpt lat="42.55041833" lon="1.529265">
        <ele>1395.0</ele>
        <time>2019-08-04T07:39:30.781Z</time>
      </trkpt>
      <trkpt lat="42.55041833" lon="1.529265">
        <ele>1395.0</ele>
        <time>2019-08-04T07:39:31.795Z</time>
      </trkpt>
      <trkpt lat="42.55040667" lon="1.52932">
        <ele>1396.0</ele>
        <time>2019-08-04T07:39:32.779Z</time>
      </trkpt>
      <trkpt lat="42.55040667" lon="1.52932">
        <ele>1396.0</ele>
        <time>2019-08-04T07:39:33.802Z</time>
      </trkpt>
      <trkpt lat="42.55039" lon="1.529375">
        <ele>1397.0</ele>
        <time>2019-08-04T07:39:34.766Z</time>
      </trkpt>
      <trkpt lat="42.55039" lon="1.529375">
        <ele>1397.0</ele>
        <time>2019-08-04T07:39:35.777Z</time>
      </trkpt>
      <trkpt lat="42.55037333" lon="1.52943333">
        <ele>1398.0</ele>
        <time>2019-08-04T07:39:36.780Z</time>
      </trkpt>
      <trkpt lat="42.55037333" lon="1.52943333">
        <ele>1398.0</ele>
        <time>2019-08-04T07:39:37.774Z</time>
      </trkpt>
      <trkpt lat="42.55036167" lon="1.529495">
        <ele>1399.0</ele>
        <time>2019-08-04T07:39:38.794Z</time>
      </trkpt>
      <trkpt lat="42.55036167" lon="1.529495">
        <ele>1399.0</ele>
        <time>2019-08-04T07:39:39.772Z</time>
      </trkpt>
      <trkpt lat="42.55034833" lon="1.52955667">
        <ele>1399.0</ele>
        <time>2019-08-04T07:39:40.791Z</time>
      </trkpt>
      <trkpt lat="42.55034833" lon="1.52955667">
        <ele>1399.0</ele>
        <time>2019-08-04T07:39:41.775Z</time>
      </trkpt>
      <trkpt lat="42.55033667" lon="1.529615">
        <ele>1400.0</ele>
        <time>2019-08-04T07:39:42.795Z</time>
      </trkpt>
      <trkpt lat="42.55033667" lon="1.529615">
        <ele>1400.0</ele>
        <time>2019-08-04T07:39:43.774Z</time>
      </trkpt>
      <trkpt lat="42.55032167" lon="1.52967333">
        <ele>1401.0</ele>
        <time>2019-08-04T07:39:44.795Z</time>
      </trkpt>
      <trkpt lat="42.55032167" lon="1.52967333">
        <ele>1401.0</ele>
        <time>2019-08-04T07:39:45.772Z</time>
      </trkpt>
      <trkpt lat="42.55031667" lon="1.52973">
        <ele>1401.0</ele>
        <time>2019-08-04T07:39:46.792Z</time>
      </trkpt>
      <trkpt lat="42.55031833" lon="1.52976">
        <ele>1402.0</ele>
        <time>2019-08-04T07:39:47.780Z</time>
      </trkpt>
      <trkpt lat="42.55031667" lon="1.52979">
        <ele>1402.0</ele>
        <time>2019-08-04T07:39:48.796Z</time>
      </trkpt>
      <trkpt lat="42.55031667" lon="1.52979">
        <ele>1402.0</ele>
        <time>2019-08-04T07:39:49.774Z</time>
      </trkpt>
      <trkpt lat="42.55031167" lon="1.52985167">
        <ele>1403.0</ele>
        <time>2019-08-04T07:39:50.793Z</time>
      </trkpt>
      <trkpt lat="42.55031167" lon="1.52985167">
        <ele>1403.0</ele>
        <time>2019-08-04T07:39:51.777Z</time>
      </trkpt>
      <trkpt lat="42.55031333" lon="1.52991167">
        <ele>1403.0</ele>
        <time>2019-08-04T07:39:52.780Z</time>
      </trkpt>
      <trkpt lat="42.55031333" lon="1.52991167">
        <ele>1403.0</ele>
        <time>2019-08-04T07:39:53.772Z</time>
      </trkpt>
      <trkpt lat="42.55032" lon="1.52997">
        <ele>1404.0</ele>
        <time>2019-08-04T07:39:54.791Z</time>
      </trkpt>
      <trkpt lat="42.55032167" lon="1.52999833">
        <ele>1405.0</ele>
        <time>2019-08-04T07:39:55.781Z</time>
      </trkpt>
      <trkpt lat="42.55032833" lon="1.530025">
        <ele>1405.0</ele>
        <time>2019-08-04T07:39:56.780Z</time>
      </trkpt>
      <trkpt lat="42.55032833" lon="1.530025">
        <ele>1405.0</ele>
        <time>2019-08-04T07:39:57.774Z</time>
      </trkpt>
      <trkpt lat="42.55033833" lon="1.53008333">
        <ele>1406.0</ele>
        <time>2019-08-04T07:39:58.796Z</time>
      </trkpt>
      <trkpt lat="42.55033833" lon="1.53008333">
        <ele>1406.0</ele>
        <time>2019-08-04T07:39:59.775Z</time>
      </trkpt>
      <trkpt lat="42.55035" lon="1.53014333">
        <ele>1407.0</ele>
        <time>2019-08-04T07:40:00.794Z</time>
      </trkpt>
      <trkpt lat="42.55035" lon="1.53014333">
        <ele>1407.0</ele>
        <time>2019-08-04T07:40:01.775Z</time>
      </trkpt>
      <trkpt lat="42.55036167" lon="1.5302">
        <ele>1407.0</ele>
        <time>2019-08-04T07:40:02.794Z</time>
      </trkpt>
      <trkpt lat="42.55036167" lon="1.5302">
        <ele>1407.0</ele>
        <time>2019-08-04T07:40:03.784Z</time>
      </trkpt>
      <trkpt lat="42.55038167" lon="1.53025">
        <ele>1408.0</ele>
        <time>2019-08-04T07:40:04.797Z</time>
      </trkpt>
      <trkpt lat="42.55038167" lon="1.53025">
        <ele>1408.0</ele>
        <time>2019-08-04T07:40:05.771Z</time>
      </trkpt>
      <trkpt lat="42.550395" lon="1.530295">
        <ele>1409.0</ele>
        <time>2019-08-04T07:40:06.780Z</time>
      </trkpt>
      <trkpt lat="42.550395" lon="1.530295">
        <ele>1409.0</ele>
        <time>2019-08-04T07:40:07.787Z</time>
      </trkpt>
      <trkpt lat="42.55041" lon="1.53034333">
        <ele>1409.0</ele>
        <time>2019-08-04T07:40:08.804Z</time>
      </trkpt>
      <trkpt lat="42.55041" lon="1.53034333">
        <ele>1409.0</ele>
        <time>2019-08-04T07:40:09.787Z</time>
      </trkpt>
      <trkpt lat="42.55042667" lon="1.53039667">
        <ele>1410.0</ele>
        <time>2019-08-04T07:40:10.780Z</time>
      </trkpt>
      <trkpt lat="42.55042667" lon="1.53039667">
        <ele>1410.0</ele>
        <time>2019-08-04T07:40:11.795Z</time>
      </trkpt>
      <trkpt lat="42.550445" lon="1.53045333">
        <ele>1411.0</ele>
        <time>2019-08-04T07:40:12.782Z</time>
      </trkpt>
      <trkpt lat="42.550445" lon="1.53045333">
        <ele>1411.0</ele>
        <time>2019-08-04T07:40:13.783Z</time>
      </trkpt>
      <trkpt lat="42.55046667" lon="1.53051333">
        <ele>1412.0</ele>
        <time>2019-08-04T07:40:14.781Z</time>
      </trkpt>
      <trkpt lat="42.55046667" lon="1.53051333">
        <ele>1412.0</ele>
        <time>2019-08-04T07:40:15.777Z</time>
      </trkpt>
      <trkpt lat="42.55048333" lon="1.53057667">
        <ele>1412.0</ele>
        <time>2019-08-04T07:40:16.776Z</time>
      </trkpt>
      <trkpt lat="42.55048333" lon="1.53057667">
        <ele>1412.0</ele>
        <time>2019-08-04T07:40:17.791Z</time>
      </trkpt>
      <trkpt lat="42.55049833" lon="1.530635">
        <ele>1413.0</ele>
        <time>2019-08-04T07:40:18.768Z</time>
      </trkpt>
      <trkpt lat="42.55049833" lon="1.530635">
        <ele>1413.0</ele>
        <time>2019-08-04T07:40:19.787Z</time>
      </trkpt>
      <trkpt lat="42.55050833" lon="1.53069667">
        <ele>1414.0</ele>
        <time>2019-08-04T07:40:20.781Z</time>
      </trkpt>
      <trkpt lat="42.55050833" lon="1.53069667">
        <ele>1414.0</ele>
        <time>2019-08-04T07:40:21.774Z</time>
      </trkpt>
      <trkpt lat="42.55050667" lon="1.53075833">
        <ele>1414.0</ele>
        <time>2019-08-04T07:40:22.793Z</time>
      </trkpt>
      <trkpt lat="42.55050667" lon="1.53079167">
        <ele>1415.0</ele>
        <time>2019-08-04T07:40:23.782Z</time>
      </trkpt>
      <trkpt lat="42.55050667" lon="1.53079167">
        <ele>1415.0</ele>
        <time>2019-08-04T07:40:24.772Z</time>
      </trkpt>
      <trkpt lat="42.550505" lon="1.53085833">
        <ele>1416.0</ele>
        <time>2019-08-04T07:40:25.791Z</time>
      </trkpt>
      <trkpt lat="42.550505" lon="1.53089167">
        <ele>1416.0</ele>
        <time>2019-08-04T07:40:26.782Z</time>
      </trkpt>
      <trkpt lat="42.550505" lon="1.53089167">
        <ele>1416.0</ele>
        <time>2019-08-04T07:40:27.775Z</time>
      </trkpt>
      <trkpt lat="42.550505" lon="1.53095833">
        <ele>1417.0</ele>
        <time>2019-08-04T07:40:28.767Z</time>
      </trkpt>
      <trkpt lat="42.550505" lon="1.53095833">
        <ele>1417.0</ele>
        <time>2019-08-04T07:40:29.790Z</time>
      </trkpt>
      <trkpt lat="42.55049833" lon="1.531025">
        <ele>1417.0</ele>
        <time>2019-08-04T07:40:30.778Z</time>
      </trkpt>
      <trkpt lat="42.55049833" lon="1.531025">
        <ele>1417.0</ele>
        <time>2019-08-04T07:40:31.799Z</time>
      </trkpt>
      <trkpt lat="42.55049667" lon="1.531095">
        <ele>1418.0</ele>
        <time>2019-08-04T07:40:32.780Z</time>
      </trkpt>
      <trkpt lat="42.55049667" lon="1.531095">
        <ele>1418.0</ele>
        <time>2019-08-04T07:40:33.784Z</time>
      </trkpt>
      <trkpt lat="42.55049333" lon="1.53116833">
        <ele>1419.0</ele>
        <time>2019-08-04T07:40:34.780Z</time>
      </trkpt>
      <trkpt lat="42.55049333" lon="1.53116833">
        <ele>1419.0</ele>
        <time>2019-08-04T07:40:35.774Z</time>
      </trkpt>
      <trkpt lat="42.55049667" lon="1.531245">
        <ele>1419.0</ele>
        <time>2019-08-04T07:40:36.793Z</time>
      </trkpt>
      <trkpt lat="42.550495" lon="1.53128167">
        <ele>1419.0</ele>
        <time>2019-08-04T07:40:37.780Z</time>
      </trkpt>
      <trkpt lat="42.550495" lon="1.53131667">
        <ele>1420.0</ele>
        <time>2019-08-04T07:40:38.766Z</time>
      </trkpt>
      <trkpt lat="42.550495" lon="1.53131667">
        <ele>1420.0</ele>
        <time>2019-08-04T07:40:39.794Z</time>
      </trkpt>
      <trkpt lat="42.55049167" lon="1.53138667">
        <ele>1420.0</ele>
        <time>2019-08-04T07:40:40.781Z</time>
      </trkpt>
      <trkpt lat="42.55049167" lon="1.53138667">
        <ele>1420.0</ele>
        <time>2019-08-04T07:40:41.771Z</time>
      </trkpt>
      <trkpt lat="42.55049" lon="1.531455">
        <ele>1421.0</ele>
        <time>2019-08-04T07:40:42.794Z</time>
      </trkpt>
      <trkpt lat="42.55049333" lon="1.53149333">
        <ele>1421.0</ele>
        <time>2019-08-04T07:40:43.778Z</time>
      </trkpt>
      <trkpt lat="42.55049167" lon="1.53153167">
        <ele>1421.0</ele>
        <time>2019-08-04T07:40:44.781Z</time>
      </trkpt>
      <trkpt lat="42.55049167" lon="1.53153167">
        <ele>1421.0</ele>
        <time>2019-08-04T07:40:45.790Z</time>
      </trkpt>
      <trkpt lat="42.55049" lon="1.53161">
        <ele>1421.0</ele>
        <time>2019-08-04T07:40:46.777Z</time>
      </trkpt>
      <trkpt lat="42.55049" lon="1.53161">
        <ele>1421.0</ele>
        <time>2019-08-04T07:40:47.793Z</time>
      </trkpt>
      <trkpt lat="42.550485" lon="1.53168833">
        <ele>1422.0</ele>
        <time>2019-08-04T07:40:48.799Z</time>
      </trkpt>
      <trkpt lat="42.550485" lon="1.53168833">
        <ele>1422.0</ele>
        <time>2019-08-04T07:40:49.778Z</time>
      </trkpt>
      <trkpt lat="42.55048167" lon="1.53176167">
        <ele>1422.0</ele>
        <time>2019-08-04T07:40:50.782Z</time>
      </trkpt>
      <trkpt lat="42.55048167" lon="1.53176167">
        <ele>1422.0</ele>
        <time>2019-08-04T07:40:51.775Z</time>
      </trkpt>
      <trkpt lat="42.55048" lon="1.53183667">
        <ele>1423.0</ele>
        <time>2019-08-04T07:40:52.795Z</time>
      </trkpt>
      <trkpt lat="42.55048" lon="1.53183667">
        <ele>1423.0</ele>
        <time>2019-08-04T07:40:53.774Z</time>
      </trkpt>
      <trkpt lat="42.55048" lon="1.53191">
        <ele>1424.0</ele>
        <time>2019-08-04T07:40:54.793Z</time>
      </trkpt>
      <trkpt lat="42.55048" lon="1.53191">
        <ele>1424.0</ele>
        <time>2019-08-04T07:40:55.773Z</time>
      </trkpt>
      <trkpt lat="42.55047833" lon="1.531985">
        <ele>1424.0</ele>
        <time>2019-08-04T07:40:56.793Z</time>
      </trkpt>
      <trkpt lat="42.55047833" lon="1.531985">
        <ele>1424.0</ele>
        <time>2019-08-04T07:40:57.774Z</time>
      </trkpt>
      <trkpt lat="42.55047667" lon="1.53206667">
        <ele>1424.0</ele>
        <time>2019-08-04T07:40:58.799Z</time>
      </trkpt>
      <trkpt lat="42.55047667" lon="1.53206667">
        <ele>1424.0</ele>
        <time>2019-08-04T07:40:59.777Z</time>
      </trkpt>
      <trkpt lat="42.550475" lon="1.53214833">
        <ele>1425.0</ele>
        <time>2019-08-04T07:41:00.798Z</time>
      </trkpt>
      <trkpt lat="42.550475" lon="1.532185">
        <ele>1425.0</ele>
        <time>2019-08-04T07:41:01.804Z</time>
      </trkpt>
      <trkpt lat="42.550475" lon="1.532185">
        <ele>1425.0</ele>
        <time>2019-08-04T07:41:02.787Z</time>
      </trkpt>
      <trkpt lat="42.55047167" lon="1.53226167">
        <ele>1424.0</ele>
        <time>2019-08-04T07:41:03.793Z</time>
      </trkpt>
      <trkpt lat="42.55047167" lon="1.53226167">
        <ele>1424.0</ele>
        <time>2019-08-04T07:41:04.800Z</time>
      </trkpt>
      <trkpt lat="42.55047333" lon="1.53233333">
        <ele>1423.0</ele>
        <time>2019-08-04T07:41:05.773Z</time>
      </trkpt>
      <trkpt lat="42.550475" lon="1.53236667">
        <ele>1422.0</ele>
        <time>2019-08-04T07:41:06.794Z</time>
      </trkpt>
      <trkpt lat="42.550475" lon="1.53236667">
        <ele>1422.0</ele>
        <time>2019-08-04T07:41:07.775Z</time>
      </trkpt>
      <trkpt lat="42.55047667" lon="1.53244">
        <ele>1422.0</ele>
        <time>2019-08-04T07:41:08.799Z</time>
      </trkpt>
      <trkpt lat="42.55047667" lon="1.53244">
        <ele>1422.0</ele>
        <time>2019-08-04T07:41:09.779Z</time>
      </trkpt>
      <trkpt lat="42.55049" lon="1.53251333">
        <ele>1421.0</ele>
        <time>2019-08-04T07:41:10.802Z</time>
      </trkpt>
      <trkpt lat="42.55049" lon="1.53251333">
        <ele>1421.0</ele>
        <time>2019-08-04T07:41:11.781Z</time>
      </trkpt>
      <trkpt lat="42.55051667" lon="1.53258667">
        <ele>1420.0</ele>
        <time>2019-08-04T07:41:12.778Z</time>
      </trkpt>
      <trkpt lat="42.55053" lon="1.53262333">
        <ele>1420.0</ele>
        <time>2019-08-04T07:41:13.794Z</time>
      </trkpt>
      <trkpt lat="42.55053" lon="1.53262333">
        <ele>1420.0</ele>
        <time>2019-08-04T07:41:14.778Z</time>
      </trkpt>
      <trkpt lat="42.550555" lon="1.53270833">
        <ele>1419.0</ele>
        <time>2019-08-04T07:41:15.784Z</time>
      </trkpt>
      <trkpt lat="42.55056833" lon="1.53275167">
        <ele>1418.0</ele>
        <time>2019-08-04T07:41:16.777Z</time>
      </trkpt>
      <trkpt lat="42.55056833" lon="1.53275167">
        <ele>1418.0</ele>
        <time>2019-08-04T07:41:17.775Z</time>
      </trkpt>
      <trkpt lat="42.55059833" lon="1.532835">
        <ele>1418.0</ele>
        <time>2019-08-04T07:41:18.768Z</time>
      </trkpt>
      <trkpt lat="42.55059833" lon="1.532835">
        <ele>1418.0</ele>
        <time>2019-08-04T07:41:19.787Z</time>
      </trkpt>
      <trkpt lat="42.55062333" lon="1.532925">
        <ele>1417.0</ele>
        <time>2019-08-04T07:41:20.780Z</time>
      </trkpt>
      <trkpt lat="42.55062333" lon="1.532925">
        <ele>1417.0</ele>
        <time>2019-08-04T07:41:21.801Z</time>
      </trkpt>
      <trkpt lat="42.55064833" lon="1.53299833">
        <ele>1417.0</ele>
        <time>2019-08-04T07:41:22.782Z</time>
      </trkpt>
      <trkpt lat="42.55064833" lon="1.53299833">
        <ele>1417.0</ele>
        <time>2019-08-04T07:41:23.774Z</time>
      </trkpt>
      <trkpt lat="42.550675" lon="1.533065">
        <ele>1416.0</ele>
        <time>2019-08-04T07:41:24.793Z</time>
      </trkpt>
      <trkpt lat="42.550675" lon="1.533065">
        <ele>1416.0</ele>
        <time>2019-08-04T07:41:25.775Z</time>
      </trkpt>
      <trkpt lat="42.55069667" lon="1.533145">
        <ele>1416.0</ele>
        <time>2019-08-04T07:41:26.790Z</time>
      </trkpt>
      <trkpt lat="42.55071" lon="1.53318333">
        <ele>1416.0</ele>
        <time>2019-08-04T07:41:27.779Z</time>
      </trkpt>
      <trkpt lat="42.55072833" lon="1.53321667">
        <ele>1415.0</ele>
        <time>2019-08-04T07:41:28.766Z</time>
      </trkpt>
      <trkpt lat="42.55072833" lon="1.53321667">
        <ele>1415.0</ele>
        <time>2019-08-04T07:41:29.787Z</time>
      </trkpt>
      <trkpt lat="42.55075167" lon="1.53329167">
        <ele>1415.0</ele>
        <time>2019-08-04T07:41:30.782Z</time>
      </trkpt>
      <trkpt lat="42.55075167" lon="1.53329167">
        <ele>1415.0</ele>
        <time>2019-08-04T07:41:31.775Z</time>
      </trkpt>
      <trkpt lat="42.55076833" lon="1.53337333">
        <ele>1414.0</ele>
        <time>2019-08-04T07:41:32.794Z</time>
      </trkpt>
      <trkpt lat="42.55076833" lon="1.53337333">
        <ele>1414.0</ele>
        <time>2019-08-04T07:41:33.777Z</time>
      </trkpt>
      <trkpt lat="42.55077333" lon="1.53346333">
        <ele>1413.0</ele>
        <time>2019-08-04T07:41:34.789Z</time>
      </trkpt>
      <trkpt lat="42.55077333" lon="1.53346333">
        <ele>1413.0</ele>
        <time>2019-08-04T07:41:35.771Z</time>
      </trkpt>
      <trkpt lat="42.55076833" lon="1.533555">
        <ele>1412.0</ele>
        <time>2019-08-04T07:41:36.782Z</time>
      </trkpt>
      <trkpt lat="42.55076833" lon="1.533555">
        <ele>1412.0</ele>
        <time>2019-08-04T07:41:37.779Z</time>
      </trkpt>
      <trkpt lat="42.550765" lon="1.53364667">
        <ele>1411.0</ele>
        <time>2019-08-04T07:41:38.800Z</time>
      </trkpt>
      <trkpt lat="42.550765" lon="1.53364667">
        <ele>1411.0</ele>
        <time>2019-08-04T07:41:39.777Z</time>
      </trkpt>
      <trkpt lat="42.55075833" lon="1.533735">
        <ele>1410.0</ele>
        <time>2019-08-04T07:41:40.781Z</time>
      </trkpt>
      <trkpt lat="42.55075833" lon="1.533735">
        <ele>1410.0</ele>
        <time>2019-08-04T07:41:41.775Z</time>
      </trkpt>
      <trkpt lat="42.550755" lon="1.53382167">
        <ele>1410.0</ele>
        <time>2019-08-04T07:41:42.795Z</time>
      </trkpt>
      <trkpt lat="42.550755" lon="1.53382167">
        <ele>1410.0</ele>
        <time>2019-08-04T07:41:43.775Z</time>
      </trkpt>
      <trkpt lat="42.55075" lon="1.53390667">
        <ele>1409.0</ele>
        <time>2019-08-04T07:41:44.794Z</time>
      </trkpt>
      <trkpt lat="42.55075" lon="1.53390667">
        <ele>1409.0</ele>
        <time>2019-08-04T07:41:45.775Z</time>
      </trkpt>
      <trkpt lat="42.55074" lon="1.53399167">
        <ele>1409.0</ele>
        <time>2019-08-04T07:41:46.794Z</time>
      </trkpt>
      <trkpt lat="42.55074" lon="1.53399167">
        <ele>1409.0</ele>
        <time>2019-08-04T07:41:47.775Z</time>
      </trkpt>
      <trkpt lat="42.550735" lon="1.53407667">
        <ele>1408.0</ele>
        <time>2019-08-04T07:41:48.767Z</time>
      </trkpt>
      <trkpt lat="42.550735" lon="1.53407667">
        <ele>1408.0</ele>
        <time>2019-08-04T07:41:49.783Z</time>
      </trkpt>
      <trkpt lat="42.55073" lon="1.53416833">
        <ele>1408.0</ele>
        <time>2019-08-04T07:41:50.781Z</time>
      </trkpt>
      <trkpt lat="42.55073" lon="1.53416833">
        <ele>1408.0</ele>
        <time>2019-08-04T07:41:51.772Z</time>
      </trkpt>
      <trkpt lat="42.55072667" lon="1.534255">
        <ele>1408.0</ele>
        <time>2019-08-04T07:41:52.791Z</time>
      </trkpt>
      <trkpt lat="42.55072667" lon="1.534255">
        <ele>1408.0</ele>
        <time>2019-08-04T07:41:53.775Z</time>
      </trkpt>
      <trkpt lat="42.55072333" lon="1.53433667">
        <ele>1407.0</ele>
        <time>2019-08-04T07:41:54.794Z</time>
      </trkpt>
      <trkpt lat="42.55072333" lon="1.53433667">
        <ele>1407.0</ele>
        <time>2019-08-04T07:41:55.779Z</time>
      </trkpt>
      <trkpt lat="42.55071667" lon="1.53442167">
        <ele>1407.0</ele>
        <time>2019-08-04T07:41:56.781Z</time>
      </trkpt>
      <trkpt lat="42.55071667" lon="1.53442167">
        <ele>1407.0</ele>
        <time>2019-08-04T07:41:57.772Z</time>
      </trkpt>
      <trkpt lat="42.55071167" lon="1.53450333">
        <ele>1406.0</ele>
        <time>2019-08-04T07:41:58.774Z</time>
      </trkpt>
      <trkpt lat="42.55071167" lon="1.53450333">
        <ele>1406.0</ele>
        <time>2019-08-04T07:41:59.791Z</time>
      </trkpt>
      <trkpt lat="42.55070833" lon="1.53458333">
        <ele>1406.0</ele>
        <time>2019-08-04T07:42:00.782Z</time>
      </trkpt>
      <trkpt lat="42.55070833" lon="1.53458333">
        <ele>1406.0</ele>
        <time>2019-08-04T07:42:01.775Z</time>
      </trkpt>
      <trkpt lat="42.55070667" lon="1.53466">
        <ele>1405.0</ele>
        <time>2019-08-04T07:42:02.794Z</time>
      </trkpt>
      <trkpt lat="42.55070667" lon="1.53466">
        <ele>1405.0</ele>
        <time>2019-08-04T07:42:03.775Z</time>
      </trkpt>
      <trkpt lat="42.55070667" lon="1.53474">
        <ele>1405.0</ele>
        <time>2019-08-04T07:42:04.798Z</time>
      </trkpt>
      <trkpt lat="42.55070667" lon="1.53474">
        <ele>1405.0</ele>
        <time>2019-08-04T07:42:05.804Z</time>
      </trkpt>
      <trkpt lat="42.55071667" lon="1.53481833">
        <ele>1405.0</ele>
        <time>2019-08-04T07:42:06.790Z</time>
      </trkpt>
      <trkpt lat="42.55071667" lon="1.53481833">
        <ele>1405.0</ele>
        <time>2019-08-04T07:42:07.796Z</time>
      </trkpt>
      <trkpt lat="42.55073167" lon="1.53489333">
        <ele>1404.0</ele>
        <time>2019-08-04T07:42:08.778Z</time>
      </trkpt>
      <trkpt lat="42.55073167" lon="1.53489333">
        <ele>1404.0</ele>
        <time>2019-08-04T07:42:09.794Z</time>
      </trkpt>
      <trkpt lat="42.55074667" lon="1.534975">
        <ele>1404.0</ele>
        <time>2019-08-04T07:42:10.783Z</time>
      </trkpt>
      <trkpt lat="42.55074667" lon="1.534975">
        <ele>1404.0</ele>
        <time>2019-08-04T07:42:11.777Z</time>
      </trkpt>
      <trkpt lat="42.55076667" lon="1.53505667">
        <ele>1404.0</ele>
        <time>2019-08-04T07:42:12.783Z</time>
      </trkpt>
      <trkpt lat="42.55076667" lon="1.53505667">
        <ele>1404.0</ele>
        <time>2019-08-04T07:42:13.778Z</time>
      </trkpt>
      <trkpt lat="42.55078833" lon="1.53513833">
        <ele>1404.0</ele>
        <time>2019-08-04T07:42:14.781Z</time>
      </trkpt>
      <trkpt lat="42.5508" lon="1.53518167">
        <ele>1404.0</ele>
        <time>2019-08-04T07:42:15.782Z</time>
      </trkpt>
      <trkpt lat="42.5508" lon="1.53518167">
        <ele>1404.0</ele>
        <time>2019-08-04T07:42:16.777Z</time>
      </trkpt>
      <trkpt lat="42.55082667" lon="1.53527167">
        <ele>1403.0</ele>
        <time>2019-08-04T07:42:17.783Z</time>
      </trkpt>
      <trkpt lat="42.55083833" lon="1.53531833">
        <ele>1403.0</ele>
        <time>2019-08-04T07:42:18.771Z</time>
      </trkpt>
      <trkpt lat="42.55083833" lon="1.53531833">
        <ele>1403.0</ele>
        <time>2019-08-04T07:42:19.792Z</time>
      </trkpt>
      <trkpt lat="42.55086" lon="1.53541167">
        <ele>1403.0</ele>
        <time>2019-08-04T07:42:20.779Z</time>
      </trkpt>
      <trkpt lat="42.55087333" lon="1.535455">
        <ele>1403.0</ele>
        <time>2019-08-04T07:42:21.783Z</time>
      </trkpt>
      <trkpt lat="42.55087333" lon="1.535455">
        <ele>1403.0</ele>
        <time>2019-08-04T07:42:22.779Z</time>
      </trkpt>
      <trkpt lat="42.55089833" lon="1.53555">
        <ele>1403.0</ele>
        <time>2019-08-04T07:42:23.782Z</time>
      </trkpt>
      <trkpt lat="42.55089833" lon="1.53555">
        <ele>1403.0</ele>
        <time>2019-08-04T07:42:24.769Z</time>
      </trkpt>
      <trkpt lat="42.55093167" lon="1.53563667">
        <ele>1402.0</ele>
        <time>2019-08-04T07:42:25.778Z</time>
      </trkpt>
      <trkpt lat="42.55093167" lon="1.53563667">
        <ele>1402.0</ele>
        <time>2019-08-04T07:42:26.785Z</time>
      </trkpt>
      <trkpt lat="42.55097167" lon="1.53572">
        <ele>1402.0</ele>
        <time>2019-08-04T07:42:27.791Z</time>
      </trkpt>
      <trkpt lat="42.55099667" lon="1.53576167">
        <ele>1402.0</ele>
        <time>2019-08-04T07:42:28.766Z</time>
      </trkpt>
      <trkpt lat="42.55099667" lon="1.53576167">
        <ele>1402.0</ele>
        <time>2019-08-04T07:42:29.781Z</time>
      </trkpt>
      <trkpt lat="42.55103833" lon="1.53583667">
        <ele>1402.0</ele>
        <time>2019-08-04T07:42:30.781Z</time>
      </trkpt>
      <trkpt lat="42.55106" lon="1.53587667">
        <ele>1402.0</ele>
        <time>2019-08-04T07:42:31.800Z</time>
      </trkpt>
      <trkpt lat="42.55108333" lon="1.53591333">
        <ele>1402.0</ele>
        <time>2019-08-04T07:42:32.782Z</time>
      </trkpt>
      <trkpt lat="42.55108333" lon="1.53591333">
        <ele>1402.0</ele>
        <time>2019-08-04T07:42:33.775Z</time>
      </trkpt>
      <trkpt lat="42.55112667" lon="1.53598667">
        <ele>1402.0</ele>
        <time>2019-08-04T07:42:34.800Z</time>
      </trkpt>
      <trkpt lat="42.55114333" lon="1.53602833">
        <ele>1402.0</ele>
        <time>2019-08-04T07:42:35.782Z</time>
      </trkpt>
      <trkpt lat="42.55114333" lon="1.53602833">
        <ele>1402.0</ele>
        <time>2019-08-04T07:42:36.801Z</time>
      </trkpt>
      <trkpt lat="42.55117833" lon="1.53612">
        <ele>1402.0</ele>
        <time>2019-08-04T07:42:37.782Z</time>
      </trkpt>
      <trkpt lat="42.55119833" lon="1.53616833">
        <ele>1402.0</ele>
        <time>2019-08-04T07:42:38.800Z</time>
      </trkpt>
      <trkpt lat="42.55119833" lon="1.53616833">
        <ele>1402.0</ele>
        <time>2019-08-04T07:42:39.783Z</time>
      </trkpt>
      <trkpt lat="42.55123667" lon="1.53626333">
        <ele>1402.0</ele>
        <time>2019-08-04T07:42:40.781Z</time>
      </trkpt>
      <trkpt lat="42.55125833" lon="1.53631333">
        <ele>1402.0</ele>
        <time>2019-08-04T07:42:41.783Z</time>
      </trkpt>
      <trkpt lat="42.55125833" lon="1.53631333">
        <ele>1402.0</ele>
        <time>2019-08-04T07:42:42.779Z</time>
      </trkpt>
      <trkpt lat="42.55130833" lon="1.536405">
        <ele>1402.0</ele>
        <time>2019-08-04T07:42:43.782Z</time>
      </trkpt>
      <trkpt lat="42.55133333" lon="1.53644667">
        <ele>1402.0</ele>
        <time>2019-08-04T07:42:44.781Z</time>
      </trkpt>
      <trkpt lat="42.55133333" lon="1.53644667">
        <ele>1402.0</ele>
        <time>2019-08-04T07:42:45.775Z</time>
      </trkpt>
      <trkpt lat="42.55138" lon="1.53653333">
        <ele>1401.0</ele>
        <time>2019-08-04T07:42:46.795Z</time>
      </trkpt>
      <trkpt lat="42.55138" lon="1.53653333">
        <ele>1401.0</ele>
        <time>2019-08-04T07:42:47.775Z</time>
      </trkpt>
      <trkpt lat="42.551425" lon="1.536625">
        <ele>1401.0</ele>
        <time>2019-08-04T07:42:48.768Z</time>
      </trkpt>
      <trkpt lat="42.551425" lon="1.536625">
        <ele>1401.0</ele>
        <time>2019-08-04T07:42:49.794Z</time>
      </trkpt>
      <trkpt lat="42.55147" lon="1.53671667">
        <ele>1401.0</ele>
        <time>2019-08-04T07:42:50.782Z</time>
      </trkpt>
      <trkpt lat="42.55147" lon="1.53671667">
        <ele>1401.0</ele>
        <time>2019-08-04T07:42:51.779Z</time>
      </trkpt>
      <trkpt lat="42.55150833" lon="1.53682">
        <ele>1401.0</ele>
        <time>2019-08-04T07:42:52.781Z</time>
      </trkpt>
      <trkpt lat="42.55152333" lon="1.53687">
        <ele>1401.0</ele>
        <time>2019-08-04T07:42:53.784Z</time>
      </trkpt>
      <trkpt lat="42.55153667" lon="1.53692333">
        <ele>1401.0</ele>
        <time>2019-08-04T07:42:54.782Z</time>
      </trkpt>
      <trkpt lat="42.55153667" lon="1.53692333">
        <ele>1401.0</ele>
        <time>2019-08-04T07:42:55.775Z</time>
      </trkpt>
      <trkpt lat="42.55157833" lon="1.53701667">
        <ele>1401.0</ele>
        <time>2019-08-04T07:42:56.796Z</time>
      </trkpt>
      <trkpt lat="42.55159667" lon="1.53705667">
        <ele>1402.0</ele>
        <time>2019-08-04T07:42:57.782Z</time>
      </trkpt>
      <trkpt lat="42.55160667" lon="1.53710833">
        <ele>1402.0</ele>
        <time>2019-08-04T07:42:58.802Z</time>
      </trkpt>
      <trkpt lat="42.55160667" lon="1.53710833">
        <ele>1402.0</ele>
        <time>2019-08-04T07:42:59.782Z</time>
      </trkpt>
      <trkpt lat="42.55161833" lon="1.53721833">
        <ele>1402.0</ele>
        <time>2019-08-04T07:43:00.784Z</time>
      </trkpt>
      <trkpt lat="42.55161833" lon="1.53721833">
        <ele>1402.0</ele>
        <time>2019-08-04T07:43:01.802Z</time>
      </trkpt>
      <trkpt lat="42.55163667" lon="1.53731333">
        <ele>1402.0</ele>
        <time>2019-08-04T07:43:02.782Z</time>
      </trkpt>
      <trkpt lat="42.55163667" lon="1.53731333">
        <ele>1402.0</ele>
        <time>2019-08-04T07:43:03.793Z</time>
      </trkpt>
      <trkpt lat="42.55165" lon="1.53741833">
        <ele>1403.0</ele>
        <time>2019-08-04T07:43:04.781Z</time>
      </trkpt>
      <trkpt lat="42.55165" lon="1.53741833">
        <ele>1403.0</ele>
        <time>2019-08-04T07:43:05.786Z</time>
      </trkpt>
      <trkpt lat="42.55166667" lon="1.53752">
        <ele>1403.0</ele>
        <time>2019-08-04T07:43:06.767Z</time>
      </trkpt>
      <trkpt lat="42.55167333" lon="1.53757">
        <ele>1403.0</ele>
        <time>2019-08-04T07:43:07.784Z</time>
      </trkpt>
      <trkpt lat="42.55168333" lon="1.53761833">
        <ele>1404.0</ele>
        <time>2019-08-04T07:43:08.768Z</time>
      </trkpt>
      <trkpt lat="42.55168333" lon="1.53761833">
        <ele>1404.0</ele>
        <time>2019-08-04T07:43:09.788Z</time>
      </trkpt>
      <trkpt lat="42.5517" lon="1.537715">
        <ele>1404.0</ele>
        <time>2019-08-04T07:43:10.781Z</time>
      </trkpt>
      <trkpt lat="42.5517" lon="1.537715">
        <ele>1404.0</ele>
        <time>2019-08-04T07:43:11.776Z</time>
      </trkpt>
      <trkpt lat="42.55171333" lon="1.537815">
        <ele>1404.0</ele>
        <time>2019-08-04T07:43:12.797Z</time>
      </trkpt>
      <trkpt lat="42.55172" lon="1.53786333">
        <ele>1404.0</ele>
        <time>2019-08-04T07:43:13.782Z</time>
      </trkpt>
      <trkpt lat="42.55172" lon="1.53786333">
        <ele>1404.0</ele>
        <time>2019-08-04T07:43:14.780Z</time>
      </trkpt>
      <trkpt lat="42.55173" lon="1.53795667">
        <ele>1404.0</ele>
        <time>2019-08-04T07:43:15.782Z</time>
      </trkpt>
      <trkpt lat="42.55173" lon="1.53795667">
        <ele>1404.0</ele>
        <time>2019-08-04T07:43:16.779Z</time>
      </trkpt>
      <trkpt lat="42.55174167" lon="1.53804333">
        <ele>1404.0</ele>
        <time>2019-08-04T07:43:17.778Z</time>
      </trkpt>
      <trkpt lat="42.551745" lon="1.53809167">
        <ele>1404.0</ele>
        <time>2019-08-04T07:43:18.784Z</time>
      </trkpt>
      <trkpt lat="42.551745" lon="1.53809167">
        <ele>1404.0</ele>
        <time>2019-08-04T07:43:19.776Z</time>
      </trkpt>
      <trkpt lat="42.55176" lon="1.53818333">
        <ele>1404.0</ele>
        <time>2019-08-04T07:43:20.796Z</time>
      </trkpt>
      <trkpt lat="42.55176667" lon="1.53822833">
        <ele>1404.0</ele>
        <time>2019-08-04T07:43:21.795Z</time>
      </trkpt>
      <trkpt lat="42.55176667" lon="1.53822833">
        <ele>1404.0</ele>
        <time>2019-08-04T07:43:22.780Z</time>
      </trkpt>
      <trkpt lat="42.55177833" lon="1.53831333">
        <ele>1404.0</ele>
        <time>2019-08-04T07:43:23.781Z</time>
      </trkpt>
      <trkpt lat="42.55178667" lon="1.53835167">
        <ele>1404.0</ele>
        <time>2019-08-04T07:43:24.782Z</time>
      </trkpt>
      <trkpt lat="42.55178667" lon="1.53835167">
        <ele>1404.0</ele>
        <time>2019-08-04T07:43:25.798Z</time>
      </trkpt>
      <trkpt lat="42.55180333" lon="1.53842667">
        <ele>1404.0</ele>
        <time>2019-08-04T07:43:26.782Z</time>
      </trkpt>
      <trkpt lat="42.55180333" lon="1.53842667">
        <ele>1404.0</ele>
        <time>2019-08-04T07:43:27.779Z</time>
      </trkpt>
      <trkpt lat="42.55181833" lon="1.53850167">
        <ele>1404.0</ele>
        <time>2019-08-04T07:43:28.766Z</time>
      </trkpt>
      <trkpt lat="42.55181833" lon="1.53850167">
        <ele>1404.0</ele>
        <time>2019-08-04T07:43:29.783Z</time>
      </trkpt>
      <trkpt lat="42.55183167" lon="1.53857167">
        <ele>1404.0</ele>
        <time>2019-08-04T07:43:30.782Z</time>
      </trkpt>
      <trkpt lat="42.55183667" lon="1.53860667">
        <ele>1405.0</ele>
        <time>2019-08-04T07:43:31.782Z</time>
      </trkpt>
      <trkpt lat="42.55183667" lon="1.53860667">
        <ele>1405.0</ele>
        <time>2019-08-04T07:43:32.779Z</time>
      </trkpt>
      <trkpt lat="42.551845" lon="1.53866833">
        <ele>1405.0</ele>
        <time>2019-08-04T07:43:33.782Z</time>
      </trkpt>
      <trkpt lat="42.551845" lon="1.53866833">
        <ele>1405.0</ele>
        <time>2019-08-04T07:43:34.784Z</time>
      </trkpt>
      <trkpt lat="42.55185167" lon="1.538715">
        <ele>1405.0</ele>
        <time>2019-08-04T07:43:35.782Z</time>
      </trkpt>
      <trkpt lat="42.55185833" lon="1.538745">
        <ele>1405.0</ele>
        <time>2019-08-04T07:43:36.782Z</time>
      </trkpt>
      <trkpt lat="42.55185833" lon="1.538745">
        <ele>1405.0</ele>
        <time>2019-08-04T07:43:37.801Z</time>
      </trkpt>
      <trkpt lat="42.55186833" lon="1.53881167">
        <ele>1405.0</ele>
        <time>2019-08-04T07:43:38.802Z</time>
      </trkpt>
      <trkpt lat="42.55186833" lon="1.53881167">
        <ele>1405.0</ele>
        <time>2019-08-04T07:43:39.784Z</time>
      </trkpt>
      <trkpt lat="42.55187833" lon="1.53887667">
        <ele>1405.0</ele>
        <time>2019-08-04T07:43:40.782Z</time>
      </trkpt>
      <trkpt lat="42.55187833" lon="1.53887667">
        <ele>1405.0</ele>
        <time>2019-08-04T07:43:41.779Z</time>
      </trkpt>
      <trkpt lat="42.55189167" lon="1.53894167">
        <ele>1405.0</ele>
        <time>2019-08-04T07:43:42.783Z</time>
      </trkpt>
      <trkpt lat="42.55189833" lon="1.53897167">
        <ele>1405.0</ele>
        <time>2019-08-04T07:43:43.782Z</time>
      </trkpt>
      <trkpt lat="42.55189833" lon="1.53897167">
        <ele>1405.0</ele>
        <time>2019-08-04T07:43:44.778Z</time>
      </trkpt>
      <trkpt lat="42.55191333" lon="1.53901667">
        <ele>1405.0</ele>
        <time>2019-08-04T07:43:45.782Z</time>
      </trkpt>
      <trkpt lat="42.55191333" lon="1.53901667">
        <ele>1405.0</ele>
        <time>2019-08-04T07:43:46.800Z</time>
      </trkpt>
      <trkpt lat="42.55192667" lon="1.53906833">
        <ele>1406.0</ele>
        <time>2019-08-04T07:43:47.784Z</time>
      </trkpt>
      <trkpt lat="42.55193333" lon="1.53909333">
        <ele>1406.0</ele>
        <time>2019-08-04T07:43:48.802Z</time>
      </trkpt>
      <trkpt lat="42.55193333" lon="1.53909333">
        <ele>1406.0</ele>
        <time>2019-08-04T07:43:49.778Z</time>
      </trkpt>
      <trkpt lat="42.551945" lon="1.53915833">
        <ele>1406.0</ele>
        <time>2019-08-04T07:43:50.781Z</time>
      </trkpt>
      <trkpt lat="42.55194833" lon="1.53918667">
        <ele>1406.0</ele>
        <time>2019-08-04T07:43:51.796Z</time>
      </trkpt>
      <trkpt lat="42.55194833" lon="1.53918667">
        <ele>1406.0</ele>
        <time>2019-08-04T07:43:52.778Z</time>
      </trkpt>
      <trkpt lat="42.55196833" lon="1.53926333">
        <ele>1406.0</ele>
        <time>2019-08-04T07:43:53.793Z</time>
      </trkpt>
      <trkpt lat="42.55198" lon="1.53930333">
        <ele>1406.0</ele>
        <time>2019-08-04T07:43:54.783Z</time>
      </trkpt>
      <trkpt lat="42.55198" lon="1.53930333">
        <ele>1406.0</ele>
        <time>2019-08-04T07:43:55.800Z</time>
      </trkpt>
      <trkpt lat="42.552005" lon="1.53937333">
        <ele>1407.0</ele>
        <time>2019-08-04T07:43:56.783Z</time>
      </trkpt>
      <trkpt lat="42.55202" lon="1.53940667">
        <ele>1407.0</ele>
        <time>2019-08-04T07:43:57.779Z</time>
      </trkpt>
      <trkpt lat="42.552035" lon="1.53944">
        <ele>1407.0</ele>
        <time>2019-08-04T07:43:58.782Z</time>
      </trkpt>
      <trkpt lat="42.552035" lon="1.53944">
        <ele>1407.0</ele>
        <time>2019-08-04T07:43:59.776Z</time>
      </trkpt>
      <trkpt lat="42.552065" lon="1.53948">
        <ele>1408.0</ele>
        <time>2019-08-04T07:44:00.796Z</time>
      </trkpt>
      <trkpt lat="42.552065" lon="1.53948">
        <ele>1408.0</ele>
        <time>2019-08-04T07:44:01.779Z</time>
      </trkpt>
      <trkpt lat="42.55209667" lon="1.53953">
        <ele>1409.0</ele>
        <time>2019-08-04T07:44:02.779Z</time>
      </trkpt>
      <trkpt lat="42.55209667" lon="1.53953">
        <ele>1409.0</ele>
        <time>2019-08-04T07:44:03.801Z</time>
      </trkpt>
      <trkpt lat="42.552135" lon="1.53959833">
        <ele>1410.0</ele>
        <time>2019-08-04T07:44:04.782Z</time>
      </trkpt>
      <trkpt lat="42.552135" lon="1.53959833">
        <ele>1410.0</ele>
        <time>2019-08-04T07:44:05.781Z</time>
      </trkpt>
      <trkpt lat="42.55217333" lon="1.53966">
        <ele>1411.0</ele>
        <time>2019-08-04T07:44:06.782Z</time>
      </trkpt>
      <trkpt lat="42.55219667" lon="1.53969333">
        <ele>1411.0</ele>
        <time>2019-08-04T07:44:07.790Z</time>
      </trkpt>
      <trkpt lat="42.55221833" lon="1.53972833">
        <ele>1412.0</ele>
        <time>2019-08-04T07:44:08.801Z</time>
      </trkpt>
      <trkpt lat="42.55221833" lon="1.53972833">
        <ele>1412.0</ele>
        <time>2019-08-04T07:44:09.782Z</time>
      </trkpt>
      <trkpt lat="42.55225833" lon="1.53979333">
        <ele>1412.0</ele>
        <time>2019-08-04T07:44:10.782Z</time>
      </trkpt>
      <trkpt lat="42.55225833" lon="1.53979333">
        <ele>1412.0</ele>
        <time>2019-08-04T07:44:11.776Z</time>
      </trkpt>
      <trkpt lat="42.55230167" lon="1.53985833">
        <ele>1413.0</ele>
        <time>2019-08-04T07:44:12.798Z</time>
      </trkpt>
      <trkpt lat="42.55230167" lon="1.53985833">
        <ele>1413.0</ele>
        <time>2019-08-04T07:44:13.780Z</time>
      </trkpt>
      <trkpt lat="42.55235333" lon="1.53992333">
        <ele>1414.0</ele>
        <time>2019-08-04T07:44:14.782Z</time>
      </trkpt>
      <trkpt lat="42.55235333" lon="1.53992333">
        <ele>1414.0</ele>
        <time>2019-08-04T07:44:15.779Z</time>
      </trkpt>
      <trkpt lat="42.55239833" lon="1.53998">
        <ele>1415.0</ele>
        <time>2019-08-04T07:44:16.782Z</time>
      </trkpt>
      <trkpt lat="42.55242167" lon="1.54000333">
        <ele>1415.0</ele>
        <time>2019-08-04T07:44:17.782Z</time>
      </trkpt>
      <trkpt lat="42.55244333" lon="1.54000167">
        <ele>1417.0</ele>
        <time>2019-08-04T07:44:18.766Z</time>
      </trkpt>
      <trkpt lat="42.55244333" lon="1.54000167">
        <ele>1417.0</ele>
        <time>2019-08-04T07:44:19.781Z</time>
      </trkpt>
      <trkpt lat="42.55249167" lon="1.540045">
        <ele>1419.0</ele>
        <time>2019-08-04T07:44:20.782Z</time>
      </trkpt>
      <trkpt lat="42.55251667" lon="1.540075">
        <ele>1419.0</ele>
        <time>2019-08-04T07:44:21.781Z</time>
      </trkpt>
      <trkpt lat="42.55251667" lon="1.540075">
        <ele>1419.0</ele>
        <time>2019-08-04T07:44:22.779Z</time>
      </trkpt>
      <trkpt lat="42.55256667" lon="1.54012833">
        <ele>1420.0</ele>
        <time>2019-08-04T07:44:23.782Z</time>
      </trkpt>
      <trkpt lat="42.55259167" lon="1.54015833">
        <ele>1420.0</ele>
        <time>2019-08-04T07:44:24.783Z</time>
      </trkpt>
      <trkpt lat="42.55259167" lon="1.54015833">
        <ele>1420.0</ele>
        <time>2019-08-04T07:44:25.777Z</time>
      </trkpt>
      <trkpt lat="42.55264333" lon="1.54022167">
        <ele>1421.0</ele>
        <time>2019-08-04T07:44:26.797Z</time>
      </trkpt>
      <trkpt lat="42.55264333" lon="1.54022167">
        <ele>1421.0</ele>
        <time>2019-08-04T07:44:27.780Z</time>
      </trkpt>
      <trkpt lat="42.552695" lon="1.54027833">
        <ele>1422.0</ele>
        <time>2019-08-04T07:44:28.804Z</time>
      </trkpt>
      <trkpt lat="42.552695" lon="1.54027833">
        <ele>1422.0</ele>
        <time>2019-08-04T07:44:29.781Z</time>
      </trkpt>
      <trkpt lat="42.55274167" lon="1.54033167">
        <ele>1423.0</ele>
        <time>2019-08-04T07:44:30.782Z</time>
      </trkpt>
      <trkpt lat="42.55274167" lon="1.54033167">
        <ele>1423.0</ele>
        <time>2019-08-04T07:44:31.801Z</time>
      </trkpt>
      <trkpt lat="42.55279" lon="1.54038667">
        <ele>1423.0</ele>
        <time>2019-08-04T07:44:32.782Z</time>
      </trkpt>
      <trkpt lat="42.55279" lon="1.54038667">
        <ele>1423.0</ele>
        <time>2019-08-04T07:44:33.797Z</time>
      </trkpt>
      <trkpt lat="42.55283833" lon="1.54043667">
        <ele>1424.0</ele>
        <time>2019-08-04T07:44:34.789Z</time>
      </trkpt>
      <trkpt lat="42.55283833" lon="1.54043667">
        <ele>1424.0</ele>
        <time>2019-08-04T07:44:35.780Z</time>
      </trkpt>
      <trkpt lat="42.55289167" lon="1.54048333">
        <ele>1424.0</ele>
        <time>2019-08-04T07:44:36.782Z</time>
      </trkpt>
      <trkpt lat="42.55289167" lon="1.54048333">
        <ele>1424.0</ele>
        <time>2019-08-04T07:44:37.776Z</time>
      </trkpt>
      <trkpt lat="42.55294667" lon="1.540525">
        <ele>1425.0</ele>
        <time>2019-08-04T07:44:38.804Z</time>
      </trkpt>
      <trkpt lat="42.55294667" lon="1.540525">
        <ele>1425.0</ele>
        <time>2019-08-04T07:44:39.780Z</time>
      </trkpt>
      <trkpt lat="42.55299333" lon="1.54057333">
        <ele>1425.0</ele>
        <time>2019-08-04T07:44:40.796Z</time>
      </trkpt>
      <trkpt lat="42.55301" lon="1.54060333">
        <ele>1426.0</ele>
        <time>2019-08-04T07:44:41.788Z</time>
      </trkpt>
      <trkpt lat="42.55301" lon="1.54060333">
        <ele>1426.0</ele>
        <time>2019-08-04T07:44:42.780Z</time>
      </trkpt>
      <trkpt lat="42.553055" lon="1.54065">
        <ele>1426.0</ele>
        <time>2019-08-04T07:44:43.782Z</time>
      </trkpt>
      <trkpt lat="42.55308167" lon="1.54067">
        <ele>1427.0</ele>
        <time>2019-08-04T07:44:44.783Z</time>
      </trkpt>
      <trkpt lat="42.55308167" lon="1.54067">
        <ele>1427.0</ele>
        <time>2019-08-04T07:44:45.780Z</time>
      </trkpt>
      <trkpt lat="42.55313667" lon="1.54070333">
        <ele>1427.0</ele>
        <time>2019-08-04T07:44:46.795Z</time>
      </trkpt>
      <trkpt lat="42.55313667" lon="1.54070333">
        <ele>1427.0</ele>
        <time>2019-08-04T07:44:47.775Z</time>
      </trkpt>
      <trkpt lat="42.55318833" lon="1.54071833">
        <ele>1427.0</ele>
        <time>2019-08-04T07:44:48.798Z</time>
      </trkpt>
      <trkpt lat="42.55318833" lon="1.54071833">
        <ele>1427.0</ele>
        <time>2019-08-04T07:44:49.779Z</time>
      </trkpt>
      <trkpt lat="42.55324667" lon="1.540725">
        <ele>1428.0</ele>
        <time>2019-08-04T07:44:50.783Z</time>
      </trkpt>
      <trkpt lat="42.55324667" lon="1.540725">
        <ele>1428.0</ele>
        <time>2019-08-04T07:44:51.780Z</time>
      </trkpt>
      <trkpt lat="42.55330833" lon="1.540735">
        <ele>1429.0</ele>
        <time>2019-08-04T07:44:52.795Z</time>
      </trkpt>
      <trkpt lat="42.55330833" lon="1.540735">
        <ele>1429.0</ele>
        <time>2019-08-04T07:44:53.777Z</time>
      </trkpt>
      <trkpt lat="42.553365" lon="1.540745">
        <ele>1429.0</ele>
        <time>2019-08-04T07:44:54.797Z</time>
      </trkpt>
      <trkpt lat="42.553365" lon="1.540745">
        <ele>1429.0</ele>
        <time>2019-08-04T07:44:55.780Z</time>
      </trkpt>
      <trkpt lat="42.553425" lon="1.54075">
        <ele>1430.0</ele>
        <time>2019-08-04T07:44:56.802Z</time>
      </trkpt>
      <trkpt lat="42.553425" lon="1.54075">
        <ele>1430.0</ele>
        <time>2019-08-04T07:44:57.783Z</time>
      </trkpt>
      <trkpt lat="42.55348" lon="1.54076333">
        <ele>1431.0</ele>
        <time>2019-08-04T07:44:58.774Z</time>
      </trkpt>
      <trkpt lat="42.55348" lon="1.54076333">
        <ele>1431.0</ele>
        <time>2019-08-04T07:44:59.791Z</time>
      </trkpt>
      <trkpt lat="42.55353167" lon="1.54078">
        <ele>1431.0</ele>
        <time>2019-08-04T07:45:00.783Z</time>
      </trkpt>
      <trkpt lat="42.55353167" lon="1.54078">
        <ele>1431.0</ele>
        <time>2019-08-04T07:45:01.777Z</time>
      </trkpt>
      <trkpt lat="42.55358167" lon="1.54079667">
        <ele>1432.0</ele>
        <time>2019-08-04T07:45:02.782Z</time>
      </trkpt>
      <trkpt lat="42.55358167" lon="1.54079667">
        <ele>1432.0</ele>
        <time>2019-08-04T07:45:03.781Z</time>
      </trkpt>
      <trkpt lat="42.55362833" lon="1.54080833">
        <ele>1433.0</ele>
        <time>2019-08-04T07:45:04.793Z</time>
      </trkpt>
      <trkpt lat="42.55362833" lon="1.54080833">
        <ele>1433.0</ele>
        <time>2019-08-04T07:45:05.780Z</time>
      </trkpt>
      <trkpt lat="42.55368" lon="1.54084167">
        <ele>1433.0</ele>
        <time>2019-08-04T07:45:06.783Z</time>
      </trkpt>
      <trkpt lat="42.55368" lon="1.54084167">
        <ele>1433.0</ele>
        <time>2019-08-04T07:45:07.781Z</time>
      </trkpt>
      <trkpt lat="42.55372833" lon="1.54089667">
        <ele>1434.0</ele>
        <time>2019-08-04T07:45:08.767Z</time>
      </trkpt>
      <trkpt lat="42.55372833" lon="1.54089667">
        <ele>1434.0</ele>
        <time>2019-08-04T07:45:09.795Z</time>
      </trkpt>
      <trkpt lat="42.55377333" lon="1.540955">
        <ele>1435.0</ele>
        <time>2019-08-04T07:45:10.783Z</time>
      </trkpt>
      <trkpt lat="42.55377333" lon="1.540955">
        <ele>1435.0</ele>
        <time>2019-08-04T07:45:11.780Z</time>
      </trkpt>
      <trkpt lat="42.55382167" lon="1.54101667">
        <ele>1436.0</ele>
        <time>2019-08-04T07:45:12.783Z</time>
      </trkpt>
      <trkpt lat="42.55382167" lon="1.54101667">
        <ele>1436.0</ele>
        <time>2019-08-04T07:45:13.780Z</time>
      </trkpt>
      <trkpt lat="42.55387167" lon="1.54107667">
        <ele>1437.0</ele>
        <time>2019-08-04T07:45:14.782Z</time>
      </trkpt>
      <trkpt lat="42.55387167" lon="1.54107667">
        <ele>1437.0</ele>
        <time>2019-08-04T07:45:15.777Z</time>
      </trkpt>
      <trkpt lat="42.55391" lon="1.541135">
        <ele>1437.0</ele>
        <time>2019-08-04T07:45:16.782Z</time>
      </trkpt>
      <trkpt lat="42.55392333" lon="1.54117">
        <ele>1438.0</ele>
        <time>2019-08-04T07:45:17.783Z</time>
      </trkpt>
      <trkpt lat="42.55394167" lon="1.54119667">
        <ele>1438.0</ele>
        <time>2019-08-04T07:45:18.800Z</time>
      </trkpt>
      <trkpt lat="42.55394167" lon="1.54119667">
        <ele>1438.0</ele>
        <time>2019-08-04T07:45:19.780Z</time>
      </trkpt>
      <trkpt lat="42.55398333" lon="1.54126333">
        <ele>1439.0</ele>
        <time>2019-08-04T07:45:20.783Z</time>
      </trkpt>
      <trkpt lat="42.55398333" lon="1.54126333">
        <ele>1439.0</ele>
        <time>2019-08-04T07:45:21.801Z</time>
      </trkpt>
      <trkpt lat="42.55403833" lon="1.54130833">
        <ele>1440.0</ele>
        <time>2019-08-04T07:45:22.783Z</time>
      </trkpt>
      <trkpt lat="42.55403833" lon="1.54130833">
        <ele>1440.0</ele>
        <time>2019-08-04T07:45:23.780Z</time>
      </trkpt>
      <trkpt lat="42.55410667" lon="1.54133167">
        <ele>1440.0</ele>
        <time>2019-08-04T07:45:24.786Z</time>
      </trkpt>
      <trkpt lat="42.55410667" lon="1.54133167">
        <ele>1440.0</ele>
        <time>2019-08-04T07:45:25.780Z</time>
      </trkpt>
      <trkpt lat="42.55417333" lon="1.54133">
        <ele>1440.0</ele>
        <time>2019-08-04T07:45:26.801Z</time>
      </trkpt>
      <trkpt lat="42.55417333" lon="1.54133">
        <ele>1440.0</ele>
        <time>2019-08-04T07:45:27.782Z</time>
      </trkpt>
      <trkpt lat="42.554245" lon="1.54132">
        <ele>1441.0</ele>
        <time>2019-08-04T07:45:28.801Z</time>
      </trkpt>
      <trkpt lat="42.554245" lon="1.54132">
        <ele>1441.0</ele>
        <time>2019-08-04T07:45:29.780Z</time>
      </trkpt>
      <trkpt lat="42.55431" lon="1.541295">
        <ele>1441.0</ele>
        <time>2019-08-04T07:45:30.783Z</time>
      </trkpt>
      <trkpt lat="42.55431" lon="1.541295">
        <ele>1441.0</ele>
        <time>2019-08-04T07:45:31.781Z</time>
      </trkpt>
      <trkpt lat="42.55436333" lon="1.54125333">
        <ele>1442.0</ele>
        <time>2019-08-04T07:45:32.783Z</time>
      </trkpt>
      <trkpt lat="42.55436333" lon="1.54125333">
        <ele>1442.0</ele>
        <time>2019-08-04T07:45:33.783Z</time>
      </trkpt>
      <trkpt lat="42.55441167" lon="1.54119833">
        <ele>1442.0</ele>
        <time>2019-08-04T07:45:34.783Z</time>
      </trkpt>
      <trkpt lat="42.55443667" lon="1.541175">
        <ele>1442.0</ele>
        <time>2019-08-04T07:45:35.765Z</time>
      </trkpt>
      <trkpt lat="42.55443667" lon="1.541175">
        <ele>1442.0</ele>
        <time>2019-08-04T07:45:36.781Z</time>
      </trkpt>
      <trkpt lat="42.55448667" lon="1.54112833">
        <ele>1443.0</ele>
        <time>2019-08-04T07:45:37.783Z</time>
      </trkpt>
      <trkpt lat="42.55450833" lon="1.541105">
        <ele>1443.0</ele>
        <time>2019-08-04T07:45:38.801Z</time>
      </trkpt>
      <trkpt lat="42.55450833" lon="1.541105">
        <ele>1443.0</ele>
        <time>2019-08-04T07:45:39.781Z</time>
      </trkpt>
      <trkpt lat="42.55455333" lon="1.54105833">
        <ele>1443.0</ele>
        <time>2019-08-04T07:45:40.782Z</time>
      </trkpt>
      <trkpt lat="42.55457833" lon="1.54104167">
        <ele>1443.0</ele>
        <time>2019-08-04T07:45:41.774Z</time>
      </trkpt>
      <trkpt lat="42.55457833" lon="1.54104167">
        <ele>1443.0</ele>
        <time>2019-08-04T07:45:42.791Z</time>
      </trkpt>
      <trkpt lat="42.55461667" lon="1.54098667">
        <ele>1443.0</ele>
        <time>2019-08-04T07:45:43.782Z</time>
      </trkpt>
      <trkpt lat="42.55463833" lon="1.540965">
        <ele>1443.0</ele>
        <time>2019-08-04T07:45:44.783Z</time>
      </trkpt>
      <trkpt lat="42.55463833" lon="1.540965">
        <ele>1443.0</ele>
        <time>2019-08-04T07:45:45.780Z</time>
      </trkpt>
      <trkpt lat="42.55467833" lon="1.54092">
        <ele>1444.0</ele>
        <time>2019-08-04T07:45:46.795Z</time>
      </trkpt>
      <trkpt lat="42.55467833" lon="1.54092">
        <ele>1444.0</ele>
        <time>2019-08-04T07:45:47.780Z</time>
      </trkpt>
      <trkpt lat="42.55472" lon="1.540875">
        <ele>1444.0</ele>
        <time>2019-08-04T07:45:48.802Z</time>
      </trkpt>
      <trkpt lat="42.55472" lon="1.540875">
        <ele>1444.0</ele>
        <time>2019-08-04T07:45:49.783Z</time>
      </trkpt>
      <trkpt lat="42.55476167" lon="1.540835">
        <ele>1444.0</ele>
        <time>2019-08-04T07:45:50.783Z</time>
      </trkpt>
      <trkpt lat="42.55476167" lon="1.540835">
        <ele>1444.0</ele>
        <time>2019-08-04T07:45:51.777Z</time>
      </trkpt>
      <trkpt lat="42.554805" lon="1.5408">
        <ele>1444.0</ele>
        <time>2019-08-04T07:45:52.797Z</time>
      </trkpt>
      <trkpt lat="42.554825" lon="1.54078">
        <ele>1445.0</ele>
        <time>2019-08-04T07:45:53.783Z</time>
      </trkpt>
      <trkpt lat="42.554825" lon="1.54078">
        <ele>1445.0</ele>
        <time>2019-08-04T07:45:54.798Z</time>
      </trkpt>
      <trkpt lat="42.55487333" lon="1.540765">
        <ele>1445.0</ele>
        <time>2019-08-04T07:45:55.783Z</time>
      </trkpt>
      <trkpt lat="42.55491" lon="1.54078333">
        <ele>1445.0</ele>
        <time>2019-08-04T07:45:56.783Z</time>
      </trkpt>
      <trkpt lat="42.55491" lon="1.54078333">
        <ele>1445.0</ele>
        <time>2019-08-04T07:45:57.778Z</time>
      </trkpt>
      <trkpt lat="42.554955" lon="1.54077667">
        <ele>1445.0</ele>
        <time>2019-08-04T07:45:58.768Z</time>
      </trkpt>
      <trkpt lat="42.554955" lon="1.54077667">
        <ele>1445.0</ele>
        <time>2019-08-04T07:45:59.784Z</time>
      </trkpt>
      <trkpt lat="42.55500333" lon="1.54078">
        <ele>1446.0</ele>
        <time>2019-08-04T07:46:00.784Z</time>
      </trkpt>
      <trkpt lat="42.55500333" lon="1.54078">
        <ele>1446.0</ele>
        <time>2019-08-04T07:46:01.772Z</time>
      </trkpt>
      <trkpt lat="42.55505" lon="1.54080333">
        <ele>1446.0</ele>
        <time>2019-08-04T07:46:02.792Z</time>
      </trkpt>
      <trkpt lat="42.55505" lon="1.54080333">
        <ele>1446.0</ele>
        <time>2019-08-04T07:46:03.784Z</time>
      </trkpt>
      <trkpt lat="42.55509833" lon="1.54083833">
        <ele>1446.0</ele>
        <time>2019-08-04T07:46:04.781Z</time>
      </trkpt>
      <trkpt lat="42.55512" lon="1.540865">
        <ele>1446.0</ele>
        <time>2019-08-04T07:46:05.795Z</time>
      </trkpt>
      <trkpt lat="42.55512" lon="1.540865">
        <ele>1446.0</ele>
        <time>2019-08-04T07:46:06.778Z</time>
      </trkpt>
      <trkpt lat="42.55515667" lon="1.54092667">
        <ele>1446.0</ele>
        <time>2019-08-04T07:46:07.783Z</time>
      </trkpt>
      <trkpt lat="42.55516167" lon="1.54094">
        <ele>1446.0</ele>
        <time>2019-08-04T07:46:08.768Z</time>
      </trkpt>
      <trkpt lat="42.55516167" lon="1.54094">
        <ele>1446.0</ele>
        <time>2019-08-04T07:46:09.783Z</time>
      </trkpt>
      <trkpt lat="42.55518" lon="1.54098833">
        <ele>1446.0</ele>
        <time>2019-08-04T07:46:10.782Z</time>
      </trkpt>
      <trkpt lat="42.55518" lon="1.54098833">
        <ele>1446.0</ele>
        <time>2019-08-04T07:46:11.802Z</time>
      </trkpt>
      <trkpt lat="42.55521667" lon="1.54107833">
        <ele>1446.0</ele>
        <time>2019-08-04T07:46:12.783Z</time>
      </trkpt>
      <trkpt lat="42.55522667" lon="1.541115">
        <ele>1447.0</ele>
        <time>2019-08-04T07:46:13.783Z</time>
      </trkpt>
      <trkpt lat="42.55523667" lon="1.54115333">
        <ele>1447.0</ele>
        <time>2019-08-04T07:46:14.783Z</time>
      </trkpt>
      <trkpt lat="42.55523667" lon="1.54115333">
        <ele>1447.0</ele>
        <time>2019-08-04T07:46:15.777Z</time>
      </trkpt>
      <trkpt lat="42.55525833" lon="1.54121833">
        <ele>1447.0</ele>
        <time>2019-08-04T07:46:16.784Z</time>
      </trkpt>
      <trkpt lat="42.55525833" lon="1.54121833">
        <ele>1447.0</ele>
        <time>2019-08-04T07:46:17.780Z</time>
      </trkpt>
      <trkpt lat="42.55528" lon="1.54128333">
        <ele>1447.0</ele>
        <time>2019-08-04T07:46:18.767Z</time>
      </trkpt>
      <trkpt lat="42.55528" lon="1.54128333">
        <ele>1447.0</ele>
        <time>2019-08-04T07:46:19.785Z</time>
      </trkpt>
      <trkpt lat="42.55530333" lon="1.54134833">
        <ele>1447.0</ele>
        <time>2019-08-04T07:46:20.782Z</time>
      </trkpt>
      <trkpt lat="42.55530333" lon="1.54134833">
        <ele>1447.0</ele>
        <time>2019-08-04T07:46:21.765Z</time>
      </trkpt>
      <trkpt lat="42.55532" lon="1.54141">
        <ele>1448.0</ele>
        <time>2019-08-04T07:46:22.785Z</time>
      </trkpt>
      <trkpt lat="42.55532" lon="1.54141">
        <ele>1448.0</ele>
        <time>2019-08-04T07:46:23.781Z</time>
      </trkpt>
      <trkpt lat="42.55534333" lon="1.541475">
        <ele>1448.0</ele>
        <time>2019-08-04T07:46:24.783Z</time>
      </trkpt>
      <trkpt lat="42.55535167" lon="1.54151333">
        <ele>1448.0</ele>
        <time>2019-08-04T07:46:25.783Z</time>
      </trkpt>
      <trkpt lat="42.55536" lon="1.54154833">
        <ele>1448.0</ele>
        <time>2019-08-04T07:46:26.783Z</time>
      </trkpt>
      <trkpt lat="42.55536" lon="1.54154833">
        <ele>1448.0</ele>
        <time>2019-08-04T07:46:27.804Z</time>
      </trkpt>
      <trkpt lat="42.55537333" lon="1.54162167">
        <ele>1449.0</ele>
        <time>2019-08-04T07:46:28.802Z</time>
      </trkpt>
      <trkpt lat="42.55538167" lon="1.54165667">
        <ele>1449.0</ele>
        <time>2019-08-04T07:46:29.783Z</time>
      </trkpt>
      <trkpt lat="42.55539" lon="1.541685">
        <ele>1449.0</ele>
        <time>2019-08-04T07:46:30.798Z</time>
      </trkpt>
      <trkpt lat="42.55539" lon="1.541685">
        <ele>1449.0</ele>
        <time>2019-08-04T07:46:31.780Z</time>
      </trkpt>
      <trkpt lat="42.555405" lon="1.54175333">
        <ele>1449.0</ele>
        <time>2019-08-04T07:46:32.802Z</time>
      </trkpt>
      <trkpt lat="42.555405" lon="1.54175333">
        <ele>1449.0</ele>
        <time>2019-08-04T07:46:33.784Z</time>
      </trkpt>
      <trkpt lat="42.55542167" lon="1.54181">
        <ele>1450.0</ele>
        <time>2019-08-04T07:46:34.783Z</time>
      </trkpt>
      <trkpt lat="42.55542167" lon="1.54181">
        <ele>1450.0</ele>
        <time>2019-08-04T07:46:35.780Z</time>
      </trkpt>
      <trkpt lat="42.555435" lon="1.54186">
        <ele>1450.0</ele>
        <time>2019-08-04T07:46:36.795Z</time>
      </trkpt>
      <trkpt lat="42.555435" lon="1.54186">
        <ele>1450.0</ele>
        <time>2019-08-04T07:46:37.778Z</time>
      </trkpt>
      <trkpt lat="42.55544833" lon="1.54192">
        <ele>1451.0</ele>
        <time>2019-08-04T07:46:38.800Z</time>
      </trkpt>
      <trkpt lat="42.555455" lon="1.541955">
        <ele>1451.0</ele>
        <time>2019-08-04T07:46:39.782Z</time>
      </trkpt>
      <trkpt lat="42.55545833" lon="1.541985">
        <ele>1451.0</ele>
        <time>2019-08-04T07:46:40.783Z</time>
      </trkpt>
      <trkpt lat="42.55545833" lon="1.541985">
        <ele>1451.0</ele>
        <time>2019-08-04T07:46:41.802Z</time>
      </trkpt>
      <trkpt lat="42.55546833" lon="1.54204333">
        <ele>1452.0</ele>
        <time>2019-08-04T07:46:42.785Z</time>
      </trkpt>
      <trkpt lat="42.55546833" lon="1.54204333">
        <ele>1452.0</ele>
        <time>2019-08-04T07:46:43.774Z</time>
      </trkpt>
      <trkpt lat="42.55547833" lon="1.54209333">
        <ele>1452.0</ele>
        <time>2019-08-04T07:46:44.795Z</time>
      </trkpt>
      <trkpt lat="42.55547833" lon="1.54209333">
        <ele>1452.0</ele>
        <time>2019-08-04T07:46:45.781Z</time>
      </trkpt>
      <trkpt lat="42.55549167" lon="1.54215333">
        <ele>1452.0</ele>
        <time>2019-08-04T07:46:46.802Z</time>
      </trkpt>
      <trkpt lat="42.55549167" lon="1.54215333">
        <ele>1452.0</ele>
        <time>2019-08-04T07:46:47.783Z</time>
      </trkpt>
      <trkpt lat="42.55550833" lon="1.54221667">
        <ele>1453.0</ele>
        <time>2019-08-04T07:46:48.802Z</time>
      </trkpt>
      <trkpt lat="42.55551333" lon="1.542245">
        <ele>1453.0</ele>
        <time>2019-08-04T07:46:49.783Z</time>
      </trkpt>
      <trkpt lat="42.55552" lon="1.54227333">
        <ele>1453.0</ele>
        <time>2019-08-04T07:46:50.784Z</time>
      </trkpt>
      <trkpt lat="42.55552" lon="1.54227333">
        <ele>1453.0</ele>
        <time>2019-08-04T07:46:51.781Z</time>
      </trkpt>
      <trkpt lat="42.55553833" lon="1.54234167">
        <ele>1453.0</ele>
        <time>2019-08-04T07:46:52.783Z</time>
      </trkpt>
      <trkpt lat="42.55553833" lon="1.54234167">
        <ele>1453.0</ele>
        <time>2019-08-04T07:46:53.780Z</time>
      </trkpt>
      <trkpt lat="42.55555167" lon="1.54239667">
        <ele>1454.0</ele>
        <time>2019-08-04T07:46:54.783Z</time>
      </trkpt>
      <trkpt lat="42.55555167" lon="1.54239667">
        <ele>1454.0</ele>
        <time>2019-08-04T07:46:55.781Z</time>
      </trkpt>
      <trkpt lat="42.55557" lon="1.54247">
        <ele>1454.0</ele>
        <time>2019-08-04T07:46:56.784Z</time>
      </trkpt>
      <trkpt lat="42.55557" lon="1.54247">
        <ele>1454.0</ele>
        <time>2019-08-04T07:46:57.778Z</time>
      </trkpt>
      <trkpt lat="42.55558333" lon="1.542525">
        <ele>1454.0</ele>
        <time>2019-08-04T07:46:58.800Z</time>
      </trkpt>
      <trkpt lat="42.55558333" lon="1.542525">
        <ele>1454.0</ele>
        <time>2019-08-04T07:46:59.780Z</time>
      </trkpt>
      <trkpt lat="42.55559833" lon="1.54257833">
        <ele>1455.0</ele>
        <time>2019-08-04T07:47:00.781Z</time>
      </trkpt>
      <trkpt lat="42.55559833" lon="1.54257833">
        <ele>1455.0</ele>
        <time>2019-08-04T07:47:01.796Z</time>
      </trkpt>
      <trkpt lat="42.55561167" lon="1.542645">
        <ele>1456.0</ele>
        <time>2019-08-04T07:47:02.783Z</time>
      </trkpt>
      <trkpt lat="42.55561167" lon="1.542645">
        <ele>1456.0</ele>
        <time>2019-08-04T07:47:03.799Z</time>
      </trkpt>
      <trkpt lat="42.55562167" lon="1.542695">
        <ele>1456.0</ele>
        <time>2019-08-04T07:47:04.782Z</time>
      </trkpt>
      <trkpt lat="42.55562167" lon="1.542695">
        <ele>1456.0</ele>
        <time>2019-08-04T07:47:05.787Z</time>
      </trkpt>
      <trkpt lat="42.55563167" lon="1.54275">
        <ele>1457.0</ele>
        <time>2019-08-04T07:47:06.770Z</time>
      </trkpt>
      <trkpt lat="42.55563167" lon="1.54275">
        <ele>1457.0</ele>
        <time>2019-08-04T07:47:07.776Z</time>
      </trkpt>
      <trkpt lat="42.55564333" lon="1.542825">
        <ele>1457.0</ele>
        <time>2019-08-04T07:47:08.804Z</time>
      </trkpt>
      <trkpt lat="42.55564333" lon="1.542825">
        <ele>1457.0</ele>
        <time>2019-08-04T07:47:09.794Z</time>
      </trkpt>
      <trkpt lat="42.55565667" lon="1.5429">
        <ele>1457.0</ele>
        <time>2019-08-04T07:47:10.783Z</time>
      </trkpt>
      <trkpt lat="42.55565667" lon="1.5429">
        <ele>1457.0</ele>
        <time>2019-08-04T07:47:11.779Z</time>
      </trkpt>
      <trkpt lat="42.555665" lon="1.54297833">
        <ele>1458.0</ele>
        <time>2019-08-04T07:47:12.785Z</time>
      </trkpt>
      <trkpt lat="42.555665" lon="1.54297833">
        <ele>1458.0</ele>
        <time>2019-08-04T07:47:13.781Z</time>
      </trkpt>
      <trkpt lat="42.55567" lon="1.54304333">
        <ele>1458.0</ele>
        <time>2019-08-04T07:47:14.784Z</time>
      </trkpt>
      <trkpt lat="42.55567167" lon="1.543075">
        <ele>1459.0</ele>
        <time>2019-08-04T07:47:15.782Z</time>
      </trkpt>
      <trkpt lat="42.55567167" lon="1.543075">
        <ele>1459.0</ele>
        <time>2019-08-04T07:47:16.798Z</time>
      </trkpt>
      <trkpt lat="42.55568167" lon="1.54314167">
        <ele>1459.0</ele>
        <time>2019-08-04T07:47:17.784Z</time>
      </trkpt>
      <trkpt lat="42.55568167" lon="1.54317">
        <ele>1459.0</ele>
        <time>2019-08-04T07:47:18.767Z</time>
      </trkpt>
      <trkpt lat="42.55568167" lon="1.54317">
        <ele>1459.0</ele>
        <time>2019-08-04T07:47:19.783Z</time>
      </trkpt>
      <trkpt lat="42.55568667" lon="1.54325">
        <ele>1459.0</ele>
        <time>2019-08-04T07:47:20.784Z</time>
      </trkpt>
      <trkpt lat="42.55568667" lon="1.54325">
        <ele>1459.0</ele>
        <time>2019-08-04T07:47:21.780Z</time>
      </trkpt>
      <trkpt lat="42.55569" lon="1.543325">
        <ele>1460.0</ele>
        <time>2019-08-04T07:47:22.802Z</time>
      </trkpt>
      <trkpt lat="42.55569" lon="1.543325">
        <ele>1460.0</ele>
        <time>2019-08-04T07:47:23.784Z</time>
      </trkpt>
      <trkpt lat="42.55569333" lon="1.54339333">
        <ele>1460.0</ele>
        <time>2019-08-04T07:47:24.785Z</time>
      </trkpt>
      <trkpt lat="42.55569333" lon="1.54339333">
        <ele>1460.0</ele>
        <time>2019-08-04T07:47:25.780Z</time>
      </trkpt>
      <trkpt lat="42.5557" lon="1.54346667">
        <ele>1460.0</ele>
        <time>2019-08-04T07:47:26.783Z</time>
      </trkpt>
      <trkpt lat="42.5557" lon="1.54346667">
        <ele>1460.0</ele>
        <time>2019-08-04T07:47:27.766Z</time>
      </trkpt>
      <trkpt lat="42.55571" lon="1.54353833">
        <ele>1461.0</ele>
        <time>2019-08-04T07:47:28.767Z</time>
      </trkpt>
      <trkpt lat="42.55571" lon="1.54353833">
        <ele>1461.0</ele>
        <time>2019-08-04T07:47:29.783Z</time>
      </trkpt>
      <trkpt lat="42.55572" lon="1.54360333">
        <ele>1461.0</ele>
        <time>2019-08-04T07:47:30.784Z</time>
      </trkpt>
      <trkpt lat="42.55572" lon="1.54360333">
        <ele>1461.0</ele>
        <time>2019-08-04T07:47:31.779Z</time>
      </trkpt>
      <trkpt lat="42.55573" lon="1.543665">
        <ele>1461.0</ele>
        <time>2019-08-04T07:47:32.782Z</time>
      </trkpt>
      <trkpt lat="42.55573" lon="1.543665">
        <ele>1461.0</ele>
        <time>2019-08-04T07:47:33.799Z</time>
      </trkpt>
      <trkpt lat="42.55574333" lon="1.543725">
        <ele>1462.0</ele>
        <time>2019-08-04T07:47:34.782Z</time>
      </trkpt>
      <trkpt lat="42.55575167" lon="1.54374167">
        <ele>1462.0</ele>
        <time>2019-08-04T07:47:35.799Z</time>
      </trkpt>
      <trkpt lat="42.55576" lon="1.543765">
        <ele>1463.0</ele>
        <time>2019-08-04T07:47:36.784Z</time>
      </trkpt>
      <trkpt lat="42.55576" lon="1.543765">
        <ele>1463.0</ele>
        <time>2019-08-04T07:47:37.781Z</time>
      </trkpt>
      <trkpt lat="42.55577333" lon="1.54383">
        <ele>1463.0</ele>
        <time>2019-08-04T07:47:38.804Z</time>
      </trkpt>
      <trkpt lat="42.55577333" lon="1.54383">
        <ele>1463.0</ele>
        <time>2019-08-04T07:47:39.780Z</time>
      </trkpt>
      <trkpt lat="42.55577833" lon="1.54387167">
        <ele>1463.0</ele>
        <time>2019-08-04T07:47:40.783Z</time>
      </trkpt>
      <trkpt lat="42.55577833" lon="1.54387167">
        <ele>1463.0</ele>
        <time>2019-08-04T07:47:41.780Z</time>
      </trkpt>
      <trkpt lat="42.55580667" lon="1.54392333">
        <ele>1464.0</ele>
        <time>2019-08-04T07:47:42.785Z</time>
      </trkpt>
      <trkpt lat="42.55580667" lon="1.54392333">
        <ele>1464.0</ele>
        <time>2019-08-04T07:47:43.780Z</time>
      </trkpt>
      <trkpt lat="42.555835" lon="1.54398">
        <ele>1465.0</ele>
        <time>2019-08-04T07:47:44.784Z</time>
      </trkpt>
      <trkpt lat="42.555835" lon="1.54398">
        <ele>1465.0</ele>
        <time>2019-08-04T07:47:45.780Z</time>
      </trkpt>
      <trkpt lat="42.55586167" lon="1.54404667">
        <ele>1466.0</ele>
        <time>2019-08-04T07:47:46.780Z</time>
      </trkpt>
      <trkpt lat="42.55587833" lon="1.54407833">
        <ele>1466.0</ele>
        <time>2019-08-04T07:47:47.796Z</time>
      </trkpt>
      <trkpt lat="42.55589167" lon="1.544105">
        <ele>1467.0</ele>
        <time>2019-08-04T07:47:48.798Z</time>
      </trkpt>
      <trkpt lat="42.55589167" lon="1.544105">
        <ele>1467.0</ele>
        <time>2019-08-04T07:47:49.780Z</time>
      </trkpt>
      <trkpt lat="42.55591833" lon="1.54415833">
        <ele>1467.0</ele>
        <time>2019-08-04T07:47:50.783Z</time>
      </trkpt>
      <trkpt lat="42.55591833" lon="1.54415833">
        <ele>1467.0</ele>
        <time>2019-08-04T07:47:51.778Z</time>
      </trkpt>
      <trkpt lat="42.55594" lon="1.54421167">
        <ele>1468.0</ele>
        <time>2019-08-04T07:47:52.793Z</time>
      </trkpt>
      <trkpt lat="42.55594" lon="1.54421167">
        <ele>1468.0</ele>
        <time>2019-08-04T07:47:53.780Z</time>
      </trkpt>
      <trkpt lat="42.55595833" lon="1.544265">
        <ele>1468.0</ele>
        <time>2019-08-04T07:47:54.784Z</time>
      </trkpt>
      <trkpt lat="42.55595833" lon="1.544265">
        <ele>1468.0</ele>
        <time>2019-08-04T07:47:55.777Z</time>
      </trkpt>
      <trkpt lat="42.55597333" lon="1.544315">
        <ele>1469.0</ele>
        <time>2019-08-04T07:47:56.793Z</time>
      </trkpt>
      <trkpt lat="42.55597333" lon="1.544315">
        <ele>1469.0</ele>
        <time>2019-08-04T07:47:57.781Z</time>
      </trkpt>
      <trkpt lat="42.555985" lon="1.54437">
        <ele>1469.0</ele>
        <time>2019-08-04T07:47:58.767Z</time>
      </trkpt>
      <trkpt lat="42.555985" lon="1.54437">
        <ele>1469.0</ele>
        <time>2019-08-04T07:47:59.783Z</time>
      </trkpt>
      <trkpt lat="42.55598667" lon="1.54444167">
        <ele>1470.0</ele>
        <time>2019-08-04T07:48:00.784Z</time>
      </trkpt>
      <trkpt lat="42.55598667" lon="1.54444167">
        <ele>1470.0</ele>
        <time>2019-08-04T07:48:01.779Z</time>
      </trkpt>
      <trkpt lat="42.55598667" lon="1.54452167">
        <ele>1470.0</ele>
        <time>2019-08-04T07:48:02.784Z</time>
      </trkpt>
      <trkpt lat="42.55598667" lon="1.54452167">
        <ele>1470.0</ele>
        <time>2019-08-04T07:48:03.784Z</time>
      </trkpt>
      <trkpt lat="42.55599" lon="1.544595">
        <ele>1471.0</ele>
        <time>2019-08-04T07:48:04.782Z</time>
      </trkpt>
      <trkpt lat="42.55599333" lon="1.54462333">
        <ele>1472.0</ele>
        <time>2019-08-04T07:48:05.785Z</time>
      </trkpt>
      <trkpt lat="42.55599333" lon="1.54462333">
        <ele>1472.0</ele>
        <time>2019-08-04T07:48:06.783Z</time>
      </trkpt>
      <trkpt lat="42.55601167" lon="1.54468">
        <ele>1473.0</ele>
        <time>2019-08-04T07:48:07.783Z</time>
      </trkpt>
      <trkpt lat="42.55601" lon="1.54471667">
        <ele>1473.0</ele>
        <time>2019-08-04T07:48:08.802Z</time>
      </trkpt>
      <trkpt lat="42.55601" lon="1.54471667">
        <ele>1473.0</ele>
        <time>2019-08-04T07:48:09.780Z</time>
      </trkpt>
      <trkpt lat="42.55601667" lon="1.54478667">
        <ele>1474.0</ele>
        <time>2019-08-04T07:48:10.783Z</time>
      </trkpt>
      <trkpt lat="42.55601667" lon="1.54478667">
        <ele>1474.0</ele>
        <time>2019-08-04T07:48:11.780Z</time>
      </trkpt>
      <trkpt lat="42.55602333" lon="1.54487333">
        <ele>1475.0</ele>
        <time>2019-08-04T07:48:12.785Z</time>
      </trkpt>
      <trkpt lat="42.55602333" lon="1.54487333">
        <ele>1475.0</ele>
        <time>2019-08-04T07:48:13.778Z</time>
      </trkpt>
      <trkpt lat="42.55602833" lon="1.54495667">
        <ele>1476.0</ele>
        <time>2019-08-04T07:48:14.784Z</time>
      </trkpt>
      <trkpt lat="42.55602833" lon="1.54495667">
        <ele>1476.0</ele>
        <time>2019-08-04T07:48:15.766Z</time>
      </trkpt>
      <trkpt lat="42.55603667" lon="1.545035">
        <ele>1477.0</ele>
        <time>2019-08-04T07:48:16.785Z</time>
      </trkpt>
      <trkpt lat="42.55603667" lon="1.545035">
        <ele>1477.0</ele>
        <time>2019-08-04T07:48:17.780Z</time>
      </trkpt>
      <trkpt lat="42.55603167" lon="1.54510833">
        <ele>1478.0</ele>
        <time>2019-08-04T07:48:18.802Z</time>
      </trkpt>
      <trkpt lat="42.55603167" lon="1.54510833">
        <ele>1478.0</ele>
        <time>2019-08-04T07:48:19.781Z</time>
      </trkpt>
      <trkpt lat="42.556025" lon="1.54518833">
        <ele>1479.0</ele>
        <time>2019-08-04T07:48:20.784Z</time>
      </trkpt>
      <trkpt lat="42.556025" lon="1.54518833">
        <ele>1479.0</ele>
        <time>2019-08-04T07:48:21.779Z</time>
      </trkpt>
      <trkpt lat="42.556025" lon="1.54526667">
        <ele>1479.0</ele>
        <time>2019-08-04T07:48:22.782Z</time>
      </trkpt>
      <trkpt lat="42.55602833" lon="1.545305">
        <ele>1480.0</ele>
        <time>2019-08-04T07:48:23.784Z</time>
      </trkpt>
      <trkpt lat="42.55602833" lon="1.545305">
        <ele>1480.0</ele>
        <time>2019-08-04T07:48:24.799Z</time>
      </trkpt>
      <trkpt lat="42.55603833" lon="1.54536">
        <ele>1480.0</ele>
        <time>2019-08-04T07:48:25.784Z</time>
      </trkpt>
      <trkpt lat="42.556045" lon="1.54539">
        <ele>1481.0</ele>
        <time>2019-08-04T07:48:26.803Z</time>
      </trkpt>
      <trkpt lat="42.556045" lon="1.54539">
        <ele>1481.0</ele>
        <time>2019-08-04T07:48:27.794Z</time>
      </trkpt>
      <trkpt lat="42.55606333" lon="1.545445">
        <ele>1482.0</ele>
        <time>2019-08-04T07:48:28.800Z</time>
      </trkpt>
      <trkpt lat="42.55606333" lon="1.545445">
        <ele>1482.0</ele>
        <time>2019-08-04T07:48:29.782Z</time>
      </trkpt>
      <trkpt lat="42.55609" lon="1.54548167">
        <ele>1483.0</ele>
        <time>2019-08-04T07:48:30.785Z</time>
      </trkpt>
      <trkpt lat="42.55609" lon="1.54548167">
        <ele>1483.0</ele>
        <time>2019-08-04T07:48:31.778Z</time>
      </trkpt>
      <trkpt lat="42.55612167" lon="1.54552">
        <ele>1484.0</ele>
        <time>2019-08-04T07:48:32.784Z</time>
      </trkpt>
      <trkpt lat="42.55612167" lon="1.54552">
        <ele>1484.0</ele>
        <time>2019-08-04T07:48:33.799Z</time>
      </trkpt>
      <trkpt lat="42.55615333" lon="1.54554833">
        <ele>1485.0</ele>
        <time>2019-08-04T07:48:34.790Z</time>
      </trkpt>
      <trkpt lat="42.55615333" lon="1.54554833">
        <ele>1485.0</ele>
        <time>2019-08-04T07:48:35.781Z</time>
      </trkpt>
      <trkpt lat="42.55619333" lon="1.54557667">
        <ele>1485.0</ele>
        <time>2019-08-04T07:48:36.782Z</time>
      </trkpt>
      <trkpt lat="42.55619333" lon="1.54557667">
        <ele>1485.0</ele>
        <time>2019-08-04T07:48:37.779Z</time>
      </trkpt>
      <trkpt lat="42.55623167" lon="1.545605">
        <ele>1487.0</ele>
        <time>2019-08-04T07:48:38.768Z</time>
      </trkpt>
      <trkpt lat="42.55623167" lon="1.545605">
        <ele>1487.0</ele>
        <time>2019-08-04T07:48:39.789Z</time>
      </trkpt>
      <trkpt lat="42.55626667" lon="1.54564667">
        <ele>1487.0</ele>
        <time>2019-08-04T07:48:40.784Z</time>
      </trkpt>
      <trkpt lat="42.55626667" lon="1.54564667">
        <ele>1487.0</ele>
        <time>2019-08-04T07:48:41.781Z</time>
      </trkpt>
      <trkpt lat="42.55630333" lon="1.54568167">
        <ele>1488.0</ele>
        <time>2019-08-04T07:48:42.785Z</time>
      </trkpt>
      <trkpt lat="42.55630333" lon="1.54568167">
        <ele>1488.0</ele>
        <time>2019-08-04T07:48:43.781Z</time>
      </trkpt>
      <trkpt lat="42.55634167" lon="1.54571833">
        <ele>1489.0</ele>
        <time>2019-08-04T07:48:44.782Z</time>
      </trkpt>
      <trkpt lat="42.55634167" lon="1.54571833">
        <ele>1489.0</ele>
        <time>2019-08-04T07:48:45.798Z</time>
      </trkpt>
      <trkpt lat="42.55638" lon="1.54576333">
        <ele>1490.0</ele>
        <time>2019-08-04T07:48:46.784Z</time>
      </trkpt>
      <trkpt lat="42.55638" lon="1.54576333">
        <ele>1490.0</ele>
        <time>2019-08-04T07:48:47.782Z</time>
      </trkpt>
      <trkpt lat="42.55641833" lon="1.54580167">
        <ele>1491.0</ele>
        <time>2019-08-04T07:48:48.767Z</time>
      </trkpt>
      <trkpt lat="42.55641833" lon="1.54580167">
        <ele>1491.0</ele>
        <time>2019-08-04T07:48:49.790Z</time>
      </trkpt>
      <trkpt lat="42.55645667" lon="1.545835">
        <ele>1491.0</ele>
        <time>2019-08-04T07:48:50.783Z</time>
      </trkpt>
      <trkpt lat="42.55645667" lon="1.545835">
        <ele>1491.0</ele>
        <time>2019-08-04T07:48:51.804Z</time>
      </trkpt>
      <trkpt lat="42.55649333" lon="1.54589333">
        <ele>1492.0</ele>
        <time>2019-08-04T07:48:52.784Z</time>
      </trkpt>
      <trkpt lat="42.55649333" lon="1.54589333">
        <ele>1492.0</ele>
        <time>2019-08-04T07:48:53.781Z</time>
      </trkpt>
      <trkpt lat="42.55653" lon="1.54595667">
        <ele>1493.0</ele>
        <time>2019-08-04T07:48:54.785Z</time>
      </trkpt>
      <trkpt lat="42.55653" lon="1.54595667">
        <ele>1493.0</ele>
        <time>2019-08-04T07:48:55.779Z</time>
      </trkpt>
      <trkpt lat="42.55655" lon="1.54603167">
        <ele>1494.0</ele>
        <time>2019-08-04T07:48:56.799Z</time>
      </trkpt>
      <trkpt lat="42.55655" lon="1.54603167">
        <ele>1494.0</ele>
        <time>2019-08-04T07:48:57.781Z</time>
      </trkpt>
      <trkpt lat="42.55655167" lon="1.54609833">
        <ele>1495.0</ele>
        <time>2019-08-04T07:48:58.798Z</time>
      </trkpt>
      <trkpt lat="42.55655167" lon="1.54609833">
        <ele>1495.0</ele>
        <time>2019-08-04T07:48:59.779Z</time>
      </trkpt>
      <trkpt lat="42.55654167" lon="1.54615667">
        <ele>1495.0</ele>
        <time>2019-08-04T07:49:00.784Z</time>
      </trkpt>
      <trkpt lat="42.55654167" lon="1.54615667">
        <ele>1495.0</ele>
        <time>2019-08-04T07:49:01.780Z</time>
      </trkpt>
      <trkpt lat="42.55652" lon="1.54618167">
        <ele>1497.0</ele>
        <time>2019-08-04T07:49:02.784Z</time>
      </trkpt>
      <trkpt lat="42.55652" lon="1.54618167">
        <ele>1497.0</ele>
        <time>2019-08-04T07:49:03.784Z</time>
      </trkpt>
      <trkpt lat="42.55647333" lon="1.54618667">
        <ele>1497.0</ele>
        <time>2019-08-04T07:49:04.782Z</time>
      </trkpt>
      <trkpt lat="42.55645333" lon="1.54617833">
        <ele>1498.0</ele>
        <time>2019-08-04T07:49:05.786Z</time>
      </trkpt>
      <trkpt lat="42.55643333" lon="1.546165">
        <ele>1498.0</ele>
        <time>2019-08-04T07:49:06.773Z</time>
      </trkpt>
      <trkpt lat="42.55643333" lon="1.546165">
        <ele>1498.0</ele>
        <time>2019-08-04T07:49:07.778Z</time>
      </trkpt>
      <trkpt lat="42.5564" lon="1.54613">
        <ele>1499.0</ele>
        <time>2019-08-04T07:49:08.801Z</time>
      </trkpt>
      <trkpt lat="42.5564" lon="1.54613">
        <ele>1499.0</ele>
        <time>2019-08-04T07:49:09.780Z</time>
      </trkpt>
      <trkpt lat="42.55636167" lon="1.54608833">
        <ele>1500.0</ele>
        <time>2019-08-04T07:49:10.785Z</time>
      </trkpt>
      <trkpt lat="42.55636167" lon="1.54608833">
        <ele>1500.0</ele>
        <time>2019-08-04T07:49:11.791Z</time>
      </trkpt>
      <trkpt lat="42.55632" lon="1.546055">
        <ele>1501.0</ele>
        <time>2019-08-04T07:49:12.785Z</time>
      </trkpt>
      <trkpt lat="42.55632" lon="1.546055">
        <ele>1501.0</ele>
        <time>2019-08-04T07:49:13.782Z</time>
      </trkpt>
      <trkpt lat="42.55628333" lon="1.54601833">
        <ele>1502.0</ele>
        <time>2019-08-04T07:49:14.784Z</time>
      </trkpt>
      <trkpt lat="42.55628333" lon="1.54601833">
        <ele>1502.0</ele>
        <time>2019-08-04T07:49:15.782Z</time>
      </trkpt>
      <trkpt lat="42.55624167" lon="1.54598">
        <ele>1503.0</ele>
        <time>2019-08-04T07:49:16.782Z</time>
      </trkpt>
      <trkpt lat="42.55622167" lon="1.54595833">
        <ele>1504.0</ele>
        <time>2019-08-04T07:49:17.783Z</time>
      </trkpt>
      <trkpt lat="42.55620333" lon="1.54593833">
        <ele>1504.0</ele>
        <time>2019-08-04T07:49:18.803Z</time>
      </trkpt>
      <trkpt lat="42.55620333" lon="1.54593833">
        <ele>1504.0</ele>
        <time>2019-08-04T07:49:19.791Z</time>
      </trkpt>
      <trkpt lat="42.556165" lon="1.54590333">
        <ele>1505.0</ele>
        <time>2019-08-04T07:49:20.781Z</time>
      </trkpt>
      <trkpt lat="42.556165" lon="1.54590333">
        <ele>1505.0</ele>
        <time>2019-08-04T07:49:21.778Z</time>
      </trkpt>
      <trkpt lat="42.55612333" lon="1.54586833">
        <ele>1506.0</ele>
        <time>2019-08-04T07:49:22.793Z</time>
      </trkpt>
      <trkpt lat="42.55612333" lon="1.54586833">
        <ele>1506.0</ele>
        <time>2019-08-04T07:49:23.782Z</time>
      </trkpt>
      <trkpt lat="42.55608" lon="1.54584">
        <ele>1507.0</ele>
        <time>2019-08-04T07:49:24.785Z</time>
      </trkpt>
      <trkpt lat="42.55608" lon="1.54584">
        <ele>1507.0</ele>
        <time>2019-08-04T07:49:25.800Z</time>
      </trkpt>
      <trkpt lat="42.55603" lon="1.54581667">
        <ele>1508.0</ele>
        <time>2019-08-04T07:49:26.784Z</time>
      </trkpt>
      <trkpt lat="42.55603" lon="1.54581667">
        <ele>1508.0</ele>
        <time>2019-08-04T07:49:27.779Z</time>
      </trkpt>
      <trkpt lat="42.55597833" lon="1.54579833">
        <ele>1509.0</ele>
        <time>2019-08-04T07:49:28.768Z</time>
      </trkpt>
      <trkpt lat="42.55597833" lon="1.54579833">
        <ele>1509.0</ele>
        <time>2019-08-04T07:49:29.785Z</time>
      </trkpt>
      <trkpt lat="42.55592833" lon="1.54578667">
        <ele>1510.0</ele>
        <time>2019-08-04T07:49:30.785Z</time>
      </trkpt>
      <trkpt lat="42.55592833" lon="1.54578667">
        <ele>1510.0</ele>
        <time>2019-08-04T07:49:31.780Z</time>
      </trkpt>
      <trkpt lat="42.55588167" lon="1.545775">
        <ele>1511.0</ele>
        <time>2019-08-04T07:49:32.784Z</time>
      </trkpt>
      <trkpt lat="42.55588167" lon="1.545775">
        <ele>1511.0</ele>
        <time>2019-08-04T07:49:33.784Z</time>
      </trkpt>
      <trkpt lat="42.55583667" lon="1.54579667">
        <ele>1511.0</ele>
        <time>2019-08-04T07:49:34.782Z</time>
      </trkpt>
      <trkpt lat="42.55581667" lon="1.54581833">
        <ele>1512.0</ele>
        <time>2019-08-04T07:49:35.794Z</time>
      </trkpt>
      <trkpt lat="42.55581667" lon="1.54581833">
        <ele>1512.0</ele>
        <time>2019-08-04T07:49:36.783Z</time>
      </trkpt>
      <trkpt lat="42.55579167" lon="1.54588833">
        <ele>1512.0</ele>
        <time>2019-08-04T07:49:37.783Z</time>
      </trkpt>
      <trkpt lat="42.55578833" lon="1.54593167">
        <ele>1512.0</ele>
        <time>2019-08-04T07:49:38.770Z</time>
      </trkpt>
      <trkpt lat="42.55578833" lon="1.54593167">
        <ele>1512.0</ele>
        <time>2019-08-04T07:49:39.794Z</time>
      </trkpt>
      <trkpt lat="42.55579667" lon="1.546015">
        <ele>1512.0</ele>
        <time>2019-08-04T07:49:40.788Z</time>
      </trkpt>
      <trkpt lat="42.55580833" lon="1.54605167">
        <ele>1513.0</ele>
        <time>2019-08-04T07:49:41.795Z</time>
      </trkpt>
      <trkpt lat="42.555825" lon="1.54608833">
        <ele>1513.0</ele>
        <time>2019-08-04T07:49:42.786Z</time>
      </trkpt>
      <trkpt lat="42.555825" lon="1.54608833">
        <ele>1513.0</ele>
        <time>2019-08-04T07:49:43.781Z</time>
      </trkpt>
      <trkpt lat="42.55586833" lon="1.54614">
        <ele>1513.0</ele>
        <time>2019-08-04T07:49:44.784Z</time>
      </trkpt>
      <trkpt lat="42.55586833" lon="1.54614">
        <ele>1513.0</ele>
        <time>2019-08-04T07:49:45.781Z</time>
      </trkpt>
      <trkpt lat="42.55591833" lon="1.54618167">
        <ele>1513.0</ele>
        <time>2019-08-04T07:49:46.784Z</time>
      </trkpt>
      <trkpt lat="42.55593667" lon="1.54619167">
        <ele>1514.0</ele>
        <time>2019-08-04T07:49:47.784Z</time>
      </trkpt>
      <trkpt lat="42.55596" lon="1.54621">
        <ele>1514.0</ele>
        <time>2019-08-04T07:49:48.802Z</time>
      </trkpt>
      <trkpt lat="42.55596" lon="1.54621">
        <ele>1514.0</ele>
        <time>2019-08-04T07:49:49.782Z</time>
      </trkpt>
      <trkpt lat="42.55599333" lon="1.54624">
        <ele>1515.0</ele>
        <time>2019-08-04T07:49:50.784Z</time>
      </trkpt>
      <trkpt lat="42.55600667" lon="1.54625333">
        <ele>1515.0</ele>
        <time>2019-08-04T07:49:51.784Z</time>
      </trkpt>
      <trkpt lat="42.55600667" lon="1.54625333">
        <ele>1515.0</ele>
        <time>2019-08-04T07:49:52.782Z</time>
      </trkpt>
      <trkpt lat="42.55605" lon="1.54629333">
        <ele>1516.0</ele>
        <time>2019-08-04T07:49:53.780Z</time>
      </trkpt>
      <trkpt lat="42.55607167" lon="1.54631833">
        <ele>1516.0</ele>
        <time>2019-08-04T07:49:54.797Z</time>
      </trkpt>
      <trkpt lat="42.55607167" lon="1.54631833">
        <ele>1516.0</ele>
        <time>2019-08-04T07:49:55.782Z</time>
      </trkpt>
      <trkpt lat="42.55610167" lon="1.546375">
        <ele>1517.0</ele>
        <time>2019-08-04T07:49:56.784Z</time>
      </trkpt>
      <trkpt lat="42.55610167" lon="1.546375">
        <ele>1517.0</ele>
        <time>2019-08-04T07:49:57.779Z</time>
      </trkpt>
      <trkpt lat="42.55613" lon="1.54643667">
        <ele>1517.0</ele>
        <time>2019-08-04T07:49:58.802Z</time>
      </trkpt>
      <trkpt lat="42.55613" lon="1.54643667">
        <ele>1517.0</ele>
        <time>2019-08-04T07:49:59.781Z</time>
      </trkpt>
      <trkpt lat="42.55615833" lon="1.54650167">
        <ele>1517.0</ele>
        <time>2019-08-04T07:50:00.785Z</time>
      </trkpt>
      <trkpt lat="42.55615833" lon="1.54650167">
        <ele>1517.0</ele>
        <time>2019-08-04T07:50:01.781Z</time>
      </trkpt>
      <trkpt lat="42.55618" lon="1.54656667">
        <ele>1517.0</ele>
        <time>2019-08-04T07:50:02.784Z</time>
      </trkpt>
      <trkpt lat="42.55618" lon="1.54656667">
        <ele>1517.0</ele>
        <time>2019-08-04T07:50:03.784Z</time>
      </trkpt>
      <trkpt lat="42.5562" lon="1.54663">
        <ele>1516.0</ele>
        <time>2019-08-04T07:50:04.784Z</time>
      </trkpt>
      <trkpt lat="42.5562" lon="1.54663">
        <ele>1516.0</ele>
        <time>2019-08-04T07:50:05.793Z</time>
      </trkpt>
      <trkpt lat="42.55622833" lon="1.54669667">
        <ele>1516.0</ele>
        <time>2019-08-04T07:50:06.775Z</time>
      </trkpt>
      <trkpt lat="42.55622833" lon="1.54669667">
        <ele>1516.0</ele>
        <time>2019-08-04T07:50:07.781Z</time>
      </trkpt>
      <trkpt lat="42.55625167" lon="1.54677">
        <ele>1516.0</ele>
        <time>2019-08-04T07:50:08.773Z</time>
      </trkpt>
      <trkpt lat="42.55625167" lon="1.54677">
        <ele>1516.0</ele>
        <time>2019-08-04T07:50:09.766Z</time>
      </trkpt>
      <trkpt lat="42.55627333" lon="1.54683667">
        <ele>1517.0</ele>
        <time>2019-08-04T07:50:10.798Z</time>
      </trkpt>
      <trkpt lat="42.55628333" lon="1.54687833">
        <ele>1517.0</ele>
        <time>2019-08-04T07:50:11.780Z</time>
      </trkpt>
      <trkpt lat="42.55629" lon="1.54691833">
        <ele>1517.0</ele>
        <time>2019-08-04T07:50:12.800Z</time>
      </trkpt>
      <trkpt lat="42.55629" lon="1.54691833">
        <ele>1517.0</ele>
        <time>2019-08-04T07:50:13.782Z</time>
      </trkpt>
      <trkpt lat="42.55631167" lon="1.546995">
        <ele>1517.0</ele>
        <time>2019-08-04T07:50:14.784Z</time>
      </trkpt>
      <trkpt lat="42.55631167" lon="1.546995">
        <ele>1517.0</ele>
        <time>2019-08-04T07:50:15.800Z</time>
      </trkpt>
      <trkpt lat="42.55631833" lon="1.54707">
        <ele>1517.0</ele>
        <time>2019-08-04T07:50:16.785Z</time>
      </trkpt>
      <trkpt lat="42.55631833" lon="1.54707">
        <ele>1517.0</ele>
        <time>2019-08-04T07:50:17.781Z</time>
      </trkpt>
      <trkpt lat="42.55631833" lon="1.547135">
        <ele>1517.0</ele>
        <time>2019-08-04T07:50:18.784Z</time>
      </trkpt>
      <trkpt lat="42.55631833" lon="1.547135">
        <ele>1517.0</ele>
        <time>2019-08-04T07:50:19.779Z</time>
      </trkpt>
      <trkpt lat="42.55631833" lon="1.5472">
        <ele>1517.0</ele>
        <time>2019-08-04T07:50:20.786Z</time>
      </trkpt>
      <trkpt lat="42.55631833" lon="1.5472">
        <ele>1517.0</ele>
        <time>2019-08-04T07:50:21.780Z</time>
      </trkpt>
      <trkpt lat="42.55633833" lon="1.54727167">
        <ele>1517.0</ele>
        <time>2019-08-04T07:50:22.784Z</time>
      </trkpt>
      <trkpt lat="42.556355" lon="1.54730667">
        <ele>1517.0</ele>
        <time>2019-08-04T07:50:23.784Z</time>
      </trkpt>
      <trkpt lat="42.556355" lon="1.54730667">
        <ele>1517.0</ele>
        <time>2019-08-04T07:50:24.783Z</time>
      </trkpt>
      <trkpt lat="42.55639167" lon="1.54736667">
        <ele>1518.0</ele>
        <time>2019-08-04T07:50:25.784Z</time>
      </trkpt>
      <trkpt lat="42.55641333" lon="1.54739667">
        <ele>1518.0</ele>
        <time>2019-08-04T07:50:26.784Z</time>
      </trkpt>
      <trkpt lat="42.55641333" lon="1.54739667">
        <ele>1518.0</ele>
        <time>2019-08-04T07:50:27.781Z</time>
      </trkpt>
      <trkpt lat="42.55645833" lon="1.547445">
        <ele>1519.0</ele>
        <time>2019-08-04T07:50:28.772Z</time>
      </trkpt>
      <trkpt lat="42.55645833" lon="1.547445">
        <ele>1519.0</ele>
        <time>2019-08-04T07:50:29.791Z</time>
      </trkpt>
      <trkpt lat="42.556505" lon="1.54747">
        <ele>1519.0</ele>
        <time>2019-08-04T07:50:30.787Z</time>
      </trkpt>
      <trkpt lat="42.556505" lon="1.54747">
        <ele>1519.0</ele>
        <time>2019-08-04T07:50:31.782Z</time>
      </trkpt>
      <trkpt lat="42.556555" lon="1.5475">
        <ele>1520.0</ele>
        <time>2019-08-04T07:50:32.782Z</time>
      </trkpt>
      <trkpt lat="42.556555" lon="1.5475">
        <ele>1520.0</ele>
        <time>2019-08-04T07:50:33.793Z</time>
      </trkpt>
      <trkpt lat="42.55660167" lon="1.54754">
        <ele>1520.0</ele>
        <time>2019-08-04T07:50:34.785Z</time>
      </trkpt>
      <trkpt lat="42.55660167" lon="1.54754">
        <ele>1520.0</ele>
        <time>2019-08-04T07:50:35.794Z</time>
      </trkpt>
      <trkpt lat="42.556645" lon="1.54757">
        <ele>1520.0</ele>
        <time>2019-08-04T07:50:36.782Z</time>
      </trkpt>
      <trkpt lat="42.556645" lon="1.54757">
        <ele>1520.0</ele>
        <time>2019-08-04T07:50:37.780Z</time>
      </trkpt>
      <trkpt lat="42.55669333" lon="1.54760667">
        <ele>1521.0</ele>
        <time>2019-08-04T07:50:38.772Z</time>
      </trkpt>
      <trkpt lat="42.55669333" lon="1.54760667">
        <ele>1521.0</ele>
        <time>2019-08-04T07:50:39.766Z</time>
      </trkpt>
      <trkpt lat="42.55674" lon="1.54763833">
        <ele>1521.0</ele>
        <time>2019-08-04T07:50:40.778Z</time>
      </trkpt>
      <trkpt lat="42.55674" lon="1.54763833">
        <ele>1521.0</ele>
        <time>2019-08-04T07:50:41.794Z</time>
      </trkpt>
      <trkpt lat="42.556785" lon="1.54766">
        <ele>1522.0</ele>
        <time>2019-08-04T07:50:42.786Z</time>
      </trkpt>
      <trkpt lat="42.556785" lon="1.54766">
        <ele>1522.0</ele>
        <time>2019-08-04T07:50:43.780Z</time>
      </trkpt>
      <trkpt lat="42.55684833" lon="1.54769667">
        <ele>1522.0</ele>
        <time>2019-08-04T07:50:44.784Z</time>
      </trkpt>
      <trkpt lat="42.55684833" lon="1.54769667">
        <ele>1522.0</ele>
        <time>2019-08-04T07:50:45.783Z</time>
      </trkpt>
      <trkpt lat="42.55691667" lon="1.54776">
        <ele>1522.0</ele>
        <time>2019-08-04T07:50:46.783Z</time>
      </trkpt>
      <trkpt lat="42.55694667" lon="1.54778667">
        <ele>1522.0</ele>
        <time>2019-08-04T07:50:47.782Z</time>
      </trkpt>
      <trkpt lat="42.55697167" lon="1.54780667">
        <ele>1523.0</ele>
        <time>2019-08-04T07:50:48.772Z</time>
      </trkpt>
      <trkpt lat="42.55697167" lon="1.54780667">
        <ele>1523.0</ele>
        <time>2019-08-04T07:50:49.791Z</time>
      </trkpt>
      <trkpt lat="42.557025" lon="1.54785667">
        <ele>1522.0</ele>
        <time>2019-08-04T07:50:50.787Z</time>
      </trkpt>
      <trkpt lat="42.557025" lon="1.54785667">
        <ele>1522.0</ele>
        <time>2019-08-04T07:50:51.782Z</time>
      </trkpt>
      <trkpt lat="42.55707167" lon="1.54789833">
        <ele>1522.0</ele>
        <time>2019-08-04T07:50:52.784Z</time>
      </trkpt>
      <trkpt lat="42.557095" lon="1.54792333">
        <ele>1522.0</ele>
        <time>2019-08-04T07:50:53.782Z</time>
      </trkpt>
      <trkpt lat="42.557095" lon="1.54792333">
        <ele>1522.0</ele>
        <time>2019-08-04T07:50:54.783Z</time>
      </trkpt>
      <trkpt lat="42.55714" lon="1.54796667">
        <ele>1522.0</ele>
        <time>2019-08-04T07:50:55.784Z</time>
      </trkpt>
      <trkpt lat="42.55716167" lon="1.54799">
        <ele>1522.0</ele>
        <time>2019-08-04T07:50:56.785Z</time>
      </trkpt>
      <trkpt lat="42.55716167" lon="1.54799">
        <ele>1522.0</ele>
        <time>2019-08-04T07:50:57.779Z</time>
      </trkpt>
      <trkpt lat="42.55720167" lon="1.54803833">
        <ele>1522.0</ele>
        <time>2019-08-04T07:50:58.774Z</time>
      </trkpt>
      <trkpt lat="42.55720167" lon="1.54803833">
        <ele>1522.0</ele>
        <time>2019-08-04T07:50:59.791Z</time>
      </trkpt>
      <trkpt lat="42.557245" lon="1.54808167">
        <ele>1522.0</ele>
        <time>2019-08-04T07:51:00.786Z</time>
      </trkpt>
      <trkpt lat="42.55726667" lon="1.54809833">
        <ele>1522.0</ele>
        <time>2019-08-04T07:51:01.785Z</time>
      </trkpt>
      <trkpt lat="42.55726667" lon="1.54809833">
        <ele>1522.0</ele>
        <time>2019-08-04T07:51:02.782Z</time>
      </trkpt>
      <trkpt lat="42.55731167" lon="1.548135">
        <ele>1522.0</ele>
        <time>2019-08-04T07:51:03.783Z</time>
      </trkpt>
      <trkpt lat="42.55733167" lon="1.54815333">
        <ele>1523.0</ele>
        <time>2019-08-04T07:51:04.785Z</time>
      </trkpt>
      <trkpt lat="42.55733167" lon="1.54815333">
        <ele>1523.0</ele>
        <time>2019-08-04T07:51:05.801Z</time>
      </trkpt>
      <trkpt lat="42.55737333" lon="1.548205">
        <ele>1523.0</ele>
        <time>2019-08-04T07:51:06.799Z</time>
      </trkpt>
      <trkpt lat="42.55737333" lon="1.548205">
        <ele>1523.0</ele>
        <time>2019-08-04T07:51:07.766Z</time>
      </trkpt>
      <trkpt lat="42.5574" lon="1.548265">
        <ele>1523.0</ele>
        <time>2019-08-04T07:51:08.766Z</time>
      </trkpt>
      <trkpt lat="42.5574" lon="1.548265">
        <ele>1523.0</ele>
        <time>2019-08-04T07:51:09.783Z</time>
      </trkpt>
      <trkpt lat="42.55742333" lon="1.548335">
        <ele>1523.0</ele>
        <time>2019-08-04T07:51:10.784Z</time>
      </trkpt>
      <trkpt lat="42.55744167" lon="1.54836333">
        <ele>1523.0</ele>
        <time>2019-08-04T07:51:11.786Z</time>
      </trkpt>
      <trkpt lat="42.55744167" lon="1.54836333">
        <ele>1523.0</ele>
        <time>2019-08-04T07:51:12.783Z</time>
      </trkpt>
      <trkpt lat="42.55746667" lon="1.54842667">
        <ele>1523.0</ele>
        <time>2019-08-04T07:51:13.782Z</time>
      </trkpt>
      <trkpt lat="42.55747667" lon="1.54845667">
        <ele>1523.0</ele>
        <time>2019-08-04T07:51:14.782Z</time>
      </trkpt>
      <trkpt lat="42.55747667" lon="1.54845667">
        <ele>1523.0</ele>
        <time>2019-08-04T07:51:15.779Z</time>
      </trkpt>
      <trkpt lat="42.5575" lon="1.54851667">
        <ele>1523.0</ele>
        <time>2019-08-04T07:51:16.800Z</time>
      </trkpt>
      <trkpt lat="42.5575" lon="1.54851667">
        <ele>1523.0</ele>
        <time>2019-08-04T07:51:17.782Z</time>
      </trkpt>
      <trkpt lat="42.55752667" lon="1.548575">
        <ele>1523.0</ele>
        <time>2019-08-04T07:51:18.801Z</time>
      </trkpt>
      <trkpt lat="42.55752667" lon="1.548575">
        <ele>1523.0</ele>
        <time>2019-08-04T07:51:19.783Z</time>
      </trkpt>
      <trkpt lat="42.55757" lon="1.54862333">
        <ele>1524.0</ele>
        <time>2019-08-04T07:51:20.783Z</time>
      </trkpt>
      <trkpt lat="42.55757" lon="1.54862333">
        <ele>1524.0</ele>
        <time>2019-08-04T07:51:21.781Z</time>
      </trkpt>
      <trkpt lat="42.5576" lon="1.54866833">
        <ele>1524.0</ele>
        <time>2019-08-04T07:51:22.785Z</time>
      </trkpt>
      <trkpt lat="42.5576" lon="1.54866833">
        <ele>1524.0</ele>
        <time>2019-08-04T07:51:23.782Z</time>
      </trkpt>
      <trkpt lat="42.55763167" lon="1.54871333">
        <ele>1524.0</ele>
        <time>2019-08-04T07:51:24.785Z</time>
      </trkpt>
      <trkpt lat="42.55763167" lon="1.54871333">
        <ele>1524.0</ele>
        <time>2019-08-04T07:51:25.783Z</time>
      </trkpt>
      <trkpt lat="42.557665" lon="1.54876333">
        <ele>1525.0</ele>
        <time>2019-08-04T07:51:26.804Z</time>
      </trkpt>
      <trkpt lat="42.557665" lon="1.54876333">
        <ele>1525.0</ele>
        <time>2019-08-04T07:51:27.781Z</time>
      </trkpt>
      <trkpt lat="42.557695" lon="1.54881333">
        <ele>1525.0</ele>
        <time>2019-08-04T07:51:28.778Z</time>
      </trkpt>
      <trkpt lat="42.557695" lon="1.54881333">
        <ele>1525.0</ele>
        <time>2019-08-04T07:51:29.793Z</time>
      </trkpt>
      <trkpt lat="42.55772" lon="1.54886">
        <ele>1526.0</ele>
        <time>2019-08-04T07:51:30.786Z</time>
      </trkpt>
      <trkpt lat="42.55772" lon="1.54886">
        <ele>1526.0</ele>
        <time>2019-08-04T07:51:31.779Z</time>
      </trkpt>
      <trkpt lat="42.55774" lon="1.548915">
        <ele>1526.0</ele>
        <time>2019-08-04T07:51:32.799Z</time>
      </trkpt>
      <trkpt lat="42.55774" lon="1.548915">
        <ele>1526.0</ele>
        <time>2019-08-04T07:51:33.798Z</time>
      </trkpt>
      <trkpt lat="42.557755" lon="1.54897">
        <ele>1526.0</ele>
        <time>2019-08-04T07:51:34.784Z</time>
      </trkpt>
      <trkpt lat="42.55776167" lon="1.549">
        <ele>1526.0</ele>
        <time>2019-08-04T07:51:35.782Z</time>
      </trkpt>
      <trkpt lat="42.55776167" lon="1.549">
        <ele>1526.0</ele>
        <time>2019-08-04T07:51:36.784Z</time>
      </trkpt>
      <trkpt lat="42.55777167" lon="1.54905">
        <ele>1527.0</ele>
        <time>2019-08-04T07:51:37.785Z</time>
      </trkpt>
      <trkpt lat="42.55777333" lon="1.54907667">
        <ele>1527.0</ele>
        <time>2019-08-04T07:51:38.802Z</time>
      </trkpt>
      <trkpt lat="42.55777333" lon="1.54907667">
        <ele>1527.0</ele>
        <time>2019-08-04T07:51:39.783Z</time>
      </trkpt>
      <trkpt lat="42.55777833" lon="1.54913">
        <ele>1528.0</ele>
        <time>2019-08-04T07:51:40.784Z</time>
      </trkpt>
      <trkpt lat="42.55777833" lon="1.54913">
        <ele>1528.0</ele>
        <time>2019-08-04T07:51:41.780Z</time>
      </trkpt>
      <trkpt lat="42.55777667" lon="1.54918">
        <ele>1528.0</ele>
        <time>2019-08-04T07:51:42.786Z</time>
      </trkpt>
      <trkpt lat="42.55777667" lon="1.54918">
        <ele>1528.0</ele>
        <time>2019-08-04T07:51:43.783Z</time>
      </trkpt>
      <trkpt lat="42.55776333" lon="1.549215">
        <ele>1528.0</ele>
        <time>2019-08-04T07:51:44.785Z</time>
      </trkpt>
      <trkpt lat="42.55776333" lon="1.549215">
        <ele>1528.0</ele>
        <time>2019-08-04T07:51:45.782Z</time>
      </trkpt>
      <trkpt lat="42.55773167" lon="1.54923167">
        <ele>1529.0</ele>
        <time>2019-08-04T07:51:46.782Z</time>
      </trkpt>
      <trkpt lat="42.55771167" lon="1.549235">
        <ele>1530.0</ele>
        <time>2019-08-04T07:51:47.786Z</time>
      </trkpt>
      <trkpt lat="42.55769833" lon="1.549225">
        <ele>1530.0</ele>
        <time>2019-08-04T07:51:48.803Z</time>
      </trkpt>
      <trkpt lat="42.55769833" lon="1.549225">
        <ele>1530.0</ele>
        <time>2019-08-04T07:51:49.781Z</time>
      </trkpt>
      <trkpt lat="42.557665" lon="1.54919833">
        <ele>1531.0</ele>
        <time>2019-08-04T07:51:50.785Z</time>
      </trkpt>
      <trkpt lat="42.557665" lon="1.54919833">
        <ele>1531.0</ele>
        <time>2019-08-04T07:51:51.780Z</time>
      </trkpt>
      <trkpt lat="42.55763833" lon="1.54916167">
        <ele>1532.0</ele>
        <time>2019-08-04T07:51:52.804Z</time>
      </trkpt>
      <trkpt lat="42.55762333" lon="1.54914">
        <ele>1532.0</ele>
        <time>2019-08-04T07:51:53.785Z</time>
      </trkpt>
      <trkpt lat="42.55761" lon="1.54911333">
        <ele>1533.0</ele>
        <time>2019-08-04T07:51:54.786Z</time>
      </trkpt>
      <trkpt lat="42.55761" lon="1.54911333">
        <ele>1533.0</ele>
        <time>2019-08-04T07:51:55.781Z</time>
      </trkpt>
      <trkpt lat="42.55758833" lon="1.54906">
        <ele>1534.0</ele>
        <time>2019-08-04T07:51:56.804Z</time>
      </trkpt>
      <trkpt lat="42.55758833" lon="1.54906">
        <ele>1534.0</ele>
        <time>2019-08-04T07:51:57.794Z</time>
      </trkpt>
      <trkpt lat="42.55757333" lon="1.54900333">
        <ele>1535.0</ele>
        <time>2019-08-04T07:51:58.766Z</time>
      </trkpt>
      <trkpt lat="42.55757333" lon="1.54900333">
        <ele>1535.0</ele>
        <time>2019-08-04T07:51:59.782Z</time>
      </trkpt>
      <trkpt lat="42.55754667" lon="1.54895333">
        <ele>1536.0</ele>
        <time>2019-08-04T07:52:00.786Z</time>
      </trkpt>
      <trkpt lat="42.55753333" lon="1.54892833">
        <ele>1536.0</ele>
        <time>2019-08-04T07:52:01.803Z</time>
      </trkpt>
      <trkpt lat="42.55752167" lon="1.54890167">
        <ele>1537.0</ele>
        <time>2019-08-04T07:52:02.786Z</time>
      </trkpt>
      <trkpt lat="42.55752167" lon="1.54890167">
        <ele>1537.0</ele>
        <time>2019-08-04T07:52:03.784Z</time>
      </trkpt>
      <trkpt lat="42.55748833" lon="1.54885667">
        <ele>1538.0</ele>
        <time>2019-08-04T07:52:04.783Z</time>
      </trkpt>
      <trkpt lat="42.55747" lon="1.548835">
        <ele>1538.0</ele>
        <time>2019-08-04T07:52:05.781Z</time>
      </trkpt>
      <trkpt lat="42.55747" lon="1.548835">
        <ele>1538.0</ele>
        <time>2019-08-04T07:52:06.792Z</time>
      </trkpt>
      <trkpt lat="42.55743" lon="1.54879">
        <ele>1539.0</ele>
        <time>2019-08-04T07:52:07.798Z</time>
      </trkpt>
      <trkpt lat="42.55740833" lon="1.54877">
        <ele>1539.0</ele>
        <time>2019-08-04T07:52:08.770Z</time>
      </trkpt>
      <trkpt lat="42.55740833" lon="1.54877">
        <ele>1539.0</ele>
        <time>2019-08-04T07:52:09.794Z</time>
      </trkpt>
      <trkpt lat="42.55736167" lon="1.54874">
        <ele>1540.0</ele>
        <time>2019-08-04T07:52:10.786Z</time>
      </trkpt>
      <trkpt lat="42.55736167" lon="1.54874">
        <ele>1540.0</ele>
        <time>2019-08-04T07:52:11.782Z</time>
      </trkpt>
      <trkpt lat="42.55731667" lon="1.54870667">
        <ele>1541.0</ele>
        <time>2019-08-04T07:52:12.786Z</time>
      </trkpt>
      <trkpt lat="42.55731667" lon="1.54870667">
        <ele>1541.0</ele>
        <time>2019-08-04T07:52:13.782Z</time>
      </trkpt>
      <trkpt lat="42.55727167" lon="1.54867167">
        <ele>1541.0</ele>
        <time>2019-08-04T07:52:14.785Z</time>
      </trkpt>
      <trkpt lat="42.55727167" lon="1.54867167">
        <ele>1541.0</ele>
        <time>2019-08-04T07:52:15.767Z</time>
      </trkpt>
      <trkpt lat="42.55722667" lon="1.54864333">
        <ele>1542.0</ele>
        <time>2019-08-04T07:52:16.788Z</time>
      </trkpt>
      <trkpt lat="42.55722667" lon="1.54864333">
        <ele>1542.0</ele>
        <time>2019-08-04T07:52:17.782Z</time>
      </trkpt>
      <trkpt lat="42.55718" lon="1.54862">
        <ele>1543.0</ele>
        <time>2019-08-04T07:52:18.769Z</time>
      </trkpt>
      <trkpt lat="42.55718" lon="1.54862">
        <ele>1543.0</ele>
        <time>2019-08-04T07:52:19.786Z</time>
      </trkpt>
      <trkpt lat="42.55713167" lon="1.54859833">
        <ele>1544.0</ele>
        <time>2019-08-04T07:52:20.784Z</time>
      </trkpt>
      <trkpt lat="42.55713167" lon="1.54859833">
        <ele>1544.0</ele>
        <time>2019-08-04T07:52:21.775Z</time>
      </trkpt>
      <trkpt lat="42.55708667" lon="1.54857">
        <ele>1545.0</ele>
        <time>2019-08-04T07:52:22.795Z</time>
      </trkpt>
      <trkpt lat="42.55708667" lon="1.54857">
        <ele>1545.0</ele>
        <time>2019-08-04T07:52:23.784Z</time>
      </trkpt>
      <trkpt lat="42.55704167" lon="1.54854">
        <ele>1546.0</ele>
        <time>2019-08-04T07:52:24.804Z</time>
      </trkpt>
      <trkpt lat="42.55704167" lon="1.54854">
        <ele>1546.0</ele>
        <time>2019-08-04T07:52:25.783Z</time>
      </trkpt>
      <trkpt lat="42.556995" lon="1.54851">
        <ele>1547.0</ele>
        <time>2019-08-04T07:52:26.782Z</time>
      </trkpt>
      <trkpt lat="42.556995" lon="1.54851">
        <ele>1547.0</ele>
        <time>2019-08-04T07:52:27.779Z</time>
      </trkpt>
      <trkpt lat="42.55694667" lon="1.54847833">
        <ele>1548.0</ele>
        <time>2019-08-04T07:52:28.804Z</time>
      </trkpt>
      <trkpt lat="42.55694667" lon="1.54847833">
        <ele>1548.0</ele>
        <time>2019-08-04T07:52:29.782Z</time>
      </trkpt>
      <trkpt lat="42.55690333" lon="1.54845">
        <ele>1548.0</ele>
        <time>2019-08-04T07:52:30.786Z</time>
      </trkpt>
      <trkpt lat="42.55690333" lon="1.54845">
        <ele>1548.0</ele>
        <time>2019-08-04T07:52:31.804Z</time>
      </trkpt>
      <trkpt lat="42.55685667" lon="1.54842833">
        <ele>1549.0</ele>
        <time>2019-08-04T07:52:32.783Z</time>
      </trkpt>
      <trkpt lat="42.55685667" lon="1.54842833">
        <ele>1549.0</ele>
        <time>2019-08-04T07:52:33.799Z</time>
      </trkpt>
      <trkpt lat="42.55681333" lon="1.54840833">
        <ele>1550.0</ele>
        <time>2019-08-04T07:52:34.785Z</time>
      </trkpt>
      <trkpt lat="42.55681333" lon="1.54840833">
        <ele>1550.0</ele>
        <time>2019-08-04T07:52:35.779Z</time>
      </trkpt>
      <trkpt lat="42.55676667" lon="1.54838333">
        <ele>1550.0</ele>
        <time>2019-08-04T07:52:36.799Z</time>
      </trkpt>
      <trkpt lat="42.55676667" lon="1.54838333">
        <ele>1550.0</ele>
        <time>2019-08-04T07:52:37.783Z</time>
      </trkpt>
      <trkpt lat="42.55672" lon="1.548355">
        <ele>1551.0</ele>
        <time>2019-08-04T07:52:38.770Z</time>
      </trkpt>
      <trkpt lat="42.55672" lon="1.548355">
        <ele>1551.0</ele>
        <time>2019-08-04T07:52:39.794Z</time>
      </trkpt>
      <trkpt lat="42.55666667" lon="1.54833833">
        <ele>1551.0</ele>
        <time>2019-08-04T07:52:40.784Z</time>
      </trkpt>
      <trkpt lat="42.55666667" lon="1.54833833">
        <ele>1551.0</ele>
        <time>2019-08-04T07:52:41.793Z</time>
      </trkpt>
      <trkpt lat="42.55661667" lon="1.54832333">
        <ele>1551.0</ele>
        <time>2019-08-04T07:52:42.786Z</time>
      </trkpt>
      <trkpt lat="42.55661667" lon="1.54832333">
        <ele>1551.0</ele>
        <time>2019-08-04T07:52:43.781Z</time>
      </trkpt>
      <trkpt lat="42.556565" lon="1.54830833">
        <ele>1552.0</ele>
        <time>2019-08-04T07:52:44.786Z</time>
      </trkpt>
      <trkpt lat="42.556565" lon="1.54830833">
        <ele>1552.0</ele>
        <time>2019-08-04T07:52:45.782Z</time>
      </trkpt>
      <trkpt lat="42.55651667" lon="1.548285">
        <ele>1552.0</ele>
        <time>2019-08-04T07:52:46.787Z</time>
      </trkpt>
      <trkpt lat="42.55651667" lon="1.548285">
        <ele>1552.0</ele>
        <time>2019-08-04T07:52:47.782Z</time>
      </trkpt>
      <trkpt lat="42.55646833" lon="1.548265">
        <ele>1552.0</ele>
        <time>2019-08-04T07:52:48.801Z</time>
      </trkpt>
      <trkpt lat="42.55646833" lon="1.548265">
        <ele>1552.0</ele>
        <time>2019-08-04T07:52:49.783Z</time>
      </trkpt>
      <trkpt lat="42.556425" lon="1.548245">
        <ele>1553.0</ele>
        <time>2019-08-04T07:52:50.803Z</time>
      </trkpt>
      <trkpt lat="42.55640167" lon="1.54823333">
        <ele>1553.0</ele>
        <time>2019-08-04T07:52:51.769Z</time>
      </trkpt>
      <trkpt lat="42.55640167" lon="1.54823333">
        <ele>1553.0</ele>
        <time>2019-08-04T07:52:52.794Z</time>
      </trkpt>
      <trkpt lat="42.55635167" lon="1.54821333">
        <ele>1553.0</ele>
        <time>2019-08-04T07:52:53.785Z</time>
      </trkpt>
      <trkpt lat="42.556325" lon="1.54820167">
        <ele>1554.0</ele>
        <time>2019-08-04T07:52:54.784Z</time>
      </trkpt>
      <trkpt lat="42.556325" lon="1.54820167">
        <ele>1554.0</ele>
        <time>2019-08-04T07:52:55.781Z</time>
      </trkpt>
      <trkpt lat="42.556275" lon="1.54818333">
        <ele>1554.0</ele>
        <time>2019-08-04T07:52:56.785Z</time>
      </trkpt>
      <trkpt lat="42.556275" lon="1.54818333">
        <ele>1554.0</ele>
        <time>2019-08-04T07:52:57.784Z</time>
      </trkpt>
      <trkpt lat="42.556225" lon="1.548165">
        <ele>1554.0</ele>
        <time>2019-08-04T07:52:58.784Z</time>
      </trkpt>
      <trkpt lat="42.556225" lon="1.548165">
        <ele>1554.0</ele>
        <time>2019-08-04T07:52:59.800Z</time>
      </trkpt>
      <trkpt lat="42.556175" lon="1.54814">
        <ele>1555.0</ele>
        <time>2019-08-04T07:53:00.787Z</time>
      </trkpt>
      <trkpt lat="42.556175" lon="1.54814">
        <ele>1555.0</ele>
        <time>2019-08-04T07:53:01.783Z</time>
      </trkpt>
      <trkpt lat="42.55612333" lon="1.54811333">
        <ele>1555.0</ele>
        <time>2019-08-04T07:53:02.786Z</time>
      </trkpt>
      <trkpt lat="42.55612333" lon="1.54811333">
        <ele>1555.0</ele>
        <time>2019-08-04T07:53:03.784Z</time>
      </trkpt>
      <trkpt lat="42.55607333" lon="1.54809667">
        <ele>1555.0</ele>
        <time>2019-08-04T07:53:04.785Z</time>
      </trkpt>
      <trkpt lat="42.55604833" lon="1.548085">
        <ele>1555.0</ele>
        <time>2019-08-04T07:53:05.795Z</time>
      </trkpt>
      <trkpt lat="42.55604833" lon="1.548085">
        <ele>1555.0</ele>
        <time>2019-08-04T07:53:06.766Z</time>
      </trkpt>
      <trkpt lat="42.55600167" lon="1.54805667">
        <ele>1556.0</ele>
        <time>2019-08-04T07:53:07.774Z</time>
      </trkpt>
      <trkpt lat="42.55597667" lon="1.54804167">
        <ele>1556.0</ele>
        <time>2019-08-04T07:53:08.802Z</time>
      </trkpt>
      <trkpt lat="42.55597667" lon="1.54804167">
        <ele>1556.0</ele>
        <time>2019-08-04T07:53:09.780Z</time>
      </trkpt>
      <trkpt lat="42.55592667" lon="1.54801">
        <ele>1556.0</ele>
        <time>2019-08-04T07:53:10.800Z</time>
      </trkpt>
      <trkpt lat="42.55592667" lon="1.54801">
        <ele>1556.0</ele>
        <time>2019-08-04T07:53:11.782Z</time>
      </trkpt>
      <trkpt lat="42.555875" lon="1.54798333">
        <ele>1556.0</ele>
        <time>2019-08-04T07:53:12.786Z</time>
      </trkpt>
      <trkpt lat="42.555875" lon="1.54798333">
        <ele>1556.0</ele>
        <time>2019-08-04T07:53:13.780Z</time>
      </trkpt>
      <trkpt lat="42.55582" lon="1.54795833">
        <ele>1557.0</ele>
        <time>2019-08-04T07:53:14.799Z</time>
      </trkpt>
      <trkpt lat="42.55582" lon="1.54795833">
        <ele>1557.0</ele>
        <time>2019-08-04T07:53:15.782Z</time>
      </trkpt>
      <trkpt lat="42.55577" lon="1.54792833">
        <ele>1557.0</ele>
        <time>2019-08-04T07:53:16.785Z</time>
      </trkpt>
      <trkpt lat="42.55577" lon="1.54792833">
        <ele>1557.0</ele>
        <time>2019-08-04T07:53:17.782Z</time>
      </trkpt>
      <trkpt lat="42.55572333" lon="1.547895">
        <ele>1557.0</ele>
        <time>2019-08-04T07:53:18.804Z</time>
      </trkpt>
      <trkpt lat="42.55572333" lon="1.547895">
        <ele>1557.0</ele>
        <time>2019-08-04T07:53:19.781Z</time>
      </trkpt>
      <trkpt lat="42.55568167" lon="1.54784833">
        <ele>1558.0</ele>
        <time>2019-08-04T07:53:20.784Z</time>
      </trkpt>
      <trkpt lat="42.55568167" lon="1.54784833">
        <ele>1558.0</ele>
        <time>2019-08-04T07:53:21.782Z</time>
      </trkpt>
      <trkpt lat="42.555635" lon="1.54781167">
        <ele>1558.0</ele>
        <time>2019-08-04T07:53:22.784Z</time>
      </trkpt>
      <trkpt lat="42.555635" lon="1.54781167">
        <ele>1558.0</ele>
        <time>2019-08-04T07:53:23.782Z</time>
      </trkpt>
      <trkpt lat="42.55559" lon="1.54777167">
        <ele>1559.0</ele>
        <time>2019-08-04T07:53:24.794Z</time>
      </trkpt>
      <trkpt lat="42.55559" lon="1.54777167">
        <ele>1559.0</ele>
        <time>2019-08-04T07:53:25.783Z</time>
      </trkpt>
      <trkpt lat="42.555555" lon="1.54772">
        <ele>1559.0</ele>
        <time>2019-08-04T07:53:26.787Z</time>
      </trkpt>
      <trkpt lat="42.555555" lon="1.54772">
        <ele>1559.0</ele>
        <time>2019-08-04T07:53:27.777Z</time>
      </trkpt>
      <trkpt lat="42.55552167" lon="1.54766667">
        <ele>1559.0</ele>
        <time>2019-08-04T07:53:28.804Z</time>
      </trkpt>
      <trkpt lat="42.55552167" lon="1.54766667">
        <ele>1559.0</ele>
        <time>2019-08-04T07:53:29.784Z</time>
      </trkpt>
      <trkpt lat="42.555485" lon="1.54761333">
        <ele>1560.0</ele>
        <time>2019-08-04T07:53:30.786Z</time>
      </trkpt>
      <trkpt lat="42.555485" lon="1.54761333">
        <ele>1560.0</ele>
        <time>2019-08-04T07:53:31.780Z</time>
      </trkpt>
      <trkpt lat="42.55545333" lon="1.54755">
        <ele>1560.0</ele>
        <time>2019-08-04T07:53:32.800Z</time>
      </trkpt>
      <trkpt lat="42.55545333" lon="1.54755">
        <ele>1560.0</ele>
        <time>2019-08-04T07:53:33.783Z</time>
      </trkpt>
      <trkpt lat="42.55542333" lon="1.54748667">
        <ele>1561.0</ele>
        <time>2019-08-04T07:53:34.784Z</time>
      </trkpt>
      <trkpt lat="42.55540833" lon="1.54745667">
        <ele>1561.0</ele>
        <time>2019-08-04T07:53:35.785Z</time>
      </trkpt>
      <trkpt lat="42.555395" lon="1.547425">
        <ele>1561.0</ele>
        <time>2019-08-04T07:53:36.790Z</time>
      </trkpt>
      <trkpt lat="42.555395" lon="1.547425">
        <ele>1561.0</ele>
        <time>2019-08-04T07:53:37.782Z</time>
      </trkpt>
      <trkpt lat="42.55536667" lon="1.54736333">
        <ele>1562.0</ele>
        <time>2019-08-04T07:53:38.801Z</time>
      </trkpt>
      <trkpt lat="42.55536667" lon="1.54736333">
        <ele>1562.0</ele>
        <time>2019-08-04T07:53:39.781Z</time>
      </trkpt>
      <trkpt lat="42.555335" lon="1.54730167">
        <ele>1562.0</ele>
        <time>2019-08-04T07:53:40.797Z</time>
      </trkpt>
      <trkpt lat="42.555335" lon="1.54730167">
        <ele>1562.0</ele>
        <time>2019-08-04T07:53:41.783Z</time>
      </trkpt>
      <trkpt lat="42.5553" lon="1.54723833">
        <ele>1563.0</ele>
        <time>2019-08-04T07:53:42.787Z</time>
      </trkpt>
      <trkpt lat="42.5553" lon="1.54723833">
        <ele>1563.0</ele>
        <time>2019-08-04T07:53:43.782Z</time>
      </trkpt>
      <trkpt lat="42.55526833" lon="1.54718333">
        <ele>1563.0</ele>
        <time>2019-08-04T07:53:44.787Z</time>
      </trkpt>
      <trkpt lat="42.55526833" lon="1.54718333">
        <ele>1563.0</ele>
        <time>2019-08-04T07:53:45.779Z</time>
      </trkpt>
      <trkpt lat="42.55524167" lon="1.54712">
        <ele>1564.0</ele>
        <time>2019-08-04T07:53:46.799Z</time>
      </trkpt>
      <trkpt lat="42.55524167" lon="1.54712">
        <ele>1564.0</ele>
        <time>2019-08-04T07:53:47.783Z</time>
      </trkpt>
      <trkpt lat="42.55521667" lon="1.54705833">
        <ele>1564.0</ele>
        <time>2019-08-04T07:53:48.766Z</time>
      </trkpt>
      <trkpt lat="42.55521667" lon="1.54705833">
        <ele>1564.0</ele>
        <time>2019-08-04T07:53:49.794Z</time>
      </trkpt>
      <trkpt lat="42.55519333" lon="1.54699333">
        <ele>1565.0</ele>
        <time>2019-08-04T07:53:50.782Z</time>
      </trkpt>
      <trkpt lat="42.55519333" lon="1.54699333">
        <ele>1565.0</ele>
        <time>2019-08-04T07:53:51.782Z</time>
      </trkpt>
      <trkpt lat="42.55516833" lon="1.54694">
        <ele>1565.0</ele>
        <time>2019-08-04T07:53:52.795Z</time>
      </trkpt>
      <trkpt lat="42.55516833" lon="1.54694">
        <ele>1565.0</ele>
        <time>2019-08-04T07:53:53.783Z</time>
      </trkpt>
      <trkpt lat="42.55514333" lon="1.54687833">
        <ele>1566.0</ele>
        <time>2019-08-04T07:53:54.788Z</time>
      </trkpt>
      <trkpt lat="42.55514333" lon="1.54687833">
        <ele>1566.0</ele>
        <time>2019-08-04T07:53:55.783Z</time>
      </trkpt>
      <trkpt lat="42.55512" lon="1.54681">
        <ele>1566.0</ele>
        <time>2019-08-04T07:53:56.766Z</time>
      </trkpt>
      <trkpt lat="42.55512" lon="1.54681">
        <ele>1566.0</ele>
        <time>2019-08-04T07:53:57.794Z</time>
      </trkpt>
      <trkpt lat="42.55509167" lon="1.54674833">
        <ele>1566.0</ele>
        <time>2019-08-04T07:53:58.771Z</time>
      </trkpt>
      <trkpt lat="42.55509167" lon="1.54674833">
        <ele>1566.0</ele>
        <time>2019-08-04T07:53:59.788Z</time>
      </trkpt>
      <trkpt lat="42.55506333" lon="1.54669">
        <ele>1567.0</ele>
        <time>2019-08-04T07:54:00.787Z</time>
      </trkpt>
      <trkpt lat="42.55506333" lon="1.54669">
        <ele>1567.0</ele>
        <time>2019-08-04T07:54:01.784Z</time>
      </trkpt>
      <trkpt lat="42.55503167" lon="1.54663">
        <ele>1567.0</ele>
        <time>2019-08-04T07:54:02.785Z</time>
      </trkpt>
      <trkpt lat="42.55503167" lon="1.54663">
        <ele>1567.0</ele>
        <time>2019-08-04T07:54:03.784Z</time>
      </trkpt>
      <trkpt lat="42.55499667" lon="1.54658333">
        <ele>1567.0</ele>
        <time>2019-08-04T07:54:04.783Z</time>
      </trkpt>
      <trkpt lat="42.55499667" lon="1.54658333">
        <ele>1567.0</ele>
        <time>2019-08-04T07:54:05.795Z</time>
      </trkpt>
      <trkpt lat="42.554965" lon="1.54653167">
        <ele>1568.0</ele>
        <time>2019-08-04T07:54:06.770Z</time>
      </trkpt>
      <trkpt lat="42.554965" lon="1.54653167">
        <ele>1568.0</ele>
        <time>2019-08-04T07:54:07.776Z</time>
      </trkpt>
      <trkpt lat="42.55493333" lon="1.54647167">
        <ele>1568.0</ele>
        <time>2019-08-04T07:54:08.765Z</time>
      </trkpt>
      <trkpt lat="42.55493333" lon="1.54647167">
        <ele>1568.0</ele>
        <time>2019-08-04T07:54:09.786Z</time>
      </trkpt>
      <trkpt lat="42.55489833" lon="1.54642333">
        <ele>1569.0</ele>
        <time>2019-08-04T07:54:10.785Z</time>
      </trkpt>
      <trkpt lat="42.55488" lon="1.5464">
        <ele>1569.0</ele>
        <time>2019-08-04T07:54:11.785Z</time>
      </trkpt>
      <trkpt lat="42.55488" lon="1.5464">
        <ele>1569.0</ele>
        <time>2019-08-04T07:54:12.791Z</time>
      </trkpt>
      <trkpt lat="42.55484167" lon="1.54635333">
        <ele>1569.0</ele>
        <time>2019-08-04T07:54:13.785Z</time>
      </trkpt>
      <trkpt lat="42.55482" lon="1.54633">
        <ele>1570.0</ele>
        <time>2019-08-04T07:54:14.783Z</time>
      </trkpt>
      <trkpt lat="42.55482" lon="1.54633">
        <ele>1570.0</ele>
        <time>2019-08-04T07:54:15.783Z</time>
      </trkpt>
      <trkpt lat="42.55477667" lon="1.54628333">
        <ele>1570.0</ele>
        <time>2019-08-04T07:54:16.784Z</time>
      </trkpt>
      <trkpt lat="42.55475333" lon="1.54626167">
        <ele>1571.0</ele>
        <time>2019-08-04T07:54:17.785Z</time>
      </trkpt>
      <trkpt lat="42.55473" lon="1.54624667">
        <ele>1571.0</ele>
        <time>2019-08-04T07:54:18.803Z</time>
      </trkpt>
      <trkpt lat="42.55473" lon="1.54624667">
        <ele>1571.0</ele>
        <time>2019-08-04T07:54:19.783Z</time>
      </trkpt>
      <trkpt lat="42.554685" lon="1.54620833">
        <ele>1571.0</ele>
        <time>2019-08-04T07:54:20.785Z</time>
      </trkpt>
      <trkpt lat="42.554685" lon="1.54620833">
        <ele>1571.0</ele>
        <time>2019-08-04T07:54:21.780Z</time>
      </trkpt>
      <trkpt lat="42.55464" lon="1.54617333">
        <ele>1572.0</ele>
        <time>2019-08-04T07:54:22.769Z</time>
      </trkpt>
      <trkpt lat="42.55464" lon="1.54617333">
        <ele>1572.0</ele>
        <time>2019-08-04T07:54:23.788Z</time>
      </trkpt>
      <trkpt lat="42.55459167" lon="1.54614167">
        <ele>1572.0</ele>
        <time>2019-08-04T07:54:24.793Z</time>
      </trkpt>
      <trkpt lat="42.55459167" lon="1.54614167">
        <ele>1572.0</ele>
        <time>2019-08-04T07:54:25.782Z</time>
      </trkpt>
      <trkpt lat="42.55454667" lon="1.546105">
        <ele>1572.0</ele>
        <time>2019-08-04T07:54:26.784Z</time>
      </trkpt>
      <trkpt lat="42.55454667" lon="1.546105">
        <ele>1572.0</ele>
        <time>2019-08-04T07:54:27.784Z</time>
      </trkpt>
      <trkpt lat="42.5545" lon="1.54606833">
        <ele>1573.0</ele>
        <time>2019-08-04T07:54:28.769Z</time>
      </trkpt>
      <trkpt lat="42.5545" lon="1.54606833">
        <ele>1573.0</ele>
        <time>2019-08-04T07:54:29.786Z</time>
      </trkpt>
      <trkpt lat="42.55445667" lon="1.54603333">
        <ele>1573.0</ele>
        <time>2019-08-04T07:54:30.788Z</time>
      </trkpt>
      <trkpt lat="42.55443833" lon="1.54601667">
        <ele>1574.0</ele>
        <time>2019-08-04T07:54:31.783Z</time>
      </trkpt>
      <trkpt lat="42.55443833" lon="1.54601667">
        <ele>1574.0</ele>
        <time>2019-08-04T07:54:32.786Z</time>
      </trkpt>
      <trkpt lat="42.55440167" lon="1.54598">
        <ele>1574.0</ele>
        <time>2019-08-04T07:54:33.801Z</time>
      </trkpt>
      <trkpt lat="42.55440167" lon="1.54598">
        <ele>1574.0</ele>
        <time>2019-08-04T07:54:34.783Z</time>
      </trkpt>
      <trkpt lat="42.554375" lon="1.54592333">
        <ele>1574.0</ele>
        <time>2019-08-04T07:54:35.785Z</time>
      </trkpt>
      <trkpt lat="42.55437" lon="1.54589167">
        <ele>1575.0</ele>
        <time>2019-08-04T07:54:36.786Z</time>
      </trkpt>
      <trkpt lat="42.55437" lon="1.54589167">
        <ele>1575.0</ele>
        <time>2019-08-04T07:54:37.783Z</time>
      </trkpt>
      <trkpt lat="42.55437333" lon="1.545825">
        <ele>1575.0</ele>
        <time>2019-08-04T07:54:38.779Z</time>
      </trkpt>
      <trkpt lat="42.55437333" lon="1.545825">
        <ele>1575.0</ele>
        <time>2019-08-04T07:54:39.799Z</time>
      </trkpt>
      <trkpt lat="42.554385" lon="1.54575833">
        <ele>1576.0</ele>
        <time>2019-08-04T07:54:40.786Z</time>
      </trkpt>
      <trkpt lat="42.554385" lon="1.54575833">
        <ele>1576.0</ele>
        <time>2019-08-04T07:54:41.783Z</time>
      </trkpt>
      <trkpt lat="42.55439833" lon="1.5457">
        <ele>1576.0</ele>
        <time>2019-08-04T07:54:42.788Z</time>
      </trkpt>
      <trkpt lat="42.55439833" lon="1.5457">
        <ele>1576.0</ele>
        <time>2019-08-04T07:54:43.800Z</time>
      </trkpt>
      <trkpt lat="42.55441667" lon="1.54563667">
        <ele>1577.0</ele>
        <time>2019-08-04T07:54:44.786Z</time>
      </trkpt>
      <trkpt lat="42.55441667" lon="1.54563667">
        <ele>1577.0</ele>
        <time>2019-08-04T07:54:45.783Z</time>
      </trkpt>
      <trkpt lat="42.55443833" lon="1.54555833">
        <ele>1579.0</ele>
        <time>2019-08-04T07:54:46.787Z</time>
      </trkpt>
      <trkpt lat="42.55443833" lon="1.54555833">
        <ele>1579.0</ele>
        <time>2019-08-04T07:54:47.783Z</time>
      </trkpt>
      <trkpt lat="42.554455" lon="1.54548">
        <ele>1580.0</ele>
        <time>2019-08-04T07:54:48.775Z</time>
      </trkpt>
      <trkpt lat="42.554455" lon="1.54548">
        <ele>1580.0</ele>
        <time>2019-08-04T07:54:49.794Z</time>
      </trkpt>
      <trkpt lat="42.55447" lon="1.54539833">
        <ele>1582.0</ele>
        <time>2019-08-04T07:54:50.786Z</time>
      </trkpt>
      <trkpt lat="42.55447" lon="1.54539833">
        <ele>1582.0</ele>
        <time>2019-08-04T07:54:51.785Z</time>
      </trkpt>
      <trkpt lat="42.554475" lon="1.54533333">
        <ele>1583.0</ele>
        <time>2019-08-04T07:54:52.785Z</time>
      </trkpt>
      <trkpt lat="42.554475" lon="1.54533333">
        <ele>1583.0</ele>
        <time>2019-08-04T07:54:53.780Z</time>
      </trkpt>
      <trkpt lat="42.554475" lon="1.545265">
        <ele>1584.0</ele>
        <time>2019-08-04T07:54:54.800Z</time>
      </trkpt>
      <trkpt lat="42.554475" lon="1.545265">
        <ele>1584.0</ele>
        <time>2019-08-04T07:54:55.783Z</time>
      </trkpt>
      <trkpt lat="42.55447667" lon="1.54518833">
        <ele>1585.0</ele>
        <time>2019-08-04T07:54:56.786Z</time>
      </trkpt>
      <trkpt lat="42.55447667" lon="1.54518833">
        <ele>1585.0</ele>
        <time>2019-08-04T07:54:57.783Z</time>
      </trkpt>
      <trkpt lat="42.554475" lon="1.54511333">
        <ele>1586.0</ele>
        <time>2019-08-04T07:54:58.774Z</time>
      </trkpt>
      <trkpt lat="42.554475" lon="1.54511333">
        <ele>1586.0</ele>
        <time>2019-08-04T07:54:59.793Z</time>
      </trkpt>
      <trkpt lat="42.55446833" lon="1.54503333">
        <ele>1587.0</ele>
        <time>2019-08-04T07:55:00.787Z</time>
      </trkpt>
      <trkpt lat="42.55446833" lon="1.54503333">
        <ele>1587.0</ele>
        <time>2019-08-04T07:55:01.783Z</time>
      </trkpt>
      <trkpt lat="42.55446333" lon="1.544955">
        <ele>1588.0</ele>
        <time>2019-08-04T07:55:02.786Z</time>
      </trkpt>
      <trkpt lat="42.55446333" lon="1.544955">
        <ele>1588.0</ele>
        <time>2019-08-04T07:55:03.796Z</time>
      </trkpt>
      <trkpt lat="42.55445333" lon="1.54488">
        <ele>1589.0</ele>
        <time>2019-08-04T07:55:04.785Z</time>
      </trkpt>
      <trkpt lat="42.55445333" lon="1.54488">
        <ele>1589.0</ele>
        <time>2019-08-04T07:55:05.771Z</time>
      </trkpt>
      <trkpt lat="42.55444833" lon="1.54481">
        <ele>1590.0</ele>
        <time>2019-08-04T07:55:06.777Z</time>
      </trkpt>
      <trkpt lat="42.55444833" lon="1.54481">
        <ele>1590.0</ele>
        <time>2019-08-04T07:55:07.783Z</time>
      </trkpt>
      <trkpt lat="42.554445" lon="1.54474167">
        <ele>1590.0</ele>
        <time>2019-08-04T07:55:08.766Z</time>
      </trkpt>
      <trkpt lat="42.554445" lon="1.54474167">
        <ele>1590.0</ele>
        <time>2019-08-04T07:55:09.783Z</time>
      </trkpt>
      <trkpt lat="42.55443833" lon="1.54467333">
        <ele>1591.0</ele>
        <time>2019-08-04T07:55:10.785Z</time>
      </trkpt>
      <trkpt lat="42.55443833" lon="1.54467333">
        <ele>1591.0</ele>
        <time>2019-08-04T07:55:11.781Z</time>
      </trkpt>
      <trkpt lat="42.55444167" lon="1.54460833">
        <ele>1591.0</ele>
        <time>2019-08-04T07:55:12.801Z</time>
      </trkpt>
      <trkpt lat="42.55444167" lon="1.54460833">
        <ele>1591.0</ele>
        <time>2019-08-04T07:55:13.783Z</time>
      </trkpt>
      <trkpt lat="42.55443333" lon="1.54453833">
        <ele>1591.0</ele>
        <time>2019-08-04T07:55:14.786Z</time>
      </trkpt>
      <trkpt lat="42.55443333" lon="1.54453833">
        <ele>1591.0</ele>
        <time>2019-08-04T07:55:15.783Z</time>
      </trkpt>
      <trkpt lat="42.55442833" lon="1.54446667">
        <ele>1591.0</ele>
        <time>2019-08-04T07:55:16.782Z</time>
      </trkpt>
      <trkpt lat="42.55442833" lon="1.54446667">
        <ele>1591.0</ele>
        <time>2019-08-04T07:55:17.780Z</time>
      </trkpt>
      <trkpt lat="42.55442167" lon="1.54439">
        <ele>1591.0</ele>
        <time>2019-08-04T07:55:18.804Z</time>
      </trkpt>
      <trkpt lat="42.55442167" lon="1.54439">
        <ele>1591.0</ele>
        <time>2019-08-04T07:55:19.783Z</time>
      </trkpt>
      <trkpt lat="42.55440667" lon="1.54432167">
        <ele>1592.0</ele>
        <time>2019-08-04T07:55:20.786Z</time>
      </trkpt>
      <trkpt lat="42.55440667" lon="1.54432167">
        <ele>1592.0</ele>
        <time>2019-08-04T07:55:21.780Z</time>
      </trkpt>
      <trkpt lat="42.55438333" lon="1.544255">
        <ele>1592.0</ele>
        <time>2019-08-04T07:55:22.801Z</time>
      </trkpt>
      <trkpt lat="42.55438333" lon="1.544255">
        <ele>1592.0</ele>
        <time>2019-08-04T07:55:23.788Z</time>
      </trkpt>
      <trkpt lat="42.55435667" lon="1.544195">
        <ele>1592.0</ele>
        <time>2019-08-04T07:55:24.788Z</time>
      </trkpt>
      <trkpt lat="42.55435667" lon="1.544195">
        <ele>1592.0</ele>
        <time>2019-08-04T07:55:25.780Z</time>
      </trkpt>
      <trkpt lat="42.55432" lon="1.54414">
        <ele>1593.0</ele>
        <time>2019-08-04T07:55:26.801Z</time>
      </trkpt>
      <trkpt lat="42.55432" lon="1.54414">
        <ele>1593.0</ele>
        <time>2019-08-04T07:55:27.783Z</time>
      </trkpt>
      <trkpt lat="42.554275" lon="1.54410333">
        <ele>1593.0</ele>
        <time>2019-08-04T07:55:28.786Z</time>
      </trkpt>
      <trkpt lat="42.554275" lon="1.54410333">
        <ele>1593.0</ele>
        <time>2019-08-04T07:55:29.802Z</time>
      </trkpt>
      <trkpt lat="42.55423" lon="1.54407333">
        <ele>1593.0</ele>
        <time>2019-08-04T07:55:30.784Z</time>
      </trkpt>
      <trkpt lat="42.55423" lon="1.54407333">
        <ele>1593.0</ele>
        <time>2019-08-04T07:55:31.800Z</time>
      </trkpt>
      <trkpt lat="42.55418333" lon="1.54404833">
        <ele>1593.0</ele>
        <time>2019-08-04T07:55:32.788Z</time>
      </trkpt>
      <trkpt lat="42.55418333" lon="1.54404833">
        <ele>1593.0</ele>
        <time>2019-08-04T07:55:33.784Z</time>
      </trkpt>
      <trkpt lat="42.55413167" lon="1.54403333">
        <ele>1593.0</ele>
        <time>2019-08-04T07:55:34.786Z</time>
      </trkpt>
      <trkpt lat="42.55413167" lon="1.54403333">
        <ele>1593.0</ele>
        <time>2019-08-04T07:55:35.784Z</time>
      </trkpt>
      <trkpt lat="42.55408" lon="1.54403833">
        <ele>1593.0</ele>
        <time>2019-08-04T07:55:36.796Z</time>
      </trkpt>
      <trkpt lat="42.55408" lon="1.54403833">
        <ele>1593.0</ele>
        <time>2019-08-04T07:55:37.783Z</time>
      </trkpt>
      <trkpt lat="42.55403167" lon="1.54404833">
        <ele>1593.0</ele>
        <time>2019-08-04T07:55:38.772Z</time>
      </trkpt>
      <trkpt lat="42.55403167" lon="1.54404833">
        <ele>1593.0</ele>
        <time>2019-08-04T07:55:39.797Z</time>
      </trkpt>
      <trkpt lat="42.55398667" lon="1.54407667">
        <ele>1594.0</ele>
        <time>2019-08-04T07:55:40.785Z</time>
      </trkpt>
      <trkpt lat="42.55398667" lon="1.54407667">
        <ele>1594.0</ele>
        <time>2019-08-04T07:55:41.782Z</time>
      </trkpt>
      <trkpt lat="42.553945" lon="1.54410833">
        <ele>1594.0</ele>
        <time>2019-08-04T07:55:42.788Z</time>
      </trkpt>
      <trkpt lat="42.553945" lon="1.54410833">
        <ele>1594.0</ele>
        <time>2019-08-04T07:55:43.780Z</time>
      </trkpt>
      <trkpt lat="42.5539" lon="1.544145">
        <ele>1594.0</ele>
        <time>2019-08-04T07:55:44.801Z</time>
      </trkpt>
      <trkpt lat="42.5539" lon="1.544145">
        <ele>1594.0</ele>
        <time>2019-08-04T07:55:45.785Z</time>
      </trkpt>
      <trkpt lat="42.55385167" lon="1.54418">
        <ele>1595.0</ele>
        <time>2019-08-04T07:55:46.786Z</time>
      </trkpt>
      <trkpt lat="42.55385167" lon="1.54418">
        <ele>1595.0</ele>
        <time>2019-08-04T07:55:47.781Z</time>
      </trkpt>
      <trkpt lat="42.55380833" lon="1.54421833">
        <ele>1595.0</ele>
        <time>2019-08-04T07:55:48.771Z</time>
      </trkpt>
      <trkpt lat="42.55380833" lon="1.54421833">
        <ele>1595.0</ele>
        <time>2019-08-04T07:55:49.787Z</time>
      </trkpt>
      <trkpt lat="42.55376" lon="1.54425">
        <ele>1595.0</ele>
        <time>2019-08-04T07:55:50.787Z</time>
      </trkpt>
      <trkpt lat="42.55376" lon="1.54425">
        <ele>1595.0</ele>
        <time>2019-08-04T07:55:51.804Z</time>
      </trkpt>
      <trkpt lat="42.553715" lon="1.544285">
        <ele>1596.0</ele>
        <time>2019-08-04T07:55:52.786Z</time>
      </trkpt>
      <trkpt lat="42.553715" lon="1.544285">
        <ele>1596.0</ele>
        <time>2019-08-04T07:55:53.782Z</time>
      </trkpt>
      <trkpt lat="42.553665" lon="1.54431167">
        <ele>1596.0</ele>
        <time>2019-08-04T07:55:54.802Z</time>
      </trkpt>
      <trkpt lat="42.553665" lon="1.54431167">
        <ele>1596.0</ele>
        <time>2019-08-04T07:55:55.784Z</time>
      </trkpt>
      <trkpt lat="42.553605" lon="1.54432833">
        <ele>1596.0</ele>
        <time>2019-08-04T07:55:56.786Z</time>
      </trkpt>
      <trkpt lat="42.553605" lon="1.54432833">
        <ele>1596.0</ele>
        <time>2019-08-04T07:55:57.781Z</time>
      </trkpt>
      <trkpt lat="42.55355333" lon="1.54435333">
        <ele>1597.0</ele>
        <time>2019-08-04T07:55:58.771Z</time>
      </trkpt>
      <trkpt lat="42.55355333" lon="1.54435333">
        <ele>1597.0</ele>
        <time>2019-08-04T07:55:59.787Z</time>
      </trkpt>
      <trkpt lat="42.553505" lon="1.54438167">
        <ele>1597.0</ele>
        <time>2019-08-04T07:56:00.788Z</time>
      </trkpt>
      <trkpt lat="42.55348667" lon="1.54439333">
        <ele>1598.0</ele>
        <time>2019-08-04T07:56:01.766Z</time>
      </trkpt>
      <trkpt lat="42.55348667" lon="1.54439333">
        <ele>1598.0</ele>
        <time>2019-08-04T07:56:02.787Z</time>
      </trkpt>
      <trkpt lat="42.553435" lon="1.54440167">
        <ele>1598.0</ele>
        <time>2019-08-04T07:56:03.789Z</time>
      </trkpt>
      <trkpt lat="42.55341667" lon="1.54440833">
        <ele>1598.0</ele>
        <time>2019-08-04T07:56:04.784Z</time>
      </trkpt>
      <trkpt lat="42.55338833" lon="1.54441833">
        <ele>1598.0</ele>
        <time>2019-08-04T07:56:05.796Z</time>
      </trkpt>
      <trkpt lat="42.55336833" lon="1.54442667">
        <ele>1599.0</ele>
        <time>2019-08-04T07:56:06.775Z</time>
      </trkpt>
      <trkpt lat="42.55336833" lon="1.54442667">
        <ele>1599.0</ele>
        <time>2019-08-04T07:56:07.781Z</time>
      </trkpt>
      <trkpt lat="42.55331333" lon="1.54444833">
        <ele>1599.0</ele>
        <time>2019-08-04T07:56:08.767Z</time>
      </trkpt>
      <trkpt lat="42.55331333" lon="1.54444833">
        <ele>1599.0</ele>
        <time>2019-08-04T07:56:09.786Z</time>
      </trkpt>
      <trkpt lat="42.55325667" lon="1.54444">
        <ele>1599.0</ele>
        <time>2019-08-04T07:56:10.786Z</time>
      </trkpt>
      <trkpt lat="42.55322833" lon="1.54442667">
        <ele>1599.0</ele>
        <time>2019-08-04T07:56:11.784Z</time>
      </trkpt>
      <trkpt lat="42.55322833" lon="1.54442667">
        <ele>1599.0</ele>
        <time>2019-08-04T07:56:12.775Z</time>
      </trkpt>
      <trkpt lat="42.55317667" lon="1.54439333">
        <ele>1600.0</ele>
        <time>2019-08-04T07:56:13.798Z</time>
      </trkpt>
      <trkpt lat="42.55315333" lon="1.54437167">
        <ele>1600.0</ele>
        <time>2019-08-04T07:56:14.788Z</time>
      </trkpt>
      <trkpt lat="42.55315333" lon="1.54437167">
        <ele>1600.0</ele>
        <time>2019-08-04T07:56:15.782Z</time>
      </trkpt>
      <trkpt lat="42.553115" lon="1.54431833">
        <ele>1601.0</ele>
        <time>2019-08-04T07:56:16.802Z</time>
      </trkpt>
      <trkpt lat="42.553115" lon="1.54431833">
        <ele>1601.0</ele>
        <time>2019-08-04T07:56:17.785Z</time>
      </trkpt>
      <trkpt lat="42.55307167" lon="1.544265">
        <ele>1601.0</ele>
        <time>2019-08-04T07:56:18.765Z</time>
      </trkpt>
      <trkpt lat="42.55307167" lon="1.544265">
        <ele>1601.0</ele>
        <time>2019-08-04T07:56:19.783Z</time>
      </trkpt>
      <trkpt lat="42.55304167" lon="1.54419833">
        <ele>1602.0</ele>
        <time>2019-08-04T07:56:20.788Z</time>
      </trkpt>
      <trkpt lat="42.55304167" lon="1.54419833">
        <ele>1602.0</ele>
        <time>2019-08-04T07:56:21.785Z</time>
      </trkpt>
      <trkpt lat="42.55301" lon="1.54412833">
        <ele>1602.0</ele>
        <time>2019-08-04T07:56:22.785Z</time>
      </trkpt>
      <trkpt lat="42.55301" lon="1.54412833">
        <ele>1602.0</ele>
        <time>2019-08-04T07:56:23.775Z</time>
      </trkpt>
      <trkpt lat="42.55297667" lon="1.544055">
        <ele>1603.0</ele>
        <time>2019-08-04T07:56:24.796Z</time>
      </trkpt>
      <trkpt lat="42.55297667" lon="1.544055">
        <ele>1603.0</ele>
        <time>2019-08-04T07:56:25.785Z</time>
      </trkpt>
      <trkpt lat="42.55294" lon="1.54398167">
        <ele>1603.0</ele>
        <time>2019-08-04T07:56:26.788Z</time>
      </trkpt>
      <trkpt lat="42.55294" lon="1.54398167">
        <ele>1603.0</ele>
        <time>2019-08-04T07:56:27.785Z</time>
      </trkpt>
      <trkpt lat="42.55290333" lon="1.543905">
        <ele>1603.0</ele>
        <time>2019-08-04T07:56:28.768Z</time>
      </trkpt>
      <trkpt lat="42.55290333" lon="1.543905">
        <ele>1603.0</ele>
        <time>2019-08-04T07:56:29.796Z</time>
      </trkpt>
      <trkpt lat="42.55285167" lon="1.54385333">
        <ele>1604.0</ele>
        <time>2019-08-04T07:56:30.788Z</time>
      </trkpt>
      <trkpt lat="42.55285167" lon="1.54385333">
        <ele>1604.0</ele>
        <time>2019-08-04T07:56:31.784Z</time>
      </trkpt>
      <trkpt lat="42.55279" lon="1.54381667">
        <ele>1604.0</ele>
        <time>2019-08-04T07:56:32.786Z</time>
      </trkpt>
      <trkpt lat="42.55279" lon="1.54381667">
        <ele>1604.0</ele>
        <time>2019-08-04T07:56:33.802Z</time>
      </trkpt>
      <trkpt lat="42.552725" lon="1.54379333">
        <ele>1604.0</ele>
        <time>2019-08-04T07:56:34.777Z</time>
      </trkpt>
      <trkpt lat="42.552725" lon="1.54379333">
        <ele>1604.0</ele>
        <time>2019-08-04T07:56:35.794Z</time>
      </trkpt>
      <trkpt lat="42.55266333" lon="1.54378333">
        <ele>1605.0</ele>
        <time>2019-08-04T07:56:36.789Z</time>
      </trkpt>
      <trkpt lat="42.55266333" lon="1.54378333">
        <ele>1605.0</ele>
        <time>2019-08-04T07:56:37.782Z</time>
      </trkpt>
      <trkpt lat="42.55259833" lon="1.54377667">
        <ele>1605.0</ele>
        <time>2019-08-04T07:56:38.771Z</time>
      </trkpt>
      <trkpt lat="42.55259833" lon="1.54377667">
        <ele>1605.0</ele>
        <time>2019-08-04T07:56:39.787Z</time>
      </trkpt>
      <trkpt lat="42.55253333" lon="1.54377167">
        <ele>1605.0</ele>
        <time>2019-08-04T07:56:40.787Z</time>
      </trkpt>
      <trkpt lat="42.55253333" lon="1.54377167">
        <ele>1605.0</ele>
        <time>2019-08-04T07:56:41.784Z</time>
      </trkpt>
      <trkpt lat="42.55246333" lon="1.54376167">
        <ele>1605.0</ele>
        <time>2019-08-04T07:56:42.789Z</time>
      </trkpt>
      <trkpt lat="42.55246333" lon="1.54376167">
        <ele>1605.0</ele>
        <time>2019-08-04T07:56:43.784Z</time>
      </trkpt>
      <trkpt lat="42.55239667" lon="1.54375167">
        <ele>1606.0</ele>
        <time>2019-08-04T07:56:44.788Z</time>
      </trkpt>
      <trkpt lat="42.55239667" lon="1.54375167">
        <ele>1606.0</ele>
        <time>2019-08-04T07:56:45.784Z</time>
      </trkpt>
      <trkpt lat="42.55233167" lon="1.54373833">
        <ele>1606.0</ele>
        <time>2019-08-04T07:56:46.765Z</time>
      </trkpt>
      <trkpt lat="42.55229833" lon="1.54373333">
        <ele>1606.0</ele>
        <time>2019-08-04T07:56:47.787Z</time>
      </trkpt>
      <trkpt lat="42.55226667" lon="1.54373">
        <ele>1606.0</ele>
        <time>2019-08-04T07:56:48.767Z</time>
      </trkpt>
      <trkpt lat="42.55226667" lon="1.54373">
        <ele>1606.0</ele>
        <time>2019-08-04T07:56:49.782Z</time>
      </trkpt>
      <trkpt lat="42.55220167" lon="1.54373333">
        <ele>1606.0</ele>
        <time>2019-08-04T07:56:50.788Z</time>
      </trkpt>
      <trkpt lat="42.55220167" lon="1.54373333">
        <ele>1606.0</ele>
        <time>2019-08-04T07:56:51.785Z</time>
      </trkpt>
      <trkpt lat="42.55213833" lon="1.54374667">
        <ele>1606.0</ele>
        <time>2019-08-04T07:56:52.786Z</time>
      </trkpt>
      <trkpt lat="42.55211167" lon="1.54375167">
        <ele>1606.0</ele>
        <time>2019-08-04T07:56:53.788Z</time>
      </trkpt>
      <trkpt lat="42.552085" lon="1.54375667">
        <ele>1606.0</ele>
        <time>2019-08-04T07:56:54.803Z</time>
      </trkpt>
      <trkpt lat="42.552085" lon="1.54375667">
        <ele>1606.0</ele>
        <time>2019-08-04T07:56:55.784Z</time>
      </trkpt>
      <trkpt lat="42.55202667" lon="1.54376167">
        <ele>1606.0</ele>
        <time>2019-08-04T07:56:56.788Z</time>
      </trkpt>
      <trkpt lat="42.55202667" lon="1.54376167">
        <ele>1606.0</ele>
        <time>2019-08-04T07:56:57.783Z</time>
      </trkpt>
      <trkpt lat="42.55197" lon="1.543775">
        <ele>1606.0</ele>
        <time>2019-08-04T07:56:58.776Z</time>
      </trkpt>
      <trkpt lat="42.55197" lon="1.543775">
        <ele>1606.0</ele>
        <time>2019-08-04T07:56:59.794Z</time>
      </trkpt>
      <trkpt lat="42.551915" lon="1.54379">
        <ele>1606.0</ele>
        <time>2019-08-04T07:57:00.789Z</time>
      </trkpt>
      <trkpt lat="42.551915" lon="1.54379">
        <ele>1606.0</ele>
        <time>2019-08-04T07:57:01.778Z</time>
      </trkpt>
      <trkpt lat="42.55185333" lon="1.54379">
        <ele>1607.0</ele>
        <time>2019-08-04T07:57:02.798Z</time>
      </trkpt>
      <trkpt lat="42.55185333" lon="1.54379">
        <ele>1607.0</ele>
        <time>2019-08-04T07:57:03.794Z</time>
      </trkpt>
      <trkpt lat="42.55179167" lon="1.543785">
        <ele>1607.0</ele>
        <time>2019-08-04T07:57:04.784Z</time>
      </trkpt>
      <trkpt lat="42.551755" lon="1.54378167">
        <ele>1607.0</ele>
        <time>2019-08-04T07:57:05.794Z</time>
      </trkpt>
      <trkpt lat="42.551755" lon="1.54378167">
        <ele>1607.0</ele>
        <time>2019-08-04T07:57:06.793Z</time>
      </trkpt>
      <trkpt lat="42.55169" lon="1.54377333">
        <ele>1607.0</ele>
        <time>2019-08-04T07:57:07.799Z</time>
      </trkpt>
      <trkpt lat="42.55165833" lon="1.543765">
        <ele>1607.0</ele>
        <time>2019-08-04T07:57:08.803Z</time>
      </trkpt>
      <trkpt lat="42.55165833" lon="1.543765">
        <ele>1607.0</ele>
        <time>2019-08-04T07:57:09.782Z</time>
      </trkpt>
      <trkpt lat="42.55159167" lon="1.54375">
        <ele>1607.0</ele>
        <time>2019-08-04T07:57:10.788Z</time>
      </trkpt>
      <trkpt lat="42.55159167" lon="1.54375">
        <ele>1607.0</ele>
        <time>2019-08-04T07:57:11.784Z</time>
      </trkpt>
      <trkpt lat="42.55153" lon="1.543735">
        <ele>1608.0</ele>
        <time>2019-08-04T07:57:12.788Z</time>
      </trkpt>
      <trkpt lat="42.55153" lon="1.543735">
        <ele>1608.0</ele>
        <time>2019-08-04T07:57:13.782Z</time>
      </trkpt>
      <trkpt lat="42.55147" lon="1.54371833">
        <ele>1608.0</ele>
        <time>2019-08-04T07:57:14.788Z</time>
      </trkpt>
      <trkpt lat="42.55147" lon="1.54371833">
        <ele>1608.0</ele>
        <time>2019-08-04T07:57:15.782Z</time>
      </trkpt>
      <trkpt lat="42.55141167" lon="1.54370833">
        <ele>1608.0</ele>
        <time>2019-08-04T07:57:16.803Z</time>
      </trkpt>
      <trkpt lat="42.55138167" lon="1.543705">
        <ele>1608.0</ele>
        <time>2019-08-04T07:57:17.788Z</time>
      </trkpt>
      <trkpt lat="42.55135333" lon="1.54370167">
        <ele>1608.0</ele>
        <time>2019-08-04T07:57:18.772Z</time>
      </trkpt>
      <trkpt lat="42.55135333" lon="1.54370167">
        <ele>1608.0</ele>
        <time>2019-08-04T07:57:19.789Z</time>
      </trkpt>
      <trkpt lat="42.55130167" lon="1.543705">
        <ele>1608.0</ele>
        <time>2019-08-04T07:57:20.789Z</time>
      </trkpt>
      <trkpt lat="42.55130167" lon="1.543705">
        <ele>1608.0</ele>
        <time>2019-08-04T07:57:21.783Z</time>
      </trkpt>
      <trkpt lat="42.55124333" lon="1.54370667">
        <ele>1609.0</ele>
        <time>2019-08-04T07:57:22.767Z</time>
      </trkpt>
      <trkpt lat="42.55124333" lon="1.54370667">
        <ele>1609.0</ele>
        <time>2019-08-04T07:57:23.784Z</time>
      </trkpt>
      <trkpt lat="42.55118333" lon="1.54371333">
        <ele>1609.0</ele>
        <time>2019-08-04T07:57:24.769Z</time>
      </trkpt>
      <trkpt lat="42.55118333" lon="1.54371333">
        <ele>1609.0</ele>
        <time>2019-08-04T07:57:25.795Z</time>
      </trkpt>
      <trkpt lat="42.55112667" lon="1.54371333">
        <ele>1609.0</ele>
        <time>2019-08-04T07:57:26.786Z</time>
      </trkpt>
      <trkpt lat="42.55112667" lon="1.54371333">
        <ele>1609.0</ele>
        <time>2019-08-04T07:57:27.781Z</time>
      </trkpt>
      <trkpt lat="42.55106833" lon="1.543705">
        <ele>1609.0</ele>
        <time>2019-08-04T07:57:28.774Z</time>
      </trkpt>
      <trkpt lat="42.55106833" lon="1.543705">
        <ele>1609.0</ele>
        <time>2019-08-04T07:57:29.790Z</time>
      </trkpt>
      <trkpt lat="42.55101" lon="1.54368833">
        <ele>1609.0</ele>
        <time>2019-08-04T07:57:30.788Z</time>
      </trkpt>
      <trkpt lat="42.55101" lon="1.54368833">
        <ele>1609.0</ele>
        <time>2019-08-04T07:57:31.785Z</time>
      </trkpt>
      <trkpt lat="42.55096167" lon="1.54364333">
        <ele>1609.0</ele>
        <time>2019-08-04T07:57:32.788Z</time>
      </trkpt>
      <trkpt lat="42.55096167" lon="1.54364333">
        <ele>1609.0</ele>
        <time>2019-08-04T07:57:33.797Z</time>
      </trkpt>
      <trkpt lat="42.55093" lon="1.54357833">
        <ele>1609.0</ele>
        <time>2019-08-04T07:57:34.788Z</time>
      </trkpt>
      <trkpt lat="42.55093" lon="1.54357833">
        <ele>1609.0</ele>
        <time>2019-08-04T07:57:35.775Z</time>
      </trkpt>
      <trkpt lat="42.55090667" lon="1.54351667">
        <ele>1609.0</ele>
        <time>2019-08-04T07:57:36.796Z</time>
      </trkpt>
      <trkpt lat="42.55090667" lon="1.54351667">
        <ele>1609.0</ele>
        <time>2019-08-04T07:57:37.783Z</time>
      </trkpt>
      <trkpt lat="42.55087833" lon="1.54346167">
        <ele>1610.0</ele>
        <time>2019-08-04T07:57:38.803Z</time>
      </trkpt>
      <trkpt lat="42.55087833" lon="1.54346167">
        <ele>1610.0</ele>
        <time>2019-08-04T07:57:39.784Z</time>
      </trkpt>
      <trkpt lat="42.55085667" lon="1.54339333">
        <ele>1610.0</ele>
        <time>2019-08-04T07:57:40.786Z</time>
      </trkpt>
      <trkpt lat="42.55085667" lon="1.54339333">
        <ele>1610.0</ele>
        <time>2019-08-04T07:57:41.784Z</time>
      </trkpt>
      <trkpt lat="42.55083667" lon="1.54332333">
        <ele>1610.0</ele>
        <time>2019-08-04T07:57:42.789Z</time>
      </trkpt>
      <trkpt lat="42.55083667" lon="1.54332333">
        <ele>1610.0</ele>
        <time>2019-08-04T07:57:43.783Z</time>
      </trkpt>
      <trkpt lat="42.55081" lon="1.54325833">
        <ele>1610.0</ele>
        <time>2019-08-04T07:57:44.803Z</time>
      </trkpt>
      <trkpt lat="42.55081" lon="1.54325833">
        <ele>1610.0</ele>
        <time>2019-08-04T07:57:45.784Z</time>
      </trkpt>
      <trkpt lat="42.550785" lon="1.54319">
        <ele>1611.0</ele>
        <time>2019-08-04T07:57:46.785Z</time>
      </trkpt>
      <trkpt lat="42.550785" lon="1.54319">
        <ele>1611.0</ele>
        <time>2019-08-04T07:57:47.782Z</time>
      </trkpt>
      <trkpt lat="42.550755" lon="1.54312333">
        <ele>1612.0</ele>
        <time>2019-08-04T07:57:48.772Z</time>
      </trkpt>
      <trkpt lat="42.550755" lon="1.54312333">
        <ele>1612.0</ele>
        <time>2019-08-04T07:57:49.788Z</time>
      </trkpt>
      <trkpt lat="42.55073167" lon="1.54305167">
        <ele>1612.0</ele>
        <time>2019-08-04T07:57:50.788Z</time>
      </trkpt>
      <trkpt lat="42.55073167" lon="1.54305167">
        <ele>1612.0</ele>
        <time>2019-08-04T07:57:51.770Z</time>
      </trkpt>
      <trkpt lat="42.55070167" lon="1.54298333">
        <ele>1612.0</ele>
        <time>2019-08-04T07:57:52.790Z</time>
      </trkpt>
      <trkpt lat="42.55070167" lon="1.54298333">
        <ele>1612.0</ele>
        <time>2019-08-04T07:57:53.775Z</time>
      </trkpt>
      <trkpt lat="42.55067" lon="1.542915">
        <ele>1612.0</ele>
        <time>2019-08-04T07:57:54.795Z</time>
      </trkpt>
      <trkpt lat="42.550645" lon="1.54289">
        <ele>1612.0</ele>
        <time>2019-08-04T07:57:55.784Z</time>
      </trkpt>
      <trkpt lat="42.55062167" lon="1.54286333">
        <ele>1612.0</ele>
        <time>2019-08-04T07:57:56.767Z</time>
      </trkpt>
      <trkpt lat="42.55062167" lon="1.54286333">
        <ele>1612.0</ele>
        <time>2019-08-04T07:57:57.771Z</time>
      </trkpt>
      <trkpt lat="42.55057167" lon="1.54281833">
        <ele>1613.0</ele>
        <time>2019-08-04T07:57:58.774Z</time>
      </trkpt>
      <trkpt lat="42.55057167" lon="1.54281833">
        <ele>1613.0</ele>
        <time>2019-08-04T07:57:59.794Z</time>
      </trkpt>
      <trkpt lat="42.55051333" lon="1.54277">
        <ele>1613.0</ele>
        <time>2019-08-04T07:58:00.788Z</time>
      </trkpt>
      <trkpt lat="42.55051333" lon="1.54277">
        <ele>1613.0</ele>
        <time>2019-08-04T07:58:01.783Z</time>
      </trkpt>
      <trkpt lat="42.55045667" lon="1.54271833">
        <ele>1613.0</ele>
        <time>2019-08-04T07:58:02.803Z</time>
      </trkpt>
      <trkpt lat="42.55045667" lon="1.54271833">
        <ele>1613.0</ele>
        <time>2019-08-04T07:58:03.797Z</time>
      </trkpt>
      <trkpt lat="42.550405" lon="1.54266167">
        <ele>1613.0</ele>
        <time>2019-08-04T07:58:04.796Z</time>
      </trkpt>
      <trkpt lat="42.55037833" lon="1.54263667">
        <ele>1613.0</ele>
        <time>2019-08-04T07:58:05.784Z</time>
      </trkpt>
      <trkpt lat="42.55037833" lon="1.54263667">
        <ele>1613.0</ele>
        <time>2019-08-04T07:58:06.796Z</time>
      </trkpt>
      <trkpt lat="42.55033167" lon="1.54258333">
        <ele>1614.0</ele>
        <time>2019-08-04T07:58:07.802Z</time>
      </trkpt>
      <trkpt lat="42.55030667" lon="1.54255333">
        <ele>1614.0</ele>
        <time>2019-08-04T07:58:08.773Z</time>
      </trkpt>
      <trkpt lat="42.55030667" lon="1.54255333">
        <ele>1614.0</ele>
        <time>2019-08-04T07:58:09.795Z</time>
      </trkpt>
      <trkpt lat="42.55025833" lon="1.54250333">
        <ele>1614.0</ele>
        <time>2019-08-04T07:58:10.789Z</time>
      </trkpt>
      <trkpt lat="42.55023167" lon="1.54248333">
        <ele>1614.0</ele>
        <time>2019-08-04T07:58:11.789Z</time>
      </trkpt>
      <trkpt lat="42.55023167" lon="1.54248333">
        <ele>1614.0</ele>
        <time>2019-08-04T07:58:12.784Z</time>
      </trkpt>
      <trkpt lat="42.55017667" lon="1.542455">
        <ele>1614.0</ele>
        <time>2019-08-04T07:58:13.788Z</time>
      </trkpt>
      <trkpt lat="42.55014833" lon="1.54244833">
        <ele>1614.0</ele>
        <time>2019-08-04T07:58:14.790Z</time>
      </trkpt>
      <trkpt lat="42.55014833" lon="1.54244833">
        <ele>1614.0</ele>
        <time>2019-08-04T07:58:15.784Z</time>
      </trkpt>
      <trkpt lat="42.55008667" lon="1.54244667">
        <ele>1614.0</ele>
        <time>2019-08-04T07:58:16.788Z</time>
      </trkpt>
      <trkpt lat="42.55008667" lon="1.54244667">
        <ele>1614.0</ele>
        <time>2019-08-04T07:58:17.784Z</time>
      </trkpt>
      <trkpt lat="42.55002333" lon="1.54245">
        <ele>1614.0</ele>
        <time>2019-08-04T07:58:18.774Z</time>
      </trkpt>
      <trkpt lat="42.55002333" lon="1.54245">
        <ele>1614.0</ele>
        <time>2019-08-04T07:58:19.796Z</time>
      </trkpt>
      <trkpt lat="42.54996333" lon="1.54245333">
        <ele>1613.0</ele>
        <time>2019-08-04T07:58:20.788Z</time>
      </trkpt>
      <trkpt lat="42.54993667" lon="1.54245667">
        <ele>1614.0</ele>
        <time>2019-08-04T07:58:21.797Z</time>
      </trkpt>
      <trkpt lat="42.54993667" lon="1.54245667">
        <ele>1614.0</ele>
        <time>2019-08-04T07:58:22.784Z</time>
      </trkpt>
      <trkpt lat="42.54988333" lon="1.54245833">
        <ele>1613.0</ele>
        <time>2019-08-04T07:58:23.788Z</time>
      </trkpt>
      <trkpt lat="42.549855" lon="1.54245667">
        <ele>1613.0</ele>
        <time>2019-08-04T07:58:24.787Z</time>
      </trkpt>
      <trkpt lat="42.549855" lon="1.54245667">
        <ele>1613.0</ele>
        <time>2019-08-04T07:58:25.784Z</time>
      </trkpt>
      <trkpt lat="42.54979833" lon="1.54245">
        <ele>1613.0</ele>
        <time>2019-08-04T07:58:26.788Z</time>
      </trkpt>
      <trkpt lat="42.54977" lon="1.54243833">
        <ele>1613.0</ele>
        <time>2019-08-04T07:58:27.788Z</time>
      </trkpt>
      <trkpt lat="42.54974333" lon="1.54242">
        <ele>1613.0</ele>
        <time>2019-08-04T07:58:28.775Z</time>
      </trkpt>
      <trkpt lat="42.54974333" lon="1.54242">
        <ele>1613.0</ele>
        <time>2019-08-04T07:58:29.795Z</time>
      </trkpt>
      <trkpt lat="42.5497" lon="1.54237167">
        <ele>1614.0</ele>
        <time>2019-08-04T07:58:30.789Z</time>
      </trkpt>
      <trkpt lat="42.5497" lon="1.54237167">
        <ele>1614.0</ele>
        <time>2019-08-04T07:58:31.775Z</time>
      </trkpt>
      <trkpt lat="42.54966333" lon="1.54232">
        <ele>1614.0</ele>
        <time>2019-08-04T07:58:32.771Z</time>
      </trkpt>
      <trkpt lat="42.54964667" lon="1.54229333">
        <ele>1614.0</ele>
        <time>2019-08-04T07:58:33.787Z</time>
      </trkpt>
      <trkpt lat="42.54963333" lon="1.54226333">
        <ele>1614.0</ele>
        <time>2019-08-04T07:58:34.791Z</time>
      </trkpt>
      <trkpt lat="42.54963333" lon="1.54226333">
        <ele>1614.0</ele>
        <time>2019-08-04T07:58:35.785Z</time>
      </trkpt>
      <trkpt lat="42.54961" lon="1.54220333">
        <ele>1615.0</ele>
        <time>2019-08-04T07:58:36.768Z</time>
      </trkpt>
      <trkpt lat="42.54959833" lon="1.54217667">
        <ele>1615.0</ele>
        <time>2019-08-04T07:58:37.791Z</time>
      </trkpt>
      <trkpt lat="42.549585" lon="1.54215">
        <ele>1615.0</ele>
        <time>2019-08-04T07:58:38.773Z</time>
      </trkpt>
      <trkpt lat="42.549585" lon="1.54215">
        <ele>1615.0</ele>
        <time>2019-08-04T07:58:39.790Z</time>
      </trkpt>
      <trkpt lat="42.549565" lon="1.54208667">
        <ele>1615.0</ele>
        <time>2019-08-04T07:58:40.784Z</time>
      </trkpt>
      <trkpt lat="42.549565" lon="1.54208667">
        <ele>1615.0</ele>
        <time>2019-08-04T07:58:41.782Z</time>
      </trkpt>
      <trkpt lat="42.54954333" lon="1.542025">
        <ele>1615.0</ele>
        <time>2019-08-04T07:58:42.788Z</time>
      </trkpt>
      <trkpt lat="42.54954333" lon="1.542025">
        <ele>1615.0</ele>
        <time>2019-08-04T07:58:43.791Z</time>
      </trkpt>
      <trkpt lat="42.54952667" lon="1.54195833">
        <ele>1616.0</ele>
        <time>2019-08-04T07:58:44.789Z</time>
      </trkpt>
      <trkpt lat="42.54952667" lon="1.54195833">
        <ele>1616.0</ele>
        <time>2019-08-04T07:58:45.784Z</time>
      </trkpt>
      <trkpt lat="42.549505" lon="1.54188667">
        <ele>1616.0</ele>
        <time>2019-08-04T07:58:46.787Z</time>
      </trkpt>
      <trkpt lat="42.549505" lon="1.54188667">
        <ele>1616.0</ele>
        <time>2019-08-04T07:58:47.783Z</time>
      </trkpt>
      <trkpt lat="42.54948333" lon="1.541815">
        <ele>1616.0</ele>
        <time>2019-08-04T07:58:48.776Z</time>
      </trkpt>
      <trkpt lat="42.54948333" lon="1.541815">
        <ele>1616.0</ele>
        <time>2019-08-04T07:58:49.770Z</time>
      </trkpt>
      <trkpt lat="42.54947" lon="1.54174167">
        <ele>1616.0</ele>
        <time>2019-08-04T07:58:50.790Z</time>
      </trkpt>
      <trkpt lat="42.54947" lon="1.541695">
        <ele>1618.0</ele>
        <time>2019-08-04T07:58:51.788Z</time>
      </trkpt>
      <trkpt lat="42.54947" lon="1.541695">
        <ele>1618.0</ele>
        <time>2019-08-04T07:58:52.783Z</time>
      </trkpt>
      <trkpt lat="42.549465" lon="1.54160667">
        <ele>1620.0</ele>
        <time>2019-08-04T07:58:53.804Z</time>
      </trkpt>
      <trkpt lat="42.549465" lon="1.54160667">
        <ele>1620.0</ele>
        <time>2019-08-04T07:58:54.785Z</time>
      </trkpt>
      <trkpt lat="42.54946167" lon="1.54152">
        <ele>1621.0</ele>
        <time>2019-08-04T07:58:55.789Z</time>
      </trkpt>
      <trkpt lat="42.54946167" lon="1.54152">
        <ele>1621.0</ele>
        <time>2019-08-04T07:58:56.775Z</time>
      </trkpt>
      <trkpt lat="42.54946333" lon="1.541435">
        <ele>1622.0</ele>
        <time>2019-08-04T07:58:57.796Z</time>
      </trkpt>
      <trkpt lat="42.54946333" lon="1.54139167">
        <ele>1623.0</ele>
        <time>2019-08-04T07:58:58.776Z</time>
      </trkpt>
      <trkpt lat="42.54946333" lon="1.54139167">
        <ele>1623.0</ele>
        <time>2019-08-04T07:58:59.795Z</time>
      </trkpt>
      <trkpt lat="42.549465" lon="1.54130667">
        <ele>1624.0</ele>
        <time>2019-08-04T07:59:00.792Z</time>
      </trkpt>
      <trkpt lat="42.549465" lon="1.54130667">
        <ele>1624.0</ele>
        <time>2019-08-04T07:59:01.782Z</time>
      </trkpt>
      <trkpt lat="42.549465" lon="1.541225">
        <ele>1625.0</ele>
        <time>2019-08-04T07:59:02.802Z</time>
      </trkpt>
      <trkpt lat="42.549465" lon="1.541225">
        <ele>1625.0</ele>
        <time>2019-08-04T07:59:03.784Z</time>
      </trkpt>
      <trkpt lat="42.54947" lon="1.54114">
        <ele>1626.0</ele>
        <time>2019-08-04T07:59:04.766Z</time>
      </trkpt>
      <trkpt lat="42.54947" lon="1.54114">
        <ele>1626.0</ele>
        <time>2019-08-04T07:59:05.783Z</time>
      </trkpt>
      <trkpt lat="42.54947" lon="1.54105833">
        <ele>1627.0</ele>
        <time>2019-08-04T07:59:06.801Z</time>
      </trkpt>
      <trkpt lat="42.54946833" lon="1.541015">
        <ele>1628.0</ele>
        <time>2019-08-04T07:59:07.777Z</time>
      </trkpt>
      <trkpt lat="42.54946667" lon="1.540975">
        <ele>1628.0</ele>
        <time>2019-08-04T07:59:08.772Z</time>
      </trkpt>
      <trkpt lat="42.54946667" lon="1.540975">
        <ele>1628.0</ele>
        <time>2019-08-04T07:59:09.802Z</time>
      </trkpt>
      <trkpt lat="42.54945" lon="1.54089833">
        <ele>1629.0</ele>
        <time>2019-08-04T07:59:10.788Z</time>
      </trkpt>
      <trkpt lat="42.54945" lon="1.54089833">
        <ele>1629.0</ele>
        <time>2019-08-04T07:59:11.783Z</time>
      </trkpt>
      <trkpt lat="42.54941167" lon="1.54083833">
        <ele>1630.0</ele>
        <time>2019-08-04T07:59:12.804Z</time>
      </trkpt>
      <trkpt lat="42.549385" lon="1.54082">
        <ele>1630.0</ele>
        <time>2019-08-04T07:59:13.804Z</time>
      </trkpt>
      <trkpt lat="42.549385" lon="1.54082">
        <ele>1630.0</ele>
        <time>2019-08-04T07:59:14.789Z</time>
      </trkpt>
      <trkpt lat="42.54932833" lon="1.54081667">
        <ele>1630.0</ele>
        <time>2019-08-04T07:59:15.765Z</time>
      </trkpt>
      <trkpt lat="42.54932833" lon="1.54081667">
        <ele>1630.0</ele>
        <time>2019-08-04T07:59:16.782Z</time>
      </trkpt>
      <trkpt lat="42.549275" lon="1.54087167">
        <ele>1631.0</ele>
        <time>2019-08-04T07:59:17.797Z</time>
      </trkpt>
      <trkpt lat="42.549275" lon="1.54087167">
        <ele>1631.0</ele>
        <time>2019-08-04T07:59:18.774Z</time>
      </trkpt>
      <trkpt lat="42.54925333" lon="1.54096">
        <ele>1631.0</ele>
        <time>2019-08-04T07:59:19.789Z</time>
      </trkpt>
      <trkpt lat="42.54925333" lon="1.54096">
        <ele>1631.0</ele>
        <time>2019-08-04T07:59:20.766Z</time>
      </trkpt>
      <trkpt lat="42.54924667" lon="1.54105333">
        <ele>1631.0</ele>
        <time>2019-08-04T07:59:21.782Z</time>
      </trkpt>
      <trkpt lat="42.54924667" lon="1.54105333">
        <ele>1631.0</ele>
        <time>2019-08-04T07:59:22.799Z</time>
      </trkpt>
      <trkpt lat="42.549255" lon="1.541145">
        <ele>1631.0</ele>
        <time>2019-08-04T07:59:23.775Z</time>
      </trkpt>
      <trkpt lat="42.54926" lon="1.54118833">
        <ele>1631.0</ele>
        <time>2019-08-04T07:59:24.792Z</time>
      </trkpt>
      <trkpt lat="42.54926333" lon="1.54123">
        <ele>1631.0</ele>
        <time>2019-08-04T07:59:25.797Z</time>
      </trkpt>
      <trkpt lat="42.54926833" lon="1.54127167">
        <ele>1631.0</ele>
        <time>2019-08-04T07:59:26.766Z</time>
      </trkpt>
      <trkpt lat="42.54926833" lon="1.54127167">
        <ele>1631.0</ele>
        <time>2019-08-04T07:59:27.789Z</time>
      </trkpt>
      <trkpt lat="42.54927333" lon="1.54136167">
        <ele>1631.0</ele>
        <time>2019-08-04T07:59:28.771Z</time>
      </trkpt>
      <trkpt lat="42.54927333" lon="1.54136167">
        <ele>1631.0</ele>
        <time>2019-08-04T07:59:29.795Z</time>
      </trkpt>
      <trkpt lat="42.549275" lon="1.54145">
        <ele>1631.0</ele>
        <time>2019-08-04T07:59:30.804Z</time>
      </trkpt>
      <trkpt lat="42.549275" lon="1.54145">
        <ele>1631.0</ele>
        <time>2019-08-04T07:59:31.782Z</time>
      </trkpt>
      <trkpt lat="42.54928" lon="1.541535">
        <ele>1632.0</ele>
        <time>2019-08-04T07:59:32.802Z</time>
      </trkpt>
      <trkpt lat="42.54928" lon="1.541535">
        <ele>1632.0</ele>
        <time>2019-08-04T07:59:33.783Z</time>
      </trkpt>
      <trkpt lat="42.54928" lon="1.54162">
        <ele>1632.0</ele>
        <time>2019-08-04T07:59:34.802Z</time>
      </trkpt>
      <trkpt lat="42.54927833" lon="1.54166333">
        <ele>1632.0</ele>
        <time>2019-08-04T07:59:35.774Z</time>
      </trkpt>
      <trkpt lat="42.54927833" lon="1.54170667">
        <ele>1632.0</ele>
        <time>2019-08-04T07:59:36.791Z</time>
      </trkpt>
      <trkpt lat="42.54927833" lon="1.54170667">
        <ele>1632.0</ele>
        <time>2019-08-04T07:59:37.781Z</time>
      </trkpt>
      <trkpt lat="42.54927833" lon="1.54178667">
        <ele>1632.0</ele>
        <time>2019-08-04T07:59:38.769Z</time>
      </trkpt>
      <trkpt lat="42.54927833" lon="1.54178667">
        <ele>1632.0</ele>
        <time>2019-08-04T07:59:39.790Z</time>
      </trkpt>
      <trkpt lat="42.54928333" lon="1.54186667">
        <ele>1632.0</ele>
        <time>2019-08-04T07:59:40.793Z</time>
      </trkpt>
      <trkpt lat="42.54928667" lon="1.54190833">
        <ele>1632.0</ele>
        <time>2019-08-04T07:59:41.789Z</time>
      </trkpt>
      <trkpt lat="42.54929167" lon="1.54195">
        <ele>1632.0</ele>
        <time>2019-08-04T07:59:42.786Z</time>
      </trkpt>
      <trkpt lat="42.54929167" lon="1.54195">
        <ele>1632.0</ele>
        <time>2019-08-04T07:59:43.782Z</time>
      </trkpt>
      <trkpt lat="42.54930333" lon="1.54202667">
        <ele>1632.0</ele>
        <time>2019-08-04T07:59:44.803Z</time>
      </trkpt>
      <trkpt lat="42.54930333" lon="1.54202667">
        <ele>1632.0</ele>
        <time>2019-08-04T07:59:45.784Z</time>
      </trkpt>
      <trkpt lat="42.54931167" lon="1.54209833">
        <ele>1633.0</ele>
        <time>2019-08-04T07:59:46.786Z</time>
      </trkpt>
      <trkpt lat="42.549315" lon="1.54213167">
        <ele>1633.0</ele>
        <time>2019-08-04T07:59:47.787Z</time>
      </trkpt>
      <trkpt lat="42.54932" lon="1.54216833">
        <ele>1633.0</ele>
        <time>2019-08-04T07:59:48.778Z</time>
      </trkpt>
      <trkpt lat="42.54932" lon="1.54216833">
        <ele>1633.0</ele>
        <time>2019-08-04T07:59:49.799Z</time>
      </trkpt>
      <trkpt lat="42.54933167" lon="1.54224">
        <ele>1633.0</ele>
        <time>2019-08-04T07:59:50.786Z</time>
      </trkpt>
      <trkpt lat="42.54933167" lon="1.54224">
        <ele>1633.0</ele>
        <time>2019-08-04T07:59:51.784Z</time>
      </trkpt>
      <trkpt lat="42.549345" lon="1.54231333">
        <ele>1633.0</ele>
        <time>2019-08-04T07:59:52.804Z</time>
      </trkpt>
      <trkpt lat="42.549345" lon="1.54231333">
        <ele>1633.0</ele>
        <time>2019-08-04T07:59:53.786Z</time>
      </trkpt>
      <trkpt lat="42.54936" lon="1.54238667">
        <ele>1633.0</ele>
        <time>2019-08-04T07:59:54.788Z</time>
      </trkpt>
      <trkpt lat="42.54936" lon="1.54238667">
        <ele>1633.0</ele>
        <time>2019-08-04T07:59:55.787Z</time>
      </trkpt>
      <trkpt lat="42.54937167" lon="1.54246">
        <ele>1633.0</ele>
        <time>2019-08-04T07:59:56.768Z</time>
      </trkpt>
      <trkpt lat="42.54937167" lon="1.54246">
        <ele>1633.0</ele>
        <time>2019-08-04T07:59:57.789Z</time>
      </trkpt>
      <trkpt lat="42.54938333" lon="1.54253167">
        <ele>1633.0</ele>
        <time>2019-08-04T07:59:58.774Z</time>
      </trkpt>
      <trkpt lat="42.54938333" lon="1.54253167">
        <ele>1633.0</ele>
        <time>2019-08-04T07:59:59.795Z</time>
      </trkpt>
      <trkpt lat="42.549405" lon="1.54260167">
        <ele>1633.0</ele>
        <time>2019-08-04T08:00:00.789Z</time>
      </trkpt>
      <trkpt lat="42.549405" lon="1.54260167">
        <ele>1633.0</ele>
        <time>2019-08-04T08:00:01.775Z</time>
      </trkpt>
      <trkpt lat="42.54941167" lon="1.542675">
        <ele>1633.0</ele>
        <time>2019-08-04T08:00:02.795Z</time>
      </trkpt>
      <trkpt lat="42.54942" lon="1.54270833">
        <ele>1633.0</ele>
        <time>2019-08-04T08:00:03.787Z</time>
      </trkpt>
      <trkpt lat="42.549425" lon="1.542745">
        <ele>1633.0</ele>
        <time>2019-08-04T08:00:04.788Z</time>
      </trkpt>
      <trkpt lat="42.549425" lon="1.542745">
        <ele>1633.0</ele>
        <time>2019-08-04T08:00:05.785Z</time>
      </trkpt>
      <trkpt lat="42.54944333" lon="1.54281667">
        <ele>1633.0</ele>
        <time>2019-08-04T08:00:06.793Z</time>
      </trkpt>
      <trkpt lat="42.54946" lon="1.54285">
        <ele>1633.0</ele>
        <time>2019-08-04T08:00:07.799Z</time>
      </trkpt>
      <trkpt lat="42.54947667" lon="1.54288167">
        <ele>1633.0</ele>
        <time>2019-08-04T08:00:08.803Z</time>
      </trkpt>
      <trkpt lat="42.54947667" lon="1.54288167">
        <ele>1633.0</ele>
        <time>2019-08-04T08:00:09.784Z</time>
      </trkpt>
      <trkpt lat="42.54952" lon="1.54293667">
        <ele>1633.0</ele>
        <time>2019-08-04T08:00:10.786Z</time>
      </trkpt>
      <trkpt lat="42.54952" lon="1.54293667">
        <ele>1633.0</ele>
        <time>2019-08-04T08:00:11.783Z</time>
      </trkpt>
      <trkpt lat="42.54957333" lon="1.54296833">
        <ele>1633.0</ele>
        <time>2019-08-04T08:00:12.804Z</time>
      </trkpt>
      <trkpt lat="42.54957333" lon="1.54296833">
        <ele>1633.0</ele>
        <time>2019-08-04T08:00:13.786Z</time>
      </trkpt>
      <trkpt lat="42.54963167" lon="1.54298167">
        <ele>1634.0</ele>
        <time>2019-08-04T08:00:14.788Z</time>
      </trkpt>
      <trkpt lat="42.54963167" lon="1.54298167">
        <ele>1634.0</ele>
        <time>2019-08-04T08:00:15.782Z</time>
      </trkpt>
      <trkpt lat="42.54968333" lon="1.54297833">
        <ele>1634.0</ele>
        <time>2019-08-04T08:00:16.784Z</time>
      </trkpt>
      <trkpt lat="42.54968333" lon="1.54297833">
        <ele>1634.0</ele>
        <time>2019-08-04T08:00:17.782Z</time>
      </trkpt>
      <trkpt lat="42.54973833" lon="1.54298167">
        <ele>1634.0</ele>
        <time>2019-08-04T08:00:18.777Z</time>
      </trkpt>
      <trkpt lat="42.54973833" lon="1.54298167">
        <ele>1634.0</ele>
        <time>2019-08-04T08:00:19.798Z</time>
      </trkpt>
      <trkpt lat="42.54979" lon="1.54297167">
        <ele>1634.0</ele>
        <time>2019-08-04T08:00:20.789Z</time>
      </trkpt>
      <trkpt lat="42.54979" lon="1.54297167">
        <ele>1634.0</ele>
        <time>2019-08-04T08:00:21.782Z</time>
      </trkpt>
      <trkpt lat="42.54984167" lon="1.542955">
        <ele>1635.0</ele>
        <time>2019-08-04T08:00:22.804Z</time>
      </trkpt>
      <trkpt lat="42.54984167" lon="1.542955">
        <ele>1635.0</ele>
        <time>2019-08-04T08:00:23.785Z</time>
      </trkpt>
      <trkpt lat="42.54989" lon="1.54293833">
        <ele>1635.0</ele>
        <time>2019-08-04T08:00:24.788Z</time>
      </trkpt>
      <trkpt lat="42.54989" lon="1.54293833">
        <ele>1635.0</ele>
        <time>2019-08-04T08:00:25.783Z</time>
      </trkpt>
      <trkpt lat="42.54992833" lon="1.542915">
        <ele>1636.0</ele>
        <time>2019-08-04T08:00:26.799Z</time>
      </trkpt>
      <trkpt lat="42.54994833" lon="1.54292">
        <ele>1635.0</ele>
        <time>2019-08-04T08:00:27.788Z</time>
      </trkpt>
      <trkpt lat="42.54994833" lon="1.54292">
        <ele>1635.0</ele>
        <time>2019-08-04T08:00:28.797Z</time>
      </trkpt>
      <trkpt lat="42.549995" lon="1.54294167">
        <ele>1635.0</ele>
        <time>2019-08-04T08:00:29.787Z</time>
      </trkpt>
      <trkpt lat="42.55001833" lon="1.54296333">
        <ele>1635.0</ele>
        <time>2019-08-04T08:00:30.788Z</time>
      </trkpt>
      <trkpt lat="42.55001833" lon="1.54296333">
        <ele>1635.0</ele>
        <time>2019-08-04T08:00:31.782Z</time>
      </trkpt>
      <trkpt lat="42.550055" lon="1.543015">
        <ele>1635.0</ele>
        <time>2019-08-04T08:00:32.803Z</time>
      </trkpt>
      <trkpt lat="42.550055" lon="1.543015">
        <ele>1635.0</ele>
        <time>2019-08-04T08:00:33.785Z</time>
      </trkpt>
      <trkpt lat="42.55009333" lon="1.54307167">
        <ele>1635.0</ele>
        <time>2019-08-04T08:00:34.804Z</time>
      </trkpt>
      <trkpt lat="42.55009333" lon="1.54307167">
        <ele>1635.0</ele>
        <time>2019-08-04T08:00:35.781Z</time>
      </trkpt>
      <trkpt lat="42.55012833" lon="1.54312333">
        <ele>1636.0</ele>
        <time>2019-08-04T08:00:36.802Z</time>
      </trkpt>
      <trkpt lat="42.55012833" lon="1.54312333">
        <ele>1636.0</ele>
        <time>2019-08-04T08:00:37.784Z</time>
      </trkpt>
      <trkpt lat="42.55016" lon="1.54318333">
        <ele>1636.0</ele>
        <time>2019-08-04T08:00:38.770Z</time>
      </trkpt>
      <trkpt lat="42.55016" lon="1.54318333">
        <ele>1636.0</ele>
        <time>2019-08-04T08:00:39.791Z</time>
      </trkpt>
      <trkpt lat="42.55019833" lon="1.543245">
        <ele>1636.0</ele>
        <time>2019-08-04T08:00:40.787Z</time>
      </trkpt>
      <trkpt lat="42.550215" lon="1.543275">
        <ele>1636.0</ele>
        <time>2019-08-04T08:00:41.784Z</time>
      </trkpt>
      <trkpt lat="42.55023" lon="1.54330667">
        <ele>1636.0</ele>
        <time>2019-08-04T08:00:42.788Z</time>
      </trkpt>
      <trkpt lat="42.55024667" lon="1.54334">
        <ele>1636.0</ele>
        <time>2019-08-04T08:00:43.776Z</time>
      </trkpt>
      <trkpt lat="42.55024667" lon="1.54334">
        <ele>1636.0</ele>
        <time>2019-08-04T08:00:44.796Z</time>
      </trkpt>
      <trkpt lat="42.550275" lon="1.54340167">
        <ele>1637.0</ele>
        <time>2019-08-04T08:00:45.787Z</time>
      </trkpt>
      <trkpt lat="42.550275" lon="1.54340167">
        <ele>1637.0</ele>
        <time>2019-08-04T08:00:46.803Z</time>
      </trkpt>
      <trkpt lat="42.5503" lon="1.543465">
        <ele>1637.0</ele>
        <time>2019-08-04T08:00:47.788Z</time>
      </trkpt>
      <trkpt lat="42.55030833" lon="1.54350167">
        <ele>1637.0</ele>
        <time>2019-08-04T08:00:48.778Z</time>
      </trkpt>
      <trkpt lat="42.55030833" lon="1.54350167">
        <ele>1637.0</ele>
        <time>2019-08-04T08:00:49.798Z</time>
      </trkpt>
      <trkpt lat="42.55032167" lon="1.54358">
        <ele>1637.0</ele>
        <time>2019-08-04T08:00:50.791Z</time>
      </trkpt>
      <trkpt lat="42.55032167" lon="1.54358">
        <ele>1637.0</ele>
        <time>2019-08-04T08:00:51.782Z</time>
      </trkpt>
      <trkpt lat="42.55033167" lon="1.543655">
        <ele>1638.0</ele>
        <time>2019-08-04T08:00:52.802Z</time>
      </trkpt>
      <trkpt lat="42.55033167" lon="1.543655">
        <ele>1638.0</ele>
        <time>2019-08-04T08:00:53.785Z</time>
      </trkpt>
      <trkpt lat="42.55034" lon="1.54373167">
        <ele>1638.0</ele>
        <time>2019-08-04T08:00:54.804Z</time>
      </trkpt>
      <trkpt lat="42.55034" lon="1.54373167">
        <ele>1638.0</ele>
        <time>2019-08-04T08:00:55.786Z</time>
      </trkpt>
      <trkpt lat="42.55034667" lon="1.54381">
        <ele>1639.0</ele>
        <time>2019-08-04T08:00:56.788Z</time>
      </trkpt>
      <trkpt lat="42.55034667" lon="1.54381">
        <ele>1639.0</ele>
        <time>2019-08-04T08:00:57.782Z</time>
      </trkpt>
      <trkpt lat="42.55035333" lon="1.54388833">
        <ele>1639.0</ele>
        <time>2019-08-04T08:00:58.772Z</time>
      </trkpt>
      <trkpt lat="42.55035333" lon="1.54388833">
        <ele>1639.0</ele>
        <time>2019-08-04T08:00:59.787Z</time>
      </trkpt>
      <trkpt lat="42.55036" lon="1.543965">
        <ele>1639.0</ele>
        <time>2019-08-04T08:01:00.788Z</time>
      </trkpt>
      <trkpt lat="42.55036" lon="1.543965">
        <ele>1639.0</ele>
        <time>2019-08-04T08:01:01.782Z</time>
      </trkpt>
      <trkpt lat="42.55036333" lon="1.54403333">
        <ele>1640.0</ele>
        <time>2019-08-04T08:01:02.802Z</time>
      </trkpt>
      <trkpt lat="42.55036333" lon="1.54403333">
        <ele>1640.0</ele>
        <time>2019-08-04T08:01:03.789Z</time>
      </trkpt>
      <trkpt lat="42.55036667" lon="1.54410667">
        <ele>1640.0</ele>
        <time>2019-08-04T08:01:04.798Z</time>
      </trkpt>
      <trkpt lat="42.550365" lon="1.54414667">
        <ele>1641.0</ele>
        <time>2019-08-04T08:01:05.766Z</time>
      </trkpt>
      <trkpt lat="42.550365" lon="1.54414667">
        <ele>1641.0</ele>
        <time>2019-08-04T08:01:06.782Z</time>
      </trkpt>
      <trkpt lat="42.55036167" lon="1.54422333">
        <ele>1641.0</ele>
        <time>2019-08-04T08:01:07.788Z</time>
      </trkpt>
      <trkpt lat="42.55036333" lon="1.54426">
        <ele>1641.0</ele>
        <time>2019-08-04T08:01:08.781Z</time>
      </trkpt>
      <trkpt lat="42.55036333" lon="1.54426">
        <ele>1641.0</ele>
        <time>2019-08-04T08:01:09.797Z</time>
      </trkpt>
      <trkpt lat="42.55036667" lon="1.54433667">
        <ele>1642.0</ele>
        <time>2019-08-04T08:01:10.789Z</time>
      </trkpt>
      <trkpt lat="42.55036667" lon="1.54433667">
        <ele>1642.0</ele>
        <time>2019-08-04T08:01:11.795Z</time>
      </trkpt>
      <trkpt lat="42.550365" lon="1.54440667">
        <ele>1643.0</ele>
        <time>2019-08-04T08:01:12.790Z</time>
      </trkpt>
      <trkpt lat="42.550365" lon="1.54440667">
        <ele>1643.0</ele>
        <time>2019-08-04T08:01:13.780Z</time>
      </trkpt>
      <trkpt lat="42.55037833" lon="1.54448333">
        <ele>1643.0</ele>
        <time>2019-08-04T08:01:14.801Z</time>
      </trkpt>
      <trkpt lat="42.55037833" lon="1.54448333">
        <ele>1643.0</ele>
        <time>2019-08-04T08:01:15.782Z</time>
      </trkpt>
      <trkpt lat="42.55042333" lon="1.54455167">
        <ele>1644.0</ele>
        <time>2019-08-04T08:01:16.802Z</time>
      </trkpt>
      <trkpt lat="42.55042333" lon="1.54455167">
        <ele>1644.0</ele>
        <time>2019-08-04T08:01:17.796Z</time>
      </trkpt>
      <trkpt lat="42.55047" lon="1.54461">
        <ele>1645.0</ele>
        <time>2019-08-04T08:01:18.776Z</time>
      </trkpt>
      <trkpt lat="42.55047" lon="1.54461">
        <ele>1645.0</ele>
        <time>2019-08-04T08:01:19.796Z</time>
      </trkpt>
      <trkpt lat="42.55052667" lon="1.54465833">
        <ele>1645.0</ele>
        <time>2019-08-04T08:01:20.789Z</time>
      </trkpt>
      <trkpt lat="42.55052667" lon="1.54465833">
        <ele>1645.0</ele>
        <time>2019-08-04T08:01:21.783Z</time>
      </trkpt>
      <trkpt lat="42.55058667" lon="1.54469333">
        <ele>1646.0</ele>
        <time>2019-08-04T08:01:22.803Z</time>
      </trkpt>
      <trkpt lat="42.55061667" lon="1.54470167">
        <ele>1646.0</ele>
        <time>2019-08-04T08:01:23.788Z</time>
      </trkpt>
      <trkpt lat="42.55061667" lon="1.54470167">
        <ele>1646.0</ele>
        <time>2019-08-04T08:01:24.783Z</time>
      </trkpt>
      <trkpt lat="42.55067833" lon="1.54471333">
        <ele>1647.0</ele>
        <time>2019-08-04T08:01:25.803Z</time>
      </trkpt>
      <trkpt lat="42.55071" lon="1.54472333">
        <ele>1647.0</ele>
        <time>2019-08-04T08:01:26.790Z</time>
      </trkpt>
      <trkpt lat="42.55071" lon="1.54472333">
        <ele>1647.0</ele>
        <time>2019-08-04T08:01:27.785Z</time>
      </trkpt>
      <trkpt lat="42.55076667" lon="1.54472667">
        <ele>1648.0</ele>
        <time>2019-08-04T08:01:28.775Z</time>
      </trkpt>
      <trkpt lat="42.55076667" lon="1.54472667">
        <ele>1648.0</ele>
        <time>2019-08-04T08:01:29.790Z</time>
      </trkpt>
      <trkpt lat="42.55082167" lon="1.54472667">
        <ele>1649.0</ele>
        <time>2019-08-04T08:01:30.790Z</time>
      </trkpt>
      <trkpt lat="42.55082167" lon="1.54472667">
        <ele>1649.0</ele>
        <time>2019-08-04T08:01:31.782Z</time>
      </trkpt>
      <trkpt lat="42.55087333" lon="1.544715">
        <ele>1649.0</ele>
        <time>2019-08-04T08:01:32.802Z</time>
      </trkpt>
      <trkpt lat="42.55087333" lon="1.544715">
        <ele>1649.0</ele>
        <time>2019-08-04T08:01:33.797Z</time>
      </trkpt>
      <trkpt lat="42.55092667" lon="1.54471833">
        <ele>1650.0</ele>
        <time>2019-08-04T08:01:34.786Z</time>
      </trkpt>
      <trkpt lat="42.55095167" lon="1.54472">
        <ele>1650.0</ele>
        <time>2019-08-04T08:01:35.788Z</time>
      </trkpt>
      <trkpt lat="42.55095167" lon="1.54472">
        <ele>1650.0</ele>
        <time>2019-08-04T08:01:36.783Z</time>
      </trkpt>
      <trkpt lat="42.55100167" lon="1.54472833">
        <ele>1651.0</ele>
        <time>2019-08-04T08:01:37.803Z</time>
      </trkpt>
      <trkpt lat="42.55102833" lon="1.54473667">
        <ele>1651.0</ele>
        <time>2019-08-04T08:01:38.778Z</time>
      </trkpt>
      <trkpt lat="42.55102833" lon="1.54473667">
        <ele>1651.0</ele>
        <time>2019-08-04T08:01:39.803Z</time>
      </trkpt>
      <trkpt lat="42.55107667" lon="1.54475833">
        <ele>1652.0</ele>
        <time>2019-08-04T08:01:40.788Z</time>
      </trkpt>
      <trkpt lat="42.55110333" lon="1.54476833">
        <ele>1652.0</ele>
        <time>2019-08-04T08:01:41.789Z</time>
      </trkpt>
      <trkpt lat="42.55110333" lon="1.54476833">
        <ele>1652.0</ele>
        <time>2019-08-04T08:01:42.784Z</time>
      </trkpt>
      <trkpt lat="42.55115167" lon="1.54479">
        <ele>1653.0</ele>
        <time>2019-08-04T08:01:43.778Z</time>
      </trkpt>
      <trkpt lat="42.55115167" lon="1.54479">
        <ele>1653.0</ele>
        <time>2019-08-04T08:01:44.798Z</time>
      </trkpt>
      <trkpt lat="42.55119833" lon="1.544825">
        <ele>1653.0</ele>
        <time>2019-08-04T08:01:45.788Z</time>
      </trkpt>
      <trkpt lat="42.55119833" lon="1.544825">
        <ele>1653.0</ele>
        <time>2019-08-04T08:01:46.804Z</time>
      </trkpt>
      <trkpt lat="42.55124833" lon="1.54486167">
        <ele>1654.0</ele>
        <time>2019-08-04T08:01:47.789Z</time>
      </trkpt>
      <trkpt lat="42.55127333" lon="1.54488">
        <ele>1654.0</ele>
        <time>2019-08-04T08:01:48.779Z</time>
      </trkpt>
      <trkpt lat="42.55127333" lon="1.54488">
        <ele>1654.0</ele>
        <time>2019-08-04T08:01:49.798Z</time>
      </trkpt>
      <trkpt lat="42.551325" lon="1.54491667">
        <ele>1655.0</ele>
        <time>2019-08-04T08:01:50.790Z</time>
      </trkpt>
      <trkpt lat="42.551325" lon="1.54491667">
        <ele>1655.0</ele>
        <time>2019-08-04T08:01:51.785Z</time>
      </trkpt>
      <trkpt lat="42.55137333" lon="1.54495833">
        <ele>1655.0</ele>
        <time>2019-08-04T08:01:52.789Z</time>
      </trkpt>
      <trkpt lat="42.55137333" lon="1.54495833">
        <ele>1655.0</ele>
        <time>2019-08-04T08:01:53.782Z</time>
      </trkpt>
      <trkpt lat="42.551425" lon="1.54499833">
        <ele>1656.0</ele>
        <time>2019-08-04T08:01:54.801Z</time>
      </trkpt>
      <trkpt lat="42.551425" lon="1.54499833">
        <ele>1656.0</ele>
        <time>2019-08-04T08:01:55.785Z</time>
      </trkpt>
      <trkpt lat="42.55147667" lon="1.545035">
        <ele>1656.0</ele>
        <time>2019-08-04T08:01:56.768Z</time>
      </trkpt>
      <trkpt lat="42.55150167" lon="1.54505167">
        <ele>1657.0</ele>
        <time>2019-08-04T08:01:57.789Z</time>
      </trkpt>
      <trkpt lat="42.55152667" lon="1.545065">
        <ele>1657.0</ele>
        <time>2019-08-04T08:01:58.772Z</time>
      </trkpt>
      <trkpt lat="42.55152667" lon="1.545065">
        <ele>1657.0</ele>
        <time>2019-08-04T08:01:59.788Z</time>
      </trkpt>
      <trkpt lat="42.55157833" lon="1.54510333">
        <ele>1658.0</ele>
        <time>2019-08-04T08:02:00.790Z</time>
      </trkpt>
      <trkpt lat="42.55157833" lon="1.54510333">
        <ele>1658.0</ele>
        <time>2019-08-04T08:02:01.784Z</time>
      </trkpt>
      <trkpt lat="42.55163667" lon="1.54513167">
        <ele>1658.0</ele>
        <time>2019-08-04T08:02:02.804Z</time>
      </trkpt>
      <trkpt lat="42.55163667" lon="1.54513167">
        <ele>1658.0</ele>
        <time>2019-08-04T08:02:03.785Z</time>
      </trkpt>
      <trkpt lat="42.55169167" lon="1.545165">
        <ele>1659.0</ele>
        <time>2019-08-04T08:02:04.765Z</time>
      </trkpt>
      <trkpt lat="42.55169167" lon="1.545165">
        <ele>1659.0</ele>
        <time>2019-08-04T08:02:05.796Z</time>
      </trkpt>
      <trkpt lat="42.55174667" lon="1.54520833">
        <ele>1659.0</ele>
        <time>2019-08-04T08:02:06.765Z</time>
      </trkpt>
      <trkpt lat="42.55174667" lon="1.54520833">
        <ele>1659.0</ele>
        <time>2019-08-04T08:02:07.780Z</time>
      </trkpt>
      <trkpt lat="42.55178667" lon="1.54527333">
        <ele>1660.0</ele>
        <time>2019-08-04T08:02:08.786Z</time>
      </trkpt>
      <trkpt lat="42.5518" lon="1.54531">
        <ele>1660.0</ele>
        <time>2019-08-04T08:02:09.767Z</time>
      </trkpt>
      <trkpt lat="42.5518" lon="1.54531">
        <ele>1660.0</ele>
        <time>2019-08-04T08:02:10.786Z</time>
      </trkpt>
      <trkpt lat="42.55182167" lon="1.54538833">
        <ele>1661.0</ele>
        <time>2019-08-04T08:02:11.788Z</time>
      </trkpt>
      <trkpt lat="42.55183" lon="1.54542667">
        <ele>1661.0</ele>
        <time>2019-08-04T08:02:12.790Z</time>
      </trkpt>
      <trkpt lat="42.55183" lon="1.54542667">
        <ele>1661.0</ele>
        <time>2019-08-04T08:02:13.783Z</time>
      </trkpt>
      <trkpt lat="42.55183833" lon="1.54550167">
        <ele>1661.0</ele>
        <time>2019-08-04T08:02:14.803Z</time>
      </trkpt>
      <trkpt lat="42.55183833" lon="1.54550167">
        <ele>1661.0</ele>
        <time>2019-08-04T08:02:15.786Z</time>
      </trkpt>
      <trkpt lat="42.55185167" lon="1.54558167">
        <ele>1662.0</ele>
        <time>2019-08-04T08:02:16.788Z</time>
      </trkpt>
      <trkpt lat="42.55186" lon="1.54562167">
        <ele>1662.0</ele>
        <time>2019-08-04T08:02:17.789Z</time>
      </trkpt>
      <trkpt lat="42.55187" lon="1.54566167">
        <ele>1662.0</ele>
        <time>2019-08-04T08:02:18.783Z</time>
      </trkpt>
      <trkpt lat="42.55187" lon="1.54566167">
        <ele>1662.0</ele>
        <time>2019-08-04T08:02:19.803Z</time>
      </trkpt>
      <trkpt lat="42.55190167" lon="1.545735">
        <ele>1662.0</ele>
        <time>2019-08-04T08:02:20.790Z</time>
      </trkpt>
      <trkpt lat="42.55190167" lon="1.545735">
        <ele>1662.0</ele>
        <time>2019-08-04T08:02:21.783Z</time>
      </trkpt>
      <trkpt lat="42.55193333" lon="1.54580667">
        <ele>1663.0</ele>
        <time>2019-08-04T08:02:22.801Z</time>
      </trkpt>
      <trkpt lat="42.55193333" lon="1.54580667">
        <ele>1663.0</ele>
        <time>2019-08-04T08:02:23.783Z</time>
      </trkpt>
      <trkpt lat="42.55196833" lon="1.54587667">
        <ele>1663.0</ele>
        <time>2019-08-04T08:02:24.804Z</time>
      </trkpt>
      <trkpt lat="42.55196833" lon="1.54587667">
        <ele>1663.0</ele>
        <time>2019-08-04T08:02:25.786Z</time>
      </trkpt>
      <trkpt lat="42.55199833" lon="1.54594167">
        <ele>1664.0</ele>
        <time>2019-08-04T08:02:26.792Z</time>
      </trkpt>
      <trkpt lat="42.55199833" lon="1.54594167">
        <ele>1664.0</ele>
        <time>2019-08-04T08:02:27.786Z</time>
      </trkpt>
      <trkpt lat="42.55202833" lon="1.54600833">
        <ele>1664.0</ele>
        <time>2019-08-04T08:02:28.774Z</time>
      </trkpt>
      <trkpt lat="42.55202833" lon="1.54600833">
        <ele>1664.0</ele>
        <time>2019-08-04T08:02:29.796Z</time>
      </trkpt>
      <trkpt lat="42.55206833" lon="1.54607167">
        <ele>1665.0</ele>
        <time>2019-08-04T08:02:30.793Z</time>
      </trkpt>
      <trkpt lat="42.55206833" lon="1.54607167">
        <ele>1665.0</ele>
        <time>2019-08-04T08:02:31.787Z</time>
      </trkpt>
      <trkpt lat="42.55210167" lon="1.54613333">
        <ele>1665.0</ele>
        <time>2019-08-04T08:02:32.790Z</time>
      </trkpt>
      <trkpt lat="42.55210167" lon="1.54613333">
        <ele>1665.0</ele>
        <time>2019-08-04T08:02:33.794Z</time>
      </trkpt>
      <trkpt lat="42.55213833" lon="1.54619833">
        <ele>1666.0</ele>
        <time>2019-08-04T08:02:34.787Z</time>
      </trkpt>
      <trkpt lat="42.55213833" lon="1.54619833">
        <ele>1666.0</ele>
        <time>2019-08-04T08:02:35.784Z</time>
      </trkpt>
      <trkpt lat="42.552175" lon="1.54627167">
        <ele>1666.0</ele>
        <time>2019-08-04T08:02:36.804Z</time>
      </trkpt>
      <trkpt lat="42.552175" lon="1.54627167">
        <ele>1666.0</ele>
        <time>2019-08-04T08:02:37.790Z</time>
      </trkpt>
      <trkpt lat="42.55220167" lon="1.54634">
        <ele>1667.0</ele>
        <time>2019-08-04T08:02:38.782Z</time>
      </trkpt>
      <trkpt lat="42.55220167" lon="1.54634">
        <ele>1667.0</ele>
        <time>2019-08-04T08:02:39.804Z</time>
      </trkpt>
      <trkpt lat="42.552225" lon="1.54640833">
        <ele>1667.0</ele>
        <time>2019-08-04T08:02:40.789Z</time>
      </trkpt>
      <trkpt lat="42.552225" lon="1.54640833">
        <ele>1667.0</ele>
        <time>2019-08-04T08:02:41.786Z</time>
      </trkpt>
      <trkpt lat="42.55224833" lon="1.546485">
        <ele>1668.0</ele>
        <time>2019-08-04T08:02:42.790Z</time>
      </trkpt>
      <trkpt lat="42.55224833" lon="1.546485">
        <ele>1668.0</ele>
        <time>2019-08-04T08:02:43.777Z</time>
      </trkpt>
      <trkpt lat="42.55227167" lon="1.54655833">
        <ele>1668.0</ele>
        <time>2019-08-04T08:02:44.793Z</time>
      </trkpt>
      <trkpt lat="42.55227167" lon="1.54655833">
        <ele>1668.0</ele>
        <time>2019-08-04T08:02:45.786Z</time>
      </trkpt>
      <trkpt lat="42.55229333" lon="1.54662667">
        <ele>1668.0</ele>
        <time>2019-08-04T08:02:46.790Z</time>
      </trkpt>
      <trkpt lat="42.55229333" lon="1.54662667">
        <ele>1668.0</ele>
        <time>2019-08-04T08:02:47.786Z</time>
      </trkpt>
      <trkpt lat="42.55231833" lon="1.54670333">
        <ele>1669.0</ele>
        <time>2019-08-04T08:02:48.783Z</time>
      </trkpt>
      <trkpt lat="42.55231833" lon="1.54670333">
        <ele>1669.0</ele>
        <time>2019-08-04T08:02:49.803Z</time>
      </trkpt>
      <trkpt lat="42.55234667" lon="1.54677333">
        <ele>1669.0</ele>
        <time>2019-08-04T08:02:50.791Z</time>
      </trkpt>
      <trkpt lat="42.55234667" lon="1.54677333">
        <ele>1669.0</ele>
        <time>2019-08-04T08:02:51.787Z</time>
      </trkpt>
      <trkpt lat="42.55236833" lon="1.54684833">
        <ele>1669.0</ele>
        <time>2019-08-04T08:02:52.789Z</time>
      </trkpt>
      <trkpt lat="42.55236833" lon="1.54684833">
        <ele>1669.0</ele>
        <time>2019-08-04T08:02:53.786Z</time>
      </trkpt>
      <trkpt lat="42.55239167" lon="1.54691833">
        <ele>1669.0</ele>
        <time>2019-08-04T08:02:54.767Z</time>
      </trkpt>
      <trkpt lat="42.55239167" lon="1.54691833">
        <ele>1669.0</ele>
        <time>2019-08-04T08:02:55.789Z</time>
      </trkpt>
      <trkpt lat="42.55241167" lon="1.54699833">
        <ele>1670.0</ele>
        <time>2019-08-04T08:02:56.791Z</time>
      </trkpt>
      <trkpt lat="42.55241167" lon="1.54699833">
        <ele>1670.0</ele>
        <time>2019-08-04T08:02:57.787Z</time>
      </trkpt>
      <trkpt lat="42.552425" lon="1.54707167">
        <ele>1670.0</ele>
        <time>2019-08-04T08:02:58.794Z</time>
      </trkpt>
      <trkpt lat="42.55243333" lon="1.54710667">
        <ele>1670.0</ele>
        <time>2019-08-04T08:02:59.791Z</time>
      </trkpt>
      <trkpt lat="42.55243333" lon="1.54710667">
        <ele>1670.0</ele>
        <time>2019-08-04T08:03:00.788Z</time>
      </trkpt>
      <trkpt lat="42.552465" lon="1.54717667">
        <ele>1671.0</ele>
        <time>2019-08-04T08:03:01.790Z</time>
      </trkpt>
      <trkpt lat="42.552485" lon="1.54721167">
        <ele>1671.0</ele>
        <time>2019-08-04T08:03:02.790Z</time>
      </trkpt>
      <trkpt lat="42.552485" lon="1.54721167">
        <ele>1671.0</ele>
        <time>2019-08-04T08:03:03.784Z</time>
      </trkpt>
      <trkpt lat="42.55252167" lon="1.547275">
        <ele>1671.0</ele>
        <time>2019-08-04T08:03:04.804Z</time>
      </trkpt>
      <trkpt lat="42.55254333" lon="1.54730667">
        <ele>1672.0</ele>
        <time>2019-08-04T08:03:05.796Z</time>
      </trkpt>
      <trkpt lat="42.55254333" lon="1.54730667">
        <ele>1672.0</ele>
        <time>2019-08-04T08:03:06.766Z</time>
      </trkpt>
      <trkpt lat="42.552575" lon="1.54735333">
        <ele>1672.0</ele>
        <time>2019-08-04T08:03:07.772Z</time>
      </trkpt>
      <trkpt lat="42.552595" lon="1.54738">
        <ele>1672.0</ele>
        <time>2019-08-04T08:03:08.782Z</time>
      </trkpt>
      <trkpt lat="42.552595" lon="1.54738">
        <ele>1672.0</ele>
        <time>2019-08-04T08:03:09.770Z</time>
      </trkpt>
      <trkpt lat="42.55263333" lon="1.54742667">
        <ele>1673.0</ele>
        <time>2019-08-04T08:03:10.791Z</time>
      </trkpt>
      <trkpt lat="42.55263333" lon="1.54742667">
        <ele>1673.0</ele>
        <time>2019-08-04T08:03:11.787Z</time>
      </trkpt>
      <trkpt lat="42.55267167" lon="1.54748333">
        <ele>1673.0</ele>
        <time>2019-08-04T08:03:12.767Z</time>
      </trkpt>
      <trkpt lat="42.55269167" lon="1.54750833">
        <ele>1673.0</ele>
        <time>2019-08-04T08:03:13.791Z</time>
      </trkpt>
      <trkpt lat="42.55269167" lon="1.54750833">
        <ele>1673.0</ele>
        <time>2019-08-04T08:03:14.788Z</time>
      </trkpt>
      <trkpt lat="42.55272833" lon="1.54756333">
        <ele>1674.0</ele>
        <time>2019-08-04T08:03:15.787Z</time>
      </trkpt>
      <trkpt lat="42.55272833" lon="1.54756333">
        <ele>1674.0</ele>
        <time>2019-08-04T08:03:16.803Z</time>
      </trkpt>
      <trkpt lat="42.55276333" lon="1.54762333">
        <ele>1674.0</ele>
        <time>2019-08-04T08:03:17.790Z</time>
      </trkpt>
      <trkpt lat="42.552785" lon="1.54765167">
        <ele>1674.0</ele>
        <time>2019-08-04T08:03:18.775Z</time>
      </trkpt>
      <trkpt lat="42.552785" lon="1.54765167">
        <ele>1674.0</ele>
        <time>2019-08-04T08:03:19.791Z</time>
      </trkpt>
      <trkpt lat="42.55282667" lon="1.54770667">
        <ele>1674.0</ele>
        <time>2019-08-04T08:03:20.777Z</time>
      </trkpt>
      <trkpt lat="42.55282667" lon="1.54770667">
        <ele>1674.0</ele>
        <time>2019-08-04T08:03:21.798Z</time>
      </trkpt>
      <trkpt lat="42.55287333" lon="1.54776333">
        <ele>1674.0</ele>
        <time>2019-08-04T08:03:22.787Z</time>
      </trkpt>
      <trkpt lat="42.55289167" lon="1.54779167">
        <ele>1674.0</ele>
        <time>2019-08-04T08:03:23.790Z</time>
      </trkpt>
      <trkpt lat="42.55291" lon="1.54781333">
        <ele>1674.0</ele>
        <time>2019-08-04T08:03:24.791Z</time>
      </trkpt>
      <trkpt lat="42.55291" lon="1.54781333">
        <ele>1674.0</ele>
        <time>2019-08-04T08:03:25.804Z</time>
      </trkpt>
      <trkpt lat="42.55294667" lon="1.54784833">
        <ele>1675.0</ele>
        <time>2019-08-04T08:03:26.791Z</time>
      </trkpt>
      <trkpt lat="42.55294667" lon="1.54784833">
        <ele>1675.0</ele>
        <time>2019-08-04T08:03:27.788Z</time>
      </trkpt>
      <trkpt lat="42.553005" lon="1.54788">
        <ele>1675.0</ele>
        <time>2019-08-04T08:03:28.777Z</time>
      </trkpt>
      <trkpt lat="42.553005" lon="1.54788">
        <ele>1675.0</ele>
        <time>2019-08-04T08:03:29.797Z</time>
      </trkpt>
      <trkpt lat="42.55305667" lon="1.54792667">
        <ele>1676.0</ele>
        <time>2019-08-04T08:03:30.791Z</time>
      </trkpt>
      <trkpt lat="42.55305667" lon="1.54792667">
        <ele>1676.0</ele>
        <time>2019-08-04T08:03:31.782Z</time>
      </trkpt>
      <trkpt lat="42.55311833" lon="1.547965">
        <ele>1676.0</ele>
        <time>2019-08-04T08:03:32.802Z</time>
      </trkpt>
      <trkpt lat="42.55311833" lon="1.547965">
        <ele>1676.0</ele>
        <time>2019-08-04T08:03:33.786Z</time>
      </trkpt>
      <trkpt lat="42.553165" lon="1.54801">
        <ele>1676.0</ele>
        <time>2019-08-04T08:03:34.765Z</time>
      </trkpt>
      <trkpt lat="42.55318833" lon="1.548035">
        <ele>1677.0</ele>
        <time>2019-08-04T08:03:35.787Z</time>
      </trkpt>
      <trkpt lat="42.553215" lon="1.54806333">
        <ele>1677.0</ele>
        <time>2019-08-04T08:03:36.792Z</time>
      </trkpt>
      <trkpt lat="42.553215" lon="1.54806333">
        <ele>1677.0</ele>
        <time>2019-08-04T08:03:37.787Z</time>
      </trkpt>
      <trkpt lat="42.553265" lon="1.54811333">
        <ele>1677.0</ele>
        <time>2019-08-04T08:03:38.779Z</time>
      </trkpt>
      <trkpt lat="42.553265" lon="1.54811333">
        <ele>1677.0</ele>
        <time>2019-08-04T08:03:39.798Z</time>
      </trkpt>
      <trkpt lat="42.55330667" lon="1.54817167">
        <ele>1677.0</ele>
        <time>2019-08-04T08:03:40.787Z</time>
      </trkpt>
      <trkpt lat="42.55330667" lon="1.54817167">
        <ele>1677.0</ele>
        <time>2019-08-04T08:03:41.787Z</time>
      </trkpt>
      <trkpt lat="42.553345" lon="1.54823167">
        <ele>1678.0</ele>
        <time>2019-08-04T08:03:42.792Z</time>
      </trkpt>
      <trkpt lat="42.553345" lon="1.54823167">
        <ele>1678.0</ele>
        <time>2019-08-04T08:03:43.802Z</time>
      </trkpt>
      <trkpt lat="42.55338" lon="1.54829333">
        <ele>1679.0</ele>
        <time>2019-08-04T08:03:44.791Z</time>
      </trkpt>
      <trkpt lat="42.55339833" lon="1.54832333">
        <ele>1679.0</ele>
        <time>2019-08-04T08:03:45.792Z</time>
      </trkpt>
      <trkpt lat="42.55339833" lon="1.54832333">
        <ele>1679.0</ele>
        <time>2019-08-04T08:03:46.784Z</time>
      </trkpt>
      <trkpt lat="42.55343833" lon="1.54838333">
        <ele>1680.0</ele>
        <time>2019-08-04T08:03:47.772Z</time>
      </trkpt>
      <trkpt lat="42.553455" lon="1.548415">
        <ele>1680.0</ele>
        <time>2019-08-04T08:03:48.775Z</time>
      </trkpt>
      <trkpt lat="42.553455" lon="1.548415">
        <ele>1680.0</ele>
        <time>2019-08-04T08:03:49.771Z</time>
      </trkpt>
      <trkpt lat="42.55348" lon="1.54849">
        <ele>1681.0</ele>
        <time>2019-08-04T08:03:50.791Z</time>
      </trkpt>
      <trkpt lat="42.55348" lon="1.54849">
        <ele>1681.0</ele>
        <time>2019-08-04T08:03:51.784Z</time>
      </trkpt>
      <trkpt lat="42.553505" lon="1.548565">
        <ele>1681.0</ele>
        <time>2019-08-04T08:03:52.766Z</time>
      </trkpt>
      <trkpt lat="42.553505" lon="1.548565">
        <ele>1681.0</ele>
        <time>2019-08-04T08:03:53.788Z</time>
      </trkpt>
      <trkpt lat="42.55352167" lon="1.54864167">
        <ele>1682.0</ele>
        <time>2019-08-04T08:03:54.800Z</time>
      </trkpt>
      <trkpt lat="42.55352167" lon="1.54864167">
        <ele>1682.0</ele>
        <time>2019-08-04T08:03:55.786Z</time>
      </trkpt>
      <trkpt lat="42.55353333" lon="1.548715">
        <ele>1682.0</ele>
        <time>2019-08-04T08:03:56.791Z</time>
      </trkpt>
      <trkpt lat="42.55353333" lon="1.548715">
        <ele>1682.0</ele>
        <time>2019-08-04T08:03:57.799Z</time>
      </trkpt>
      <trkpt lat="42.55354667" lon="1.54879667">
        <ele>1683.0</ele>
        <time>2019-08-04T08:03:58.772Z</time>
      </trkpt>
      <trkpt lat="42.55354667" lon="1.54879667">
        <ele>1683.0</ele>
        <time>2019-08-04T08:03:59.793Z</time>
      </trkpt>
      <trkpt lat="42.55356667" lon="1.54887667">
        <ele>1683.0</ele>
        <time>2019-08-04T08:04:00.791Z</time>
      </trkpt>
      <trkpt lat="42.55356667" lon="1.54887667">
        <ele>1683.0</ele>
        <time>2019-08-04T08:04:01.787Z</time>
      </trkpt>
      <trkpt lat="42.55358833" lon="1.54895167">
        <ele>1683.0</ele>
        <time>2019-08-04T08:04:02.791Z</time>
      </trkpt>
      <trkpt lat="42.55358833" lon="1.54895167">
        <ele>1683.0</ele>
        <time>2019-08-04T08:04:03.786Z</time>
      </trkpt>
      <trkpt lat="42.55361167" lon="1.54902333">
        <ele>1683.0</ele>
        <time>2019-08-04T08:04:04.767Z</time>
      </trkpt>
      <trkpt lat="42.55362667" lon="1.54905667">
        <ele>1683.0</ele>
        <time>2019-08-04T08:04:05.796Z</time>
      </trkpt>
      <trkpt lat="42.55362667" lon="1.54905667">
        <ele>1683.0</ele>
        <time>2019-08-04T08:04:06.766Z</time>
      </trkpt>
      <trkpt lat="42.553655" lon="1.54912167">
        <ele>1684.0</ele>
        <time>2019-08-04T08:04:07.780Z</time>
      </trkpt>
      <trkpt lat="42.55367" lon="1.54915167">
        <ele>1684.0</ele>
        <time>2019-08-04T08:04:08.776Z</time>
      </trkpt>
      <trkpt lat="42.55367" lon="1.54915167">
        <ele>1684.0</ele>
        <time>2019-08-04T08:04:09.798Z</time>
      </trkpt>
      <trkpt lat="42.55370333" lon="1.54921167">
        <ele>1684.0</ele>
        <time>2019-08-04T08:04:10.791Z</time>
      </trkpt>
      <trkpt lat="42.55370333" lon="1.54921167">
        <ele>1684.0</ele>
        <time>2019-08-04T08:04:11.787Z</time>
      </trkpt>
      <trkpt lat="42.55375" lon="1.549275">
        <ele>1684.0</ele>
        <time>2019-08-04T08:04:12.767Z</time>
      </trkpt>
      <trkpt lat="42.55375" lon="1.549275">
        <ele>1684.0</ele>
        <time>2019-08-04T08:04:13.798Z</time>
      </trkpt>
      <trkpt lat="42.55379667" lon="1.549335">
        <ele>1684.0</ele>
        <time>2019-08-04T08:04:14.787Z</time>
      </trkpt>
      <trkpt lat="42.55379667" lon="1.549335">
        <ele>1684.0</ele>
        <time>2019-08-04T08:04:15.787Z</time>
      </trkpt>
      <trkpt lat="42.55383833" lon="1.54939667">
        <ele>1685.0</ele>
        <time>2019-08-04T08:04:16.788Z</time>
      </trkpt>
      <trkpt lat="42.55383833" lon="1.54939667">
        <ele>1685.0</ele>
        <time>2019-08-04T08:04:17.786Z</time>
      </trkpt>
      <trkpt lat="42.55387" lon="1.54945667">
        <ele>1685.0</ele>
        <time>2019-08-04T08:04:18.780Z</time>
      </trkpt>
      <trkpt lat="42.55387" lon="1.54945667">
        <ele>1685.0</ele>
        <time>2019-08-04T08:04:19.804Z</time>
      </trkpt>
      <trkpt lat="42.5539" lon="1.54952833">
        <ele>1686.0</ele>
        <time>2019-08-04T08:04:20.789Z</time>
      </trkpt>
      <trkpt lat="42.5539" lon="1.54952833">
        <ele>1686.0</ele>
        <time>2019-08-04T08:04:21.784Z</time>
      </trkpt>
      <trkpt lat="42.55392" lon="1.54960167">
        <ele>1686.0</ele>
        <time>2019-08-04T08:04:22.804Z</time>
      </trkpt>
      <trkpt lat="42.55392" lon="1.54960167">
        <ele>1686.0</ele>
        <time>2019-08-04T08:04:23.797Z</time>
      </trkpt>
      <trkpt lat="42.55393" lon="1.54967833">
        <ele>1686.0</ele>
        <time>2019-08-04T08:04:24.793Z</time>
      </trkpt>
      <trkpt lat="42.55393" lon="1.54967833">
        <ele>1686.0</ele>
        <time>2019-08-04T08:04:25.787Z</time>
      </trkpt>
      <trkpt lat="42.55395" lon="1.54975667">
        <ele>1687.0</ele>
        <time>2019-08-04T08:04:26.790Z</time>
      </trkpt>
      <trkpt lat="42.55395" lon="1.54975667">
        <ele>1687.0</ele>
        <time>2019-08-04T08:04:27.788Z</time>
      </trkpt>
      <trkpt lat="42.55396833" lon="1.54983333">
        <ele>1687.0</ele>
        <time>2019-08-04T08:04:28.776Z</time>
      </trkpt>
      <trkpt lat="42.55397667" lon="1.54987">
        <ele>1687.0</ele>
        <time>2019-08-04T08:04:29.799Z</time>
      </trkpt>
      <trkpt lat="42.55397667" lon="1.54987">
        <ele>1687.0</ele>
        <time>2019-08-04T08:04:30.789Z</time>
      </trkpt>
      <trkpt lat="42.55399" lon="1.54994333">
        <ele>1688.0</ele>
        <time>2019-08-04T08:04:31.790Z</time>
      </trkpt>
      <trkpt lat="42.553995" lon="1.54997667">
        <ele>1688.0</ele>
        <time>2019-08-04T08:04:32.798Z</time>
      </trkpt>
      <trkpt lat="42.553995" lon="1.54997667">
        <ele>1688.0</ele>
        <time>2019-08-04T08:04:33.788Z</time>
      </trkpt>
      <trkpt lat="42.55400667" lon="1.55004">
        <ele>1688.0</ele>
        <time>2019-08-04T08:04:34.789Z</time>
      </trkpt>
      <trkpt lat="42.554015" lon="1.55007667">
        <ele>1688.0</ele>
        <time>2019-08-04T08:04:35.790Z</time>
      </trkpt>
      <trkpt lat="42.55402167" lon="1.550115">
        <ele>1689.0</ele>
        <time>2019-08-04T08:04:36.794Z</time>
      </trkpt>
      <trkpt lat="42.55402167" lon="1.550115">
        <ele>1689.0</ele>
        <time>2019-08-04T08:04:37.785Z</time>
      </trkpt>
      <trkpt lat="42.554035" lon="1.55019">
        <ele>1689.0</ele>
        <time>2019-08-04T08:04:38.783Z</time>
      </trkpt>
      <trkpt lat="42.554035" lon="1.55019">
        <ele>1689.0</ele>
        <time>2019-08-04T08:04:39.804Z</time>
      </trkpt>
      <trkpt lat="42.55404667" lon="1.55027">
        <ele>1690.0</ele>
        <time>2019-08-04T08:04:40.789Z</time>
      </trkpt>
      <trkpt lat="42.55404667" lon="1.55027">
        <ele>1690.0</ele>
        <time>2019-08-04T08:04:41.785Z</time>
      </trkpt>
      <trkpt lat="42.554055" lon="1.55034333">
        <ele>1690.0</ele>
        <time>2019-08-04T08:04:42.791Z</time>
      </trkpt>
      <trkpt lat="42.554055" lon="1.55034333">
        <ele>1690.0</ele>
        <time>2019-08-04T08:04:43.797Z</time>
      </trkpt>
      <trkpt lat="42.55407833" lon="1.55042833">
        <ele>1691.0</ele>
        <time>2019-08-04T08:04:44.791Z</time>
      </trkpt>
      <trkpt lat="42.55407833" lon="1.55042833">
        <ele>1691.0</ele>
        <time>2019-08-04T08:04:45.787Z</time>
      </trkpt>
      <trkpt lat="42.5541" lon="1.55050333">
        <ele>1691.0</ele>
        <time>2019-08-04T08:04:46.791Z</time>
      </trkpt>
      <trkpt lat="42.55411333" lon="1.55053667">
        <ele>1691.0</ele>
        <time>2019-08-04T08:04:47.789Z</time>
      </trkpt>
      <trkpt lat="42.55413" lon="1.55057">
        <ele>1691.0</ele>
        <time>2019-08-04T08:04:48.774Z</time>
      </trkpt>
      <trkpt lat="42.55413" lon="1.55057">
        <ele>1691.0</ele>
        <time>2019-08-04T08:04:49.772Z</time>
      </trkpt>
      <trkpt lat="42.55416333" lon="1.55064">
        <ele>1692.0</ele>
        <time>2019-08-04T08:04:50.793Z</time>
      </trkpt>
      <trkpt lat="42.55416333" lon="1.55064">
        <ele>1692.0</ele>
        <time>2019-08-04T08:04:51.786Z</time>
      </trkpt>
      <trkpt lat="42.55420167" lon="1.55071167">
        <ele>1692.0</ele>
        <time>2019-08-04T08:04:52.769Z</time>
      </trkpt>
      <trkpt lat="42.55420167" lon="1.55071167">
        <ele>1692.0</ele>
        <time>2019-08-04T08:04:53.799Z</time>
      </trkpt>
      <trkpt lat="42.55423667" lon="1.55078333">
        <ele>1693.0</ele>
        <time>2019-08-04T08:04:54.791Z</time>
      </trkpt>
      <trkpt lat="42.55423667" lon="1.55078333">
        <ele>1693.0</ele>
        <time>2019-08-04T08:04:55.787Z</time>
      </trkpt>
      <trkpt lat="42.55427" lon="1.55085333">
        <ele>1693.0</ele>
        <time>2019-08-04T08:04:56.787Z</time>
      </trkpt>
      <trkpt lat="42.55427" lon="1.55085333">
        <ele>1693.0</ele>
        <time>2019-08-04T08:04:57.784Z</time>
      </trkpt>
      <trkpt lat="42.554305" lon="1.55092">
        <ele>1694.0</ele>
        <time>2019-08-04T08:04:58.780Z</time>
      </trkpt>
      <trkpt lat="42.55432333" lon="1.55095333">
        <ele>1694.0</ele>
        <time>2019-08-04T08:04:59.803Z</time>
      </trkpt>
      <trkpt lat="42.55434" lon="1.55098667">
        <ele>1694.0</ele>
        <time>2019-08-04T08:05:00.792Z</time>
      </trkpt>
      <trkpt lat="42.55434" lon="1.55098667">
        <ele>1694.0</ele>
        <time>2019-08-04T08:05:01.787Z</time>
      </trkpt>
      <trkpt lat="42.554375" lon="1.55104667">
        <ele>1695.0</ele>
        <time>2019-08-04T08:05:02.791Z</time>
      </trkpt>
      <trkpt lat="42.554375" lon="1.55104667">
        <ele>1695.0</ele>
        <time>2019-08-04T08:05:03.788Z</time>
      </trkpt>
      <trkpt lat="42.55440833" lon="1.55111167">
        <ele>1696.0</ele>
        <time>2019-08-04T08:05:04.789Z</time>
      </trkpt>
      <trkpt lat="42.55440833" lon="1.55111167">
        <ele>1696.0</ele>
        <time>2019-08-04T08:05:05.798Z</time>
      </trkpt>
      <trkpt lat="42.554445" lon="1.55117333">
        <ele>1696.0</ele>
        <time>2019-08-04T08:05:06.768Z</time>
      </trkpt>
      <trkpt lat="42.554445" lon="1.55117333">
        <ele>1696.0</ele>
        <time>2019-08-04T08:05:07.777Z</time>
      </trkpt>
      <trkpt lat="42.55448167" lon="1.55124167">
        <ele>1697.0</ele>
        <time>2019-08-04T08:05:08.776Z</time>
      </trkpt>
      <trkpt lat="42.55448167" lon="1.55124167">
        <ele>1697.0</ele>
        <time>2019-08-04T08:05:09.791Z</time>
      </trkpt>
      <trkpt lat="42.55451667" lon="1.55130167">
        <ele>1698.0</ele>
        <time>2019-08-04T08:05:10.787Z</time>
      </trkpt>
      <trkpt lat="42.55453333" lon="1.55133167">
        <ele>1698.0</ele>
        <time>2019-08-04T08:05:11.770Z</time>
      </trkpt>
      <trkpt lat="42.55453333" lon="1.55133167">
        <ele>1698.0</ele>
        <time>2019-08-04T08:05:12.791Z</time>
      </trkpt>
      <trkpt lat="42.55456333" lon="1.55138667">
        <ele>1698.0</ele>
        <time>2019-08-04T08:05:13.794Z</time>
      </trkpt>
      <trkpt lat="42.55457667" lon="1.551415">
        <ele>1698.0</ele>
        <time>2019-08-04T08:05:14.791Z</time>
      </trkpt>
      <trkpt lat="42.55457667" lon="1.551415">
        <ele>1698.0</ele>
        <time>2019-08-04T08:05:15.784Z</time>
      </trkpt>
      <trkpt lat="42.55460833" lon="1.55147167">
        <ele>1699.0</ele>
        <time>2019-08-04T08:05:16.804Z</time>
      </trkpt>
      <trkpt lat="42.55460833" lon="1.55147167">
        <ele>1699.0</ele>
        <time>2019-08-04T08:05:17.788Z</time>
      </trkpt>
      <trkpt lat="42.55464" lon="1.55153333">
        <ele>1699.0</ele>
        <time>2019-08-04T08:05:18.775Z</time>
      </trkpt>
      <trkpt lat="42.55464" lon="1.55153333">
        <ele>1699.0</ele>
        <time>2019-08-04T08:05:19.793Z</time>
      </trkpt>
      <trkpt lat="42.554675" lon="1.551595">
        <ele>1700.0</ele>
        <time>2019-08-04T08:05:20.790Z</time>
      </trkpt>
      <trkpt lat="42.554675" lon="1.551595">
        <ele>1700.0</ele>
        <time>2019-08-04T08:05:21.787Z</time>
      </trkpt>
      <trkpt lat="42.55469833" lon="1.55164833">
        <ele>1700.0</ele>
        <time>2019-08-04T08:05:22.789Z</time>
      </trkpt>
      <trkpt lat="42.55469833" lon="1.55164833">
        <ele>1700.0</ele>
        <time>2019-08-04T08:05:23.787Z</time>
      </trkpt>
      <trkpt lat="42.55472833" lon="1.55170167">
        <ele>1701.0</ele>
        <time>2019-08-04T08:05:24.767Z</time>
      </trkpt>
      <trkpt lat="42.55472833" lon="1.55170167">
        <ele>1701.0</ele>
        <time>2019-08-04T08:05:25.789Z</time>
      </trkpt>
      <trkpt lat="42.55476167" lon="1.55175833">
        <ele>1701.0</ele>
        <time>2019-08-04T08:05:26.790Z</time>
      </trkpt>
      <trkpt lat="42.55476167" lon="1.55175833">
        <ele>1701.0</ele>
        <time>2019-08-04T08:05:27.787Z</time>
      </trkpt>
      <trkpt lat="42.55479833" lon="1.55181167">
        <ele>1702.0</ele>
        <time>2019-08-04T08:05:28.793Z</time>
      </trkpt>
      <trkpt lat="42.55481833" lon="1.55184">
        <ele>1702.0</ele>
        <time>2019-08-04T08:05:29.790Z</time>
      </trkpt>
      <trkpt lat="42.55483833" lon="1.55187">
        <ele>1703.0</ele>
        <time>2019-08-04T08:05:30.791Z</time>
      </trkpt>
      <trkpt lat="42.55483833" lon="1.55187">
        <ele>1703.0</ele>
        <time>2019-08-04T08:05:31.787Z</time>
      </trkpt>
      <trkpt lat="42.55486667" lon="1.55192333">
        <ele>1703.0</ele>
        <time>2019-08-04T08:05:32.787Z</time>
      </trkpt>
      <trkpt lat="42.55486667" lon="1.55192333">
        <ele>1703.0</ele>
        <time>2019-08-04T08:05:33.783Z</time>
      </trkpt>
      <trkpt lat="42.55489333" lon="1.551995">
        <ele>1704.0</ele>
        <time>2019-08-04T08:05:34.804Z</time>
      </trkpt>
      <trkpt lat="42.55489333" lon="1.551995">
        <ele>1704.0</ele>
        <time>2019-08-04T08:05:35.787Z</time>
      </trkpt>
      <trkpt lat="42.55491833" lon="1.55206">
        <ele>1704.0</ele>
        <time>2019-08-04T08:05:36.767Z</time>
      </trkpt>
      <trkpt lat="42.55491833" lon="1.55206">
        <ele>1704.0</ele>
        <time>2019-08-04T08:05:37.787Z</time>
      </trkpt>
      <trkpt lat="42.55494333" lon="1.552125">
        <ele>1705.0</ele>
        <time>2019-08-04T08:05:38.771Z</time>
      </trkpt>
      <trkpt lat="42.55494333" lon="1.552125">
        <ele>1705.0</ele>
        <time>2019-08-04T08:05:39.791Z</time>
      </trkpt>
      <trkpt lat="42.554965" lon="1.55219167">
        <ele>1705.0</ele>
        <time>2019-08-04T08:05:40.791Z</time>
      </trkpt>
      <trkpt lat="42.554965" lon="1.55219167">
        <ele>1705.0</ele>
        <time>2019-08-04T08:05:41.788Z</time>
      </trkpt>
      <trkpt lat="42.55498667" lon="1.552265">
        <ele>1705.0</ele>
        <time>2019-08-04T08:05:42.792Z</time>
      </trkpt>
      <trkpt lat="42.55498667" lon="1.552265">
        <ele>1705.0</ele>
        <time>2019-08-04T08:05:43.791Z</time>
      </trkpt>
      <trkpt lat="42.55501667" lon="1.55233833">
        <ele>1706.0</ele>
        <time>2019-08-04T08:05:44.791Z</time>
      </trkpt>
      <trkpt lat="42.55501667" lon="1.55233833">
        <ele>1706.0</ele>
        <time>2019-08-04T08:05:45.788Z</time>
      </trkpt>
      <trkpt lat="42.555025" lon="1.55240333">
        <ele>1707.0</ele>
        <time>2019-08-04T08:05:46.770Z</time>
      </trkpt>
      <trkpt lat="42.555025" lon="1.55240333">
        <ele>1707.0</ele>
        <time>2019-08-04T08:05:47.791Z</time>
      </trkpt>
      <trkpt lat="42.555035" lon="1.55246833">
        <ele>1708.0</ele>
        <time>2019-08-04T08:05:48.776Z</time>
      </trkpt>
      <trkpt lat="42.555035" lon="1.55246833">
        <ele>1708.0</ele>
        <time>2019-08-04T08:05:49.765Z</time>
      </trkpt>
      <trkpt lat="42.55504833" lon="1.55254167">
        <ele>1708.0</ele>
        <time>2019-08-04T08:05:50.791Z</time>
      </trkpt>
      <trkpt lat="42.55504833" lon="1.55254167">
        <ele>1708.0</ele>
        <time>2019-08-04T08:05:51.787Z</time>
      </trkpt>
      <trkpt lat="42.55505833" lon="1.55262167">
        <ele>1709.0</ele>
        <time>2019-08-04T08:05:52.771Z</time>
      </trkpt>
      <trkpt lat="42.55505833" lon="1.55262167">
        <ele>1709.0</ele>
        <time>2019-08-04T08:05:53.765Z</time>
      </trkpt>
      <trkpt lat="42.55505" lon="1.55270167">
        <ele>1710.0</ele>
        <time>2019-08-04T08:05:54.793Z</time>
      </trkpt>
      <trkpt lat="42.55505" lon="1.55270167">
        <ele>1710.0</ele>
        <time>2019-08-04T08:05:55.788Z</time>
      </trkpt>
      <trkpt lat="42.55504833" lon="1.55277167">
        <ele>1711.0</ele>
        <time>2019-08-04T08:05:56.792Z</time>
      </trkpt>
      <trkpt lat="42.55504833" lon="1.55277167">
        <ele>1711.0</ele>
        <time>2019-08-04T08:05:57.788Z</time>
      </trkpt>
      <trkpt lat="42.55503333" lon="1.55284667">
        <ele>1712.0</ele>
        <time>2019-08-04T08:05:58.769Z</time>
      </trkpt>
      <trkpt lat="42.55503333" lon="1.55284667">
        <ele>1712.0</ele>
        <time>2019-08-04T08:05:59.792Z</time>
      </trkpt>
      <trkpt lat="42.55501833" lon="1.55292">
        <ele>1713.0</ele>
        <time>2019-08-04T08:06:00.792Z</time>
      </trkpt>
      <trkpt lat="42.55501833" lon="1.55292">
        <ele>1713.0</ele>
        <time>2019-08-04T08:06:01.785Z</time>
      </trkpt>
      <trkpt lat="42.55499" lon="1.55299833">
        <ele>1714.0</ele>
        <time>2019-08-04T08:06:02.790Z</time>
      </trkpt>
      <trkpt lat="42.55499" lon="1.55299833">
        <ele>1714.0</ele>
        <time>2019-08-04T08:06:03.784Z</time>
      </trkpt>
      <trkpt lat="42.55497167" lon="1.553075">
        <ele>1714.0</ele>
        <time>2019-08-04T08:06:04.804Z</time>
      </trkpt>
      <trkpt lat="42.55497167" lon="1.553075">
        <ele>1714.0</ele>
        <time>2019-08-04T08:06:05.765Z</time>
      </trkpt>
      <trkpt lat="42.55495667" lon="1.55315667">
        <ele>1715.0</ele>
        <time>2019-08-04T08:06:06.787Z</time>
      </trkpt>
      <trkpt lat="42.55495667" lon="1.55315667">
        <ele>1715.0</ele>
        <time>2019-08-04T08:06:07.793Z</time>
      </trkpt>
      <trkpt lat="42.55494667" lon="1.55323833">
        <ele>1716.0</ele>
        <time>2019-08-04T08:06:08.767Z</time>
      </trkpt>
      <trkpt lat="42.55494667" lon="1.55323833">
        <ele>1716.0</ele>
        <time>2019-08-04T08:06:09.788Z</time>
      </trkpt>
      <trkpt lat="42.554925" lon="1.55332167">
        <ele>1716.0</ele>
        <time>2019-08-04T08:06:10.790Z</time>
      </trkpt>
      <trkpt lat="42.554925" lon="1.55332167">
        <ele>1716.0</ele>
        <time>2019-08-04T08:06:11.788Z</time>
      </trkpt>
      <trkpt lat="42.554915" lon="1.55340667">
        <ele>1717.0</ele>
        <time>2019-08-04T08:06:12.792Z</time>
      </trkpt>
      <trkpt lat="42.554915" lon="1.55340667">
        <ele>1717.0</ele>
        <time>2019-08-04T08:06:13.794Z</time>
      </trkpt>
      <trkpt lat="42.554895" lon="1.55349">
        <ele>1717.0</ele>
        <time>2019-08-04T08:06:14.791Z</time>
      </trkpt>
      <trkpt lat="42.554895" lon="1.55349">
        <ele>1717.0</ele>
        <time>2019-08-04T08:06:15.788Z</time>
      </trkpt>
      <trkpt lat="42.554885" lon="1.55357333">
        <ele>1718.0</ele>
        <time>2019-08-04T08:06:16.770Z</time>
      </trkpt>
      <trkpt lat="42.554885" lon="1.55357333">
        <ele>1718.0</ele>
        <time>2019-08-04T08:06:17.790Z</time>
      </trkpt>
      <trkpt lat="42.55487833" lon="1.553655">
        <ele>1718.0</ele>
        <time>2019-08-04T08:06:18.776Z</time>
      </trkpt>
      <trkpt lat="42.55487833" lon="1.553655">
        <ele>1718.0</ele>
        <time>2019-08-04T08:06:19.770Z</time>
      </trkpt>
      <trkpt lat="42.55486167" lon="1.55373833">
        <ele>1719.0</ele>
        <time>2019-08-04T08:06:20.790Z</time>
      </trkpt>
      <trkpt lat="42.55485833" lon="1.55378">
        <ele>1719.0</ele>
        <time>2019-08-04T08:06:21.791Z</time>
      </trkpt>
      <trkpt lat="42.55485833" lon="1.55378">
        <ele>1719.0</ele>
        <time>2019-08-04T08:06:22.785Z</time>
      </trkpt>
      <trkpt lat="42.55484833" lon="1.553865">
        <ele>1720.0</ele>
        <time>2019-08-04T08:06:23.766Z</time>
      </trkpt>
      <trkpt lat="42.55484833" lon="1.553865">
        <ele>1720.0</ele>
        <time>2019-08-04T08:06:24.789Z</time>
      </trkpt>
      <trkpt lat="42.55484333" lon="1.55394667">
        <ele>1720.0</ele>
        <time>2019-08-04T08:06:25.790Z</time>
      </trkpt>
      <trkpt lat="42.55483167" lon="1.553985">
        <ele>1720.0</ele>
        <time>2019-08-04T08:06:26.791Z</time>
      </trkpt>
      <trkpt lat="42.55483" lon="1.55402167">
        <ele>1720.0</ele>
        <time>2019-08-04T08:06:27.791Z</time>
      </trkpt>
      <trkpt lat="42.55483" lon="1.55402167">
        <ele>1720.0</ele>
        <time>2019-08-04T08:06:28.803Z</time>
      </trkpt>
      <trkpt lat="42.55482167" lon="1.55409667">
        <ele>1721.0</ele>
        <time>2019-08-04T08:06:29.791Z</time>
      </trkpt>
      <trkpt lat="42.55482167" lon="1.554135">
        <ele>1721.0</ele>
        <time>2019-08-04T08:06:30.794Z</time>
      </trkpt>
      <trkpt lat="42.55482167" lon="1.554135">
        <ele>1721.0</ele>
        <time>2019-08-04T08:06:31.787Z</time>
      </trkpt>
      <trkpt lat="42.55481333" lon="1.55421">
        <ele>1721.0</ele>
        <time>2019-08-04T08:06:32.791Z</time>
      </trkpt>
      <trkpt lat="42.55481333" lon="1.55421">
        <ele>1721.0</ele>
        <time>2019-08-04T08:06:33.787Z</time>
      </trkpt>
      <trkpt lat="42.554815" lon="1.55429167">
        <ele>1722.0</ele>
        <time>2019-08-04T08:06:34.787Z</time>
      </trkpt>
      <trkpt lat="42.55480833" lon="1.55433167">
        <ele>1722.0</ele>
        <time>2019-08-04T08:06:35.791Z</time>
      </trkpt>
      <trkpt lat="42.55480833" lon="1.55433167">
        <ele>1722.0</ele>
        <time>2019-08-04T08:06:36.789Z</time>
      </trkpt>
      <trkpt lat="42.5548" lon="1.55441333">
        <ele>1723.0</ele>
        <time>2019-08-04T08:06:37.788Z</time>
      </trkpt>
      <trkpt lat="42.55478167" lon="1.55445167">
        <ele>1722.0</ele>
        <time>2019-08-04T08:06:38.768Z</time>
      </trkpt>
      <trkpt lat="42.55478167" lon="1.55445167">
        <ele>1722.0</ele>
        <time>2019-08-04T08:06:39.789Z</time>
      </trkpt>
      <trkpt lat="42.554765" lon="1.554535">
        <ele>1723.0</ele>
        <time>2019-08-04T08:06:40.791Z</time>
      </trkpt>
      <trkpt lat="42.554765" lon="1.554535">
        <ele>1723.0</ele>
        <time>2019-08-04T08:06:41.785Z</time>
      </trkpt>
      <trkpt lat="42.55477667" lon="1.55461833">
        <ele>1723.0</ele>
        <time>2019-08-04T08:06:42.792Z</time>
      </trkpt>
      <trkpt lat="42.55478833" lon="1.55465833">
        <ele>1723.0</ele>
        <time>2019-08-04T08:06:43.792Z</time>
      </trkpt>
      <trkpt lat="42.55478833" lon="1.55465833">
        <ele>1723.0</ele>
        <time>2019-08-04T08:06:44.787Z</time>
      </trkpt>
      <trkpt lat="42.55480833" lon="1.55473667">
        <ele>1723.0</ele>
        <time>2019-08-04T08:06:45.790Z</time>
      </trkpt>
      <trkpt lat="42.55481667" lon="1.554775">
        <ele>1723.0</ele>
        <time>2019-08-04T08:06:46.771Z</time>
      </trkpt>
      <trkpt lat="42.55481667" lon="1.554775">
        <ele>1723.0</ele>
        <time>2019-08-04T08:06:47.792Z</time>
      </trkpt>
      <trkpt lat="42.55481833" lon="1.55484833">
        <ele>1724.0</ele>
        <time>2019-08-04T08:06:48.793Z</time>
      </trkpt>
      <trkpt lat="42.55481833" lon="1.55484833">
        <ele>1724.0</ele>
        <time>2019-08-04T08:06:49.787Z</time>
      </trkpt>
      <trkpt lat="42.55481" lon="1.55491">
        <ele>1724.0</ele>
        <time>2019-08-04T08:06:50.774Z</time>
      </trkpt>
      <trkpt lat="42.55481" lon="1.55491">
        <ele>1724.0</ele>
        <time>2019-08-04T08:06:51.805Z</time>
      </trkpt>
      <trkpt lat="42.55480667" lon="1.554975">
        <ele>1724.0</ele>
        <time>2019-08-04T08:06:52.792Z</time>
      </trkpt>
      <trkpt lat="42.55480667" lon="1.554975">
        <ele>1724.0</ele>
        <time>2019-08-04T08:06:53.787Z</time>
      </trkpt>
      <trkpt lat="42.55479833" lon="1.555035">
        <ele>1725.0</ele>
        <time>2019-08-04T08:06:54.768Z</time>
      </trkpt>
      <trkpt lat="42.55479833" lon="1.555035">
        <ele>1725.0</ele>
        <time>2019-08-04T08:06:55.791Z</time>
      </trkpt>
      <trkpt lat="42.55479333" lon="1.555105">
        <ele>1725.0</ele>
        <time>2019-08-04T08:06:56.793Z</time>
      </trkpt>
      <trkpt lat="42.55479333" lon="1.555105">
        <ele>1725.0</ele>
        <time>2019-08-04T08:06:57.789Z</time>
      </trkpt>
      <trkpt lat="42.55478" lon="1.55517667">
        <ele>1725.0</ele>
        <time>2019-08-04T08:06:58.768Z</time>
      </trkpt>
      <trkpt lat="42.55478" lon="1.55517667">
        <ele>1725.0</ele>
        <time>2019-08-04T08:06:59.789Z</time>
      </trkpt>
      <trkpt lat="42.55478333" lon="1.55524833">
        <ele>1725.0</ele>
        <time>2019-08-04T08:07:00.791Z</time>
      </trkpt>
      <trkpt lat="42.55478333" lon="1.55524833">
        <ele>1725.0</ele>
        <time>2019-08-04T08:07:01.789Z</time>
      </trkpt>
      <trkpt lat="42.554785" lon="1.55532667">
        <ele>1725.0</ele>
        <time>2019-08-04T08:07:02.789Z</time>
      </trkpt>
      <trkpt lat="42.554785" lon="1.55532667">
        <ele>1725.0</ele>
        <time>2019-08-04T08:07:03.788Z</time>
      </trkpt>
      <trkpt lat="42.55479333" lon="1.55540167">
        <ele>1725.0</ele>
        <time>2019-08-04T08:07:04.790Z</time>
      </trkpt>
      <trkpt lat="42.55479333" lon="1.55540167">
        <ele>1725.0</ele>
        <time>2019-08-04T08:07:05.804Z</time>
      </trkpt>
      <trkpt lat="42.55481167" lon="1.55548">
        <ele>1725.0</ele>
        <time>2019-08-04T08:07:06.793Z</time>
      </trkpt>
      <trkpt lat="42.55481167" lon="1.55548">
        <ele>1725.0</ele>
        <time>2019-08-04T08:07:07.799Z</time>
      </trkpt>
      <trkpt lat="42.55484167" lon="1.55556833">
        <ele>1725.0</ele>
        <time>2019-08-04T08:07:08.774Z</time>
      </trkpt>
      <trkpt lat="42.55484167" lon="1.55556833">
        <ele>1725.0</ele>
        <time>2019-08-04T08:07:09.792Z</time>
      </trkpt>
      <trkpt lat="42.55488" lon="1.55564">
        <ele>1725.0</ele>
        <time>2019-08-04T08:07:10.791Z</time>
      </trkpt>
      <trkpt lat="42.55488" lon="1.55564">
        <ele>1725.0</ele>
        <time>2019-08-04T08:07:11.803Z</time>
      </trkpt>
      <trkpt lat="42.55492" lon="1.55569833">
        <ele>1726.0</ele>
        <time>2019-08-04T08:07:12.793Z</time>
      </trkpt>
      <trkpt lat="42.55492" lon="1.55569833">
        <ele>1726.0</ele>
        <time>2019-08-04T08:07:13.789Z</time>
      </trkpt>
      <trkpt lat="42.554965" lon="1.55575333">
        <ele>1726.0</ele>
        <time>2019-08-04T08:07:14.792Z</time>
      </trkpt>
      <trkpt lat="42.554965" lon="1.55575333">
        <ele>1726.0</ele>
        <time>2019-08-04T08:07:15.787Z</time>
      </trkpt>
      <trkpt lat="42.55501333" lon="1.55579333">
        <ele>1726.0</ele>
        <time>2019-08-04T08:07:16.790Z</time>
      </trkpt>
      <trkpt lat="42.55501333" lon="1.55579333">
        <ele>1726.0</ele>
        <time>2019-08-04T08:07:17.784Z</time>
      </trkpt>
      <trkpt lat="42.55506833" lon="1.55581667">
        <ele>1726.0</ele>
        <time>2019-08-04T08:07:18.781Z</time>
      </trkpt>
      <trkpt lat="42.55506833" lon="1.55581667">
        <ele>1726.0</ele>
        <time>2019-08-04T08:07:19.766Z</time>
      </trkpt>
      <trkpt lat="42.55512333" lon="1.55583333">
        <ele>1727.0</ele>
        <time>2019-08-04T08:07:20.790Z</time>
      </trkpt>
      <trkpt lat="42.55512333" lon="1.55583333">
        <ele>1727.0</ele>
        <time>2019-08-04T08:07:21.786Z</time>
      </trkpt>
      <trkpt lat="42.55518" lon="1.555845">
        <ele>1727.0</ele>
        <time>2019-08-04T08:07:22.766Z</time>
      </trkpt>
      <trkpt lat="42.55518" lon="1.555845">
        <ele>1727.0</ele>
        <time>2019-08-04T08:07:23.803Z</time>
      </trkpt>
      <trkpt lat="42.555235" lon="1.555835">
        <ele>1728.0</ele>
        <time>2019-08-04T08:07:24.792Z</time>
      </trkpt>
      <trkpt lat="42.555265" lon="1.55582833">
        <ele>1728.0</ele>
        <time>2019-08-04T08:07:25.792Z</time>
      </trkpt>
      <trkpt lat="42.555265" lon="1.55582833">
        <ele>1728.0</ele>
        <time>2019-08-04T08:07:26.789Z</time>
      </trkpt>
      <trkpt lat="42.55532167" lon="1.55580833">
        <ele>1728.0</ele>
        <time>2019-08-04T08:07:27.791Z</time>
      </trkpt>
      <trkpt lat="42.55534667" lon="1.55579667">
        <ele>1729.0</ele>
        <time>2019-08-04T08:07:28.778Z</time>
      </trkpt>
      <trkpt lat="42.55534667" lon="1.55579667">
        <ele>1729.0</ele>
        <time>2019-08-04T08:07:29.776Z</time>
      </trkpt>
      <trkpt lat="42.55539167" lon="1.55577167">
        <ele>1729.0</ele>
        <time>2019-08-04T08:07:30.792Z</time>
      </trkpt>
      <trkpt lat="42.55539167" lon="1.55577167">
        <ele>1729.0</ele>
        <time>2019-08-04T08:07:31.789Z</time>
      </trkpt>
      <trkpt lat="42.55543667" lon="1.55576">
        <ele>1729.0</ele>
        <time>2019-08-04T08:07:32.791Z</time>
      </trkpt>
      <trkpt lat="42.55543667" lon="1.55576">
        <ele>1729.0</ele>
        <time>2019-08-04T08:07:33.788Z</time>
      </trkpt>
      <trkpt lat="42.55548333" lon="1.555745">
        <ele>1730.0</ele>
        <time>2019-08-04T08:07:34.791Z</time>
      </trkpt>
      <trkpt lat="42.555505" lon="1.55573833">
        <ele>1730.0</ele>
        <time>2019-08-04T08:07:35.790Z</time>
      </trkpt>
      <trkpt lat="42.555505" lon="1.55573833">
        <ele>1730.0</ele>
        <time>2019-08-04T08:07:36.776Z</time>
      </trkpt>
      <trkpt lat="42.55555167" lon="1.55572">
        <ele>1730.0</ele>
        <time>2019-08-04T08:07:37.792Z</time>
      </trkpt>
      <trkpt lat="42.55557667" lon="1.55571">
        <ele>1730.0</ele>
        <time>2019-08-04T08:07:38.780Z</time>
      </trkpt>
      <trkpt lat="42.55557667" lon="1.55571">
        <ele>1730.0</ele>
        <time>2019-08-04T08:07:39.809Z</time>
      </trkpt>
      <trkpt lat="42.55563" lon="1.55569167">
        <ele>1731.0</ele>
        <time>2019-08-04T08:07:40.791Z</time>
      </trkpt>
      <trkpt lat="42.55565833" lon="1.55568333">
        <ele>1731.0</ele>
        <time>2019-08-04T08:07:41.792Z</time>
      </trkpt>
      <trkpt lat="42.555685" lon="1.55567333">
        <ele>1731.0</ele>
        <time>2019-08-04T08:07:42.793Z</time>
      </trkpt>
      <trkpt lat="42.555685" lon="1.55567333">
        <ele>1731.0</ele>
        <time>2019-08-04T08:07:43.789Z</time>
      </trkpt>
      <trkpt lat="42.55573833" lon="1.555655">
        <ele>1731.0</ele>
        <time>2019-08-04T08:07:44.792Z</time>
      </trkpt>
      <trkpt lat="42.55573833" lon="1.555655">
        <ele>1731.0</ele>
        <time>2019-08-04T08:07:45.790Z</time>
      </trkpt>
      <trkpt lat="42.55579167" lon="1.55564833">
        <ele>1732.0</ele>
        <time>2019-08-04T08:07:46.790Z</time>
      </trkpt>
      <trkpt lat="42.55582167" lon="1.55564833">
        <ele>1732.0</ele>
        <time>2019-08-04T08:07:47.791Z</time>
      </trkpt>
      <trkpt lat="42.55585" lon="1.55565167">
        <ele>1733.0</ele>
        <time>2019-08-04T08:07:48.787Z</time>
      </trkpt>
      <trkpt lat="42.55585" lon="1.55565167">
        <ele>1733.0</ele>
        <time>2019-08-04T08:07:49.766Z</time>
      </trkpt>
      <trkpt lat="42.55590333" lon="1.55568667">
        <ele>1733.0</ele>
        <time>2019-08-04T08:07:50.788Z</time>
      </trkpt>
      <trkpt lat="42.55592833" lon="1.55571333">
        <ele>1734.0</ele>
        <time>2019-08-04T08:07:51.795Z</time>
      </trkpt>
      <trkpt lat="42.55592833" lon="1.55571333">
        <ele>1734.0</ele>
        <time>2019-08-04T08:07:52.788Z</time>
      </trkpt>
      <trkpt lat="42.555975" lon="1.55578">
        <ele>1734.0</ele>
        <time>2019-08-04T08:07:53.791Z</time>
      </trkpt>
      <trkpt lat="42.55599167" lon="1.55581167">
        <ele>1734.0</ele>
        <time>2019-08-04T08:07:54.791Z</time>
      </trkpt>
      <trkpt lat="42.55600667" lon="1.55584333">
        <ele>1734.0</ele>
        <time>2019-08-04T08:07:55.792Z</time>
      </trkpt>
      <trkpt lat="42.55600667" lon="1.55584333">
        <ele>1734.0</ele>
        <time>2019-08-04T08:07:56.790Z</time>
      </trkpt>
      <trkpt lat="42.55603333" lon="1.55590833">
        <ele>1735.0</ele>
        <time>2019-08-04T08:07:57.791Z</time>
      </trkpt>
      <trkpt lat="42.55604167" lon="1.55593667">
        <ele>1735.0</ele>
        <time>2019-08-04T08:07:58.798Z</time>
      </trkpt>
      <trkpt lat="42.55604167" lon="1.55593667">
        <ele>1735.0</ele>
        <time>2019-08-04T08:07:59.790Z</time>
      </trkpt>
      <trkpt lat="42.55605" lon="1.55598333">
        <ele>1735.0</ele>
        <time>2019-08-04T08:08:00.793Z</time>
      </trkpt>
      <trkpt lat="42.55605" lon="1.55598333">
        <ele>1735.0</ele>
        <time>2019-08-04T08:08:01.789Z</time>
      </trkpt>
      <trkpt lat="42.55605833" lon="1.55602333">
        <ele>1735.0</ele>
        <time>2019-08-04T08:08:02.791Z</time>
      </trkpt>
      <trkpt lat="42.55605833" lon="1.55602333">
        <ele>1735.0</ele>
        <time>2019-08-04T08:08:03.787Z</time>
      </trkpt>
      <trkpt lat="42.55607" lon="1.55608667">
        <ele>1736.0</ele>
        <time>2019-08-04T08:08:04.766Z</time>
      </trkpt>
      <trkpt lat="42.55607" lon="1.55608667">
        <ele>1736.0</ele>
        <time>2019-08-04T08:08:05.766Z</time>
      </trkpt>
      <trkpt lat="42.55608333" lon="1.556155">
        <ele>1737.0</ele>
        <time>2019-08-04T08:08:06.798Z</time>
      </trkpt>
      <trkpt lat="42.556095" lon="1.5562">
        <ele>1737.0</ele>
        <time>2019-08-04T08:08:07.804Z</time>
      </trkpt>
      <trkpt lat="42.55610333" lon="1.55624333">
        <ele>1737.0</ele>
        <time>2019-08-04T08:08:08.774Z</time>
      </trkpt>
      <trkpt lat="42.55610333" lon="1.55624333">
        <ele>1737.0</ele>
        <time>2019-08-04T08:08:09.792Z</time>
      </trkpt>
      <trkpt lat="42.55611833" lon="1.55633">
        <ele>1738.0</ele>
        <time>2019-08-04T08:08:10.792Z</time>
      </trkpt>
      <trkpt lat="42.55611833" lon="1.55633">
        <ele>1738.0</ele>
        <time>2019-08-04T08:08:11.788Z</time>
      </trkpt>
      <trkpt lat="42.55613167" lon="1.556415">
        <ele>1739.0</ele>
        <time>2019-08-04T08:08:12.769Z</time>
      </trkpt>
      <trkpt lat="42.55613167" lon="1.556415">
        <ele>1739.0</ele>
        <time>2019-08-04T08:08:13.791Z</time>
      </trkpt>
      <trkpt lat="42.55615333" lon="1.5565">
        <ele>1739.0</ele>
        <time>2019-08-04T08:08:14.793Z</time>
      </trkpt>
      <trkpt lat="42.55615333" lon="1.5565">
        <ele>1739.0</ele>
        <time>2019-08-04T08:08:15.789Z</time>
      </trkpt>
      <trkpt lat="42.55617" lon="1.556575">
        <ele>1740.0</ele>
        <time>2019-08-04T08:08:16.771Z</time>
      </trkpt>
      <trkpt lat="42.55617167" lon="1.556605">
        <ele>1740.0</ele>
        <time>2019-08-04T08:08:17.793Z</time>
      </trkpt>
      <trkpt lat="42.556175" lon="1.55663667">
        <ele>1741.0</ele>
        <time>2019-08-04T08:08:18.770Z</time>
      </trkpt>
      <trkpt lat="42.556175" lon="1.55663667">
        <ele>1741.0</ele>
        <time>2019-08-04T08:08:19.789Z</time>
      </trkpt>
      <trkpt lat="42.55618333" lon="1.55671833">
        <ele>1741.0</ele>
        <time>2019-08-04T08:08:20.789Z</time>
      </trkpt>
      <trkpt lat="42.55618333" lon="1.55671833">
        <ele>1741.0</ele>
        <time>2019-08-04T08:08:21.787Z</time>
      </trkpt>
      <trkpt lat="42.556185" lon="1.55678833">
        <ele>1742.0</ele>
        <time>2019-08-04T08:08:22.767Z</time>
      </trkpt>
      <trkpt lat="42.556185" lon="1.55678833">
        <ele>1742.0</ele>
        <time>2019-08-04T08:08:23.789Z</time>
      </trkpt>
      <trkpt lat="42.55619" lon="1.556855">
        <ele>1744.0</ele>
        <time>2019-08-04T08:08:24.769Z</time>
      </trkpt>
      <trkpt lat="42.55619" lon="1.556855">
        <ele>1744.0</ele>
        <time>2019-08-04T08:08:25.789Z</time>
      </trkpt>
      <trkpt lat="42.55618333" lon="1.55693">
        <ele>1744.0</ele>
        <time>2019-08-04T08:08:26.792Z</time>
      </trkpt>
      <trkpt lat="42.55618333" lon="1.55693">
        <ele>1744.0</ele>
        <time>2019-08-04T08:08:27.790Z</time>
      </trkpt>
      <trkpt lat="42.556175" lon="1.55701">
        <ele>1745.0</ele>
        <time>2019-08-04T08:08:28.773Z</time>
      </trkpt>
      <trkpt lat="42.556175" lon="1.55701">
        <ele>1745.0</ele>
        <time>2019-08-04T08:08:29.795Z</time>
      </trkpt>
      <trkpt lat="42.55616" lon="1.55708167">
        <ele>1745.0</ele>
        <time>2019-08-04T08:08:30.793Z</time>
      </trkpt>
      <trkpt lat="42.55616" lon="1.55708167">
        <ele>1745.0</ele>
        <time>2019-08-04T08:08:31.790Z</time>
      </trkpt>
      <trkpt lat="42.55614" lon="1.55713">
        <ele>1745.0</ele>
        <time>2019-08-04T08:08:32.791Z</time>
      </trkpt>
      <trkpt lat="42.55614" lon="1.55713">
        <ele>1745.0</ele>
        <time>2019-08-04T08:08:33.790Z</time>
      </trkpt>
      <trkpt lat="42.55614333" lon="1.557215">
        <ele>1746.0</ele>
        <time>2019-08-04T08:08:34.789Z</time>
      </trkpt>
      <trkpt lat="42.55613333" lon="1.557255">
        <ele>1746.0</ele>
        <time>2019-08-04T08:08:35.774Z</time>
      </trkpt>
      <trkpt lat="42.55613333" lon="1.557255">
        <ele>1746.0</ele>
        <time>2019-08-04T08:08:36.790Z</time>
      </trkpt>
      <trkpt lat="42.55612333" lon="1.55734">
        <ele>1747.0</ele>
        <time>2019-08-04T08:08:37.792Z</time>
      </trkpt>
      <trkpt lat="42.556115" lon="1.55737667">
        <ele>1747.0</ele>
        <time>2019-08-04T08:08:38.769Z</time>
      </trkpt>
      <trkpt lat="42.556115" lon="1.55737667">
        <ele>1747.0</ele>
        <time>2019-08-04T08:08:39.789Z</time>
      </trkpt>
      <trkpt lat="42.55610833" lon="1.55745">
        <ele>1749.0</ele>
        <time>2019-08-04T08:08:40.767Z</time>
      </trkpt>
      <trkpt lat="42.55610833" lon="1.55745">
        <ele>1749.0</ele>
        <time>2019-08-04T08:08:41.789Z</time>
      </trkpt>
      <trkpt lat="42.55610833" lon="1.55753333">
        <ele>1749.0</ele>
        <time>2019-08-04T08:08:42.793Z</time>
      </trkpt>
      <trkpt lat="42.55610833" lon="1.55753333">
        <ele>1749.0</ele>
        <time>2019-08-04T08:08:43.789Z</time>
      </trkpt>
      <trkpt lat="42.55610667" lon="1.557615">
        <ele>1750.0</ele>
        <time>2019-08-04T08:08:44.800Z</time>
      </trkpt>
      <trkpt lat="42.55610667" lon="1.557615">
        <ele>1750.0</ele>
        <time>2019-08-04T08:08:45.789Z</time>
      </trkpt>
      <trkpt lat="42.55610667" lon="1.55768833">
        <ele>1751.0</ele>
        <time>2019-08-04T08:08:46.793Z</time>
      </trkpt>
      <trkpt lat="42.55610833" lon="1.55772">
        <ele>1751.0</ele>
        <time>2019-08-04T08:08:47.792Z</time>
      </trkpt>
      <trkpt lat="42.556105" lon="1.55775333">
        <ele>1751.0</ele>
        <time>2019-08-04T08:08:48.779Z</time>
      </trkpt>
      <trkpt lat="42.556105" lon="1.55775333">
        <ele>1751.0</ele>
        <time>2019-08-04T08:08:49.799Z</time>
      </trkpt>
      <trkpt lat="42.55610833" lon="1.55780667">
        <ele>1751.0</ele>
        <time>2019-08-04T08:08:50.793Z</time>
      </trkpt>
      <trkpt lat="42.55610833" lon="1.55780667">
        <ele>1751.0</ele>
        <time>2019-08-04T08:08:51.787Z</time>
      </trkpt>
      <trkpt lat="42.55612167" lon="1.55788833">
        <ele>1752.0</ele>
        <time>2019-08-04T08:08:52.767Z</time>
      </trkpt>
      <trkpt lat="42.55612" lon="1.55792167">
        <ele>1752.0</ele>
        <time>2019-08-04T08:08:53.792Z</time>
      </trkpt>
      <trkpt lat="42.55612" lon="1.55792167">
        <ele>1752.0</ele>
        <time>2019-08-04T08:08:54.767Z</time>
      </trkpt>
      <trkpt lat="42.55612333" lon="1.55799833">
        <ele>1752.0</ele>
        <time>2019-08-04T08:08:55.792Z</time>
      </trkpt>
      <trkpt lat="42.55612667" lon="1.55804167">
        <ele>1753.0</ele>
        <time>2019-08-04T08:08:56.768Z</time>
      </trkpt>
      <trkpt lat="42.55612667" lon="1.55804167">
        <ele>1753.0</ele>
        <time>2019-08-04T08:08:57.789Z</time>
      </trkpt>
      <trkpt lat="42.55613167" lon="1.55813167">
        <ele>1753.0</ele>
        <time>2019-08-04T08:08:58.773Z</time>
      </trkpt>
      <trkpt lat="42.55613167" lon="1.55813167">
        <ele>1753.0</ele>
        <time>2019-08-04T08:08:59.795Z</time>
      </trkpt>
      <trkpt lat="42.55613667" lon="1.55821167">
        <ele>1753.0</ele>
        <time>2019-08-04T08:09:00.791Z</time>
      </trkpt>
      <trkpt lat="42.55614" lon="1.55824833">
        <ele>1754.0</ele>
        <time>2019-08-04T08:09:01.766Z</time>
      </trkpt>
      <trkpt lat="42.55613833" lon="1.55827833">
        <ele>1754.0</ele>
        <time>2019-08-04T08:09:02.792Z</time>
      </trkpt>
      <trkpt lat="42.55613833" lon="1.55827833">
        <ele>1754.0</ele>
        <time>2019-08-04T08:09:03.767Z</time>
      </trkpt>
      <trkpt lat="42.55613833" lon="1.55834333">
        <ele>1754.0</ele>
        <time>2019-08-04T08:09:04.792Z</time>
      </trkpt>
      <trkpt lat="42.55613833" lon="1.55834333">
        <ele>1754.0</ele>
        <time>2019-08-04T08:09:05.765Z</time>
      </trkpt>
      <trkpt lat="42.556135" lon="1.5584">
        <ele>1755.0</ele>
        <time>2019-08-04T08:09:06.777Z</time>
      </trkpt>
      <trkpt lat="42.556135" lon="1.5584">
        <ele>1755.0</ele>
        <time>2019-08-04T08:09:07.783Z</time>
      </trkpt>
      <trkpt lat="42.55613" lon="1.55846167">
        <ele>1756.0</ele>
        <time>2019-08-04T08:09:08.770Z</time>
      </trkpt>
      <trkpt lat="42.55613" lon="1.55846167">
        <ele>1756.0</ele>
        <time>2019-08-04T08:09:09.791Z</time>
      </trkpt>
      <trkpt lat="42.55612667" lon="1.55852833">
        <ele>1756.0</ele>
        <time>2019-08-04T08:09:10.767Z</time>
      </trkpt>
      <trkpt lat="42.556125" lon="1.55855667">
        <ele>1756.0</ele>
        <time>2019-08-04T08:09:11.793Z</time>
      </trkpt>
      <trkpt lat="42.55612667" lon="1.55859167">
        <ele>1757.0</ele>
        <time>2019-08-04T08:09:12.794Z</time>
      </trkpt>
      <trkpt lat="42.55612667" lon="1.55859167">
        <ele>1757.0</ele>
        <time>2019-08-04T08:09:13.787Z</time>
      </trkpt>
      <trkpt lat="42.55612167" lon="1.55864167">
        <ele>1757.0</ele>
        <time>2019-08-04T08:09:14.767Z</time>
      </trkpt>
      <trkpt lat="42.55612167" lon="1.55864167">
        <ele>1757.0</ele>
        <time>2019-08-04T08:09:15.799Z</time>
      </trkpt>
      <trkpt lat="42.556125" lon="1.55872833">
        <ele>1758.0</ele>
        <time>2019-08-04T08:09:16.793Z</time>
      </trkpt>
      <trkpt lat="42.556125" lon="1.55872833">
        <ele>1758.0</ele>
        <time>2019-08-04T08:09:17.787Z</time>
      </trkpt>
      <trkpt lat="42.55612167" lon="1.558795">
        <ele>1758.0</ele>
        <time>2019-08-04T08:09:18.779Z</time>
      </trkpt>
      <trkpt lat="42.55612167" lon="1.558795">
        <ele>1758.0</ele>
        <time>2019-08-04T08:09:19.800Z</time>
      </trkpt>
      <trkpt lat="42.55612333" lon="1.558875">
        <ele>1758.0</ele>
        <time>2019-08-04T08:09:20.797Z</time>
      </trkpt>
      <trkpt lat="42.55612333" lon="1.558875">
        <ele>1758.0</ele>
        <time>2019-08-04T08:09:21.787Z</time>
      </trkpt>
      <trkpt lat="42.55611" lon="1.55895833">
        <ele>1759.0</ele>
        <time>2019-08-04T08:09:22.767Z</time>
      </trkpt>
      <trkpt lat="42.55611" lon="1.55895833">
        <ele>1759.0</ele>
        <time>2019-08-04T08:09:23.790Z</time>
      </trkpt>
      <trkpt lat="42.55609833" lon="1.55904333">
        <ele>1759.0</ele>
        <time>2019-08-04T08:09:24.793Z</time>
      </trkpt>
      <trkpt lat="42.55609833" lon="1.55904333">
        <ele>1759.0</ele>
        <time>2019-08-04T08:09:25.787Z</time>
      </trkpt>
      <trkpt lat="42.55608667" lon="1.55912667">
        <ele>1760.0</ele>
        <time>2019-08-04T08:09:26.767Z</time>
      </trkpt>
      <trkpt lat="42.55608667" lon="1.55912667">
        <ele>1760.0</ele>
        <time>2019-08-04T08:09:27.790Z</time>
      </trkpt>
      <trkpt lat="42.55606833" lon="1.5592">
        <ele>1761.0</ele>
        <time>2019-08-04T08:09:28.766Z</time>
      </trkpt>
      <trkpt lat="42.55606833" lon="1.5592">
        <ele>1761.0</ele>
        <time>2019-08-04T08:09:29.789Z</time>
      </trkpt>
      <trkpt lat="42.55605833" lon="1.55927833">
        <ele>1761.0</ele>
        <time>2019-08-04T08:09:30.769Z</time>
      </trkpt>
      <trkpt lat="42.55605833" lon="1.55927833">
        <ele>1761.0</ele>
        <time>2019-08-04T08:09:31.793Z</time>
      </trkpt>
      <trkpt lat="42.55604667" lon="1.55935333">
        <ele>1762.0</ele>
        <time>2019-08-04T08:09:32.793Z</time>
      </trkpt>
      <trkpt lat="42.55604667" lon="1.55935333">
        <ele>1762.0</ele>
        <time>2019-08-04T08:09:33.794Z</time>
      </trkpt>
      <trkpt lat="42.55603333" lon="1.55943">
        <ele>1763.0</ele>
        <time>2019-08-04T08:09:34.791Z</time>
      </trkpt>
      <trkpt lat="42.55602333" lon="1.55946333">
        <ele>1763.0</ele>
        <time>2019-08-04T08:09:35.767Z</time>
      </trkpt>
      <trkpt lat="42.55601833" lon="1.55949833">
        <ele>1763.0</ele>
        <time>2019-08-04T08:09:36.784Z</time>
      </trkpt>
      <trkpt lat="42.55601833" lon="1.55949833">
        <ele>1763.0</ele>
        <time>2019-08-04T08:09:37.801Z</time>
      </trkpt>
      <trkpt lat="42.55600667" lon="1.55956">
        <ele>1764.0</ele>
        <time>2019-08-04T08:09:38.770Z</time>
      </trkpt>
      <trkpt lat="42.55600667" lon="1.55956">
        <ele>1764.0</ele>
        <time>2019-08-04T08:09:39.787Z</time>
      </trkpt>
      <trkpt lat="42.555995" lon="1.55962167">
        <ele>1764.0</ele>
        <time>2019-08-04T08:09:40.767Z</time>
      </trkpt>
      <trkpt lat="42.555995" lon="1.55962167">
        <ele>1764.0</ele>
        <time>2019-08-04T08:09:41.788Z</time>
      </trkpt>
      <trkpt lat="42.55598" lon="1.55967333">
        <ele>1765.0</ele>
        <time>2019-08-04T08:09:42.794Z</time>
      </trkpt>
      <trkpt lat="42.55598" lon="1.55967333">
        <ele>1765.0</ele>
        <time>2019-08-04T08:09:43.790Z</time>
      </trkpt>
      <trkpt lat="42.55596167" lon="1.55972833">
        <ele>1765.0</ele>
        <time>2019-08-04T08:09:44.791Z</time>
      </trkpt>
      <trkpt lat="42.55596167" lon="1.55972833">
        <ele>1765.0</ele>
        <time>2019-08-04T08:09:45.788Z</time>
      </trkpt>
      <trkpt lat="42.55595167" lon="1.5598">
        <ele>1766.0</ele>
        <time>2019-08-04T08:09:46.767Z</time>
      </trkpt>
      <trkpt lat="42.55595167" lon="1.5598">
        <ele>1766.0</ele>
        <time>2019-08-04T08:09:47.790Z</time>
      </trkpt>
      <trkpt lat="42.55594167" lon="1.559885">
        <ele>1766.0</ele>
        <time>2019-08-04T08:09:48.773Z</time>
      </trkpt>
      <trkpt lat="42.55594167" lon="1.559885">
        <ele>1766.0</ele>
        <time>2019-08-04T08:09:49.799Z</time>
      </trkpt>
      <trkpt lat="42.55593667" lon="1.55997833">
        <ele>1767.0</ele>
        <time>2019-08-04T08:09:50.792Z</time>
      </trkpt>
      <trkpt lat="42.55593667" lon="1.55997833">
        <ele>1767.0</ele>
        <time>2019-08-04T08:09:51.774Z</time>
      </trkpt>
      <trkpt lat="42.55593333" lon="1.56006">
        <ele>1767.0</ele>
        <time>2019-08-04T08:09:52.796Z</time>
      </trkpt>
      <trkpt lat="42.55593" lon="1.56009667">
        <ele>1767.0</ele>
        <time>2019-08-04T08:09:53.792Z</time>
      </trkpt>
      <trkpt lat="42.55592333" lon="1.560135">
        <ele>1768.0</ele>
        <time>2019-08-04T08:09:54.768Z</time>
      </trkpt>
      <trkpt lat="42.55592333" lon="1.560135">
        <ele>1768.0</ele>
        <time>2019-08-04T08:09:55.789Z</time>
      </trkpt>
      <trkpt lat="42.555915" lon="1.56021333">
        <ele>1768.0</ele>
        <time>2019-08-04T08:09:56.769Z</time>
      </trkpt>
      <trkpt lat="42.555915" lon="1.56021333">
        <ele>1768.0</ele>
        <time>2019-08-04T08:09:57.789Z</time>
      </trkpt>
      <trkpt lat="42.55591" lon="1.56028667">
        <ele>1769.0</ele>
        <time>2019-08-04T08:09:58.769Z</time>
      </trkpt>
      <trkpt lat="42.55590667" lon="1.56032">
        <ele>1769.0</ele>
        <time>2019-08-04T08:09:59.793Z</time>
      </trkpt>
      <trkpt lat="42.55590167" lon="1.56035333">
        <ele>1770.0</ele>
        <time>2019-08-04T08:10:00.793Z</time>
      </trkpt>
      <trkpt lat="42.55590167" lon="1.56035333">
        <ele>1770.0</ele>
        <time>2019-08-04T08:10:01.790Z</time>
      </trkpt>
      <trkpt lat="42.5559" lon="1.56041667">
        <ele>1771.0</ele>
        <time>2019-08-04T08:10:02.790Z</time>
      </trkpt>
      <trkpt lat="42.5559" lon="1.56041667">
        <ele>1771.0</ele>
        <time>2019-08-04T08:10:03.794Z</time>
      </trkpt>
      <trkpt lat="42.555895" lon="1.560485">
        <ele>1771.0</ele>
        <time>2019-08-04T08:10:04.793Z</time>
      </trkpt>
      <trkpt lat="42.555895" lon="1.560485">
        <ele>1771.0</ele>
        <time>2019-08-04T08:10:05.783Z</time>
      </trkpt>
      <trkpt lat="42.555895" lon="1.56056167">
        <ele>1772.0</ele>
        <time>2019-08-04T08:10:06.793Z</time>
      </trkpt>
      <trkpt lat="42.555895" lon="1.56056167">
        <ele>1772.0</ele>
        <time>2019-08-04T08:10:07.799Z</time>
      </trkpt>
      <trkpt lat="42.555905" lon="1.56063333">
        <ele>1774.0</ele>
        <time>2019-08-04T08:10:08.769Z</time>
      </trkpt>
      <trkpt lat="42.555905" lon="1.56063333">
        <ele>1774.0</ele>
        <time>2019-08-04T08:10:09.788Z</time>
      </trkpt>
      <trkpt lat="42.5559" lon="1.56070833">
        <ele>1774.0</ele>
        <time>2019-08-04T08:10:10.792Z</time>
      </trkpt>
      <trkpt lat="42.5559" lon="1.56070833">
        <ele>1774.0</ele>
        <time>2019-08-04T08:10:11.768Z</time>
      </trkpt>
      <trkpt lat="42.55589667" lon="1.56078">
        <ele>1775.0</ele>
        <time>2019-08-04T08:10:12.793Z</time>
      </trkpt>
      <trkpt lat="42.55589667" lon="1.56078">
        <ele>1775.0</ele>
        <time>2019-08-04T08:10:13.790Z</time>
      </trkpt>
      <trkpt lat="42.555895" lon="1.56085333">
        <ele>1775.0</ele>
        <time>2019-08-04T08:10:14.793Z</time>
      </trkpt>
      <trkpt lat="42.555895" lon="1.56085333">
        <ele>1775.0</ele>
        <time>2019-08-04T08:10:15.790Z</time>
      </trkpt>
      <trkpt lat="42.55588833" lon="1.560925">
        <ele>1776.0</ele>
        <time>2019-08-04T08:10:16.774Z</time>
      </trkpt>
      <trkpt lat="42.555885" lon="1.56096">
        <ele>1776.0</ele>
        <time>2019-08-04T08:10:17.795Z</time>
      </trkpt>
      <trkpt lat="42.55588333" lon="1.56099667">
        <ele>1776.0</ele>
        <time>2019-08-04T08:10:18.778Z</time>
      </trkpt>
      <trkpt lat="42.55588333" lon="1.56099667">
        <ele>1776.0</ele>
        <time>2019-08-04T08:10:19.793Z</time>
      </trkpt>
      <trkpt lat="42.55588" lon="1.56106833">
        <ele>1777.0</ele>
        <time>2019-08-04T08:10:20.792Z</time>
      </trkpt>
      <trkpt lat="42.55588" lon="1.56106833">
        <ele>1777.0</ele>
        <time>2019-08-04T08:10:21.787Z</time>
      </trkpt>
      <trkpt lat="42.55587667" lon="1.561145">
        <ele>1777.0</ele>
        <time>2019-08-04T08:10:22.792Z</time>
      </trkpt>
      <trkpt lat="42.55587667" lon="1.561145">
        <ele>1777.0</ele>
        <time>2019-08-04T08:10:23.789Z</time>
      </trkpt>
      <trkpt lat="42.55587833" lon="1.561215">
        <ele>1778.0</ele>
        <time>2019-08-04T08:10:24.769Z</time>
      </trkpt>
      <trkpt lat="42.55587833" lon="1.561215">
        <ele>1778.0</ele>
        <time>2019-08-04T08:10:25.790Z</time>
      </trkpt>
      <trkpt lat="42.55588167" lon="1.561295">
        <ele>1778.0</ele>
        <time>2019-08-04T08:10:26.792Z</time>
      </trkpt>
      <trkpt lat="42.55588167" lon="1.561295">
        <ele>1778.0</ele>
        <time>2019-08-04T08:10:27.788Z</time>
      </trkpt>
      <trkpt lat="42.55588167" lon="1.56137">
        <ele>1778.0</ele>
        <time>2019-08-04T08:10:28.780Z</time>
      </trkpt>
      <trkpt lat="42.55588167" lon="1.56137">
        <ele>1778.0</ele>
        <time>2019-08-04T08:10:29.800Z</time>
      </trkpt>
      <trkpt lat="42.55588167" lon="1.561435">
        <ele>1779.0</ele>
        <time>2019-08-04T08:10:30.795Z</time>
      </trkpt>
      <trkpt lat="42.55588167" lon="1.561435">
        <ele>1779.0</ele>
        <time>2019-08-04T08:10:31.789Z</time>
      </trkpt>
      <trkpt lat="42.55588333" lon="1.56149167">
        <ele>1779.0</ele>
        <time>2019-08-04T08:10:32.774Z</time>
      </trkpt>
      <trkpt lat="42.55588333" lon="1.56149167">
        <ele>1779.0</ele>
        <time>2019-08-04T08:10:33.802Z</time>
      </trkpt>
      <trkpt lat="42.555885" lon="1.56156167">
        <ele>1780.0</ele>
        <time>2019-08-04T08:10:34.791Z</time>
      </trkpt>
      <trkpt lat="42.555885" lon="1.56156167">
        <ele>1780.0</ele>
        <time>2019-08-04T08:10:35.767Z</time>
      </trkpt>
      <trkpt lat="42.55588667" lon="1.56163833">
        <ele>1780.0</ele>
        <time>2019-08-04T08:10:36.793Z</time>
      </trkpt>
      <trkpt lat="42.55588667" lon="1.56163833">
        <ele>1780.0</ele>
        <time>2019-08-04T08:10:37.789Z</time>
      </trkpt>
      <trkpt lat="42.55588667" lon="1.561715">
        <ele>1780.0</ele>
        <time>2019-08-04T08:10:38.773Z</time>
      </trkpt>
      <trkpt lat="42.55588667" lon="1.561715">
        <ele>1780.0</ele>
        <time>2019-08-04T08:10:39.789Z</time>
      </trkpt>
      <trkpt lat="42.55588167" lon="1.561785">
        <ele>1781.0</ele>
        <time>2019-08-04T08:10:40.767Z</time>
      </trkpt>
      <trkpt lat="42.55588167" lon="1.561785">
        <ele>1781.0</ele>
        <time>2019-08-04T08:10:41.791Z</time>
      </trkpt>
      <trkpt lat="42.55587167" lon="1.56185167">
        <ele>1781.0</ele>
        <time>2019-08-04T08:10:42.794Z</time>
      </trkpt>
      <trkpt lat="42.55587167" lon="1.56185167">
        <ele>1781.0</ele>
        <time>2019-08-04T08:10:43.791Z</time>
      </trkpt>
      <trkpt lat="42.55584333" lon="1.56192667">
        <ele>1782.0</ele>
        <time>2019-08-04T08:10:44.790Z</time>
      </trkpt>
      <trkpt lat="42.55584333" lon="1.56192667">
        <ele>1782.0</ele>
        <time>2019-08-04T08:10:45.774Z</time>
      </trkpt>
      <trkpt lat="42.55578667" lon="1.561975">
        <ele>1783.0</ele>
        <time>2019-08-04T08:10:46.765Z</time>
      </trkpt>
      <trkpt lat="42.55578667" lon="1.561975">
        <ele>1783.0</ele>
        <time>2019-08-04T08:10:47.789Z</time>
      </trkpt>
      <trkpt lat="42.555725" lon="1.56197">
        <ele>1783.0</ele>
        <time>2019-08-04T08:10:48.778Z</time>
      </trkpt>
      <trkpt lat="42.555725" lon="1.56197">
        <ele>1783.0</ele>
        <time>2019-08-04T08:10:49.793Z</time>
      </trkpt>
      <trkpt lat="42.555675" lon="1.56191333">
        <ele>1783.0</ele>
        <time>2019-08-04T08:10:50.794Z</time>
      </trkpt>
      <trkpt lat="42.555675" lon="1.56191333">
        <ele>1783.0</ele>
        <time>2019-08-04T08:10:51.788Z</time>
      </trkpt>
      <trkpt lat="42.55565333" lon="1.56183167">
        <ele>1784.0</ele>
        <time>2019-08-04T08:10:52.767Z</time>
      </trkpt>
      <trkpt lat="42.55565" lon="1.56179">
        <ele>1784.0</ele>
        <time>2019-08-04T08:10:53.784Z</time>
      </trkpt>
      <trkpt lat="42.55565" lon="1.56179">
        <ele>1784.0</ele>
        <time>2019-08-04T08:10:54.802Z</time>
      </trkpt>
      <trkpt lat="42.555645" lon="1.56170167">
        <ele>1784.0</ele>
        <time>2019-08-04T08:10:55.793Z</time>
      </trkpt>
      <trkpt lat="42.555645" lon="1.56170167">
        <ele>1784.0</ele>
        <time>2019-08-04T08:10:56.791Z</time>
      </trkpt>
      <trkpt lat="42.55564167" lon="1.561615">
        <ele>1785.0</ele>
        <time>2019-08-04T08:10:57.792Z</time>
      </trkpt>
      <trkpt lat="42.55564167" lon="1.56157167">
        <ele>1785.0</ele>
        <time>2019-08-04T08:10:58.774Z</time>
      </trkpt>
      <trkpt lat="42.55564167" lon="1.56157167">
        <ele>1785.0</ele>
        <time>2019-08-04T08:10:59.791Z</time>
      </trkpt>
      <trkpt lat="42.555645" lon="1.56148667">
        <ele>1785.0</ele>
        <time>2019-08-04T08:11:00.794Z</time>
      </trkpt>
      <trkpt lat="42.555645" lon="1.56148667">
        <ele>1785.0</ele>
        <time>2019-08-04T08:11:01.783Z</time>
      </trkpt>
      <trkpt lat="42.55565" lon="1.56140667">
        <ele>1786.0</ele>
        <time>2019-08-04T08:11:02.803Z</time>
      </trkpt>
      <trkpt lat="42.55565" lon="1.56140667">
        <ele>1786.0</ele>
        <time>2019-08-04T08:11:03.787Z</time>
      </trkpt>
      <trkpt lat="42.55565" lon="1.56133">
        <ele>1787.0</ele>
        <time>2019-08-04T08:11:04.768Z</time>
      </trkpt>
      <trkpt lat="42.55565" lon="1.56133">
        <ele>1787.0</ele>
        <time>2019-08-04T08:11:05.791Z</time>
      </trkpt>
      <trkpt lat="42.55565333" lon="1.56124">
        <ele>1788.0</ele>
        <time>2019-08-04T08:11:06.784Z</time>
      </trkpt>
      <trkpt lat="42.55565333" lon="1.56124">
        <ele>1788.0</ele>
        <time>2019-08-04T08:11:07.789Z</time>
      </trkpt>
      <trkpt lat="42.55564833" lon="1.56115167">
        <ele>1789.0</ele>
        <time>2019-08-04T08:11:08.786Z</time>
      </trkpt>
      <trkpt lat="42.55564833" lon="1.56115167">
        <ele>1789.0</ele>
        <time>2019-08-04T08:11:09.777Z</time>
      </trkpt>
      <trkpt lat="42.55563" lon="1.561075">
        <ele>1790.0</ele>
        <time>2019-08-04T08:11:10.802Z</time>
      </trkpt>
      <trkpt lat="42.55561833" lon="1.56103667">
        <ele>1790.0</ele>
        <time>2019-08-04T08:11:11.805Z</time>
      </trkpt>
      <trkpt lat="42.555605" lon="1.56099833">
        <ele>1791.0</ele>
        <time>2019-08-04T08:11:12.793Z</time>
      </trkpt>
      <trkpt lat="42.555605" lon="1.56099833">
        <ele>1791.0</ele>
        <time>2019-08-04T08:11:13.791Z</time>
      </trkpt>
      <trkpt lat="42.555565" lon="1.56093667">
        <ele>1791.0</ele>
        <time>2019-08-04T08:11:14.793Z</time>
      </trkpt>
      <trkpt lat="42.555565" lon="1.56093667">
        <ele>1791.0</ele>
        <time>2019-08-04T08:11:15.769Z</time>
      </trkpt>
      <trkpt lat="42.55552" lon="1.56088">
        <ele>1791.0</ele>
        <time>2019-08-04T08:11:16.792Z</time>
      </trkpt>
      <trkpt lat="42.55552" lon="1.56088">
        <ele>1791.0</ele>
        <time>2019-08-04T08:11:17.789Z</time>
      </trkpt>
      <trkpt lat="42.55548167" lon="1.56082833">
        <ele>1792.0</ele>
        <time>2019-08-04T08:11:18.773Z</time>
      </trkpt>
      <trkpt lat="42.55548167" lon="1.56082833">
        <ele>1792.0</ele>
        <time>2019-08-04T08:11:19.790Z</time>
      </trkpt>
      <trkpt lat="42.55543667" lon="1.56078">
        <ele>1793.0</ele>
        <time>2019-08-04T08:11:20.793Z</time>
      </trkpt>
      <trkpt lat="42.55543667" lon="1.56078">
        <ele>1793.0</ele>
        <time>2019-08-04T08:11:21.787Z</time>
      </trkpt>
      <trkpt lat="42.555385" lon="1.56074333">
        <ele>1793.0</ele>
        <time>2019-08-04T08:11:22.791Z</time>
      </trkpt>
      <trkpt lat="42.555385" lon="1.56074333">
        <ele>1793.0</ele>
        <time>2019-08-04T08:11:23.767Z</time>
      </trkpt>
      <trkpt lat="42.555335" lon="1.56070833">
        <ele>1794.0</ele>
        <time>2019-08-04T08:11:24.791Z</time>
      </trkpt>
      <trkpt lat="42.555335" lon="1.56070833">
        <ele>1794.0</ele>
        <time>2019-08-04T08:11:25.772Z</time>
      </trkpt>
      <trkpt lat="42.55528167" lon="1.56067333">
        <ele>1794.0</ele>
        <time>2019-08-04T08:11:26.792Z</time>
      </trkpt>
      <trkpt lat="42.55528167" lon="1.56067333">
        <ele>1794.0</ele>
        <time>2019-08-04T08:11:27.790Z</time>
      </trkpt>
      <trkpt lat="42.55523167" lon="1.56063167">
        <ele>1795.0</ele>
        <time>2019-08-04T08:11:28.775Z</time>
      </trkpt>
      <trkpt lat="42.55523167" lon="1.56063167">
        <ele>1795.0</ele>
        <time>2019-08-04T08:11:29.791Z</time>
      </trkpt>
      <trkpt lat="42.55518333" lon="1.56058833">
        <ele>1795.0</ele>
        <time>2019-08-04T08:11:30.793Z</time>
      </trkpt>
      <trkpt lat="42.55518333" lon="1.56058833">
        <ele>1795.0</ele>
        <time>2019-08-04T08:11:31.790Z</time>
      </trkpt>
      <trkpt lat="42.55514167" lon="1.56053">
        <ele>1796.0</ele>
        <time>2019-08-04T08:11:32.793Z</time>
      </trkpt>
      <trkpt lat="42.55514167" lon="1.56053">
        <ele>1796.0</ele>
        <time>2019-08-04T08:11:33.794Z</time>
      </trkpt>
      <trkpt lat="42.55510833" lon="1.56046333">
        <ele>1796.0</ele>
        <time>2019-08-04T08:11:34.792Z</time>
      </trkpt>
      <trkpt lat="42.55510833" lon="1.56046333">
        <ele>1796.0</ele>
        <time>2019-08-04T08:11:35.789Z</time>
      </trkpt>
      <trkpt lat="42.55508167" lon="1.56039333">
        <ele>1797.0</ele>
        <time>2019-08-04T08:11:36.765Z</time>
      </trkpt>
      <trkpt lat="42.55508167" lon="1.56039333">
        <ele>1797.0</ele>
        <time>2019-08-04T08:11:37.791Z</time>
      </trkpt>
      <trkpt lat="42.55506667" lon="1.56031333">
        <ele>1798.0</ele>
        <time>2019-08-04T08:11:38.769Z</time>
      </trkpt>
      <trkpt lat="42.55506667" lon="1.56031333">
        <ele>1798.0</ele>
        <time>2019-08-04T08:11:39.796Z</time>
      </trkpt>
      <trkpt lat="42.55505333" lon="1.56023167">
        <ele>1799.0</ele>
        <time>2019-08-04T08:11:40.793Z</time>
      </trkpt>
      <trkpt lat="42.55505" lon="1.56019">
        <ele>1800.0</ele>
        <time>2019-08-04T08:11:41.793Z</time>
      </trkpt>
      <trkpt lat="42.55505" lon="1.56014167">
        <ele>1801.0</ele>
        <time>2019-08-04T08:11:42.794Z</time>
      </trkpt>
      <trkpt lat="42.55505" lon="1.56014167">
        <ele>1801.0</ele>
        <time>2019-08-04T08:11:43.791Z</time>
      </trkpt>
      <trkpt lat="42.555045" lon="1.56006667">
        <ele>1802.0</ele>
        <time>2019-08-04T08:11:44.793Z</time>
      </trkpt>
      <trkpt lat="42.555045" lon="1.56006667">
        <ele>1802.0</ele>
        <time>2019-08-04T08:11:45.787Z</time>
      </trkpt>
      <trkpt lat="42.55504" lon="1.55998833">
        <ele>1803.0</ele>
        <time>2019-08-04T08:11:46.767Z</time>
      </trkpt>
      <trkpt lat="42.55504" lon="1.55998833">
        <ele>1803.0</ele>
        <time>2019-08-04T08:11:47.791Z</time>
      </trkpt>
      <trkpt lat="42.55503667" lon="1.55991667">
        <ele>1804.0</ele>
        <time>2019-08-04T08:11:48.779Z</time>
      </trkpt>
      <trkpt lat="42.55503667" lon="1.55991667">
        <ele>1804.0</ele>
        <time>2019-08-04T08:11:49.795Z</time>
      </trkpt>
      <trkpt lat="42.555025" lon="1.55984333">
        <ele>1804.0</ele>
        <time>2019-08-04T08:11:50.794Z</time>
      </trkpt>
      <trkpt lat="42.555025" lon="1.55984333">
        <ele>1804.0</ele>
        <time>2019-08-04T08:11:51.789Z</time>
      </trkpt>
      <trkpt lat="42.55501833" lon="1.55977167">
        <ele>1805.0</ele>
        <time>2019-08-04T08:11:52.792Z</time>
      </trkpt>
      <trkpt lat="42.55501833" lon="1.55977167">
        <ele>1805.0</ele>
        <time>2019-08-04T08:11:53.768Z</time>
      </trkpt>
      <trkpt lat="42.555" lon="1.55970667">
        <ele>1806.0</ele>
        <time>2019-08-04T08:11:54.793Z</time>
      </trkpt>
      <trkpt lat="42.555" lon="1.55970667">
        <ele>1806.0</ele>
        <time>2019-08-04T08:11:55.791Z</time>
      </trkpt>
      <trkpt lat="42.55498833" lon="1.55963833">
        <ele>1807.0</ele>
        <time>2019-08-04T08:11:56.773Z</time>
      </trkpt>
      <trkpt lat="42.55498833" lon="1.55963833">
        <ele>1807.0</ele>
        <time>2019-08-04T08:11:57.794Z</time>
      </trkpt>
      <trkpt lat="42.55496833" lon="1.55957333">
        <ele>1807.0</ele>
        <time>2019-08-04T08:11:58.768Z</time>
      </trkpt>
      <trkpt lat="42.55496" lon="1.55953833">
        <ele>1808.0</ele>
        <time>2019-08-04T08:11:59.793Z</time>
      </trkpt>
      <trkpt lat="42.55496" lon="1.55953833">
        <ele>1808.0</ele>
        <time>2019-08-04T08:12:00.792Z</time>
      </trkpt>
      <trkpt lat="42.55494667" lon="1.55946">
        <ele>1809.0</ele>
        <time>2019-08-04T08:12:01.793Z</time>
      </trkpt>
      <trkpt lat="42.55493667" lon="1.55942167">
        <ele>1809.0</ele>
        <time>2019-08-04T08:12:02.790Z</time>
      </trkpt>
      <trkpt lat="42.55493667" lon="1.55942167">
        <ele>1809.0</ele>
        <time>2019-08-04T08:12:03.798Z</time>
      </trkpt>
      <trkpt lat="42.55492167" lon="1.55935167">
        <ele>1810.0</ele>
        <time>2019-08-04T08:12:04.793Z</time>
      </trkpt>
      <trkpt lat="42.55492167" lon="1.55935167">
        <ele>1810.0</ele>
        <time>2019-08-04T08:12:05.777Z</time>
      </trkpt>
      <trkpt lat="42.55490833" lon="1.559275">
        <ele>1811.0</ele>
        <time>2019-08-04T08:12:06.784Z</time>
      </trkpt>
      <trkpt lat="42.55490833" lon="1.559275">
        <ele>1811.0</ele>
        <time>2019-08-04T08:12:07.790Z</time>
      </trkpt>
      <trkpt lat="42.55489833" lon="1.5592">
        <ele>1811.0</ele>
        <time>2019-08-04T08:12:08.770Z</time>
      </trkpt>
      <trkpt lat="42.55489833" lon="1.5592">
        <ele>1811.0</ele>
        <time>2019-08-04T08:12:09.789Z</time>
      </trkpt>
      <trkpt lat="42.554885" lon="1.55913">
        <ele>1812.0</ele>
        <time>2019-08-04T08:12:10.792Z</time>
      </trkpt>
      <trkpt lat="42.55488" lon="1.55909667">
        <ele>1812.0</ele>
        <time>2019-08-04T08:12:11.768Z</time>
      </trkpt>
      <trkpt lat="42.55487167" lon="1.55906167">
        <ele>1812.0</ele>
        <time>2019-08-04T08:12:12.796Z</time>
      </trkpt>
      <trkpt lat="42.55487167" lon="1.55906167">
        <ele>1812.0</ele>
        <time>2019-08-04T08:12:13.790Z</time>
      </trkpt>
      <trkpt lat="42.55485667" lon="1.55899333">
        <ele>1812.0</ele>
        <time>2019-08-04T08:12:14.793Z</time>
      </trkpt>
      <trkpt lat="42.55485667" lon="1.55899333">
        <ele>1812.0</ele>
        <time>2019-08-04T08:12:15.791Z</time>
      </trkpt>
      <trkpt lat="42.55484167" lon="1.55892833">
        <ele>1813.0</ele>
        <time>2019-08-04T08:12:16.767Z</time>
      </trkpt>
      <trkpt lat="42.55484167" lon="1.55892833">
        <ele>1813.0</ele>
        <time>2019-08-04T08:12:17.788Z</time>
      </trkpt>
      <trkpt lat="42.55482833" lon="1.55886167">
        <ele>1813.0</ele>
        <time>2019-08-04T08:12:18.778Z</time>
      </trkpt>
      <trkpt lat="42.55482833" lon="1.55886167">
        <ele>1813.0</ele>
        <time>2019-08-04T08:12:19.795Z</time>
      </trkpt>
      <trkpt lat="42.55481" lon="1.55879833">
        <ele>1814.0</ele>
        <time>2019-08-04T08:12:20.791Z</time>
      </trkpt>
      <trkpt lat="42.55481" lon="1.55879833">
        <ele>1814.0</ele>
        <time>2019-08-04T08:12:21.771Z</time>
      </trkpt>
      <trkpt lat="42.55479667" lon="1.55872667">
        <ele>1814.0</ele>
        <time>2019-08-04T08:12:22.795Z</time>
      </trkpt>
      <trkpt lat="42.55479667" lon="1.55872667">
        <ele>1814.0</ele>
        <time>2019-08-04T08:12:23.788Z</time>
      </trkpt>
      <trkpt lat="42.55478" lon="1.55865167">
        <ele>1815.0</ele>
        <time>2019-08-04T08:12:24.767Z</time>
      </trkpt>
      <trkpt lat="42.55478" lon="1.55865167">
        <ele>1815.0</ele>
        <time>2019-08-04T08:12:25.790Z</time>
      </trkpt>
      <trkpt lat="42.55475333" lon="1.55858">
        <ele>1815.0</ele>
        <time>2019-08-04T08:12:26.793Z</time>
      </trkpt>
      <trkpt lat="42.55475333" lon="1.55858">
        <ele>1815.0</ele>
        <time>2019-08-04T08:12:27.790Z</time>
      </trkpt>
      <trkpt lat="42.55473167" lon="1.55851">
        <ele>1816.0</ele>
        <time>2019-08-04T08:12:28.774Z</time>
      </trkpt>
      <trkpt lat="42.55473167" lon="1.55851">
        <ele>1816.0</ele>
        <time>2019-08-04T08:12:29.790Z</time>
      </trkpt>
      <trkpt lat="42.554705" lon="1.55843833">
        <ele>1816.0</ele>
        <time>2019-08-04T08:12:30.770Z</time>
      </trkpt>
      <trkpt lat="42.554705" lon="1.55843833">
        <ele>1816.0</ele>
        <time>2019-08-04T08:12:31.790Z</time>
      </trkpt>
      <trkpt lat="42.55468333" lon="1.55837167">
        <ele>1816.0</ele>
        <time>2019-08-04T08:12:32.793Z</time>
      </trkpt>
      <trkpt lat="42.55468333" lon="1.55837167">
        <ele>1816.0</ele>
        <time>2019-08-04T08:12:33.768Z</time>
      </trkpt>
      <trkpt lat="42.55465667" lon="1.55830667">
        <ele>1817.0</ele>
        <time>2019-08-04T08:12:34.792Z</time>
      </trkpt>
      <trkpt lat="42.55465667" lon="1.55830667">
        <ele>1817.0</ele>
        <time>2019-08-04T08:12:35.767Z</time>
      </trkpt>
      <trkpt lat="42.55463167" lon="1.55823667">
        <ele>1817.0</ele>
        <time>2019-08-04T08:12:36.793Z</time>
      </trkpt>
      <trkpt lat="42.55463167" lon="1.55823667">
        <ele>1817.0</ele>
        <time>2019-08-04T08:12:37.768Z</time>
      </trkpt>
      <trkpt lat="42.55459667" lon="1.55817">
        <ele>1818.0</ele>
        <time>2019-08-04T08:12:38.780Z</time>
      </trkpt>
      <trkpt lat="42.55459667" lon="1.55817">
        <ele>1818.0</ele>
        <time>2019-08-04T08:12:39.804Z</time>
      </trkpt>
      <trkpt lat="42.554555" lon="1.55812">
        <ele>1818.0</ele>
        <time>2019-08-04T08:12:40.765Z</time>
      </trkpt>
      <trkpt lat="42.554555" lon="1.55812">
        <ele>1818.0</ele>
        <time>2019-08-04T08:12:41.791Z</time>
      </trkpt>
      <trkpt lat="42.554515" lon="1.55805833">
        <ele>1818.0</ele>
        <time>2019-08-04T08:12:42.794Z</time>
      </trkpt>
      <trkpt lat="42.554515" lon="1.55805833">
        <ele>1818.0</ele>
        <time>2019-08-04T08:12:43.791Z</time>
      </trkpt>
      <trkpt lat="42.554475" lon="1.558">
        <ele>1819.0</ele>
        <time>2019-08-04T08:12:44.793Z</time>
      </trkpt>
      <trkpt lat="42.554455" lon="1.55796833">
        <ele>1819.0</ele>
        <time>2019-08-04T08:12:45.795Z</time>
      </trkpt>
      <trkpt lat="42.554455" lon="1.55796833">
        <ele>1819.0</ele>
        <time>2019-08-04T08:12:46.792Z</time>
      </trkpt>
      <trkpt lat="42.55441167" lon="1.55790333">
        <ele>1819.0</ele>
        <time>2019-08-04T08:12:47.793Z</time>
      </trkpt>
      <trkpt lat="42.55439333" lon="1.55787667">
        <ele>1820.0</ele>
        <time>2019-08-04T08:12:48.774Z</time>
      </trkpt>
      <trkpt lat="42.55439333" lon="1.55787667">
        <ele>1820.0</ele>
        <time>2019-08-04T08:12:49.791Z</time>
      </trkpt>
      <trkpt lat="42.55435333" lon="1.557825">
        <ele>1820.0</ele>
        <time>2019-08-04T08:12:50.794Z</time>
      </trkpt>
      <trkpt lat="42.55435333" lon="1.557825">
        <ele>1820.0</ele>
        <time>2019-08-04T08:12:51.791Z</time>
      </trkpt>
      <trkpt lat="42.554315" lon="1.55777">
        <ele>1820.0</ele>
        <time>2019-08-04T08:12:52.782Z</time>
      </trkpt>
      <trkpt lat="42.554295" lon="1.55774167">
        <ele>1820.0</ele>
        <time>2019-08-04T08:12:53.804Z</time>
      </trkpt>
      <trkpt lat="42.55427" lon="1.55771833">
        <ele>1820.0</ele>
        <time>2019-08-04T08:12:54.795Z</time>
      </trkpt>
      <trkpt lat="42.55427" lon="1.55771833">
        <ele>1820.0</ele>
        <time>2019-08-04T08:12:55.790Z</time>
      </trkpt>
      <trkpt lat="42.55422667" lon="1.55766167">
        <ele>1821.0</ele>
        <time>2019-08-04T08:12:56.794Z</time>
      </trkpt>
      <trkpt lat="42.55422667" lon="1.55766167">
        <ele>1821.0</ele>
        <time>2019-08-04T08:12:57.781Z</time>
      </trkpt>
      <trkpt lat="42.55418333" lon="1.55761">
        <ele>1821.0</ele>
        <time>2019-08-04T08:12:58.776Z</time>
      </trkpt>
      <trkpt lat="42.55418333" lon="1.55761">
        <ele>1821.0</ele>
        <time>2019-08-04T08:12:59.792Z</time>
      </trkpt>
      <trkpt lat="42.55414167" lon="1.55756333">
        <ele>1821.0</ele>
        <time>2019-08-04T08:13:00.794Z</time>
      </trkpt>
      <trkpt lat="42.55414167" lon="1.55756333">
        <ele>1821.0</ele>
        <time>2019-08-04T08:13:01.791Z</time>
      </trkpt>
      <trkpt lat="42.554105" lon="1.55751">
        <ele>1822.0</ele>
        <time>2019-08-04T08:13:02.799Z</time>
      </trkpt>
      <trkpt lat="42.554105" lon="1.55751">
        <ele>1822.0</ele>
        <time>2019-08-04T08:13:03.767Z</time>
      </trkpt>
      <trkpt lat="42.55406333" lon="1.55746">
        <ele>1822.0</ele>
        <time>2019-08-04T08:13:04.793Z</time>
      </trkpt>
      <trkpt lat="42.55406333" lon="1.55746">
        <ele>1822.0</ele>
        <time>2019-08-04T08:13:05.766Z</time>
      </trkpt>
      <trkpt lat="42.55401833" lon="1.55741333">
        <ele>1822.0</ele>
        <time>2019-08-04T08:13:06.784Z</time>
      </trkpt>
      <trkpt lat="42.55401833" lon="1.55741333">
        <ele>1822.0</ele>
        <time>2019-08-04T08:13:07.790Z</time>
      </trkpt>
      <trkpt lat="42.553975" lon="1.55736">
        <ele>1822.0</ele>
        <time>2019-08-04T08:13:08.777Z</time>
      </trkpt>
      <trkpt lat="42.553975" lon="1.55736">
        <ele>1822.0</ele>
        <time>2019-08-04T08:13:09.804Z</time>
      </trkpt>
      <trkpt lat="42.553925" lon="1.55731667">
        <ele>1823.0</ele>
        <time>2019-08-04T08:13:10.793Z</time>
      </trkpt>
      <trkpt lat="42.553925" lon="1.55731667">
        <ele>1823.0</ele>
        <time>2019-08-04T08:13:11.791Z</time>
      </trkpt>
      <trkpt lat="42.55387833" lon="1.55728">
        <ele>1823.0</ele>
        <time>2019-08-04T08:13:12.797Z</time>
      </trkpt>
      <trkpt lat="42.55387833" lon="1.55728">
        <ele>1823.0</ele>
        <time>2019-08-04T08:13:13.791Z</time>
      </trkpt>
      <trkpt lat="42.55383" lon="1.55723333">
        <ele>1823.0</ele>
        <time>2019-08-04T08:13:14.795Z</time>
      </trkpt>
      <trkpt lat="42.55383" lon="1.55723333">
        <ele>1823.0</ele>
        <time>2019-08-04T08:13:15.792Z</time>
      </trkpt>
      <trkpt lat="42.55377833" lon="1.55718833">
        <ele>1823.0</ele>
        <time>2019-08-04T08:13:16.795Z</time>
      </trkpt>
      <trkpt lat="42.55377833" lon="1.55718833">
        <ele>1823.0</ele>
        <time>2019-08-04T08:13:17.791Z</time>
      </trkpt>
      <trkpt lat="42.55372833" lon="1.55714333">
        <ele>1824.0</ele>
        <time>2019-08-04T08:13:18.778Z</time>
      </trkpt>
      <trkpt lat="42.55372833" lon="1.55714333">
        <ele>1824.0</ele>
        <time>2019-08-04T08:13:19.794Z</time>
      </trkpt>
      <trkpt lat="42.55368" lon="1.55709">
        <ele>1824.0</ele>
        <time>2019-08-04T08:13:20.791Z</time>
      </trkpt>
      <trkpt lat="42.55368" lon="1.55709">
        <ele>1824.0</ele>
        <time>2019-08-04T08:13:21.774Z</time>
      </trkpt>
      <trkpt lat="42.55363333" lon="1.55703667">
        <ele>1824.0</ele>
        <time>2019-08-04T08:13:22.795Z</time>
      </trkpt>
      <trkpt lat="42.55361167" lon="1.55700667">
        <ele>1824.0</ele>
        <time>2019-08-04T08:13:23.795Z</time>
      </trkpt>
      <trkpt lat="42.55359" lon="1.55697833">
        <ele>1824.0</ele>
        <time>2019-08-04T08:13:24.795Z</time>
      </trkpt>
      <trkpt lat="42.55359" lon="1.55697833">
        <ele>1824.0</ele>
        <time>2019-08-04T08:13:25.788Z</time>
      </trkpt>
      <trkpt lat="42.55355167" lon="1.55690833">
        <ele>1824.0</ele>
        <time>2019-08-04T08:13:26.773Z</time>
      </trkpt>
      <trkpt lat="42.55355167" lon="1.55690833">
        <ele>1824.0</ele>
        <time>2019-08-04T08:13:27.795Z</time>
      </trkpt>
      <trkpt lat="42.55352" lon="1.55684">
        <ele>1824.0</ele>
        <time>2019-08-04T08:13:28.778Z</time>
      </trkpt>
      <trkpt lat="42.55352" lon="1.55684">
        <ele>1824.0</ele>
        <time>2019-08-04T08:13:29.795Z</time>
      </trkpt>
      <trkpt lat="42.55348667" lon="1.55677167">
        <ele>1824.0</ele>
        <time>2019-08-04T08:13:30.795Z</time>
      </trkpt>
      <trkpt lat="42.55348667" lon="1.55677167">
        <ele>1824.0</ele>
        <time>2019-08-04T08:13:31.791Z</time>
      </trkpt>
      <trkpt lat="42.55345833" lon="1.556705">
        <ele>1824.0</ele>
        <time>2019-08-04T08:13:32.771Z</time>
      </trkpt>
      <trkpt lat="42.55345833" lon="1.556705">
        <ele>1824.0</ele>
        <time>2019-08-04T08:13:33.794Z</time>
      </trkpt>
      <trkpt lat="42.55343167" lon="1.556635">
        <ele>1825.0</ele>
        <time>2019-08-04T08:13:34.794Z</time>
      </trkpt>
      <trkpt lat="42.553415" lon="1.55659833">
        <ele>1825.0</ele>
        <time>2019-08-04T08:13:35.769Z</time>
      </trkpt>
      <trkpt lat="42.553415" lon="1.55659833">
        <ele>1825.0</ele>
        <time>2019-08-04T08:13:36.792Z</time>
      </trkpt>
      <trkpt lat="42.55337833" lon="1.55652833">
        <ele>1825.0</ele>
        <time>2019-08-04T08:13:37.794Z</time>
      </trkpt>
      <trkpt lat="42.55336" lon="1.55649667">
        <ele>1825.0</ele>
        <time>2019-08-04T08:13:38.790Z</time>
      </trkpt>
      <trkpt lat="42.55336" lon="1.55649667">
        <ele>1825.0</ele>
        <time>2019-08-04T08:13:39.769Z</time>
      </trkpt>
      <trkpt lat="42.553325" lon="1.55643333">
        <ele>1825.0</ele>
        <time>2019-08-04T08:13:40.793Z</time>
      </trkpt>
      <trkpt lat="42.55331" lon="1.55639667">
        <ele>1826.0</ele>
        <time>2019-08-04T08:13:41.769Z</time>
      </trkpt>
      <trkpt lat="42.553295" lon="1.55635833">
        <ele>1826.0</ele>
        <time>2019-08-04T08:13:42.795Z</time>
      </trkpt>
      <trkpt lat="42.553295" lon="1.55635833">
        <ele>1826.0</ele>
        <time>2019-08-04T08:13:43.792Z</time>
      </trkpt>
      <trkpt lat="42.553265" lon="1.55628167">
        <ele>1826.0</ele>
        <time>2019-08-04T08:13:44.792Z</time>
      </trkpt>
      <trkpt lat="42.553265" lon="1.55628167">
        <ele>1826.0</ele>
        <time>2019-08-04T08:13:45.788Z</time>
      </trkpt>
      <trkpt lat="42.55323333" lon="1.5562">
        <ele>1826.0</ele>
        <time>2019-08-04T08:13:46.793Z</time>
      </trkpt>
      <trkpt lat="42.55323333" lon="1.5562">
        <ele>1826.0</ele>
        <time>2019-08-04T08:13:47.789Z</time>
      </trkpt>
      <trkpt lat="42.55320333" lon="1.55612167">
        <ele>1826.0</ele>
        <time>2019-08-04T08:13:48.776Z</time>
      </trkpt>
      <trkpt lat="42.55320333" lon="1.55612167">
        <ele>1826.0</ele>
        <time>2019-08-04T08:13:49.792Z</time>
      </trkpt>
      <trkpt lat="42.55316833" lon="1.55605">
        <ele>1827.0</ele>
        <time>2019-08-04T08:13:50.792Z</time>
      </trkpt>
      <trkpt lat="42.55316833" lon="1.55605">
        <ele>1827.0</ele>
        <time>2019-08-04T08:13:51.792Z</time>
      </trkpt>
      <trkpt lat="42.553135" lon="1.55598">
        <ele>1827.0</ele>
        <time>2019-08-04T08:13:52.793Z</time>
      </trkpt>
      <trkpt lat="42.55311833" lon="1.555945">
        <ele>1827.0</ele>
        <time>2019-08-04T08:13:53.795Z</time>
      </trkpt>
      <trkpt lat="42.55310167" lon="1.555905">
        <ele>1827.0</ele>
        <time>2019-08-04T08:13:54.796Z</time>
      </trkpt>
      <trkpt lat="42.55310167" lon="1.555905">
        <ele>1827.0</ele>
        <time>2019-08-04T08:13:55.791Z</time>
      </trkpt>
      <trkpt lat="42.55306833" lon="1.55583167">
        <ele>1828.0</ele>
        <time>2019-08-04T08:13:56.773Z</time>
      </trkpt>
      <trkpt lat="42.55306833" lon="1.55583167">
        <ele>1828.0</ele>
        <time>2019-08-04T08:13:57.796Z</time>
      </trkpt>
      <trkpt lat="42.55304" lon="1.555755">
        <ele>1828.0</ele>
        <time>2019-08-04T08:13:58.772Z</time>
      </trkpt>
      <trkpt lat="42.55304" lon="1.555755">
        <ele>1828.0</ele>
        <time>2019-08-04T08:13:59.792Z</time>
      </trkpt>
      <trkpt lat="42.553015" lon="1.55568">
        <ele>1828.0</ele>
        <time>2019-08-04T08:14:00.795Z</time>
      </trkpt>
      <trkpt lat="42.553015" lon="1.55568">
        <ele>1828.0</ele>
        <time>2019-08-04T08:14:01.790Z</time>
      </trkpt>
      <trkpt lat="42.55298667" lon="1.55561">
        <ele>1828.0</ele>
        <time>2019-08-04T08:14:02.795Z</time>
      </trkpt>
      <trkpt lat="42.552975" lon="1.55557333">
        <ele>1828.0</ele>
        <time>2019-08-04T08:14:03.774Z</time>
      </trkpt>
      <trkpt lat="42.552975" lon="1.55557333">
        <ele>1828.0</ele>
        <time>2019-08-04T08:14:04.795Z</time>
      </trkpt>
      <trkpt lat="42.55295333" lon="1.555495">
        <ele>1829.0</ele>
        <time>2019-08-04T08:14:05.801Z</time>
      </trkpt>
      <trkpt lat="42.55295333" lon="1.555495">
        <ele>1829.0</ele>
        <time>2019-08-04T08:14:06.777Z</time>
      </trkpt>
      <trkpt lat="42.552935" lon="1.55541667">
        <ele>1829.0</ele>
        <time>2019-08-04T08:14:07.785Z</time>
      </trkpt>
      <trkpt lat="42.552925" lon="1.55537833">
        <ele>1830.0</ele>
        <time>2019-08-04T08:14:08.770Z</time>
      </trkpt>
      <trkpt lat="42.552925" lon="1.55537833">
        <ele>1830.0</ele>
        <time>2019-08-04T08:14:09.792Z</time>
      </trkpt>
      <trkpt lat="42.55291" lon="1.55530167">
        <ele>1830.0</ele>
        <time>2019-08-04T08:14:10.768Z</time>
      </trkpt>
      <trkpt lat="42.55291" lon="1.55530167">
        <ele>1830.0</ele>
        <time>2019-08-04T08:14:11.792Z</time>
      </trkpt>
      <trkpt lat="42.552895" lon="1.55522167">
        <ele>1830.0</ele>
        <time>2019-08-04T08:14:12.794Z</time>
      </trkpt>
      <trkpt lat="42.552895" lon="1.55522167">
        <ele>1830.0</ele>
        <time>2019-08-04T08:14:13.792Z</time>
      </trkpt>
      <trkpt lat="42.55288" lon="1.55514833">
        <ele>1831.0</ele>
        <time>2019-08-04T08:14:14.792Z</time>
      </trkpt>
      <trkpt lat="42.55288" lon="1.55514833">
        <ele>1831.0</ele>
        <time>2019-08-04T08:14:15.768Z</time>
      </trkpt>
      <trkpt lat="42.552865" lon="1.55506667">
        <ele>1831.0</ele>
        <time>2019-08-04T08:14:16.796Z</time>
      </trkpt>
      <trkpt lat="42.55286" lon="1.55503">
        <ele>1831.0</ele>
        <time>2019-08-04T08:14:17.795Z</time>
      </trkpt>
      <trkpt lat="42.55285333" lon="1.55499">
        <ele>1831.0</ele>
        <time>2019-08-04T08:14:18.776Z</time>
      </trkpt>
      <trkpt lat="42.55285333" lon="1.55499">
        <ele>1831.0</ele>
        <time>2019-08-04T08:14:19.792Z</time>
      </trkpt>
      <trkpt lat="42.55284167" lon="1.55490667">
        <ele>1832.0</ele>
        <time>2019-08-04T08:14:20.796Z</time>
      </trkpt>
      <trkpt lat="42.55284167" lon="1.55490667">
        <ele>1832.0</ele>
        <time>2019-08-04T08:14:21.789Z</time>
      </trkpt>
      <trkpt lat="42.55282833" lon="1.55482667">
        <ele>1832.0</ele>
        <time>2019-08-04T08:14:22.769Z</time>
      </trkpt>
      <trkpt lat="42.55282167" lon="1.55478833">
        <ele>1832.0</ele>
        <time>2019-08-04T08:14:23.794Z</time>
      </trkpt>
      <trkpt lat="42.55282167" lon="1.55478833">
        <ele>1832.0</ele>
        <time>2019-08-04T08:14:24.771Z</time>
      </trkpt>
      <trkpt lat="42.55281333" lon="1.55470833">
        <ele>1833.0</ele>
        <time>2019-08-04T08:14:25.794Z</time>
      </trkpt>
      <trkpt lat="42.55281333" lon="1.55466833">
        <ele>1833.0</ele>
        <time>2019-08-04T08:14:26.792Z</time>
      </trkpt>
      <trkpt lat="42.55281333" lon="1.55466833">
        <ele>1833.0</ele>
        <time>2019-08-04T08:14:27.792Z</time>
      </trkpt>
      <trkpt lat="42.55280833" lon="1.55458167">
        <ele>1834.0</ele>
        <time>2019-08-04T08:14:28.778Z</time>
      </trkpt>
      <trkpt lat="42.55280833" lon="1.55458167">
        <ele>1834.0</ele>
        <time>2019-08-04T08:14:29.801Z</time>
      </trkpt>
      <trkpt lat="42.55280833" lon="1.55449833">
        <ele>1835.0</ele>
        <time>2019-08-04T08:14:30.795Z</time>
      </trkpt>
      <trkpt lat="42.55280833" lon="1.55449833">
        <ele>1835.0</ele>
        <time>2019-08-04T08:14:31.792Z</time>
      </trkpt>
      <trkpt lat="42.55280667" lon="1.55442667">
        <ele>1836.0</ele>
        <time>2019-08-04T08:14:32.803Z</time>
      </trkpt>
      <trkpt lat="42.55280667" lon="1.55442667">
        <ele>1836.0</ele>
        <time>2019-08-04T08:14:33.794Z</time>
      </trkpt>
      <trkpt lat="42.55281" lon="1.55434667">
        <ele>1837.0</ele>
        <time>2019-08-04T08:14:34.792Z</time>
      </trkpt>
      <trkpt lat="42.55281" lon="1.55434667">
        <ele>1837.0</ele>
        <time>2019-08-04T08:14:35.792Z</time>
      </trkpt>
      <trkpt lat="42.55281333" lon="1.55427">
        <ele>1837.0</ele>
        <time>2019-08-04T08:14:36.797Z</time>
      </trkpt>
      <trkpt lat="42.55281333" lon="1.55427">
        <ele>1837.0</ele>
        <time>2019-08-04T08:14:37.789Z</time>
      </trkpt>
      <trkpt lat="42.552815" lon="1.554185">
        <ele>1838.0</ele>
        <time>2019-08-04T08:14:38.771Z</time>
      </trkpt>
      <trkpt lat="42.552815" lon="1.554185">
        <ele>1838.0</ele>
        <time>2019-08-04T08:14:39.792Z</time>
      </trkpt>
      <trkpt lat="42.55282667" lon="1.55410333">
        <ele>1838.0</ele>
        <time>2019-08-04T08:14:40.796Z</time>
      </trkpt>
      <trkpt lat="42.55282667" lon="1.55410333">
        <ele>1838.0</ele>
        <time>2019-08-04T08:14:41.793Z</time>
      </trkpt>
      <trkpt lat="42.55283667" lon="1.55402167">
        <ele>1839.0</ele>
        <time>2019-08-04T08:14:42.795Z</time>
      </trkpt>
      <trkpt lat="42.55283667" lon="1.55402167">
        <ele>1839.0</ele>
        <time>2019-08-04T08:14:43.772Z</time>
      </trkpt>
      <trkpt lat="42.55284667" lon="1.55393167">
        <ele>1840.0</ele>
        <time>2019-08-04T08:14:44.796Z</time>
      </trkpt>
      <trkpt lat="42.55284667" lon="1.55393167">
        <ele>1840.0</ele>
        <time>2019-08-04T08:14:45.791Z</time>
      </trkpt>
      <trkpt lat="42.55285667" lon="1.55383667">
        <ele>1841.0</ele>
        <time>2019-08-04T08:14:46.794Z</time>
      </trkpt>
      <trkpt lat="42.55285667" lon="1.55383667">
        <ele>1841.0</ele>
        <time>2019-08-04T08:14:47.792Z</time>
      </trkpt>
      <trkpt lat="42.55286833" lon="1.55374667">
        <ele>1842.0</ele>
        <time>2019-08-04T08:14:48.773Z</time>
      </trkpt>
      <trkpt lat="42.55286833" lon="1.55374667">
        <ele>1842.0</ele>
        <time>2019-08-04T08:14:49.790Z</time>
      </trkpt>
      <trkpt lat="42.55287333" lon="1.55367">
        <ele>1842.0</ele>
        <time>2019-08-04T08:14:50.770Z</time>
      </trkpt>
      <trkpt lat="42.55287333" lon="1.55367">
        <ele>1842.0</ele>
        <time>2019-08-04T08:14:51.792Z</time>
      </trkpt>
      <trkpt lat="42.552875" lon="1.55358333">
        <ele>1843.0</ele>
        <time>2019-08-04T08:14:52.795Z</time>
      </trkpt>
      <trkpt lat="42.552875" lon="1.55358333">
        <ele>1843.0</ele>
        <time>2019-08-04T08:14:53.790Z</time>
      </trkpt>
      <trkpt lat="42.55287" lon="1.5535">
        <ele>1844.0</ele>
        <time>2019-08-04T08:14:54.805Z</time>
      </trkpt>
      <trkpt lat="42.55287" lon="1.5535">
        <ele>1844.0</ele>
        <time>2019-08-04T08:14:55.791Z</time>
      </trkpt>
      <trkpt lat="42.55287167" lon="1.55342167">
        <ele>1844.0</ele>
        <time>2019-08-04T08:14:56.775Z</time>
      </trkpt>
      <trkpt lat="42.55287167" lon="1.55342167">
        <ele>1844.0</ele>
        <time>2019-08-04T08:14:57.791Z</time>
      </trkpt>
      <trkpt lat="42.55286" lon="1.553345">
        <ele>1845.0</ele>
        <time>2019-08-04T08:14:58.772Z</time>
      </trkpt>
      <trkpt lat="42.55286" lon="1.553345">
        <ele>1845.0</ele>
        <time>2019-08-04T08:14:59.792Z</time>
      </trkpt>
      <trkpt lat="42.55285" lon="1.55326833">
        <ele>1845.0</ele>
        <time>2019-08-04T08:15:00.772Z</time>
      </trkpt>
      <trkpt lat="42.55284" lon="1.55322667">
        <ele>1845.0</ele>
        <time>2019-08-04T08:15:01.803Z</time>
      </trkpt>
      <trkpt lat="42.55284" lon="1.55322667">
        <ele>1845.0</ele>
        <time>2019-08-04T08:15:02.790Z</time>
      </trkpt>
      <trkpt lat="42.55282667" lon="1.553145">
        <ele>1846.0</ele>
        <time>2019-08-04T08:15:03.770Z</time>
      </trkpt>
      <trkpt lat="42.55282667" lon="1.553145">
        <ele>1846.0</ele>
        <time>2019-08-04T08:15:04.797Z</time>
      </trkpt>
      <trkpt lat="42.55281167" lon="1.55306167">
        <ele>1846.0</ele>
        <time>2019-08-04T08:15:05.767Z</time>
      </trkpt>
      <trkpt lat="42.55280167" lon="1.553025">
        <ele>1846.0</ele>
        <time>2019-08-04T08:15:06.772Z</time>
      </trkpt>
      <trkpt lat="42.55280167" lon="1.553025">
        <ele>1846.0</ele>
        <time>2019-08-04T08:15:07.778Z</time>
      </trkpt>
      <trkpt lat="42.55277833" lon="1.552945">
        <ele>1847.0</ele>
        <time>2019-08-04T08:15:08.770Z</time>
      </trkpt>
      <trkpt lat="42.55277833" lon="1.552945">
        <ele>1847.0</ele>
        <time>2019-08-04T08:15:09.792Z</time>
      </trkpt>
      <trkpt lat="42.55276333" lon="1.55287">
        <ele>1847.0</ele>
        <time>2019-08-04T08:15:10.769Z</time>
      </trkpt>
      <trkpt lat="42.55276333" lon="1.55287">
        <ele>1847.0</ele>
        <time>2019-08-04T08:15:11.790Z</time>
      </trkpt>
      <trkpt lat="42.55273833" lon="1.55279833">
        <ele>1848.0</ele>
        <time>2019-08-04T08:15:12.770Z</time>
      </trkpt>
      <trkpt lat="42.55273833" lon="1.55279833">
        <ele>1848.0</ele>
        <time>2019-08-04T08:15:13.792Z</time>
      </trkpt>
      <trkpt lat="42.55271167" lon="1.55272167">
        <ele>1848.0</ele>
        <time>2019-08-04T08:15:14.796Z</time>
      </trkpt>
      <trkpt lat="42.55271167" lon="1.55272167">
        <ele>1848.0</ele>
        <time>2019-08-04T08:15:15.791Z</time>
      </trkpt>
      <trkpt lat="42.55268167" lon="1.55265333">
        <ele>1849.0</ele>
        <time>2019-08-04T08:15:16.796Z</time>
      </trkpt>
      <trkpt lat="42.55266833" lon="1.55262">
        <ele>1849.0</ele>
        <time>2019-08-04T08:15:17.796Z</time>
      </trkpt>
      <trkpt lat="42.55265333" lon="1.55258833">
        <ele>1849.0</ele>
        <time>2019-08-04T08:15:18.779Z</time>
      </trkpt>
      <trkpt lat="42.55265333" lon="1.55258833">
        <ele>1849.0</ele>
        <time>2019-08-04T08:15:19.795Z</time>
      </trkpt>
      <trkpt lat="42.55262" lon="1.55252333">
        <ele>1850.0</ele>
        <time>2019-08-04T08:15:20.796Z</time>
      </trkpt>
      <trkpt lat="42.55259833" lon="1.55249333">
        <ele>1850.0</ele>
        <time>2019-08-04T08:15:21.775Z</time>
      </trkpt>
      <trkpt lat="42.55259833" lon="1.55249333">
        <ele>1850.0</ele>
        <time>2019-08-04T08:15:22.792Z</time>
      </trkpt>
      <trkpt lat="42.55255833" lon="1.55243">
        <ele>1850.0</ele>
        <time>2019-08-04T08:15:23.772Z</time>
      </trkpt>
      <trkpt lat="42.55254" lon="1.5524">
        <ele>1850.0</ele>
        <time>2019-08-04T08:15:24.796Z</time>
      </trkpt>
      <trkpt lat="42.55254" lon="1.5524">
        <ele>1850.0</ele>
        <time>2019-08-04T08:15:25.771Z</time>
      </trkpt>
      <trkpt lat="42.552505" lon="1.55233833">
        <ele>1851.0</ele>
        <time>2019-08-04T08:15:26.768Z</time>
      </trkpt>
      <trkpt lat="42.552505" lon="1.55233833">
        <ele>1851.0</ele>
        <time>2019-08-04T08:15:27.792Z</time>
      </trkpt>
      <trkpt lat="42.552465" lon="1.55227667">
        <ele>1851.0</ele>
        <time>2019-08-04T08:15:28.780Z</time>
      </trkpt>
      <trkpt lat="42.552465" lon="1.55227667">
        <ele>1851.0</ele>
        <time>2019-08-04T08:15:29.802Z</time>
      </trkpt>
      <trkpt lat="42.55242833" lon="1.55221167">
        <ele>1851.0</ele>
        <time>2019-08-04T08:15:30.796Z</time>
      </trkpt>
      <trkpt lat="42.55242833" lon="1.55221167">
        <ele>1851.0</ele>
        <time>2019-08-04T08:15:31.792Z</time>
      </trkpt>
      <trkpt lat="42.55238833" lon="1.55214167">
        <ele>1852.0</ele>
        <time>2019-08-04T08:15:32.801Z</time>
      </trkpt>
      <trkpt lat="42.55238833" lon="1.55214167">
        <ele>1852.0</ele>
        <time>2019-08-04T08:15:33.794Z</time>
      </trkpt>
      <trkpt lat="42.55234833" lon="1.55208333">
        <ele>1851.0</ele>
        <time>2019-08-04T08:15:34.795Z</time>
      </trkpt>
      <trkpt lat="42.55234833" lon="1.55208333">
        <ele>1851.0</ele>
        <time>2019-08-04T08:15:35.792Z</time>
      </trkpt>
      <trkpt lat="42.55229667" lon="1.55203">
        <ele>1852.0</ele>
        <time>2019-08-04T08:15:36.772Z</time>
      </trkpt>
      <trkpt lat="42.55229667" lon="1.55203">
        <ele>1852.0</ele>
        <time>2019-08-04T08:15:37.797Z</time>
      </trkpt>
      <trkpt lat="42.55224167" lon="1.55198333">
        <ele>1852.0</ele>
        <time>2019-08-04T08:15:38.770Z</time>
      </trkpt>
      <trkpt lat="42.55224167" lon="1.55198333">
        <ele>1852.0</ele>
        <time>2019-08-04T08:15:39.792Z</time>
      </trkpt>
      <trkpt lat="42.552175" lon="1.55197167">
        <ele>1852.0</ele>
        <time>2019-08-04T08:15:40.795Z</time>
      </trkpt>
      <trkpt lat="42.552175" lon="1.55197167">
        <ele>1852.0</ele>
        <time>2019-08-04T08:15:41.790Z</time>
      </trkpt>
      <trkpt lat="42.55212" lon="1.55201167">
        <ele>1852.0</ele>
        <time>2019-08-04T08:15:42.777Z</time>
      </trkpt>
      <trkpt lat="42.55212" lon="1.55201167">
        <ele>1852.0</ele>
        <time>2019-08-04T08:15:43.793Z</time>
      </trkpt>
      <trkpt lat="42.55209167" lon="1.55209667">
        <ele>1852.0</ele>
        <time>2019-08-04T08:15:44.797Z</time>
      </trkpt>
      <trkpt lat="42.55209167" lon="1.55209667">
        <ele>1852.0</ele>
        <time>2019-08-04T08:15:45.792Z</time>
      </trkpt>
      <trkpt lat="42.55210833" lon="1.55218667">
        <ele>1852.0</ele>
        <time>2019-08-04T08:15:46.775Z</time>
      </trkpt>
      <trkpt lat="42.55210833" lon="1.55218667">
        <ele>1852.0</ele>
        <time>2019-08-04T08:15:47.797Z</time>
      </trkpt>
      <trkpt lat="42.55214833" lon="1.55225667">
        <ele>1852.0</ele>
        <time>2019-08-04T08:15:48.776Z</time>
      </trkpt>
      <trkpt lat="42.55214833" lon="1.55225667">
        <ele>1852.0</ele>
        <time>2019-08-04T08:15:49.795Z</time>
      </trkpt>
      <trkpt lat="42.552195" lon="1.552315">
        <ele>1852.0</ele>
        <time>2019-08-04T08:15:50.797Z</time>
      </trkpt>
      <trkpt lat="42.552195" lon="1.552315">
        <ele>1852.0</ele>
        <time>2019-08-04T08:15:51.775Z</time>
      </trkpt>
      <trkpt lat="42.55223833" lon="1.55237">
        <ele>1852.0</ele>
        <time>2019-08-04T08:15:52.797Z</time>
      </trkpt>
      <trkpt lat="42.55225667" lon="1.55239833">
        <ele>1852.0</ele>
        <time>2019-08-04T08:15:53.796Z</time>
      </trkpt>
      <trkpt lat="42.55225667" lon="1.55239833">
        <ele>1852.0</ele>
        <time>2019-08-04T08:15:54.772Z</time>
      </trkpt>
      <trkpt lat="42.55229833" lon="1.55245833">
        <ele>1852.0</ele>
        <time>2019-08-04T08:15:55.795Z</time>
      </trkpt>
      <trkpt lat="42.55231667" lon="1.55249333">
        <ele>1852.0</ele>
        <time>2019-08-04T08:15:56.796Z</time>
      </trkpt>
      <trkpt lat="42.55231667" lon="1.55249333">
        <ele>1852.0</ele>
        <time>2019-08-04T08:15:57.790Z</time>
      </trkpt>
      <trkpt lat="42.55234667" lon="1.552565">
        <ele>1852.0</ele>
        <time>2019-08-04T08:15:58.771Z</time>
      </trkpt>
      <trkpt lat="42.55234667" lon="1.552565">
        <ele>1852.0</ele>
        <time>2019-08-04T08:15:59.792Z</time>
      </trkpt>
      <trkpt lat="42.55237" lon="1.55264167">
        <ele>1852.0</ele>
        <time>2019-08-04T08:16:00.771Z</time>
      </trkpt>
      <trkpt lat="42.55237" lon="1.55264167">
        <ele>1852.0</ele>
        <time>2019-08-04T08:16:01.789Z</time>
      </trkpt>
      <trkpt lat="42.55238167" lon="1.55272167">
        <ele>1852.0</ele>
        <time>2019-08-04T08:16:02.770Z</time>
      </trkpt>
      <trkpt lat="42.55238167" lon="1.55272167">
        <ele>1852.0</ele>
        <time>2019-08-04T08:16:03.792Z</time>
      </trkpt>
      <trkpt lat="42.55238167" lon="1.55279833">
        <ele>1853.0</ele>
        <time>2019-08-04T08:16:04.772Z</time>
      </trkpt>
      <trkpt lat="42.55238167" lon="1.55279833">
        <ele>1853.0</ele>
        <time>2019-08-04T08:16:05.796Z</time>
      </trkpt>
      <trkpt lat="42.55237667" lon="1.55287667">
        <ele>1853.0</ele>
        <time>2019-08-04T08:16:06.793Z</time>
      </trkpt>
      <trkpt lat="42.55237667" lon="1.55287667">
        <ele>1853.0</ele>
        <time>2019-08-04T08:16:07.799Z</time>
      </trkpt>
      <trkpt lat="42.55237167" lon="1.552955">
        <ele>1854.0</ele>
        <time>2019-08-04T08:16:08.769Z</time>
      </trkpt>
      <trkpt lat="42.55236167" lon="1.55299">
        <ele>1854.0</ele>
        <time>2019-08-04T08:16:09.796Z</time>
      </trkpt>
      <trkpt lat="42.55234667" lon="1.553025">
        <ele>1855.0</ele>
        <time>2019-08-04T08:16:10.797Z</time>
      </trkpt>
      <trkpt lat="42.55234667" lon="1.553025">
        <ele>1855.0</ele>
        <time>2019-08-04T08:16:11.792Z</time>
      </trkpt>
      <trkpt lat="42.55231833" lon="1.553095">
        <ele>1856.0</ele>
        <time>2019-08-04T08:16:12.794Z</time>
      </trkpt>
      <trkpt lat="42.55231833" lon="1.553095">
        <ele>1856.0</ele>
        <time>2019-08-04T08:16:13.771Z</time>
      </trkpt>
      <trkpt lat="42.552285" lon="1.55316167">
        <ele>1857.0</ele>
        <time>2019-08-04T08:16:14.803Z</time>
      </trkpt>
      <trkpt lat="42.552285" lon="1.55316167">
        <ele>1857.0</ele>
        <time>2019-08-04T08:16:15.793Z</time>
      </trkpt>
      <trkpt lat="42.55225667" lon="1.55323167">
        <ele>1857.0</ele>
        <time>2019-08-04T08:16:16.796Z</time>
      </trkpt>
      <trkpt lat="42.55225667" lon="1.55323167">
        <ele>1857.0</ele>
        <time>2019-08-04T08:16:17.793Z</time>
      </trkpt>
      <trkpt lat="42.55222667" lon="1.5533">
        <ele>1858.0</ele>
        <time>2019-08-04T08:16:18.785Z</time>
      </trkpt>
      <trkpt lat="42.55222667" lon="1.5533">
        <ele>1858.0</ele>
        <time>2019-08-04T08:16:19.802Z</time>
      </trkpt>
      <trkpt lat="42.55219667" lon="1.55336333">
        <ele>1858.0</ele>
        <time>2019-08-04T08:16:20.792Z</time>
      </trkpt>
      <trkpt lat="42.55219667" lon="1.55336333">
        <ele>1858.0</ele>
        <time>2019-08-04T08:16:21.774Z</time>
      </trkpt>
      <trkpt lat="42.55217" lon="1.55342833">
        <ele>1859.0</ele>
        <time>2019-08-04T08:16:22.796Z</time>
      </trkpt>
      <trkpt lat="42.55217" lon="1.55342833">
        <ele>1859.0</ele>
        <time>2019-08-04T08:16:23.790Z</time>
      </trkpt>
      <trkpt lat="42.55214167" lon="1.55349333">
        <ele>1859.0</ele>
        <time>2019-08-04T08:16:24.789Z</time>
      </trkpt>
      <trkpt lat="42.55214167" lon="1.55349333">
        <ele>1859.0</ele>
        <time>2019-08-04T08:16:25.768Z</time>
      </trkpt>
      <trkpt lat="42.55211667" lon="1.55355333">
        <ele>1859.0</ele>
        <time>2019-08-04T08:16:26.796Z</time>
      </trkpt>
      <trkpt lat="42.55211667" lon="1.55355333">
        <ele>1859.0</ele>
        <time>2019-08-04T08:16:27.790Z</time>
      </trkpt>
      <trkpt lat="42.55209333" lon="1.55362">
        <ele>1860.0</ele>
        <time>2019-08-04T08:16:28.785Z</time>
      </trkpt>
      <trkpt lat="42.55209333" lon="1.55362">
        <ele>1860.0</ele>
        <time>2019-08-04T08:16:29.802Z</time>
      </trkpt>
      <trkpt lat="42.55208333" lon="1.55368667">
        <ele>1860.0</ele>
        <time>2019-08-04T08:16:30.793Z</time>
      </trkpt>
      <trkpt lat="42.55208333" lon="1.55368667">
        <ele>1860.0</ele>
        <time>2019-08-04T08:16:31.792Z</time>
      </trkpt>
      <trkpt lat="42.552065" lon="1.55375167">
        <ele>1860.0</ele>
        <time>2019-08-04T08:16:32.796Z</time>
      </trkpt>
      <trkpt lat="42.552065" lon="1.55375167">
        <ele>1860.0</ele>
        <time>2019-08-04T08:16:33.772Z</time>
      </trkpt>
      <trkpt lat="42.55204667" lon="1.553815">
        <ele>1861.0</ele>
        <time>2019-08-04T08:16:34.765Z</time>
      </trkpt>
      <trkpt lat="42.55204333" lon="1.55384667">
        <ele>1861.0</ele>
        <time>2019-08-04T08:16:35.797Z</time>
      </trkpt>
      <trkpt lat="42.55204333" lon="1.55384667">
        <ele>1861.0</ele>
        <time>2019-08-04T08:16:36.781Z</time>
      </trkpt>
      <trkpt lat="42.55203167" lon="1.55390667">
        <ele>1861.0</ele>
        <time>2019-08-04T08:16:37.797Z</time>
      </trkpt>
      <trkpt lat="42.552025" lon="1.55393833">
        <ele>1861.0</ele>
        <time>2019-08-04T08:16:38.784Z</time>
      </trkpt>
      <trkpt lat="42.552025" lon="1.55393833">
        <ele>1861.0</ele>
        <time>2019-08-04T08:16:39.803Z</time>
      </trkpt>
      <trkpt lat="42.552015" lon="1.55400667">
        <ele>1861.0</ele>
        <time>2019-08-04T08:16:40.795Z</time>
      </trkpt>
      <trkpt lat="42.552015" lon="1.55400667">
        <ele>1861.0</ele>
        <time>2019-08-04T08:16:41.794Z</time>
      </trkpt>
      <trkpt lat="42.552" lon="1.55408">
        <ele>1862.0</ele>
        <time>2019-08-04T08:16:42.793Z</time>
      </trkpt>
      <trkpt lat="42.552" lon="1.55408">
        <ele>1862.0</ele>
        <time>2019-08-04T08:16:43.769Z</time>
      </trkpt>
      <trkpt lat="42.55199" lon="1.55415167">
        <ele>1862.0</ele>
        <time>2019-08-04T08:16:44.771Z</time>
      </trkpt>
      <trkpt lat="42.55199" lon="1.55415167">
        <ele>1862.0</ele>
        <time>2019-08-04T08:16:45.792Z</time>
      </trkpt>
      <trkpt lat="42.55198" lon="1.554215">
        <ele>1863.0</ele>
        <time>2019-08-04T08:16:46.795Z</time>
      </trkpt>
      <trkpt lat="42.55197167" lon="1.55424833">
        <ele>1863.0</ele>
        <time>2019-08-04T08:16:47.797Z</time>
      </trkpt>
      <trkpt lat="42.551965" lon="1.55428333">
        <ele>1863.0</ele>
        <time>2019-08-04T08:16:48.786Z</time>
      </trkpt>
      <trkpt lat="42.551965" lon="1.55428333">
        <ele>1863.0</ele>
        <time>2019-08-04T08:16:49.802Z</time>
      </trkpt>
      <trkpt lat="42.55195167" lon="1.55434667">
        <ele>1863.0</ele>
        <time>2019-08-04T08:16:50.804Z</time>
      </trkpt>
      <trkpt lat="42.55195167" lon="1.55434667">
        <ele>1863.0</ele>
        <time>2019-08-04T08:16:51.793Z</time>
      </trkpt>
      <trkpt lat="42.55194167" lon="1.554415">
        <ele>1864.0</ele>
        <time>2019-08-04T08:16:52.796Z</time>
      </trkpt>
      <trkpt lat="42.55193833" lon="1.55445">
        <ele>1864.0</ele>
        <time>2019-08-04T08:16:53.772Z</time>
      </trkpt>
      <trkpt lat="42.55193833" lon="1.55445">
        <ele>1864.0</ele>
        <time>2019-08-04T08:16:54.794Z</time>
      </trkpt>
      <trkpt lat="42.55192833" lon="1.55451667">
        <ele>1864.0</ele>
        <time>2019-08-04T08:16:55.795Z</time>
      </trkpt>
      <trkpt lat="42.55192667" lon="1.55455667">
        <ele>1865.0</ele>
        <time>2019-08-04T08:16:56.797Z</time>
      </trkpt>
      <trkpt lat="42.55192667" lon="1.55455667">
        <ele>1865.0</ele>
        <time>2019-08-04T08:16:57.790Z</time>
      </trkpt>
      <trkpt lat="42.55192" lon="1.55462667">
        <ele>1865.0</ele>
        <time>2019-08-04T08:16:58.776Z</time>
      </trkpt>
      <trkpt lat="42.55192" lon="1.55462667">
        <ele>1865.0</ele>
        <time>2019-08-04T08:16:59.792Z</time>
      </trkpt>
      <trkpt lat="42.551915" lon="1.554695">
        <ele>1865.0</ele>
        <time>2019-08-04T08:17:00.799Z</time>
      </trkpt>
      <trkpt lat="42.551915" lon="1.554695">
        <ele>1865.0</ele>
        <time>2019-08-04T08:17:01.791Z</time>
      </trkpt>
      <trkpt lat="42.55191667" lon="1.554765">
        <ele>1866.0</ele>
        <time>2019-08-04T08:17:02.772Z</time>
      </trkpt>
      <trkpt lat="42.55191667" lon="1.554765">
        <ele>1866.0</ele>
        <time>2019-08-04T08:17:03.804Z</time>
      </trkpt>
      <trkpt lat="42.551925" lon="1.55484333">
        <ele>1866.0</ele>
        <time>2019-08-04T08:17:04.795Z</time>
      </trkpt>
      <trkpt lat="42.551925" lon="1.55484333">
        <ele>1866.0</ele>
        <time>2019-08-04T08:17:05.795Z</time>
      </trkpt>
      <trkpt lat="42.55193167" lon="1.55493">
        <ele>1866.0</ele>
        <time>2019-08-04T08:17:06.790Z</time>
      </trkpt>
      <trkpt lat="42.55193333" lon="1.55496833">
        <ele>1867.0</ele>
        <time>2019-08-04T08:17:07.796Z</time>
      </trkpt>
      <trkpt lat="42.55193833" lon="1.55500667">
        <ele>1867.0</ele>
        <time>2019-08-04T08:17:08.777Z</time>
      </trkpt>
      <trkpt lat="42.55193833" lon="1.55500667">
        <ele>1867.0</ele>
        <time>2019-08-04T08:17:09.796Z</time>
      </trkpt>
      <trkpt lat="42.55194" lon="1.55507667">
        <ele>1867.0</ele>
        <time>2019-08-04T08:17:10.771Z</time>
      </trkpt>
      <trkpt lat="42.55194" lon="1.55507667">
        <ele>1867.0</ele>
        <time>2019-08-04T08:17:11.793Z</time>
      </trkpt>
      <trkpt lat="42.55194667" lon="1.55514667">
        <ele>1867.0</ele>
        <time>2019-08-04T08:17:12.795Z</time>
      </trkpt>
      <trkpt lat="42.55194667" lon="1.55514667">
        <ele>1867.0</ele>
        <time>2019-08-04T08:17:13.772Z</time>
      </trkpt>
      <trkpt lat="42.55195333" lon="1.55522">
        <ele>1867.0</ele>
        <time>2019-08-04T08:17:14.798Z</time>
      </trkpt>
      <trkpt lat="42.55195333" lon="1.55522">
        <ele>1867.0</ele>
        <time>2019-08-04T08:17:15.792Z</time>
      </trkpt>
      <trkpt lat="42.55196167" lon="1.55529333">
        <ele>1868.0</ele>
        <time>2019-08-04T08:17:16.772Z</time>
      </trkpt>
      <trkpt lat="42.55196167" lon="1.55529333">
        <ele>1868.0</ele>
        <time>2019-08-04T08:17:17.793Z</time>
      </trkpt>
      <trkpt lat="42.55196667" lon="1.55536333">
        <ele>1868.0</ele>
        <time>2019-08-04T08:17:18.775Z</time>
      </trkpt>
      <trkpt lat="42.55196667" lon="1.55536333">
        <ele>1868.0</ele>
        <time>2019-08-04T08:17:19.792Z</time>
      </trkpt>
      <trkpt lat="42.55197" lon="1.55543">
        <ele>1868.0</ele>
        <time>2019-08-04T08:17:20.797Z</time>
      </trkpt>
      <trkpt lat="42.55197" lon="1.55543">
        <ele>1868.0</ele>
        <time>2019-08-04T08:17:21.776Z</time>
      </trkpt>
      <trkpt lat="42.55197667" lon="1.55550667">
        <ele>1868.0</ele>
        <time>2019-08-04T08:17:22.798Z</time>
      </trkpt>
      <trkpt lat="42.55197833" lon="1.55554667">
        <ele>1868.0</ele>
        <time>2019-08-04T08:17:23.792Z</time>
      </trkpt>
      <trkpt lat="42.55198167" lon="1.555585">
        <ele>1868.0</ele>
        <time>2019-08-04T08:17:24.768Z</time>
      </trkpt>
      <trkpt lat="42.55198167" lon="1.555585">
        <ele>1868.0</ele>
        <time>2019-08-04T08:17:25.793Z</time>
      </trkpt>
      <trkpt lat="42.55198667" lon="1.55566">
        <ele>1868.0</ele>
        <time>2019-08-04T08:17:26.798Z</time>
      </trkpt>
      <trkpt lat="42.55198667" lon="1.55566">
        <ele>1868.0</ele>
        <time>2019-08-04T08:17:27.790Z</time>
      </trkpt>
      <trkpt lat="42.551995" lon="1.555735">
        <ele>1868.0</ele>
        <time>2019-08-04T08:17:28.783Z</time>
      </trkpt>
      <trkpt lat="42.551995" lon="1.555735">
        <ele>1868.0</ele>
        <time>2019-08-04T08:17:29.803Z</time>
      </trkpt>
      <trkpt lat="42.552005" lon="1.55581">
        <ele>1868.0</ele>
        <time>2019-08-04T08:17:30.800Z</time>
      </trkpt>
      <trkpt lat="42.552005" lon="1.55581">
        <ele>1868.0</ele>
        <time>2019-08-04T08:17:31.790Z</time>
      </trkpt>
      <trkpt lat="42.552025" lon="1.555885">
        <ele>1868.0</ele>
        <time>2019-08-04T08:17:32.771Z</time>
      </trkpt>
      <trkpt lat="42.552025" lon="1.555885">
        <ele>1868.0</ele>
        <time>2019-08-04T08:17:33.794Z</time>
      </trkpt>
      <trkpt lat="42.55204" lon="1.55595667">
        <ele>1868.0</ele>
        <time>2019-08-04T08:17:34.796Z</time>
      </trkpt>
      <trkpt lat="42.55205" lon="1.55599333">
        <ele>1868.0</ele>
        <time>2019-08-04T08:17:35.771Z</time>
      </trkpt>
      <trkpt lat="42.552065" lon="1.55603">
        <ele>1868.0</ele>
        <time>2019-08-04T08:17:36.793Z</time>
      </trkpt>
      <trkpt lat="42.552065" lon="1.55603">
        <ele>1868.0</ele>
        <time>2019-08-04T08:17:37.767Z</time>
      </trkpt>
      <trkpt lat="42.55208833" lon="1.55610333">
        <ele>1868.0</ele>
        <time>2019-08-04T08:17:38.774Z</time>
      </trkpt>
      <trkpt lat="42.55208833" lon="1.55610333">
        <ele>1868.0</ele>
        <time>2019-08-04T08:17:39.791Z</time>
      </trkpt>
      <trkpt lat="42.55210833" lon="1.55617333">
        <ele>1869.0</ele>
        <time>2019-08-04T08:17:40.771Z</time>
      </trkpt>
      <trkpt lat="42.55211667" lon="1.55620833">
        <ele>1869.0</ele>
        <time>2019-08-04T08:17:41.793Z</time>
      </trkpt>
      <trkpt lat="42.55212333" lon="1.55624333">
        <ele>1869.0</ele>
        <time>2019-08-04T08:17:42.770Z</time>
      </trkpt>
      <trkpt lat="42.55212333" lon="1.55624333">
        <ele>1869.0</ele>
        <time>2019-08-04T08:17:43.793Z</time>
      </trkpt>
      <trkpt lat="42.55213667" lon="1.55631833">
        <ele>1869.0</ele>
        <time>2019-08-04T08:17:44.799Z</time>
      </trkpt>
      <trkpt lat="42.55213667" lon="1.55631833">
        <ele>1869.0</ele>
        <time>2019-08-04T08:17:45.790Z</time>
      </trkpt>
      <trkpt lat="42.55214833" lon="1.55639167">
        <ele>1869.0</ele>
        <time>2019-08-04T08:17:46.770Z</time>
      </trkpt>
      <trkpt lat="42.55214833" lon="1.55639167">
        <ele>1869.0</ele>
        <time>2019-08-04T08:17:47.793Z</time>
      </trkpt>
      <trkpt lat="42.55216167" lon="1.55646333">
        <ele>1869.0</ele>
        <time>2019-08-04T08:17:48.776Z</time>
      </trkpt>
      <trkpt lat="42.55216167" lon="1.55646333">
        <ele>1869.0</ele>
        <time>2019-08-04T08:17:49.794Z</time>
      </trkpt>
      <trkpt lat="42.552175" lon="1.55653667">
        <ele>1869.0</ele>
        <time>2019-08-04T08:17:50.797Z</time>
      </trkpt>
      <trkpt lat="42.552175" lon="1.55653667">
        <ele>1869.0</ele>
        <time>2019-08-04T08:17:51.790Z</time>
      </trkpt>
      <trkpt lat="42.55219333" lon="1.55660833">
        <ele>1869.0</ele>
        <time>2019-08-04T08:17:52.771Z</time>
      </trkpt>
      <trkpt lat="42.55219333" lon="1.55660833">
        <ele>1869.0</ele>
        <time>2019-08-04T08:17:53.793Z</time>
      </trkpt>
      <trkpt lat="42.55221" lon="1.55668">
        <ele>1869.0</ele>
        <time>2019-08-04T08:17:54.798Z</time>
      </trkpt>
      <trkpt lat="42.55221" lon="1.55668">
        <ele>1869.0</ele>
        <time>2019-08-04T08:17:55.790Z</time>
      </trkpt>
      <trkpt lat="42.55222833" lon="1.55675167">
        <ele>1869.0</ele>
        <time>2019-08-04T08:17:56.770Z</time>
      </trkpt>
      <trkpt lat="42.55222833" lon="1.55675167">
        <ele>1869.0</ele>
        <time>2019-08-04T08:17:57.793Z</time>
      </trkpt>
      <trkpt lat="42.55224667" lon="1.55681833">
        <ele>1869.0</ele>
        <time>2019-08-04T08:17:58.776Z</time>
      </trkpt>
      <trkpt lat="42.55224667" lon="1.55681833">
        <ele>1869.0</ele>
        <time>2019-08-04T08:17:59.792Z</time>
      </trkpt>
      <trkpt lat="42.55226333" lon="1.55688667">
        <ele>1869.0</ele>
        <time>2019-08-04T08:18:00.772Z</time>
      </trkpt>
      <trkpt lat="42.55226333" lon="1.55688667">
        <ele>1869.0</ele>
        <time>2019-08-04T08:18:01.791Z</time>
      </trkpt>
      <trkpt lat="42.55228167" lon="1.55695333">
        <ele>1870.0</ele>
        <time>2019-08-04T08:18:02.771Z</time>
      </trkpt>
      <trkpt lat="42.55228167" lon="1.55695333">
        <ele>1870.0</ele>
        <time>2019-08-04T08:18:03.802Z</time>
      </trkpt>
      <trkpt lat="42.55230333" lon="1.55701667">
        <ele>1870.0</ele>
        <time>2019-08-04T08:18:04.797Z</time>
      </trkpt>
      <trkpt lat="42.55230333" lon="1.55701667">
        <ele>1870.0</ele>
        <time>2019-08-04T08:18:05.771Z</time>
      </trkpt>
      <trkpt lat="42.55233333" lon="1.55708333">
        <ele>1870.0</ele>
        <time>2019-08-04T08:18:06.772Z</time>
      </trkpt>
      <trkpt lat="42.55233333" lon="1.55708333">
        <ele>1870.0</ele>
        <time>2019-08-04T08:18:07.785Z</time>
      </trkpt>
      <trkpt lat="42.552365" lon="1.55714">
        <ele>1871.0</ele>
        <time>2019-08-04T08:18:08.786Z</time>
      </trkpt>
      <trkpt lat="42.552365" lon="1.55714">
        <ele>1871.0</ele>
        <time>2019-08-04T08:18:09.774Z</time>
      </trkpt>
      <trkpt lat="42.55239667" lon="1.55719667">
        <ele>1871.0</ele>
        <time>2019-08-04T08:18:10.798Z</time>
      </trkpt>
      <trkpt lat="42.55239667" lon="1.55719667">
        <ele>1871.0</ele>
        <time>2019-08-04T08:18:11.793Z</time>
      </trkpt>
      <trkpt lat="42.55242667" lon="1.55724833">
        <ele>1872.0</ele>
        <time>2019-08-04T08:18:12.797Z</time>
      </trkpt>
      <trkpt lat="42.55242667" lon="1.55724833">
        <ele>1872.0</ele>
        <time>2019-08-04T08:18:13.791Z</time>
      </trkpt>
      <trkpt lat="42.55245667" lon="1.55730167">
        <ele>1872.0</ele>
        <time>2019-08-04T08:18:14.771Z</time>
      </trkpt>
      <trkpt lat="42.55245667" lon="1.55730167">
        <ele>1872.0</ele>
        <time>2019-08-04T08:18:15.792Z</time>
      </trkpt>
      <trkpt lat="42.55248833" lon="1.55735833">
        <ele>1872.0</ele>
        <time>2019-08-04T08:18:16.772Z</time>
      </trkpt>
      <trkpt lat="42.55248833" lon="1.55735833">
        <ele>1872.0</ele>
        <time>2019-08-04T08:18:17.791Z</time>
      </trkpt>
      <trkpt lat="42.55251667" lon="1.55741667">
        <ele>1873.0</ele>
        <time>2019-08-04T08:18:18.779Z</time>
      </trkpt>
      <trkpt lat="42.55251667" lon="1.55741667">
        <ele>1873.0</ele>
        <time>2019-08-04T08:18:19.797Z</time>
      </trkpt>
      <trkpt lat="42.55254" lon="1.55748167">
        <ele>1873.0</ele>
        <time>2019-08-04T08:18:20.797Z</time>
      </trkpt>
      <trkpt lat="42.55254" lon="1.55748167">
        <ele>1873.0</ele>
        <time>2019-08-04T08:18:21.793Z</time>
      </trkpt>
      <trkpt lat="42.55256333" lon="1.55755167">
        <ele>1874.0</ele>
        <time>2019-08-04T08:18:22.795Z</time>
      </trkpt>
      <trkpt lat="42.55257167" lon="1.55758667">
        <ele>1874.0</ele>
        <time>2019-08-04T08:18:23.798Z</time>
      </trkpt>
      <trkpt lat="42.55257167" lon="1.55758667">
        <ele>1874.0</ele>
        <time>2019-08-04T08:18:24.773Z</time>
      </trkpt>
      <trkpt lat="42.55258333" lon="1.55766167">
        <ele>1875.0</ele>
        <time>2019-08-04T08:18:25.793Z</time>
      </trkpt>
      <trkpt lat="42.55258667" lon="1.55770333">
        <ele>1875.0</ele>
        <time>2019-08-04T08:18:26.776Z</time>
      </trkpt>
      <trkpt lat="42.55258667" lon="1.55770333">
        <ele>1875.0</ele>
        <time>2019-08-04T08:18:27.793Z</time>
      </trkpt>
      <trkpt lat="42.55259333" lon="1.55778333">
        <ele>1875.0</ele>
        <time>2019-08-04T08:18:28.771Z</time>
      </trkpt>
      <trkpt lat="42.55259333" lon="1.55778333">
        <ele>1875.0</ele>
        <time>2019-08-04T08:18:29.790Z</time>
      </trkpt>
      <trkpt lat="42.55259833" lon="1.55786667">
        <ele>1876.0</ele>
        <time>2019-08-04T08:18:30.774Z</time>
      </trkpt>
      <trkpt lat="42.55259833" lon="1.55786667">
        <ele>1876.0</ele>
        <time>2019-08-04T08:18:31.793Z</time>
      </trkpt>
      <trkpt lat="42.55259833" lon="1.55795167">
        <ele>1876.0</ele>
        <time>2019-08-04T08:18:32.773Z</time>
      </trkpt>
      <trkpt lat="42.55259833" lon="1.55795167">
        <ele>1876.0</ele>
        <time>2019-08-04T08:18:33.791Z</time>
      </trkpt>
      <trkpt lat="42.55259833" lon="1.55803833">
        <ele>1877.0</ele>
        <time>2019-08-04T08:18:34.770Z</time>
      </trkpt>
      <trkpt lat="42.55259833" lon="1.55803833">
        <ele>1877.0</ele>
        <time>2019-08-04T08:18:35.801Z</time>
      </trkpt>
      <trkpt lat="42.55259833" lon="1.558125">
        <ele>1877.0</ele>
        <time>2019-08-04T08:18:36.794Z</time>
      </trkpt>
      <trkpt lat="42.55259667" lon="1.55816667">
        <ele>1877.0</ele>
        <time>2019-08-04T08:18:37.771Z</time>
      </trkpt>
      <trkpt lat="42.55259667" lon="1.55821">
        <ele>1878.0</ele>
        <time>2019-08-04T08:18:38.770Z</time>
      </trkpt>
      <trkpt lat="42.55259667" lon="1.55821">
        <ele>1878.0</ele>
        <time>2019-08-04T08:18:39.793Z</time>
      </trkpt>
      <trkpt lat="42.5526" lon="1.55829333">
        <ele>1878.0</ele>
        <time>2019-08-04T08:18:40.792Z</time>
      </trkpt>
      <trkpt lat="42.5526" lon="1.55829333">
        <ele>1878.0</ele>
        <time>2019-08-04T08:18:41.768Z</time>
      </trkpt>
      <trkpt lat="42.552605" lon="1.55838">
        <ele>1879.0</ele>
        <time>2019-08-04T08:18:42.799Z</time>
      </trkpt>
      <trkpt lat="42.55260833" lon="1.55842333">
        <ele>1879.0</ele>
        <time>2019-08-04T08:18:43.798Z</time>
      </trkpt>
      <trkpt lat="42.55260833" lon="1.55842333">
        <ele>1879.0</ele>
        <time>2019-08-04T08:18:44.792Z</time>
      </trkpt>
      <trkpt lat="42.552615" lon="1.55851833">
        <ele>1879.0</ele>
        <time>2019-08-04T08:18:45.774Z</time>
      </trkpt>
      <trkpt lat="42.552615" lon="1.55851833">
        <ele>1879.0</ele>
        <time>2019-08-04T08:18:46.793Z</time>
      </trkpt>
      <trkpt lat="42.55262333" lon="1.55861333">
        <ele>1880.0</ele>
        <time>2019-08-04T08:18:47.797Z</time>
      </trkpt>
      <trkpt lat="42.55262667" lon="1.55866167">
        <ele>1880.0</ele>
        <time>2019-08-04T08:18:48.785Z</time>
      </trkpt>
      <trkpt lat="42.55262667" lon="1.55866167">
        <ele>1880.0</ele>
        <time>2019-08-04T08:18:49.805Z</time>
      </trkpt>
      <trkpt lat="42.55263" lon="1.55875">
        <ele>1881.0</ele>
        <time>2019-08-04T08:18:50.799Z</time>
      </trkpt>
      <trkpt lat="42.55263" lon="1.55875">
        <ele>1881.0</ele>
        <time>2019-08-04T08:18:51.791Z</time>
      </trkpt>
      <trkpt lat="42.55263333" lon="1.55883833">
        <ele>1881.0</ele>
        <time>2019-08-04T08:18:52.771Z</time>
      </trkpt>
      <trkpt lat="42.55263333" lon="1.55888167">
        <ele>1882.0</ele>
        <time>2019-08-04T08:18:53.798Z</time>
      </trkpt>
      <trkpt lat="42.55263333" lon="1.55892333">
        <ele>1882.0</ele>
        <time>2019-08-04T08:18:54.799Z</time>
      </trkpt>
      <trkpt lat="42.55263333" lon="1.55892333">
        <ele>1882.0</ele>
        <time>2019-08-04T08:18:55.794Z</time>
      </trkpt>
      <trkpt lat="42.55262667" lon="1.55900667">
        <ele>1883.0</ele>
        <time>2019-08-04T08:18:56.799Z</time>
      </trkpt>
      <trkpt lat="42.55262667" lon="1.55900667">
        <ele>1883.0</ele>
        <time>2019-08-04T08:18:57.794Z</time>
      </trkpt>
      <trkpt lat="42.55262" lon="1.559085">
        <ele>1884.0</ele>
        <time>2019-08-04T08:18:58.772Z</time>
      </trkpt>
      <trkpt lat="42.55262" lon="1.559085">
        <ele>1884.0</ele>
        <time>2019-08-04T08:18:59.793Z</time>
      </trkpt>
      <trkpt lat="42.55261" lon="1.55915667">
        <ele>1885.0</ele>
        <time>2019-08-04T08:19:00.799Z</time>
      </trkpt>
      <trkpt lat="42.55261" lon="1.55915667">
        <ele>1885.0</ele>
        <time>2019-08-04T08:19:01.791Z</time>
      </trkpt>
      <trkpt lat="42.55259333" lon="1.55922833">
        <ele>1886.0</ele>
        <time>2019-08-04T08:19:02.773Z</time>
      </trkpt>
      <trkpt lat="42.55259333" lon="1.55922833">
        <ele>1886.0</ele>
        <time>2019-08-04T08:19:03.793Z</time>
      </trkpt>
      <trkpt lat="42.55257833" lon="1.55929">
        <ele>1887.0</ele>
        <time>2019-08-04T08:19:04.773Z</time>
      </trkpt>
      <trkpt lat="42.55256667" lon="1.55932167">
        <ele>1888.0</ele>
        <time>2019-08-04T08:19:05.801Z</time>
      </trkpt>
      <trkpt lat="42.55256667" lon="1.55932167">
        <ele>1888.0</ele>
        <time>2019-08-04T08:19:06.788Z</time>
      </trkpt>
      <trkpt lat="42.55254667" lon="1.55939">
        <ele>1889.0</ele>
        <time>2019-08-04T08:19:07.803Z</time>
      </trkpt>
      <trkpt lat="42.55253333" lon="1.55942667">
        <ele>1890.0</ele>
        <time>2019-08-04T08:19:08.780Z</time>
      </trkpt>
      <trkpt lat="42.55253333" lon="1.55942667">
        <ele>1890.0</ele>
        <time>2019-08-04T08:19:09.796Z</time>
      </trkpt>
      <trkpt lat="42.55251333" lon="1.55949167">
        <ele>1890.0</ele>
        <time>2019-08-04T08:19:10.797Z</time>
      </trkpt>
      <trkpt lat="42.55251333" lon="1.55949167">
        <ele>1890.0</ele>
        <time>2019-08-04T08:19:11.773Z</time>
      </trkpt>
      <trkpt lat="42.552495" lon="1.55955833">
        <ele>1892.0</ele>
        <time>2019-08-04T08:19:12.799Z</time>
      </trkpt>
      <trkpt lat="42.552495" lon="1.55955833">
        <ele>1892.0</ele>
        <time>2019-08-04T08:19:13.794Z</time>
      </trkpt>
      <trkpt lat="42.55247" lon="1.559625">
        <ele>1893.0</ele>
        <time>2019-08-04T08:19:14.798Z</time>
      </trkpt>
      <trkpt lat="42.55247" lon="1.559625">
        <ele>1893.0</ele>
        <time>2019-08-04T08:19:15.792Z</time>
      </trkpt>
      <trkpt lat="42.552445" lon="1.55969333">
        <ele>1893.0</ele>
        <time>2019-08-04T08:19:16.773Z</time>
      </trkpt>
      <trkpt lat="42.552445" lon="1.55969333">
        <ele>1893.0</ele>
        <time>2019-08-04T08:19:17.795Z</time>
      </trkpt>
      <trkpt lat="42.55242333" lon="1.559765">
        <ele>1894.0</ele>
        <time>2019-08-04T08:19:18.782Z</time>
      </trkpt>
      <trkpt lat="42.55242333" lon="1.559765">
        <ele>1894.0</ele>
        <time>2019-08-04T08:19:19.798Z</time>
      </trkpt>
      <trkpt lat="42.55240333" lon="1.559835">
        <ele>1895.0</ele>
        <time>2019-08-04T08:19:20.799Z</time>
      </trkpt>
      <trkpt lat="42.55240333" lon="1.559835">
        <ele>1895.0</ele>
        <time>2019-08-04T08:19:21.792Z</time>
      </trkpt>
      <trkpt lat="42.55238" lon="1.559905">
        <ele>1896.0</ele>
        <time>2019-08-04T08:19:22.772Z</time>
      </trkpt>
      <trkpt lat="42.55238" lon="1.559905">
        <ele>1896.0</ele>
        <time>2019-08-04T08:19:23.791Z</time>
      </trkpt>
      <trkpt lat="42.55235667" lon="1.55997667">
        <ele>1897.0</ele>
        <time>2019-08-04T08:19:24.771Z</time>
      </trkpt>
      <trkpt lat="42.55235667" lon="1.55997667">
        <ele>1897.0</ele>
        <time>2019-08-04T08:19:25.793Z</time>
      </trkpt>
      <trkpt lat="42.55233167" lon="1.56004667">
        <ele>1898.0</ele>
        <time>2019-08-04T08:19:26.776Z</time>
      </trkpt>
      <trkpt lat="42.55233167" lon="1.56004667">
        <ele>1898.0</ele>
        <time>2019-08-04T08:19:27.793Z</time>
      </trkpt>
      <trkpt lat="42.55230333" lon="1.56011">
        <ele>1899.0</ele>
        <time>2019-08-04T08:19:28.776Z</time>
      </trkpt>
      <trkpt lat="42.55230333" lon="1.56011">
        <ele>1899.0</ele>
        <time>2019-08-04T08:19:29.793Z</time>
      </trkpt>
      <trkpt lat="42.55227667" lon="1.56017833">
        <ele>1900.0</ele>
        <time>2019-08-04T08:19:30.773Z</time>
      </trkpt>
      <trkpt lat="42.55227667" lon="1.56017833">
        <ele>1900.0</ele>
        <time>2019-08-04T08:19:31.795Z</time>
      </trkpt>
      <trkpt lat="42.55224333" lon="1.56025333">
        <ele>1900.0</ele>
        <time>2019-08-04T08:19:32.777Z</time>
      </trkpt>
      <trkpt lat="42.55224333" lon="1.56025333">
        <ele>1900.0</ele>
        <time>2019-08-04T08:19:33.804Z</time>
      </trkpt>
      <trkpt lat="42.55221" lon="1.56033167">
        <ele>1901.0</ele>
        <time>2019-08-04T08:19:34.795Z</time>
      </trkpt>
      <trkpt lat="42.55221" lon="1.56033167">
        <ele>1901.0</ele>
        <time>2019-08-04T08:19:35.790Z</time>
      </trkpt>
      <trkpt lat="42.55217833" lon="1.56040667">
        <ele>1902.0</ele>
        <time>2019-08-04T08:19:36.771Z</time>
      </trkpt>
      <trkpt lat="42.55217833" lon="1.56040667">
        <ele>1902.0</ele>
        <time>2019-08-04T08:19:37.793Z</time>
      </trkpt>
      <trkpt lat="42.55214833" lon="1.56049167">
        <ele>1903.0</ele>
        <time>2019-08-04T08:19:38.782Z</time>
      </trkpt>
      <trkpt lat="42.55214833" lon="1.56049167">
        <ele>1903.0</ele>
        <time>2019-08-04T08:19:39.774Z</time>
      </trkpt>
      <trkpt lat="42.55212167" lon="1.56056667">
        <ele>1903.0</ele>
        <time>2019-08-04T08:19:40.798Z</time>
      </trkpt>
      <trkpt lat="42.55211" lon="1.560605">
        <ele>1904.0</ele>
        <time>2019-08-04T08:19:41.776Z</time>
      </trkpt>
      <trkpt lat="42.55211" lon="1.560605">
        <ele>1904.0</ele>
        <time>2019-08-04T08:19:42.798Z</time>
      </trkpt>
      <trkpt lat="42.55209167" lon="1.56068333">
        <ele>1904.0</ele>
        <time>2019-08-04T08:19:43.793Z</time>
      </trkpt>
      <trkpt lat="42.552085" lon="1.56072167">
        <ele>1905.0</ele>
        <time>2019-08-04T08:19:44.799Z</time>
      </trkpt>
      <trkpt lat="42.552085" lon="1.56072167">
        <ele>1905.0</ele>
        <time>2019-08-04T08:19:45.793Z</time>
      </trkpt>
      <trkpt lat="42.55207167" lon="1.560805">
        <ele>1905.0</ele>
        <time>2019-08-04T08:19:46.777Z</time>
      </trkpt>
      <trkpt lat="42.55206667" lon="1.56084833">
        <ele>1905.0</ele>
        <time>2019-08-04T08:19:47.800Z</time>
      </trkpt>
      <trkpt lat="42.552065" lon="1.56088667">
        <ele>1906.0</ele>
        <time>2019-08-04T08:19:48.785Z</time>
      </trkpt>
      <trkpt lat="42.552065" lon="1.56088667">
        <ele>1906.0</ele>
        <time>2019-08-04T08:19:49.765Z</time>
      </trkpt>
      <trkpt lat="42.55206167" lon="1.56096667">
        <ele>1907.0</ele>
        <time>2019-08-04T08:19:50.799Z</time>
      </trkpt>
      <trkpt lat="42.55206167" lon="1.56096667">
        <ele>1907.0</ele>
        <time>2019-08-04T08:19:51.791Z</time>
      </trkpt>
      <trkpt lat="42.55205167" lon="1.561055">
        <ele>1907.0</ele>
        <time>2019-08-04T08:19:52.773Z</time>
      </trkpt>
      <trkpt lat="42.55205167" lon="1.561055">
        <ele>1907.0</ele>
        <time>2019-08-04T08:19:53.793Z</time>
      </trkpt>
      <trkpt lat="42.55204833" lon="1.561145">
        <ele>1908.0</ele>
        <time>2019-08-04T08:19:54.772Z</time>
      </trkpt>
      <trkpt lat="42.55204833" lon="1.561145">
        <ele>1908.0</ele>
        <time>2019-08-04T08:19:55.793Z</time>
      </trkpt>
      <trkpt lat="42.55204833" lon="1.56123333">
        <ele>1909.0</ele>
        <time>2019-08-04T08:19:56.777Z</time>
      </trkpt>
      <trkpt lat="42.55204833" lon="1.56123333">
        <ele>1909.0</ele>
        <time>2019-08-04T08:19:57.795Z</time>
      </trkpt>
      <trkpt lat="42.55204833" lon="1.56131667">
        <ele>1909.0</ele>
        <time>2019-08-04T08:19:58.776Z</time>
      </trkpt>
      <trkpt lat="42.55204833" lon="1.56131667">
        <ele>1909.0</ele>
        <time>2019-08-04T08:19:59.793Z</time>
      </trkpt>
      <trkpt lat="42.55204167" lon="1.56140167">
        <ele>1910.0</ele>
        <time>2019-08-04T08:20:00.772Z</time>
      </trkpt>
      <trkpt lat="42.55204167" lon="1.56140167">
        <ele>1910.0</ele>
        <time>2019-08-04T08:20:01.795Z</time>
      </trkpt>
      <trkpt lat="42.55203167" lon="1.561485">
        <ele>1911.0</ele>
        <time>2019-08-04T08:20:02.799Z</time>
      </trkpt>
      <trkpt lat="42.55203167" lon="1.561485">
        <ele>1911.0</ele>
        <time>2019-08-04T08:20:03.793Z</time>
      </trkpt>
      <trkpt lat="42.55202667" lon="1.56156833">
        <ele>1912.0</ele>
        <time>2019-08-04T08:20:04.793Z</time>
      </trkpt>
      <trkpt lat="42.552025" lon="1.56160667">
        <ele>1912.0</ele>
        <time>2019-08-04T08:20:05.766Z</time>
      </trkpt>
      <trkpt lat="42.552025" lon="1.56160667">
        <ele>1912.0</ele>
        <time>2019-08-04T08:20:06.782Z</time>
      </trkpt>
      <trkpt lat="42.55201667" lon="1.561695">
        <ele>1913.0</ele>
        <time>2019-08-04T08:20:07.788Z</time>
      </trkpt>
      <trkpt lat="42.552015" lon="1.56173667">
        <ele>1913.0</ele>
        <time>2019-08-04T08:20:08.793Z</time>
      </trkpt>
      <trkpt lat="42.552015" lon="1.56173667">
        <ele>1913.0</ele>
        <time>2019-08-04T08:20:09.791Z</time>
      </trkpt>
      <trkpt lat="42.55200333" lon="1.56182333">
        <ele>1913.0</ele>
        <time>2019-08-04T08:20:10.772Z</time>
      </trkpt>
      <trkpt lat="42.55200333" lon="1.56182333">
        <ele>1913.0</ele>
        <time>2019-08-04T08:20:11.793Z</time>
      </trkpt>
      <trkpt lat="42.55198833" lon="1.561915">
        <ele>1914.0</ele>
        <time>2019-08-04T08:20:12.797Z</time>
      </trkpt>
      <trkpt lat="42.55198833" lon="1.561915">
        <ele>1914.0</ele>
        <time>2019-08-04T08:20:13.792Z</time>
      </trkpt>
      <trkpt lat="42.55196833" lon="1.562">
        <ele>1914.0</ele>
        <time>2019-08-04T08:20:14.773Z</time>
      </trkpt>
      <trkpt lat="42.55196833" lon="1.562">
        <ele>1914.0</ele>
        <time>2019-08-04T08:20:15.791Z</time>
      </trkpt>
      <trkpt lat="42.551955" lon="1.56208">
        <ele>1914.0</ele>
        <time>2019-08-04T08:20:16.793Z</time>
      </trkpt>
      <trkpt lat="42.551955" lon="1.56208">
        <ele>1914.0</ele>
        <time>2019-08-04T08:20:17.791Z</time>
      </trkpt>
      <trkpt lat="42.55194333" lon="1.56215833">
        <ele>1914.0</ele>
        <time>2019-08-04T08:20:18.790Z</time>
      </trkpt>
      <trkpt lat="42.55194333" lon="1.56215833">
        <ele>1914.0</ele>
        <time>2019-08-04T08:20:19.771Z</time>
      </trkpt>
      <trkpt lat="42.551935" lon="1.56224">
        <ele>1915.0</ele>
        <time>2019-08-04T08:20:20.798Z</time>
      </trkpt>
      <trkpt lat="42.551935" lon="1.56224">
        <ele>1915.0</ele>
        <time>2019-08-04T08:20:21.774Z</time>
      </trkpt>
      <trkpt lat="42.55192667" lon="1.56232333">
        <ele>1915.0</ele>
        <time>2019-08-04T08:20:22.799Z</time>
      </trkpt>
      <trkpt lat="42.55192667" lon="1.56232333">
        <ele>1915.0</ele>
        <time>2019-08-04T08:20:23.791Z</time>
      </trkpt>
      <trkpt lat="42.55191833" lon="1.56240833">
        <ele>1915.0</ele>
        <time>2019-08-04T08:20:24.771Z</time>
      </trkpt>
      <trkpt lat="42.55191833" lon="1.56240833">
        <ele>1915.0</ele>
        <time>2019-08-04T08:20:25.793Z</time>
      </trkpt>
      <trkpt lat="42.55191167" lon="1.56249333">
        <ele>1915.0</ele>
        <time>2019-08-04T08:20:26.776Z</time>
      </trkpt>
      <trkpt lat="42.55191167" lon="1.562535">
        <ele>1915.0</ele>
        <time>2019-08-04T08:20:27.804Z</time>
      </trkpt>
      <trkpt lat="42.55191167" lon="1.56257833">
        <ele>1916.0</ele>
        <time>2019-08-04T08:20:28.786Z</time>
      </trkpt>
      <trkpt lat="42.55191167" lon="1.56257833">
        <ele>1916.0</ele>
        <time>2019-08-04T08:20:29.804Z</time>
      </trkpt>
      <trkpt lat="42.55190333" lon="1.56266333">
        <ele>1916.0</ele>
        <time>2019-08-04T08:20:30.799Z</time>
      </trkpt>
      <trkpt lat="42.55190333" lon="1.56266333">
        <ele>1916.0</ele>
        <time>2019-08-04T08:20:31.765Z</time>
      </trkpt>
      <trkpt lat="42.5519" lon="1.56274833">
        <ele>1916.0</ele>
        <time>2019-08-04T08:20:32.767Z</time>
      </trkpt>
      <trkpt lat="42.5519" lon="1.56274833">
        <ele>1916.0</ele>
        <time>2019-08-04T08:20:33.792Z</time>
      </trkpt>
      <trkpt lat="42.55190167" lon="1.562835">
        <ele>1916.0</ele>
        <time>2019-08-04T08:20:34.772Z</time>
      </trkpt>
      <trkpt lat="42.55190167" lon="1.562835">
        <ele>1916.0</ele>
        <time>2019-08-04T08:20:35.793Z</time>
      </trkpt>
      <trkpt lat="42.551905" lon="1.56292">
        <ele>1916.0</ele>
        <time>2019-08-04T08:20:36.815Z</time>
      </trkpt>
      <trkpt lat="42.551905" lon="1.56292">
        <ele>1916.0</ele>
        <time>2019-08-04T08:20:37.804Z</time>
      </trkpt>
      <trkpt lat="42.55191167" lon="1.56300333">
        <ele>1916.0</ele>
        <time>2019-08-04T08:20:38.790Z</time>
      </trkpt>
      <trkpt lat="42.55191167" lon="1.56300333">
        <ele>1916.0</ele>
        <time>2019-08-04T08:20:39.774Z</time>
      </trkpt>
      <trkpt lat="42.55192333" lon="1.56308833">
        <ele>1916.0</ele>
        <time>2019-08-04T08:20:40.797Z</time>
      </trkpt>
      <trkpt lat="42.55192667" lon="1.56312833">
        <ele>1916.0</ele>
        <time>2019-08-04T08:20:41.772Z</time>
      </trkpt>
      <trkpt lat="42.55192667" lon="1.56312833">
        <ele>1916.0</ele>
        <time>2019-08-04T08:20:42.796Z</time>
      </trkpt>
      <trkpt lat="42.55193833" lon="1.563215">
        <ele>1916.0</ele>
        <time>2019-08-04T08:20:43.794Z</time>
      </trkpt>
      <trkpt lat="42.55194333" lon="1.56326">
        <ele>1916.0</ele>
        <time>2019-08-04T08:20:44.771Z</time>
      </trkpt>
      <trkpt lat="42.55194333" lon="1.56326">
        <ele>1916.0</ele>
        <time>2019-08-04T08:20:45.793Z</time>
      </trkpt>
      <trkpt lat="42.55195333" lon="1.56334167">
        <ele>1916.0</ele>
        <time>2019-08-04T08:20:46.794Z</time>
      </trkpt>
      <trkpt lat="42.55195333" lon="1.56334167">
        <ele>1916.0</ele>
        <time>2019-08-04T08:20:47.774Z</time>
      </trkpt>
      <trkpt lat="42.55197" lon="1.56342167">
        <ele>1916.0</ele>
        <time>2019-08-04T08:20:48.791Z</time>
      </trkpt>
      <trkpt lat="42.55197" lon="1.56342167">
        <ele>1916.0</ele>
        <time>2019-08-04T08:20:49.771Z</time>
      </trkpt>
      <trkpt lat="42.55198833" lon="1.56350333">
        <ele>1916.0</ele>
        <time>2019-08-04T08:20:50.799Z</time>
      </trkpt>
      <trkpt lat="42.55198833" lon="1.56350333">
        <ele>1916.0</ele>
        <time>2019-08-04T08:20:51.789Z</time>
      </trkpt>
      <trkpt lat="42.55201167" lon="1.56358">
        <ele>1917.0</ele>
        <time>2019-08-04T08:20:52.770Z</time>
      </trkpt>
      <trkpt lat="42.55201167" lon="1.56358">
        <ele>1917.0</ele>
        <time>2019-08-04T08:20:53.791Z</time>
      </trkpt>
      <trkpt lat="42.55203667" lon="1.56365167">
        <ele>1917.0</ele>
        <time>2019-08-04T08:20:54.771Z</time>
      </trkpt>
      <trkpt lat="42.55203667" lon="1.56365167">
        <ele>1917.0</ele>
        <time>2019-08-04T08:20:55.794Z</time>
      </trkpt>
      <trkpt lat="42.55206833" lon="1.56372833">
        <ele>1917.0</ele>
        <time>2019-08-04T08:20:56.777Z</time>
      </trkpt>
      <trkpt lat="42.55206833" lon="1.56372833">
        <ele>1917.0</ele>
        <time>2019-08-04T08:20:57.774Z</time>
      </trkpt>
      <trkpt lat="42.55209667" lon="1.56380167">
        <ele>1917.0</ele>
        <time>2019-08-04T08:20:58.787Z</time>
      </trkpt>
      <trkpt lat="42.55209667" lon="1.56380167">
        <ele>1917.0</ele>
        <time>2019-08-04T08:20:59.804Z</time>
      </trkpt>
      <trkpt lat="42.552125" lon="1.56387833">
        <ele>1917.0</ele>
        <time>2019-08-04T08:21:00.799Z</time>
      </trkpt>
      <trkpt lat="42.552125" lon="1.56387833">
        <ele>1917.0</ele>
        <time>2019-08-04T08:21:01.792Z</time>
      </trkpt>
      <trkpt lat="42.55215333" lon="1.56395167">
        <ele>1917.0</ele>
        <time>2019-08-04T08:21:02.772Z</time>
      </trkpt>
      <trkpt lat="42.55215333" lon="1.56395167">
        <ele>1917.0</ele>
        <time>2019-08-04T08:21:03.804Z</time>
      </trkpt>
      <trkpt lat="42.552185" lon="1.56402">
        <ele>1917.0</ele>
        <time>2019-08-04T08:21:04.794Z</time>
      </trkpt>
      <trkpt lat="42.552185" lon="1.56402">
        <ele>1917.0</ele>
        <time>2019-08-04T08:21:05.798Z</time>
      </trkpt>
      <trkpt lat="42.55221667" lon="1.56408667">
        <ele>1917.0</ele>
        <time>2019-08-04T08:21:06.773Z</time>
      </trkpt>
      <trkpt lat="42.55221667" lon="1.56408667">
        <ele>1917.0</ele>
        <time>2019-08-04T08:21:07.780Z</time>
      </trkpt>
      <trkpt lat="42.55224667" lon="1.56415333">
        <ele>1917.0</ele>
        <time>2019-08-04T08:21:08.797Z</time>
      </trkpt>
      <trkpt lat="42.55224667" lon="1.56415333">
        <ele>1917.0</ele>
        <time>2019-08-04T08:21:09.774Z</time>
      </trkpt>
      <trkpt lat="42.55228" lon="1.56422333">
        <ele>1917.0</ele>
        <time>2019-08-04T08:21:10.799Z</time>
      </trkpt>
      <trkpt lat="42.55228" lon="1.56422333">
        <ele>1917.0</ele>
        <time>2019-08-04T08:21:11.791Z</time>
      </trkpt>
      <trkpt lat="42.55231333" lon="1.56429167">
        <ele>1917.0</ele>
        <time>2019-08-04T08:21:12.771Z</time>
      </trkpt>
      <trkpt lat="42.55231333" lon="1.56429167">
        <ele>1917.0</ele>
        <time>2019-08-04T08:21:13.796Z</time>
      </trkpt>
      <trkpt lat="42.552345" lon="1.564355">
        <ele>1918.0</ele>
        <time>2019-08-04T08:21:14.798Z</time>
      </trkpt>
      <trkpt lat="42.552345" lon="1.564355">
        <ele>1918.0</ele>
        <time>2019-08-04T08:21:15.792Z</time>
      </trkpt>
      <trkpt lat="42.55238167" lon="1.56441667">
        <ele>1918.0</ele>
        <time>2019-08-04T08:21:16.772Z</time>
      </trkpt>
      <trkpt lat="42.55238167" lon="1.56441667">
        <ele>1918.0</ele>
        <time>2019-08-04T08:21:17.804Z</time>
      </trkpt>
      <trkpt lat="42.55241833" lon="1.56448333">
        <ele>1918.0</ele>
        <time>2019-08-04T08:21:18.790Z</time>
      </trkpt>
      <trkpt lat="42.55241833" lon="1.56448333">
        <ele>1918.0</ele>
        <time>2019-08-04T08:21:19.770Z</time>
      </trkpt>
      <trkpt lat="42.552455" lon="1.56454667">
        <ele>1919.0</ele>
        <time>2019-08-04T08:21:20.800Z</time>
      </trkpt>
      <trkpt lat="42.552455" lon="1.56454667">
        <ele>1919.0</ele>
        <time>2019-08-04T08:21:21.792Z</time>
      </trkpt>
      <trkpt lat="42.55248667" lon="1.56461167">
        <ele>1919.0</ele>
        <time>2019-08-04T08:21:22.772Z</time>
      </trkpt>
      <trkpt lat="42.55248667" lon="1.56461167">
        <ele>1919.0</ele>
        <time>2019-08-04T08:21:23.793Z</time>
      </trkpt>
      <trkpt lat="42.55252167" lon="1.56467333">
        <ele>1919.0</ele>
        <time>2019-08-04T08:21:24.774Z</time>
      </trkpt>
      <trkpt lat="42.55252167" lon="1.56467333">
        <ele>1919.0</ele>
        <time>2019-08-04T08:21:25.796Z</time>
      </trkpt>
      <trkpt lat="42.55255667" lon="1.56473333">
        <ele>1920.0</ele>
        <time>2019-08-04T08:21:26.799Z</time>
      </trkpt>
      <trkpt lat="42.55255667" lon="1.56473333">
        <ele>1920.0</ele>
        <time>2019-08-04T08:21:27.792Z</time>
      </trkpt>
      <trkpt lat="42.552595" lon="1.56478167">
        <ele>1920.0</ele>
        <time>2019-08-04T08:21:28.791Z</time>
      </trkpt>
      <trkpt lat="42.552595" lon="1.56478167">
        <ele>1920.0</ele>
        <time>2019-08-04T08:21:29.771Z</time>
      </trkpt>
      <trkpt lat="42.55263" lon="1.56483833">
        <ele>1920.0</ele>
        <time>2019-08-04T08:21:30.771Z</time>
      </trkpt>
      <trkpt lat="42.55263" lon="1.56483833">
        <ele>1920.0</ele>
        <time>2019-08-04T08:21:31.791Z</time>
      </trkpt>
      <trkpt lat="42.55267" lon="1.56489667">
        <ele>1921.0</ele>
        <time>2019-08-04T08:21:32.771Z</time>
      </trkpt>
      <trkpt lat="42.55267" lon="1.56489667">
        <ele>1921.0</ele>
        <time>2019-08-04T08:21:33.792Z</time>
      </trkpt>
      <trkpt lat="42.55271" lon="1.56495333">
        <ele>1921.0</ele>
        <time>2019-08-04T08:21:34.771Z</time>
      </trkpt>
      <trkpt lat="42.55271" lon="1.56495333">
        <ele>1921.0</ele>
        <time>2019-08-04T08:21:35.796Z</time>
      </trkpt>
      <trkpt lat="42.55275" lon="1.565015">
        <ele>1921.0</ele>
        <time>2019-08-04T08:21:36.799Z</time>
      </trkpt>
      <trkpt lat="42.55275" lon="1.565015">
        <ele>1921.0</ele>
        <time>2019-08-04T08:21:37.797Z</time>
      </trkpt>
      <trkpt lat="42.552795" lon="1.56506">
        <ele>1921.0</ele>
        <time>2019-08-04T08:21:38.790Z</time>
      </trkpt>
      <trkpt lat="42.552795" lon="1.56506">
        <ele>1921.0</ele>
        <time>2019-08-04T08:21:39.774Z</time>
      </trkpt>
      <trkpt lat="42.552835" lon="1.56510333">
        <ele>1922.0</ele>
        <time>2019-08-04T08:21:40.800Z</time>
      </trkpt>
      <trkpt lat="42.552835" lon="1.56510333">
        <ele>1922.0</ele>
        <time>2019-08-04T08:21:41.791Z</time>
      </trkpt>
      <trkpt lat="42.552875" lon="1.56514667">
        <ele>1922.0</ele>
        <time>2019-08-04T08:21:42.801Z</time>
      </trkpt>
      <trkpt lat="42.552875" lon="1.56514667">
        <ele>1922.0</ele>
        <time>2019-08-04T08:21:43.792Z</time>
      </trkpt>
      <trkpt lat="42.55290667" lon="1.56519833">
        <ele>1922.0</ele>
        <time>2019-08-04T08:21:44.773Z</time>
      </trkpt>
      <trkpt lat="42.55290667" lon="1.56519833">
        <ele>1922.0</ele>
        <time>2019-08-04T08:21:45.797Z</time>
      </trkpt>
      <trkpt lat="42.55294" lon="1.56525">
        <ele>1923.0</ele>
        <time>2019-08-04T08:21:46.799Z</time>
      </trkpt>
      <trkpt lat="42.55294" lon="1.56525">
        <ele>1923.0</ele>
        <time>2019-08-04T08:21:47.791Z</time>
      </trkpt>
      <trkpt lat="42.55297167" lon="1.56530333">
        <ele>1924.0</ele>
        <time>2019-08-04T08:21:48.784Z</time>
      </trkpt>
      <trkpt lat="42.55297167" lon="1.56530333">
        <ele>1924.0</ele>
        <time>2019-08-04T08:21:49.805Z</time>
      </trkpt>
      <trkpt lat="42.55300333" lon="1.56536333">
        <ele>1924.0</ele>
        <time>2019-08-04T08:21:50.800Z</time>
      </trkpt>
      <trkpt lat="42.55300333" lon="1.56536333">
        <ele>1924.0</ele>
        <time>2019-08-04T08:21:51.791Z</time>
      </trkpt>
      <trkpt lat="42.55303167" lon="1.56543">
        <ele>1925.0</ele>
        <time>2019-08-04T08:21:52.771Z</time>
      </trkpt>
      <trkpt lat="42.553045" lon="1.56546167">
        <ele>1925.0</ele>
        <time>2019-08-04T08:21:53.801Z</time>
      </trkpt>
      <trkpt lat="42.553045" lon="1.56546167">
        <ele>1925.0</ele>
        <time>2019-08-04T08:21:54.792Z</time>
      </trkpt>
      <trkpt lat="42.55307167" lon="1.56552833">
        <ele>1925.0</ele>
        <time>2019-08-04T08:21:55.772Z</time>
      </trkpt>
      <trkpt lat="42.553085" lon="1.56556167">
        <ele>1926.0</ele>
        <time>2019-08-04T08:21:56.798Z</time>
      </trkpt>
      <trkpt lat="42.553085" lon="1.56556167">
        <ele>1926.0</ele>
        <time>2019-08-04T08:21:57.793Z</time>
      </trkpt>
      <trkpt lat="42.55310833" lon="1.56563">
        <ele>1926.0</ele>
        <time>2019-08-04T08:21:58.790Z</time>
      </trkpt>
      <trkpt lat="42.55310833" lon="1.56563">
        <ele>1926.0</ele>
        <time>2019-08-04T08:21:59.770Z</time>
      </trkpt>
      <trkpt lat="42.553135" lon="1.56569833">
        <ele>1926.0</ele>
        <time>2019-08-04T08:22:00.800Z</time>
      </trkpt>
      <trkpt lat="42.553135" lon="1.56569833">
        <ele>1926.0</ele>
        <time>2019-08-04T08:22:01.792Z</time>
      </trkpt>
      <trkpt lat="42.55315667" lon="1.56576667">
        <ele>1927.0</ele>
        <time>2019-08-04T08:22:02.772Z</time>
      </trkpt>
      <trkpt lat="42.55315667" lon="1.56576667">
        <ele>1927.0</ele>
        <time>2019-08-04T08:22:03.771Z</time>
      </trkpt>
      <trkpt lat="42.55317833" lon="1.56584">
        <ele>1927.0</ele>
        <time>2019-08-04T08:22:04.798Z</time>
      </trkpt>
      <trkpt lat="42.55319167" lon="1.56587833">
        <ele>1928.0</ele>
        <time>2019-08-04T08:22:05.796Z</time>
      </trkpt>
      <trkpt lat="42.55319167" lon="1.56587833">
        <ele>1928.0</ele>
        <time>2019-08-04T08:22:06.767Z</time>
      </trkpt>
      <trkpt lat="42.55321333" lon="1.56595167">
        <ele>1928.0</ele>
        <time>2019-08-04T08:22:07.773Z</time>
      </trkpt>
      <trkpt lat="42.55322333" lon="1.56598667">
        <ele>1928.0</ele>
        <time>2019-08-04T08:22:08.783Z</time>
      </trkpt>
      <trkpt lat="42.55322333" lon="1.56598667">
        <ele>1928.0</ele>
        <time>2019-08-04T08:22:09.799Z</time>
      </trkpt>
      <trkpt lat="42.553245" lon="1.56606">
        <ele>1929.0</ele>
        <time>2019-08-04T08:22:10.799Z</time>
      </trkpt>
      <trkpt lat="42.553245" lon="1.56606">
        <ele>1929.0</ele>
        <time>2019-08-04T08:22:11.796Z</time>
      </trkpt>
      <trkpt lat="42.55326" lon="1.56613333">
        <ele>1930.0</ele>
        <time>2019-08-04T08:22:12.798Z</time>
      </trkpt>
      <trkpt lat="42.55326" lon="1.56613333">
        <ele>1930.0</ele>
        <time>2019-08-04T08:22:13.792Z</time>
      </trkpt>
      <trkpt lat="42.55328" lon="1.56621">
        <ele>1930.0</ele>
        <time>2019-08-04T08:22:14.772Z</time>
      </trkpt>
      <trkpt lat="42.55328" lon="1.56621">
        <ele>1930.0</ele>
        <time>2019-08-04T08:22:15.796Z</time>
      </trkpt>
      <trkpt lat="42.55330333" lon="1.56628333">
        <ele>1931.0</ele>
        <time>2019-08-04T08:22:16.798Z</time>
      </trkpt>
      <trkpt lat="42.55330333" lon="1.56628333">
        <ele>1931.0</ele>
        <time>2019-08-04T08:22:17.800Z</time>
      </trkpt>
      <trkpt lat="42.55333" lon="1.56635333">
        <ele>1931.0</ele>
        <time>2019-08-04T08:22:18.787Z</time>
      </trkpt>
      <trkpt lat="42.55333" lon="1.56635333">
        <ele>1931.0</ele>
        <time>2019-08-04T08:22:19.766Z</time>
      </trkpt>
      <trkpt lat="42.553355" lon="1.56642833">
        <ele>1932.0</ele>
        <time>2019-08-04T08:22:20.799Z</time>
      </trkpt>
      <trkpt lat="42.553355" lon="1.56642833">
        <ele>1932.0</ele>
        <time>2019-08-04T08:22:21.793Z</time>
      </trkpt>
      <trkpt lat="42.55338333" lon="1.5665">
        <ele>1932.0</ele>
        <time>2019-08-04T08:22:22.773Z</time>
      </trkpt>
      <trkpt lat="42.55338333" lon="1.5665">
        <ele>1932.0</ele>
        <time>2019-08-04T08:22:23.795Z</time>
      </trkpt>
      <trkpt lat="42.55340833" lon="1.566565">
        <ele>1933.0</ele>
        <time>2019-08-04T08:22:24.775Z</time>
      </trkpt>
      <trkpt lat="42.55340833" lon="1.566565">
        <ele>1933.0</ele>
        <time>2019-08-04T08:22:25.797Z</time>
      </trkpt>
      <trkpt lat="42.55344667" lon="1.56662">
        <ele>1934.0</ele>
        <time>2019-08-04T08:22:26.778Z</time>
      </trkpt>
      <trkpt lat="42.55344667" lon="1.56662">
        <ele>1934.0</ele>
        <time>2019-08-04T08:22:27.799Z</time>
      </trkpt>
      <trkpt lat="42.55346333" lon="1.56669667">
        <ele>1935.0</ele>
        <time>2019-08-04T08:22:28.780Z</time>
      </trkpt>
      <trkpt lat="42.55346333" lon="1.56669667">
        <ele>1935.0</ele>
        <time>2019-08-04T08:22:29.800Z</time>
      </trkpt>
      <trkpt lat="42.553485" lon="1.56677167">
        <ele>1935.0</ele>
        <time>2019-08-04T08:22:30.800Z</time>
      </trkpt>
      <trkpt lat="42.553485" lon="1.56677167">
        <ele>1935.0</ele>
        <time>2019-08-04T08:22:31.792Z</time>
      </trkpt>
      <trkpt lat="42.55350833" lon="1.566845">
        <ele>1936.0</ele>
        <time>2019-08-04T08:22:32.775Z</time>
      </trkpt>
      <trkpt lat="42.55350833" lon="1.566845">
        <ele>1936.0</ele>
        <time>2019-08-04T08:22:33.803Z</time>
      </trkpt>
      <trkpt lat="42.55353167" lon="1.56691833">
        <ele>1936.0</ele>
        <time>2019-08-04T08:22:34.798Z</time>
      </trkpt>
      <trkpt lat="42.55353167" lon="1.56691833">
        <ele>1936.0</ele>
        <time>2019-08-04T08:22:35.791Z</time>
      </trkpt>
      <trkpt lat="42.55356333" lon="1.56698333">
        <ele>1937.0</ele>
        <time>2019-08-04T08:22:36.771Z</time>
      </trkpt>
      <trkpt lat="42.55356333" lon="1.56698333">
        <ele>1937.0</ele>
        <time>2019-08-04T08:22:37.797Z</time>
      </trkpt>
      <trkpt lat="42.55359167" lon="1.56705">
        <ele>1937.0</ele>
        <time>2019-08-04T08:22:38.782Z</time>
      </trkpt>
      <trkpt lat="42.55359167" lon="1.56705">
        <ele>1937.0</ele>
        <time>2019-08-04T08:22:39.774Z</time>
      </trkpt>
      <trkpt lat="42.55361667" lon="1.56711833">
        <ele>1938.0</ele>
        <time>2019-08-04T08:22:40.799Z</time>
      </trkpt>
      <trkpt lat="42.55361667" lon="1.56711833">
        <ele>1938.0</ele>
        <time>2019-08-04T08:22:41.792Z</time>
      </trkpt>
      <trkpt lat="42.55365" lon="1.56716833">
        <ele>1938.0</ele>
        <time>2019-08-04T08:22:42.775Z</time>
      </trkpt>
      <trkpt lat="42.55365" lon="1.56716833">
        <ele>1938.0</ele>
        <time>2019-08-04T08:22:43.797Z</time>
      </trkpt>
      <trkpt lat="42.553685" lon="1.56722333">
        <ele>1939.0</ele>
        <time>2019-08-04T08:22:44.799Z</time>
      </trkpt>
      <trkpt lat="42.55370167" lon="1.567255">
        <ele>1939.0</ele>
        <time>2019-08-04T08:22:45.799Z</time>
      </trkpt>
      <trkpt lat="42.55370167" lon="1.567255">
        <ele>1939.0</ele>
        <time>2019-08-04T08:22:46.790Z</time>
      </trkpt>
      <trkpt lat="42.55373" lon="1.56731">
        <ele>1940.0</ele>
        <time>2019-08-04T08:22:47.771Z</time>
      </trkpt>
      <trkpt lat="42.55374667" lon="1.56733833">
        <ele>1940.0</ele>
        <time>2019-08-04T08:22:48.788Z</time>
      </trkpt>
      <trkpt lat="42.55374667" lon="1.56733833">
        <ele>1940.0</ele>
        <time>2019-08-04T08:22:49.768Z</time>
      </trkpt>
      <trkpt lat="42.55378667" lon="1.56739667">
        <ele>1941.0</ele>
        <time>2019-08-04T08:22:50.801Z</time>
      </trkpt>
      <trkpt lat="42.55378667" lon="1.56739667">
        <ele>1941.0</ele>
        <time>2019-08-04T08:22:51.798Z</time>
      </trkpt>
      <trkpt lat="42.553825" lon="1.56744833">
        <ele>1941.0</ele>
        <time>2019-08-04T08:22:52.799Z</time>
      </trkpt>
      <trkpt lat="42.553845" lon="1.567475">
        <ele>1941.0</ele>
        <time>2019-08-04T08:22:53.800Z</time>
      </trkpt>
      <trkpt lat="42.553845" lon="1.567475">
        <ele>1941.0</ele>
        <time>2019-08-04T08:22:54.794Z</time>
      </trkpt>
      <trkpt lat="42.55389" lon="1.567525">
        <ele>1942.0</ele>
        <time>2019-08-04T08:22:55.774Z</time>
      </trkpt>
      <trkpt lat="42.55391167" lon="1.56754833">
        <ele>1942.0</ele>
        <time>2019-08-04T08:22:56.772Z</time>
      </trkpt>
      <trkpt lat="42.55391167" lon="1.56754833">
        <ele>1942.0</ele>
        <time>2019-08-04T08:22:57.796Z</time>
      </trkpt>
      <trkpt lat="42.55395833" lon="1.56759667">
        <ele>1943.0</ele>
        <time>2019-08-04T08:22:58.784Z</time>
      </trkpt>
      <trkpt lat="42.55395833" lon="1.56759667">
        <ele>1943.0</ele>
        <time>2019-08-04T08:22:59.801Z</time>
      </trkpt>
      <trkpt lat="42.554" lon="1.56765167">
        <ele>1943.0</ele>
        <time>2019-08-04T08:23:00.798Z</time>
      </trkpt>
      <trkpt lat="42.554" lon="1.56765167">
        <ele>1943.0</ele>
        <time>2019-08-04T08:23:01.792Z</time>
      </trkpt>
      <trkpt lat="42.55404833" lon="1.56769667">
        <ele>1944.0</ele>
        <time>2019-08-04T08:23:02.772Z</time>
      </trkpt>
      <trkpt lat="42.55404833" lon="1.56769667">
        <ele>1944.0</ele>
        <time>2019-08-04T08:23:03.766Z</time>
      </trkpt>
      <trkpt lat="42.55409167" lon="1.56774667">
        <ele>1944.0</ele>
        <time>2019-08-04T08:23:04.797Z</time>
      </trkpt>
      <trkpt lat="42.55409167" lon="1.56774667">
        <ele>1944.0</ele>
        <time>2019-08-04T08:23:05.775Z</time>
      </trkpt>
      <trkpt lat="42.55414" lon="1.5678">
        <ele>1945.0</ele>
        <time>2019-08-04T08:23:06.787Z</time>
      </trkpt>
      <trkpt lat="42.55414" lon="1.5678">
        <ele>1945.0</ele>
        <time>2019-08-04T08:23:07.793Z</time>
      </trkpt>
      <trkpt lat="42.55419" lon="1.56784667">
        <ele>1945.0</ele>
        <time>2019-08-04T08:23:08.790Z</time>
      </trkpt>
      <trkpt lat="42.55419" lon="1.56784667">
        <ele>1945.0</ele>
        <time>2019-08-04T08:23:09.774Z</time>
      </trkpt>
      <trkpt lat="42.55424" lon="1.5679">
        <ele>1946.0</ele>
        <time>2019-08-04T08:23:10.797Z</time>
      </trkpt>
      <trkpt lat="42.55426333" lon="1.56791833">
        <ele>1946.0</ele>
        <time>2019-08-04T08:23:11.799Z</time>
      </trkpt>
      <trkpt lat="42.55428667" lon="1.56794667">
        <ele>1947.0</ele>
        <time>2019-08-04T08:23:12.800Z</time>
      </trkpt>
      <trkpt lat="42.55428667" lon="1.56794667">
        <ele>1947.0</ele>
        <time>2019-08-04T08:23:13.792Z</time>
      </trkpt>
      <trkpt lat="42.554335" lon="1.56800333">
        <ele>1947.0</ele>
        <time>2019-08-04T08:23:14.773Z</time>
      </trkpt>
      <trkpt lat="42.554335" lon="1.56800333">
        <ele>1947.0</ele>
        <time>2019-08-04T08:23:15.796Z</time>
      </trkpt>
      <trkpt lat="42.55438" lon="1.56806">
        <ele>1948.0</ele>
        <time>2019-08-04T08:23:16.801Z</time>
      </trkpt>
      <trkpt lat="42.55438" lon="1.56806">
        <ele>1948.0</ele>
        <time>2019-08-04T08:23:17.793Z</time>
      </trkpt>
      <trkpt lat="42.55442167" lon="1.568125">
        <ele>1949.0</ele>
        <time>2019-08-04T08:23:18.782Z</time>
      </trkpt>
      <trkpt lat="42.55442167" lon="1.568125">
        <ele>1949.0</ele>
        <time>2019-08-04T08:23:19.765Z</time>
      </trkpt>
      <trkpt lat="42.55446333" lon="1.56818833">
        <ele>1949.0</ele>
        <time>2019-08-04T08:23:20.798Z</time>
      </trkpt>
      <trkpt lat="42.55446333" lon="1.56818833">
        <ele>1949.0</ele>
        <time>2019-08-04T08:23:21.796Z</time>
      </trkpt>
      <trkpt lat="42.5545" lon="1.568255">
        <ele>1949.0</ele>
        <time>2019-08-04T08:23:22.795Z</time>
      </trkpt>
      <trkpt lat="42.5545" lon="1.568255">
        <ele>1949.0</ele>
        <time>2019-08-04T08:23:23.792Z</time>
      </trkpt>
      <trkpt lat="42.55453833" lon="1.56832167">
        <ele>1950.0</ele>
        <time>2019-08-04T08:23:24.772Z</time>
      </trkpt>
      <trkpt lat="42.55453833" lon="1.56832167">
        <ele>1950.0</ele>
        <time>2019-08-04T08:23:25.794Z</time>
      </trkpt>
      <trkpt lat="42.55456833" lon="1.56839667">
        <ele>1950.0</ele>
        <time>2019-08-04T08:23:26.774Z</time>
      </trkpt>
      <trkpt lat="42.55456833" lon="1.56839667">
        <ele>1950.0</ele>
        <time>2019-08-04T08:23:27.796Z</time>
      </trkpt>
      <trkpt lat="42.554595" lon="1.56847167">
        <ele>1951.0</ele>
        <time>2019-08-04T08:23:28.787Z</time>
      </trkpt>
      <trkpt lat="42.554595" lon="1.56847167">
        <ele>1951.0</ele>
        <time>2019-08-04T08:23:29.765Z</time>
      </trkpt>
      <trkpt lat="42.55462167" lon="1.56855">
        <ele>1951.0</ele>
        <time>2019-08-04T08:23:30.800Z</time>
      </trkpt>
      <trkpt lat="42.55462167" lon="1.56855">
        <ele>1951.0</ele>
        <time>2019-08-04T08:23:31.792Z</time>
      </trkpt>
      <trkpt lat="42.554645" lon="1.56863">
        <ele>1952.0</ele>
        <time>2019-08-04T08:23:32.776Z</time>
      </trkpt>
      <trkpt lat="42.554645" lon="1.56863">
        <ele>1952.0</ele>
        <time>2019-08-04T08:23:33.804Z</time>
      </trkpt>
      <trkpt lat="42.55466167" lon="1.568715">
        <ele>1952.0</ele>
        <time>2019-08-04T08:23:34.799Z</time>
      </trkpt>
      <trkpt lat="42.55467333" lon="1.56875667">
        <ele>1952.0</ele>
        <time>2019-08-04T08:23:35.798Z</time>
      </trkpt>
      <trkpt lat="42.55468333" lon="1.5688">
        <ele>1953.0</ele>
        <time>2019-08-04T08:23:36.784Z</time>
      </trkpt>
      <trkpt lat="42.55468333" lon="1.5688">
        <ele>1953.0</ele>
        <time>2019-08-04T08:23:37.801Z</time>
      </trkpt>
      <trkpt lat="42.55470333" lon="1.56888667">
        <ele>1953.0</ele>
        <time>2019-08-04T08:23:38.783Z</time>
      </trkpt>
      <trkpt lat="42.55470333" lon="1.56888667">
        <ele>1953.0</ele>
        <time>2019-08-04T08:23:39.775Z</time>
      </trkpt>
      <trkpt lat="42.554725" lon="1.56897333">
        <ele>1953.0</ele>
        <time>2019-08-04T08:23:40.800Z</time>
      </trkpt>
      <trkpt lat="42.554725" lon="1.56897333">
        <ele>1953.0</ele>
        <time>2019-08-04T08:23:41.775Z</time>
      </trkpt>
      <trkpt lat="42.55474333" lon="1.569055">
        <ele>1954.0</ele>
        <time>2019-08-04T08:23:42.771Z</time>
      </trkpt>
      <trkpt lat="42.55474333" lon="1.569055">
        <ele>1954.0</ele>
        <time>2019-08-04T08:23:43.793Z</time>
      </trkpt>
      <trkpt lat="42.55476667" lon="1.569135">
        <ele>1954.0</ele>
        <time>2019-08-04T08:23:44.773Z</time>
      </trkpt>
      <trkpt lat="42.55476667" lon="1.569135">
        <ele>1954.0</ele>
        <time>2019-08-04T08:23:45.797Z</time>
      </trkpt>
      <trkpt lat="42.55478667" lon="1.569215">
        <ele>1955.0</ele>
        <time>2019-08-04T08:23:46.799Z</time>
      </trkpt>
      <trkpt lat="42.55478667" lon="1.569215">
        <ele>1955.0</ele>
        <time>2019-08-04T08:23:47.793Z</time>
      </trkpt>
      <trkpt lat="42.55480833" lon="1.569295">
        <ele>1955.0</ele>
        <time>2019-08-04T08:23:48.774Z</time>
      </trkpt>
      <trkpt lat="42.55481833" lon="1.56933333">
        <ele>1956.0</ele>
        <time>2019-08-04T08:23:49.799Z</time>
      </trkpt>
      <trkpt lat="42.55482667" lon="1.56937167">
        <ele>1956.0</ele>
        <time>2019-08-04T08:23:50.799Z</time>
      </trkpt>
      <trkpt lat="42.55482667" lon="1.56937167">
        <ele>1956.0</ele>
        <time>2019-08-04T08:23:51.792Z</time>
      </trkpt>
      <trkpt lat="42.55484167" lon="1.56944833">
        <ele>1957.0</ele>
        <time>2019-08-04T08:23:52.772Z</time>
      </trkpt>
      <trkpt lat="42.55484167" lon="1.56944833">
        <ele>1957.0</ele>
        <time>2019-08-04T08:23:53.796Z</time>
      </trkpt>
      <trkpt lat="42.55486167" lon="1.56952667">
        <ele>1957.0</ele>
        <time>2019-08-04T08:23:54.776Z</time>
      </trkpt>
      <trkpt lat="42.55486167" lon="1.56952667">
        <ele>1957.0</ele>
        <time>2019-08-04T08:23:55.797Z</time>
      </trkpt>
      <trkpt lat="42.55488" lon="1.56960333">
        <ele>1958.0</ele>
        <time>2019-08-04T08:23:56.800Z</time>
      </trkpt>
      <trkpt lat="42.55488" lon="1.56960333">
        <ele>1958.0</ele>
        <time>2019-08-04T08:23:57.793Z</time>
      </trkpt>
      <trkpt lat="42.55490667" lon="1.56968333">
        <ele>1959.0</ele>
        <time>2019-08-04T08:23:58.774Z</time>
      </trkpt>
      <trkpt lat="42.55491833" lon="1.56972333">
        <ele>1959.0</ele>
        <time>2019-08-04T08:23:59.800Z</time>
      </trkpt>
      <trkpt lat="42.55492833" lon="1.569765">
        <ele>1959.0</ele>
        <time>2019-08-04T08:24:00.800Z</time>
      </trkpt>
      <trkpt lat="42.55492833" lon="1.569765">
        <ele>1959.0</ele>
        <time>2019-08-04T08:24:01.794Z</time>
      </trkpt>
      <trkpt lat="42.55494833" lon="1.56984833">
        <ele>1960.0</ele>
        <time>2019-08-04T08:24:02.774Z</time>
      </trkpt>
      <trkpt lat="42.55494833" lon="1.56984833">
        <ele>1960.0</ele>
        <time>2019-08-04T08:24:03.797Z</time>
      </trkpt>
      <trkpt lat="42.55496833" lon="1.56993167">
        <ele>1961.0</ele>
        <time>2019-08-04T08:24:04.797Z</time>
      </trkpt>
      <trkpt lat="42.55496833" lon="1.56993167">
        <ele>1961.0</ele>
        <time>2019-08-04T08:24:05.802Z</time>
      </trkpt>
      <trkpt lat="42.55499333" lon="1.57001">
        <ele>1961.0</ele>
        <time>2019-08-04T08:24:06.775Z</time>
      </trkpt>
      <trkpt lat="42.55499333" lon="1.57001">
        <ele>1961.0</ele>
        <time>2019-08-04T08:24:07.785Z</time>
      </trkpt>
      <trkpt lat="42.55501667" lon="1.57009">
        <ele>1962.0</ele>
        <time>2019-08-04T08:24:08.775Z</time>
      </trkpt>
      <trkpt lat="42.55501667" lon="1.57009">
        <ele>1962.0</ele>
        <time>2019-08-04T08:24:09.793Z</time>
      </trkpt>
      <trkpt lat="42.55504" lon="1.57016833">
        <ele>1962.0</ele>
        <time>2019-08-04T08:24:10.773Z</time>
      </trkpt>
      <trkpt lat="42.555055" lon="1.570205">
        <ele>1962.0</ele>
        <time>2019-08-04T08:24:11.797Z</time>
      </trkpt>
      <trkpt lat="42.55507" lon="1.57024167">
        <ele>1963.0</ele>
        <time>2019-08-04T08:24:12.800Z</time>
      </trkpt>
      <trkpt lat="42.55507" lon="1.57024167">
        <ele>1963.0</ele>
        <time>2019-08-04T08:24:13.797Z</time>
      </trkpt>
      <trkpt lat="42.555095" lon="1.57032167">
        <ele>1963.0</ele>
        <time>2019-08-04T08:24:14.800Z</time>
      </trkpt>
      <trkpt lat="42.555095" lon="1.57032167">
        <ele>1963.0</ele>
        <time>2019-08-04T08:24:15.793Z</time>
      </trkpt>
      <trkpt lat="42.55512" lon="1.57040167">
        <ele>1964.0</ele>
        <time>2019-08-04T08:24:16.773Z</time>
      </trkpt>
      <trkpt lat="42.55513333" lon="1.57043833">
        <ele>1964.0</ele>
        <time>2019-08-04T08:24:17.800Z</time>
      </trkpt>
      <trkpt lat="42.55514667" lon="1.57047667">
        <ele>1964.0</ele>
        <time>2019-08-04T08:24:18.794Z</time>
      </trkpt>
      <trkpt lat="42.55514667" lon="1.57047667">
        <ele>1964.0</ele>
        <time>2019-08-04T08:24:19.798Z</time>
      </trkpt>
      <trkpt lat="42.55517167" lon="1.57055333">
        <ele>1965.0</ele>
        <time>2019-08-04T08:24:20.797Z</time>
      </trkpt>
      <trkpt lat="42.55517167" lon="1.57055333">
        <ele>1965.0</ele>
        <time>2019-08-04T08:24:21.790Z</time>
      </trkpt>
      <trkpt lat="42.55520333" lon="1.57063833">
        <ele>1965.0</ele>
        <time>2019-08-04T08:24:22.771Z</time>
      </trkpt>
      <trkpt lat="42.55522" lon="1.57067833">
        <ele>1965.0</ele>
        <time>2019-08-04T08:24:23.800Z</time>
      </trkpt>
      <trkpt lat="42.55522" lon="1.57067833">
        <ele>1965.0</ele>
        <time>2019-08-04T08:24:24.798Z</time>
      </trkpt>
      <trkpt lat="42.55524833" lon="1.57075667">
        <ele>1966.0</ele>
        <time>2019-08-04T08:24:25.800Z</time>
      </trkpt>
      <trkpt lat="42.55526667" lon="1.57079833">
        <ele>1966.0</ele>
        <time>2019-08-04T08:24:26.802Z</time>
      </trkpt>
      <trkpt lat="42.55526667" lon="1.57079833">
        <ele>1966.0</ele>
        <time>2019-08-04T08:24:27.797Z</time>
      </trkpt>
      <trkpt lat="42.55530167" lon="1.57087667">
        <ele>1967.0</ele>
        <time>2019-08-04T08:24:28.791Z</time>
      </trkpt>
      <trkpt lat="42.55530167" lon="1.57087667">
        <ele>1967.0</ele>
        <time>2019-08-04T08:24:29.773Z</time>
      </trkpt>
      <trkpt lat="42.55534333" lon="1.57096167">
        <ele>1967.0</ele>
        <time>2019-08-04T08:24:30.798Z</time>
      </trkpt>
      <trkpt lat="42.55536667" lon="1.571005">
        <ele>1968.0</ele>
        <time>2019-08-04T08:24:31.801Z</time>
      </trkpt>
      <trkpt lat="42.555395" lon="1.57104667">
        <ele>1969.0</ele>
        <time>2019-08-04T08:24:32.801Z</time>
      </trkpt>
      <trkpt lat="42.555395" lon="1.57104667">
        <ele>1969.0</ele>
        <time>2019-08-04T08:24:33.794Z</time>
      </trkpt>
      <trkpt lat="42.55544667" lon="1.57112333">
        <ele>1970.0</ele>
        <time>2019-08-04T08:24:34.774Z</time>
      </trkpt>
      <trkpt lat="42.55547667" lon="1.57116">
        <ele>1970.0</ele>
        <time>2019-08-04T08:24:35.801Z</time>
      </trkpt>
      <trkpt lat="42.55547667" lon="1.57116">
        <ele>1970.0</ele>
        <time>2019-08-04T08:24:36.798Z</time>
      </trkpt>
      <trkpt lat="42.55554667" lon="1.57122833">
        <ele>1971.0</ele>
        <time>2019-08-04T08:24:37.797Z</time>
      </trkpt>
      <trkpt lat="42.555585" lon="1.57126333">
        <ele>1971.0</ele>
        <time>2019-08-04T08:24:38.785Z</time>
      </trkpt>
      <trkpt lat="42.555585" lon="1.57126333">
        <ele>1971.0</ele>
        <time>2019-08-04T08:24:39.774Z</time>
      </trkpt>
      <trkpt lat="42.55566" lon="1.57132333">
        <ele>1972.0</ele>
        <time>2019-08-04T08:24:40.801Z</time>
      </trkpt>
      <trkpt lat="42.55566" lon="1.57132333">
        <ele>1972.0</ele>
        <time>2019-08-04T08:24:41.798Z</time>
      </trkpt>
      <trkpt lat="42.55573667" lon="1.57138167">
        <ele>1972.0</ele>
        <time>2019-08-04T08:24:42.801Z</time>
      </trkpt>
      <trkpt lat="42.55573667" lon="1.57138167">
        <ele>1972.0</ele>
        <time>2019-08-04T08:24:43.793Z</time>
      </trkpt>
      <trkpt lat="42.555815" lon="1.57143667">
        <ele>1973.0</ele>
        <time>2019-08-04T08:24:44.774Z</time>
      </trkpt>
      <trkpt lat="42.555815" lon="1.57143667">
        <ele>1973.0</ele>
        <time>2019-08-04T08:24:45.797Z</time>
      </trkpt>
      <trkpt lat="42.55589" lon="1.57149667">
        <ele>1973.0</ele>
        <time>2019-08-04T08:24:46.797Z</time>
      </trkpt>
      <trkpt lat="42.555925" lon="1.57152833">
        <ele>1973.0</ele>
        <time>2019-08-04T08:24:47.800Z</time>
      </trkpt>
      <trkpt lat="42.55595667" lon="1.57156167">
        <ele>1973.0</ele>
        <time>2019-08-04T08:24:48.788Z</time>
      </trkpt>
      <trkpt lat="42.55595667" lon="1.57156167">
        <ele>1973.0</ele>
        <time>2019-08-04T08:24:49.772Z</time>
      </trkpt>
      <trkpt lat="42.55602" lon="1.57163167">
        <ele>1974.0</ele>
        <time>2019-08-04T08:24:50.798Z</time>
      </trkpt>
      <trkpt lat="42.55602" lon="1.57163167">
        <ele>1974.0</ele>
        <time>2019-08-04T08:24:51.795Z</time>
      </trkpt>
      <trkpt lat="42.55606833" lon="1.57172">
        <ele>1974.0</ele>
        <time>2019-08-04T08:24:52.775Z</time>
      </trkpt>
      <trkpt lat="42.55606833" lon="1.57172">
        <ele>1974.0</ele>
        <time>2019-08-04T08:24:53.797Z</time>
      </trkpt>
      <trkpt lat="42.55609667" lon="1.57182">
        <ele>1975.0</ele>
        <time>2019-08-04T08:24:54.798Z</time>
      </trkpt>
      <trkpt lat="42.55609667" lon="1.57182">
        <ele>1975.0</ele>
        <time>2019-08-04T08:24:55.795Z</time>
      </trkpt>
      <trkpt lat="42.55609833" lon="1.57192167">
        <ele>1975.0</ele>
        <time>2019-08-04T08:24:56.775Z</time>
      </trkpt>
      <trkpt lat="42.55609833" lon="1.57192167">
        <ele>1975.0</ele>
        <time>2019-08-04T08:24:57.797Z</time>
      </trkpt>
      <trkpt lat="42.55609333" lon="1.57201667">
        <ele>1976.0</ele>
        <time>2019-08-04T08:24:58.788Z</time>
      </trkpt>
      <trkpt lat="42.55609333" lon="1.57201667">
        <ele>1976.0</ele>
        <time>2019-08-04T08:24:59.775Z</time>
      </trkpt>
      <trkpt lat="42.55609" lon="1.57209333">
        <ele>1976.0</ele>
        <time>2019-08-04T08:25:00.801Z</time>
      </trkpt>
      <trkpt lat="42.55609" lon="1.57209333">
        <ele>1976.0</ele>
        <time>2019-08-04T08:25:01.797Z</time>
      </trkpt>
      <trkpt lat="42.55608667" lon="1.57217667">
        <ele>1977.0</ele>
        <time>2019-08-04T08:25:02.800Z</time>
      </trkpt>
      <trkpt lat="42.55608667" lon="1.57217667">
        <ele>1977.0</ele>
        <time>2019-08-04T08:25:03.768Z</time>
      </trkpt>
      <trkpt lat="42.55607" lon="1.572265">
        <ele>1978.0</ele>
        <time>2019-08-04T08:25:04.800Z</time>
      </trkpt>
      <trkpt lat="42.55607" lon="1.572265">
        <ele>1978.0</ele>
        <time>2019-08-04T08:25:05.768Z</time>
      </trkpt>
      <trkpt lat="42.55603833" lon="1.57235167">
        <ele>1978.0</ele>
        <time>2019-08-04T08:25:06.792Z</time>
      </trkpt>
      <trkpt lat="42.55602" lon="1.57239333">
        <ele>1978.0</ele>
        <time>2019-08-04T08:25:07.798Z</time>
      </trkpt>
      <trkpt lat="42.55600333" lon="1.57243667">
        <ele>1978.0</ele>
        <time>2019-08-04T08:25:08.785Z</time>
      </trkpt>
      <trkpt lat="42.55600333" lon="1.57243667">
        <ele>1978.0</ele>
        <time>2019-08-04T08:25:09.774Z</time>
      </trkpt>
      <trkpt lat="42.55597" lon="1.57252167">
        <ele>1979.0</ele>
        <time>2019-08-04T08:25:10.801Z</time>
      </trkpt>
      <trkpt lat="42.555955" lon="1.57256833">
        <ele>1978.0</ele>
        <time>2019-08-04T08:25:11.801Z</time>
      </trkpt>
      <trkpt lat="42.55593667" lon="1.57262167">
        <ele>1977.0</ele>
        <time>2019-08-04T08:25:12.802Z</time>
      </trkpt>
      <trkpt lat="42.55593667" lon="1.57262167">
        <ele>1977.0</ele>
        <time>2019-08-04T08:25:13.798Z</time>
      </trkpt>
      <trkpt lat="42.555905" lon="1.57274667">
        <ele>1977.0</ele>
        <time>2019-08-04T08:25:14.798Z</time>
      </trkpt>
      <trkpt lat="42.555905" lon="1.57274667">
        <ele>1977.0</ele>
        <time>2019-08-04T08:25:15.798Z</time>
      </trkpt>
      <trkpt lat="42.55588833" lon="1.572905">
        <ele>1976.0</ele>
        <time>2019-08-04T08:25:16.800Z</time>
      </trkpt>
      <trkpt lat="42.55589167" lon="1.57299333">
        <ele>1976.0</ele>
        <time>2019-08-04T08:25:17.800Z</time>
      </trkpt>
      <trkpt lat="42.555915" lon="1.57308333">
        <ele>1976.0</ele>
        <time>2019-08-04T08:25:18.789Z</time>
      </trkpt>
      <trkpt lat="42.555915" lon="1.57308333">
        <ele>1976.0</ele>
        <time>2019-08-04T08:25:19.766Z</time>
      </trkpt>
      <trkpt lat="42.55599833" lon="1.57324833">
        <ele>1975.0</ele>
        <time>2019-08-04T08:25:20.766Z</time>
      </trkpt>
      <trkpt lat="42.55599833" lon="1.57324833">
        <ele>1975.0</ele>
        <time>2019-08-04T08:25:21.791Z</time>
      </trkpt>
      <trkpt lat="42.55610167" lon="1.57342167">
        <ele>1975.0</ele>
        <time>2019-08-04T08:25:22.773Z</time>
      </trkpt>
      <trkpt lat="42.55610167" lon="1.57342167">
        <ele>1975.0</ele>
        <time>2019-08-04T08:25:23.797Z</time>
      </trkpt>
      <trkpt lat="42.55621333" lon="1.57361">
        <ele>1974.0</ele>
        <time>2019-08-04T08:25:24.778Z</time>
      </trkpt>
      <trkpt lat="42.55621333" lon="1.57361">
        <ele>1974.0</ele>
        <time>2019-08-04T08:25:25.799Z</time>
      </trkpt>
      <trkpt lat="42.556335" lon="1.57379167">
        <ele>1973.0</ele>
        <time>2019-08-04T08:25:26.798Z</time>
      </trkpt>
      <trkpt lat="42.556335" lon="1.57379167">
        <ele>1973.0</ele>
        <time>2019-08-04T08:25:27.791Z</time>
      </trkpt>
      <trkpt lat="42.55646167" lon="1.57398167">
        <ele>1972.0</ele>
        <time>2019-08-04T08:25:28.787Z</time>
      </trkpt>
      <trkpt lat="42.55646167" lon="1.57398167">
        <ele>1972.0</ele>
        <time>2019-08-04T08:25:29.766Z</time>
      </trkpt>
      <trkpt lat="42.55658333" lon="1.57418667">
        <ele>1971.0</ele>
        <time>2019-08-04T08:25:30.799Z</time>
      </trkpt>
      <trkpt lat="42.55658333" lon="1.57418667">
        <ele>1971.0</ele>
        <time>2019-08-04T08:25:31.794Z</time>
      </trkpt>
      <trkpt lat="42.556715" lon="1.57439667">
        <ele>1971.0</ele>
        <time>2019-08-04T08:25:32.773Z</time>
      </trkpt>
      <trkpt lat="42.556715" lon="1.57439667">
        <ele>1971.0</ele>
        <time>2019-08-04T08:25:33.768Z</time>
      </trkpt>
      <trkpt lat="42.55684" lon="1.57462167">
        <ele>1970.0</ele>
        <time>2019-08-04T08:25:34.800Z</time>
      </trkpt>
      <trkpt lat="42.55684" lon="1.57462167">
        <ele>1970.0</ele>
        <time>2019-08-04T08:25:35.796Z</time>
      </trkpt>
      <trkpt lat="42.556965" lon="1.574855">
        <ele>1969.0</ele>
        <time>2019-08-04T08:25:36.775Z</time>
      </trkpt>
      <trkpt lat="42.556965" lon="1.574855">
        <ele>1969.0</ele>
        <time>2019-08-04T08:25:37.771Z</time>
      </trkpt>
      <trkpt lat="42.55709" lon="1.57510833">
        <ele>1968.0</ele>
        <time>2019-08-04T08:25:38.785Z</time>
      </trkpt>
      <trkpt lat="42.55709" lon="1.57510833">
        <ele>1968.0</ele>
        <time>2019-08-04T08:25:39.774Z</time>
      </trkpt>
      <trkpt lat="42.55721" lon="1.575365">
        <ele>1967.0</ele>
        <time>2019-08-04T08:25:40.801Z</time>
      </trkpt>
      <trkpt lat="42.55721" lon="1.575365">
        <ele>1967.0</ele>
        <time>2019-08-04T08:25:41.766Z</time>
      </trkpt>
      <trkpt lat="42.55733167" lon="1.575605">
        <ele>1966.0</ele>
        <time>2019-08-04T08:25:42.771Z</time>
      </trkpt>
      <trkpt lat="42.55733167" lon="1.575605">
        <ele>1966.0</ele>
        <time>2019-08-04T08:25:43.798Z</time>
      </trkpt>
      <trkpt lat="42.55750333" lon="1.57577833">
        <ele>1966.0</ele>
        <time>2019-08-04T08:25:44.801Z</time>
      </trkpt>
      <trkpt lat="42.55750333" lon="1.57577833">
        <ele>1966.0</ele>
        <time>2019-08-04T08:25:45.797Z</time>
      </trkpt>
      <trkpt lat="42.557705" lon="1.575875">
        <ele>1965.0</ele>
        <time>2019-08-04T08:25:46.799Z</time>
      </trkpt>
      <trkpt lat="42.557705" lon="1.575875">
        <ele>1965.0</ele>
        <time>2019-08-04T08:25:47.797Z</time>
      </trkpt>
      <trkpt lat="42.55792833" lon="1.57592333">
        <ele>1963.0</ele>
        <time>2019-08-04T08:25:48.785Z</time>
      </trkpt>
      <trkpt lat="42.55792833" lon="1.57592333">
        <ele>1963.0</ele>
        <time>2019-08-04T08:25:49.768Z</time>
      </trkpt>
      <trkpt lat="42.55816" lon="1.5759">
        <ele>1962.0</ele>
        <time>2019-08-04T08:25:50.798Z</time>
      </trkpt>
      <trkpt lat="42.55816" lon="1.5759">
        <ele>1962.0</ele>
        <time>2019-08-04T08:25:51.793Z</time>
      </trkpt>
      <trkpt lat="42.55839333" lon="1.57578833">
        <ele>1961.0</ele>
        <time>2019-08-04T08:25:52.774Z</time>
      </trkpt>
      <trkpt lat="42.55839333" lon="1.57578833">
        <ele>1961.0</ele>
        <time>2019-08-04T08:25:53.797Z</time>
      </trkpt>
      <trkpt lat="42.55863" lon="1.57566667">
        <ele>1960.0</ele>
        <time>2019-08-04T08:25:54.777Z</time>
      </trkpt>
      <trkpt lat="42.55863" lon="1.57566667">
        <ele>1960.0</ele>
        <time>2019-08-04T08:25:55.798Z</time>
      </trkpt>
      <trkpt lat="42.55888167" lon="1.57558833">
        <ele>1959.0</ele>
        <time>2019-08-04T08:25:56.800Z</time>
      </trkpt>
      <trkpt lat="42.55888167" lon="1.57558833">
        <ele>1959.0</ele>
        <time>2019-08-04T08:25:57.797Z</time>
      </trkpt>
      <trkpt lat="42.55914167" lon="1.57552833">
        <ele>1957.0</ele>
        <time>2019-08-04T08:25:58.784Z</time>
      </trkpt>
      <trkpt lat="42.55914167" lon="1.57552833">
        <ele>1957.0</ele>
        <time>2019-08-04T08:25:59.802Z</time>
      </trkpt>
      <trkpt lat="42.55940667" lon="1.57543833">
        <ele>1956.0</ele>
        <time>2019-08-04T08:26:00.798Z</time>
      </trkpt>
      <trkpt lat="42.55940667" lon="1.57543833">
        <ele>1956.0</ele>
        <time>2019-08-04T08:26:01.795Z</time>
      </trkpt>
      <trkpt lat="42.55967833" lon="1.57532333">
        <ele>1954.0</ele>
        <time>2019-08-04T08:26:02.775Z</time>
      </trkpt>
      <trkpt lat="42.55967833" lon="1.57532333">
        <ele>1954.0</ele>
        <time>2019-08-04T08:26:03.766Z</time>
      </trkpt>
      <trkpt lat="42.55995" lon="1.57517333">
        <ele>1952.0</ele>
        <time>2019-08-04T08:26:04.800Z</time>
      </trkpt>
      <trkpt lat="42.55995" lon="1.57517333">
        <ele>1952.0</ele>
        <time>2019-08-04T08:26:05.770Z</time>
      </trkpt>
      <trkpt lat="42.56022833" lon="1.57503">
        <ele>1950.0</ele>
        <time>2019-08-04T08:26:06.775Z</time>
      </trkpt>
      <trkpt lat="42.56022833" lon="1.57503">
        <ele>1950.0</ele>
        <time>2019-08-04T08:26:07.787Z</time>
      </trkpt>
      <trkpt lat="42.560515" lon="1.57487">
        <ele>1948.0</ele>
        <time>2019-08-04T08:26:08.786Z</time>
      </trkpt>
      <trkpt lat="42.560515" lon="1.57487">
        <ele>1948.0</ele>
        <time>2019-08-04T08:26:09.774Z</time>
      </trkpt>
      <trkpt lat="42.56081833" lon="1.574775">
        <ele>1946.0</ele>
        <time>2019-08-04T08:26:10.801Z</time>
      </trkpt>
      <trkpt lat="42.56081833" lon="1.574775">
        <ele>1946.0</ele>
        <time>2019-08-04T08:26:11.795Z</time>
      </trkpt>
      <trkpt lat="42.56112333" lon="1.57481667">
        <ele>1944.0</ele>
        <time>2019-08-04T08:26:12.776Z</time>
      </trkpt>
      <trkpt lat="42.56112333" lon="1.57481667">
        <ele>1944.0</ele>
        <time>2019-08-04T08:26:13.797Z</time>
      </trkpt>
      <trkpt lat="42.56141333" lon="1.57494333">
        <ele>1942.0</ele>
        <time>2019-08-04T08:26:14.801Z</time>
      </trkpt>
      <trkpt lat="42.56141333" lon="1.57494333">
        <ele>1942.0</ele>
        <time>2019-08-04T08:26:15.794Z</time>
      </trkpt>
      <trkpt lat="42.56169667" lon="1.57496167">
        <ele>1940.0</ele>
        <time>2019-08-04T08:26:16.774Z</time>
      </trkpt>
      <trkpt lat="42.56169667" lon="1.57496167">
        <ele>1940.0</ele>
        <time>2019-08-04T08:26:17.798Z</time>
      </trkpt>
      <trkpt lat="42.561985" lon="1.57490833">
        <ele>1938.0</ele>
        <time>2019-08-04T08:26:18.788Z</time>
      </trkpt>
      <trkpt lat="42.561985" lon="1.57490833">
        <ele>1938.0</ele>
        <time>2019-08-04T08:26:19.768Z</time>
      </trkpt>
      <trkpt lat="42.56227" lon="1.57481333">
        <ele>1936.0</ele>
        <time>2019-08-04T08:26:20.801Z</time>
      </trkpt>
      <trkpt lat="42.56227" lon="1.57481333">
        <ele>1936.0</ele>
        <time>2019-08-04T08:26:21.797Z</time>
      </trkpt>
      <trkpt lat="42.56255" lon="1.57465333">
        <ele>1933.0</ele>
        <time>2019-08-04T08:26:22.801Z</time>
      </trkpt>
      <trkpt lat="42.56255" lon="1.57465333">
        <ele>1933.0</ele>
        <time>2019-08-04T08:26:23.798Z</time>
      </trkpt>
      <trkpt lat="42.56281167" lon="1.574505">
        <ele>1930.0</ele>
        <time>2019-08-04T08:26:24.801Z</time>
      </trkpt>
      <trkpt lat="42.56292833" lon="1.57444167">
        <ele>1929.0</ele>
        <time>2019-08-04T08:26:25.801Z</time>
      </trkpt>
      <trkpt lat="42.56292833" lon="1.57444167">
        <ele>1929.0</ele>
        <time>2019-08-04T08:26:26.799Z</time>
      </trkpt>
      <trkpt lat="42.56312833" lon="1.574345">
        <ele>1927.0</ele>
        <time>2019-08-04T08:26:27.800Z</time>
      </trkpt>
      <trkpt lat="42.56322333" lon="1.57431">
        <ele>1926.0</ele>
        <time>2019-08-04T08:26:28.785Z</time>
      </trkpt>
      <trkpt lat="42.56322333" lon="1.57431">
        <ele>1926.0</ele>
        <time>2019-08-04T08:26:29.766Z</time>
      </trkpt>
      <trkpt lat="42.56340667" lon="1.57426833">
        <ele>1924.0</ele>
        <time>2019-08-04T08:26:30.801Z</time>
      </trkpt>
      <trkpt lat="42.56340667" lon="1.57426833">
        <ele>1924.0</ele>
        <time>2019-08-04T08:26:31.797Z</time>
      </trkpt>
      <trkpt lat="42.56356667" lon="1.57427333">
        <ele>1922.0</ele>
        <time>2019-08-04T08:26:32.801Z</time>
      </trkpt>
      <trkpt lat="42.56356667" lon="1.57427333">
        <ele>1922.0</ele>
        <time>2019-08-04T08:26:33.793Z</time>
      </trkpt>
      <trkpt lat="42.563675" lon="1.574345">
        <ele>1920.0</ele>
        <time>2019-08-04T08:26:34.773Z</time>
      </trkpt>
      <trkpt lat="42.56371833" lon="1.57439167">
        <ele>1920.0</ele>
        <time>2019-08-04T08:26:35.800Z</time>
      </trkpt>
      <trkpt lat="42.56375333" lon="1.57443333">
        <ele>1919.0</ele>
        <time>2019-08-04T08:26:36.803Z</time>
      </trkpt>
      <trkpt lat="42.56375333" lon="1.57443333">
        <ele>1919.0</ele>
        <time>2019-08-04T08:26:37.798Z</time>
      </trkpt>
      <trkpt lat="42.563795" lon="1.57451">
        <ele>1918.0</ele>
        <time>2019-08-04T08:26:38.779Z</time>
      </trkpt>
      <trkpt lat="42.563795" lon="1.57451">
        <ele>1918.0</ele>
        <time>2019-08-04T08:26:39.800Z</time>
      </trkpt>
      <trkpt lat="42.56379" lon="1.57456167">
        <ele>1917.0</ele>
        <time>2019-08-04T08:26:40.800Z</time>
      </trkpt>
      <trkpt lat="42.56379" lon="1.57456167">
        <ele>1917.0</ele>
        <time>2019-08-04T08:26:41.804Z</time>
      </trkpt>
      <trkpt lat="42.563775" lon="1.57458333">
        <ele>1917.0</ele>
        <time>2019-08-04T08:26:42.769Z</time>
      </trkpt>
      <trkpt lat="42.563775" lon="1.57458333">
        <ele>1917.0</ele>
        <time>2019-08-04T08:26:43.798Z</time>
      </trkpt>
      <trkpt lat="42.563775" lon="1.57459167">
        <ele>1916.0</ele>
        <time>2019-08-04T08:26:44.802Z</time>
      </trkpt>
      <trkpt lat="42.563775" lon="1.57459167">
        <ele>1916.0</ele>
        <time>2019-08-04T08:26:45.791Z</time>
      </trkpt>
      <trkpt lat="42.56377167" lon="1.57459833">
        <ele>1917.0</ele>
        <time>2019-08-04T08:26:46.772Z</time>
      </trkpt>
      <trkpt lat="42.56377167" lon="1.57459833">
        <ele>1917.0</ele>
        <time>2019-08-04T08:26:47.797Z</time>
      </trkpt>
      <trkpt lat="42.56376333" lon="1.574605">
        <ele>1916.0</ele>
        <time>2019-08-04T08:26:48.783Z</time>
      </trkpt>
      <trkpt lat="42.56376333" lon="1.574605">
        <ele>1916.0</ele>
        <time>2019-08-04T08:26:49.766Z</time>
      </trkpt>
      <trkpt lat="42.56375667" lon="1.57461667">
        <ele>1916.0</ele>
        <time>2019-08-04T08:26:50.801Z</time>
      </trkpt>
      <trkpt lat="42.563755" lon="1.57462">
        <ele>1916.0</ele>
        <time>2019-08-04T08:26:51.802Z</time>
      </trkpt>
      <trkpt lat="42.563755" lon="1.57462">
        <ele>1916.0</ele>
        <time>2019-08-04T08:26:52.797Z</time>
      </trkpt>
      <trkpt lat="42.56375" lon="1.57463">
        <ele>1916.0</ele>
        <time>2019-08-04T08:26:53.801Z</time>
      </trkpt>
      <trkpt lat="42.56374" lon="1.57463333">
        <ele>1915.0</ele>
        <time>2019-08-04T08:26:54.803Z</time>
      </trkpt>
      <trkpt lat="42.56374" lon="1.57463333">
        <ele>1915.0</ele>
        <time>2019-08-04T08:26:55.798Z</time>
      </trkpt>
      <trkpt lat="42.563735" lon="1.574635">
        <ele>1915.0</ele>
        <time>2019-08-04T08:26:56.774Z</time>
      </trkpt>
      <trkpt lat="42.563735" lon="1.574635">
        <ele>1915.0</ele>
        <time>2019-08-04T08:26:57.798Z</time>
      </trkpt>
      <trkpt lat="42.563725" lon="1.57463167">
        <ele>1915.0</ele>
        <time>2019-08-04T08:26:58.785Z</time>
      </trkpt>
      <trkpt lat="42.563725" lon="1.57463167">
        <ele>1915.0</ele>
        <time>2019-08-04T08:26:59.801Z</time>
      </trkpt>
      <trkpt lat="42.56371833" lon="1.57463167">
        <ele>1915.0</ele>
        <time>2019-08-04T08:27:00.802Z</time>
      </trkpt>
      <trkpt lat="42.56371833" lon="1.57463167">
        <ele>1915.0</ele>
        <time>2019-08-04T08:27:01.767Z</time>
      </trkpt>
      <trkpt lat="42.56371167" lon="1.57463167">
        <ele>1915.0</ele>
        <time>2019-08-04T08:27:02.799Z</time>
      </trkpt>
      <trkpt lat="42.56371167" lon="1.57463167">
        <ele>1915.0</ele>
        <time>2019-08-04T08:27:03.797Z</time>
      </trkpt>
      <trkpt lat="42.56370667" lon="1.57463167">
        <ele>1915.0</ele>
        <time>2019-08-04T08:27:04.800Z</time>
      </trkpt>
      <trkpt lat="42.56370667" lon="1.57463167">
        <ele>1915.0</ele>
        <time>2019-08-04T08:27:05.785Z</time>
      </trkpt>
      <trkpt lat="42.56370667" lon="1.57463167">
        <ele>1915.0</ele>
        <time>2019-08-04T08:27:06.791Z</time>
      </trkpt>
      <trkpt lat="42.56370667" lon="1.57463167">
        <ele>1915.0</ele>
        <time>2019-08-04T08:27:07.797Z</time>
      </trkpt>
      <trkpt lat="42.56366833" lon="1.57463">
        <ele>1914.0</ele>
        <time>2019-08-04T08:27:08.800Z</time>
      </trkpt>
      <trkpt lat="42.56366833" lon="1.57463">
        <ele>1914.0</ele>
        <time>2019-08-04T08:27:09.789Z</time>
      </trkpt>
      <trkpt lat="42.56368333" lon="1.57461667">
        <ele>1914.0</ele>
        <time>2019-08-04T08:27:10.777Z</time>
      </trkpt>
      <trkpt lat="42.56368333" lon="1.57461667">
        <ele>1914.0</ele>
        <time>2019-08-04T08:27:11.765Z</time>
      </trkpt>
      <trkpt lat="42.56368167" lon="1.57461667">
        <ele>1914.0</ele>
        <time>2019-08-04T08:27:12.793Z</time>
      </trkpt>
      <trkpt lat="42.56368167" lon="1.57461667">
        <ele>1914.0</ele>
        <time>2019-08-04T08:27:13.783Z</time>
      </trkpt>
      <trkpt lat="42.563685" lon="1.57461167">
        <ele>1914.0</ele>
        <time>2019-08-04T08:27:14.803Z</time>
      </trkpt>
      <trkpt lat="42.563685" lon="1.57461167">
        <ele>1914.0</ele>
        <time>2019-08-04T08:27:15.789Z</time>
      </trkpt>
      <trkpt lat="42.5637" lon="1.57460833">
        <ele>1914.0</ele>
        <time>2019-08-04T08:27:16.792Z</time>
      </trkpt>
      <trkpt lat="42.5637" lon="1.57460833">
        <ele>1914.0</ele>
        <time>2019-08-04T08:27:17.779Z</time>
      </trkpt>
      <trkpt lat="42.5637" lon="1.57460833">
        <ele>1914.0</ele>
        <time>2019-08-04T08:27:18.802Z</time>
      </trkpt>
      <trkpt lat="42.5637" lon="1.57460833">
        <ele>1914.0</ele>
        <time>2019-08-04T08:27:19.794Z</time>
      </trkpt>
      <trkpt lat="42.5637" lon="1.57460833">
        <ele>1914.0</ele>
        <time>2019-08-04T08:27:20.775Z</time>
      </trkpt>
      <trkpt lat="42.5637" lon="1.57460833">
        <ele>1914.0</ele>
        <time>2019-08-04T08:27:21.769Z</time>
      </trkpt>
      <trkpt lat="42.5637" lon="1.57460833">
        <ele>1914.0</ele>
        <time>2019-08-04T08:27:22.770Z</time>
      </trkpt>
      <trkpt lat="42.5637" lon="1.57460833">
        <ele>1914.0</ele>
        <time>2019-08-04T08:27:23.804Z</time>
      </trkpt>
      <trkpt lat="42.5637" lon="1.57460833">
        <ele>1914.0</ele>
        <time>2019-08-04T08:27:24.797Z</time>
      </trkpt>
      <trkpt lat="42.5637" lon="1.57460833">
        <ele>1914.0</ele>
        <time>2019-08-04T08:27:25.776Z</time>
      </trkpt>
      <trkpt lat="42.5637" lon="1.57460833">
        <ele>1914.0</ele>
        <time>2019-08-04T08:27:26.779Z</time>
      </trkpt>
      <trkpt lat="42.5637" lon="1.57460833">
        <ele>1914.0</ele>
        <time>2019-08-04T08:27:27.779Z</time>
      </trkpt>
      <trkpt lat="42.56365333" lon="1.57461333">
        <ele>1916.0</ele>
        <time>2019-08-04T08:27:28.800Z</time>
      </trkpt>
      <trkpt lat="42.56365333" lon="1.57461333">
        <ele>1916.0</ele>
        <time>2019-08-04T08:27:29.804Z</time>
      </trkpt>
      <trkpt lat="42.56366333" lon="1.574635">
        <ele>1915.0</ele>
        <time>2019-08-04T08:27:30.770Z</time>
      </trkpt>
      <trkpt lat="42.563705" lon="1.57466667">
        <ele>1915.0</ele>
        <time>2019-08-04T08:27:31.779Z</time>
      </trkpt>
      <trkpt lat="42.563705" lon="1.57466667">
        <ele>1915.0</ele>
        <time>2019-08-04T08:27:32.792Z</time>
      </trkpt>
      <trkpt lat="42.56373333" lon="1.5747">
        <ele>1915.0</ele>
        <time>2019-08-04T08:27:33.791Z</time>
      </trkpt>
      <trkpt lat="42.563735" lon="1.574705">
        <ele>1914.0</ele>
        <time>2019-08-04T08:27:34.766Z</time>
      </trkpt>
      <trkpt lat="42.563805" lon="1.57460833">
        <ele>1917.0</ele>
        <time>2019-08-04T08:38:29.333Z</time>
      </trkpt>
      <trkpt lat="42.563805" lon="1.57460833">
        <ele>1917.0</ele>
        <time>2019-08-04T08:38:30.306Z</time>
      </trkpt>
      <trkpt lat="42.563825" lon="1.57461667">
        <ele>1917.0</ele>
        <time>2019-08-04T08:38:31.314Z</time>
      </trkpt>
      <trkpt lat="42.563825" lon="1.57461667">
        <ele>1917.0</ele>
        <time>2019-08-04T08:38:32.325Z</time>
      </trkpt>
      <trkpt lat="42.56384667" lon="1.57462333">
        <ele>1917.0</ele>
        <time>2019-08-04T08:38:33.317Z</time>
      </trkpt>
      <trkpt lat="42.56384667" lon="1.57462333">
        <ele>1917.0</ele>
        <time>2019-08-04T08:38:34.314Z</time>
      </trkpt>
      <trkpt lat="42.56385667" lon="1.574625">
        <ele>1917.0</ele>
        <time>2019-08-04T08:38:35.323Z</time>
      </trkpt>
      <trkpt lat="42.56385667" lon="1.574625">
        <ele>1917.0</ele>
        <time>2019-08-04T08:38:36.311Z</time>
      </trkpt>
      <trkpt lat="42.56386" lon="1.574625">
        <ele>1917.0</ele>
        <time>2019-08-04T08:38:37.308Z</time>
      </trkpt>
      <trkpt lat="42.56386" lon="1.574625">
        <ele>1917.0</ele>
        <time>2019-08-04T08:38:38.314Z</time>
      </trkpt>
      <trkpt lat="42.56388167" lon="1.57465">
        <ele>1917.0</ele>
        <time>2019-08-04T08:38:39.318Z</time>
      </trkpt>
      <trkpt lat="42.56388833" lon="1.57467167">
        <ele>1917.0</ele>
        <time>2019-08-04T08:38:40.335Z</time>
      </trkpt>
      <trkpt lat="42.56388833" lon="1.57467167">
        <ele>1917.0</ele>
        <time>2019-08-04T08:38:41.325Z</time>
      </trkpt>
      <trkpt lat="42.5639" lon="1.574735">
        <ele>1917.0</ele>
        <time>2019-08-04T08:38:42.319Z</time>
      </trkpt>
      <trkpt lat="42.5639" lon="1.574735">
        <ele>1917.0</ele>
        <time>2019-08-04T08:38:43.314Z</time>
      </trkpt>
      <trkpt lat="42.56391" lon="1.57480833">
        <ele>1917.0</ele>
        <time>2019-08-04T08:38:44.316Z</time>
      </trkpt>
      <trkpt lat="42.563915" lon="1.57484667">
        <ele>1916.0</ele>
        <time>2019-08-04T08:38:45.318Z</time>
      </trkpt>
      <trkpt lat="42.563915" lon="1.57484667">
        <ele>1916.0</ele>
        <time>2019-08-04T08:38:46.328Z</time>
      </trkpt>
      <trkpt lat="42.56392667" lon="1.57491833">
        <ele>1916.0</ele>
        <time>2019-08-04T08:38:47.307Z</time>
      </trkpt>
      <trkpt lat="42.56392667" lon="1.57491833">
        <ele>1916.0</ele>
        <time>2019-08-04T08:38:48.314Z</time>
      </trkpt>
      <trkpt lat="42.56394" lon="1.57499833">
        <ele>1916.0</ele>
        <time>2019-08-04T08:38:49.319Z</time>
      </trkpt>
      <trkpt lat="42.56394" lon="1.57499833">
        <ele>1916.0</ele>
        <time>2019-08-04T08:38:50.312Z</time>
      </trkpt>
      <trkpt lat="42.56395" lon="1.57508667">
        <ele>1916.0</ele>
        <time>2019-08-04T08:38:51.317Z</time>
      </trkpt>
      <trkpt lat="42.56395" lon="1.57508667">
        <ele>1916.0</ele>
        <time>2019-08-04T08:38:52.313Z</time>
      </trkpt>
      <trkpt lat="42.56396167" lon="1.57518667">
        <ele>1916.0</ele>
        <time>2019-08-04T08:38:53.317Z</time>
      </trkpt>
      <trkpt lat="42.56396167" lon="1.57518667">
        <ele>1916.0</ele>
        <time>2019-08-04T08:38:54.315Z</time>
      </trkpt>
      <trkpt lat="42.56398167" lon="1.57528833">
        <ele>1916.0</ele>
        <time>2019-08-04T08:38:55.318Z</time>
      </trkpt>
      <trkpt lat="42.56398167" lon="1.57528833">
        <ele>1916.0</ele>
        <time>2019-08-04T08:38:56.313Z</time>
      </trkpt>
      <trkpt lat="42.564015" lon="1.57540167">
        <ele>1916.0</ele>
        <time>2019-08-04T08:38:57.304Z</time>
      </trkpt>
      <trkpt lat="42.564015" lon="1.57540167">
        <ele>1916.0</ele>
        <time>2019-08-04T08:38:58.326Z</time>
      </trkpt>
      <trkpt lat="42.56405833" lon="1.57552">
        <ele>1915.0</ele>
        <time>2019-08-04T08:38:59.316Z</time>
      </trkpt>
      <trkpt lat="42.56405833" lon="1.57552">
        <ele>1915.0</ele>
        <time>2019-08-04T08:39:00.315Z</time>
      </trkpt>
      <trkpt lat="42.56410833" lon="1.57564167">
        <ele>1915.0</ele>
        <time>2019-08-04T08:39:01.316Z</time>
      </trkpt>
      <trkpt lat="42.56410833" lon="1.57564167">
        <ele>1915.0</ele>
        <time>2019-08-04T08:39:02.313Z</time>
      </trkpt>
      <trkpt lat="42.56416667" lon="1.57576167">
        <ele>1915.0</ele>
        <time>2019-08-04T08:39:03.317Z</time>
      </trkpt>
      <trkpt lat="42.56416667" lon="1.57576167">
        <ele>1915.0</ele>
        <time>2019-08-04T08:39:04.313Z</time>
      </trkpt>
      <trkpt lat="42.56423833" lon="1.57587">
        <ele>1914.0</ele>
        <time>2019-08-04T08:39:05.317Z</time>
      </trkpt>
      <trkpt lat="42.56428167" lon="1.57591667">
        <ele>1914.0</ele>
        <time>2019-08-04T08:39:06.331Z</time>
      </trkpt>
      <trkpt lat="42.56433" lon="1.57595667">
        <ele>1914.0</ele>
        <time>2019-08-04T08:39:07.306Z</time>
      </trkpt>
      <trkpt lat="42.56433" lon="1.57595667">
        <ele>1914.0</ele>
        <time>2019-08-04T08:39:08.335Z</time>
      </trkpt>
      <trkpt lat="42.56444" lon="1.57600667">
        <ele>1913.0</ele>
        <time>2019-08-04T08:39:09.319Z</time>
      </trkpt>
      <trkpt lat="42.56444" lon="1.57600667">
        <ele>1913.0</ele>
        <time>2019-08-04T08:39:10.315Z</time>
      </trkpt>
      <trkpt lat="42.564555" lon="1.57602167">
        <ele>1913.0</ele>
        <time>2019-08-04T08:39:11.318Z</time>
      </trkpt>
      <trkpt lat="42.564555" lon="1.57602167">
        <ele>1913.0</ele>
        <time>2019-08-04T08:39:12.313Z</time>
      </trkpt>
      <trkpt lat="42.56468167" lon="1.57603833">
        <ele>1913.0</ele>
        <time>2019-08-04T08:39:13.319Z</time>
      </trkpt>
      <trkpt lat="42.56468167" lon="1.57603833">
        <ele>1913.0</ele>
        <time>2019-08-04T08:39:14.314Z</time>
      </trkpt>
      <trkpt lat="42.56481333" lon="1.57608167">
        <ele>1913.0</ele>
        <time>2019-08-04T08:39:15.317Z</time>
      </trkpt>
      <trkpt lat="42.56481333" lon="1.57608167">
        <ele>1913.0</ele>
        <time>2019-08-04T08:39:16.315Z</time>
      </trkpt>
      <trkpt lat="42.56493167" lon="1.57614833">
        <ele>1914.0</ele>
        <time>2019-08-04T08:39:17.319Z</time>
      </trkpt>
      <trkpt lat="42.56493167" lon="1.57614833">
        <ele>1914.0</ele>
        <time>2019-08-04T08:39:18.314Z</time>
      </trkpt>
      <trkpt lat="42.56503333" lon="1.57621333">
        <ele>1915.0</ele>
        <time>2019-08-04T08:39:19.318Z</time>
      </trkpt>
      <trkpt lat="42.56503333" lon="1.57621333">
        <ele>1915.0</ele>
        <time>2019-08-04T08:39:20.317Z</time>
      </trkpt>
      <trkpt lat="42.56512167" lon="1.57627667">
        <ele>1916.0</ele>
        <time>2019-08-04T08:39:21.314Z</time>
      </trkpt>
      <trkpt lat="42.56512167" lon="1.57627667">
        <ele>1916.0</ele>
        <time>2019-08-04T08:39:22.313Z</time>
      </trkpt>
      <trkpt lat="42.56520333" lon="1.57633667">
        <ele>1917.0</ele>
        <time>2019-08-04T08:39:23.317Z</time>
      </trkpt>
      <trkpt lat="42.56520333" lon="1.57633667">
        <ele>1917.0</ele>
        <time>2019-08-04T08:39:24.313Z</time>
      </trkpt>
      <trkpt lat="42.56528333" lon="1.57639667">
        <ele>1917.0</ele>
        <time>2019-08-04T08:39:25.320Z</time>
      </trkpt>
      <trkpt lat="42.56528333" lon="1.57639667">
        <ele>1917.0</ele>
        <time>2019-08-04T08:39:26.307Z</time>
      </trkpt>
      <trkpt lat="42.56536333" lon="1.576455">
        <ele>1918.0</ele>
        <time>2019-08-04T08:39:27.305Z</time>
      </trkpt>
      <trkpt lat="42.56536333" lon="1.576455">
        <ele>1918.0</ele>
        <time>2019-08-04T08:39:28.296Z</time>
      </trkpt>
      <trkpt lat="42.565445" lon="1.57651167">
        <ele>1918.0</ele>
        <time>2019-08-04T08:39:29.326Z</time>
      </trkpt>
      <trkpt lat="42.565445" lon="1.57651167">
        <ele>1918.0</ele>
        <time>2019-08-04T08:39:30.311Z</time>
      </trkpt>
      <trkpt lat="42.56552167" lon="1.57657">
        <ele>1919.0</ele>
        <time>2019-08-04T08:39:31.336Z</time>
      </trkpt>
      <trkpt lat="42.56552167" lon="1.57657">
        <ele>1919.0</ele>
        <time>2019-08-04T08:39:32.316Z</time>
      </trkpt>
      <trkpt lat="42.56559333" lon="1.57663333">
        <ele>1919.0</ele>
        <time>2019-08-04T08:39:33.314Z</time>
      </trkpt>
      <trkpt lat="42.56559333" lon="1.57663333">
        <ele>1919.0</ele>
        <time>2019-08-04T08:39:34.310Z</time>
      </trkpt>
      <trkpt lat="42.565665" lon="1.57669667">
        <ele>1920.0</ele>
        <time>2019-08-04T08:39:35.318Z</time>
      </trkpt>
      <trkpt lat="42.565665" lon="1.57669667">
        <ele>1920.0</ele>
        <time>2019-08-04T08:39:36.329Z</time>
      </trkpt>
      <trkpt lat="42.56573167" lon="1.57675667">
        <ele>1920.0</ele>
        <time>2019-08-04T08:39:37.305Z</time>
      </trkpt>
      <trkpt lat="42.56573167" lon="1.57675667">
        <ele>1920.0</ele>
        <time>2019-08-04T08:39:38.327Z</time>
      </trkpt>
      <trkpt lat="42.56579667" lon="1.57682">
        <ele>1921.0</ele>
        <time>2019-08-04T08:39:39.316Z</time>
      </trkpt>
      <trkpt lat="42.56579667" lon="1.57682">
        <ele>1921.0</ele>
        <time>2019-08-04T08:39:40.313Z</time>
      </trkpt>
      <trkpt lat="42.56586" lon="1.57688">
        <ele>1921.0</ele>
        <time>2019-08-04T08:39:41.317Z</time>
      </trkpt>
      <trkpt lat="42.56586" lon="1.57688">
        <ele>1921.0</ele>
        <time>2019-08-04T08:39:42.313Z</time>
      </trkpt>
      <trkpt lat="42.56592" lon="1.57694167">
        <ele>1922.0</ele>
        <time>2019-08-04T08:39:43.296Z</time>
      </trkpt>
      <trkpt lat="42.56592" lon="1.57694167">
        <ele>1922.0</ele>
        <time>2019-08-04T08:39:44.317Z</time>
      </trkpt>
      <trkpt lat="42.56598" lon="1.577005">
        <ele>1922.0</ele>
        <time>2019-08-04T08:39:45.317Z</time>
      </trkpt>
      <trkpt lat="42.56598" lon="1.577005">
        <ele>1922.0</ele>
        <time>2019-08-04T08:39:46.315Z</time>
      </trkpt>
      <trkpt lat="42.56603333" lon="1.57707">
        <ele>1922.0</ele>
        <time>2019-08-04T08:39:47.307Z</time>
      </trkpt>
      <trkpt lat="42.56603333" lon="1.57707">
        <ele>1922.0</ele>
        <time>2019-08-04T08:39:48.328Z</time>
      </trkpt>
      <trkpt lat="42.56608333" lon="1.57713833">
        <ele>1923.0</ele>
        <time>2019-08-04T08:39:49.319Z</time>
      </trkpt>
      <trkpt lat="42.56608333" lon="1.57713833">
        <ele>1923.0</ele>
        <time>2019-08-04T08:39:50.315Z</time>
      </trkpt>
      <trkpt lat="42.56613" lon="1.57721167">
        <ele>1923.0</ele>
        <time>2019-08-04T08:39:51.318Z</time>
      </trkpt>
      <trkpt lat="42.56615167" lon="1.57724667">
        <ele>1923.0</ele>
        <time>2019-08-04T08:39:52.318Z</time>
      </trkpt>
      <trkpt lat="42.56615167" lon="1.57724667">
        <ele>1923.0</ele>
        <time>2019-08-04T08:39:53.313Z</time>
      </trkpt>
      <trkpt lat="42.566195" lon="1.57732">
        <ele>1923.0</ele>
        <time>2019-08-04T08:39:54.316Z</time>
      </trkpt>
      <trkpt lat="42.566215" lon="1.577355">
        <ele>1924.0</ele>
        <time>2019-08-04T08:39:55.315Z</time>
      </trkpt>
      <trkpt lat="42.566215" lon="1.577355">
        <ele>1924.0</ele>
        <time>2019-08-04T08:39:56.319Z</time>
      </trkpt>
      <trkpt lat="42.56625167" lon="1.57743">
        <ele>1924.0</ele>
        <time>2019-08-04T08:39:57.331Z</time>
      </trkpt>
      <trkpt lat="42.56625167" lon="1.57743">
        <ele>1924.0</ele>
        <time>2019-08-04T08:39:58.314Z</time>
      </trkpt>
      <trkpt lat="42.56628833" lon="1.57750667">
        <ele>1925.0</ele>
        <time>2019-08-04T08:39:59.317Z</time>
      </trkpt>
      <trkpt lat="42.566305" lon="1.57754167">
        <ele>1925.0</ele>
        <time>2019-08-04T08:40:00.317Z</time>
      </trkpt>
      <trkpt lat="42.56632167" lon="1.57757833">
        <ele>1926.0</ele>
        <time>2019-08-04T08:40:01.317Z</time>
      </trkpt>
      <trkpt lat="42.56632167" lon="1.57757833">
        <ele>1926.0</ele>
        <time>2019-08-04T08:40:02.311Z</time>
      </trkpt>
      <trkpt lat="42.56635" lon="1.577655">
        <ele>1927.0</ele>
        <time>2019-08-04T08:40:03.317Z</time>
      </trkpt>
      <trkpt lat="42.56635" lon="1.577655">
        <ele>1927.0</ele>
        <time>2019-08-04T08:40:04.315Z</time>
      </trkpt>
      <trkpt lat="42.56638167" lon="1.57773167">
        <ele>1927.0</ele>
        <time>2019-08-04T08:40:05.316Z</time>
      </trkpt>
      <trkpt lat="42.56638167" lon="1.57773167">
        <ele>1927.0</ele>
        <time>2019-08-04T08:40:06.326Z</time>
      </trkpt>
      <trkpt lat="42.56640833" lon="1.577815">
        <ele>1927.0</ele>
        <time>2019-08-04T08:40:07.312Z</time>
      </trkpt>
      <trkpt lat="42.56640833" lon="1.577815">
        <ele>1927.0</ele>
        <time>2019-08-04T08:40:08.314Z</time>
      </trkpt>
      <trkpt lat="42.56643667" lon="1.577895">
        <ele>1928.0</ele>
        <time>2019-08-04T08:40:09.317Z</time>
      </trkpt>
      <trkpt lat="42.56643667" lon="1.577895">
        <ele>1928.0</ele>
        <time>2019-08-04T08:40:10.315Z</time>
      </trkpt>
      <trkpt lat="42.56646" lon="1.57797333">
        <ele>1928.0</ele>
        <time>2019-08-04T08:40:11.316Z</time>
      </trkpt>
      <trkpt lat="42.56647167" lon="1.578015">
        <ele>1929.0</ele>
        <time>2019-08-04T08:40:12.315Z</time>
      </trkpt>
      <trkpt lat="42.56647833" lon="1.57805833">
        <ele>1929.0</ele>
        <time>2019-08-04T08:40:13.318Z</time>
      </trkpt>
      <trkpt lat="42.56647833" lon="1.57805833">
        <ele>1929.0</ele>
        <time>2019-08-04T08:40:14.313Z</time>
      </trkpt>
      <trkpt lat="42.566485" lon="1.57814833">
        <ele>1929.0</ele>
        <time>2019-08-04T08:40:15.318Z</time>
      </trkpt>
      <trkpt lat="42.566485" lon="1.57814833">
        <ele>1929.0</ele>
        <time>2019-08-04T08:40:16.314Z</time>
      </trkpt>
      <trkpt lat="42.56648833" lon="1.57823833">
        <ele>1930.0</ele>
        <time>2019-08-04T08:40:17.310Z</time>
      </trkpt>
      <trkpt lat="42.56648833" lon="1.57823833">
        <ele>1930.0</ele>
        <time>2019-08-04T08:40:18.316Z</time>
      </trkpt>
      <trkpt lat="42.56649" lon="1.57833333">
        <ele>1930.0</ele>
        <time>2019-08-04T08:40:19.323Z</time>
      </trkpt>
      <trkpt lat="42.56649" lon="1.57833333">
        <ele>1930.0</ele>
        <time>2019-08-04T08:40:20.329Z</time>
      </trkpt>
      <trkpt lat="42.56649833" lon="1.57842833">
        <ele>1930.0</ele>
        <time>2019-08-04T08:40:21.314Z</time>
      </trkpt>
      <trkpt lat="42.56649833" lon="1.57842833">
        <ele>1930.0</ele>
        <time>2019-08-04T08:40:22.314Z</time>
      </trkpt>
      <trkpt lat="42.56650667" lon="1.57853">
        <ele>1930.0</ele>
        <time>2019-08-04T08:40:23.319Z</time>
      </trkpt>
      <trkpt lat="42.56650667" lon="1.57853">
        <ele>1930.0</ele>
        <time>2019-08-04T08:40:24.315Z</time>
      </trkpt>
      <trkpt lat="42.56651167" lon="1.57863">
        <ele>1930.0</ele>
        <time>2019-08-04T08:40:25.319Z</time>
      </trkpt>
      <trkpt lat="42.56651167" lon="1.57863">
        <ele>1930.0</ele>
        <time>2019-08-04T08:40:26.315Z</time>
      </trkpt>
      <trkpt lat="42.56651667" lon="1.57873167">
        <ele>1931.0</ele>
        <time>2019-08-04T08:40:27.297Z</time>
      </trkpt>
      <trkpt lat="42.56651667" lon="1.57873167">
        <ele>1931.0</ele>
        <time>2019-08-04T08:40:28.316Z</time>
      </trkpt>
      <trkpt lat="42.566525" lon="1.57883667">
        <ele>1931.0</ele>
        <time>2019-08-04T08:40:29.318Z</time>
      </trkpt>
      <trkpt lat="42.566525" lon="1.57883667">
        <ele>1931.0</ele>
        <time>2019-08-04T08:40:30.315Z</time>
      </trkpt>
      <trkpt lat="42.56653" lon="1.57894667">
        <ele>1931.0</ele>
        <time>2019-08-04T08:40:31.319Z</time>
      </trkpt>
      <trkpt lat="42.56653" lon="1.57894667">
        <ele>1931.0</ele>
        <time>2019-08-04T08:40:32.312Z</time>
      </trkpt>
      <trkpt lat="42.56652167" lon="1.57906833">
        <ele>1931.0</ele>
        <time>2019-08-04T08:40:33.296Z</time>
      </trkpt>
      <trkpt lat="42.56652167" lon="1.57906833">
        <ele>1931.0</ele>
        <time>2019-08-04T08:40:34.315Z</time>
      </trkpt>
      <trkpt lat="42.56652167" lon="1.57919">
        <ele>1931.0</ele>
        <time>2019-08-04T08:40:35.296Z</time>
      </trkpt>
      <trkpt lat="42.56652167" lon="1.57924833">
        <ele>1931.0</ele>
        <time>2019-08-04T08:40:36.318Z</time>
      </trkpt>
      <trkpt lat="42.56652167" lon="1.579305">
        <ele>1931.0</ele>
        <time>2019-08-04T08:40:37.309Z</time>
      </trkpt>
      <trkpt lat="42.56652167" lon="1.579305">
        <ele>1931.0</ele>
        <time>2019-08-04T08:40:38.320Z</time>
      </trkpt>
      <trkpt lat="42.56652167" lon="1.57941667">
        <ele>1931.0</ele>
        <time>2019-08-04T08:40:39.325Z</time>
      </trkpt>
      <trkpt lat="42.56652167" lon="1.57941667">
        <ele>1931.0</ele>
        <time>2019-08-04T08:40:40.320Z</time>
      </trkpt>
      <trkpt lat="42.56652333" lon="1.57953">
        <ele>1932.0</ele>
        <time>2019-08-04T08:40:41.319Z</time>
      </trkpt>
      <trkpt lat="42.56652333" lon="1.57953">
        <ele>1932.0</ele>
        <time>2019-08-04T08:40:42.324Z</time>
      </trkpt>
      <trkpt lat="42.566525" lon="1.579655">
        <ele>1931.0</ele>
        <time>2019-08-04T08:40:43.319Z</time>
      </trkpt>
      <trkpt lat="42.566525" lon="1.579655">
        <ele>1931.0</ele>
        <time>2019-08-04T08:40:44.313Z</time>
      </trkpt>
      <trkpt lat="42.56652833" lon="1.579785">
        <ele>1931.0</ele>
        <time>2019-08-04T08:40:45.322Z</time>
      </trkpt>
      <trkpt lat="42.56652833" lon="1.579785">
        <ele>1931.0</ele>
        <time>2019-08-04T08:40:46.317Z</time>
      </trkpt>
      <trkpt lat="42.56652667" lon="1.57991333">
        <ele>1931.0</ele>
        <time>2019-08-04T08:40:47.306Z</time>
      </trkpt>
      <trkpt lat="42.56652667" lon="1.57991333">
        <ele>1931.0</ele>
        <time>2019-08-04T08:40:48.318Z</time>
      </trkpt>
      <trkpt lat="42.56653" lon="1.58004667">
        <ele>1931.0</ele>
        <time>2019-08-04T08:40:49.329Z</time>
      </trkpt>
      <trkpt lat="42.56653" lon="1.58004667">
        <ele>1931.0</ele>
        <time>2019-08-04T08:40:50.317Z</time>
      </trkpt>
      <trkpt lat="42.56653167" lon="1.580175">
        <ele>1931.0</ele>
        <time>2019-08-04T08:40:51.322Z</time>
      </trkpt>
      <trkpt lat="42.56653167" lon="1.580175">
        <ele>1931.0</ele>
        <time>2019-08-04T08:40:52.323Z</time>
      </trkpt>
      <trkpt lat="42.56654" lon="1.58031167">
        <ele>1932.0</ele>
        <time>2019-08-04T08:40:53.322Z</time>
      </trkpt>
      <trkpt lat="42.56654333" lon="1.58037667">
        <ele>1932.0</ele>
        <time>2019-08-04T08:40:54.318Z</time>
      </trkpt>
      <trkpt lat="42.56654333" lon="1.58037667">
        <ele>1932.0</ele>
        <time>2019-08-04T08:40:55.315Z</time>
      </trkpt>
      <trkpt lat="42.56654667" lon="1.580515">
        <ele>1932.0</ele>
        <time>2019-08-04T08:40:56.316Z</time>
      </trkpt>
      <trkpt lat="42.56654667" lon="1.580515">
        <ele>1932.0</ele>
        <time>2019-08-04T08:40:57.328Z</time>
      </trkpt>
      <trkpt lat="42.56655167" lon="1.580655">
        <ele>1932.0</ele>
        <time>2019-08-04T08:40:58.319Z</time>
      </trkpt>
      <trkpt lat="42.56655167" lon="1.580655">
        <ele>1932.0</ele>
        <time>2019-08-04T08:40:59.316Z</time>
      </trkpt>
      <trkpt lat="42.56656" lon="1.5808">
        <ele>1932.0</ele>
        <time>2019-08-04T08:41:00.305Z</time>
      </trkpt>
      <trkpt lat="42.56656" lon="1.58087">
        <ele>1932.0</ele>
        <time>2019-08-04T08:41:01.297Z</time>
      </trkpt>
      <trkpt lat="42.56656" lon="1.58087">
        <ele>1932.0</ele>
        <time>2019-08-04T08:41:02.325Z</time>
      </trkpt>
      <trkpt lat="42.56656" lon="1.58101">
        <ele>1932.0</ele>
        <time>2019-08-04T08:41:03.319Z</time>
      </trkpt>
      <trkpt lat="42.56656" lon="1.58101">
        <ele>1932.0</ele>
        <time>2019-08-04T08:41:04.312Z</time>
      </trkpt>
      <trkpt lat="42.566565" lon="1.58115167">
        <ele>1932.0</ele>
        <time>2019-08-04T08:41:05.316Z</time>
      </trkpt>
      <trkpt lat="42.566565" lon="1.58115167">
        <ele>1932.0</ele>
        <time>2019-08-04T08:41:06.314Z</time>
      </trkpt>
      <trkpt lat="42.56656667" lon="1.581295">
        <ele>1932.0</ele>
        <time>2019-08-04T08:41:07.297Z</time>
      </trkpt>
      <trkpt lat="42.56656333" lon="1.58136667">
        <ele>1932.0</ele>
        <time>2019-08-04T08:41:08.326Z</time>
      </trkpt>
      <trkpt lat="42.56656333" lon="1.58136667">
        <ele>1932.0</ele>
        <time>2019-08-04T08:41:09.313Z</time>
      </trkpt>
      <trkpt lat="42.56656" lon="1.58150833">
        <ele>1932.0</ele>
        <time>2019-08-04T08:41:10.318Z</time>
      </trkpt>
      <trkpt lat="42.56656" lon="1.58150833">
        <ele>1932.0</ele>
        <time>2019-08-04T08:41:11.316Z</time>
      </trkpt>
      <trkpt lat="42.56656667" lon="1.581655">
        <ele>1932.0</ele>
        <time>2019-08-04T08:41:12.317Z</time>
      </trkpt>
      <trkpt lat="42.56656667" lon="1.58173167">
        <ele>1932.0</ele>
        <time>2019-08-04T08:41:13.318Z</time>
      </trkpt>
      <trkpt lat="42.56656667" lon="1.58173167">
        <ele>1932.0</ele>
        <time>2019-08-04T08:41:14.315Z</time>
      </trkpt>
      <trkpt lat="42.566585" lon="1.581885">
        <ele>1932.0</ele>
        <time>2019-08-04T08:41:15.319Z</time>
      </trkpt>
      <trkpt lat="42.566585" lon="1.581885">
        <ele>1932.0</ele>
        <time>2019-08-04T08:41:16.314Z</time>
      </trkpt>
      <trkpt lat="42.56661" lon="1.58204333">
        <ele>1932.0</ele>
        <time>2019-08-04T08:41:17.311Z</time>
      </trkpt>
      <trkpt lat="42.56661" lon="1.58204333">
        <ele>1932.0</ele>
        <time>2019-08-04T08:41:18.316Z</time>
      </trkpt>
      <trkpt lat="42.56663833" lon="1.58220167">
        <ele>1933.0</ele>
        <time>2019-08-04T08:41:19.322Z</time>
      </trkpt>
      <trkpt lat="42.56663833" lon="1.58220167">
        <ele>1933.0</ele>
        <time>2019-08-04T08:41:20.311Z</time>
      </trkpt>
      <trkpt lat="42.566665" lon="1.58235167">
        <ele>1933.0</ele>
        <time>2019-08-04T08:41:21.331Z</time>
      </trkpt>
      <trkpt lat="42.566665" lon="1.58235167">
        <ele>1933.0</ele>
        <time>2019-08-04T08:41:22.325Z</time>
      </trkpt>
      <trkpt lat="42.566695" lon="1.58250667">
        <ele>1934.0</ele>
        <time>2019-08-04T08:41:23.317Z</time>
      </trkpt>
      <trkpt lat="42.566695" lon="1.58250667">
        <ele>1934.0</ele>
        <time>2019-08-04T08:41:24.312Z</time>
      </trkpt>
      <trkpt lat="42.56672667" lon="1.58265667">
        <ele>1934.0</ele>
        <time>2019-08-04T08:41:25.297Z</time>
      </trkpt>
      <trkpt lat="42.56672667" lon="1.58265667">
        <ele>1934.0</ele>
        <time>2019-08-04T08:41:26.320Z</time>
      </trkpt>
      <trkpt lat="42.56676" lon="1.5828">
        <ele>1935.0</ele>
        <time>2019-08-04T08:41:27.335Z</time>
      </trkpt>
      <trkpt lat="42.56676" lon="1.5828">
        <ele>1935.0</ele>
        <time>2019-08-04T08:41:28.298Z</time>
      </trkpt>
      <trkpt lat="42.56679167" lon="1.58294667">
        <ele>1935.0</ele>
        <time>2019-08-04T08:41:29.322Z</time>
      </trkpt>
      <trkpt lat="42.56679167" lon="1.58294667">
        <ele>1935.0</ele>
        <time>2019-08-04T08:41:30.312Z</time>
      </trkpt>
      <trkpt lat="42.56682" lon="1.58309333">
        <ele>1936.0</ele>
        <time>2019-08-04T08:41:31.319Z</time>
      </trkpt>
      <trkpt lat="42.56682" lon="1.58309333">
        <ele>1936.0</ele>
        <time>2019-08-04T08:41:32.314Z</time>
      </trkpt>
      <trkpt lat="42.56684667" lon="1.58324">
        <ele>1936.0</ele>
        <time>2019-08-04T08:41:33.319Z</time>
      </trkpt>
      <trkpt lat="42.56686" lon="1.58331333">
        <ele>1936.0</ele>
        <time>2019-08-04T08:41:34.322Z</time>
      </trkpt>
      <trkpt lat="42.56686" lon="1.58331333">
        <ele>1936.0</ele>
        <time>2019-08-04T08:41:35.314Z</time>
      </trkpt>
      <trkpt lat="42.56688" lon="1.58346">
        <ele>1937.0</ele>
        <time>2019-08-04T08:41:36.317Z</time>
      </trkpt>
      <trkpt lat="42.56689167" lon="1.58353333">
        <ele>1937.0</ele>
        <time>2019-08-04T08:41:37.303Z</time>
      </trkpt>
      <trkpt lat="42.56689167" lon="1.58353333">
        <ele>1937.0</ele>
        <time>2019-08-04T08:41:38.327Z</time>
      </trkpt>
      <trkpt lat="42.56691667" lon="1.58368667">
        <ele>1937.0</ele>
        <time>2019-08-04T08:41:39.325Z</time>
      </trkpt>
      <trkpt lat="42.56691667" lon="1.58368667">
        <ele>1937.0</ele>
        <time>2019-08-04T08:41:40.316Z</time>
      </trkpt>
      <trkpt lat="42.56694167" lon="1.58384">
        <ele>1937.0</ele>
        <time>2019-08-04T08:41:41.318Z</time>
      </trkpt>
      <trkpt lat="42.56695833" lon="1.58391833">
        <ele>1937.0</ele>
        <time>2019-08-04T08:41:42.319Z</time>
      </trkpt>
      <trkpt lat="42.56697167" lon="1.58399333">
        <ele>1938.0</ele>
        <time>2019-08-04T08:41:43.318Z</time>
      </trkpt>
      <trkpt lat="42.56697167" lon="1.58399333">
        <ele>1938.0</ele>
        <time>2019-08-04T08:41:44.325Z</time>
      </trkpt>
      <trkpt lat="42.56699667" lon="1.58414333">
        <ele>1938.0</ele>
        <time>2019-08-04T08:41:45.315Z</time>
      </trkpt>
      <trkpt lat="42.56699667" lon="1.58414333">
        <ele>1938.0</ele>
        <time>2019-08-04T08:41:46.311Z</time>
      </trkpt>
      <trkpt lat="42.56702833" lon="1.584295">
        <ele>1938.0</ele>
        <time>2019-08-04T08:41:47.296Z</time>
      </trkpt>
      <trkpt lat="42.56702833" lon="1.584295">
        <ele>1938.0</ele>
        <time>2019-08-04T08:41:48.317Z</time>
      </trkpt>
      <trkpt lat="42.56706833" lon="1.58443667">
        <ele>1938.0</ele>
        <time>2019-08-04T08:41:49.318Z</time>
      </trkpt>
      <trkpt lat="42.56706833" lon="1.58443667">
        <ele>1938.0</ele>
        <time>2019-08-04T08:41:50.315Z</time>
      </trkpt>
      <trkpt lat="42.567125" lon="1.58456167">
        <ele>1939.0</ele>
        <time>2019-08-04T08:41:51.317Z</time>
      </trkpt>
      <trkpt lat="42.56715667" lon="1.584625">
        <ele>1939.0</ele>
        <time>2019-08-04T08:41:52.317Z</time>
      </trkpt>
      <trkpt lat="42.56715667" lon="1.584625">
        <ele>1939.0</ele>
        <time>2019-08-04T08:41:53.314Z</time>
      </trkpt>
      <trkpt lat="42.56723" lon="1.584735">
        <ele>1939.0</ele>
        <time>2019-08-04T08:41:54.318Z</time>
      </trkpt>
      <trkpt lat="42.56723" lon="1.584735">
        <ele>1939.0</ele>
        <time>2019-08-04T08:41:55.314Z</time>
      </trkpt>
      <trkpt lat="42.56730333" lon="1.584835">
        <ele>1939.0</ele>
        <time>2019-08-04T08:41:56.318Z</time>
      </trkpt>
      <trkpt lat="42.567345" lon="1.58488667">
        <ele>1939.0</ele>
        <time>2019-08-04T08:41:57.297Z</time>
      </trkpt>
      <trkpt lat="42.567345" lon="1.58488667">
        <ele>1939.0</ele>
        <time>2019-08-04T08:41:58.319Z</time>
      </trkpt>
      <trkpt lat="42.56743" lon="1.58496833">
        <ele>1940.0</ele>
        <time>2019-08-04T08:41:59.318Z</time>
      </trkpt>
      <trkpt lat="42.56743" lon="1.58496833">
        <ele>1940.0</ele>
        <time>2019-08-04T08:42:00.317Z</time>
      </trkpt>
      <trkpt lat="42.56751667" lon="1.58503333">
        <ele>1941.0</ele>
        <time>2019-08-04T08:42:01.319Z</time>
      </trkpt>
      <trkpt lat="42.56751667" lon="1.58503333">
        <ele>1941.0</ele>
        <time>2019-08-04T08:42:02.314Z</time>
      </trkpt>
      <trkpt lat="42.56761" lon="1.58508833">
        <ele>1941.0</ele>
        <time>2019-08-04T08:42:03.319Z</time>
      </trkpt>
      <trkpt lat="42.56761" lon="1.58508833">
        <ele>1941.0</ele>
        <time>2019-08-04T08:42:04.314Z</time>
      </trkpt>
      <trkpt lat="42.56770667" lon="1.58513333">
        <ele>1942.0</ele>
        <time>2019-08-04T08:42:05.318Z</time>
      </trkpt>
      <trkpt lat="42.56770667" lon="1.58513333">
        <ele>1942.0</ele>
        <time>2019-08-04T08:42:06.314Z</time>
      </trkpt>
      <trkpt lat="42.56779333" lon="1.58519167">
        <ele>1942.0</ele>
        <time>2019-08-04T08:42:07.299Z</time>
      </trkpt>
      <trkpt lat="42.56779333" lon="1.58519167">
        <ele>1942.0</ele>
        <time>2019-08-04T08:42:08.321Z</time>
      </trkpt>
      <trkpt lat="42.567875" lon="1.58525667">
        <ele>1943.0</ele>
        <time>2019-08-04T08:42:09.319Z</time>
      </trkpt>
      <trkpt lat="42.56791333" lon="1.585295">
        <ele>1943.0</ele>
        <time>2019-08-04T08:42:10.317Z</time>
      </trkpt>
      <trkpt lat="42.56791333" lon="1.585295">
        <ele>1943.0</ele>
        <time>2019-08-04T08:42:11.334Z</time>
      </trkpt>
      <trkpt lat="42.56799" lon="1.58538167">
        <ele>1944.0</ele>
        <time>2019-08-04T08:42:12.318Z</time>
      </trkpt>
      <trkpt lat="42.56799" lon="1.58538167">
        <ele>1944.0</ele>
        <time>2019-08-04T08:42:13.312Z</time>
      </trkpt>
      <trkpt lat="42.56806333" lon="1.58547167">
        <ele>1944.0</ele>
        <time>2019-08-04T08:42:14.319Z</time>
      </trkpt>
      <trkpt lat="42.56806333" lon="1.58547167">
        <ele>1944.0</ele>
        <time>2019-08-04T08:42:15.314Z</time>
      </trkpt>
      <trkpt lat="42.56813333" lon="1.58555833">
        <ele>1945.0</ele>
        <time>2019-08-04T08:42:16.324Z</time>
      </trkpt>
      <trkpt lat="42.56817" lon="1.58559833">
        <ele>1945.0</ele>
        <time>2019-08-04T08:42:17.324Z</time>
      </trkpt>
      <trkpt lat="42.56817" lon="1.58559833">
        <ele>1945.0</ele>
        <time>2019-08-04T08:42:18.311Z</time>
      </trkpt>
      <trkpt lat="42.56823667" lon="1.58568667">
        <ele>1947.0</ele>
        <time>2019-08-04T08:42:19.319Z</time>
      </trkpt>
      <trkpt lat="42.56823667" lon="1.58568667">
        <ele>1947.0</ele>
        <time>2019-08-04T08:42:20.316Z</time>
      </trkpt>
      <trkpt lat="42.56829667" lon="1.58576333">
        <ele>1947.0</ele>
        <time>2019-08-04T08:42:21.319Z</time>
      </trkpt>
      <trkpt lat="42.56829667" lon="1.58576333">
        <ele>1947.0</ele>
        <time>2019-08-04T08:42:22.312Z</time>
      </trkpt>
      <trkpt lat="42.56835833" lon="1.58583667">
        <ele>1948.0</ele>
        <time>2019-08-04T08:42:23.318Z</time>
      </trkpt>
      <trkpt lat="42.56835833" lon="1.58583667">
        <ele>1948.0</ele>
        <time>2019-08-04T08:42:24.315Z</time>
      </trkpt>
      <trkpt lat="42.568425" lon="1.58591167">
        <ele>1948.0</ele>
        <time>2019-08-04T08:42:25.316Z</time>
      </trkpt>
      <trkpt lat="42.568425" lon="1.58591167">
        <ele>1948.0</ele>
        <time>2019-08-04T08:42:26.312Z</time>
      </trkpt>
      <trkpt lat="42.568495" lon="1.58599">
        <ele>1949.0</ele>
        <time>2019-08-04T08:42:27.332Z</time>
      </trkpt>
      <trkpt lat="42.568495" lon="1.58599">
        <ele>1949.0</ele>
        <time>2019-08-04T08:42:28.315Z</time>
      </trkpt>
      <trkpt lat="42.56856167" lon="1.58607167">
        <ele>1950.0</ele>
        <time>2019-08-04T08:42:29.327Z</time>
      </trkpt>
      <trkpt lat="42.56856167" lon="1.58607167">
        <ele>1950.0</ele>
        <time>2019-08-04T08:42:30.312Z</time>
      </trkpt>
      <trkpt lat="42.56861333" lon="1.58615333">
        <ele>1950.0</ele>
        <time>2019-08-04T08:42:31.331Z</time>
      </trkpt>
      <trkpt lat="42.56861333" lon="1.58615333">
        <ele>1950.0</ele>
        <time>2019-08-04T08:42:32.323Z</time>
      </trkpt>
      <trkpt lat="42.56866833" lon="1.586235">
        <ele>1951.0</ele>
        <time>2019-08-04T08:42:33.319Z</time>
      </trkpt>
      <trkpt lat="42.56866833" lon="1.586235">
        <ele>1951.0</ele>
        <time>2019-08-04T08:42:34.312Z</time>
      </trkpt>
      <trkpt lat="42.56871167" lon="1.58631833">
        <ele>1951.0</ele>
        <time>2019-08-04T08:42:35.319Z</time>
      </trkpt>
      <trkpt lat="42.56871167" lon="1.58631833">
        <ele>1951.0</ele>
        <time>2019-08-04T08:42:36.315Z</time>
      </trkpt>
      <trkpt lat="42.56874667" lon="1.58640333">
        <ele>1952.0</ele>
        <time>2019-08-04T08:42:37.297Z</time>
      </trkpt>
      <trkpt lat="42.56874667" lon="1.58640333">
        <ele>1952.0</ele>
        <time>2019-08-04T08:42:38.318Z</time>
      </trkpt>
      <trkpt lat="42.56878333" lon="1.5865">
        <ele>1952.0</ele>
        <time>2019-08-04T08:42:39.315Z</time>
      </trkpt>
      <trkpt lat="42.56878333" lon="1.5865">
        <ele>1952.0</ele>
        <time>2019-08-04T08:42:40.297Z</time>
      </trkpt>
      <trkpt lat="42.56881333" lon="1.58660667">
        <ele>1953.0</ele>
        <time>2019-08-04T08:42:41.318Z</time>
      </trkpt>
      <trkpt lat="42.56883" lon="1.58666">
        <ele>1953.0</ele>
        <time>2019-08-04T08:42:42.318Z</time>
      </trkpt>
      <trkpt lat="42.56884667" lon="1.586715">
        <ele>1953.0</ele>
        <time>2019-08-04T08:42:43.319Z</time>
      </trkpt>
      <trkpt lat="42.56884667" lon="1.586715">
        <ele>1953.0</ele>
        <time>2019-08-04T08:42:44.315Z</time>
      </trkpt>
      <trkpt lat="42.56888167" lon="1.58682667">
        <ele>1953.0</ele>
        <time>2019-08-04T08:42:45.297Z</time>
      </trkpt>
      <trkpt lat="42.56889833" lon="1.58688667">
        <ele>1953.0</ele>
        <time>2019-08-04T08:42:46.319Z</time>
      </trkpt>
      <trkpt lat="42.568915" lon="1.58695">
        <ele>1953.0</ele>
        <time>2019-08-04T08:42:47.296Z</time>
      </trkpt>
      <trkpt lat="42.568915" lon="1.58695">
        <ele>1953.0</ele>
        <time>2019-08-04T08:42:48.325Z</time>
      </trkpt>
      <trkpt lat="42.56895833" lon="1.58708833">
        <ele>1953.0</ele>
        <time>2019-08-04T08:42:49.320Z</time>
      </trkpt>
      <trkpt lat="42.56895833" lon="1.58708833">
        <ele>1953.0</ele>
        <time>2019-08-04T08:42:50.316Z</time>
      </trkpt>
      <trkpt lat="42.56901167" lon="1.58723833">
        <ele>1952.0</ele>
        <time>2019-08-04T08:42:51.319Z</time>
      </trkpt>
      <trkpt lat="42.56901167" lon="1.58723833">
        <ele>1952.0</ele>
        <time>2019-08-04T08:42:52.315Z</time>
      </trkpt>
      <trkpt lat="42.569075" lon="1.587395">
        <ele>1952.0</ele>
        <time>2019-08-04T08:42:53.317Z</time>
      </trkpt>
      <trkpt lat="42.56911" lon="1.58747833">
        <ele>1951.0</ele>
        <time>2019-08-04T08:42:54.315Z</time>
      </trkpt>
      <trkpt lat="42.56911" lon="1.58747833">
        <ele>1951.0</ele>
        <time>2019-08-04T08:42:55.313Z</time>
      </trkpt>
      <trkpt lat="42.56920167" lon="1.587635">
        <ele>1950.0</ele>
        <time>2019-08-04T08:42:56.335Z</time>
      </trkpt>
      <trkpt lat="42.56926" lon="1.58770333">
        <ele>1950.0</ele>
        <time>2019-08-04T08:42:57.305Z</time>
      </trkpt>
      <trkpt lat="42.56926" lon="1.58770333">
        <ele>1950.0</ele>
        <time>2019-08-04T08:42:58.326Z</time>
      </trkpt>
      <trkpt lat="42.56940333" lon="1.58778667">
        <ele>1949.0</ele>
        <time>2019-08-04T08:42:59.317Z</time>
      </trkpt>
      <trkpt lat="42.56948833" lon="1.587785">
        <ele>1949.0</ele>
        <time>2019-08-04T08:43:00.321Z</time>
      </trkpt>
      <trkpt lat="42.56948833" lon="1.587785">
        <ele>1949.0</ele>
        <time>2019-08-04T08:43:01.325Z</time>
      </trkpt>
      <trkpt lat="42.56966" lon="1.58769">
        <ele>1949.0</ele>
        <time>2019-08-04T08:43:02.316Z</time>
      </trkpt>
      <trkpt lat="42.56974667" lon="1.58761167">
        <ele>1948.0</ele>
        <time>2019-08-04T08:43:03.319Z</time>
      </trkpt>
      <trkpt lat="42.56974667" lon="1.58761167">
        <ele>1948.0</ele>
        <time>2019-08-04T08:43:04.315Z</time>
      </trkpt>
      <trkpt lat="42.569935" lon="1.58746167">
        <ele>1946.0</ele>
        <time>2019-08-04T08:43:05.318Z</time>
      </trkpt>
      <trkpt lat="42.569935" lon="1.58746167">
        <ele>1946.0</ele>
        <time>2019-08-04T08:43:06.311Z</time>
      </trkpt>
      <trkpt lat="42.570145" lon="1.58733">
        <ele>1945.0</ele>
        <time>2019-08-04T08:43:07.317Z</time>
      </trkpt>
      <trkpt lat="42.570145" lon="1.58733">
        <ele>1945.0</ele>
        <time>2019-08-04T08:43:08.315Z</time>
      </trkpt>
      <trkpt lat="42.57037167" lon="1.58719667">
        <ele>1944.0</ele>
        <time>2019-08-04T08:43:09.319Z</time>
      </trkpt>
      <trkpt lat="42.57037167" lon="1.58719667">
        <ele>1944.0</ele>
        <time>2019-08-04T08:43:10.314Z</time>
      </trkpt>
      <trkpt lat="42.57061333" lon="1.58705667">
        <ele>1943.0</ele>
        <time>2019-08-04T08:43:11.318Z</time>
      </trkpt>
      <trkpt lat="42.57061333" lon="1.58705667">
        <ele>1943.0</ele>
        <time>2019-08-04T08:43:12.306Z</time>
      </trkpt>
      <trkpt lat="42.57086833" lon="1.58692833">
        <ele>1941.0</ele>
        <time>2019-08-04T08:43:13.327Z</time>
      </trkpt>
      <trkpt lat="42.57086833" lon="1.58692833">
        <ele>1941.0</ele>
        <time>2019-08-04T08:43:14.315Z</time>
      </trkpt>
      <trkpt lat="42.571135" lon="1.58681833">
        <ele>1940.0</ele>
        <time>2019-08-04T08:43:15.318Z</time>
      </trkpt>
      <trkpt lat="42.571135" lon="1.58681833">
        <ele>1940.0</ele>
        <time>2019-08-04T08:43:16.315Z</time>
      </trkpt>
      <trkpt lat="42.57140833" lon="1.58671167">
        <ele>1938.0</ele>
        <time>2019-08-04T08:43:17.296Z</time>
      </trkpt>
      <trkpt lat="42.57140833" lon="1.58671167">
        <ele>1938.0</ele>
        <time>2019-08-04T08:43:18.319Z</time>
      </trkpt>
      <trkpt lat="42.57168833" lon="1.586605">
        <ele>1936.0</ele>
        <time>2019-08-04T08:43:19.318Z</time>
      </trkpt>
      <trkpt lat="42.57168833" lon="1.586605">
        <ele>1936.0</ele>
        <time>2019-08-04T08:43:20.315Z</time>
      </trkpt>
      <trkpt lat="42.57197167" lon="1.58651">
        <ele>1934.0</ele>
        <time>2019-08-04T08:43:21.319Z</time>
      </trkpt>
      <trkpt lat="42.57197167" lon="1.58651">
        <ele>1934.0</ele>
        <time>2019-08-04T08:43:22.315Z</time>
      </trkpt>
      <trkpt lat="42.57226833" lon="1.58650833">
        <ele>1932.0</ele>
        <time>2019-08-04T08:43:23.318Z</time>
      </trkpt>
      <trkpt lat="42.57226833" lon="1.58650833">
        <ele>1932.0</ele>
        <time>2019-08-04T08:43:24.315Z</time>
      </trkpt>
      <trkpt lat="42.572565" lon="1.58656833">
        <ele>1929.0</ele>
        <time>2019-08-04T08:43:25.318Z</time>
      </trkpt>
      <trkpt lat="42.572565" lon="1.58656833">
        <ele>1929.0</ele>
        <time>2019-08-04T08:43:26.315Z</time>
      </trkpt>
      <trkpt lat="42.57286167" lon="1.58652333">
        <ele>1927.0</ele>
        <time>2019-08-04T08:43:27.332Z</time>
      </trkpt>
      <trkpt lat="42.57286167" lon="1.58652333">
        <ele>1927.0</ele>
        <time>2019-08-04T08:43:28.315Z</time>
      </trkpt>
      <trkpt lat="42.57311667" lon="1.58644667">
        <ele>1924.0</ele>
        <time>2019-08-04T08:43:29.319Z</time>
      </trkpt>
      <trkpt lat="42.57311667" lon="1.58644667">
        <ele>1924.0</ele>
        <time>2019-08-04T08:43:30.315Z</time>
      </trkpt>
      <trkpt lat="42.57332833" lon="1.58641167">
        <ele>1922.0</ele>
        <time>2019-08-04T08:43:31.319Z</time>
      </trkpt>
      <trkpt lat="42.57332833" lon="1.58641167">
        <ele>1922.0</ele>
        <time>2019-08-04T08:43:32.312Z</time>
      </trkpt>
      <trkpt lat="42.5735" lon="1.58643167">
        <ele>1920.0</ele>
        <time>2019-08-04T08:43:33.299Z</time>
      </trkpt>
      <trkpt lat="42.5735" lon="1.58643167">
        <ele>1920.0</ele>
        <time>2019-08-04T08:43:34.320Z</time>
      </trkpt>
      <trkpt lat="42.57358167" lon="1.58654833">
        <ele>1918.0</ele>
        <time>2019-08-04T08:43:35.318Z</time>
      </trkpt>
      <trkpt lat="42.573555" lon="1.58662167">
        <ele>1917.0</ele>
        <time>2019-08-04T08:43:36.318Z</time>
      </trkpt>
      <trkpt lat="42.57350833" lon="1.58668833">
        <ele>1916.0</ele>
        <time>2019-08-04T08:43:37.297Z</time>
      </trkpt>
      <trkpt lat="42.57350833" lon="1.58668833">
        <ele>1916.0</ele>
        <time>2019-08-04T08:43:38.318Z</time>
      </trkpt>
      <trkpt lat="42.57334333" lon="1.58674333">
        <ele>1915.0</ele>
        <time>2019-08-04T08:43:39.319Z</time>
      </trkpt>
      <trkpt lat="42.57334333" lon="1.58674333">
        <ele>1915.0</ele>
        <time>2019-08-04T08:43:40.315Z</time>
      </trkpt>
      <trkpt lat="42.573155" lon="1.58682167">
        <ele>1913.0</ele>
        <time>2019-08-04T08:43:41.325Z</time>
      </trkpt>
      <trkpt lat="42.573155" lon="1.58682167">
        <ele>1913.0</ele>
        <time>2019-08-04T08:43:42.315Z</time>
      </trkpt>
      <trkpt lat="42.57295833" lon="1.58694833">
        <ele>1911.0</ele>
        <time>2019-08-04T08:43:43.319Z</time>
      </trkpt>
      <trkpt lat="42.57295833" lon="1.58694833">
        <ele>1911.0</ele>
        <time>2019-08-04T08:43:44.315Z</time>
      </trkpt>
      <trkpt lat="42.57276" lon="1.58711667">
        <ele>1909.0</ele>
        <time>2019-08-04T08:43:45.321Z</time>
      </trkpt>
      <trkpt lat="42.57276" lon="1.58711667">
        <ele>1909.0</ele>
        <time>2019-08-04T08:43:46.329Z</time>
      </trkpt>
      <trkpt lat="42.57255167" lon="1.58729333">
        <ele>1907.0</ele>
        <time>2019-08-04T08:43:47.332Z</time>
      </trkpt>
      <trkpt lat="42.57255167" lon="1.58729333">
        <ele>1907.0</ele>
        <time>2019-08-04T08:43:48.315Z</time>
      </trkpt>
      <trkpt lat="42.57233833" lon="1.58749167">
        <ele>1905.0</ele>
        <time>2019-08-04T08:43:49.298Z</time>
      </trkpt>
      <trkpt lat="42.57233833" lon="1.58749167">
        <ele>1905.0</ele>
        <time>2019-08-04T08:43:50.318Z</time>
      </trkpt>
      <trkpt lat="42.57211333" lon="1.587705">
        <ele>1903.0</ele>
        <time>2019-08-04T08:43:51.316Z</time>
      </trkpt>
      <trkpt lat="42.57211333" lon="1.587705">
        <ele>1903.0</ele>
        <time>2019-08-04T08:43:52.315Z</time>
      </trkpt>
      <trkpt lat="42.57188333" lon="1.58793">
        <ele>1901.0</ele>
        <time>2019-08-04T08:43:53.315Z</time>
      </trkpt>
      <trkpt lat="42.57177333" lon="1.58804333">
        <ele>1900.0</ele>
        <time>2019-08-04T08:43:54.318Z</time>
      </trkpt>
      <trkpt lat="42.57177333" lon="1.58804333">
        <ele>1900.0</ele>
        <time>2019-08-04T08:43:55.317Z</time>
      </trkpt>
      <trkpt lat="42.57156667" lon="1.58826">
        <ele>1897.0</ele>
        <time>2019-08-04T08:43:56.319Z</time>
      </trkpt>
      <trkpt lat="42.57146667" lon="1.58837">
        <ele>1896.0</ele>
        <time>2019-08-04T08:43:57.299Z</time>
      </trkpt>
      <trkpt lat="42.57146667" lon="1.58837">
        <ele>1896.0</ele>
        <time>2019-08-04T08:43:58.329Z</time>
      </trkpt>
      <trkpt lat="42.57127167" lon="1.58853167">
        <ele>1895.0</ele>
        <time>2019-08-04T08:43:59.317Z</time>
      </trkpt>
      <trkpt lat="42.57127167" lon="1.58853167">
        <ele>1895.0</ele>
        <time>2019-08-04T08:44:00.314Z</time>
      </trkpt>
      <trkpt lat="42.57106667" lon="1.58856">
        <ele>1893.0</ele>
        <time>2019-08-04T08:44:01.319Z</time>
      </trkpt>
      <trkpt lat="42.57106667" lon="1.58856">
        <ele>1893.0</ele>
        <time>2019-08-04T08:44:02.314Z</time>
      </trkpt>
      <trkpt lat="42.57084167" lon="1.58850667">
        <ele>1891.0</ele>
        <time>2019-08-04T08:44:03.317Z</time>
      </trkpt>
      <trkpt lat="42.57084167" lon="1.58850667">
        <ele>1891.0</ele>
        <time>2019-08-04T08:44:04.312Z</time>
      </trkpt>
      <trkpt lat="42.57060833" lon="1.588565">
        <ele>1890.0</ele>
        <time>2019-08-04T08:44:05.297Z</time>
      </trkpt>
      <trkpt lat="42.57049667" lon="1.58863">
        <ele>1889.0</ele>
        <time>2019-08-04T08:44:06.319Z</time>
      </trkpt>
      <trkpt lat="42.57038667" lon="1.58870833">
        <ele>1888.0</ele>
        <time>2019-08-04T08:44:07.298Z</time>
      </trkpt>
      <trkpt lat="42.57038667" lon="1.58870833">
        <ele>1888.0</ele>
        <time>2019-08-04T08:44:08.324Z</time>
      </trkpt>
      <trkpt lat="42.57017167" lon="1.58890833">
        <ele>1886.0</ele>
        <time>2019-08-04T08:44:09.316Z</time>
      </trkpt>
      <trkpt lat="42.57007333" lon="1.58902833">
        <ele>1885.0</ele>
        <time>2019-08-04T08:44:10.305Z</time>
      </trkpt>
      <trkpt lat="42.56998333" lon="1.58916">
        <ele>1884.0</ele>
        <time>2019-08-04T08:44:11.326Z</time>
      </trkpt>
      <trkpt lat="42.56998333" lon="1.58916">
        <ele>1884.0</ele>
        <time>2019-08-04T08:44:12.313Z</time>
      </trkpt>
      <trkpt lat="42.56981333" lon="1.58944833">
        <ele>1882.0</ele>
        <time>2019-08-04T08:44:13.298Z</time>
      </trkpt>
      <trkpt lat="42.56981333" lon="1.58944833">
        <ele>1882.0</ele>
        <time>2019-08-04T08:44:14.320Z</time>
      </trkpt>
      <trkpt lat="42.56966333" lon="1.58975833">
        <ele>1880.0</ele>
        <time>2019-08-04T08:44:15.322Z</time>
      </trkpt>
      <trkpt lat="42.56966333" lon="1.58975833">
        <ele>1880.0</ele>
        <time>2019-08-04T08:44:16.313Z</time>
      </trkpt>
      <trkpt lat="42.569515" lon="1.59006667">
        <ele>1878.0</ele>
        <time>2019-08-04T08:44:17.297Z</time>
      </trkpt>
      <trkpt lat="42.569515" lon="1.59006667">
        <ele>1878.0</ele>
        <time>2019-08-04T08:44:18.317Z</time>
      </trkpt>
      <trkpt lat="42.56936833" lon="1.59036833">
        <ele>1876.0</ele>
        <time>2019-08-04T08:44:19.318Z</time>
      </trkpt>
      <trkpt lat="42.56929667" lon="1.59051">
        <ele>1875.0</ele>
        <time>2019-08-04T08:44:20.320Z</time>
      </trkpt>
      <trkpt lat="42.56923333" lon="1.59063833">
        <ele>1874.0</ele>
        <time>2019-08-04T08:44:21.321Z</time>
      </trkpt>
      <trkpt lat="42.56923333" lon="1.59063833">
        <ele>1874.0</ele>
        <time>2019-08-04T08:44:22.315Z</time>
      </trkpt>
      <trkpt lat="42.569095" lon="1.59084">
        <ele>1873.0</ele>
        <time>2019-08-04T08:44:23.318Z</time>
      </trkpt>
      <trkpt lat="42.56901833" lon="1.59091833">
        <ele>1872.0</ele>
        <time>2019-08-04T08:44:24.319Z</time>
      </trkpt>
      <trkpt lat="42.56901833" lon="1.59091833">
        <ele>1872.0</ele>
        <time>2019-08-04T08:44:25.314Z</time>
      </trkpt>
      <trkpt lat="42.56888833" lon="1.59106">
        <ele>1871.0</ele>
        <time>2019-08-04T08:44:26.297Z</time>
      </trkpt>
      <trkpt lat="42.568835" lon="1.59113333">
        <ele>1870.0</ele>
        <time>2019-08-04T08:44:27.297Z</time>
      </trkpt>
      <trkpt lat="42.568835" lon="1.59113333">
        <ele>1870.0</ele>
        <time>2019-08-04T08:44:28.330Z</time>
      </trkpt>
      <trkpt lat="42.56887667" lon="1.59128333">
        <ele>1868.0</ele>
        <time>2019-08-04T08:44:29.329Z</time>
      </trkpt>
      <trkpt lat="42.56895167" lon="1.59129833">
        <ele>1867.0</ele>
        <time>2019-08-04T08:44:30.317Z</time>
      </trkpt>
      <trkpt lat="42.56902333" lon="1.59126">
        <ele>1867.0</ele>
        <time>2019-08-04T08:44:31.320Z</time>
      </trkpt>
      <trkpt lat="42.56902333" lon="1.59126">
        <ele>1867.0</ele>
        <time>2019-08-04T08:44:32.312Z</time>
      </trkpt>
      <trkpt lat="42.569175" lon="1.59109833">
        <ele>1865.0</ele>
        <time>2019-08-04T08:44:33.320Z</time>
      </trkpt>
      <trkpt lat="42.569175" lon="1.59109833">
        <ele>1865.0</ele>
        <time>2019-08-04T08:44:34.313Z</time>
      </trkpt>
      <trkpt lat="42.569325" lon="1.59087167">
        <ele>1864.0</ele>
        <time>2019-08-04T08:44:35.297Z</time>
      </trkpt>
      <trkpt lat="42.569405" lon="1.59075167">
        <ele>1863.0</ele>
        <time>2019-08-04T08:44:36.321Z</time>
      </trkpt>
      <trkpt lat="42.56948" lon="1.59062333">
        <ele>1863.0</ele>
        <time>2019-08-04T08:44:37.304Z</time>
      </trkpt>
      <trkpt lat="42.56948" lon="1.59062333">
        <ele>1863.0</ele>
        <time>2019-08-04T08:44:38.327Z</time>
      </trkpt>
      <trkpt lat="42.56962833" lon="1.59037667">
        <ele>1861.0</ele>
        <time>2019-08-04T08:44:39.298Z</time>
      </trkpt>
      <trkpt lat="42.56962833" lon="1.59037667">
        <ele>1861.0</ele>
        <time>2019-08-04T08:44:40.320Z</time>
      </trkpt>
      <trkpt lat="42.56976667" lon="1.59012833">
        <ele>1860.0</ele>
        <time>2019-08-04T08:44:41.317Z</time>
      </trkpt>
      <trkpt lat="42.56983833" lon="1.59001667">
        <ele>1859.0</ele>
        <time>2019-08-04T08:44:42.319Z</time>
      </trkpt>
      <trkpt lat="42.56983833" lon="1.59001667">
        <ele>1859.0</ele>
        <time>2019-08-04T08:44:43.314Z</time>
      </trkpt>
      <trkpt lat="42.569995" lon="1.58981">
        <ele>1857.0</ele>
        <time>2019-08-04T08:44:44.318Z</time>
      </trkpt>
      <trkpt lat="42.57008" lon="1.58971667">
        <ele>1857.0</ele>
        <time>2019-08-04T08:44:45.319Z</time>
      </trkpt>
      <trkpt lat="42.57016167" lon="1.58963667">
        <ele>1856.0</ele>
        <time>2019-08-04T08:44:46.321Z</time>
      </trkpt>
      <trkpt lat="42.57025167" lon="1.58958167">
        <ele>1855.0</ele>
        <time>2019-08-04T08:44:47.332Z</time>
      </trkpt>
      <trkpt lat="42.57025167" lon="1.58958167">
        <ele>1855.0</ele>
        <time>2019-08-04T08:44:48.315Z</time>
      </trkpt>
      <trkpt lat="42.570445" lon="1.58956333">
        <ele>1853.0</ele>
        <time>2019-08-04T08:44:49.318Z</time>
      </trkpt>
      <trkpt lat="42.570445" lon="1.58956333">
        <ele>1853.0</ele>
        <time>2019-08-04T08:44:50.313Z</time>
      </trkpt>
      <trkpt lat="42.57065667" lon="1.58967333">
        <ele>1852.0</ele>
        <time>2019-08-04T08:44:51.297Z</time>
      </trkpt>
      <trkpt lat="42.57065667" lon="1.58967333">
        <ele>1852.0</ele>
        <time>2019-08-04T08:44:52.317Z</time>
      </trkpt>
      <trkpt lat="42.57088333" lon="1.58983">
        <ele>1850.0</ele>
        <time>2019-08-04T08:44:53.318Z</time>
      </trkpt>
      <trkpt lat="42.57088333" lon="1.58983">
        <ele>1850.0</ele>
        <time>2019-08-04T08:44:54.314Z</time>
      </trkpt>
      <trkpt lat="42.57112333" lon="1.59">
        <ele>1848.0</ele>
        <time>2019-08-04T08:44:55.298Z</time>
      </trkpt>
      <trkpt lat="42.57112333" lon="1.59">
        <ele>1848.0</ele>
        <time>2019-08-04T08:44:56.319Z</time>
      </trkpt>
      <trkpt lat="42.57136" lon="1.59021">
        <ele>1846.0</ele>
        <time>2019-08-04T08:44:57.300Z</time>
      </trkpt>
      <trkpt lat="42.57136" lon="1.59021">
        <ele>1846.0</ele>
        <time>2019-08-04T08:44:58.298Z</time>
      </trkpt>
      <trkpt lat="42.57155333" lon="1.59051">
        <ele>1844.0</ele>
        <time>2019-08-04T08:44:59.319Z</time>
      </trkpt>
      <trkpt lat="42.57163167" lon="1.59066667">
        <ele>1843.0</ele>
        <time>2019-08-04T08:45:00.319Z</time>
      </trkpt>
      <trkpt lat="42.57163167" lon="1.59066667">
        <ele>1843.0</ele>
        <time>2019-08-04T08:45:01.314Z</time>
      </trkpt>
      <trkpt lat="42.57177167" lon="1.59092667">
        <ele>1841.0</ele>
        <time>2019-08-04T08:45:02.319Z</time>
      </trkpt>
      <trkpt lat="42.57185833" lon="1.59103167">
        <ele>1841.0</ele>
        <time>2019-08-04T08:45:03.319Z</time>
      </trkpt>
      <trkpt lat="42.57185833" lon="1.59103167">
        <ele>1841.0</ele>
        <time>2019-08-04T08:45:04.315Z</time>
      </trkpt>
      <trkpt lat="42.57209" lon="1.59118">
        <ele>1839.0</ele>
        <time>2019-08-04T08:45:05.319Z</time>
      </trkpt>
      <trkpt lat="42.57209" lon="1.59118">
        <ele>1839.0</ele>
        <time>2019-08-04T08:45:06.313Z</time>
      </trkpt>
      <trkpt lat="42.57235" lon="1.59125833">
        <ele>1836.0</ele>
        <time>2019-08-04T08:45:07.303Z</time>
      </trkpt>
      <trkpt lat="42.57235" lon="1.59125833">
        <ele>1836.0</ele>
        <time>2019-08-04T08:45:08.328Z</time>
      </trkpt>
      <trkpt lat="42.57258167" lon="1.59124167">
        <ele>1834.0</ele>
        <time>2019-08-04T08:45:09.319Z</time>
      </trkpt>
      <trkpt lat="42.57258167" lon="1.59124167">
        <ele>1834.0</ele>
        <time>2019-08-04T08:45:10.314Z</time>
      </trkpt>
      <trkpt lat="42.57276833" lon="1.59128667">
        <ele>1833.0</ele>
        <time>2019-08-04T08:45:11.318Z</time>
      </trkpt>
      <trkpt lat="42.57282333" lon="1.59136667">
        <ele>1832.0</ele>
        <time>2019-08-04T08:45:12.319Z</time>
      </trkpt>
      <trkpt lat="42.572845" lon="1.59147167">
        <ele>1830.0</ele>
        <time>2019-08-04T08:45:13.320Z</time>
      </trkpt>
      <trkpt lat="42.572845" lon="1.59147167">
        <ele>1830.0</ele>
        <time>2019-08-04T08:45:14.313Z</time>
      </trkpt>
      <trkpt lat="42.57282667" lon="1.591725">
        <ele>1829.0</ele>
        <time>2019-08-04T08:45:15.310Z</time>
      </trkpt>
      <trkpt lat="42.57282667" lon="1.591725">
        <ele>1829.0</ele>
        <time>2019-08-04T08:45:16.301Z</time>
      </trkpt>
      <trkpt lat="42.572775" lon="1.59199833">
        <ele>1829.0</ele>
        <time>2019-08-04T08:45:17.306Z</time>
      </trkpt>
      <trkpt lat="42.572775" lon="1.59199833">
        <ele>1829.0</ele>
        <time>2019-08-04T08:45:18.327Z</time>
      </trkpt>
      <trkpt lat="42.57269833" lon="1.59227333">
        <ele>1829.0</ele>
        <time>2019-08-04T08:45:19.323Z</time>
      </trkpt>
      <trkpt lat="42.57269833" lon="1.59227333">
        <ele>1829.0</ele>
        <time>2019-08-04T08:45:20.316Z</time>
      </trkpt>
      <trkpt lat="42.57258333" lon="1.59254833">
        <ele>1828.0</ele>
        <time>2019-08-04T08:45:21.319Z</time>
      </trkpt>
      <trkpt lat="42.57258333" lon="1.59254833">
        <ele>1828.0</ele>
        <time>2019-08-04T08:45:22.323Z</time>
      </trkpt>
      <trkpt lat="42.57245167" lon="1.59282333">
        <ele>1827.0</ele>
        <time>2019-08-04T08:45:23.319Z</time>
      </trkpt>
      <trkpt lat="42.57238" lon="1.592955">
        <ele>1827.0</ele>
        <time>2019-08-04T08:45:24.320Z</time>
      </trkpt>
      <trkpt lat="42.57238" lon="1.592955">
        <ele>1827.0</ele>
        <time>2019-08-04T08:45:25.318Z</time>
      </trkpt>
      <trkpt lat="42.57232" lon="1.59327333">
        <ele>1826.0</ele>
        <time>2019-08-04T08:45:26.318Z</time>
      </trkpt>
      <trkpt lat="42.57230833" lon="1.59344167">
        <ele>1826.0</ele>
        <time>2019-08-04T08:45:27.297Z</time>
      </trkpt>
      <trkpt lat="42.57230833" lon="1.59344167">
        <ele>1826.0</ele>
        <time>2019-08-04T08:45:28.317Z</time>
      </trkpt>
      <trkpt lat="42.572275" lon="1.593775">
        <ele>1825.0</ele>
        <time>2019-08-04T08:45:29.327Z</time>
      </trkpt>
      <trkpt lat="42.572275" lon="1.593775">
        <ele>1825.0</ele>
        <time>2019-08-04T08:45:30.297Z</time>
      </trkpt>
      <trkpt lat="42.57219333" lon="1.59410333">
        <ele>1824.0</ele>
        <time>2019-08-04T08:45:31.319Z</time>
      </trkpt>
      <trkpt lat="42.57219333" lon="1.59410333">
        <ele>1824.0</ele>
        <time>2019-08-04T08:45:32.313Z</time>
      </trkpt>
      <trkpt lat="42.57208" lon="1.594425">
        <ele>1824.0</ele>
        <time>2019-08-04T08:45:33.333Z</time>
      </trkpt>
      <trkpt lat="42.57208" lon="1.594425">
        <ele>1824.0</ele>
        <time>2019-08-04T08:45:34.313Z</time>
      </trkpt>
      <trkpt lat="42.57204833" lon="1.59478167">
        <ele>1822.0</ele>
        <time>2019-08-04T08:45:35.333Z</time>
      </trkpt>
      <trkpt lat="42.57204833" lon="1.59478167">
        <ele>1822.0</ele>
        <time>2019-08-04T08:45:36.313Z</time>
      </trkpt>
      <trkpt lat="42.57216667" lon="1.595095">
        <ele>1821.0</ele>
        <time>2019-08-04T08:45:37.304Z</time>
      </trkpt>
      <trkpt lat="42.57216667" lon="1.595095">
        <ele>1821.0</ele>
        <time>2019-08-04T08:45:38.324Z</time>
      </trkpt>
      <trkpt lat="42.572395" lon="1.59529">
        <ele>1820.0</ele>
        <time>2019-08-04T08:45:39.319Z</time>
      </trkpt>
      <trkpt lat="42.572395" lon="1.59529">
        <ele>1820.0</ele>
        <time>2019-08-04T08:45:40.315Z</time>
      </trkpt>
      <trkpt lat="42.57258833" lon="1.59554">
        <ele>1818.0</ele>
        <time>2019-08-04T08:45:41.319Z</time>
      </trkpt>
      <trkpt lat="42.57258833" lon="1.59554">
        <ele>1818.0</ele>
        <time>2019-08-04T08:45:42.312Z</time>
      </trkpt>
      <trkpt lat="42.57265167" lon="1.59588667">
        <ele>1817.0</ele>
        <time>2019-08-04T08:45:43.332Z</time>
      </trkpt>
      <trkpt lat="42.57265167" lon="1.59588667">
        <ele>1817.0</ele>
        <time>2019-08-04T08:45:44.313Z</time>
      </trkpt>
      <trkpt lat="42.57261333" lon="1.59625167">
        <ele>1817.0</ele>
        <time>2019-08-04T08:45:45.319Z</time>
      </trkpt>
      <trkpt lat="42.57258" lon="1.59643333">
        <ele>1816.0</ele>
        <time>2019-08-04T08:45:46.319Z</time>
      </trkpt>
      <trkpt lat="42.57254333" lon="1.59661">
        <ele>1816.0</ele>
        <time>2019-08-04T08:45:47.297Z</time>
      </trkpt>
      <trkpt lat="42.57254333" lon="1.59661">
        <ele>1816.0</ele>
        <time>2019-08-04T08:45:48.317Z</time>
      </trkpt>
      <trkpt lat="42.572485" lon="1.59697167">
        <ele>1814.0</ele>
        <time>2019-08-04T08:45:49.320Z</time>
      </trkpt>
      <trkpt lat="42.572485" lon="1.59697167">
        <ele>1814.0</ele>
        <time>2019-08-04T08:45:50.315Z</time>
      </trkpt>
      <trkpt lat="42.57245167" lon="1.59733667">
        <ele>1813.0</ele>
        <time>2019-08-04T08:45:51.320Z</time>
      </trkpt>
      <trkpt lat="42.57245167" lon="1.59733667">
        <ele>1813.0</ele>
        <time>2019-08-04T08:45:52.316Z</time>
      </trkpt>
      <trkpt lat="42.57242833" lon="1.59770667">
        <ele>1812.0</ele>
        <time>2019-08-04T08:45:53.321Z</time>
      </trkpt>
      <trkpt lat="42.57242833" lon="1.59770667">
        <ele>1812.0</ele>
        <time>2019-08-04T08:45:54.316Z</time>
      </trkpt>
      <trkpt lat="42.57241667" lon="1.59807667">
        <ele>1811.0</ele>
        <time>2019-08-04T08:45:55.299Z</time>
      </trkpt>
      <trkpt lat="42.572415" lon="1.59826167">
        <ele>1810.0</ele>
        <time>2019-08-04T08:45:56.319Z</time>
      </trkpt>
      <trkpt lat="42.57242167" lon="1.59844667">
        <ele>1810.0</ele>
        <time>2019-08-04T08:45:57.297Z</time>
      </trkpt>
      <trkpt lat="42.57242167" lon="1.59844667">
        <ele>1810.0</ele>
        <time>2019-08-04T08:45:58.318Z</time>
      </trkpt>
      <trkpt lat="42.57243667" lon="1.59880833">
        <ele>1809.0</ele>
        <time>2019-08-04T08:45:59.318Z</time>
      </trkpt>
      <trkpt lat="42.57243667" lon="1.59880833">
        <ele>1809.0</ele>
        <time>2019-08-04T08:46:00.298Z</time>
      </trkpt>
      <trkpt lat="42.57244667" lon="1.599175">
        <ele>1807.0</ele>
        <time>2019-08-04T08:46:01.322Z</time>
      </trkpt>
      <trkpt lat="42.57244667" lon="1.599175">
        <ele>1807.0</ele>
        <time>2019-08-04T08:46:02.314Z</time>
      </trkpt>
      <trkpt lat="42.57245" lon="1.59955333">
        <ele>1805.0</ele>
        <time>2019-08-04T08:46:03.297Z</time>
      </trkpt>
      <trkpt lat="42.57245" lon="1.59955333">
        <ele>1805.0</ele>
        <time>2019-08-04T08:46:04.318Z</time>
      </trkpt>
      <trkpt lat="42.57245167" lon="1.59993833">
        <ele>1804.0</ele>
        <time>2019-08-04T08:46:05.320Z</time>
      </trkpt>
      <trkpt lat="42.57245167" lon="1.59993833">
        <ele>1804.0</ele>
        <time>2019-08-04T08:46:06.313Z</time>
      </trkpt>
      <trkpt lat="42.57247333" lon="1.60033667">
        <ele>1802.0</ele>
        <time>2019-08-04T08:46:07.305Z</time>
      </trkpt>
      <trkpt lat="42.57247333" lon="1.60033667">
        <ele>1802.0</ele>
        <time>2019-08-04T08:46:08.327Z</time>
      </trkpt>
      <trkpt lat="42.572515" lon="1.60073667">
        <ele>1800.0</ele>
        <time>2019-08-04T08:46:09.318Z</time>
      </trkpt>
      <trkpt lat="42.572515" lon="1.60073667">
        <ele>1800.0</ele>
        <time>2019-08-04T08:46:10.308Z</time>
      </trkpt>
      <trkpt lat="42.572575" lon="1.60114333">
        <ele>1798.0</ele>
        <time>2019-08-04T08:46:11.328Z</time>
      </trkpt>
      <trkpt lat="42.572575" lon="1.60114333">
        <ele>1798.0</ele>
        <time>2019-08-04T08:46:12.313Z</time>
      </trkpt>
      <trkpt lat="42.57263167" lon="1.60154333">
        <ele>1796.0</ele>
        <time>2019-08-04T08:46:13.333Z</time>
      </trkpt>
      <trkpt lat="42.57263167" lon="1.60154333">
        <ele>1796.0</ele>
        <time>2019-08-04T08:46:14.313Z</time>
      </trkpt>
      <trkpt lat="42.57266167" lon="1.601885">
        <ele>1795.0</ele>
        <time>2019-08-04T08:46:15.297Z</time>
      </trkpt>
      <trkpt lat="42.57266333" lon="1.60203167">
        <ele>1794.0</ele>
        <time>2019-08-04T08:46:16.320Z</time>
      </trkpt>
      <trkpt lat="42.57266" lon="1.60216167">
        <ele>1793.0</ele>
        <time>2019-08-04T08:46:17.331Z</time>
      </trkpt>
      <trkpt lat="42.57266" lon="1.60216167">
        <ele>1793.0</ele>
        <time>2019-08-04T08:46:18.315Z</time>
      </trkpt>
      <trkpt lat="42.572575" lon="1.60235">
        <ele>1792.0</ele>
        <time>2019-08-04T08:46:19.321Z</time>
      </trkpt>
      <trkpt lat="42.572575" lon="1.60235">
        <ele>1792.0</ele>
        <time>2019-08-04T08:46:20.320Z</time>
      </trkpt>
      <trkpt lat="42.57242333" lon="1.602365">
        <ele>1790.0</ele>
        <time>2019-08-04T08:46:21.319Z</time>
      </trkpt>
      <trkpt lat="42.57242333" lon="1.602365">
        <ele>1790.0</ele>
        <time>2019-08-04T08:46:22.313Z</time>
      </trkpt>
      <trkpt lat="42.57235" lon="1.60217667">
        <ele>1789.0</ele>
        <time>2019-08-04T08:46:23.333Z</time>
      </trkpt>
      <trkpt lat="42.57235" lon="1.60217667">
        <ele>1789.0</ele>
        <time>2019-08-04T08:46:24.313Z</time>
      </trkpt>
      <trkpt lat="42.57236667" lon="1.60192667">
        <ele>1787.0</ele>
        <time>2019-08-04T08:46:25.322Z</time>
      </trkpt>
      <trkpt lat="42.57236667" lon="1.60192667">
        <ele>1787.0</ele>
        <time>2019-08-04T08:46:26.316Z</time>
      </trkpt>
      <trkpt lat="42.57242" lon="1.60164">
        <ele>1786.0</ele>
        <time>2019-08-04T08:46:27.300Z</time>
      </trkpt>
      <trkpt lat="42.57242" lon="1.60164">
        <ele>1786.0</ele>
        <time>2019-08-04T08:46:28.320Z</time>
      </trkpt>
      <trkpt lat="42.57242667" lon="1.60132667">
        <ele>1785.0</ele>
        <time>2019-08-04T08:46:29.331Z</time>
      </trkpt>
      <trkpt lat="42.57242667" lon="1.60132667">
        <ele>1785.0</ele>
        <time>2019-08-04T08:46:30.315Z</time>
      </trkpt>
      <trkpt lat="42.57233333" lon="1.60102333">
        <ele>1783.0</ele>
        <time>2019-08-04T08:46:31.299Z</time>
      </trkpt>
      <trkpt lat="42.57233333" lon="1.60102333">
        <ele>1783.0</ele>
        <time>2019-08-04T08:46:32.319Z</time>
      </trkpt>
      <trkpt lat="42.57223" lon="1.60070667">
        <ele>1781.0</ele>
        <time>2019-08-04T08:46:33.321Z</time>
      </trkpt>
      <trkpt lat="42.57223" lon="1.60070667">
        <ele>1781.0</ele>
        <time>2019-08-04T08:46:34.314Z</time>
      </trkpt>
      <trkpt lat="42.57216833" lon="1.60036167">
        <ele>1779.0</ele>
        <time>2019-08-04T08:46:35.333Z</time>
      </trkpt>
      <trkpt lat="42.57216833" lon="1.60036167">
        <ele>1779.0</ele>
        <time>2019-08-04T08:46:36.316Z</time>
      </trkpt>
      <trkpt lat="42.57213167" lon="1.59999333">
        <ele>1777.0</ele>
        <time>2019-08-04T08:46:37.301Z</time>
      </trkpt>
      <trkpt lat="42.57213167" lon="1.59999333">
        <ele>1777.0</ele>
        <time>2019-08-04T08:46:38.320Z</time>
      </trkpt>
      <trkpt lat="42.57209667" lon="1.59960333">
        <ele>1775.0</ele>
        <time>2019-08-04T08:46:39.321Z</time>
      </trkpt>
      <trkpt lat="42.57209667" lon="1.59960333">
        <ele>1775.0</ele>
        <time>2019-08-04T08:46:40.316Z</time>
      </trkpt>
      <trkpt lat="42.57205333" lon="1.59919333">
        <ele>1772.0</ele>
        <time>2019-08-04T08:46:41.319Z</time>
      </trkpt>
      <trkpt lat="42.57205333" lon="1.59919333">
        <ele>1772.0</ele>
        <time>2019-08-04T08:46:42.314Z</time>
      </trkpt>
      <trkpt lat="42.57199667" lon="1.59878333">
        <ele>1770.0</ele>
        <time>2019-08-04T08:46:43.332Z</time>
      </trkpt>
      <trkpt lat="42.571965" lon="1.598585">
        <ele>1768.0</ele>
        <time>2019-08-04T08:46:44.328Z</time>
      </trkpt>
      <trkpt lat="42.571965" lon="1.598585">
        <ele>1768.0</ele>
        <time>2019-08-04T08:46:45.318Z</time>
      </trkpt>
      <trkpt lat="42.57190167" lon="1.59817833">
        <ele>1766.0</ele>
        <time>2019-08-04T08:46:46.319Z</time>
      </trkpt>
      <trkpt lat="42.57187167" lon="1.59796833">
        <ele>1764.0</ele>
        <time>2019-08-04T08:46:47.300Z</time>
      </trkpt>
      <trkpt lat="42.571845" lon="1.597755">
        <ele>1763.0</ele>
        <time>2019-08-04T08:46:48.323Z</time>
      </trkpt>
      <trkpt lat="42.571845" lon="1.597755">
        <ele>1763.0</ele>
        <time>2019-08-04T08:46:49.316Z</time>
      </trkpt>
      <trkpt lat="42.57179833" lon="1.59733167">
        <ele>1760.0</ele>
        <time>2019-08-04T08:46:50.318Z</time>
      </trkpt>
      <trkpt lat="42.57179833" lon="1.59733167">
        <ele>1760.0</ele>
        <time>2019-08-04T08:46:51.319Z</time>
      </trkpt>
      <trkpt lat="42.57177667" lon="1.59693833">
        <ele>1757.0</ele>
        <time>2019-08-04T08:46:52.320Z</time>
      </trkpt>
      <trkpt lat="42.57177667" lon="1.59693833">
        <ele>1757.0</ele>
        <time>2019-08-04T08:46:53.313Z</time>
      </trkpt>
      <trkpt lat="42.571775" lon="1.596575">
        <ele>1755.0</ele>
        <time>2019-08-04T08:46:54.333Z</time>
      </trkpt>
      <trkpt lat="42.57173333" lon="1.59642">
        <ele>1754.0</ele>
        <time>2019-08-04T08:46:55.319Z</time>
      </trkpt>
      <trkpt lat="42.57173333" lon="1.59642">
        <ele>1754.0</ele>
        <time>2019-08-04T08:46:56.313Z</time>
      </trkpt>
      <trkpt lat="42.571535" lon="1.59619">
        <ele>1752.0</ele>
        <time>2019-08-04T08:46:57.297Z</time>
      </trkpt>
      <trkpt lat="42.571535" lon="1.59619">
        <ele>1752.0</ele>
        <time>2019-08-04T08:46:58.319Z</time>
      </trkpt>
      <trkpt lat="42.57127333" lon="1.59608667">
        <ele>1750.0</ele>
        <time>2019-08-04T08:46:59.319Z</time>
      </trkpt>
      <trkpt lat="42.57127333" lon="1.59608667">
        <ele>1750.0</ele>
        <time>2019-08-04T08:47:00.316Z</time>
      </trkpt>
      <trkpt lat="42.57105333" lon="1.59589333">
        <ele>1747.0</ele>
        <time>2019-08-04T08:47:01.332Z</time>
      </trkpt>
      <trkpt lat="42.570965" lon="1.59576">
        <ele>1747.0</ele>
        <time>2019-08-04T08:47:02.296Z</time>
      </trkpt>
      <trkpt lat="42.570965" lon="1.59576">
        <ele>1747.0</ele>
        <time>2019-08-04T08:47:03.302Z</time>
      </trkpt>
      <trkpt lat="42.57087333" lon="1.59543167">
        <ele>1745.0</ele>
        <time>2019-08-04T08:47:04.310Z</time>
      </trkpt>
      <trkpt lat="42.57087833" lon="1.59525167">
        <ele>1744.0</ele>
        <time>2019-08-04T08:47:05.316Z</time>
      </trkpt>
      <trkpt lat="42.57087833" lon="1.59525167">
        <ele>1744.0</ele>
        <time>2019-08-04T08:47:06.323Z</time>
      </trkpt>
      <trkpt lat="42.57090833" lon="1.59488667">
        <ele>1742.0</ele>
        <time>2019-08-04T08:47:07.306Z</time>
      </trkpt>
      <trkpt lat="42.57090833" lon="1.59488667">
        <ele>1742.0</ele>
        <time>2019-08-04T08:47:08.327Z</time>
      </trkpt>
      <trkpt lat="42.57094667" lon="1.59453833">
        <ele>1741.0</ele>
        <time>2019-08-04T08:47:09.333Z</time>
      </trkpt>
      <trkpt lat="42.57094667" lon="1.59453833">
        <ele>1741.0</ele>
        <time>2019-08-04T08:47:10.316Z</time>
      </trkpt>
      <trkpt lat="42.57103167" lon="1.59427333">
        <ele>1740.0</ele>
        <time>2019-08-04T08:47:11.317Z</time>
      </trkpt>
      <trkpt lat="42.57106833" lon="1.59418167">
        <ele>1740.0</ele>
        <time>2019-08-04T08:47:12.319Z</time>
      </trkpt>
      <trkpt lat="42.57106833" lon="1.59418167">
        <ele>1740.0</ele>
        <time>2019-08-04T08:47:13.314Z</time>
      </trkpt>
      <trkpt lat="42.57104" lon="1.59402167">
        <ele>1740.0</ele>
        <time>2019-08-04T08:47:14.318Z</time>
      </trkpt>
      <trkpt lat="42.57097833" lon="1.59400333">
        <ele>1740.0</ele>
        <time>2019-08-04T08:47:15.330Z</time>
      </trkpt>
      <trkpt lat="42.57097833" lon="1.59400333">
        <ele>1740.0</ele>
        <time>2019-08-04T08:47:16.313Z</time>
      </trkpt>
      <trkpt lat="42.57086" lon="1.59413333">
        <ele>1738.0</ele>
        <time>2019-08-04T08:47:17.298Z</time>
      </trkpt>
      <trkpt lat="42.57086" lon="1.59413333">
        <ele>1738.0</ele>
        <time>2019-08-04T08:47:18.317Z</time>
      </trkpt>
      <trkpt lat="42.570785" lon="1.59435833">
        <ele>1738.0</ele>
        <time>2019-08-04T08:47:19.320Z</time>
      </trkpt>
      <trkpt lat="42.570785" lon="1.59435833">
        <ele>1738.0</ele>
        <time>2019-08-04T08:47:20.313Z</time>
      </trkpt>
      <trkpt lat="42.57075833" lon="1.59462833">
        <ele>1736.0</ele>
        <time>2019-08-04T08:47:21.332Z</time>
      </trkpt>
      <trkpt lat="42.57075833" lon="1.59462833">
        <ele>1736.0</ele>
        <time>2019-08-04T08:47:22.313Z</time>
      </trkpt>
      <trkpt lat="42.57074333" lon="1.594915">
        <ele>1735.0</ele>
        <time>2019-08-04T08:47:23.298Z</time>
      </trkpt>
      <trkpt lat="42.57074333" lon="1.594915">
        <ele>1735.0</ele>
        <time>2019-08-04T08:47:24.319Z</time>
      </trkpt>
      <trkpt lat="42.57067" lon="1.59519667">
        <ele>1732.0</ele>
        <time>2019-08-04T08:47:25.320Z</time>
      </trkpt>
      <trkpt lat="42.57067" lon="1.59519667">
        <ele>1732.0</ele>
        <time>2019-08-04T08:47:26.312Z</time>
      </trkpt>
      <trkpt lat="42.57057167" lon="1.59548833">
        <ele>1731.0</ele>
        <time>2019-08-04T08:47:27.307Z</time>
      </trkpt>
      <trkpt lat="42.57057167" lon="1.59548833">
        <ele>1731.0</ele>
        <time>2019-08-04T08:47:28.326Z</time>
      </trkpt>
      <trkpt lat="42.57054833" lon="1.595805">
        <ele>1730.0</ele>
        <time>2019-08-04T08:47:29.312Z</time>
      </trkpt>
      <trkpt lat="42.57054833" lon="1.595805">
        <ele>1730.0</ele>
        <time>2019-08-04T08:47:30.327Z</time>
      </trkpt>
      <trkpt lat="42.57064167" lon="1.59610333">
        <ele>1729.0</ele>
        <time>2019-08-04T08:47:31.315Z</time>
      </trkpt>
      <trkpt lat="42.57071" lon="1.59624">
        <ele>1728.0</ele>
        <time>2019-08-04T08:47:32.319Z</time>
      </trkpt>
      <trkpt lat="42.57077833" lon="1.59637667">
        <ele>1728.0</ele>
        <time>2019-08-04T08:47:33.320Z</time>
      </trkpt>
      <trkpt lat="42.57077833" lon="1.59637667">
        <ele>1728.0</ele>
        <time>2019-08-04T08:47:34.321Z</time>
      </trkpt>
      <trkpt lat="42.57094667" lon="1.59659333">
        <ele>1726.0</ele>
        <time>2019-08-04T08:47:35.319Z</time>
      </trkpt>
      <trkpt lat="42.571045" lon="1.59666">
        <ele>1724.0</ele>
        <time>2019-08-04T08:47:36.319Z</time>
      </trkpt>
      <trkpt lat="42.571135" lon="1.59674333">
        <ele>1723.0</ele>
        <time>2019-08-04T08:47:37.299Z</time>
      </trkpt>
      <trkpt lat="42.571135" lon="1.59674333">
        <ele>1723.0</ele>
        <time>2019-08-04T08:47:38.319Z</time>
      </trkpt>
      <trkpt lat="42.57122667" lon="1.59699667">
        <ele>1722.0</ele>
        <time>2019-08-04T08:47:39.320Z</time>
      </trkpt>
      <trkpt lat="42.57122667" lon="1.59699667">
        <ele>1722.0</ele>
        <time>2019-08-04T08:47:40.313Z</time>
      </trkpt>
      <trkpt lat="42.57120833" lon="1.597305">
        <ele>1720.0</ele>
        <time>2019-08-04T08:47:41.333Z</time>
      </trkpt>
      <trkpt lat="42.57119" lon="1.59746833">
        <ele>1719.0</ele>
        <time>2019-08-04T08:47:42.318Z</time>
      </trkpt>
      <trkpt lat="42.57117333" lon="1.59764333">
        <ele>1718.0</ele>
        <time>2019-08-04T08:47:43.321Z</time>
      </trkpt>
      <trkpt lat="42.57117333" lon="1.59764333">
        <ele>1718.0</ele>
        <time>2019-08-04T08:47:44.313Z</time>
      </trkpt>
      <trkpt lat="42.57114167" lon="1.59801333">
        <ele>1715.0</ele>
        <time>2019-08-04T08:47:45.332Z</time>
      </trkpt>
      <trkpt lat="42.57114167" lon="1.59801333">
        <ele>1715.0</ele>
        <time>2019-08-04T08:47:46.315Z</time>
      </trkpt>
      <trkpt lat="42.571105" lon="1.59840667">
        <ele>1712.0</ele>
        <time>2019-08-04T08:47:47.298Z</time>
      </trkpt>
      <trkpt lat="42.571105" lon="1.59840667">
        <ele>1712.0</ele>
        <time>2019-08-04T08:47:48.318Z</time>
      </trkpt>
      <trkpt lat="42.57105667" lon="1.598825">
        <ele>1710.0</ele>
        <time>2019-08-04T08:47:49.320Z</time>
      </trkpt>
      <trkpt lat="42.57105667" lon="1.598825">
        <ele>1710.0</ele>
        <time>2019-08-04T08:47:50.314Z</time>
      </trkpt>
      <trkpt lat="42.57099" lon="1.599265">
        <ele>1707.0</ele>
        <time>2019-08-04T08:47:51.298Z</time>
      </trkpt>
      <trkpt lat="42.57095333" lon="1.59948667">
        <ele>1705.0</ele>
        <time>2019-08-04T08:47:52.320Z</time>
      </trkpt>
      <trkpt lat="42.570915" lon="1.59970667">
        <ele>1704.0</ele>
        <time>2019-08-04T08:47:53.321Z</time>
      </trkpt>
      <trkpt lat="42.570915" lon="1.59970667">
        <ele>1704.0</ele>
        <time>2019-08-04T08:47:54.315Z</time>
      </trkpt>
      <trkpt lat="42.57083833" lon="1.60011833">
        <ele>1702.0</ele>
        <time>2019-08-04T08:47:55.299Z</time>
      </trkpt>
      <trkpt lat="42.57083833" lon="1.60011833">
        <ele>1702.0</ele>
        <time>2019-08-04T08:47:56.325Z</time>
      </trkpt>
      <trkpt lat="42.57075333" lon="1.60042333">
        <ele>1700.0</ele>
        <time>2019-08-04T08:47:57.298Z</time>
      </trkpt>
      <trkpt lat="42.57075333" lon="1.60042333">
        <ele>1700.0</ele>
        <time>2019-08-04T08:47:58.318Z</time>
      </trkpt>
      <trkpt lat="42.57062167" lon="1.60059667">
        <ele>1697.0</ele>
        <time>2019-08-04T08:47:59.316Z</time>
      </trkpt>
      <trkpt lat="42.57062167" lon="1.60059667">
        <ele>1697.0</ele>
        <time>2019-08-04T08:48:00.299Z</time>
      </trkpt>
      <trkpt lat="42.57044833" lon="1.60057667">
        <ele>1695.0</ele>
        <time>2019-08-04T08:48:01.325Z</time>
      </trkpt>
      <trkpt lat="42.57044833" lon="1.60057667">
        <ele>1695.0</ele>
        <time>2019-08-04T08:48:02.322Z</time>
      </trkpt>
      <trkpt lat="42.57040667" lon="1.60036">
        <ele>1692.0</ele>
        <time>2019-08-04T08:48:03.320Z</time>
      </trkpt>
      <trkpt lat="42.57040667" lon="1.60036">
        <ele>1692.0</ele>
        <time>2019-08-04T08:48:04.315Z</time>
      </trkpt>
      <trkpt lat="42.57049667" lon="1.600115">
        <ele>1689.0</ele>
        <time>2019-08-04T08:48:05.298Z</time>
      </trkpt>
      <trkpt lat="42.57049667" lon="1.600115">
        <ele>1689.0</ele>
        <time>2019-08-04T08:48:06.319Z</time>
      </trkpt>
      <trkpt lat="42.57061" lon="1.59985">
        <ele>1687.0</ele>
        <time>2019-08-04T08:48:07.298Z</time>
      </trkpt>
      <trkpt lat="42.57061" lon="1.59985">
        <ele>1687.0</ele>
        <time>2019-08-04T08:48:08.319Z</time>
      </trkpt>
      <trkpt lat="42.570675" lon="1.59953333">
        <ele>1685.0</ele>
        <time>2019-08-04T08:48:09.319Z</time>
      </trkpt>
      <trkpt lat="42.570675" lon="1.59953333">
        <ele>1685.0</ele>
        <time>2019-08-04T08:48:10.314Z</time>
      </trkpt>
      <trkpt lat="42.570675" lon="1.59917833">
        <ele>1683.0</ele>
        <time>2019-08-04T08:48:11.333Z</time>
      </trkpt>
      <trkpt lat="42.570675" lon="1.59917833">
        <ele>1683.0</ele>
        <time>2019-08-04T08:48:12.315Z</time>
      </trkpt>
      <trkpt lat="42.57065333" lon="1.59880667">
        <ele>1681.0</ele>
        <time>2019-08-04T08:48:13.322Z</time>
      </trkpt>
      <trkpt lat="42.57065333" lon="1.59880667">
        <ele>1681.0</ele>
        <time>2019-08-04T08:48:14.313Z</time>
      </trkpt>
      <trkpt lat="42.57064" lon="1.59841833">
        <ele>1678.0</ele>
        <time>2019-08-04T08:48:15.334Z</time>
      </trkpt>
      <trkpt lat="42.57064" lon="1.59841833">
        <ele>1678.0</ele>
        <time>2019-08-04T08:48:16.316Z</time>
      </trkpt>
      <trkpt lat="42.57066667" lon="1.59805">
        <ele>1676.0</ele>
        <time>2019-08-04T08:48:17.306Z</time>
      </trkpt>
      <trkpt lat="42.57066667" lon="1.59805">
        <ele>1676.0</ele>
        <time>2019-08-04T08:48:18.314Z</time>
      </trkpt>
      <trkpt lat="42.57073167" lon="1.597765">
        <ele>1673.0</ele>
        <time>2019-08-04T08:48:19.299Z</time>
      </trkpt>
      <trkpt lat="42.57073167" lon="1.597765">
        <ele>1673.0</ele>
        <time>2019-08-04T08:48:20.321Z</time>
      </trkpt>
      <trkpt lat="42.57075167" lon="1.59753833">
        <ele>1671.0</ele>
        <time>2019-08-04T08:48:21.320Z</time>
      </trkpt>
      <trkpt lat="42.57070833" lon="1.59746">
        <ele>1670.0</ele>
        <time>2019-08-04T08:48:22.321Z</time>
      </trkpt>
      <trkpt lat="42.57070833" lon="1.59746">
        <ele>1670.0</ele>
        <time>2019-08-04T08:48:23.315Z</time>
      </trkpt>
      <trkpt lat="42.57056667" lon="1.59748167">
        <ele>1667.0</ele>
        <time>2019-08-04T08:48:24.298Z</time>
      </trkpt>
      <trkpt lat="42.57056667" lon="1.59748167">
        <ele>1667.0</ele>
        <time>2019-08-04T08:48:25.318Z</time>
      </trkpt>
      <trkpt lat="42.57047667" lon="1.59766333">
        <ele>1665.0</ele>
        <time>2019-08-04T08:48:26.319Z</time>
      </trkpt>
      <trkpt lat="42.57043167" lon="1.597775">
        <ele>1664.0</ele>
        <time>2019-08-04T08:48:27.305Z</time>
      </trkpt>
      <trkpt lat="42.57043167" lon="1.597775">
        <ele>1664.0</ele>
        <time>2019-08-04T08:48:28.326Z</time>
      </trkpt>
      <trkpt lat="42.57034667" lon="1.598025">
        <ele>1663.0</ele>
        <time>2019-08-04T08:48:29.319Z</time>
      </trkpt>
      <trkpt lat="42.57034667" lon="1.598025">
        <ele>1663.0</ele>
        <time>2019-08-04T08:48:30.318Z</time>
      </trkpt>
      <trkpt lat="42.57032667" lon="1.59832833">
        <ele>1661.0</ele>
        <time>2019-08-04T08:48:31.320Z</time>
      </trkpt>
      <trkpt lat="42.57032667" lon="1.59832833">
        <ele>1661.0</ele>
        <time>2019-08-04T08:48:32.314Z</time>
      </trkpt>
      <trkpt lat="42.57034833" lon="1.598665">
        <ele>1659.0</ele>
        <time>2019-08-04T08:48:33.334Z</time>
      </trkpt>
      <trkpt lat="42.57034833" lon="1.598665">
        <ele>1659.0</ele>
        <time>2019-08-04T08:48:34.314Z</time>
      </trkpt>
      <trkpt lat="42.57031" lon="1.598995">
        <ele>1658.0</ele>
        <time>2019-08-04T08:48:35.334Z</time>
      </trkpt>
      <trkpt lat="42.570265" lon="1.599135">
        <ele>1657.0</ele>
        <time>2019-08-04T08:48:36.319Z</time>
      </trkpt>
      <trkpt lat="42.57018333" lon="1.599245">
        <ele>1656.0</ele>
        <time>2019-08-04T08:48:37.299Z</time>
      </trkpt>
      <trkpt lat="42.57018333" lon="1.599245">
        <ele>1656.0</ele>
        <time>2019-08-04T08:48:38.318Z</time>
      </trkpt>
      <trkpt lat="42.56998" lon="1.599375">
        <ele>1653.0</ele>
        <time>2019-08-04T08:48:39.321Z</time>
      </trkpt>
      <trkpt lat="42.56998" lon="1.599375">
        <ele>1653.0</ele>
        <time>2019-08-04T08:48:40.313Z</time>
      </trkpt>
      <trkpt lat="42.56974833" lon="1.59933">
        <ele>1651.0</ele>
        <time>2019-08-04T08:48:41.333Z</time>
      </trkpt>
      <trkpt lat="42.56974833" lon="1.59933">
        <ele>1651.0</ele>
        <time>2019-08-04T08:48:42.315Z</time>
      </trkpt>
      <trkpt lat="42.56950167" lon="1.59941">
        <ele>1649.0</ele>
        <time>2019-08-04T08:48:43.334Z</time>
      </trkpt>
      <trkpt lat="42.56939" lon="1.599505">
        <ele>1648.0</ele>
        <time>2019-08-04T08:48:44.318Z</time>
      </trkpt>
      <trkpt lat="42.56939" lon="1.599505">
        <ele>1648.0</ele>
        <time>2019-08-04T08:48:45.315Z</time>
      </trkpt>
      <trkpt lat="42.56920167" lon="1.59978333">
        <ele>1645.0</ele>
        <time>2019-08-04T08:48:46.319Z</time>
      </trkpt>
      <trkpt lat="42.56911" lon="1.59993333">
        <ele>1644.0</ele>
        <time>2019-08-04T08:48:47.299Z</time>
      </trkpt>
      <trkpt lat="42.56911" lon="1.59993333">
        <ele>1644.0</ele>
        <time>2019-08-04T08:48:48.318Z</time>
      </trkpt>
      <trkpt lat="42.568905" lon="1.60022">
        <ele>1642.0</ele>
        <time>2019-08-04T08:48:49.321Z</time>
      </trkpt>
      <trkpt lat="42.568905" lon="1.60022">
        <ele>1642.0</ele>
        <time>2019-08-04T08:48:50.315Z</time>
      </trkpt>
      <trkpt lat="42.56871" lon="1.60044">
        <ele>1640.0</ele>
        <time>2019-08-04T08:48:51.298Z</time>
      </trkpt>
      <trkpt lat="42.56871" lon="1.60044">
        <ele>1640.0</ele>
        <time>2019-08-04T08:48:52.324Z</time>
      </trkpt>
      <trkpt lat="42.56854167" lon="1.60055333">
        <ele>1638.0</ele>
        <time>2019-08-04T08:48:53.319Z</time>
      </trkpt>
      <trkpt lat="42.56854167" lon="1.60055333">
        <ele>1638.0</ele>
        <time>2019-08-04T08:48:54.313Z</time>
      </trkpt>
      <trkpt lat="42.568405" lon="1.60049333">
        <ele>1636.0</ele>
        <time>2019-08-04T08:48:55.332Z</time>
      </trkpt>
      <trkpt lat="42.568405" lon="1.60049333">
        <ele>1636.0</ele>
        <time>2019-08-04T08:48:56.315Z</time>
      </trkpt>
      <trkpt lat="42.56836833" lon="1.60030333">
        <ele>1634.0</ele>
        <time>2019-08-04T08:48:57.299Z</time>
      </trkpt>
      <trkpt lat="42.56836833" lon="1.60030333">
        <ele>1634.0</ele>
        <time>2019-08-04T08:48:58.319Z</time>
      </trkpt>
      <trkpt lat="42.568475" lon="1.60017167">
        <ele>1633.0</ele>
        <time>2019-08-04T08:48:59.320Z</time>
      </trkpt>
      <trkpt lat="42.568475" lon="1.60017167">
        <ele>1633.0</ele>
        <time>2019-08-04T08:49:00.302Z</time>
      </trkpt>
      <trkpt lat="42.56863667" lon="1.60008667">
        <ele>1632.0</ele>
        <time>2019-08-04T08:49:01.322Z</time>
      </trkpt>
      <trkpt lat="42.56863667" lon="1.60008667">
        <ele>1632.0</ele>
        <time>2019-08-04T08:49:02.318Z</time>
      </trkpt>
      <trkpt lat="42.56879833" lon="1.59994167">
        <ele>1631.0</ele>
        <time>2019-08-04T08:49:03.330Z</time>
      </trkpt>
      <trkpt lat="42.56879833" lon="1.59994167">
        <ele>1631.0</ele>
        <time>2019-08-04T08:49:04.315Z</time>
      </trkpt>
      <trkpt lat="42.56889667" lon="1.59963833">
        <ele>1630.0</ele>
        <time>2019-08-04T08:49:05.298Z</time>
      </trkpt>
      <trkpt lat="42.56889667" lon="1.59963833">
        <ele>1630.0</ele>
        <time>2019-08-04T08:49:06.319Z</time>
      </trkpt>
      <trkpt lat="42.56888167" lon="1.59931333">
        <ele>1628.0</ele>
        <time>2019-08-04T08:49:07.299Z</time>
      </trkpt>
      <trkpt lat="42.56888167" lon="1.59931333">
        <ele>1628.0</ele>
        <time>2019-08-04T08:49:08.298Z</time>
      </trkpt>
      <trkpt lat="42.56885167" lon="1.59901167">
        <ele>1626.0</ele>
        <time>2019-08-04T08:49:09.322Z</time>
      </trkpt>
      <trkpt lat="42.56885167" lon="1.59901167">
        <ele>1626.0</ele>
        <time>2019-08-04T08:49:10.314Z</time>
      </trkpt>
      <trkpt lat="42.56888" lon="1.59870833">
        <ele>1624.0</ele>
        <time>2019-08-04T08:49:11.318Z</time>
      </trkpt>
      <trkpt lat="42.56888" lon="1.59870833">
        <ele>1624.0</ele>
        <time>2019-08-04T08:49:12.315Z</time>
      </trkpt>
      <trkpt lat="42.56898833" lon="1.59849167">
        <ele>1622.0</ele>
        <time>2019-08-04T08:49:13.334Z</time>
      </trkpt>
      <trkpt lat="42.56898833" lon="1.59849167">
        <ele>1622.0</ele>
        <time>2019-08-04T08:49:14.318Z</time>
      </trkpt>
      <trkpt lat="42.56929167" lon="1.59847833">
        <ele>1620.0</ele>
        <time>2019-08-04T08:49:15.320Z</time>
      </trkpt>
      <trkpt lat="42.56929167" lon="1.59847833">
        <ele>1620.0</ele>
        <time>2019-08-04T08:49:16.316Z</time>
      </trkpt>
      <trkpt lat="42.569525" lon="1.59834">
        <ele>1619.0</ele>
        <time>2019-08-04T08:49:17.306Z</time>
      </trkpt>
      <trkpt lat="42.569525" lon="1.59834">
        <ele>1619.0</ele>
        <time>2019-08-04T08:49:18.328Z</time>
      </trkpt>
      <trkpt lat="42.56967333" lon="1.598075">
        <ele>1618.0</ele>
        <time>2019-08-04T08:49:19.322Z</time>
      </trkpt>
      <trkpt lat="42.56967333" lon="1.598075">
        <ele>1618.0</ele>
        <time>2019-08-04T08:49:20.317Z</time>
      </trkpt>
      <trkpt lat="42.56966833" lon="1.59775167">
        <ele>1616.0</ele>
        <time>2019-08-04T08:49:21.321Z</time>
      </trkpt>
      <trkpt lat="42.56966833" lon="1.59775167">
        <ele>1616.0</ele>
        <time>2019-08-04T08:49:22.316Z</time>
      </trkpt>
      <trkpt lat="42.56950333" lon="1.59748167">
        <ele>1614.0</ele>
        <time>2019-08-04T08:49:23.299Z</time>
      </trkpt>
      <trkpt lat="42.56950333" lon="1.59748167">
        <ele>1614.0</ele>
        <time>2019-08-04T08:49:24.320Z</time>
      </trkpt>
      <trkpt lat="42.56928333" lon="1.59728833">
        <ele>1612.0</ele>
        <time>2019-08-04T08:49:25.300Z</time>
      </trkpt>
      <trkpt lat="42.56928333" lon="1.59728833">
        <ele>1612.0</ele>
        <time>2019-08-04T08:49:26.320Z</time>
      </trkpt>
      <trkpt lat="42.56905333" lon="1.59709">
        <ele>1610.0</ele>
        <time>2019-08-04T08:49:27.300Z</time>
      </trkpt>
      <trkpt lat="42.56905333" lon="1.59709">
        <ele>1610.0</ele>
        <time>2019-08-04T08:49:28.320Z</time>
      </trkpt>
      <trkpt lat="42.56878167" lon="1.59694167">
        <ele>1608.0</ele>
        <time>2019-08-04T08:49:29.319Z</time>
      </trkpt>
      <trkpt lat="42.56878167" lon="1.59694167">
        <ele>1608.0</ele>
        <time>2019-08-04T08:49:30.313Z</time>
      </trkpt>
      <trkpt lat="42.5685" lon="1.596895">
        <ele>1605.0</ele>
        <time>2019-08-04T08:49:31.300Z</time>
      </trkpt>
      <trkpt lat="42.5685" lon="1.596895">
        <ele>1605.0</ele>
        <time>2019-08-04T08:49:32.322Z</time>
      </trkpt>
      <trkpt lat="42.56822833" lon="1.59678">
        <ele>1603.0</ele>
        <time>2019-08-04T08:49:33.320Z</time>
      </trkpt>
      <trkpt lat="42.56822833" lon="1.59678">
        <ele>1603.0</ele>
        <time>2019-08-04T08:49:34.313Z</time>
      </trkpt>
      <trkpt lat="42.56798" lon="1.59659167">
        <ele>1600.0</ele>
        <time>2019-08-04T08:49:35.332Z</time>
      </trkpt>
      <trkpt lat="42.56798" lon="1.59659167">
        <ele>1600.0</ele>
        <time>2019-08-04T08:49:36.314Z</time>
      </trkpt>
      <trkpt lat="42.56779833" lon="1.59629833">
        <ele>1597.0</ele>
        <time>2019-08-04T08:49:37.299Z</time>
      </trkpt>
      <trkpt lat="42.56779833" lon="1.59629833">
        <ele>1597.0</ele>
        <time>2019-08-04T08:49:38.319Z</time>
      </trkpt>
      <trkpt lat="42.56769833" lon="1.59592167">
        <ele>1595.0</ele>
        <time>2019-08-04T08:49:39.320Z</time>
      </trkpt>
      <trkpt lat="42.56769833" lon="1.59592167">
        <ele>1595.0</ele>
        <time>2019-08-04T08:49:40.317Z</time>
      </trkpt>
      <trkpt lat="42.56762667" lon="1.59550667">
        <ele>1592.0</ele>
        <time>2019-08-04T08:49:41.319Z</time>
      </trkpt>
      <trkpt lat="42.56762667" lon="1.59550667">
        <ele>1592.0</ele>
        <time>2019-08-04T08:49:42.316Z</time>
      </trkpt>
      <trkpt lat="42.567535" lon="1.59508333">
        <ele>1590.0</ele>
        <time>2019-08-04T08:49:43.300Z</time>
      </trkpt>
      <trkpt lat="42.567535" lon="1.59508333">
        <ele>1590.0</ele>
        <time>2019-08-04T08:49:44.319Z</time>
      </trkpt>
      <trkpt lat="42.56736333" lon="1.59469333">
        <ele>1587.0</ele>
        <time>2019-08-04T08:49:45.299Z</time>
      </trkpt>
      <trkpt lat="42.56736333" lon="1.59469333">
        <ele>1587.0</ele>
        <time>2019-08-04T08:49:46.319Z</time>
      </trkpt>
      <trkpt lat="42.56711" lon="1.59437667">
        <ele>1585.0</ele>
        <time>2019-08-04T08:49:47.315Z</time>
      </trkpt>
      <trkpt lat="42.56711" lon="1.59437667">
        <ele>1585.0</ele>
        <time>2019-08-04T08:49:48.316Z</time>
      </trkpt>
      <trkpt lat="42.56687333" lon="1.59401667">
        <ele>1582.0</ele>
        <time>2019-08-04T08:49:49.300Z</time>
      </trkpt>
      <trkpt lat="42.56676333" lon="1.593835">
        <ele>1580.0</ele>
        <time>2019-08-04T08:49:50.321Z</time>
      </trkpt>
      <trkpt lat="42.56666" lon="1.593665">
        <ele>1579.0</ele>
        <time>2019-08-04T08:49:51.321Z</time>
      </trkpt>
      <trkpt lat="42.56666" lon="1.593665">
        <ele>1579.0</ele>
        <time>2019-08-04T08:49:52.324Z</time>
      </trkpt>
      <trkpt lat="42.56641667" lon="1.59335833">
        <ele>1577.0</ele>
        <time>2019-08-04T08:49:53.320Z</time>
      </trkpt>
      <trkpt lat="42.56641667" lon="1.59335833">
        <ele>1577.0</ele>
        <time>2019-08-04T08:49:54.314Z</time>
      </trkpt>
      <trkpt lat="42.56614333" lon="1.59309833">
        <ele>1574.0</ele>
        <time>2019-08-04T08:49:55.334Z</time>
      </trkpt>
      <trkpt lat="42.56614333" lon="1.59309833">
        <ele>1574.0</ele>
        <time>2019-08-04T08:49:56.315Z</time>
      </trkpt>
      <trkpt lat="42.56591167" lon="1.59282167">
        <ele>1572.0</ele>
        <time>2019-08-04T08:49:57.300Z</time>
      </trkpt>
      <trkpt lat="42.56591167" lon="1.59282167">
        <ele>1572.0</ele>
        <time>2019-08-04T08:49:58.320Z</time>
      </trkpt>
      <trkpt lat="42.56569667" lon="1.592515">
        <ele>1569.0</ele>
        <time>2019-08-04T08:49:59.320Z</time>
      </trkpt>
      <trkpt lat="42.56569667" lon="1.592515">
        <ele>1569.0</ele>
        <time>2019-08-04T08:50:00.320Z</time>
      </trkpt>
      <trkpt lat="42.565445" lon="1.59226833">
        <ele>1567.0</ele>
        <time>2019-08-04T08:50:01.322Z</time>
      </trkpt>
      <trkpt lat="42.565445" lon="1.59226833">
        <ele>1567.0</ele>
        <time>2019-08-04T08:50:02.315Z</time>
      </trkpt>
      <trkpt lat="42.56523" lon="1.59206333">
        <ele>1565.0</ele>
        <time>2019-08-04T08:50:03.332Z</time>
      </trkpt>
      <trkpt lat="42.56523" lon="1.59206333">
        <ele>1565.0</ele>
        <time>2019-08-04T08:50:04.314Z</time>
      </trkpt>
      <trkpt lat="42.56510167" lon="1.591835">
        <ele>1562.0</ele>
        <time>2019-08-04T08:50:05.334Z</time>
      </trkpt>
      <trkpt lat="42.56504833" lon="1.59172833">
        <ele>1561.0</ele>
        <time>2019-08-04T08:50:06.318Z</time>
      </trkpt>
      <trkpt lat="42.56498833" lon="1.59165">
        <ele>1559.0</ele>
        <time>2019-08-04T08:50:07.307Z</time>
      </trkpt>
      <trkpt lat="42.56498833" lon="1.59165">
        <ele>1559.0</ele>
        <time>2019-08-04T08:50:08.298Z</time>
      </trkpt>
      <trkpt lat="42.56484667" lon="1.591645">
        <ele>1558.0</ele>
        <time>2019-08-04T08:50:09.320Z</time>
      </trkpt>
      <trkpt lat="42.56484667" lon="1.591645">
        <ele>1558.0</ele>
        <time>2019-08-04T08:50:10.314Z</time>
      </trkpt>
      <trkpt lat="42.564795" lon="1.59174167">
        <ele>1557.0</ele>
        <time>2019-08-04T08:50:11.333Z</time>
      </trkpt>
      <trkpt lat="42.56484833" lon="1.591855">
        <ele>1556.0</ele>
        <time>2019-08-04T08:50:12.320Z</time>
      </trkpt>
      <trkpt lat="42.56492" lon="1.59197667">
        <ele>1555.0</ele>
        <time>2019-08-04T08:50:13.322Z</time>
      </trkpt>
      <trkpt lat="42.56492" lon="1.59197667">
        <ele>1555.0</ele>
        <time>2019-08-04T08:50:14.314Z</time>
      </trkpt>
      <trkpt lat="42.56506833" lon="1.59219333">
        <ele>1554.0</ele>
        <time>2019-08-04T08:50:15.334Z</time>
      </trkpt>
      <trkpt lat="42.56506833" lon="1.59219333">
        <ele>1554.0</ele>
        <time>2019-08-04T08:50:16.317Z</time>
      </trkpt>
      <trkpt lat="42.56524667" lon="1.59239167">
        <ele>1552.0</ele>
        <time>2019-08-04T08:50:17.299Z</time>
      </trkpt>
      <trkpt lat="42.56524667" lon="1.59239167">
        <ele>1552.0</ele>
        <time>2019-08-04T08:50:18.319Z</time>
      </trkpt>
      <trkpt lat="42.56542167" lon="1.59265333">
        <ele>1551.0</ele>
        <time>2019-08-04T08:50:19.321Z</time>
      </trkpt>
      <trkpt lat="42.56542167" lon="1.59265333">
        <ele>1551.0</ele>
        <time>2019-08-04T08:50:20.316Z</time>
      </trkpt>
      <trkpt lat="42.565575" lon="1.59297">
        <ele>1548.0</ele>
        <time>2019-08-04T08:50:21.320Z</time>
      </trkpt>
      <trkpt lat="42.565575" lon="1.59297">
        <ele>1548.0</ele>
        <time>2019-08-04T08:50:22.314Z</time>
      </trkpt>
      <trkpt lat="42.56576667" lon="1.59327">
        <ele>1546.0</ele>
        <time>2019-08-04T08:50:23.315Z</time>
      </trkpt>
      <trkpt lat="42.565865" lon="1.59342167">
        <ele>1545.0</ele>
        <time>2019-08-04T08:50:24.321Z</time>
      </trkpt>
      <trkpt lat="42.565865" lon="1.59342167">
        <ele>1545.0</ele>
        <time>2019-08-04T08:50:25.316Z</time>
      </trkpt>
      <trkpt lat="42.566065" lon="1.593715">
        <ele>1543.0</ele>
        <time>2019-08-04T08:50:26.299Z</time>
      </trkpt>
      <trkpt lat="42.566165" lon="1.59386">
        <ele>1542.0</ele>
        <time>2019-08-04T08:50:27.300Z</time>
      </trkpt>
      <trkpt lat="42.566165" lon="1.59386">
        <ele>1542.0</ele>
        <time>2019-08-04T08:50:28.319Z</time>
      </trkpt>
      <trkpt lat="42.566355" lon="1.59414333">
        <ele>1541.0</ele>
        <time>2019-08-04T08:50:29.320Z</time>
      </trkpt>
      <trkpt lat="42.566355" lon="1.59414333">
        <ele>1541.0</ele>
        <time>2019-08-04T08:50:30.314Z</time>
      </trkpt>
      <trkpt lat="42.56652167" lon="1.59441167">
        <ele>1539.0</ele>
        <time>2019-08-04T08:50:31.303Z</time>
      </trkpt>
      <trkpt lat="42.56652167" lon="1.59441167">
        <ele>1539.0</ele>
        <time>2019-08-04T08:50:32.320Z</time>
      </trkpt>
      <trkpt lat="42.56664" lon="1.59471667">
        <ele>1538.0</ele>
        <time>2019-08-04T08:50:33.321Z</time>
      </trkpt>
      <trkpt lat="42.56664" lon="1.59471667">
        <ele>1538.0</ele>
        <time>2019-08-04T08:50:34.314Z</time>
      </trkpt>
      <trkpt lat="42.56669833" lon="1.59505333">
        <ele>1536.0</ele>
        <time>2019-08-04T08:50:35.299Z</time>
      </trkpt>
      <trkpt lat="42.56669833" lon="1.59505333">
        <ele>1536.0</ele>
        <time>2019-08-04T08:50:36.319Z</time>
      </trkpt>
      <trkpt lat="42.56672667" lon="1.595365">
        <ele>1535.0</ele>
        <time>2019-08-04T08:50:37.300Z</time>
      </trkpt>
      <trkpt lat="42.56672667" lon="1.595365">
        <ele>1535.0</ele>
        <time>2019-08-04T08:50:38.321Z</time>
      </trkpt>
      <trkpt lat="42.56666" lon="1.59566167">
        <ele>1534.0</ele>
        <time>2019-08-04T08:50:39.322Z</time>
      </trkpt>
      <trkpt lat="42.56666" lon="1.59566167">
        <ele>1534.0</ele>
        <time>2019-08-04T08:50:40.314Z</time>
      </trkpt>
      <trkpt lat="42.56652167" lon="1.595935">
        <ele>1532.0</ele>
        <time>2019-08-04T08:50:41.320Z</time>
      </trkpt>
      <trkpt lat="42.566455" lon="1.596075">
        <ele>1531.0</ele>
        <time>2019-08-04T08:50:42.320Z</time>
      </trkpt>
      <trkpt lat="42.566455" lon="1.596075">
        <ele>1531.0</ele>
        <time>2019-08-04T08:50:43.322Z</time>
      </trkpt>
      <trkpt lat="42.56633167" lon="1.59632667">
        <ele>1530.0</ele>
        <time>2019-08-04T08:50:44.319Z</time>
      </trkpt>
      <trkpt lat="42.56633167" lon="1.59632667">
        <ele>1530.0</ele>
        <time>2019-08-04T08:50:45.299Z</time>
      </trkpt>
      <trkpt lat="42.56624167" lon="1.59652167">
        <ele>1528.0</ele>
        <time>2019-08-04T08:50:46.320Z</time>
      </trkpt>
      <trkpt lat="42.566205" lon="1.5966">
        <ele>1528.0</ele>
        <time>2019-08-04T08:50:47.299Z</time>
      </trkpt>
      <trkpt lat="42.566205" lon="1.5966">
        <ele>1528.0</ele>
        <time>2019-08-04T08:50:48.320Z</time>
      </trkpt>
      <trkpt lat="42.56611" lon="1.59669">
        <ele>1526.0</ele>
        <time>2019-08-04T08:50:49.324Z</time>
      </trkpt>
      <trkpt lat="42.56611" lon="1.59669">
        <ele>1526.0</ele>
        <time>2019-08-04T08:50:50.313Z</time>
      </trkpt>
      <trkpt lat="42.56601167" lon="1.59665333">
        <ele>1524.0</ele>
        <time>2019-08-04T08:50:51.334Z</time>
      </trkpt>
      <trkpt lat="42.56601167" lon="1.59665333">
        <ele>1524.0</ele>
        <time>2019-08-04T08:50:52.314Z</time>
      </trkpt>
      <trkpt lat="42.56597" lon="1.59651833">
        <ele>1523.0</ele>
        <time>2019-08-04T08:50:53.334Z</time>
      </trkpt>
      <trkpt lat="42.56597833" lon="1.59644">
        <ele>1522.0</ele>
        <time>2019-08-04T08:50:54.318Z</time>
      </trkpt>
      <trkpt lat="42.56601" lon="1.59635667">
        <ele>1521.0</ele>
        <time>2019-08-04T08:50:55.321Z</time>
      </trkpt>
      <trkpt lat="42.56601" lon="1.59635667">
        <ele>1521.0</ele>
        <time>2019-08-04T08:50:56.314Z</time>
      </trkpt>
      <trkpt lat="42.56607333" lon="1.59620833">
        <ele>1520.0</ele>
        <time>2019-08-04T08:50:57.307Z</time>
      </trkpt>
      <trkpt lat="42.56607333" lon="1.59620833">
        <ele>1520.0</ele>
        <time>2019-08-04T08:50:58.327Z</time>
      </trkpt>
      <trkpt lat="42.56612167" lon="1.59604167">
        <ele>1520.0</ele>
        <time>2019-08-04T08:50:59.317Z</time>
      </trkpt>
      <trkpt lat="42.56612167" lon="1.59604167">
        <ele>1520.0</ele>
        <time>2019-08-04T08:51:00.316Z</time>
      </trkpt>
      <trkpt lat="42.56617333" lon="1.59586167">
        <ele>1520.0</ele>
        <time>2019-08-04T08:51:01.321Z</time>
      </trkpt>
      <trkpt lat="42.56617333" lon="1.59586167">
        <ele>1520.0</ele>
        <time>2019-08-04T08:51:02.324Z</time>
      </trkpt>
      <trkpt lat="42.566215" lon="1.59567333">
        <ele>1520.0</ele>
        <time>2019-08-04T08:51:03.318Z</time>
      </trkpt>
      <trkpt lat="42.566215" lon="1.59567333">
        <ele>1520.0</ele>
        <time>2019-08-04T08:51:04.314Z</time>
      </trkpt>
      <trkpt lat="42.56624833" lon="1.59547833">
        <ele>1520.0</ele>
        <time>2019-08-04T08:51:05.333Z</time>
      </trkpt>
      <trkpt lat="42.56626167" lon="1.59537833">
        <ele>1520.0</ele>
        <time>2019-08-04T08:51:06.319Z</time>
      </trkpt>
      <trkpt lat="42.56627333" lon="1.59527833">
        <ele>1520.0</ele>
        <time>2019-08-04T08:51:07.300Z</time>
      </trkpt>
      <trkpt lat="42.56627333" lon="1.59527833">
        <ele>1520.0</ele>
        <time>2019-08-04T08:51:08.320Z</time>
      </trkpt>
      <trkpt lat="42.56630167" lon="1.59507833">
        <ele>1520.0</ele>
        <time>2019-08-04T08:51:09.319Z</time>
      </trkpt>
      <trkpt lat="42.56630167" lon="1.59507833">
        <ele>1520.0</ele>
        <time>2019-08-04T08:51:10.300Z</time>
      </trkpt>
      <trkpt lat="42.56631833" lon="1.594865">
        <ele>1519.0</ele>
        <time>2019-08-04T08:51:11.320Z</time>
      </trkpt>
      <trkpt lat="42.56631833" lon="1.594865">
        <ele>1519.0</ele>
        <time>2019-08-04T08:51:12.314Z</time>
      </trkpt>
      <trkpt lat="42.56629667" lon="1.59465833">
        <ele>1519.0</ele>
        <time>2019-08-04T08:51:13.334Z</time>
      </trkpt>
      <trkpt lat="42.56626833" lon="1.59456333">
        <ele>1519.0</ele>
        <time>2019-08-04T08:51:14.319Z</time>
      </trkpt>
      <trkpt lat="42.566235" lon="1.59447">
        <ele>1519.0</ele>
        <time>2019-08-04T08:51:15.329Z</time>
      </trkpt>
      <trkpt lat="42.566235" lon="1.59447">
        <ele>1519.0</ele>
        <time>2019-08-04T08:51:16.314Z</time>
      </trkpt>
      <trkpt lat="42.56614333" lon="1.594295">
        <ele>1519.0</ele>
        <time>2019-08-04T08:51:17.305Z</time>
      </trkpt>
      <trkpt lat="42.56614333" lon="1.594295">
        <ele>1519.0</ele>
        <time>2019-08-04T08:51:18.326Z</time>
      </trkpt>
      <trkpt lat="42.56604" lon="1.59412833">
        <ele>1519.0</ele>
        <time>2019-08-04T08:51:19.323Z</time>
      </trkpt>
      <trkpt lat="42.56598667" lon="1.59404667">
        <ele>1519.0</ele>
        <time>2019-08-04T08:51:20.318Z</time>
      </trkpt>
      <trkpt lat="42.565935" lon="1.593965">
        <ele>1519.0</ele>
        <time>2019-08-04T08:51:21.334Z</time>
      </trkpt>
      <trkpt lat="42.565935" lon="1.593965">
        <ele>1519.0</ele>
        <time>2019-08-04T08:51:22.315Z</time>
      </trkpt>
      <trkpt lat="42.56582667" lon="1.593805">
        <ele>1519.0</ele>
        <time>2019-08-04T08:51:23.334Z</time>
      </trkpt>
      <trkpt lat="42.56577333" lon="1.59372167">
        <ele>1519.0</ele>
        <time>2019-08-04T08:51:24.325Z</time>
      </trkpt>
      <trkpt lat="42.56577333" lon="1.59372167">
        <ele>1519.0</ele>
        <time>2019-08-04T08:51:25.316Z</time>
      </trkpt>
      <trkpt lat="42.56566167" lon="1.59355833">
        <ele>1518.0</ele>
        <time>2019-08-04T08:51:26.319Z</time>
      </trkpt>
      <trkpt lat="42.56560333" lon="1.59347833">
        <ele>1518.0</ele>
        <time>2019-08-04T08:51:27.299Z</time>
      </trkpt>
      <trkpt lat="42.56560333" lon="1.59347833">
        <ele>1518.0</ele>
        <time>2019-08-04T08:51:28.319Z</time>
      </trkpt>
      <trkpt lat="42.565475" lon="1.59333167">
        <ele>1518.0</ele>
        <time>2019-08-04T08:51:29.318Z</time>
      </trkpt>
      <trkpt lat="42.565475" lon="1.59333167">
        <ele>1518.0</ele>
        <time>2019-08-04T08:51:30.314Z</time>
      </trkpt>
      <trkpt lat="42.565325" lon="1.59323333">
        <ele>1518.0</ele>
        <time>2019-08-04T08:51:31.300Z</time>
      </trkpt>
      <trkpt lat="42.565325" lon="1.59323333">
        <ele>1518.0</ele>
        <time>2019-08-04T08:51:32.320Z</time>
      </trkpt>
      <trkpt lat="42.56515833" lon="1.59319">
        <ele>1518.0</ele>
        <time>2019-08-04T08:51:33.307Z</time>
      </trkpt>
      <trkpt lat="42.56515833" lon="1.59319">
        <ele>1518.0</ele>
        <time>2019-08-04T08:51:34.328Z</time>
      </trkpt>
      <trkpt lat="42.56499" lon="1.59317167">
        <ele>1518.0</ele>
        <time>2019-08-04T08:51:35.319Z</time>
      </trkpt>
      <trkpt lat="42.56490833" lon="1.59316667">
        <ele>1517.0</ele>
        <time>2019-08-04T08:51:36.320Z</time>
      </trkpt>
      <trkpt lat="42.564825" lon="1.59315833">
        <ele>1517.0</ele>
        <time>2019-08-04T08:51:37.300Z</time>
      </trkpt>
      <trkpt lat="42.564825" lon="1.59315833">
        <ele>1517.0</ele>
        <time>2019-08-04T08:51:38.320Z</time>
      </trkpt>
      <trkpt lat="42.56466833" lon="1.59309833">
        <ele>1517.0</ele>
        <time>2019-08-04T08:51:39.321Z</time>
      </trkpt>
      <trkpt lat="42.56466833" lon="1.59309833">
        <ele>1517.0</ele>
        <time>2019-08-04T08:51:40.314Z</time>
      </trkpt>
      <trkpt lat="42.56452" lon="1.59295833">
        <ele>1516.0</ele>
        <time>2019-08-04T08:51:41.335Z</time>
      </trkpt>
      <trkpt lat="42.56452" lon="1.59295833">
        <ele>1516.0</ele>
        <time>2019-08-04T08:51:42.321Z</time>
      </trkpt>
      <trkpt lat="42.56438" lon="1.59279">
        <ele>1515.0</ele>
        <time>2019-08-04T08:51:43.321Z</time>
      </trkpt>
      <trkpt lat="42.56438" lon="1.59279">
        <ele>1515.0</ele>
        <time>2019-08-04T08:51:44.314Z</time>
      </trkpt>
      <trkpt lat="42.56426833" lon="1.59258">
        <ele>1515.0</ele>
        <time>2019-08-04T08:51:45.333Z</time>
      </trkpt>
      <trkpt lat="42.56426833" lon="1.59258">
        <ele>1515.0</ele>
        <time>2019-08-04T08:51:46.315Z</time>
      </trkpt>
      <trkpt lat="42.56417167" lon="1.59236333">
        <ele>1514.0</ele>
        <time>2019-08-04T08:51:47.307Z</time>
      </trkpt>
      <trkpt lat="42.56417167" lon="1.59236333">
        <ele>1514.0</ele>
        <time>2019-08-04T08:51:48.326Z</time>
      </trkpt>
      <trkpt lat="42.56410167" lon="1.59213667">
        <ele>1514.0</ele>
        <time>2019-08-04T08:51:49.321Z</time>
      </trkpt>
      <trkpt lat="42.56410167" lon="1.59213667">
        <ele>1514.0</ele>
        <time>2019-08-04T08:51:50.314Z</time>
      </trkpt>
      <trkpt lat="42.56406167" lon="1.591885">
        <ele>1513.0</ele>
        <time>2019-08-04T08:51:51.333Z</time>
      </trkpt>
      <trkpt lat="42.56406167" lon="1.591885">
        <ele>1513.0</ele>
        <time>2019-08-04T08:51:52.315Z</time>
      </trkpt>
      <trkpt lat="42.56405167" lon="1.59162">
        <ele>1513.0</ele>
        <time>2019-08-04T08:51:53.335Z</time>
      </trkpt>
      <trkpt lat="42.56405167" lon="1.59162">
        <ele>1513.0</ele>
        <time>2019-08-04T08:51:54.315Z</time>
      </trkpt>
      <trkpt lat="42.56400167" lon="1.59136333">
        <ele>1512.0</ele>
        <time>2019-08-04T08:51:55.334Z</time>
      </trkpt>
      <trkpt lat="42.56400167" lon="1.59136333">
        <ele>1512.0</ele>
        <time>2019-08-04T08:51:56.314Z</time>
      </trkpt>
      <trkpt lat="42.56389" lon="1.59113">
        <ele>1512.0</ele>
        <time>2019-08-04T08:51:57.299Z</time>
      </trkpt>
      <trkpt lat="42.56389" lon="1.59113">
        <ele>1512.0</ele>
        <time>2019-08-04T08:51:58.319Z</time>
      </trkpt>
      <trkpt lat="42.56371667" lon="1.590955">
        <ele>1511.0</ele>
        <time>2019-08-04T08:51:59.321Z</time>
      </trkpt>
      <trkpt lat="42.56371667" lon="1.590955">
        <ele>1511.0</ele>
        <time>2019-08-04T08:52:00.316Z</time>
      </trkpt>
      <trkpt lat="42.563495" lon="1.59083833">
        <ele>1510.0</ele>
        <time>2019-08-04T08:52:01.335Z</time>
      </trkpt>
      <trkpt lat="42.563495" lon="1.59083833">
        <ele>1510.0</ele>
        <time>2019-08-04T08:52:02.315Z</time>
      </trkpt>
      <trkpt lat="42.56325167" lon="1.59072333">
        <ele>1509.0</ele>
        <time>2019-08-04T08:52:03.334Z</time>
      </trkpt>
      <trkpt lat="42.56325167" lon="1.59072333">
        <ele>1509.0</ele>
        <time>2019-08-04T08:52:04.315Z</time>
      </trkpt>
      <trkpt lat="42.563" lon="1.59061167">
        <ele>1508.0</ele>
        <time>2019-08-04T08:52:05.334Z</time>
      </trkpt>
      <trkpt lat="42.56287333" lon="1.59054833">
        <ele>1507.0</ele>
        <time>2019-08-04T08:52:06.321Z</time>
      </trkpt>
      <trkpt lat="42.56274667" lon="1.59049">
        <ele>1506.0</ele>
        <time>2019-08-04T08:52:07.307Z</time>
      </trkpt>
      <trkpt lat="42.56274667" lon="1.59049">
        <ele>1506.0</ele>
        <time>2019-08-04T08:52:08.328Z</time>
      </trkpt>
      <trkpt lat="42.56246333" lon="1.590415">
        <ele>1505.0</ele>
        <time>2019-08-04T08:52:09.320Z</time>
      </trkpt>
      <trkpt lat="42.56246333" lon="1.590415">
        <ele>1505.0</ele>
        <time>2019-08-04T08:52:10.316Z</time>
      </trkpt>
      <trkpt lat="42.56216167" lon="1.59041">
        <ele>1502.0</ele>
        <time>2019-08-04T08:52:11.320Z</time>
      </trkpt>
      <trkpt lat="42.56201333" lon="1.59040667">
        <ele>1501.0</ele>
        <time>2019-08-04T08:52:12.318Z</time>
      </trkpt>
      <trkpt lat="42.56201333" lon="1.59040667">
        <ele>1501.0</ele>
        <time>2019-08-04T08:52:13.317Z</time>
      </trkpt>
      <trkpt lat="42.56171667" lon="1.59035167">
        <ele>1499.0</ele>
        <time>2019-08-04T08:52:14.331Z</time>
      </trkpt>
      <trkpt lat="42.56156167" lon="1.59031833">
        <ele>1497.0</ele>
        <time>2019-08-04T08:52:15.321Z</time>
      </trkpt>
      <trkpt lat="42.56156167" lon="1.59031833">
        <ele>1497.0</ele>
        <time>2019-08-04T08:52:16.316Z</time>
      </trkpt>
      <trkpt lat="42.561245" lon="1.59028">
        <ele>1495.0</ele>
        <time>2019-08-04T08:52:17.324Z</time>
      </trkpt>
      <trkpt lat="42.561245" lon="1.59028">
        <ele>1495.0</ele>
        <time>2019-08-04T08:52:18.315Z</time>
      </trkpt>
      <trkpt lat="42.56091333" lon="1.59021333">
        <ele>1492.0</ele>
        <time>2019-08-04T08:52:19.334Z</time>
      </trkpt>
      <trkpt lat="42.56091333" lon="1.59021333">
        <ele>1492.0</ele>
        <time>2019-08-04T08:52:20.315Z</time>
      </trkpt>
      <trkpt lat="42.56057667" lon="1.59006333">
        <ele>1490.0</ele>
        <time>2019-08-04T08:52:21.322Z</time>
      </trkpt>
      <trkpt lat="42.56057667" lon="1.59006333">
        <ele>1490.0</ele>
        <time>2019-08-04T08:52:22.335Z</time>
      </trkpt>
      <trkpt lat="42.560235" lon="1.58986833">
        <ele>1487.0</ele>
        <time>2019-08-04T08:52:23.320Z</time>
      </trkpt>
      <trkpt lat="42.560235" lon="1.58986833">
        <ele>1487.0</ele>
        <time>2019-08-04T08:52:24.315Z</time>
      </trkpt>
      <trkpt lat="42.55989333" lon="1.58964333">
        <ele>1484.0</ele>
        <time>2019-08-04T08:52:25.335Z</time>
      </trkpt>
      <trkpt lat="42.55989333" lon="1.58964333">
        <ele>1484.0</ele>
        <time>2019-08-04T08:52:26.316Z</time>
      </trkpt>
      <trkpt lat="42.55955333" lon="1.58940667">
        <ele>1480.0</ele>
        <time>2019-08-04T08:52:27.307Z</time>
      </trkpt>
      <trkpt lat="42.55955333" lon="1.58940667">
        <ele>1480.0</ele>
        <time>2019-08-04T08:52:28.334Z</time>
      </trkpt>
      <trkpt lat="42.55918" lon="1.58929833">
        <ele>1475.0</ele>
        <time>2019-08-04T08:52:29.321Z</time>
      </trkpt>
      <trkpt lat="42.55918" lon="1.58929833">
        <ele>1475.0</ele>
        <time>2019-08-04T08:52:30.315Z</time>
      </trkpt>
      <trkpt lat="42.55879667" lon="1.58925333">
        <ele>1472.0</ele>
        <time>2019-08-04T08:52:31.334Z</time>
      </trkpt>
      <trkpt lat="42.55879667" lon="1.58925333">
        <ele>1472.0</ele>
        <time>2019-08-04T08:52:32.315Z</time>
      </trkpt>
      <trkpt lat="42.558415" lon="1.58910333">
        <ele>1468.0</ele>
        <time>2019-08-04T08:52:33.333Z</time>
      </trkpt>
      <trkpt lat="42.558415" lon="1.58910333">
        <ele>1468.0</ele>
        <time>2019-08-04T08:52:34.315Z</time>
      </trkpt>
      <trkpt lat="42.55802333" lon="1.58892833">
        <ele>1465.0</ele>
        <time>2019-08-04T08:52:35.299Z</time>
      </trkpt>
      <trkpt lat="42.55782167" lon="1.58885167">
        <ele>1462.0</ele>
        <time>2019-08-04T08:52:36.321Z</time>
      </trkpt>
      <trkpt lat="42.55761667" lon="1.588795">
        <ele>1460.0</ele>
        <time>2019-08-04T08:52:37.301Z</time>
      </trkpt>
      <trkpt lat="42.55761667" lon="1.588795">
        <ele>1460.0</ele>
        <time>2019-08-04T08:52:38.322Z</time>
      </trkpt>
      <trkpt lat="42.55718667" lon="1.58875167">
        <ele>1457.0</ele>
        <time>2019-08-04T08:52:39.321Z</time>
      </trkpt>
      <trkpt lat="42.55718667" lon="1.58875167">
        <ele>1457.0</ele>
        <time>2019-08-04T08:52:40.315Z</time>
      </trkpt>
      <trkpt lat="42.55676" lon="1.58875667">
        <ele>1453.0</ele>
        <time>2019-08-04T08:52:41.335Z</time>
      </trkpt>
      <trkpt lat="42.55654333" lon="1.58876833">
        <ele>1451.0</ele>
        <time>2019-08-04T08:52:42.321Z</time>
      </trkpt>
      <trkpt lat="42.55654333" lon="1.58876833">
        <ele>1451.0</ele>
        <time>2019-08-04T08:52:43.316Z</time>
      </trkpt>
      <trkpt lat="42.55613667" lon="1.58880167">
        <ele>1447.0</ele>
        <time>2019-08-04T08:52:44.299Z</time>
      </trkpt>
      <trkpt lat="42.55595333" lon="1.58877667">
        <ele>1445.0</ele>
        <time>2019-08-04T08:52:45.322Z</time>
      </trkpt>
      <trkpt lat="42.55595333" lon="1.58877667">
        <ele>1445.0</ele>
        <time>2019-08-04T08:52:46.315Z</time>
      </trkpt>
      <trkpt lat="42.55559667" lon="1.588645">
        <ele>1441.0</ele>
        <time>2019-08-04T08:52:47.308Z</time>
      </trkpt>
      <trkpt lat="42.55559667" lon="1.588645">
        <ele>1441.0</ele>
        <time>2019-08-04T08:52:48.327Z</time>
      </trkpt>
      <trkpt lat="42.55522833" lon="1.58860167">
        <ele>1438.0</ele>
        <time>2019-08-04T08:52:49.321Z</time>
      </trkpt>
      <trkpt lat="42.55522833" lon="1.58860167">
        <ele>1438.0</ele>
        <time>2019-08-04T08:52:50.299Z</time>
      </trkpt>
      <trkpt lat="42.55485667" lon="1.588625">
        <ele>1434.0</ele>
        <time>2019-08-04T08:52:51.321Z</time>
      </trkpt>
      <trkpt lat="42.55485667" lon="1.588625">
        <ele>1434.0</ele>
        <time>2019-08-04T08:52:52.328Z</time>
      </trkpt>
      <trkpt lat="42.55448" lon="1.58861333">
        <ele>1430.0</ele>
        <time>2019-08-04T08:52:53.320Z</time>
      </trkpt>
      <trkpt lat="42.55448" lon="1.58861333">
        <ele>1430.0</ele>
        <time>2019-08-04T08:52:54.313Z</time>
      </trkpt>
      <trkpt lat="42.55411" lon="1.58863667">
        <ele>1425.0</ele>
        <time>2019-08-04T08:52:55.322Z</time>
      </trkpt>
      <trkpt lat="42.55393" lon="1.58866667">
        <ele>1424.0</ele>
        <time>2019-08-04T08:52:56.322Z</time>
      </trkpt>
      <trkpt lat="42.55375167" lon="1.58869833">
        <ele>1422.0</ele>
        <time>2019-08-04T08:52:57.307Z</time>
      </trkpt>
      <trkpt lat="42.55375167" lon="1.58869833">
        <ele>1422.0</ele>
        <time>2019-08-04T08:52:58.335Z</time>
      </trkpt>
      <trkpt lat="42.553405" lon="1.58872833">
        <ele>1419.0</ele>
        <time>2019-08-04T08:52:59.321Z</time>
      </trkpt>
      <trkpt lat="42.553405" lon="1.58872833">
        <ele>1419.0</ele>
        <time>2019-08-04T08:53:00.321Z</time>
      </trkpt>
      <trkpt lat="42.553075" lon="1.58878833">
        <ele>1416.0</ele>
        <time>2019-08-04T08:53:01.323Z</time>
      </trkpt>
      <trkpt lat="42.553075" lon="1.58878833">
        <ele>1416.0</ele>
        <time>2019-08-04T08:53:02.315Z</time>
      </trkpt>
      <trkpt lat="42.55277833" lon="1.588945">
        <ele>1414.0</ele>
        <time>2019-08-04T08:53:03.334Z</time>
      </trkpt>
      <trkpt lat="42.55277833" lon="1.588945">
        <ele>1414.0</ele>
        <time>2019-08-04T08:53:04.324Z</time>
      </trkpt>
      <trkpt lat="42.55253" lon="1.58917167">
        <ele>1412.0</ele>
        <time>2019-08-04T08:53:05.321Z</time>
      </trkpt>
      <trkpt lat="42.55242333" lon="1.58930167">
        <ele>1411.0</ele>
        <time>2019-08-04T08:53:06.322Z</time>
      </trkpt>
      <trkpt lat="42.55232833" lon="1.58943833">
        <ele>1410.0</ele>
        <time>2019-08-04T08:53:07.308Z</time>
      </trkpt>
      <trkpt lat="42.55232833" lon="1.58943833">
        <ele>1410.0</ele>
        <time>2019-08-04T08:53:08.329Z</time>
      </trkpt>
      <trkpt lat="42.552145" lon="1.589715">
        <ele>1409.0</ele>
        <time>2019-08-04T08:53:09.319Z</time>
      </trkpt>
      <trkpt lat="42.552145" lon="1.589715">
        <ele>1409.0</ele>
        <time>2019-08-04T08:53:10.315Z</time>
      </trkpt>
      <trkpt lat="42.551965" lon="1.589975">
        <ele>1407.0</ele>
        <time>2019-08-04T08:53:11.335Z</time>
      </trkpt>
      <trkpt lat="42.551965" lon="1.589975">
        <ele>1407.0</ele>
        <time>2019-08-04T08:53:12.316Z</time>
      </trkpt>
      <trkpt lat="42.551785" lon="1.59021333">
        <ele>1406.0</ele>
        <time>2019-08-04T08:53:13.301Z</time>
      </trkpt>
      <trkpt lat="42.551785" lon="1.59021333">
        <ele>1406.0</ele>
        <time>2019-08-04T08:53:14.324Z</time>
      </trkpt>
      <trkpt lat="42.55159833" lon="1.59041">
        <ele>1405.0</ele>
        <time>2019-08-04T08:53:15.321Z</time>
      </trkpt>
      <trkpt lat="42.55150333" lon="1.59049333">
        <ele>1404.0</ele>
        <time>2019-08-04T08:53:16.335Z</time>
      </trkpt>
      <trkpt lat="42.55140833" lon="1.59057">
        <ele>1404.0</ele>
        <time>2019-08-04T08:53:17.300Z</time>
      </trkpt>
      <trkpt lat="42.55140833" lon="1.59057">
        <ele>1404.0</ele>
        <time>2019-08-04T08:53:18.320Z</time>
      </trkpt>
      <trkpt lat="42.55122167" lon="1.59069667">
        <ele>1403.0</ele>
        <time>2019-08-04T08:53:19.322Z</time>
      </trkpt>
      <trkpt lat="42.55122167" lon="1.59069667">
        <ele>1403.0</ele>
        <time>2019-08-04T08:53:20.315Z</time>
      </trkpt>
      <trkpt lat="42.551025" lon="1.59076">
        <ele>1402.0</ele>
        <time>2019-08-04T08:53:21.334Z</time>
      </trkpt>
      <trkpt lat="42.551025" lon="1.59076">
        <ele>1402.0</ele>
        <time>2019-08-04T08:53:22.316Z</time>
      </trkpt>
      <trkpt lat="42.55082" lon="1.590815">
        <ele>1401.0</ele>
        <time>2019-08-04T08:53:23.321Z</time>
      </trkpt>
      <trkpt lat="42.55082" lon="1.590815">
        <ele>1401.0</ele>
        <time>2019-08-04T08:53:24.315Z</time>
      </trkpt>
      <trkpt lat="42.55064667" lon="1.59097167">
        <ele>1401.0</ele>
        <time>2019-08-04T08:53:25.335Z</time>
      </trkpt>
      <trkpt lat="42.55064667" lon="1.59097167">
        <ele>1401.0</ele>
        <time>2019-08-04T08:53:26.315Z</time>
      </trkpt>
      <trkpt lat="42.55046833" lon="1.59106667">
        <ele>1400.0</ele>
        <time>2019-08-04T08:53:27.300Z</time>
      </trkpt>
      <trkpt lat="42.55046833" lon="1.59106667">
        <ele>1400.0</ele>
        <time>2019-08-04T08:53:28.320Z</time>
      </trkpt>
      <trkpt lat="42.55029" lon="1.59114">
        <ele>1400.0</ele>
        <time>2019-08-04T08:53:29.321Z</time>
      </trkpt>
      <trkpt lat="42.55029" lon="1.59114">
        <ele>1400.0</ele>
        <time>2019-08-04T08:53:30.314Z</time>
      </trkpt>
      <trkpt lat="42.55010833" lon="1.59120333">
        <ele>1399.0</ele>
        <time>2019-08-04T08:53:31.334Z</time>
      </trkpt>
      <trkpt lat="42.55010833" lon="1.59120333">
        <ele>1399.0</ele>
        <time>2019-08-04T08:53:32.315Z</time>
      </trkpt>
      <trkpt lat="42.54992833" lon="1.59127667">
        <ele>1398.0</ele>
        <time>2019-08-04T08:53:33.335Z</time>
      </trkpt>
      <trkpt lat="42.54992833" lon="1.59127667">
        <ele>1398.0</ele>
        <time>2019-08-04T08:53:34.316Z</time>
      </trkpt>
      <trkpt lat="42.54974667" lon="1.59134167">
        <ele>1397.0</ele>
        <time>2019-08-04T08:53:35.335Z</time>
      </trkpt>
      <trkpt lat="42.549655" lon="1.591375">
        <ele>1397.0</ele>
        <time>2019-08-04T08:53:36.321Z</time>
      </trkpt>
      <trkpt lat="42.549565" lon="1.59140833">
        <ele>1397.0</ele>
        <time>2019-08-04T08:53:37.301Z</time>
      </trkpt>
      <trkpt lat="42.549565" lon="1.59140833">
        <ele>1397.0</ele>
        <time>2019-08-04T08:53:38.321Z</time>
      </trkpt>
      <trkpt lat="42.54938167" lon="1.59147167">
        <ele>1396.0</ele>
        <time>2019-08-04T08:53:39.322Z</time>
      </trkpt>
      <trkpt lat="42.54938167" lon="1.59147167">
        <ele>1396.0</ele>
        <time>2019-08-04T08:53:40.316Z</time>
      </trkpt>
      <trkpt lat="42.54919" lon="1.59153167">
        <ele>1395.0</ele>
        <time>2019-08-04T08:53:41.320Z</time>
      </trkpt>
      <trkpt lat="42.54919" lon="1.59153167">
        <ele>1395.0</ele>
        <time>2019-08-04T08:53:42.313Z</time>
      </trkpt>
      <trkpt lat="42.54899833" lon="1.591585">
        <ele>1395.0</ele>
        <time>2019-08-04T08:53:43.332Z</time>
      </trkpt>
      <trkpt lat="42.54899833" lon="1.591585">
        <ele>1395.0</ele>
        <time>2019-08-04T08:53:44.315Z</time>
      </trkpt>
      <trkpt lat="42.54880333" lon="1.59164667">
        <ele>1394.0</ele>
        <time>2019-08-04T08:53:45.331Z</time>
      </trkpt>
      <trkpt lat="42.54880333" lon="1.59164667">
        <ele>1394.0</ele>
        <time>2019-08-04T08:53:46.315Z</time>
      </trkpt>
      <trkpt lat="42.548605" lon="1.591695">
        <ele>1393.0</ele>
        <time>2019-08-04T08:53:47.299Z</time>
      </trkpt>
      <trkpt lat="42.548605" lon="1.591695">
        <ele>1393.0</ele>
        <time>2019-08-04T08:53:48.319Z</time>
      </trkpt>
      <trkpt lat="42.54840167" lon="1.59173833">
        <ele>1392.0</ele>
        <time>2019-08-04T08:53:49.324Z</time>
      </trkpt>
      <trkpt lat="42.54840167" lon="1.59173833">
        <ele>1392.0</ele>
        <time>2019-08-04T08:53:50.315Z</time>
      </trkpt>
      <trkpt lat="42.54819" lon="1.59178167">
        <ele>1391.0</ele>
        <time>2019-08-04T08:53:51.334Z</time>
      </trkpt>
      <trkpt lat="42.54819" lon="1.59178167">
        <ele>1391.0</ele>
        <time>2019-08-04T08:53:52.324Z</time>
      </trkpt>
      <trkpt lat="42.547975" lon="1.591825">
        <ele>1390.0</ele>
        <time>2019-08-04T08:53:53.320Z</time>
      </trkpt>
      <trkpt lat="42.547975" lon="1.591825">
        <ele>1390.0</ele>
        <time>2019-08-04T08:53:54.315Z</time>
      </trkpt>
      <trkpt lat="42.54775667" lon="1.59185667">
        <ele>1389.0</ele>
        <time>2019-08-04T08:53:55.331Z</time>
      </trkpt>
      <trkpt lat="42.54775667" lon="1.59185667">
        <ele>1389.0</ele>
        <time>2019-08-04T08:53:56.315Z</time>
      </trkpt>
      <trkpt lat="42.54754167" lon="1.591865">
        <ele>1388.0</ele>
        <time>2019-08-04T08:53:57.308Z</time>
      </trkpt>
      <trkpt lat="42.54754167" lon="1.591865">
        <ele>1388.0</ele>
        <time>2019-08-04T08:53:58.335Z</time>
      </trkpt>
      <trkpt lat="42.54732833" lon="1.591855">
        <ele>1387.0</ele>
        <time>2019-08-04T08:53:59.320Z</time>
      </trkpt>
      <trkpt lat="42.547225" lon="1.59184">
        <ele>1387.0</ele>
        <time>2019-08-04T08:54:00.305Z</time>
      </trkpt>
      <trkpt lat="42.547225" lon="1.59184">
        <ele>1387.0</ele>
        <time>2019-08-04T08:54:01.324Z</time>
      </trkpt>
      <trkpt lat="42.547015" lon="1.59178833">
        <ele>1386.0</ele>
        <time>2019-08-04T08:54:02.320Z</time>
      </trkpt>
      <trkpt lat="42.547015" lon="1.59178833">
        <ele>1386.0</ele>
        <time>2019-08-04T08:54:03.319Z</time>
      </trkpt>
      <trkpt lat="42.546815" lon="1.59172167">
        <ele>1385.0</ele>
        <time>2019-08-04T08:54:04.321Z</time>
      </trkpt>
      <trkpt lat="42.546815" lon="1.59172167">
        <ele>1385.0</ele>
        <time>2019-08-04T08:54:05.316Z</time>
      </trkpt>
      <trkpt lat="42.54661667" lon="1.59164333">
        <ele>1384.0</ele>
        <time>2019-08-04T08:54:06.296Z</time>
      </trkpt>
      <trkpt lat="42.54652" lon="1.59160167">
        <ele>1384.0</ele>
        <time>2019-08-04T08:54:07.308Z</time>
      </trkpt>
      <trkpt lat="42.54652" lon="1.59160167">
        <ele>1384.0</ele>
        <time>2019-08-04T08:54:08.327Z</time>
      </trkpt>
      <trkpt lat="42.54632167" lon="1.59152167">
        <ele>1383.0</ele>
        <time>2019-08-04T08:54:09.321Z</time>
      </trkpt>
      <trkpt lat="42.54632167" lon="1.59152167">
        <ele>1383.0</ele>
        <time>2019-08-04T08:54:10.315Z</time>
      </trkpt>
      <trkpt lat="42.546125" lon="1.59146333">
        <ele>1382.0</ele>
        <time>2019-08-04T08:54:11.335Z</time>
      </trkpt>
      <trkpt lat="42.546125" lon="1.59146333">
        <ele>1382.0</ele>
        <time>2019-08-04T08:54:12.316Z</time>
      </trkpt>
      <trkpt lat="42.54593" lon="1.59144333">
        <ele>1381.0</ele>
        <time>2019-08-04T08:54:13.335Z</time>
      </trkpt>
      <trkpt lat="42.54593" lon="1.59144333">
        <ele>1381.0</ele>
        <time>2019-08-04T08:54:14.316Z</time>
      </trkpt>
      <trkpt lat="42.54572667" lon="1.591455">
        <ele>1380.0</ele>
        <time>2019-08-04T08:54:15.335Z</time>
      </trkpt>
      <trkpt lat="42.54562667" lon="1.59147">
        <ele>1379.0</ele>
        <time>2019-08-04T08:54:16.321Z</time>
      </trkpt>
      <trkpt lat="42.54552833" lon="1.59149333">
        <ele>1378.0</ele>
        <time>2019-08-04T08:54:17.302Z</time>
      </trkpt>
      <trkpt lat="42.54552833" lon="1.59149333">
        <ele>1378.0</ele>
        <time>2019-08-04T08:54:18.323Z</time>
      </trkpt>
      <trkpt lat="42.54533333" lon="1.59155">
        <ele>1377.0</ele>
        <time>2019-08-04T08:54:19.323Z</time>
      </trkpt>
      <trkpt lat="42.54533333" lon="1.59155">
        <ele>1377.0</ele>
        <time>2019-08-04T08:54:20.315Z</time>
      </trkpt>
      <trkpt lat="42.54514833" lon="1.591635">
        <ele>1376.0</ele>
        <time>2019-08-04T08:54:21.334Z</time>
      </trkpt>
      <trkpt lat="42.54514833" lon="1.591635">
        <ele>1376.0</ele>
        <time>2019-08-04T08:54:22.317Z</time>
      </trkpt>
      <trkpt lat="42.54496667" lon="1.59172667">
        <ele>1375.0</ele>
        <time>2019-08-04T08:54:23.321Z</time>
      </trkpt>
      <trkpt lat="42.54496667" lon="1.59172667">
        <ele>1375.0</ele>
        <time>2019-08-04T08:54:24.315Z</time>
      </trkpt>
      <trkpt lat="42.54478333" lon="1.59180833">
        <ele>1374.0</ele>
        <time>2019-08-04T08:54:25.335Z</time>
      </trkpt>
      <trkpt lat="42.54469167" lon="1.59184833">
        <ele>1374.0</ele>
        <time>2019-08-04T08:54:26.321Z</time>
      </trkpt>
      <trkpt lat="42.54460167" lon="1.591885">
        <ele>1374.0</ele>
        <time>2019-08-04T08:54:27.332Z</time>
      </trkpt>
      <trkpt lat="42.54460167" lon="1.591885">
        <ele>1374.0</ele>
        <time>2019-08-04T08:54:28.316Z</time>
      </trkpt>
      <trkpt lat="42.544415" lon="1.59194167">
        <ele>1373.0</ele>
        <time>2019-08-04T08:54:29.331Z</time>
      </trkpt>
      <trkpt lat="42.544415" lon="1.59194167">
        <ele>1373.0</ele>
        <time>2019-08-04T08:54:30.315Z</time>
      </trkpt>
      <trkpt lat="42.54422833" lon="1.59195667">
        <ele>1372.0</ele>
        <time>2019-08-04T08:54:31.296Z</time>
      </trkpt>
      <trkpt lat="42.54422833" lon="1.59195667">
        <ele>1372.0</ele>
        <time>2019-08-04T08:54:32.317Z</time>
      </trkpt>
      <trkpt lat="42.54403833" lon="1.59193333">
        <ele>1371.0</ele>
        <time>2019-08-04T08:54:33.336Z</time>
      </trkpt>
      <trkpt lat="42.54403833" lon="1.59193333">
        <ele>1371.0</ele>
        <time>2019-08-04T08:54:34.317Z</time>
      </trkpt>
      <trkpt lat="42.543855" lon="1.59187667">
        <ele>1370.0</ele>
        <time>2019-08-04T08:54:35.300Z</time>
      </trkpt>
      <trkpt lat="42.543855" lon="1.59187667">
        <ele>1370.0</ele>
        <time>2019-08-04T08:54:36.333Z</time>
      </trkpt>
      <trkpt lat="42.54366667" lon="1.59180167">
        <ele>1369.0</ele>
        <time>2019-08-04T08:54:37.308Z</time>
      </trkpt>
      <trkpt lat="42.54366667" lon="1.59180167">
        <ele>1369.0</ele>
        <time>2019-08-04T08:54:38.328Z</time>
      </trkpt>
      <trkpt lat="42.543465" lon="1.59172833">
        <ele>1368.0</ele>
        <time>2019-08-04T08:54:39.322Z</time>
      </trkpt>
      <trkpt lat="42.543465" lon="1.59172833">
        <ele>1368.0</ele>
        <time>2019-08-04T08:54:40.316Z</time>
      </trkpt>
      <trkpt lat="42.54324333" lon="1.59167833">
        <ele>1367.0</ele>
        <time>2019-08-04T08:54:41.321Z</time>
      </trkpt>
      <trkpt lat="42.54324333" lon="1.59167833">
        <ele>1367.0</ele>
        <time>2019-08-04T08:54:42.316Z</time>
      </trkpt>
      <trkpt lat="42.54300167" lon="1.59166">
        <ele>1366.0</ele>
        <time>2019-08-04T08:54:43.336Z</time>
      </trkpt>
      <trkpt lat="42.54300167" lon="1.59166">
        <ele>1366.0</ele>
        <time>2019-08-04T08:54:44.318Z</time>
      </trkpt>
      <trkpt lat="42.54274833" lon="1.59165667">
        <ele>1365.0</ele>
        <time>2019-08-04T08:54:45.300Z</time>
      </trkpt>
      <trkpt lat="42.54262167" lon="1.59166833">
        <ele>1365.0</ele>
        <time>2019-08-04T08:54:46.322Z</time>
      </trkpt>
      <trkpt lat="42.542495" lon="1.59168167">
        <ele>1364.0</ele>
        <time>2019-08-04T08:54:47.308Z</time>
      </trkpt>
      <trkpt lat="42.542495" lon="1.59168167">
        <ele>1364.0</ele>
        <time>2019-08-04T08:54:48.328Z</time>
      </trkpt>
      <trkpt lat="42.54223667" lon="1.59171333">
        <ele>1363.0</ele>
        <time>2019-08-04T08:54:49.323Z</time>
      </trkpt>
      <trkpt lat="42.54223667" lon="1.59171333">
        <ele>1363.0</ele>
        <time>2019-08-04T08:54:50.316Z</time>
      </trkpt>
      <trkpt lat="42.541975" lon="1.59176333">
        <ele>1362.0</ele>
        <time>2019-08-04T08:54:51.336Z</time>
      </trkpt>
      <trkpt lat="42.541975" lon="1.59176333">
        <ele>1362.0</ele>
        <time>2019-08-04T08:54:52.316Z</time>
      </trkpt>
      <trkpt lat="42.54173" lon="1.59187167">
        <ele>1361.0</ele>
        <time>2019-08-04T08:54:53.335Z</time>
      </trkpt>
      <trkpt lat="42.54173" lon="1.59187167">
        <ele>1361.0</ele>
        <time>2019-08-04T08:54:54.318Z</time>
      </trkpt>
      <trkpt lat="42.541505" lon="1.59206167">
        <ele>1360.0</ele>
        <time>2019-08-04T08:54:55.302Z</time>
      </trkpt>
      <trkpt lat="42.54140333" lon="1.59216333">
        <ele>1360.0</ele>
        <time>2019-08-04T08:54:56.322Z</time>
      </trkpt>
      <trkpt lat="42.54129833" lon="1.59225167">
        <ele>1359.0</ele>
        <time>2019-08-04T08:54:57.302Z</time>
      </trkpt>
      <trkpt lat="42.54129833" lon="1.59225167">
        <ele>1359.0</ele>
        <time>2019-08-04T08:54:58.321Z</time>
      </trkpt>
      <trkpt lat="42.54106167" lon="1.59237833">
        <ele>1358.0</ele>
        <time>2019-08-04T08:54:59.319Z</time>
      </trkpt>
      <trkpt lat="42.54106167" lon="1.59237833">
        <ele>1358.0</ele>
        <time>2019-08-04T08:55:00.318Z</time>
      </trkpt>
      <trkpt lat="42.54079833" lon="1.59236667">
        <ele>1357.0</ele>
        <time>2019-08-04T08:55:01.301Z</time>
      </trkpt>
      <trkpt lat="42.54079833" lon="1.59236667">
        <ele>1357.0</ele>
        <time>2019-08-04T08:55:02.322Z</time>
      </trkpt>
      <trkpt lat="42.54053833" lon="1.592205">
        <ele>1356.0</ele>
        <time>2019-08-04T08:55:03.322Z</time>
      </trkpt>
      <trkpt lat="42.54053833" lon="1.592205">
        <ele>1356.0</ele>
        <time>2019-08-04T08:55:04.316Z</time>
      </trkpt>
      <trkpt lat="42.54029" lon="1.59200833">
        <ele>1355.0</ele>
        <time>2019-08-04T08:55:05.302Z</time>
      </trkpt>
      <trkpt lat="42.54015667" lon="1.59193167">
        <ele>1354.0</ele>
        <time>2019-08-04T08:55:06.322Z</time>
      </trkpt>
      <trkpt lat="42.540015" lon="1.59188">
        <ele>1353.0</ele>
        <time>2019-08-04T08:55:07.302Z</time>
      </trkpt>
      <trkpt lat="42.540015" lon="1.59188">
        <ele>1353.0</ele>
        <time>2019-08-04T08:55:08.317Z</time>
      </trkpt>
      <trkpt lat="42.53971167" lon="1.59182667">
        <ele>1352.0</ele>
        <time>2019-08-04T08:55:09.296Z</time>
      </trkpt>
      <trkpt lat="42.53971167" lon="1.59182667">
        <ele>1352.0</ele>
        <time>2019-08-04T08:55:10.321Z</time>
      </trkpt>
      <trkpt lat="42.53938833" lon="1.59180333">
        <ele>1350.0</ele>
        <time>2019-08-04T08:55:11.322Z</time>
      </trkpt>
      <trkpt lat="42.53938833" lon="1.59180333">
        <ele>1350.0</ele>
        <time>2019-08-04T08:55:12.316Z</time>
      </trkpt>
      <trkpt lat="42.539055" lon="1.59178167">
        <ele>1348.0</ele>
        <time>2019-08-04T08:55:13.331Z</time>
      </trkpt>
      <trkpt lat="42.538885" lon="1.59176833">
        <ele>1347.0</ele>
        <time>2019-08-04T08:55:14.323Z</time>
      </trkpt>
      <trkpt lat="42.538885" lon="1.59176833">
        <ele>1347.0</ele>
        <time>2019-08-04T08:55:15.325Z</time>
      </trkpt>
      <trkpt lat="42.53855" lon="1.59173">
        <ele>1346.0</ele>
        <time>2019-08-04T08:55:16.322Z</time>
      </trkpt>
      <trkpt lat="42.53838667" lon="1.591675">
        <ele>1345.0</ele>
        <time>2019-08-04T08:55:17.303Z</time>
      </trkpt>
      <trkpt lat="42.53838667" lon="1.591675">
        <ele>1345.0</ele>
        <time>2019-08-04T08:55:18.324Z</time>
      </trkpt>
      <trkpt lat="42.53809167" lon="1.59145667">
        <ele>1343.0</ele>
        <time>2019-08-04T08:55:19.323Z</time>
      </trkpt>
      <trkpt lat="42.53809167" lon="1.59145667">
        <ele>1343.0</ele>
        <time>2019-08-04T08:55:20.316Z</time>
      </trkpt>
      <trkpt lat="42.53785" lon="1.59112667">
        <ele>1341.0</ele>
        <time>2019-08-04T08:55:21.335Z</time>
      </trkpt>
      <trkpt lat="42.53785" lon="1.59112667">
        <ele>1341.0</ele>
        <time>2019-08-04T08:55:22.316Z</time>
      </trkpt>
      <trkpt lat="42.53766333" lon="1.590725">
        <ele>1339.0</ele>
        <time>2019-08-04T08:55:23.336Z</time>
      </trkpt>
      <trkpt lat="42.53766333" lon="1.590725">
        <ele>1339.0</ele>
        <time>2019-08-04T08:55:24.316Z</time>
      </trkpt>
      <trkpt lat="42.53747667" lon="1.59031833">
        <ele>1337.0</ele>
        <time>2019-08-04T08:55:25.300Z</time>
      </trkpt>
      <trkpt lat="42.53747667" lon="1.59031833">
        <ele>1337.0</ele>
        <time>2019-08-04T08:55:26.320Z</time>
      </trkpt>
      <trkpt lat="42.53728667" lon="1.58990167">
        <ele>1335.0</ele>
        <time>2019-08-04T08:55:27.307Z</time>
      </trkpt>
      <trkpt lat="42.53728667" lon="1.58990167">
        <ele>1335.0</ele>
        <time>2019-08-04T08:55:28.327Z</time>
      </trkpt>
      <trkpt lat="42.537095" lon="1.58949167">
        <ele>1333.0</ele>
        <time>2019-08-04T08:55:29.332Z</time>
      </trkpt>
      <trkpt lat="42.537095" lon="1.58949167">
        <ele>1333.0</ele>
        <time>2019-08-04T08:55:30.315Z</time>
      </trkpt>
      <trkpt lat="42.53685833" lon="1.589145">
        <ele>1331.0</ele>
        <time>2019-08-04T08:55:31.333Z</time>
      </trkpt>
      <trkpt lat="42.53685833" lon="1.589145">
        <ele>1331.0</ele>
        <time>2019-08-04T08:55:32.315Z</time>
      </trkpt>
      <trkpt lat="42.53655833" lon="1.58894">
        <ele>1330.0</ele>
        <time>2019-08-04T08:55:33.335Z</time>
      </trkpt>
      <trkpt lat="42.53655833" lon="1.58894">
        <ele>1330.0</ele>
        <time>2019-08-04T08:55:34.315Z</time>
      </trkpt>
      <trkpt lat="42.536275" lon="1.588805">
        <ele>1328.0</ele>
        <time>2019-08-04T08:55:35.334Z</time>
      </trkpt>
      <trkpt lat="42.53614167" lon="1.58874167">
        <ele>1327.0</ele>
        <time>2019-08-04T08:55:36.319Z</time>
      </trkpt>
      <trkpt lat="42.536015" lon="1.58868">
        <ele>1326.0</ele>
        <time>2019-08-04T08:55:37.302Z</time>
      </trkpt>
      <trkpt lat="42.536015" lon="1.58868">
        <ele>1326.0</ele>
        <time>2019-08-04T08:55:38.323Z</time>
      </trkpt>
      <trkpt lat="42.53579333" lon="1.58855667">
        <ele>1325.0</ele>
        <time>2019-08-04T08:55:39.323Z</time>
      </trkpt>
      <trkpt lat="42.53579333" lon="1.58855667">
        <ele>1325.0</ele>
        <time>2019-08-04T08:55:40.319Z</time>
      </trkpt>
      <trkpt lat="42.535605" lon="1.58842333">
        <ele>1324.0</ele>
        <time>2019-08-04T08:55:41.321Z</time>
      </trkpt>
      <trkpt lat="42.53552833" lon="1.58836167">
        <ele>1324.0</ele>
        <time>2019-08-04T08:55:42.319Z</time>
      </trkpt>
      <trkpt lat="42.53545833" lon="1.58830333">
        <ele>1323.0</ele>
        <time>2019-08-04T08:55:43.322Z</time>
      </trkpt>
      <trkpt lat="42.53545833" lon="1.58830333">
        <ele>1323.0</ele>
        <time>2019-08-04T08:55:44.312Z</time>
      </trkpt>
      <trkpt lat="42.535355" lon="1.58817667">
        <ele>1322.0</ele>
        <time>2019-08-04T08:55:45.332Z</time>
      </trkpt>
      <trkpt lat="42.535355" lon="1.58817667">
        <ele>1322.0</ele>
        <time>2019-08-04T08:55:46.316Z</time>
      </trkpt>
      <trkpt lat="42.53528333" lon="1.588055">
        <ele>1321.0</ele>
        <time>2019-08-04T08:55:47.300Z</time>
      </trkpt>
      <trkpt lat="42.53528333" lon="1.588055">
        <ele>1321.0</ele>
        <time>2019-08-04T08:55:48.320Z</time>
      </trkpt>
      <trkpt lat="42.53519833" lon="1.58796833">
        <ele>1320.0</ele>
        <time>2019-08-04T08:55:49.325Z</time>
      </trkpt>
      <trkpt lat="42.53519833" lon="1.58796833">
        <ele>1320.0</ele>
        <time>2019-08-04T08:55:50.316Z</time>
      </trkpt>
      <trkpt lat="42.53510667" lon="1.58789167">
        <ele>1319.0</ele>
        <time>2019-08-04T08:55:51.296Z</time>
      </trkpt>
      <trkpt lat="42.53510667" lon="1.58789167">
        <ele>1319.0</ele>
        <time>2019-08-04T08:55:52.335Z</time>
      </trkpt>
      <trkpt lat="42.535025" lon="1.58779667">
        <ele>1317.0</ele>
        <time>2019-08-04T08:55:53.323Z</time>
      </trkpt>
      <trkpt lat="42.535025" lon="1.58779667">
        <ele>1317.0</ele>
        <time>2019-08-04T08:55:54.316Z</time>
      </trkpt>
      <trkpt lat="42.534945" lon="1.5877">
        <ele>1316.0</ele>
        <time>2019-08-04T08:55:55.296Z</time>
      </trkpt>
      <trkpt lat="42.534945" lon="1.5877">
        <ele>1316.0</ele>
        <time>2019-08-04T08:55:56.324Z</time>
      </trkpt>
      <trkpt lat="42.53484667" lon="1.58754833">
        <ele>1315.0</ele>
        <time>2019-08-04T08:55:57.301Z</time>
      </trkpt>
      <trkpt lat="42.53484667" lon="1.58754833">
        <ele>1315.0</ele>
        <time>2019-08-04T08:55:58.321Z</time>
      </trkpt>
      <trkpt lat="42.53473" lon="1.58736667">
        <ele>1314.0</ele>
        <time>2019-08-04T08:55:59.321Z</time>
      </trkpt>
      <trkpt lat="42.53473" lon="1.58736667">
        <ele>1314.0</ele>
        <time>2019-08-04T08:56:00.314Z</time>
      </trkpt>
      <trkpt lat="42.53461167" lon="1.58716333">
        <ele>1312.0</ele>
        <time>2019-08-04T08:56:01.334Z</time>
      </trkpt>
      <trkpt lat="42.53461167" lon="1.58716333">
        <ele>1312.0</ele>
        <time>2019-08-04T08:56:02.317Z</time>
      </trkpt>
      <trkpt lat="42.534495" lon="1.586925">
        <ele>1311.0</ele>
        <time>2019-08-04T08:56:03.301Z</time>
      </trkpt>
      <trkpt lat="42.534495" lon="1.586925">
        <ele>1311.0</ele>
        <time>2019-08-04T08:56:04.321Z</time>
      </trkpt>
      <trkpt lat="42.534375" lon="1.58666">
        <ele>1310.0</ele>
        <time>2019-08-04T08:56:05.301Z</time>
      </trkpt>
      <trkpt lat="42.534375" lon="1.58666">
        <ele>1310.0</ele>
        <time>2019-08-04T08:56:06.322Z</time>
      </trkpt>
      <trkpt lat="42.53423833" lon="1.58637333">
        <ele>1309.0</ele>
        <time>2019-08-04T08:56:07.309Z</time>
      </trkpt>
      <trkpt lat="42.53423833" lon="1.58637333">
        <ele>1309.0</ele>
        <time>2019-08-04T08:56:08.330Z</time>
      </trkpt>
      <trkpt lat="42.53410333" lon="1.58611833">
        <ele>1308.0</ele>
        <time>2019-08-04T08:56:09.323Z</time>
      </trkpt>
      <trkpt lat="42.53410333" lon="1.58611833">
        <ele>1308.0</ele>
        <time>2019-08-04T08:56:10.317Z</time>
      </trkpt>
      <trkpt lat="42.53395833" lon="1.585925">
        <ele>1307.0</ele>
        <time>2019-08-04T08:56:11.296Z</time>
      </trkpt>
      <trkpt lat="42.53395833" lon="1.585925">
        <ele>1307.0</ele>
        <time>2019-08-04T08:56:12.317Z</time>
      </trkpt>
      <trkpt lat="42.53382667" lon="1.58577667">
        <ele>1306.0</ele>
        <time>2019-08-04T08:56:13.308Z</time>
      </trkpt>
      <trkpt lat="42.53382667" lon="1.58577667">
        <ele>1306.0</ele>
        <time>2019-08-04T08:56:14.327Z</time>
      </trkpt>
      <trkpt lat="42.53371667" lon="1.58565167">
        <ele>1305.0</ele>
        <time>2019-08-04T08:56:15.322Z</time>
      </trkpt>
      <trkpt lat="42.53371667" lon="1.58565167">
        <ele>1305.0</ele>
        <time>2019-08-04T08:56:16.315Z</time>
      </trkpt>
      <trkpt lat="42.53362667" lon="1.58553667">
        <ele>1304.0</ele>
        <time>2019-08-04T08:56:17.308Z</time>
      </trkpt>
      <trkpt lat="42.53362667" lon="1.58553667">
        <ele>1304.0</ele>
        <time>2019-08-04T08:56:18.328Z</time>
      </trkpt>
      <trkpt lat="42.533555" lon="1.58543167">
        <ele>1303.0</ele>
        <time>2019-08-04T08:56:19.326Z</time>
      </trkpt>
      <trkpt lat="42.533555" lon="1.58543167">
        <ele>1303.0</ele>
        <time>2019-08-04T08:56:20.316Z</time>
      </trkpt>
      <trkpt lat="42.53350833" lon="1.58533833">
        <ele>1302.0</ele>
        <time>2019-08-04T08:56:21.335Z</time>
      </trkpt>
      <trkpt lat="42.53349833" lon="1.58529333">
        <ele>1302.0</ele>
        <time>2019-08-04T08:56:22.323Z</time>
      </trkpt>
      <trkpt lat="42.53349833" lon="1.58529333">
        <ele>1302.0</ele>
        <time>2019-08-04T08:56:23.316Z</time>
      </trkpt>
      <trkpt lat="42.533485" lon="1.58521833">
        <ele>1300.0</ele>
        <time>2019-08-04T08:56:24.301Z</time>
      </trkpt>
      <trkpt lat="42.533485" lon="1.58517833">
        <ele>1300.0</ele>
        <time>2019-08-04T08:56:25.323Z</time>
      </trkpt>
      <trkpt lat="42.533485" lon="1.58517833">
        <ele>1300.0</ele>
        <time>2019-08-04T08:56:26.317Z</time>
      </trkpt>
      <trkpt lat="42.53347" lon="1.58506667">
        <ele>1299.0</ele>
        <time>2019-08-04T08:56:27.310Z</time>
      </trkpt>
      <trkpt lat="42.53347" lon="1.58506667">
        <ele>1299.0</ele>
        <time>2019-08-04T08:56:28.329Z</time>
      </trkpt>
      <trkpt lat="42.533425" lon="1.584965">
        <ele>1298.0</ele>
        <time>2019-08-04T08:56:29.335Z</time>
      </trkpt>
      <trkpt lat="42.533425" lon="1.584965">
        <ele>1298.0</ele>
        <time>2019-08-04T08:56:30.316Z</time>
      </trkpt>
      <trkpt lat="42.53331667" lon="1.58489667">
        <ele>1298.0</ele>
        <time>2019-08-04T08:56:31.335Z</time>
      </trkpt>
      <trkpt lat="42.53331667" lon="1.58489667">
        <ele>1298.0</ele>
        <time>2019-08-04T08:56:32.320Z</time>
      </trkpt>
      <trkpt lat="42.53319167" lon="1.58479167">
        <ele>1297.0</ele>
        <time>2019-08-04T08:56:33.323Z</time>
      </trkpt>
      <trkpt lat="42.53319167" lon="1.58479167">
        <ele>1297.0</ele>
        <time>2019-08-04T08:56:34.325Z</time>
      </trkpt>
      <trkpt lat="42.53305" lon="1.58465">
        <ele>1296.0</ele>
        <time>2019-08-04T08:56:35.326Z</time>
      </trkpt>
      <trkpt lat="42.53305" lon="1.58465">
        <ele>1296.0</ele>
        <time>2019-08-04T08:56:36.300Z</time>
      </trkpt>
      <trkpt lat="42.53289167" lon="1.58448333">
        <ele>1295.0</ele>
        <time>2019-08-04T08:56:37.301Z</time>
      </trkpt>
      <trkpt lat="42.53289167" lon="1.58448333">
        <ele>1295.0</ele>
        <time>2019-08-04T08:56:38.322Z</time>
      </trkpt>
      <trkpt lat="42.53271833" lon="1.58430833">
        <ele>1294.0</ele>
        <time>2019-08-04T08:56:39.323Z</time>
      </trkpt>
      <trkpt lat="42.53271833" lon="1.58430833">
        <ele>1294.0</ele>
        <time>2019-08-04T08:56:40.317Z</time>
      </trkpt>
      <trkpt lat="42.53253167" lon="1.58412167">
        <ele>1293.0</ele>
        <time>2019-08-04T08:56:41.302Z</time>
      </trkpt>
      <trkpt lat="42.53253167" lon="1.58412167">
        <ele>1293.0</ele>
        <time>2019-08-04T08:56:42.324Z</time>
      </trkpt>
      <trkpt lat="42.53234667" lon="1.58391">
        <ele>1292.0</ele>
        <time>2019-08-04T08:56:43.324Z</time>
      </trkpt>
      <trkpt lat="42.53234667" lon="1.58391">
        <ele>1292.0</ele>
        <time>2019-08-04T08:56:44.321Z</time>
      </trkpt>
      <trkpt lat="42.53216" lon="1.58367833">
        <ele>1291.0</ele>
        <time>2019-08-04T08:56:45.324Z</time>
      </trkpt>
      <trkpt lat="42.53216" lon="1.58367833">
        <ele>1291.0</ele>
        <time>2019-08-04T08:56:46.310Z</time>
      </trkpt>
      <trkpt lat="42.53199667" lon="1.58340667">
        <ele>1290.0</ele>
        <time>2019-08-04T08:56:47.301Z</time>
      </trkpt>
      <trkpt lat="42.53199667" lon="1.58340667">
        <ele>1290.0</ele>
        <time>2019-08-04T08:56:48.320Z</time>
      </trkpt>
      <trkpt lat="42.53185833" lon="1.58311167">
        <ele>1289.0</ele>
        <time>2019-08-04T08:56:49.324Z</time>
      </trkpt>
      <trkpt lat="42.53185833" lon="1.58311167">
        <ele>1289.0</ele>
        <time>2019-08-04T08:56:50.320Z</time>
      </trkpt>
      <trkpt lat="42.53174333" lon="1.58278833">
        <ele>1288.0</ele>
        <time>2019-08-04T08:56:51.301Z</time>
      </trkpt>
      <trkpt lat="42.53174333" lon="1.58278833">
        <ele>1288.0</ele>
        <time>2019-08-04T08:56:52.325Z</time>
      </trkpt>
      <trkpt lat="42.53164167" lon="1.58246167">
        <ele>1287.0</ele>
        <time>2019-08-04T08:56:53.322Z</time>
      </trkpt>
      <trkpt lat="42.53164167" lon="1.58246167">
        <ele>1287.0</ele>
        <time>2019-08-04T08:56:54.316Z</time>
      </trkpt>
      <trkpt lat="42.53162667" lon="1.58207667">
        <ele>1286.0</ele>
        <time>2019-08-04T08:56:55.296Z</time>
      </trkpt>
      <trkpt lat="42.53162667" lon="1.58207667">
        <ele>1286.0</ele>
        <time>2019-08-04T08:56:56.317Z</time>
      </trkpt>
      <trkpt lat="42.53163167" lon="1.58171333">
        <ele>1285.0</ele>
        <time>2019-08-04T08:56:57.301Z</time>
      </trkpt>
      <trkpt lat="42.53163167" lon="1.58171333">
        <ele>1285.0</ele>
        <time>2019-08-04T08:56:58.320Z</time>
      </trkpt>
      <trkpt lat="42.531635" lon="1.58133">
        <ele>1284.0</ele>
        <time>2019-08-04T08:56:59.322Z</time>
      </trkpt>
      <trkpt lat="42.531635" lon="1.58133">
        <ele>1284.0</ele>
        <time>2019-08-04T08:57:00.315Z</time>
      </trkpt>
      <trkpt lat="42.531655" lon="1.58096">
        <ele>1283.0</ele>
        <time>2019-08-04T08:57:01.334Z</time>
      </trkpt>
      <trkpt lat="42.53164333" lon="1.58078833">
        <ele>1282.0</ele>
        <time>2019-08-04T08:57:02.323Z</time>
      </trkpt>
      <trkpt lat="42.53164333" lon="1.58078833">
        <ele>1282.0</ele>
        <time>2019-08-04T08:57:03.320Z</time>
      </trkpt>
      <trkpt lat="42.53161167" lon="1.58050167">
        <ele>1281.0</ele>
        <time>2019-08-04T08:57:04.323Z</time>
      </trkpt>
      <trkpt lat="42.53161167" lon="1.58050167">
        <ele>1281.0</ele>
        <time>2019-08-04T08:57:05.321Z</time>
      </trkpt>
      <trkpt lat="42.531655" lon="1.58025833">
        <ele>1280.0</ele>
        <time>2019-08-04T08:57:06.322Z</time>
      </trkpt>
      <trkpt lat="42.531705" lon="1.580145">
        <ele>1279.0</ele>
        <time>2019-08-04T08:57:07.309Z</time>
      </trkpt>
      <trkpt lat="42.531705" lon="1.580145">
        <ele>1279.0</ele>
        <time>2019-08-04T08:57:08.328Z</time>
      </trkpt>
      <trkpt lat="42.53178333" lon="1.57990167">
        <ele>1278.0</ele>
        <time>2019-08-04T08:57:09.323Z</time>
      </trkpt>
      <trkpt lat="42.53178833" lon="1.57977833">
        <ele>1278.0</ele>
        <time>2019-08-04T08:57:10.323Z</time>
      </trkpt>
      <trkpt lat="42.53178833" lon="1.57977833">
        <ele>1278.0</ele>
        <time>2019-08-04T08:57:11.320Z</time>
      </trkpt>
      <trkpt lat="42.53179" lon="1.579495">
        <ele>1277.0</ele>
        <time>2019-08-04T08:57:12.319Z</time>
      </trkpt>
      <trkpt lat="42.53179667" lon="1.57933667">
        <ele>1276.0</ele>
        <time>2019-08-04T08:57:13.303Z</time>
      </trkpt>
      <trkpt lat="42.53179667" lon="1.57933667">
        <ele>1276.0</ele>
        <time>2019-08-04T08:57:14.322Z</time>
      </trkpt>
      <trkpt lat="42.531815" lon="1.57902667">
        <ele>1275.0</ele>
        <time>2019-08-04T08:57:15.322Z</time>
      </trkpt>
      <trkpt lat="42.531815" lon="1.57902667">
        <ele>1275.0</ele>
        <time>2019-08-04T08:57:16.316Z</time>
      </trkpt>
      <trkpt lat="42.53181167" lon="1.57870833">
        <ele>1274.0</ele>
        <time>2019-08-04T08:57:17.301Z</time>
      </trkpt>
      <trkpt lat="42.53181167" lon="1.57870833">
        <ele>1274.0</ele>
        <time>2019-08-04T08:57:18.321Z</time>
      </trkpt>
      <trkpt lat="42.531805" lon="1.57838">
        <ele>1273.0</ele>
        <time>2019-08-04T08:57:19.324Z</time>
      </trkpt>
      <trkpt lat="42.531805" lon="1.57838">
        <ele>1273.0</ele>
        <time>2019-08-04T08:57:20.323Z</time>
      </trkpt>
      <trkpt lat="42.53178333" lon="1.57806">
        <ele>1271.0</ele>
        <time>2019-08-04T08:57:21.322Z</time>
      </trkpt>
      <trkpt lat="42.53178333" lon="1.57806">
        <ele>1271.0</ele>
        <time>2019-08-04T08:57:22.320Z</time>
      </trkpt>
      <trkpt lat="42.53175833" lon="1.57773667">
        <ele>1270.0</ele>
        <time>2019-08-04T08:57:23.323Z</time>
      </trkpt>
      <trkpt lat="42.53175833" lon="1.57773667">
        <ele>1270.0</ele>
        <time>2019-08-04T08:57:24.317Z</time>
      </trkpt>
      <trkpt lat="42.531725" lon="1.57742333">
        <ele>1269.0</ele>
        <time>2019-08-04T08:57:25.303Z</time>
      </trkpt>
      <trkpt lat="42.531725" lon="1.57742333">
        <ele>1269.0</ele>
        <time>2019-08-04T08:57:26.317Z</time>
      </trkpt>
      <trkpt lat="42.53169333" lon="1.57711167">
        <ele>1268.0</ele>
        <time>2019-08-04T08:57:27.313Z</time>
      </trkpt>
      <trkpt lat="42.53169333" lon="1.57711167">
        <ele>1268.0</ele>
        <time>2019-08-04T08:57:28.333Z</time>
      </trkpt>
      <trkpt lat="42.53165667" lon="1.57680167">
        <ele>1267.0</ele>
        <time>2019-08-04T08:57:29.322Z</time>
      </trkpt>
      <trkpt lat="42.53163333" lon="1.576645">
        <ele>1266.0</ele>
        <time>2019-08-04T08:57:30.323Z</time>
      </trkpt>
      <trkpt lat="42.53163333" lon="1.576645">
        <ele>1266.0</ele>
        <time>2019-08-04T08:57:31.320Z</time>
      </trkpt>
      <trkpt lat="42.53157667" lon="1.57632833">
        <ele>1265.0</ele>
        <time>2019-08-04T08:57:32.322Z</time>
      </trkpt>
      <trkpt lat="42.53154667" lon="1.576165">
        <ele>1265.0</ele>
        <time>2019-08-04T08:57:33.323Z</time>
      </trkpt>
      <trkpt lat="42.53154667" lon="1.576165">
        <ele>1265.0</ele>
        <time>2019-08-04T08:57:34.317Z</time>
      </trkpt>
      <trkpt lat="42.53148167" lon="1.57583167">
        <ele>1263.0</ele>
        <time>2019-08-04T08:57:35.297Z</time>
      </trkpt>
      <trkpt lat="42.53148167" lon="1.57583167">
        <ele>1263.0</ele>
        <time>2019-08-04T08:57:36.317Z</time>
      </trkpt>
      <trkpt lat="42.53140833" lon="1.57549833">
        <ele>1262.0</ele>
        <time>2019-08-04T08:57:37.302Z</time>
      </trkpt>
      <trkpt lat="42.53140833" lon="1.57549833">
        <ele>1262.0</ele>
        <time>2019-08-04T08:57:38.322Z</time>
      </trkpt>
      <trkpt lat="42.531325" lon="1.57516167">
        <ele>1261.0</ele>
        <time>2019-08-04T08:57:39.323Z</time>
      </trkpt>
      <trkpt lat="42.531325" lon="1.57516167">
        <ele>1261.0</ele>
        <time>2019-08-04T08:57:40.321Z</time>
      </trkpt>
      <trkpt lat="42.53122833" lon="1.57481833">
        <ele>1260.0</ele>
        <time>2019-08-04T08:57:41.319Z</time>
      </trkpt>
      <trkpt lat="42.531155" lon="1.57464333">
        <ele>1259.0</ele>
        <time>2019-08-04T08:57:42.322Z</time>
      </trkpt>
      <trkpt lat="42.53108" lon="1.57447167">
        <ele>1259.0</ele>
        <time>2019-08-04T08:57:43.324Z</time>
      </trkpt>
      <trkpt lat="42.53099333" lon="1.574305">
        <ele>1258.0</ele>
        <time>2019-08-04T08:57:44.323Z</time>
      </trkpt>
      <trkpt lat="42.53099333" lon="1.574305">
        <ele>1258.0</ele>
        <time>2019-08-04T08:57:45.321Z</time>
      </trkpt>
      <trkpt lat="42.530805" lon="1.57400667">
        <ele>1256.0</ele>
        <time>2019-08-04T08:57:46.319Z</time>
      </trkpt>
      <trkpt lat="42.53070167" lon="1.573865">
        <ele>1255.0</ele>
        <time>2019-08-04T08:57:47.302Z</time>
      </trkpt>
      <trkpt lat="42.53070167" lon="1.573865">
        <ele>1255.0</ele>
        <time>2019-08-04T08:57:48.321Z</time>
      </trkpt>
      <trkpt lat="42.53047167" lon="1.57362167">
        <ele>1252.0</ele>
        <time>2019-08-04T08:57:49.323Z</time>
      </trkpt>
      <trkpt lat="42.53047167" lon="1.57362167">
        <ele>1252.0</ele>
        <time>2019-08-04T08:57:50.313Z</time>
      </trkpt>
      <trkpt lat="42.53021833" lon="1.57342833">
        <ele>1249.0</ele>
        <time>2019-08-04T08:57:51.332Z</time>
      </trkpt>
      <trkpt lat="42.53021833" lon="1.57342833">
        <ele>1249.0</ele>
        <time>2019-08-04T08:57:52.316Z</time>
      </trkpt>
      <trkpt lat="42.52998333" lon="1.57325833">
        <ele>1246.0</ele>
        <time>2019-08-04T08:57:53.335Z</time>
      </trkpt>
      <trkpt lat="42.52998333" lon="1.57325833">
        <ele>1246.0</ele>
        <time>2019-08-04T08:57:54.318Z</time>
      </trkpt>
      <trkpt lat="42.52975667" lon="1.57306167">
        <ele>1243.0</ele>
        <time>2019-08-04T08:57:55.302Z</time>
      </trkpt>
      <trkpt lat="42.52975667" lon="1.57306167">
        <ele>1243.0</ele>
        <time>2019-08-04T08:57:56.323Z</time>
      </trkpt>
      <trkpt lat="42.52957" lon="1.57279">
        <ele>1240.0</ele>
        <time>2019-08-04T08:57:57.301Z</time>
      </trkpt>
      <trkpt lat="42.52950167" lon="1.57264167">
        <ele>1238.0</ele>
        <time>2019-08-04T08:57:58.323Z</time>
      </trkpt>
      <trkpt lat="42.52950167" lon="1.57264167">
        <ele>1238.0</ele>
        <time>2019-08-04T08:57:59.318Z</time>
      </trkpt>
      <trkpt lat="42.52939" lon="1.57234333">
        <ele>1236.0</ele>
        <time>2019-08-04T08:58:00.317Z</time>
      </trkpt>
      <trkpt lat="42.52935" lon="1.57220833">
        <ele>1235.0</ele>
        <time>2019-08-04T08:58:01.297Z</time>
      </trkpt>
      <trkpt lat="42.52935" lon="1.57220833">
        <ele>1235.0</ele>
        <time>2019-08-04T08:58:02.320Z</time>
      </trkpt>
      <trkpt lat="42.52928667" lon="1.57197">
        <ele>1232.0</ele>
        <time>2019-08-04T08:58:03.324Z</time>
      </trkpt>
      <trkpt lat="42.52928667" lon="1.57197">
        <ele>1232.0</ele>
        <time>2019-08-04T08:58:04.321Z</time>
      </trkpt>
      <trkpt lat="42.52925833" lon="1.57176167">
        <ele>1230.0</ele>
        <time>2019-08-04T08:58:05.321Z</time>
      </trkpt>
      <trkpt lat="42.52925833" lon="1.57176167">
        <ele>1230.0</ele>
        <time>2019-08-04T08:58:06.317Z</time>
      </trkpt>
      <trkpt lat="42.52929333" lon="1.57159">
        <ele>1229.0</ele>
        <time>2019-08-04T08:58:07.303Z</time>
      </trkpt>
      <trkpt lat="42.52933333" lon="1.57151333">
        <ele>1228.0</ele>
        <time>2019-08-04T08:58:08.302Z</time>
      </trkpt>
      <trkpt lat="42.52933333" lon="1.57151333">
        <ele>1228.0</ele>
        <time>2019-08-04T08:58:09.321Z</time>
      </trkpt>
      <trkpt lat="42.52934167" lon="1.571345">
        <ele>1227.0</ele>
        <time>2019-08-04T08:58:10.333Z</time>
      </trkpt>
      <trkpt lat="42.52934167" lon="1.571345">
        <ele>1227.0</ele>
        <time>2019-08-04T08:58:11.317Z</time>
      </trkpt>
      <trkpt lat="42.52922333" lon="1.57123167">
        <ele>1225.0</ele>
        <time>2019-08-04T08:58:12.297Z</time>
      </trkpt>
      <trkpt lat="42.52916333" lon="1.57118333">
        <ele>1224.0</ele>
        <time>2019-08-04T08:58:13.326Z</time>
      </trkpt>
      <trkpt lat="42.52916333" lon="1.57118333">
        <ele>1224.0</ele>
        <time>2019-08-04T08:58:14.321Z</time>
      </trkpt>
      <trkpt lat="42.52903667" lon="1.57103167">
        <ele>1222.0</ele>
        <time>2019-08-04T08:58:15.322Z</time>
      </trkpt>
      <trkpt lat="42.52896667" lon="1.57094">
        <ele>1221.0</ele>
        <time>2019-08-04T08:58:16.322Z</time>
      </trkpt>
      <trkpt lat="42.52896667" lon="1.57094">
        <ele>1221.0</ele>
        <time>2019-08-04T08:58:17.301Z</time>
      </trkpt>
      <trkpt lat="42.52882" lon="1.570745">
        <ele>1219.0</ele>
        <time>2019-08-04T08:58:18.335Z</time>
      </trkpt>
      <trkpt lat="42.52874333" lon="1.57064333">
        <ele>1218.0</ele>
        <time>2019-08-04T08:58:19.326Z</time>
      </trkpt>
      <trkpt lat="42.52874333" lon="1.57064333">
        <ele>1218.0</ele>
        <time>2019-08-04T08:58:20.318Z</time>
      </trkpt>
      <trkpt lat="42.52859167" lon="1.570435">
        <ele>1216.0</ele>
        <time>2019-08-04T08:58:21.297Z</time>
      </trkpt>
      <trkpt lat="42.52859167" lon="1.570435">
        <ele>1216.0</ele>
        <time>2019-08-04T08:58:22.317Z</time>
      </trkpt>
      <trkpt lat="42.52859167" lon="1.570435">
        <ele>1216.0</ele>
        <time>2019-08-04T08:58:23.296Z</time>
      </trkpt>
      <trkpt lat="42.52859167" lon="1.570435">
        <ele>1216.0</ele>
        <time>2019-08-04T08:58:24.317Z</time>
      </trkpt>
      <trkpt lat="42.52859167" lon="1.570435">
        <ele>1216.0</ele>
        <time>2019-08-04T08:58:25.296Z</time>
      </trkpt>
      <trkpt lat="42.52859167" lon="1.570435">
        <ele>1216.0</ele>
        <time>2019-08-04T08:58:26.321Z</time>
      </trkpt>
      <trkpt lat="42.52859167" lon="1.570435">
        <ele>1216.0</ele>
        <time>2019-08-04T08:58:27.300Z</time>
      </trkpt>
      <trkpt lat="42.52859167" lon="1.570435">
        <ele>1216.0</ele>
        <time>2019-08-04T08:58:28.321Z</time>
      </trkpt>
      <trkpt lat="42.52788667" lon="1.569565">
        <ele>1209.0</ele>
        <time>2019-08-04T08:58:29.296Z</time>
      </trkpt>
      <trkpt lat="42.52788667" lon="1.569565">
        <ele>1209.0</ele>
        <time>2019-08-04T08:58:30.321Z</time>
      </trkpt>
      <trkpt lat="42.52772333" lon="1.56913167">
        <ele>1207.0</ele>
        <time>2019-08-04T08:58:31.324Z</time>
      </trkpt>
      <trkpt lat="42.52772333" lon="1.56913167">
        <ele>1207.0</ele>
        <time>2019-08-04T08:58:32.317Z</time>
      </trkpt>
      <trkpt lat="42.52753333" lon="1.568815">
        <ele>1205.0</ele>
        <time>2019-08-04T08:58:33.323Z</time>
      </trkpt>
      <trkpt lat="42.52753333" lon="1.568815">
        <ele>1205.0</ele>
        <time>2019-08-04T08:58:34.317Z</time>
      </trkpt>
      <trkpt lat="42.52736" lon="1.56847667">
        <ele>1203.0</ele>
        <time>2019-08-04T08:58:35.296Z</time>
      </trkpt>
      <trkpt lat="42.52736" lon="1.56847667">
        <ele>1203.0</ele>
        <time>2019-08-04T08:58:36.321Z</time>
      </trkpt>
      <trkpt lat="42.52718833" lon="1.568125">
        <ele>1201.0</ele>
        <time>2019-08-04T08:58:37.303Z</time>
      </trkpt>
      <trkpt lat="42.52718833" lon="1.568125">
        <ele>1201.0</ele>
        <time>2019-08-04T08:58:38.323Z</time>
      </trkpt>
      <trkpt lat="42.52699667" lon="1.56777833">
        <ele>1199.0</ele>
        <time>2019-08-04T08:58:39.323Z</time>
      </trkpt>
      <trkpt lat="42.52699667" lon="1.56777833">
        <ele>1199.0</ele>
        <time>2019-08-04T08:58:40.316Z</time>
      </trkpt>
      <trkpt lat="42.52677667" lon="1.567445">
        <ele>1197.0</ele>
        <time>2019-08-04T08:58:41.336Z</time>
      </trkpt>
      <trkpt lat="42.52677667" lon="1.567445">
        <ele>1197.0</ele>
        <time>2019-08-04T08:58:42.318Z</time>
      </trkpt>
      <trkpt lat="42.52653667" lon="1.56713167">
        <ele>1194.0</ele>
        <time>2019-08-04T08:58:43.297Z</time>
      </trkpt>
      <trkpt lat="42.52653667" lon="1.56713167">
        <ele>1194.0</ele>
        <time>2019-08-04T08:58:44.321Z</time>
      </trkpt>
      <trkpt lat="42.52629333" lon="1.566815">
        <ele>1192.0</ele>
        <time>2019-08-04T08:58:45.302Z</time>
      </trkpt>
      <trkpt lat="42.52617" lon="1.56664833">
        <ele>1190.0</ele>
        <time>2019-08-04T08:58:46.322Z</time>
      </trkpt>
      <trkpt lat="42.52604833" lon="1.566485">
        <ele>1189.0</ele>
        <time>2019-08-04T08:58:47.301Z</time>
      </trkpt>
      <trkpt lat="42.52604833" lon="1.566485">
        <ele>1189.0</ele>
        <time>2019-08-04T08:58:48.321Z</time>
      </trkpt>
      <trkpt lat="42.52581667" lon="1.56614167">
        <ele>1187.0</ele>
        <time>2019-08-04T08:58:49.324Z</time>
      </trkpt>
      <trkpt lat="42.52581667" lon="1.56614167">
        <ele>1187.0</ele>
        <time>2019-08-04T08:58:50.321Z</time>
      </trkpt>
      <trkpt lat="42.52560833" lon="1.565775">
        <ele>1185.0</ele>
        <time>2019-08-04T08:58:51.323Z</time>
      </trkpt>
      <trkpt lat="42.52560833" lon="1.565775">
        <ele>1185.0</ele>
        <time>2019-08-04T08:58:52.318Z</time>
      </trkpt>
      <trkpt lat="42.525445" lon="1.5654">
        <ele>1183.0</ele>
        <time>2019-08-04T08:58:53.297Z</time>
      </trkpt>
      <trkpt lat="42.525445" lon="1.5654">
        <ele>1183.0</ele>
        <time>2019-08-04T08:58:54.321Z</time>
      </trkpt>
      <trkpt lat="42.52531333" lon="1.56506667">
        <ele>1180.0</ele>
        <time>2019-08-04T08:58:55.325Z</time>
      </trkpt>
      <trkpt lat="42.52531333" lon="1.56506667">
        <ele>1180.0</ele>
        <time>2019-08-04T08:58:56.317Z</time>
      </trkpt>
      <trkpt lat="42.525235" lon="1.56478667">
        <ele>1179.0</ele>
        <time>2019-08-04T08:58:57.302Z</time>
      </trkpt>
      <trkpt lat="42.525235" lon="1.56478667">
        <ele>1179.0</ele>
        <time>2019-08-04T08:58:58.322Z</time>
      </trkpt>
      <trkpt lat="42.525255" lon="1.56453333">
        <ele>1178.0</ele>
        <time>2019-08-04T08:58:59.323Z</time>
      </trkpt>
      <trkpt lat="42.525255" lon="1.56453333">
        <ele>1178.0</ele>
        <time>2019-08-04T08:59:00.321Z</time>
      </trkpt>
      <trkpt lat="42.52532333" lon="1.56430667">
        <ele>1177.0</ele>
        <time>2019-08-04T08:59:01.325Z</time>
      </trkpt>
      <trkpt lat="42.52531" lon="1.56419667">
        <ele>1176.0</ele>
        <time>2019-08-04T08:59:02.323Z</time>
      </trkpt>
      <trkpt lat="42.52531" lon="1.56419667">
        <ele>1176.0</ele>
        <time>2019-08-04T08:59:03.321Z</time>
      </trkpt>
      <trkpt lat="42.525185" lon="1.56407167">
        <ele>1175.0</ele>
        <time>2019-08-04T08:59:04.323Z</time>
      </trkpt>
      <trkpt lat="42.525185" lon="1.56407167">
        <ele>1175.0</ele>
        <time>2019-08-04T08:59:05.317Z</time>
      </trkpt>
      <trkpt lat="42.52503833" lon="1.56400167">
        <ele>1174.0</ele>
        <time>2019-08-04T08:59:06.322Z</time>
      </trkpt>
      <trkpt lat="42.524985" lon="1.56391833">
        <ele>1173.0</ele>
        <time>2019-08-04T08:59:07.303Z</time>
      </trkpt>
      <trkpt lat="42.524985" lon="1.56391833">
        <ele>1173.0</ele>
        <time>2019-08-04T08:59:08.328Z</time>
      </trkpt>
      <trkpt lat="42.52490833" lon="1.56368667">
        <ele>1172.0</ele>
        <time>2019-08-04T08:59:09.324Z</time>
      </trkpt>
      <trkpt lat="42.52490833" lon="1.56368667">
        <ele>1172.0</ele>
        <time>2019-08-04T08:59:10.317Z</time>
      </trkpt>
      <trkpt lat="42.524835" lon="1.56344167">
        <ele>1171.0</ele>
        <time>2019-08-04T08:59:11.318Z</time>
      </trkpt>
      <trkpt lat="42.524835" lon="1.56344167">
        <ele>1171.0</ele>
        <time>2019-08-04T08:59:12.302Z</time>
      </trkpt>
      <trkpt lat="42.52475" lon="1.56319667">
        <ele>1170.0</ele>
        <time>2019-08-04T08:59:13.324Z</time>
      </trkpt>
      <trkpt lat="42.52470667" lon="1.56306833">
        <ele>1169.0</ele>
        <time>2019-08-04T08:59:14.323Z</time>
      </trkpt>
      <trkpt lat="42.52470667" lon="1.56306833">
        <ele>1169.0</ele>
        <time>2019-08-04T08:59:15.302Z</time>
      </trkpt>
      <trkpt lat="42.52458833" lon="1.56282333">
        <ele>1168.0</ele>
        <time>2019-08-04T08:59:16.324Z</time>
      </trkpt>
      <trkpt lat="42.52452" lon="1.56270333">
        <ele>1167.0</ele>
        <time>2019-08-04T08:59:17.302Z</time>
      </trkpt>
      <trkpt lat="42.52452" lon="1.56270333">
        <ele>1167.0</ele>
        <time>2019-08-04T08:59:18.327Z</time>
      </trkpt>
      <trkpt lat="42.52436" lon="1.562485">
        <ele>1167.0</ele>
        <time>2019-08-04T08:59:19.325Z</time>
      </trkpt>
      <trkpt lat="42.52436" lon="1.562485">
        <ele>1167.0</ele>
        <time>2019-08-04T08:59:20.321Z</time>
      </trkpt>
      <trkpt lat="42.52417667" lon="1.56230333">
        <ele>1166.0</ele>
        <time>2019-08-04T08:59:21.324Z</time>
      </trkpt>
      <trkpt lat="42.52408167" lon="1.56221667">
        <ele>1166.0</ele>
        <time>2019-08-04T08:59:22.321Z</time>
      </trkpt>
      <trkpt lat="42.52408167" lon="1.56221667">
        <ele>1166.0</ele>
        <time>2019-08-04T08:59:23.321Z</time>
      </trkpt>
      <trkpt lat="42.52388167" lon="1.56206">
        <ele>1165.0</ele>
        <time>2019-08-04T08:59:24.320Z</time>
      </trkpt>
      <trkpt lat="42.52388167" lon="1.56206">
        <ele>1165.0</ele>
        <time>2019-08-04T08:59:25.320Z</time>
      </trkpt>
      <trkpt lat="42.52370167" lon="1.5619">
        <ele>1165.0</ele>
        <time>2019-08-04T08:59:26.323Z</time>
      </trkpt>
      <trkpt lat="42.52360833" lon="1.56181833">
        <ele>1165.0</ele>
        <time>2019-08-04T08:59:27.323Z</time>
      </trkpt>
      <trkpt lat="42.52360833" lon="1.56181833">
        <ele>1165.0</ele>
        <time>2019-08-04T08:59:28.319Z</time>
      </trkpt>
      <trkpt lat="42.52344167" lon="1.56165167">
        <ele>1165.0</ele>
        <time>2019-08-04T08:59:29.296Z</time>
      </trkpt>
      <trkpt lat="42.52335167" lon="1.56156">
        <ele>1165.0</ele>
        <time>2019-08-04T08:59:30.323Z</time>
      </trkpt>
      <trkpt lat="42.52335167" lon="1.56156">
        <ele>1165.0</ele>
        <time>2019-08-04T08:59:31.322Z</time>
      </trkpt>
      <trkpt lat="42.52317667" lon="1.56137833">
        <ele>1164.0</ele>
        <time>2019-08-04T08:59:32.322Z</time>
      </trkpt>
      <trkpt lat="42.52317667" lon="1.56137833">
        <ele>1164.0</ele>
        <time>2019-08-04T08:59:33.320Z</time>
      </trkpt>
      <trkpt lat="42.52301" lon="1.56119667">
        <ele>1164.0</ele>
        <time>2019-08-04T08:59:34.319Z</time>
      </trkpt>
      <trkpt lat="42.52301" lon="1.56119667">
        <ele>1164.0</ele>
        <time>2019-08-04T08:59:35.302Z</time>
      </trkpt>
      <trkpt lat="42.52286333" lon="1.56099">
        <ele>1164.0</ele>
        <time>2019-08-04T08:59:36.323Z</time>
      </trkpt>
      <trkpt lat="42.52279167" lon="1.56087833">
        <ele>1164.0</ele>
        <time>2019-08-04T08:59:37.318Z</time>
      </trkpt>
      <trkpt lat="42.52279167" lon="1.56087833">
        <ele>1164.0</ele>
        <time>2019-08-04T08:59:38.333Z</time>
      </trkpt>
      <trkpt lat="42.52264667" lon="1.56064167">
        <ele>1164.0</ele>
        <time>2019-08-04T08:59:39.324Z</time>
      </trkpt>
      <trkpt lat="42.52264667" lon="1.56064167">
        <ele>1164.0</ele>
        <time>2019-08-04T08:59:40.321Z</time>
      </trkpt>
      <trkpt lat="42.52251333" lon="1.56041">
        <ele>1164.0</ele>
        <time>2019-08-04T08:59:41.324Z</time>
      </trkpt>
      <trkpt lat="42.52251333" lon="1.56041">
        <ele>1164.0</ele>
        <time>2019-08-04T08:59:42.321Z</time>
      </trkpt>
      <trkpt lat="42.52239833" lon="1.56017667">
        <ele>1164.0</ele>
        <time>2019-08-04T08:59:43.304Z</time>
      </trkpt>
      <trkpt lat="42.52239833" lon="1.56017667">
        <ele>1164.0</ele>
        <time>2019-08-04T08:59:44.323Z</time>
      </trkpt>
      <trkpt lat="42.52228" lon="1.55995">
        <ele>1165.0</ele>
        <time>2019-08-04T08:59:45.324Z</time>
      </trkpt>
      <trkpt lat="42.52228" lon="1.55995">
        <ele>1165.0</ele>
        <time>2019-08-04T08:59:46.320Z</time>
      </trkpt>
      <trkpt lat="42.522155" lon="1.55973167">
        <ele>1165.0</ele>
        <time>2019-08-04T08:59:47.304Z</time>
      </trkpt>
      <trkpt lat="42.522155" lon="1.55973167">
        <ele>1165.0</ele>
        <time>2019-08-04T08:59:48.323Z</time>
      </trkpt>
      <trkpt lat="42.52202833" lon="1.55953167">
        <ele>1165.0</ele>
        <time>2019-08-04T08:59:49.324Z</time>
      </trkpt>
      <trkpt lat="42.52196167" lon="1.55944167">
        <ele>1165.0</ele>
        <time>2019-08-04T08:59:50.323Z</time>
      </trkpt>
      <trkpt lat="42.52196167" lon="1.55944167">
        <ele>1165.0</ele>
        <time>2019-08-04T08:59:51.319Z</time>
      </trkpt>
      <trkpt lat="42.52183333" lon="1.55927">
        <ele>1165.0</ele>
        <time>2019-08-04T08:59:52.297Z</time>
      </trkpt>
      <trkpt lat="42.52183333" lon="1.55927">
        <ele>1165.0</ele>
        <time>2019-08-04T08:59:53.321Z</time>
      </trkpt>
      <trkpt lat="42.52171" lon="1.55909667">
        <ele>1165.0</ele>
        <time>2019-08-04T08:59:54.324Z</time>
      </trkpt>
      <trkpt lat="42.52171" lon="1.55909667">
        <ele>1165.0</ele>
        <time>2019-08-04T08:59:55.326Z</time>
      </trkpt>
      <trkpt lat="42.52158167" lon="1.5589">
        <ele>1166.0</ele>
        <time>2019-08-04T08:59:56.324Z</time>
      </trkpt>
      <trkpt lat="42.521505" lon="1.55880833">
        <ele>1166.0</ele>
        <time>2019-08-04T08:59:57.302Z</time>
      </trkpt>
      <trkpt lat="42.521505" lon="1.55880833">
        <ele>1166.0</ele>
        <time>2019-08-04T08:59:58.322Z</time>
      </trkpt>
      <trkpt lat="42.52135" lon="1.55862167">
        <ele>1166.0</ele>
        <time>2019-08-04T08:59:59.320Z</time>
      </trkpt>
      <trkpt lat="42.52135" lon="1.55862167">
        <ele>1166.0</ele>
        <time>2019-08-04T09:00:00.304Z</time>
      </trkpt>
      <trkpt lat="42.52117833" lon="1.55842833">
        <ele>1166.0</ele>
        <time>2019-08-04T09:00:01.335Z</time>
      </trkpt>
      <trkpt lat="42.52117833" lon="1.55842833">
        <ele>1166.0</ele>
        <time>2019-08-04T09:00:02.318Z</time>
      </trkpt>
      <trkpt lat="42.52100667" lon="1.55824833">
        <ele>1166.0</ele>
        <time>2019-08-04T09:00:03.297Z</time>
      </trkpt>
      <trkpt lat="42.52100667" lon="1.55824833">
        <ele>1166.0</ele>
        <time>2019-08-04T09:00:04.320Z</time>
      </trkpt>
      <trkpt lat="42.520825" lon="1.55806833">
        <ele>1166.0</ele>
        <time>2019-08-04T09:00:05.302Z</time>
      </trkpt>
      <trkpt lat="42.520825" lon="1.55806833">
        <ele>1166.0</ele>
        <time>2019-08-04T09:00:06.325Z</time>
      </trkpt>
      <trkpt lat="42.52064167" lon="1.55788333">
        <ele>1166.0</ele>
        <time>2019-08-04T09:00:07.302Z</time>
      </trkpt>
      <trkpt lat="42.52064167" lon="1.55788333">
        <ele>1166.0</ele>
        <time>2019-08-04T09:00:08.331Z</time>
      </trkpt>
      <trkpt lat="42.52045833" lon="1.55769333">
        <ele>1166.0</ele>
        <time>2019-08-04T09:00:09.324Z</time>
      </trkpt>
      <trkpt lat="42.52045833" lon="1.55769333">
        <ele>1166.0</ele>
        <time>2019-08-04T09:00:10.302Z</time>
      </trkpt>
      <trkpt lat="42.52027333" lon="1.55750833">
        <ele>1165.0</ele>
        <time>2019-08-04T09:00:11.323Z</time>
      </trkpt>
      <trkpt lat="42.52027333" lon="1.55750833">
        <ele>1165.0</ele>
        <time>2019-08-04T09:00:12.324Z</time>
      </trkpt>
      <trkpt lat="42.52008333" lon="1.55733">
        <ele>1164.0</ele>
        <time>2019-08-04T09:00:13.325Z</time>
      </trkpt>
      <trkpt lat="42.52008333" lon="1.55733">
        <ele>1164.0</ele>
        <time>2019-08-04T09:00:14.321Z</time>
      </trkpt>
      <trkpt lat="42.51988333" lon="1.55715167">
        <ele>1164.0</ele>
        <time>2019-08-04T09:00:15.325Z</time>
      </trkpt>
      <trkpt lat="42.51988333" lon="1.55715167">
        <ele>1164.0</ele>
        <time>2019-08-04T09:00:16.319Z</time>
      </trkpt>
      <trkpt lat="42.51967667" lon="1.55697333">
        <ele>1163.0</ele>
        <time>2019-08-04T09:00:17.302Z</time>
      </trkpt>
      <trkpt lat="42.51967667" lon="1.55697333">
        <ele>1163.0</ele>
        <time>2019-08-04T09:00:18.322Z</time>
      </trkpt>
      <trkpt lat="42.51946667" lon="1.556795">
        <ele>1162.0</ele>
        <time>2019-08-04T09:00:19.325Z</time>
      </trkpt>
      <trkpt lat="42.51946667" lon="1.556795">
        <ele>1162.0</ele>
        <time>2019-08-04T09:00:20.319Z</time>
      </trkpt>
      <trkpt lat="42.519245" lon="1.55662167">
        <ele>1162.0</ele>
        <time>2019-08-04T09:00:21.298Z</time>
      </trkpt>
      <trkpt lat="42.519245" lon="1.55662167">
        <ele>1162.0</ele>
        <time>2019-08-04T09:00:22.321Z</time>
      </trkpt>
      <trkpt lat="42.51902833" lon="1.55645">
        <ele>1161.0</ele>
        <time>2019-08-04T09:00:23.323Z</time>
      </trkpt>
      <trkpt lat="42.51891833" lon="1.55636167">
        <ele>1161.0</ele>
        <time>2019-08-04T09:00:24.323Z</time>
      </trkpt>
      <trkpt lat="42.51891833" lon="1.55636167">
        <ele>1161.0</ele>
        <time>2019-08-04T09:00:25.304Z</time>
      </trkpt>
      <trkpt lat="42.51869667" lon="1.55616667">
        <ele>1160.0</ele>
        <time>2019-08-04T09:00:26.305Z</time>
      </trkpt>
      <trkpt lat="42.51859167" lon="1.55605833">
        <ele>1160.0</ele>
        <time>2019-08-04T09:00:27.310Z</time>
      </trkpt>
      <trkpt lat="42.51859167" lon="1.55605833">
        <ele>1160.0</ele>
        <time>2019-08-04T09:00:28.331Z</time>
      </trkpt>
      <trkpt lat="42.51840167" lon="1.55582167">
        <ele>1159.0</ele>
        <time>2019-08-04T09:00:29.324Z</time>
      </trkpt>
      <trkpt lat="42.51840167" lon="1.55582167">
        <ele>1159.0</ele>
        <time>2019-08-04T09:00:30.318Z</time>
      </trkpt>
      <trkpt lat="42.51825333" lon="1.55558667">
        <ele>1159.0</ele>
        <time>2019-08-04T09:00:31.301Z</time>
      </trkpt>
      <trkpt lat="42.518175" lon="1.55546167">
        <ele>1158.0</ele>
        <time>2019-08-04T09:00:32.324Z</time>
      </trkpt>
      <trkpt lat="42.51809667" lon="1.55532167">
        <ele>1158.0</ele>
        <time>2019-08-04T09:00:33.323Z</time>
      </trkpt>
      <trkpt lat="42.51809667" lon="1.55532167">
        <ele>1158.0</ele>
        <time>2019-08-04T09:00:34.319Z</time>
      </trkpt>
      <trkpt lat="42.51792667" lon="1.55511">
        <ele>1157.0</ele>
        <time>2019-08-04T09:00:35.302Z</time>
      </trkpt>
      <trkpt lat="42.51784667" lon="1.55496667">
        <ele>1157.0</ele>
        <time>2019-08-04T09:00:36.324Z</time>
      </trkpt>
      <trkpt lat="42.517775" lon="1.554835">
        <ele>1157.0</ele>
        <time>2019-08-04T09:00:37.305Z</time>
      </trkpt>
      <trkpt lat="42.517775" lon="1.554835">
        <ele>1157.0</ele>
        <time>2019-08-04T09:00:38.325Z</time>
      </trkpt>
      <trkpt lat="42.51762167" lon="1.55459">
        <ele>1157.0</ele>
        <time>2019-08-04T09:00:39.325Z</time>
      </trkpt>
      <trkpt lat="42.51762167" lon="1.55459">
        <ele>1157.0</ele>
        <time>2019-08-04T09:00:40.321Z</time>
      </trkpt>
      <trkpt lat="42.51746" lon="1.55438333">
        <ele>1156.0</ele>
        <time>2019-08-04T09:00:41.324Z</time>
      </trkpt>
      <trkpt lat="42.51746" lon="1.55438333">
        <ele>1156.0</ele>
        <time>2019-08-04T09:00:42.321Z</time>
      </trkpt>
      <trkpt lat="42.51728833" lon="1.55418667">
        <ele>1155.0</ele>
        <time>2019-08-04T09:00:43.326Z</time>
      </trkpt>
      <trkpt lat="42.51728833" lon="1.55418667">
        <ele>1155.0</ele>
        <time>2019-08-04T09:00:44.321Z</time>
      </trkpt>
      <trkpt lat="42.51709667" lon="1.554015">
        <ele>1154.0</ele>
        <time>2019-08-04T09:00:45.324Z</time>
      </trkpt>
      <trkpt lat="42.51709667" lon="1.554015">
        <ele>1154.0</ele>
        <time>2019-08-04T09:00:46.320Z</time>
      </trkpt>
      <trkpt lat="42.51689833" lon="1.55385333">
        <ele>1153.0</ele>
        <time>2019-08-04T09:00:47.302Z</time>
      </trkpt>
      <trkpt lat="42.51689833" lon="1.55385333">
        <ele>1153.0</ele>
        <time>2019-08-04T09:00:48.322Z</time>
      </trkpt>
      <trkpt lat="42.5167" lon="1.55369833">
        <ele>1153.0</ele>
        <time>2019-08-04T09:00:49.296Z</time>
      </trkpt>
      <trkpt lat="42.51659833" lon="1.55362667">
        <ele>1152.0</ele>
        <time>2019-08-04T09:00:50.324Z</time>
      </trkpt>
      <trkpt lat="42.51659833" lon="1.55362667">
        <ele>1152.0</ele>
        <time>2019-08-04T09:00:51.322Z</time>
      </trkpt>
      <trkpt lat="42.51636833" lon="1.55351167">
        <ele>1151.0</ele>
        <time>2019-08-04T09:00:52.322Z</time>
      </trkpt>
      <trkpt lat="42.516245" lon="1.55347167">
        <ele>1151.0</ele>
        <time>2019-08-04T09:00:53.324Z</time>
      </trkpt>
      <trkpt lat="42.516245" lon="1.55347167">
        <ele>1151.0</ele>
        <time>2019-08-04T09:00:54.319Z</time>
      </trkpt>
      <trkpt lat="42.51599167" lon="1.55339167">
        <ele>1150.0</ele>
        <time>2019-08-04T09:00:55.302Z</time>
      </trkpt>
      <trkpt lat="42.51599167" lon="1.55339167">
        <ele>1150.0</ele>
        <time>2019-08-04T09:00:56.323Z</time>
      </trkpt>
      <trkpt lat="42.51573" lon="1.55330333">
        <ele>1148.0</ele>
        <time>2019-08-04T09:00:57.303Z</time>
      </trkpt>
      <trkpt lat="42.51573" lon="1.55330333">
        <ele>1148.0</ele>
        <time>2019-08-04T09:00:58.322Z</time>
      </trkpt>
      <trkpt lat="42.515475" lon="1.55314333">
        <ele>1146.0</ele>
        <time>2019-08-04T09:00:59.323Z</time>
      </trkpt>
      <trkpt lat="42.51535333" lon="1.55304">
        <ele>1145.0</ele>
        <time>2019-08-04T09:01:00.310Z</time>
      </trkpt>
      <trkpt lat="42.51523167" lon="1.552935">
        <ele>1144.0</ele>
        <time>2019-08-04T09:01:01.330Z</time>
      </trkpt>
      <trkpt lat="42.51523167" lon="1.552935">
        <ele>1144.0</ele>
        <time>2019-08-04T09:01:02.321Z</time>
      </trkpt>
      <trkpt lat="42.51497667" lon="1.55275">
        <ele>1142.0</ele>
        <time>2019-08-04T09:01:03.325Z</time>
      </trkpt>
      <trkpt lat="42.51497667" lon="1.55275">
        <ele>1142.0</ele>
        <time>2019-08-04T09:01:04.321Z</time>
      </trkpt>
      <trkpt lat="42.51468333" lon="1.55264">
        <ele>1140.0</ele>
        <time>2019-08-04T09:01:05.303Z</time>
      </trkpt>
      <trkpt lat="42.51468333" lon="1.55264">
        <ele>1140.0</ele>
        <time>2019-08-04T09:01:06.323Z</time>
      </trkpt>
      <trkpt lat="42.51438667" lon="1.55263333">
        <ele>1138.0</ele>
        <time>2019-08-04T09:01:07.305Z</time>
      </trkpt>
      <trkpt lat="42.51438667" lon="1.55263333">
        <ele>1138.0</ele>
        <time>2019-08-04T09:01:08.324Z</time>
      </trkpt>
      <trkpt lat="42.51407833" lon="1.552665">
        <ele>1136.0</ele>
        <time>2019-08-04T09:01:09.334Z</time>
      </trkpt>
      <trkpt lat="42.513935" lon="1.55265833">
        <ele>1134.0</ele>
        <time>2019-08-04T09:01:10.324Z</time>
      </trkpt>
      <trkpt lat="42.513935" lon="1.55265833">
        <ele>1134.0</ele>
        <time>2019-08-04T09:01:11.319Z</time>
      </trkpt>
      <trkpt lat="42.51368167" lon="1.55253667">
        <ele>1132.0</ele>
        <time>2019-08-04T09:01:12.303Z</time>
      </trkpt>
      <trkpt lat="42.51368167" lon="1.55253667">
        <ele>1132.0</ele>
        <time>2019-08-04T09:01:13.323Z</time>
      </trkpt>
      <trkpt lat="42.51345333" lon="1.55232833">
        <ele>1129.0</ele>
        <time>2019-08-04T09:01:14.326Z</time>
      </trkpt>
      <trkpt lat="42.51335833" lon="1.55219">
        <ele>1128.0</ele>
        <time>2019-08-04T09:01:15.324Z</time>
      </trkpt>
      <trkpt lat="42.51335833" lon="1.55219">
        <ele>1128.0</ele>
        <time>2019-08-04T09:01:16.319Z</time>
      </trkpt>
      <trkpt lat="42.51321" lon="1.55186333">
        <ele>1126.0</ele>
        <time>2019-08-04T09:01:17.323Z</time>
      </trkpt>
      <trkpt lat="42.51321" lon="1.55186333">
        <ele>1126.0</ele>
        <time>2019-08-04T09:01:18.321Z</time>
      </trkpt>
      <trkpt lat="42.51305833" lon="1.55152333">
        <ele>1123.0</ele>
        <time>2019-08-04T09:01:19.303Z</time>
      </trkpt>
      <trkpt lat="42.51296167" lon="1.551365">
        <ele>1122.0</ele>
        <time>2019-08-04T09:01:20.325Z</time>
      </trkpt>
      <trkpt lat="42.51285167" lon="1.551225">
        <ele>1121.0</ele>
        <time>2019-08-04T09:01:21.325Z</time>
      </trkpt>
      <trkpt lat="42.51285167" lon="1.551225">
        <ele>1121.0</ele>
        <time>2019-08-04T09:01:22.321Z</time>
      </trkpt>
      <trkpt lat="42.512625" lon="1.551">
        <ele>1119.0</ele>
        <time>2019-08-04T09:01:23.323Z</time>
      </trkpt>
      <trkpt lat="42.512625" lon="1.551">
        <ele>1119.0</ele>
        <time>2019-08-04T09:01:24.321Z</time>
      </trkpt>
      <trkpt lat="42.51242333" lon="1.55079333">
        <ele>1117.0</ele>
        <time>2019-08-04T09:01:25.303Z</time>
      </trkpt>
      <trkpt lat="42.51242333" lon="1.55079333">
        <ele>1117.0</ele>
        <time>2019-08-04T09:01:26.322Z</time>
      </trkpt>
      <trkpt lat="42.51229167" lon="1.55057667">
        <ele>1114.0</ele>
        <time>2019-08-04T09:01:27.310Z</time>
      </trkpt>
      <trkpt lat="42.51229167" lon="1.55057667">
        <ele>1114.0</ele>
        <time>2019-08-04T09:01:28.303Z</time>
      </trkpt>
      <trkpt lat="42.512155" lon="1.55044667">
        <ele>1112.0</ele>
        <time>2019-08-04T09:01:29.329Z</time>
      </trkpt>
      <trkpt lat="42.512065" lon="1.55042333">
        <ele>1111.0</ele>
        <time>2019-08-04T09:01:30.296Z</time>
      </trkpt>
      <trkpt lat="42.512065" lon="1.55042333">
        <ele>1111.0</ele>
        <time>2019-08-04T09:01:31.323Z</time>
      </trkpt>
      <trkpt lat="42.51191833" lon="1.55029">
        <ele>1110.0</ele>
        <time>2019-08-04T09:01:32.323Z</time>
      </trkpt>
      <trkpt lat="42.51187833" lon="1.55019667">
        <ele>1109.0</ele>
        <time>2019-08-04T09:01:33.325Z</time>
      </trkpt>
      <trkpt lat="42.51187833" lon="1.55019667">
        <ele>1109.0</ele>
        <time>2019-08-04T09:01:34.319Z</time>
      </trkpt>
      <trkpt lat="42.511815" lon="1.55002">
        <ele>1108.0</ele>
        <time>2019-08-04T09:01:35.297Z</time>
      </trkpt>
      <trkpt lat="42.511815" lon="1.55002">
        <ele>1108.0</ele>
        <time>2019-08-04T09:01:36.321Z</time>
      </trkpt>
      <trkpt lat="42.51178333" lon="1.54987">
        <ele>1106.0</ele>
        <time>2019-08-04T09:01:37.303Z</time>
      </trkpt>
      <trkpt lat="42.51178333" lon="1.54987">
        <ele>1106.0</ele>
        <time>2019-08-04T09:01:38.322Z</time>
      </trkpt>
      <trkpt lat="42.51167167" lon="1.54971333">
        <ele>1105.0</ele>
        <time>2019-08-04T09:01:39.303Z</time>
      </trkpt>
      <trkpt lat="42.51163167" lon="1.54964833">
        <ele>1105.0</ele>
        <time>2019-08-04T09:01:40.324Z</time>
      </trkpt>
      <trkpt lat="42.51163167" lon="1.54964833">
        <ele>1105.0</ele>
        <time>2019-08-04T09:01:41.321Z</time>
      </trkpt>
      <trkpt lat="42.51158" lon="1.54956">
        <ele>1104.0</ele>
        <time>2019-08-04T09:01:42.324Z</time>
      </trkpt>
      <trkpt lat="42.51158" lon="1.54956">
        <ele>1104.0</ele>
        <time>2019-08-04T09:01:43.320Z</time>
      </trkpt>
      <trkpt lat="42.51159667" lon="1.54949833">
        <ele>1104.0</ele>
        <time>2019-08-04T09:01:44.299Z</time>
      </trkpt>
      <trkpt lat="42.51157333" lon="1.54945833">
        <ele>1103.0</ele>
        <time>2019-08-04T09:01:45.325Z</time>
      </trkpt>
      <trkpt lat="42.51157333" lon="1.54945833">
        <ele>1103.0</ele>
        <time>2019-08-04T09:01:46.321Z</time>
      </trkpt>
      <trkpt lat="42.51152833" lon="1.54936">
        <ele>1102.0</ele>
        <time>2019-08-04T09:01:47.303Z</time>
      </trkpt>
      <trkpt lat="42.51152833" lon="1.54936">
        <ele>1102.0</ele>
        <time>2019-08-04T09:01:48.322Z</time>
      </trkpt>
      <trkpt lat="42.51147833" lon="1.54926167">
        <ele>1100.0</ele>
        <time>2019-08-04T09:01:49.303Z</time>
      </trkpt>
      <trkpt lat="42.51144833" lon="1.549205">
        <ele>1099.0</ele>
        <time>2019-08-04T09:01:50.325Z</time>
      </trkpt>
      <trkpt lat="42.51141667" lon="1.54915">
        <ele>1099.0</ele>
        <time>2019-08-04T09:01:51.328Z</time>
      </trkpt>
      <trkpt lat="42.51141667" lon="1.54915">
        <ele>1099.0</ele>
        <time>2019-08-04T09:01:52.325Z</time>
      </trkpt>
      <trkpt lat="42.51136" lon="1.549045">
        <ele>1098.0</ele>
        <time>2019-08-04T09:01:53.332Z</time>
      </trkpt>
      <trkpt lat="42.51133" lon="1.54897">
        <ele>1098.0</ele>
        <time>2019-08-04T09:01:54.325Z</time>
      </trkpt>
      <trkpt lat="42.51133" lon="1.54897">
        <ele>1098.0</ele>
        <time>2019-08-04T09:01:55.305Z</time>
      </trkpt>
      <trkpt lat="42.511265" lon="1.54881667">
        <ele>1101.0</ele>
        <time>2019-08-04T09:01:56.332Z</time>
      </trkpt>
      <trkpt lat="42.51123333" lon="1.54875">
        <ele>1102.0</ele>
        <time>2019-08-04T09:01:57.303Z</time>
      </trkpt>
      <trkpt lat="42.51123333" lon="1.54875">
        <ele>1102.0</ele>
        <time>2019-08-04T09:01:58.335Z</time>
      </trkpt>
      <trkpt lat="42.51117333" lon="1.548645">
        <ele>1103.0</ele>
        <time>2019-08-04T09:01:59.324Z</time>
      </trkpt>
      <trkpt lat="42.511145" lon="1.54860333">
        <ele>1104.0</ele>
        <time>2019-08-04T09:02:00.298Z</time>
      </trkpt>
      <trkpt lat="42.511145" lon="1.54860333">
        <ele>1104.0</ele>
        <time>2019-08-04T09:02:01.322Z</time>
      </trkpt>
      <trkpt lat="42.51106667" lon="1.54855167">
        <ele>1105.0</ele>
        <time>2019-08-04T09:02:02.325Z</time>
      </trkpt>
      <trkpt lat="42.51102667" lon="1.54852833">
        <ele>1105.0</ele>
        <time>2019-08-04T09:02:03.324Z</time>
      </trkpt>
      <trkpt lat="42.51102667" lon="1.54852833">
        <ele>1105.0</ele>
        <time>2019-08-04T09:02:04.322Z</time>
      </trkpt>
      <trkpt lat="42.51095667" lon="1.54849333">
        <ele>1105.0</ele>
        <time>2019-08-04T09:02:05.324Z</time>
      </trkpt>
      <trkpt lat="42.51091667" lon="1.548475">
        <ele>1105.0</ele>
        <time>2019-08-04T09:02:06.325Z</time>
      </trkpt>
      <trkpt lat="42.51087833" lon="1.54845833">
        <ele>1105.0</ele>
        <time>2019-08-04T09:02:07.303Z</time>
      </trkpt>
      <trkpt lat="42.51087833" lon="1.54845833">
        <ele>1105.0</ele>
        <time>2019-08-04T09:02:08.323Z</time>
      </trkpt>
      <trkpt lat="42.51080833" lon="1.54843667">
        <ele>1105.0</ele>
        <time>2019-08-04T09:02:09.325Z</time>
      </trkpt>
      <trkpt lat="42.51080833" lon="1.54843667">
        <ele>1105.0</ele>
        <time>2019-08-04T09:02:10.322Z</time>
      </trkpt>
      <trkpt lat="42.51074167" lon="1.54839833">
        <ele>1106.0</ele>
        <time>2019-08-04T09:02:11.322Z</time>
      </trkpt>
      <trkpt lat="42.51074167" lon="1.54839833">
        <ele>1106.0</ele>
        <time>2019-08-04T09:02:12.319Z</time>
      </trkpt>
      <trkpt lat="42.51067167" lon="1.54836167">
        <ele>1107.0</ele>
        <time>2019-08-04T09:02:13.298Z</time>
      </trkpt>
      <trkpt lat="42.51067167" lon="1.54836167">
        <ele>1107.0</ele>
        <time>2019-08-04T09:02:14.321Z</time>
      </trkpt>
      <trkpt lat="42.51061" lon="1.548325">
        <ele>1108.0</ele>
        <time>2019-08-04T09:02:15.304Z</time>
      </trkpt>
      <trkpt lat="42.51058167" lon="1.54831167">
        <ele>1108.0</ele>
        <time>2019-08-04T09:02:16.326Z</time>
      </trkpt>
      <trkpt lat="42.51054833" lon="1.54829833">
        <ele>1108.0</ele>
        <time>2019-08-04T09:02:17.303Z</time>
      </trkpt>
      <trkpt lat="42.51054833" lon="1.54829833">
        <ele>1108.0</ele>
        <time>2019-08-04T09:02:18.324Z</time>
      </trkpt>
      <trkpt lat="42.51048833" lon="1.548275">
        <ele>1109.0</ele>
        <time>2019-08-04T09:02:19.325Z</time>
      </trkpt>
      <trkpt lat="42.51048833" lon="1.548275">
        <ele>1109.0</ele>
        <time>2019-08-04T09:02:20.304Z</time>
      </trkpt>
      <trkpt lat="42.51043833" lon="1.548255">
        <ele>1110.0</ele>
        <time>2019-08-04T09:02:21.327Z</time>
      </trkpt>
      <trkpt lat="42.51043833" lon="1.548255">
        <ele>1110.0</ele>
        <time>2019-08-04T09:02:22.322Z</time>
      </trkpt>
      <trkpt lat="42.51039" lon="1.54824">
        <ele>1111.0</ele>
        <time>2019-08-04T09:02:23.324Z</time>
      </trkpt>
      <trkpt lat="42.51039" lon="1.54824">
        <ele>1111.0</ele>
        <time>2019-08-04T09:02:24.321Z</time>
      </trkpt>
      <trkpt lat="42.51033667" lon="1.54823">
        <ele>1111.0</ele>
        <time>2019-08-04T09:02:25.303Z</time>
      </trkpt>
      <trkpt lat="42.51030833" lon="1.54822667">
        <ele>1112.0</ele>
        <time>2019-08-04T09:02:26.325Z</time>
      </trkpt>
      <trkpt lat="42.51028" lon="1.54822">
        <ele>1112.0</ele>
        <time>2019-08-04T09:02:27.303Z</time>
      </trkpt>
      <trkpt lat="42.51028" lon="1.54822">
        <ele>1112.0</ele>
        <time>2019-08-04T09:02:28.323Z</time>
      </trkpt>
      <trkpt lat="42.510235" lon="1.54818833">
        <ele>1112.0</ele>
        <time>2019-08-04T09:02:29.325Z</time>
      </trkpt>
      <trkpt lat="42.510235" lon="1.54818833">
        <ele>1112.0</ele>
        <time>2019-08-04T09:02:30.319Z</time>
      </trkpt>
      <trkpt lat="42.51018333" lon="1.54815">
        <ele>1112.0</ele>
        <time>2019-08-04T09:02:31.297Z</time>
      </trkpt>
      <trkpt lat="42.51018333" lon="1.54815">
        <ele>1112.0</ele>
        <time>2019-08-04T09:02:32.322Z</time>
      </trkpt>
      <trkpt lat="42.51012" lon="1.54810833">
        <ele>1112.0</ele>
        <time>2019-08-04T09:02:33.325Z</time>
      </trkpt>
      <trkpt lat="42.51012" lon="1.54810833">
        <ele>1112.0</ele>
        <time>2019-08-04T09:02:34.322Z</time>
      </trkpt>
      <trkpt lat="42.51005333" lon="1.548085">
        <ele>1112.0</ele>
        <time>2019-08-04T09:02:35.327Z</time>
      </trkpt>
      <trkpt lat="42.51005333" lon="1.548085">
        <ele>1112.0</ele>
        <time>2019-08-04T09:02:36.320Z</time>
      </trkpt>
      <trkpt lat="42.50998333" lon="1.54805833">
        <ele>1113.0</ele>
        <time>2019-08-04T09:02:37.310Z</time>
      </trkpt>
      <trkpt lat="42.50998333" lon="1.54805833">
        <ele>1113.0</ele>
        <time>2019-08-04T09:02:38.330Z</time>
      </trkpt>
      <trkpt lat="42.50991667" lon="1.54803667">
        <ele>1113.0</ele>
        <time>2019-08-04T09:02:39.325Z</time>
      </trkpt>
      <trkpt lat="42.50991667" lon="1.54803667">
        <ele>1113.0</ele>
        <time>2019-08-04T09:02:40.305Z</time>
      </trkpt>
      <trkpt lat="42.509835" lon="1.54800667">
        <ele>1114.0</ele>
        <time>2019-08-04T09:02:41.327Z</time>
      </trkpt>
      <trkpt lat="42.509835" lon="1.54800667">
        <ele>1114.0</ele>
        <time>2019-08-04T09:02:42.320Z</time>
      </trkpt>
      <trkpt lat="42.50973333" lon="1.54798">
        <ele>1114.0</ele>
        <time>2019-08-04T09:02:43.299Z</time>
      </trkpt>
      <trkpt lat="42.50973333" lon="1.54798">
        <ele>1114.0</ele>
        <time>2019-08-04T09:02:44.323Z</time>
      </trkpt>
      <trkpt lat="42.509625" lon="1.54794833">
        <ele>1114.0</ele>
        <time>2019-08-04T09:02:45.305Z</time>
      </trkpt>
      <trkpt lat="42.509625" lon="1.54794833">
        <ele>1114.0</ele>
        <time>2019-08-04T09:02:46.327Z</time>
      </trkpt>
      <trkpt lat="42.50950333" lon="1.54790667">
        <ele>1114.0</ele>
        <time>2019-08-04T09:02:47.303Z</time>
      </trkpt>
      <trkpt lat="42.50950333" lon="1.54790667">
        <ele>1114.0</ele>
        <time>2019-08-04T09:02:48.323Z</time>
      </trkpt>
      <trkpt lat="42.509355" lon="1.54785333">
        <ele>1114.0</ele>
        <time>2019-08-04T09:02:49.326Z</time>
      </trkpt>
      <trkpt lat="42.509355" lon="1.54785333">
        <ele>1114.0</ele>
        <time>2019-08-04T09:02:50.324Z</time>
      </trkpt>
      <trkpt lat="42.50918167" lon="1.54779167">
        <ele>1113.0</ele>
        <time>2019-08-04T09:02:51.326Z</time>
      </trkpt>
      <trkpt lat="42.50918167" lon="1.54779167">
        <ele>1113.0</ele>
        <time>2019-08-04T09:02:52.323Z</time>
      </trkpt>
      <trkpt lat="42.50899667" lon="1.54771833">
        <ele>1113.0</ele>
        <time>2019-08-04T09:02:53.325Z</time>
      </trkpt>
      <trkpt lat="42.50899667" lon="1.54771833">
        <ele>1113.0</ele>
        <time>2019-08-04T09:02:54.322Z</time>
      </trkpt>
      <trkpt lat="42.50881167" lon="1.54764">
        <ele>1112.0</ele>
        <time>2019-08-04T09:02:55.304Z</time>
      </trkpt>
      <trkpt lat="42.50881167" lon="1.54764">
        <ele>1112.0</ele>
        <time>2019-08-04T09:02:56.323Z</time>
      </trkpt>
      <trkpt lat="42.508635" lon="1.547525">
        <ele>1112.0</ele>
        <time>2019-08-04T09:02:57.305Z</time>
      </trkpt>
      <trkpt lat="42.508635" lon="1.547525">
        <ele>1112.0</ele>
        <time>2019-08-04T09:02:58.326Z</time>
      </trkpt>
      <trkpt lat="42.50849" lon="1.54735667">
        <ele>1111.0</ele>
        <time>2019-08-04T09:02:59.332Z</time>
      </trkpt>
      <trkpt lat="42.50849" lon="1.54735667">
        <ele>1111.0</ele>
        <time>2019-08-04T09:03:00.333Z</time>
      </trkpt>
      <trkpt lat="42.50837333" lon="1.54710167">
        <ele>1109.0</ele>
        <time>2019-08-04T09:03:01.326Z</time>
      </trkpt>
      <trkpt lat="42.50837333" lon="1.54710167">
        <ele>1109.0</ele>
        <time>2019-08-04T09:03:02.321Z</time>
      </trkpt>
      <trkpt lat="42.50827833" lon="1.54677167">
        <ele>1108.0</ele>
        <time>2019-08-04T09:03:03.299Z</time>
      </trkpt>
      <trkpt lat="42.50827833" lon="1.54677167">
        <ele>1108.0</ele>
        <time>2019-08-04T09:03:04.322Z</time>
      </trkpt>
      <trkpt lat="42.50822667" lon="1.54642">
        <ele>1107.0</ele>
        <time>2019-08-04T09:03:05.304Z</time>
      </trkpt>
      <trkpt lat="42.50822" lon="1.54623667">
        <ele>1107.0</ele>
        <time>2019-08-04T09:03:06.327Z</time>
      </trkpt>
      <trkpt lat="42.508225" lon="1.54605">
        <ele>1106.0</ele>
        <time>2019-08-04T09:03:07.303Z</time>
      </trkpt>
      <trkpt lat="42.508225" lon="1.54605">
        <ele>1106.0</ele>
        <time>2019-08-04T09:03:08.323Z</time>
      </trkpt>
      <trkpt lat="42.50838" lon="1.54570333">
        <ele>1105.0</ele>
        <time>2019-08-04T09:03:09.325Z</time>
      </trkpt>
      <trkpt lat="42.50838" lon="1.54570333">
        <ele>1105.0</ele>
        <time>2019-08-04T09:03:10.305Z</time>
      </trkpt>
      <trkpt lat="42.50853833" lon="1.54533">
        <ele>1104.0</ele>
        <time>2019-08-04T09:03:11.325Z</time>
      </trkpt>
      <trkpt lat="42.50859833" lon="1.54513333">
        <ele>1104.0</ele>
        <time>2019-08-04T09:03:12.325Z</time>
      </trkpt>
      <trkpt lat="42.50859833" lon="1.54513333">
        <ele>1104.0</ele>
        <time>2019-08-04T09:03:13.324Z</time>
      </trkpt>
      <trkpt lat="42.50866833" lon="1.54472333">
        <ele>1103.0</ele>
        <time>2019-08-04T09:03:14.324Z</time>
      </trkpt>
      <trkpt lat="42.50866833" lon="1.54472333">
        <ele>1103.0</ele>
        <time>2019-08-04T09:03:15.304Z</time>
      </trkpt>
      <trkpt lat="42.508705" lon="1.54434333">
        <ele>1102.0</ele>
        <time>2019-08-04T09:03:16.326Z</time>
      </trkpt>
      <trkpt lat="42.50871333" lon="1.54417167">
        <ele>1101.0</ele>
        <time>2019-08-04T09:03:17.304Z</time>
      </trkpt>
      <trkpt lat="42.50871333" lon="1.54417167">
        <ele>1101.0</ele>
        <time>2019-08-04T09:03:18.323Z</time>
      </trkpt>
      <trkpt lat="42.508605" lon="1.54385">
        <ele>1100.0</ele>
        <time>2019-08-04T09:03:19.326Z</time>
      </trkpt>
      <trkpt lat="42.508605" lon="1.54385">
        <ele>1100.0</ele>
        <time>2019-08-04T09:03:20.320Z</time>
      </trkpt>
      <trkpt lat="42.508515" lon="1.54348667">
        <ele>1099.0</ele>
        <time>2019-08-04T09:03:21.299Z</time>
      </trkpt>
      <trkpt lat="42.508515" lon="1.54348667">
        <ele>1099.0</ele>
        <time>2019-08-04T09:03:22.321Z</time>
      </trkpt>
      <trkpt lat="42.50844833" lon="1.543075">
        <ele>1099.0</ele>
        <time>2019-08-04T09:03:23.324Z</time>
      </trkpt>
      <trkpt lat="42.50844833" lon="1.543075">
        <ele>1099.0</ele>
        <time>2019-08-04T09:03:24.322Z</time>
      </trkpt>
      <trkpt lat="42.508395" lon="1.54265333">
        <ele>1098.0</ele>
        <time>2019-08-04T09:03:25.304Z</time>
      </trkpt>
      <trkpt lat="42.508395" lon="1.54265333">
        <ele>1098.0</ele>
        <time>2019-08-04T09:03:26.323Z</time>
      </trkpt>
      <trkpt lat="42.50832333" lon="1.54223333">
        <ele>1097.0</ele>
        <time>2019-08-04T09:03:27.327Z</time>
      </trkpt>
      <trkpt lat="42.50832333" lon="1.54223333">
        <ele>1097.0</ele>
        <time>2019-08-04T09:03:28.322Z</time>
      </trkpt>
      <trkpt lat="42.50823167" lon="1.54183167">
        <ele>1097.0</ele>
        <time>2019-08-04T09:03:29.322Z</time>
      </trkpt>
      <trkpt lat="42.50823167" lon="1.54183167">
        <ele>1097.0</ele>
        <time>2019-08-04T09:03:30.321Z</time>
      </trkpt>
      <trkpt lat="42.50814167" lon="1.541445">
        <ele>1096.0</ele>
        <time>2019-08-04T09:03:31.304Z</time>
      </trkpt>
      <trkpt lat="42.50814167" lon="1.541445">
        <ele>1096.0</ele>
        <time>2019-08-04T09:03:32.324Z</time>
      </trkpt>
      <trkpt lat="42.508055" lon="1.54105833">
        <ele>1094.0</ele>
        <time>2019-08-04T09:03:33.327Z</time>
      </trkpt>
      <trkpt lat="42.508055" lon="1.54105833">
        <ele>1094.0</ele>
        <time>2019-08-04T09:03:34.319Z</time>
      </trkpt>
      <trkpt lat="42.50796667" lon="1.54066833">
        <ele>1093.0</ele>
        <time>2019-08-04T09:03:35.298Z</time>
      </trkpt>
      <trkpt lat="42.50791" lon="1.54047333">
        <ele>1093.0</ele>
        <time>2019-08-04T09:03:36.325Z</time>
      </trkpt>
      <trkpt lat="42.507895" lon="1.54029">
        <ele>1092.0</ele>
        <time>2019-08-04T09:03:37.312Z</time>
      </trkpt>
      <trkpt lat="42.507895" lon="1.54029">
        <ele>1092.0</ele>
        <time>2019-08-04T09:03:38.332Z</time>
      </trkpt>
      <trkpt lat="42.50784667" lon="1.53993167">
        <ele>1091.0</ele>
        <time>2019-08-04T09:03:39.325Z</time>
      </trkpt>
      <trkpt lat="42.50784667" lon="1.53993167">
        <ele>1091.0</ele>
        <time>2019-08-04T09:03:40.324Z</time>
      </trkpt>
      <trkpt lat="42.50777333" lon="1.53958333">
        <ele>1090.0</ele>
        <time>2019-08-04T09:03:41.324Z</time>
      </trkpt>
      <trkpt lat="42.50777333" lon="1.53958333">
        <ele>1090.0</ele>
        <time>2019-08-04T09:03:42.322Z</time>
      </trkpt>
      <trkpt lat="42.50769167" lon="1.53923667">
        <ele>1088.0</ele>
        <time>2019-08-04T09:03:43.305Z</time>
      </trkpt>
      <trkpt lat="42.50764833" lon="1.53906">
        <ele>1087.0</ele>
        <time>2019-08-04T09:03:44.325Z</time>
      </trkpt>
      <trkpt lat="42.50764833" lon="1.53906">
        <ele>1087.0</ele>
        <time>2019-08-04T09:03:45.323Z</time>
      </trkpt>
      <trkpt lat="42.50756667" lon="1.53870833">
        <ele>1086.0</ele>
        <time>2019-08-04T09:03:46.326Z</time>
      </trkpt>
      <trkpt lat="42.50752167" lon="1.53854167">
        <ele>1085.0</ele>
        <time>2019-08-04T09:03:47.305Z</time>
      </trkpt>
      <trkpt lat="42.50752167" lon="1.53854167">
        <ele>1085.0</ele>
        <time>2019-08-04T09:03:48.324Z</time>
      </trkpt>
      <trkpt lat="42.50744833" lon="1.538215">
        <ele>1083.0</ele>
        <time>2019-08-04T09:03:49.326Z</time>
      </trkpt>
      <trkpt lat="42.50744833" lon="1.538215">
        <ele>1083.0</ele>
        <time>2019-08-04T09:03:50.322Z</time>
      </trkpt>
      <trkpt lat="42.50741167" lon="1.53787667">
        <ele>1082.0</ele>
        <time>2019-08-04T09:03:51.304Z</time>
      </trkpt>
      <trkpt lat="42.50741167" lon="1.53787667">
        <ele>1082.0</ele>
        <time>2019-08-04T09:03:52.324Z</time>
      </trkpt>
      <trkpt lat="42.50738833" lon="1.53755667">
        <ele>1081.0</ele>
        <time>2019-08-04T09:03:53.324Z</time>
      </trkpt>
      <trkpt lat="42.50738667" lon="1.53742667">
        <ele>1080.0</ele>
        <time>2019-08-04T09:03:54.325Z</time>
      </trkpt>
      <trkpt lat="42.50738167" lon="1.537315">
        <ele>1079.0</ele>
        <time>2019-08-04T09:03:55.327Z</time>
      </trkpt>
      <trkpt lat="42.50738167" lon="1.537315">
        <ele>1079.0</ele>
        <time>2019-08-04T09:03:56.320Z</time>
      </trkpt>
      <trkpt lat="42.507435" lon="1.53713333">
        <ele>1077.0</ele>
        <time>2019-08-04T09:03:57.304Z</time>
      </trkpt>
      <trkpt lat="42.507435" lon="1.53713333">
        <ele>1077.0</ele>
        <time>2019-08-04T09:03:58.323Z</time>
      </trkpt>
      <trkpt lat="42.50743167" lon="1.53690667">
        <ele>1075.0</ele>
        <time>2019-08-04T09:03:59.325Z</time>
      </trkpt>
      <trkpt lat="42.50743167" lon="1.53690667">
        <ele>1075.0</ele>
        <time>2019-08-04T09:04:00.308Z</time>
      </trkpt>
      <trkpt lat="42.50737667" lon="1.53667">
        <ele>1073.0</ele>
        <time>2019-08-04T09:04:01.327Z</time>
      </trkpt>
      <trkpt lat="42.50737667" lon="1.53667">
        <ele>1073.0</ele>
        <time>2019-08-04T09:04:02.323Z</time>
      </trkpt>
      <trkpt lat="42.50727" lon="1.53641333">
        <ele>1070.0</ele>
        <time>2019-08-04T09:04:03.323Z</time>
      </trkpt>
      <trkpt lat="42.50727" lon="1.53641333">
        <ele>1070.0</ele>
        <time>2019-08-04T09:04:04.323Z</time>
      </trkpt>
      <trkpt lat="42.50720167" lon="1.53611833">
        <ele>1068.0</ele>
        <time>2019-08-04T09:04:05.304Z</time>
      </trkpt>
      <trkpt lat="42.50711167" lon="1.53594833">
        <ele>1065.0</ele>
        <time>2019-08-04T09:04:06.325Z</time>
      </trkpt>
      <trkpt lat="42.50707" lon="1.53579">
        <ele>1064.0</ele>
        <time>2019-08-04T09:04:07.311Z</time>
      </trkpt>
      <trkpt lat="42.50707" lon="1.53579">
        <ele>1064.0</ele>
        <time>2019-08-04T09:04:08.332Z</time>
      </trkpt>
      <trkpt lat="42.50698" lon="1.53546167">
        <ele>1061.0</ele>
        <time>2019-08-04T09:04:09.325Z</time>
      </trkpt>
      <trkpt lat="42.50698" lon="1.53546167">
        <ele>1061.0</ele>
        <time>2019-08-04T09:04:10.334Z</time>
      </trkpt>
      <trkpt lat="42.506835" lon="1.53510833">
        <ele>1057.0</ele>
        <time>2019-08-04T09:04:11.328Z</time>
      </trkpt>
      <trkpt lat="42.506835" lon="1.53510833">
        <ele>1057.0</ele>
        <time>2019-08-04T09:04:12.322Z</time>
      </trkpt>
      <trkpt lat="42.50667333" lon="1.53475667">
        <ele>1052.0</ele>
        <time>2019-08-04T09:04:13.304Z</time>
      </trkpt>
      <trkpt lat="42.50667333" lon="1.53475667">
        <ele>1052.0</ele>
        <time>2019-08-04T09:04:14.324Z</time>
      </trkpt>
      <trkpt lat="42.50656667" lon="1.53442333">
        <ele>1049.0</ele>
        <time>2019-08-04T09:04:15.328Z</time>
      </trkpt>
      <trkpt lat="42.50656667" lon="1.53442333">
        <ele>1049.0</ele>
        <time>2019-08-04T09:04:16.323Z</time>
      </trkpt>
      <trkpt lat="42.50646667" lon="1.53408">
        <ele>1047.0</ele>
        <time>2019-08-04T09:04:17.311Z</time>
      </trkpt>
      <trkpt lat="42.50646667" lon="1.53408">
        <ele>1047.0</ele>
        <time>2019-08-04T09:04:18.330Z</time>
      </trkpt>
      <trkpt lat="42.50638833" lon="1.53371667">
        <ele>1044.0</ele>
        <time>2019-08-04T09:04:19.327Z</time>
      </trkpt>
      <trkpt lat="42.50638833" lon="1.53371667">
        <ele>1044.0</ele>
        <time>2019-08-04T09:04:20.321Z</time>
      </trkpt>
      <trkpt lat="42.506315" lon="1.53335667">
        <ele>1042.0</ele>
        <time>2019-08-04T09:04:21.296Z</time>
      </trkpt>
      <trkpt lat="42.506315" lon="1.53335667">
        <ele>1042.0</ele>
        <time>2019-08-04T09:04:22.325Z</time>
      </trkpt>
      <trkpt lat="42.50625167" lon="1.53299167">
        <ele>1040.0</ele>
        <time>2019-08-04T09:04:23.326Z</time>
      </trkpt>
      <trkpt lat="42.50625167" lon="1.53299167">
        <ele>1040.0</ele>
        <time>2019-08-04T09:04:24.319Z</time>
      </trkpt>
      <trkpt lat="42.50621" lon="1.53265">
        <ele>1038.0</ele>
        <time>2019-08-04T09:04:25.299Z</time>
      </trkpt>
      <trkpt lat="42.50621" lon="1.53265">
        <ele>1038.0</ele>
        <time>2019-08-04T09:04:26.307Z</time>
      </trkpt>
      <trkpt lat="42.50618" lon="1.53234">
        <ele>1036.0</ele>
        <time>2019-08-04T09:04:27.311Z</time>
      </trkpt>
      <trkpt lat="42.50618" lon="1.53234">
        <ele>1036.0</ele>
        <time>2019-08-04T09:04:28.304Z</time>
      </trkpt>
      <trkpt lat="42.50615" lon="1.53211167">
        <ele>1034.0</ele>
        <time>2019-08-04T09:04:29.326Z</time>
      </trkpt>
      <trkpt lat="42.50615" lon="1.53211167">
        <ele>1034.0</ele>
        <time>2019-08-04T09:04:30.322Z</time>
      </trkpt>
      <trkpt lat="42.50616167" lon="1.53194">
        <ele>1031.0</ele>
        <time>2019-08-04T09:04:31.305Z</time>
      </trkpt>
      <trkpt lat="42.50616167" lon="1.53194">
        <ele>1031.0</ele>
        <time>2019-08-04T09:04:32.325Z</time>
      </trkpt>
      <trkpt lat="42.50614" lon="1.531785">
        <ele>1030.0</ele>
        <time>2019-08-04T09:04:33.323Z</time>
      </trkpt>
      <trkpt lat="42.50614" lon="1.531785">
        <ele>1030.0</ele>
        <time>2019-08-04T09:04:34.324Z</time>
      </trkpt>
      <trkpt lat="42.50610333" lon="1.53164833">
        <ele>1028.0</ele>
        <time>2019-08-04T09:04:35.304Z</time>
      </trkpt>
      <trkpt lat="42.50608167" lon="1.53156833">
        <ele>1028.0</ele>
        <time>2019-08-04T09:04:36.325Z</time>
      </trkpt>
      <trkpt lat="42.50604667" lon="1.53145667">
        <ele>1027.0</ele>
        <time>2019-08-04T09:04:37.306Z</time>
      </trkpt>
      <trkpt lat="42.50604667" lon="1.53145667">
        <ele>1027.0</ele>
        <time>2019-08-04T09:04:38.325Z</time>
      </trkpt>
      <trkpt lat="42.50599833" lon="1.531235">
        <ele>1025.0</ele>
        <time>2019-08-04T09:04:39.325Z</time>
      </trkpt>
      <trkpt lat="42.50599833" lon="1.531235">
        <ele>1025.0</ele>
        <time>2019-08-04T09:04:40.305Z</time>
      </trkpt>
      <trkpt lat="42.50595333" lon="1.53100333">
        <ele>1023.0</ele>
        <time>2019-08-04T09:04:41.325Z</time>
      </trkpt>
      <trkpt lat="42.50595333" lon="1.53100333">
        <ele>1023.0</ele>
        <time>2019-08-04T09:04:42.320Z</time>
      </trkpt>
      <trkpt lat="42.50591833" lon="1.530795">
        <ele>1022.0</ele>
        <time>2019-08-04T09:04:43.299Z</time>
      </trkpt>
      <trkpt lat="42.50591833" lon="1.530795">
        <ele>1022.0</ele>
        <time>2019-08-04T09:04:44.322Z</time>
      </trkpt>
      <trkpt lat="42.505875" lon="1.53064167">
        <ele>1020.0</ele>
        <time>2019-08-04T09:04:45.305Z</time>
      </trkpt>
      <trkpt lat="42.505875" lon="1.53064167">
        <ele>1020.0</ele>
        <time>2019-08-04T09:04:46.326Z</time>
      </trkpt>
      <trkpt lat="42.505845" lon="1.53055667">
        <ele>1019.0</ele>
        <time>2019-08-04T09:04:47.304Z</time>
      </trkpt>
      <trkpt lat="42.505845" lon="1.53055667">
        <ele>1019.0</ele>
        <time>2019-08-04T09:04:48.324Z</time>
      </trkpt>
      <trkpt lat="42.50580833" lon="1.53050833">
        <ele>1018.0</ele>
        <time>2019-08-04T09:04:49.326Z</time>
      </trkpt>
      <trkpt lat="42.50580833" lon="1.53050833">
        <ele>1018.0</ele>
        <time>2019-08-04T09:04:50.323Z</time>
      </trkpt>
      <trkpt lat="42.50577167" lon="1.53046">
        <ele>1017.0</ele>
        <time>2019-08-04T09:04:51.305Z</time>
      </trkpt>
      <trkpt lat="42.50577167" lon="1.53046">
        <ele>1017.0</ele>
        <time>2019-08-04T09:04:52.326Z</time>
      </trkpt>
      <trkpt lat="42.50576333" lon="1.53042667">
        <ele>1016.0</ele>
        <time>2019-08-04T09:04:53.325Z</time>
      </trkpt>
      <trkpt lat="42.50576333" lon="1.53042667">
        <ele>1016.0</ele>
        <time>2019-08-04T09:04:54.304Z</time>
      </trkpt>
      <trkpt lat="42.50574333" lon="1.53038833">
        <ele>1015.0</ele>
        <time>2019-08-04T09:04:55.325Z</time>
      </trkpt>
      <trkpt lat="42.50574333" lon="1.53038833">
        <ele>1015.0</ele>
        <time>2019-08-04T09:04:56.320Z</time>
      </trkpt>
      <trkpt lat="42.50573833" lon="1.53037667">
        <ele>1014.0</ele>
        <time>2019-08-04T09:04:57.303Z</time>
      </trkpt>
      <trkpt lat="42.50573833" lon="1.53037667">
        <ele>1014.0</ele>
        <time>2019-08-04T09:04:58.324Z</time>
      </trkpt>
      <trkpt lat="42.50572167" lon="1.53037">
        <ele>1014.0</ele>
        <time>2019-08-04T09:04:59.325Z</time>
      </trkpt>
      <trkpt lat="42.50572167" lon="1.53037">
        <ele>1014.0</ele>
        <time>2019-08-04T09:05:00.307Z</time>
      </trkpt>
      <trkpt lat="42.50569167" lon="1.53028667">
        <ele>1012.0</ele>
        <time>2019-08-04T09:05:01.331Z</time>
      </trkpt>
      <trkpt lat="42.50569167" lon="1.53028667">
        <ele>1012.0</ele>
        <time>2019-08-04T09:05:02.333Z</time>
      </trkpt>
      <trkpt lat="42.50564167" lon="1.530215">
        <ele>1011.0</ele>
        <time>2019-08-04T09:05:03.315Z</time>
      </trkpt>
      <trkpt lat="42.50564167" lon="1.530215">
        <ele>1011.0</ele>
        <time>2019-08-04T09:05:04.334Z</time>
      </trkpt>
      <trkpt lat="42.50560167" lon="1.53010333">
        <ele>1010.0</ele>
        <time>2019-08-04T09:05:05.317Z</time>
      </trkpt>
      <trkpt lat="42.50560167" lon="1.53010333">
        <ele>1010.0</ele>
        <time>2019-08-04T09:05:06.297Z</time>
      </trkpt>
      <trkpt lat="42.505555" lon="1.529945">
        <ele>1010.0</ele>
        <time>2019-08-04T09:05:07.323Z</time>
      </trkpt>
      <trkpt lat="42.505555" lon="1.529945">
        <ele>1010.0</ele>
        <time>2019-08-04T09:05:08.322Z</time>
      </trkpt>
      <trkpt lat="42.505515" lon="1.529765">
        <ele>1009.0</ele>
        <time>2019-08-04T09:05:09.324Z</time>
      </trkpt>
      <trkpt lat="42.50545833" lon="1.52968667">
        <ele>1009.0</ele>
        <time>2019-08-04T09:05:10.304Z</time>
      </trkpt>
      <trkpt lat="42.50545833" lon="1.52968667">
        <ele>1009.0</ele>
        <time>2019-08-04T09:05:11.323Z</time>
      </trkpt>
      <trkpt lat="42.50540333" lon="1.52949833">
        <ele>1008.0</ele>
        <time>2019-08-04T09:05:12.311Z</time>
      </trkpt>
      <trkpt lat="42.50538333" lon="1.5294">
        <ele>1007.0</ele>
        <time>2019-08-04T09:05:13.331Z</time>
      </trkpt>
      <trkpt lat="42.50538333" lon="1.5294">
        <ele>1007.0</ele>
        <time>2019-08-04T09:05:14.333Z</time>
      </trkpt>
      <trkpt lat="42.50535167" lon="1.52919667">
        <ele>1007.0</ele>
        <time>2019-08-04T09:05:15.334Z</time>
      </trkpt>
      <trkpt lat="42.50535167" lon="1.52919667">
        <ele>1007.0</ele>
        <time>2019-08-04T09:05:16.335Z</time>
      </trkpt>
      <trkpt lat="42.50531667" lon="1.52898667">
        <ele>1006.0</ele>
        <time>2019-08-04T09:05:17.303Z</time>
      </trkpt>
      <trkpt lat="42.50530167" lon="1.52887833">
        <ele>1005.0</ele>
        <time>2019-08-04T09:05:18.303Z</time>
      </trkpt>
      <trkpt lat="42.50530167" lon="1.52887833">
        <ele>1005.0</ele>
        <time>2019-08-04T09:05:19.322Z</time>
      </trkpt>
      <trkpt lat="42.50527833" lon="1.52865667">
        <ele>1005.0</ele>
        <time>2019-08-04T09:05:20.303Z</time>
      </trkpt>
      <trkpt lat="42.50527833" lon="1.52865667">
        <ele>1005.0</ele>
        <time>2019-08-04T09:05:21.323Z</time>
      </trkpt>
      <trkpt lat="42.50522167" lon="1.52842833">
        <ele>1004.0</ele>
        <time>2019-08-04T09:05:22.305Z</time>
      </trkpt>
      <trkpt lat="42.50520333" lon="1.52830833">
        <ele>1003.0</ele>
        <time>2019-08-04T09:05:23.304Z</time>
      </trkpt>
      <trkpt lat="42.50520333" lon="1.52830833">
        <ele>1003.0</ele>
        <time>2019-08-04T09:05:24.323Z</time>
      </trkpt>
      <trkpt lat="42.50521833" lon="1.52807167">
        <ele>1003.0</ele>
        <time>2019-08-04T09:05:25.304Z</time>
      </trkpt>
      <trkpt lat="42.50521833" lon="1.52807167">
        <ele>1003.0</ele>
        <time>2019-08-04T09:05:26.324Z</time>
      </trkpt>
      <trkpt lat="42.50522833" lon="1.52785167">
        <ele>1002.0</ele>
        <time>2019-08-04T09:05:27.336Z</time>
      </trkpt>
      <trkpt lat="42.50523167" lon="1.52776833">
        <ele>1002.0</ele>
        <time>2019-08-04T09:05:28.304Z</time>
      </trkpt>
      <trkpt lat="42.50523167" lon="1.52776833">
        <ele>1002.0</ele>
        <time>2019-08-04T09:05:29.310Z</time>
      </trkpt>
      <trkpt lat="42.50528" lon="1.52759667">
        <ele>1001.0</ele>
        <time>2019-08-04T09:05:30.304Z</time>
      </trkpt>
      <trkpt lat="42.50528833" lon="1.52749333">
        <ele>1000.0</ele>
        <time>2019-08-04T09:05:31.328Z</time>
      </trkpt>
      <trkpt lat="42.50528833" lon="1.52749333">
        <ele>1000.0</ele>
        <time>2019-08-04T09:05:32.329Z</time>
      </trkpt>
      <trkpt lat="42.505255" lon="1.52727167">
        <ele>1000.0</ele>
        <time>2019-08-04T09:05:33.326Z</time>
      </trkpt>
      <trkpt lat="42.505255" lon="1.52727167">
        <ele>1000.0</ele>
        <time>2019-08-04T09:05:34.312Z</time>
      </trkpt>
      <trkpt lat="42.50524667" lon="1.52705333">
        <ele>999.0</ele>
        <time>2019-08-04T09:05:35.336Z</time>
      </trkpt>
      <trkpt lat="42.50524667" lon="1.52705333">
        <ele>999.0</ele>
        <time>2019-08-04T09:05:36.298Z</time>
      </trkpt>
      <trkpt lat="42.50527667" lon="1.526825">
        <ele>999.0</ele>
        <time>2019-08-04T09:05:37.332Z</time>
      </trkpt>
      <trkpt lat="42.50527667" lon="1.526825">
        <ele>999.0</ele>
        <time>2019-08-04T09:05:38.335Z</time>
      </trkpt>
      <trkpt lat="42.50529833" lon="1.52659833">
        <ele>999.0</ele>
        <time>2019-08-04T09:05:39.336Z</time>
      </trkpt>
      <trkpt lat="42.50529833" lon="1.52659833">
        <ele>999.0</ele>
        <time>2019-08-04T09:05:40.298Z</time>
      </trkpt>
      <trkpt lat="42.50526667" lon="1.52635667">
        <ele>998.0</ele>
        <time>2019-08-04T09:05:41.332Z</time>
      </trkpt>
      <trkpt lat="42.50526667" lon="1.52635667">
        <ele>998.0</ele>
        <time>2019-08-04T09:05:42.296Z</time>
      </trkpt>
      <trkpt lat="42.50522667" lon="1.5261">
        <ele>998.0</ele>
        <time>2019-08-04T09:05:43.305Z</time>
      </trkpt>
      <trkpt lat="42.50522667" lon="1.5261">
        <ele>998.0</ele>
        <time>2019-08-04T09:05:44.326Z</time>
      </trkpt>
      <trkpt lat="42.50519667" lon="1.52585">
        <ele>998.0</ele>
        <time>2019-08-04T09:05:45.334Z</time>
      </trkpt>
      <trkpt lat="42.50519667" lon="1.52585">
        <ele>998.0</ele>
        <time>2019-08-04T09:05:46.335Z</time>
      </trkpt>
      <trkpt lat="42.50518833" lon="1.52560833">
        <ele>998.0</ele>
        <time>2019-08-04T09:05:47.303Z</time>
      </trkpt>
      <trkpt lat="42.50518833" lon="1.52560833">
        <ele>998.0</ele>
        <time>2019-08-04T09:05:48.323Z</time>
      </trkpt>
      <trkpt lat="42.50515" lon="1.52535833">
        <ele>998.0</ele>
        <time>2019-08-04T09:05:49.326Z</time>
      </trkpt>
      <trkpt lat="42.50515" lon="1.52535833">
        <ele>998.0</ele>
        <time>2019-08-04T09:05:50.327Z</time>
      </trkpt>
      <trkpt lat="42.50513" lon="1.52511167">
        <ele>997.0</ele>
        <time>2019-08-04T09:05:51.296Z</time>
      </trkpt>
      <trkpt lat="42.50513" lon="1.52511167">
        <ele>997.0</ele>
        <time>2019-08-04T09:05:52.316Z</time>
      </trkpt>
      <trkpt lat="42.50511" lon="1.52486667">
        <ele>996.0</ele>
        <time>2019-08-04T09:05:53.321Z</time>
      </trkpt>
      <trkpt lat="42.50511" lon="1.52486667">
        <ele>996.0</ele>
        <time>2019-08-04T09:05:54.320Z</time>
      </trkpt>
      <trkpt lat="42.50506" lon="1.52462833">
        <ele>996.0</ele>
        <time>2019-08-04T09:05:55.322Z</time>
      </trkpt>
      <trkpt lat="42.50506" lon="1.52462833">
        <ele>996.0</ele>
        <time>2019-08-04T09:05:56.332Z</time>
      </trkpt>
      <trkpt lat="42.505025" lon="1.52438667">
        <ele>996.0</ele>
        <time>2019-08-04T09:05:57.335Z</time>
      </trkpt>
      <trkpt lat="42.505025" lon="1.52438667">
        <ele>996.0</ele>
        <time>2019-08-04T09:05:58.335Z</time>
      </trkpt>
      <trkpt lat="42.50497667" lon="1.52414667">
        <ele>995.0</ele>
        <time>2019-08-04T09:05:59.335Z</time>
      </trkpt>
      <trkpt lat="42.50495167" lon="1.524025">
        <ele>994.0</ele>
        <time>2019-08-04T09:06:00.330Z</time>
      </trkpt>
      <trkpt lat="42.50495167" lon="1.524025">
        <ele>994.0</ele>
        <time>2019-08-04T09:06:01.329Z</time>
      </trkpt>
      <trkpt lat="42.5049" lon="1.52378">
        <ele>994.0</ele>
        <time>2019-08-04T09:06:02.326Z</time>
      </trkpt>
      <trkpt lat="42.50487333" lon="1.52366">
        <ele>994.0</ele>
        <time>2019-08-04T09:06:03.316Z</time>
      </trkpt>
      <trkpt lat="42.50487333" lon="1.52366">
        <ele>994.0</ele>
        <time>2019-08-04T09:06:04.335Z</time>
      </trkpt>
      <trkpt lat="42.50482833" lon="1.523415">
        <ele>993.0</ele>
        <time>2019-08-04T09:06:05.306Z</time>
      </trkpt>
      <trkpt lat="42.50482833" lon="1.523415">
        <ele>993.0</ele>
        <time>2019-08-04T09:06:06.326Z</time>
      </trkpt>
      <trkpt lat="42.50479333" lon="1.52317167">
        <ele>993.0</ele>
        <time>2019-08-04T09:06:07.325Z</time>
      </trkpt>
      <trkpt lat="42.50479333" lon="1.52317167">
        <ele>993.0</ele>
        <time>2019-08-04T09:06:08.321Z</time>
      </trkpt>
      <trkpt lat="42.50475833" lon="1.52293167">
        <ele>992.0</ele>
        <time>2019-08-04T09:06:09.303Z</time>
      </trkpt>
      <trkpt lat="42.50475833" lon="1.52293167">
        <ele>992.0</ele>
        <time>2019-08-04T09:06:10.322Z</time>
      </trkpt>
      <trkpt lat="42.50472833" lon="1.52271167">
        <ele>991.0</ele>
        <time>2019-08-04T09:06:11.303Z</time>
      </trkpt>
      <trkpt lat="42.50472833" lon="1.52271167">
        <ele>991.0</ele>
        <time>2019-08-04T09:06:12.326Z</time>
      </trkpt>
      <trkpt lat="42.50472667" lon="1.52248167">
        <ele>991.0</ele>
        <time>2019-08-04T09:06:13.319Z</time>
      </trkpt>
      <trkpt lat="42.50472667" lon="1.52248167">
        <ele>991.0</ele>
        <time>2019-08-04T09:06:14.298Z</time>
      </trkpt>
      <trkpt lat="42.504775" lon="1.52224333">
        <ele>991.0</ele>
        <time>2019-08-04T09:06:15.330Z</time>
      </trkpt>
      <trkpt lat="42.504775" lon="1.52224333">
        <ele>991.0</ele>
        <time>2019-08-04T09:06:16.331Z</time>
      </trkpt>
      <trkpt lat="42.50474833" lon="1.52201333">
        <ele>991.0</ele>
        <time>2019-08-04T09:06:17.332Z</time>
      </trkpt>
      <trkpt lat="42.50474833" lon="1.52201333">
        <ele>991.0</ele>
        <time>2019-08-04T09:06:18.332Z</time>
      </trkpt>
      <trkpt lat="42.50464" lon="1.521825">
        <ele>992.0</ele>
        <time>2019-08-04T09:06:19.332Z</time>
      </trkpt>
      <trkpt lat="42.50464" lon="1.521825">
        <ele>992.0</ele>
        <time>2019-08-04T09:06:20.323Z</time>
      </trkpt>
      <trkpt lat="42.504565" lon="1.52163667">
        <ele>991.0</ele>
        <time>2019-08-04T09:06:21.326Z</time>
      </trkpt>
      <trkpt lat="42.50452833" lon="1.52152667">
        <ele>991.0</ele>
        <time>2019-08-04T09:06:22.304Z</time>
      </trkpt>
      <trkpt lat="42.50452833" lon="1.52152667">
        <ele>991.0</ele>
        <time>2019-08-04T09:06:23.323Z</time>
      </trkpt>
      <trkpt lat="42.50445667" lon="1.52129833">
        <ele>991.0</ele>
        <time>2019-08-04T09:06:24.311Z</time>
      </trkpt>
      <trkpt lat="42.50445667" lon="1.52129833">
        <ele>991.0</ele>
        <time>2019-08-04T09:06:25.333Z</time>
      </trkpt>
      <trkpt lat="42.504375" lon="1.52107667">
        <ele>991.0</ele>
        <time>2019-08-04T09:06:26.335Z</time>
      </trkpt>
      <trkpt lat="42.50432667" lon="1.52097">
        <ele>991.0</ele>
        <time>2019-08-04T09:06:27.304Z</time>
      </trkpt>
      <trkpt lat="42.504275" lon="1.520865">
        <ele>992.0</ele>
        <time>2019-08-04T09:06:28.306Z</time>
      </trkpt>
      <trkpt lat="42.504275" lon="1.520865">
        <ele>992.0</ele>
        <time>2019-08-04T09:06:29.313Z</time>
      </trkpt>
      <trkpt lat="42.50417667" lon="1.52064833">
        <ele>993.0</ele>
        <time>2019-08-04T09:06:30.335Z</time>
      </trkpt>
      <trkpt lat="42.50412667" lon="1.52053833">
        <ele>993.0</ele>
        <time>2019-08-04T09:06:31.304Z</time>
      </trkpt>
      <trkpt lat="42.50412667" lon="1.52053833">
        <ele>993.0</ele>
        <time>2019-08-04T09:06:32.323Z</time>
      </trkpt>
      <trkpt lat="42.50403167" lon="1.52030833">
        <ele>993.0</ele>
        <time>2019-08-04T09:06:33.306Z</time>
      </trkpt>
      <trkpt lat="42.50403167" lon="1.52030833">
        <ele>993.0</ele>
        <time>2019-08-04T09:06:34.326Z</time>
      </trkpt>
      <trkpt lat="42.50393833" lon="1.52008">
        <ele>993.0</ele>
        <time>2019-08-04T09:06:35.321Z</time>
      </trkpt>
      <trkpt lat="42.50393833" lon="1.52008">
        <ele>993.0</ele>
        <time>2019-08-04T09:06:36.320Z</time>
      </trkpt>
      <trkpt lat="42.50385667" lon="1.51984333">
        <ele>993.0</ele>
        <time>2019-08-04T09:06:37.297Z</time>
      </trkpt>
      <trkpt lat="42.50385667" lon="1.51984333">
        <ele>993.0</ele>
        <time>2019-08-04T09:06:38.316Z</time>
      </trkpt>
      <trkpt lat="42.503835" lon="1.51958">
        <ele>993.0</ele>
        <time>2019-08-04T09:06:39.306Z</time>
      </trkpt>
      <trkpt lat="42.503835" lon="1.51958">
        <ele>993.0</ele>
        <time>2019-08-04T09:06:40.325Z</time>
      </trkpt>
      <trkpt lat="42.50382167" lon="1.51931667">
        <ele>993.0</ele>
        <time>2019-08-04T09:06:41.326Z</time>
      </trkpt>
      <trkpt lat="42.50382167" lon="1.51931667">
        <ele>993.0</ele>
        <time>2019-08-04T09:06:42.327Z</time>
      </trkpt>
      <trkpt lat="42.50375" lon="1.51908">
        <ele>993.0</ele>
        <time>2019-08-04T09:06:43.312Z</time>
      </trkpt>
      <trkpt lat="42.50375" lon="1.51908">
        <ele>993.0</ele>
        <time>2019-08-04T09:06:44.331Z</time>
      </trkpt>
      <trkpt lat="42.5037" lon="1.51883667">
        <ele>994.0</ele>
        <time>2019-08-04T09:06:45.330Z</time>
      </trkpt>
      <trkpt lat="42.5037" lon="1.51883667">
        <ele>994.0</ele>
        <time>2019-08-04T09:06:46.330Z</time>
      </trkpt>
      <trkpt lat="42.50370667" lon="1.51857833">
        <ele>994.0</ele>
        <time>2019-08-04T09:06:47.328Z</time>
      </trkpt>
      <trkpt lat="42.50370667" lon="1.51857833">
        <ele>994.0</ele>
        <time>2019-08-04T09:06:48.327Z</time>
      </trkpt>
      <trkpt lat="42.50372833" lon="1.51831833">
        <ele>994.0</ele>
        <time>2019-08-04T09:06:49.330Z</time>
      </trkpt>
      <trkpt lat="42.50372833" lon="1.51831833">
        <ele>994.0</ele>
        <time>2019-08-04T09:06:50.329Z</time>
      </trkpt>
      <trkpt lat="42.50374" lon="1.51805333">
        <ele>994.0</ele>
        <time>2019-08-04T09:06:51.327Z</time>
      </trkpt>
      <trkpt lat="42.50374667" lon="1.51792333">
        <ele>994.0</ele>
        <time>2019-08-04T09:06:52.328Z</time>
      </trkpt>
      <trkpt lat="42.50375333" lon="1.51779333">
        <ele>994.0</ele>
        <time>2019-08-04T09:06:53.323Z</time>
      </trkpt>
      <trkpt lat="42.50375333" lon="1.51779333">
        <ele>994.0</ele>
        <time>2019-08-04T09:06:54.321Z</time>
      </trkpt>
      <trkpt lat="42.50377" lon="1.51753667">
        <ele>994.0</ele>
        <time>2019-08-04T09:06:55.325Z</time>
      </trkpt>
      <trkpt lat="42.50377" lon="1.51753667">
        <ele>994.0</ele>
        <time>2019-08-04T09:06:56.333Z</time>
      </trkpt>
      <trkpt lat="42.50377833" lon="1.51728333">
        <ele>994.0</ele>
        <time>2019-08-04T09:06:57.297Z</time>
      </trkpt>
      <trkpt lat="42.50377833" lon="1.51728333">
        <ele>994.0</ele>
        <time>2019-08-04T09:06:58.313Z</time>
      </trkpt>
      <trkpt lat="42.503775" lon="1.51702667">
        <ele>994.0</ele>
        <time>2019-08-04T09:06:59.303Z</time>
      </trkpt>
      <trkpt lat="42.503775" lon="1.51702667">
        <ele>994.0</ele>
        <time>2019-08-04T09:07:00.322Z</time>
      </trkpt>
      <trkpt lat="42.50374667" lon="1.51677333">
        <ele>993.0</ele>
        <time>2019-08-04T09:07:01.324Z</time>
      </trkpt>
      <trkpt lat="42.50374667" lon="1.51677333">
        <ele>993.0</ele>
        <time>2019-08-04T09:07:02.320Z</time>
      </trkpt>
      <trkpt lat="42.50369667" lon="1.516525">
        <ele>992.0</ele>
        <time>2019-08-04T09:07:03.322Z</time>
      </trkpt>
      <trkpt lat="42.50369667" lon="1.516525">
        <ele>992.0</ele>
        <time>2019-08-04T09:07:04.322Z</time>
      </trkpt>
      <trkpt lat="42.503615" lon="1.51628667">
        <ele>992.0</ele>
        <time>2019-08-04T09:07:05.304Z</time>
      </trkpt>
      <trkpt lat="42.503615" lon="1.51628667">
        <ele>992.0</ele>
        <time>2019-08-04T09:07:06.327Z</time>
      </trkpt>
      <trkpt lat="42.503505" lon="1.51606">
        <ele>992.0</ele>
        <time>2019-08-04T09:07:07.333Z</time>
      </trkpt>
      <trkpt lat="42.50344" lon="1.51595167">
        <ele>992.0</ele>
        <time>2019-08-04T09:07:08.332Z</time>
      </trkpt>
      <trkpt lat="42.50344" lon="1.51595167">
        <ele>992.0</ele>
        <time>2019-08-04T09:07:09.298Z</time>
      </trkpt>
      <trkpt lat="42.50329667" lon="1.51575167">
        <ele>991.0</ele>
        <time>2019-08-04T09:07:10.305Z</time>
      </trkpt>
      <trkpt lat="42.503225" lon="1.515655">
        <ele>991.0</ele>
        <time>2019-08-04T09:07:11.311Z</time>
      </trkpt>
      <trkpt lat="42.503225" lon="1.515655">
        <ele>991.0</ele>
        <time>2019-08-04T09:07:12.332Z</time>
      </trkpt>
      <trkpt lat="42.50308667" lon="1.515455">
        <ele>990.0</ele>
        <time>2019-08-04T09:07:13.329Z</time>
      </trkpt>
      <trkpt lat="42.50308667" lon="1.515455">
        <ele>990.0</ele>
        <time>2019-08-04T09:07:14.329Z</time>
      </trkpt>
      <trkpt lat="42.50294833" lon="1.51525167">
        <ele>989.0</ele>
        <time>2019-08-04T09:07:15.327Z</time>
      </trkpt>
      <trkpt lat="42.50294833" lon="1.51525167">
        <ele>989.0</ele>
        <time>2019-08-04T09:07:16.304Z</time>
      </trkpt>
      <trkpt lat="42.50281833" lon="1.51504667">
        <ele>989.0</ele>
        <time>2019-08-04T09:07:17.328Z</time>
      </trkpt>
      <trkpt lat="42.50281833" lon="1.51504667">
        <ele>989.0</ele>
        <time>2019-08-04T09:07:18.329Z</time>
      </trkpt>
      <trkpt lat="42.50269833" lon="1.51482167">
        <ele>988.0</ele>
        <time>2019-08-04T09:07:19.327Z</time>
      </trkpt>
      <trkpt lat="42.50269833" lon="1.51482167">
        <ele>988.0</ele>
        <time>2019-08-04T09:07:20.327Z</time>
      </trkpt>
      <trkpt lat="42.502595" lon="1.51457333">
        <ele>987.0</ele>
        <time>2019-08-04T09:07:21.333Z</time>
      </trkpt>
      <trkpt lat="42.502595" lon="1.51457333">
        <ele>987.0</ele>
        <time>2019-08-04T09:07:22.335Z</time>
      </trkpt>
      <trkpt lat="42.50249833" lon="1.51430667">
        <ele>987.0</ele>
        <time>2019-08-04T09:07:23.316Z</time>
      </trkpt>
      <trkpt lat="42.50249833" lon="1.51430667">
        <ele>987.0</ele>
        <time>2019-08-04T09:07:24.335Z</time>
      </trkpt>
      <trkpt lat="42.502385" lon="1.51404667">
        <ele>986.0</ele>
        <time>2019-08-04T09:07:25.334Z</time>
      </trkpt>
      <trkpt lat="42.50231" lon="1.51392333">
        <ele>986.0</ele>
        <time>2019-08-04T09:07:26.303Z</time>
      </trkpt>
      <trkpt lat="42.50231" lon="1.51392333">
        <ele>986.0</ele>
        <time>2019-08-04T09:07:27.325Z</time>
      </trkpt>
      <trkpt lat="42.502145" lon="1.51372">
        <ele>985.0</ele>
        <time>2019-08-04T09:07:28.327Z</time>
      </trkpt>
      <trkpt lat="42.502055" lon="1.513635">
        <ele>984.0</ele>
        <time>2019-08-04T09:07:29.312Z</time>
      </trkpt>
      <trkpt lat="42.502055" lon="1.513635">
        <ele>984.0</ele>
        <time>2019-08-04T09:07:30.332Z</time>
      </trkpt>
      <trkpt lat="42.501875" lon="1.51348">
        <ele>984.0</ele>
        <time>2019-08-04T09:07:31.305Z</time>
      </trkpt>
      <trkpt lat="42.501875" lon="1.51348">
        <ele>984.0</ele>
        <time>2019-08-04T09:07:32.324Z</time>
      </trkpt>
      <trkpt lat="42.50169333" lon="1.51333333">
        <ele>983.0</ele>
        <time>2019-08-04T09:07:33.312Z</time>
      </trkpt>
      <trkpt lat="42.50169333" lon="1.51333333">
        <ele>983.0</ele>
        <time>2019-08-04T09:07:34.333Z</time>
      </trkpt>
      <trkpt lat="42.50151833" lon="1.51318833">
        <ele>983.0</ele>
        <time>2019-08-04T09:07:35.333Z</time>
      </trkpt>
      <trkpt lat="42.50151833" lon="1.51318833">
        <ele>983.0</ele>
        <time>2019-08-04T09:07:36.333Z</time>
      </trkpt>
      <trkpt lat="42.50134333" lon="1.513045">
        <ele>983.0</ele>
        <time>2019-08-04T09:07:37.333Z</time>
      </trkpt>
      <trkpt lat="42.50134333" lon="1.513045">
        <ele>983.0</ele>
        <time>2019-08-04T09:07:38.335Z</time>
      </trkpt>
      <trkpt lat="42.501155" lon="1.51290833">
        <ele>983.0</ele>
        <time>2019-08-04T09:07:39.332Z</time>
      </trkpt>
      <trkpt lat="42.501155" lon="1.51290833">
        <ele>983.0</ele>
        <time>2019-08-04T09:07:40.333Z</time>
      </trkpt>
      <trkpt lat="42.50097" lon="1.51276667">
        <ele>983.0</ele>
        <time>2019-08-04T09:07:41.307Z</time>
      </trkpt>
      <trkpt lat="42.50097" lon="1.51276667">
        <ele>983.0</ele>
        <time>2019-08-04T09:07:42.326Z</time>
      </trkpt>
      <trkpt lat="42.500775" lon="1.512625">
        <ele>982.0</ele>
        <time>2019-08-04T09:07:43.318Z</time>
      </trkpt>
      <trkpt lat="42.500775" lon="1.512625">
        <ele>982.0</ele>
        <time>2019-08-04T09:07:44.304Z</time>
      </trkpt>
      <trkpt lat="42.50057167" lon="1.51248167">
        <ele>982.0</ele>
        <time>2019-08-04T09:07:45.324Z</time>
      </trkpt>
      <trkpt lat="42.50057167" lon="1.51248167">
        <ele>982.0</ele>
        <time>2019-08-04T09:07:46.323Z</time>
      </trkpt>
      <trkpt lat="42.50036167" lon="1.51234">
        <ele>982.0</ele>
        <time>2019-08-04T09:07:47.323Z</time>
      </trkpt>
      <trkpt lat="42.50036167" lon="1.51234">
        <ele>982.0</ele>
        <time>2019-08-04T09:07:48.320Z</time>
      </trkpt>
      <trkpt lat="42.50016333" lon="1.51219833">
        <ele>983.0</ele>
        <time>2019-08-04T09:07:49.299Z</time>
      </trkpt>
      <trkpt lat="42.50016333" lon="1.51219833">
        <ele>983.0</ele>
        <time>2019-08-04T09:07:50.319Z</time>
      </trkpt>
      <trkpt lat="42.49997333" lon="1.51204833">
        <ele>983.0</ele>
        <time>2019-08-04T09:07:51.298Z</time>
      </trkpt>
      <trkpt lat="42.49997333" lon="1.51204833">
        <ele>983.0</ele>
        <time>2019-08-04T09:07:52.312Z</time>
      </trkpt>
      <trkpt lat="42.49979167" lon="1.51190167">
        <ele>983.0</ele>
        <time>2019-08-04T09:07:53.304Z</time>
      </trkpt>
      <trkpt lat="42.49979167" lon="1.51190167">
        <ele>983.0</ele>
        <time>2019-08-04T09:07:54.324Z</time>
      </trkpt>
      <trkpt lat="42.49961333" lon="1.511765">
        <ele>983.0</ele>
        <time>2019-08-04T09:07:55.305Z</time>
      </trkpt>
      <trkpt lat="42.49961333" lon="1.511765">
        <ele>983.0</ele>
        <time>2019-08-04T09:07:56.333Z</time>
      </trkpt>
      <trkpt lat="42.49943833" lon="1.511635">
        <ele>982.0</ele>
        <time>2019-08-04T09:07:57.320Z</time>
      </trkpt>
      <trkpt lat="42.49943833" lon="1.511635">
        <ele>982.0</ele>
        <time>2019-08-04T09:07:58.299Z</time>
      </trkpt>
      <trkpt lat="42.49926167" lon="1.511495">
        <ele>982.0</ele>
        <time>2019-08-04T09:07:59.297Z</time>
      </trkpt>
      <trkpt lat="42.49926167" lon="1.511495">
        <ele>982.0</ele>
        <time>2019-08-04T09:08:00.318Z</time>
      </trkpt>
      <trkpt lat="42.49907833" lon="1.51136">
        <ele>982.0</ele>
        <time>2019-08-04T09:08:01.305Z</time>
      </trkpt>
      <trkpt lat="42.49907833" lon="1.51136">
        <ele>982.0</ele>
        <time>2019-08-04T09:08:02.325Z</time>
      </trkpt>
      <trkpt lat="42.49890333" lon="1.51122833">
        <ele>982.0</ele>
        <time>2019-08-04T09:08:03.304Z</time>
      </trkpt>
      <trkpt lat="42.49890333" lon="1.51122833">
        <ele>982.0</ele>
        <time>2019-08-04T09:08:04.323Z</time>
      </trkpt>
      <trkpt lat="42.49872833" lon="1.51108833">
        <ele>982.0</ele>
        <time>2019-08-04T09:08:05.304Z</time>
      </trkpt>
      <trkpt lat="42.49872833" lon="1.51108833">
        <ele>982.0</ele>
        <time>2019-08-04T09:08:06.325Z</time>
      </trkpt>
      <trkpt lat="42.498555" lon="1.51095">
        <ele>982.0</ele>
        <time>2019-08-04T09:08:07.305Z</time>
      </trkpt>
      <trkpt lat="42.498555" lon="1.51095">
        <ele>982.0</ele>
        <time>2019-08-04T09:08:08.324Z</time>
      </trkpt>
      <trkpt lat="42.49838667" lon="1.51080333">
        <ele>982.0</ele>
        <time>2019-08-04T09:08:09.324Z</time>
      </trkpt>
      <trkpt lat="42.49838667" lon="1.51080333">
        <ele>982.0</ele>
        <time>2019-08-04T09:08:10.321Z</time>
      </trkpt>
      <trkpt lat="42.498225" lon="1.51064667">
        <ele>982.0</ele>
        <time>2019-08-04T09:08:11.304Z</time>
      </trkpt>
      <trkpt lat="42.498225" lon="1.51064667">
        <ele>982.0</ele>
        <time>2019-08-04T09:08:12.324Z</time>
      </trkpt>
      <trkpt lat="42.49806833" lon="1.51047333">
        <ele>982.0</ele>
        <time>2019-08-04T09:08:13.306Z</time>
      </trkpt>
      <trkpt lat="42.49806833" lon="1.51047333">
        <ele>982.0</ele>
        <time>2019-08-04T09:08:14.325Z</time>
      </trkpt>
      <trkpt lat="42.49792833" lon="1.51027167">
        <ele>982.0</ele>
        <time>2019-08-04T09:08:15.326Z</time>
      </trkpt>
      <trkpt lat="42.49792833" lon="1.51027167">
        <ele>982.0</ele>
        <time>2019-08-04T09:08:16.325Z</time>
      </trkpt>
      <trkpt lat="42.4978" lon="1.51006833">
        <ele>983.0</ele>
        <time>2019-08-04T09:08:17.304Z</time>
      </trkpt>
      <trkpt lat="42.4978" lon="1.51006833">
        <ele>983.0</ele>
        <time>2019-08-04T09:08:18.324Z</time>
      </trkpt>
      <trkpt lat="42.49768833" lon="1.50986667">
        <ele>984.0</ele>
        <time>2019-08-04T09:08:19.305Z</time>
      </trkpt>
      <trkpt lat="42.49768833" lon="1.50986667">
        <ele>984.0</ele>
        <time>2019-08-04T09:08:20.325Z</time>
      </trkpt>
      <trkpt lat="42.49759333" lon="1.50966333">
        <ele>984.0</ele>
        <time>2019-08-04T09:08:21.326Z</time>
      </trkpt>
      <trkpt lat="42.49759333" lon="1.50966333">
        <ele>984.0</ele>
        <time>2019-08-04T09:08:22.325Z</time>
      </trkpt>
      <trkpt lat="42.497495" lon="1.50946">
        <ele>984.0</ele>
        <time>2019-08-04T09:08:23.304Z</time>
      </trkpt>
      <trkpt lat="42.497495" lon="1.50946">
        <ele>984.0</ele>
        <time>2019-08-04T09:08:24.324Z</time>
      </trkpt>
      <trkpt lat="42.49741167" lon="1.509255">
        <ele>984.0</ele>
        <time>2019-08-04T09:08:25.298Z</time>
      </trkpt>
      <trkpt lat="42.49741167" lon="1.509255">
        <ele>984.0</ele>
        <time>2019-08-04T09:08:26.319Z</time>
      </trkpt>
      <trkpt lat="42.49732333" lon="1.509045">
        <ele>984.0</ele>
        <time>2019-08-04T09:08:27.304Z</time>
      </trkpt>
      <trkpt lat="42.49732333" lon="1.509045">
        <ele>984.0</ele>
        <time>2019-08-04T09:08:28.325Z</time>
      </trkpt>
      <trkpt lat="42.49721167" lon="1.50882167">
        <ele>984.0</ele>
        <time>2019-08-04T09:08:29.332Z</time>
      </trkpt>
      <trkpt lat="42.49721167" lon="1.50882167">
        <ele>984.0</ele>
        <time>2019-08-04T09:08:30.335Z</time>
      </trkpt>
      <trkpt lat="42.49710833" lon="1.50858667">
        <ele>984.0</ele>
        <time>2019-08-04T09:08:31.335Z</time>
      </trkpt>
      <trkpt lat="42.49710833" lon="1.50858667">
        <ele>984.0</ele>
        <time>2019-08-04T09:08:32.307Z</time>
      </trkpt>
      <trkpt lat="42.49699167" lon="1.50833833">
        <ele>984.0</ele>
        <time>2019-08-04T09:08:33.324Z</time>
      </trkpt>
      <trkpt lat="42.49699167" lon="1.50833833">
        <ele>984.0</ele>
        <time>2019-08-04T09:08:34.322Z</time>
      </trkpt>
      <trkpt lat="42.49689" lon="1.50809">
        <ele>984.0</ele>
        <time>2019-08-04T09:08:35.322Z</time>
      </trkpt>
      <trkpt lat="42.49689" lon="1.50809">
        <ele>984.0</ele>
        <time>2019-08-04T09:08:36.304Z</time>
      </trkpt>
      <trkpt lat="42.496785" lon="1.507855">
        <ele>984.0</ele>
        <time>2019-08-04T09:08:37.305Z</time>
      </trkpt>
      <trkpt lat="42.496785" lon="1.507855">
        <ele>984.0</ele>
        <time>2019-08-04T09:08:38.325Z</time>
      </trkpt>
      <trkpt lat="42.49665667" lon="1.507615">
        <ele>984.0</ele>
        <time>2019-08-04T09:08:39.304Z</time>
      </trkpt>
      <trkpt lat="42.49665667" lon="1.507615">
        <ele>984.0</ele>
        <time>2019-08-04T09:08:40.328Z</time>
      </trkpt>
      <trkpt lat="42.49650333" lon="1.50737833">
        <ele>983.0</ele>
        <time>2019-08-04T09:08:41.299Z</time>
      </trkpt>
      <trkpt lat="42.49650333" lon="1.50737833">
        <ele>983.0</ele>
        <time>2019-08-04T09:08:42.319Z</time>
      </trkpt>
      <trkpt lat="42.496355" lon="1.50713667">
        <ele>983.0</ele>
        <time>2019-08-04T09:08:43.313Z</time>
      </trkpt>
      <trkpt lat="42.496355" lon="1.50713667">
        <ele>983.0</ele>
        <time>2019-08-04T09:08:44.332Z</time>
      </trkpt>
      <trkpt lat="42.49622167" lon="1.5069">
        <ele>983.0</ele>
        <time>2019-08-04T09:08:45.296Z</time>
      </trkpt>
      <trkpt lat="42.49622167" lon="1.5069">
        <ele>983.0</ele>
        <time>2019-08-04T09:08:46.316Z</time>
      </trkpt>
      <trkpt lat="42.49608833" lon="1.506675">
        <ele>983.0</ele>
        <time>2019-08-04T09:08:47.306Z</time>
      </trkpt>
      <trkpt lat="42.49608833" lon="1.506675">
        <ele>983.0</ele>
        <time>2019-08-04T09:08:48.326Z</time>
      </trkpt>
      <trkpt lat="42.49595833" lon="1.50645667">
        <ele>983.0</ele>
        <time>2019-08-04T09:08:49.298Z</time>
      </trkpt>
      <trkpt lat="42.49595833" lon="1.50645667">
        <ele>983.0</ele>
        <time>2019-08-04T09:08:50.319Z</time>
      </trkpt>
      <trkpt lat="42.49582333" lon="1.50623333">
        <ele>983.0</ele>
        <time>2019-08-04T09:08:51.304Z</time>
      </trkpt>
      <trkpt lat="42.49582333" lon="1.50623333">
        <ele>983.0</ele>
        <time>2019-08-04T09:08:52.323Z</time>
      </trkpt>
      <trkpt lat="42.495695" lon="1.50601667">
        <ele>983.0</ele>
        <time>2019-08-04T09:08:53.331Z</time>
      </trkpt>
      <trkpt lat="42.495695" lon="1.50601667">
        <ele>983.0</ele>
        <time>2019-08-04T09:08:54.334Z</time>
      </trkpt>
      <trkpt lat="42.49556667" lon="1.50580167">
        <ele>983.0</ele>
        <time>2019-08-04T09:08:55.296Z</time>
      </trkpt>
      <trkpt lat="42.49556667" lon="1.50580167">
        <ele>983.0</ele>
        <time>2019-08-04T09:08:56.324Z</time>
      </trkpt>
      <trkpt lat="42.49544667" lon="1.50560667">
        <ele>984.0</ele>
        <time>2019-08-04T09:08:57.304Z</time>
      </trkpt>
      <trkpt lat="42.49544667" lon="1.50560667">
        <ele>984.0</ele>
        <time>2019-08-04T09:08:58.324Z</time>
      </trkpt>
      <trkpt lat="42.49533167" lon="1.50540833">
        <ele>984.0</ele>
        <time>2019-08-04T09:08:59.298Z</time>
      </trkpt>
      <trkpt lat="42.49528667" lon="1.50530333">
        <ele>984.0</ele>
        <time>2019-08-04T09:09:00.332Z</time>
      </trkpt>
      <trkpt lat="42.49528667" lon="1.50530333">
        <ele>984.0</ele>
        <time>2019-08-04T09:09:01.298Z</time>
      </trkpt>
      <trkpt lat="42.49520833" lon="1.50508667">
        <ele>985.0</ele>
        <time>2019-08-04T09:09:02.333Z</time>
      </trkpt>
      <trkpt lat="42.49518167" lon="1.50498333">
        <ele>985.0</ele>
        <time>2019-08-04T09:09:03.313Z</time>
      </trkpt>
      <trkpt lat="42.49518167" lon="1.50498333">
        <ele>985.0</ele>
        <time>2019-08-04T09:09:04.332Z</time>
      </trkpt>
      <trkpt lat="42.49515167" lon="1.50476833">
        <ele>985.0</ele>
        <time>2019-08-04T09:09:05.332Z</time>
      </trkpt>
      <trkpt lat="42.49515167" lon="1.50476833">
        <ele>985.0</ele>
        <time>2019-08-04T09:09:06.323Z</time>
      </trkpt>
      <trkpt lat="42.49516167" lon="1.50455667">
        <ele>985.0</ele>
        <time>2019-08-04T09:09:07.312Z</time>
      </trkpt>
      <trkpt lat="42.49516167" lon="1.50455667">
        <ele>985.0</ele>
        <time>2019-08-04T09:09:08.331Z</time>
      </trkpt>
      <trkpt lat="42.49519333" lon="1.50434333">
        <ele>985.0</ele>
        <time>2019-08-04T09:09:09.307Z</time>
      </trkpt>
      <trkpt lat="42.49519333" lon="1.50434333">
        <ele>985.0</ele>
        <time>2019-08-04T09:09:10.327Z</time>
      </trkpt>
      <trkpt lat="42.49524167" lon="1.50412">
        <ele>985.0</ele>
        <time>2019-08-04T09:09:11.332Z</time>
      </trkpt>
      <trkpt lat="42.49524167" lon="1.50412">
        <ele>985.0</ele>
        <time>2019-08-04T09:09:12.335Z</time>
      </trkpt>
      <trkpt lat="42.49524333" lon="1.50387667">
        <ele>985.0</ele>
        <time>2019-08-04T09:09:13.325Z</time>
      </trkpt>
      <trkpt lat="42.49524333" lon="1.50387667">
        <ele>985.0</ele>
        <time>2019-08-04T09:09:14.323Z</time>
      </trkpt>
      <trkpt lat="42.49517667" lon="1.50361">
        <ele>984.0</ele>
        <time>2019-08-04T09:09:15.325Z</time>
      </trkpt>
      <trkpt lat="42.49517667" lon="1.50361">
        <ele>984.0</ele>
        <time>2019-08-04T09:09:16.325Z</time>
      </trkpt>
      <trkpt lat="42.495085" lon="1.50333833">
        <ele>983.0</ele>
        <time>2019-08-04T09:09:17.305Z</time>
      </trkpt>
      <trkpt lat="42.495085" lon="1.50333833">
        <ele>983.0</ele>
        <time>2019-08-04T09:09:18.327Z</time>
      </trkpt>
      <trkpt lat="42.49496333" lon="1.50308667">
        <ele>983.0</ele>
        <time>2019-08-04T09:09:19.327Z</time>
      </trkpt>
      <trkpt lat="42.49496333" lon="1.50308667">
        <ele>983.0</ele>
        <time>2019-08-04T09:09:20.328Z</time>
      </trkpt>
      <trkpt lat="42.494855" lon="1.50284333">
        <ele>982.0</ele>
        <time>2019-08-04T09:09:21.328Z</time>
      </trkpt>
      <trkpt lat="42.494855" lon="1.50284333">
        <ele>982.0</ele>
        <time>2019-08-04T09:09:22.327Z</time>
      </trkpt>
      <trkpt lat="42.494745" lon="1.50259167">
        <ele>982.0</ele>
        <time>2019-08-04T09:09:23.321Z</time>
      </trkpt>
      <trkpt lat="42.494745" lon="1.50259167">
        <ele>982.0</ele>
        <time>2019-08-04T09:09:24.304Z</time>
      </trkpt>
      <trkpt lat="42.49463667" lon="1.50234667">
        <ele>981.0</ele>
        <time>2019-08-04T09:09:25.298Z</time>
      </trkpt>
      <trkpt lat="42.49463667" lon="1.50234667">
        <ele>981.0</ele>
        <time>2019-08-04T09:09:26.318Z</time>
      </trkpt>
      <trkpt lat="42.49453167" lon="1.502095">
        <ele>981.0</ele>
        <time>2019-08-04T09:09:27.317Z</time>
      </trkpt>
      <trkpt lat="42.49453167" lon="1.502095">
        <ele>981.0</ele>
        <time>2019-08-04T09:09:28.296Z</time>
      </trkpt>
      <trkpt lat="42.49443333" lon="1.50182167">
        <ele>980.0</ele>
        <time>2019-08-04T09:09:29.333Z</time>
      </trkpt>
      <trkpt lat="42.49439" lon="1.50168667">
        <ele>980.0</ele>
        <time>2019-08-04T09:09:30.304Z</time>
      </trkpt>
      <trkpt lat="42.49439" lon="1.50168667">
        <ele>980.0</ele>
        <time>2019-08-04T09:09:31.323Z</time>
      </trkpt>
      <trkpt lat="42.49429167" lon="1.501425">
        <ele>980.0</ele>
        <time>2019-08-04T09:09:32.325Z</time>
      </trkpt>
      <trkpt lat="42.49423167" lon="1.501305">
        <ele>980.0</ele>
        <time>2019-08-04T09:09:33.305Z</time>
      </trkpt>
      <trkpt lat="42.49423167" lon="1.501305">
        <ele>980.0</ele>
        <time>2019-08-04T09:09:34.324Z</time>
      </trkpt>
      <trkpt lat="42.49411167" lon="1.501075">
        <ele>980.0</ele>
        <time>2019-08-04T09:09:35.305Z</time>
      </trkpt>
      <trkpt lat="42.49411167" lon="1.501075">
        <ele>980.0</ele>
        <time>2019-08-04T09:09:36.324Z</time>
      </trkpt>
      <trkpt lat="42.49401" lon="1.50082667">
        <ele>980.0</ele>
        <time>2019-08-04T09:09:37.326Z</time>
      </trkpt>
      <trkpt lat="42.49401" lon="1.50082667">
        <ele>980.0</ele>
        <time>2019-08-04T09:09:38.323Z</time>
      </trkpt>
      <trkpt lat="42.49388667" lon="1.5006">
        <ele>980.0</ele>
        <time>2019-08-04T09:09:39.299Z</time>
      </trkpt>
      <trkpt lat="42.49388667" lon="1.5006">
        <ele>980.0</ele>
        <time>2019-08-04T09:09:40.319Z</time>
      </trkpt>
      <trkpt lat="42.49373833" lon="1.50039833">
        <ele>980.0</ele>
        <time>2019-08-04T09:09:41.299Z</time>
      </trkpt>
      <trkpt lat="42.49373833" lon="1.50039833">
        <ele>980.0</ele>
        <time>2019-08-04T09:09:42.319Z</time>
      </trkpt>
      <trkpt lat="42.49359333" lon="1.50021">
        <ele>980.0</ele>
        <time>2019-08-04T09:09:43.326Z</time>
      </trkpt>
      <trkpt lat="42.49359333" lon="1.50021">
        <ele>980.0</ele>
        <time>2019-08-04T09:09:44.322Z</time>
      </trkpt>
      <trkpt lat="42.49345833" lon="1.50003333">
        <ele>981.0</ele>
        <time>2019-08-04T09:09:45.306Z</time>
      </trkpt>
      <trkpt lat="42.49345833" lon="1.50003333">
        <ele>981.0</ele>
        <time>2019-08-04T09:09:46.326Z</time>
      </trkpt>
      <trkpt lat="42.49333167" lon="1.499865">
        <ele>981.0</ele>
        <time>2019-08-04T09:09:47.328Z</time>
      </trkpt>
      <trkpt lat="42.49333167" lon="1.499865">
        <ele>981.0</ele>
        <time>2019-08-04T09:09:48.329Z</time>
      </trkpt>
      <trkpt lat="42.49321167" lon="1.499705">
        <ele>981.0</ele>
        <time>2019-08-04T09:09:49.332Z</time>
      </trkpt>
      <trkpt lat="42.49314833" lon="1.49962167">
        <ele>981.0</ele>
        <time>2019-08-04T09:09:50.330Z</time>
      </trkpt>
      <trkpt lat="42.49314833" lon="1.49962167">
        <ele>981.0</ele>
        <time>2019-08-04T09:09:51.330Z</time>
      </trkpt>
      <trkpt lat="42.49302833" lon="1.49945167">
        <ele>981.0</ele>
        <time>2019-08-04T09:09:52.327Z</time>
      </trkpt>
      <trkpt lat="42.49297" lon="1.49935667">
        <ele>981.0</ele>
        <time>2019-08-04T09:09:53.316Z</time>
      </trkpt>
      <trkpt lat="42.49297" lon="1.49935667">
        <ele>981.0</ele>
        <time>2019-08-04T09:09:54.297Z</time>
      </trkpt>
      <trkpt lat="42.49286" lon="1.49915667">
        <ele>981.0</ele>
        <time>2019-08-04T09:09:55.333Z</time>
      </trkpt>
      <trkpt lat="42.49281333" lon="1.49905667">
        <ele>981.0</ele>
        <time>2019-08-04T09:09:56.298Z</time>
      </trkpt>
      <trkpt lat="42.49281333" lon="1.49905667">
        <ele>981.0</ele>
        <time>2019-08-04T09:09:57.319Z</time>
      </trkpt>
      <trkpt lat="42.492725" lon="1.498865">
        <ele>981.0</ele>
        <time>2019-08-04T09:09:58.298Z</time>
      </trkpt>
      <trkpt lat="42.49268333" lon="1.498775">
        <ele>981.0</ele>
        <time>2019-08-04T09:09:59.331Z</time>
      </trkpt>
      <trkpt lat="42.49268333" lon="1.498775">
        <ele>981.0</ele>
        <time>2019-08-04T09:10:00.333Z</time>
      </trkpt>
      <trkpt lat="42.4926" lon="1.49858667">
        <ele>981.0</ele>
        <time>2019-08-04T09:10:01.331Z</time>
      </trkpt>
      <trkpt lat="42.4926" lon="1.49858667">
        <ele>981.0</ele>
        <time>2019-08-04T09:10:02.332Z</time>
      </trkpt>
      <trkpt lat="42.49251167" lon="1.49839333">
        <ele>981.0</ele>
        <time>2019-08-04T09:10:03.299Z</time>
      </trkpt>
      <trkpt lat="42.49251167" lon="1.49839333">
        <ele>981.0</ele>
        <time>2019-08-04T09:10:04.319Z</time>
      </trkpt>
      <trkpt lat="42.49241667" lon="1.49820667">
        <ele>981.0</ele>
        <time>2019-08-04T09:10:05.299Z</time>
      </trkpt>
      <trkpt lat="42.49241667" lon="1.49820667">
        <ele>981.0</ele>
        <time>2019-08-04T09:10:06.318Z</time>
      </trkpt>
      <trkpt lat="42.49231667" lon="1.49801833">
        <ele>981.0</ele>
        <time>2019-08-04T09:10:07.298Z</time>
      </trkpt>
      <trkpt lat="42.49231667" lon="1.49801833">
        <ele>981.0</ele>
        <time>2019-08-04T09:10:08.317Z</time>
      </trkpt>
      <trkpt lat="42.492195" lon="1.49782167">
        <ele>980.0</ele>
        <time>2019-08-04T09:10:09.307Z</time>
      </trkpt>
      <trkpt lat="42.492195" lon="1.49782167">
        <ele>980.0</ele>
        <time>2019-08-04T09:10:10.305Z</time>
      </trkpt>
      <trkpt lat="42.49206333" lon="1.49762">
        <ele>980.0</ele>
        <time>2019-08-04T09:10:11.330Z</time>
      </trkpt>
      <trkpt lat="42.49206333" lon="1.49762">
        <ele>980.0</ele>
        <time>2019-08-04T09:10:12.329Z</time>
      </trkpt>
      <trkpt lat="42.49192667" lon="1.49741">
        <ele>979.0</ele>
        <time>2019-08-04T09:10:13.313Z</time>
      </trkpt>
      <trkpt lat="42.49192667" lon="1.49741">
        <ele>979.0</ele>
        <time>2019-08-04T09:10:14.333Z</time>
      </trkpt>
      <trkpt lat="42.49176333" lon="1.49719333">
        <ele>978.0</ele>
        <time>2019-08-04T09:10:15.297Z</time>
      </trkpt>
      <trkpt lat="42.49168833" lon="1.497085">
        <ele>977.0</ele>
        <time>2019-08-04T09:10:16.330Z</time>
      </trkpt>
      <trkpt lat="42.49168833" lon="1.497085">
        <ele>977.0</ele>
        <time>2019-08-04T09:10:17.331Z</time>
      </trkpt>
      <trkpt lat="42.49153667" lon="1.49687167">
        <ele>976.0</ele>
        <time>2019-08-04T09:10:18.335Z</time>
      </trkpt>
      <trkpt lat="42.49153667" lon="1.49687167">
        <ele>976.0</ele>
        <time>2019-08-04T09:10:19.297Z</time>
      </trkpt>
      <trkpt lat="42.49139" lon="1.49665833">
        <ele>975.0</ele>
        <time>2019-08-04T09:10:20.329Z</time>
      </trkpt>
      <trkpt lat="42.49139" lon="1.49665833">
        <ele>975.0</ele>
        <time>2019-08-04T09:10:21.329Z</time>
      </trkpt>
      <trkpt lat="42.49122167" lon="1.49648833">
        <ele>974.0</ele>
        <time>2019-08-04T09:10:22.296Z</time>
      </trkpt>
      <trkpt lat="42.49122167" lon="1.49648833">
        <ele>974.0</ele>
        <time>2019-08-04T09:10:23.323Z</time>
      </trkpt>
      <trkpt lat="42.491025" lon="1.496385">
        <ele>973.0</ele>
        <time>2019-08-04T09:10:24.305Z</time>
      </trkpt>
      <trkpt lat="42.491025" lon="1.496385">
        <ele>973.0</ele>
        <time>2019-08-04T09:10:25.324Z</time>
      </trkpt>
      <trkpt lat="42.49081667" lon="1.49634">
        <ele>972.0</ele>
        <time>2019-08-04T09:10:26.324Z</time>
      </trkpt>
      <trkpt lat="42.49071" lon="1.49633667">
        <ele>971.0</ele>
        <time>2019-08-04T09:10:27.324Z</time>
      </trkpt>
      <trkpt lat="42.49071" lon="1.49633667">
        <ele>971.0</ele>
        <time>2019-08-04T09:10:28.323Z</time>
      </trkpt>
      <trkpt lat="42.49049" lon="1.49632833">
        <ele>970.0</ele>
        <time>2019-08-04T09:10:29.326Z</time>
      </trkpt>
      <trkpt lat="42.49038167" lon="1.496325">
        <ele>969.0</ele>
        <time>2019-08-04T09:10:30.327Z</time>
      </trkpt>
      <trkpt lat="42.49038167" lon="1.496325">
        <ele>969.0</ele>
        <time>2019-08-04T09:10:31.326Z</time>
      </trkpt>
      <trkpt lat="42.49018" lon="1.49630333">
        <ele>968.0</ele>
        <time>2019-08-04T09:10:32.305Z</time>
      </trkpt>
      <trkpt lat="42.49008167" lon="1.49629333">
        <ele>968.0</ele>
        <time>2019-08-04T09:10:33.324Z</time>
      </trkpt>
      <trkpt lat="42.49008167" lon="1.49629333">
        <ele>968.0</ele>
        <time>2019-08-04T09:10:34.320Z</time>
      </trkpt>
      <trkpt lat="42.48987833" lon="1.49618333">
        <ele>967.0</ele>
        <time>2019-08-04T09:10:35.299Z</time>
      </trkpt>
      <trkpt lat="42.48987833" lon="1.49618333">
        <ele>967.0</ele>
        <time>2019-08-04T09:10:36.319Z</time>
      </trkpt>
      <trkpt lat="42.48967833" lon="1.49603">
        <ele>966.0</ele>
        <time>2019-08-04T09:10:37.299Z</time>
      </trkpt>
      <trkpt lat="42.48958167" lon="1.49595">
        <ele>965.0</ele>
        <time>2019-08-04T09:10:38.322Z</time>
      </trkpt>
      <trkpt lat="42.48948667" lon="1.49586667">
        <ele>965.0</ele>
        <time>2019-08-04T09:10:39.305Z</time>
      </trkpt>
      <trkpt lat="42.48948667" lon="1.49586667">
        <ele>965.0</ele>
        <time>2019-08-04T09:10:40.321Z</time>
      </trkpt>
      <trkpt lat="42.48928333" lon="1.49570167">
        <ele>964.0</ele>
        <time>2019-08-04T09:10:41.305Z</time>
      </trkpt>
      <trkpt lat="42.48928333" lon="1.49570167">
        <ele>964.0</ele>
        <time>2019-08-04T09:10:42.333Z</time>
      </trkpt>
      <trkpt lat="42.48908167" lon="1.495535">
        <ele>963.0</ele>
        <time>2019-08-04T09:10:43.300Z</time>
      </trkpt>
      <trkpt lat="42.48908167" lon="1.495535">
        <ele>963.0</ele>
        <time>2019-08-04T09:10:44.322Z</time>
      </trkpt>
      <trkpt lat="42.48887" lon="1.49534833">
        <ele>962.0</ele>
        <time>2019-08-04T09:10:45.305Z</time>
      </trkpt>
      <trkpt lat="42.48887" lon="1.49534833">
        <ele>962.0</ele>
        <time>2019-08-04T09:10:46.324Z</time>
      </trkpt>
      <trkpt lat="42.48865667" lon="1.495165">
        <ele>960.0</ele>
        <time>2019-08-04T09:10:47.325Z</time>
      </trkpt>
      <trkpt lat="42.48865667" lon="1.495165">
        <ele>960.0</ele>
        <time>2019-08-04T09:10:48.321Z</time>
      </trkpt>
      <trkpt lat="42.48845" lon="1.49499667">
        <ele>959.0</ele>
        <time>2019-08-04T09:10:49.301Z</time>
      </trkpt>
      <trkpt lat="42.488345" lon="1.49492">
        <ele>959.0</ele>
        <time>2019-08-04T09:10:50.333Z</time>
      </trkpt>
      <trkpt lat="42.488345" lon="1.49492">
        <ele>959.0</ele>
        <time>2019-08-04T09:10:51.297Z</time>
      </trkpt>
      <trkpt lat="42.48812167" lon="1.494795">
        <ele>958.0</ele>
        <time>2019-08-04T09:10:52.330Z</time>
      </trkpt>
      <trkpt lat="42.48800333" lon="1.49474833">
        <ele>957.0</ele>
        <time>2019-08-04T09:10:53.322Z</time>
      </trkpt>
      <trkpt lat="42.48800333" lon="1.49474833">
        <ele>957.0</ele>
        <time>2019-08-04T09:10:54.322Z</time>
      </trkpt>
      <trkpt lat="42.48775667" lon="1.49470667">
        <ele>956.0</ele>
        <time>2019-08-04T09:10:55.296Z</time>
      </trkpt>
      <trkpt lat="42.48775667" lon="1.49470667">
        <ele>956.0</ele>
        <time>2019-08-04T09:10:56.329Z</time>
      </trkpt>
      <trkpt lat="42.48750167" lon="1.49472667">
        <ele>954.0</ele>
        <time>2019-08-04T09:10:57.297Z</time>
      </trkpt>
      <trkpt lat="42.48750167" lon="1.49472667">
        <ele>954.0</ele>
        <time>2019-08-04T09:10:58.319Z</time>
      </trkpt>
      <trkpt lat="42.487245" lon="1.49477333">
        <ele>953.0</ele>
        <time>2019-08-04T09:10:59.298Z</time>
      </trkpt>
      <trkpt lat="42.487245" lon="1.49477333">
        <ele>953.0</ele>
        <time>2019-08-04T09:11:00.320Z</time>
      </trkpt>
      <trkpt lat="42.48698333" lon="1.49477">
        <ele>952.0</ele>
        <time>2019-08-04T09:11:01.300Z</time>
      </trkpt>
      <trkpt lat="42.48698333" lon="1.49477">
        <ele>952.0</ele>
        <time>2019-08-04T09:11:02.320Z</time>
      </trkpt>
      <trkpt lat="42.48673167" lon="1.49471667">
        <ele>951.0</ele>
        <time>2019-08-04T09:11:03.313Z</time>
      </trkpt>
      <trkpt lat="42.48673167" lon="1.49471667">
        <ele>951.0</ele>
        <time>2019-08-04T09:11:04.333Z</time>
      </trkpt>
      <trkpt lat="42.48649333" lon="1.49461833">
        <ele>949.0</ele>
        <time>2019-08-04T09:11:05.332Z</time>
      </trkpt>
      <trkpt lat="42.48637667" lon="1.49455">
        <ele>949.0</ele>
        <time>2019-08-04T09:11:06.298Z</time>
      </trkpt>
      <trkpt lat="42.48626667" lon="1.49447667">
        <ele>948.0</ele>
        <time>2019-08-04T09:11:07.323Z</time>
      </trkpt>
      <trkpt lat="42.48626667" lon="1.49447667">
        <ele>948.0</ele>
        <time>2019-08-04T09:11:08.320Z</time>
      </trkpt>
      <trkpt lat="42.486065" lon="1.494305">
        <ele>946.0</ele>
        <time>2019-08-04T09:11:09.301Z</time>
      </trkpt>
      <trkpt lat="42.486065" lon="1.494305">
        <ele>946.0</ele>
        <time>2019-08-04T09:11:10.322Z</time>
      </trkpt>
      <trkpt lat="42.485875" lon="1.49410667">
        <ele>945.0</ele>
        <time>2019-08-04T09:11:11.324Z</time>
      </trkpt>
      <trkpt lat="42.485875" lon="1.49410667">
        <ele>945.0</ele>
        <time>2019-08-04T09:11:12.322Z</time>
      </trkpt>
      <trkpt lat="42.48569167" lon="1.4939">
        <ele>944.0</ele>
        <time>2019-08-04T09:11:13.326Z</time>
      </trkpt>
      <trkpt lat="42.48569167" lon="1.4939">
        <ele>944.0</ele>
        <time>2019-08-04T09:11:14.323Z</time>
      </trkpt>
      <trkpt lat="42.48552333" lon="1.493675">
        <ele>943.0</ele>
        <time>2019-08-04T09:11:15.326Z</time>
      </trkpt>
      <trkpt lat="42.48552333" lon="1.493675">
        <ele>943.0</ele>
        <time>2019-08-04T09:11:16.323Z</time>
      </trkpt>
      <trkpt lat="42.48537167" lon="1.49344667">
        <ele>943.0</ele>
        <time>2019-08-04T09:11:17.323Z</time>
      </trkpt>
      <trkpt lat="42.48537167" lon="1.49344667">
        <ele>943.0</ele>
        <time>2019-08-04T09:11:18.322Z</time>
      </trkpt>
      <trkpt lat="42.485225" lon="1.49323333">
        <ele>942.0</ele>
        <time>2019-08-04T09:11:19.299Z</time>
      </trkpt>
      <trkpt lat="42.48515667" lon="1.49312333">
        <ele>942.0</ele>
        <time>2019-08-04T09:11:20.323Z</time>
      </trkpt>
      <trkpt lat="42.48509167" lon="1.49302167">
        <ele>941.0</ele>
        <time>2019-08-04T09:11:21.305Z</time>
      </trkpt>
      <trkpt lat="42.48509167" lon="1.49302167">
        <ele>941.0</ele>
        <time>2019-08-04T09:11:22.324Z</time>
      </trkpt>
      <trkpt lat="42.48498167" lon="1.49284">
        <ele>941.0</ele>
        <time>2019-08-04T09:11:23.326Z</time>
      </trkpt>
      <trkpt lat="42.48498167" lon="1.49284">
        <ele>941.0</ele>
        <time>2019-08-04T09:11:24.322Z</time>
      </trkpt>
      <trkpt lat="42.48488" lon="1.49267333">
        <ele>940.0</ele>
        <time>2019-08-04T09:11:25.297Z</time>
      </trkpt>
      <trkpt lat="42.48488" lon="1.49267333">
        <ele>940.0</ele>
        <time>2019-08-04T09:11:26.317Z</time>
      </trkpt>
      <trkpt lat="42.48482" lon="1.49252">
        <ele>939.0</ele>
        <time>2019-08-04T09:11:27.300Z</time>
      </trkpt>
      <trkpt lat="42.48482" lon="1.49252">
        <ele>939.0</ele>
        <time>2019-08-04T09:11:28.321Z</time>
      </trkpt>
      <trkpt lat="42.48482833" lon="1.49244167">
        <ele>939.0</ele>
        <time>2019-08-04T09:11:29.323Z</time>
      </trkpt>
      <trkpt lat="42.48482833" lon="1.49244167">
        <ele>939.0</ele>
        <time>2019-08-04T09:11:30.325Z</time>
      </trkpt>
      <trkpt lat="42.48483833" lon="1.49241667">
        <ele>938.0</ele>
        <time>2019-08-04T09:11:31.322Z</time>
      </trkpt>
      <trkpt lat="42.48483833" lon="1.49241667">
        <ele>938.0</ele>
        <time>2019-08-04T09:11:32.300Z</time>
      </trkpt>
      <trkpt lat="42.48485" lon="1.49238333">
        <ele>937.0</ele>
        <time>2019-08-04T09:11:33.322Z</time>
      </trkpt>
      <trkpt lat="42.48485" lon="1.49238333">
        <ele>937.0</ele>
        <time>2019-08-04T09:11:34.301Z</time>
      </trkpt>
      <trkpt lat="42.48486833" lon="1.49233333">
        <ele>937.0</ele>
        <time>2019-08-04T09:11:35.298Z</time>
      </trkpt>
      <trkpt lat="42.48486833" lon="1.49233333">
        <ele>937.0</ele>
        <time>2019-08-04T09:11:36.329Z</time>
      </trkpt>
      <trkpt lat="42.484905" lon="1.49227333">
        <ele>936.0</ele>
        <time>2019-08-04T09:11:37.332Z</time>
      </trkpt>
      <trkpt lat="42.484905" lon="1.49227333">
        <ele>936.0</ele>
        <time>2019-08-04T09:11:38.335Z</time>
      </trkpt>
      <trkpt lat="42.48495167" lon="1.49214333">
        <ele>936.0</ele>
        <time>2019-08-04T09:11:39.334Z</time>
      </trkpt>
      <trkpt lat="42.48495167" lon="1.49214333">
        <ele>936.0</ele>
        <time>2019-08-04T09:11:40.336Z</time>
      </trkpt>
      <trkpt lat="42.484935" lon="1.492">
        <ele>935.0</ele>
        <time>2019-08-04T09:11:41.298Z</time>
      </trkpt>
      <trkpt lat="42.484935" lon="1.492">
        <ele>935.0</ele>
        <time>2019-08-04T09:11:42.318Z</time>
      </trkpt>
      <trkpt lat="42.484855" lon="1.49186167">
        <ele>935.0</ele>
        <time>2019-08-04T09:11:43.329Z</time>
      </trkpt>
      <trkpt lat="42.484855" lon="1.49186167">
        <ele>935.0</ele>
        <time>2019-08-04T09:11:44.329Z</time>
      </trkpt>
      <trkpt lat="42.48474667" lon="1.49176333">
        <ele>934.0</ele>
        <time>2019-08-04T09:11:45.330Z</time>
      </trkpt>
      <trkpt lat="42.48474667" lon="1.49176333">
        <ele>934.0</ele>
        <time>2019-08-04T09:11:46.330Z</time>
      </trkpt>
      <trkpt lat="42.48464" lon="1.49162333">
        <ele>933.0</ele>
        <time>2019-08-04T09:11:47.330Z</time>
      </trkpt>
      <trkpt lat="42.48464" lon="1.49162333">
        <ele>933.0</ele>
        <time>2019-08-04T09:11:48.330Z</time>
      </trkpt>
      <trkpt lat="42.484555" lon="1.49143833">
        <ele>933.0</ele>
        <time>2019-08-04T09:11:49.334Z</time>
      </trkpt>
      <trkpt lat="42.484555" lon="1.49143833">
        <ele>933.0</ele>
        <time>2019-08-04T09:11:50.296Z</time>
      </trkpt>
      <trkpt lat="42.48448667" lon="1.49123667">
        <ele>932.0</ele>
        <time>2019-08-04T09:11:51.315Z</time>
      </trkpt>
      <trkpt lat="42.48448667" lon="1.49123667">
        <ele>932.0</ele>
        <time>2019-08-04T09:11:52.334Z</time>
      </trkpt>
      <trkpt lat="42.484365" lon="1.491095">
        <ele>932.0</ele>
        <time>2019-08-04T09:11:53.311Z</time>
      </trkpt>
      <trkpt lat="42.484365" lon="1.491095">
        <ele>932.0</ele>
        <time>2019-08-04T09:11:54.331Z</time>
      </trkpt>
      <trkpt lat="42.48418667" lon="1.49099833">
        <ele>932.0</ele>
        <time>2019-08-04T09:11:55.335Z</time>
      </trkpt>
      <trkpt lat="42.48418667" lon="1.49099833">
        <ele>932.0</ele>
        <time>2019-08-04T09:11:56.298Z</time>
      </trkpt>
      <trkpt lat="42.48399667" lon="1.49088667">
        <ele>931.0</ele>
        <time>2019-08-04T09:11:57.332Z</time>
      </trkpt>
      <trkpt lat="42.4839" lon="1.490835">
        <ele>931.0</ele>
        <time>2019-08-04T09:11:58.332Z</time>
      </trkpt>
      <trkpt lat="42.4839" lon="1.490835">
        <ele>931.0</ele>
        <time>2019-08-04T09:11:59.334Z</time>
      </trkpt>
      <trkpt lat="42.48370833" lon="1.49071667">
        <ele>930.0</ele>
        <time>2019-08-04T09:12:00.307Z</time>
      </trkpt>
      <trkpt lat="42.48370833" lon="1.49071667">
        <ele>930.0</ele>
        <time>2019-08-04T09:12:01.298Z</time>
      </trkpt>
      <trkpt lat="42.48350333" lon="1.49058">
        <ele>929.0</ele>
        <time>2019-08-04T09:12:02.323Z</time>
      </trkpt>
      <trkpt lat="42.4834" lon="1.49051667">
        <ele>929.0</ele>
        <time>2019-08-04T09:12:03.297Z</time>
      </trkpt>
      <trkpt lat="42.4834" lon="1.49051667">
        <ele>929.0</ele>
        <time>2019-08-04T09:12:04.319Z</time>
      </trkpt>
      <trkpt lat="42.483175" lon="1.490395">
        <ele>929.0</ele>
        <time>2019-08-04T09:12:05.317Z</time>
      </trkpt>
      <trkpt lat="42.483175" lon="1.490395">
        <ele>929.0</ele>
        <time>2019-08-04T09:12:06.296Z</time>
      </trkpt>
      <trkpt lat="42.48294667" lon="1.49027167">
        <ele>929.0</ele>
        <time>2019-08-04T09:12:07.324Z</time>
      </trkpt>
      <trkpt lat="42.48294667" lon="1.49027167">
        <ele>929.0</ele>
        <time>2019-08-04T09:12:08.322Z</time>
      </trkpt>
      <trkpt lat="42.48271" lon="1.490135">
        <ele>927.0</ele>
        <time>2019-08-04T09:12:09.301Z</time>
      </trkpt>
      <trkpt lat="42.48271" lon="1.490135">
        <ele>927.0</ele>
        <time>2019-08-04T09:12:10.332Z</time>
      </trkpt>
      <trkpt lat="42.48247167" lon="1.489995">
        <ele>927.0</ele>
        <time>2019-08-04T09:12:11.297Z</time>
      </trkpt>
      <trkpt lat="42.48247167" lon="1.489995">
        <ele>927.0</ele>
        <time>2019-08-04T09:12:12.329Z</time>
      </trkpt>
      <trkpt lat="42.48223167" lon="1.48987667">
        <ele>926.0</ele>
        <time>2019-08-04T09:12:13.314Z</time>
      </trkpt>
      <trkpt lat="42.48223167" lon="1.48987667">
        <ele>926.0</ele>
        <time>2019-08-04T09:12:14.334Z</time>
      </trkpt>
      <trkpt lat="42.48199167" lon="1.48976333">
        <ele>925.0</ele>
        <time>2019-08-04T09:12:15.298Z</time>
      </trkpt>
      <trkpt lat="42.48187167" lon="1.48971167">
        <ele>925.0</ele>
        <time>2019-08-04T09:12:16.333Z</time>
      </trkpt>
      <trkpt lat="42.48187167" lon="1.48971167">
        <ele>925.0</ele>
        <time>2019-08-04T09:12:17.296Z</time>
      </trkpt>
      <trkpt lat="42.48162833" lon="1.48962167">
        <ele>924.0</ele>
        <time>2019-08-04T09:12:18.332Z</time>
      </trkpt>
      <trkpt lat="42.48151" lon="1.48959">
        <ele>923.0</ele>
        <time>2019-08-04T09:12:19.335Z</time>
      </trkpt>
      <trkpt lat="42.48151" lon="1.48959">
        <ele>923.0</ele>
        <time>2019-08-04T09:12:20.305Z</time>
      </trkpt>
      <trkpt lat="42.48127333" lon="1.48954333">
        <ele>922.0</ele>
        <time>2019-08-04T09:12:21.327Z</time>
      </trkpt>
      <trkpt lat="42.48127333" lon="1.48954333">
        <ele>922.0</ele>
        <time>2019-08-04T09:12:22.325Z</time>
      </trkpt>
      <trkpt lat="42.48103833" lon="1.489505">
        <ele>920.0</ele>
        <time>2019-08-04T09:12:23.333Z</time>
      </trkpt>
      <trkpt lat="42.48103833" lon="1.489505">
        <ele>920.0</ele>
        <time>2019-08-04T09:12:24.334Z</time>
      </trkpt>
      <trkpt lat="42.480815" lon="1.48947667">
        <ele>919.0</ele>
        <time>2019-08-04T09:12:25.298Z</time>
      </trkpt>
      <trkpt lat="42.480815" lon="1.48947667">
        <ele>919.0</ele>
        <time>2019-08-04T09:12:26.317Z</time>
      </trkpt>
      <trkpt lat="42.48059" lon="1.48944667">
        <ele>918.0</ele>
        <time>2019-08-04T09:12:27.319Z</time>
      </trkpt>
      <trkpt lat="42.48047333" lon="1.48942667">
        <ele>917.0</ele>
        <time>2019-08-04T09:12:28.314Z</time>
      </trkpt>
      <trkpt lat="42.48047333" lon="1.48942667">
        <ele>917.0</ele>
        <time>2019-08-04T09:12:29.320Z</time>
      </trkpt>
      <trkpt lat="42.480245" lon="1.48938667">
        <ele>917.0</ele>
        <time>2019-08-04T09:12:30.301Z</time>
      </trkpt>
      <trkpt lat="42.48012833" lon="1.48937167">
        <ele>916.0</ele>
        <time>2019-08-04T09:12:31.324Z</time>
      </trkpt>
      <trkpt lat="42.48012833" lon="1.48937167">
        <ele>916.0</ele>
        <time>2019-08-04T09:12:32.328Z</time>
      </trkpt>
      <trkpt lat="42.479895" lon="1.489365">
        <ele>915.0</ele>
        <time>2019-08-04T09:12:33.311Z</time>
      </trkpt>
      <trkpt lat="42.479895" lon="1.489365">
        <ele>915.0</ele>
        <time>2019-08-04T09:12:34.332Z</time>
      </trkpt>
      <trkpt lat="42.479675" lon="1.489395">
        <ele>914.0</ele>
        <time>2019-08-04T09:12:35.333Z</time>
      </trkpt>
      <trkpt lat="42.479675" lon="1.489395">
        <ele>914.0</ele>
        <time>2019-08-04T09:12:36.335Z</time>
      </trkpt>
      <trkpt lat="42.479465" lon="1.48945833">
        <ele>913.0</ele>
        <time>2019-08-04T09:12:37.307Z</time>
      </trkpt>
      <trkpt lat="42.479465" lon="1.48945833">
        <ele>913.0</ele>
        <time>2019-08-04T09:12:38.326Z</time>
      </trkpt>
      <trkpt lat="42.47925167" lon="1.48955333">
        <ele>913.0</ele>
        <time>2019-08-04T09:12:39.325Z</time>
      </trkpt>
      <trkpt lat="42.47925167" lon="1.48955333">
        <ele>913.0</ele>
        <time>2019-08-04T09:12:40.324Z</time>
      </trkpt>
      <trkpt lat="42.47904" lon="1.48966667">
        <ele>912.0</ele>
        <time>2019-08-04T09:12:41.335Z</time>
      </trkpt>
      <trkpt lat="42.47893833" lon="1.48973">
        <ele>912.0</ele>
        <time>2019-08-04T09:12:42.316Z</time>
      </trkpt>
      <trkpt lat="42.47883667" lon="1.48979">
        <ele>912.0</ele>
        <time>2019-08-04T09:12:43.335Z</time>
      </trkpt>
      <trkpt lat="42.47883667" lon="1.48979">
        <ele>912.0</ele>
        <time>2019-08-04T09:12:44.296Z</time>
      </trkpt>
      <trkpt lat="42.47863833" lon="1.48991167">
        <ele>911.0</ele>
        <time>2019-08-04T09:12:45.296Z</time>
      </trkpt>
      <trkpt lat="42.47854" lon="1.48997333">
        <ele>911.0</ele>
        <time>2019-08-04T09:12:46.316Z</time>
      </trkpt>
      <trkpt lat="42.47854" lon="1.48997333">
        <ele>911.0</ele>
        <time>2019-08-04T09:12:47.335Z</time>
      </trkpt>
      <trkpt lat="42.47834667" lon="1.490095">
        <ele>911.0</ele>
        <time>2019-08-04T09:12:48.296Z</time>
      </trkpt>
      <trkpt lat="42.47834667" lon="1.490095">
        <ele>911.0</ele>
        <time>2019-08-04T09:12:49.317Z</time>
      </trkpt>
      <trkpt lat="42.47815667" lon="1.49023333">
        <ele>912.0</ele>
        <time>2019-08-04T09:12:50.296Z</time>
      </trkpt>
      <trkpt lat="42.47807" lon="1.49029167">
        <ele>912.0</ele>
        <time>2019-08-04T09:12:51.305Z</time>
      </trkpt>
      <trkpt lat="42.47807" lon="1.49029167">
        <ele>912.0</ele>
        <time>2019-08-04T09:12:52.325Z</time>
      </trkpt>
      <trkpt lat="42.47791" lon="1.49039167">
        <ele>911.0</ele>
        <time>2019-08-04T09:12:53.324Z</time>
      </trkpt>
      <trkpt lat="42.47791" lon="1.49039167">
        <ele>911.0</ele>
        <time>2019-08-04T09:12:54.316Z</time>
      </trkpt>
      <trkpt lat="42.47776333" lon="1.49048667">
        <ele>911.0</ele>
        <time>2019-08-04T09:12:55.296Z</time>
      </trkpt>
      <trkpt lat="42.47768333" lon="1.49053333">
        <ele>911.0</ele>
        <time>2019-08-04T09:12:56.332Z</time>
      </trkpt>
      <trkpt lat="42.47768333" lon="1.49053333">
        <ele>911.0</ele>
        <time>2019-08-04T09:12:57.334Z</time>
      </trkpt>
      <trkpt lat="42.47753333" lon="1.490615">
        <ele>910.0</ele>
        <time>2019-08-04T09:12:58.333Z</time>
      </trkpt>
      <trkpt lat="42.47745167" lon="1.490645">
        <ele>910.0</ele>
        <time>2019-08-04T09:12:59.332Z</time>
      </trkpt>
      <trkpt lat="42.47745167" lon="1.490645">
        <ele>910.0</ele>
        <time>2019-08-04T09:13:00.336Z</time>
      </trkpt>
      <trkpt lat="42.47727667" lon="1.49069667">
        <ele>910.0</ele>
        <time>2019-08-04T09:13:01.297Z</time>
      </trkpt>
      <trkpt lat="42.47718667" lon="1.490715">
        <ele>910.0</ele>
        <time>2019-08-04T09:13:02.324Z</time>
      </trkpt>
      <trkpt lat="42.47710333" lon="1.49072">
        <ele>909.0</ele>
        <time>2019-08-04T09:13:03.306Z</time>
      </trkpt>
      <trkpt lat="42.47710333" lon="1.49072">
        <ele>909.0</ele>
        <time>2019-08-04T09:13:04.325Z</time>
      </trkpt>
      <trkpt lat="42.47696667" lon="1.49064667">
        <ele>910.0</ele>
        <time>2019-08-04T09:13:05.323Z</time>
      </trkpt>
      <trkpt lat="42.47696667" lon="1.49064667">
        <ele>910.0</ele>
        <time>2019-08-04T09:13:06.318Z</time>
      </trkpt>
      <trkpt lat="42.476845" lon="1.490475">
        <ele>911.0</ele>
        <time>2019-08-04T09:13:07.306Z</time>
      </trkpt>
      <trkpt lat="42.476845" lon="1.490475">
        <ele>911.0</ele>
        <time>2019-08-04T09:13:08.325Z</time>
      </trkpt>
      <trkpt lat="42.47672167" lon="1.49037833">
        <ele>911.0</ele>
        <time>2019-08-04T09:13:09.306Z</time>
      </trkpt>
      <trkpt lat="42.47672167" lon="1.49037833">
        <ele>911.0</ele>
        <time>2019-08-04T09:13:10.313Z</time>
      </trkpt>
      <trkpt lat="42.47657833" lon="1.49042167">
        <ele>911.0</ele>
        <time>2019-08-04T09:13:11.334Z</time>
      </trkpt>
      <trkpt lat="42.47657833" lon="1.49042167">
        <ele>911.0</ele>
        <time>2019-08-04T09:13:12.296Z</time>
      </trkpt>
      <trkpt lat="42.47646667" lon="1.49058167">
        <ele>910.0</ele>
        <time>2019-08-04T09:13:13.325Z</time>
      </trkpt>
      <trkpt lat="42.47646667" lon="1.49058167">
        <ele>910.0</ele>
        <time>2019-08-04T09:13:14.321Z</time>
      </trkpt>
      <trkpt lat="42.47631333" lon="1.49070833">
        <ele>910.0</ele>
        <time>2019-08-04T09:13:15.313Z</time>
      </trkpt>
      <trkpt lat="42.47631333" lon="1.49070833">
        <ele>910.0</ele>
        <time>2019-08-04T09:13:16.333Z</time>
      </trkpt>
      <trkpt lat="42.47614167" lon="1.490775">
        <ele>910.0</ele>
        <time>2019-08-04T09:13:17.299Z</time>
      </trkpt>
      <trkpt lat="42.47614167" lon="1.490775">
        <ele>910.0</ele>
        <time>2019-08-04T09:13:18.320Z</time>
      </trkpt>
      <trkpt lat="42.47596167" lon="1.49080333">
        <ele>909.0</ele>
        <time>2019-08-04T09:13:19.307Z</time>
      </trkpt>
      <trkpt lat="42.47596167" lon="1.49080333">
        <ele>909.0</ele>
        <time>2019-08-04T09:13:20.328Z</time>
      </trkpt>
      <trkpt lat="42.47576667" lon="1.49081333">
        <ele>909.0</ele>
        <time>2019-08-04T09:13:21.304Z</time>
      </trkpt>
      <trkpt lat="42.47576667" lon="1.49081333">
        <ele>909.0</ele>
        <time>2019-08-04T09:13:22.325Z</time>
      </trkpt>
      <trkpt lat="42.475555" lon="1.490825">
        <ele>909.0</ele>
        <time>2019-08-04T09:13:23.325Z</time>
      </trkpt>
      <trkpt lat="42.475555" lon="1.490825">
        <ele>909.0</ele>
        <time>2019-08-04T09:13:24.318Z</time>
      </trkpt>
      <trkpt lat="42.47533833" lon="1.490845">
        <ele>909.0</ele>
        <time>2019-08-04T09:13:25.299Z</time>
      </trkpt>
      <trkpt lat="42.47533833" lon="1.490845">
        <ele>909.0</ele>
        <time>2019-08-04T09:13:26.318Z</time>
      </trkpt>
      <trkpt lat="42.475115" lon="1.49086833">
        <ele>908.0</ele>
        <time>2019-08-04T09:13:27.301Z</time>
      </trkpt>
      <trkpt lat="42.475115" lon="1.49086833">
        <ele>908.0</ele>
        <time>2019-08-04T09:13:28.322Z</time>
      </trkpt>
      <trkpt lat="42.47492333" lon="1.49090333">
        <ele>908.0</ele>
        <time>2019-08-04T09:13:29.334Z</time>
      </trkpt>
      <trkpt lat="42.47492333" lon="1.49090333">
        <ele>908.0</ele>
        <time>2019-08-04T09:13:30.298Z</time>
      </trkpt>
      <trkpt lat="42.47471167" lon="1.49095333">
        <ele>907.0</ele>
        <time>2019-08-04T09:13:31.333Z</time>
      </trkpt>
      <trkpt lat="42.47471167" lon="1.49095333">
        <ele>907.0</ele>
        <time>2019-08-04T09:13:32.296Z</time>
      </trkpt>
      <trkpt lat="42.47450833" lon="1.49109167">
        <ele>907.0</ele>
        <time>2019-08-04T09:13:33.297Z</time>
      </trkpt>
      <trkpt lat="42.47450833" lon="1.49109167">
        <ele>907.0</ele>
        <time>2019-08-04T09:13:34.318Z</time>
      </trkpt>
      <trkpt lat="42.47432" lon="1.49125">
        <ele>907.0</ele>
        <time>2019-08-04T09:13:35.298Z</time>
      </trkpt>
      <trkpt lat="42.47432" lon="1.49125">
        <ele>907.0</ele>
        <time>2019-08-04T09:13:36.321Z</time>
      </trkpt>
      <trkpt lat="42.47417" lon="1.49146167">
        <ele>906.0</ele>
        <time>2019-08-04T09:13:37.300Z</time>
      </trkpt>
      <trkpt lat="42.47417" lon="1.49146167">
        <ele>906.0</ele>
        <time>2019-08-04T09:13:38.319Z</time>
      </trkpt>
      <trkpt lat="42.47405833" lon="1.49169167">
        <ele>906.0</ele>
        <time>2019-08-04T09:13:39.298Z</time>
      </trkpt>
      <trkpt lat="42.47405833" lon="1.49169167">
        <ele>906.0</ele>
        <time>2019-08-04T09:13:40.317Z</time>
      </trkpt>
      <trkpt lat="42.47396333" lon="1.49191167">
        <ele>905.0</ele>
        <time>2019-08-04T09:13:41.296Z</time>
      </trkpt>
      <trkpt lat="42.47396333" lon="1.49191167">
        <ele>905.0</ele>
        <time>2019-08-04T09:13:42.319Z</time>
      </trkpt>
      <trkpt lat="42.47388" lon="1.49213333">
        <ele>905.0</ele>
        <time>2019-08-04T09:13:43.334Z</time>
      </trkpt>
      <trkpt lat="42.47388" lon="1.49213333">
        <ele>905.0</ele>
        <time>2019-08-04T09:13:44.334Z</time>
      </trkpt>
      <trkpt lat="42.4738" lon="1.49234667">
        <ele>905.0</ele>
        <time>2019-08-04T09:13:45.297Z</time>
      </trkpt>
      <trkpt lat="42.4738" lon="1.49234667">
        <ele>905.0</ele>
        <time>2019-08-04T09:13:46.318Z</time>
      </trkpt>
      <trkpt lat="42.47372833" lon="1.49256167">
        <ele>905.0</ele>
        <time>2019-08-04T09:13:47.298Z</time>
      </trkpt>
      <trkpt lat="42.47372833" lon="1.49256167">
        <ele>905.0</ele>
        <time>2019-08-04T09:13:48.319Z</time>
      </trkpt>
      <trkpt lat="42.47365167" lon="1.49277667">
        <ele>904.0</ele>
        <time>2019-08-04T09:13:49.308Z</time>
      </trkpt>
      <trkpt lat="42.47365167" lon="1.49277667">
        <ele>904.0</ele>
        <time>2019-08-04T09:13:50.327Z</time>
      </trkpt>
      <trkpt lat="42.47355333" lon="1.49297333">
        <ele>904.0</ele>
        <time>2019-08-04T09:13:51.314Z</time>
      </trkpt>
      <trkpt lat="42.47355333" lon="1.49297333">
        <ele>904.0</ele>
        <time>2019-08-04T09:13:52.333Z</time>
      </trkpt>
      <trkpt lat="42.47343833" lon="1.49315167">
        <ele>904.0</ele>
        <time>2019-08-04T09:13:53.316Z</time>
      </trkpt>
      <trkpt lat="42.47343833" lon="1.49315167">
        <ele>904.0</ele>
        <time>2019-08-04T09:13:54.306Z</time>
      </trkpt>
      <trkpt lat="42.47331167" lon="1.49330667">
        <ele>904.0</ele>
        <time>2019-08-04T09:13:55.328Z</time>
      </trkpt>
      <trkpt lat="42.47331167" lon="1.49330667">
        <ele>904.0</ele>
        <time>2019-08-04T09:13:56.327Z</time>
      </trkpt>
      <trkpt lat="42.47316333" lon="1.49342333">
        <ele>904.0</ele>
        <time>2019-08-04T09:13:57.302Z</time>
      </trkpt>
      <trkpt lat="42.47316333" lon="1.49342333">
        <ele>904.0</ele>
        <time>2019-08-04T09:13:58.323Z</time>
      </trkpt>
      <trkpt lat="42.47299833" lon="1.49349833">
        <ele>904.0</ele>
        <time>2019-08-04T09:13:59.299Z</time>
      </trkpt>
      <trkpt lat="42.47299833" lon="1.49349833">
        <ele>904.0</ele>
        <time>2019-08-04T09:14:00.321Z</time>
      </trkpt>
      <trkpt lat="42.47285333" lon="1.493525">
        <ele>904.0</ele>
        <time>2019-08-04T09:14:01.301Z</time>
      </trkpt>
      <trkpt lat="42.47285333" lon="1.493525">
        <ele>904.0</ele>
        <time>2019-08-04T09:14:02.320Z</time>
      </trkpt>
      <trkpt lat="42.47270833" lon="1.49354">
        <ele>904.0</ele>
        <time>2019-08-04T09:14:03.325Z</time>
      </trkpt>
      <trkpt lat="42.47270833" lon="1.49354">
        <ele>904.0</ele>
        <time>2019-08-04T09:14:04.323Z</time>
      </trkpt>
      <trkpt lat="42.47258167" lon="1.49354333">
        <ele>903.0</ele>
        <time>2019-08-04T09:14:05.306Z</time>
      </trkpt>
      <trkpt lat="42.47258167" lon="1.49354333">
        <ele>903.0</ele>
        <time>2019-08-04T09:14:06.325Z</time>
      </trkpt>
      <trkpt lat="42.47245" lon="1.49354167">
        <ele>903.0</ele>
        <time>2019-08-04T09:14:07.307Z</time>
      </trkpt>
      <trkpt lat="42.47245" lon="1.49354167">
        <ele>903.0</ele>
        <time>2019-08-04T09:14:08.327Z</time>
      </trkpt>
      <trkpt lat="42.47231667" lon="1.49353333">
        <ele>903.0</ele>
        <time>2019-08-04T09:14:09.328Z</time>
      </trkpt>
      <trkpt lat="42.47231667" lon="1.49353333">
        <ele>903.0</ele>
        <time>2019-08-04T09:14:10.324Z</time>
      </trkpt>
      <trkpt lat="42.47218" lon="1.49352167">
        <ele>902.0</ele>
        <time>2019-08-04T09:14:11.323Z</time>
      </trkpt>
      <trkpt lat="42.47218" lon="1.49352167">
        <ele>902.0</ele>
        <time>2019-08-04T09:14:12.302Z</time>
      </trkpt>
      <trkpt lat="42.47203833" lon="1.493495">
        <ele>902.0</ele>
        <time>2019-08-04T09:14:13.327Z</time>
      </trkpt>
      <trkpt lat="42.47203833" lon="1.493495">
        <ele>902.0</ele>
        <time>2019-08-04T09:14:14.322Z</time>
      </trkpt>
      <trkpt lat="42.47190667" lon="1.49346">
        <ele>902.0</ele>
        <time>2019-08-04T09:14:15.306Z</time>
      </trkpt>
      <trkpt lat="42.47190667" lon="1.49346">
        <ele>902.0</ele>
        <time>2019-08-04T09:14:16.334Z</time>
      </trkpt>
      <trkpt lat="42.47178667" lon="1.4934">
        <ele>902.0</ele>
        <time>2019-08-04T09:14:17.333Z</time>
      </trkpt>
      <trkpt lat="42.47178667" lon="1.4934">
        <ele>902.0</ele>
        <time>2019-08-04T09:14:18.334Z</time>
      </trkpt>
      <trkpt lat="42.47167" lon="1.49333833">
        <ele>901.0</ele>
        <time>2019-08-04T09:14:19.296Z</time>
      </trkpt>
      <trkpt lat="42.47167" lon="1.49333833">
        <ele>901.0</ele>
        <time>2019-08-04T09:14:20.316Z</time>
      </trkpt>
      <trkpt lat="42.47153333" lon="1.49326333">
        <ele>902.0</ele>
        <time>2019-08-04T09:14:21.300Z</time>
      </trkpt>
      <trkpt lat="42.47153333" lon="1.49326333">
        <ele>902.0</ele>
        <time>2019-08-04T09:14:22.319Z</time>
      </trkpt>
      <trkpt lat="42.47139667" lon="1.49323667">
        <ele>902.0</ele>
        <time>2019-08-04T09:14:23.314Z</time>
      </trkpt>
      <trkpt lat="42.47139667" lon="1.49323667">
        <ele>902.0</ele>
        <time>2019-08-04T09:14:24.333Z</time>
      </trkpt>
      <trkpt lat="42.47127333" lon="1.49324">
        <ele>902.0</ele>
        <time>2019-08-04T09:14:25.331Z</time>
      </trkpt>
      <trkpt lat="42.47122" lon="1.49322667">
        <ele>902.0</ele>
        <time>2019-08-04T09:14:26.301Z</time>
      </trkpt>
      <trkpt lat="42.47122" lon="1.49322667">
        <ele>902.0</ele>
        <time>2019-08-04T09:14:27.321Z</time>
      </trkpt>
      <trkpt lat="42.471115" lon="1.49324">
        <ele>902.0</ele>
        <time>2019-08-04T09:14:28.303Z</time>
      </trkpt>
      <trkpt lat="42.471115" lon="1.49324">
        <ele>902.0</ele>
        <time>2019-08-04T09:14:29.300Z</time>
      </trkpt>
      <trkpt lat="42.47099" lon="1.493225">
        <ele>902.0</ele>
        <time>2019-08-04T09:14:30.326Z</time>
      </trkpt>
      <trkpt lat="42.47099" lon="1.493225">
        <ele>902.0</ele>
        <time>2019-08-04T09:14:31.322Z</time>
      </trkpt>
      <trkpt lat="42.47084167" lon="1.49319333">
        <ele>901.0</ele>
        <time>2019-08-04T09:14:32.297Z</time>
      </trkpt>
      <trkpt lat="42.470765" lon="1.49317667">
        <ele>901.0</ele>
        <time>2019-08-04T09:14:33.320Z</time>
      </trkpt>
      <trkpt lat="42.470765" lon="1.49317667">
        <ele>901.0</ele>
        <time>2019-08-04T09:14:34.298Z</time>
      </trkpt>
      <trkpt lat="42.47060167" lon="1.49314333">
        <ele>901.0</ele>
        <time>2019-08-04T09:14:35.324Z</time>
      </trkpt>
      <trkpt lat="42.47052" lon="1.49312333">
        <ele>901.0</ele>
        <time>2019-08-04T09:14:36.325Z</time>
      </trkpt>
      <trkpt lat="42.47052" lon="1.49312333">
        <ele>901.0</ele>
        <time>2019-08-04T09:14:37.321Z</time>
      </trkpt>
      <trkpt lat="42.47035333" lon="1.49308167">
        <ele>901.0</ele>
        <time>2019-08-04T09:14:38.302Z</time>
      </trkpt>
      <trkpt lat="42.47026833" lon="1.493045">
        <ele>901.0</ele>
        <time>2019-08-04T09:14:39.326Z</time>
      </trkpt>
      <trkpt lat="42.47026833" lon="1.493045">
        <ele>901.0</ele>
        <time>2019-08-04T09:14:40.322Z</time>
      </trkpt>
      <trkpt lat="42.470095" lon="1.492955">
        <ele>901.0</ele>
        <time>2019-08-04T09:14:41.319Z</time>
      </trkpt>
      <trkpt lat="42.470005" lon="1.49290167">
        <ele>900.0</ele>
        <time>2019-08-04T09:14:42.322Z</time>
      </trkpt>
      <trkpt lat="42.46991167" lon="1.49284333">
        <ele>900.0</ele>
        <time>2019-08-04T09:14:43.325Z</time>
      </trkpt>
      <trkpt lat="42.46991167" lon="1.49284333">
        <ele>900.0</ele>
        <time>2019-08-04T09:14:44.322Z</time>
      </trkpt>
      <trkpt lat="42.46973" lon="1.49277">
        <ele>900.0</ele>
        <time>2019-08-04T09:14:45.306Z</time>
      </trkpt>
      <trkpt lat="42.46973" lon="1.49277">
        <ele>900.0</ele>
        <time>2019-08-04T09:14:46.333Z</time>
      </trkpt>
      <trkpt lat="42.469575" lon="1.49272">
        <ele>899.0</ele>
        <time>2019-08-04T09:14:47.304Z</time>
      </trkpt>
      <trkpt lat="42.469575" lon="1.49272">
        <ele>899.0</ele>
        <time>2019-08-04T09:14:48.326Z</time>
      </trkpt>
      <trkpt lat="42.46944833" lon="1.49269667">
        <ele>899.0</ele>
        <time>2019-08-04T09:14:49.298Z</time>
      </trkpt>
      <trkpt lat="42.46944833" lon="1.49269667">
        <ele>899.0</ele>
        <time>2019-08-04T09:14:50.318Z</time>
      </trkpt>
      <trkpt lat="42.46936" lon="1.49267">
        <ele>898.0</ele>
        <time>2019-08-04T09:14:51.300Z</time>
      </trkpt>
      <trkpt lat="42.46936" lon="1.49267">
        <ele>898.0</ele>
        <time>2019-08-04T09:14:52.320Z</time>
      </trkpt>
      <trkpt lat="42.46927667" lon="1.49266667">
        <ele>898.0</ele>
        <time>2019-08-04T09:14:53.325Z</time>
      </trkpt>
      <trkpt lat="42.46927667" lon="1.49266667">
        <ele>898.0</ele>
        <time>2019-08-04T09:14:54.321Z</time>
      </trkpt>
      <trkpt lat="42.469255" lon="1.49264333">
        <ele>900.0</ele>
        <time>2019-08-04T09:14:55.301Z</time>
      </trkpt>
      <trkpt lat="42.469255" lon="1.49264333">
        <ele>900.0</ele>
        <time>2019-08-04T09:14:56.330Z</time>
      </trkpt>
      <trkpt lat="42.46922833" lon="1.49265167">
        <ele>900.0</ele>
        <time>2019-08-04T09:14:57.331Z</time>
      </trkpt>
      <trkpt lat="42.46922833" lon="1.49265167">
        <ele>900.0</ele>
        <time>2019-08-04T09:14:58.296Z</time>
      </trkpt>
      <trkpt lat="42.469195" lon="1.49266833">
        <ele>899.0</ele>
        <time>2019-08-04T09:14:59.315Z</time>
      </trkpt>
      <trkpt lat="42.469195" lon="1.49266833">
        <ele>899.0</ele>
        <time>2019-08-04T09:15:00.336Z</time>
      </trkpt>
      <trkpt lat="42.46916833" lon="1.49268167">
        <ele>899.0</ele>
        <time>2019-08-04T09:15:01.296Z</time>
      </trkpt>
      <trkpt lat="42.46915333" lon="1.49267667">
        <ele>899.0</ele>
        <time>2019-08-04T09:15:02.326Z</time>
      </trkpt>
      <trkpt lat="42.46913167" lon="1.492675">
        <ele>898.0</ele>
        <time>2019-08-04T09:15:03.331Z</time>
      </trkpt>
      <trkpt lat="42.46913167" lon="1.492675">
        <ele>898.0</ele>
        <time>2019-08-04T09:15:04.307Z</time>
      </trkpt>
      <trkpt lat="42.46907" lon="1.49266833">
        <ele>898.0</ele>
        <time>2019-08-04T09:15:05.333Z</time>
      </trkpt>
      <trkpt lat="42.46907" lon="1.49266833">
        <ele>898.0</ele>
        <time>2019-08-04T09:15:06.296Z</time>
      </trkpt>
      <trkpt lat="42.46900167" lon="1.49268167">
        <ele>899.0</ele>
        <time>2019-08-04T09:15:07.332Z</time>
      </trkpt>
      <trkpt lat="42.46900167" lon="1.49268167">
        <ele>899.0</ele>
        <time>2019-08-04T09:15:08.334Z</time>
      </trkpt>
      <trkpt lat="42.46893" lon="1.49269833">
        <ele>899.0</ele>
        <time>2019-08-04T09:15:09.306Z</time>
      </trkpt>
      <trkpt lat="42.46893" lon="1.49269833">
        <ele>899.0</ele>
        <time>2019-08-04T09:15:10.326Z</time>
      </trkpt>
      <trkpt lat="42.46884667" lon="1.49270667">
        <ele>898.0</ele>
        <time>2019-08-04T09:15:11.306Z</time>
      </trkpt>
      <trkpt lat="42.46884667" lon="1.49270667">
        <ele>898.0</ele>
        <time>2019-08-04T09:15:12.328Z</time>
      </trkpt>
      <trkpt lat="42.46877333" lon="1.49272167">
        <ele>899.0</ele>
        <time>2019-08-04T09:15:13.301Z</time>
      </trkpt>
      <trkpt lat="42.46877333" lon="1.49272167">
        <ele>899.0</ele>
        <time>2019-08-04T09:15:14.321Z</time>
      </trkpt>
      <trkpt lat="42.468695" lon="1.49273667">
        <ele>898.0</ele>
        <time>2019-08-04T09:15:15.302Z</time>
      </trkpt>
      <trkpt lat="42.468695" lon="1.49273667">
        <ele>898.0</ele>
        <time>2019-08-04T09:15:16.327Z</time>
      </trkpt>
      <trkpt lat="42.46859167" lon="1.492725">
        <ele>898.0</ele>
        <time>2019-08-04T09:15:17.324Z</time>
      </trkpt>
      <trkpt lat="42.46859167" lon="1.492725">
        <ele>898.0</ele>
        <time>2019-08-04T09:15:18.306Z</time>
      </trkpt>
      <trkpt lat="42.46848167" lon="1.492675">
        <ele>898.0</ele>
        <time>2019-08-04T09:15:19.326Z</time>
      </trkpt>
      <trkpt lat="42.46848167" lon="1.492675">
        <ele>898.0</ele>
        <time>2019-08-04T09:15:20.322Z</time>
      </trkpt>
      <trkpt lat="42.468375" lon="1.49263333">
        <ele>898.0</ele>
        <time>2019-08-04T09:15:21.306Z</time>
      </trkpt>
      <trkpt lat="42.468375" lon="1.49263333">
        <ele>898.0</ele>
        <time>2019-08-04T09:15:22.327Z</time>
      </trkpt>
      <trkpt lat="42.468255" lon="1.49260167">
        <ele>898.0</ele>
        <time>2019-08-04T09:15:23.301Z</time>
      </trkpt>
      <trkpt lat="42.468255" lon="1.49260167">
        <ele>898.0</ele>
        <time>2019-08-04T09:15:24.320Z</time>
      </trkpt>
      <trkpt lat="42.46813833" lon="1.49255667">
        <ele>898.0</ele>
        <time>2019-08-04T09:15:25.308Z</time>
      </trkpt>
      <trkpt lat="42.46813833" lon="1.49255667">
        <ele>898.0</ele>
        <time>2019-08-04T09:15:26.326Z</time>
      </trkpt>
      <trkpt lat="42.46803333" lon="1.49251333">
        <ele>897.0</ele>
        <time>2019-08-04T09:15:27.325Z</time>
      </trkpt>
      <trkpt lat="42.46803333" lon="1.49251333">
        <ele>897.0</ele>
        <time>2019-08-04T09:15:28.313Z</time>
      </trkpt>
      <trkpt lat="42.46792333" lon="1.49245">
        <ele>897.0</ele>
        <time>2019-08-04T09:15:29.317Z</time>
      </trkpt>
      <trkpt lat="42.46792333" lon="1.49245">
        <ele>897.0</ele>
        <time>2019-08-04T09:15:30.298Z</time>
      </trkpt>
      <trkpt lat="42.46781167" lon="1.49238">
        <ele>897.0</ele>
        <time>2019-08-04T09:15:31.325Z</time>
      </trkpt>
      <trkpt lat="42.46781167" lon="1.49238">
        <ele>897.0</ele>
        <time>2019-08-04T09:15:32.321Z</time>
      </trkpt>
      <trkpt lat="42.46769667" lon="1.49231667">
        <ele>897.0</ele>
        <time>2019-08-04T09:15:33.323Z</time>
      </trkpt>
      <trkpt lat="42.46769667" lon="1.49231667">
        <ele>897.0</ele>
        <time>2019-08-04T09:15:34.302Z</time>
      </trkpt>
      <trkpt lat="42.46758" lon="1.49225">
        <ele>897.0</ele>
        <time>2019-08-04T09:15:35.325Z</time>
      </trkpt>
      <trkpt lat="42.46752333" lon="1.492215">
        <ele>897.0</ele>
        <time>2019-08-04T09:15:36.327Z</time>
      </trkpt>
      <trkpt lat="42.46752333" lon="1.492215">
        <ele>897.0</ele>
        <time>2019-08-04T09:15:37.323Z</time>
      </trkpt>
      <trkpt lat="42.467415" lon="1.49216">
        <ele>897.0</ele>
        <time>2019-08-04T09:15:38.306Z</time>
      </trkpt>
      <trkpt lat="42.46736" lon="1.49213667">
        <ele>897.0</ele>
        <time>2019-08-04T09:15:39.334Z</time>
      </trkpt>
      <trkpt lat="42.46736" lon="1.49213667">
        <ele>897.0</ele>
        <time>2019-08-04T09:15:40.307Z</time>
      </trkpt>
      <trkpt lat="42.46724667" lon="1.49207667">
        <ele>897.0</ele>
        <time>2019-08-04T09:15:41.327Z</time>
      </trkpt>
      <trkpt lat="42.46724667" lon="1.49207667">
        <ele>897.0</ele>
        <time>2019-08-04T09:15:42.324Z</time>
      </trkpt>
      <trkpt lat="42.46715833" lon="1.49196833">
        <ele>897.0</ele>
        <time>2019-08-04T09:15:43.325Z</time>
      </trkpt>
      <trkpt lat="42.46715833" lon="1.49196833">
        <ele>897.0</ele>
        <time>2019-08-04T09:15:44.321Z</time>
      </trkpt>
      <trkpt lat="42.46708667" lon="1.49185667">
        <ele>897.0</ele>
        <time>2019-08-04T09:15:45.306Z</time>
      </trkpt>
      <trkpt lat="42.46708667" lon="1.49185667">
        <ele>897.0</ele>
        <time>2019-08-04T09:15:46.326Z</time>
      </trkpt>
      <trkpt lat="42.466985" lon="1.49184833">
        <ele>897.0</ele>
        <time>2019-08-04T09:15:47.299Z</time>
      </trkpt>
      <trkpt lat="42.466985" lon="1.49184833">
        <ele>897.0</ele>
        <time>2019-08-04T09:15:48.320Z</time>
      </trkpt>
      <trkpt lat="42.466915" lon="1.49196">
        <ele>897.0</ele>
        <time>2019-08-04T09:15:49.307Z</time>
      </trkpt>
      <trkpt lat="42.466915" lon="1.49196">
        <ele>897.0</ele>
        <time>2019-08-04T09:15:50.327Z</time>
      </trkpt>
      <trkpt lat="42.466885" lon="1.49209833">
        <ele>897.0</ele>
        <time>2019-08-04T09:15:51.327Z</time>
      </trkpt>
      <trkpt lat="42.466885" lon="1.49209833">
        <ele>897.0</ele>
        <time>2019-08-04T09:15:52.323Z</time>
      </trkpt>
      <trkpt lat="42.46683833" lon="1.49223167">
        <ele>897.0</ele>
        <time>2019-08-04T09:15:53.306Z</time>
      </trkpt>
      <trkpt lat="42.46683833" lon="1.49223167">
        <ele>897.0</ele>
        <time>2019-08-04T09:15:54.325Z</time>
      </trkpt>
      <trkpt lat="42.46677833" lon="1.49232833">
        <ele>897.0</ele>
        <time>2019-08-04T09:15:55.302Z</time>
      </trkpt>
      <trkpt lat="42.46676833" lon="1.49239333">
        <ele>897.0</ele>
        <time>2019-08-04T09:15:56.329Z</time>
      </trkpt>
      <trkpt lat="42.46676833" lon="1.49239333">
        <ele>897.0</ele>
        <time>2019-08-04T09:15:57.322Z</time>
      </trkpt>
      <trkpt lat="42.46672833" lon="1.49248333">
        <ele>898.0</ele>
        <time>2019-08-04T09:15:58.315Z</time>
      </trkpt>
      <trkpt lat="42.466705" lon="1.49251167">
        <ele>898.0</ele>
        <time>2019-08-04T09:15:59.306Z</time>
      </trkpt>
      <trkpt lat="42.466705" lon="1.49251167">
        <ele>898.0</ele>
        <time>2019-08-04T09:16:00.326Z</time>
      </trkpt>
      <trkpt lat="42.46663667" lon="1.49258333">
        <ele>898.0</ele>
        <time>2019-08-04T09:16:01.324Z</time>
      </trkpt>
      <trkpt lat="42.46663667" lon="1.49258333">
        <ele>898.0</ele>
        <time>2019-08-04T09:16:02.303Z</time>
      </trkpt>
      <trkpt lat="42.46657667" lon="1.49265">
        <ele>898.0</ele>
        <time>2019-08-04T09:16:03.324Z</time>
      </trkpt>
      <trkpt lat="42.46657667" lon="1.49265">
        <ele>898.0</ele>
        <time>2019-08-04T09:16:04.303Z</time>
      </trkpt>
      <trkpt lat="42.46653167" lon="1.49271167">
        <ele>898.0</ele>
        <time>2019-08-04T09:16:05.324Z</time>
      </trkpt>
      <trkpt lat="42.46653167" lon="1.49271167">
        <ele>898.0</ele>
        <time>2019-08-04T09:16:06.306Z</time>
      </trkpt>
      <trkpt lat="42.46648833" lon="1.49276333">
        <ele>898.0</ele>
        <time>2019-08-04T09:16:07.334Z</time>
      </trkpt>
      <trkpt lat="42.46648833" lon="1.49276333">
        <ele>898.0</ele>
        <time>2019-08-04T09:16:08.296Z</time>
      </trkpt>
      <trkpt lat="42.46645167" lon="1.49279">
        <ele>898.0</ele>
        <time>2019-08-04T09:16:09.316Z</time>
      </trkpt>
      <trkpt lat="42.46645167" lon="1.49279">
        <ele>898.0</ele>
        <time>2019-08-04T09:16:10.296Z</time>
      </trkpt>
      <trkpt lat="42.466415" lon="1.492825">
        <ele>899.0</ele>
        <time>2019-08-04T09:16:11.300Z</time>
      </trkpt>
      <trkpt lat="42.466415" lon="1.492825">
        <ele>899.0</ele>
        <time>2019-08-04T09:16:12.320Z</time>
      </trkpt>
      <trkpt lat="42.46637833" lon="1.49286333">
        <ele>899.0</ele>
        <time>2019-08-04T09:16:13.323Z</time>
      </trkpt>
      <trkpt lat="42.46637833" lon="1.49286333">
        <ele>899.0</ele>
        <time>2019-08-04T09:16:14.306Z</time>
      </trkpt>
      <trkpt lat="42.46633833" lon="1.49291667">
        <ele>899.0</ele>
        <time>2019-08-04T09:16:15.335Z</time>
      </trkpt>
      <trkpt lat="42.46633833" lon="1.49291667">
        <ele>899.0</ele>
        <time>2019-08-04T09:16:16.314Z</time>
      </trkpt>
      <trkpt lat="42.46629667" lon="1.49295667">
        <ele>900.0</ele>
        <time>2019-08-04T09:16:17.298Z</time>
      </trkpt>
      <trkpt lat="42.46629667" lon="1.49295667">
        <ele>900.0</ele>
        <time>2019-08-04T09:16:18.318Z</time>
      </trkpt>
      <trkpt lat="42.46625167" lon="1.493">
        <ele>900.0</ele>
        <time>2019-08-04T09:16:19.299Z</time>
      </trkpt>
      <trkpt lat="42.46625167" lon="1.493">
        <ele>900.0</ele>
        <time>2019-08-04T09:16:20.320Z</time>
      </trkpt>
      <trkpt lat="42.466225" lon="1.49304833">
        <ele>900.0</ele>
        <time>2019-08-04T09:16:21.309Z</time>
      </trkpt>
      <trkpt lat="42.466225" lon="1.49304833">
        <ele>900.0</ele>
        <time>2019-08-04T09:16:22.328Z</time>
      </trkpt>
      <trkpt lat="42.46619333" lon="1.49310167">
        <ele>901.0</ele>
        <time>2019-08-04T09:16:23.323Z</time>
      </trkpt>
      <trkpt lat="42.46619" lon="1.493145">
        <ele>901.0</ele>
        <time>2019-08-04T09:16:24.307Z</time>
      </trkpt>
      <trkpt lat="42.46619" lon="1.493145">
        <ele>901.0</ele>
        <time>2019-08-04T09:16:25.326Z</time>
      </trkpt>
      <trkpt lat="42.46618833" lon="1.49322">
        <ele>901.0</ele>
        <time>2019-08-04T09:16:26.302Z</time>
      </trkpt>
      <trkpt lat="42.46618833" lon="1.49322">
        <ele>901.0</ele>
        <time>2019-08-04T09:16:27.322Z</time>
      </trkpt>
      <trkpt lat="42.46618333" lon="1.49328333">
        <ele>902.0</ele>
        <time>2019-08-04T09:16:28.302Z</time>
      </trkpt>
      <trkpt lat="42.46618333" lon="1.49328333">
        <ele>902.0</ele>
        <time>2019-08-04T09:16:29.308Z</time>
      </trkpt>
      <trkpt lat="42.46617167" lon="1.49333167">
        <ele>902.0</ele>
        <time>2019-08-04T09:16:30.329Z</time>
      </trkpt>
      <trkpt lat="42.46616333" lon="1.49335167">
        <ele>902.0</ele>
        <time>2019-08-04T09:16:31.297Z</time>
      </trkpt>
      <trkpt lat="42.46616333" lon="1.49335167">
        <ele>902.0</ele>
        <time>2019-08-04T09:16:32.318Z</time>
      </trkpt>
      <trkpt lat="42.46614833" lon="1.49339333">
        <ele>902.0</ele>
        <time>2019-08-04T09:16:33.310Z</time>
      </trkpt>
      <trkpt lat="42.46614833" lon="1.49339333">
        <ele>902.0</ele>
        <time>2019-08-04T09:16:34.329Z</time>
      </trkpt>
      <trkpt lat="42.46614" lon="1.49345">
        <ele>903.0</ele>
        <time>2019-08-04T09:16:35.329Z</time>
      </trkpt>
      <trkpt lat="42.46614" lon="1.49345">
        <ele>903.0</ele>
        <time>2019-08-04T09:16:36.324Z</time>
      </trkpt>
      <trkpt lat="42.46612833" lon="1.493505">
        <ele>903.0</ele>
        <time>2019-08-04T09:16:37.308Z</time>
      </trkpt>
      <trkpt lat="42.46612833" lon="1.493505">
        <ele>903.0</ele>
        <time>2019-08-04T09:16:38.327Z</time>
      </trkpt>
      <trkpt lat="42.46612167" lon="1.493555">
        <ele>904.0</ele>
        <time>2019-08-04T09:16:39.325Z</time>
      </trkpt>
      <trkpt lat="42.46612167" lon="1.493555">
        <ele>904.0</ele>
        <time>2019-08-04T09:16:40.324Z</time>
      </trkpt>
      <trkpt lat="42.46612667" lon="1.49361333">
        <ele>904.0</ele>
        <time>2019-08-04T09:16:41.307Z</time>
      </trkpt>
      <trkpt lat="42.46612667" lon="1.49361333">
        <ele>904.0</ele>
        <time>2019-08-04T09:16:42.326Z</time>
      </trkpt>
      <trkpt lat="42.46612833" lon="1.49367333">
        <ele>905.0</ele>
        <time>2019-08-04T09:16:43.300Z</time>
      </trkpt>
      <trkpt lat="42.46612833" lon="1.49367333">
        <ele>905.0</ele>
        <time>2019-08-04T09:16:44.320Z</time>
      </trkpt>
      <trkpt lat="42.46614333" lon="1.49374333">
        <ele>906.0</ele>
        <time>2019-08-04T09:16:45.299Z</time>
      </trkpt>
      <trkpt lat="42.46614333" lon="1.49374333">
        <ele>906.0</ele>
        <time>2019-08-04T09:16:46.321Z</time>
      </trkpt>
      <trkpt lat="42.46614333" lon="1.4938">
        <ele>906.0</ele>
        <time>2019-08-04T09:16:47.303Z</time>
      </trkpt>
      <trkpt lat="42.46614333" lon="1.4938">
        <ele>906.0</ele>
        <time>2019-08-04T09:16:48.323Z</time>
      </trkpt>
      <trkpt lat="42.46612833" lon="1.49384333">
        <ele>907.0</ele>
        <time>2019-08-04T09:16:49.302Z</time>
      </trkpt>
      <trkpt lat="42.46612833" lon="1.49384333">
        <ele>907.0</ele>
        <time>2019-08-04T09:16:50.323Z</time>
      </trkpt>
      <trkpt lat="42.466115" lon="1.49388333">
        <ele>907.0</ele>
        <time>2019-08-04T09:16:51.308Z</time>
      </trkpt>
      <trkpt lat="42.466115" lon="1.49388333">
        <ele>907.0</ele>
        <time>2019-08-04T09:16:52.327Z</time>
      </trkpt>
      <trkpt lat="42.46610167" lon="1.49392">
        <ele>908.0</ele>
        <time>2019-08-04T09:16:53.301Z</time>
      </trkpt>
      <trkpt lat="42.46610167" lon="1.49392">
        <ele>908.0</ele>
        <time>2019-08-04T09:16:54.312Z</time>
      </trkpt>
      <trkpt lat="42.46609" lon="1.49396333">
        <ele>909.0</ele>
        <time>2019-08-04T09:16:55.298Z</time>
      </trkpt>
      <trkpt lat="42.46609" lon="1.49396333">
        <ele>909.0</ele>
        <time>2019-08-04T09:16:56.333Z</time>
      </trkpt>
      <trkpt lat="42.46609167" lon="1.49401">
        <ele>910.0</ele>
        <time>2019-08-04T09:16:57.297Z</time>
      </trkpt>
      <trkpt lat="42.46609167" lon="1.49401">
        <ele>910.0</ele>
        <time>2019-08-04T09:16:58.323Z</time>
      </trkpt>
      <trkpt lat="42.46610167" lon="1.49403833">
        <ele>913.0</ele>
        <time>2019-08-04T09:16:59.312Z</time>
      </trkpt>
      <trkpt lat="42.46610167" lon="1.49403833">
        <ele>913.0</ele>
        <time>2019-08-04T09:17:00.333Z</time>
      </trkpt>
      <trkpt lat="42.466115" lon="1.49410167">
        <ele>914.0</ele>
        <time>2019-08-04T09:17:01.308Z</time>
      </trkpt>
      <trkpt lat="42.46611667" lon="1.49413167">
        <ele>914.0</ele>
        <time>2019-08-04T09:17:02.331Z</time>
      </trkpt>
      <trkpt lat="42.46611333" lon="1.49416167">
        <ele>915.0</ele>
        <time>2019-08-04T09:17:03.309Z</time>
      </trkpt>
      <trkpt lat="42.46611333" lon="1.49416167">
        <ele>915.0</ele>
        <time>2019-08-04T09:17:04.328Z</time>
      </trkpt>
      <trkpt lat="42.466105" lon="1.49420833">
        <ele>916.0</ele>
        <time>2019-08-04T09:17:05.307Z</time>
      </trkpt>
      <trkpt lat="42.466105" lon="1.49420833">
        <ele>916.0</ele>
        <time>2019-08-04T09:17:06.328Z</time>
      </trkpt>
      <trkpt lat="42.46607167" lon="1.49423667">
        <ele>916.0</ele>
        <time>2019-08-04T09:17:07.325Z</time>
      </trkpt>
      <trkpt lat="42.46607167" lon="1.49423667">
        <ele>916.0</ele>
        <time>2019-08-04T09:17:08.307Z</time>
      </trkpt>
      <trkpt lat="42.46604167" lon="1.49426833">
        <ele>917.0</ele>
        <time>2019-08-04T09:17:09.332Z</time>
      </trkpt>
      <trkpt lat="42.46603" lon="1.49428833">
        <ele>917.0</ele>
        <time>2019-08-04T09:17:10.296Z</time>
      </trkpt>
      <trkpt lat="42.46602" lon="1.49431333">
        <ele>918.0</ele>
        <time>2019-08-04T09:17:11.320Z</time>
      </trkpt>
      <trkpt lat="42.46602" lon="1.49431333">
        <ele>918.0</ele>
        <time>2019-08-04T09:17:12.299Z</time>
      </trkpt>
      <trkpt lat="42.46600333" lon="1.494365">
        <ele>918.0</ele>
        <time>2019-08-04T09:17:13.326Z</time>
      </trkpt>
      <trkpt lat="42.46600333" lon="1.494365">
        <ele>918.0</ele>
        <time>2019-08-04T09:17:14.323Z</time>
      </trkpt>
      <trkpt lat="42.46598833" lon="1.494405">
        <ele>919.0</ele>
        <time>2019-08-04T09:17:15.307Z</time>
      </trkpt>
      <trkpt lat="42.46598833" lon="1.494405">
        <ele>919.0</ele>
        <time>2019-08-04T09:17:16.327Z</time>
      </trkpt>
      <trkpt lat="42.46596667" lon="1.49444667">
        <ele>920.0</ele>
        <time>2019-08-04T09:17:17.328Z</time>
      </trkpt>
      <trkpt lat="42.46596667" lon="1.49444667">
        <ele>920.0</ele>
        <time>2019-08-04T09:17:18.320Z</time>
      </trkpt>
      <trkpt lat="42.46594" lon="1.49448333">
        <ele>920.0</ele>
        <time>2019-08-04T09:17:19.308Z</time>
      </trkpt>
      <trkpt lat="42.46592667" lon="1.49450167">
        <ele>921.0</ele>
        <time>2019-08-04T09:17:20.331Z</time>
      </trkpt>
      <trkpt lat="42.46591167" lon="1.494525">
        <ele>921.0</ele>
        <time>2019-08-04T09:17:21.300Z</time>
      </trkpt>
      <trkpt lat="42.46591167" lon="1.494525">
        <ele>921.0</ele>
        <time>2019-08-04T09:17:22.319Z</time>
      </trkpt>
      <trkpt lat="42.46588333" lon="1.49455667">
        <ele>922.0</ele>
        <time>2019-08-04T09:17:23.323Z</time>
      </trkpt>
      <trkpt lat="42.46588333" lon="1.49455667">
        <ele>922.0</ele>
        <time>2019-08-04T09:17:24.303Z</time>
      </trkpt>
      <trkpt lat="42.46586333" lon="1.49459833">
        <ele>922.0</ele>
        <time>2019-08-04T09:17:25.334Z</time>
      </trkpt>
      <trkpt lat="42.46586333" lon="1.49459833">
        <ele>922.0</ele>
        <time>2019-08-04T09:17:26.296Z</time>
      </trkpt>
      <trkpt lat="42.465835" lon="1.49463333">
        <ele>923.0</ele>
        <time>2019-08-04T09:17:27.316Z</time>
      </trkpt>
      <trkpt lat="42.465835" lon="1.49463333">
        <ele>923.0</ele>
        <time>2019-08-04T09:17:28.303Z</time>
      </trkpt>
      <trkpt lat="42.465805" lon="1.49467167">
        <ele>923.0</ele>
        <time>2019-08-04T09:17:29.300Z</time>
      </trkpt>
      <trkpt lat="42.46579" lon="1.49468667">
        <ele>924.0</ele>
        <time>2019-08-04T09:17:30.327Z</time>
      </trkpt>
      <trkpt lat="42.46579" lon="1.49468667">
        <ele>924.0</ele>
        <time>2019-08-04T09:17:31.323Z</time>
      </trkpt>
      <trkpt lat="42.46575667" lon="1.49471833">
        <ele>924.0</ele>
        <time>2019-08-04T09:17:32.302Z</time>
      </trkpt>
      <trkpt lat="42.46574167" lon="1.49473833">
        <ele>924.0</ele>
        <time>2019-08-04T09:17:33.324Z</time>
      </trkpt>
      <trkpt lat="42.46574167" lon="1.49473833">
        <ele>924.0</ele>
        <time>2019-08-04T09:17:34.309Z</time>
      </trkpt>
      <trkpt lat="42.4657" lon="1.49476333">
        <ele>925.0</ele>
        <time>2019-08-04T09:17:35.335Z</time>
      </trkpt>
      <trkpt lat="42.46568" lon="1.49477">
        <ele>925.0</ele>
        <time>2019-08-04T09:17:36.307Z</time>
      </trkpt>
      <trkpt lat="42.46568" lon="1.49477">
        <ele>925.0</ele>
        <time>2019-08-04T09:17:37.314Z</time>
      </trkpt>
      <trkpt lat="42.46563667" lon="1.49478333">
        <ele>926.0</ele>
        <time>2019-08-04T09:17:38.298Z</time>
      </trkpt>
      <trkpt lat="42.46561333" lon="1.49478833">
        <ele>926.0</ele>
        <time>2019-08-04T09:17:39.330Z</time>
      </trkpt>
      <trkpt lat="42.46561333" lon="1.49478833">
        <ele>926.0</ele>
        <time>2019-08-04T09:17:40.300Z</time>
      </trkpt>
      <trkpt lat="42.46557" lon="1.49479333">
        <ele>926.0</ele>
        <time>2019-08-04T09:17:41.325Z</time>
      </trkpt>
      <trkpt lat="42.46554833" lon="1.49479">
        <ele>927.0</ele>
        <time>2019-08-04T09:17:42.301Z</time>
      </trkpt>
      <trkpt lat="42.46553" lon="1.49478333">
        <ele>927.0</ele>
        <time>2019-08-04T09:17:43.326Z</time>
      </trkpt>
      <trkpt lat="42.46553" lon="1.49478333">
        <ele>927.0</ele>
        <time>2019-08-04T09:17:44.323Z</time>
      </trkpt>
      <trkpt lat="42.46549167" lon="1.49477333">
        <ele>928.0</ele>
        <time>2019-08-04T09:17:45.307Z</time>
      </trkpt>
      <trkpt lat="42.46549167" lon="1.49477333">
        <ele>928.0</ele>
        <time>2019-08-04T09:17:46.328Z</time>
      </trkpt>
      <trkpt lat="42.46545333" lon="1.49475667">
        <ele>929.0</ele>
        <time>2019-08-04T09:17:47.299Z</time>
      </trkpt>
      <trkpt lat="42.46545333" lon="1.49475667">
        <ele>929.0</ele>
        <time>2019-08-04T09:17:48.320Z</time>
      </trkpt>
      <trkpt lat="42.465415" lon="1.49472833">
        <ele>929.0</ele>
        <time>2019-08-04T09:17:49.301Z</time>
      </trkpt>
      <trkpt lat="42.465415" lon="1.49472833">
        <ele>929.0</ele>
        <time>2019-08-04T09:17:50.323Z</time>
      </trkpt>
      <trkpt lat="42.46537667" lon="1.49469167">
        <ele>930.0</ele>
        <time>2019-08-04T09:17:51.316Z</time>
      </trkpt>
      <trkpt lat="42.46537667" lon="1.49469167">
        <ele>930.0</ele>
        <time>2019-08-04T09:17:52.335Z</time>
      </trkpt>
      <trkpt lat="42.46533667" lon="1.49465">
        <ele>930.0</ele>
        <time>2019-08-04T09:17:53.314Z</time>
      </trkpt>
      <trkpt lat="42.46533667" lon="1.49465">
        <ele>930.0</ele>
        <time>2019-08-04T09:17:54.333Z</time>
      </trkpt>
      <trkpt lat="42.46529667" lon="1.4946">
        <ele>931.0</ele>
        <time>2019-08-04T09:17:55.335Z</time>
      </trkpt>
      <trkpt lat="42.46527833" lon="1.49457667">
        <ele>931.0</ele>
        <time>2019-08-04T09:17:56.307Z</time>
      </trkpt>
      <trkpt lat="42.46526167" lon="1.49455167">
        <ele>931.0</ele>
        <time>2019-08-04T09:17:57.299Z</time>
      </trkpt>
      <trkpt lat="42.46526167" lon="1.49455167">
        <ele>931.0</ele>
        <time>2019-08-04T09:17:58.322Z</time>
      </trkpt>
      <trkpt lat="42.46523" lon="1.49450167">
        <ele>931.0</ele>
        <time>2019-08-04T09:17:59.303Z</time>
      </trkpt>
      <trkpt lat="42.46523" lon="1.49450167">
        <ele>931.0</ele>
        <time>2019-08-04T09:18:00.322Z</time>
      </trkpt>
      <trkpt lat="42.465195" lon="1.49445">
        <ele>932.0</ele>
        <time>2019-08-04T09:18:01.303Z</time>
      </trkpt>
      <trkpt lat="42.46517833" lon="1.494425">
        <ele>932.0</ele>
        <time>2019-08-04T09:18:02.324Z</time>
      </trkpt>
      <trkpt lat="42.46516" lon="1.49439833">
        <ele>932.0</ele>
        <time>2019-08-04T09:18:03.332Z</time>
      </trkpt>
      <trkpt lat="42.46516" lon="1.49439833">
        <ele>932.0</ele>
        <time>2019-08-04T09:18:04.323Z</time>
      </trkpt>
      <trkpt lat="42.465125" lon="1.49434">
        <ele>932.0</ele>
        <time>2019-08-04T09:18:05.308Z</time>
      </trkpt>
      <trkpt lat="42.465125" lon="1.49434">
        <ele>932.0</ele>
        <time>2019-08-04T09:18:06.330Z</time>
      </trkpt>
      <trkpt lat="42.46509" lon="1.49428">
        <ele>933.0</ele>
        <time>2019-08-04T09:18:07.330Z</time>
      </trkpt>
      <trkpt lat="42.46509" lon="1.49428">
        <ele>933.0</ele>
        <time>2019-08-04T09:18:08.326Z</time>
      </trkpt>
      <trkpt lat="42.46505333" lon="1.49422333">
        <ele>933.0</ele>
        <time>2019-08-04T09:18:09.303Z</time>
      </trkpt>
      <trkpt lat="42.46505333" lon="1.49422333">
        <ele>933.0</ele>
        <time>2019-08-04T09:18:10.333Z</time>
      </trkpt>
      <trkpt lat="42.46501167" lon="1.49416167">
        <ele>933.0</ele>
        <time>2019-08-04T09:18:11.301Z</time>
      </trkpt>
      <trkpt lat="42.46501167" lon="1.49416167">
        <ele>933.0</ele>
        <time>2019-08-04T09:18:12.320Z</time>
      </trkpt>
      <trkpt lat="42.46496833" lon="1.49409833">
        <ele>933.0</ele>
        <time>2019-08-04T09:18:13.310Z</time>
      </trkpt>
      <trkpt lat="42.46496833" lon="1.49409833">
        <ele>933.0</ele>
        <time>2019-08-04T09:18:14.317Z</time>
      </trkpt>
      <trkpt lat="42.46491667" lon="1.494045">
        <ele>933.0</ele>
        <time>2019-08-04T09:18:15.308Z</time>
      </trkpt>
      <trkpt lat="42.46491667" lon="1.494045">
        <ele>933.0</ele>
        <time>2019-08-04T09:18:16.302Z</time>
      </trkpt>
      <trkpt lat="42.46485333" lon="1.49401">
        <ele>934.0</ele>
        <time>2019-08-04T09:18:17.333Z</time>
      </trkpt>
      <trkpt lat="42.46485333" lon="1.49401">
        <ele>934.0</ele>
        <time>2019-08-04T09:18:18.335Z</time>
      </trkpt>
      <trkpt lat="42.46479" lon="1.49401167">
        <ele>934.0</ele>
        <time>2019-08-04T09:18:19.336Z</time>
      </trkpt>
      <trkpt lat="42.46479" lon="1.49401167">
        <ele>934.0</ele>
        <time>2019-08-04T09:18:20.297Z</time>
      </trkpt>
      <trkpt lat="42.46473" lon="1.494045">
        <ele>934.0</ele>
        <time>2019-08-04T09:18:21.318Z</time>
      </trkpt>
      <trkpt lat="42.46473" lon="1.494045">
        <ele>934.0</ele>
        <time>2019-08-04T09:18:22.296Z</time>
      </trkpt>
      <trkpt lat="42.46469167" lon="1.49411">
        <ele>934.0</ele>
        <time>2019-08-04T09:18:23.297Z</time>
      </trkpt>
      <trkpt lat="42.46469167" lon="1.49411">
        <ele>934.0</ele>
        <time>2019-08-04T09:18:24.319Z</time>
      </trkpt>
      <trkpt lat="42.46466167" lon="1.49417667">
        <ele>935.0</ele>
        <time>2019-08-04T09:18:25.309Z</time>
      </trkpt>
      <trkpt lat="42.46466167" lon="1.49417667">
        <ele>935.0</ele>
        <time>2019-08-04T09:18:26.328Z</time>
      </trkpt>
      <trkpt lat="42.46463667" lon="1.494245">
        <ele>936.0</ele>
        <time>2019-08-04T09:18:27.328Z</time>
      </trkpt>
      <trkpt lat="42.46463667" lon="1.494245">
        <ele>936.0</ele>
        <time>2019-08-04T09:18:28.323Z</time>
      </trkpt>
      <trkpt lat="42.46461167" lon="1.49431167">
        <ele>936.0</ele>
        <time>2019-08-04T09:18:29.329Z</time>
      </trkpt>
      <trkpt lat="42.46461167" lon="1.49431167">
        <ele>936.0</ele>
        <time>2019-08-04T09:18:30.330Z</time>
      </trkpt>
      <trkpt lat="42.46458667" lon="1.49437333">
        <ele>937.0</ele>
        <time>2019-08-04T09:18:31.330Z</time>
      </trkpt>
      <trkpt lat="42.46458667" lon="1.49437333">
        <ele>937.0</ele>
        <time>2019-08-04T09:18:32.327Z</time>
      </trkpt>
      <trkpt lat="42.46455833" lon="1.494415">
        <ele>937.0</ele>
        <time>2019-08-04T09:18:33.307Z</time>
      </trkpt>
      <trkpt lat="42.46455833" lon="1.494415">
        <ele>937.0</ele>
        <time>2019-08-04T09:18:34.327Z</time>
      </trkpt>
      <trkpt lat="42.46453667" lon="1.49446667">
        <ele>938.0</ele>
        <time>2019-08-04T09:18:35.326Z</time>
      </trkpt>
      <trkpt lat="42.46453667" lon="1.49446667">
        <ele>938.0</ele>
        <time>2019-08-04T09:18:36.324Z</time>
      </trkpt>
      <trkpt lat="42.46452" lon="1.49452833">
        <ele>939.0</ele>
        <time>2019-08-04T09:18:37.307Z</time>
      </trkpt>
      <trkpt lat="42.46452" lon="1.49452833">
        <ele>939.0</ele>
        <time>2019-08-04T09:18:38.327Z</time>
      </trkpt>
      <trkpt lat="42.46450333" lon="1.494585">
        <ele>939.0</ele>
        <time>2019-08-04T09:18:39.328Z</time>
      </trkpt>
      <trkpt lat="42.46450333" lon="1.494585">
        <ele>939.0</ele>
        <time>2019-08-04T09:18:40.320Z</time>
      </trkpt>
      <trkpt lat="42.46449" lon="1.49465167">
        <ele>940.0</ele>
        <time>2019-08-04T09:18:41.307Z</time>
      </trkpt>
      <trkpt lat="42.46449" lon="1.49465167">
        <ele>940.0</ele>
        <time>2019-08-04T09:18:42.327Z</time>
      </trkpt>
      <trkpt lat="42.46445833" lon="1.49469833">
        <ele>940.0</ele>
        <time>2019-08-04T09:18:43.301Z</time>
      </trkpt>
      <trkpt lat="42.46445833" lon="1.49469833">
        <ele>940.0</ele>
        <time>2019-08-04T09:18:44.321Z</time>
      </trkpt>
      <trkpt lat="42.46441833" lon="1.49472333">
        <ele>941.0</ele>
        <time>2019-08-04T09:18:45.308Z</time>
      </trkpt>
      <trkpt lat="42.46441833" lon="1.49472333">
        <ele>941.0</ele>
        <time>2019-08-04T09:18:46.328Z</time>
      </trkpt>
      <trkpt lat="42.46438" lon="1.49474167">
        <ele>941.0</ele>
        <time>2019-08-04T09:18:47.329Z</time>
      </trkpt>
      <trkpt lat="42.46438" lon="1.49474167">
        <ele>941.0</ele>
        <time>2019-08-04T09:18:48.324Z</time>
      </trkpt>
      <trkpt lat="42.46434" lon="1.49473833">
        <ele>942.0</ele>
        <time>2019-08-04T09:18:49.309Z</time>
      </trkpt>
      <trkpt lat="42.46434" lon="1.49473833">
        <ele>942.0</ele>
        <time>2019-08-04T09:18:50.328Z</time>
      </trkpt>
      <trkpt lat="42.46429833" lon="1.49472167">
        <ele>943.0</ele>
        <time>2019-08-04T09:18:51.329Z</time>
      </trkpt>
      <trkpt lat="42.46429833" lon="1.49472167">
        <ele>943.0</ele>
        <time>2019-08-04T09:18:52.327Z</time>
      </trkpt>
      <trkpt lat="42.46427333" lon="1.49468167">
        <ele>943.0</ele>
        <time>2019-08-04T09:18:53.308Z</time>
      </trkpt>
      <trkpt lat="42.46427333" lon="1.49468167">
        <ele>943.0</ele>
        <time>2019-08-04T09:18:54.327Z</time>
      </trkpt>
      <trkpt lat="42.464245" lon="1.49462833">
        <ele>944.0</ele>
        <time>2019-08-04T09:18:55.328Z</time>
      </trkpt>
      <trkpt lat="42.46423667" lon="1.4946">
        <ele>944.0</ele>
        <time>2019-08-04T09:18:56.309Z</time>
      </trkpt>
      <trkpt lat="42.46423667" lon="1.4946">
        <ele>944.0</ele>
        <time>2019-08-04T09:18:57.328Z</time>
      </trkpt>
      <trkpt lat="42.464235" lon="1.49454167">
        <ele>944.0</ele>
        <time>2019-08-04T09:18:58.330Z</time>
      </trkpt>
      <trkpt lat="42.464235" lon="1.49451">
        <ele>945.0</ele>
        <time>2019-08-04T09:18:59.330Z</time>
      </trkpt>
      <trkpt lat="42.464235" lon="1.49451">
        <ele>945.0</ele>
        <time>2019-08-04T09:19:00.328Z</time>
      </trkpt>
      <trkpt lat="42.46423" lon="1.49444833">
        <ele>945.0</ele>
        <time>2019-08-04T09:19:01.326Z</time>
      </trkpt>
      <trkpt lat="42.46423" lon="1.49444833">
        <ele>945.0</ele>
        <time>2019-08-04T09:19:02.322Z</time>
      </trkpt>
      <trkpt lat="42.464225" lon="1.49439333">
        <ele>946.0</ele>
        <time>2019-08-04T09:19:03.326Z</time>
      </trkpt>
      <trkpt lat="42.464225" lon="1.49439333">
        <ele>946.0</ele>
        <time>2019-08-04T09:19:04.322Z</time>
      </trkpt>
      <trkpt lat="42.464225" lon="1.49433833">
        <ele>946.0</ele>
        <time>2019-08-04T09:19:05.303Z</time>
      </trkpt>
      <trkpt lat="42.464225" lon="1.49433833">
        <ele>946.0</ele>
        <time>2019-08-04T09:19:06.322Z</time>
      </trkpt>
      <trkpt lat="42.46424167" lon="1.49427333">
        <ele>947.0</ele>
        <time>2019-08-04T09:19:07.303Z</time>
      </trkpt>
      <trkpt lat="42.46425" lon="1.49424167">
        <ele>948.0</ele>
        <time>2019-08-04T09:19:08.298Z</time>
      </trkpt>
      <trkpt lat="42.46424833" lon="1.49421167">
        <ele>948.0</ele>
        <time>2019-08-04T09:19:09.319Z</time>
      </trkpt>
      <trkpt lat="42.46424833" lon="1.49421167">
        <ele>948.0</ele>
        <time>2019-08-04T09:19:10.298Z</time>
      </trkpt>
      <trkpt lat="42.464245" lon="1.49415">
        <ele>949.0</ele>
        <time>2019-08-04T09:19:11.315Z</time>
      </trkpt>
      <trkpt lat="42.464245" lon="1.49415">
        <ele>949.0</ele>
        <time>2019-08-04T09:19:12.296Z</time>
      </trkpt>
      <trkpt lat="42.46422833" lon="1.49409667">
        <ele>949.0</ele>
        <time>2019-08-04T09:19:13.326Z</time>
      </trkpt>
      <trkpt lat="42.46422833" lon="1.49409667">
        <ele>949.0</ele>
        <time>2019-08-04T09:19:14.322Z</time>
      </trkpt>
      <trkpt lat="42.46420333" lon="1.494045">
        <ele>950.0</ele>
        <time>2019-08-04T09:19:15.302Z</time>
      </trkpt>
      <trkpt lat="42.46420333" lon="1.494045">
        <ele>950.0</ele>
        <time>2019-08-04T09:19:16.325Z</time>
      </trkpt>
      <trkpt lat="42.464175" lon="1.49400333">
        <ele>951.0</ele>
        <time>2019-08-04T09:19:17.308Z</time>
      </trkpt>
      <trkpt lat="42.464175" lon="1.49400333">
        <ele>951.0</ele>
        <time>2019-08-04T09:19:18.327Z</time>
      </trkpt>
      <trkpt lat="42.46413167" lon="1.49395833">
        <ele>951.0</ele>
        <time>2019-08-04T09:19:19.326Z</time>
      </trkpt>
      <trkpt lat="42.46413167" lon="1.49395833">
        <ele>951.0</ele>
        <time>2019-08-04T09:19:20.323Z</time>
      </trkpt>
      <trkpt lat="42.46407833" lon="1.49391667">
        <ele>952.0</ele>
        <time>2019-08-04T09:19:21.308Z</time>
      </trkpt>
      <trkpt lat="42.46407833" lon="1.49391667">
        <ele>952.0</ele>
        <time>2019-08-04T09:19:22.328Z</time>
      </trkpt>
      <trkpt lat="42.46404167" lon="1.49387167">
        <ele>952.0</ele>
        <time>2019-08-04T09:19:23.300Z</time>
      </trkpt>
      <trkpt lat="42.46404167" lon="1.49387167">
        <ele>952.0</ele>
        <time>2019-08-04T09:19:24.320Z</time>
      </trkpt>
      <trkpt lat="42.464005" lon="1.49382833">
        <ele>953.0</ele>
        <time>2019-08-04T09:19:25.299Z</time>
      </trkpt>
      <trkpt lat="42.463985" lon="1.49380667">
        <ele>953.0</ele>
        <time>2019-08-04T09:19:26.324Z</time>
      </trkpt>
      <trkpt lat="42.463985" lon="1.49380667">
        <ele>953.0</ele>
        <time>2019-08-04T09:19:27.303Z</time>
      </trkpt>
      <trkpt lat="42.46395" lon="1.49376667">
        <ele>954.0</ele>
        <time>2019-08-04T09:19:28.331Z</time>
      </trkpt>
      <trkpt lat="42.46393" lon="1.49374833">
        <ele>954.0</ele>
        <time>2019-08-04T09:19:29.302Z</time>
      </trkpt>
      <trkpt lat="42.46393" lon="1.49374833">
        <ele>954.0</ele>
        <time>2019-08-04T09:19:30.323Z</time>
      </trkpt>
      <trkpt lat="42.46388833" lon="1.49371167">
        <ele>955.0</ele>
        <time>2019-08-04T09:19:31.303Z</time>
      </trkpt>
      <trkpt lat="42.46386667" lon="1.493695">
        <ele>955.0</ele>
        <time>2019-08-04T09:19:32.301Z</time>
      </trkpt>
      <trkpt lat="42.46384333" lon="1.49367833">
        <ele>955.0</ele>
        <time>2019-08-04T09:19:33.310Z</time>
      </trkpt>
      <trkpt lat="42.46384333" lon="1.49367833">
        <ele>955.0</ele>
        <time>2019-08-04T09:19:34.330Z</time>
      </trkpt>
      <trkpt lat="42.4638" lon="1.49365333">
        <ele>956.0</ele>
        <time>2019-08-04T09:19:35.336Z</time>
      </trkpt>
      <trkpt lat="42.4638" lon="1.49365333">
        <ele>956.0</ele>
        <time>2019-08-04T09:19:36.296Z</time>
      </trkpt>
      <trkpt lat="42.46375167" lon="1.493635">
        <ele>956.0</ele>
        <time>2019-08-04T09:19:37.323Z</time>
      </trkpt>
      <trkpt lat="42.46375167" lon="1.493635">
        <ele>956.0</ele>
        <time>2019-08-04T09:19:38.303Z</time>
      </trkpt>
      <trkpt lat="42.463705" lon="1.49361833">
        <ele>957.0</ele>
        <time>2019-08-04T09:19:39.327Z</time>
      </trkpt>
      <trkpt lat="42.463705" lon="1.49361833">
        <ele>957.0</ele>
        <time>2019-08-04T09:19:40.326Z</time>
      </trkpt>
      <trkpt lat="42.46365833" lon="1.49361333">
        <ele>957.0</ele>
        <time>2019-08-04T09:19:41.328Z</time>
      </trkpt>
      <trkpt lat="42.46365833" lon="1.49361333">
        <ele>957.0</ele>
        <time>2019-08-04T09:19:42.322Z</time>
      </trkpt>
      <trkpt lat="42.46361333" lon="1.493605">
        <ele>957.0</ele>
        <time>2019-08-04T09:19:43.326Z</time>
      </trkpt>
      <trkpt lat="42.46361333" lon="1.493605">
        <ele>957.0</ele>
        <time>2019-08-04T09:19:44.320Z</time>
      </trkpt>
      <trkpt lat="42.46356833" lon="1.49360167">
        <ele>958.0</ele>
        <time>2019-08-04T09:19:45.308Z</time>
      </trkpt>
      <trkpt lat="42.46356833" lon="1.49360167">
        <ele>958.0</ele>
        <time>2019-08-04T09:19:46.327Z</time>
      </trkpt>
      <trkpt lat="42.463525" lon="1.49359667">
        <ele>958.0</ele>
        <time>2019-08-04T09:19:47.301Z</time>
      </trkpt>
      <trkpt lat="42.463525" lon="1.49359667">
        <ele>958.0</ele>
        <time>2019-08-04T09:19:48.320Z</time>
      </trkpt>
      <trkpt lat="42.46348" lon="1.49359">
        <ele>958.0</ele>
        <time>2019-08-04T09:19:49.299Z</time>
      </trkpt>
      <trkpt lat="42.46345667" lon="1.49359167">
        <ele>959.0</ele>
        <time>2019-08-04T09:19:50.336Z</time>
      </trkpt>
      <trkpt lat="42.46345667" lon="1.49359167">
        <ele>959.0</ele>
        <time>2019-08-04T09:19:51.297Z</time>
      </trkpt>
      <trkpt lat="42.46340833" lon="1.49359833">
        <ele>959.0</ele>
        <time>2019-08-04T09:19:52.325Z</time>
      </trkpt>
      <trkpt lat="42.463385" lon="1.49359667">
        <ele>959.0</ele>
        <time>2019-08-04T09:19:53.330Z</time>
      </trkpt>
      <trkpt lat="42.463385" lon="1.49359667">
        <ele>959.0</ele>
        <time>2019-08-04T09:19:54.322Z</time>
      </trkpt>
      <trkpt lat="42.46334" lon="1.49358167">
        <ele>959.0</ele>
        <time>2019-08-04T09:19:55.302Z</time>
      </trkpt>
      <trkpt lat="42.46334" lon="1.49358167">
        <ele>959.0</ele>
        <time>2019-08-04T09:19:56.331Z</time>
      </trkpt>
      <trkpt lat="42.463295" lon="1.49357667">
        <ele>960.0</ele>
        <time>2019-08-04T09:19:57.334Z</time>
      </trkpt>
      <trkpt lat="42.463295" lon="1.49357667">
        <ele>960.0</ele>
        <time>2019-08-04T09:19:58.296Z</time>
      </trkpt>
      <trkpt lat="42.46325" lon="1.49357833">
        <ele>960.0</ele>
        <time>2019-08-04T09:19:59.320Z</time>
      </trkpt>
      <trkpt lat="42.46325" lon="1.49357833">
        <ele>960.0</ele>
        <time>2019-08-04T09:20:00.299Z</time>
      </trkpt>
      <trkpt lat="42.46320833" lon="1.49357667">
        <ele>960.0</ele>
        <time>2019-08-04T09:20:01.326Z</time>
      </trkpt>
      <trkpt lat="42.46320833" lon="1.49357667">
        <ele>960.0</ele>
        <time>2019-08-04T09:20:02.322Z</time>
      </trkpt>
      <trkpt lat="42.46316667" lon="1.49356833">
        <ele>961.0</ele>
        <time>2019-08-04T09:20:03.326Z</time>
      </trkpt>
      <trkpt lat="42.46316667" lon="1.49356833">
        <ele>961.0</ele>
        <time>2019-08-04T09:20:04.325Z</time>
      </trkpt>
      <trkpt lat="42.46312833" lon="1.49355">
        <ele>961.0</ele>
        <time>2019-08-04T09:20:05.316Z</time>
      </trkpt>
      <trkpt lat="42.46310833" lon="1.49354333">
        <ele>961.0</ele>
        <time>2019-08-04T09:20:06.317Z</time>
      </trkpt>
      <trkpt lat="42.463085" lon="1.49353833">
        <ele>961.0</ele>
        <time>2019-08-04T09:20:07.310Z</time>
      </trkpt>
      <trkpt lat="42.46306167" lon="1.49353333">
        <ele>961.0</ele>
        <time>2019-08-04T09:20:08.297Z</time>
      </trkpt>
      <trkpt lat="42.46304167" lon="1.493525">
        <ele>962.0</ele>
        <time>2019-08-04T09:20:09.322Z</time>
      </trkpt>
      <trkpt lat="42.46304167" lon="1.493525">
        <ele>962.0</ele>
        <time>2019-08-04T09:20:10.301Z</time>
      </trkpt>
      <trkpt lat="42.46300167" lon="1.4935">
        <ele>962.0</ele>
        <time>2019-08-04T09:20:11.326Z</time>
      </trkpt>
      <trkpt lat="42.46300167" lon="1.4935">
        <ele>962.0</ele>
        <time>2019-08-04T09:20:12.308Z</time>
      </trkpt>
      <trkpt lat="42.46296" lon="1.49348167">
        <ele>962.0</ele>
        <time>2019-08-04T09:20:13.329Z</time>
      </trkpt>
      <trkpt lat="42.46296" lon="1.49348167">
        <ele>962.0</ele>
        <time>2019-08-04T09:20:14.327Z</time>
      </trkpt>
      <trkpt lat="42.46292167" lon="1.49347167">
        <ele>962.0</ele>
        <time>2019-08-04T09:20:15.329Z</time>
      </trkpt>
      <trkpt lat="42.46292167" lon="1.49347167">
        <ele>962.0</ele>
        <time>2019-08-04T09:20:16.320Z</time>
      </trkpt>
      <trkpt lat="42.462885" lon="1.49345667">
        <ele>963.0</ele>
        <time>2019-08-04T09:20:17.308Z</time>
      </trkpt>
      <trkpt lat="42.462885" lon="1.49345667">
        <ele>963.0</ele>
        <time>2019-08-04T09:20:18.328Z</time>
      </trkpt>
      <trkpt lat="42.462845" lon="1.49344333">
        <ele>963.0</ele>
        <time>2019-08-04T09:20:19.326Z</time>
      </trkpt>
      <trkpt lat="42.462845" lon="1.49344333">
        <ele>963.0</ele>
        <time>2019-08-04T09:20:20.308Z</time>
      </trkpt>
      <trkpt lat="42.46280667" lon="1.493425">
        <ele>963.0</ele>
        <time>2019-08-04T09:20:21.335Z</time>
      </trkpt>
      <trkpt lat="42.46280667" lon="1.493425">
        <ele>963.0</ele>
        <time>2019-08-04T09:20:22.296Z</time>
      </trkpt>
      <trkpt lat="42.46277333" lon="1.4934">
        <ele>964.0</ele>
        <time>2019-08-04T09:20:23.324Z</time>
      </trkpt>
      <trkpt lat="42.46277333" lon="1.4934">
        <ele>964.0</ele>
        <time>2019-08-04T09:20:24.303Z</time>
      </trkpt>
      <trkpt lat="42.46273833" lon="1.49337333">
        <ele>964.0</ele>
        <time>2019-08-04T09:20:25.328Z</time>
      </trkpt>
      <trkpt lat="42.46273833" lon="1.49337333">
        <ele>964.0</ele>
        <time>2019-08-04T09:20:26.326Z</time>
      </trkpt>
      <trkpt lat="42.46270333" lon="1.49334833">
        <ele>965.0</ele>
        <time>2019-08-04T09:20:27.308Z</time>
      </trkpt>
      <trkpt lat="42.46270333" lon="1.49334833">
        <ele>965.0</ele>
        <time>2019-08-04T09:20:28.327Z</time>
      </trkpt>
      <trkpt lat="42.46266667" lon="1.49332667">
        <ele>965.0</ele>
        <time>2019-08-04T09:20:29.329Z</time>
      </trkpt>
      <trkpt lat="42.46266667" lon="1.49332667">
        <ele>965.0</ele>
        <time>2019-08-04T09:20:30.326Z</time>
      </trkpt>
      <trkpt lat="42.46262833" lon="1.4933">
        <ele>966.0</ele>
        <time>2019-08-04T09:20:31.300Z</time>
      </trkpt>
      <trkpt lat="42.46262833" lon="1.4933">
        <ele>966.0</ele>
        <time>2019-08-04T09:20:32.321Z</time>
      </trkpt>
      <trkpt lat="42.46259" lon="1.49327833">
        <ele>966.0</ele>
        <time>2019-08-04T09:20:33.325Z</time>
      </trkpt>
      <trkpt lat="42.46259" lon="1.49327833">
        <ele>966.0</ele>
        <time>2019-08-04T09:20:34.304Z</time>
      </trkpt>
      <trkpt lat="42.46255" lon="1.49326833">
        <ele>966.0</ele>
        <time>2019-08-04T09:20:35.296Z</time>
      </trkpt>
      <trkpt lat="42.46253333" lon="1.49325833">
        <ele>967.0</ele>
        <time>2019-08-04T09:20:36.317Z</time>
      </trkpt>
      <trkpt lat="42.46253333" lon="1.49325833">
        <ele>967.0</ele>
        <time>2019-08-04T09:20:37.319Z</time>
      </trkpt>
      <trkpt lat="42.46249667" lon="1.49323667">
        <ele>967.0</ele>
        <time>2019-08-04T09:20:38.299Z</time>
      </trkpt>
      <trkpt lat="42.46247667" lon="1.49322667">
        <ele>967.0</ele>
        <time>2019-08-04T09:20:39.327Z</time>
      </trkpt>
      <trkpt lat="42.46247667" lon="1.49322667">
        <ele>967.0</ele>
        <time>2019-08-04T09:20:40.326Z</time>
      </trkpt>
      <trkpt lat="42.46243667" lon="1.49320833">
        <ele>968.0</ele>
        <time>2019-08-04T09:20:41.328Z</time>
      </trkpt>
      <trkpt lat="42.46243667" lon="1.49320833">
        <ele>968.0</ele>
        <time>2019-08-04T09:20:42.327Z</time>
      </trkpt>
      <trkpt lat="42.46239333" lon="1.49319667">
        <ele>968.0</ele>
        <time>2019-08-04T09:20:43.302Z</time>
      </trkpt>
      <trkpt lat="42.46239333" lon="1.49319667">
        <ele>968.0</ele>
        <time>2019-08-04T09:20:44.322Z</time>
      </trkpt>
      <trkpt lat="42.46235333" lon="1.49317667">
        <ele>968.0</ele>
        <time>2019-08-04T09:20:45.309Z</time>
      </trkpt>
      <trkpt lat="42.46235333" lon="1.49317667">
        <ele>968.0</ele>
        <time>2019-08-04T09:20:46.330Z</time>
      </trkpt>
      <trkpt lat="42.46231333" lon="1.49317">
        <ele>969.0</ele>
        <time>2019-08-04T09:20:47.308Z</time>
      </trkpt>
      <trkpt lat="42.46231333" lon="1.49317">
        <ele>969.0</ele>
        <time>2019-08-04T09:20:48.328Z</time>
      </trkpt>
      <trkpt lat="42.46227333" lon="1.49316">
        <ele>969.0</ele>
        <time>2019-08-04T09:20:49.328Z</time>
      </trkpt>
      <trkpt lat="42.46227333" lon="1.49316">
        <ele>969.0</ele>
        <time>2019-08-04T09:20:50.324Z</time>
      </trkpt>
      <trkpt lat="42.46223667" lon="1.49314167">
        <ele>970.0</ele>
        <time>2019-08-04T09:20:51.308Z</time>
      </trkpt>
      <trkpt lat="42.46223667" lon="1.49314167">
        <ele>970.0</ele>
        <time>2019-08-04T09:20:52.327Z</time>
      </trkpt>
      <trkpt lat="42.46219667" lon="1.49311667">
        <ele>970.0</ele>
        <time>2019-08-04T09:20:53.303Z</time>
      </trkpt>
      <trkpt lat="42.46219667" lon="1.49311667">
        <ele>970.0</ele>
        <time>2019-08-04T09:20:54.323Z</time>
      </trkpt>
      <trkpt lat="42.46216167" lon="1.49309333">
        <ele>971.0</ele>
        <time>2019-08-04T09:20:55.304Z</time>
      </trkpt>
      <trkpt lat="42.462145" lon="1.49308">
        <ele>971.0</ele>
        <time>2019-08-04T09:20:56.312Z</time>
      </trkpt>
      <trkpt lat="42.462145" lon="1.49308">
        <ele>971.0</ele>
        <time>2019-08-04T09:20:57.334Z</time>
      </trkpt>
      <trkpt lat="42.46211167" lon="1.49305667">
        <ele>972.0</ele>
        <time>2019-08-04T09:20:58.333Z</time>
      </trkpt>
      <trkpt lat="42.46209667" lon="1.49304167">
        <ele>972.0</ele>
        <time>2019-08-04T09:20:59.304Z</time>
      </trkpt>
      <trkpt lat="42.46209667" lon="1.49304167">
        <ele>972.0</ele>
        <time>2019-08-04T09:21:00.324Z</time>
      </trkpt>
      <trkpt lat="42.46206667" lon="1.49300833">
        <ele>972.0</ele>
        <time>2019-08-04T09:21:01.303Z</time>
      </trkpt>
      <trkpt lat="42.46206667" lon="1.49300833">
        <ele>972.0</ele>
        <time>2019-08-04T09:21:02.322Z</time>
      </trkpt>
      <trkpt lat="42.46203833" lon="1.492975">
        <ele>973.0</ele>
        <time>2019-08-04T09:21:03.318Z</time>
      </trkpt>
      <trkpt lat="42.46203833" lon="1.492975">
        <ele>973.0</ele>
        <time>2019-08-04T09:21:04.297Z</time>
      </trkpt>
      <trkpt lat="42.46201" lon="1.49294167">
        <ele>973.0</ele>
        <time>2019-08-04T09:21:05.320Z</time>
      </trkpt>
      <trkpt lat="42.46201" lon="1.49294167">
        <ele>973.0</ele>
        <time>2019-08-04T09:21:06.299Z</time>
      </trkpt>
      <trkpt lat="42.46197333" lon="1.49291333">
        <ele>974.0</ele>
        <time>2019-08-04T09:21:07.335Z</time>
      </trkpt>
      <trkpt lat="42.46197333" lon="1.49291333">
        <ele>974.0</ele>
        <time>2019-08-04T09:21:08.296Z</time>
      </trkpt>
      <trkpt lat="42.46193833" lon="1.49288333">
        <ele>974.0</ele>
        <time>2019-08-04T09:21:09.318Z</time>
      </trkpt>
      <trkpt lat="42.46193833" lon="1.49288333">
        <ele>974.0</ele>
        <time>2019-08-04T09:21:10.301Z</time>
      </trkpt>
      <trkpt lat="42.46190333" lon="1.49285333">
        <ele>974.0</ele>
        <time>2019-08-04T09:21:11.333Z</time>
      </trkpt>
      <trkpt lat="42.46190333" lon="1.49285333">
        <ele>974.0</ele>
        <time>2019-08-04T09:21:12.335Z</time>
      </trkpt>
      <trkpt lat="42.46187" lon="1.492815">
        <ele>975.0</ele>
        <time>2019-08-04T09:21:13.318Z</time>
      </trkpt>
      <trkpt lat="42.46187" lon="1.492815">
        <ele>975.0</ele>
        <time>2019-08-04T09:21:14.297Z</time>
      </trkpt>
      <trkpt lat="42.46183167" lon="1.49278667">
        <ele>975.0</ele>
        <time>2019-08-04T09:21:15.326Z</time>
      </trkpt>
      <trkpt lat="42.46183167" lon="1.49278667">
        <ele>975.0</ele>
        <time>2019-08-04T09:21:16.320Z</time>
      </trkpt>
      <trkpt lat="42.461795" lon="1.492755">
        <ele>976.0</ele>
        <time>2019-08-04T09:21:17.300Z</time>
      </trkpt>
      <trkpt lat="42.461795" lon="1.492755">
        <ele>976.0</ele>
        <time>2019-08-04T09:21:18.323Z</time>
      </trkpt>
      <trkpt lat="42.46175833" lon="1.49272833">
        <ele>976.0</ele>
        <time>2019-08-04T09:21:19.304Z</time>
      </trkpt>
      <trkpt lat="42.46175833" lon="1.49272833">
        <ele>976.0</ele>
        <time>2019-08-04T09:21:20.324Z</time>
      </trkpt>
      <trkpt lat="42.46171833" lon="1.49270167">
        <ele>977.0</ele>
        <time>2019-08-04T09:21:21.309Z</time>
      </trkpt>
      <trkpt lat="42.46171833" lon="1.49270167">
        <ele>977.0</ele>
        <time>2019-08-04T09:21:22.331Z</time>
      </trkpt>
      <trkpt lat="42.46167833" lon="1.49267833">
        <ele>977.0</ele>
        <time>2019-08-04T09:21:23.309Z</time>
      </trkpt>
      <trkpt lat="42.46167833" lon="1.49267833">
        <ele>977.0</ele>
        <time>2019-08-04T09:21:24.328Z</time>
      </trkpt>
      <trkpt lat="42.46164" lon="1.49265">
        <ele>978.0</ele>
        <time>2019-08-04T09:21:25.328Z</time>
      </trkpt>
      <trkpt lat="42.46164" lon="1.49265">
        <ele>978.0</ele>
        <time>2019-08-04T09:21:26.326Z</time>
      </trkpt>
      <trkpt lat="42.4616" lon="1.49262667">
        <ele>978.0</ele>
        <time>2019-08-04T09:21:27.309Z</time>
      </trkpt>
      <trkpt lat="42.4616" lon="1.49262667">
        <ele>978.0</ele>
        <time>2019-08-04T09:21:28.310Z</time>
      </trkpt>
      <trkpt lat="42.46156167" lon="1.49260333">
        <ele>978.0</ele>
        <time>2019-08-04T09:21:29.316Z</time>
      </trkpt>
      <trkpt lat="42.46154167" lon="1.49259">
        <ele>978.0</ele>
        <time>2019-08-04T09:21:30.316Z</time>
      </trkpt>
      <trkpt lat="42.46154167" lon="1.49259">
        <ele>978.0</ele>
        <time>2019-08-04T09:21:31.296Z</time>
      </trkpt>
      <trkpt lat="42.46150333" lon="1.492565">
        <ele>979.0</ele>
        <time>2019-08-04T09:21:32.319Z</time>
      </trkpt>
      <trkpt lat="42.461485" lon="1.49255333">
        <ele>979.0</ele>
        <time>2019-08-04T09:21:33.323Z</time>
      </trkpt>
      <trkpt lat="42.461485" lon="1.49255333">
        <ele>979.0</ele>
        <time>2019-08-04T09:21:34.303Z</time>
      </trkpt>
      <trkpt lat="42.461445" lon="1.49253">
        <ele>979.0</ele>
        <time>2019-08-04T09:21:35.325Z</time>
      </trkpt>
      <trkpt lat="42.46142333" lon="1.49251833">
        <ele>979.0</ele>
        <time>2019-08-04T09:21:36.309Z</time>
      </trkpt>
      <trkpt lat="42.46142333" lon="1.49251833">
        <ele>979.0</ele>
        <time>2019-08-04T09:21:37.329Z</time>
      </trkpt>
      <trkpt lat="42.46138167" lon="1.49249">
        <ele>980.0</ele>
        <time>2019-08-04T09:21:38.330Z</time>
      </trkpt>
      <trkpt lat="42.46138167" lon="1.49249">
        <ele>980.0</ele>
        <time>2019-08-04T09:21:39.329Z</time>
      </trkpt>
      <trkpt lat="42.46134333" lon="1.49246833">
        <ele>981.0</ele>
        <time>2019-08-04T09:21:40.317Z</time>
      </trkpt>
      <trkpt lat="42.46132667" lon="1.49245667">
        <ele>981.0</ele>
        <time>2019-08-04T09:21:41.299Z</time>
      </trkpt>
      <trkpt lat="42.46130833" lon="1.49244833">
        <ele>981.0</ele>
        <time>2019-08-04T09:21:42.326Z</time>
      </trkpt>
      <trkpt lat="42.46129" lon="1.492435">
        <ele>981.0</ele>
        <time>2019-08-04T09:21:43.310Z</time>
      </trkpt>
      <trkpt lat="42.46129" lon="1.492435">
        <ele>981.0</ele>
        <time>2019-08-04T09:21:44.332Z</time>
      </trkpt>
      <trkpt lat="42.46125333" lon="1.49240833">
        <ele>982.0</ele>
        <time>2019-08-04T09:21:45.335Z</time>
      </trkpt>
      <trkpt lat="42.46125333" lon="1.49240833">
        <ele>982.0</ele>
        <time>2019-08-04T09:21:46.325Z</time>
      </trkpt>
      <trkpt lat="42.46121333" lon="1.49237833">
        <ele>982.0</ele>
        <time>2019-08-04T09:21:47.309Z</time>
      </trkpt>
      <trkpt lat="42.46121333" lon="1.49237833">
        <ele>982.0</ele>
        <time>2019-08-04T09:21:48.328Z</time>
      </trkpt>
      <trkpt lat="42.46117333" lon="1.49235333">
        <ele>983.0</ele>
        <time>2019-08-04T09:21:49.302Z</time>
      </trkpt>
      <trkpt lat="42.46115333" lon="1.49233333">
        <ele>983.0</ele>
        <time>2019-08-04T09:21:50.326Z</time>
      </trkpt>
      <trkpt lat="42.46115333" lon="1.49233333">
        <ele>983.0</ele>
        <time>2019-08-04T09:21:51.308Z</time>
      </trkpt>
      <trkpt lat="42.46111333" lon="1.49229333">
        <ele>983.0</ele>
        <time>2019-08-04T09:21:52.328Z</time>
      </trkpt>
      <trkpt lat="42.46109667" lon="1.49227333">
        <ele>984.0</ele>
        <time>2019-08-04T09:21:53.309Z</time>
      </trkpt>
      <trkpt lat="42.46109667" lon="1.49227333">
        <ele>984.0</ele>
        <time>2019-08-04T09:21:54.329Z</time>
      </trkpt>
      <trkpt lat="42.461055" lon="1.49223667">
        <ele>984.0</ele>
        <time>2019-08-04T09:21:55.329Z</time>
      </trkpt>
      <trkpt lat="42.46103333" lon="1.49222333">
        <ele>984.0</ele>
        <time>2019-08-04T09:21:56.303Z</time>
      </trkpt>
      <trkpt lat="42.46103333" lon="1.49222333">
        <ele>984.0</ele>
        <time>2019-08-04T09:21:57.324Z</time>
      </trkpt>
      <trkpt lat="42.46099667" lon="1.492185">
        <ele>985.0</ele>
        <time>2019-08-04T09:21:58.303Z</time>
      </trkpt>
      <trkpt lat="42.46097833" lon="1.49216167">
        <ele>985.0</ele>
        <time>2019-08-04T09:21:59.328Z</time>
      </trkpt>
      <trkpt lat="42.46097833" lon="1.49216167">
        <ele>985.0</ele>
        <time>2019-08-04T09:22:00.322Z</time>
      </trkpt>
      <trkpt lat="42.46093667" lon="1.49211667">
        <ele>985.0</ele>
        <time>2019-08-04T09:22:01.303Z</time>
      </trkpt>
      <trkpt lat="42.46093667" lon="1.49211667">
        <ele>985.0</ele>
        <time>2019-08-04T09:22:02.324Z</time>
      </trkpt>
      <trkpt lat="42.46090167" lon="1.492065">
        <ele>986.0</ele>
        <time>2019-08-04T09:22:03.318Z</time>
      </trkpt>
      <trkpt lat="42.46090167" lon="1.492065">
        <ele>986.0</ele>
        <time>2019-08-04T09:22:04.301Z</time>
      </trkpt>
      <trkpt lat="42.46086833" lon="1.49200833">
        <ele>986.0</ele>
        <time>2019-08-04T09:22:05.327Z</time>
      </trkpt>
      <trkpt lat="42.46085333" lon="1.491985">
        <ele>986.0</ele>
        <time>2019-08-04T09:22:06.327Z</time>
      </trkpt>
      <trkpt lat="42.46085333" lon="1.491985">
        <ele>986.0</ele>
        <time>2019-08-04T09:22:07.326Z</time>
      </trkpt>
      <trkpt lat="42.46081833" lon="1.491945">
        <ele>987.0</ele>
        <time>2019-08-04T09:22:08.309Z</time>
      </trkpt>
      <trkpt lat="42.4608" lon="1.491925">
        <ele>987.0</ele>
        <time>2019-08-04T09:22:09.296Z</time>
      </trkpt>
      <trkpt lat="42.4608" lon="1.491925">
        <ele>987.0</ele>
        <time>2019-08-04T09:22:10.311Z</time>
      </trkpt>
      <trkpt lat="42.46076333" lon="1.49188667">
        <ele>987.0</ele>
        <time>2019-08-04T09:22:11.336Z</time>
      </trkpt>
      <trkpt lat="42.46076333" lon="1.49188667">
        <ele>987.0</ele>
        <time>2019-08-04T09:22:12.329Z</time>
      </trkpt>
      <trkpt lat="42.46073333" lon="1.49184333">
        <ele>988.0</ele>
        <time>2019-08-04T09:22:13.299Z</time>
      </trkpt>
      <trkpt lat="42.46073333" lon="1.49184333">
        <ele>988.0</ele>
        <time>2019-08-04T09:22:14.321Z</time>
      </trkpt>
      <trkpt lat="42.46070667" lon="1.49179">
        <ele>989.0</ele>
        <time>2019-08-04T09:22:15.312Z</time>
      </trkpt>
      <trkpt lat="42.46070667" lon="1.49179">
        <ele>989.0</ele>
        <time>2019-08-04T09:22:16.334Z</time>
      </trkpt>
      <trkpt lat="42.460675" lon="1.49174">
        <ele>989.0</ele>
        <time>2019-08-04T09:22:17.336Z</time>
      </trkpt>
      <trkpt lat="42.460675" lon="1.49174">
        <ele>989.0</ele>
        <time>2019-08-04T09:22:18.297Z</time>
      </trkpt>
      <trkpt lat="42.46064167" lon="1.491685">
        <ele>990.0</ele>
        <time>2019-08-04T09:22:19.330Z</time>
      </trkpt>
      <trkpt lat="42.46064167" lon="1.491685">
        <ele>990.0</ele>
        <time>2019-08-04T09:22:20.328Z</time>
      </trkpt>
      <trkpt lat="42.46061333" lon="1.49162667">
        <ele>990.0</ele>
        <time>2019-08-04T09:22:21.328Z</time>
      </trkpt>
      <trkpt lat="42.46061333" lon="1.49162667">
        <ele>990.0</ele>
        <time>2019-08-04T09:22:22.323Z</time>
      </trkpt>
      <trkpt lat="42.46058" lon="1.49157667">
        <ele>991.0</ele>
        <time>2019-08-04T09:22:23.309Z</time>
      </trkpt>
      <trkpt lat="42.46058" lon="1.49157667">
        <ele>991.0</ele>
        <time>2019-08-04T09:22:24.328Z</time>
      </trkpt>
      <trkpt lat="42.46053833" lon="1.49154667">
        <ele>992.0</ele>
        <time>2019-08-04T09:22:25.329Z</time>
      </trkpt>
      <trkpt lat="42.46053833" lon="1.49154667">
        <ele>992.0</ele>
        <time>2019-08-04T09:22:26.327Z</time>
      </trkpt>
      <trkpt lat="42.46049" lon="1.49154667">
        <ele>993.0</ele>
        <time>2019-08-04T09:22:27.300Z</time>
      </trkpt>
      <trkpt lat="42.46049" lon="1.49154667">
        <ele>993.0</ele>
        <time>2019-08-04T09:22:28.323Z</time>
      </trkpt>
      <trkpt lat="42.46044167" lon="1.49157833">
        <ele>993.0</ele>
        <time>2019-08-04T09:22:29.327Z</time>
      </trkpt>
      <trkpt lat="42.46044167" lon="1.49157833">
        <ele>993.0</ele>
        <time>2019-08-04T09:22:30.327Z</time>
      </trkpt>
      <trkpt lat="42.46039667" lon="1.491615">
        <ele>994.0</ele>
        <time>2019-08-04T09:22:31.303Z</time>
      </trkpt>
      <trkpt lat="42.46038667" lon="1.491645">
        <ele>994.0</ele>
        <time>2019-08-04T09:22:32.325Z</time>
      </trkpt>
      <trkpt lat="42.46037667" lon="1.49167167">
        <ele>994.0</ele>
        <time>2019-08-04T09:22:33.327Z</time>
      </trkpt>
      <trkpt lat="42.46037667" lon="1.49167167">
        <ele>994.0</ele>
        <time>2019-08-04T09:22:34.324Z</time>
      </trkpt>
      <trkpt lat="42.46031667" lon="1.4917">
        <ele>995.0</ele>
        <time>2019-08-04T09:22:35.304Z</time>
      </trkpt>
      <trkpt lat="42.46031667" lon="1.4917">
        <ele>995.0</ele>
        <time>2019-08-04T09:22:36.324Z</time>
      </trkpt>
      <trkpt lat="42.46024333" lon="1.49172167">
        <ele>995.0</ele>
        <time>2019-08-04T09:22:37.304Z</time>
      </trkpt>
      <trkpt lat="42.46024333" lon="1.49172167">
        <ele>995.0</ele>
        <time>2019-08-04T09:22:38.324Z</time>
      </trkpt>
      <trkpt lat="42.46017167" lon="1.49171167">
        <ele>995.0</ele>
        <time>2019-08-04T09:22:39.304Z</time>
      </trkpt>
      <trkpt lat="42.46017167" lon="1.49171167">
        <ele>995.0</ele>
        <time>2019-08-04T09:22:40.323Z</time>
      </trkpt>
      <trkpt lat="42.46009667" lon="1.49167">
        <ele>996.0</ele>
        <time>2019-08-04T09:22:41.309Z</time>
      </trkpt>
      <trkpt lat="42.46009667" lon="1.49167">
        <ele>996.0</ele>
        <time>2019-08-04T09:22:42.328Z</time>
      </trkpt>
      <trkpt lat="42.46003167" lon="1.49161">
        <ele>996.0</ele>
        <time>2019-08-04T09:22:43.302Z</time>
      </trkpt>
      <trkpt lat="42.46003167" lon="1.49161">
        <ele>996.0</ele>
        <time>2019-08-04T09:22:44.321Z</time>
      </trkpt>
      <trkpt lat="42.45996833" lon="1.49153667">
        <ele>997.0</ele>
        <time>2019-08-04T09:22:45.309Z</time>
      </trkpt>
      <trkpt lat="42.45996833" lon="1.49153667">
        <ele>997.0</ele>
        <time>2019-08-04T09:22:46.329Z</time>
      </trkpt>
      <trkpt lat="42.45989667" lon="1.49146333">
        <ele>997.0</ele>
        <time>2019-08-04T09:22:47.329Z</time>
      </trkpt>
      <trkpt lat="42.45989667" lon="1.49146333">
        <ele>997.0</ele>
        <time>2019-08-04T09:22:48.326Z</time>
      </trkpt>
      <trkpt lat="42.45982167" lon="1.49137833">
        <ele>998.0</ele>
        <time>2019-08-04T09:22:49.309Z</time>
      </trkpt>
      <trkpt lat="42.45982167" lon="1.49137833">
        <ele>998.0</ele>
        <time>2019-08-04T09:22:50.328Z</time>
      </trkpt>
      <trkpt lat="42.459745" lon="1.49130167">
        <ele>998.0</ele>
        <time>2019-08-04T09:22:51.328Z</time>
      </trkpt>
      <trkpt lat="42.459745" lon="1.49130167">
        <ele>998.0</ele>
        <time>2019-08-04T09:22:52.326Z</time>
      </trkpt>
      <trkpt lat="42.45966167" lon="1.491225">
        <ele>998.0</ele>
        <time>2019-08-04T09:22:53.328Z</time>
      </trkpt>
      <trkpt lat="42.45966167" lon="1.491225">
        <ele>998.0</ele>
        <time>2019-08-04T09:22:54.312Z</time>
      </trkpt>
      <trkpt lat="42.45958333" lon="1.491185">
        <ele>999.0</ele>
        <time>2019-08-04T09:22:55.334Z</time>
      </trkpt>
      <trkpt lat="42.45958333" lon="1.491185">
        <ele>999.0</ele>
        <time>2019-08-04T09:22:56.298Z</time>
      </trkpt>
      <trkpt lat="42.45949833" lon="1.49114">
        <ele>999.0</ele>
        <time>2019-08-04T09:22:57.321Z</time>
      </trkpt>
      <trkpt lat="42.45949833" lon="1.49114">
        <ele>999.0</ele>
        <time>2019-08-04T09:22:58.303Z</time>
      </trkpt>
      <trkpt lat="42.45940833" lon="1.4911">
        <ele>1000.0</ele>
        <time>2019-08-04T09:22:59.333Z</time>
      </trkpt>
      <trkpt lat="42.45940833" lon="1.4911">
        <ele>1000.0</ele>
        <time>2019-08-04T09:23:00.335Z</time>
      </trkpt>
      <trkpt lat="42.45931833" lon="1.491065">
        <ele>1001.0</ele>
        <time>2019-08-04T09:23:01.334Z</time>
      </trkpt>
      <trkpt lat="42.45931833" lon="1.491065">
        <ele>1001.0</ele>
        <time>2019-08-04T09:23:02.335Z</time>
      </trkpt>
      <trkpt lat="42.45923667" lon="1.491025">
        <ele>1001.0</ele>
        <time>2019-08-04T09:23:03.316Z</time>
      </trkpt>
      <trkpt lat="42.45923667" lon="1.491025">
        <ele>1001.0</ele>
        <time>2019-08-04T09:23:04.296Z</time>
      </trkpt>
      <trkpt lat="42.45916" lon="1.49097667">
        <ele>1001.0</ele>
        <time>2019-08-04T09:23:05.320Z</time>
      </trkpt>
      <trkpt lat="42.45912167" lon="1.49095667">
        <ele>1002.0</ele>
        <time>2019-08-04T09:23:06.318Z</time>
      </trkpt>
      <trkpt lat="42.45912167" lon="1.49095667">
        <ele>1002.0</ele>
        <time>2019-08-04T09:23:07.297Z</time>
      </trkpt>
      <trkpt lat="42.45904167" lon="1.49091">
        <ele>1002.0</ele>
        <time>2019-08-04T09:23:08.332Z</time>
      </trkpt>
      <trkpt lat="42.459" lon="1.49089">
        <ele>1002.0</ele>
        <time>2019-08-04T09:23:09.333Z</time>
      </trkpt>
      <trkpt lat="42.459" lon="1.49089">
        <ele>1002.0</ele>
        <time>2019-08-04T09:23:10.311Z</time>
      </trkpt>
      <trkpt lat="42.45892333" lon="1.490855">
        <ele>1003.0</ele>
        <time>2019-08-04T09:23:11.300Z</time>
      </trkpt>
      <trkpt lat="42.45892333" lon="1.490855">
        <ele>1003.0</ele>
        <time>2019-08-04T09:23:12.320Z</time>
      </trkpt>
      <trkpt lat="42.45884167" lon="1.490825">
        <ele>1003.0</ele>
        <time>2019-08-04T09:23:13.310Z</time>
      </trkpt>
      <trkpt lat="42.45884167" lon="1.490825">
        <ele>1003.0</ele>
        <time>2019-08-04T09:23:14.334Z</time>
      </trkpt>
      <trkpt lat="42.45875667" lon="1.49082333">
        <ele>1004.0</ele>
        <time>2019-08-04T09:23:15.301Z</time>
      </trkpt>
      <trkpt lat="42.45871" lon="1.49082333">
        <ele>1004.0</ele>
        <time>2019-08-04T09:23:16.326Z</time>
      </trkpt>
      <trkpt lat="42.45871" lon="1.49082333">
        <ele>1004.0</ele>
        <time>2019-08-04T09:23:17.304Z</time>
      </trkpt>
      <trkpt lat="42.45862333" lon="1.49083833">
        <ele>1004.0</ele>
        <time>2019-08-04T09:23:18.299Z</time>
      </trkpt>
      <trkpt lat="42.45862333" lon="1.49083833">
        <ele>1004.0</ele>
        <time>2019-08-04T09:23:19.320Z</time>
      </trkpt>
      <trkpt lat="42.45853667" lon="1.49083667">
        <ele>1005.0</ele>
        <time>2019-08-04T09:23:20.309Z</time>
      </trkpt>
      <trkpt lat="42.458495" lon="1.49082167">
        <ele>1005.0</ele>
        <time>2019-08-04T09:23:21.312Z</time>
      </trkpt>
      <trkpt lat="42.458495" lon="1.49082167">
        <ele>1005.0</ele>
        <time>2019-08-04T09:23:22.331Z</time>
      </trkpt>
      <trkpt lat="42.45841833" lon="1.49077833">
        <ele>1005.0</ele>
        <time>2019-08-04T09:23:23.310Z</time>
      </trkpt>
      <trkpt lat="42.45841833" lon="1.49077833">
        <ele>1005.0</ele>
        <time>2019-08-04T09:23:24.330Z</time>
      </trkpt>
      <trkpt lat="42.45834" lon="1.49073667">
        <ele>1006.0</ele>
        <time>2019-08-04T09:23:25.310Z</time>
      </trkpt>
      <trkpt lat="42.4583" lon="1.49072333">
        <ele>1006.0</ele>
        <time>2019-08-04T09:23:26.335Z</time>
      </trkpt>
      <trkpt lat="42.4583" lon="1.49072333">
        <ele>1006.0</ele>
        <time>2019-08-04T09:23:27.330Z</time>
      </trkpt>
      <trkpt lat="42.45821833" lon="1.49069833">
        <ele>1006.0</ele>
        <time>2019-08-04T09:23:28.305Z</time>
      </trkpt>
      <trkpt lat="42.45821833" lon="1.49069833">
        <ele>1006.0</ele>
        <time>2019-08-04T09:23:29.313Z</time>
      </trkpt>
      <trkpt lat="42.45812667" lon="1.49069">
        <ele>1007.0</ele>
        <time>2019-08-04T09:23:30.335Z</time>
      </trkpt>
      <trkpt lat="42.45812667" lon="1.49069">
        <ele>1007.0</ele>
        <time>2019-08-04T09:23:31.335Z</time>
      </trkpt>
      <trkpt lat="42.45803667" lon="1.49068333">
        <ele>1007.0</ele>
        <time>2019-08-04T09:23:32.296Z</time>
      </trkpt>
      <trkpt lat="42.45799167" lon="1.49067667">
        <ele>1007.0</ele>
        <time>2019-08-04T09:23:33.333Z</time>
      </trkpt>
      <trkpt lat="42.45799167" lon="1.49067667">
        <ele>1007.0</ele>
        <time>2019-08-04T09:23:34.334Z</time>
      </trkpt>
      <trkpt lat="42.45790667" lon="1.49066667">
        <ele>1007.0</ele>
        <time>2019-08-04T09:23:35.304Z</time>
      </trkpt>
      <trkpt lat="42.45790667" lon="1.49066667">
        <ele>1007.0</ele>
        <time>2019-08-04T09:23:36.325Z</time>
      </trkpt>
      <trkpt lat="42.45782333" lon="1.49064667">
        <ele>1008.0</ele>
        <time>2019-08-04T09:23:37.325Z</time>
      </trkpt>
      <trkpt lat="42.457785" lon="1.49062833">
        <ele>1008.0</ele>
        <time>2019-08-04T09:23:38.309Z</time>
      </trkpt>
      <trkpt lat="42.457785" lon="1.49062833">
        <ele>1008.0</ele>
        <time>2019-08-04T09:23:39.329Z</time>
      </trkpt>
      <trkpt lat="42.45770667" lon="1.49061833">
        <ele>1009.0</ele>
        <time>2019-08-04T09:23:40.328Z</time>
      </trkpt>
      <trkpt lat="42.45767" lon="1.49060333">
        <ele>1009.0</ele>
        <time>2019-08-04T09:23:41.329Z</time>
      </trkpt>
      <trkpt lat="42.45767" lon="1.49060333">
        <ele>1009.0</ele>
        <time>2019-08-04T09:23:42.330Z</time>
      </trkpt>
      <trkpt lat="42.45758333" lon="1.490575">
        <ele>1009.0</ele>
        <time>2019-08-04T09:23:43.303Z</time>
      </trkpt>
      <trkpt lat="42.45758333" lon="1.490575">
        <ele>1009.0</ele>
        <time>2019-08-04T09:23:44.324Z</time>
      </trkpt>
      <trkpt lat="42.45749333" lon="1.49055833">
        <ele>1009.0</ele>
        <time>2019-08-04T09:23:45.318Z</time>
      </trkpt>
      <trkpt lat="42.45749333" lon="1.49055833">
        <ele>1009.0</ele>
        <time>2019-08-04T09:23:46.297Z</time>
      </trkpt>
      <trkpt lat="42.457405" lon="1.490565">
        <ele>1009.0</ele>
        <time>2019-08-04T09:23:47.304Z</time>
      </trkpt>
      <trkpt lat="42.457405" lon="1.490565">
        <ele>1009.0</ele>
        <time>2019-08-04T09:23:48.324Z</time>
      </trkpt>
      <trkpt lat="42.45732667" lon="1.49059833">
        <ele>1010.0</ele>
        <time>2019-08-04T09:23:49.304Z</time>
      </trkpt>
      <trkpt lat="42.45729167" lon="1.490625">
        <ele>1010.0</ele>
        <time>2019-08-04T09:23:50.334Z</time>
      </trkpt>
      <trkpt lat="42.45729167" lon="1.490625">
        <ele>1010.0</ele>
        <time>2019-08-04T09:23:51.335Z</time>
      </trkpt>
      <trkpt lat="42.45723" lon="1.49070667">
        <ele>1011.0</ele>
        <time>2019-08-04T09:23:52.334Z</time>
      </trkpt>
      <trkpt lat="42.457205" lon="1.49075333">
        <ele>1011.0</ele>
        <time>2019-08-04T09:23:53.310Z</time>
      </trkpt>
      <trkpt lat="42.457205" lon="1.49075333">
        <ele>1011.0</ele>
        <time>2019-08-04T09:23:54.330Z</time>
      </trkpt>
      <trkpt lat="42.45717167" lon="1.49085">
        <ele>1012.0</ele>
        <time>2019-08-04T09:23:55.330Z</time>
      </trkpt>
      <trkpt lat="42.45717167" lon="1.49085">
        <ele>1012.0</ele>
        <time>2019-08-04T09:23:56.329Z</time>
      </trkpt>
      <trkpt lat="42.45715333" lon="1.49096333">
        <ele>1012.0</ele>
        <time>2019-08-04T09:23:57.329Z</time>
      </trkpt>
      <trkpt lat="42.45715333" lon="1.49096333">
        <ele>1012.0</ele>
        <time>2019-08-04T09:23:58.327Z</time>
      </trkpt>
      <trkpt lat="42.45714833" lon="1.49108167">
        <ele>1013.0</ele>
        <time>2019-08-04T09:23:59.309Z</time>
      </trkpt>
      <trkpt lat="42.45714833" lon="1.49108167">
        <ele>1013.0</ele>
        <time>2019-08-04T09:24:00.331Z</time>
      </trkpt>
      <trkpt lat="42.45715167" lon="1.491205">
        <ele>1013.0</ele>
        <time>2019-08-04T09:24:01.334Z</time>
      </trkpt>
      <trkpt lat="42.45715167" lon="1.491205">
        <ele>1013.0</ele>
        <time>2019-08-04T09:24:02.334Z</time>
      </trkpt>
      <trkpt lat="42.45715833" lon="1.49132667">
        <ele>1013.0</ele>
        <time>2019-08-04T09:24:03.335Z</time>
      </trkpt>
      <trkpt lat="42.45715833" lon="1.49132667">
        <ele>1013.0</ele>
        <time>2019-08-04T09:24:04.335Z</time>
      </trkpt>
      <trkpt lat="42.45716667" lon="1.491455">
        <ele>1013.0</ele>
        <time>2019-08-04T09:24:05.309Z</time>
      </trkpt>
      <trkpt lat="42.45716667" lon="1.491455">
        <ele>1013.0</ele>
        <time>2019-08-04T09:24:06.329Z</time>
      </trkpt>
      <trkpt lat="42.45719" lon="1.49159667">
        <ele>1013.0</ele>
        <time>2019-08-04T09:24:07.329Z</time>
      </trkpt>
      <trkpt lat="42.45719" lon="1.49159667">
        <ele>1013.0</ele>
        <time>2019-08-04T09:24:08.326Z</time>
      </trkpt>
      <trkpt lat="42.45721333" lon="1.49173167">
        <ele>1013.0</ele>
        <time>2019-08-04T09:24:09.309Z</time>
      </trkpt>
      <trkpt lat="42.45721333" lon="1.49173167">
        <ele>1013.0</ele>
        <time>2019-08-04T09:24:10.329Z</time>
      </trkpt>
      <trkpt lat="42.457235" lon="1.49187">
        <ele>1014.0</ele>
        <time>2019-08-04T09:24:11.328Z</time>
      </trkpt>
      <trkpt lat="42.457235" lon="1.49187">
        <ele>1014.0</ele>
        <time>2019-08-04T09:24:12.326Z</time>
      </trkpt>
      <trkpt lat="42.457255" lon="1.49200833">
        <ele>1014.0</ele>
        <time>2019-08-04T09:24:13.330Z</time>
      </trkpt>
      <trkpt lat="42.457255" lon="1.49200833">
        <ele>1014.0</ele>
        <time>2019-08-04T09:24:14.325Z</time>
      </trkpt>
      <trkpt lat="42.45728" lon="1.492145">
        <ele>1015.0</ele>
        <time>2019-08-04T09:24:15.305Z</time>
      </trkpt>
      <trkpt lat="42.45728" lon="1.492145">
        <ele>1015.0</ele>
        <time>2019-08-04T09:24:16.325Z</time>
      </trkpt>
      <trkpt lat="42.4573" lon="1.492285">
        <ele>1015.0</ele>
        <time>2019-08-04T09:24:17.306Z</time>
      </trkpt>
      <trkpt lat="42.4573" lon="1.492285">
        <ele>1015.0</ele>
        <time>2019-08-04T09:24:18.325Z</time>
      </trkpt>
      <trkpt lat="42.45732333" lon="1.49242667">
        <ele>1015.0</ele>
        <time>2019-08-04T09:24:19.305Z</time>
      </trkpt>
      <trkpt lat="42.45732333" lon="1.49242667">
        <ele>1015.0</ele>
        <time>2019-08-04T09:24:20.325Z</time>
      </trkpt>
      <trkpt lat="42.45735167" lon="1.49257167">
        <ele>1015.0</ele>
        <time>2019-08-04T09:24:21.304Z</time>
      </trkpt>
      <trkpt lat="42.45735167" lon="1.49257167">
        <ele>1015.0</ele>
        <time>2019-08-04T09:24:22.323Z</time>
      </trkpt>
      <trkpt lat="42.457395" lon="1.49271167">
        <ele>1015.0</ele>
        <time>2019-08-04T09:24:23.328Z</time>
      </trkpt>
      <trkpt lat="42.457395" lon="1.49271167">
        <ele>1015.0</ele>
        <time>2019-08-04T09:24:24.326Z</time>
      </trkpt>
      <trkpt lat="42.457445" lon="1.49283667">
        <ele>1015.0</ele>
        <time>2019-08-04T09:24:25.305Z</time>
      </trkpt>
      <trkpt lat="42.45747667" lon="1.492895">
        <ele>1015.0</ele>
        <time>2019-08-04T09:24:26.327Z</time>
      </trkpt>
      <trkpt lat="42.45747667" lon="1.492895">
        <ele>1015.0</ele>
        <time>2019-08-04T09:24:27.309Z</time>
      </trkpt>
      <trkpt lat="42.45753" lon="1.49301833">
        <ele>1015.0</ele>
        <time>2019-08-04T09:24:28.297Z</time>
      </trkpt>
      <trkpt lat="42.45753" lon="1.49301833">
        <ele>1015.0</ele>
        <time>2019-08-04T09:24:29.309Z</time>
      </trkpt>
      <trkpt lat="42.45758" lon="1.49315167">
        <ele>1015.0</ele>
        <time>2019-08-04T09:24:30.317Z</time>
      </trkpt>
      <trkpt lat="42.45758" lon="1.49315167">
        <ele>1015.0</ele>
        <time>2019-08-04T09:24:31.325Z</time>
      </trkpt>
      <trkpt lat="42.45762333" lon="1.49327333">
        <ele>1015.0</ele>
        <time>2019-08-04T09:24:32.331Z</time>
      </trkpt>
      <trkpt lat="42.45764333" lon="1.49333333">
        <ele>1015.0</ele>
        <time>2019-08-04T09:24:33.318Z</time>
      </trkpt>
      <trkpt lat="42.45764333" lon="1.49333333">
        <ele>1015.0</ele>
        <time>2019-08-04T09:24:34.303Z</time>
      </trkpt>
      <trkpt lat="42.45768667" lon="1.49346167">
        <ele>1015.0</ele>
        <time>2019-08-04T09:24:35.299Z</time>
      </trkpt>
      <trkpt lat="42.45768667" lon="1.49346167">
        <ele>1015.0</ele>
        <time>2019-08-04T09:24:36.319Z</time>
      </trkpt>
      <trkpt lat="42.45771833" lon="1.49361">
        <ele>1015.0</ele>
        <time>2019-08-04T09:24:37.324Z</time>
      </trkpt>
      <trkpt lat="42.45771833" lon="1.49361">
        <ele>1015.0</ele>
        <time>2019-08-04T09:24:38.303Z</time>
      </trkpt>
      <trkpt lat="42.45770833" lon="1.49375667">
        <ele>1014.0</ele>
        <time>2019-08-04T09:24:39.299Z</time>
      </trkpt>
      <trkpt lat="42.45770833" lon="1.49375667">
        <ele>1014.0</ele>
        <time>2019-08-04T09:24:40.321Z</time>
      </trkpt>
      <trkpt lat="42.45762167" lon="1.49385667">
        <ele>1014.0</ele>
        <time>2019-08-04T09:24:41.309Z</time>
      </trkpt>
      <trkpt lat="42.45762167" lon="1.49385667">
        <ele>1014.0</ele>
        <time>2019-08-04T09:24:42.333Z</time>
      </trkpt>
      <trkpt lat="42.45752" lon="1.49389167">
        <ele>1014.0</ele>
        <time>2019-08-04T09:24:43.335Z</time>
      </trkpt>
      <trkpt lat="42.45752" lon="1.49389167">
        <ele>1014.0</ele>
        <time>2019-08-04T09:24:44.335Z</time>
      </trkpt>
      <trkpt lat="42.45743" lon="1.49384333">
        <ele>1014.0</ele>
        <time>2019-08-04T09:24:45.305Z</time>
      </trkpt>
      <trkpt lat="42.45743" lon="1.49384333">
        <ele>1014.0</ele>
        <time>2019-08-04T09:24:46.327Z</time>
      </trkpt>
      <trkpt lat="42.45736333" lon="1.493775">
        <ele>1014.0</ele>
        <time>2019-08-04T09:24:47.312Z</time>
      </trkpt>
      <trkpt lat="42.45736333" lon="1.493775">
        <ele>1014.0</ele>
        <time>2019-08-04T09:24:48.336Z</time>
      </trkpt>
      <trkpt lat="42.45729167" lon="1.49369167">
        <ele>1015.0</ele>
        <time>2019-08-04T09:24:49.334Z</time>
      </trkpt>
      <trkpt lat="42.45725833" lon="1.49364667">
        <ele>1015.0</ele>
        <time>2019-08-04T09:24:50.313Z</time>
      </trkpt>
      <trkpt lat="42.45725833" lon="1.49364667">
        <ele>1015.0</ele>
        <time>2019-08-04T09:24:51.333Z</time>
      </trkpt>
      <trkpt lat="42.457195" lon="1.49357">
        <ele>1015.0</ele>
        <time>2019-08-04T09:24:52.334Z</time>
      </trkpt>
      <trkpt lat="42.45716833" lon="1.49354">
        <ele>1015.0</ele>
        <time>2019-08-04T09:24:53.321Z</time>
      </trkpt>
      <trkpt lat="42.45716833" lon="1.49354">
        <ele>1015.0</ele>
        <time>2019-08-04T09:24:54.303Z</time>
      </trkpt>
      <trkpt lat="42.45711833" lon="1.49348833">
        <ele>1015.0</ele>
        <time>2019-08-04T09:24:55.327Z</time>
      </trkpt>
      <trkpt lat="42.45711833" lon="1.49348833">
        <ele>1015.0</ele>
        <time>2019-08-04T09:24:56.309Z</time>
      </trkpt>
      <trkpt lat="42.457075" lon="1.49343167">
        <ele>1015.0</ele>
        <time>2019-08-04T09:24:57.302Z</time>
      </trkpt>
      <trkpt lat="42.45706" lon="1.49341167">
        <ele>1016.0</ele>
        <time>2019-08-04T09:24:58.336Z</time>
      </trkpt>
      <trkpt lat="42.45704167" lon="1.49339">
        <ele>1016.0</ele>
        <time>2019-08-04T09:24:59.305Z</time>
      </trkpt>
      <trkpt lat="42.45704167" lon="1.49339">
        <ele>1016.0</ele>
        <time>2019-08-04T09:25:00.325Z</time>
      </trkpt>
      <trkpt lat="42.45699167" lon="1.49333">
        <ele>1016.0</ele>
        <time>2019-08-04T09:25:01.306Z</time>
      </trkpt>
      <trkpt lat="42.45699167" lon="1.49333">
        <ele>1016.0</ele>
        <time>2019-08-04T09:25:02.325Z</time>
      </trkpt>
      <trkpt lat="42.45692333" lon="1.49326">
        <ele>1016.0</ele>
        <time>2019-08-04T09:25:03.305Z</time>
      </trkpt>
      <trkpt lat="42.45692333" lon="1.49326">
        <ele>1016.0</ele>
        <time>2019-08-04T09:25:04.324Z</time>
      </trkpt>
      <trkpt lat="42.456875" lon="1.49320333">
        <ele>1017.0</ele>
        <time>2019-08-04T09:25:05.304Z</time>
      </trkpt>
      <trkpt lat="42.456875" lon="1.49320333">
        <ele>1017.0</ele>
        <time>2019-08-04T09:25:06.324Z</time>
      </trkpt>
      <trkpt lat="42.45682333" lon="1.49314833">
        <ele>1017.0</ele>
        <time>2019-08-04T09:25:07.323Z</time>
      </trkpt>
      <trkpt lat="42.45682333" lon="1.49314833">
        <ele>1017.0</ele>
        <time>2019-08-04T09:25:08.299Z</time>
      </trkpt>
      <trkpt lat="42.456785" lon="1.49309167">
        <ele>1017.0</ele>
        <time>2019-08-04T09:25:09.323Z</time>
      </trkpt>
      <trkpt lat="42.456785" lon="1.49309167">
        <ele>1017.0</ele>
        <time>2019-08-04T09:25:10.301Z</time>
      </trkpt>
      <trkpt lat="42.45675333" lon="1.49303667">
        <ele>1017.0</ele>
        <time>2019-08-04T09:25:11.296Z</time>
      </trkpt>
      <trkpt lat="42.45674333" lon="1.49300667">
        <ele>1017.0</ele>
        <time>2019-08-04T09:25:12.321Z</time>
      </trkpt>
      <trkpt lat="42.45673667" lon="1.492975">
        <ele>1017.0</ele>
        <time>2019-08-04T09:25:13.326Z</time>
      </trkpt>
      <trkpt lat="42.45673667" lon="1.492975">
        <ele>1017.0</ele>
        <time>2019-08-04T09:25:14.310Z</time>
      </trkpt>
      <trkpt lat="42.45671167" lon="1.49289833">
        <ele>1018.0</ele>
        <time>2019-08-04T09:25:15.304Z</time>
      </trkpt>
      <trkpt lat="42.45671167" lon="1.49289833">
        <ele>1018.0</ele>
        <time>2019-08-04T09:25:16.324Z</time>
      </trkpt>
      <trkpt lat="42.45670167" lon="1.49282">
        <ele>1018.0</ele>
        <time>2019-08-04T09:25:17.307Z</time>
      </trkpt>
      <trkpt lat="42.45670167" lon="1.49282">
        <ele>1018.0</ele>
        <time>2019-08-04T09:25:18.326Z</time>
      </trkpt>
      <trkpt lat="42.456705" lon="1.49275833">
        <ele>1018.0</ele>
        <time>2019-08-04T09:25:19.311Z</time>
      </trkpt>
      <trkpt lat="42.456705" lon="1.49275833">
        <ele>1018.0</ele>
        <time>2019-08-04T09:25:20.330Z</time>
      </trkpt>
      <trkpt lat="42.456705" lon="1.49269">
        <ele>1019.0</ele>
        <time>2019-08-04T09:25:21.330Z</time>
      </trkpt>
      <trkpt lat="42.456705" lon="1.49269">
        <ele>1019.0</ele>
        <time>2019-08-04T09:25:22.327Z</time>
      </trkpt>
      <trkpt lat="42.45669667" lon="1.492615">
        <ele>1019.0</ele>
        <time>2019-08-04T09:25:23.328Z</time>
      </trkpt>
      <trkpt lat="42.45669667" lon="1.492615">
        <ele>1019.0</ele>
        <time>2019-08-04T09:25:24.326Z</time>
      </trkpt>
      <trkpt lat="42.45668833" lon="1.49254333">
        <ele>1019.0</ele>
        <time>2019-08-04T09:25:25.311Z</time>
      </trkpt>
      <trkpt lat="42.45665833" lon="1.49249167">
        <ele>1020.0</ele>
        <time>2019-08-04T09:25:26.306Z</time>
      </trkpt>
      <trkpt lat="42.45665833" lon="1.49249167">
        <ele>1020.0</ele>
        <time>2019-08-04T09:25:27.330Z</time>
      </trkpt>
      <trkpt lat="42.45660667" lon="1.49241">
        <ele>1020.0</ele>
        <time>2019-08-04T09:25:28.305Z</time>
      </trkpt>
      <trkpt lat="42.45660667" lon="1.49241">
        <ele>1020.0</ele>
        <time>2019-08-04T09:25:29.313Z</time>
      </trkpt>
      <trkpt lat="42.45655167" lon="1.49237">
        <ele>1021.0</ele>
        <time>2019-08-04T09:25:30.319Z</time>
      </trkpt>
      <trkpt lat="42.45655167" lon="1.49237">
        <ele>1021.0</ele>
        <time>2019-08-04T09:25:31.298Z</time>
      </trkpt>
      <trkpt lat="42.45649" lon="1.49237167">
        <ele>1021.0</ele>
        <time>2019-08-04T09:25:32.320Z</time>
      </trkpt>
      <trkpt lat="42.45645833" lon="1.492395">
        <ele>1022.0</ele>
        <time>2019-08-04T09:25:33.332Z</time>
      </trkpt>
      <trkpt lat="42.45645833" lon="1.492395">
        <ele>1022.0</ele>
        <time>2019-08-04T09:25:34.330Z</time>
      </trkpt>
      <trkpt lat="42.45642" lon="1.49246333">
        <ele>1022.0</ele>
        <time>2019-08-04T09:25:35.328Z</time>
      </trkpt>
      <trkpt lat="42.45642" lon="1.49246333">
        <ele>1022.0</ele>
        <time>2019-08-04T09:25:36.324Z</time>
      </trkpt>
      <trkpt lat="42.45640167" lon="1.49254">
        <ele>1022.0</ele>
        <time>2019-08-04T09:25:37.305Z</time>
      </trkpt>
      <trkpt lat="42.45640333" lon="1.49257833">
        <ele>1023.0</ele>
        <time>2019-08-04T09:25:38.319Z</time>
      </trkpt>
      <trkpt lat="42.45640333" lon="1.49257833">
        <ele>1023.0</ele>
        <time>2019-08-04T09:25:39.298Z</time>
      </trkpt>
      <trkpt lat="42.45641667" lon="1.49265167">
        <ele>1023.0</ele>
        <time>2019-08-04T09:25:40.326Z</time>
      </trkpt>
      <trkpt lat="42.45643667" lon="1.49270167">
        <ele>1023.0</ele>
        <time>2019-08-04T09:25:41.299Z</time>
      </trkpt>
      <trkpt lat="42.45645333" lon="1.49274">
        <ele>1023.0</ele>
        <time>2019-08-04T09:25:42.326Z</time>
      </trkpt>
      <trkpt lat="42.456475" lon="1.49277833">
        <ele>1024.0</ele>
        <time>2019-08-04T09:25:43.329Z</time>
      </trkpt>
      <trkpt lat="42.456475" lon="1.49277833">
        <ele>1024.0</ele>
        <time>2019-08-04T09:25:44.326Z</time>
      </trkpt>
      <trkpt lat="42.45651" lon="1.49285">
        <ele>1024.0</ele>
        <time>2019-08-04T09:25:45.310Z</time>
      </trkpt>
      <trkpt lat="42.45651" lon="1.49285">
        <ele>1024.0</ele>
        <time>2019-08-04T09:25:46.331Z</time>
      </trkpt>
      <trkpt lat="42.45654833" lon="1.49292333">
        <ele>1025.0</ele>
        <time>2019-08-04T09:25:47.333Z</time>
      </trkpt>
      <trkpt lat="42.45654833" lon="1.49292333">
        <ele>1025.0</ele>
        <time>2019-08-04T09:25:48.333Z</time>
      </trkpt>
      <trkpt lat="42.45658167" lon="1.49300333">
        <ele>1026.0</ele>
        <time>2019-08-04T09:25:49.297Z</time>
      </trkpt>
      <trkpt lat="42.45659667" lon="1.49303833">
        <ele>1026.0</ele>
        <time>2019-08-04T09:25:50.318Z</time>
      </trkpt>
      <trkpt lat="42.45659667" lon="1.49303833">
        <ele>1026.0</ele>
        <time>2019-08-04T09:25:51.297Z</time>
      </trkpt>
      <trkpt lat="42.456625" lon="1.49311">
        <ele>1027.0</ele>
        <time>2019-08-04T09:25:52.327Z</time>
      </trkpt>
      <trkpt lat="42.45664167" lon="1.49314667">
        <ele>1027.0</ele>
        <time>2019-08-04T09:25:53.334Z</time>
      </trkpt>
      <trkpt lat="42.45664167" lon="1.49314667">
        <ele>1027.0</ele>
        <time>2019-08-04T09:25:54.335Z</time>
      </trkpt>
      <trkpt lat="42.45666833" lon="1.49321667">
        <ele>1028.0</ele>
        <time>2019-08-04T09:25:55.305Z</time>
      </trkpt>
      <trkpt lat="42.45666833" lon="1.49321667">
        <ele>1028.0</ele>
        <time>2019-08-04T09:25:56.330Z</time>
      </trkpt>
      <trkpt lat="42.45668833" lon="1.493285">
        <ele>1028.0</ele>
        <time>2019-08-04T09:25:57.330Z</time>
      </trkpt>
      <trkpt lat="42.4567" lon="1.49331667">
        <ele>1029.0</ele>
        <time>2019-08-04T09:25:58.310Z</time>
      </trkpt>
      <trkpt lat="42.4567" lon="1.49331667">
        <ele>1029.0</ele>
        <time>2019-08-04T09:25:59.331Z</time>
      </trkpt>
      <trkpt lat="42.45672667" lon="1.49337833">
        <ele>1029.0</ele>
        <time>2019-08-04T09:26:00.298Z</time>
      </trkpt>
      <trkpt lat="42.45673833" lon="1.49341">
        <ele>1030.0</ele>
        <time>2019-08-04T09:26:01.320Z</time>
      </trkpt>
      <trkpt lat="42.45673833" lon="1.49341">
        <ele>1030.0</ele>
        <time>2019-08-04T09:26:02.299Z</time>
      </trkpt>
      <trkpt lat="42.45676" lon="1.49347333">
        <ele>1030.0</ele>
        <time>2019-08-04T09:26:03.327Z</time>
      </trkpt>
      <trkpt lat="42.45676" lon="1.49347333">
        <ele>1030.0</ele>
        <time>2019-08-04T09:26:04.307Z</time>
      </trkpt>
      <trkpt lat="42.45678667" lon="1.49354">
        <ele>1031.0</ele>
        <time>2019-08-04T09:26:05.333Z</time>
      </trkpt>
      <trkpt lat="42.45678667" lon="1.49354">
        <ele>1031.0</ele>
        <time>2019-08-04T09:26:06.330Z</time>
      </trkpt>
      <trkpt lat="42.456815" lon="1.493605">
        <ele>1032.0</ele>
        <time>2019-08-04T09:26:07.330Z</time>
      </trkpt>
      <trkpt lat="42.456815" lon="1.493605">
        <ele>1032.0</ele>
        <time>2019-08-04T09:26:08.329Z</time>
      </trkpt>
      <trkpt lat="42.45683167" lon="1.49366667">
        <ele>1032.0</ele>
        <time>2019-08-04T09:26:09.329Z</time>
      </trkpt>
      <trkpt lat="42.45683167" lon="1.49366667">
        <ele>1032.0</ele>
        <time>2019-08-04T09:26:10.327Z</time>
      </trkpt>
      <trkpt lat="42.45685833" lon="1.49374167">
        <ele>1033.0</ele>
        <time>2019-08-04T09:26:11.310Z</time>
      </trkpt>
      <trkpt lat="42.45685833" lon="1.49374167">
        <ele>1033.0</ele>
        <time>2019-08-04T09:26:12.332Z</time>
      </trkpt>
      <trkpt lat="42.456885" lon="1.49381">
        <ele>1034.0</ele>
        <time>2019-08-04T09:26:13.310Z</time>
      </trkpt>
      <trkpt lat="42.456885" lon="1.49381">
        <ele>1034.0</ele>
        <time>2019-08-04T09:26:14.330Z</time>
      </trkpt>
      <trkpt lat="42.45691167" lon="1.49387167">
        <ele>1034.0</ele>
        <time>2019-08-04T09:26:15.329Z</time>
      </trkpt>
      <trkpt lat="42.45691167" lon="1.49387167">
        <ele>1034.0</ele>
        <time>2019-08-04T09:26:16.328Z</time>
      </trkpt>
      <trkpt lat="42.45693833" lon="1.49393167">
        <ele>1035.0</ele>
        <time>2019-08-04T09:26:17.310Z</time>
      </trkpt>
      <trkpt lat="42.45693833" lon="1.49393167">
        <ele>1035.0</ele>
        <time>2019-08-04T09:26:18.297Z</time>
      </trkpt>
      <trkpt lat="42.45697167" lon="1.49399667">
        <ele>1036.0</ele>
        <time>2019-08-04T09:26:19.321Z</time>
      </trkpt>
      <trkpt lat="42.45697167" lon="1.49399667">
        <ele>1036.0</ele>
        <time>2019-08-04T09:26:20.303Z</time>
      </trkpt>
      <trkpt lat="42.45701" lon="1.49405167">
        <ele>1037.0</ele>
        <time>2019-08-04T09:26:21.324Z</time>
      </trkpt>
      <trkpt lat="42.45701" lon="1.49405167">
        <ele>1037.0</ele>
        <time>2019-08-04T09:26:22.303Z</time>
      </trkpt>
      <trkpt lat="42.45703833" lon="1.49410167">
        <ele>1037.0</ele>
        <time>2019-08-04T09:26:23.328Z</time>
      </trkpt>
      <trkpt lat="42.45703833" lon="1.49410167">
        <ele>1037.0</ele>
        <time>2019-08-04T09:26:24.320Z</time>
      </trkpt>
      <trkpt lat="42.45705" lon="1.49416167">
        <ele>1038.0</ele>
        <time>2019-08-04T09:26:25.300Z</time>
      </trkpt>
      <trkpt lat="42.45704167" lon="1.49419167">
        <ele>1039.0</ele>
        <time>2019-08-04T09:26:26.320Z</time>
      </trkpt>
      <trkpt lat="42.45704167" lon="1.49419167">
        <ele>1039.0</ele>
        <time>2019-08-04T09:26:27.299Z</time>
      </trkpt>
      <trkpt lat="42.45701" lon="1.49423167">
        <ele>1040.0</ele>
        <time>2019-08-04T09:26:28.299Z</time>
      </trkpt>
      <trkpt lat="42.45701" lon="1.49423167">
        <ele>1040.0</ele>
        <time>2019-08-04T09:26:29.303Z</time>
      </trkpt>
      <trkpt lat="42.45697" lon="1.49423667">
        <ele>1040.0</ele>
        <time>2019-08-04T09:26:30.328Z</time>
      </trkpt>
      <trkpt lat="42.45695167" lon="1.49423333">
        <ele>1041.0</ele>
        <time>2019-08-04T09:26:31.311Z</time>
      </trkpt>
      <trkpt lat="42.45695167" lon="1.49423333">
        <ele>1041.0</ele>
        <time>2019-08-04T09:26:32.331Z</time>
      </trkpt>
      <trkpt lat="42.45691167" lon="1.49420833">
        <ele>1041.0</ele>
        <time>2019-08-04T09:26:33.312Z</time>
      </trkpt>
      <trkpt lat="42.45691167" lon="1.49420833">
        <ele>1041.0</ele>
        <time>2019-08-04T09:26:34.332Z</time>
      </trkpt>
      <trkpt lat="42.45688167" lon="1.49417">
        <ele>1042.0</ele>
        <time>2019-08-04T09:26:35.334Z</time>
      </trkpt>
      <trkpt lat="42.45687" lon="1.49415">
        <ele>1043.0</ele>
        <time>2019-08-04T09:26:36.299Z</time>
      </trkpt>
      <trkpt lat="42.45687" lon="1.49415">
        <ele>1043.0</ele>
        <time>2019-08-04T09:26:37.321Z</time>
      </trkpt>
      <trkpt lat="42.45685333" lon="1.49409833">
        <ele>1044.0</ele>
        <time>2019-08-04T09:26:38.304Z</time>
      </trkpt>
      <trkpt lat="42.45685333" lon="1.49409833">
        <ele>1044.0</ele>
        <time>2019-08-04T09:26:39.324Z</time>
      </trkpt>
      <trkpt lat="42.45683833" lon="1.49404667">
        <ele>1045.0</ele>
        <time>2019-08-04T09:26:40.305Z</time>
      </trkpt>
      <trkpt lat="42.45683833" lon="1.49404667">
        <ele>1045.0</ele>
        <time>2019-08-04T09:26:41.326Z</time>
      </trkpt>
      <trkpt lat="42.45683167" lon="1.494005">
        <ele>1046.0</ele>
        <time>2019-08-04T09:26:42.310Z</time>
      </trkpt>
      <trkpt lat="42.456825" lon="1.49398333">
        <ele>1046.0</ele>
        <time>2019-08-04T09:26:43.321Z</time>
      </trkpt>
      <trkpt lat="42.456825" lon="1.49398333">
        <ele>1046.0</ele>
        <time>2019-08-04T09:26:44.300Z</time>
      </trkpt>
      <trkpt lat="42.45681167" lon="1.49394333">
        <ele>1047.0</ele>
        <time>2019-08-04T09:26:45.334Z</time>
      </trkpt>
      <trkpt lat="42.45681167" lon="1.49394333">
        <ele>1047.0</ele>
        <time>2019-08-04T09:26:46.336Z</time>
      </trkpt>
      <trkpt lat="42.45679333" lon="1.49390667">
        <ele>1048.0</ele>
        <time>2019-08-04T09:26:47.298Z</time>
      </trkpt>
      <trkpt lat="42.45679333" lon="1.49390667">
        <ele>1048.0</ele>
        <time>2019-08-04T09:26:48.322Z</time>
      </trkpt>
      <trkpt lat="42.45677" lon="1.49387333">
        <ele>1048.0</ele>
        <time>2019-08-04T09:26:49.302Z</time>
      </trkpt>
      <trkpt lat="42.45677" lon="1.49387333">
        <ele>1048.0</ele>
        <time>2019-08-04T09:26:50.322Z</time>
      </trkpt>
      <trkpt lat="42.45674833" lon="1.49384">
        <ele>1049.0</ele>
        <time>2019-08-04T09:26:51.302Z</time>
      </trkpt>
      <trkpt lat="42.45672833" lon="1.49383833">
        <ele>1050.0</ele>
        <time>2019-08-04T09:26:52.328Z</time>
      </trkpt>
      <trkpt lat="42.45672" lon="1.49382833">
        <ele>1050.0</ele>
        <time>2019-08-04T09:26:53.329Z</time>
      </trkpt>
      <trkpt lat="42.45672" lon="1.49382833">
        <ele>1050.0</ele>
        <time>2019-08-04T09:26:54.326Z</time>
      </trkpt>
      <trkpt lat="42.45669167" lon="1.493835">
        <ele>1051.0</ele>
        <time>2019-08-04T09:26:55.311Z</time>
      </trkpt>
      <trkpt lat="42.45669167" lon="1.493835">
        <ele>1051.0</ele>
        <time>2019-08-04T09:26:56.297Z</time>
      </trkpt>
      <trkpt lat="42.45667" lon="1.49382667">
        <ele>1052.0</ele>
        <time>2019-08-04T09:26:57.327Z</time>
      </trkpt>
      <trkpt lat="42.45667" lon="1.49382667">
        <ele>1052.0</ele>
        <time>2019-08-04T09:26:58.312Z</time>
      </trkpt>
      <trkpt lat="42.45666833" lon="1.49379">
        <ele>1053.0</ele>
        <time>2019-08-04T09:26:59.302Z</time>
      </trkpt>
      <trkpt lat="42.45666833" lon="1.49379">
        <ele>1053.0</ele>
        <time>2019-08-04T09:27:00.324Z</time>
      </trkpt>
      <trkpt lat="42.456645" lon="1.49374167">
        <ele>1053.0</ele>
        <time>2019-08-04T09:27:01.305Z</time>
      </trkpt>
      <trkpt lat="42.45663167" lon="1.49371833">
        <ele>1054.0</ele>
        <time>2019-08-04T09:27:02.327Z</time>
      </trkpt>
      <trkpt lat="42.45662" lon="1.493695">
        <ele>1054.0</ele>
        <time>2019-08-04T09:27:03.332Z</time>
      </trkpt>
      <trkpt lat="42.45662" lon="1.493695">
        <ele>1054.0</ele>
        <time>2019-08-04T09:27:04.331Z</time>
      </trkpt>
      <trkpt lat="42.45659833" lon="1.49364833">
        <ele>1055.0</ele>
        <time>2019-08-04T09:27:05.311Z</time>
      </trkpt>
      <trkpt lat="42.45659833" lon="1.49364833">
        <ele>1055.0</ele>
        <time>2019-08-04T09:27:06.332Z</time>
      </trkpt>
      <trkpt lat="42.456575" lon="1.49360667">
        <ele>1056.0</ele>
        <time>2019-08-04T09:27:07.333Z</time>
      </trkpt>
      <trkpt lat="42.456575" lon="1.49360667">
        <ele>1056.0</ele>
        <time>2019-08-04T09:27:08.335Z</time>
      </trkpt>
      <trkpt lat="42.45655333" lon="1.493565">
        <ele>1056.0</ele>
        <time>2019-08-04T09:27:09.334Z</time>
      </trkpt>
      <trkpt lat="42.45655333" lon="1.493565">
        <ele>1056.0</ele>
        <time>2019-08-04T09:27:10.319Z</time>
      </trkpt>
      <trkpt lat="42.45653167" lon="1.49352167">
        <ele>1057.0</ele>
        <time>2019-08-04T09:27:11.298Z</time>
      </trkpt>
      <trkpt lat="42.45651833" lon="1.4935">
        <ele>1058.0</ele>
        <time>2019-08-04T09:27:12.332Z</time>
      </trkpt>
      <trkpt lat="42.45650333" lon="1.49348167">
        <ele>1058.0</ele>
        <time>2019-08-04T09:27:13.317Z</time>
      </trkpt>
      <trkpt lat="42.45650333" lon="1.49348167">
        <ele>1058.0</ele>
        <time>2019-08-04T09:27:14.296Z</time>
      </trkpt>
      <trkpt lat="42.45647333" lon="1.49343667">
        <ele>1059.0</ele>
        <time>2019-08-04T09:27:15.329Z</time>
      </trkpt>
      <trkpt lat="42.45647333" lon="1.49343667">
        <ele>1059.0</ele>
        <time>2019-08-04T09:27:16.326Z</time>
      </trkpt>
      <trkpt lat="42.45645" lon="1.493385">
        <ele>1060.0</ele>
        <time>2019-08-04T09:27:17.310Z</time>
      </trkpt>
      <trkpt lat="42.45645" lon="1.493385">
        <ele>1060.0</ele>
        <time>2019-08-04T09:27:18.296Z</time>
      </trkpt>
      <trkpt lat="42.45642167" lon="1.49333667">
        <ele>1060.0</ele>
        <time>2019-08-04T09:27:19.313Z</time>
      </trkpt>
      <trkpt lat="42.45640333" lon="1.49331333">
        <ele>1061.0</ele>
        <time>2019-08-04T09:27:20.301Z</time>
      </trkpt>
      <trkpt lat="42.45640333" lon="1.49331333">
        <ele>1061.0</ele>
        <time>2019-08-04T09:27:21.324Z</time>
      </trkpt>
      <trkpt lat="42.45637333" lon="1.49327">
        <ele>1061.0</ele>
        <time>2019-08-04T09:27:22.304Z</time>
      </trkpt>
      <trkpt lat="42.45636" lon="1.49324667">
        <ele>1062.0</ele>
        <time>2019-08-04T09:27:23.319Z</time>
      </trkpt>
      <trkpt lat="42.45636" lon="1.49324667">
        <ele>1062.0</ele>
        <time>2019-08-04T09:27:24.303Z</time>
      </trkpt>
      <trkpt lat="42.45633667" lon="1.49319833">
        <ele>1062.0</ele>
        <time>2019-08-04T09:27:25.328Z</time>
      </trkpt>
      <trkpt lat="42.45633667" lon="1.49319833">
        <ele>1062.0</ele>
        <time>2019-08-04T09:27:26.310Z</time>
      </trkpt>
      <trkpt lat="42.45630667" lon="1.49315333">
        <ele>1063.0</ele>
        <time>2019-08-04T09:27:27.334Z</time>
      </trkpt>
      <trkpt lat="42.45629" lon="1.493135">
        <ele>1064.0</ele>
        <time>2019-08-04T09:27:28.297Z</time>
      </trkpt>
      <trkpt lat="42.45629" lon="1.493135">
        <ele>1064.0</ele>
        <time>2019-08-04T09:27:29.323Z</time>
      </trkpt>
      <trkpt lat="42.45626" lon="1.4931">
        <ele>1065.0</ele>
        <time>2019-08-04T09:27:30.332Z</time>
      </trkpt>
      <trkpt lat="42.45626" lon="1.4931">
        <ele>1065.0</ele>
        <time>2019-08-04T09:27:31.298Z</time>
      </trkpt>
      <trkpt lat="42.45624" lon="1.49306">
        <ele>1066.0</ele>
        <time>2019-08-04T09:27:32.304Z</time>
      </trkpt>
      <trkpt lat="42.45623333" lon="1.49303167">
        <ele>1066.0</ele>
        <time>2019-08-04T09:27:33.335Z</time>
      </trkpt>
      <trkpt lat="42.45623333" lon="1.49303167">
        <ele>1066.0</ele>
        <time>2019-08-04T09:27:34.303Z</time>
      </trkpt>
      <trkpt lat="42.45620833" lon="1.49298333">
        <ele>1067.0</ele>
        <time>2019-08-04T09:27:35.299Z</time>
      </trkpt>
      <trkpt lat="42.45620833" lon="1.49298333">
        <ele>1067.0</ele>
        <time>2019-08-04T09:27:36.321Z</time>
      </trkpt>
      <trkpt lat="42.456185" lon="1.49293667">
        <ele>1068.0</ele>
        <time>2019-08-04T09:27:37.322Z</time>
      </trkpt>
      <trkpt lat="42.456185" lon="1.49293667">
        <ele>1068.0</ele>
        <time>2019-08-04T09:27:38.302Z</time>
      </trkpt>
      <trkpt lat="42.456155" lon="1.49289">
        <ele>1068.0</ele>
        <time>2019-08-04T09:27:39.304Z</time>
      </trkpt>
      <trkpt lat="42.456155" lon="1.49289">
        <ele>1068.0</ele>
        <time>2019-08-04T09:27:40.324Z</time>
      </trkpt>
      <trkpt lat="42.45613333" lon="1.49284">
        <ele>1069.0</ele>
        <time>2019-08-04T09:27:41.305Z</time>
      </trkpt>
      <trkpt lat="42.45613333" lon="1.49284">
        <ele>1069.0</ele>
        <time>2019-08-04T09:27:42.324Z</time>
      </trkpt>
      <trkpt lat="42.45611167" lon="1.492795">
        <ele>1070.0</ele>
        <time>2019-08-04T09:27:43.325Z</time>
      </trkpt>
      <trkpt lat="42.45611167" lon="1.492795">
        <ele>1070.0</ele>
        <time>2019-08-04T09:27:44.304Z</time>
      </trkpt>
      <trkpt lat="42.45608667" lon="1.49275">
        <ele>1071.0</ele>
        <time>2019-08-04T09:27:45.328Z</time>
      </trkpt>
      <trkpt lat="42.45608667" lon="1.49275">
        <ele>1071.0</ele>
        <time>2019-08-04T09:27:46.312Z</time>
      </trkpt>
      <trkpt lat="42.45606167" lon="1.49269833">
        <ele>1071.0</ele>
        <time>2019-08-04T09:27:47.303Z</time>
      </trkpt>
      <trkpt lat="42.45606167" lon="1.49269833">
        <ele>1071.0</ele>
        <time>2019-08-04T09:27:48.324Z</time>
      </trkpt>
      <trkpt lat="42.45604167" lon="1.49264167">
        <ele>1072.0</ele>
        <time>2019-08-04T09:27:49.310Z</time>
      </trkpt>
      <trkpt lat="42.45604167" lon="1.49264167">
        <ele>1072.0</ele>
        <time>2019-08-04T09:27:50.331Z</time>
      </trkpt>
      <trkpt lat="42.45602" lon="1.49259">
        <ele>1073.0</ele>
        <time>2019-08-04T09:27:51.297Z</time>
      </trkpt>
      <trkpt lat="42.45601333" lon="1.49256333">
        <ele>1073.0</ele>
        <time>2019-08-04T09:27:52.319Z</time>
      </trkpt>
      <trkpt lat="42.45600333" lon="1.49253833">
        <ele>1073.0</ele>
        <time>2019-08-04T09:27:53.330Z</time>
      </trkpt>
      <trkpt lat="42.45600333" lon="1.49253833">
        <ele>1073.0</ele>
        <time>2019-08-04T09:27:54.325Z</time>
      </trkpt>
      <trkpt lat="42.45598" lon="1.49249">
        <ele>1074.0</ele>
        <time>2019-08-04T09:27:55.306Z</time>
      </trkpt>
      <trkpt lat="42.45598" lon="1.49249">
        <ele>1074.0</ele>
        <time>2019-08-04T09:27:56.331Z</time>
      </trkpt>
      <trkpt lat="42.45596167" lon="1.492435">
        <ele>1074.0</ele>
        <time>2019-08-04T09:27:57.332Z</time>
      </trkpt>
      <trkpt lat="42.45596167" lon="1.492435">
        <ele>1074.0</ele>
        <time>2019-08-04T09:27:58.330Z</time>
      </trkpt>
      <trkpt lat="42.45595" lon="1.49237167">
        <ele>1075.0</ele>
        <time>2019-08-04T09:27:59.298Z</time>
      </trkpt>
      <trkpt lat="42.45595" lon="1.49237167">
        <ele>1075.0</ele>
        <time>2019-08-04T09:28:00.322Z</time>
      </trkpt>
      <trkpt lat="42.45593833" lon="1.49230667">
        <ele>1076.0</ele>
        <time>2019-08-04T09:28:01.312Z</time>
      </trkpt>
      <trkpt lat="42.45593833" lon="1.49230667">
        <ele>1076.0</ele>
        <time>2019-08-04T09:28:02.331Z</time>
      </trkpt>
      <trkpt lat="42.455925" lon="1.492245">
        <ele>1076.0</ele>
        <time>2019-08-04T09:28:03.320Z</time>
      </trkpt>
      <trkpt lat="42.455925" lon="1.492245">
        <ele>1076.0</ele>
        <time>2019-08-04T09:28:04.298Z</time>
      </trkpt>
      <trkpt lat="42.45590667" lon="1.49218667">
        <ele>1077.0</ele>
        <time>2019-08-04T09:28:05.319Z</time>
      </trkpt>
      <trkpt lat="42.45590667" lon="1.49218667">
        <ele>1077.0</ele>
        <time>2019-08-04T09:28:06.298Z</time>
      </trkpt>
      <trkpt lat="42.45588333" lon="1.49213333">
        <ele>1077.0</ele>
        <time>2019-08-04T09:28:07.319Z</time>
      </trkpt>
      <trkpt lat="42.45588333" lon="1.49213333">
        <ele>1077.0</ele>
        <time>2019-08-04T09:28:08.298Z</time>
      </trkpt>
      <trkpt lat="42.45585167" lon="1.492085">
        <ele>1078.0</ele>
        <time>2019-08-04T09:28:09.330Z</time>
      </trkpt>
      <trkpt lat="42.45585167" lon="1.492085">
        <ele>1078.0</ele>
        <time>2019-08-04T09:28:10.327Z</time>
      </trkpt>
      <trkpt lat="42.45581833" lon="1.49204">
        <ele>1078.0</ele>
        <time>2019-08-04T09:28:11.311Z</time>
      </trkpt>
      <trkpt lat="42.45581833" lon="1.49204">
        <ele>1078.0</ele>
        <time>2019-08-04T09:28:12.331Z</time>
      </trkpt>
      <trkpt lat="42.455775" lon="1.492005">
        <ele>1079.0</ele>
        <time>2019-08-04T09:28:13.324Z</time>
      </trkpt>
      <trkpt lat="42.455775" lon="1.492005">
        <ele>1079.0</ele>
        <time>2019-08-04T09:28:14.304Z</time>
      </trkpt>
      <trkpt lat="42.45571333" lon="1.49198667">
        <ele>1078.0</ele>
        <time>2019-08-04T09:28:15.327Z</time>
      </trkpt>
      <trkpt lat="42.45571333" lon="1.49198667">
        <ele>1078.0</ele>
        <time>2019-08-04T09:28:16.307Z</time>
      </trkpt>
      <trkpt lat="42.45567" lon="1.49197">
        <ele>1078.0</ele>
        <time>2019-08-04T09:28:17.296Z</time>
      </trkpt>
      <trkpt lat="42.45567" lon="1.49197">
        <ele>1078.0</ele>
        <time>2019-08-04T09:28:18.327Z</time>
      </trkpt>
      <trkpt lat="42.45562167" lon="1.491955">
        <ele>1079.0</ele>
        <time>2019-08-04T09:28:19.313Z</time>
      </trkpt>
      <trkpt lat="42.45562167" lon="1.491955">
        <ele>1079.0</ele>
        <time>2019-08-04T09:28:20.332Z</time>
      </trkpt>
      <trkpt lat="42.45557333" lon="1.49194333">
        <ele>1079.0</ele>
        <time>2019-08-04T09:28:21.297Z</time>
      </trkpt>
      <trkpt lat="42.45557333" lon="1.49194333">
        <ele>1079.0</ele>
        <time>2019-08-04T09:28:22.320Z</time>
      </trkpt>
      <trkpt lat="42.45553" lon="1.49192833">
        <ele>1080.0</ele>
        <time>2019-08-04T09:28:23.325Z</time>
      </trkpt>
      <trkpt lat="42.45553" lon="1.49192833">
        <ele>1080.0</ele>
        <time>2019-08-04T09:28:24.304Z</time>
      </trkpt>
      <trkpt lat="42.45548667" lon="1.49190333">
        <ele>1081.0</ele>
        <time>2019-08-04T09:28:25.335Z</time>
      </trkpt>
      <trkpt lat="42.45548667" lon="1.49190333">
        <ele>1081.0</ele>
        <time>2019-08-04T09:28:26.336Z</time>
      </trkpt>
      <trkpt lat="42.45545167" lon="1.49186167">
        <ele>1081.0</ele>
        <time>2019-08-04T09:28:27.298Z</time>
      </trkpt>
      <trkpt lat="42.45543833" lon="1.49183333">
        <ele>1081.0</ele>
        <time>2019-08-04T09:28:28.320Z</time>
      </trkpt>
      <trkpt lat="42.45543833" lon="1.49183333">
        <ele>1081.0</ele>
        <time>2019-08-04T09:28:29.316Z</time>
      </trkpt>
      <trkpt lat="42.45540833" lon="1.49178">
        <ele>1082.0</ele>
        <time>2019-08-04T09:28:30.319Z</time>
      </trkpt>
      <trkpt lat="42.45540833" lon="1.49178">
        <ele>1082.0</ele>
        <time>2019-08-04T09:28:31.298Z</time>
      </trkpt>
      <trkpt lat="42.45537167" lon="1.491735">
        <ele>1083.0</ele>
        <time>2019-08-04T09:28:32.319Z</time>
      </trkpt>
      <trkpt lat="42.45535333" lon="1.49171833">
        <ele>1083.0</ele>
        <time>2019-08-04T09:28:33.319Z</time>
      </trkpt>
      <trkpt lat="42.45535333" lon="1.49171833">
        <ele>1083.0</ele>
        <time>2019-08-04T09:28:34.301Z</time>
      </trkpt>
      <trkpt lat="42.455315" lon="1.49167667">
        <ele>1084.0</ele>
        <time>2019-08-04T09:28:35.335Z</time>
      </trkpt>
      <trkpt lat="42.455315" lon="1.49167667">
        <ele>1084.0</ele>
        <time>2019-08-04T09:28:36.297Z</time>
      </trkpt>
      <trkpt lat="42.45528833" lon="1.49162833">
        <ele>1084.0</ele>
        <time>2019-08-04T09:28:37.319Z</time>
      </trkpt>
      <trkpt lat="42.45528833" lon="1.49162833">
        <ele>1084.0</ele>
        <time>2019-08-04T09:28:38.298Z</time>
      </trkpt>
      <trkpt lat="42.45526833" lon="1.491605">
        <ele>1085.0</ele>
        <time>2019-08-04T09:28:39.326Z</time>
      </trkpt>
      <trkpt lat="42.45526833" lon="1.491605">
        <ele>1085.0</ele>
        <time>2019-08-04T09:28:40.312Z</time>
      </trkpt>
      <trkpt lat="42.4552" lon="1.49146833">
        <ele>1086.0</ele>
        <time>2019-08-04T09:28:41.301Z</time>
      </trkpt>
      <trkpt lat="42.4552" lon="1.49146833">
        <ele>1086.0</ele>
        <time>2019-08-04T09:28:42.322Z</time>
      </trkpt>
      <trkpt lat="42.45517" lon="1.49140833">
        <ele>1085.0</ele>
        <time>2019-08-04T09:28:43.302Z</time>
      </trkpt>
      <trkpt lat="42.45517" lon="1.49140833">
        <ele>1085.0</ele>
        <time>2019-08-04T09:28:44.296Z</time>
      </trkpt>
      <trkpt lat="42.45512" lon="1.49136">
        <ele>1085.0</ele>
        <time>2019-08-04T09:28:45.320Z</time>
      </trkpt>
      <trkpt lat="42.45512" lon="1.49136">
        <ele>1085.0</ele>
        <time>2019-08-04T09:28:46.303Z</time>
      </trkpt>
      <trkpt lat="42.45505167" lon="1.49131833">
        <ele>1084.0</ele>
        <time>2019-08-04T09:28:47.327Z</time>
      </trkpt>
      <trkpt lat="42.45501667" lon="1.49130333">
        <ele>1084.0</ele>
        <time>2019-08-04T09:28:48.312Z</time>
      </trkpt>
      <trkpt lat="42.45497667" lon="1.49128667">
        <ele>1084.0</ele>
        <time>2019-08-04T09:28:49.320Z</time>
      </trkpt>
      <trkpt lat="42.45497667" lon="1.49128667">
        <ele>1084.0</ele>
        <time>2019-08-04T09:28:50.301Z</time>
      </trkpt>
      <trkpt lat="42.4549" lon="1.49125833">
        <ele>1084.0</ele>
        <time>2019-08-04T09:28:51.301Z</time>
      </trkpt>
      <trkpt lat="42.4549" lon="1.49125833">
        <ele>1084.0</ele>
        <time>2019-08-04T09:28:52.296Z</time>
      </trkpt>
      <trkpt lat="42.45482833" lon="1.49123167">
        <ele>1084.0</ele>
        <time>2019-08-04T09:28:53.315Z</time>
      </trkpt>
      <trkpt lat="42.45482833" lon="1.49123167">
        <ele>1084.0</ele>
        <time>2019-08-04T09:28:54.299Z</time>
      </trkpt>
      <trkpt lat="42.45476167" lon="1.49121167">
        <ele>1085.0</ele>
        <time>2019-08-04T09:28:55.320Z</time>
      </trkpt>
      <trkpt lat="42.45476167" lon="1.49121167">
        <ele>1085.0</ele>
        <time>2019-08-04T09:28:56.302Z</time>
      </trkpt>
      <trkpt lat="42.45470333" lon="1.49119667">
        <ele>1085.0</ele>
        <time>2019-08-04T09:28:57.303Z</time>
      </trkpt>
      <trkpt lat="42.45470333" lon="1.49119667">
        <ele>1085.0</ele>
        <time>2019-08-04T09:28:58.298Z</time>
      </trkpt>
      <trkpt lat="42.454645" lon="1.49117833">
        <ele>1085.0</ele>
        <time>2019-08-04T09:28:59.330Z</time>
      </trkpt>
      <trkpt lat="42.454645" lon="1.49117833">
        <ele>1085.0</ele>
        <time>2019-08-04T09:29:00.310Z</time>
      </trkpt>
      <trkpt lat="42.45459167" lon="1.49115833">
        <ele>1085.0</ele>
        <time>2019-08-04T09:29:01.302Z</time>
      </trkpt>
      <trkpt lat="42.45459167" lon="1.49115833">
        <ele>1085.0</ele>
        <time>2019-08-04T09:29:02.299Z</time>
      </trkpt>
      <trkpt lat="42.45453833" lon="1.49114">
        <ele>1086.0</ele>
        <time>2019-08-04T09:29:03.301Z</time>
      </trkpt>
      <trkpt lat="42.45453833" lon="1.49114">
        <ele>1086.0</ele>
        <time>2019-08-04T09:29:04.311Z</time>
      </trkpt>
      <trkpt lat="42.45448667" lon="1.49111667">
        <ele>1086.0</ele>
        <time>2019-08-04T09:29:05.298Z</time>
      </trkpt>
      <trkpt lat="42.45448667" lon="1.49111667">
        <ele>1086.0</ele>
        <time>2019-08-04T09:29:06.322Z</time>
      </trkpt>
      <trkpt lat="42.454435" lon="1.49109333">
        <ele>1086.0</ele>
        <time>2019-08-04T09:29:07.302Z</time>
      </trkpt>
      <trkpt lat="42.454435" lon="1.49109333">
        <ele>1086.0</ele>
        <time>2019-08-04T09:29:08.298Z</time>
      </trkpt>
      <trkpt lat="42.45439" lon="1.491075">
        <ele>1087.0</ele>
        <time>2019-08-04T09:29:09.321Z</time>
      </trkpt>
      <trkpt lat="42.45439" lon="1.491075">
        <ele>1087.0</ele>
        <time>2019-08-04T09:29:10.300Z</time>
      </trkpt>
      <trkpt lat="42.45434167" lon="1.49105333">
        <ele>1087.0</ele>
        <time>2019-08-04T09:29:11.302Z</time>
      </trkpt>
      <trkpt lat="42.45434167" lon="1.49105333">
        <ele>1087.0</ele>
        <time>2019-08-04T09:29:12.322Z</time>
      </trkpt>
      <trkpt lat="42.45429" lon="1.491035">
        <ele>1087.0</ele>
        <time>2019-08-04T09:29:13.302Z</time>
      </trkpt>
      <trkpt lat="42.45429" lon="1.491035">
        <ele>1087.0</ele>
        <time>2019-08-04T09:29:14.297Z</time>
      </trkpt>
      <trkpt lat="42.45424" lon="1.49101833">
        <ele>1088.0</ele>
        <time>2019-08-04T09:29:15.320Z</time>
      </trkpt>
      <trkpt lat="42.45424" lon="1.49101833">
        <ele>1088.0</ele>
        <time>2019-08-04T09:29:16.303Z</time>
      </trkpt>
      <trkpt lat="42.454185" lon="1.49100167">
        <ele>1088.0</ele>
        <time>2019-08-04T09:29:17.301Z</time>
      </trkpt>
      <trkpt lat="42.454185" lon="1.49100167">
        <ele>1088.0</ele>
        <time>2019-08-04T09:29:18.298Z</time>
      </trkpt>
      <trkpt lat="42.454135" lon="1.49098833">
        <ele>1088.0</ele>
        <time>2019-08-04T09:29:19.328Z</time>
      </trkpt>
      <trkpt lat="42.454135" lon="1.49098833">
        <ele>1088.0</ele>
        <time>2019-08-04T09:29:20.308Z</time>
      </trkpt>
      <trkpt lat="42.45408667" lon="1.49098833">
        <ele>1089.0</ele>
        <time>2019-08-04T09:29:21.302Z</time>
      </trkpt>
      <trkpt lat="42.45408667" lon="1.49098833">
        <ele>1089.0</ele>
        <time>2019-08-04T09:29:22.298Z</time>
      </trkpt>
      <trkpt lat="42.45403333" lon="1.49097833">
        <ele>1089.0</ele>
        <time>2019-08-04T09:29:23.320Z</time>
      </trkpt>
      <trkpt lat="42.45400667" lon="1.49097333">
        <ele>1089.0</ele>
        <time>2019-08-04T09:29:24.301Z</time>
      </trkpt>
      <trkpt lat="42.45400667" lon="1.49097333">
        <ele>1089.0</ele>
        <time>2019-08-04T09:29:25.299Z</time>
      </trkpt>
      <trkpt lat="42.45395833" lon="1.49096667">
        <ele>1090.0</ele>
        <time>2019-08-04T09:29:26.302Z</time>
      </trkpt>
      <trkpt lat="42.45393333" lon="1.49096667">
        <ele>1090.0</ele>
        <time>2019-08-04T09:29:27.301Z</time>
      </trkpt>
      <trkpt lat="42.45393333" lon="1.49096667">
        <ele>1090.0</ele>
        <time>2019-08-04T09:29:28.335Z</time>
      </trkpt>
      <trkpt lat="42.45387833" lon="1.49095667">
        <ele>1091.0</ele>
        <time>2019-08-04T09:29:29.320Z</time>
      </trkpt>
      <trkpt lat="42.45387833" lon="1.49095667">
        <ele>1091.0</ele>
        <time>2019-08-04T09:29:30.301Z</time>
      </trkpt>
      <trkpt lat="42.45382833" lon="1.49095">
        <ele>1091.0</ele>
        <time>2019-08-04T09:29:31.302Z</time>
      </trkpt>
      <trkpt lat="42.45382833" lon="1.49095">
        <ele>1091.0</ele>
        <time>2019-08-04T09:29:32.299Z</time>
      </trkpt>
      <trkpt lat="42.45377667" lon="1.49092167">
        <ele>1091.0</ele>
        <time>2019-08-04T09:29:33.301Z</time>
      </trkpt>
      <trkpt lat="42.45377667" lon="1.49092167">
        <ele>1091.0</ele>
        <time>2019-08-04T09:29:34.300Z</time>
      </trkpt>
      <trkpt lat="42.45372833" lon="1.49090833">
        <ele>1092.0</ele>
        <time>2019-08-04T09:29:35.302Z</time>
      </trkpt>
      <trkpt lat="42.45372833" lon="1.49090833">
        <ele>1092.0</ele>
        <time>2019-08-04T09:29:36.302Z</time>
      </trkpt>
      <trkpt lat="42.45368333" lon="1.49091833">
        <ele>1092.0</ele>
        <time>2019-08-04T09:29:37.322Z</time>
      </trkpt>
      <trkpt lat="42.45368333" lon="1.49091833">
        <ele>1092.0</ele>
        <time>2019-08-04T09:29:38.302Z</time>
      </trkpt>
      <trkpt lat="42.45364167" lon="1.490915">
        <ele>1092.0</ele>
        <time>2019-08-04T09:29:39.330Z</time>
      </trkpt>
      <trkpt lat="42.45364167" lon="1.490915">
        <ele>1092.0</ele>
        <time>2019-08-04T09:29:40.310Z</time>
      </trkpt>
      <trkpt lat="42.453595" lon="1.49089333">
        <ele>1093.0</ele>
        <time>2019-08-04T09:29:41.301Z</time>
      </trkpt>
      <trkpt lat="42.453595" lon="1.49089333">
        <ele>1093.0</ele>
        <time>2019-08-04T09:29:42.326Z</time>
      </trkpt>
      <trkpt lat="42.45355167" lon="1.49090667">
        <ele>1093.0</ele>
        <time>2019-08-04T09:29:43.307Z</time>
      </trkpt>
      <trkpt lat="42.45353" lon="1.49091333">
        <ele>1093.0</ele>
        <time>2019-08-04T09:29:44.299Z</time>
      </trkpt>
      <trkpt lat="42.45353" lon="1.49091333">
        <ele>1093.0</ele>
        <time>2019-08-04T09:29:45.299Z</time>
      </trkpt>
      <trkpt lat="42.45348167" lon="1.49093667">
        <ele>1093.0</ele>
        <time>2019-08-04T09:29:46.305Z</time>
      </trkpt>
      <trkpt lat="42.45346" lon="1.49095667">
        <ele>1093.0</ele>
        <time>2019-08-04T09:29:47.303Z</time>
      </trkpt>
      <trkpt lat="42.45346" lon="1.49095667">
        <ele>1093.0</ele>
        <time>2019-08-04T09:29:48.296Z</time>
      </trkpt>
      <trkpt lat="42.45342833" lon="1.49101">
        <ele>1094.0</ele>
        <time>2019-08-04T09:29:49.328Z</time>
      </trkpt>
      <trkpt lat="42.45342833" lon="1.49101">
        <ele>1094.0</ele>
        <time>2019-08-04T09:29:50.309Z</time>
      </trkpt>
      <trkpt lat="42.45339333" lon="1.49106167">
        <ele>1094.0</ele>
        <time>2019-08-04T09:29:51.304Z</time>
      </trkpt>
      <trkpt lat="42.45339333" lon="1.49106167">
        <ele>1094.0</ele>
        <time>2019-08-04T09:29:52.298Z</time>
      </trkpt>
      <trkpt lat="42.45335667" lon="1.49111667">
        <ele>1094.0</ele>
        <time>2019-08-04T09:29:53.320Z</time>
      </trkpt>
      <trkpt lat="42.45335667" lon="1.49111667">
        <ele>1094.0</ele>
        <time>2019-08-04T09:29:54.300Z</time>
      </trkpt>
      <trkpt lat="42.45332333" lon="1.49117167">
        <ele>1095.0</ele>
        <time>2019-08-04T09:29:55.303Z</time>
      </trkpt>
      <trkpt lat="42.45332333" lon="1.49117167">
        <ele>1095.0</ele>
        <time>2019-08-04T09:29:56.323Z</time>
      </trkpt>
      <trkpt lat="42.45328833" lon="1.49122333">
        <ele>1095.0</ele>
        <time>2019-08-04T09:29:57.321Z</time>
      </trkpt>
      <trkpt lat="42.45328833" lon="1.49122333">
        <ele>1095.0</ele>
        <time>2019-08-04T09:29:58.300Z</time>
      </trkpt>
      <trkpt lat="42.45325" lon="1.49127333">
        <ele>1095.0</ele>
        <time>2019-08-04T09:29:59.320Z</time>
      </trkpt>
      <trkpt lat="42.45325" lon="1.49127333">
        <ele>1095.0</ele>
        <time>2019-08-04T09:30:00.301Z</time>
      </trkpt>
      <trkpt lat="42.45321" lon="1.491315">
        <ele>1096.0</ele>
        <time>2019-08-04T09:30:01.302Z</time>
      </trkpt>
      <trkpt lat="42.45321" lon="1.491315">
        <ele>1096.0</ele>
        <time>2019-08-04T09:30:02.297Z</time>
      </trkpt>
      <trkpt lat="42.45317167" lon="1.49135167">
        <ele>1096.0</ele>
        <time>2019-08-04T09:30:03.320Z</time>
      </trkpt>
      <trkpt lat="42.45317167" lon="1.49135167">
        <ele>1096.0</ele>
        <time>2019-08-04T09:30:04.300Z</time>
      </trkpt>
      <trkpt lat="42.45313" lon="1.49138667">
        <ele>1096.0</ele>
        <time>2019-08-04T09:30:05.302Z</time>
      </trkpt>
      <trkpt lat="42.45313" lon="1.49138667">
        <ele>1096.0</ele>
        <time>2019-08-04T09:30:06.296Z</time>
      </trkpt>
      <trkpt lat="42.45309667" lon="1.49141833">
        <ele>1097.0</ele>
        <time>2019-08-04T09:30:07.301Z</time>
      </trkpt>
      <trkpt lat="42.45309667" lon="1.49141833">
        <ele>1097.0</ele>
        <time>2019-08-04T09:30:08.299Z</time>
      </trkpt>
      <trkpt lat="42.45305833" lon="1.49144833">
        <ele>1097.0</ele>
        <time>2019-08-04T09:30:09.323Z</time>
      </trkpt>
      <trkpt lat="42.45305833" lon="1.49144833">
        <ele>1097.0</ele>
        <time>2019-08-04T09:30:10.303Z</time>
      </trkpt>
      <trkpt lat="42.453025" lon="1.49147">
        <ele>1097.0</ele>
        <time>2019-08-04T09:30:11.302Z</time>
      </trkpt>
      <trkpt lat="42.45300667" lon="1.49147333">
        <ele>1098.0</ele>
        <time>2019-08-04T09:30:12.302Z</time>
      </trkpt>
      <trkpt lat="42.45300667" lon="1.49147333">
        <ele>1098.0</ele>
        <time>2019-08-04T09:30:13.301Z</time>
      </trkpt>
      <trkpt lat="42.45296833" lon="1.49148667">
        <ele>1098.0</ele>
        <time>2019-08-04T09:30:14.307Z</time>
      </trkpt>
      <trkpt lat="42.45295" lon="1.49149833">
        <ele>1098.0</ele>
        <time>2019-08-04T09:30:15.303Z</time>
      </trkpt>
      <trkpt lat="42.45295" lon="1.49149833">
        <ele>1098.0</ele>
        <time>2019-08-04T09:30:16.297Z</time>
      </trkpt>
      <trkpt lat="42.45291667" lon="1.49152333">
        <ele>1099.0</ele>
        <time>2019-08-04T09:30:17.322Z</time>
      </trkpt>
      <trkpt lat="42.45291667" lon="1.49152333">
        <ele>1099.0</ele>
        <time>2019-08-04T09:30:18.301Z</time>
      </trkpt>
      <trkpt lat="42.45288333" lon="1.49155167">
        <ele>1099.0</ele>
        <time>2019-08-04T09:30:19.323Z</time>
      </trkpt>
      <trkpt lat="42.45288333" lon="1.49155167">
        <ele>1099.0</ele>
        <time>2019-08-04T09:30:20.303Z</time>
      </trkpt>
      <trkpt lat="42.45284833" lon="1.49158833">
        <ele>1100.0</ele>
        <time>2019-08-04T09:30:21.300Z</time>
      </trkpt>
      <trkpt lat="42.45284833" lon="1.49158833">
        <ele>1100.0</ele>
        <time>2019-08-04T09:30:22.307Z</time>
      </trkpt>
      <trkpt lat="42.45282333" lon="1.49163167">
        <ele>1100.0</ele>
        <time>2019-08-04T09:30:23.303Z</time>
      </trkpt>
      <trkpt lat="42.45282333" lon="1.49163167">
        <ele>1100.0</ele>
        <time>2019-08-04T09:30:24.297Z</time>
      </trkpt>
      <trkpt lat="42.45279667" lon="1.49166667">
        <ele>1100.0</ele>
        <time>2019-08-04T09:30:25.320Z</time>
      </trkpt>
      <trkpt lat="42.45279667" lon="1.49166667">
        <ele>1100.0</ele>
        <time>2019-08-04T09:30:26.300Z</time>
      </trkpt>
      <trkpt lat="42.45276667" lon="1.491715">
        <ele>1100.0</ele>
        <time>2019-08-04T09:30:27.310Z</time>
      </trkpt>
      <trkpt lat="42.45276667" lon="1.491715">
        <ele>1100.0</ele>
        <time>2019-08-04T09:30:28.297Z</time>
      </trkpt>
      <trkpt lat="42.45274" lon="1.49176833">
        <ele>1101.0</ele>
        <time>2019-08-04T09:30:29.320Z</time>
      </trkpt>
      <trkpt lat="42.45274" lon="1.49176833">
        <ele>1101.0</ele>
        <time>2019-08-04T09:30:30.302Z</time>
      </trkpt>
      <trkpt lat="42.45271" lon="1.49181833">
        <ele>1102.0</ele>
        <time>2019-08-04T09:30:31.303Z</time>
      </trkpt>
      <trkpt lat="42.45271" lon="1.49181833">
        <ele>1102.0</ele>
        <time>2019-08-04T09:30:32.300Z</time>
      </trkpt>
      <trkpt lat="42.45268667" lon="1.49187">
        <ele>1102.0</ele>
        <time>2019-08-04T09:30:33.300Z</time>
      </trkpt>
      <trkpt lat="42.45268667" lon="1.49187">
        <ele>1102.0</ele>
        <time>2019-08-04T09:30:34.299Z</time>
      </trkpt>
      <trkpt lat="42.45266667" lon="1.49191">
        <ele>1103.0</ele>
        <time>2019-08-04T09:30:35.302Z</time>
      </trkpt>
      <trkpt lat="42.45266667" lon="1.49191">
        <ele>1103.0</ele>
        <time>2019-08-04T09:30:36.300Z</time>
      </trkpt>
      <trkpt lat="42.45263833" lon="1.49194333">
        <ele>1103.0</ele>
        <time>2019-08-04T09:30:37.323Z</time>
      </trkpt>
      <trkpt lat="42.45262333" lon="1.49196167">
        <ele>1103.0</ele>
        <time>2019-08-04T09:30:38.304Z</time>
      </trkpt>
      <trkpt lat="42.45260667" lon="1.49198">
        <ele>1104.0</ele>
        <time>2019-08-04T09:30:39.328Z</time>
      </trkpt>
      <trkpt lat="42.45260667" lon="1.49198">
        <ele>1104.0</ele>
        <time>2019-08-04T09:30:40.307Z</time>
      </trkpt>
      <trkpt lat="42.45257333" lon="1.49202333">
        <ele>1104.0</ele>
        <time>2019-08-04T09:30:41.302Z</time>
      </trkpt>
      <trkpt lat="42.45257333" lon="1.49202333">
        <ele>1104.0</ele>
        <time>2019-08-04T09:30:42.301Z</time>
      </trkpt>
      <trkpt lat="42.45254333" lon="1.49206167">
        <ele>1105.0</ele>
        <time>2019-08-04T09:30:43.300Z</time>
      </trkpt>
      <trkpt lat="42.45254333" lon="1.49206167">
        <ele>1105.0</ele>
        <time>2019-08-04T09:30:44.302Z</time>
      </trkpt>
      <trkpt lat="42.45251333" lon="1.49210833">
        <ele>1105.0</ele>
        <time>2019-08-04T09:30:45.303Z</time>
      </trkpt>
      <trkpt lat="42.45251333" lon="1.49210833">
        <ele>1105.0</ele>
        <time>2019-08-04T09:30:46.300Z</time>
      </trkpt>
      <trkpt lat="42.45249333" lon="1.49216167">
        <ele>1105.0</ele>
        <time>2019-08-04T09:30:47.296Z</time>
      </trkpt>
      <trkpt lat="42.45249333" lon="1.49216167">
        <ele>1105.0</ele>
        <time>2019-08-04T09:30:48.329Z</time>
      </trkpt>
      <trkpt lat="42.45246833" lon="1.49221167">
        <ele>1106.0</ele>
        <time>2019-08-04T09:30:49.331Z</time>
      </trkpt>
      <trkpt lat="42.45246833" lon="1.49221167">
        <ele>1106.0</ele>
        <time>2019-08-04T09:30:50.322Z</time>
      </trkpt>
      <trkpt lat="42.45243833" lon="1.49225667">
        <ele>1106.0</ele>
        <time>2019-08-04T09:30:51.304Z</time>
      </trkpt>
      <trkpt lat="42.45243833" lon="1.49225667">
        <ele>1106.0</ele>
        <time>2019-08-04T09:30:52.300Z</time>
      </trkpt>
      <trkpt lat="42.452415" lon="1.49230833">
        <ele>1107.0</ele>
        <time>2019-08-04T09:30:53.302Z</time>
      </trkpt>
      <trkpt lat="42.45240333" lon="1.49233167">
        <ele>1107.0</ele>
        <time>2019-08-04T09:30:54.303Z</time>
      </trkpt>
      <trkpt lat="42.45240333" lon="1.49233167">
        <ele>1107.0</ele>
        <time>2019-08-04T09:30:55.301Z</time>
      </trkpt>
      <trkpt lat="42.45237667" lon="1.49237667">
        <ele>1107.0</ele>
        <time>2019-08-04T09:30:56.302Z</time>
      </trkpt>
      <trkpt lat="42.45237667" lon="1.49237667">
        <ele>1107.0</ele>
        <time>2019-08-04T09:30:57.322Z</time>
      </trkpt>
      <trkpt lat="42.45234667" lon="1.492425">
        <ele>1108.0</ele>
        <time>2019-08-04T09:30:58.305Z</time>
      </trkpt>
      <trkpt lat="42.45233167" lon="1.49245333">
        <ele>1108.0</ele>
        <time>2019-08-04T09:30:59.321Z</time>
      </trkpt>
      <trkpt lat="42.45233167" lon="1.49245333">
        <ele>1108.0</ele>
        <time>2019-08-04T09:31:00.300Z</time>
      </trkpt>
      <trkpt lat="42.4523" lon="1.49250833">
        <ele>1108.0</ele>
        <time>2019-08-04T09:31:01.321Z</time>
      </trkpt>
      <trkpt lat="42.4523" lon="1.49250833">
        <ele>1108.0</ele>
        <time>2019-08-04T09:31:02.301Z</time>
      </trkpt>
      <trkpt lat="42.45226167" lon="1.49255">
        <ele>1109.0</ele>
        <time>2019-08-04T09:31:03.304Z</time>
      </trkpt>
      <trkpt lat="42.45226167" lon="1.49255">
        <ele>1109.0</ele>
        <time>2019-08-04T09:31:04.300Z</time>
      </trkpt>
      <trkpt lat="42.45222" lon="1.49259">
        <ele>1109.0</ele>
        <time>2019-08-04T09:31:05.304Z</time>
      </trkpt>
      <trkpt lat="42.45222" lon="1.49259">
        <ele>1109.0</ele>
        <time>2019-08-04T09:31:06.300Z</time>
      </trkpt>
      <trkpt lat="42.45217833" lon="1.492635">
        <ele>1110.0</ele>
        <time>2019-08-04T09:31:07.307Z</time>
      </trkpt>
      <trkpt lat="42.45217833" lon="1.492635">
        <ele>1110.0</ele>
        <time>2019-08-04T09:31:08.300Z</time>
      </trkpt>
      <trkpt lat="42.45213833" lon="1.49267333">
        <ele>1110.0</ele>
        <time>2019-08-04T09:31:09.327Z</time>
      </trkpt>
      <trkpt lat="42.45213833" lon="1.49267333">
        <ele>1110.0</ele>
        <time>2019-08-04T09:31:10.309Z</time>
      </trkpt>
      <trkpt lat="42.45209333" lon="1.49270833">
        <ele>1111.0</ele>
        <time>2019-08-04T09:31:11.303Z</time>
      </trkpt>
      <trkpt lat="42.452075" lon="1.49272833">
        <ele>1111.0</ele>
        <time>2019-08-04T09:31:12.303Z</time>
      </trkpt>
      <trkpt lat="42.452075" lon="1.49272833">
        <ele>1111.0</ele>
        <time>2019-08-04T09:31:13.301Z</time>
      </trkpt>
      <trkpt lat="42.45204333" lon="1.49276333">
        <ele>1112.0</ele>
        <time>2019-08-04T09:31:14.308Z</time>
      </trkpt>
      <trkpt lat="42.45202833" lon="1.49277333">
        <ele>1112.0</ele>
        <time>2019-08-04T09:31:15.304Z</time>
      </trkpt>
      <trkpt lat="42.45202833" lon="1.49277333">
        <ele>1112.0</ele>
        <time>2019-08-04T09:31:16.297Z</time>
      </trkpt>
      <trkpt lat="42.45199333" lon="1.49278833">
        <ele>1112.0</ele>
        <time>2019-08-04T09:31:17.324Z</time>
      </trkpt>
      <trkpt lat="42.45199333" lon="1.49278833">
        <ele>1112.0</ele>
        <time>2019-08-04T09:31:18.304Z</time>
      </trkpt>
      <trkpt lat="42.451955" lon="1.49280167">
        <ele>1113.0</ele>
        <time>2019-08-04T09:31:19.332Z</time>
      </trkpt>
      <trkpt lat="42.451955" lon="1.49280167">
        <ele>1113.0</ele>
        <time>2019-08-04T09:31:20.321Z</time>
      </trkpt>
      <trkpt lat="42.45192" lon="1.492825">
        <ele>1113.0</ele>
        <time>2019-08-04T09:31:21.304Z</time>
      </trkpt>
      <trkpt lat="42.45192" lon="1.492825">
        <ele>1113.0</ele>
        <time>2019-08-04T09:31:22.301Z</time>
      </trkpt>
      <trkpt lat="42.45188833" lon="1.49285">
        <ele>1113.0</ele>
        <time>2019-08-04T09:31:23.302Z</time>
      </trkpt>
      <trkpt lat="42.45186833" lon="1.49286">
        <ele>1113.0</ele>
        <time>2019-08-04T09:31:24.303Z</time>
      </trkpt>
      <trkpt lat="42.45184833" lon="1.49288">
        <ele>1114.0</ele>
        <time>2019-08-04T09:31:25.303Z</time>
      </trkpt>
      <trkpt lat="42.45184833" lon="1.49288">
        <ele>1114.0</ele>
        <time>2019-08-04T09:31:26.301Z</time>
      </trkpt>
      <trkpt lat="42.451815" lon="1.49293">
        <ele>1114.0</ele>
        <time>2019-08-04T09:31:27.327Z</time>
      </trkpt>
      <trkpt lat="42.451815" lon="1.49293">
        <ele>1114.0</ele>
        <time>2019-08-04T09:31:28.306Z</time>
      </trkpt>
      <trkpt lat="42.45179333" lon="1.49299">
        <ele>1114.0</ele>
        <time>2019-08-04T09:31:29.331Z</time>
      </trkpt>
      <trkpt lat="42.45179333" lon="1.49299">
        <ele>1114.0</ele>
        <time>2019-08-04T09:31:30.313Z</time>
      </trkpt>
      <trkpt lat="42.45178333" lon="1.49305833">
        <ele>1114.0</ele>
        <time>2019-08-04T09:31:31.303Z</time>
      </trkpt>
      <trkpt lat="42.45178333" lon="1.49305833">
        <ele>1114.0</ele>
        <time>2019-08-04T09:31:32.323Z</time>
      </trkpt>
      <trkpt lat="42.45177833" lon="1.49313">
        <ele>1115.0</ele>
        <time>2019-08-04T09:31:33.305Z</time>
      </trkpt>
      <trkpt lat="42.45177833" lon="1.49313">
        <ele>1115.0</ele>
        <time>2019-08-04T09:31:34.298Z</time>
      </trkpt>
      <trkpt lat="42.45178" lon="1.49320333">
        <ele>1115.0</ele>
        <time>2019-08-04T09:31:35.321Z</time>
      </trkpt>
      <trkpt lat="42.45177833" lon="1.49324167">
        <ele>1115.0</ele>
        <time>2019-08-04T09:31:36.303Z</time>
      </trkpt>
      <trkpt lat="42.45177833" lon="1.49324167">
        <ele>1115.0</ele>
        <time>2019-08-04T09:31:37.310Z</time>
      </trkpt>
      <trkpt lat="42.45178" lon="1.49331667">
        <ele>1115.0</ele>
        <time>2019-08-04T09:31:38.303Z</time>
      </trkpt>
      <trkpt lat="42.45177833" lon="1.493355">
        <ele>1116.0</ele>
        <time>2019-08-04T09:31:39.321Z</time>
      </trkpt>
      <trkpt lat="42.45177833" lon="1.493355">
        <ele>1116.0</ele>
        <time>2019-08-04T09:31:40.301Z</time>
      </trkpt>
      <trkpt lat="42.45176167" lon="1.49342833">
        <ele>1116.0</ele>
        <time>2019-08-04T09:31:41.302Z</time>
      </trkpt>
      <trkpt lat="42.45173833" lon="1.49345">
        <ele>1116.0</ele>
        <time>2019-08-04T09:31:42.307Z</time>
      </trkpt>
      <trkpt lat="42.45173833" lon="1.49345">
        <ele>1116.0</ele>
        <time>2019-08-04T09:31:43.301Z</time>
      </trkpt>
      <trkpt lat="42.45169" lon="1.49348333">
        <ele>1117.0</ele>
        <time>2019-08-04T09:31:44.302Z</time>
      </trkpt>
      <trkpt lat="42.45166667" lon="1.49348667">
        <ele>1117.0</ele>
        <time>2019-08-04T09:31:45.304Z</time>
      </trkpt>
      <trkpt lat="42.45166667" lon="1.49348667">
        <ele>1117.0</ele>
        <time>2019-08-04T09:31:46.300Z</time>
      </trkpt>
      <trkpt lat="42.45161833" lon="1.49348167">
        <ele>1117.0</ele>
        <time>2019-08-04T09:31:47.321Z</time>
      </trkpt>
      <trkpt lat="42.45161833" lon="1.49348167">
        <ele>1117.0</ele>
        <time>2019-08-04T09:31:48.301Z</time>
      </trkpt>
      <trkpt lat="42.45157167" lon="1.49345833">
        <ele>1118.0</ele>
        <time>2019-08-04T09:31:49.303Z</time>
      </trkpt>
      <trkpt lat="42.45157167" lon="1.49345833">
        <ele>1118.0</ele>
        <time>2019-08-04T09:31:50.298Z</time>
      </trkpt>
      <trkpt lat="42.45152333" lon="1.49344167">
        <ele>1118.0</ele>
        <time>2019-08-04T09:31:51.298Z</time>
      </trkpt>
      <trkpt lat="42.45152333" lon="1.49344167">
        <ele>1118.0</ele>
        <time>2019-08-04T09:31:52.330Z</time>
      </trkpt>
      <trkpt lat="42.45148167" lon="1.49341667">
        <ele>1118.0</ele>
        <time>2019-08-04T09:31:53.311Z</time>
      </trkpt>
      <trkpt lat="42.45148167" lon="1.49341667">
        <ele>1118.0</ele>
        <time>2019-08-04T09:31:54.298Z</time>
      </trkpt>
      <trkpt lat="42.451435" lon="1.49340667">
        <ele>1119.0</ele>
        <time>2019-08-04T09:31:55.321Z</time>
      </trkpt>
      <trkpt lat="42.451435" lon="1.49340667">
        <ele>1119.0</ele>
        <time>2019-08-04T09:31:56.301Z</time>
      </trkpt>
      <trkpt lat="42.451395" lon="1.493395">
        <ele>1120.0</ele>
        <time>2019-08-04T09:31:57.323Z</time>
      </trkpt>
      <trkpt lat="42.451395" lon="1.493395">
        <ele>1120.0</ele>
        <time>2019-08-04T09:31:58.307Z</time>
      </trkpt>
      <trkpt lat="42.45136" lon="1.49336667">
        <ele>1120.0</ele>
        <time>2019-08-04T09:31:59.328Z</time>
      </trkpt>
      <trkpt lat="42.45136" lon="1.49336667">
        <ele>1120.0</ele>
        <time>2019-08-04T09:32:00.322Z</time>
      </trkpt>
      <trkpt lat="42.45132833" lon="1.493335">
        <ele>1121.0</ele>
        <time>2019-08-04T09:32:01.304Z</time>
      </trkpt>
      <trkpt lat="42.45132833" lon="1.493335">
        <ele>1121.0</ele>
        <time>2019-08-04T09:32:02.299Z</time>
      </trkpt>
      <trkpt lat="42.45129833" lon="1.493305">
        <ele>1122.0</ele>
        <time>2019-08-04T09:32:03.321Z</time>
      </trkpt>
      <trkpt lat="42.45129833" lon="1.493305">
        <ele>1122.0</ele>
        <time>2019-08-04T09:32:04.301Z</time>
      </trkpt>
      <trkpt lat="42.45127167" lon="1.49326667">
        <ele>1122.0</ele>
        <time>2019-08-04T09:32:05.303Z</time>
      </trkpt>
      <trkpt lat="42.45125667" lon="1.49324">
        <ele>1123.0</ele>
        <time>2019-08-04T09:32:06.303Z</time>
      </trkpt>
      <trkpt lat="42.45124167" lon="1.49321667">
        <ele>1123.0</ele>
        <time>2019-08-04T09:32:07.304Z</time>
      </trkpt>
      <trkpt lat="42.45124167" lon="1.49321667">
        <ele>1123.0</ele>
        <time>2019-08-04T09:32:08.300Z</time>
      </trkpt>
      <trkpt lat="42.45121333" lon="1.49316833">
        <ele>1123.0</ele>
        <time>2019-08-04T09:32:09.328Z</time>
      </trkpt>
      <trkpt lat="42.45121333" lon="1.49316833">
        <ele>1123.0</ele>
        <time>2019-08-04T09:32:10.307Z</time>
      </trkpt>
      <trkpt lat="42.45119" lon="1.493125">
        <ele>1124.0</ele>
        <time>2019-08-04T09:32:11.303Z</time>
      </trkpt>
      <trkpt lat="42.45117667" lon="1.49310333">
        <ele>1124.0</ele>
        <time>2019-08-04T09:32:12.303Z</time>
      </trkpt>
      <trkpt lat="42.45117667" lon="1.49310333">
        <ele>1124.0</ele>
        <time>2019-08-04T09:32:13.301Z</time>
      </trkpt>
      <trkpt lat="42.45115833" lon="1.493055">
        <ele>1125.0</ele>
        <time>2019-08-04T09:32:14.303Z</time>
      </trkpt>
      <trkpt lat="42.45115" lon="1.49302833">
        <ele>1125.0</ele>
        <time>2019-08-04T09:32:15.304Z</time>
      </trkpt>
      <trkpt lat="42.45115" lon="1.49302833">
        <ele>1125.0</ele>
        <time>2019-08-04T09:32:16.298Z</time>
      </trkpt>
      <trkpt lat="42.45114333" lon="1.49297333">
        <ele>1126.0</ele>
        <time>2019-08-04T09:32:17.303Z</time>
      </trkpt>
      <trkpt lat="42.45114333" lon="1.49297333">
        <ele>1126.0</ele>
        <time>2019-08-04T09:32:18.300Z</time>
      </trkpt>
      <trkpt lat="42.45113333" lon="1.49292667">
        <ele>1127.0</ele>
        <time>2019-08-04T09:32:19.322Z</time>
      </trkpt>
      <trkpt lat="42.45113333" lon="1.49292667">
        <ele>1127.0</ele>
        <time>2019-08-04T09:32:20.302Z</time>
      </trkpt>
      <trkpt lat="42.451125" lon="1.49287167">
        <ele>1127.0</ele>
        <time>2019-08-04T09:32:21.304Z</time>
      </trkpt>
      <trkpt lat="42.451125" lon="1.49287167">
        <ele>1127.0</ele>
        <time>2019-08-04T09:32:22.302Z</time>
      </trkpt>
      <trkpt lat="42.45111333" lon="1.49281667">
        <ele>1128.0</ele>
        <time>2019-08-04T09:32:23.303Z</time>
      </trkpt>
      <trkpt lat="42.45111333" lon="1.49281667">
        <ele>1128.0</ele>
        <time>2019-08-04T09:32:24.297Z</time>
      </trkpt>
      <trkpt lat="42.45109167" lon="1.49278167">
        <ele>1128.0</ele>
        <time>2019-08-04T09:32:25.317Z</time>
      </trkpt>
      <trkpt lat="42.45109167" lon="1.49278167">
        <ele>1128.0</ele>
        <time>2019-08-04T09:32:26.301Z</time>
      </trkpt>
      <trkpt lat="42.45108167" lon="1.49273">
        <ele>1129.0</ele>
        <time>2019-08-04T09:32:27.315Z</time>
      </trkpt>
      <trkpt lat="42.45108167" lon="1.49273">
        <ele>1129.0</ele>
        <time>2019-08-04T09:32:28.300Z</time>
      </trkpt>
      <trkpt lat="42.451075" lon="1.49267833">
        <ele>1130.0</ele>
        <time>2019-08-04T09:32:29.328Z</time>
      </trkpt>
      <trkpt lat="42.451075" lon="1.49267833">
        <ele>1130.0</ele>
        <time>2019-08-04T09:32:30.305Z</time>
      </trkpt>
      <trkpt lat="42.45107" lon="1.492625">
        <ele>1130.0</ele>
        <time>2019-08-04T09:32:31.304Z</time>
      </trkpt>
      <trkpt lat="42.45107" lon="1.492625">
        <ele>1130.0</ele>
        <time>2019-08-04T09:32:32.301Z</time>
      </trkpt>
      <trkpt lat="42.45106" lon="1.49257667">
        <ele>1131.0</ele>
        <time>2019-08-04T09:32:33.304Z</time>
      </trkpt>
      <trkpt lat="42.45106" lon="1.49257667">
        <ele>1131.0</ele>
        <time>2019-08-04T09:32:34.306Z</time>
      </trkpt>
      <trkpt lat="42.45105167" lon="1.492525">
        <ele>1132.0</ele>
        <time>2019-08-04T09:32:35.303Z</time>
      </trkpt>
      <trkpt lat="42.45105167" lon="1.492525">
        <ele>1132.0</ele>
        <time>2019-08-04T09:32:36.301Z</time>
      </trkpt>
      <trkpt lat="42.45103667" lon="1.49247667">
        <ele>1133.0</ele>
        <time>2019-08-04T09:32:37.301Z</time>
      </trkpt>
      <trkpt lat="42.45103667" lon="1.49247667">
        <ele>1133.0</ele>
        <time>2019-08-04T09:32:38.334Z</time>
      </trkpt>
      <trkpt lat="42.45102" lon="1.49242333">
        <ele>1134.0</ele>
        <time>2019-08-04T09:32:39.321Z</time>
      </trkpt>
      <trkpt lat="42.45102" lon="1.49242333">
        <ele>1134.0</ele>
        <time>2019-08-04T09:32:40.301Z</time>
      </trkpt>
      <trkpt lat="42.45100333" lon="1.49237">
        <ele>1135.0</ele>
        <time>2019-08-04T09:32:41.304Z</time>
      </trkpt>
      <trkpt lat="42.45100333" lon="1.49237">
        <ele>1135.0</ele>
        <time>2019-08-04T09:32:42.309Z</time>
      </trkpt>
      <trkpt lat="42.450985" lon="1.49231667">
        <ele>1136.0</ele>
        <time>2019-08-04T09:32:43.304Z</time>
      </trkpt>
      <trkpt lat="42.450985" lon="1.49231667">
        <ele>1136.0</ele>
        <time>2019-08-04T09:32:44.301Z</time>
      </trkpt>
      <trkpt lat="42.45096667" lon="1.49226333">
        <ele>1136.0</ele>
        <time>2019-08-04T09:32:45.304Z</time>
      </trkpt>
      <trkpt lat="42.45096667" lon="1.49226333">
        <ele>1136.0</ele>
        <time>2019-08-04T09:32:46.300Z</time>
      </trkpt>
      <trkpt lat="42.45094333" lon="1.49221333">
        <ele>1137.0</ele>
        <time>2019-08-04T09:32:47.323Z</time>
      </trkpt>
      <trkpt lat="42.45094333" lon="1.49221333">
        <ele>1137.0</ele>
        <time>2019-08-04T09:32:48.309Z</time>
      </trkpt>
      <trkpt lat="42.45092" lon="1.49217">
        <ele>1138.0</ele>
        <time>2019-08-04T09:32:49.317Z</time>
      </trkpt>
      <trkpt lat="42.45092" lon="1.49217">
        <ele>1138.0</ele>
        <time>2019-08-04T09:32:50.297Z</time>
      </trkpt>
      <trkpt lat="42.450895" lon="1.49212333">
        <ele>1139.0</ele>
        <time>2019-08-04T09:32:51.316Z</time>
      </trkpt>
      <trkpt lat="42.450895" lon="1.49212333">
        <ele>1139.0</ele>
        <time>2019-08-04T09:32:52.300Z</time>
      </trkpt>
      <trkpt lat="42.45087333" lon="1.49208333">
        <ele>1140.0</ele>
        <time>2019-08-04T09:32:53.312Z</time>
      </trkpt>
      <trkpt lat="42.45085833" lon="1.49206">
        <ele>1140.0</ele>
        <time>2019-08-04T09:32:54.303Z</time>
      </trkpt>
      <trkpt lat="42.45084" lon="1.492035">
        <ele>1140.0</ele>
        <time>2019-08-04T09:32:55.305Z</time>
      </trkpt>
      <trkpt lat="42.45084" lon="1.492035">
        <ele>1140.0</ele>
        <time>2019-08-04T09:32:56.301Z</time>
      </trkpt>
      <trkpt lat="42.4508" lon="1.49199333">
        <ele>1140.0</ele>
        <time>2019-08-04T09:32:57.304Z</time>
      </trkpt>
      <trkpt lat="42.4508" lon="1.49199333">
        <ele>1140.0</ele>
        <time>2019-08-04T09:32:58.308Z</time>
      </trkpt>
      <trkpt lat="42.450755" lon="1.49196667">
        <ele>1140.0</ele>
        <time>2019-08-04T09:32:59.328Z</time>
      </trkpt>
      <trkpt lat="42.450755" lon="1.49196667">
        <ele>1140.0</ele>
        <time>2019-08-04T09:33:00.308Z</time>
      </trkpt>
      <trkpt lat="42.45071333" lon="1.49193833">
        <ele>1141.0</ele>
        <time>2019-08-04T09:33:01.302Z</time>
      </trkpt>
      <trkpt lat="42.45071333" lon="1.49193833">
        <ele>1141.0</ele>
        <time>2019-08-04T09:33:02.300Z</time>
      </trkpt>
      <trkpt lat="42.45067333" lon="1.49191">
        <ele>1141.0</ele>
        <time>2019-08-04T09:33:03.304Z</time>
      </trkpt>
      <trkpt lat="42.45067333" lon="1.49191">
        <ele>1141.0</ele>
        <time>2019-08-04T09:33:04.302Z</time>
      </trkpt>
      <trkpt lat="42.45063" lon="1.49188167">
        <ele>1141.0</ele>
        <time>2019-08-04T09:33:05.302Z</time>
      </trkpt>
      <trkpt lat="42.45063" lon="1.49188167">
        <ele>1141.0</ele>
        <time>2019-08-04T09:33:06.301Z</time>
      </trkpt>
      <trkpt lat="42.45059" lon="1.49186">
        <ele>1141.0</ele>
        <time>2019-08-04T09:33:07.322Z</time>
      </trkpt>
      <trkpt lat="42.45059" lon="1.49186">
        <ele>1141.0</ele>
        <time>2019-08-04T09:33:08.304Z</time>
      </trkpt>
      <trkpt lat="42.45054833" lon="1.49183667">
        <ele>1142.0</ele>
        <time>2019-08-04T09:33:09.321Z</time>
      </trkpt>
      <trkpt lat="42.45054833" lon="1.49183667">
        <ele>1142.0</ele>
        <time>2019-08-04T09:33:10.301Z</time>
      </trkpt>
      <trkpt lat="42.45051167" lon="1.49181667">
        <ele>1142.0</ele>
        <time>2019-08-04T09:33:11.303Z</time>
      </trkpt>
      <trkpt lat="42.45051167" lon="1.49181667">
        <ele>1142.0</ele>
        <time>2019-08-04T09:33:12.298Z</time>
      </trkpt>
      <trkpt lat="42.450475" lon="1.49179667">
        <ele>1142.0</ele>
        <time>2019-08-04T09:33:13.317Z</time>
      </trkpt>
      <trkpt lat="42.450475" lon="1.49179667">
        <ele>1142.0</ele>
        <time>2019-08-04T09:33:14.300Z</time>
      </trkpt>
      <trkpt lat="42.45043333" lon="1.491785">
        <ele>1143.0</ele>
        <time>2019-08-04T09:33:15.301Z</time>
      </trkpt>
      <trkpt lat="42.45043333" lon="1.491785">
        <ele>1143.0</ele>
        <time>2019-08-04T09:33:16.331Z</time>
      </trkpt>
      <trkpt lat="42.45039333" lon="1.49176333">
        <ele>1143.0</ele>
        <time>2019-08-04T09:33:17.312Z</time>
      </trkpt>
      <trkpt lat="42.45039333" lon="1.49176333">
        <ele>1143.0</ele>
        <time>2019-08-04T09:33:18.302Z</time>
      </trkpt>
      <trkpt lat="42.450355" lon="1.49174667">
        <ele>1144.0</ele>
        <time>2019-08-04T09:33:19.322Z</time>
      </trkpt>
      <trkpt lat="42.450355" lon="1.49174667">
        <ele>1144.0</ele>
        <time>2019-08-04T09:33:20.301Z</time>
      </trkpt>
      <trkpt lat="42.450315" lon="1.49173">
        <ele>1144.0</ele>
        <time>2019-08-04T09:33:21.296Z</time>
      </trkpt>
      <trkpt lat="42.450315" lon="1.49173">
        <ele>1144.0</ele>
        <time>2019-08-04T09:33:22.321Z</time>
      </trkpt>
      <trkpt lat="42.45027833" lon="1.49171667">
        <ele>1145.0</ele>
        <time>2019-08-04T09:33:23.304Z</time>
      </trkpt>
      <trkpt lat="42.45027833" lon="1.49171667">
        <ele>1145.0</ele>
        <time>2019-08-04T09:33:24.301Z</time>
      </trkpt>
      <trkpt lat="42.45024" lon="1.49169333">
        <ele>1146.0</ele>
        <time>2019-08-04T09:33:25.305Z</time>
      </trkpt>
      <trkpt lat="42.45024" lon="1.49169333">
        <ele>1146.0</ele>
        <time>2019-08-04T09:33:26.298Z</time>
      </trkpt>
      <trkpt lat="42.45019667" lon="1.49167333">
        <ele>1147.0</ele>
        <time>2019-08-04T09:33:27.322Z</time>
      </trkpt>
      <trkpt lat="42.45019667" lon="1.49167333">
        <ele>1147.0</ele>
        <time>2019-08-04T09:33:28.306Z</time>
      </trkpt>
      <trkpt lat="42.45015833" lon="1.49165667">
        <ele>1148.0</ele>
        <time>2019-08-04T09:33:29.332Z</time>
      </trkpt>
      <trkpt lat="42.45015833" lon="1.49165667">
        <ele>1148.0</ele>
        <time>2019-08-04T09:33:30.315Z</time>
      </trkpt>
      <trkpt lat="42.45011667" lon="1.49164">
        <ele>1148.0</ele>
        <time>2019-08-04T09:33:31.304Z</time>
      </trkpt>
      <trkpt lat="42.45011667" lon="1.49164">
        <ele>1148.0</ele>
        <time>2019-08-04T09:33:32.301Z</time>
      </trkpt>
      <trkpt lat="42.45007667" lon="1.49161167">
        <ele>1149.0</ele>
        <time>2019-08-04T09:33:33.304Z</time>
      </trkpt>
      <trkpt lat="42.45007667" lon="1.49161167">
        <ele>1149.0</ele>
        <time>2019-08-04T09:33:34.312Z</time>
      </trkpt>
      <trkpt lat="42.45003833" lon="1.49158667">
        <ele>1150.0</ele>
        <time>2019-08-04T09:33:35.303Z</time>
      </trkpt>
      <trkpt lat="42.45002" lon="1.49157833">
        <ele>1150.0</ele>
        <time>2019-08-04T09:33:36.303Z</time>
      </trkpt>
      <trkpt lat="42.45002" lon="1.49157833">
        <ele>1150.0</ele>
        <time>2019-08-04T09:33:37.325Z</time>
      </trkpt>
      <trkpt lat="42.449985" lon="1.49155833">
        <ele>1151.0</ele>
        <time>2019-08-04T09:33:38.306Z</time>
      </trkpt>
      <trkpt lat="42.44996667" lon="1.491545">
        <ele>1151.0</ele>
        <time>2019-08-04T09:33:39.325Z</time>
      </trkpt>
      <trkpt lat="42.44996667" lon="1.491545">
        <ele>1151.0</ele>
        <time>2019-08-04T09:33:40.304Z</time>
      </trkpt>
      <trkpt lat="42.44993167" lon="1.49152">
        <ele>1152.0</ele>
        <time>2019-08-04T09:33:41.304Z</time>
      </trkpt>
      <trkpt lat="42.44993167" lon="1.49152">
        <ele>1152.0</ele>
        <time>2019-08-04T09:33:42.324Z</time>
      </trkpt>
      <trkpt lat="42.449895" lon="1.49150167">
        <ele>1153.0</ele>
        <time>2019-08-04T09:33:43.305Z</time>
      </trkpt>
      <trkpt lat="42.449895" lon="1.49150167">
        <ele>1153.0</ele>
        <time>2019-08-04T09:33:44.301Z</time>
      </trkpt>
      <trkpt lat="42.44985333" lon="1.49148167">
        <ele>1154.0</ele>
        <time>2019-08-04T09:33:45.304Z</time>
      </trkpt>
      <trkpt lat="42.44985333" lon="1.49148167">
        <ele>1154.0</ele>
        <time>2019-08-04T09:33:46.298Z</time>
      </trkpt>
      <trkpt lat="42.44981667" lon="1.49145833">
        <ele>1154.0</ele>
        <time>2019-08-04T09:33:47.317Z</time>
      </trkpt>
      <trkpt lat="42.4498" lon="1.49145">
        <ele>1155.0</ele>
        <time>2019-08-04T09:33:48.303Z</time>
      </trkpt>
      <trkpt lat="42.44978" lon="1.49144333">
        <ele>1155.0</ele>
        <time>2019-08-04T09:33:49.329Z</time>
      </trkpt>
      <trkpt lat="42.44978" lon="1.49144333">
        <ele>1155.0</ele>
        <time>2019-08-04T09:33:50.309Z</time>
      </trkpt>
      <trkpt lat="42.44973833" lon="1.491435">
        <ele>1156.0</ele>
        <time>2019-08-04T09:33:51.303Z</time>
      </trkpt>
      <trkpt lat="42.44973833" lon="1.491435">
        <ele>1156.0</ele>
        <time>2019-08-04T09:33:52.301Z</time>
      </trkpt>
      <trkpt lat="42.44969667" lon="1.49143167">
        <ele>1157.0</ele>
        <time>2019-08-04T09:33:53.312Z</time>
      </trkpt>
      <trkpt lat="42.44969667" lon="1.49143167">
        <ele>1157.0</ele>
        <time>2019-08-04T09:33:54.301Z</time>
      </trkpt>
      <trkpt lat="42.44965333" lon="1.49143">
        <ele>1158.0</ele>
        <time>2019-08-04T09:33:55.304Z</time>
      </trkpt>
      <trkpt lat="42.449635" lon="1.491435">
        <ele>1159.0</ele>
        <time>2019-08-04T09:33:56.301Z</time>
      </trkpt>
      <trkpt lat="42.449635" lon="1.491435">
        <ele>1159.0</ele>
        <time>2019-08-04T09:33:57.301Z</time>
      </trkpt>
      <trkpt lat="42.44959" lon="1.49144">
        <ele>1160.0</ele>
        <time>2019-08-04T09:33:58.304Z</time>
      </trkpt>
      <trkpt lat="42.449565" lon="1.49144667">
        <ele>1161.0</ele>
        <time>2019-08-04T09:33:59.322Z</time>
      </trkpt>
      <trkpt lat="42.449565" lon="1.49144667">
        <ele>1161.0</ele>
        <time>2019-08-04T09:34:00.302Z</time>
      </trkpt>
      <trkpt lat="42.44951833" lon="1.49144667">
        <ele>1162.0</ele>
        <time>2019-08-04T09:34:01.305Z</time>
      </trkpt>
      <trkpt lat="42.44951833" lon="1.49144667">
        <ele>1162.0</ele>
        <time>2019-08-04T09:34:02.301Z</time>
      </trkpt>
      <trkpt lat="42.44947667" lon="1.49145">
        <ele>1162.0</ele>
        <time>2019-08-04T09:34:03.304Z</time>
      </trkpt>
      <trkpt lat="42.44947667" lon="1.49145">
        <ele>1162.0</ele>
        <time>2019-08-04T09:34:04.317Z</time>
      </trkpt>
      <trkpt lat="42.44943167" lon="1.491445">
        <ele>1163.0</ele>
        <time>2019-08-04T09:34:05.304Z</time>
      </trkpt>
      <trkpt lat="42.44943167" lon="1.491445">
        <ele>1163.0</ele>
        <time>2019-08-04T09:34:06.303Z</time>
      </trkpt>
      <trkpt lat="42.449385" lon="1.49143">
        <ele>1164.0</ele>
        <time>2019-08-04T09:34:07.304Z</time>
      </trkpt>
      <trkpt lat="42.449385" lon="1.49143">
        <ele>1164.0</ele>
        <time>2019-08-04T09:34:08.301Z</time>
      </trkpt>
      <trkpt lat="42.44934667" lon="1.49141167">
        <ele>1164.0</ele>
        <time>2019-08-04T09:34:09.328Z</time>
      </trkpt>
      <trkpt lat="42.44934667" lon="1.49141167">
        <ele>1164.0</ele>
        <time>2019-08-04T09:34:10.324Z</time>
      </trkpt>
      <trkpt lat="42.449305" lon="1.49137833">
        <ele>1165.0</ele>
        <time>2019-08-04T09:34:11.304Z</time>
      </trkpt>
      <trkpt lat="42.449305" lon="1.49137833">
        <ele>1165.0</ele>
        <time>2019-08-04T09:34:12.301Z</time>
      </trkpt>
      <trkpt lat="42.449275" lon="1.49133667">
        <ele>1166.0</ele>
        <time>2019-08-04T09:34:13.304Z</time>
      </trkpt>
      <trkpt lat="42.44926167" lon="1.491315">
        <ele>1166.0</ele>
        <time>2019-08-04T09:34:14.304Z</time>
      </trkpt>
      <trkpt lat="42.44924667" lon="1.49129167">
        <ele>1166.0</ele>
        <time>2019-08-04T09:34:15.304Z</time>
      </trkpt>
      <trkpt lat="42.44924667" lon="1.49129167">
        <ele>1166.0</ele>
        <time>2019-08-04T09:34:16.301Z</time>
      </trkpt>
      <trkpt lat="42.44921833" lon="1.49125167">
        <ele>1167.0</ele>
        <time>2019-08-04T09:34:17.304Z</time>
      </trkpt>
      <trkpt lat="42.44921833" lon="1.49125167">
        <ele>1167.0</ele>
        <time>2019-08-04T09:34:18.298Z</time>
      </trkpt>
      <trkpt lat="42.44919167" lon="1.49121">
        <ele>1167.0</ele>
        <time>2019-08-04T09:34:19.335Z</time>
      </trkpt>
      <trkpt lat="42.44919167" lon="1.49121">
        <ele>1167.0</ele>
        <time>2019-08-04T09:34:20.314Z</time>
      </trkpt>
      <trkpt lat="42.449165" lon="1.49115833">
        <ele>1167.0</ele>
        <time>2019-08-04T09:34:21.304Z</time>
      </trkpt>
      <trkpt lat="42.449165" lon="1.49115833">
        <ele>1167.0</ele>
        <time>2019-08-04T09:34:22.301Z</time>
      </trkpt>
      <trkpt lat="42.44914" lon="1.49110833">
        <ele>1168.0</ele>
        <time>2019-08-04T09:34:23.304Z</time>
      </trkpt>
      <trkpt lat="42.44914" lon="1.49110833">
        <ele>1168.0</ele>
        <time>2019-08-04T09:34:24.301Z</time>
      </trkpt>
      <trkpt lat="42.44911833" lon="1.49105833">
        <ele>1168.0</ele>
        <time>2019-08-04T09:34:25.304Z</time>
      </trkpt>
      <trkpt lat="42.44911833" lon="1.49105833">
        <ele>1168.0</ele>
        <time>2019-08-04T09:34:26.301Z</time>
      </trkpt>
      <trkpt lat="42.449095" lon="1.49100667">
        <ele>1169.0</ele>
        <time>2019-08-04T09:34:27.304Z</time>
      </trkpt>
      <trkpt lat="42.449095" lon="1.49100667">
        <ele>1169.0</ele>
        <time>2019-08-04T09:34:28.333Z</time>
      </trkpt>
      <trkpt lat="42.44907" lon="1.49095333">
        <ele>1170.0</ele>
        <time>2019-08-04T09:34:29.332Z</time>
      </trkpt>
      <trkpt lat="42.44907" lon="1.49095333">
        <ele>1170.0</ele>
        <time>2019-08-04T09:34:30.314Z</time>
      </trkpt>
      <trkpt lat="42.44904167" lon="1.49090833">
        <ele>1170.0</ele>
        <time>2019-08-04T09:34:31.305Z</time>
      </trkpt>
      <trkpt lat="42.44904167" lon="1.49090833">
        <ele>1170.0</ele>
        <time>2019-08-04T09:34:32.301Z</time>
      </trkpt>
      <trkpt lat="42.449005" lon="1.49086667">
        <ele>1171.0</ele>
        <time>2019-08-04T09:34:33.322Z</time>
      </trkpt>
      <trkpt lat="42.449005" lon="1.49086667">
        <ele>1171.0</ele>
        <time>2019-08-04T09:34:34.302Z</time>
      </trkpt>
      <trkpt lat="42.44896167" lon="1.49084333">
        <ele>1171.0</ele>
        <time>2019-08-04T09:34:35.304Z</time>
      </trkpt>
      <trkpt lat="42.44896167" lon="1.49084333">
        <ele>1171.0</ele>
        <time>2019-08-04T09:34:36.301Z</time>
      </trkpt>
      <trkpt lat="42.44891833" lon="1.49082833">
        <ele>1171.0</ele>
        <time>2019-08-04T09:34:37.322Z</time>
      </trkpt>
      <trkpt lat="42.44891833" lon="1.49082833">
        <ele>1171.0</ele>
        <time>2019-08-04T09:34:38.302Z</time>
      </trkpt>
      <trkpt lat="42.44887833" lon="1.49082333">
        <ele>1172.0</ele>
        <time>2019-08-04T09:34:39.300Z</time>
      </trkpt>
      <trkpt lat="42.44885833" lon="1.490825">
        <ele>1172.0</ele>
        <time>2019-08-04T09:34:40.303Z</time>
      </trkpt>
      <trkpt lat="42.44885833" lon="1.490825">
        <ele>1172.0</ele>
        <time>2019-08-04T09:34:41.299Z</time>
      </trkpt>
      <trkpt lat="42.44881833" lon="1.49082667">
        <ele>1173.0</ele>
        <time>2019-08-04T09:34:42.325Z</time>
      </trkpt>
      <trkpt lat="42.44880167" lon="1.49083">
        <ele>1173.0</ele>
        <time>2019-08-04T09:34:43.307Z</time>
      </trkpt>
      <trkpt lat="42.44880167" lon="1.49083">
        <ele>1173.0</ele>
        <time>2019-08-04T09:34:44.300Z</time>
      </trkpt>
      <trkpt lat="42.44875667" lon="1.49082667">
        <ele>1174.0</ele>
        <time>2019-08-04T09:34:45.323Z</time>
      </trkpt>
      <trkpt lat="42.44875667" lon="1.49082667">
        <ele>1174.0</ele>
        <time>2019-08-04T09:34:46.325Z</time>
      </trkpt>
      <trkpt lat="42.44871167" lon="1.49082833">
        <ele>1174.0</ele>
        <time>2019-08-04T09:34:47.305Z</time>
      </trkpt>
      <trkpt lat="42.44871167" lon="1.49082833">
        <ele>1174.0</ele>
        <time>2019-08-04T09:34:48.300Z</time>
      </trkpt>
      <trkpt lat="42.44867333" lon="1.49083167">
        <ele>1175.0</ele>
        <time>2019-08-04T09:34:49.323Z</time>
      </trkpt>
      <trkpt lat="42.44865333" lon="1.49083333">
        <ele>1175.0</ele>
        <time>2019-08-04T09:34:50.305Z</time>
      </trkpt>
      <trkpt lat="42.44865333" lon="1.49083333">
        <ele>1175.0</ele>
        <time>2019-08-04T09:34:51.302Z</time>
      </trkpt>
      <trkpt lat="42.44861167" lon="1.49083">
        <ele>1176.0</ele>
        <time>2019-08-04T09:34:52.311Z</time>
      </trkpt>
      <trkpt lat="42.44861167" lon="1.49083">
        <ele>1176.0</ele>
        <time>2019-08-04T09:34:53.300Z</time>
      </trkpt>
      <trkpt lat="42.44856833" lon="1.49083833">
        <ele>1177.0</ele>
        <time>2019-08-04T09:34:54.323Z</time>
      </trkpt>
      <trkpt lat="42.44856833" lon="1.49083833">
        <ele>1177.0</ele>
        <time>2019-08-04T09:34:55.303Z</time>
      </trkpt>
      <trkpt lat="42.44852167" lon="1.49084">
        <ele>1177.0</ele>
        <time>2019-08-04T09:34:56.302Z</time>
      </trkpt>
      <trkpt lat="42.44850167" lon="1.490845">
        <ele>1178.0</ele>
        <time>2019-08-04T09:34:57.304Z</time>
      </trkpt>
      <trkpt lat="42.44850167" lon="1.490845">
        <ele>1178.0</ele>
        <time>2019-08-04T09:34:58.299Z</time>
      </trkpt>
      <trkpt lat="42.44846667" lon="1.490865">
        <ele>1179.0</ele>
        <time>2019-08-04T09:34:59.326Z</time>
      </trkpt>
      <trkpt lat="42.44846667" lon="1.490865">
        <ele>1179.0</ele>
        <time>2019-08-04T09:35:00.306Z</time>
      </trkpt>
      <trkpt lat="42.448425" lon="1.49088333">
        <ele>1179.0</ele>
        <time>2019-08-04T09:35:01.303Z</time>
      </trkpt>
      <trkpt lat="42.448425" lon="1.49088333">
        <ele>1179.0</ele>
        <time>2019-08-04T09:35:02.323Z</time>
      </trkpt>
      <trkpt lat="42.44837833" lon="1.49089833">
        <ele>1180.0</ele>
        <time>2019-08-04T09:35:03.304Z</time>
      </trkpt>
      <trkpt lat="42.44837833" lon="1.49089833">
        <ele>1180.0</ele>
        <time>2019-08-04T09:35:04.300Z</time>
      </trkpt>
      <trkpt lat="42.44833333" lon="1.49090833">
        <ele>1181.0</ele>
        <time>2019-08-04T09:35:05.303Z</time>
      </trkpt>
      <trkpt lat="42.44833333" lon="1.49090833">
        <ele>1181.0</ele>
        <time>2019-08-04T09:35:06.300Z</time>
      </trkpt>
      <trkpt lat="42.44828833" lon="1.490915">
        <ele>1182.0</ele>
        <time>2019-08-04T09:35:07.323Z</time>
      </trkpt>
      <trkpt lat="42.44828833" lon="1.490915">
        <ele>1182.0</ele>
        <time>2019-08-04T09:35:08.303Z</time>
      </trkpt>
      <trkpt lat="42.44824167" lon="1.49091167">
        <ele>1182.0</ele>
        <time>2019-08-04T09:35:09.327Z</time>
      </trkpt>
      <trkpt lat="42.44824167" lon="1.49091167">
        <ele>1182.0</ele>
        <time>2019-08-04T09:35:10.305Z</time>
      </trkpt>
      <trkpt lat="42.44819833" lon="1.49089167">
        <ele>1183.0</ele>
        <time>2019-08-04T09:35:11.303Z</time>
      </trkpt>
      <trkpt lat="42.44819833" lon="1.49089167">
        <ele>1183.0</ele>
        <time>2019-08-04T09:35:12.297Z</time>
      </trkpt>
      <trkpt lat="42.448155" lon="1.49085667">
        <ele>1184.0</ele>
        <time>2019-08-04T09:35:13.317Z</time>
      </trkpt>
      <trkpt lat="42.448155" lon="1.49085667">
        <ele>1184.0</ele>
        <time>2019-08-04T09:35:14.300Z</time>
      </trkpt>
      <trkpt lat="42.448125" lon="1.49081833">
        <ele>1185.0</ele>
        <time>2019-08-04T09:35:15.323Z</time>
      </trkpt>
      <trkpt lat="42.448125" lon="1.49081833">
        <ele>1185.0</ele>
        <time>2019-08-04T09:35:16.304Z</time>
      </trkpt>
      <trkpt lat="42.44810167" lon="1.49077">
        <ele>1186.0</ele>
        <time>2019-08-04T09:35:17.303Z</time>
      </trkpt>
      <trkpt lat="42.44809333" lon="1.49074167">
        <ele>1186.0</ele>
        <time>2019-08-04T09:35:18.303Z</time>
      </trkpt>
      <trkpt lat="42.44809333" lon="1.49074167">
        <ele>1186.0</ele>
        <time>2019-08-04T09:35:19.327Z</time>
      </trkpt>
      <trkpt lat="42.44808167" lon="1.49068333">
        <ele>1187.0</ele>
        <time>2019-08-04T09:35:20.304Z</time>
      </trkpt>
      <trkpt lat="42.44807833" lon="1.49065333">
        <ele>1187.0</ele>
        <time>2019-08-04T09:35:21.304Z</time>
      </trkpt>
      <trkpt lat="42.44807833" lon="1.49065333">
        <ele>1187.0</ele>
        <time>2019-08-04T09:35:22.300Z</time>
      </trkpt>
      <trkpt lat="42.44807167" lon="1.49058833">
        <ele>1188.0</ele>
        <time>2019-08-04T09:35:23.324Z</time>
      </trkpt>
      <trkpt lat="42.44807" lon="1.49055667">
        <ele>1188.0</ele>
        <time>2019-08-04T09:35:24.304Z</time>
      </trkpt>
      <trkpt lat="42.44807" lon="1.49055667">
        <ele>1188.0</ele>
        <time>2019-08-04T09:35:25.297Z</time>
      </trkpt>
      <trkpt lat="42.44806667" lon="1.490495">
        <ele>1189.0</ele>
        <time>2019-08-04T09:35:26.318Z</time>
      </trkpt>
      <trkpt lat="42.44806333" lon="1.49046833">
        <ele>1189.0</ele>
        <time>2019-08-04T09:35:27.305Z</time>
      </trkpt>
      <trkpt lat="42.44806333" lon="1.49046833">
        <ele>1189.0</ele>
        <time>2019-08-04T09:35:28.299Z</time>
      </trkpt>
      <trkpt lat="42.44805167" lon="1.49040833">
        <ele>1190.0</ele>
        <time>2019-08-04T09:35:29.329Z</time>
      </trkpt>
      <trkpt lat="42.44805167" lon="1.49040833">
        <ele>1190.0</ele>
        <time>2019-08-04T09:35:30.301Z</time>
      </trkpt>
      <trkpt lat="42.44804333" lon="1.49034833">
        <ele>1191.0</ele>
        <time>2019-08-04T09:35:31.303Z</time>
      </trkpt>
      <trkpt lat="42.44804333" lon="1.49034833">
        <ele>1191.0</ele>
        <time>2019-08-04T09:35:32.324Z</time>
      </trkpt>
      <trkpt lat="42.448025" lon="1.4903">
        <ele>1191.0</ele>
        <time>2019-08-04T09:35:33.305Z</time>
      </trkpt>
      <trkpt lat="42.448025" lon="1.4903">
        <ele>1191.0</ele>
        <time>2019-08-04T09:35:34.302Z</time>
      </trkpt>
      <trkpt lat="42.44800667" lon="1.490255">
        <ele>1192.0</ele>
        <time>2019-08-04T09:35:35.307Z</time>
      </trkpt>
      <trkpt lat="42.44800667" lon="1.490255">
        <ele>1192.0</ele>
        <time>2019-08-04T09:35:36.300Z</time>
      </trkpt>
      <trkpt lat="42.44798333" lon="1.490205">
        <ele>1193.0</ele>
        <time>2019-08-04T09:35:37.323Z</time>
      </trkpt>
      <trkpt lat="42.44798333" lon="1.490205">
        <ele>1193.0</ele>
        <time>2019-08-04T09:35:38.303Z</time>
      </trkpt>
      <trkpt lat="42.44796667" lon="1.49014667">
        <ele>1193.0</ele>
        <time>2019-08-04T09:35:39.323Z</time>
      </trkpt>
      <trkpt lat="42.44796667" lon="1.49014667">
        <ele>1193.0</ele>
        <time>2019-08-04T09:35:40.331Z</time>
      </trkpt>
      <trkpt lat="42.44795167" lon="1.49009">
        <ele>1194.0</ele>
        <time>2019-08-04T09:35:41.311Z</time>
      </trkpt>
      <trkpt lat="42.44795167" lon="1.49009">
        <ele>1194.0</ele>
        <time>2019-08-04T09:35:42.303Z</time>
      </trkpt>
      <trkpt lat="42.44793667" lon="1.49003">
        <ele>1194.0</ele>
        <time>2019-08-04T09:35:43.304Z</time>
      </trkpt>
      <trkpt lat="42.44793667" lon="1.49003">
        <ele>1194.0</ele>
        <time>2019-08-04T09:35:44.300Z</time>
      </trkpt>
      <trkpt lat="42.44791667" lon="1.48997333">
        <ele>1195.0</ele>
        <time>2019-08-04T09:35:45.323Z</time>
      </trkpt>
      <trkpt lat="42.44791667" lon="1.48997333">
        <ele>1195.0</ele>
        <time>2019-08-04T09:35:46.303Z</time>
      </trkpt>
      <trkpt lat="42.44789667" lon="1.48990667">
        <ele>1196.0</ele>
        <time>2019-08-04T09:35:47.303Z</time>
      </trkpt>
      <trkpt lat="42.44789667" lon="1.48990667">
        <ele>1196.0</ele>
        <time>2019-08-04T09:35:48.300Z</time>
      </trkpt>
      <trkpt lat="42.447875" lon="1.48985333">
        <ele>1196.0</ele>
        <time>2019-08-04T09:35:49.325Z</time>
      </trkpt>
      <trkpt lat="42.44786" lon="1.48983">
        <ele>1197.0</ele>
        <time>2019-08-04T09:35:50.307Z</time>
      </trkpt>
      <trkpt lat="42.44784333" lon="1.48980667">
        <ele>1197.0</ele>
        <time>2019-08-04T09:35:51.305Z</time>
      </trkpt>
      <trkpt lat="42.44784333" lon="1.48980667">
        <ele>1197.0</ele>
        <time>2019-08-04T09:35:52.300Z</time>
      </trkpt>
      <trkpt lat="42.44780333" lon="1.48975333">
        <ele>1196.0</ele>
        <time>2019-08-04T09:35:53.335Z</time>
      </trkpt>
      <trkpt lat="42.447765" lon="1.48972667">
        <ele>1195.0</ele>
        <time>2019-08-04T09:35:54.315Z</time>
      </trkpt>
      <trkpt lat="42.447765" lon="1.48972667">
        <ele>1195.0</ele>
        <time>2019-08-04T09:35:55.301Z</time>
      </trkpt>
      <trkpt lat="42.44770167" lon="1.48967667">
        <ele>1192.0</ele>
        <time>2019-08-04T09:35:56.323Z</time>
      </trkpt>
      <trkpt lat="42.447685" lon="1.48965167">
        <ele>1192.0</ele>
        <time>2019-08-04T09:35:57.305Z</time>
      </trkpt>
      <trkpt lat="42.447685" lon="1.48965167">
        <ele>1192.0</ele>
        <time>2019-08-04T09:35:58.299Z</time>
      </trkpt>
      <trkpt lat="42.44764333" lon="1.48961667">
        <ele>1192.0</ele>
        <time>2019-08-04T09:35:59.331Z</time>
      </trkpt>
      <trkpt lat="42.44764333" lon="1.48961667">
        <ele>1192.0</ele>
        <time>2019-08-04T09:36:00.312Z</time>
      </trkpt>
      <trkpt lat="42.447605" lon="1.489585">
        <ele>1192.0</ele>
        <time>2019-08-04T09:36:01.305Z</time>
      </trkpt>
      <trkpt lat="42.447605" lon="1.489585">
        <ele>1192.0</ele>
        <time>2019-08-04T09:36:02.309Z</time>
      </trkpt>
      <trkpt lat="42.44756667" lon="1.48956667">
        <ele>1193.0</ele>
        <time>2019-08-04T09:36:03.305Z</time>
      </trkpt>
      <trkpt lat="42.44756667" lon="1.48956667">
        <ele>1193.0</ele>
        <time>2019-08-04T09:36:04.311Z</time>
      </trkpt>
      <trkpt lat="42.447535" lon="1.48955833">
        <ele>1193.0</ele>
        <time>2019-08-04T09:36:05.303Z</time>
      </trkpt>
      <trkpt lat="42.447535" lon="1.48955833">
        <ele>1193.0</ele>
        <time>2019-08-04T09:36:06.300Z</time>
      </trkpt>
      <trkpt lat="42.447495" lon="1.48955667">
        <ele>1194.0</ele>
        <time>2019-08-04T09:36:07.323Z</time>
      </trkpt>
      <trkpt lat="42.447495" lon="1.48955667">
        <ele>1194.0</ele>
        <time>2019-08-04T09:36:08.303Z</time>
      </trkpt>
      <trkpt lat="42.44745833" lon="1.48955167">
        <ele>1194.0</ele>
        <time>2019-08-04T09:36:09.325Z</time>
      </trkpt>
      <trkpt lat="42.44745833" lon="1.48955167">
        <ele>1194.0</ele>
        <time>2019-08-04T09:36:10.323Z</time>
      </trkpt>
      <trkpt lat="42.44742167" lon="1.48954667">
        <ele>1195.0</ele>
        <time>2019-08-04T09:36:11.304Z</time>
      </trkpt>
      <trkpt lat="42.44742167" lon="1.48954667">
        <ele>1195.0</ele>
        <time>2019-08-04T09:36:12.300Z</time>
      </trkpt>
      <trkpt lat="42.44737667" lon="1.48953833">
        <ele>1195.0</ele>
        <time>2019-08-04T09:36:13.323Z</time>
      </trkpt>
      <trkpt lat="42.44737667" lon="1.48953833">
        <ele>1195.0</ele>
        <time>2019-08-04T09:36:14.304Z</time>
      </trkpt>
      <trkpt lat="42.44733667" lon="1.48954167">
        <ele>1196.0</ele>
        <time>2019-08-04T09:36:15.305Z</time>
      </trkpt>
      <trkpt lat="42.44733667" lon="1.48954167">
        <ele>1196.0</ele>
        <time>2019-08-04T09:36:16.298Z</time>
      </trkpt>
      <trkpt lat="42.44730167" lon="1.48953833">
        <ele>1197.0</ele>
        <time>2019-08-04T09:36:17.316Z</time>
      </trkpt>
      <trkpt lat="42.44728167" lon="1.48954167">
        <ele>1197.0</ele>
        <time>2019-08-04T09:36:18.303Z</time>
      </trkpt>
      <trkpt lat="42.44728167" lon="1.48954167">
        <ele>1197.0</ele>
        <time>2019-08-04T09:36:19.315Z</time>
      </trkpt>
      <trkpt lat="42.44723833" lon="1.48954167">
        <ele>1198.0</ele>
        <time>2019-08-04T09:36:20.311Z</time>
      </trkpt>
      <trkpt lat="42.44721667" lon="1.48954167">
        <ele>1198.0</ele>
        <time>2019-08-04T09:36:21.317Z</time>
      </trkpt>
      <trkpt lat="42.44721667" lon="1.48954167">
        <ele>1198.0</ele>
        <time>2019-08-04T09:36:22.325Z</time>
      </trkpt>
      <trkpt lat="42.447175" lon="1.48953833">
        <ele>1199.0</ele>
        <time>2019-08-04T09:36:23.305Z</time>
      </trkpt>
      <trkpt lat="42.447175" lon="1.48953833">
        <ele>1199.0</ele>
        <time>2019-08-04T09:36:24.300Z</time>
      </trkpt>
      <trkpt lat="42.44713333" lon="1.48953333">
        <ele>1200.0</ele>
        <time>2019-08-04T09:36:25.322Z</time>
      </trkpt>
      <trkpt lat="42.44713333" lon="1.48953333">
        <ele>1200.0</ele>
        <time>2019-08-04T09:36:26.303Z</time>
      </trkpt>
      <trkpt lat="42.44709333" lon="1.48952833">
        <ele>1201.0</ele>
        <time>2019-08-04T09:36:27.324Z</time>
      </trkpt>
      <trkpt lat="42.44709333" lon="1.48952833">
        <ele>1201.0</ele>
        <time>2019-08-04T09:36:28.304Z</time>
      </trkpt>
      <trkpt lat="42.44704667" lon="1.489535">
        <ele>1202.0</ele>
        <time>2019-08-04T09:36:29.323Z</time>
      </trkpt>
      <trkpt lat="42.447025" lon="1.48954333">
        <ele>1202.0</ele>
        <time>2019-08-04T09:36:30.314Z</time>
      </trkpt>
      <trkpt lat="42.447025" lon="1.48954333">
        <ele>1202.0</ele>
        <time>2019-08-04T09:36:31.301Z</time>
      </trkpt>
      <trkpt lat="42.44698167" lon="1.48954833">
        <ele>1203.0</ele>
        <time>2019-08-04T09:36:32.304Z</time>
      </trkpt>
      <trkpt lat="42.44696" lon="1.48954833">
        <ele>1203.0</ele>
        <time>2019-08-04T09:36:33.305Z</time>
      </trkpt>
      <trkpt lat="42.44696" lon="1.48954833">
        <ele>1203.0</ele>
        <time>2019-08-04T09:36:34.302Z</time>
      </trkpt>
      <trkpt lat="42.44691667" lon="1.489545">
        <ele>1204.0</ele>
        <time>2019-08-04T09:36:35.303Z</time>
      </trkpt>
      <trkpt lat="42.446895" lon="1.48954167">
        <ele>1205.0</ele>
        <time>2019-08-04T09:36:36.304Z</time>
      </trkpt>
      <trkpt lat="42.446895" lon="1.48954167">
        <ele>1205.0</ele>
        <time>2019-08-04T09:36:37.301Z</time>
      </trkpt>
      <trkpt lat="42.44685333" lon="1.48954833">
        <ele>1206.0</ele>
        <time>2019-08-04T09:36:38.303Z</time>
      </trkpt>
      <trkpt lat="42.44683" lon="1.48955167">
        <ele>1206.0</ele>
        <time>2019-08-04T09:36:39.322Z</time>
      </trkpt>
      <trkpt lat="42.44683" lon="1.48955167">
        <ele>1206.0</ele>
        <time>2019-08-04T09:36:40.317Z</time>
      </trkpt>
      <trkpt lat="42.44678167" lon="1.48956333">
        <ele>1207.0</ele>
        <time>2019-08-04T09:36:41.301Z</time>
      </trkpt>
      <trkpt lat="42.44678167" lon="1.48956333">
        <ele>1207.0</ele>
        <time>2019-08-04T09:36:42.301Z</time>
      </trkpt>
      <trkpt lat="42.44674" lon="1.48957167">
        <ele>1208.0</ele>
        <time>2019-08-04T09:36:43.305Z</time>
      </trkpt>
      <trkpt lat="42.44674" lon="1.48957167">
        <ele>1208.0</ele>
        <time>2019-08-04T09:36:44.301Z</time>
      </trkpt>
      <trkpt lat="42.44669333" lon="1.48958">
        <ele>1209.0</ele>
        <time>2019-08-04T09:36:45.323Z</time>
      </trkpt>
      <trkpt lat="42.44669333" lon="1.48958">
        <ele>1209.0</ele>
        <time>2019-08-04T09:36:46.305Z</time>
      </trkpt>
      <trkpt lat="42.44665167" lon="1.48958667">
        <ele>1210.0</ele>
        <time>2019-08-04T09:36:47.304Z</time>
      </trkpt>
      <trkpt lat="42.44665167" lon="1.48958667">
        <ele>1210.0</ele>
        <time>2019-08-04T09:36:48.301Z</time>
      </trkpt>
      <trkpt lat="42.44661333" lon="1.48960167">
        <ele>1211.0</ele>
        <time>2019-08-04T09:36:49.324Z</time>
      </trkpt>
      <trkpt lat="42.44661333" lon="1.48960167">
        <ele>1211.0</ele>
        <time>2019-08-04T09:36:50.307Z</time>
      </trkpt>
      <trkpt lat="42.44657167" lon="1.48961">
        <ele>1212.0</ele>
        <time>2019-08-04T09:36:51.302Z</time>
      </trkpt>
      <trkpt lat="42.44657167" lon="1.48961">
        <ele>1212.0</ele>
        <time>2019-08-04T09:36:52.326Z</time>
      </trkpt>
      <trkpt lat="42.44653167" lon="1.48960833">
        <ele>1213.0</ele>
        <time>2019-08-04T09:36:53.308Z</time>
      </trkpt>
      <trkpt lat="42.44653167" lon="1.48960833">
        <ele>1213.0</ele>
        <time>2019-08-04T09:36:54.298Z</time>
      </trkpt>
      <trkpt lat="42.44649333" lon="1.48961667">
        <ele>1214.0</ele>
        <time>2019-08-04T09:36:55.317Z</time>
      </trkpt>
      <trkpt lat="42.44649333" lon="1.48961667">
        <ele>1214.0</ele>
        <time>2019-08-04T09:36:56.300Z</time>
      </trkpt>
      <trkpt lat="42.44645333" lon="1.48962667">
        <ele>1215.0</ele>
        <time>2019-08-04T09:36:57.323Z</time>
      </trkpt>
      <trkpt lat="42.44645333" lon="1.48962667">
        <ele>1215.0</ele>
        <time>2019-08-04T09:36:58.305Z</time>
      </trkpt>
      <trkpt lat="42.446415" lon="1.48963333">
        <ele>1216.0</ele>
        <time>2019-08-04T09:36:59.318Z</time>
      </trkpt>
      <trkpt lat="42.446415" lon="1.48963333">
        <ele>1216.0</ele>
        <time>2019-08-04T09:37:00.301Z</time>
      </trkpt>
      <trkpt lat="42.44637833" lon="1.489645">
        <ele>1217.0</ele>
        <time>2019-08-04T09:37:01.315Z</time>
      </trkpt>
      <trkpt lat="42.44637833" lon="1.489645">
        <ele>1217.0</ele>
        <time>2019-08-04T09:37:02.298Z</time>
      </trkpt>
      <trkpt lat="42.44634333" lon="1.489645">
        <ele>1218.0</ele>
        <time>2019-08-04T09:37:03.331Z</time>
      </trkpt>
      <trkpt lat="42.44634333" lon="1.489645">
        <ele>1218.0</ele>
        <time>2019-08-04T09:37:04.306Z</time>
      </trkpt>
      <trkpt lat="42.4463" lon="1.48965">
        <ele>1219.0</ele>
        <time>2019-08-04T09:37:05.308Z</time>
      </trkpt>
      <trkpt lat="42.4463" lon="1.48965">
        <ele>1219.0</ele>
        <time>2019-08-04T09:37:06.298Z</time>
      </trkpt>
      <trkpt lat="42.44626333" lon="1.489655">
        <ele>1220.0</ele>
        <time>2019-08-04T09:37:07.318Z</time>
      </trkpt>
      <trkpt lat="42.44626333" lon="1.489655">
        <ele>1220.0</ele>
        <time>2019-08-04T09:37:08.301Z</time>
      </trkpt>
      <trkpt lat="42.44623167" lon="1.48964333">
        <ele>1221.0</ele>
        <time>2019-08-04T09:37:09.318Z</time>
      </trkpt>
      <trkpt lat="42.44623167" lon="1.48964333">
        <ele>1221.0</ele>
        <time>2019-08-04T09:37:10.301Z</time>
      </trkpt>
      <trkpt lat="42.44619167" lon="1.48963667">
        <ele>1222.0</ele>
        <time>2019-08-04T09:37:11.316Z</time>
      </trkpt>
      <trkpt lat="42.44619167" lon="1.48963667">
        <ele>1222.0</ele>
        <time>2019-08-04T09:37:12.301Z</time>
      </trkpt>
      <trkpt lat="42.44615167" lon="1.48961667">
        <ele>1223.0</ele>
        <time>2019-08-04T09:37:13.324Z</time>
      </trkpt>
      <trkpt lat="42.44615167" lon="1.48961667">
        <ele>1223.0</ele>
        <time>2019-08-04T09:37:14.304Z</time>
      </trkpt>
      <trkpt lat="42.44611333" lon="1.48958833">
        <ele>1224.0</ele>
        <time>2019-08-04T09:37:15.305Z</time>
      </trkpt>
      <trkpt lat="42.44611333" lon="1.48958833">
        <ele>1224.0</ele>
        <time>2019-08-04T09:37:16.332Z</time>
      </trkpt>
      <trkpt lat="42.44608667" lon="1.48955">
        <ele>1225.0</ele>
        <time>2019-08-04T09:37:17.313Z</time>
      </trkpt>
      <trkpt lat="42.44608667" lon="1.48955">
        <ele>1225.0</ele>
        <time>2019-08-04T09:37:18.300Z</time>
      </trkpt>
      <trkpt lat="42.446075" lon="1.48949833">
        <ele>1226.0</ele>
        <time>2019-08-04T09:37:19.323Z</time>
      </trkpt>
      <trkpt lat="42.446075" lon="1.48949833">
        <ele>1226.0</ele>
        <time>2019-08-04T09:37:20.305Z</time>
      </trkpt>
      <trkpt lat="42.44606667" lon="1.48944333">
        <ele>1227.0</ele>
        <time>2019-08-04T09:37:21.314Z</time>
      </trkpt>
      <trkpt lat="42.44606667" lon="1.48944333">
        <ele>1227.0</ele>
        <time>2019-08-04T09:37:22.301Z</time>
      </trkpt>
      <trkpt lat="42.44605833" lon="1.489385">
        <ele>1228.0</ele>
        <time>2019-08-04T09:37:23.324Z</time>
      </trkpt>
      <trkpt lat="42.44605833" lon="1.489385">
        <ele>1228.0</ele>
        <time>2019-08-04T09:37:24.303Z</time>
      </trkpt>
      <trkpt lat="42.44604667" lon="1.48933">
        <ele>1229.0</ele>
        <time>2019-08-04T09:37:25.301Z</time>
      </trkpt>
      <trkpt lat="42.44604667" lon="1.48933">
        <ele>1229.0</ele>
        <time>2019-08-04T09:37:26.301Z</time>
      </trkpt>
      <trkpt lat="42.44603167" lon="1.48927167">
        <ele>1230.0</ele>
        <time>2019-08-04T09:37:27.324Z</time>
      </trkpt>
      <trkpt lat="42.44602833" lon="1.48924">
        <ele>1231.0</ele>
        <time>2019-08-04T09:37:28.305Z</time>
      </trkpt>
      <trkpt lat="42.44602833" lon="1.48924">
        <ele>1231.0</ele>
        <time>2019-08-04T09:37:29.316Z</time>
      </trkpt>
      <trkpt lat="42.44602167" lon="1.48918333">
        <ele>1231.0</ele>
        <time>2019-08-04T09:37:30.303Z</time>
      </trkpt>
      <trkpt lat="42.44601333" lon="1.489155">
        <ele>1232.0</ele>
        <time>2019-08-04T09:37:31.301Z</time>
      </trkpt>
      <trkpt lat="42.44601333" lon="1.489155">
        <ele>1232.0</ele>
        <time>2019-08-04T09:37:32.323Z</time>
      </trkpt>
      <trkpt lat="42.44599833" lon="1.4891">
        <ele>1233.0</ele>
        <time>2019-08-04T09:37:33.305Z</time>
      </trkpt>
      <trkpt lat="42.44599833" lon="1.4891">
        <ele>1233.0</ele>
        <time>2019-08-04T09:37:34.300Z</time>
      </trkpt>
      <trkpt lat="42.44597833" lon="1.489045">
        <ele>1233.0</ele>
        <time>2019-08-04T09:37:35.323Z</time>
      </trkpt>
      <trkpt lat="42.44596833" lon="1.48901667">
        <ele>1234.0</ele>
        <time>2019-08-04T09:37:36.306Z</time>
      </trkpt>
      <trkpt lat="42.44596833" lon="1.48901667">
        <ele>1234.0</ele>
        <time>2019-08-04T09:37:37.300Z</time>
      </trkpt>
      <trkpt lat="42.44594833" lon="1.48896167">
        <ele>1234.0</ele>
        <time>2019-08-04T09:37:38.324Z</time>
      </trkpt>
      <trkpt lat="42.44593833" lon="1.48893833">
        <ele>1235.0</ele>
        <time>2019-08-04T09:37:39.323Z</time>
      </trkpt>
      <trkpt lat="42.44593833" lon="1.48893833">
        <ele>1235.0</ele>
        <time>2019-08-04T09:37:40.303Z</time>
      </trkpt>
      <trkpt lat="42.44592333" lon="1.48888667">
        <ele>1236.0</ele>
        <time>2019-08-04T09:37:41.305Z</time>
      </trkpt>
      <trkpt lat="42.44592333" lon="1.48888667">
        <ele>1236.0</ele>
        <time>2019-08-04T09:37:42.301Z</time>
      </trkpt>
      <trkpt lat="42.44590667" lon="1.48883333">
        <ele>1236.0</ele>
        <time>2019-08-04T09:37:43.324Z</time>
      </trkpt>
      <trkpt lat="42.44590667" lon="1.48883333">
        <ele>1236.0</ele>
        <time>2019-08-04T09:37:44.304Z</time>
      </trkpt>
      <trkpt lat="42.44588667" lon="1.48878167">
        <ele>1237.0</ele>
        <time>2019-08-04T09:37:45.318Z</time>
      </trkpt>
      <trkpt lat="42.44588667" lon="1.48878167">
        <ele>1237.0</ele>
        <time>2019-08-04T09:37:46.323Z</time>
      </trkpt>
      <trkpt lat="42.44585667" lon="1.48874333">
        <ele>1238.0</ele>
        <time>2019-08-04T09:37:47.306Z</time>
      </trkpt>
      <trkpt lat="42.445835" lon="1.48873">
        <ele>1239.0</ele>
        <time>2019-08-04T09:37:48.305Z</time>
      </trkpt>
      <trkpt lat="42.445835" lon="1.48873">
        <ele>1239.0</ele>
        <time>2019-08-04T09:37:49.316Z</time>
      </trkpt>
      <trkpt lat="42.44581167" lon="1.48868333">
        <ele>1239.0</ele>
        <time>2019-08-04T09:37:50.303Z</time>
      </trkpt>
      <trkpt lat="42.44580833" lon="1.48865667">
        <ele>1239.0</ele>
        <time>2019-08-04T09:37:51.312Z</time>
      </trkpt>
      <trkpt lat="42.44580833" lon="1.48865667">
        <ele>1239.0</ele>
        <time>2019-08-04T09:37:52.299Z</time>
      </trkpt>
      <trkpt lat="42.44579167" lon="1.48861">
        <ele>1240.0</ele>
        <time>2019-08-04T09:37:53.325Z</time>
      </trkpt>
      <trkpt lat="42.44579167" lon="1.48861">
        <ele>1240.0</ele>
        <time>2019-08-04T09:37:54.306Z</time>
      </trkpt>
      <trkpt lat="42.44574167" lon="1.48857833">
        <ele>1240.0</ele>
        <time>2019-08-04T09:37:55.303Z</time>
      </trkpt>
      <trkpt lat="42.44574167" lon="1.48857833">
        <ele>1240.0</ele>
        <time>2019-08-04T09:37:56.300Z</time>
      </trkpt>
      <trkpt lat="42.445685" lon="1.488535">
        <ele>1237.0</ele>
        <time>2019-08-04T09:37:57.324Z</time>
      </trkpt>
      <trkpt lat="42.445685" lon="1.488535">
        <ele>1237.0</ele>
        <time>2019-08-04T09:37:58.304Z</time>
      </trkpt>
      <trkpt lat="42.44561" lon="1.48848833">
        <ele>1231.0</ele>
        <time>2019-08-04T09:37:59.324Z</time>
      </trkpt>
      <trkpt lat="42.44561" lon="1.48848833">
        <ele>1231.0</ele>
        <time>2019-08-04T09:38:00.303Z</time>
      </trkpt>
      <trkpt lat="42.445565" lon="1.48845667">
        <ele>1230.0</ele>
        <time>2019-08-04T09:38:01.297Z</time>
      </trkpt>
      <trkpt lat="42.44554" lon="1.48844667">
        <ele>1229.0</ele>
        <time>2019-08-04T09:38:02.317Z</time>
      </trkpt>
      <trkpt lat="42.44551667" lon="1.48843667">
        <ele>1229.0</ele>
        <time>2019-08-04T09:38:03.306Z</time>
      </trkpt>
      <trkpt lat="42.44551667" lon="1.48843667">
        <ele>1229.0</ele>
        <time>2019-08-04T09:38:04.302Z</time>
      </trkpt>
      <trkpt lat="42.44547833" lon="1.48841">
        <ele>1228.0</ele>
        <time>2019-08-04T09:38:05.304Z</time>
      </trkpt>
      <trkpt lat="42.44545833" lon="1.4884">
        <ele>1228.0</ele>
        <time>2019-08-04T09:38:06.306Z</time>
      </trkpt>
      <trkpt lat="42.44545833" lon="1.4884">
        <ele>1228.0</ele>
        <time>2019-08-04T09:38:07.325Z</time>
      </trkpt>
      <trkpt lat="42.44542167" lon="1.48837333">
        <ele>1228.0</ele>
        <time>2019-08-04T09:38:08.305Z</time>
      </trkpt>
      <trkpt lat="42.44540167" lon="1.48836167">
        <ele>1227.0</ele>
        <time>2019-08-04T09:38:09.317Z</time>
      </trkpt>
      <trkpt lat="42.44540167" lon="1.48836167">
        <ele>1227.0</ele>
        <time>2019-08-04T09:38:10.299Z</time>
      </trkpt>
      <trkpt lat="42.44535833" lon="1.48834167">
        <ele>1227.0</ele>
        <time>2019-08-04T09:38:11.297Z</time>
      </trkpt>
      <trkpt lat="42.44533833" lon="1.48833167">
        <ele>1227.0</ele>
        <time>2019-08-04T09:38:12.317Z</time>
      </trkpt>
      <trkpt lat="42.44532" lon="1.48832167">
        <ele>1227.0</ele>
        <time>2019-08-04T09:38:13.301Z</time>
      </trkpt>
      <trkpt lat="42.44532" lon="1.48832167">
        <ele>1227.0</ele>
        <time>2019-08-04T09:38:14.298Z</time>
      </trkpt>
      <trkpt lat="42.445285" lon="1.48831">
        <ele>1227.0</ele>
        <time>2019-08-04T09:38:15.317Z</time>
      </trkpt>
      <trkpt lat="42.445285" lon="1.48831">
        <ele>1227.0</ele>
        <time>2019-08-04T09:38:16.301Z</time>
      </trkpt>
      <trkpt lat="42.445245" lon="1.48830833">
        <ele>1227.0</ele>
        <time>2019-08-04T09:38:17.324Z</time>
      </trkpt>
      <trkpt lat="42.445245" lon="1.48830833">
        <ele>1227.0</ele>
        <time>2019-08-04T09:38:18.303Z</time>
      </trkpt>
      <trkpt lat="42.44520167" lon="1.48831">
        <ele>1226.0</ele>
        <time>2019-08-04T09:38:19.324Z</time>
      </trkpt>
      <trkpt lat="42.44520167" lon="1.48831">
        <ele>1226.0</ele>
        <time>2019-08-04T09:38:20.304Z</time>
      </trkpt>
      <trkpt lat="42.44516167" lon="1.48831667">
        <ele>1226.0</ele>
        <time>2019-08-04T09:38:21.330Z</time>
      </trkpt>
      <trkpt lat="42.44514167" lon="1.48832">
        <ele>1226.0</ele>
        <time>2019-08-04T09:38:22.310Z</time>
      </trkpt>
      <trkpt lat="42.44514167" lon="1.48832">
        <ele>1226.0</ele>
        <time>2019-08-04T09:38:23.299Z</time>
      </trkpt>
      <trkpt lat="42.4451" lon="1.48833833">
        <ele>1226.0</ele>
        <time>2019-08-04T09:38:24.318Z</time>
      </trkpt>
      <trkpt lat="42.44508" lon="1.48835">
        <ele>1227.0</ele>
        <time>2019-08-04T09:38:25.307Z</time>
      </trkpt>
      <trkpt lat="42.44508" lon="1.48835">
        <ele>1227.0</ele>
        <time>2019-08-04T09:38:26.301Z</time>
      </trkpt>
      <trkpt lat="42.44504333" lon="1.488375">
        <ele>1227.0</ele>
        <time>2019-08-04T09:38:27.325Z</time>
      </trkpt>
      <trkpt lat="42.44504333" lon="1.488375">
        <ele>1227.0</ele>
        <time>2019-08-04T09:38:28.305Z</time>
      </trkpt>
      <trkpt lat="42.445005" lon="1.488395">
        <ele>1227.0</ele>
        <time>2019-08-04T09:38:29.304Z</time>
      </trkpt>
      <trkpt lat="42.445005" lon="1.488395">
        <ele>1227.0</ele>
        <time>2019-08-04T09:38:30.301Z</time>
      </trkpt>
      <trkpt lat="42.444965" lon="1.48842167">
        <ele>1228.0</ele>
        <time>2019-08-04T09:38:31.323Z</time>
      </trkpt>
      <trkpt lat="42.444965" lon="1.48842167">
        <ele>1228.0</ele>
        <time>2019-08-04T09:38:32.307Z</time>
      </trkpt>
      <trkpt lat="42.44493" lon="1.48844833">
        <ele>1228.0</ele>
        <time>2019-08-04T09:38:33.306Z</time>
      </trkpt>
      <trkpt lat="42.44493" lon="1.48844833">
        <ele>1228.0</ele>
        <time>2019-08-04T09:38:34.301Z</time>
      </trkpt>
      <trkpt lat="42.444895" lon="1.48846667">
        <ele>1228.0</ele>
        <time>2019-08-04T09:38:35.304Z</time>
      </trkpt>
      <trkpt lat="42.444895" lon="1.48846667">
        <ele>1228.0</ele>
        <time>2019-08-04T09:38:36.301Z</time>
      </trkpt>
      <trkpt lat="42.44486" lon="1.48848667">
        <ele>1229.0</ele>
        <time>2019-08-04T09:38:37.324Z</time>
      </trkpt>
      <trkpt lat="42.44484167" lon="1.48849667">
        <ele>1229.0</ele>
        <time>2019-08-04T09:38:38.307Z</time>
      </trkpt>
      <trkpt lat="42.44482167" lon="1.48850833">
        <ele>1229.0</ele>
        <time>2019-08-04T09:38:39.318Z</time>
      </trkpt>
      <trkpt lat="42.44482167" lon="1.48850833">
        <ele>1229.0</ele>
        <time>2019-08-04T09:38:40.303Z</time>
      </trkpt>
      <trkpt lat="42.444785" lon="1.488535">
        <ele>1229.0</ele>
        <time>2019-08-04T09:38:41.303Z</time>
      </trkpt>
      <trkpt lat="42.444785" lon="1.488535">
        <ele>1229.0</ele>
        <time>2019-08-04T09:38:42.326Z</time>
      </trkpt>
      <trkpt lat="42.44474333" lon="1.48856167">
        <ele>1229.0</ele>
        <time>2019-08-04T09:38:43.312Z</time>
      </trkpt>
      <trkpt lat="42.444725" lon="1.48857667">
        <ele>1229.0</ele>
        <time>2019-08-04T09:38:44.305Z</time>
      </trkpt>
      <trkpt lat="42.444725" lon="1.48857667">
        <ele>1229.0</ele>
        <time>2019-08-04T09:38:45.304Z</time>
      </trkpt>
      <trkpt lat="42.44469" lon="1.48861333">
        <ele>1229.0</ele>
        <time>2019-08-04T09:38:46.305Z</time>
      </trkpt>
      <trkpt lat="42.44469" lon="1.48861333">
        <ele>1229.0</ele>
        <time>2019-08-04T09:38:47.301Z</time>
      </trkpt>
      <trkpt lat="42.44465833" lon="1.48865167">
        <ele>1229.0</ele>
        <time>2019-08-04T09:38:48.334Z</time>
      </trkpt>
      <trkpt lat="42.44464333" lon="1.488675">
        <ele>1229.0</ele>
        <time>2019-08-04T09:38:49.318Z</time>
      </trkpt>
      <trkpt lat="42.44464333" lon="1.488675">
        <ele>1229.0</ele>
        <time>2019-08-04T09:38:50.299Z</time>
      </trkpt>
      <trkpt lat="42.44461333" lon="1.48871667">
        <ele>1229.0</ele>
        <time>2019-08-04T09:38:51.321Z</time>
      </trkpt>
      <trkpt lat="42.44461333" lon="1.48871667">
        <ele>1229.0</ele>
        <time>2019-08-04T09:38:52.300Z</time>
      </trkpt>
      <trkpt lat="42.44458667" lon="1.48874833">
        <ele>1229.0</ele>
        <time>2019-08-04T09:38:53.304Z</time>
      </trkpt>
      <trkpt lat="42.44457167" lon="1.488765">
        <ele>1229.0</ele>
        <time>2019-08-04T09:38:54.301Z</time>
      </trkpt>
      <trkpt lat="42.44457167" lon="1.488765">
        <ele>1229.0</ele>
        <time>2019-08-04T09:38:55.324Z</time>
      </trkpt>
      <trkpt lat="42.44453667" lon="1.48880167">
        <ele>1229.0</ele>
        <time>2019-08-04T09:38:56.305Z</time>
      </trkpt>
      <trkpt lat="42.44451833" lon="1.48881667">
        <ele>1230.0</ele>
        <time>2019-08-04T09:38:57.305Z</time>
      </trkpt>
      <trkpt lat="42.44451833" lon="1.48881667">
        <ele>1230.0</ele>
        <time>2019-08-04T09:38:58.299Z</time>
      </trkpt>
      <trkpt lat="42.44448" lon="1.48883833">
        <ele>1230.0</ele>
        <time>2019-08-04T09:38:59.324Z</time>
      </trkpt>
      <trkpt lat="42.44448" lon="1.48883833">
        <ele>1230.0</ele>
        <time>2019-08-04T09:39:00.303Z</time>
      </trkpt>
      <trkpt lat="42.44444167" lon="1.48885167">
        <ele>1230.0</ele>
        <time>2019-08-04T09:39:01.303Z</time>
      </trkpt>
      <trkpt lat="42.44444167" lon="1.48885167">
        <ele>1230.0</ele>
        <time>2019-08-04T09:39:02.324Z</time>
      </trkpt>
      <trkpt lat="42.44440667" lon="1.488865">
        <ele>1230.0</ele>
        <time>2019-08-04T09:39:03.306Z</time>
      </trkpt>
      <trkpt lat="42.44440667" lon="1.488865">
        <ele>1230.0</ele>
        <time>2019-08-04T09:39:04.302Z</time>
      </trkpt>
      <trkpt lat="42.44437" lon="1.48888">
        <ele>1230.0</ele>
        <time>2019-08-04T09:39:05.305Z</time>
      </trkpt>
      <trkpt lat="42.44437" lon="1.48888">
        <ele>1230.0</ele>
        <time>2019-08-04T09:39:06.301Z</time>
      </trkpt>
      <trkpt lat="42.44433333" lon="1.488895">
        <ele>1230.0</ele>
        <time>2019-08-04T09:39:07.324Z</time>
      </trkpt>
      <trkpt lat="42.44433333" lon="1.488895">
        <ele>1230.0</ele>
        <time>2019-08-04T09:39:08.303Z</time>
      </trkpt>
      <trkpt lat="42.444295" lon="1.48890833">
        <ele>1231.0</ele>
        <time>2019-08-04T09:39:09.324Z</time>
      </trkpt>
      <trkpt lat="42.444295" lon="1.48890833">
        <ele>1231.0</ele>
        <time>2019-08-04T09:39:10.304Z</time>
      </trkpt>
      <trkpt lat="42.44425667" lon="1.48891667">
        <ele>1231.0</ele>
        <time>2019-08-04T09:39:11.302Z</time>
      </trkpt>
      <trkpt lat="42.44423667" lon="1.48892167">
        <ele>1231.0</ele>
        <time>2019-08-04T09:39:12.316Z</time>
      </trkpt>
      <trkpt lat="42.44421667" lon="1.48892333">
        <ele>1231.0</ele>
        <time>2019-08-04T09:39:13.306Z</time>
      </trkpt>
      <trkpt lat="42.44421667" lon="1.48892333">
        <ele>1231.0</ele>
        <time>2019-08-04T09:39:14.298Z</time>
      </trkpt>
      <trkpt lat="42.44418" lon="1.48892667">
        <ele>1231.0</ele>
        <time>2019-08-04T09:39:15.317Z</time>
      </trkpt>
      <trkpt lat="42.44418" lon="1.48892667">
        <ele>1231.0</ele>
        <time>2019-08-04T09:39:16.300Z</time>
      </trkpt>
      <trkpt lat="42.444145" lon="1.488925">
        <ele>1231.0</ele>
        <time>2019-08-04T09:39:17.324Z</time>
      </trkpt>
      <trkpt lat="42.444145" lon="1.488925">
        <ele>1231.0</ele>
        <time>2019-08-04T09:39:18.303Z</time>
      </trkpt>
      <trkpt lat="42.444105" lon="1.488935">
        <ele>1232.0</ele>
        <time>2019-08-04T09:39:19.319Z</time>
      </trkpt>
      <trkpt lat="42.444105" lon="1.488935">
        <ele>1232.0</ele>
        <time>2019-08-04T09:39:20.300Z</time>
      </trkpt>
      <trkpt lat="42.444065" lon="1.48894">
        <ele>1232.0</ele>
        <time>2019-08-04T09:39:21.325Z</time>
      </trkpt>
      <trkpt lat="42.444065" lon="1.48894">
        <ele>1232.0</ele>
        <time>2019-08-04T09:39:22.324Z</time>
      </trkpt>
      <trkpt lat="42.444025" lon="1.48894667">
        <ele>1232.0</ele>
        <time>2019-08-04T09:39:23.304Z</time>
      </trkpt>
      <trkpt lat="42.444025" lon="1.48894667">
        <ele>1232.0</ele>
        <time>2019-08-04T09:39:24.300Z</time>
      </trkpt>
      <trkpt lat="42.44398333" lon="1.488955">
        <ele>1233.0</ele>
        <time>2019-08-04T09:39:25.324Z</time>
      </trkpt>
      <trkpt lat="42.44398333" lon="1.488955">
        <ele>1233.0</ele>
        <time>2019-08-04T09:39:26.304Z</time>
      </trkpt>
      <trkpt lat="42.443945" lon="1.488955">
        <ele>1233.0</ele>
        <time>2019-08-04T09:39:27.305Z</time>
      </trkpt>
      <trkpt lat="42.443945" lon="1.488955">
        <ele>1233.0</ele>
        <time>2019-08-04T09:39:28.298Z</time>
      </trkpt>
      <trkpt lat="42.443905" lon="1.488955">
        <ele>1233.0</ele>
        <time>2019-08-04T09:39:29.333Z</time>
      </trkpt>
      <trkpt lat="42.443905" lon="1.488955">
        <ele>1233.0</ele>
        <time>2019-08-04T09:39:30.316Z</time>
      </trkpt>
      <trkpt lat="42.44386667" lon="1.488955">
        <ele>1233.0</ele>
        <time>2019-08-04T09:39:31.303Z</time>
      </trkpt>
      <trkpt lat="42.44386667" lon="1.488955">
        <ele>1233.0</ele>
        <time>2019-08-04T09:39:32.298Z</time>
      </trkpt>
      <trkpt lat="42.44383" lon="1.48896833">
        <ele>1233.0</ele>
        <time>2019-08-04T09:39:33.317Z</time>
      </trkpt>
      <trkpt lat="42.44383" lon="1.48896833">
        <ele>1233.0</ele>
        <time>2019-08-04T09:39:34.310Z</time>
      </trkpt>
      <trkpt lat="42.44379167" lon="1.488985">
        <ele>1233.0</ele>
        <time>2019-08-04T09:39:35.303Z</time>
      </trkpt>
      <trkpt lat="42.44377167" lon="1.48899333">
        <ele>1233.0</ele>
        <time>2019-08-04T09:39:36.300Z</time>
      </trkpt>
      <trkpt lat="42.44374833" lon="1.489">
        <ele>1234.0</ele>
        <time>2019-08-04T09:39:37.324Z</time>
      </trkpt>
      <trkpt lat="42.44374833" lon="1.489">
        <ele>1234.0</ele>
        <time>2019-08-04T09:39:38.304Z</time>
      </trkpt>
      <trkpt lat="42.44371" lon="1.48900833">
        <ele>1234.0</ele>
        <time>2019-08-04T09:39:39.326Z</time>
      </trkpt>
      <trkpt lat="42.44371" lon="1.48900833">
        <ele>1234.0</ele>
        <time>2019-08-04T09:39:40.305Z</time>
      </trkpt>
      <trkpt lat="42.44367167" lon="1.48902167">
        <ele>1234.0</ele>
        <time>2019-08-04T09:39:41.304Z</time>
      </trkpt>
      <trkpt lat="42.44367167" lon="1.48902167">
        <ele>1234.0</ele>
        <time>2019-08-04T09:39:42.299Z</time>
      </trkpt>
      <trkpt lat="42.44363167" lon="1.48903167">
        <ele>1235.0</ele>
        <time>2019-08-04T09:39:43.318Z</time>
      </trkpt>
      <trkpt lat="42.44363167" lon="1.48903167">
        <ele>1235.0</ele>
        <time>2019-08-04T09:39:44.299Z</time>
      </trkpt>
      <trkpt lat="42.443595" lon="1.48904333">
        <ele>1235.0</ele>
        <time>2019-08-04T09:39:45.318Z</time>
      </trkpt>
      <trkpt lat="42.443595" lon="1.48904333">
        <ele>1235.0</ele>
        <time>2019-08-04T09:39:46.300Z</time>
      </trkpt>
      <trkpt lat="42.44355833" lon="1.48905333">
        <ele>1236.0</ele>
        <time>2019-08-04T09:39:47.319Z</time>
      </trkpt>
      <trkpt lat="42.44355833" lon="1.48905333">
        <ele>1236.0</ele>
        <time>2019-08-04T09:39:48.300Z</time>
      </trkpt>
      <trkpt lat="42.44351833" lon="1.48906833">
        <ele>1237.0</ele>
        <time>2019-08-04T09:39:49.332Z</time>
      </trkpt>
      <trkpt lat="42.44351833" lon="1.48906833">
        <ele>1237.0</ele>
        <time>2019-08-04T09:39:50.311Z</time>
      </trkpt>
      <trkpt lat="42.44347667" lon="1.48909333">
        <ele>1238.0</ele>
        <time>2019-08-04T09:39:51.305Z</time>
      </trkpt>
      <trkpt lat="42.44347667" lon="1.48909333">
        <ele>1238.0</ele>
        <time>2019-08-04T09:39:52.334Z</time>
      </trkpt>
      <trkpt lat="42.44344333" lon="1.48912833">
        <ele>1239.0</ele>
        <time>2019-08-04T09:39:53.313Z</time>
      </trkpt>
      <trkpt lat="42.44344333" lon="1.48912833">
        <ele>1239.0</ele>
        <time>2019-08-04T09:39:54.300Z</time>
      </trkpt>
      <trkpt lat="42.44341833" lon="1.48917167">
        <ele>1239.0</ele>
        <time>2019-08-04T09:39:55.319Z</time>
      </trkpt>
      <trkpt lat="42.44341833" lon="1.48917167">
        <ele>1239.0</ele>
        <time>2019-08-04T09:39:56.301Z</time>
      </trkpt>
      <trkpt lat="42.4434" lon="1.48921833">
        <ele>1240.0</ele>
        <time>2019-08-04T09:39:57.325Z</time>
      </trkpt>
      <trkpt lat="42.4434" lon="1.48921833">
        <ele>1240.0</ele>
        <time>2019-08-04T09:39:58.305Z</time>
      </trkpt>
      <trkpt lat="42.44337833" lon="1.489275">
        <ele>1240.0</ele>
        <time>2019-08-04T09:39:59.314Z</time>
      </trkpt>
      <trkpt lat="42.44337833" lon="1.489275">
        <ele>1240.0</ele>
        <time>2019-08-04T09:40:00.301Z</time>
      </trkpt>
      <trkpt lat="42.44335833" lon="1.48933333">
        <ele>1241.0</ele>
        <time>2019-08-04T09:40:01.335Z</time>
      </trkpt>
      <trkpt lat="42.44335833" lon="1.48933333">
        <ele>1241.0</ele>
        <time>2019-08-04T09:40:02.324Z</time>
      </trkpt>
      <trkpt lat="42.44333833" lon="1.48938333">
        <ele>1241.0</ele>
        <time>2019-08-04T09:40:03.307Z</time>
      </trkpt>
      <trkpt lat="42.44333833" lon="1.48938333">
        <ele>1241.0</ele>
        <time>2019-08-04T09:40:04.301Z</time>
      </trkpt>
      <trkpt lat="42.44331833" lon="1.48943">
        <ele>1242.0</ele>
        <time>2019-08-04T09:40:05.304Z</time>
      </trkpt>
      <trkpt lat="42.44331833" lon="1.48943">
        <ele>1242.0</ele>
        <time>2019-08-04T09:40:06.309Z</time>
      </trkpt>
      <trkpt lat="42.4433" lon="1.489485">
        <ele>1242.0</ele>
        <time>2019-08-04T09:40:07.306Z</time>
      </trkpt>
      <trkpt lat="42.4433" lon="1.489485">
        <ele>1242.0</ele>
        <time>2019-08-04T09:40:08.301Z</time>
      </trkpt>
      <trkpt lat="42.44327833" lon="1.489545">
        <ele>1243.0</ele>
        <time>2019-08-04T09:40:09.325Z</time>
      </trkpt>
      <trkpt lat="42.44327833" lon="1.489545">
        <ele>1243.0</ele>
        <time>2019-08-04T09:40:10.305Z</time>
      </trkpt>
      <trkpt lat="42.44325667" lon="1.48960167">
        <ele>1244.0</ele>
        <time>2019-08-04T09:40:11.305Z</time>
      </trkpt>
      <trkpt lat="42.44325667" lon="1.48960167">
        <ele>1244.0</ele>
        <time>2019-08-04T09:40:12.307Z</time>
      </trkpt>
      <trkpt lat="42.44323" lon="1.48965833">
        <ele>1244.0</ele>
        <time>2019-08-04T09:40:13.307Z</time>
      </trkpt>
      <trkpt lat="42.44323" lon="1.48965833">
        <ele>1244.0</ele>
        <time>2019-08-04T09:40:14.301Z</time>
      </trkpt>
      <trkpt lat="42.44320333" lon="1.48971333">
        <ele>1244.0</ele>
        <time>2019-08-04T09:40:15.307Z</time>
      </trkpt>
      <trkpt lat="42.44320333" lon="1.48971333">
        <ele>1244.0</ele>
        <time>2019-08-04T09:40:16.300Z</time>
      </trkpt>
      <trkpt lat="42.44317167" lon="1.48976167">
        <ele>1245.0</ele>
        <time>2019-08-04T09:40:17.304Z</time>
      </trkpt>
      <trkpt lat="42.44317167" lon="1.48976167">
        <ele>1245.0</ele>
        <time>2019-08-04T09:40:18.301Z</time>
      </trkpt>
      <trkpt lat="42.443135" lon="1.48979333">
        <ele>1245.0</ele>
        <time>2019-08-04T09:40:19.324Z</time>
      </trkpt>
      <trkpt lat="42.443135" lon="1.48979333">
        <ele>1245.0</ele>
        <time>2019-08-04T09:40:20.305Z</time>
      </trkpt>
      <trkpt lat="42.44309167" lon="1.48981">
        <ele>1245.0</ele>
        <time>2019-08-04T09:40:21.305Z</time>
      </trkpt>
      <trkpt lat="42.44309167" lon="1.48981">
        <ele>1245.0</ele>
        <time>2019-08-04T09:40:22.306Z</time>
      </trkpt>
      <trkpt lat="42.44305" lon="1.48982">
        <ele>1246.0</ele>
        <time>2019-08-04T09:40:23.304Z</time>
      </trkpt>
      <trkpt lat="42.44305" lon="1.48982">
        <ele>1246.0</ele>
        <time>2019-08-04T09:40:24.300Z</time>
      </trkpt>
      <trkpt lat="42.44300833" lon="1.489815">
        <ele>1247.0</ele>
        <time>2019-08-04T09:40:25.326Z</time>
      </trkpt>
      <trkpt lat="42.44300833" lon="1.489815">
        <ele>1247.0</ele>
        <time>2019-08-04T09:40:26.305Z</time>
      </trkpt>
      <trkpt lat="42.44297167" lon="1.48980833">
        <ele>1247.0</ele>
        <time>2019-08-04T09:40:27.303Z</time>
      </trkpt>
      <trkpt lat="42.44295" lon="1.48980833">
        <ele>1248.0</ele>
        <time>2019-08-04T09:40:28.301Z</time>
      </trkpt>
      <trkpt lat="42.44295" lon="1.48980833">
        <ele>1248.0</ele>
        <time>2019-08-04T09:40:29.316Z</time>
      </trkpt>
      <trkpt lat="42.44290667" lon="1.48981167">
        <ele>1248.0</ele>
        <time>2019-08-04T09:40:30.303Z</time>
      </trkpt>
      <trkpt lat="42.442885" lon="1.48981167">
        <ele>1249.0</ele>
        <time>2019-08-04T09:40:31.307Z</time>
      </trkpt>
      <trkpt lat="42.442885" lon="1.48981167">
        <ele>1249.0</ele>
        <time>2019-08-04T09:40:32.303Z</time>
      </trkpt>
      <trkpt lat="42.44284167" lon="1.489815">
        <ele>1249.0</ele>
        <time>2019-08-04T09:40:33.306Z</time>
      </trkpt>
      <trkpt lat="42.44284167" lon="1.489815">
        <ele>1249.0</ele>
        <time>2019-08-04T09:40:34.300Z</time>
      </trkpt>
      <trkpt lat="42.44279333" lon="1.489815">
        <ele>1250.0</ele>
        <time>2019-08-04T09:40:35.324Z</time>
      </trkpt>
      <trkpt lat="42.44279333" lon="1.489815">
        <ele>1250.0</ele>
        <time>2019-08-04T09:40:36.305Z</time>
      </trkpt>
      <trkpt lat="42.44274333" lon="1.48982333">
        <ele>1250.0</ele>
        <time>2019-08-04T09:40:37.308Z</time>
      </trkpt>
      <trkpt lat="42.44274333" lon="1.48982333">
        <ele>1250.0</ele>
        <time>2019-08-04T09:40:38.300Z</time>
      </trkpt>
      <trkpt lat="42.44269667" lon="1.48982333">
        <ele>1251.0</ele>
        <time>2019-08-04T09:40:39.326Z</time>
      </trkpt>
      <trkpt lat="42.44269667" lon="1.48982333">
        <ele>1251.0</ele>
        <time>2019-08-04T09:40:40.307Z</time>
      </trkpt>
      <trkpt lat="42.44265167" lon="1.48982833">
        <ele>1252.0</ele>
        <time>2019-08-04T09:40:41.304Z</time>
      </trkpt>
      <trkpt lat="42.44262833" lon="1.48983">
        <ele>1252.0</ele>
        <time>2019-08-04T09:40:42.314Z</time>
      </trkpt>
      <trkpt lat="42.44262833" lon="1.48983">
        <ele>1252.0</ele>
        <time>2019-08-04T09:40:43.323Z</time>
      </trkpt>
      <trkpt lat="42.44258167" lon="1.48983167">
        <ele>1253.0</ele>
        <time>2019-08-04T09:40:44.306Z</time>
      </trkpt>
      <trkpt lat="42.44258167" lon="1.48983167">
        <ele>1253.0</ele>
        <time>2019-08-04T09:40:45.300Z</time>
      </trkpt>
      <trkpt lat="42.44253667" lon="1.489825">
        <ele>1253.0</ele>
        <time>2019-08-04T09:40:46.324Z</time>
      </trkpt>
      <trkpt lat="42.44253667" lon="1.489825">
        <ele>1253.0</ele>
        <time>2019-08-04T09:40:47.306Z</time>
      </trkpt>
      <trkpt lat="42.44249" lon="1.48981833">
        <ele>1253.0</ele>
        <time>2019-08-04T09:40:48.308Z</time>
      </trkpt>
      <trkpt lat="42.44246667" lon="1.48981333">
        <ele>1254.0</ele>
        <time>2019-08-04T09:40:49.332Z</time>
      </trkpt>
      <trkpt lat="42.44246667" lon="1.48981333">
        <ele>1254.0</ele>
        <time>2019-08-04T09:40:50.311Z</time>
      </trkpt>
      <trkpt lat="42.44241833" lon="1.489805">
        <ele>1254.0</ele>
        <time>2019-08-04T09:40:51.312Z</time>
      </trkpt>
      <trkpt lat="42.44241833" lon="1.489805">
        <ele>1254.0</ele>
        <time>2019-08-04T09:40:52.301Z</time>
      </trkpt>
      <trkpt lat="42.44237167" lon="1.489795">
        <ele>1255.0</ele>
        <time>2019-08-04T09:40:53.305Z</time>
      </trkpt>
      <trkpt lat="42.44237167" lon="1.489795">
        <ele>1255.0</ele>
        <time>2019-08-04T09:40:54.301Z</time>
      </trkpt>
      <trkpt lat="42.44232167" lon="1.48978833">
        <ele>1255.0</ele>
        <time>2019-08-04T09:40:55.325Z</time>
      </trkpt>
      <trkpt lat="42.44232167" lon="1.48978833">
        <ele>1255.0</ele>
        <time>2019-08-04T09:40:56.306Z</time>
      </trkpt>
      <trkpt lat="42.442275" lon="1.48978333">
        <ele>1255.0</ele>
        <time>2019-08-04T09:40:57.317Z</time>
      </trkpt>
      <trkpt lat="42.442275" lon="1.48978333">
        <ele>1255.0</ele>
        <time>2019-08-04T09:40:58.298Z</time>
      </trkpt>
      <trkpt lat="42.44222833" lon="1.48978">
        <ele>1255.0</ele>
        <time>2019-08-04T09:40:59.325Z</time>
      </trkpt>
      <trkpt lat="42.44222833" lon="1.48978">
        <ele>1255.0</ele>
        <time>2019-08-04T09:41:00.305Z</time>
      </trkpt>
      <trkpt lat="42.44218167" lon="1.48978167">
        <ele>1256.0</ele>
        <time>2019-08-04T09:41:01.308Z</time>
      </trkpt>
      <trkpt lat="42.44218167" lon="1.48978167">
        <ele>1256.0</ele>
        <time>2019-08-04T09:41:02.302Z</time>
      </trkpt>
      <trkpt lat="42.44213333" lon="1.48978167">
        <ele>1256.0</ele>
        <time>2019-08-04T09:41:03.326Z</time>
      </trkpt>
      <trkpt lat="42.44213333" lon="1.48978167">
        <ele>1256.0</ele>
        <time>2019-08-04T09:41:04.306Z</time>
      </trkpt>
      <trkpt lat="42.44207833" lon="1.489785">
        <ele>1256.0</ele>
        <time>2019-08-04T09:41:05.305Z</time>
      </trkpt>
      <trkpt lat="42.44207833" lon="1.489785">
        <ele>1256.0</ele>
        <time>2019-08-04T09:41:06.298Z</time>
      </trkpt>
      <trkpt lat="42.44202667" lon="1.48978667">
        <ele>1257.0</ele>
        <time>2019-08-04T09:41:07.318Z</time>
      </trkpt>
      <trkpt lat="42.44202667" lon="1.48978667">
        <ele>1257.0</ele>
        <time>2019-08-04T09:41:08.301Z</time>
      </trkpt>
      <trkpt lat="42.441975" lon="1.48978833">
        <ele>1257.0</ele>
        <time>2019-08-04T09:41:09.326Z</time>
      </trkpt>
      <trkpt lat="42.441975" lon="1.48978833">
        <ele>1257.0</ele>
        <time>2019-08-04T09:41:10.306Z</time>
      </trkpt>
      <trkpt lat="42.44192167" lon="1.48979">
        <ele>1258.0</ele>
        <time>2019-08-04T09:41:11.305Z</time>
      </trkpt>
      <trkpt lat="42.44192167" lon="1.48979">
        <ele>1258.0</ele>
        <time>2019-08-04T09:41:12.301Z</time>
      </trkpt>
      <trkpt lat="42.44187167" lon="1.48977833">
        <ele>1258.0</ele>
        <time>2019-08-04T09:41:13.326Z</time>
      </trkpt>
      <trkpt lat="42.44187167" lon="1.48977833">
        <ele>1258.0</ele>
        <time>2019-08-04T09:41:14.306Z</time>
      </trkpt>
      <trkpt lat="42.44182167" lon="1.48976">
        <ele>1259.0</ele>
        <time>2019-08-04T09:41:15.305Z</time>
      </trkpt>
      <trkpt lat="42.44182167" lon="1.48976">
        <ele>1259.0</ele>
        <time>2019-08-04T09:41:16.300Z</time>
      </trkpt>
      <trkpt lat="42.441775" lon="1.48972">
        <ele>1259.0</ele>
        <time>2019-08-04T09:41:17.326Z</time>
      </trkpt>
      <trkpt lat="42.441775" lon="1.48972">
        <ele>1259.0</ele>
        <time>2019-08-04T09:41:18.306Z</time>
      </trkpt>
      <trkpt lat="42.44173167" lon="1.48967">
        <ele>1260.0</ele>
        <time>2019-08-04T09:41:19.325Z</time>
      </trkpt>
      <trkpt lat="42.44173167" lon="1.48967">
        <ele>1260.0</ele>
        <time>2019-08-04T09:41:20.304Z</time>
      </trkpt>
      <trkpt lat="42.441695" lon="1.48962167">
        <ele>1260.0</ele>
        <time>2019-08-04T09:41:21.305Z</time>
      </trkpt>
      <trkpt lat="42.441695" lon="1.48962167">
        <ele>1260.0</ele>
        <time>2019-08-04T09:41:22.326Z</time>
      </trkpt>
      <trkpt lat="42.44165667" lon="1.48956833">
        <ele>1260.0</ele>
        <time>2019-08-04T09:41:23.312Z</time>
      </trkpt>
      <trkpt lat="42.44163667" lon="1.48954333">
        <ele>1260.0</ele>
        <time>2019-08-04T09:41:24.305Z</time>
      </trkpt>
      <trkpt lat="42.441615" lon="1.48952">
        <ele>1260.0</ele>
        <time>2019-08-04T09:41:25.306Z</time>
      </trkpt>
      <trkpt lat="42.441615" lon="1.48952">
        <ele>1260.0</ele>
        <time>2019-08-04T09:41:26.301Z</time>
      </trkpt>
      <trkpt lat="42.44156667" lon="1.489485">
        <ele>1260.0</ele>
        <time>2019-08-04T09:41:27.320Z</time>
      </trkpt>
      <trkpt lat="42.44156667" lon="1.489485">
        <ele>1260.0</ele>
        <time>2019-08-04T09:41:28.303Z</time>
      </trkpt>
      <trkpt lat="42.44151333" lon="1.48946667">
        <ele>1260.0</ele>
        <time>2019-08-04T09:41:29.320Z</time>
      </trkpt>
      <trkpt lat="42.44151333" lon="1.48946667">
        <ele>1260.0</ele>
        <time>2019-08-04T09:41:30.314Z</time>
      </trkpt>
      <trkpt lat="42.44145833" lon="1.48946833">
        <ele>1261.0</ele>
        <time>2019-08-04T09:41:31.308Z</time>
      </trkpt>
      <trkpt lat="42.44145833" lon="1.48946833">
        <ele>1261.0</ele>
        <time>2019-08-04T09:41:32.301Z</time>
      </trkpt>
      <trkpt lat="42.44140167" lon="1.48947333">
        <ele>1261.0</ele>
        <time>2019-08-04T09:41:33.326Z</time>
      </trkpt>
      <trkpt lat="42.44140167" lon="1.48947333">
        <ele>1261.0</ele>
        <time>2019-08-04T09:41:34.306Z</time>
      </trkpt>
      <trkpt lat="42.44135167" lon="1.48947167">
        <ele>1262.0</ele>
        <time>2019-08-04T09:41:35.305Z</time>
      </trkpt>
      <trkpt lat="42.44135167" lon="1.48947167">
        <ele>1262.0</ele>
        <time>2019-08-04T09:41:36.300Z</time>
      </trkpt>
      <trkpt lat="42.441305" lon="1.48947667">
        <ele>1263.0</ele>
        <time>2019-08-04T09:41:37.325Z</time>
      </trkpt>
      <trkpt lat="42.441305" lon="1.48947667">
        <ele>1263.0</ele>
        <time>2019-08-04T09:41:38.305Z</time>
      </trkpt>
      <trkpt lat="42.44125833" lon="1.48949">
        <ele>1263.0</ele>
        <time>2019-08-04T09:41:39.328Z</time>
      </trkpt>
      <trkpt lat="42.44125833" lon="1.48949">
        <ele>1263.0</ele>
        <time>2019-08-04T09:41:40.308Z</time>
      </trkpt>
      <trkpt lat="42.44121333" lon="1.489505">
        <ele>1264.0</ele>
        <time>2019-08-04T09:41:41.307Z</time>
      </trkpt>
      <trkpt lat="42.44119" lon="1.48951167">
        <ele>1264.0</ele>
        <time>2019-08-04T09:41:42.306Z</time>
      </trkpt>
      <trkpt lat="42.44119" lon="1.48951167">
        <ele>1264.0</ele>
        <time>2019-08-04T09:41:43.297Z</time>
      </trkpt>
      <trkpt lat="42.44114333" lon="1.489535">
        <ele>1265.0</ele>
        <time>2019-08-04T09:41:44.316Z</time>
      </trkpt>
      <trkpt lat="42.44112" lon="1.48954833">
        <ele>1265.0</ele>
        <time>2019-08-04T09:41:45.306Z</time>
      </trkpt>
      <trkpt lat="42.44112" lon="1.48954833">
        <ele>1265.0</ele>
        <time>2019-08-04T09:41:46.301Z</time>
      </trkpt>
      <trkpt lat="42.44107667" lon="1.48957167">
        <ele>1266.0</ele>
        <time>2019-08-04T09:41:47.325Z</time>
      </trkpt>
      <trkpt lat="42.441055" lon="1.48958333">
        <ele>1266.0</ele>
        <time>2019-08-04T09:41:48.306Z</time>
      </trkpt>
      <trkpt lat="42.44103333" lon="1.48959833">
        <ele>1266.0</ele>
        <time>2019-08-04T09:41:49.325Z</time>
      </trkpt>
      <trkpt lat="42.44103333" lon="1.48959833">
        <ele>1266.0</ele>
        <time>2019-08-04T09:41:50.306Z</time>
      </trkpt>
      <trkpt lat="42.44099167" lon="1.489635">
        <ele>1267.0</ele>
        <time>2019-08-04T09:41:51.326Z</time>
      </trkpt>
      <trkpt lat="42.44099167" lon="1.489635">
        <ele>1267.0</ele>
        <time>2019-08-04T09:41:52.308Z</time>
      </trkpt>
      <trkpt lat="42.44094833" lon="1.48967167">
        <ele>1268.0</ele>
        <time>2019-08-04T09:41:53.313Z</time>
      </trkpt>
      <trkpt lat="42.44092833" lon="1.48969167">
        <ele>1268.0</ele>
        <time>2019-08-04T09:41:54.302Z</time>
      </trkpt>
      <trkpt lat="42.44090833" lon="1.48971167">
        <ele>1269.0</ele>
        <time>2019-08-04T09:41:55.325Z</time>
      </trkpt>
      <trkpt lat="42.44090833" lon="1.48971167">
        <ele>1269.0</ele>
        <time>2019-08-04T09:41:56.306Z</time>
      </trkpt>
      <trkpt lat="42.44086833" lon="1.48974667">
        <ele>1270.0</ele>
        <time>2019-08-04T09:41:57.307Z</time>
      </trkpt>
      <trkpt lat="42.44086833" lon="1.48974667">
        <ele>1270.0</ele>
        <time>2019-08-04T09:41:58.301Z</time>
      </trkpt>
      <trkpt lat="42.44082667" lon="1.48978333">
        <ele>1270.0</ele>
        <time>2019-08-04T09:41:59.326Z</time>
      </trkpt>
      <trkpt lat="42.44082667" lon="1.48978333">
        <ele>1270.0</ele>
        <time>2019-08-04T09:42:00.307Z</time>
      </trkpt>
      <trkpt lat="42.440785" lon="1.48982167">
        <ele>1271.0</ele>
        <time>2019-08-04T09:42:01.308Z</time>
      </trkpt>
      <trkpt lat="42.440785" lon="1.48982167">
        <ele>1271.0</ele>
        <time>2019-08-04T09:42:02.299Z</time>
      </trkpt>
      <trkpt lat="42.44074167" lon="1.48986167">
        <ele>1271.0</ele>
        <time>2019-08-04T09:42:03.319Z</time>
      </trkpt>
      <trkpt lat="42.44074167" lon="1.48986167">
        <ele>1271.0</ele>
        <time>2019-08-04T09:42:04.299Z</time>
      </trkpt>
      <trkpt lat="42.4407" lon="1.48990167">
        <ele>1271.0</ele>
        <time>2019-08-04T09:42:05.318Z</time>
      </trkpt>
      <trkpt lat="42.4407" lon="1.48990167">
        <ele>1271.0</ele>
        <time>2019-08-04T09:42:06.299Z</time>
      </trkpt>
      <trkpt lat="42.44065667" lon="1.48994">
        <ele>1272.0</ele>
        <time>2019-08-04T09:42:07.320Z</time>
      </trkpt>
      <trkpt lat="42.44065667" lon="1.48994">
        <ele>1272.0</ele>
        <time>2019-08-04T09:42:08.300Z</time>
      </trkpt>
      <trkpt lat="42.44061667" lon="1.48998333">
        <ele>1272.0</ele>
        <time>2019-08-04T09:42:09.326Z</time>
      </trkpt>
      <trkpt lat="42.44061667" lon="1.48998333">
        <ele>1272.0</ele>
        <time>2019-08-04T09:42:10.305Z</time>
      </trkpt>
      <trkpt lat="42.44057833" lon="1.490025">
        <ele>1273.0</ele>
        <time>2019-08-04T09:42:11.305Z</time>
      </trkpt>
      <trkpt lat="42.44057833" lon="1.490025">
        <ele>1273.0</ele>
        <time>2019-08-04T09:42:12.326Z</time>
      </trkpt>
      <trkpt lat="42.44053667" lon="1.49006667">
        <ele>1274.0</ele>
        <time>2019-08-04T09:42:13.312Z</time>
      </trkpt>
      <trkpt lat="42.44053667" lon="1.49006667">
        <ele>1274.0</ele>
        <time>2019-08-04T09:42:14.312Z</time>
      </trkpt>
      <trkpt lat="42.440495" lon="1.4901">
        <ele>1275.0</ele>
        <time>2019-08-04T09:42:15.306Z</time>
      </trkpt>
      <trkpt lat="42.440495" lon="1.4901">
        <ele>1275.0</ele>
        <time>2019-08-04T09:42:16.299Z</time>
      </trkpt>
      <trkpt lat="42.44045167" lon="1.49013167">
        <ele>1275.0</ele>
        <time>2019-08-04T09:42:17.319Z</time>
      </trkpt>
      <trkpt lat="42.44045167" lon="1.49013167">
        <ele>1275.0</ele>
        <time>2019-08-04T09:42:18.301Z</time>
      </trkpt>
      <trkpt lat="42.44041" lon="1.49016333">
        <ele>1276.0</ele>
        <time>2019-08-04T09:42:19.326Z</time>
      </trkpt>
      <trkpt lat="42.44041" lon="1.49016333">
        <ele>1276.0</ele>
        <time>2019-08-04T09:42:20.306Z</time>
      </trkpt>
      <trkpt lat="42.44037167" lon="1.49019167">
        <ele>1277.0</ele>
        <time>2019-08-04T09:42:21.307Z</time>
      </trkpt>
      <trkpt lat="42.44037167" lon="1.49019167">
        <ele>1277.0</ele>
        <time>2019-08-04T09:42:22.301Z</time>
      </trkpt>
      <trkpt lat="42.44033167" lon="1.49021833">
        <ele>1278.0</ele>
        <time>2019-08-04T09:42:23.309Z</time>
      </trkpt>
      <trkpt lat="42.44033167" lon="1.49021833">
        <ele>1278.0</ele>
        <time>2019-08-04T09:42:24.300Z</time>
      </trkpt>
      <trkpt lat="42.44029" lon="1.49024167">
        <ele>1278.0</ele>
        <time>2019-08-04T09:42:25.320Z</time>
      </trkpt>
      <trkpt lat="42.44029" lon="1.49024167">
        <ele>1278.0</ele>
        <time>2019-08-04T09:42:26.300Z</time>
      </trkpt>
      <trkpt lat="42.44024333" lon="1.49026333">
        <ele>1279.0</ele>
        <time>2019-08-04T09:42:27.319Z</time>
      </trkpt>
      <trkpt lat="42.44024333" lon="1.49026333">
        <ele>1279.0</ele>
        <time>2019-08-04T09:42:28.300Z</time>
      </trkpt>
      <trkpt lat="42.44019667" lon="1.49028167">
        <ele>1280.0</ele>
        <time>2019-08-04T09:42:29.319Z</time>
      </trkpt>
      <trkpt lat="42.44019667" lon="1.49028167">
        <ele>1280.0</ele>
        <time>2019-08-04T09:42:30.304Z</time>
      </trkpt>
      <trkpt lat="42.44015167" lon="1.49030167">
        <ele>1280.0</ele>
        <time>2019-08-04T09:42:31.307Z</time>
      </trkpt>
      <trkpt lat="42.44015167" lon="1.49030167">
        <ele>1280.0</ele>
        <time>2019-08-04T09:42:32.300Z</time>
      </trkpt>
      <trkpt lat="42.44010833" lon="1.49032333">
        <ele>1281.0</ele>
        <time>2019-08-04T09:42:33.323Z</time>
      </trkpt>
      <trkpt lat="42.44010833" lon="1.49032333">
        <ele>1281.0</ele>
        <time>2019-08-04T09:42:34.301Z</time>
      </trkpt>
      <trkpt lat="42.44006833" lon="1.49034667">
        <ele>1281.0</ele>
        <time>2019-08-04T09:42:35.325Z</time>
      </trkpt>
      <trkpt lat="42.44006833" lon="1.49034667">
        <ele>1281.0</ele>
        <time>2019-08-04T09:42:36.305Z</time>
      </trkpt>
      <trkpt lat="42.44002667" lon="1.490365">
        <ele>1282.0</ele>
        <time>2019-08-04T09:42:37.327Z</time>
      </trkpt>
      <trkpt lat="42.440005" lon="1.490375">
        <ele>1282.0</ele>
        <time>2019-08-04T09:42:38.307Z</time>
      </trkpt>
      <trkpt lat="42.43998333" lon="1.49038333">
        <ele>1282.0</ele>
        <time>2019-08-04T09:42:39.318Z</time>
      </trkpt>
      <trkpt lat="42.43998333" lon="1.49038333">
        <ele>1282.0</ele>
        <time>2019-08-04T09:42:40.300Z</time>
      </trkpt>
      <trkpt lat="42.43994167" lon="1.49040167">
        <ele>1283.0</ele>
        <time>2019-08-04T09:42:41.319Z</time>
      </trkpt>
      <trkpt lat="42.43994167" lon="1.49040167">
        <ele>1283.0</ele>
        <time>2019-08-04T09:42:42.309Z</time>
      </trkpt>
      <trkpt lat="42.43989833" lon="1.49042">
        <ele>1283.0</ele>
        <time>2019-08-04T09:42:43.311Z</time>
      </trkpt>
      <trkpt lat="42.43987667" lon="1.49043">
        <ele>1283.0</ele>
        <time>2019-08-04T09:42:44.307Z</time>
      </trkpt>
      <trkpt lat="42.43985667" lon="1.49044">
        <ele>1283.0</ele>
        <time>2019-08-04T09:42:45.306Z</time>
      </trkpt>
      <trkpt lat="42.43985667" lon="1.49044">
        <ele>1283.0</ele>
        <time>2019-08-04T09:42:46.299Z</time>
      </trkpt>
      <trkpt lat="42.43981333" lon="1.490455">
        <ele>1283.0</ele>
        <time>2019-08-04T09:42:47.318Z</time>
      </trkpt>
      <trkpt lat="42.43981333" lon="1.490455">
        <ele>1283.0</ele>
        <time>2019-08-04T09:42:48.300Z</time>
      </trkpt>
      <trkpt lat="42.43977" lon="1.49047167">
        <ele>1283.0</ele>
        <time>2019-08-04T09:42:49.306Z</time>
      </trkpt>
      <trkpt lat="42.43977" lon="1.49047167">
        <ele>1283.0</ele>
        <time>2019-08-04T09:42:50.302Z</time>
      </trkpt>
      <trkpt lat="42.43972833" lon="1.490495">
        <ele>1284.0</ele>
        <time>2019-08-04T09:42:51.327Z</time>
      </trkpt>
      <trkpt lat="42.43972833" lon="1.490495">
        <ele>1284.0</ele>
        <time>2019-08-04T09:42:52.309Z</time>
      </trkpt>
      <trkpt lat="42.43968833" lon="1.49052">
        <ele>1284.0</ele>
        <time>2019-08-04T09:42:53.306Z</time>
      </trkpt>
      <trkpt lat="42.43968833" lon="1.49052">
        <ele>1284.0</ele>
        <time>2019-08-04T09:42:54.300Z</time>
      </trkpt>
      <trkpt lat="42.43964833" lon="1.49054167">
        <ele>1284.0</ele>
        <time>2019-08-04T09:42:55.326Z</time>
      </trkpt>
      <trkpt lat="42.43964833" lon="1.49054167">
        <ele>1284.0</ele>
        <time>2019-08-04T09:42:56.307Z</time>
      </trkpt>
      <trkpt lat="42.43960833" lon="1.49056">
        <ele>1285.0</ele>
        <time>2019-08-04T09:42:57.306Z</time>
      </trkpt>
      <trkpt lat="42.43960833" lon="1.49056">
        <ele>1285.0</ele>
        <time>2019-08-04T09:42:58.300Z</time>
      </trkpt>
      <trkpt lat="42.43957333" lon="1.49058">
        <ele>1285.0</ele>
        <time>2019-08-04T09:42:59.319Z</time>
      </trkpt>
      <trkpt lat="42.43957333" lon="1.49058">
        <ele>1285.0</ele>
        <time>2019-08-04T09:43:00.326Z</time>
      </trkpt>
      <trkpt lat="42.43954" lon="1.490615">
        <ele>1285.0</ele>
        <time>2019-08-04T09:43:01.309Z</time>
      </trkpt>
      <trkpt lat="42.43954" lon="1.490615">
        <ele>1285.0</ele>
        <time>2019-08-04T09:43:02.296Z</time>
      </trkpt>
      <trkpt lat="42.43950667" lon="1.490655">
        <ele>1286.0</ele>
        <time>2019-08-04T09:43:03.316Z</time>
      </trkpt>
      <trkpt lat="42.43950667" lon="1.490655">
        <ele>1286.0</ele>
        <time>2019-08-04T09:43:04.302Z</time>
      </trkpt>
      <trkpt lat="42.439465" lon="1.49069">
        <ele>1287.0</ele>
        <time>2019-08-04T09:43:05.307Z</time>
      </trkpt>
      <trkpt lat="42.439465" lon="1.49069">
        <ele>1287.0</ele>
        <time>2019-08-04T09:43:06.300Z</time>
      </trkpt>
      <trkpt lat="42.439425" lon="1.49072333">
        <ele>1287.0</ele>
        <time>2019-08-04T09:43:07.320Z</time>
      </trkpt>
      <trkpt lat="42.439425" lon="1.49072333">
        <ele>1287.0</ele>
        <time>2019-08-04T09:43:08.300Z</time>
      </trkpt>
      <trkpt lat="42.43938" lon="1.49074167">
        <ele>1288.0</ele>
        <time>2019-08-04T09:43:09.326Z</time>
      </trkpt>
      <trkpt lat="42.43938" lon="1.49074167">
        <ele>1288.0</ele>
        <time>2019-08-04T09:43:10.306Z</time>
      </trkpt>
      <trkpt lat="42.43934333" lon="1.49075167">
        <ele>1289.0</ele>
        <time>2019-08-04T09:43:11.307Z</time>
      </trkpt>
      <trkpt lat="42.43934333" lon="1.49075167">
        <ele>1289.0</ele>
        <time>2019-08-04T09:43:12.303Z</time>
      </trkpt>
      <trkpt lat="42.43929833" lon="1.49075833">
        <ele>1289.0</ele>
        <time>2019-08-04T09:43:13.326Z</time>
      </trkpt>
      <trkpt lat="42.43929833" lon="1.49075833">
        <ele>1289.0</ele>
        <time>2019-08-04T09:43:14.309Z</time>
      </trkpt>
      <trkpt lat="42.43925667" lon="1.49075">
        <ele>1290.0</ele>
        <time>2019-08-04T09:43:15.307Z</time>
      </trkpt>
      <trkpt lat="42.43925667" lon="1.49075">
        <ele>1290.0</ele>
        <time>2019-08-04T09:43:16.299Z</time>
      </trkpt>
      <trkpt lat="42.43921167" lon="1.49073333">
        <ele>1291.0</ele>
        <time>2019-08-04T09:43:17.326Z</time>
      </trkpt>
      <trkpt lat="42.43921167" lon="1.49073333">
        <ele>1291.0</ele>
        <time>2019-08-04T09:43:18.306Z</time>
      </trkpt>
      <trkpt lat="42.43917167" lon="1.49071333">
        <ele>1291.0</ele>
        <time>2019-08-04T09:43:19.326Z</time>
      </trkpt>
      <trkpt lat="42.43917167" lon="1.49071333">
        <ele>1291.0</ele>
        <time>2019-08-04T09:43:20.306Z</time>
      </trkpt>
      <trkpt lat="42.43913333" lon="1.490685">
        <ele>1292.0</ele>
        <time>2019-08-04T09:43:21.306Z</time>
      </trkpt>
      <trkpt lat="42.43913333" lon="1.490685">
        <ele>1292.0</ele>
        <time>2019-08-04T09:43:22.299Z</time>
      </trkpt>
      <trkpt lat="42.43909167" lon="1.49066167">
        <ele>1293.0</ele>
        <time>2019-08-04T09:43:23.307Z</time>
      </trkpt>
      <trkpt lat="42.43909167" lon="1.49066167">
        <ele>1293.0</ele>
        <time>2019-08-04T09:43:24.302Z</time>
      </trkpt>
      <trkpt lat="42.43905167" lon="1.49064167">
        <ele>1293.0</ele>
        <time>2019-08-04T09:43:25.325Z</time>
      </trkpt>
      <trkpt lat="42.43905167" lon="1.49064167">
        <ele>1293.0</ele>
        <time>2019-08-04T09:43:26.306Z</time>
      </trkpt>
      <trkpt lat="42.439005" lon="1.49062333">
        <ele>1294.0</ele>
        <time>2019-08-04T09:43:27.307Z</time>
      </trkpt>
      <trkpt lat="42.439005" lon="1.49062333">
        <ele>1294.0</ele>
        <time>2019-08-04T09:43:28.300Z</time>
      </trkpt>
      <trkpt lat="42.43896167" lon="1.4906">
        <ele>1295.0</ele>
        <time>2019-08-04T09:43:29.325Z</time>
      </trkpt>
      <trkpt lat="42.43896167" lon="1.4906">
        <ele>1295.0</ele>
        <time>2019-08-04T09:43:30.308Z</time>
      </trkpt>
      <trkpt lat="42.43891667" lon="1.49057">
        <ele>1296.0</ele>
        <time>2019-08-04T09:43:31.308Z</time>
      </trkpt>
      <trkpt lat="42.43891667" lon="1.49057">
        <ele>1296.0</ele>
        <time>2019-08-04T09:43:32.299Z</time>
      </trkpt>
      <trkpt lat="42.43887167" lon="1.49054333">
        <ele>1297.0</ele>
        <time>2019-08-04T09:43:33.318Z</time>
      </trkpt>
      <trkpt lat="42.43887167" lon="1.49054333">
        <ele>1297.0</ele>
        <time>2019-08-04T09:43:34.301Z</time>
      </trkpt>
      <trkpt lat="42.43882167" lon="1.490515">
        <ele>1298.0</ele>
        <time>2019-08-04T09:43:35.325Z</time>
      </trkpt>
      <trkpt lat="42.43882167" lon="1.490515">
        <ele>1298.0</ele>
        <time>2019-08-04T09:43:36.305Z</time>
      </trkpt>
      <trkpt lat="42.43877667" lon="1.49049167">
        <ele>1298.0</ele>
        <time>2019-08-04T09:43:37.320Z</time>
      </trkpt>
      <trkpt lat="42.43877667" lon="1.49049167">
        <ele>1298.0</ele>
        <time>2019-08-04T09:43:38.301Z</time>
      </trkpt>
      <trkpt lat="42.43873333" lon="1.49047333">
        <ele>1299.0</ele>
        <time>2019-08-04T09:43:39.332Z</time>
      </trkpt>
      <trkpt lat="42.43873333" lon="1.49047333">
        <ele>1299.0</ele>
        <time>2019-08-04T09:43:40.311Z</time>
      </trkpt>
      <trkpt lat="42.438685" lon="1.49044833">
        <ele>1299.0</ele>
        <time>2019-08-04T09:43:41.307Z</time>
      </trkpt>
      <trkpt lat="42.43866333" lon="1.49043333">
        <ele>1300.0</ele>
        <time>2019-08-04T09:43:42.328Z</time>
      </trkpt>
      <trkpt lat="42.43866333" lon="1.49043333">
        <ele>1300.0</ele>
        <time>2019-08-04T09:43:43.308Z</time>
      </trkpt>
      <trkpt lat="42.438615" lon="1.490405">
        <ele>1300.0</ele>
        <time>2019-08-04T09:43:44.311Z</time>
      </trkpt>
      <trkpt lat="42.43859167" lon="1.49038833">
        <ele>1301.0</ele>
        <time>2019-08-04T09:43:45.307Z</time>
      </trkpt>
      <trkpt lat="42.43859167" lon="1.49038833">
        <ele>1301.0</ele>
        <time>2019-08-04T09:43:46.300Z</time>
      </trkpt>
      <trkpt lat="42.43854" lon="1.49035333">
        <ele>1301.0</ele>
        <time>2019-08-04T09:43:47.300Z</time>
      </trkpt>
      <trkpt lat="42.43854" lon="1.49035333">
        <ele>1301.0</ele>
        <time>2019-08-04T09:43:48.320Z</time>
      </trkpt>
      <trkpt lat="42.43849333" lon="1.49032333">
        <ele>1302.0</ele>
        <time>2019-08-04T09:43:49.335Z</time>
      </trkpt>
      <trkpt lat="42.43849333" lon="1.49032333">
        <ele>1302.0</ele>
        <time>2019-08-04T09:43:50.314Z</time>
      </trkpt>
      <trkpt lat="42.43844833" lon="1.49028667">
        <ele>1302.0</ele>
        <time>2019-08-04T09:43:51.305Z</time>
      </trkpt>
      <trkpt lat="42.43844833" lon="1.49028667">
        <ele>1302.0</ele>
        <time>2019-08-04T09:43:52.300Z</time>
      </trkpt>
      <trkpt lat="42.43839833" lon="1.49024667">
        <ele>1303.0</ele>
        <time>2019-08-04T09:43:53.326Z</time>
      </trkpt>
      <trkpt lat="42.43839833" lon="1.49024667">
        <ele>1303.0</ele>
        <time>2019-08-04T09:43:54.326Z</time>
      </trkpt>
      <trkpt lat="42.43833833" lon="1.49020333">
        <ele>1303.0</ele>
        <time>2019-08-04T09:43:55.309Z</time>
      </trkpt>
      <trkpt lat="42.43833833" lon="1.49020333">
        <ele>1303.0</ele>
        <time>2019-08-04T09:43:56.301Z</time>
      </trkpt>
      <trkpt lat="42.43828333" lon="1.490165">
        <ele>1304.0</ele>
        <time>2019-08-04T09:43:57.321Z</time>
      </trkpt>
      <trkpt lat="42.43828333" lon="1.490165">
        <ele>1304.0</ele>
        <time>2019-08-04T09:43:58.304Z</time>
      </trkpt>
      <trkpt lat="42.43822833" lon="1.49013667">
        <ele>1305.0</ele>
        <time>2019-08-04T09:43:59.332Z</time>
      </trkpt>
      <trkpt lat="42.43822833" lon="1.49013667">
        <ele>1305.0</ele>
        <time>2019-08-04T09:44:00.311Z</time>
      </trkpt>
      <trkpt lat="42.43816833" lon="1.49012167">
        <ele>1305.0</ele>
        <time>2019-08-04T09:44:01.309Z</time>
      </trkpt>
      <trkpt lat="42.43816833" lon="1.49012167">
        <ele>1305.0</ele>
        <time>2019-08-04T09:44:02.297Z</time>
      </trkpt>
      <trkpt lat="42.43810833" lon="1.49012167">
        <ele>1306.0</ele>
        <time>2019-08-04T09:44:03.316Z</time>
      </trkpt>
      <trkpt lat="42.43810833" lon="1.49012167">
        <ele>1306.0</ele>
        <time>2019-08-04T09:44:04.302Z</time>
      </trkpt>
      <trkpt lat="42.43805667" lon="1.49014167">
        <ele>1307.0</ele>
        <time>2019-08-04T09:44:05.326Z</time>
      </trkpt>
      <trkpt lat="42.438035" lon="1.49016">
        <ele>1307.0</ele>
        <time>2019-08-04T09:44:06.307Z</time>
      </trkpt>
      <trkpt lat="42.438015" lon="1.49018">
        <ele>1307.0</ele>
        <time>2019-08-04T09:44:07.312Z</time>
      </trkpt>
      <trkpt lat="42.438015" lon="1.49018">
        <ele>1307.0</ele>
        <time>2019-08-04T09:44:08.299Z</time>
      </trkpt>
      <trkpt lat="42.43798" lon="1.49019833">
        <ele>1308.0</ele>
        <time>2019-08-04T09:44:09.326Z</time>
      </trkpt>
      <trkpt lat="42.43798" lon="1.49019833">
        <ele>1308.0</ele>
        <time>2019-08-04T09:44:10.306Z</time>
      </trkpt>
      <trkpt lat="42.43797167" lon="1.49021333">
        <ele>1308.0</ele>
        <time>2019-08-04T09:44:11.308Z</time>
      </trkpt>
      <trkpt lat="42.43797167" lon="1.49021333">
        <ele>1308.0</ele>
        <time>2019-08-04T09:44:12.299Z</time>
      </trkpt>
      <trkpt lat="42.43796833" lon="1.49021833">
        <ele>1308.0</ele>
        <time>2019-08-04T09:44:13.319Z</time>
      </trkpt>
      <trkpt lat="42.43796833" lon="1.49021833">
        <ele>1308.0</ele>
        <time>2019-08-04T09:44:14.301Z</time>
      </trkpt>
      <trkpt lat="42.43796833" lon="1.49021833">
        <ele>1308.0</ele>
        <time>2019-08-04T09:44:15.317Z</time>
      </trkpt>
      <trkpt lat="42.43796833" lon="1.49021833">
        <ele>1308.0</ele>
        <time>2019-08-04T09:44:16.302Z</time>
      </trkpt>
      <trkpt lat="42.43796833" lon="1.49021833">
        <ele>1308.0</ele>
        <time>2019-08-04T09:44:17.321Z</time>
      </trkpt>
      <trkpt lat="42.43796833" lon="1.49021833">
        <ele>1308.0</ele>
        <time>2019-08-04T09:44:18.301Z</time>
      </trkpt>
      <trkpt lat="42.43796833" lon="1.49021833">
        <ele>1308.0</ele>
        <time>2019-08-04T09:44:19.326Z</time>
      </trkpt>
      <trkpt lat="42.43796833" lon="1.49021833">
        <ele>1308.0</ele>
        <time>2019-08-04T09:44:20.323Z</time>
      </trkpt>
      <trkpt lat="42.43796833" lon="1.49021833">
        <ele>1308.0</ele>
        <time>2019-08-04T09:44:21.324Z</time>
      </trkpt>
      <trkpt lat="42.43799667" lon="1.49030667">
        <ele>1307.0</ele>
        <time>2019-08-04T09:44:22.313Z</time>
      </trkpt>
      <trkpt lat="42.43800667" lon="1.49034667">
        <ele>1307.0</ele>
        <time>2019-08-04T09:44:23.321Z</time>
      </trkpt>
      <trkpt lat="42.43800667" lon="1.49034667">
        <ele>1307.0</ele>
        <time>2019-08-04T09:44:24.311Z</time>
      </trkpt>
      <trkpt lat="42.43805833" lon="1.490435">
        <ele>1307.0</ele>
        <time>2019-08-04T09:44:25.349Z</time>
      </trkpt>
      <trkpt lat="42.43809167" lon="1.49047">
        <ele>1307.0</ele>
        <time>2019-08-04T09:44:26.344Z</time>
      </trkpt>
      <trkpt lat="42.43809167" lon="1.49047">
        <ele>1307.0</ele>
        <time>2019-08-04T09:44:27.325Z</time>
      </trkpt>
      <trkpt lat="42.43815667" lon="1.490525">
        <ele>1307.0</ele>
        <time>2019-08-04T09:44:28.322Z</time>
      </trkpt>
      <trkpt lat="42.43815667" lon="1.490525">
        <ele>1307.0</ele>
        <time>2019-08-04T09:44:29.352Z</time>
      </trkpt>
      <trkpt lat="42.438205" lon="1.490595">
        <ele>1307.0</ele>
        <time>2019-08-04T09:44:30.299Z</time>
      </trkpt>
      <trkpt lat="42.438205" lon="1.490595">
        <ele>1307.0</ele>
        <time>2019-08-04T09:44:31.320Z</time>
      </trkpt>
      <trkpt lat="42.43825333" lon="1.49068">
        <ele>1307.0</ele>
        <time>2019-08-04T09:44:32.321Z</time>
      </trkpt>
      <trkpt lat="42.43825333" lon="1.49068">
        <ele>1307.0</ele>
        <time>2019-08-04T09:44:33.298Z</time>
      </trkpt>
      <trkpt lat="42.43830833" lon="1.49074333">
        <ele>1307.0</ele>
        <time>2019-08-04T09:44:34.300Z</time>
      </trkpt>
      <trkpt lat="42.43830833" lon="1.49074333">
        <ele>1307.0</ele>
        <time>2019-08-04T09:44:35.319Z</time>
      </trkpt>
      <trkpt lat="42.43836" lon="1.49082">
        <ele>1307.0</ele>
        <time>2019-08-04T09:44:36.321Z</time>
      </trkpt>
      <trkpt lat="42.43836" lon="1.49082">
        <ele>1307.0</ele>
        <time>2019-08-04T09:44:37.322Z</time>
      </trkpt>
      <trkpt lat="42.43839" lon="1.49089">
        <ele>1307.0</ele>
        <time>2019-08-04T09:44:38.311Z</time>
      </trkpt>
      <trkpt lat="42.43839" lon="1.49089">
        <ele>1307.0</ele>
        <time>2019-08-04T09:44:39.304Z</time>
      </trkpt>
      <trkpt lat="42.43842833" lon="1.49097833">
        <ele>1307.0</ele>
        <time>2019-08-04T09:44:40.329Z</time>
      </trkpt>
      <trkpt lat="42.438445" lon="1.49101167">
        <ele>1308.0</ele>
        <time>2019-08-04T09:44:41.302Z</time>
      </trkpt>
      <trkpt lat="42.43845167" lon="1.49103333">
        <ele>1308.0</ele>
        <time>2019-08-04T09:44:42.344Z</time>
      </trkpt>
      <trkpt lat="42.43845167" lon="1.49103333">
        <ele>1308.0</ele>
        <time>2019-08-04T09:44:43.351Z</time>
      </trkpt>
      <trkpt lat="42.43848333" lon="1.4911">
        <ele>1308.0</ele>
        <time>2019-08-04T09:44:44.300Z</time>
      </trkpt>
      <trkpt lat="42.43848333" lon="1.4911">
        <ele>1308.0</ele>
        <time>2019-08-04T09:44:45.349Z</time>
      </trkpt>
      <trkpt lat="42.43850667" lon="1.49115833">
        <ele>1309.0</ele>
        <time>2019-08-04T09:44:46.322Z</time>
      </trkpt>
      <trkpt lat="42.43852" lon="1.49119667">
        <ele>1309.0</ele>
        <time>2019-08-04T09:44:47.378Z</time>
      </trkpt>
      <trkpt lat="42.438535" lon="1.49123667">
        <ele>1310.0</ele>
        <time>2019-08-04T09:44:48.313Z</time>
      </trkpt>
      <trkpt lat="42.438535" lon="1.49123667">
        <ele>1310.0</ele>
        <time>2019-08-04T09:44:49.310Z</time>
      </trkpt>
      <trkpt lat="42.43856667" lon="1.49131167">
        <ele>1310.0</ele>
        <time>2019-08-04T09:44:50.311Z</time>
      </trkpt>
      <trkpt lat="42.43856667" lon="1.49131167">
        <ele>1310.0</ele>
        <time>2019-08-04T09:44:51.306Z</time>
      </trkpt>
      <trkpt lat="42.43861167" lon="1.49138667">
        <ele>1310.0</ele>
        <time>2019-08-04T09:44:52.352Z</time>
      </trkpt>
      <trkpt lat="42.43863" lon="1.49142167">
        <ele>1310.0</ele>
        <time>2019-08-04T09:44:53.297Z</time>
      </trkpt>
      <trkpt lat="42.43863" lon="1.49142167">
        <ele>1310.0</ele>
        <time>2019-08-04T09:44:54.318Z</time>
      </trkpt>
      <trkpt lat="42.438655" lon="1.49148167">
        <ele>1311.0</ele>
        <time>2019-08-04T09:44:55.348Z</time>
      </trkpt>
      <trkpt lat="42.43866833" lon="1.491515">
        <ele>1311.0</ele>
        <time>2019-08-04T09:44:56.344Z</time>
      </trkpt>
      <trkpt lat="42.43866833" lon="1.491515">
        <ele>1311.0</ele>
        <time>2019-08-04T09:44:57.324Z</time>
      </trkpt>
      <trkpt lat="42.43870667" lon="1.49159">
        <ele>1312.0</ele>
        <time>2019-08-04T09:44:58.308Z</time>
      </trkpt>
      <trkpt lat="42.43870667" lon="1.49159">
        <ele>1312.0</ele>
        <time>2019-08-04T09:44:59.348Z</time>
      </trkpt>
      <trkpt lat="42.43873167" lon="1.49164333">
        <ele>1312.0</ele>
        <time>2019-08-04T09:45:00.323Z</time>
      </trkpt>
      <trkpt lat="42.43873167" lon="1.49164333">
        <ele>1312.0</ele>
        <time>2019-08-04T09:45:01.323Z</time>
      </trkpt>
      <trkpt lat="42.43875667" lon="1.49169833">
        <ele>1313.0</ele>
        <time>2019-08-04T09:45:02.317Z</time>
      </trkpt>
      <trkpt lat="42.43875667" lon="1.49169833">
        <ele>1313.0</ele>
        <time>2019-08-04T09:45:03.321Z</time>
      </trkpt>
      <trkpt lat="42.43877667" lon="1.49176167">
        <ele>1313.0</ele>
        <time>2019-08-04T09:45:04.325Z</time>
      </trkpt>
      <trkpt lat="42.43877667" lon="1.49176167">
        <ele>1313.0</ele>
        <time>2019-08-04T09:45:05.352Z</time>
      </trkpt>
      <trkpt lat="42.43880333" lon="1.491825">
        <ele>1314.0</ele>
        <time>2019-08-04T09:45:06.324Z</time>
      </trkpt>
      <trkpt lat="42.43880333" lon="1.491825">
        <ele>1314.0</ele>
        <time>2019-08-04T09:45:07.323Z</time>
      </trkpt>
      <trkpt lat="42.43882667" lon="1.49188333">
        <ele>1314.0</ele>
        <time>2019-08-04T09:45:08.323Z</time>
      </trkpt>
      <trkpt lat="42.43882667" lon="1.49188333">
        <ele>1314.0</ele>
        <time>2019-08-04T09:45:09.348Z</time>
      </trkpt>
      <trkpt lat="42.43884833" lon="1.49194">
        <ele>1315.0</ele>
        <time>2019-08-04T09:45:10.323Z</time>
      </trkpt>
      <trkpt lat="42.43885667" lon="1.49196833">
        <ele>1315.0</ele>
        <time>2019-08-04T09:45:11.321Z</time>
      </trkpt>
      <trkpt lat="42.438865" lon="1.492">
        <ele>1315.0</ele>
        <time>2019-08-04T09:45:12.323Z</time>
      </trkpt>
      <trkpt lat="42.438865" lon="1.492">
        <ele>1315.0</ele>
        <time>2019-08-04T09:45:13.323Z</time>
      </trkpt>
      <trkpt lat="42.43888333" lon="1.49206167">
        <ele>1316.0</ele>
        <time>2019-08-04T09:45:14.343Z</time>
      </trkpt>
      <trkpt lat="42.43888333" lon="1.49206167">
        <ele>1316.0</ele>
        <time>2019-08-04T09:45:15.299Z</time>
      </trkpt>
      <trkpt lat="42.43890333" lon="1.492125">
        <ele>1317.0</ele>
        <time>2019-08-04T09:45:16.321Z</time>
      </trkpt>
      <trkpt lat="42.43890333" lon="1.492125">
        <ele>1317.0</ele>
        <time>2019-08-04T09:45:17.322Z</time>
      </trkpt>
      <trkpt lat="42.43892333" lon="1.49217667">
        <ele>1318.0</ele>
        <time>2019-08-04T09:45:18.300Z</time>
      </trkpt>
      <trkpt lat="42.43892333" lon="1.49217667">
        <ele>1318.0</ele>
        <time>2019-08-04T09:45:19.319Z</time>
      </trkpt>
      <trkpt lat="42.438945" lon="1.49223333">
        <ele>1318.0</ele>
        <time>2019-08-04T09:45:20.317Z</time>
      </trkpt>
      <trkpt lat="42.438945" lon="1.49223333">
        <ele>1318.0</ele>
        <time>2019-08-04T09:45:21.321Z</time>
      </trkpt>
      <trkpt lat="42.43898" lon="1.49228167">
        <ele>1319.0</ele>
        <time>2019-08-04T09:45:22.322Z</time>
      </trkpt>
      <trkpt lat="42.43898" lon="1.49228167">
        <ele>1319.0</ele>
        <time>2019-08-04T09:45:23.322Z</time>
      </trkpt>
      <trkpt lat="42.43902167" lon="1.49233333">
        <ele>1319.0</ele>
        <time>2019-08-04T09:45:24.323Z</time>
      </trkpt>
      <trkpt lat="42.43904167" lon="1.49234833">
        <ele>1319.0</ele>
        <time>2019-08-04T09:45:25.320Z</time>
      </trkpt>
      <trkpt lat="42.43904167" lon="1.49234833">
        <ele>1319.0</ele>
        <time>2019-08-04T09:45:26.321Z</time>
      </trkpt>
      <trkpt lat="42.43908667" lon="1.49237833">
        <ele>1320.0</ele>
        <time>2019-08-04T09:45:27.361Z</time>
      </trkpt>
      <trkpt lat="42.43908667" lon="1.49237833">
        <ele>1320.0</ele>
        <time>2019-08-04T09:45:28.312Z</time>
      </trkpt>
      <trkpt lat="42.43912333" lon="1.492405">
        <ele>1320.0</ele>
        <time>2019-08-04T09:45:29.306Z</time>
      </trkpt>
      <trkpt lat="42.43914333" lon="1.49241667">
        <ele>1321.0</ele>
        <time>2019-08-04T09:45:30.344Z</time>
      </trkpt>
      <trkpt lat="42.43914333" lon="1.49241667">
        <ele>1321.0</ele>
        <time>2019-08-04T09:45:31.350Z</time>
      </trkpt>
      <trkpt lat="42.43919333" lon="1.49244833">
        <ele>1322.0</ele>
        <time>2019-08-04T09:45:32.322Z</time>
      </trkpt>
      <trkpt lat="42.43919333" lon="1.49244833">
        <ele>1322.0</ele>
        <time>2019-08-04T09:45:33.323Z</time>
      </trkpt>
      <trkpt lat="42.43924167" lon="1.492485">
        <ele>1323.0</ele>
        <time>2019-08-04T09:45:34.344Z</time>
      </trkpt>
      <trkpt lat="42.43924167" lon="1.492485">
        <ele>1323.0</ele>
        <time>2019-08-04T09:45:35.352Z</time>
      </trkpt>
      <trkpt lat="42.43928833" lon="1.49252333">
        <ele>1323.0</ele>
        <time>2019-08-04T09:45:36.324Z</time>
      </trkpt>
      <trkpt lat="42.43928833" lon="1.49252333">
        <ele>1323.0</ele>
        <time>2019-08-04T09:45:37.324Z</time>
      </trkpt>
      <trkpt lat="42.43933167" lon="1.49255667">
        <ele>1324.0</ele>
        <time>2019-08-04T09:45:38.319Z</time>
      </trkpt>
      <trkpt lat="42.43933167" lon="1.49255667">
        <ele>1324.0</ele>
        <time>2019-08-04T09:45:39.322Z</time>
      </trkpt>
      <trkpt lat="42.439375" lon="1.49259">
        <ele>1324.0</ele>
        <time>2019-08-04T09:45:40.323Z</time>
      </trkpt>
      <trkpt lat="42.43939667" lon="1.4926">
        <ele>1325.0</ele>
        <time>2019-08-04T09:45:41.309Z</time>
      </trkpt>
      <trkpt lat="42.43939667" lon="1.4926">
        <ele>1325.0</ele>
        <time>2019-08-04T09:45:42.351Z</time>
      </trkpt>
      <trkpt lat="42.439435" lon="1.49262167">
        <ele>1326.0</ele>
        <time>2019-08-04T09:45:43.301Z</time>
      </trkpt>
      <trkpt lat="42.439435" lon="1.49262167">
        <ele>1326.0</ele>
        <time>2019-08-04T09:45:44.349Z</time>
      </trkpt>
      <trkpt lat="42.439475" lon="1.49264">
        <ele>1326.0</ele>
        <time>2019-08-04T09:45:45.323Z</time>
      </trkpt>
      <trkpt lat="42.439475" lon="1.49264">
        <ele>1326.0</ele>
        <time>2019-08-04T09:45:46.323Z</time>
      </trkpt>
      <trkpt lat="42.43951333" lon="1.49265833">
        <ele>1327.0</ele>
        <time>2019-08-04T09:45:47.321Z</time>
      </trkpt>
      <trkpt lat="42.439535" lon="1.49267">
        <ele>1327.0</ele>
        <time>2019-08-04T09:45:48.309Z</time>
      </trkpt>
      <trkpt lat="42.439535" lon="1.49267">
        <ele>1327.0</ele>
        <time>2019-08-04T09:45:49.348Z</time>
      </trkpt>
      <trkpt lat="42.43957667" lon="1.49267833">
        <ele>1328.0</ele>
        <time>2019-08-04T09:45:50.323Z</time>
      </trkpt>
      <trkpt lat="42.43957667" lon="1.49267833">
        <ele>1328.0</ele>
        <time>2019-08-04T09:45:51.323Z</time>
      </trkpt>
      <trkpt lat="42.43962" lon="1.49268833">
        <ele>1329.0</ele>
        <time>2019-08-04T09:45:52.299Z</time>
      </trkpt>
      <trkpt lat="42.43964167" lon="1.49268667">
        <ele>1329.0</ele>
        <time>2019-08-04T09:45:53.323Z</time>
      </trkpt>
      <trkpt lat="42.43966667" lon="1.49269167">
        <ele>1330.0</ele>
        <time>2019-08-04T09:45:54.344Z</time>
      </trkpt>
      <trkpt lat="42.43966667" lon="1.49269167">
        <ele>1330.0</ele>
        <time>2019-08-04T09:45:55.324Z</time>
      </trkpt>
      <trkpt lat="42.43970833" lon="1.492705">
        <ele>1330.0</ele>
        <time>2019-08-04T09:45:56.322Z</time>
      </trkpt>
      <trkpt lat="42.43970833" lon="1.492705">
        <ele>1330.0</ele>
        <time>2019-08-04T09:45:57.322Z</time>
      </trkpt>
      <trkpt lat="42.43974833" lon="1.4927">
        <ele>1331.0</ele>
        <time>2019-08-04T09:45:58.307Z</time>
      </trkpt>
      <trkpt lat="42.43974833" lon="1.4927">
        <ele>1331.0</ele>
        <time>2019-08-04T09:45:59.326Z</time>
      </trkpt>
      <trkpt lat="42.439785" lon="1.49268167">
        <ele>1332.0</ele>
        <time>2019-08-04T09:46:00.324Z</time>
      </trkpt>
      <trkpt lat="42.439785" lon="1.49268167">
        <ele>1332.0</ele>
        <time>2019-08-04T09:46:01.323Z</time>
      </trkpt>
      <trkpt lat="42.43982833" lon="1.492675">
        <ele>1332.0</ele>
        <time>2019-08-04T09:46:02.344Z</time>
      </trkpt>
      <trkpt lat="42.43982833" lon="1.492675">
        <ele>1332.0</ele>
        <time>2019-08-04T09:46:03.324Z</time>
      </trkpt>
      <trkpt lat="42.43987" lon="1.49266167">
        <ele>1333.0</ele>
        <time>2019-08-04T09:46:04.326Z</time>
      </trkpt>
      <trkpt lat="42.43988833" lon="1.49266">
        <ele>1333.0</ele>
        <time>2019-08-04T09:46:05.321Z</time>
      </trkpt>
      <trkpt lat="42.439905" lon="1.49266">
        <ele>1334.0</ele>
        <time>2019-08-04T09:46:06.299Z</time>
      </trkpt>
      <trkpt lat="42.439905" lon="1.49266">
        <ele>1334.0</ele>
        <time>2019-08-04T09:46:07.320Z</time>
      </trkpt>
      <trkpt lat="42.43994333" lon="1.49265667">
        <ele>1334.0</ele>
        <time>2019-08-04T09:46:08.302Z</time>
      </trkpt>
      <trkpt lat="42.43994333" lon="1.49265667">
        <ele>1334.0</ele>
        <time>2019-08-04T09:46:09.321Z</time>
      </trkpt>
      <trkpt lat="42.439985" lon="1.49266167">
        <ele>1335.0</ele>
        <time>2019-08-04T09:46:10.318Z</time>
      </trkpt>
      <trkpt lat="42.44000667" lon="1.49266167">
        <ele>1335.0</ele>
        <time>2019-08-04T09:46:11.353Z</time>
      </trkpt>
      <trkpt lat="42.44003167" lon="1.49266667">
        <ele>1335.0</ele>
        <time>2019-08-04T09:46:12.317Z</time>
      </trkpt>
      <trkpt lat="42.44003167" lon="1.49266667">
        <ele>1335.0</ele>
        <time>2019-08-04T09:46:13.320Z</time>
      </trkpt>
      <trkpt lat="42.44008333" lon="1.49268167">
        <ele>1336.0</ele>
        <time>2019-08-04T09:46:14.339Z</time>
      </trkpt>
      <trkpt lat="42.44008333" lon="1.49268167">
        <ele>1336.0</ele>
        <time>2019-08-04T09:46:15.315Z</time>
      </trkpt>
      <trkpt lat="42.44012833" lon="1.49269333">
        <ele>1336.0</ele>
        <time>2019-08-04T09:46:16.325Z</time>
      </trkpt>
      <trkpt lat="42.44012833" lon="1.49269333">
        <ele>1336.0</ele>
        <time>2019-08-04T09:46:17.327Z</time>
      </trkpt>
      <trkpt lat="42.440175" lon="1.492705">
        <ele>1338.0</ele>
        <time>2019-08-04T09:46:18.313Z</time>
      </trkpt>
      <trkpt lat="42.440175" lon="1.492705">
        <ele>1338.0</ele>
        <time>2019-08-04T09:46:19.311Z</time>
      </trkpt>
      <trkpt lat="42.44022167" lon="1.49271667">
        <ele>1339.0</ele>
        <time>2019-08-04T09:46:20.312Z</time>
      </trkpt>
      <trkpt lat="42.44022167" lon="1.49271667">
        <ele>1339.0</ele>
        <time>2019-08-04T09:46:21.314Z</time>
      </trkpt>
      <trkpt lat="42.44026333" lon="1.49271167">
        <ele>1340.0</ele>
        <time>2019-08-04T09:46:22.320Z</time>
      </trkpt>
      <trkpt lat="42.44026333" lon="1.49271167">
        <ele>1340.0</ele>
        <time>2019-08-04T09:46:23.310Z</time>
      </trkpt>
      <trkpt lat="42.44031167" lon="1.49271667">
        <ele>1341.0</ele>
        <time>2019-08-04T09:46:24.315Z</time>
      </trkpt>
      <trkpt lat="42.44031167" lon="1.49271667">
        <ele>1341.0</ele>
        <time>2019-08-04T09:46:25.303Z</time>
      </trkpt>
      <trkpt lat="42.44036167" lon="1.49271333">
        <ele>1342.0</ele>
        <time>2019-08-04T09:46:26.323Z</time>
      </trkpt>
      <trkpt lat="42.44036167" lon="1.49271333">
        <ele>1342.0</ele>
        <time>2019-08-04T09:46:27.361Z</time>
      </trkpt>
      <trkpt lat="42.440415" lon="1.49270167">
        <ele>1342.0</ele>
        <time>2019-08-04T09:46:28.309Z</time>
      </trkpt>
      <trkpt lat="42.440415" lon="1.49270167">
        <ele>1342.0</ele>
        <time>2019-08-04T09:46:29.314Z</time>
      </trkpt>
      <trkpt lat="42.44047" lon="1.49268667">
        <ele>1344.0</ele>
        <time>2019-08-04T09:46:30.319Z</time>
      </trkpt>
      <trkpt lat="42.44047" lon="1.49268667">
        <ele>1344.0</ele>
        <time>2019-08-04T09:46:31.319Z</time>
      </trkpt>
      <trkpt lat="42.44052" lon="1.49266833">
        <ele>1345.0</ele>
        <time>2019-08-04T09:46:32.320Z</time>
      </trkpt>
      <trkpt lat="42.44052" lon="1.49266833">
        <ele>1345.0</ele>
        <time>2019-08-04T09:46:33.312Z</time>
      </trkpt>
      <trkpt lat="42.44056833" lon="1.49265">
        <ele>1346.0</ele>
        <time>2019-08-04T09:46:34.312Z</time>
      </trkpt>
      <trkpt lat="42.44059167" lon="1.492635">
        <ele>1346.0</ele>
        <time>2019-08-04T09:46:35.315Z</time>
      </trkpt>
      <trkpt lat="42.44061" lon="1.49262">
        <ele>1346.0</ele>
        <time>2019-08-04T09:46:36.326Z</time>
      </trkpt>
      <trkpt lat="42.44061" lon="1.49262">
        <ele>1346.0</ele>
        <time>2019-08-04T09:46:37.366Z</time>
      </trkpt>
      <trkpt lat="42.44064" lon="1.49258167">
        <ele>1346.0</ele>
        <time>2019-08-04T09:46:38.311Z</time>
      </trkpt>
      <trkpt lat="42.44064" lon="1.49258167">
        <ele>1346.0</ele>
        <time>2019-08-04T09:46:39.302Z</time>
      </trkpt>
      <trkpt lat="42.44067667" lon="1.49254">
        <ele>1346.0</ele>
        <time>2019-08-04T09:46:40.348Z</time>
      </trkpt>
      <trkpt lat="42.44069667" lon="1.49252167">
        <ele>1346.0</ele>
        <time>2019-08-04T09:46:41.308Z</time>
      </trkpt>
      <trkpt lat="42.44069667" lon="1.49252167">
        <ele>1346.0</ele>
        <time>2019-08-04T09:46:42.348Z</time>
      </trkpt>
      <trkpt lat="42.44074333" lon="1.49249667">
        <ele>1346.0</ele>
        <time>2019-08-04T09:46:43.323Z</time>
      </trkpt>
      <trkpt lat="42.440775" lon="1.49249">
        <ele>1346.0</ele>
        <time>2019-08-04T09:46:44.320Z</time>
      </trkpt>
      <trkpt lat="42.440775" lon="1.49249">
        <ele>1346.0</ele>
        <time>2019-08-04T09:46:45.323Z</time>
      </trkpt>
      <trkpt lat="42.44083" lon="1.492465">
        <ele>1346.0</ele>
        <time>2019-08-04T09:46:46.323Z</time>
      </trkpt>
      <trkpt lat="42.44083" lon="1.492465">
        <ele>1346.0</ele>
        <time>2019-08-04T09:46:47.324Z</time>
      </trkpt>
      <trkpt lat="42.44088333" lon="1.49243833">
        <ele>1347.0</ele>
        <time>2019-08-04T09:46:48.317Z</time>
      </trkpt>
      <trkpt lat="42.44088333" lon="1.49243833">
        <ele>1347.0</ele>
        <time>2019-08-04T09:46:49.319Z</time>
      </trkpt>
      <trkpt lat="42.44093667" lon="1.49241167">
        <ele>1347.0</ele>
        <time>2019-08-04T09:46:50.312Z</time>
      </trkpt>
      <trkpt lat="42.44093667" lon="1.49241167">
        <ele>1347.0</ele>
        <time>2019-08-04T09:46:51.326Z</time>
      </trkpt>
      <trkpt lat="42.44098667" lon="1.49238">
        <ele>1347.0</ele>
        <time>2019-08-04T09:46:52.322Z</time>
      </trkpt>
      <trkpt lat="42.44100833" lon="1.49235833">
        <ele>1347.0</ele>
        <time>2019-08-04T09:46:53.321Z</time>
      </trkpt>
      <trkpt lat="42.441035" lon="1.49234">
        <ele>1347.0</ele>
        <time>2019-08-04T09:46:54.310Z</time>
      </trkpt>
      <trkpt lat="42.441035" lon="1.49234">
        <ele>1347.0</ele>
        <time>2019-08-04T09:46:55.316Z</time>
      </trkpt>
      <trkpt lat="42.44109" lon="1.49231167">
        <ele>1347.0</ele>
        <time>2019-08-04T09:46:56.350Z</time>
      </trkpt>
      <trkpt lat="42.44109" lon="1.49231167">
        <ele>1347.0</ele>
        <time>2019-08-04T09:46:57.299Z</time>
      </trkpt>
      <trkpt lat="42.44114" lon="1.49228667">
        <ele>1348.0</ele>
        <time>2019-08-04T09:46:58.351Z</time>
      </trkpt>
      <trkpt lat="42.44118833" lon="1.49225833">
        <ele>1348.0</ele>
        <time>2019-08-04T09:46:59.353Z</time>
      </trkpt>
      <trkpt lat="42.44118833" lon="1.49225833">
        <ele>1348.0</ele>
        <time>2019-08-04T09:47:00.299Z</time>
      </trkpt>
      <trkpt lat="42.44118833" lon="1.49225833">
        <ele>1348.0</ele>
        <time>2019-08-04T09:47:01.320Z</time>
      </trkpt>
      <trkpt lat="42.44123833" lon="1.49222667">
        <ele>1348.0</ele>
        <time>2019-08-04T09:47:02.346Z</time>
      </trkpt>
      <trkpt lat="42.44123833" lon="1.49222667">
        <ele>1348.0</ele>
        <time>2019-08-04T09:47:03.351Z</time>
      </trkpt>
      <trkpt lat="42.44129167" lon="1.49220167">
        <ele>1348.0</ele>
        <time>2019-08-04T09:47:04.323Z</time>
      </trkpt>
      <trkpt lat="42.44129167" lon="1.49220167">
        <ele>1348.0</ele>
        <time>2019-08-04T09:47:05.352Z</time>
      </trkpt>
      <trkpt lat="42.44134167" lon="1.49216833">
        <ele>1348.0</ele>
        <time>2019-08-04T09:47:06.344Z</time>
      </trkpt>
      <trkpt lat="42.44134167" lon="1.49216833">
        <ele>1348.0</ele>
        <time>2019-08-04T09:47:07.325Z</time>
      </trkpt>
      <trkpt lat="42.441395" lon="1.49215">
        <ele>1347.0</ele>
        <time>2019-08-04T09:47:08.319Z</time>
      </trkpt>
      <trkpt lat="42.441395" lon="1.49215">
        <ele>1347.0</ele>
        <time>2019-08-04T09:47:09.352Z</time>
      </trkpt>
      <trkpt lat="42.44145833" lon="1.49214">
        <ele>1347.0</ele>
        <time>2019-08-04T09:47:10.324Z</time>
      </trkpt>
      <trkpt lat="42.44145833" lon="1.49214">
        <ele>1347.0</ele>
        <time>2019-08-04T09:47:11.323Z</time>
      </trkpt>
      <trkpt lat="42.44152333" lon="1.49213667">
        <ele>1347.0</ele>
        <time>2019-08-04T09:47:12.322Z</time>
      </trkpt>
      <trkpt lat="42.44152333" lon="1.49213667">
        <ele>1347.0</ele>
        <time>2019-08-04T09:47:13.323Z</time>
      </trkpt>
      <trkpt lat="42.44158333" lon="1.49212">
        <ele>1347.0</ele>
        <time>2019-08-04T09:47:14.322Z</time>
      </trkpt>
      <trkpt lat="42.44158333" lon="1.49212">
        <ele>1347.0</ele>
        <time>2019-08-04T09:47:15.296Z</time>
      </trkpt>
      <trkpt lat="42.44164167" lon="1.4921">
        <ele>1347.0</ele>
        <time>2019-08-04T09:47:16.318Z</time>
      </trkpt>
      <trkpt lat="42.44164167" lon="1.4921">
        <ele>1347.0</ele>
        <time>2019-08-04T09:47:17.320Z</time>
      </trkpt>
      <trkpt lat="42.44169833" lon="1.49208">
        <ele>1347.0</ele>
        <time>2019-08-04T09:47:18.308Z</time>
      </trkpt>
      <trkpt lat="42.44169833" lon="1.49208">
        <ele>1347.0</ele>
        <time>2019-08-04T09:47:19.351Z</time>
      </trkpt>
      <trkpt lat="42.44175333" lon="1.49206">
        <ele>1347.0</ele>
        <time>2019-08-04T09:47:20.326Z</time>
      </trkpt>
      <trkpt lat="42.44175333" lon="1.49206">
        <ele>1347.0</ele>
        <time>2019-08-04T09:47:21.299Z</time>
      </trkpt>
      <trkpt lat="42.441815" lon="1.49205667">
        <ele>1347.0</ele>
        <time>2019-08-04T09:47:22.325Z</time>
      </trkpt>
      <trkpt lat="42.44184667" lon="1.49206">
        <ele>1347.0</ele>
        <time>2019-08-04T09:47:23.353Z</time>
      </trkpt>
      <trkpt lat="42.44187833" lon="1.49206333">
        <ele>1347.0</ele>
        <time>2019-08-04T09:47:24.300Z</time>
      </trkpt>
      <trkpt lat="42.44187833" lon="1.49206333">
        <ele>1347.0</ele>
        <time>2019-08-04T09:47:25.327Z</time>
      </trkpt>
      <trkpt lat="42.44194" lon="1.49207">
        <ele>1347.0</ele>
        <time>2019-08-04T09:47:26.324Z</time>
      </trkpt>
      <trkpt lat="42.44194" lon="1.49207">
        <ele>1347.0</ele>
        <time>2019-08-04T09:47:27.302Z</time>
      </trkpt>
      <trkpt lat="42.44200333" lon="1.49207833">
        <ele>1348.0</ele>
        <time>2019-08-04T09:47:28.302Z</time>
      </trkpt>
      <trkpt lat="42.44200333" lon="1.49207833">
        <ele>1348.0</ele>
        <time>2019-08-04T09:47:29.299Z</time>
      </trkpt>
      <trkpt lat="42.44206667" lon="1.49209">
        <ele>1348.0</ele>
        <time>2019-08-04T09:47:30.346Z</time>
      </trkpt>
      <trkpt lat="42.44206667" lon="1.49209">
        <ele>1348.0</ele>
        <time>2019-08-04T09:47:31.351Z</time>
      </trkpt>
      <trkpt lat="42.44212833" lon="1.492105">
        <ele>1348.0</ele>
        <time>2019-08-04T09:47:32.323Z</time>
      </trkpt>
      <trkpt lat="42.44212833" lon="1.492105">
        <ele>1348.0</ele>
        <time>2019-08-04T09:47:33.323Z</time>
      </trkpt>
      <trkpt lat="42.44219" lon="1.49212167">
        <ele>1348.0</ele>
        <time>2019-08-04T09:47:34.351Z</time>
      </trkpt>
      <trkpt lat="42.44222167" lon="1.49213">
        <ele>1348.0</ele>
        <time>2019-08-04T09:47:35.348Z</time>
      </trkpt>
      <trkpt lat="42.44222167" lon="1.49213">
        <ele>1348.0</ele>
        <time>2019-08-04T09:47:36.321Z</time>
      </trkpt>
      <trkpt lat="42.44228333" lon="1.49213833">
        <ele>1349.0</ele>
        <time>2019-08-04T09:47:37.367Z</time>
      </trkpt>
      <trkpt lat="42.44231333" lon="1.49213667">
        <ele>1349.0</ele>
        <time>2019-08-04T09:47:38.344Z</time>
      </trkpt>
      <trkpt lat="42.44231333" lon="1.49213667">
        <ele>1349.0</ele>
        <time>2019-08-04T09:47:39.300Z</time>
      </trkpt>
      <trkpt lat="42.44237833" lon="1.49214167">
        <ele>1350.0</ele>
        <time>2019-08-04T09:47:40.324Z</time>
      </trkpt>
      <trkpt lat="42.44237833" lon="1.49214167">
        <ele>1350.0</ele>
        <time>2019-08-04T09:47:41.314Z</time>
      </trkpt>
      <trkpt lat="42.44243333" lon="1.49213333">
        <ele>1350.0</ele>
        <time>2019-08-04T09:47:42.315Z</time>
      </trkpt>
      <trkpt lat="42.44243333" lon="1.49213333">
        <ele>1350.0</ele>
        <time>2019-08-04T09:47:43.318Z</time>
      </trkpt>
      <trkpt lat="42.442485" lon="1.49211667">
        <ele>1350.0</ele>
        <time>2019-08-04T09:47:44.320Z</time>
      </trkpt>
      <trkpt lat="42.442485" lon="1.49211667">
        <ele>1350.0</ele>
        <time>2019-08-04T09:47:45.326Z</time>
      </trkpt>
      <trkpt lat="42.44253167" lon="1.49209667">
        <ele>1351.0</ele>
        <time>2019-08-04T09:47:46.326Z</time>
      </trkpt>
      <trkpt lat="42.44253167" lon="1.49209667">
        <ele>1351.0</ele>
        <time>2019-08-04T09:47:47.376Z</time>
      </trkpt>
      <trkpt lat="42.44258" lon="1.49207667">
        <ele>1351.0</ele>
        <time>2019-08-04T09:47:48.312Z</time>
      </trkpt>
      <trkpt lat="42.44258" lon="1.49207667">
        <ele>1351.0</ele>
        <time>2019-08-04T09:47:49.304Z</time>
      </trkpt>
      <trkpt lat="42.44263667" lon="1.49206167">
        <ele>1351.0</ele>
        <time>2019-08-04T09:47:50.344Z</time>
      </trkpt>
      <trkpt lat="42.44263667" lon="1.49206167">
        <ele>1351.0</ele>
        <time>2019-08-04T09:47:51.300Z</time>
      </trkpt>
      <trkpt lat="42.44268833" lon="1.49205167">
        <ele>1351.0</ele>
        <time>2019-08-04T09:47:52.324Z</time>
      </trkpt>
      <trkpt lat="42.44268833" lon="1.49205167">
        <ele>1351.0</ele>
        <time>2019-08-04T09:47:53.324Z</time>
      </trkpt>
      <trkpt lat="42.44275333" lon="1.492055">
        <ele>1351.0</ele>
        <time>2019-08-04T09:47:54.346Z</time>
      </trkpt>
      <trkpt lat="42.44275333" lon="1.492055">
        <ele>1351.0</ele>
        <time>2019-08-04T09:47:55.297Z</time>
      </trkpt>
      <trkpt lat="42.44281333" lon="1.49205667">
        <ele>1351.0</ele>
        <time>2019-08-04T09:47:56.324Z</time>
      </trkpt>
      <trkpt lat="42.44281333" lon="1.49205667">
        <ele>1351.0</ele>
        <time>2019-08-04T09:47:57.366Z</time>
      </trkpt>
      <trkpt lat="42.44287667" lon="1.49205833">
        <ele>1351.0</ele>
        <time>2019-08-04T09:47:58.311Z</time>
      </trkpt>
      <trkpt lat="42.44287667" lon="1.49205833">
        <ele>1351.0</ele>
        <time>2019-08-04T09:47:59.308Z</time>
      </trkpt>
      <trkpt lat="42.44294667" lon="1.49207">
        <ele>1351.0</ele>
        <time>2019-08-04T09:48:00.344Z</time>
      </trkpt>
      <trkpt lat="42.44294667" lon="1.49207">
        <ele>1351.0</ele>
        <time>2019-08-04T09:48:01.351Z</time>
      </trkpt>
      <trkpt lat="42.443015" lon="1.49208667">
        <ele>1351.0</ele>
        <time>2019-08-04T09:48:02.323Z</time>
      </trkpt>
      <trkpt lat="42.443015" lon="1.49208667">
        <ele>1351.0</ele>
        <time>2019-08-04T09:48:03.324Z</time>
      </trkpt>
      <trkpt lat="42.44308" lon="1.4921">
        <ele>1351.0</ele>
        <time>2019-08-04T09:48:04.323Z</time>
      </trkpt>
      <trkpt lat="42.44308" lon="1.4921">
        <ele>1351.0</ele>
        <time>2019-08-04T09:48:05.325Z</time>
      </trkpt>
      <trkpt lat="42.44314" lon="1.49211333">
        <ele>1350.0</ele>
        <time>2019-08-04T09:48:06.325Z</time>
      </trkpt>
      <trkpt lat="42.44317" lon="1.49212333">
        <ele>1350.0</ele>
        <time>2019-08-04T09:48:07.323Z</time>
      </trkpt>
      <trkpt lat="42.4432" lon="1.49213">
        <ele>1350.0</ele>
        <time>2019-08-04T09:48:08.311Z</time>
      </trkpt>
      <trkpt lat="42.4432" lon="1.49213">
        <ele>1350.0</ele>
        <time>2019-08-04T09:48:09.306Z</time>
      </trkpt>
      <trkpt lat="42.443265" lon="1.492145">
        <ele>1350.0</ele>
        <time>2019-08-04T09:48:10.327Z</time>
      </trkpt>
      <trkpt lat="42.443265" lon="1.492145">
        <ele>1350.0</ele>
        <time>2019-08-04T09:48:11.353Z</time>
      </trkpt>
      <trkpt lat="42.44333333" lon="1.49216">
        <ele>1351.0</ele>
        <time>2019-08-04T09:48:12.346Z</time>
      </trkpt>
      <trkpt lat="42.44333333" lon="1.49216">
        <ele>1351.0</ele>
        <time>2019-08-04T09:48:13.353Z</time>
      </trkpt>
      <trkpt lat="42.44339167" lon="1.49216333">
        <ele>1353.0</ele>
        <time>2019-08-04T09:48:14.325Z</time>
      </trkpt>
      <trkpt lat="42.44339167" lon="1.49216333">
        <ele>1353.0</ele>
        <time>2019-08-04T09:48:15.305Z</time>
      </trkpt>
      <trkpt lat="42.443445" lon="1.49215833">
        <ele>1353.0</ele>
        <time>2019-08-04T09:48:16.346Z</time>
      </trkpt>
      <trkpt lat="42.443445" lon="1.49215833">
        <ele>1353.0</ele>
        <time>2019-08-04T09:48:17.378Z</time>
      </trkpt>
      <trkpt lat="42.4435" lon="1.49214833">
        <ele>1354.0</ele>
        <time>2019-08-04T09:48:18.324Z</time>
      </trkpt>
      <trkpt lat="42.4435" lon="1.49214833">
        <ele>1354.0</ele>
        <time>2019-08-04T09:48:19.322Z</time>
      </trkpt>
      <trkpt lat="42.44355333" lon="1.49214">
        <ele>1354.0</ele>
        <time>2019-08-04T09:48:20.322Z</time>
      </trkpt>
      <trkpt lat="42.44355333" lon="1.49214">
        <ele>1354.0</ele>
        <time>2019-08-04T09:48:21.300Z</time>
      </trkpt>
      <trkpt lat="42.44361667" lon="1.49213667">
        <ele>1354.0</ele>
        <time>2019-08-04T09:48:22.320Z</time>
      </trkpt>
      <trkpt lat="42.44361667" lon="1.49213667">
        <ele>1354.0</ele>
        <time>2019-08-04T09:48:23.320Z</time>
      </trkpt>
      <trkpt lat="42.44368333" lon="1.49213667">
        <ele>1354.0</ele>
        <time>2019-08-04T09:48:24.344Z</time>
      </trkpt>
      <trkpt lat="42.44368333" lon="1.49213667">
        <ele>1354.0</ele>
        <time>2019-08-04T09:48:25.368Z</time>
      </trkpt>
      <trkpt lat="42.44373833" lon="1.49212333">
        <ele>1356.0</ele>
        <time>2019-08-04T09:48:26.306Z</time>
      </trkpt>
      <trkpt lat="42.44373833" lon="1.49212333">
        <ele>1356.0</ele>
        <time>2019-08-04T09:48:27.325Z</time>
      </trkpt>
      <trkpt lat="42.44379833" lon="1.49213">
        <ele>1357.0</ele>
        <time>2019-08-04T09:48:28.296Z</time>
      </trkpt>
      <trkpt lat="42.44379833" lon="1.49213">
        <ele>1357.0</ele>
        <time>2019-08-04T09:48:29.296Z</time>
      </trkpt>
      <trkpt lat="42.44386333" lon="1.492145">
        <ele>1357.0</ele>
        <time>2019-08-04T09:48:30.320Z</time>
      </trkpt>
      <trkpt lat="42.44386333" lon="1.492145">
        <ele>1357.0</ele>
        <time>2019-08-04T09:48:31.323Z</time>
      </trkpt>
      <trkpt lat="42.44392833" lon="1.49217">
        <ele>1358.0</ele>
        <time>2019-08-04T09:48:32.322Z</time>
      </trkpt>
      <trkpt lat="42.44392833" lon="1.49217">
        <ele>1358.0</ele>
        <time>2019-08-04T09:48:33.327Z</time>
      </trkpt>
      <trkpt lat="42.443995" lon="1.49220333">
        <ele>1359.0</ele>
        <time>2019-08-04T09:48:34.323Z</time>
      </trkpt>
      <trkpt lat="42.443995" lon="1.49220333">
        <ele>1359.0</ele>
        <time>2019-08-04T09:48:35.322Z</time>
      </trkpt>
      <trkpt lat="42.44405833" lon="1.49223833">
        <ele>1360.0</ele>
        <time>2019-08-04T09:48:36.325Z</time>
      </trkpt>
      <trkpt lat="42.44405833" lon="1.49223833">
        <ele>1360.0</ele>
        <time>2019-08-04T09:48:37.369Z</time>
      </trkpt>
      <trkpt lat="42.444115" lon="1.49226333">
        <ele>1360.0</ele>
        <time>2019-08-04T09:48:38.311Z</time>
      </trkpt>
      <trkpt lat="42.444115" lon="1.49226333">
        <ele>1360.0</ele>
        <time>2019-08-04T09:48:39.307Z</time>
      </trkpt>
      <trkpt lat="42.44417833" lon="1.49228833">
        <ele>1362.0</ele>
        <time>2019-08-04T09:48:40.330Z</time>
      </trkpt>
      <trkpt lat="42.44420833" lon="1.49230333">
        <ele>1362.0</ele>
        <time>2019-08-04T09:48:41.305Z</time>
      </trkpt>
      <trkpt lat="42.44420833" lon="1.49230333">
        <ele>1362.0</ele>
        <time>2019-08-04T09:48:42.325Z</time>
      </trkpt>
      <trkpt lat="42.44426667" lon="1.49234167">
        <ele>1363.0</ele>
        <time>2019-08-04T09:48:43.323Z</time>
      </trkpt>
      <trkpt lat="42.444295" lon="1.492365">
        <ele>1363.0</ele>
        <time>2019-08-04T09:48:44.323Z</time>
      </trkpt>
      <trkpt lat="42.444295" lon="1.492365">
        <ele>1363.0</ele>
        <time>2019-08-04T09:48:45.324Z</time>
      </trkpt>
      <trkpt lat="42.44435333" lon="1.49240667">
        <ele>1363.0</ele>
        <time>2019-08-04T09:48:46.327Z</time>
      </trkpt>
      <trkpt lat="42.44435333" lon="1.49240667">
        <ele>1363.0</ele>
        <time>2019-08-04T09:48:47.368Z</time>
      </trkpt>
      <trkpt lat="42.44440667" lon="1.49246667">
        <ele>1364.0</ele>
        <time>2019-08-04T09:48:48.312Z</time>
      </trkpt>
      <trkpt lat="42.44440667" lon="1.49246667">
        <ele>1364.0</ele>
        <time>2019-08-04T09:48:49.304Z</time>
      </trkpt>
      <trkpt lat="42.44445667" lon="1.49253">
        <ele>1364.0</ele>
        <time>2019-08-04T09:48:50.346Z</time>
      </trkpt>
      <trkpt lat="42.44445667" lon="1.49253">
        <ele>1364.0</ele>
        <time>2019-08-04T09:48:51.300Z</time>
      </trkpt>
      <trkpt lat="42.444495" lon="1.49259333">
        <ele>1364.0</ele>
        <time>2019-08-04T09:48:52.349Z</time>
      </trkpt>
      <trkpt lat="42.444495" lon="1.49259333">
        <ele>1364.0</ele>
        <time>2019-08-04T09:48:53.328Z</time>
      </trkpt>
      <trkpt lat="42.44453167" lon="1.492655">
        <ele>1365.0</ele>
        <time>2019-08-04T09:48:54.347Z</time>
      </trkpt>
      <trkpt lat="42.44453167" lon="1.492655">
        <ele>1365.0</ele>
        <time>2019-08-04T09:48:55.352Z</time>
      </trkpt>
      <trkpt lat="42.44456" lon="1.49271667">
        <ele>1366.0</ele>
        <time>2019-08-04T09:48:56.352Z</time>
      </trkpt>
      <trkpt lat="42.444575" lon="1.49275333">
        <ele>1367.0</ele>
        <time>2019-08-04T09:48:57.325Z</time>
      </trkpt>
      <trkpt lat="42.444575" lon="1.49275333">
        <ele>1367.0</ele>
        <time>2019-08-04T09:48:58.314Z</time>
      </trkpt>
      <trkpt lat="42.44459667" lon="1.49282667">
        <ele>1368.0</ele>
        <time>2019-08-04T09:48:59.353Z</time>
      </trkpt>
      <trkpt lat="42.44460667" lon="1.49286833">
        <ele>1368.0</ele>
        <time>2019-08-04T09:49:00.346Z</time>
      </trkpt>
      <trkpt lat="42.44460667" lon="1.49286833">
        <ele>1368.0</ele>
        <time>2019-08-04T09:49:01.352Z</time>
      </trkpt>
      <trkpt lat="42.44462667" lon="1.49295333">
        <ele>1369.0</ele>
        <time>2019-08-04T09:49:02.325Z</time>
      </trkpt>
      <trkpt lat="42.44462667" lon="1.49295333">
        <ele>1369.0</ele>
        <time>2019-08-04T09:49:03.351Z</time>
      </trkpt>
      <trkpt lat="42.444645" lon="1.49304833">
        <ele>1369.0</ele>
        <time>2019-08-04T09:49:04.324Z</time>
      </trkpt>
      <trkpt lat="42.444645" lon="1.49304833">
        <ele>1369.0</ele>
        <time>2019-08-04T09:49:05.324Z</time>
      </trkpt>
      <trkpt lat="42.444655" lon="1.49314">
        <ele>1370.0</ele>
        <time>2019-08-04T09:49:06.327Z</time>
      </trkpt>
      <trkpt lat="42.444655" lon="1.49314">
        <ele>1370.0</ele>
        <time>2019-08-04T09:49:07.367Z</time>
      </trkpt>
      <trkpt lat="42.44465667" lon="1.49321833">
        <ele>1370.0</ele>
        <time>2019-08-04T09:49:08.312Z</time>
      </trkpt>
      <trkpt lat="42.44465667" lon="1.49321833">
        <ele>1370.0</ele>
        <time>2019-08-04T09:49:09.310Z</time>
      </trkpt>
      <trkpt lat="42.44465667" lon="1.493295">
        <ele>1371.0</ele>
        <time>2019-08-04T09:49:10.303Z</time>
      </trkpt>
      <trkpt lat="42.44465833" lon="1.49333833">
        <ele>1371.0</ele>
        <time>2019-08-04T09:49:11.354Z</time>
      </trkpt>
      <trkpt lat="42.44465667" lon="1.49337833">
        <ele>1372.0</ele>
        <time>2019-08-04T09:49:12.353Z</time>
      </trkpt>
      <trkpt lat="42.44465833" lon="1.49341833">
        <ele>1372.0</ele>
        <time>2019-08-04T09:49:13.302Z</time>
      </trkpt>
      <trkpt lat="42.44465833" lon="1.49341833">
        <ele>1372.0</ele>
        <time>2019-08-04T09:49:14.322Z</time>
      </trkpt>
      <trkpt lat="42.44466167" lon="1.493495">
        <ele>1373.0</ele>
        <time>2019-08-04T09:49:15.296Z</time>
      </trkpt>
      <trkpt lat="42.44466167" lon="1.493495">
        <ele>1373.0</ele>
        <time>2019-08-04T09:49:16.325Z</time>
      </trkpt>
      <trkpt lat="42.44466833" lon="1.49357">
        <ele>1374.0</ele>
        <time>2019-08-04T09:49:17.324Z</time>
      </trkpt>
      <trkpt lat="42.44466833" lon="1.49357">
        <ele>1374.0</ele>
        <time>2019-08-04T09:49:18.312Z</time>
      </trkpt>
      <trkpt lat="42.44467" lon="1.49363">
        <ele>1374.0</ele>
        <time>2019-08-04T09:49:19.313Z</time>
      </trkpt>
      <trkpt lat="42.44467333" lon="1.493645">
        <ele>1375.0</ele>
        <time>2019-08-04T09:49:20.313Z</time>
      </trkpt>
      <trkpt lat="42.44467333" lon="1.493645">
        <ele>1375.0</ele>
        <time>2019-08-04T09:49:21.306Z</time>
      </trkpt>
      <trkpt lat="42.44469167" lon="1.49367667">
        <ele>1376.0</ele>
        <time>2019-08-04T09:49:22.352Z</time>
      </trkpt>
      <trkpt lat="42.44471167" lon="1.49368667">
        <ele>1377.0</ele>
        <time>2019-08-04T09:49:23.348Z</time>
      </trkpt>
      <trkpt lat="42.44471167" lon="1.49368667">
        <ele>1377.0</ele>
        <time>2019-08-04T09:49:24.353Z</time>
      </trkpt>
      <trkpt lat="42.44474833" lon="1.49371">
        <ele>1377.0</ele>
        <time>2019-08-04T09:49:25.325Z</time>
      </trkpt>
      <trkpt lat="42.44474833" lon="1.49371">
        <ele>1377.0</ele>
        <time>2019-08-04T09:49:26.353Z</time>
      </trkpt>
      <trkpt lat="42.44477167" lon="1.49374">
        <ele>1378.0</ele>
        <time>2019-08-04T09:49:27.324Z</time>
      </trkpt>
      <trkpt lat="42.44477167" lon="1.49374">
        <ele>1378.0</ele>
        <time>2019-08-04T09:49:28.311Z</time>
      </trkpt>
      <trkpt lat="42.44478833" lon="1.49376167">
        <ele>1379.0</ele>
        <time>2019-08-04T09:49:29.339Z</time>
      </trkpt>
      <trkpt lat="42.44478833" lon="1.49376167">
        <ele>1379.0</ele>
        <time>2019-08-04T09:49:30.340Z</time>
      </trkpt>
      <trkpt lat="42.44480167" lon="1.493785">
        <ele>1380.0</ele>
        <time>2019-08-04T09:49:31.315Z</time>
      </trkpt>
      <trkpt lat="42.444805" lon="1.49379">
        <ele>1380.0</ele>
        <time>2019-08-04T09:49:32.345Z</time>
      </trkpt>
      <trkpt lat="42.44479167" lon="1.493785">
        <ele>1380.0</ele>
        <time>2019-08-04T09:49:33.342Z</time>
      </trkpt>
      <trkpt lat="42.44479167" lon="1.493785">
        <ele>1380.0</ele>
        <time>2019-08-04T09:49:34.335Z</time>
      </trkpt>
      <trkpt lat="42.44462333" lon="1.493765">
        <ele>1379.0</ele>
        <time>2019-08-04T09:49:35.333Z</time>
      </trkpt>
      <trkpt lat="42.44462333" lon="1.493765">
        <ele>1379.0</ele>
        <time>2019-08-04T09:49:36.313Z</time>
      </trkpt>
      <trkpt lat="42.444615" lon="1.49382667">
        <ele>1379.0</ele>
        <time>2019-08-04T09:49:37.332Z</time>
      </trkpt>
      <trkpt lat="42.44461667" lon="1.49386667">
        <ele>1379.0</ele>
        <time>2019-08-04T09:49:38.321Z</time>
      </trkpt>
      <trkpt lat="42.44462333" lon="1.49390667">
        <ele>1379.0</ele>
        <time>2019-08-04T09:49:39.321Z</time>
      </trkpt>
      <trkpt lat="42.44462333" lon="1.49390667">
        <ele>1379.0</ele>
        <time>2019-08-04T09:49:40.311Z</time>
      </trkpt>
      <trkpt lat="42.44463333" lon="1.49400167">
        <ele>1379.0</ele>
        <time>2019-08-04T09:49:41.332Z</time>
      </trkpt>
      <trkpt lat="42.44463667" lon="1.49404833">
        <ele>1379.0</ele>
        <time>2019-08-04T09:49:42.321Z</time>
      </trkpt>
      <trkpt lat="42.44463667" lon="1.49404833">
        <ele>1379.0</ele>
        <time>2019-08-04T09:49:43.318Z</time>
      </trkpt>
      <trkpt lat="42.44464833" lon="1.49413333">
        <ele>1379.0</ele>
        <time>2019-08-04T09:49:44.321Z</time>
      </trkpt>
      <trkpt lat="42.44465667" lon="1.49417833">
        <ele>1380.0</ele>
        <time>2019-08-04T09:49:45.297Z</time>
      </trkpt>
      <trkpt lat="42.44465667" lon="1.49417833">
        <ele>1380.0</ele>
        <time>2019-08-04T09:49:46.318Z</time>
      </trkpt>
      <trkpt lat="42.44467833" lon="1.494265">
        <ele>1380.0</ele>
        <time>2019-08-04T09:49:47.296Z</time>
      </trkpt>
      <trkpt lat="42.44467833" lon="1.494265">
        <ele>1380.0</ele>
        <time>2019-08-04T09:49:48.321Z</time>
      </trkpt>
      <trkpt lat="42.44470333" lon="1.49435167">
        <ele>1380.0</ele>
        <time>2019-08-04T09:49:49.322Z</time>
      </trkpt>
      <trkpt lat="42.44470333" lon="1.49435167">
        <ele>1380.0</ele>
        <time>2019-08-04T09:49:50.317Z</time>
      </trkpt>
      <trkpt lat="42.44473333" lon="1.49443667">
        <ele>1380.0</ele>
        <time>2019-08-04T09:49:51.321Z</time>
      </trkpt>
      <trkpt lat="42.44473333" lon="1.49443667">
        <ele>1380.0</ele>
        <time>2019-08-04T09:49:52.320Z</time>
      </trkpt>
      <trkpt lat="42.444765" lon="1.49451167">
        <ele>1380.0</ele>
        <time>2019-08-04T09:49:53.317Z</time>
      </trkpt>
      <trkpt lat="42.444765" lon="1.49451167">
        <ele>1380.0</ele>
        <time>2019-08-04T09:49:54.315Z</time>
      </trkpt>
      <trkpt lat="42.44479333" lon="1.49458667">
        <ele>1380.0</ele>
        <time>2019-08-04T09:49:55.298Z</time>
      </trkpt>
      <trkpt lat="42.44479333" lon="1.49458667">
        <ele>1380.0</ele>
        <time>2019-08-04T09:49:56.332Z</time>
      </trkpt>
      <trkpt lat="42.44482667" lon="1.49465333">
        <ele>1380.0</ele>
        <time>2019-08-04T09:49:57.318Z</time>
      </trkpt>
      <trkpt lat="42.44482667" lon="1.49465333">
        <ele>1380.0</ele>
        <time>2019-08-04T09:49:58.315Z</time>
      </trkpt>
      <trkpt lat="42.44486167" lon="1.49471333">
        <ele>1380.0</ele>
        <time>2019-08-04T09:49:59.321Z</time>
      </trkpt>
      <trkpt lat="42.44486167" lon="1.49471333">
        <ele>1380.0</ele>
        <time>2019-08-04T09:50:00.315Z</time>
      </trkpt>
      <trkpt lat="42.44490333" lon="1.49476833">
        <ele>1381.0</ele>
        <time>2019-08-04T09:50:01.332Z</time>
      </trkpt>
      <trkpt lat="42.44490333" lon="1.49476833">
        <ele>1381.0</ele>
        <time>2019-08-04T09:50:02.318Z</time>
      </trkpt>
      <trkpt lat="42.44494833" lon="1.49482">
        <ele>1381.0</ele>
        <time>2019-08-04T09:50:03.299Z</time>
      </trkpt>
      <trkpt lat="42.44496833" lon="1.49484667">
        <ele>1381.0</ele>
        <time>2019-08-04T09:50:04.321Z</time>
      </trkpt>
      <trkpt lat="42.44498833" lon="1.49487333">
        <ele>1381.0</ele>
        <time>2019-08-04T09:50:05.308Z</time>
      </trkpt>
      <trkpt lat="42.44498833" lon="1.49487333">
        <ele>1381.0</ele>
        <time>2019-08-04T09:50:06.332Z</time>
      </trkpt>
      <trkpt lat="42.44502833" lon="1.49492667">
        <ele>1381.0</ele>
        <time>2019-08-04T09:50:07.321Z</time>
      </trkpt>
      <trkpt lat="42.44505" lon="1.494955">
        <ele>1381.0</ele>
        <time>2019-08-04T09:50:08.321Z</time>
      </trkpt>
      <trkpt lat="42.44507" lon="1.49497333">
        <ele>1381.0</ele>
        <time>2019-08-04T09:50:09.322Z</time>
      </trkpt>
      <trkpt lat="42.44507" lon="1.49497333">
        <ele>1381.0</ele>
        <time>2019-08-04T09:50:10.318Z</time>
      </trkpt>
      <trkpt lat="42.44511167" lon="1.49501333">
        <ele>1382.0</ele>
        <time>2019-08-04T09:50:11.321Z</time>
      </trkpt>
      <trkpt lat="42.44511167" lon="1.49501333">
        <ele>1382.0</ele>
        <time>2019-08-04T09:50:12.316Z</time>
      </trkpt>
      <trkpt lat="42.44516" lon="1.49504667">
        <ele>1382.0</ele>
        <time>2019-08-04T09:50:13.298Z</time>
      </trkpt>
      <trkpt lat="42.44516" lon="1.49504667">
        <ele>1382.0</ele>
        <time>2019-08-04T09:50:14.318Z</time>
      </trkpt>
      <trkpt lat="42.44520667" lon="1.49507833">
        <ele>1382.0</ele>
        <time>2019-08-04T09:50:15.306Z</time>
      </trkpt>
      <trkpt lat="42.44520667" lon="1.49507833">
        <ele>1382.0</ele>
        <time>2019-08-04T09:50:16.297Z</time>
      </trkpt>
      <trkpt lat="42.44525167" lon="1.49511167">
        <ele>1383.0</ele>
        <time>2019-08-04T09:50:17.321Z</time>
      </trkpt>
      <trkpt lat="42.44525167" lon="1.49511167">
        <ele>1383.0</ele>
        <time>2019-08-04T09:50:18.318Z</time>
      </trkpt>
      <trkpt lat="42.44529833" lon="1.495145">
        <ele>1383.0</ele>
        <time>2019-08-04T09:50:19.321Z</time>
      </trkpt>
      <trkpt lat="42.44529833" lon="1.495145">
        <ele>1383.0</ele>
        <time>2019-08-04T09:50:20.317Z</time>
      </trkpt>
      <trkpt lat="42.44534167" lon="1.49519667">
        <ele>1383.0</ele>
        <time>2019-08-04T09:50:21.321Z</time>
      </trkpt>
      <trkpt lat="42.44534167" lon="1.49519667">
        <ele>1383.0</ele>
        <time>2019-08-04T09:50:22.318Z</time>
      </trkpt>
      <trkpt lat="42.445385" lon="1.49524">
        <ele>1384.0</ele>
        <time>2019-08-04T09:50:23.321Z</time>
      </trkpt>
      <trkpt lat="42.445385" lon="1.49524">
        <ele>1384.0</ele>
        <time>2019-08-04T09:50:24.317Z</time>
      </trkpt>
      <trkpt lat="42.44543167" lon="1.49528">
        <ele>1384.0</ele>
        <time>2019-08-04T09:50:25.298Z</time>
      </trkpt>
      <trkpt lat="42.44543167" lon="1.49528">
        <ele>1384.0</ele>
        <time>2019-08-04T09:50:26.318Z</time>
      </trkpt>
      <trkpt lat="42.44547833" lon="1.49532167">
        <ele>1385.0</ele>
        <time>2019-08-04T09:50:27.321Z</time>
      </trkpt>
      <trkpt lat="42.44547833" lon="1.49532167">
        <ele>1385.0</ele>
        <time>2019-08-04T09:50:28.318Z</time>
      </trkpt>
      <trkpt lat="42.445525" lon="1.49535833">
        <ele>1385.0</ele>
        <time>2019-08-04T09:50:29.321Z</time>
      </trkpt>
      <trkpt lat="42.445525" lon="1.49535833">
        <ele>1385.0</ele>
        <time>2019-08-04T09:50:30.314Z</time>
      </trkpt>
      <trkpt lat="42.44557167" lon="1.49539667">
        <ele>1386.0</ele>
        <time>2019-08-04T09:50:31.298Z</time>
      </trkpt>
      <trkpt lat="42.44557167" lon="1.49539667">
        <ele>1386.0</ele>
        <time>2019-08-04T09:50:32.318Z</time>
      </trkpt>
      <trkpt lat="42.44561667" lon="1.49544">
        <ele>1386.0</ele>
        <time>2019-08-04T09:50:33.299Z</time>
      </trkpt>
      <trkpt lat="42.44563833" lon="1.49546167">
        <ele>1387.0</ele>
        <time>2019-08-04T09:50:34.319Z</time>
      </trkpt>
      <trkpt lat="42.44563833" lon="1.49546167">
        <ele>1387.0</ele>
        <time>2019-08-04T09:50:35.326Z</time>
      </trkpt>
      <trkpt lat="42.44568333" lon="1.49550167">
        <ele>1387.0</ele>
        <time>2019-08-04T09:50:36.321Z</time>
      </trkpt>
      <trkpt lat="42.44568333" lon="1.49550167">
        <ele>1387.0</ele>
        <time>2019-08-04T09:50:37.318Z</time>
      </trkpt>
      <trkpt lat="42.44572833" lon="1.495545">
        <ele>1387.0</ele>
        <time>2019-08-04T09:50:38.322Z</time>
      </trkpt>
      <trkpt lat="42.44575333" lon="1.49556833">
        <ele>1388.0</ele>
        <time>2019-08-04T09:50:39.321Z</time>
      </trkpt>
      <trkpt lat="42.44575333" lon="1.49556833">
        <ele>1388.0</ele>
        <time>2019-08-04T09:50:40.318Z</time>
      </trkpt>
      <trkpt lat="42.44579833" lon="1.49560833">
        <ele>1388.0</ele>
        <time>2019-08-04T09:50:41.320Z</time>
      </trkpt>
      <trkpt lat="42.44579833" lon="1.49560833">
        <ele>1388.0</ele>
        <time>2019-08-04T09:50:42.318Z</time>
      </trkpt>
      <trkpt lat="42.44584667" lon="1.495645">
        <ele>1389.0</ele>
        <time>2019-08-04T09:50:43.322Z</time>
      </trkpt>
      <trkpt lat="42.44584667" lon="1.495645">
        <ele>1389.0</ele>
        <time>2019-08-04T09:50:44.315Z</time>
      </trkpt>
      <trkpt lat="42.44589" lon="1.49568333">
        <ele>1389.0</ele>
        <time>2019-08-04T09:50:45.297Z</time>
      </trkpt>
      <trkpt lat="42.44589" lon="1.49568333">
        <ele>1389.0</ele>
        <time>2019-08-04T09:50:46.318Z</time>
      </trkpt>
      <trkpt lat="42.44593167" lon="1.49572167">
        <ele>1390.0</ele>
        <time>2019-08-04T09:50:47.321Z</time>
      </trkpt>
      <trkpt lat="42.445955" lon="1.49574167">
        <ele>1390.0</ele>
        <time>2019-08-04T09:50:48.323Z</time>
      </trkpt>
      <trkpt lat="42.445955" lon="1.49574167">
        <ele>1390.0</ele>
        <time>2019-08-04T09:50:49.316Z</time>
      </trkpt>
      <trkpt lat="42.44600167" lon="1.49578">
        <ele>1390.0</ele>
        <time>2019-08-04T09:50:50.321Z</time>
      </trkpt>
      <trkpt lat="42.446025" lon="1.49579833">
        <ele>1391.0</ele>
        <time>2019-08-04T09:50:51.321Z</time>
      </trkpt>
      <trkpt lat="42.446025" lon="1.49579833">
        <ele>1391.0</ele>
        <time>2019-08-04T09:50:52.318Z</time>
      </trkpt>
      <trkpt lat="42.44607" lon="1.49584167">
        <ele>1391.0</ele>
        <time>2019-08-04T09:50:53.298Z</time>
      </trkpt>
      <trkpt lat="42.44607" lon="1.49584167">
        <ele>1391.0</ele>
        <time>2019-08-04T09:50:54.319Z</time>
      </trkpt>
      <trkpt lat="42.44611333" lon="1.49589667">
        <ele>1392.0</ele>
        <time>2019-08-04T09:50:55.297Z</time>
      </trkpt>
      <trkpt lat="42.44611333" lon="1.49589667">
        <ele>1392.0</ele>
        <time>2019-08-04T09:50:56.319Z</time>
      </trkpt>
      <trkpt lat="42.44615667" lon="1.49594833">
        <ele>1392.0</ele>
        <time>2019-08-04T09:50:57.321Z</time>
      </trkpt>
      <trkpt lat="42.44615667" lon="1.49594833">
        <ele>1392.0</ele>
        <time>2019-08-04T09:50:58.318Z</time>
      </trkpt>
      <trkpt lat="42.44619667" lon="1.49601">
        <ele>1393.0</ele>
        <time>2019-08-04T09:50:59.321Z</time>
      </trkpt>
      <trkpt lat="42.44619667" lon="1.49601">
        <ele>1393.0</ele>
        <time>2019-08-04T09:51:00.318Z</time>
      </trkpt>
      <trkpt lat="42.44623333" lon="1.49606833">
        <ele>1393.0</ele>
        <time>2019-08-04T09:51:01.321Z</time>
      </trkpt>
      <trkpt lat="42.44623333" lon="1.49606833">
        <ele>1393.0</ele>
        <time>2019-08-04T09:51:02.315Z</time>
      </trkpt>
      <trkpt lat="42.44626667" lon="1.49611833">
        <ele>1394.0</ele>
        <time>2019-08-04T09:51:03.299Z</time>
      </trkpt>
      <trkpt lat="42.44626667" lon="1.49611833">
        <ele>1394.0</ele>
        <time>2019-08-04T09:51:04.318Z</time>
      </trkpt>
      <trkpt lat="42.4463" lon="1.49617667">
        <ele>1394.0</ele>
        <time>2019-08-04T09:51:05.301Z</time>
      </trkpt>
      <trkpt lat="42.44631833" lon="1.49622167">
        <ele>1395.0</ele>
        <time>2019-08-04T09:51:06.321Z</time>
      </trkpt>
      <trkpt lat="42.44631833" lon="1.49622167">
        <ele>1395.0</ele>
        <time>2019-08-04T09:51:07.301Z</time>
      </trkpt>
      <trkpt lat="42.44634833" lon="1.49628667">
        <ele>1396.0</ele>
        <time>2019-08-04T09:51:08.322Z</time>
      </trkpt>
      <trkpt lat="42.44636333" lon="1.496315">
        <ele>1396.0</ele>
        <time>2019-08-04T09:51:09.321Z</time>
      </trkpt>
      <trkpt lat="42.44636333" lon="1.496315">
        <ele>1396.0</ele>
        <time>2019-08-04T09:51:10.321Z</time>
      </trkpt>
      <trkpt lat="42.44639167" lon="1.496385">
        <ele>1397.0</ele>
        <time>2019-08-04T09:51:11.320Z</time>
      </trkpt>
      <trkpt lat="42.44640333" lon="1.49641667">
        <ele>1397.0</ele>
        <time>2019-08-04T09:51:12.321Z</time>
      </trkpt>
      <trkpt lat="42.44640333" lon="1.49641667">
        <ele>1397.0</ele>
        <time>2019-08-04T09:51:13.320Z</time>
      </trkpt>
      <trkpt lat="42.44642333" lon="1.49648">
        <ele>1398.0</ele>
        <time>2019-08-04T09:51:14.320Z</time>
      </trkpt>
      <trkpt lat="42.44643333" lon="1.49651833">
        <ele>1398.0</ele>
        <time>2019-08-04T09:51:15.298Z</time>
      </trkpt>
      <trkpt lat="42.44643333" lon="1.49651833">
        <ele>1398.0</ele>
        <time>2019-08-04T09:51:16.319Z</time>
      </trkpt>
      <trkpt lat="42.44644833" lon="1.49659167">
        <ele>1399.0</ele>
        <time>2019-08-04T09:51:17.299Z</time>
      </trkpt>
      <trkpt lat="42.44646" lon="1.49662667">
        <ele>1399.0</ele>
        <time>2019-08-04T09:51:18.321Z</time>
      </trkpt>
      <trkpt lat="42.44646" lon="1.49662667">
        <ele>1399.0</ele>
        <time>2019-08-04T09:51:19.319Z</time>
      </trkpt>
      <trkpt lat="42.44648" lon="1.496695">
        <ele>1400.0</ele>
        <time>2019-08-04T09:51:20.320Z</time>
      </trkpt>
      <trkpt lat="42.44648667" lon="1.49672833">
        <ele>1400.0</ele>
        <time>2019-08-04T09:51:21.321Z</time>
      </trkpt>
      <trkpt lat="42.44648667" lon="1.49672833">
        <ele>1400.0</ele>
        <time>2019-08-04T09:51:22.315Z</time>
      </trkpt>
      <trkpt lat="42.446495" lon="1.49677833">
        <ele>1401.0</ele>
        <time>2019-08-04T09:51:23.298Z</time>
      </trkpt>
      <trkpt lat="42.446495" lon="1.49677833">
        <ele>1401.0</ele>
        <time>2019-08-04T09:51:24.318Z</time>
      </trkpt>
      <trkpt lat="42.4465" lon="1.496805">
        <ele>1402.0</ele>
        <time>2019-08-04T09:51:25.311Z</time>
      </trkpt>
      <trkpt lat="42.4465" lon="1.496805">
        <ele>1402.0</ele>
        <time>2019-08-04T09:51:26.330Z</time>
      </trkpt>
      <trkpt lat="42.44650833" lon="1.49685333">
        <ele>1402.0</ele>
        <time>2019-08-04T09:51:27.319Z</time>
      </trkpt>
      <trkpt lat="42.446515" lon="1.49689">
        <ele>1403.0</ele>
        <time>2019-08-04T09:51:28.298Z</time>
      </trkpt>
      <trkpt lat="42.446515" lon="1.49689">
        <ele>1403.0</ele>
        <time>2019-08-04T09:51:29.309Z</time>
      </trkpt>
      <trkpt lat="42.44652167" lon="1.496965">
        <ele>1404.0</ele>
        <time>2019-08-04T09:51:30.318Z</time>
      </trkpt>
      <trkpt lat="42.44652333" lon="1.497">
        <ele>1404.0</ele>
        <time>2019-08-04T09:51:31.324Z</time>
      </trkpt>
      <trkpt lat="42.44652333" lon="1.497">
        <ele>1404.0</ele>
        <time>2019-08-04T09:51:32.330Z</time>
      </trkpt>
      <trkpt lat="42.446535" lon="1.49707333">
        <ele>1405.0</ele>
        <time>2019-08-04T09:51:33.298Z</time>
      </trkpt>
      <trkpt lat="42.446535" lon="1.49707333">
        <ele>1405.0</ele>
        <time>2019-08-04T09:51:34.321Z</time>
      </trkpt>
      <trkpt lat="42.44653667" lon="1.497145">
        <ele>1406.0</ele>
        <time>2019-08-04T09:51:35.306Z</time>
      </trkpt>
      <trkpt lat="42.44653667" lon="1.497145">
        <ele>1406.0</ele>
        <time>2019-08-04T09:51:36.327Z</time>
      </trkpt>
      <trkpt lat="42.44653" lon="1.49720667">
        <ele>1407.0</ele>
        <time>2019-08-04T09:51:37.315Z</time>
      </trkpt>
      <trkpt lat="42.44653167" lon="1.49723833">
        <ele>1407.0</ele>
        <time>2019-08-04T09:51:38.299Z</time>
      </trkpt>
      <trkpt lat="42.44652833" lon="1.49727167">
        <ele>1407.0</ele>
        <time>2019-08-04T09:51:39.321Z</time>
      </trkpt>
      <trkpt lat="42.44652833" lon="1.49727167">
        <ele>1407.0</ele>
        <time>2019-08-04T09:51:40.321Z</time>
      </trkpt>
      <trkpt lat="42.44651833" lon="1.49733667">
        <ele>1408.0</ele>
        <time>2019-08-04T09:51:41.321Z</time>
      </trkpt>
      <trkpt lat="42.44651667" lon="1.49737667">
        <ele>1409.0</ele>
        <time>2019-08-04T09:51:42.320Z</time>
      </trkpt>
      <trkpt lat="42.446515" lon="1.49740833">
        <ele>1409.0</ele>
        <time>2019-08-04T09:51:43.321Z</time>
      </trkpt>
      <trkpt lat="42.446515" lon="1.49740833">
        <ele>1409.0</ele>
        <time>2019-08-04T09:51:44.317Z</time>
      </trkpt>
      <trkpt lat="42.44650667" lon="1.49747667">
        <ele>1410.0</ele>
        <time>2019-08-04T09:51:45.301Z</time>
      </trkpt>
      <trkpt lat="42.44650667" lon="1.49747667">
        <ele>1410.0</ele>
        <time>2019-08-04T09:51:46.321Z</time>
      </trkpt>
      <trkpt lat="42.44649167" lon="1.49755">
        <ele>1411.0</ele>
        <time>2019-08-04T09:51:47.307Z</time>
      </trkpt>
      <trkpt lat="42.44648667" lon="1.497585">
        <ele>1411.0</ele>
        <time>2019-08-04T09:51:48.330Z</time>
      </trkpt>
      <trkpt lat="42.44648667" lon="1.497585">
        <ele>1411.0</ele>
        <time>2019-08-04T09:51:49.320Z</time>
      </trkpt>
      <trkpt lat="42.44647833" lon="1.497655">
        <ele>1412.0</ele>
        <time>2019-08-04T09:51:50.321Z</time>
      </trkpt>
      <trkpt lat="42.446475" lon="1.49769167">
        <ele>1412.0</ele>
        <time>2019-08-04T09:51:51.321Z</time>
      </trkpt>
      <trkpt lat="42.446475" lon="1.49769167">
        <ele>1412.0</ele>
        <time>2019-08-04T09:51:52.321Z</time>
      </trkpt>
      <trkpt lat="42.44646833" lon="1.497755">
        <ele>1413.0</ele>
        <time>2019-08-04T09:51:53.321Z</time>
      </trkpt>
      <trkpt lat="42.44647" lon="1.49778833">
        <ele>1414.0</ele>
        <time>2019-08-04T09:51:54.319Z</time>
      </trkpt>
      <trkpt lat="42.446475" lon="1.49782167">
        <ele>1414.0</ele>
        <time>2019-08-04T09:51:55.300Z</time>
      </trkpt>
      <trkpt lat="42.446475" lon="1.49782167">
        <ele>1414.0</ele>
        <time>2019-08-04T09:51:56.321Z</time>
      </trkpt>
      <trkpt lat="42.44649" lon="1.49789">
        <ele>1414.0</ele>
        <time>2019-08-04T09:51:57.321Z</time>
      </trkpt>
      <trkpt lat="42.44649" lon="1.49789">
        <ele>1414.0</ele>
        <time>2019-08-04T09:51:58.318Z</time>
      </trkpt>
      <trkpt lat="42.44651" lon="1.49796333">
        <ele>1415.0</ele>
        <time>2019-08-04T09:51:59.321Z</time>
      </trkpt>
      <trkpt lat="42.44651833" lon="1.49799833">
        <ele>1415.0</ele>
        <time>2019-08-04T09:52:00.321Z</time>
      </trkpt>
      <trkpt lat="42.44653167" lon="1.498035">
        <ele>1416.0</ele>
        <time>2019-08-04T09:52:01.322Z</time>
      </trkpt>
      <trkpt lat="42.44653167" lon="1.498035">
        <ele>1416.0</ele>
        <time>2019-08-04T09:52:02.316Z</time>
      </trkpt>
      <trkpt lat="42.44656333" lon="1.49810667">
        <ele>1416.0</ele>
        <time>2019-08-04T09:52:03.321Z</time>
      </trkpt>
      <trkpt lat="42.44656333" lon="1.49810667">
        <ele>1416.0</ele>
        <time>2019-08-04T09:52:04.317Z</time>
      </trkpt>
      <trkpt lat="42.44659667" lon="1.49817333">
        <ele>1417.0</ele>
        <time>2019-08-04T09:52:05.308Z</time>
      </trkpt>
      <trkpt lat="42.44659667" lon="1.49817333">
        <ele>1417.0</ele>
        <time>2019-08-04T09:52:06.329Z</time>
      </trkpt>
      <trkpt lat="42.44663" lon="1.49823833">
        <ele>1418.0</ele>
        <time>2019-08-04T09:52:07.325Z</time>
      </trkpt>
      <trkpt lat="42.44663" lon="1.49823833">
        <ele>1418.0</ele>
        <time>2019-08-04T09:52:08.318Z</time>
      </trkpt>
      <trkpt lat="42.44666667" lon="1.49829667">
        <ele>1418.0</ele>
        <time>2019-08-04T09:52:09.321Z</time>
      </trkpt>
      <trkpt lat="42.44666667" lon="1.49829667">
        <ele>1418.0</ele>
        <time>2019-08-04T09:52:10.321Z</time>
      </trkpt>
      <trkpt lat="42.44670667" lon="1.49835">
        <ele>1419.0</ele>
        <time>2019-08-04T09:52:11.321Z</time>
      </trkpt>
      <trkpt lat="42.44670667" lon="1.49835">
        <ele>1419.0</ele>
        <time>2019-08-04T09:52:12.318Z</time>
      </trkpt>
      <trkpt lat="42.44674333" lon="1.49840833">
        <ele>1420.0</ele>
        <time>2019-08-04T09:52:13.322Z</time>
      </trkpt>
      <trkpt lat="42.44674333" lon="1.49840833">
        <ele>1420.0</ele>
        <time>2019-08-04T09:52:14.319Z</time>
      </trkpt>
      <trkpt lat="42.44678667" lon="1.498475">
        <ele>1421.0</ele>
        <time>2019-08-04T09:52:15.298Z</time>
      </trkpt>
      <trkpt lat="42.44678667" lon="1.498475">
        <ele>1421.0</ele>
        <time>2019-08-04T09:52:16.318Z</time>
      </trkpt>
      <trkpt lat="42.44682667" lon="1.49853">
        <ele>1421.0</ele>
        <time>2019-08-04T09:52:17.323Z</time>
      </trkpt>
      <trkpt lat="42.44684833" lon="1.49855833">
        <ele>1422.0</ele>
        <time>2019-08-04T09:52:18.321Z</time>
      </trkpt>
      <trkpt lat="42.44684833" lon="1.49855833">
        <ele>1422.0</ele>
        <time>2019-08-04T09:52:19.320Z</time>
      </trkpt>
      <trkpt lat="42.44688333" lon="1.49861333">
        <ele>1423.0</ele>
        <time>2019-08-04T09:52:20.319Z</time>
      </trkpt>
      <trkpt lat="42.44689833" lon="1.49864167">
        <ele>1423.0</ele>
        <time>2019-08-04T09:52:21.321Z</time>
      </trkpt>
      <trkpt lat="42.44689833" lon="1.49864167">
        <ele>1423.0</ele>
        <time>2019-08-04T09:52:22.318Z</time>
      </trkpt>
      <trkpt lat="42.44693333" lon="1.49869833">
        <ele>1424.0</ele>
        <time>2019-08-04T09:52:23.299Z</time>
      </trkpt>
      <trkpt lat="42.44693333" lon="1.49869833">
        <ele>1424.0</ele>
        <time>2019-08-04T09:52:24.321Z</time>
      </trkpt>
      <trkpt lat="42.44697167" lon="1.49875333">
        <ele>1424.0</ele>
        <time>2019-08-04T09:52:25.307Z</time>
      </trkpt>
      <trkpt lat="42.44697167" lon="1.49875333">
        <ele>1424.0</ele>
        <time>2019-08-04T09:52:26.329Z</time>
      </trkpt>
      <trkpt lat="42.44700833" lon="1.49880833">
        <ele>1425.0</ele>
        <time>2019-08-04T09:52:27.327Z</time>
      </trkpt>
      <trkpt lat="42.44700833" lon="1.49880833">
        <ele>1425.0</ele>
        <time>2019-08-04T09:52:28.315Z</time>
      </trkpt>
      <trkpt lat="42.447045" lon="1.49886167">
        <ele>1426.0</ele>
        <time>2019-08-04T09:52:29.310Z</time>
      </trkpt>
      <trkpt lat="42.447045" lon="1.49886167">
        <ele>1426.0</ele>
        <time>2019-08-04T09:52:30.319Z</time>
      </trkpt>
      <trkpt lat="42.447075" lon="1.49892">
        <ele>1426.0</ele>
        <time>2019-08-04T09:52:31.325Z</time>
      </trkpt>
      <trkpt lat="42.447075" lon="1.49892">
        <ele>1426.0</ele>
        <time>2019-08-04T09:52:32.331Z</time>
      </trkpt>
      <trkpt lat="42.44710667" lon="1.498985">
        <ele>1427.0</ele>
        <time>2019-08-04T09:52:33.300Z</time>
      </trkpt>
      <trkpt lat="42.44710667" lon="1.498985">
        <ele>1427.0</ele>
        <time>2019-08-04T09:52:34.334Z</time>
      </trkpt>
      <trkpt lat="42.44713333" lon="1.49905">
        <ele>1428.0</ele>
        <time>2019-08-04T09:52:35.301Z</time>
      </trkpt>
      <trkpt lat="42.447145" lon="1.49908667">
        <ele>1428.0</ele>
        <time>2019-08-04T09:52:36.321Z</time>
      </trkpt>
      <trkpt lat="42.447155" lon="1.499125">
        <ele>1429.0</ele>
        <time>2019-08-04T09:52:37.324Z</time>
      </trkpt>
      <trkpt lat="42.447165" lon="1.49916333">
        <ele>1429.0</ele>
        <time>2019-08-04T09:52:38.322Z</time>
      </trkpt>
      <trkpt lat="42.447165" lon="1.49916333">
        <ele>1429.0</ele>
        <time>2019-08-04T09:52:39.319Z</time>
      </trkpt>
      <trkpt lat="42.44718" lon="1.49923667">
        <ele>1429.0</ele>
        <time>2019-08-04T09:52:40.321Z</time>
      </trkpt>
      <trkpt lat="42.44718" lon="1.49923667">
        <ele>1429.0</ele>
        <time>2019-08-04T09:52:41.318Z</time>
      </trkpt>
      <trkpt lat="42.44719" lon="1.49931333">
        <ele>1430.0</ele>
        <time>2019-08-04T09:52:42.321Z</time>
      </trkpt>
      <trkpt lat="42.44719" lon="1.49931333">
        <ele>1430.0</ele>
        <time>2019-08-04T09:52:43.301Z</time>
      </trkpt>
      <trkpt lat="42.44719167" lon="1.49938833">
        <ele>1430.0</ele>
        <time>2019-08-04T09:52:44.321Z</time>
      </trkpt>
      <trkpt lat="42.44719167" lon="1.49938833">
        <ele>1430.0</ele>
        <time>2019-08-04T09:52:45.327Z</time>
      </trkpt>
      <trkpt lat="42.44719" lon="1.49946833">
        <ele>1430.0</ele>
        <time>2019-08-04T09:52:46.321Z</time>
      </trkpt>
      <trkpt lat="42.44719" lon="1.49946833">
        <ele>1430.0</ele>
        <time>2019-08-04T09:52:47.318Z</time>
      </trkpt>
      <trkpt lat="42.44718333" lon="1.49954833">
        <ele>1430.0</ele>
        <time>2019-08-04T09:52:48.326Z</time>
      </trkpt>
      <trkpt lat="42.44718167" lon="1.49958667">
        <ele>1430.0</ele>
        <time>2019-08-04T09:52:49.323Z</time>
      </trkpt>
      <trkpt lat="42.44718167" lon="1.49958667">
        <ele>1430.0</ele>
        <time>2019-08-04T09:52:50.317Z</time>
      </trkpt>
      <trkpt lat="42.447175" lon="1.49966833">
        <ele>1431.0</ele>
        <time>2019-08-04T09:52:51.321Z</time>
      </trkpt>
      <trkpt lat="42.447175" lon="1.49966833">
        <ele>1431.0</ele>
        <time>2019-08-04T09:52:52.315Z</time>
      </trkpt>
      <trkpt lat="42.44716167" lon="1.49975667">
        <ele>1431.0</ele>
        <time>2019-08-04T09:52:53.318Z</time>
      </trkpt>
      <trkpt lat="42.44716167" lon="1.49975667">
        <ele>1431.0</ele>
        <time>2019-08-04T09:52:54.333Z</time>
      </trkpt>
      <trkpt lat="42.44714333" lon="1.49983833">
        <ele>1432.0</ele>
        <time>2019-08-04T09:52:55.313Z</time>
      </trkpt>
      <trkpt lat="42.44714333" lon="1.49983833">
        <ele>1432.0</ele>
        <time>2019-08-04T09:52:56.298Z</time>
      </trkpt>
      <trkpt lat="42.447125" lon="1.49991667">
        <ele>1433.0</ele>
        <time>2019-08-04T09:52:57.322Z</time>
      </trkpt>
      <trkpt lat="42.447125" lon="1.49991667">
        <ele>1433.0</ele>
        <time>2019-08-04T09:52:58.327Z</time>
      </trkpt>
      <trkpt lat="42.447105" lon="1.49999167">
        <ele>1434.0</ele>
        <time>2019-08-04T09:52:59.321Z</time>
      </trkpt>
      <trkpt lat="42.447105" lon="1.49999167">
        <ele>1434.0</ele>
        <time>2019-08-04T09:53:00.318Z</time>
      </trkpt>
      <trkpt lat="42.44708833" lon="1.50006667">
        <ele>1435.0</ele>
        <time>2019-08-04T09:53:01.322Z</time>
      </trkpt>
      <trkpt lat="42.44708833" lon="1.50006667">
        <ele>1435.0</ele>
        <time>2019-08-04T09:53:02.317Z</time>
      </trkpt>
      <trkpt lat="42.44707167" lon="1.500145">
        <ele>1435.0</ele>
        <time>2019-08-04T09:53:03.323Z</time>
      </trkpt>
      <trkpt lat="42.44707167" lon="1.500145">
        <ele>1435.0</ele>
        <time>2019-08-04T09:53:04.319Z</time>
      </trkpt>
      <trkpt lat="42.447055" lon="1.50022">
        <ele>1436.0</ele>
        <time>2019-08-04T09:53:05.300Z</time>
      </trkpt>
      <trkpt lat="42.447055" lon="1.50022">
        <ele>1436.0</ele>
        <time>2019-08-04T09:53:06.320Z</time>
      </trkpt>
      <trkpt lat="42.447035" lon="1.500295">
        <ele>1437.0</ele>
        <time>2019-08-04T09:53:07.323Z</time>
      </trkpt>
      <trkpt lat="42.447035" lon="1.500295">
        <ele>1437.0</ele>
        <time>2019-08-04T09:53:08.318Z</time>
      </trkpt>
      <trkpt lat="42.44701333" lon="1.50036667">
        <ele>1437.0</ele>
        <time>2019-08-04T09:53:09.321Z</time>
      </trkpt>
      <trkpt lat="42.44701333" lon="1.50036667">
        <ele>1437.0</ele>
        <time>2019-08-04T09:53:10.321Z</time>
      </trkpt>
      <trkpt lat="42.44699" lon="1.50044333">
        <ele>1438.0</ele>
        <time>2019-08-04T09:53:11.321Z</time>
      </trkpt>
      <trkpt lat="42.44699" lon="1.50044333">
        <ele>1438.0</ele>
        <time>2019-08-04T09:53:12.315Z</time>
      </trkpt>
      <trkpt lat="42.44697" lon="1.500515">
        <ele>1438.0</ele>
        <time>2019-08-04T09:53:13.299Z</time>
      </trkpt>
      <trkpt lat="42.44697" lon="1.500515">
        <ele>1438.0</ele>
        <time>2019-08-04T09:53:14.318Z</time>
      </trkpt>
      <trkpt lat="42.44695" lon="1.50059">
        <ele>1439.0</ele>
        <time>2019-08-04T09:53:15.334Z</time>
      </trkpt>
      <trkpt lat="42.44694" lon="1.50062833">
        <ele>1440.0</ele>
        <time>2019-08-04T09:53:16.321Z</time>
      </trkpt>
      <trkpt lat="42.44694" lon="1.50062833">
        <ele>1440.0</ele>
        <time>2019-08-04T09:53:17.318Z</time>
      </trkpt>
      <trkpt lat="42.44692" lon="1.50070667">
        <ele>1441.0</ele>
        <time>2019-08-04T09:53:18.323Z</time>
      </trkpt>
      <trkpt lat="42.44692" lon="1.50070667">
        <ele>1441.0</ele>
        <time>2019-08-04T09:53:19.316Z</time>
      </trkpt>
      <trkpt lat="42.44690333" lon="1.50078667">
        <ele>1441.0</ele>
        <time>2019-08-04T09:53:20.320Z</time>
      </trkpt>
      <trkpt lat="42.44690333" lon="1.50083">
        <ele>1441.0</ele>
        <time>2019-08-04T09:53:21.299Z</time>
      </trkpt>
      <trkpt lat="42.44690333" lon="1.50083">
        <ele>1441.0</ele>
        <time>2019-08-04T09:53:22.319Z</time>
      </trkpt>
      <trkpt lat="42.44688333" lon="1.50091">
        <ele>1442.0</ele>
        <time>2019-08-04T09:53:23.321Z</time>
      </trkpt>
      <trkpt lat="42.44687" lon="1.50094667">
        <ele>1442.0</ele>
        <time>2019-08-04T09:53:24.321Z</time>
      </trkpt>
      <trkpt lat="42.44686" lon="1.50098333">
        <ele>1442.0</ele>
        <time>2019-08-04T09:53:25.301Z</time>
      </trkpt>
      <trkpt lat="42.44686" lon="1.50098333">
        <ele>1442.0</ele>
        <time>2019-08-04T09:53:26.331Z</time>
      </trkpt>
      <trkpt lat="42.44684333" lon="1.50106167">
        <ele>1443.0</ele>
        <time>2019-08-04T09:53:27.321Z</time>
      </trkpt>
      <trkpt lat="42.44684333" lon="1.50106167">
        <ele>1443.0</ele>
        <time>2019-08-04T09:53:28.310Z</time>
      </trkpt>
      <trkpt lat="42.44682833" lon="1.50113333">
        <ele>1444.0</ele>
        <time>2019-08-04T09:53:29.330Z</time>
      </trkpt>
      <trkpt lat="42.44682833" lon="1.50113333">
        <ele>1444.0</ele>
        <time>2019-08-04T09:53:30.318Z</time>
      </trkpt>
      <trkpt lat="42.44681667" lon="1.50120167">
        <ele>1445.0</ele>
        <time>2019-08-04T09:53:31.322Z</time>
      </trkpt>
      <trkpt lat="42.44681333" lon="1.50123333">
        <ele>1445.0</ele>
        <time>2019-08-04T09:53:32.325Z</time>
      </trkpt>
      <trkpt lat="42.44681333" lon="1.50123333">
        <ele>1445.0</ele>
        <time>2019-08-04T09:53:33.316Z</time>
      </trkpt>
      <trkpt lat="42.44679167" lon="1.501285">
        <ele>1446.0</ele>
        <time>2019-08-04T09:53:34.332Z</time>
      </trkpt>
      <trkpt lat="42.44678833" lon="1.50132333">
        <ele>1446.0</ele>
        <time>2019-08-04T09:53:35.299Z</time>
      </trkpt>
      <trkpt lat="42.44678833" lon="1.50132333">
        <ele>1446.0</ele>
        <time>2019-08-04T09:53:36.319Z</time>
      </trkpt>
      <trkpt lat="42.44678333" lon="1.50139833">
        <ele>1446.0</ele>
        <time>2019-08-04T09:53:37.323Z</time>
      </trkpt>
      <trkpt lat="42.44678333" lon="1.50139833">
        <ele>1446.0</ele>
        <time>2019-08-04T09:53:38.300Z</time>
      </trkpt>
      <trkpt lat="42.44677833" lon="1.50146167">
        <ele>1447.0</ele>
        <time>2019-08-04T09:53:39.322Z</time>
      </trkpt>
      <trkpt lat="42.44677833" lon="1.50146167">
        <ele>1447.0</ele>
        <time>2019-08-04T09:53:40.318Z</time>
      </trkpt>
      <trkpt lat="42.44676833" lon="1.501535">
        <ele>1448.0</ele>
        <time>2019-08-04T09:53:41.320Z</time>
      </trkpt>
      <trkpt lat="42.44676167" lon="1.50157333">
        <ele>1448.0</ele>
        <time>2019-08-04T09:53:42.321Z</time>
      </trkpt>
      <trkpt lat="42.44676167" lon="1.50157333">
        <ele>1448.0</ele>
        <time>2019-08-04T09:53:43.302Z</time>
      </trkpt>
      <trkpt lat="42.44676333" lon="1.50165333">
        <ele>1450.0</ele>
        <time>2019-08-04T09:53:44.322Z</time>
      </trkpt>
      <trkpt lat="42.44676167" lon="1.50169167">
        <ele>1450.0</ele>
        <time>2019-08-04T09:53:45.307Z</time>
      </trkpt>
      <trkpt lat="42.44676167" lon="1.50169167">
        <ele>1450.0</ele>
        <time>2019-08-04T09:53:46.328Z</time>
      </trkpt>
      <trkpt lat="42.44676" lon="1.50177167">
        <ele>1451.0</ele>
        <time>2019-08-04T09:53:47.318Z</time>
      </trkpt>
      <trkpt lat="42.44676" lon="1.50181167">
        <ele>1451.0</ele>
        <time>2019-08-04T09:53:48.327Z</time>
      </trkpt>
      <trkpt lat="42.44676" lon="1.50181167">
        <ele>1451.0</ele>
        <time>2019-08-04T09:53:49.318Z</time>
      </trkpt>
      <trkpt lat="42.44676" lon="1.50189">
        <ele>1452.0</ele>
        <time>2019-08-04T09:53:50.321Z</time>
      </trkpt>
      <trkpt lat="42.44676" lon="1.50189">
        <ele>1452.0</ele>
        <time>2019-08-04T09:53:51.319Z</time>
      </trkpt>
      <trkpt lat="42.44676" lon="1.50197167">
        <ele>1452.0</ele>
        <time>2019-08-04T09:53:52.320Z</time>
      </trkpt>
      <trkpt lat="42.44676" lon="1.50197167">
        <ele>1452.0</ele>
        <time>2019-08-04T09:53:53.318Z</time>
      </trkpt>
      <trkpt lat="42.446755" lon="1.50205333">
        <ele>1452.0</ele>
        <time>2019-08-04T09:53:54.321Z</time>
      </trkpt>
      <trkpt lat="42.446755" lon="1.50209333">
        <ele>1452.0</ele>
        <time>2019-08-04T09:53:55.327Z</time>
      </trkpt>
      <trkpt lat="42.446755" lon="1.50209333">
        <ele>1452.0</ele>
        <time>2019-08-04T09:53:56.319Z</time>
      </trkpt>
      <trkpt lat="42.44674333" lon="1.50217333">
        <ele>1453.0</ele>
        <time>2019-08-04T09:53:57.322Z</time>
      </trkpt>
      <trkpt lat="42.44674333" lon="1.50217333">
        <ele>1453.0</ele>
        <time>2019-08-04T09:53:58.318Z</time>
      </trkpt>
      <trkpt lat="42.446735" lon="1.50225167">
        <ele>1453.0</ele>
        <time>2019-08-04T09:53:59.321Z</time>
      </trkpt>
      <trkpt lat="42.446735" lon="1.50225167">
        <ele>1453.0</ele>
        <time>2019-08-04T09:54:00.318Z</time>
      </trkpt>
      <trkpt lat="42.44671833" lon="1.50232333">
        <ele>1453.0</ele>
        <time>2019-08-04T09:54:01.299Z</time>
      </trkpt>
      <trkpt lat="42.44671833" lon="1.50232333">
        <ele>1453.0</ele>
        <time>2019-08-04T09:54:02.320Z</time>
      </trkpt>
      <trkpt lat="42.4467" lon="1.50239">
        <ele>1454.0</ele>
        <time>2019-08-04T09:54:03.300Z</time>
      </trkpt>
      <trkpt lat="42.4467" lon="1.50239">
        <ele>1454.0</ele>
        <time>2019-08-04T09:54:04.319Z</time>
      </trkpt>
      <trkpt lat="42.44668333" lon="1.50246167">
        <ele>1455.0</ele>
        <time>2019-08-04T09:54:05.302Z</time>
      </trkpt>
      <trkpt lat="42.44668333" lon="1.50246167">
        <ele>1455.0</ele>
        <time>2019-08-04T09:54:06.322Z</time>
      </trkpt>
      <trkpt lat="42.446665" lon="1.50253333">
        <ele>1455.0</ele>
        <time>2019-08-04T09:54:07.321Z</time>
      </trkpt>
      <trkpt lat="42.446665" lon="1.50253333">
        <ele>1455.0</ele>
        <time>2019-08-04T09:54:08.321Z</time>
      </trkpt>
      <trkpt lat="42.44664667" lon="1.502605">
        <ele>1456.0</ele>
        <time>2019-08-04T09:54:09.320Z</time>
      </trkpt>
      <trkpt lat="42.44664667" lon="1.502605">
        <ele>1456.0</ele>
        <time>2019-08-04T09:54:10.317Z</time>
      </trkpt>
      <trkpt lat="42.44662833" lon="1.50268333">
        <ele>1457.0</ele>
        <time>2019-08-04T09:54:11.319Z</time>
      </trkpt>
      <trkpt lat="42.44661833" lon="1.50272">
        <ele>1457.0</ele>
        <time>2019-08-04T09:54:12.320Z</time>
      </trkpt>
      <trkpt lat="42.44661833" lon="1.50272">
        <ele>1457.0</ele>
        <time>2019-08-04T09:54:13.319Z</time>
      </trkpt>
      <trkpt lat="42.4466" lon="1.502795">
        <ele>1458.0</ele>
        <time>2019-08-04T09:54:14.319Z</time>
      </trkpt>
      <trkpt lat="42.44659167" lon="1.50283167">
        <ele>1458.0</ele>
        <time>2019-08-04T09:54:15.299Z</time>
      </trkpt>
      <trkpt lat="42.44659167" lon="1.50283167">
        <ele>1458.0</ele>
        <time>2019-08-04T09:54:16.319Z</time>
      </trkpt>
      <trkpt lat="42.446575" lon="1.50291">
        <ele>1458.0</ele>
        <time>2019-08-04T09:54:17.320Z</time>
      </trkpt>
      <trkpt lat="42.446575" lon="1.50291">
        <ele>1458.0</ele>
        <time>2019-08-04T09:54:18.320Z</time>
      </trkpt>
      <trkpt lat="42.446555" lon="1.50298667">
        <ele>1458.0</ele>
        <time>2019-08-04T09:54:19.299Z</time>
      </trkpt>
      <trkpt lat="42.446555" lon="1.50298667">
        <ele>1458.0</ele>
        <time>2019-08-04T09:54:20.319Z</time>
      </trkpt>
      <trkpt lat="42.44653667" lon="1.50306167">
        <ele>1459.0</ele>
        <time>2019-08-04T09:54:21.320Z</time>
      </trkpt>
      <trkpt lat="42.44653667" lon="1.50306167">
        <ele>1459.0</ele>
        <time>2019-08-04T09:54:22.316Z</time>
      </trkpt>
      <trkpt lat="42.44651333" lon="1.50313667">
        <ele>1459.0</ele>
        <time>2019-08-04T09:54:23.320Z</time>
      </trkpt>
      <trkpt lat="42.44651333" lon="1.50313667">
        <ele>1459.0</ele>
        <time>2019-08-04T09:54:24.317Z</time>
      </trkpt>
      <trkpt lat="42.44649333" lon="1.50321333">
        <ele>1459.0</ele>
        <time>2019-08-04T09:54:25.309Z</time>
      </trkpt>
      <trkpt lat="42.44649333" lon="1.50321333">
        <ele>1459.0</ele>
        <time>2019-08-04T09:54:26.328Z</time>
      </trkpt>
      <trkpt lat="42.44647167" lon="1.50328833">
        <ele>1459.0</ele>
        <time>2019-08-04T09:54:27.319Z</time>
      </trkpt>
      <trkpt lat="42.44647167" lon="1.50328833">
        <ele>1459.0</ele>
        <time>2019-08-04T09:54:28.324Z</time>
      </trkpt>
      <trkpt lat="42.44645667" lon="1.50336167">
        <ele>1459.0</ele>
        <time>2019-08-04T09:54:29.319Z</time>
      </trkpt>
      <trkpt lat="42.44645667" lon="1.50336167">
        <ele>1459.0</ele>
        <time>2019-08-04T09:54:30.324Z</time>
      </trkpt>
      <trkpt lat="42.44644333" lon="1.503435">
        <ele>1459.0</ele>
        <time>2019-08-04T09:54:31.322Z</time>
      </trkpt>
      <trkpt lat="42.44644333" lon="1.503435">
        <ele>1459.0</ele>
        <time>2019-08-04T09:54:32.316Z</time>
      </trkpt>
      <trkpt lat="42.446435" lon="1.50350833">
        <ele>1459.0</ele>
        <time>2019-08-04T09:54:33.311Z</time>
      </trkpt>
      <trkpt lat="42.446435" lon="1.50350833">
        <ele>1459.0</ele>
        <time>2019-08-04T09:54:34.331Z</time>
      </trkpt>
      <trkpt lat="42.44643167" lon="1.50358333">
        <ele>1459.0</ele>
        <time>2019-08-04T09:54:35.299Z</time>
      </trkpt>
      <trkpt lat="42.44643167" lon="1.50358333">
        <ele>1459.0</ele>
        <time>2019-08-04T09:54:36.319Z</time>
      </trkpt>
      <trkpt lat="42.44643333" lon="1.50365833">
        <ele>1460.0</ele>
        <time>2019-08-04T09:54:37.322Z</time>
      </trkpt>
      <trkpt lat="42.44643333" lon="1.50365833">
        <ele>1460.0</ele>
        <time>2019-08-04T09:54:38.319Z</time>
      </trkpt>
      <trkpt lat="42.44643667" lon="1.50373167">
        <ele>1461.0</ele>
        <time>2019-08-04T09:54:39.319Z</time>
      </trkpt>
      <trkpt lat="42.446435" lon="1.50377">
        <ele>1461.0</ele>
        <time>2019-08-04T09:54:40.321Z</time>
      </trkpt>
      <trkpt lat="42.446435" lon="1.50377">
        <ele>1461.0</ele>
        <time>2019-08-04T09:54:41.317Z</time>
      </trkpt>
      <trkpt lat="42.44643167" lon="1.50384333">
        <ele>1462.0</ele>
        <time>2019-08-04T09:54:42.322Z</time>
      </trkpt>
      <trkpt lat="42.44643" lon="1.50387833">
        <ele>1462.0</ele>
        <time>2019-08-04T09:54:43.323Z</time>
      </trkpt>
      <trkpt lat="42.44643" lon="1.50387833">
        <ele>1462.0</ele>
        <time>2019-08-04T09:54:44.315Z</time>
      </trkpt>
      <trkpt lat="42.44641667" lon="1.50395167">
        <ele>1463.0</ele>
        <time>2019-08-04T09:54:45.335Z</time>
      </trkpt>
      <trkpt lat="42.44641667" lon="1.50395167">
        <ele>1463.0</ele>
        <time>2019-08-04T09:54:46.318Z</time>
      </trkpt>
      <trkpt lat="42.4464" lon="1.50402167">
        <ele>1464.0</ele>
        <time>2019-08-04T09:54:47.321Z</time>
      </trkpt>
      <trkpt lat="42.4464" lon="1.50402167">
        <ele>1464.0</ele>
        <time>2019-08-04T09:54:48.316Z</time>
      </trkpt>
      <trkpt lat="42.44637667" lon="1.50408833">
        <ele>1465.0</ele>
        <time>2019-08-04T09:54:49.301Z</time>
      </trkpt>
      <trkpt lat="42.44637667" lon="1.50408833">
        <ele>1465.0</ele>
        <time>2019-08-04T09:54:50.322Z</time>
      </trkpt>
      <trkpt lat="42.44634667" lon="1.50415">
        <ele>1466.0</ele>
        <time>2019-08-04T09:54:51.319Z</time>
      </trkpt>
      <trkpt lat="42.44634667" lon="1.50415">
        <ele>1466.0</ele>
        <time>2019-08-04T09:54:52.315Z</time>
      </trkpt>
      <trkpt lat="42.44632" lon="1.50420833">
        <ele>1467.0</ele>
        <time>2019-08-04T09:54:53.335Z</time>
      </trkpt>
      <trkpt lat="42.44632" lon="1.50420833">
        <ele>1467.0</ele>
        <time>2019-08-04T09:54:54.318Z</time>
      </trkpt>
      <trkpt lat="42.446295" lon="1.50427">
        <ele>1468.0</ele>
        <time>2019-08-04T09:54:55.309Z</time>
      </trkpt>
      <trkpt lat="42.446295" lon="1.50427">
        <ele>1468.0</ele>
        <time>2019-08-04T09:54:56.328Z</time>
      </trkpt>
      <trkpt lat="42.446265" lon="1.50433333">
        <ele>1469.0</ele>
        <time>2019-08-04T09:54:57.319Z</time>
      </trkpt>
      <trkpt lat="42.446265" lon="1.50433333">
        <ele>1469.0</ele>
        <time>2019-08-04T09:54:58.300Z</time>
      </trkpt>
      <trkpt lat="42.44623667" lon="1.5044">
        <ele>1469.0</ele>
        <time>2019-08-04T09:54:59.328Z</time>
      </trkpt>
      <trkpt lat="42.44623667" lon="1.5044">
        <ele>1469.0</ele>
        <time>2019-08-04T09:55:00.324Z</time>
      </trkpt>
      <trkpt lat="42.44621" lon="1.50446667">
        <ele>1470.0</ele>
        <time>2019-08-04T09:55:01.322Z</time>
      </trkpt>
      <trkpt lat="42.44621" lon="1.50446667">
        <ele>1470.0</ele>
        <time>2019-08-04T09:55:02.318Z</time>
      </trkpt>
      <trkpt lat="42.44618" lon="1.50453">
        <ele>1471.0</ele>
        <time>2019-08-04T09:55:03.301Z</time>
      </trkpt>
      <trkpt lat="42.44618" lon="1.50453">
        <ele>1471.0</ele>
        <time>2019-08-04T09:55:04.321Z</time>
      </trkpt>
      <trkpt lat="42.446155" lon="1.50459333">
        <ele>1472.0</ele>
        <time>2019-08-04T09:55:05.302Z</time>
      </trkpt>
      <trkpt lat="42.446155" lon="1.50459333">
        <ele>1472.0</ele>
        <time>2019-08-04T09:55:06.322Z</time>
      </trkpt>
      <trkpt lat="42.44613333" lon="1.50465667">
        <ele>1473.0</ele>
        <time>2019-08-04T09:55:07.322Z</time>
      </trkpt>
      <trkpt lat="42.44613333" lon="1.50465667">
        <ele>1473.0</ele>
        <time>2019-08-04T09:55:08.311Z</time>
      </trkpt>
      <trkpt lat="42.4461" lon="1.50470833">
        <ele>1474.0</ele>
        <time>2019-08-04T09:55:09.332Z</time>
      </trkpt>
      <trkpt lat="42.44608833" lon="1.50473833">
        <ele>1475.0</ele>
        <time>2019-08-04T09:55:10.321Z</time>
      </trkpt>
      <trkpt lat="42.44608833" lon="1.50473833">
        <ele>1475.0</ele>
        <time>2019-08-04T09:55:11.319Z</time>
      </trkpt>
      <trkpt lat="42.44606333" lon="1.50480833">
        <ele>1476.0</ele>
        <time>2019-08-04T09:55:12.321Z</time>
      </trkpt>
      <trkpt lat="42.44605" lon="1.504845">
        <ele>1477.0</ele>
        <time>2019-08-04T09:55:13.324Z</time>
      </trkpt>
      <trkpt lat="42.44605" lon="1.504845">
        <ele>1477.0</ele>
        <time>2019-08-04T09:55:14.315Z</time>
      </trkpt>
      <trkpt lat="42.44603167" lon="1.50492">
        <ele>1477.0</ele>
        <time>2019-08-04T09:55:15.335Z</time>
      </trkpt>
      <trkpt lat="42.44603167" lon="1.50492">
        <ele>1477.0</ele>
        <time>2019-08-04T09:55:16.317Z</time>
      </trkpt>
      <trkpt lat="42.44601667" lon="1.50499">
        <ele>1478.0</ele>
        <time>2019-08-04T09:55:17.299Z</time>
      </trkpt>
      <trkpt lat="42.44601333" lon="1.50503167">
        <ele>1478.0</ele>
        <time>2019-08-04T09:55:18.323Z</time>
      </trkpt>
      <trkpt lat="42.44601333" lon="1.50503167">
        <ele>1478.0</ele>
        <time>2019-08-04T09:55:19.320Z</time>
      </trkpt>
      <trkpt lat="42.44600167" lon="1.50511">
        <ele>1479.0</ele>
        <time>2019-08-04T09:55:20.309Z</time>
      </trkpt>
      <trkpt lat="42.44600167" lon="1.50511">
        <ele>1479.0</ele>
        <time>2019-08-04T09:55:21.330Z</time>
      </trkpt>
      <trkpt lat="42.44598333" lon="1.505175">
        <ele>1481.0</ele>
        <time>2019-08-04T09:55:22.321Z</time>
      </trkpt>
      <trkpt lat="42.44597833" lon="1.50521">
        <ele>1481.0</ele>
        <time>2019-08-04T09:55:23.323Z</time>
      </trkpt>
      <trkpt lat="42.44597333" lon="1.505245">
        <ele>1482.0</ele>
        <time>2019-08-04T09:55:24.321Z</time>
      </trkpt>
      <trkpt lat="42.44596833" lon="1.50528167">
        <ele>1482.0</ele>
        <time>2019-08-04T09:55:25.309Z</time>
      </trkpt>
      <trkpt lat="42.44596833" lon="1.50528167">
        <ele>1482.0</ele>
        <time>2019-08-04T09:55:26.328Z</time>
      </trkpt>
      <trkpt lat="42.44595667" lon="1.50535333">
        <ele>1482.0</ele>
        <time>2019-08-04T09:55:27.321Z</time>
      </trkpt>
      <trkpt lat="42.44595667" lon="1.50535333">
        <ele>1482.0</ele>
        <time>2019-08-04T09:55:28.300Z</time>
      </trkpt>
      <trkpt lat="42.44594833" lon="1.50542333">
        <ele>1483.0</ele>
        <time>2019-08-04T09:55:29.321Z</time>
      </trkpt>
      <trkpt lat="42.44594833" lon="1.50542333">
        <ele>1483.0</ele>
        <time>2019-08-04T09:55:30.318Z</time>
      </trkpt>
      <trkpt lat="42.44594167" lon="1.50549833">
        <ele>1484.0</ele>
        <time>2019-08-04T09:55:31.300Z</time>
      </trkpt>
      <trkpt lat="42.44594167" lon="1.50549833">
        <ele>1484.0</ele>
        <time>2019-08-04T09:55:32.320Z</time>
      </trkpt>
      <trkpt lat="42.44593667" lon="1.50557">
        <ele>1485.0</ele>
        <time>2019-08-04T09:55:33.322Z</time>
      </trkpt>
      <trkpt lat="42.44593667" lon="1.50557">
        <ele>1485.0</ele>
        <time>2019-08-04T09:55:34.318Z</time>
      </trkpt>
      <trkpt lat="42.44593167" lon="1.50563667">
        <ele>1485.0</ele>
        <time>2019-08-04T09:55:35.299Z</time>
      </trkpt>
      <trkpt lat="42.44593167" lon="1.50563667">
        <ele>1485.0</ele>
        <time>2019-08-04T09:55:36.319Z</time>
      </trkpt>
      <trkpt lat="42.44593167" lon="1.505705">
        <ele>1486.0</ele>
        <time>2019-08-04T09:55:37.324Z</time>
      </trkpt>
      <trkpt lat="42.44593167" lon="1.505705">
        <ele>1486.0</ele>
        <time>2019-08-04T09:55:38.318Z</time>
      </trkpt>
      <trkpt lat="42.44594" lon="1.50577667">
        <ele>1486.0</ele>
        <time>2019-08-04T09:55:39.321Z</time>
      </trkpt>
      <trkpt lat="42.44594" lon="1.50577667">
        <ele>1486.0</ele>
        <time>2019-08-04T09:55:40.316Z</time>
      </trkpt>
      <trkpt lat="42.44595" lon="1.50585167">
        <ele>1488.0</ele>
        <time>2019-08-04T09:55:41.300Z</time>
      </trkpt>
      <trkpt lat="42.44595" lon="1.50585167">
        <ele>1488.0</ele>
        <time>2019-08-04T09:55:42.319Z</time>
      </trkpt>
      <trkpt lat="42.44596" lon="1.50592667">
        <ele>1489.0</ele>
        <time>2019-08-04T09:55:43.300Z</time>
      </trkpt>
      <trkpt lat="42.44596333" lon="1.50596167">
        <ele>1489.0</ele>
        <time>2019-08-04T09:55:44.301Z</time>
      </trkpt>
      <trkpt lat="42.44596333" lon="1.50596167">
        <ele>1489.0</ele>
        <time>2019-08-04T09:55:45.326Z</time>
      </trkpt>
      <trkpt lat="42.44597167" lon="1.506035">
        <ele>1490.0</ele>
        <time>2019-08-04T09:55:46.320Z</time>
      </trkpt>
      <trkpt lat="42.44597167" lon="1.506035">
        <ele>1490.0</ele>
        <time>2019-08-04T09:55:47.316Z</time>
      </trkpt>
      <trkpt lat="42.44598667" lon="1.50611333">
        <ele>1491.0</ele>
        <time>2019-08-04T09:55:48.319Z</time>
      </trkpt>
      <trkpt lat="42.445995" lon="1.50615">
        <ele>1491.0</ele>
        <time>2019-08-04T09:55:49.324Z</time>
      </trkpt>
      <trkpt lat="42.446005" lon="1.50618833">
        <ele>1492.0</ele>
        <time>2019-08-04T09:55:50.303Z</time>
      </trkpt>
      <trkpt lat="42.446005" lon="1.50618833">
        <ele>1492.0</ele>
        <time>2019-08-04T09:55:51.323Z</time>
      </trkpt>
      <trkpt lat="42.44602333" lon="1.50626333">
        <ele>1493.0</ele>
        <time>2019-08-04T09:55:52.321Z</time>
      </trkpt>
      <trkpt lat="42.44603333" lon="1.50629833">
        <ele>1493.0</ele>
        <time>2019-08-04T09:55:53.308Z</time>
      </trkpt>
      <trkpt lat="42.44603333" lon="1.50629833">
        <ele>1493.0</ele>
        <time>2019-08-04T09:55:54.328Z</time>
      </trkpt>
      <trkpt lat="42.44605333" lon="1.50636333">
        <ele>1493.0</ele>
        <time>2019-08-04T09:55:55.302Z</time>
      </trkpt>
      <trkpt lat="42.44605333" lon="1.50636333">
        <ele>1493.0</ele>
        <time>2019-08-04T09:55:56.322Z</time>
      </trkpt>
      <trkpt lat="42.44607333" lon="1.50643">
        <ele>1493.0</ele>
        <time>2019-08-04T09:55:57.323Z</time>
      </trkpt>
      <trkpt lat="42.44607333" lon="1.50643">
        <ele>1493.0</ele>
        <time>2019-08-04T09:55:58.320Z</time>
      </trkpt>
      <trkpt lat="42.446095" lon="1.506495">
        <ele>1494.0</ele>
        <time>2019-08-04T09:55:59.321Z</time>
      </trkpt>
      <trkpt lat="42.446095" lon="1.506495">
        <ele>1494.0</ele>
        <time>2019-08-04T09:56:00.318Z</time>
      </trkpt>
      <trkpt lat="42.44611667" lon="1.50656333">
        <ele>1494.0</ele>
        <time>2019-08-04T09:56:01.301Z</time>
      </trkpt>
      <trkpt lat="42.44611667" lon="1.50656333">
        <ele>1494.0</ele>
        <time>2019-08-04T09:56:02.321Z</time>
      </trkpt>
      <trkpt lat="42.44614" lon="1.50662">
        <ele>1493.0</ele>
        <time>2019-08-04T09:56:03.322Z</time>
      </trkpt>
      <trkpt lat="42.44614" lon="1.50662">
        <ele>1493.0</ele>
        <time>2019-08-04T09:56:04.319Z</time>
      </trkpt>
      <trkpt lat="42.44616667" lon="1.50668">
        <ele>1493.0</ele>
        <time>2019-08-04T09:56:05.329Z</time>
      </trkpt>
      <trkpt lat="42.44616667" lon="1.50668">
        <ele>1493.0</ele>
        <time>2019-08-04T09:56:06.315Z</time>
      </trkpt>
      <trkpt lat="42.446195" lon="1.50674">
        <ele>1493.0</ele>
        <time>2019-08-04T09:56:07.301Z</time>
      </trkpt>
      <trkpt lat="42.446195" lon="1.50674">
        <ele>1493.0</ele>
        <time>2019-08-04T09:56:08.321Z</time>
      </trkpt>
      <trkpt lat="42.44622167" lon="1.5068">
        <ele>1492.0</ele>
        <time>2019-08-04T09:56:09.320Z</time>
      </trkpt>
      <trkpt lat="42.44622167" lon="1.5068">
        <ele>1492.0</ele>
        <time>2019-08-04T09:56:10.301Z</time>
      </trkpt>
      <trkpt lat="42.44624833" lon="1.50686">
        <ele>1492.0</ele>
        <time>2019-08-04T09:56:11.321Z</time>
      </trkpt>
      <trkpt lat="42.44624833" lon="1.50686">
        <ele>1492.0</ele>
        <time>2019-08-04T09:56:12.318Z</time>
      </trkpt>
      <trkpt lat="42.44628" lon="1.50692">
        <ele>1492.0</ele>
        <time>2019-08-04T09:56:13.302Z</time>
      </trkpt>
      <trkpt lat="42.44628" lon="1.50692">
        <ele>1492.0</ele>
        <time>2019-08-04T09:56:14.336Z</time>
      </trkpt>
      <trkpt lat="42.44630667" lon="1.50697833">
        <ele>1492.0</ele>
        <time>2019-08-04T09:56:15.300Z</time>
      </trkpt>
      <trkpt lat="42.44630667" lon="1.50697833">
        <ele>1492.0</ele>
        <time>2019-08-04T09:56:16.321Z</time>
      </trkpt>
      <trkpt lat="42.44633667" lon="1.50704167">
        <ele>1492.0</ele>
        <time>2019-08-04T09:56:17.321Z</time>
      </trkpt>
      <trkpt lat="42.44633667" lon="1.50704167">
        <ele>1492.0</ele>
        <time>2019-08-04T09:56:18.301Z</time>
      </trkpt>
      <trkpt lat="42.446365" lon="1.507105">
        <ele>1492.0</ele>
        <time>2019-08-04T09:56:19.329Z</time>
      </trkpt>
      <trkpt lat="42.446365" lon="1.507105">
        <ele>1492.0</ele>
        <time>2019-08-04T09:56:20.315Z</time>
      </trkpt>
      <trkpt lat="42.446395" lon="1.50717">
        <ele>1493.0</ele>
        <time>2019-08-04T09:56:21.335Z</time>
      </trkpt>
      <trkpt lat="42.44641" lon="1.50720333">
        <ele>1493.0</ele>
        <time>2019-08-04T09:56:22.319Z</time>
      </trkpt>
      <trkpt lat="42.446425" lon="1.50723667">
        <ele>1493.0</ele>
        <time>2019-08-04T09:56:23.300Z</time>
      </trkpt>
      <trkpt lat="42.446425" lon="1.50723667">
        <ele>1493.0</ele>
        <time>2019-08-04T09:56:24.320Z</time>
      </trkpt>
      <trkpt lat="42.44645167" lon="1.50730333">
        <ele>1493.0</ele>
        <time>2019-08-04T09:56:25.308Z</time>
      </trkpt>
      <trkpt lat="42.44645167" lon="1.50730333">
        <ele>1493.0</ele>
        <time>2019-08-04T09:56:26.328Z</time>
      </trkpt>
      <trkpt lat="42.44647667" lon="1.50737">
        <ele>1493.0</ele>
        <time>2019-08-04T09:56:27.321Z</time>
      </trkpt>
      <trkpt lat="42.44647667" lon="1.50737">
        <ele>1493.0</ele>
        <time>2019-08-04T09:56:28.318Z</time>
      </trkpt>
      <trkpt lat="42.4465" lon="1.50743667">
        <ele>1493.0</ele>
        <time>2019-08-04T09:56:29.321Z</time>
      </trkpt>
      <trkpt lat="42.44651333" lon="1.50747167">
        <ele>1493.0</ele>
        <time>2019-08-04T09:56:30.317Z</time>
      </trkpt>
      <trkpt lat="42.446525" lon="1.507505">
        <ele>1493.0</ele>
        <time>2019-08-04T09:56:31.331Z</time>
      </trkpt>
      <trkpt lat="42.446525" lon="1.507505">
        <ele>1493.0</ele>
        <time>2019-08-04T09:56:32.317Z</time>
      </trkpt>
      <trkpt lat="42.44654667" lon="1.50757333">
        <ele>1493.0</ele>
        <time>2019-08-04T09:56:33.321Z</time>
      </trkpt>
      <trkpt lat="42.44654667" lon="1.50757333">
        <ele>1493.0</ele>
        <time>2019-08-04T09:56:34.313Z</time>
      </trkpt>
      <trkpt lat="42.44657" lon="1.50764167">
        <ele>1493.0</ele>
        <time>2019-08-04T09:56:35.302Z</time>
      </trkpt>
      <trkpt lat="42.44658333" lon="1.50767667">
        <ele>1493.0</ele>
        <time>2019-08-04T09:56:36.324Z</time>
      </trkpt>
      <trkpt lat="42.446595" lon="1.50770833">
        <ele>1493.0</ele>
        <time>2019-08-04T09:56:37.323Z</time>
      </trkpt>
      <trkpt lat="42.446595" lon="1.50770833">
        <ele>1493.0</ele>
        <time>2019-08-04T09:56:38.320Z</time>
      </trkpt>
      <trkpt lat="42.44661833" lon="1.50776833">
        <ele>1494.0</ele>
        <time>2019-08-04T09:56:39.322Z</time>
      </trkpt>
      <trkpt lat="42.44661833" lon="1.50776833">
        <ele>1494.0</ele>
        <time>2019-08-04T09:56:40.321Z</time>
      </trkpt>
      <trkpt lat="42.44664333" lon="1.50782667">
        <ele>1493.0</ele>
        <time>2019-08-04T09:56:41.317Z</time>
      </trkpt>
      <trkpt lat="42.44664333" lon="1.50782667">
        <ele>1493.0</ele>
        <time>2019-08-04T09:56:42.312Z</time>
      </trkpt>
      <trkpt lat="42.44667667" lon="1.50789167">
        <ele>1493.0</ele>
        <time>2019-08-04T09:56:43.332Z</time>
      </trkpt>
      <trkpt lat="42.44667667" lon="1.50789167">
        <ele>1493.0</ele>
        <time>2019-08-04T09:56:44.317Z</time>
      </trkpt>
      <trkpt lat="42.446715" lon="1.50795333">
        <ele>1493.0</ele>
        <time>2019-08-04T09:56:45.308Z</time>
      </trkpt>
      <trkpt lat="42.446715" lon="1.50795333">
        <ele>1493.0</ele>
        <time>2019-08-04T09:56:46.301Z</time>
      </trkpt>
      <trkpt lat="42.44675333" lon="1.50800667">
        <ele>1493.0</ele>
        <time>2019-08-04T09:56:47.321Z</time>
      </trkpt>
      <trkpt lat="42.44677167" lon="1.50803">
        <ele>1493.0</ele>
        <time>2019-08-04T09:56:48.311Z</time>
      </trkpt>
      <trkpt lat="42.44679167" lon="1.50805333">
        <ele>1493.0</ele>
        <time>2019-08-04T09:56:49.332Z</time>
      </trkpt>
      <trkpt lat="42.44679167" lon="1.50805333">
        <ele>1493.0</ele>
        <time>2019-08-04T09:56:50.300Z</time>
      </trkpt>
      <trkpt lat="42.44683" lon="1.50809333">
        <ele>1493.0</ele>
        <time>2019-08-04T09:56:51.322Z</time>
      </trkpt>
      <trkpt lat="42.44683" lon="1.50809333">
        <ele>1493.0</ele>
        <time>2019-08-04T09:56:52.318Z</time>
      </trkpt>
      <trkpt lat="42.44687" lon="1.50812833">
        <ele>1493.0</ele>
        <time>2019-08-04T09:56:53.331Z</time>
      </trkpt>
      <trkpt lat="42.44689333" lon="1.508155">
        <ele>1494.0</ele>
        <time>2019-08-04T09:56:54.321Z</time>
      </trkpt>
      <trkpt lat="42.44691833" lon="1.50818">
        <ele>1494.0</ele>
        <time>2019-08-04T09:56:55.333Z</time>
      </trkpt>
      <trkpt lat="42.44691833" lon="1.50818">
        <ele>1494.0</ele>
        <time>2019-08-04T09:56:56.317Z</time>
      </trkpt>
      <trkpt lat="42.44697" lon="1.50823">
        <ele>1494.0</ele>
        <time>2019-08-04T09:56:57.300Z</time>
      </trkpt>
      <trkpt lat="42.44697" lon="1.50823">
        <ele>1494.0</ele>
        <time>2019-08-04T09:56:58.321Z</time>
      </trkpt>
      <trkpt lat="42.44702833" lon="1.508275">
        <ele>1494.0</ele>
        <time>2019-08-04T09:56:59.322Z</time>
      </trkpt>
      <trkpt lat="42.44702833" lon="1.508275">
        <ele>1494.0</ele>
        <time>2019-08-04T09:57:00.312Z</time>
      </trkpt>
      <trkpt lat="42.44708" lon="1.50831333">
        <ele>1495.0</ele>
        <time>2019-08-04T09:57:01.332Z</time>
      </trkpt>
      <trkpt lat="42.44708" lon="1.50831333">
        <ele>1495.0</ele>
        <time>2019-08-04T09:57:02.315Z</time>
      </trkpt>
      <trkpt lat="42.44712833" lon="1.50834167">
        <ele>1495.0</ele>
        <time>2019-08-04T09:57:03.300Z</time>
      </trkpt>
      <trkpt lat="42.44712833" lon="1.50834167">
        <ele>1495.0</ele>
        <time>2019-08-04T09:57:04.321Z</time>
      </trkpt>
      <trkpt lat="42.44717667" lon="1.50836333">
        <ele>1495.0</ele>
        <time>2019-08-04T09:57:05.302Z</time>
      </trkpt>
      <trkpt lat="42.44717667" lon="1.50836333">
        <ele>1495.0</ele>
        <time>2019-08-04T09:57:06.322Z</time>
      </trkpt>
      <trkpt lat="42.44722833" lon="1.50838167">
        <ele>1495.0</ele>
        <time>2019-08-04T09:57:07.324Z</time>
      </trkpt>
      <trkpt lat="42.44722833" lon="1.50838167">
        <ele>1495.0</ele>
        <time>2019-08-04T09:57:08.317Z</time>
      </trkpt>
      <trkpt lat="42.44728" lon="1.50839833">
        <ele>1496.0</ele>
        <time>2019-08-04T09:57:09.321Z</time>
      </trkpt>
      <trkpt lat="42.44728" lon="1.50839833">
        <ele>1496.0</ele>
        <time>2019-08-04T09:57:10.301Z</time>
      </trkpt>
      <trkpt lat="42.44733667" lon="1.508415">
        <ele>1496.0</ele>
        <time>2019-08-04T09:57:11.323Z</time>
      </trkpt>
      <trkpt lat="42.44733667" lon="1.508415">
        <ele>1496.0</ele>
        <time>2019-08-04T09:57:12.319Z</time>
      </trkpt>
      <trkpt lat="42.44739667" lon="1.50843333">
        <ele>1495.0</ele>
        <time>2019-08-04T09:57:13.301Z</time>
      </trkpt>
      <trkpt lat="42.44739667" lon="1.50843333">
        <ele>1495.0</ele>
        <time>2019-08-04T09:57:14.321Z</time>
      </trkpt>
      <trkpt lat="42.44745833" lon="1.50844667">
        <ele>1496.0</ele>
        <time>2019-08-04T09:57:15.300Z</time>
      </trkpt>
      <trkpt lat="42.44745833" lon="1.50844667">
        <ele>1496.0</ele>
        <time>2019-08-04T09:57:16.319Z</time>
      </trkpt>
      <trkpt lat="42.44751333" lon="1.50846">
        <ele>1496.0</ele>
        <time>2019-08-04T09:57:17.321Z</time>
      </trkpt>
      <trkpt lat="42.44751333" lon="1.50846">
        <ele>1496.0</ele>
        <time>2019-08-04T09:57:18.302Z</time>
      </trkpt>
      <trkpt lat="42.44756" lon="1.50847667">
        <ele>1496.0</ele>
        <time>2019-08-04T09:57:19.323Z</time>
      </trkpt>
      <trkpt lat="42.44756" lon="1.50847667">
        <ele>1496.0</ele>
        <time>2019-08-04T09:57:20.328Z</time>
      </trkpt>
      <trkpt lat="42.44761167" lon="1.50849667">
        <ele>1497.0</ele>
        <time>2019-08-04T09:57:21.335Z</time>
      </trkpt>
      <trkpt lat="42.44761167" lon="1.50849667">
        <ele>1497.0</ele>
        <time>2019-08-04T09:57:22.319Z</time>
      </trkpt>
      <trkpt lat="42.44766333" lon="1.50851333">
        <ele>1498.0</ele>
        <time>2019-08-04T09:57:23.324Z</time>
      </trkpt>
      <trkpt lat="42.44766333" lon="1.50851333">
        <ele>1498.0</ele>
        <time>2019-08-04T09:57:24.318Z</time>
      </trkpt>
      <trkpt lat="42.44771167" lon="1.50854">
        <ele>1498.0</ele>
        <time>2019-08-04T09:57:25.311Z</time>
      </trkpt>
      <trkpt lat="42.44771167" lon="1.50854">
        <ele>1498.0</ele>
        <time>2019-08-04T09:57:26.332Z</time>
      </trkpt>
      <trkpt lat="42.44776167" lon="1.50858333">
        <ele>1498.0</ele>
        <time>2019-08-04T09:57:27.322Z</time>
      </trkpt>
      <trkpt lat="42.44776167" lon="1.50858333">
        <ele>1498.0</ele>
        <time>2019-08-04T09:57:28.316Z</time>
      </trkpt>
      <trkpt lat="42.44779667" lon="1.50864333">
        <ele>1499.0</ele>
        <time>2019-08-04T09:57:29.321Z</time>
      </trkpt>
      <trkpt lat="42.44780667" lon="1.50868">
        <ele>1499.0</ele>
        <time>2019-08-04T09:57:30.332Z</time>
      </trkpt>
      <trkpt lat="42.44780833" lon="1.50871167">
        <ele>1500.0</ele>
        <time>2019-08-04T09:57:31.322Z</time>
      </trkpt>
      <trkpt lat="42.44780833" lon="1.50871167">
        <ele>1500.0</ele>
        <time>2019-08-04T09:57:32.308Z</time>
      </trkpt>
      <trkpt lat="42.447805" lon="1.50878">
        <ele>1500.0</ele>
        <time>2019-08-04T09:57:33.330Z</time>
      </trkpt>
      <trkpt lat="42.447805" lon="1.50878">
        <ele>1500.0</ele>
        <time>2019-08-04T09:57:34.318Z</time>
      </trkpt>
      <trkpt lat="42.44777667" lon="1.50884">
        <ele>1501.0</ele>
        <time>2019-08-04T09:57:35.308Z</time>
      </trkpt>
      <trkpt lat="42.44777667" lon="1.50884">
        <ele>1501.0</ele>
        <time>2019-08-04T09:57:36.328Z</time>
      </trkpt>
      <trkpt lat="42.44773833" lon="1.50889667">
        <ele>1501.0</ele>
        <time>2019-08-04T09:57:37.324Z</time>
      </trkpt>
      <trkpt lat="42.44773833" lon="1.50889667">
        <ele>1501.0</ele>
        <time>2019-08-04T09:57:38.315Z</time>
      </trkpt>
      <trkpt lat="42.44769833" lon="1.508945">
        <ele>1502.0</ele>
        <time>2019-08-04T09:57:39.335Z</time>
      </trkpt>
      <trkpt lat="42.44769833" lon="1.508945">
        <ele>1502.0</ele>
        <time>2019-08-04T09:57:40.331Z</time>
      </trkpt>
      <trkpt lat="42.44765167" lon="1.50897833">
        <ele>1502.0</ele>
        <time>2019-08-04T09:57:41.320Z</time>
      </trkpt>
      <trkpt lat="42.44765167" lon="1.50897833">
        <ele>1502.0</ele>
        <time>2019-08-04T09:57:42.313Z</time>
      </trkpt>
      <trkpt lat="42.44760333" lon="1.50900833">
        <ele>1503.0</ele>
        <time>2019-08-04T09:57:43.334Z</time>
      </trkpt>
      <trkpt lat="42.44760333" lon="1.50900833">
        <ele>1503.0</ele>
        <time>2019-08-04T09:57:44.318Z</time>
      </trkpt>
      <trkpt lat="42.447555" lon="1.50903333">
        <ele>1503.0</ele>
        <time>2019-08-04T09:57:45.300Z</time>
      </trkpt>
      <trkpt lat="42.447555" lon="1.50903333">
        <ele>1503.0</ele>
        <time>2019-08-04T09:57:46.321Z</time>
      </trkpt>
      <trkpt lat="42.44750333" lon="1.50904833">
        <ele>1504.0</ele>
        <time>2019-08-04T09:57:47.318Z</time>
      </trkpt>
      <trkpt lat="42.44750333" lon="1.50904833">
        <ele>1504.0</ele>
        <time>2019-08-04T09:57:48.320Z</time>
      </trkpt>
      <trkpt lat="42.44745167" lon="1.50906">
        <ele>1504.0</ele>
        <time>2019-08-04T09:57:49.301Z</time>
      </trkpt>
      <trkpt lat="42.44745167" lon="1.50906">
        <ele>1504.0</ele>
        <time>2019-08-04T09:57:50.323Z</time>
      </trkpt>
      <trkpt lat="42.44739333" lon="1.50906">
        <ele>1505.0</ele>
        <time>2019-08-04T09:57:51.318Z</time>
      </trkpt>
      <trkpt lat="42.44739333" lon="1.50906">
        <ele>1505.0</ele>
        <time>2019-08-04T09:57:52.318Z</time>
      </trkpt>
      <trkpt lat="42.44734167" lon="1.50905833">
        <ele>1506.0</ele>
        <time>2019-08-04T09:57:53.321Z</time>
      </trkpt>
      <trkpt lat="42.447315" lon="1.50905">
        <ele>1506.0</ele>
        <time>2019-08-04T09:57:54.321Z</time>
      </trkpt>
      <trkpt lat="42.44729" lon="1.509045">
        <ele>1506.0</ele>
        <time>2019-08-04T09:57:55.308Z</time>
      </trkpt>
      <trkpt lat="42.44729" lon="1.509045">
        <ele>1506.0</ele>
        <time>2019-08-04T09:57:56.328Z</time>
      </trkpt>
      <trkpt lat="42.44724333" lon="1.509035">
        <ele>1507.0</ele>
        <time>2019-08-04T09:57:57.322Z</time>
      </trkpt>
      <trkpt lat="42.44724333" lon="1.509035">
        <ele>1507.0</ele>
        <time>2019-08-04T09:57:58.319Z</time>
      </trkpt>
      <trkpt lat="42.44719667" lon="1.50901667">
        <ele>1507.0</ele>
        <time>2019-08-04T09:57:59.323Z</time>
      </trkpt>
      <trkpt lat="42.44719667" lon="1.50901667">
        <ele>1507.0</ele>
        <time>2019-08-04T09:58:00.319Z</time>
      </trkpt>
      <trkpt lat="42.44714833" lon="1.50899">
        <ele>1508.0</ele>
        <time>2019-08-04T09:58:01.335Z</time>
      </trkpt>
      <trkpt lat="42.44714833" lon="1.50899">
        <ele>1508.0</ele>
        <time>2019-08-04T09:58:02.300Z</time>
      </trkpt>
      <trkpt lat="42.44709667" lon="1.50897">
        <ele>1509.0</ele>
        <time>2019-08-04T09:58:03.322Z</time>
      </trkpt>
      <trkpt lat="42.44709667" lon="1.50897">
        <ele>1509.0</ele>
        <time>2019-08-04T09:58:04.318Z</time>
      </trkpt>
      <trkpt lat="42.44704667" lon="1.508945">
        <ele>1509.0</ele>
        <time>2019-08-04T09:58:05.300Z</time>
      </trkpt>
      <trkpt lat="42.447025" lon="1.50893">
        <ele>1510.0</ele>
        <time>2019-08-04T09:58:06.325Z</time>
      </trkpt>
      <trkpt lat="42.447025" lon="1.50893">
        <ele>1510.0</ele>
        <time>2019-08-04T09:58:07.330Z</time>
      </trkpt>
      <trkpt lat="42.44697833" lon="1.50890833">
        <ele>1511.0</ele>
        <time>2019-08-04T09:58:08.321Z</time>
      </trkpt>
      <trkpt lat="42.44695333" lon="1.50889333">
        <ele>1511.0</ele>
        <time>2019-08-04T09:58:09.323Z</time>
      </trkpt>
      <trkpt lat="42.44695333" lon="1.50889333">
        <ele>1511.0</ele>
        <time>2019-08-04T09:58:10.320Z</time>
      </trkpt>
      <trkpt lat="42.446905" lon="1.50886167">
        <ele>1512.0</ele>
        <time>2019-08-04T09:58:11.330Z</time>
      </trkpt>
      <trkpt lat="42.446905" lon="1.50886167">
        <ele>1512.0</ele>
        <time>2019-08-04T09:58:12.319Z</time>
      </trkpt>
      <trkpt lat="42.446855" lon="1.50882333">
        <ele>1513.0</ele>
        <time>2019-08-04T09:58:13.302Z</time>
      </trkpt>
      <trkpt lat="42.446855" lon="1.50882333">
        <ele>1513.0</ele>
        <time>2019-08-04T09:58:14.323Z</time>
      </trkpt>
      <trkpt lat="42.446805" lon="1.50878667">
        <ele>1514.0</ele>
        <time>2019-08-04T09:58:15.300Z</time>
      </trkpt>
      <trkpt lat="42.446805" lon="1.50878667">
        <ele>1514.0</ele>
        <time>2019-08-04T09:58:16.321Z</time>
      </trkpt>
      <trkpt lat="42.44675" lon="1.50873667">
        <ele>1515.0</ele>
        <time>2019-08-04T09:58:17.322Z</time>
      </trkpt>
      <trkpt lat="42.44675" lon="1.50873667">
        <ele>1515.0</ele>
        <time>2019-08-04T09:58:18.319Z</time>
      </trkpt>
      <trkpt lat="42.44668833" lon="1.50869167">
        <ele>1516.0</ele>
        <time>2019-08-04T09:58:19.324Z</time>
      </trkpt>
      <trkpt lat="42.44668833" lon="1.50869167">
        <ele>1516.0</ele>
        <time>2019-08-04T09:58:20.319Z</time>
      </trkpt>
      <trkpt lat="42.44662667" lon="1.50863833">
        <ele>1517.0</ele>
        <time>2019-08-04T09:58:21.323Z</time>
      </trkpt>
      <trkpt lat="42.44662667" lon="1.50863833">
        <ele>1517.0</ele>
        <time>2019-08-04T09:58:22.319Z</time>
      </trkpt>
      <trkpt lat="42.44657" lon="1.50858833">
        <ele>1518.0</ele>
        <time>2019-08-04T09:58:23.319Z</time>
      </trkpt>
      <trkpt lat="42.44657" lon="1.50858833">
        <ele>1518.0</ele>
        <time>2019-08-04T09:58:24.313Z</time>
      </trkpt>
      <trkpt lat="42.44651333" lon="1.50854167">
        <ele>1518.0</ele>
        <time>2019-08-04T09:58:25.335Z</time>
      </trkpt>
      <trkpt lat="42.44651333" lon="1.50854167">
        <ele>1518.0</ele>
        <time>2019-08-04T09:58:26.319Z</time>
      </trkpt>
      <trkpt lat="42.446455" lon="1.508485">
        <ele>1519.0</ele>
        <time>2019-08-04T09:58:27.322Z</time>
      </trkpt>
      <trkpt lat="42.446455" lon="1.508485">
        <ele>1519.0</ele>
        <time>2019-08-04T09:58:28.313Z</time>
      </trkpt>
      <trkpt lat="42.4464" lon="1.50843333">
        <ele>1520.0</ele>
        <time>2019-08-04T09:58:29.318Z</time>
      </trkpt>
      <trkpt lat="42.4464" lon="1.50843333">
        <ele>1520.0</ele>
        <time>2019-08-04T09:58:30.318Z</time>
      </trkpt>
      <trkpt lat="42.44634167" lon="1.50838333">
        <ele>1520.0</ele>
        <time>2019-08-04T09:58:31.307Z</time>
      </trkpt>
      <trkpt lat="42.44634167" lon="1.50838333">
        <ele>1520.0</ele>
        <time>2019-08-04T09:58:32.327Z</time>
      </trkpt>
      <trkpt lat="42.446285" lon="1.508335">
        <ele>1521.0</ele>
        <time>2019-08-04T09:58:33.321Z</time>
      </trkpt>
      <trkpt lat="42.44625333" lon="1.50830667">
        <ele>1522.0</ele>
        <time>2019-08-04T09:58:34.324Z</time>
      </trkpt>
      <trkpt lat="42.44622167" lon="1.50828333">
        <ele>1522.0</ele>
        <time>2019-08-04T09:58:35.304Z</time>
      </trkpt>
      <trkpt lat="42.44622167" lon="1.50828333">
        <ele>1522.0</ele>
        <time>2019-08-04T09:58:36.324Z</time>
      </trkpt>
      <trkpt lat="42.44616" lon="1.50823333">
        <ele>1523.0</ele>
        <time>2019-08-04T09:58:37.325Z</time>
      </trkpt>
      <trkpt lat="42.44616" lon="1.50823333">
        <ele>1523.0</ele>
        <time>2019-08-04T09:58:38.316Z</time>
      </trkpt>
      <trkpt lat="42.4461" lon="1.508185">
        <ele>1523.0</ele>
        <time>2019-08-04T09:58:39.297Z</time>
      </trkpt>
      <trkpt lat="42.4461" lon="1.508185">
        <ele>1523.0</ele>
        <time>2019-08-04T09:58:40.319Z</time>
      </trkpt>
      <trkpt lat="42.44604" lon="1.50813667">
        <ele>1524.0</ele>
        <time>2019-08-04T09:58:41.320Z</time>
      </trkpt>
      <trkpt lat="42.44604" lon="1.50813667">
        <ele>1524.0</ele>
        <time>2019-08-04T09:58:42.315Z</time>
      </trkpt>
      <trkpt lat="42.445975" lon="1.508085">
        <ele>1525.0</ele>
        <time>2019-08-04T09:58:43.300Z</time>
      </trkpt>
      <trkpt lat="42.445975" lon="1.508085">
        <ele>1525.0</ele>
        <time>2019-08-04T09:58:44.319Z</time>
      </trkpt>
      <trkpt lat="42.445915" lon="1.50803667">
        <ele>1525.0</ele>
        <time>2019-08-04T09:58:45.302Z</time>
      </trkpt>
      <trkpt lat="42.445915" lon="1.50803667">
        <ele>1525.0</ele>
        <time>2019-08-04T09:58:46.322Z</time>
      </trkpt>
      <trkpt lat="42.44586" lon="1.507995">
        <ele>1526.0</ele>
        <time>2019-08-04T09:58:47.321Z</time>
      </trkpt>
      <trkpt lat="42.44586" lon="1.507995">
        <ele>1526.0</ele>
        <time>2019-08-04T09:58:48.331Z</time>
      </trkpt>
      <trkpt lat="42.44580167" lon="1.50795167">
        <ele>1527.0</ele>
        <time>2019-08-04T09:58:49.325Z</time>
      </trkpt>
      <trkpt lat="42.44580167" lon="1.50795167">
        <ele>1527.0</ele>
        <time>2019-08-04T09:58:50.320Z</time>
      </trkpt>
      <trkpt lat="42.44574667" lon="1.50791333">
        <ele>1527.0</ele>
        <time>2019-08-04T09:58:51.313Z</time>
      </trkpt>
      <trkpt lat="42.44571833" lon="1.50789167">
        <ele>1528.0</ele>
        <time>2019-08-04T09:58:52.301Z</time>
      </trkpt>
      <trkpt lat="42.44571833" lon="1.50789167">
        <ele>1528.0</ele>
        <time>2019-08-04T09:58:53.322Z</time>
      </trkpt>
      <trkpt lat="42.445655" lon="1.50784833">
        <ele>1528.0</ele>
        <time>2019-08-04T09:58:54.322Z</time>
      </trkpt>
      <trkpt lat="42.445655" lon="1.50784833">
        <ele>1528.0</ele>
        <time>2019-08-04T09:58:55.301Z</time>
      </trkpt>
      <trkpt lat="42.44559167" lon="1.507805">
        <ele>1529.0</ele>
        <time>2019-08-04T09:58:56.322Z</time>
      </trkpt>
      <trkpt lat="42.44556167" lon="1.50778333">
        <ele>1529.0</ele>
        <time>2019-08-04T09:58:57.323Z</time>
      </trkpt>
      <trkpt lat="42.44556167" lon="1.50778333">
        <ele>1529.0</ele>
        <time>2019-08-04T09:58:58.316Z</time>
      </trkpt>
      <trkpt lat="42.445495" lon="1.507735">
        <ele>1530.0</ele>
        <time>2019-08-04T09:58:59.296Z</time>
      </trkpt>
      <trkpt lat="42.445495" lon="1.507735">
        <ele>1530.0</ele>
        <time>2019-08-04T09:59:00.318Z</time>
      </trkpt>
      <trkpt lat="42.44542833" lon="1.50768333">
        <ele>1530.0</ele>
        <time>2019-08-04T09:59:01.302Z</time>
      </trkpt>
      <trkpt lat="42.44542833" lon="1.50768333">
        <ele>1530.0</ele>
        <time>2019-08-04T09:59:02.322Z</time>
      </trkpt>
      <trkpt lat="42.44536667" lon="1.50763">
        <ele>1531.0</ele>
        <time>2019-08-04T09:59:03.302Z</time>
      </trkpt>
      <trkpt lat="42.44536667" lon="1.50763">
        <ele>1531.0</ele>
        <time>2019-08-04T09:59:04.322Z</time>
      </trkpt>
      <trkpt lat="42.44529833" lon="1.50757333">
        <ele>1531.0</ele>
        <time>2019-08-04T09:59:05.301Z</time>
      </trkpt>
      <trkpt lat="42.44529833" lon="1.50757333">
        <ele>1531.0</ele>
        <time>2019-08-04T09:59:06.321Z</time>
      </trkpt>
      <trkpt lat="42.44523" lon="1.50751667">
        <ele>1532.0</ele>
        <time>2019-08-04T09:59:07.322Z</time>
      </trkpt>
      <trkpt lat="42.44523" lon="1.50751667">
        <ele>1532.0</ele>
        <time>2019-08-04T09:59:08.318Z</time>
      </trkpt>
      <trkpt lat="42.44516333" lon="1.50745833">
        <ele>1532.0</ele>
        <time>2019-08-04T09:59:09.301Z</time>
      </trkpt>
      <trkpt lat="42.44516333" lon="1.50745833">
        <ele>1532.0</ele>
        <time>2019-08-04T09:59:10.322Z</time>
      </trkpt>
      <trkpt lat="42.44509667" lon="1.5074">
        <ele>1533.0</ele>
        <time>2019-08-04T09:59:11.324Z</time>
      </trkpt>
      <trkpt lat="42.44509667" lon="1.5074">
        <ele>1533.0</ele>
        <time>2019-08-04T09:59:12.319Z</time>
      </trkpt>
      <trkpt lat="42.44503167" lon="1.50734167">
        <ele>1533.0</ele>
        <time>2019-08-04T09:59:13.302Z</time>
      </trkpt>
      <trkpt lat="42.44503167" lon="1.50734167">
        <ele>1533.0</ele>
        <time>2019-08-04T09:59:14.322Z</time>
      </trkpt>
      <trkpt lat="42.44496667" lon="1.50728167">
        <ele>1534.0</ele>
        <time>2019-08-04T09:59:15.307Z</time>
      </trkpt>
      <trkpt lat="42.44496667" lon="1.50728167">
        <ele>1534.0</ele>
        <time>2019-08-04T09:59:16.335Z</time>
      </trkpt>
      <trkpt lat="42.44490833" lon="1.50721667">
        <ele>1535.0</ele>
        <time>2019-08-04T09:59:17.322Z</time>
      </trkpt>
      <trkpt lat="42.44490833" lon="1.50721667">
        <ele>1535.0</ele>
        <time>2019-08-04T09:59:18.319Z</time>
      </trkpt>
      <trkpt lat="42.444855" lon="1.50714833">
        <ele>1535.0</ele>
        <time>2019-08-04T09:59:19.302Z</time>
      </trkpt>
      <trkpt lat="42.444855" lon="1.50714833">
        <ele>1535.0</ele>
        <time>2019-08-04T09:59:20.322Z</time>
      </trkpt>
      <trkpt lat="42.44481167" lon="1.50706833">
        <ele>1536.0</ele>
        <time>2019-08-04T09:59:21.327Z</time>
      </trkpt>
      <trkpt lat="42.44481167" lon="1.50706833">
        <ele>1536.0</ele>
        <time>2019-08-04T09:59:22.319Z</time>
      </trkpt>
      <trkpt lat="42.44477333" lon="1.506975">
        <ele>1537.0</ele>
        <time>2019-08-04T09:59:23.301Z</time>
      </trkpt>
      <trkpt lat="42.44477333" lon="1.506975">
        <ele>1537.0</ele>
        <time>2019-08-04T09:59:24.322Z</time>
      </trkpt>
      <trkpt lat="42.44474333" lon="1.506875">
        <ele>1537.0</ele>
        <time>2019-08-04T09:59:25.301Z</time>
      </trkpt>
      <trkpt lat="42.44474333" lon="1.506875">
        <ele>1537.0</ele>
        <time>2019-08-04T09:59:26.321Z</time>
      </trkpt>
      <trkpt lat="42.44472333" lon="1.50678">
        <ele>1538.0</ele>
        <time>2019-08-04T09:59:27.322Z</time>
      </trkpt>
      <trkpt lat="42.44472333" lon="1.50678">
        <ele>1538.0</ele>
        <time>2019-08-04T09:59:28.304Z</time>
      </trkpt>
      <trkpt lat="42.44471" lon="1.50669">
        <ele>1538.0</ele>
        <time>2019-08-04T09:59:29.322Z</time>
      </trkpt>
      <trkpt lat="42.44471" lon="1.50669">
        <ele>1538.0</ele>
        <time>2019-08-04T09:59:30.319Z</time>
      </trkpt>
      <trkpt lat="42.44469333" lon="1.506595">
        <ele>1539.0</ele>
        <time>2019-08-04T09:59:31.303Z</time>
      </trkpt>
      <trkpt lat="42.44469333" lon="1.506595">
        <ele>1539.0</ele>
        <time>2019-08-04T09:59:32.325Z</time>
      </trkpt>
      <trkpt lat="42.44468" lon="1.50649667">
        <ele>1540.0</ele>
        <time>2019-08-04T09:59:33.332Z</time>
      </trkpt>
      <trkpt lat="42.444675" lon="1.506445">
        <ele>1540.0</ele>
        <time>2019-08-04T09:59:34.322Z</time>
      </trkpt>
      <trkpt lat="42.44467" lon="1.50639333">
        <ele>1541.0</ele>
        <time>2019-08-04T09:59:35.303Z</time>
      </trkpt>
      <trkpt lat="42.44467" lon="1.50639333">
        <ele>1541.0</ele>
        <time>2019-08-04T09:59:36.324Z</time>
      </trkpt>
      <trkpt lat="42.44466333" lon="1.50629333">
        <ele>1542.0</ele>
        <time>2019-08-04T09:59:37.325Z</time>
      </trkpt>
      <trkpt lat="42.44466333" lon="1.50629333">
        <ele>1542.0</ele>
        <time>2019-08-04T09:59:38.323Z</time>
      </trkpt>
      <trkpt lat="42.44466167" lon="1.506195">
        <ele>1542.0</ele>
        <time>2019-08-04T09:59:39.324Z</time>
      </trkpt>
      <trkpt lat="42.44466167" lon="1.506195">
        <ele>1542.0</ele>
        <time>2019-08-04T09:59:40.320Z</time>
      </trkpt>
      <trkpt lat="42.444655" lon="1.5061">
        <ele>1543.0</ele>
        <time>2019-08-04T09:59:41.321Z</time>
      </trkpt>
      <trkpt lat="42.444655" lon="1.5061">
        <ele>1543.0</ele>
        <time>2019-08-04T09:59:42.314Z</time>
      </trkpt>
      <trkpt lat="42.44464167" lon="1.506005">
        <ele>1544.0</ele>
        <time>2019-08-04T09:59:43.296Z</time>
      </trkpt>
      <trkpt lat="42.44464167" lon="1.506005">
        <ele>1544.0</ele>
        <time>2019-08-04T09:59:44.319Z</time>
      </trkpt>
      <trkpt lat="42.44462167" lon="1.50590667">
        <ele>1544.0</ele>
        <time>2019-08-04T09:59:45.336Z</time>
      </trkpt>
      <trkpt lat="42.44462167" lon="1.50590667">
        <ele>1544.0</ele>
        <time>2019-08-04T09:59:46.317Z</time>
      </trkpt>
      <trkpt lat="42.44459667" lon="1.50581333">
        <ele>1545.0</ele>
        <time>2019-08-04T09:59:47.297Z</time>
      </trkpt>
      <trkpt lat="42.44459667" lon="1.50581333">
        <ele>1545.0</ele>
        <time>2019-08-04T09:59:48.324Z</time>
      </trkpt>
      <trkpt lat="42.44457" lon="1.505725">
        <ele>1546.0</ele>
        <time>2019-08-04T09:59:49.325Z</time>
      </trkpt>
      <trkpt lat="42.444555" lon="1.50567667">
        <ele>1546.0</ele>
        <time>2019-08-04T09:59:50.330Z</time>
      </trkpt>
      <trkpt lat="42.444555" lon="1.50567667">
        <ele>1546.0</ele>
        <time>2019-08-04T09:59:51.327Z</time>
      </trkpt>
      <trkpt lat="42.444525" lon="1.50558">
        <ele>1546.0</ele>
        <time>2019-08-04T09:59:52.309Z</time>
      </trkpt>
      <trkpt lat="42.444525" lon="1.50558">
        <ele>1546.0</ele>
        <time>2019-08-04T09:59:53.324Z</time>
      </trkpt>
      <trkpt lat="42.44449667" lon="1.50548333">
        <ele>1546.0</ele>
        <time>2019-08-04T09:59:54.300Z</time>
      </trkpt>
      <trkpt lat="42.44448333" lon="1.50544">
        <ele>1546.0</ele>
        <time>2019-08-04T09:59:55.307Z</time>
      </trkpt>
      <trkpt lat="42.44448333" lon="1.50544">
        <ele>1546.0</ele>
        <time>2019-08-04T09:59:56.323Z</time>
      </trkpt>
      <trkpt lat="42.44445833" lon="1.505345">
        <ele>1547.0</ele>
        <time>2019-08-04T09:59:57.300Z</time>
      </trkpt>
      <trkpt lat="42.44444833" lon="1.50529333">
        <ele>1547.0</ele>
        <time>2019-08-04T09:59:58.315Z</time>
      </trkpt>
      <trkpt lat="42.44444833" lon="1.50529333">
        <ele>1547.0</ele>
        <time>2019-08-04T09:59:59.322Z</time>
      </trkpt>
      <trkpt lat="42.44443833" lon="1.50519833">
        <ele>1547.0</ele>
        <time>2019-08-04T10:00:00.297Z</time>
      </trkpt>
      <trkpt lat="42.444435" lon="1.50515333">
        <ele>1548.0</ele>
        <time>2019-08-04T10:00:01.313Z</time>
      </trkpt>
      <trkpt lat="42.444435" lon="1.50515333">
        <ele>1548.0</ele>
        <time>2019-08-04T10:00:02.319Z</time>
      </trkpt>
      <trkpt lat="42.444425" lon="1.50506167">
        <ele>1548.0</ele>
        <time>2019-08-04T10:00:03.325Z</time>
      </trkpt>
      <trkpt lat="42.44442333" lon="1.50501667">
        <ele>1548.0</ele>
        <time>2019-08-04T10:00:04.322Z</time>
      </trkpt>
      <trkpt lat="42.44442333" lon="1.50501667">
        <ele>1548.0</ele>
        <time>2019-08-04T10:00:05.317Z</time>
      </trkpt>
      <trkpt lat="42.44442333" lon="1.50492333">
        <ele>1549.0</ele>
        <time>2019-08-04T10:00:06.302Z</time>
      </trkpt>
      <trkpt lat="42.444425" lon="1.50488">
        <ele>1549.0</ele>
        <time>2019-08-04T10:00:07.325Z</time>
      </trkpt>
      <trkpt lat="42.444425" lon="1.50488">
        <ele>1549.0</ele>
        <time>2019-08-04T10:00:08.318Z</time>
      </trkpt>
      <trkpt lat="42.44442167" lon="1.50477167">
        <ele>1550.0</ele>
        <time>2019-08-04T10:00:09.323Z</time>
      </trkpt>
      <trkpt lat="42.44442167" lon="1.50477167">
        <ele>1550.0</ele>
        <time>2019-08-04T10:00:10.321Z</time>
      </trkpt>
      <trkpt lat="42.44442" lon="1.50466333">
        <ele>1551.0</ele>
        <time>2019-08-04T10:00:11.322Z</time>
      </trkpt>
      <trkpt lat="42.44442" lon="1.50466333">
        <ele>1551.0</ele>
        <time>2019-08-04T10:00:12.318Z</time>
      </trkpt>
      <trkpt lat="42.444425" lon="1.50456333">
        <ele>1551.0</ele>
        <time>2019-08-04T10:00:13.302Z</time>
      </trkpt>
      <trkpt lat="42.444425" lon="1.50456333">
        <ele>1551.0</ele>
        <time>2019-08-04T10:00:14.322Z</time>
      </trkpt>
      <trkpt lat="42.44443" lon="1.50446">
        <ele>1552.0</ele>
        <time>2019-08-04T10:00:15.304Z</time>
      </trkpt>
      <trkpt lat="42.44443" lon="1.50446">
        <ele>1552.0</ele>
        <time>2019-08-04T10:00:16.324Z</time>
      </trkpt>
      <trkpt lat="42.44442833" lon="1.504355">
        <ele>1552.0</ele>
        <time>2019-08-04T10:00:17.301Z</time>
      </trkpt>
      <trkpt lat="42.44442333" lon="1.5043">
        <ele>1553.0</ele>
        <time>2019-08-04T10:00:18.320Z</time>
      </trkpt>
      <trkpt lat="42.44442333" lon="1.5043">
        <ele>1553.0</ele>
        <time>2019-08-04T10:00:19.302Z</time>
      </trkpt>
      <trkpt lat="42.44440667" lon="1.50418333">
        <ele>1553.0</ele>
        <time>2019-08-04T10:00:20.324Z</time>
      </trkpt>
      <trkpt lat="42.44440167" lon="1.50413167">
        <ele>1554.0</ele>
        <time>2019-08-04T10:00:21.324Z</time>
      </trkpt>
      <trkpt lat="42.44440167" lon="1.50413167">
        <ele>1554.0</ele>
        <time>2019-08-04T10:00:22.321Z</time>
      </trkpt>
      <trkpt lat="42.44439333" lon="1.50402333">
        <ele>1554.0</ele>
        <time>2019-08-04T10:00:23.323Z</time>
      </trkpt>
      <trkpt lat="42.44439333" lon="1.50402333">
        <ele>1554.0</ele>
        <time>2019-08-04T10:00:24.319Z</time>
      </trkpt>
      <trkpt lat="42.44438833" lon="1.50391667">
        <ele>1555.0</ele>
        <time>2019-08-04T10:00:25.303Z</time>
      </trkpt>
      <trkpt lat="42.44438833" lon="1.50391667">
        <ele>1555.0</ele>
        <time>2019-08-04T10:00:26.323Z</time>
      </trkpt>
      <trkpt lat="42.444375" lon="1.503815">
        <ele>1556.0</ele>
        <time>2019-08-04T10:00:27.319Z</time>
      </trkpt>
      <trkpt lat="42.444375" lon="1.503815">
        <ele>1556.0</ele>
        <time>2019-08-04T10:00:28.319Z</time>
      </trkpt>
      <trkpt lat="42.44436333" lon="1.50371167">
        <ele>1557.0</ele>
        <time>2019-08-04T10:00:29.332Z</time>
      </trkpt>
      <trkpt lat="42.44436333" lon="1.50371167">
        <ele>1557.0</ele>
        <time>2019-08-04T10:00:30.319Z</time>
      </trkpt>
      <trkpt lat="42.44434" lon="1.50361833">
        <ele>1557.0</ele>
        <time>2019-08-04T10:00:31.328Z</time>
      </trkpt>
      <trkpt lat="42.44434" lon="1.50361833">
        <ele>1557.0</ele>
        <time>2019-08-04T10:00:32.319Z</time>
      </trkpt>
      <trkpt lat="42.444315" lon="1.50352">
        <ele>1558.0</ele>
        <time>2019-08-04T10:00:33.301Z</time>
      </trkpt>
      <trkpt lat="42.444315" lon="1.50352">
        <ele>1558.0</ele>
        <time>2019-08-04T10:00:34.321Z</time>
      </trkpt>
      <trkpt lat="42.44428667" lon="1.50342333">
        <ele>1559.0</ele>
        <time>2019-08-04T10:00:35.304Z</time>
      </trkpt>
      <trkpt lat="42.44428667" lon="1.50342333">
        <ele>1559.0</ele>
        <time>2019-08-04T10:00:36.325Z</time>
      </trkpt>
      <trkpt lat="42.44426" lon="1.50332667">
        <ele>1560.0</ele>
        <time>2019-08-04T10:00:37.324Z</time>
      </trkpt>
      <trkpt lat="42.44426" lon="1.50332667">
        <ele>1560.0</ele>
        <time>2019-08-04T10:00:38.322Z</time>
      </trkpt>
      <trkpt lat="42.44422667" lon="1.503225">
        <ele>1560.0</ele>
        <time>2019-08-04T10:00:39.319Z</time>
      </trkpt>
      <trkpt lat="42.44422667" lon="1.503225">
        <ele>1560.0</ele>
        <time>2019-08-04T10:00:40.321Z</time>
      </trkpt>
      <trkpt lat="42.44420167" lon="1.503125">
        <ele>1561.0</ele>
        <time>2019-08-04T10:00:41.320Z</time>
      </trkpt>
      <trkpt lat="42.44420167" lon="1.503125">
        <ele>1561.0</ele>
        <time>2019-08-04T10:00:42.301Z</time>
      </trkpt>
      <trkpt lat="42.44417333" lon="1.50302667">
        <ele>1561.0</ele>
        <time>2019-08-04T10:00:43.333Z</time>
      </trkpt>
      <trkpt lat="42.44417333" lon="1.50302667">
        <ele>1561.0</ele>
        <time>2019-08-04T10:00:44.319Z</time>
      </trkpt>
      <trkpt lat="42.44414667" lon="1.50293167">
        <ele>1562.0</ele>
        <time>2019-08-04T10:00:45.301Z</time>
      </trkpt>
      <trkpt lat="42.44414667" lon="1.50293167">
        <ele>1562.0</ele>
        <time>2019-08-04T10:00:46.322Z</time>
      </trkpt>
      <trkpt lat="42.44412167" lon="1.50284">
        <ele>1562.0</ele>
        <time>2019-08-04T10:00:47.322Z</time>
      </trkpt>
      <trkpt lat="42.44412167" lon="1.50284">
        <ele>1562.0</ele>
        <time>2019-08-04T10:00:48.326Z</time>
      </trkpt>
      <trkpt lat="42.44409" lon="1.50274667">
        <ele>1563.0</ele>
        <time>2019-08-04T10:00:49.326Z</time>
      </trkpt>
      <trkpt lat="42.44409" lon="1.50274667">
        <ele>1563.0</ele>
        <time>2019-08-04T10:00:50.321Z</time>
      </trkpt>
      <trkpt lat="42.44405333" lon="1.50265667">
        <ele>1563.0</ele>
        <time>2019-08-04T10:00:51.323Z</time>
      </trkpt>
      <trkpt lat="42.44405333" lon="1.50265667">
        <ele>1563.0</ele>
        <time>2019-08-04T10:00:52.320Z</time>
      </trkpt>
      <trkpt lat="42.44401667" lon="1.50257">
        <ele>1564.0</ele>
        <time>2019-08-04T10:00:53.324Z</time>
      </trkpt>
      <trkpt lat="42.44401667" lon="1.50257">
        <ele>1564.0</ele>
        <time>2019-08-04T10:00:54.319Z</time>
      </trkpt>
      <trkpt lat="42.44397667" lon="1.50247667">
        <ele>1564.0</ele>
        <time>2019-08-04T10:00:55.302Z</time>
      </trkpt>
      <trkpt lat="42.44397667" lon="1.50247667">
        <ele>1564.0</ele>
        <time>2019-08-04T10:00:56.323Z</time>
      </trkpt>
      <trkpt lat="42.44393333" lon="1.50238667">
        <ele>1565.0</ele>
        <time>2019-08-04T10:00:57.324Z</time>
      </trkpt>
      <trkpt lat="42.44393333" lon="1.50238667">
        <ele>1565.0</ele>
        <time>2019-08-04T10:00:58.321Z</time>
      </trkpt>
      <trkpt lat="42.44388833" lon="1.502295">
        <ele>1565.0</ele>
        <time>2019-08-04T10:00:59.321Z</time>
      </trkpt>
      <trkpt lat="42.44388833" lon="1.502295">
        <ele>1565.0</ele>
        <time>2019-08-04T10:01:00.318Z</time>
      </trkpt>
      <trkpt lat="42.443845" lon="1.50220333">
        <ele>1566.0</ele>
        <time>2019-08-04T10:01:01.303Z</time>
      </trkpt>
      <trkpt lat="42.443845" lon="1.50220333">
        <ele>1566.0</ele>
        <time>2019-08-04T10:01:02.323Z</time>
      </trkpt>
      <trkpt lat="42.44379833" lon="1.50211667">
        <ele>1566.0</ele>
        <time>2019-08-04T10:01:03.302Z</time>
      </trkpt>
      <trkpt lat="42.443775" lon="1.50207667">
        <ele>1566.0</ele>
        <time>2019-08-04T10:01:04.324Z</time>
      </trkpt>
      <trkpt lat="42.44375" lon="1.50203167">
        <ele>1567.0</ele>
        <time>2019-08-04T10:01:05.302Z</time>
      </trkpt>
      <trkpt lat="42.44375" lon="1.50203167">
        <ele>1567.0</ele>
        <time>2019-08-04T10:01:06.322Z</time>
      </trkpt>
      <trkpt lat="42.44371167" lon="1.501945">
        <ele>1567.0</ele>
        <time>2019-08-04T10:01:07.324Z</time>
      </trkpt>
      <trkpt lat="42.44371167" lon="1.501945">
        <ele>1567.0</ele>
        <time>2019-08-04T10:01:08.321Z</time>
      </trkpt>
      <trkpt lat="42.443675" lon="1.50186">
        <ele>1567.0</ele>
        <time>2019-08-04T10:01:09.326Z</time>
      </trkpt>
      <trkpt lat="42.443675" lon="1.50186">
        <ele>1567.0</ele>
        <time>2019-08-04T10:01:10.317Z</time>
      </trkpt>
      <trkpt lat="42.44363667" lon="1.50177333">
        <ele>1568.0</ele>
        <time>2019-08-04T10:01:11.301Z</time>
      </trkpt>
      <trkpt lat="42.44363667" lon="1.50177333">
        <ele>1568.0</ele>
        <time>2019-08-04T10:01:12.322Z</time>
      </trkpt>
      <trkpt lat="42.44360167" lon="1.50168833">
        <ele>1568.0</ele>
        <time>2019-08-04T10:01:13.326Z</time>
      </trkpt>
      <trkpt lat="42.44360167" lon="1.50168833">
        <ele>1568.0</ele>
        <time>2019-08-04T10:01:14.317Z</time>
      </trkpt>
      <trkpt lat="42.44356333" lon="1.50161">
        <ele>1569.0</ele>
        <time>2019-08-04T10:01:15.301Z</time>
      </trkpt>
      <trkpt lat="42.44356333" lon="1.50161">
        <ele>1569.0</ele>
        <time>2019-08-04T10:01:16.322Z</time>
      </trkpt>
      <trkpt lat="42.44352333" lon="1.501525">
        <ele>1570.0</ele>
        <time>2019-08-04T10:01:17.322Z</time>
      </trkpt>
      <trkpt lat="42.44352333" lon="1.501525">
        <ele>1570.0</ele>
        <time>2019-08-04T10:01:18.319Z</time>
      </trkpt>
      <trkpt lat="42.44348833" lon="1.50142833">
        <ele>1570.0</ele>
        <time>2019-08-04T10:01:19.303Z</time>
      </trkpt>
      <trkpt lat="42.44348833" lon="1.50142833">
        <ele>1570.0</ele>
        <time>2019-08-04T10:01:20.322Z</time>
      </trkpt>
      <trkpt lat="42.44345333" lon="1.50133667">
        <ele>1571.0</ele>
        <time>2019-08-04T10:01:21.324Z</time>
      </trkpt>
      <trkpt lat="42.44345333" lon="1.50133667">
        <ele>1571.0</ele>
        <time>2019-08-04T10:01:22.321Z</time>
      </trkpt>
      <trkpt lat="42.44342" lon="1.50123">
        <ele>1571.0</ele>
        <time>2019-08-04T10:01:23.324Z</time>
      </trkpt>
      <trkpt lat="42.44340167" lon="1.50118333">
        <ele>1571.0</ele>
        <time>2019-08-04T10:01:24.325Z</time>
      </trkpt>
      <trkpt lat="42.44340167" lon="1.50118333">
        <ele>1571.0</ele>
        <time>2019-08-04T10:01:25.311Z</time>
      </trkpt>
      <trkpt lat="42.44336833" lon="1.50109333">
        <ele>1571.0</ele>
        <time>2019-08-04T10:01:26.330Z</time>
      </trkpt>
      <trkpt lat="42.443355" lon="1.501045">
        <ele>1571.0</ele>
        <time>2019-08-04T10:01:27.325Z</time>
      </trkpt>
      <trkpt lat="42.443355" lon="1.501045">
        <ele>1571.0</ele>
        <time>2019-08-04T10:01:28.316Z</time>
      </trkpt>
      <trkpt lat="42.44333" lon="1.50095">
        <ele>1571.0</ele>
        <time>2019-08-04T10:01:29.313Z</time>
      </trkpt>
      <trkpt lat="42.44333" lon="1.50095">
        <ele>1571.0</ele>
        <time>2019-08-04T10:01:30.308Z</time>
      </trkpt>
      <trkpt lat="42.443315" lon="1.50086">
        <ele>1571.0</ele>
        <time>2019-08-04T10:01:31.315Z</time>
      </trkpt>
      <trkpt lat="42.443305" lon="1.500815">
        <ele>1571.0</ele>
        <time>2019-08-04T10:01:32.321Z</time>
      </trkpt>
      <trkpt lat="42.443305" lon="1.500815">
        <ele>1571.0</ele>
        <time>2019-08-04T10:01:33.328Z</time>
      </trkpt>
      <trkpt lat="42.44329" lon="1.500725">
        <ele>1572.0</ele>
        <time>2019-08-04T10:01:34.297Z</time>
      </trkpt>
      <trkpt lat="42.44329" lon="1.500725">
        <ele>1572.0</ele>
        <time>2019-08-04T10:01:35.333Z</time>
      </trkpt>
      <trkpt lat="42.44326667" lon="1.50064">
        <ele>1572.0</ele>
        <time>2019-08-04T10:01:36.319Z</time>
      </trkpt>
      <trkpt lat="42.44324667" lon="1.50059833">
        <ele>1572.0</ele>
        <time>2019-08-04T10:01:37.303Z</time>
      </trkpt>
      <trkpt lat="42.44324667" lon="1.50059833">
        <ele>1572.0</ele>
        <time>2019-08-04T10:01:38.325Z</time>
      </trkpt>
      <trkpt lat="42.443205" lon="1.50051333">
        <ele>1572.0</ele>
        <time>2019-08-04T10:01:39.326Z</time>
      </trkpt>
      <trkpt lat="42.443205" lon="1.50051333">
        <ele>1572.0</ele>
        <time>2019-08-04T10:01:40.318Z</time>
      </trkpt>
      <trkpt lat="42.44315167" lon="1.50044">
        <ele>1572.0</ele>
        <time>2019-08-04T10:01:41.302Z</time>
      </trkpt>
      <trkpt lat="42.44312333" lon="1.50040333">
        <ele>1573.0</ele>
        <time>2019-08-04T10:01:42.327Z</time>
      </trkpt>
      <trkpt lat="42.44312333" lon="1.50040333">
        <ele>1573.0</ele>
        <time>2019-08-04T10:01:43.321Z</time>
      </trkpt>
      <trkpt lat="42.44306667" lon="1.50033833">
        <ele>1573.0</ele>
        <time>2019-08-04T10:01:44.322Z</time>
      </trkpt>
      <trkpt lat="42.44303833" lon="1.50030833">
        <ele>1573.0</ele>
        <time>2019-08-04T10:01:45.303Z</time>
      </trkpt>
      <trkpt lat="42.44303833" lon="1.50030833">
        <ele>1573.0</ele>
        <time>2019-08-04T10:01:46.322Z</time>
      </trkpt>
      <trkpt lat="42.44297833" lon="1.50025">
        <ele>1573.0</ele>
        <time>2019-08-04T10:01:47.322Z</time>
      </trkpt>
      <trkpt lat="42.44294667" lon="1.50022">
        <ele>1573.0</ele>
        <time>2019-08-04T10:01:48.330Z</time>
      </trkpt>
      <trkpt lat="42.442915" lon="1.500195">
        <ele>1574.0</ele>
        <time>2019-08-04T10:01:49.322Z</time>
      </trkpt>
      <trkpt lat="42.442915" lon="1.500195">
        <ele>1574.0</ele>
        <time>2019-08-04T10:01:50.320Z</time>
      </trkpt>
      <trkpt lat="42.44285" lon="1.500145">
        <ele>1574.0</ele>
        <time>2019-08-04T10:01:51.324Z</time>
      </trkpt>
      <trkpt lat="42.44285" lon="1.500145">
        <ele>1574.0</ele>
        <time>2019-08-04T10:01:52.320Z</time>
      </trkpt>
      <trkpt lat="42.44278167" lon="1.50010333">
        <ele>1575.0</ele>
        <time>2019-08-04T10:01:53.323Z</time>
      </trkpt>
      <trkpt lat="42.44278167" lon="1.50010333">
        <ele>1575.0</ele>
        <time>2019-08-04T10:01:54.320Z</time>
      </trkpt>
      <trkpt lat="42.44270667" lon="1.50005833">
        <ele>1575.0</ele>
        <time>2019-08-04T10:01:55.315Z</time>
      </trkpt>
      <trkpt lat="42.44270667" lon="1.50005833">
        <ele>1575.0</ele>
        <time>2019-08-04T10:01:56.335Z</time>
      </trkpt>
      <trkpt lat="42.44262667" lon="1.50000667">
        <ele>1575.0</ele>
        <time>2019-08-04T10:01:57.326Z</time>
      </trkpt>
      <trkpt lat="42.44262667" lon="1.50000667">
        <ele>1575.0</ele>
        <time>2019-08-04T10:01:58.320Z</time>
      </trkpt>
      <trkpt lat="42.442545" lon="1.49996833">
        <ele>1575.0</ele>
        <time>2019-08-04T10:01:59.322Z</time>
      </trkpt>
      <trkpt lat="42.442545" lon="1.49996833">
        <ele>1575.0</ele>
        <time>2019-08-04T10:02:00.319Z</time>
      </trkpt>
      <trkpt lat="42.44246667" lon="1.49993">
        <ele>1575.0</ele>
        <time>2019-08-04T10:02:01.303Z</time>
      </trkpt>
      <trkpt lat="42.44242833" lon="1.49991">
        <ele>1576.0</ele>
        <time>2019-08-04T10:02:02.325Z</time>
      </trkpt>
      <trkpt lat="42.44239" lon="1.499895">
        <ele>1576.0</ele>
        <time>2019-08-04T10:02:03.335Z</time>
      </trkpt>
      <trkpt lat="42.44239" lon="1.499895">
        <ele>1576.0</ele>
        <time>2019-08-04T10:02:04.320Z</time>
      </trkpt>
      <trkpt lat="42.44231333" lon="1.49985333">
        <ele>1575.0</ele>
        <time>2019-08-04T10:02:05.334Z</time>
      </trkpt>
      <trkpt lat="42.44231333" lon="1.49985333">
        <ele>1575.0</ele>
        <time>2019-08-04T10:02:06.318Z</time>
      </trkpt>
      <trkpt lat="42.44223667" lon="1.49982333">
        <ele>1575.0</ele>
        <time>2019-08-04T10:02:07.297Z</time>
      </trkpt>
      <trkpt lat="42.44223667" lon="1.49982333">
        <ele>1575.0</ele>
        <time>2019-08-04T10:02:08.323Z</time>
      </trkpt>
      <trkpt lat="42.44216333" lon="1.49979667">
        <ele>1574.0</ele>
        <time>2019-08-04T10:02:09.324Z</time>
      </trkpt>
      <trkpt lat="42.44216333" lon="1.49979667">
        <ele>1574.0</ele>
        <time>2019-08-04T10:02:10.321Z</time>
      </trkpt>
      <trkpt lat="42.44208667" lon="1.49976833">
        <ele>1574.0</ele>
        <time>2019-08-04T10:02:11.325Z</time>
      </trkpt>
      <trkpt lat="42.44208667" lon="1.49976833">
        <ele>1574.0</ele>
        <time>2019-08-04T10:02:12.317Z</time>
      </trkpt>
      <trkpt lat="42.44200833" lon="1.49974333">
        <ele>1574.0</ele>
        <time>2019-08-04T10:02:13.320Z</time>
      </trkpt>
      <trkpt lat="42.44197" lon="1.49973333">
        <ele>1574.0</ele>
        <time>2019-08-04T10:02:14.302Z</time>
      </trkpt>
      <trkpt lat="42.44193333" lon="1.49972333">
        <ele>1574.0</ele>
        <time>2019-08-04T10:02:15.301Z</time>
      </trkpt>
      <trkpt lat="42.44193333" lon="1.49972333">
        <ele>1574.0</ele>
        <time>2019-08-04T10:02:16.321Z</time>
      </trkpt>
      <trkpt lat="42.44185833" lon="1.49970833">
        <ele>1573.0</ele>
        <time>2019-08-04T10:02:17.321Z</time>
      </trkpt>
      <trkpt lat="42.44185833" lon="1.49970833">
        <ele>1573.0</ele>
        <time>2019-08-04T10:02:18.320Z</time>
      </trkpt>
      <trkpt lat="42.44177833" lon="1.49969833">
        <ele>1573.0</ele>
        <time>2019-08-04T10:02:19.303Z</time>
      </trkpt>
      <trkpt lat="42.44174167" lon="1.49969333">
        <ele>1572.0</ele>
        <time>2019-08-04T10:02:20.338Z</time>
      </trkpt>
      <trkpt lat="42.44174167" lon="1.49969333">
        <ele>1572.0</ele>
        <time>2019-08-04T10:02:21.333Z</time>
      </trkpt>
      <trkpt lat="42.441665" lon="1.49968667">
        <ele>1572.0</ele>
        <time>2019-08-04T10:02:22.324Z</time>
      </trkpt>
      <trkpt lat="42.441665" lon="1.49968667">
        <ele>1572.0</ele>
        <time>2019-08-04T10:02:23.320Z</time>
      </trkpt>
      <trkpt lat="42.44159333" lon="1.499685">
        <ele>1571.0</ele>
        <time>2019-08-04T10:02:24.323Z</time>
      </trkpt>
      <trkpt lat="42.44155833" lon="1.49968167">
        <ele>1571.0</ele>
        <time>2019-08-04T10:02:25.303Z</time>
      </trkpt>
      <trkpt lat="42.44155833" lon="1.49968167">
        <ele>1571.0</ele>
        <time>2019-08-04T10:02:26.324Z</time>
      </trkpt>
      <trkpt lat="42.44149" lon="1.49967667">
        <ele>1571.0</ele>
        <time>2019-08-04T10:02:27.325Z</time>
      </trkpt>
      <trkpt lat="42.44149" lon="1.49967667">
        <ele>1571.0</ele>
        <time>2019-08-04T10:02:28.318Z</time>
      </trkpt>
      <trkpt lat="42.44141833" lon="1.49967">
        <ele>1570.0</ele>
        <time>2019-08-04T10:02:29.327Z</time>
      </trkpt>
      <trkpt lat="42.44141833" lon="1.49967">
        <ele>1570.0</ele>
        <time>2019-08-04T10:02:30.318Z</time>
      </trkpt>
      <trkpt lat="42.44134833" lon="1.49966">
        <ele>1570.0</ele>
        <time>2019-08-04T10:02:31.297Z</time>
      </trkpt>
      <trkpt lat="42.44134833" lon="1.49966">
        <ele>1570.0</ele>
        <time>2019-08-04T10:02:32.320Z</time>
      </trkpt>
      <trkpt lat="42.441285" lon="1.499645">
        <ele>1569.0</ele>
        <time>2019-08-04T10:02:33.321Z</time>
      </trkpt>
      <trkpt lat="42.441255" lon="1.499635">
        <ele>1569.0</ele>
        <time>2019-08-04T10:02:34.326Z</time>
      </trkpt>
      <trkpt lat="42.441255" lon="1.499635">
        <ele>1569.0</ele>
        <time>2019-08-04T10:02:35.297Z</time>
      </trkpt>
      <trkpt lat="42.44119667" lon="1.499615">
        <ele>1569.0</ele>
        <time>2019-08-04T10:02:36.323Z</time>
      </trkpt>
      <trkpt lat="42.44116667" lon="1.49960333">
        <ele>1569.0</ele>
        <time>2019-08-04T10:02:37.326Z</time>
      </trkpt>
      <trkpt lat="42.44116667" lon="1.49960333">
        <ele>1569.0</ele>
        <time>2019-08-04T10:02:38.319Z</time>
      </trkpt>
      <trkpt lat="42.441105" lon="1.49958">
        <ele>1568.0</ele>
        <time>2019-08-04T10:02:39.302Z</time>
      </trkpt>
      <trkpt lat="42.441105" lon="1.49958">
        <ele>1568.0</ele>
        <time>2019-08-04T10:02:40.322Z</time>
      </trkpt>
      <trkpt lat="42.441045" lon="1.49955333">
        <ele>1568.0</ele>
        <time>2019-08-04T10:02:41.324Z</time>
      </trkpt>
      <trkpt lat="42.441045" lon="1.49955333">
        <ele>1568.0</ele>
        <time>2019-08-04T10:02:42.319Z</time>
      </trkpt>
      <trkpt lat="42.44098167" lon="1.49952667">
        <ele>1568.0</ele>
        <time>2019-08-04T10:02:43.304Z</time>
      </trkpt>
      <trkpt lat="42.44095" lon="1.49951167">
        <ele>1568.0</ele>
        <time>2019-08-04T10:02:44.325Z</time>
      </trkpt>
      <trkpt lat="42.44091833" lon="1.4995">
        <ele>1568.0</ele>
        <time>2019-08-04T10:02:45.308Z</time>
      </trkpt>
      <trkpt lat="42.44091833" lon="1.4995">
        <ele>1568.0</ele>
        <time>2019-08-04T10:02:46.297Z</time>
      </trkpt>
      <trkpt lat="42.44085167" lon="1.499495">
        <ele>1568.0</ele>
        <time>2019-08-04T10:02:47.324Z</time>
      </trkpt>
      <trkpt lat="42.44085167" lon="1.499495">
        <ele>1568.0</ele>
        <time>2019-08-04T10:02:48.329Z</time>
      </trkpt>
      <trkpt lat="42.44078667" lon="1.49952">
        <ele>1568.0</ele>
        <time>2019-08-04T10:02:49.325Z</time>
      </trkpt>
      <trkpt lat="42.44078667" lon="1.49952">
        <ele>1568.0</ele>
        <time>2019-08-04T10:02:50.321Z</time>
      </trkpt>
      <trkpt lat="42.44073333" lon="1.49958167">
        <ele>1569.0</ele>
        <time>2019-08-04T10:02:51.302Z</time>
      </trkpt>
      <trkpt lat="42.44071833" lon="1.49962167">
        <ele>1569.0</ele>
        <time>2019-08-04T10:02:52.325Z</time>
      </trkpt>
      <trkpt lat="42.44071833" lon="1.49962167">
        <ele>1569.0</ele>
        <time>2019-08-04T10:02:53.327Z</time>
      </trkpt>
      <trkpt lat="42.4407" lon="1.49971">
        <ele>1569.0</ele>
        <time>2019-08-04T10:02:54.324Z</time>
      </trkpt>
      <trkpt lat="42.44069833" lon="1.499755">
        <ele>1569.0</ele>
        <time>2019-08-04T10:02:55.304Z</time>
      </trkpt>
      <trkpt lat="42.44069833" lon="1.499755">
        <ele>1569.0</ele>
        <time>2019-08-04T10:02:56.326Z</time>
      </trkpt>
      <trkpt lat="42.44071" lon="1.49984833">
        <ele>1569.0</ele>
        <time>2019-08-04T10:02:57.325Z</time>
      </trkpt>
      <trkpt lat="42.44071" lon="1.49984833">
        <ele>1569.0</ele>
        <time>2019-08-04T10:02:58.321Z</time>
      </trkpt>
      <trkpt lat="42.44073833" lon="1.499935">
        <ele>1568.0</ele>
        <time>2019-08-04T10:02:59.325Z</time>
      </trkpt>
      <trkpt lat="42.44075667" lon="1.49997833">
        <ele>1568.0</ele>
        <time>2019-08-04T10:03:00.322Z</time>
      </trkpt>
      <trkpt lat="42.44077833" lon="1.50002">
        <ele>1568.0</ele>
        <time>2019-08-04T10:03:01.326Z</time>
      </trkpt>
      <trkpt lat="42.44080167" lon="1.50006">
        <ele>1568.0</ele>
        <time>2019-08-04T10:03:02.325Z</time>
      </trkpt>
      <trkpt lat="42.44080167" lon="1.50006">
        <ele>1568.0</ele>
        <time>2019-08-04T10:03:03.319Z</time>
      </trkpt>
      <trkpt lat="42.440845" lon="1.50013667">
        <ele>1568.0</ele>
        <time>2019-08-04T10:03:04.309Z</time>
      </trkpt>
      <trkpt lat="42.440845" lon="1.50013667">
        <ele>1568.0</ele>
        <time>2019-08-04T10:03:05.302Z</time>
      </trkpt>
      <trkpt lat="42.44089" lon="1.50020333">
        <ele>1569.0</ele>
        <time>2019-08-04T10:03:06.324Z</time>
      </trkpt>
      <trkpt lat="42.44091" lon="1.50023333">
        <ele>1569.0</ele>
        <time>2019-08-04T10:03:07.320Z</time>
      </trkpt>
      <trkpt lat="42.44091" lon="1.50023333">
        <ele>1569.0</ele>
        <time>2019-08-04T10:03:08.318Z</time>
      </trkpt>
      <trkpt lat="42.44094667" lon="1.50029667">
        <ele>1569.0</ele>
        <time>2019-08-04T10:03:09.302Z</time>
      </trkpt>
      <trkpt lat="42.44094667" lon="1.50029667">
        <ele>1569.0</ele>
        <time>2019-08-04T10:03:10.323Z</time>
      </trkpt>
      <trkpt lat="42.44099" lon="1.50036333">
        <ele>1570.0</ele>
        <time>2019-08-04T10:03:11.324Z</time>
      </trkpt>
      <trkpt lat="42.44099" lon="1.50036333">
        <ele>1570.0</ele>
        <time>2019-08-04T10:03:12.320Z</time>
      </trkpt>
      <trkpt lat="42.441025" lon="1.50042">
        <ele>1570.0</ele>
        <time>2019-08-04T10:03:13.305Z</time>
      </trkpt>
      <trkpt lat="42.441025" lon="1.50042">
        <ele>1570.0</ele>
        <time>2019-08-04T10:03:14.311Z</time>
      </trkpt>
      <trkpt lat="42.44106667" lon="1.50047833">
        <ele>1570.0</ele>
        <time>2019-08-04T10:03:15.317Z</time>
      </trkpt>
      <trkpt lat="42.441085" lon="1.50051">
        <ele>1570.0</ele>
        <time>2019-08-04T10:03:16.303Z</time>
      </trkpt>
      <trkpt lat="42.441085" lon="1.50051">
        <ele>1570.0</ele>
        <time>2019-08-04T10:03:17.323Z</time>
      </trkpt>
      <trkpt lat="42.44111833" lon="1.50057">
        <ele>1571.0</ele>
        <time>2019-08-04T10:03:18.304Z</time>
      </trkpt>
      <trkpt lat="42.44113333" lon="1.50059667">
        <ele>1571.0</ele>
        <time>2019-08-04T10:03:19.326Z</time>
      </trkpt>
      <trkpt lat="42.44113333" lon="1.50059667">
        <ele>1571.0</ele>
        <time>2019-08-04T10:03:20.317Z</time>
      </trkpt>
      <trkpt lat="42.44117" lon="1.50066167">
        <ele>1571.0</ele>
        <time>2019-08-04T10:03:21.298Z</time>
      </trkpt>
      <trkpt lat="42.44117" lon="1.50066167">
        <ele>1571.0</ele>
        <time>2019-08-04T10:03:22.320Z</time>
      </trkpt>
      <trkpt lat="42.44121333" lon="1.50073833">
        <ele>1572.0</ele>
        <time>2019-08-04T10:03:23.326Z</time>
      </trkpt>
      <trkpt lat="42.44121333" lon="1.50073833">
        <ele>1572.0</ele>
        <time>2019-08-04T10:03:24.332Z</time>
      </trkpt>
      <trkpt lat="42.44124667" lon="1.50080667">
        <ele>1572.0</ele>
        <time>2019-08-04T10:03:25.325Z</time>
      </trkpt>
      <trkpt lat="42.44124667" lon="1.50080667">
        <ele>1572.0</ele>
        <time>2019-08-04T10:03:26.319Z</time>
      </trkpt>
      <trkpt lat="42.44128167" lon="1.50087">
        <ele>1573.0</ele>
        <time>2019-08-04T10:03:27.325Z</time>
      </trkpt>
      <trkpt lat="42.44128167" lon="1.50087">
        <ele>1573.0</ele>
        <time>2019-08-04T10:03:28.318Z</time>
      </trkpt>
      <trkpt lat="42.44131167" lon="1.50094">
        <ele>1573.0</ele>
        <time>2019-08-04T10:03:29.331Z</time>
      </trkpt>
      <trkpt lat="42.44131167" lon="1.50094">
        <ele>1573.0</ele>
        <time>2019-08-04T10:03:30.320Z</time>
      </trkpt>
      <trkpt lat="42.44133667" lon="1.50101167">
        <ele>1573.0</ele>
        <time>2019-08-04T10:03:31.303Z</time>
      </trkpt>
      <trkpt lat="42.44135167" lon="1.50104667">
        <ele>1574.0</ele>
        <time>2019-08-04T10:03:32.326Z</time>
      </trkpt>
      <trkpt lat="42.44135167" lon="1.50104667">
        <ele>1574.0</ele>
        <time>2019-08-04T10:03:33.320Z</time>
      </trkpt>
      <trkpt lat="42.44138333" lon="1.50112167">
        <ele>1574.0</ele>
        <time>2019-08-04T10:03:34.303Z</time>
      </trkpt>
      <trkpt lat="42.44138333" lon="1.50112167">
        <ele>1574.0</ele>
        <time>2019-08-04T10:03:35.304Z</time>
      </trkpt>
      <trkpt lat="42.44141833" lon="1.50121167">
        <ele>1574.0</ele>
        <time>2019-08-04T10:03:36.325Z</time>
      </trkpt>
      <trkpt lat="42.44143167" lon="1.50125333">
        <ele>1574.0</ele>
        <time>2019-08-04T10:03:37.321Z</time>
      </trkpt>
      <trkpt lat="42.44143167" lon="1.50125333">
        <ele>1574.0</ele>
        <time>2019-08-04T10:03:38.304Z</time>
      </trkpt>
      <trkpt lat="42.44145833" lon="1.50134667">
        <ele>1575.0</ele>
        <time>2019-08-04T10:03:39.326Z</time>
      </trkpt>
      <trkpt lat="42.44147" lon="1.50138667">
        <ele>1575.0</ele>
        <time>2019-08-04T10:03:40.326Z</time>
      </trkpt>
      <trkpt lat="42.44147" lon="1.50138667">
        <ele>1575.0</ele>
        <time>2019-08-04T10:03:41.321Z</time>
      </trkpt>
      <trkpt lat="42.441495" lon="1.50147833">
        <ele>1575.0</ele>
        <time>2019-08-04T10:03:42.320Z</time>
      </trkpt>
      <trkpt lat="42.44150333" lon="1.50152167">
        <ele>1575.0</ele>
        <time>2019-08-04T10:03:43.332Z</time>
      </trkpt>
      <trkpt lat="42.44150333" lon="1.50152167">
        <ele>1575.0</ele>
        <time>2019-08-04T10:03:44.323Z</time>
      </trkpt>
      <trkpt lat="42.44152333" lon="1.50161833">
        <ele>1576.0</ele>
        <time>2019-08-04T10:03:45.328Z</time>
      </trkpt>
      <trkpt lat="42.44152333" lon="1.50161833">
        <ele>1576.0</ele>
        <time>2019-08-04T10:03:46.318Z</time>
      </trkpt>
      <trkpt lat="42.44153" lon="1.50169833">
        <ele>1576.0</ele>
        <time>2019-08-04T10:03:47.303Z</time>
      </trkpt>
      <trkpt lat="42.44153667" lon="1.50174333">
        <ele>1576.0</ele>
        <time>2019-08-04T10:03:48.327Z</time>
      </trkpt>
      <trkpt lat="42.44153667" lon="1.50174333">
        <ele>1576.0</ele>
        <time>2019-08-04T10:03:49.320Z</time>
      </trkpt>
      <trkpt lat="42.44155167" lon="1.501835">
        <ele>1576.0</ele>
        <time>2019-08-04T10:03:50.323Z</time>
      </trkpt>
      <trkpt lat="42.44156167" lon="1.50188333">
        <ele>1576.0</ele>
        <time>2019-08-04T10:03:51.325Z</time>
      </trkpt>
      <trkpt lat="42.44156167" lon="1.50188333">
        <ele>1576.0</ele>
        <time>2019-08-04T10:03:52.322Z</time>
      </trkpt>
      <trkpt lat="42.44157833" lon="1.50198">
        <ele>1576.0</ele>
        <time>2019-08-04T10:03:53.327Z</time>
      </trkpt>
      <trkpt lat="42.44157833" lon="1.50198">
        <ele>1576.0</ele>
        <time>2019-08-04T10:03:54.317Z</time>
      </trkpt>
      <trkpt lat="42.44159667" lon="1.50207333">
        <ele>1577.0</ele>
        <time>2019-08-04T10:03:55.311Z</time>
      </trkpt>
      <trkpt lat="42.44159667" lon="1.50207333">
        <ele>1577.0</ele>
        <time>2019-08-04T10:03:56.310Z</time>
      </trkpt>
      <trkpt lat="42.44162333" lon="1.50217667">
        <ele>1577.0</ele>
        <time>2019-08-04T10:03:57.332Z</time>
      </trkpt>
      <trkpt lat="42.44162333" lon="1.50217667">
        <ele>1577.0</ele>
        <time>2019-08-04T10:03:58.320Z</time>
      </trkpt>
      <trkpt lat="42.44164667" lon="1.502285">
        <ele>1577.0</ele>
        <time>2019-08-04T10:03:59.324Z</time>
      </trkpt>
      <trkpt lat="42.44164667" lon="1.502285">
        <ele>1577.0</ele>
        <time>2019-08-04T10:04:00.321Z</time>
      </trkpt>
      <trkpt lat="42.44167" lon="1.50239">
        <ele>1578.0</ele>
        <time>2019-08-04T10:04:01.303Z</time>
      </trkpt>
      <trkpt lat="42.44167" lon="1.50239">
        <ele>1578.0</ele>
        <time>2019-08-04T10:04:02.323Z</time>
      </trkpt>
      <trkpt lat="42.441695" lon="1.5025">
        <ele>1578.0</ele>
        <time>2019-08-04T10:04:03.324Z</time>
      </trkpt>
      <trkpt lat="42.441695" lon="1.5025">
        <ele>1578.0</ele>
        <time>2019-08-04T10:04:04.318Z</time>
      </trkpt>
      <trkpt lat="42.441715" lon="1.50260833">
        <ele>1578.0</ele>
        <time>2019-08-04T10:04:05.314Z</time>
      </trkpt>
      <trkpt lat="42.441715" lon="1.50260833">
        <ele>1578.0</ele>
        <time>2019-08-04T10:04:06.333Z</time>
      </trkpt>
      <trkpt lat="42.44173167" lon="1.502715">
        <ele>1579.0</ele>
        <time>2019-08-04T10:04:07.326Z</time>
      </trkpt>
      <trkpt lat="42.44173167" lon="1.502715">
        <ele>1579.0</ele>
        <time>2019-08-04T10:04:08.315Z</time>
      </trkpt>
      <trkpt lat="42.44175" lon="1.50282167">
        <ele>1579.0</ele>
        <time>2019-08-04T10:04:09.335Z</time>
      </trkpt>
      <trkpt lat="42.44175" lon="1.50282167">
        <ele>1579.0</ele>
        <time>2019-08-04T10:04:10.319Z</time>
      </trkpt>
      <trkpt lat="42.44176667" lon="1.50292167">
        <ele>1579.0</ele>
        <time>2019-08-04T10:04:11.302Z</time>
      </trkpt>
      <trkpt lat="42.44176667" lon="1.50292167">
        <ele>1579.0</ele>
        <time>2019-08-04T10:04:12.324Z</time>
      </trkpt>
      <trkpt lat="42.44178667" lon="1.50302667">
        <ele>1580.0</ele>
        <time>2019-08-04T10:04:13.326Z</time>
      </trkpt>
      <trkpt lat="42.44178667" lon="1.50302667">
        <ele>1580.0</ele>
        <time>2019-08-04T10:04:14.321Z</time>
      </trkpt>
      <trkpt lat="42.44180167" lon="1.50312667">
        <ele>1580.0</ele>
        <time>2019-08-04T10:04:15.304Z</time>
      </trkpt>
      <trkpt lat="42.44180167" lon="1.50312667">
        <ele>1580.0</ele>
        <time>2019-08-04T10:04:16.324Z</time>
      </trkpt>
      <trkpt lat="42.441815" lon="1.503225">
        <ele>1580.0</ele>
        <time>2019-08-04T10:04:17.323Z</time>
      </trkpt>
      <trkpt lat="42.441815" lon="1.503225">
        <ele>1580.0</ele>
        <time>2019-08-04T10:04:18.319Z</time>
      </trkpt>
      <trkpt lat="42.44182833" lon="1.50332333">
        <ele>1581.0</ele>
        <time>2019-08-04T10:04:19.303Z</time>
      </trkpt>
      <trkpt lat="42.44182833" lon="1.50332333">
        <ele>1581.0</ele>
        <time>2019-08-04T10:04:20.331Z</time>
      </trkpt>
      <trkpt lat="42.44184" lon="1.50341833">
        <ele>1581.0</ele>
        <time>2019-08-04T10:04:21.326Z</time>
      </trkpt>
      <trkpt lat="42.44184" lon="1.50341833">
        <ele>1581.0</ele>
        <time>2019-08-04T10:04:22.322Z</time>
      </trkpt>
      <trkpt lat="42.44185667" lon="1.503515">
        <ele>1581.0</ele>
        <time>2019-08-04T10:04:23.322Z</time>
      </trkpt>
      <trkpt lat="42.441865" lon="1.50356167">
        <ele>1582.0</ele>
        <time>2019-08-04T10:04:24.324Z</time>
      </trkpt>
      <trkpt lat="42.44187" lon="1.50360833">
        <ele>1582.0</ele>
        <time>2019-08-04T10:04:25.305Z</time>
      </trkpt>
      <trkpt lat="42.44187" lon="1.50360833">
        <ele>1582.0</ele>
        <time>2019-08-04T10:04:26.327Z</time>
      </trkpt>
      <trkpt lat="42.44188667" lon="1.503705">
        <ele>1582.0</ele>
        <time>2019-08-04T10:04:27.326Z</time>
      </trkpt>
      <trkpt lat="42.44188667" lon="1.503705">
        <ele>1582.0</ele>
        <time>2019-08-04T10:04:28.322Z</time>
      </trkpt>
      <trkpt lat="42.44190167" lon="1.503795">
        <ele>1582.0</ele>
        <time>2019-08-04T10:04:29.313Z</time>
      </trkpt>
      <trkpt lat="42.44190167" lon="1.503795">
        <ele>1582.0</ele>
        <time>2019-08-04T10:04:30.334Z</time>
      </trkpt>
      <trkpt lat="42.441905" lon="1.50387833">
        <ele>1583.0</ele>
        <time>2019-08-04T10:04:31.300Z</time>
      </trkpt>
      <trkpt lat="42.441905" lon="1.50387833">
        <ele>1583.0</ele>
        <time>2019-08-04T10:04:32.306Z</time>
      </trkpt>
      <trkpt lat="42.44191" lon="1.50396333">
        <ele>1583.0</ele>
        <time>2019-08-04T10:04:33.324Z</time>
      </trkpt>
      <trkpt lat="42.44191" lon="1.50396333">
        <ele>1583.0</ele>
        <time>2019-08-04T10:04:34.318Z</time>
      </trkpt>
      <trkpt lat="42.44191667" lon="1.50405333">
        <ele>1583.0</ele>
        <time>2019-08-04T10:04:35.302Z</time>
      </trkpt>
      <trkpt lat="42.44191667" lon="1.50405333">
        <ele>1583.0</ele>
        <time>2019-08-04T10:04:36.323Z</time>
      </trkpt>
      <trkpt lat="42.44192" lon="1.50414833">
        <ele>1584.0</ele>
        <time>2019-08-04T10:04:37.327Z</time>
      </trkpt>
      <trkpt lat="42.44192" lon="1.50414833">
        <ele>1584.0</ele>
        <time>2019-08-04T10:04:38.319Z</time>
      </trkpt>
      <trkpt lat="42.44191833" lon="1.50424167">
        <ele>1584.0</ele>
        <time>2019-08-04T10:04:39.326Z</time>
      </trkpt>
      <trkpt lat="42.44191833" lon="1.50424167">
        <ele>1584.0</ele>
        <time>2019-08-04T10:04:40.319Z</time>
      </trkpt>
      <trkpt lat="42.441915" lon="1.504335">
        <ele>1584.0</ele>
        <time>2019-08-04T10:04:41.326Z</time>
      </trkpt>
      <trkpt lat="42.441915" lon="1.504335">
        <ele>1584.0</ele>
        <time>2019-08-04T10:04:42.320Z</time>
      </trkpt>
      <trkpt lat="42.44190667" lon="1.50442333">
        <ele>1584.0</ele>
        <time>2019-08-04T10:04:43.303Z</time>
      </trkpt>
      <trkpt lat="42.44190667" lon="1.50442333">
        <ele>1584.0</ele>
        <time>2019-08-04T10:04:44.331Z</time>
      </trkpt>
      <trkpt lat="42.44189833" lon="1.50451833">
        <ele>1584.0</ele>
        <time>2019-08-04T10:04:45.304Z</time>
      </trkpt>
      <trkpt lat="42.44189833" lon="1.50451833">
        <ele>1584.0</ele>
        <time>2019-08-04T10:04:46.325Z</time>
      </trkpt>
      <trkpt lat="42.441885" lon="1.50461833">
        <ele>1584.0</ele>
        <time>2019-08-04T10:04:47.325Z</time>
      </trkpt>
      <trkpt lat="42.441885" lon="1.50461833">
        <ele>1584.0</ele>
        <time>2019-08-04T10:04:48.327Z</time>
      </trkpt>
      <trkpt lat="42.441875" lon="1.50471333">
        <ele>1585.0</ele>
        <time>2019-08-04T10:04:49.328Z</time>
      </trkpt>
      <trkpt lat="42.441875" lon="1.50471333">
        <ele>1585.0</ele>
        <time>2019-08-04T10:04:50.319Z</time>
      </trkpt>
      <trkpt lat="42.44186667" lon="1.5048">
        <ele>1585.0</ele>
        <time>2019-08-04T10:04:51.326Z</time>
      </trkpt>
      <trkpt lat="42.44186667" lon="1.5048">
        <ele>1585.0</ele>
        <time>2019-08-04T10:04:52.319Z</time>
      </trkpt>
      <trkpt lat="42.44186" lon="1.50488">
        <ele>1585.0</ele>
        <time>2019-08-04T10:04:53.303Z</time>
      </trkpt>
      <trkpt lat="42.44185167" lon="1.50491833">
        <ele>1585.0</ele>
        <time>2019-08-04T10:04:54.326Z</time>
      </trkpt>
      <trkpt lat="42.44184667" lon="1.50495167">
        <ele>1586.0</ele>
        <time>2019-08-04T10:04:55.305Z</time>
      </trkpt>
      <trkpt lat="42.44184667" lon="1.50495167">
        <ele>1586.0</ele>
        <time>2019-08-04T10:04:56.326Z</time>
      </trkpt>
      <trkpt lat="42.44185" lon="1.505045">
        <ele>1586.0</ele>
        <time>2019-08-04T10:04:57.326Z</time>
      </trkpt>
      <trkpt lat="42.44185" lon="1.505045">
        <ele>1586.0</ele>
        <time>2019-08-04T10:04:58.320Z</time>
      </trkpt>
      <trkpt lat="42.44185167" lon="1.50513333">
        <ele>1586.0</ele>
        <time>2019-08-04T10:04:59.322Z</time>
      </trkpt>
      <trkpt lat="42.44185167" lon="1.50518">
        <ele>1586.0</ele>
        <time>2019-08-04T10:05:00.321Z</time>
      </trkpt>
      <trkpt lat="42.44185667" lon="1.505225">
        <ele>1587.0</ele>
        <time>2019-08-04T10:05:01.327Z</time>
      </trkpt>
      <trkpt lat="42.44185667" lon="1.505225">
        <ele>1587.0</ele>
        <time>2019-08-04T10:05:02.320Z</time>
      </trkpt>
      <trkpt lat="42.44186167" lon="1.50531">
        <ele>1587.0</ele>
        <time>2019-08-04T10:05:03.325Z</time>
      </trkpt>
      <trkpt lat="42.44186167" lon="1.50531">
        <ele>1587.0</ele>
        <time>2019-08-04T10:05:04.318Z</time>
      </trkpt>
      <trkpt lat="42.441875" lon="1.50539667">
        <ele>1587.0</ele>
        <time>2019-08-04T10:05:05.302Z</time>
      </trkpt>
      <trkpt lat="42.441875" lon="1.50539667">
        <ele>1587.0</ele>
        <time>2019-08-04T10:05:06.323Z</time>
      </trkpt>
      <trkpt lat="42.44187833" lon="1.50547833">
        <ele>1588.0</ele>
        <time>2019-08-04T10:05:07.326Z</time>
      </trkpt>
      <trkpt lat="42.44187833" lon="1.50547833">
        <ele>1588.0</ele>
        <time>2019-08-04T10:05:08.321Z</time>
      </trkpt>
      <trkpt lat="42.44188333" lon="1.50556167">
        <ele>1588.0</ele>
        <time>2019-08-04T10:05:09.326Z</time>
      </trkpt>
      <trkpt lat="42.44188333" lon="1.50556167">
        <ele>1588.0</ele>
        <time>2019-08-04T10:05:10.318Z</time>
      </trkpt>
      <trkpt lat="42.44188667" lon="1.50564333">
        <ele>1588.0</ele>
        <time>2019-08-04T10:05:11.303Z</time>
      </trkpt>
      <trkpt lat="42.44188667" lon="1.50564333">
        <ele>1588.0</ele>
        <time>2019-08-04T10:05:12.323Z</time>
      </trkpt>
      <trkpt lat="42.44189833" lon="1.50573333">
        <ele>1588.0</ele>
        <time>2019-08-04T10:05:13.326Z</time>
      </trkpt>
      <trkpt lat="42.44189833" lon="1.50573333">
        <ele>1588.0</ele>
        <time>2019-08-04T10:05:14.318Z</time>
      </trkpt>
      <trkpt lat="42.44191333" lon="1.50583">
        <ele>1588.0</ele>
        <time>2019-08-04T10:05:15.298Z</time>
      </trkpt>
      <trkpt lat="42.44191333" lon="1.50583">
        <ele>1588.0</ele>
        <time>2019-08-04T10:05:16.320Z</time>
      </trkpt>
      <trkpt lat="42.44191833" lon="1.50591667">
        <ele>1589.0</ele>
        <time>2019-08-04T10:05:17.303Z</time>
      </trkpt>
      <trkpt lat="42.44191833" lon="1.50591667">
        <ele>1589.0</ele>
        <time>2019-08-04T10:05:18.323Z</time>
      </trkpt>
      <trkpt lat="42.44193" lon="1.506">
        <ele>1589.0</ele>
        <time>2019-08-04T10:05:19.326Z</time>
      </trkpt>
      <trkpt lat="42.44193167" lon="1.50603667">
        <ele>1589.0</ele>
        <time>2019-08-04T10:05:20.325Z</time>
      </trkpt>
      <trkpt lat="42.44193167" lon="1.50603667">
        <ele>1589.0</ele>
        <time>2019-08-04T10:05:21.323Z</time>
      </trkpt>
      <trkpt lat="42.44193667" lon="1.50611">
        <ele>1589.0</ele>
        <time>2019-08-04T10:05:22.324Z</time>
      </trkpt>
      <trkpt lat="42.44193667" lon="1.50611">
        <ele>1589.0</ele>
        <time>2019-08-04T10:05:23.323Z</time>
      </trkpt>
      <trkpt lat="42.44194333" lon="1.506185">
        <ele>1590.0</ele>
        <time>2019-08-04T10:05:24.324Z</time>
      </trkpt>
      <trkpt lat="42.44194667" lon="1.50622333">
        <ele>1590.0</ele>
        <time>2019-08-04T10:05:25.330Z</time>
      </trkpt>
      <trkpt lat="42.44194667" lon="1.50622333">
        <ele>1590.0</ele>
        <time>2019-08-04T10:05:26.318Z</time>
      </trkpt>
      <trkpt lat="42.44195333" lon="1.50630333">
        <ele>1591.0</ele>
        <time>2019-08-04T10:05:27.303Z</time>
      </trkpt>
      <trkpt lat="42.44196" lon="1.50634333">
        <ele>1591.0</ele>
        <time>2019-08-04T10:05:28.336Z</time>
      </trkpt>
      <trkpt lat="42.44196" lon="1.50634333">
        <ele>1591.0</ele>
        <time>2019-08-04T10:05:29.320Z</time>
      </trkpt>
      <trkpt lat="42.44197833" lon="1.50643">
        <ele>1591.0</ele>
        <time>2019-08-04T10:05:30.324Z</time>
      </trkpt>
      <trkpt lat="42.441985" lon="1.50647167">
        <ele>1592.0</ele>
        <time>2019-08-04T10:05:31.326Z</time>
      </trkpt>
      <trkpt lat="42.441985" lon="1.50647167">
        <ele>1592.0</ele>
        <time>2019-08-04T10:05:32.320Z</time>
      </trkpt>
      <trkpt lat="42.44198833" lon="1.50654667">
        <ele>1592.0</ele>
        <time>2019-08-04T10:05:33.325Z</time>
      </trkpt>
      <trkpt lat="42.44198833" lon="1.50654667">
        <ele>1592.0</ele>
        <time>2019-08-04T10:05:34.319Z</time>
      </trkpt>
      <trkpt lat="42.44199" lon="1.50662167">
        <ele>1592.0</ele>
        <time>2019-08-04T10:05:35.304Z</time>
      </trkpt>
      <trkpt lat="42.44199" lon="1.50662167">
        <ele>1592.0</ele>
        <time>2019-08-04T10:05:36.325Z</time>
      </trkpt>
      <trkpt lat="42.44200667" lon="1.50669333">
        <ele>1593.0</ele>
        <time>2019-08-04T10:05:37.327Z</time>
      </trkpt>
      <trkpt lat="42.44200667" lon="1.50669333">
        <ele>1593.0</ele>
        <time>2019-08-04T10:05:38.321Z</time>
      </trkpt>
      <trkpt lat="42.44201833" lon="1.50676">
        <ele>1593.0</ele>
        <time>2019-08-04T10:05:39.325Z</time>
      </trkpt>
      <trkpt lat="42.44201833" lon="1.50676">
        <ele>1593.0</ele>
        <time>2019-08-04T10:05:40.323Z</time>
      </trkpt>
      <trkpt lat="42.44202833" lon="1.50682667">
        <ele>1594.0</ele>
        <time>2019-08-04T10:05:41.324Z</time>
      </trkpt>
      <trkpt lat="42.44202833" lon="1.50682667">
        <ele>1594.0</ele>
        <time>2019-08-04T10:05:42.315Z</time>
      </trkpt>
      <trkpt lat="42.442035" lon="1.50689667">
        <ele>1594.0</ele>
        <time>2019-08-04T10:05:43.296Z</time>
      </trkpt>
      <trkpt lat="42.442035" lon="1.50689667">
        <ele>1594.0</ele>
        <time>2019-08-04T10:05:44.321Z</time>
      </trkpt>
      <trkpt lat="42.44204333" lon="1.50697333">
        <ele>1595.0</ele>
        <time>2019-08-04T10:05:45.305Z</time>
      </trkpt>
      <trkpt lat="42.44204333" lon="1.50700667">
        <ele>1595.0</ele>
        <time>2019-08-04T10:05:46.328Z</time>
      </trkpt>
      <trkpt lat="42.44204333" lon="1.50700667">
        <ele>1595.0</ele>
        <time>2019-08-04T10:05:47.318Z</time>
      </trkpt>
      <trkpt lat="42.44204" lon="1.50707167">
        <ele>1596.0</ele>
        <time>2019-08-04T10:05:48.307Z</time>
      </trkpt>
      <trkpt lat="42.44204167" lon="1.50710833">
        <ele>1596.0</ele>
        <time>2019-08-04T10:05:49.329Z</time>
      </trkpt>
      <trkpt lat="42.44204167" lon="1.50710833">
        <ele>1596.0</ele>
        <time>2019-08-04T10:05:50.319Z</time>
      </trkpt>
      <trkpt lat="42.44205" lon="1.50717667">
        <ele>1597.0</ele>
        <time>2019-08-04T10:05:51.303Z</time>
      </trkpt>
      <trkpt lat="42.44205" lon="1.50717667">
        <ele>1597.0</ele>
        <time>2019-08-04T10:05:52.323Z</time>
      </trkpt>
      <trkpt lat="42.44205667" lon="1.50724833">
        <ele>1597.0</ele>
        <time>2019-08-04T10:05:53.305Z</time>
      </trkpt>
      <trkpt lat="42.44206333" lon="1.50728667">
        <ele>1597.0</ele>
        <time>2019-08-04T10:05:54.327Z</time>
      </trkpt>
      <trkpt lat="42.44206333" lon="1.50728667">
        <ele>1597.0</ele>
        <time>2019-08-04T10:05:55.333Z</time>
      </trkpt>
      <trkpt lat="42.44206333" lon="1.50734667">
        <ele>1598.0</ele>
        <time>2019-08-04T10:05:56.325Z</time>
      </trkpt>
      <trkpt lat="42.44206333" lon="1.50738167">
        <ele>1598.0</ele>
        <time>2019-08-04T10:05:57.326Z</time>
      </trkpt>
      <trkpt lat="42.44206333" lon="1.50738167">
        <ele>1598.0</ele>
        <time>2019-08-04T10:05:58.319Z</time>
      </trkpt>
      <trkpt lat="42.44206667" lon="1.50744667">
        <ele>1598.0</ele>
        <time>2019-08-04T10:05:59.299Z</time>
      </trkpt>
      <trkpt lat="42.44206667" lon="1.50744667">
        <ele>1598.0</ele>
        <time>2019-08-04T10:06:00.321Z</time>
      </trkpt>
      <trkpt lat="42.442075" lon="1.50751667">
        <ele>1599.0</ele>
        <time>2019-08-04T10:06:01.304Z</time>
      </trkpt>
      <trkpt lat="42.442075" lon="1.50751667">
        <ele>1599.0</ele>
        <time>2019-08-04T10:06:02.325Z</time>
      </trkpt>
      <trkpt lat="42.44207667" lon="1.50757833">
        <ele>1599.0</ele>
        <time>2019-08-04T10:06:03.326Z</time>
      </trkpt>
      <trkpt lat="42.44207667" lon="1.50757833">
        <ele>1599.0</ele>
        <time>2019-08-04T10:06:04.320Z</time>
      </trkpt>
      <trkpt lat="42.44208333" lon="1.507645">
        <ele>1600.0</ele>
        <time>2019-08-04T10:06:05.304Z</time>
      </trkpt>
      <trkpt lat="42.442085" lon="1.50768">
        <ele>1600.0</ele>
        <time>2019-08-04T10:06:06.326Z</time>
      </trkpt>
      <trkpt lat="42.44209" lon="1.50771833">
        <ele>1600.0</ele>
        <time>2019-08-04T10:06:07.328Z</time>
      </trkpt>
      <trkpt lat="42.44209" lon="1.50771833">
        <ele>1600.0</ele>
        <time>2019-08-04T10:06:08.317Z</time>
      </trkpt>
      <trkpt lat="42.4421" lon="1.50779833">
        <ele>1600.0</ele>
        <time>2019-08-04T10:06:09.298Z</time>
      </trkpt>
      <trkpt lat="42.4421" lon="1.50779833">
        <ele>1600.0</ele>
        <time>2019-08-04T10:06:10.321Z</time>
      </trkpt>
      <trkpt lat="42.44211333" lon="1.50787167">
        <ele>1601.0</ele>
        <time>2019-08-04T10:06:11.324Z</time>
      </trkpt>
      <trkpt lat="42.44212" lon="1.507905">
        <ele>1601.0</ele>
        <time>2019-08-04T10:06:12.324Z</time>
      </trkpt>
      <trkpt lat="42.44212" lon="1.507905">
        <ele>1601.0</ele>
        <time>2019-08-04T10:06:13.320Z</time>
      </trkpt>
      <trkpt lat="42.44213667" lon="1.50797333">
        <ele>1601.0</ele>
        <time>2019-08-04T10:06:14.306Z</time>
      </trkpt>
      <trkpt lat="42.44213667" lon="1.50797333">
        <ele>1601.0</ele>
        <time>2019-08-04T10:06:15.334Z</time>
      </trkpt>
      <trkpt lat="42.44216" lon="1.50803833">
        <ele>1602.0</ele>
        <time>2019-08-04T10:06:16.324Z</time>
      </trkpt>
      <trkpt lat="42.44216" lon="1.50803833">
        <ele>1602.0</ele>
        <time>2019-08-04T10:06:17.320Z</time>
      </trkpt>
      <trkpt lat="42.44219333" lon="1.50811">
        <ele>1602.0</ele>
        <time>2019-08-04T10:06:18.303Z</time>
      </trkpt>
      <trkpt lat="42.44220833" lon="1.50814333">
        <ele>1602.0</ele>
        <time>2019-08-04T10:06:19.324Z</time>
      </trkpt>
      <trkpt lat="42.44220833" lon="1.50814333">
        <ele>1602.0</ele>
        <time>2019-08-04T10:06:20.299Z</time>
      </trkpt>
      <trkpt lat="42.44223667" lon="1.50821333">
        <ele>1603.0</ele>
        <time>2019-08-04T10:06:21.325Z</time>
      </trkpt>
      <trkpt lat="42.44223667" lon="1.50821333">
        <ele>1603.0</ele>
        <time>2019-08-04T10:06:22.319Z</time>
      </trkpt>
      <trkpt lat="42.44226833" lon="1.50828333">
        <ele>1603.0</ele>
        <time>2019-08-04T10:06:23.320Z</time>
      </trkpt>
      <trkpt lat="42.44226833" lon="1.50828333">
        <ele>1603.0</ele>
        <time>2019-08-04T10:06:24.322Z</time>
      </trkpt>
      <trkpt lat="42.44229667" lon="1.50834667">
        <ele>1604.0</ele>
        <time>2019-08-04T10:06:25.311Z</time>
      </trkpt>
      <trkpt lat="42.44231" lon="1.50837667">
        <ele>1604.0</ele>
        <time>2019-08-04T10:06:26.303Z</time>
      </trkpt>
      <trkpt lat="42.44232333" lon="1.508405">
        <ele>1604.0</ele>
        <time>2019-08-04T10:06:27.326Z</time>
      </trkpt>
      <trkpt lat="42.44232333" lon="1.508405">
        <ele>1604.0</ele>
        <time>2019-08-04T10:06:28.321Z</time>
      </trkpt>
      <trkpt lat="42.44234833" lon="1.50846">
        <ele>1605.0</ele>
        <time>2019-08-04T10:06:29.324Z</time>
      </trkpt>
      <trkpt lat="42.44234833" lon="1.50846">
        <ele>1605.0</ele>
        <time>2019-08-04T10:06:30.311Z</time>
      </trkpt>
      <trkpt lat="42.44237667" lon="1.50852">
        <ele>1605.0</ele>
        <time>2019-08-04T10:06:31.323Z</time>
      </trkpt>
      <trkpt lat="42.44237667" lon="1.50852">
        <ele>1605.0</ele>
        <time>2019-08-04T10:06:32.328Z</time>
      </trkpt>
      <trkpt lat="42.44240833" lon="1.508575">
        <ele>1606.0</ele>
        <time>2019-08-04T10:06:33.326Z</time>
      </trkpt>
      <trkpt lat="42.44240833" lon="1.508575">
        <ele>1606.0</ele>
        <time>2019-08-04T10:06:34.320Z</time>
      </trkpt>
      <trkpt lat="42.44243667" lon="1.50864">
        <ele>1607.0</ele>
        <time>2019-08-04T10:06:35.320Z</time>
      </trkpt>
      <trkpt lat="42.44243667" lon="1.50864">
        <ele>1607.0</ele>
        <time>2019-08-04T10:06:36.322Z</time>
      </trkpt>
      <trkpt lat="42.44246333" lon="1.50870333">
        <ele>1607.0</ele>
        <time>2019-08-04T10:06:37.328Z</time>
      </trkpt>
      <trkpt lat="42.44246333" lon="1.50870333">
        <ele>1607.0</ele>
        <time>2019-08-04T10:06:38.315Z</time>
      </trkpt>
      <trkpt lat="42.44248667" lon="1.50876667">
        <ele>1608.0</ele>
        <time>2019-08-04T10:06:39.297Z</time>
      </trkpt>
      <trkpt lat="42.44248667" lon="1.50876667">
        <ele>1608.0</ele>
        <time>2019-08-04T10:06:40.322Z</time>
      </trkpt>
      <trkpt lat="42.44251167" lon="1.50882667">
        <ele>1608.0</ele>
        <time>2019-08-04T10:06:41.323Z</time>
      </trkpt>
      <trkpt lat="42.44252167" lon="1.50886">
        <ele>1608.0</ele>
        <time>2019-08-04T10:06:42.327Z</time>
      </trkpt>
      <trkpt lat="42.44252167" lon="1.50886">
        <ele>1608.0</ele>
        <time>2019-08-04T10:06:43.321Z</time>
      </trkpt>
      <trkpt lat="42.442545" lon="1.50893167">
        <ele>1609.0</ele>
        <time>2019-08-04T10:06:44.310Z</time>
      </trkpt>
      <trkpt lat="42.442555" lon="1.50896333">
        <ele>1609.0</ele>
        <time>2019-08-04T10:06:45.310Z</time>
      </trkpt>
      <trkpt lat="42.442555" lon="1.50896333">
        <ele>1609.0</ele>
        <time>2019-08-04T10:06:46.330Z</time>
      </trkpt>
      <trkpt lat="42.44257833" lon="1.50903167">
        <ele>1609.0</ele>
        <time>2019-08-04T10:06:47.328Z</time>
      </trkpt>
      <trkpt lat="42.44257833" lon="1.50903167">
        <ele>1609.0</ele>
        <time>2019-08-04T10:06:48.333Z</time>
      </trkpt>
      <trkpt lat="42.44259667" lon="1.50909333">
        <ele>1610.0</ele>
        <time>2019-08-04T10:06:49.327Z</time>
      </trkpt>
      <trkpt lat="42.44259667" lon="1.50909333">
        <ele>1610.0</ele>
        <time>2019-08-04T10:06:50.319Z</time>
      </trkpt>
      <trkpt lat="42.44261167" lon="1.50914667">
        <ele>1610.0</ele>
        <time>2019-08-04T10:06:51.299Z</time>
      </trkpt>
      <trkpt lat="42.44261167" lon="1.50914667">
        <ele>1610.0</ele>
        <time>2019-08-04T10:06:52.320Z</time>
      </trkpt>
      <trkpt lat="42.44263333" lon="1.50919833">
        <ele>1611.0</ele>
        <time>2019-08-04T10:06:53.305Z</time>
      </trkpt>
      <trkpt lat="42.44263333" lon="1.50919833">
        <ele>1611.0</ele>
        <time>2019-08-04T10:06:54.325Z</time>
      </trkpt>
      <trkpt lat="42.44265" lon="1.50924667">
        <ele>1611.0</ele>
        <time>2019-08-04T10:06:55.310Z</time>
      </trkpt>
      <trkpt lat="42.44265" lon="1.50924667">
        <ele>1611.0</ele>
        <time>2019-08-04T10:06:56.304Z</time>
      </trkpt>
      <trkpt lat="42.44267833" lon="1.50930667">
        <ele>1612.0</ele>
        <time>2019-08-04T10:06:57.327Z</time>
      </trkpt>
      <trkpt lat="42.44269" lon="1.509335">
        <ele>1613.0</ele>
        <time>2019-08-04T10:06:58.327Z</time>
      </trkpt>
      <trkpt lat="42.44269" lon="1.509335">
        <ele>1613.0</ele>
        <time>2019-08-04T10:06:59.319Z</time>
      </trkpt>
      <trkpt lat="42.44270833" lon="1.509395">
        <ele>1613.0</ele>
        <time>2019-08-04T10:07:00.299Z</time>
      </trkpt>
      <trkpt lat="42.44271833" lon="1.50942833">
        <ele>1613.0</ele>
        <time>2019-08-04T10:07:01.327Z</time>
      </trkpt>
      <trkpt lat="42.44271833" lon="1.50942833">
        <ele>1613.0</ele>
        <time>2019-08-04T10:07:02.320Z</time>
      </trkpt>
      <trkpt lat="42.44274333" lon="1.50949167">
        <ele>1614.0</ele>
        <time>2019-08-04T10:07:03.304Z</time>
      </trkpt>
      <trkpt lat="42.44274333" lon="1.50949167">
        <ele>1614.0</ele>
        <time>2019-08-04T10:07:04.325Z</time>
      </trkpt>
      <trkpt lat="42.44276167" lon="1.50954833">
        <ele>1614.0</ele>
        <time>2019-08-04T10:07:05.304Z</time>
      </trkpt>
      <trkpt lat="42.44277167" lon="1.50957667">
        <ele>1615.0</ele>
        <time>2019-08-04T10:07:06.326Z</time>
      </trkpt>
      <trkpt lat="42.44278" lon="1.50960667">
        <ele>1615.0</ele>
        <time>2019-08-04T10:07:07.326Z</time>
      </trkpt>
      <trkpt lat="42.44278" lon="1.50960667">
        <ele>1615.0</ele>
        <time>2019-08-04T10:07:08.323Z</time>
      </trkpt>
      <trkpt lat="42.44280667" lon="1.50966667">
        <ele>1616.0</ele>
        <time>2019-08-04T10:07:09.325Z</time>
      </trkpt>
      <trkpt lat="42.44280667" lon="1.50966667">
        <ele>1616.0</ele>
        <time>2019-08-04T10:07:10.319Z</time>
      </trkpt>
      <trkpt lat="42.44282833" lon="1.50972667">
        <ele>1616.0</ele>
        <time>2019-08-04T10:07:11.304Z</time>
      </trkpt>
      <trkpt lat="42.44282833" lon="1.50972667">
        <ele>1616.0</ele>
        <time>2019-08-04T10:07:12.326Z</time>
      </trkpt>
      <trkpt lat="42.44285" lon="1.509785">
        <ele>1617.0</ele>
        <time>2019-08-04T10:07:13.306Z</time>
      </trkpt>
      <trkpt lat="42.44285" lon="1.509785">
        <ele>1617.0</ele>
        <time>2019-08-04T10:07:14.327Z</time>
      </trkpt>
      <trkpt lat="42.44287333" lon="1.50984833">
        <ele>1617.0</ele>
        <time>2019-08-04T10:07:15.304Z</time>
      </trkpt>
      <trkpt lat="42.44287333" lon="1.50984833">
        <ele>1617.0</ele>
        <time>2019-08-04T10:07:16.329Z</time>
      </trkpt>
      <trkpt lat="42.4429" lon="1.50990333">
        <ele>1618.0</ele>
        <time>2019-08-04T10:07:17.326Z</time>
      </trkpt>
      <trkpt lat="42.4429" lon="1.50990333">
        <ele>1618.0</ele>
        <time>2019-08-04T10:07:18.320Z</time>
      </trkpt>
      <trkpt lat="42.442935" lon="1.509955">
        <ele>1618.0</ele>
        <time>2019-08-04T10:07:19.305Z</time>
      </trkpt>
      <trkpt lat="42.442935" lon="1.509955">
        <ele>1618.0</ele>
        <time>2019-08-04T10:07:20.326Z</time>
      </trkpt>
      <trkpt lat="42.44296667" lon="1.51">
        <ele>1619.0</ele>
        <time>2019-08-04T10:07:21.304Z</time>
      </trkpt>
      <trkpt lat="42.44296667" lon="1.51">
        <ele>1619.0</ele>
        <time>2019-08-04T10:07:22.325Z</time>
      </trkpt>
      <trkpt lat="42.44300333" lon="1.51004">
        <ele>1619.0</ele>
        <time>2019-08-04T10:07:23.328Z</time>
      </trkpt>
      <trkpt lat="42.44300333" lon="1.51004">
        <ele>1619.0</ele>
        <time>2019-08-04T10:07:24.320Z</time>
      </trkpt>
      <trkpt lat="42.44304333" lon="1.51008167">
        <ele>1620.0</ele>
        <time>2019-08-04T10:07:25.305Z</time>
      </trkpt>
      <trkpt lat="42.44304333" lon="1.51008167">
        <ele>1620.0</ele>
        <time>2019-08-04T10:07:26.326Z</time>
      </trkpt>
      <trkpt lat="42.44308167" lon="1.510115">
        <ele>1621.0</ele>
        <time>2019-08-04T10:07:27.325Z</time>
      </trkpt>
      <trkpt lat="42.44308167" lon="1.510115">
        <ele>1621.0</ele>
        <time>2019-08-04T10:07:28.330Z</time>
      </trkpt>
      <trkpt lat="42.44312" lon="1.51014667">
        <ele>1621.0</ele>
        <time>2019-08-04T10:07:29.324Z</time>
      </trkpt>
      <trkpt lat="42.44312" lon="1.51014667">
        <ele>1621.0</ele>
        <time>2019-08-04T10:07:30.308Z</time>
      </trkpt>
      <trkpt lat="42.44315667" lon="1.510175">
        <ele>1622.0</ele>
        <time>2019-08-04T10:07:31.316Z</time>
      </trkpt>
      <trkpt lat="42.44315667" lon="1.510175">
        <ele>1622.0</ele>
        <time>2019-08-04T10:07:32.322Z</time>
      </trkpt>
      <trkpt lat="42.44319667" lon="1.51021333">
        <ele>1623.0</ele>
        <time>2019-08-04T10:07:33.305Z</time>
      </trkpt>
      <trkpt lat="42.44319667" lon="1.51021333">
        <ele>1623.0</ele>
        <time>2019-08-04T10:07:34.326Z</time>
      </trkpt>
      <trkpt lat="42.44322833" lon="1.51024333">
        <ele>1623.0</ele>
        <time>2019-08-04T10:07:35.304Z</time>
      </trkpt>
      <trkpt lat="42.44322833" lon="1.51024333">
        <ele>1623.0</ele>
        <time>2019-08-04T10:07:36.325Z</time>
      </trkpt>
      <trkpt lat="42.443265" lon="1.510285">
        <ele>1624.0</ele>
        <time>2019-08-04T10:07:37.325Z</time>
      </trkpt>
      <trkpt lat="42.443265" lon="1.510285">
        <ele>1624.0</ele>
        <time>2019-08-04T10:07:38.326Z</time>
      </trkpt>
      <trkpt lat="42.443305" lon="1.51032667">
        <ele>1624.0</ele>
        <time>2019-08-04T10:07:39.325Z</time>
      </trkpt>
      <trkpt lat="42.443305" lon="1.51032667">
        <ele>1624.0</ele>
        <time>2019-08-04T10:07:40.318Z</time>
      </trkpt>
      <trkpt lat="42.44334167" lon="1.51036167">
        <ele>1625.0</ele>
        <time>2019-08-04T10:07:41.298Z</time>
      </trkpt>
      <trkpt lat="42.44334167" lon="1.51036167">
        <ele>1625.0</ele>
        <time>2019-08-04T10:07:42.320Z</time>
      </trkpt>
      <trkpt lat="42.44338" lon="1.51040167">
        <ele>1625.0</ele>
        <time>2019-08-04T10:07:43.306Z</time>
      </trkpt>
      <trkpt lat="42.44338" lon="1.51040167">
        <ele>1625.0</ele>
        <time>2019-08-04T10:07:44.328Z</time>
      </trkpt>
      <trkpt lat="42.44341167" lon="1.51043333">
        <ele>1626.0</ele>
        <time>2019-08-04T10:07:45.305Z</time>
      </trkpt>
      <trkpt lat="42.44341167" lon="1.51043333">
        <ele>1626.0</ele>
        <time>2019-08-04T10:07:46.325Z</time>
      </trkpt>
      <trkpt lat="42.44345333" lon="1.51048167">
        <ele>1626.0</ele>
        <time>2019-08-04T10:07:47.328Z</time>
      </trkpt>
      <trkpt lat="42.44345333" lon="1.51048167">
        <ele>1626.0</ele>
        <time>2019-08-04T10:07:48.325Z</time>
      </trkpt>
      <trkpt lat="42.44348667" lon="1.51051667">
        <ele>1627.0</ele>
        <time>2019-08-04T10:07:49.325Z</time>
      </trkpt>
      <trkpt lat="42.44348667" lon="1.51051667">
        <ele>1627.0</ele>
        <time>2019-08-04T10:07:50.321Z</time>
      </trkpt>
      <trkpt lat="42.44351667" lon="1.510545">
        <ele>1627.0</ele>
        <time>2019-08-04T10:07:51.304Z</time>
      </trkpt>
      <trkpt lat="42.44351667" lon="1.510545">
        <ele>1627.0</ele>
        <time>2019-08-04T10:07:52.325Z</time>
      </trkpt>
      <trkpt lat="42.44355333" lon="1.51058167">
        <ele>1628.0</ele>
        <time>2019-08-04T10:07:53.326Z</time>
      </trkpt>
      <trkpt lat="42.44356833" lon="1.510595">
        <ele>1628.0</ele>
        <time>2019-08-04T10:07:54.327Z</time>
      </trkpt>
      <trkpt lat="42.44358667" lon="1.510615">
        <ele>1628.0</ele>
        <time>2019-08-04T10:07:55.312Z</time>
      </trkpt>
      <trkpt lat="42.44358667" lon="1.510615">
        <ele>1628.0</ele>
        <time>2019-08-04T10:07:56.312Z</time>
      </trkpt>
      <trkpt lat="42.44362333" lon="1.51065">
        <ele>1629.0</ele>
        <time>2019-08-04T10:07:57.332Z</time>
      </trkpt>
      <trkpt lat="42.44362333" lon="1.51065">
        <ele>1629.0</ele>
        <time>2019-08-04T10:07:58.321Z</time>
      </trkpt>
      <trkpt lat="42.44366167" lon="1.510695">
        <ele>1629.0</ele>
        <time>2019-08-04T10:07:59.304Z</time>
      </trkpt>
      <trkpt lat="42.44366167" lon="1.510695">
        <ele>1629.0</ele>
        <time>2019-08-04T10:08:00.325Z</time>
      </trkpt>
      <trkpt lat="42.44369667" lon="1.51074333">
        <ele>1630.0</ele>
        <time>2019-08-04T10:08:01.325Z</time>
      </trkpt>
      <trkpt lat="42.44369667" lon="1.51074333">
        <ele>1630.0</ele>
        <time>2019-08-04T10:08:02.320Z</time>
      </trkpt>
      <trkpt lat="42.44372667" lon="1.51078833">
        <ele>1630.0</ele>
        <time>2019-08-04T10:08:03.304Z</time>
      </trkpt>
      <trkpt lat="42.443745" lon="1.510815">
        <ele>1630.0</ele>
        <time>2019-08-04T10:08:04.326Z</time>
      </trkpt>
      <trkpt lat="42.44376333" lon="1.51084333">
        <ele>1630.0</ele>
        <time>2019-08-04T10:08:05.309Z</time>
      </trkpt>
      <trkpt lat="42.44376333" lon="1.51084333">
        <ele>1630.0</ele>
        <time>2019-08-04T10:08:06.330Z</time>
      </trkpt>
      <trkpt lat="42.44379833" lon="1.510895">
        <ele>1631.0</ele>
        <time>2019-08-04T10:08:07.328Z</time>
      </trkpt>
      <trkpt lat="42.44381833" lon="1.51092333">
        <ele>1631.0</ele>
        <time>2019-08-04T10:08:08.312Z</time>
      </trkpt>
      <trkpt lat="42.44381833" lon="1.51092333">
        <ele>1631.0</ele>
        <time>2019-08-04T10:08:09.334Z</time>
      </trkpt>
      <trkpt lat="42.44384667" lon="1.51097333">
        <ele>1631.0</ele>
        <time>2019-08-04T10:08:10.327Z</time>
      </trkpt>
      <trkpt lat="42.44384667" lon="1.51097333">
        <ele>1631.0</ele>
        <time>2019-08-04T10:08:11.318Z</time>
      </trkpt>
      <trkpt lat="42.44389333" lon="1.51105167">
        <ele>1632.0</ele>
        <time>2019-08-04T10:08:12.299Z</time>
      </trkpt>
      <trkpt lat="42.44389333" lon="1.51105167">
        <ele>1632.0</ele>
        <time>2019-08-04T10:08:13.328Z</time>
      </trkpt>
      <trkpt lat="42.44393" lon="1.51111333">
        <ele>1632.0</ele>
        <time>2019-08-04T10:08:14.326Z</time>
      </trkpt>
      <trkpt lat="42.44395" lon="1.51114667">
        <ele>1633.0</ele>
        <time>2019-08-04T10:08:15.304Z</time>
      </trkpt>
      <trkpt lat="42.44395" lon="1.51114667">
        <ele>1633.0</ele>
        <time>2019-08-04T10:08:16.296Z</time>
      </trkpt>
      <trkpt lat="42.44398" lon="1.51120167">
        <ele>1633.0</ele>
        <time>2019-08-04T10:08:17.325Z</time>
      </trkpt>
      <trkpt lat="42.44398" lon="1.51120167">
        <ele>1633.0</ele>
        <time>2019-08-04T10:08:18.320Z</time>
      </trkpt>
      <trkpt lat="42.44401333" lon="1.51126167">
        <ele>1634.0</ele>
        <time>2019-08-04T10:08:19.333Z</time>
      </trkpt>
      <trkpt lat="42.44401333" lon="1.51126167">
        <ele>1634.0</ele>
        <time>2019-08-04T10:08:20.324Z</time>
      </trkpt>
      <trkpt lat="42.44405167" lon="1.51132167">
        <ele>1634.0</ele>
        <time>2019-08-04T10:08:21.327Z</time>
      </trkpt>
      <trkpt lat="42.44405167" lon="1.51132167">
        <ele>1634.0</ele>
        <time>2019-08-04T10:08:22.319Z</time>
      </trkpt>
      <trkpt lat="42.44409167" lon="1.51138333">
        <ele>1634.0</ele>
        <time>2019-08-04T10:08:23.304Z</time>
      </trkpt>
      <trkpt lat="42.44411333" lon="1.51142167">
        <ele>1635.0</ele>
        <time>2019-08-04T10:08:24.331Z</time>
      </trkpt>
      <trkpt lat="42.44413667" lon="1.51145667">
        <ele>1635.0</ele>
        <time>2019-08-04T10:08:25.312Z</time>
      </trkpt>
      <trkpt lat="42.44413667" lon="1.51145667">
        <ele>1635.0</ele>
        <time>2019-08-04T10:08:26.333Z</time>
      </trkpt>
      <trkpt lat="42.44418" lon="1.51153">
        <ele>1635.0</ele>
        <time>2019-08-04T10:08:27.326Z</time>
      </trkpt>
      <trkpt lat="42.44418" lon="1.51153">
        <ele>1635.0</ele>
        <time>2019-08-04T10:08:28.319Z</time>
      </trkpt>
      <trkpt lat="42.44421833" lon="1.51160167">
        <ele>1636.0</ele>
        <time>2019-08-04T10:08:29.319Z</time>
      </trkpt>
      <trkpt lat="42.44421833" lon="1.51160167">
        <ele>1636.0</ele>
        <time>2019-08-04T10:08:30.297Z</time>
      </trkpt>
      <trkpt lat="42.444255" lon="1.51167167">
        <ele>1636.0</ele>
        <time>2019-08-04T10:08:31.303Z</time>
      </trkpt>
      <trkpt lat="42.444255" lon="1.51167167">
        <ele>1636.0</ele>
        <time>2019-08-04T10:08:32.319Z</time>
      </trkpt>
      <trkpt lat="42.44429833" lon="1.51174333">
        <ele>1636.0</ele>
        <time>2019-08-04T10:08:33.299Z</time>
      </trkpt>
      <trkpt lat="42.44431667" lon="1.51178">
        <ele>1637.0</ele>
        <time>2019-08-04T10:08:34.326Z</time>
      </trkpt>
      <trkpt lat="42.44433333" lon="1.51181333">
        <ele>1637.0</ele>
        <time>2019-08-04T10:08:35.311Z</time>
      </trkpt>
      <trkpt lat="42.44433333" lon="1.51181333">
        <ele>1637.0</ele>
        <time>2019-08-04T10:08:36.333Z</time>
      </trkpt>
      <trkpt lat="42.44437333" lon="1.51188167">
        <ele>1637.0</ele>
        <time>2019-08-04T10:08:37.329Z</time>
      </trkpt>
      <trkpt lat="42.44437333" lon="1.51188167">
        <ele>1637.0</ele>
        <time>2019-08-04T10:08:38.321Z</time>
      </trkpt>
      <trkpt lat="42.44441833" lon="1.51194">
        <ele>1637.0</ele>
        <time>2019-08-04T10:08:39.305Z</time>
      </trkpt>
      <trkpt lat="42.44441833" lon="1.51194">
        <ele>1637.0</ele>
        <time>2019-08-04T10:08:40.325Z</time>
      </trkpt>
      <trkpt lat="42.444465" lon="1.51200667">
        <ele>1638.0</ele>
        <time>2019-08-04T10:08:41.326Z</time>
      </trkpt>
      <trkpt lat="42.44448667" lon="1.51203667">
        <ele>1638.0</ele>
        <time>2019-08-04T10:08:42.327Z</time>
      </trkpt>
      <trkpt lat="42.44451" lon="1.51206833">
        <ele>1638.0</ele>
        <time>2019-08-04T10:08:43.329Z</time>
      </trkpt>
      <trkpt lat="42.44451" lon="1.51206833">
        <ele>1638.0</ele>
        <time>2019-08-04T10:08:44.324Z</time>
      </trkpt>
      <trkpt lat="42.44455667" lon="1.51212833">
        <ele>1638.0</ele>
        <time>2019-08-04T10:08:45.304Z</time>
      </trkpt>
      <trkpt lat="42.44455667" lon="1.51212833">
        <ele>1638.0</ele>
        <time>2019-08-04T10:08:46.326Z</time>
      </trkpt>
      <trkpt lat="42.44460833" lon="1.51217833">
        <ele>1639.0</ele>
        <time>2019-08-04T10:08:47.327Z</time>
      </trkpt>
      <trkpt lat="42.44460833" lon="1.51217833">
        <ele>1639.0</ele>
        <time>2019-08-04T10:08:48.323Z</time>
      </trkpt>
      <trkpt lat="42.44465333" lon="1.51221667">
        <ele>1639.0</ele>
        <time>2019-08-04T10:08:49.328Z</time>
      </trkpt>
      <trkpt lat="42.44465333" lon="1.51221667">
        <ele>1639.0</ele>
        <time>2019-08-04T10:08:50.321Z</time>
      </trkpt>
      <trkpt lat="42.44471" lon="1.51226">
        <ele>1639.0</ele>
        <time>2019-08-04T10:08:51.305Z</time>
      </trkpt>
      <trkpt lat="42.44473833" lon="1.51228667">
        <ele>1640.0</ele>
        <time>2019-08-04T10:08:52.327Z</time>
      </trkpt>
      <trkpt lat="42.44473833" lon="1.51228667">
        <ele>1640.0</ele>
        <time>2019-08-04T10:08:53.317Z</time>
      </trkpt>
      <trkpt lat="42.44479833" lon="1.512335">
        <ele>1640.0</ele>
        <time>2019-08-04T10:08:54.296Z</time>
      </trkpt>
      <trkpt lat="42.44482333" lon="1.51235333">
        <ele>1640.0</ele>
        <time>2019-08-04T10:08:55.305Z</time>
      </trkpt>
      <trkpt lat="42.44482333" lon="1.51235333">
        <ele>1640.0</ele>
        <time>2019-08-04T10:08:56.327Z</time>
      </trkpt>
      <trkpt lat="42.44487833" lon="1.5124">
        <ele>1641.0</ele>
        <time>2019-08-04T10:08:57.327Z</time>
      </trkpt>
      <trkpt lat="42.44487833" lon="1.5124">
        <ele>1641.0</ele>
        <time>2019-08-04T10:08:58.317Z</time>
      </trkpt>
      <trkpt lat="42.44493667" lon="1.51245167">
        <ele>1641.0</ele>
        <time>2019-08-04T10:08:59.304Z</time>
      </trkpt>
      <trkpt lat="42.44493667" lon="1.51245167">
        <ele>1641.0</ele>
        <time>2019-08-04T10:09:00.324Z</time>
      </trkpt>
      <trkpt lat="42.44500833" lon="1.51249667">
        <ele>1642.0</ele>
        <time>2019-08-04T10:09:01.325Z</time>
      </trkpt>
      <trkpt lat="42.44500833" lon="1.51249667">
        <ele>1642.0</ele>
        <time>2019-08-04T10:09:02.321Z</time>
      </trkpt>
      <trkpt lat="42.44508167" lon="1.51253333">
        <ele>1642.0</ele>
        <time>2019-08-04T10:09:03.305Z</time>
      </trkpt>
      <trkpt lat="42.44508167" lon="1.51253333">
        <ele>1642.0</ele>
        <time>2019-08-04T10:09:04.325Z</time>
      </trkpt>
      <trkpt lat="42.44514667" lon="1.51255">
        <ele>1643.0</ele>
        <time>2019-08-04T10:09:05.305Z</time>
      </trkpt>
      <trkpt lat="42.44514667" lon="1.51255">
        <ele>1643.0</ele>
        <time>2019-08-04T10:09:06.326Z</time>
      </trkpt>
      <trkpt lat="42.44521667" lon="1.512575">
        <ele>1643.0</ele>
        <time>2019-08-04T10:09:07.306Z</time>
      </trkpt>
      <trkpt lat="42.44521667" lon="1.512575">
        <ele>1643.0</ele>
        <time>2019-08-04T10:09:08.326Z</time>
      </trkpt>
      <trkpt lat="42.44529167" lon="1.51259667">
        <ele>1643.0</ele>
        <time>2019-08-04T10:09:09.324Z</time>
      </trkpt>
      <trkpt lat="42.44529167" lon="1.51259667">
        <ele>1643.0</ele>
        <time>2019-08-04T10:09:10.319Z</time>
      </trkpt>
      <trkpt lat="42.44536667" lon="1.51261333">
        <ele>1643.0</ele>
        <time>2019-08-04T10:09:11.299Z</time>
      </trkpt>
      <trkpt lat="42.44540833" lon="1.51262167">
        <ele>1644.0</ele>
        <time>2019-08-04T10:09:12.326Z</time>
      </trkpt>
      <trkpt lat="42.44544333" lon="1.51262167">
        <ele>1644.0</ele>
        <time>2019-08-04T10:09:13.325Z</time>
      </trkpt>
      <trkpt lat="42.44544333" lon="1.51262167">
        <ele>1644.0</ele>
        <time>2019-08-04T10:09:14.319Z</time>
      </trkpt>
      <trkpt lat="42.44552167" lon="1.51263833">
        <ele>1645.0</ele>
        <time>2019-08-04T10:09:15.307Z</time>
      </trkpt>
      <trkpt lat="42.44552167" lon="1.51263833">
        <ele>1645.0</ele>
        <time>2019-08-04T10:09:16.327Z</time>
      </trkpt>
      <trkpt lat="42.44559667" lon="1.51267333">
        <ele>1645.0</ele>
        <time>2019-08-04T10:09:17.326Z</time>
      </trkpt>
      <trkpt lat="42.44559667" lon="1.51267333">
        <ele>1645.0</ele>
        <time>2019-08-04T10:09:18.319Z</time>
      </trkpt>
      <trkpt lat="42.44566833" lon="1.51271167">
        <ele>1646.0</ele>
        <time>2019-08-04T10:09:19.318Z</time>
      </trkpt>
      <trkpt lat="42.44566833" lon="1.51271167">
        <ele>1646.0</ele>
        <time>2019-08-04T10:09:20.305Z</time>
      </trkpt>
      <trkpt lat="42.44575" lon="1.51275667">
        <ele>1646.0</ele>
        <time>2019-08-04T10:09:21.328Z</time>
      </trkpt>
      <trkpt lat="42.44575" lon="1.51275667">
        <ele>1646.0</ele>
        <time>2019-08-04T10:09:22.321Z</time>
      </trkpt>
      <trkpt lat="42.445825" lon="1.51279667">
        <ele>1647.0</ele>
        <time>2019-08-04T10:09:23.306Z</time>
      </trkpt>
      <trkpt lat="42.44586667" lon="1.51282333">
        <ele>1647.0</ele>
        <time>2019-08-04T10:09:24.297Z</time>
      </trkpt>
      <trkpt lat="42.44590667" lon="1.51285167">
        <ele>1647.0</ele>
        <time>2019-08-04T10:09:25.313Z</time>
      </trkpt>
      <trkpt lat="42.44590667" lon="1.51285167">
        <ele>1647.0</ele>
        <time>2019-08-04T10:09:26.333Z</time>
      </trkpt>
      <trkpt lat="42.44598333" lon="1.512915">
        <ele>1648.0</ele>
        <time>2019-08-04T10:09:27.328Z</time>
      </trkpt>
      <trkpt lat="42.44602333" lon="1.51295167">
        <ele>1648.0</ele>
        <time>2019-08-04T10:09:28.326Z</time>
      </trkpt>
      <trkpt lat="42.44602333" lon="1.51295167">
        <ele>1648.0</ele>
        <time>2019-08-04T10:09:29.322Z</time>
      </trkpt>
      <trkpt lat="42.44610167" lon="1.51304167">
        <ele>1648.0</ele>
        <time>2019-08-04T10:09:30.311Z</time>
      </trkpt>
      <trkpt lat="42.44613833" lon="1.51308667">
        <ele>1649.0</ele>
        <time>2019-08-04T10:09:31.319Z</time>
      </trkpt>
      <trkpt lat="42.44613833" lon="1.51308667">
        <ele>1649.0</ele>
        <time>2019-08-04T10:09:32.326Z</time>
      </trkpt>
      <trkpt lat="42.44621" lon="1.51318667">
        <ele>1649.0</ele>
        <time>2019-08-04T10:09:33.334Z</time>
      </trkpt>
      <trkpt lat="42.44621" lon="1.51318667">
        <ele>1649.0</ele>
        <time>2019-08-04T10:09:34.320Z</time>
      </trkpt>
      <trkpt lat="42.44627833" lon="1.51328833">
        <ele>1649.0</ele>
        <time>2019-08-04T10:09:35.305Z</time>
      </trkpt>
      <trkpt lat="42.44627833" lon="1.51328833">
        <ele>1649.0</ele>
        <time>2019-08-04T10:09:36.326Z</time>
      </trkpt>
      <trkpt lat="42.44635667" lon="1.51339667">
        <ele>1649.0</ele>
        <time>2019-08-04T10:09:37.307Z</time>
      </trkpt>
      <trkpt lat="42.446395" lon="1.51344833">
        <ele>1650.0</ele>
        <time>2019-08-04T10:09:38.329Z</time>
      </trkpt>
      <trkpt lat="42.44643333" lon="1.51349833">
        <ele>1650.0</ele>
        <time>2019-08-04T10:09:39.328Z</time>
      </trkpt>
      <trkpt lat="42.44643333" lon="1.51349833">
        <ele>1650.0</ele>
        <time>2019-08-04T10:09:40.326Z</time>
      </trkpt>
      <trkpt lat="42.44652167" lon="1.51359167">
        <ele>1650.0</ele>
        <time>2019-08-04T10:09:41.327Z</time>
      </trkpt>
      <trkpt lat="42.44652167" lon="1.51359167">
        <ele>1650.0</ele>
        <time>2019-08-04T10:09:42.319Z</time>
      </trkpt>
      <trkpt lat="42.44661167" lon="1.51368167">
        <ele>1650.0</ele>
        <time>2019-08-04T10:09:43.306Z</time>
      </trkpt>
      <trkpt lat="42.44661167" lon="1.51368167">
        <ele>1650.0</ele>
        <time>2019-08-04T10:09:44.326Z</time>
      </trkpt>
      <trkpt lat="42.44670833" lon="1.51376667">
        <ele>1650.0</ele>
        <time>2019-08-04T10:09:45.304Z</time>
      </trkpt>
      <trkpt lat="42.44670833" lon="1.51376667">
        <ele>1650.0</ele>
        <time>2019-08-04T10:09:46.325Z</time>
      </trkpt>
      <trkpt lat="42.44681" lon="1.513855">
        <ele>1651.0</ele>
        <time>2019-08-04T10:09:47.306Z</time>
      </trkpt>
      <trkpt lat="42.44681" lon="1.513855">
        <ele>1651.0</ele>
        <time>2019-08-04T10:09:48.328Z</time>
      </trkpt>
      <trkpt lat="42.44690833" lon="1.513935">
        <ele>1651.0</ele>
        <time>2019-08-04T10:09:49.324Z</time>
      </trkpt>
      <trkpt lat="42.44690833" lon="1.513935">
        <ele>1651.0</ele>
        <time>2019-08-04T10:09:50.320Z</time>
      </trkpt>
      <trkpt lat="42.44701" lon="1.514005">
        <ele>1651.0</ele>
        <time>2019-08-04T10:09:51.328Z</time>
      </trkpt>
      <trkpt lat="42.44701" lon="1.514005">
        <ele>1651.0</ele>
        <time>2019-08-04T10:09:52.319Z</time>
      </trkpt>
      <trkpt lat="42.44711667" lon="1.51407167">
        <ele>1651.0</ele>
        <time>2019-08-04T10:09:53.305Z</time>
      </trkpt>
      <trkpt lat="42.44716833" lon="1.51410167">
        <ele>1651.0</ele>
        <time>2019-08-04T10:09:54.326Z</time>
      </trkpt>
      <trkpt lat="42.44722" lon="1.51412833">
        <ele>1652.0</ele>
        <time>2019-08-04T10:09:55.318Z</time>
      </trkpt>
      <trkpt lat="42.44722" lon="1.51412833">
        <ele>1652.0</ele>
        <time>2019-08-04T10:09:56.299Z</time>
      </trkpt>
      <trkpt lat="42.44731833" lon="1.51418667">
        <ele>1652.0</ele>
        <time>2019-08-04T10:09:57.319Z</time>
      </trkpt>
      <trkpt lat="42.44736333" lon="1.51421167">
        <ele>1652.0</ele>
        <time>2019-08-04T10:09:58.307Z</time>
      </trkpt>
      <trkpt lat="42.44741167" lon="1.51424333">
        <ele>1652.0</ele>
        <time>2019-08-04T10:09:59.328Z</time>
      </trkpt>
      <trkpt lat="42.44741167" lon="1.51424333">
        <ele>1652.0</ele>
        <time>2019-08-04T10:10:00.320Z</time>
      </trkpt>
      <trkpt lat="42.447495" lon="1.514285">
        <ele>1652.0</ele>
        <time>2019-08-04T10:10:01.300Z</time>
      </trkpt>
      <trkpt lat="42.447495" lon="1.514285">
        <ele>1652.0</ele>
        <time>2019-08-04T10:10:02.323Z</time>
      </trkpt>
      <trkpt lat="42.44758" lon="1.51432667">
        <ele>1652.0</ele>
        <time>2019-08-04T10:10:03.326Z</time>
      </trkpt>
      <trkpt lat="42.44758" lon="1.51432667">
        <ele>1652.0</ele>
        <time>2019-08-04T10:10:04.320Z</time>
      </trkpt>
      <trkpt lat="42.44766667" lon="1.51437167">
        <ele>1652.0</ele>
        <time>2019-08-04T10:10:05.311Z</time>
      </trkpt>
      <trkpt lat="42.44766667" lon="1.51437167">
        <ele>1652.0</ele>
        <time>2019-08-04T10:10:06.332Z</time>
      </trkpt>
      <trkpt lat="42.44775" lon="1.51441667">
        <ele>1653.0</ele>
        <time>2019-08-04T10:10:07.306Z</time>
      </trkpt>
      <trkpt lat="42.44775" lon="1.51441667">
        <ele>1653.0</ele>
        <time>2019-08-04T10:10:08.327Z</time>
      </trkpt>
      <trkpt lat="42.44782333" lon="1.51447">
        <ele>1654.0</ele>
        <time>2019-08-04T10:10:09.328Z</time>
      </trkpt>
      <trkpt lat="42.44782333" lon="1.51447">
        <ele>1654.0</ele>
        <time>2019-08-04T10:10:10.331Z</time>
      </trkpt>
      <trkpt lat="42.44789" lon="1.51454333">
        <ele>1654.0</ele>
        <time>2019-08-04T10:10:11.327Z</time>
      </trkpt>
      <trkpt lat="42.44789" lon="1.51454333">
        <ele>1654.0</ele>
        <time>2019-08-04T10:10:12.320Z</time>
      </trkpt>
      <trkpt lat="42.447955" lon="1.51462833">
        <ele>1654.0</ele>
        <time>2019-08-04T10:10:13.307Z</time>
      </trkpt>
      <trkpt lat="42.447955" lon="1.51462833">
        <ele>1654.0</ele>
        <time>2019-08-04T10:10:14.327Z</time>
      </trkpt>
      <trkpt lat="42.44801167" lon="1.51471833">
        <ele>1655.0</ele>
        <time>2019-08-04T10:10:15.306Z</time>
      </trkpt>
      <trkpt lat="42.44801167" lon="1.51471833">
        <ele>1655.0</ele>
        <time>2019-08-04T10:10:16.327Z</time>
      </trkpt>
      <trkpt lat="42.44805333" lon="1.51478833">
        <ele>1655.0</ele>
        <time>2019-08-04T10:10:17.328Z</time>
      </trkpt>
      <trkpt lat="42.44805333" lon="1.51478833">
        <ele>1655.0</ele>
        <time>2019-08-04T10:10:18.320Z</time>
      </trkpt>
      <trkpt lat="42.44809667" lon="1.514865">
        <ele>1656.0</ele>
        <time>2019-08-04T10:10:19.335Z</time>
      </trkpt>
      <trkpt lat="42.44809667" lon="1.514865">
        <ele>1656.0</ele>
        <time>2019-08-04T10:10:20.320Z</time>
      </trkpt>
      <trkpt lat="42.44813833" lon="1.51494333">
        <ele>1656.0</ele>
        <time>2019-08-04T10:10:21.305Z</time>
      </trkpt>
      <trkpt lat="42.44813833" lon="1.51494333">
        <ele>1656.0</ele>
        <time>2019-08-04T10:10:22.326Z</time>
      </trkpt>
      <trkpt lat="42.44817667" lon="1.51501833">
        <ele>1656.0</ele>
        <time>2019-08-04T10:10:23.328Z</time>
      </trkpt>
      <trkpt lat="42.44817667" lon="1.51501833">
        <ele>1656.0</ele>
        <time>2019-08-04T10:10:24.321Z</time>
      </trkpt>
      <trkpt lat="42.448215" lon="1.51509167">
        <ele>1657.0</ele>
        <time>2019-08-04T10:10:25.306Z</time>
      </trkpt>
      <trkpt lat="42.448215" lon="1.51509167">
        <ele>1657.0</ele>
        <time>2019-08-04T10:10:26.327Z</time>
      </trkpt>
      <trkpt lat="42.44825" lon="1.51516333">
        <ele>1658.0</ele>
        <time>2019-08-04T10:10:27.329Z</time>
      </trkpt>
      <trkpt lat="42.44825" lon="1.51516333">
        <ele>1658.0</ele>
        <time>2019-08-04T10:10:28.320Z</time>
      </trkpt>
      <trkpt lat="42.44828333" lon="1.51523167">
        <ele>1658.0</ele>
        <time>2019-08-04T10:10:29.298Z</time>
      </trkpt>
      <trkpt lat="42.44828333" lon="1.51523167">
        <ele>1658.0</ele>
        <time>2019-08-04T10:10:30.319Z</time>
      </trkpt>
      <trkpt lat="42.44831833" lon="1.51530333">
        <ele>1659.0</ele>
        <time>2019-08-04T10:10:31.325Z</time>
      </trkpt>
      <trkpt lat="42.44831833" lon="1.51530333">
        <ele>1659.0</ele>
        <time>2019-08-04T10:10:32.331Z</time>
      </trkpt>
      <trkpt lat="42.44835" lon="1.51537667">
        <ele>1660.0</ele>
        <time>2019-08-04T10:10:33.328Z</time>
      </trkpt>
      <trkpt lat="42.44835" lon="1.51537667">
        <ele>1660.0</ele>
        <time>2019-08-04T10:10:34.321Z</time>
      </trkpt>
      <trkpt lat="42.44838167" lon="1.51543833">
        <ele>1660.0</ele>
        <time>2019-08-04T10:10:35.305Z</time>
      </trkpt>
      <trkpt lat="42.44839833" lon="1.515475">
        <ele>1661.0</ele>
        <time>2019-08-04T10:10:36.329Z</time>
      </trkpt>
      <trkpt lat="42.44839833" lon="1.515475">
        <ele>1661.0</ele>
        <time>2019-08-04T10:10:37.322Z</time>
      </trkpt>
      <trkpt lat="42.44842667" lon="1.51554333">
        <ele>1661.0</ele>
        <time>2019-08-04T10:10:38.299Z</time>
      </trkpt>
      <trkpt lat="42.44844" lon="1.51557667">
        <ele>1662.0</ele>
        <time>2019-08-04T10:10:39.327Z</time>
      </trkpt>
      <trkpt lat="42.44844" lon="1.51557667">
        <ele>1662.0</ele>
        <time>2019-08-04T10:10:40.321Z</time>
      </trkpt>
      <trkpt lat="42.448465" lon="1.515645">
        <ele>1662.0</ele>
        <time>2019-08-04T10:10:41.305Z</time>
      </trkpt>
      <trkpt lat="42.448465" lon="1.515645">
        <ele>1662.0</ele>
        <time>2019-08-04T10:10:42.326Z</time>
      </trkpt>
      <trkpt lat="42.448485" lon="1.51571">
        <ele>1663.0</ele>
        <time>2019-08-04T10:10:43.327Z</time>
      </trkpt>
      <trkpt lat="42.448485" lon="1.51571">
        <ele>1663.0</ele>
        <time>2019-08-04T10:10:44.319Z</time>
      </trkpt>
      <trkpt lat="42.44851" lon="1.51578">
        <ele>1663.0</ele>
        <time>2019-08-04T10:10:45.312Z</time>
      </trkpt>
      <trkpt lat="42.44851" lon="1.51578">
        <ele>1663.0</ele>
        <time>2019-08-04T10:10:46.305Z</time>
      </trkpt>
      <trkpt lat="42.44854" lon="1.51585">
        <ele>1664.0</ele>
        <time>2019-08-04T10:10:47.326Z</time>
      </trkpt>
      <trkpt lat="42.44855333" lon="1.51588333">
        <ele>1664.0</ele>
        <time>2019-08-04T10:10:48.309Z</time>
      </trkpt>
      <trkpt lat="42.44855333" lon="1.51588333">
        <ele>1664.0</ele>
        <time>2019-08-04T10:10:49.330Z</time>
      </trkpt>
      <trkpt lat="42.44857833" lon="1.51595">
        <ele>1665.0</ele>
        <time>2019-08-04T10:10:50.328Z</time>
      </trkpt>
      <trkpt lat="42.44858667" lon="1.515985">
        <ele>1665.0</ele>
        <time>2019-08-04T10:10:51.326Z</time>
      </trkpt>
      <trkpt lat="42.44858667" lon="1.515985">
        <ele>1665.0</ele>
        <time>2019-08-04T10:10:52.321Z</time>
      </trkpt>
      <trkpt lat="42.44860833" lon="1.51605333">
        <ele>1666.0</ele>
        <time>2019-08-04T10:10:53.305Z</time>
      </trkpt>
      <trkpt lat="42.44860833" lon="1.51605333">
        <ele>1666.0</ele>
        <time>2019-08-04T10:10:54.325Z</time>
      </trkpt>
      <trkpt lat="42.44862667" lon="1.51611833">
        <ele>1666.0</ele>
        <time>2019-08-04T10:10:55.306Z</time>
      </trkpt>
      <trkpt lat="42.44862667" lon="1.51611833">
        <ele>1666.0</ele>
        <time>2019-08-04T10:10:56.328Z</time>
      </trkpt>
      <trkpt lat="42.448645" lon="1.51618833">
        <ele>1667.0</ele>
        <time>2019-08-04T10:10:57.325Z</time>
      </trkpt>
      <trkpt lat="42.448645" lon="1.51618833">
        <ele>1667.0</ele>
        <time>2019-08-04T10:10:58.306Z</time>
      </trkpt>
      <trkpt lat="42.44866" lon="1.51625833">
        <ele>1667.0</ele>
        <time>2019-08-04T10:10:59.329Z</time>
      </trkpt>
      <trkpt lat="42.44866" lon="1.51625833">
        <ele>1667.0</ele>
        <time>2019-08-04T10:11:00.320Z</time>
      </trkpt>
      <trkpt lat="42.44867167" lon="1.51633">
        <ele>1668.0</ele>
        <time>2019-08-04T10:11:01.300Z</time>
      </trkpt>
      <trkpt lat="42.44867167" lon="1.51633">
        <ele>1668.0</ele>
        <time>2019-08-04T10:11:02.323Z</time>
      </trkpt>
      <trkpt lat="42.448675" lon="1.51639833">
        <ele>1668.0</ele>
        <time>2019-08-04T10:11:03.326Z</time>
      </trkpt>
      <trkpt lat="42.448675" lon="1.51639833">
        <ele>1668.0</ele>
        <time>2019-08-04T10:11:04.320Z</time>
      </trkpt>
      <trkpt lat="42.44869" lon="1.51646833">
        <ele>1669.0</ele>
        <time>2019-08-04T10:11:05.306Z</time>
      </trkpt>
      <trkpt lat="42.44869" lon="1.51646833">
        <ele>1669.0</ele>
        <time>2019-08-04T10:11:06.327Z</time>
      </trkpt>
      <trkpt lat="42.4487" lon="1.51653667">
        <ele>1669.0</ele>
        <time>2019-08-04T10:11:07.325Z</time>
      </trkpt>
      <trkpt lat="42.4487" lon="1.51653667">
        <ele>1669.0</ele>
        <time>2019-08-04T10:11:08.332Z</time>
      </trkpt>
      <trkpt lat="42.44870833" lon="1.51660667">
        <ele>1670.0</ele>
        <time>2019-08-04T10:11:09.324Z</time>
      </trkpt>
      <trkpt lat="42.448715" lon="1.516645">
        <ele>1670.0</ele>
        <time>2019-08-04T10:11:10.327Z</time>
      </trkpt>
      <trkpt lat="42.448715" lon="1.516645">
        <ele>1670.0</ele>
        <time>2019-08-04T10:11:11.319Z</time>
      </trkpt>
      <trkpt lat="42.448735" lon="1.51671833">
        <ele>1671.0</ele>
        <time>2019-08-04T10:11:12.299Z</time>
      </trkpt>
      <trkpt lat="42.448735" lon="1.51671833">
        <ele>1671.0</ele>
        <time>2019-08-04T10:11:13.321Z</time>
      </trkpt>
      <trkpt lat="42.44875167" lon="1.5168">
        <ele>1671.0</ele>
        <time>2019-08-04T10:11:14.305Z</time>
      </trkpt>
      <trkpt lat="42.44874833" lon="1.51684167">
        <ele>1672.0</ele>
        <time>2019-08-04T10:11:15.335Z</time>
      </trkpt>
      <trkpt lat="42.44874833" lon="1.51684167">
        <ele>1672.0</ele>
        <time>2019-08-04T10:11:16.319Z</time>
      </trkpt>
      <trkpt lat="42.44874333" lon="1.51692333">
        <ele>1673.0</ele>
        <time>2019-08-04T10:11:17.305Z</time>
      </trkpt>
      <trkpt lat="42.44874333" lon="1.51692333">
        <ele>1673.0</ele>
        <time>2019-08-04T10:11:18.325Z</time>
      </trkpt>
      <trkpt lat="42.44874167" lon="1.51699833">
        <ele>1673.0</ele>
        <time>2019-08-04T10:11:19.306Z</time>
      </trkpt>
      <trkpt lat="42.44874167" lon="1.51699833">
        <ele>1673.0</ele>
        <time>2019-08-04T10:11:20.323Z</time>
      </trkpt>
      <trkpt lat="42.44874" lon="1.517075">
        <ele>1673.0</ele>
        <time>2019-08-04T10:11:21.327Z</time>
      </trkpt>
      <trkpt lat="42.44874" lon="1.517075">
        <ele>1673.0</ele>
        <time>2019-08-04T10:11:22.320Z</time>
      </trkpt>
      <trkpt lat="42.448735" lon="1.51714833">
        <ele>1674.0</ele>
        <time>2019-08-04T10:11:23.305Z</time>
      </trkpt>
      <trkpt lat="42.44873333" lon="1.51718333">
        <ele>1674.0</ele>
        <time>2019-08-04T10:11:24.330Z</time>
      </trkpt>
      <trkpt lat="42.44873333" lon="1.51718333">
        <ele>1674.0</ele>
        <time>2019-08-04T10:11:25.334Z</time>
      </trkpt>
      <trkpt lat="42.44872667" lon="1.51725333">
        <ele>1675.0</ele>
        <time>2019-08-04T10:11:26.326Z</time>
      </trkpt>
      <trkpt lat="42.44872" lon="1.51728667">
        <ele>1675.0</ele>
        <time>2019-08-04T10:11:27.324Z</time>
      </trkpt>
      <trkpt lat="42.44872" lon="1.51728667">
        <ele>1675.0</ele>
        <time>2019-08-04T10:11:28.306Z</time>
      </trkpt>
      <trkpt lat="42.44870333" lon="1.51735333">
        <ele>1676.0</ele>
        <time>2019-08-04T10:11:29.326Z</time>
      </trkpt>
      <trkpt lat="42.44870333" lon="1.51735333">
        <ele>1676.0</ele>
        <time>2019-08-04T10:11:30.325Z</time>
      </trkpt>
      <trkpt lat="42.44868" lon="1.51741333">
        <ele>1677.0</ele>
        <time>2019-08-04T10:11:31.328Z</time>
      </trkpt>
      <trkpt lat="42.44868" lon="1.51741333">
        <ele>1677.0</ele>
        <time>2019-08-04T10:11:32.319Z</time>
      </trkpt>
      <trkpt lat="42.44865167" lon="1.51746833">
        <ele>1678.0</ele>
        <time>2019-08-04T10:11:33.300Z</time>
      </trkpt>
      <trkpt lat="42.44865167" lon="1.51746833">
        <ele>1678.0</ele>
        <time>2019-08-04T10:11:34.323Z</time>
      </trkpt>
      <trkpt lat="42.44862333" lon="1.517525">
        <ele>1678.0</ele>
        <time>2019-08-04T10:11:35.305Z</time>
      </trkpt>
      <trkpt lat="42.44862333" lon="1.517525">
        <ele>1678.0</ele>
        <time>2019-08-04T10:11:36.327Z</time>
      </trkpt>
      <trkpt lat="42.44859333" lon="1.51757833">
        <ele>1679.0</ele>
        <time>2019-08-04T10:11:37.328Z</time>
      </trkpt>
      <trkpt lat="42.44859333" lon="1.51757833">
        <ele>1679.0</ele>
        <time>2019-08-04T10:11:38.318Z</time>
      </trkpt>
      <trkpt lat="42.44855833" lon="1.51762333">
        <ele>1680.0</ele>
        <time>2019-08-04T10:11:39.298Z</time>
      </trkpt>
      <trkpt lat="42.44855833" lon="1.51762333">
        <ele>1680.0</ele>
        <time>2019-08-04T10:11:40.323Z</time>
      </trkpt>
      <trkpt lat="42.44852" lon="1.517665">
        <ele>1680.0</ele>
        <time>2019-08-04T10:11:41.326Z</time>
      </trkpt>
      <trkpt lat="42.44852" lon="1.517665">
        <ele>1680.0</ele>
        <time>2019-08-04T10:11:42.320Z</time>
      </trkpt>
      <trkpt lat="42.44848" lon="1.5177">
        <ele>1681.0</ele>
        <time>2019-08-04T10:11:43.306Z</time>
      </trkpt>
      <trkpt lat="42.44848" lon="1.5177">
        <ele>1681.0</ele>
        <time>2019-08-04T10:11:44.327Z</time>
      </trkpt>
      <trkpt lat="42.44843" lon="1.51772333">
        <ele>1681.0</ele>
        <time>2019-08-04T10:11:45.305Z</time>
      </trkpt>
      <trkpt lat="42.44843" lon="1.51772333">
        <ele>1681.0</ele>
        <time>2019-08-04T10:11:46.326Z</time>
      </trkpt>
      <trkpt lat="42.44837" lon="1.51771833">
        <ele>1682.0</ele>
        <time>2019-08-04T10:11:47.326Z</time>
      </trkpt>
      <trkpt lat="42.44837" lon="1.51771833">
        <ele>1682.0</ele>
        <time>2019-08-04T10:11:48.328Z</time>
      </trkpt>
      <trkpt lat="42.44831833" lon="1.51769333">
        <ele>1683.0</ele>
        <time>2019-08-04T10:11:49.328Z</time>
      </trkpt>
      <trkpt lat="42.44831833" lon="1.51769333">
        <ele>1683.0</ele>
        <time>2019-08-04T10:11:50.317Z</time>
      </trkpt>
      <trkpt lat="42.448275" lon="1.51765833">
        <ele>1683.0</ele>
        <time>2019-08-04T10:11:51.298Z</time>
      </trkpt>
      <trkpt lat="42.448275" lon="1.51765833">
        <ele>1683.0</ele>
        <time>2019-08-04T10:11:52.326Z</time>
      </trkpt>
      <trkpt lat="42.44824167" lon="1.51760333">
        <ele>1684.0</ele>
        <time>2019-08-04T10:11:53.326Z</time>
      </trkpt>
      <trkpt lat="42.44824167" lon="1.51760333">
        <ele>1684.0</ele>
        <time>2019-08-04T10:11:54.317Z</time>
      </trkpt>
      <trkpt lat="42.44820833" lon="1.517545">
        <ele>1685.0</ele>
        <time>2019-08-04T10:11:55.313Z</time>
      </trkpt>
      <trkpt lat="42.44820833" lon="1.517545">
        <ele>1685.0</ele>
        <time>2019-08-04T10:11:56.333Z</time>
      </trkpt>
      <trkpt lat="42.44817833" lon="1.51748333">
        <ele>1686.0</ele>
        <time>2019-08-04T10:11:57.328Z</time>
      </trkpt>
      <trkpt lat="42.44817833" lon="1.51748333">
        <ele>1686.0</ele>
        <time>2019-08-04T10:11:58.326Z</time>
      </trkpt>
      <trkpt lat="42.448155" lon="1.51741833">
        <ele>1686.0</ele>
        <time>2019-08-04T10:11:59.326Z</time>
      </trkpt>
      <trkpt lat="42.448155" lon="1.51741833">
        <ele>1686.0</ele>
        <time>2019-08-04T10:12:00.319Z</time>
      </trkpt>
      <trkpt lat="42.44813333" lon="1.51735167">
        <ele>1687.0</ele>
        <time>2019-08-04T10:12:01.300Z</time>
      </trkpt>
      <trkpt lat="42.44813333" lon="1.51735167">
        <ele>1687.0</ele>
        <time>2019-08-04T10:12:02.323Z</time>
      </trkpt>
      <trkpt lat="42.448115" lon="1.51728833">
        <ele>1688.0</ele>
        <time>2019-08-04T10:12:03.305Z</time>
      </trkpt>
      <trkpt lat="42.44810167" lon="1.51725667">
        <ele>1688.0</ele>
        <time>2019-08-04T10:12:04.328Z</time>
      </trkpt>
      <trkpt lat="42.44808833" lon="1.51722667">
        <ele>1689.0</ele>
        <time>2019-08-04T10:12:05.306Z</time>
      </trkpt>
      <trkpt lat="42.44808833" lon="1.51722667">
        <ele>1689.0</ele>
        <time>2019-08-04T10:12:06.326Z</time>
      </trkpt>
      <trkpt lat="42.44806333" lon="1.51716833">
        <ele>1690.0</ele>
        <time>2019-08-04T10:12:07.308Z</time>
      </trkpt>
      <trkpt lat="42.44806333" lon="1.51716833">
        <ele>1690.0</ele>
        <time>2019-08-04T10:12:08.327Z</time>
      </trkpt>
      <trkpt lat="42.44803333" lon="1.51711167">
        <ele>1691.0</ele>
        <time>2019-08-04T10:12:09.325Z</time>
      </trkpt>
      <trkpt lat="42.44803333" lon="1.51711167">
        <ele>1691.0</ele>
        <time>2019-08-04T10:12:10.307Z</time>
      </trkpt>
      <trkpt lat="42.448" lon="1.517065">
        <ele>1692.0</ele>
        <time>2019-08-04T10:12:11.329Z</time>
      </trkpt>
      <trkpt lat="42.448" lon="1.517065">
        <ele>1692.0</ele>
        <time>2019-08-04T10:12:12.326Z</time>
      </trkpt>
      <trkpt lat="42.447955" lon="1.51702167">
        <ele>1692.0</ele>
        <time>2019-08-04T10:12:13.326Z</time>
      </trkpt>
      <trkpt lat="42.447955" lon="1.51702167">
        <ele>1692.0</ele>
        <time>2019-08-04T10:12:14.318Z</time>
      </trkpt>
      <trkpt lat="42.44791167" lon="1.51698">
        <ele>1693.0</ele>
        <time>2019-08-04T10:12:15.306Z</time>
      </trkpt>
      <trkpt lat="42.44791167" lon="1.51698">
        <ele>1693.0</ele>
        <time>2019-08-04T10:12:16.326Z</time>
      </trkpt>
      <trkpt lat="42.44785833" lon="1.51694333">
        <ele>1694.0</ele>
        <time>2019-08-04T10:12:17.328Z</time>
      </trkpt>
      <trkpt lat="42.44783333" lon="1.51692333">
        <ele>1694.0</ele>
        <time>2019-08-04T10:12:18.328Z</time>
      </trkpt>
      <trkpt lat="42.44783333" lon="1.51692333">
        <ele>1694.0</ele>
        <time>2019-08-04T10:12:19.327Z</time>
      </trkpt>
      <trkpt lat="42.44778" lon="1.51688833">
        <ele>1695.0</ele>
        <time>2019-08-04T10:12:20.325Z</time>
      </trkpt>
      <trkpt lat="42.44775333" lon="1.51687333">
        <ele>1695.0</ele>
        <time>2019-08-04T10:12:21.307Z</time>
      </trkpt>
      <trkpt lat="42.44775333" lon="1.51687333">
        <ele>1695.0</ele>
        <time>2019-08-04T10:12:22.327Z</time>
      </trkpt>
      <trkpt lat="42.44770333" lon="1.51684">
        <ele>1696.0</ele>
        <time>2019-08-04T10:12:23.325Z</time>
      </trkpt>
      <trkpt lat="42.44770333" lon="1.51684">
        <ele>1696.0</ele>
        <time>2019-08-04T10:12:24.324Z</time>
      </trkpt>
      <trkpt lat="42.44765" lon="1.51680333">
        <ele>1696.0</ele>
        <time>2019-08-04T10:12:25.313Z</time>
      </trkpt>
      <trkpt lat="42.44765" lon="1.51680333">
        <ele>1696.0</ele>
        <time>2019-08-04T10:12:26.335Z</time>
      </trkpt>
      <trkpt lat="42.447595" lon="1.51676833">
        <ele>1697.0</ele>
        <time>2019-08-04T10:12:27.328Z</time>
      </trkpt>
      <trkpt lat="42.447595" lon="1.51676833">
        <ele>1697.0</ele>
        <time>2019-08-04T10:12:28.318Z</time>
      </trkpt>
      <trkpt lat="42.44753833" lon="1.51673667">
        <ele>1697.0</ele>
        <time>2019-08-04T10:12:29.326Z</time>
      </trkpt>
      <trkpt lat="42.44751167" lon="1.51672">
        <ele>1698.0</ele>
        <time>2019-08-04T10:12:30.329Z</time>
      </trkpt>
      <trkpt lat="42.44751167" lon="1.51672">
        <ele>1698.0</ele>
        <time>2019-08-04T10:12:31.327Z</time>
      </trkpt>
      <trkpt lat="42.44745833" lon="1.51668667">
        <ele>1698.0</ele>
        <time>2019-08-04T10:12:32.326Z</time>
      </trkpt>
      <trkpt lat="42.44745833" lon="1.51668667">
        <ele>1698.0</ele>
        <time>2019-08-04T10:12:33.307Z</time>
      </trkpt>
      <trkpt lat="42.447405" lon="1.51665167">
        <ele>1698.0</ele>
        <time>2019-08-04T10:12:34.330Z</time>
      </trkpt>
      <trkpt lat="42.447375" lon="1.51663667">
        <ele>1699.0</ele>
        <time>2019-08-04T10:12:35.305Z</time>
      </trkpt>
      <trkpt lat="42.447375" lon="1.51663667">
        <ele>1699.0</ele>
        <time>2019-08-04T10:12:36.326Z</time>
      </trkpt>
      <trkpt lat="42.44732" lon="1.51660833">
        <ele>1699.0</ele>
        <time>2019-08-04T10:12:37.329Z</time>
      </trkpt>
      <trkpt lat="42.44732" lon="1.51660833">
        <ele>1699.0</ele>
        <time>2019-08-04T10:12:38.324Z</time>
      </trkpt>
      <trkpt lat="42.44726167" lon="1.51657833">
        <ele>1699.0</ele>
        <time>2019-08-04T10:12:39.299Z</time>
      </trkpt>
      <trkpt lat="42.44726167" lon="1.51657833">
        <ele>1699.0</ele>
        <time>2019-08-04T10:12:40.324Z</time>
      </trkpt>
      <trkpt lat="42.44719667" lon="1.51656">
        <ele>1700.0</ele>
        <time>2019-08-04T10:12:41.306Z</time>
      </trkpt>
      <trkpt lat="42.44719667" lon="1.51656">
        <ele>1700.0</ele>
        <time>2019-08-04T10:12:42.328Z</time>
      </trkpt>
      <trkpt lat="42.447135" lon="1.51654">
        <ele>1700.0</ele>
        <time>2019-08-04T10:12:43.330Z</time>
      </trkpt>
      <trkpt lat="42.447135" lon="1.51654">
        <ele>1700.0</ele>
        <time>2019-08-04T10:12:44.321Z</time>
      </trkpt>
      <trkpt lat="42.44707" lon="1.51652667">
        <ele>1701.0</ele>
        <time>2019-08-04T10:12:45.307Z</time>
      </trkpt>
      <trkpt lat="42.44707" lon="1.51652667">
        <ele>1701.0</ele>
        <time>2019-08-04T10:12:46.327Z</time>
      </trkpt>
      <trkpt lat="42.446995" lon="1.51652833">
        <ele>1701.0</ele>
        <time>2019-08-04T10:12:47.328Z</time>
      </trkpt>
      <trkpt lat="42.446995" lon="1.51652833">
        <ele>1701.0</ele>
        <time>2019-08-04T10:12:48.327Z</time>
      </trkpt>
      <trkpt lat="42.446925" lon="1.51651667">
        <ele>1702.0</ele>
        <time>2019-08-04T10:12:49.329Z</time>
      </trkpt>
      <trkpt lat="42.446925" lon="1.51651667">
        <ele>1702.0</ele>
        <time>2019-08-04T10:12:50.324Z</time>
      </trkpt>
      <trkpt lat="42.446855" lon="1.51651167">
        <ele>1702.0</ele>
        <time>2019-08-04T10:12:51.306Z</time>
      </trkpt>
      <trkpt lat="42.446855" lon="1.51651167">
        <ele>1702.0</ele>
        <time>2019-08-04T10:12:52.327Z</time>
      </trkpt>
      <trkpt lat="42.44677833" lon="1.516505">
        <ele>1703.0</ele>
        <time>2019-08-04T10:12:53.327Z</time>
      </trkpt>
      <trkpt lat="42.44672833" lon="1.5165">
        <ele>1703.0</ele>
        <time>2019-08-04T10:12:54.325Z</time>
      </trkpt>
      <trkpt lat="42.44668167" lon="1.51649">
        <ele>1703.0</ele>
        <time>2019-08-04T10:12:55.314Z</time>
      </trkpt>
      <trkpt lat="42.44668167" lon="1.51649">
        <ele>1703.0</ele>
        <time>2019-08-04T10:12:56.333Z</time>
      </trkpt>
      <trkpt lat="42.44659333" lon="1.51647833">
        <ele>1703.0</ele>
        <time>2019-08-04T10:12:57.328Z</time>
      </trkpt>
      <trkpt lat="42.44659333" lon="1.51647833">
        <ele>1703.0</ele>
        <time>2019-08-04T10:12:58.322Z</time>
      </trkpt>
      <trkpt lat="42.44650833" lon="1.51648333">
        <ele>1704.0</ele>
        <time>2019-08-04T10:12:59.305Z</time>
      </trkpt>
      <trkpt lat="42.44646167" lon="1.51648">
        <ele>1704.0</ele>
        <time>2019-08-04T10:13:00.328Z</time>
      </trkpt>
      <trkpt lat="42.44642" lon="1.51648">
        <ele>1704.0</ele>
        <time>2019-08-04T10:13:01.329Z</time>
      </trkpt>
      <trkpt lat="42.44642" lon="1.51648">
        <ele>1704.0</ele>
        <time>2019-08-04T10:13:02.319Z</time>
      </trkpt>
      <trkpt lat="42.446335" lon="1.51648">
        <ele>1704.0</ele>
        <time>2019-08-04T10:13:03.298Z</time>
      </trkpt>
      <trkpt lat="42.44627667" lon="1.51645833">
        <ele>1704.0</ele>
        <time>2019-08-04T10:13:04.326Z</time>
      </trkpt>
      <trkpt lat="42.44627667" lon="1.51645833">
        <ele>1704.0</ele>
        <time>2019-08-04T10:13:05.296Z</time>
      </trkpt>
      <trkpt lat="42.446175" lon="1.516435">
        <ele>1705.0</ele>
        <time>2019-08-04T10:13:06.325Z</time>
      </trkpt>
      <trkpt lat="42.44613" lon="1.51642667">
        <ele>1705.0</ele>
        <time>2019-08-04T10:13:07.328Z</time>
      </trkpt>
      <trkpt lat="42.44613" lon="1.51642667">
        <ele>1705.0</ele>
        <time>2019-08-04T10:13:08.326Z</time>
      </trkpt>
      <trkpt lat="42.44604667" lon="1.516395">
        <ele>1705.0</ele>
        <time>2019-08-04T10:13:09.307Z</time>
      </trkpt>
      <trkpt lat="42.44600833" lon="1.51637667">
        <ele>1706.0</ele>
        <time>2019-08-04T10:13:10.329Z</time>
      </trkpt>
      <trkpt lat="42.44600833" lon="1.51637667">
        <ele>1706.0</ele>
        <time>2019-08-04T10:13:11.318Z</time>
      </trkpt>
      <trkpt lat="42.44592833" lon="1.51634333">
        <ele>1706.0</ele>
        <time>2019-08-04T10:13:12.307Z</time>
      </trkpt>
      <trkpt lat="42.44589167" lon="1.516315">
        <ele>1707.0</ele>
        <time>2019-08-04T10:13:13.329Z</time>
      </trkpt>
      <trkpt lat="42.44585333" lon="1.516285">
        <ele>1707.0</ele>
        <time>2019-08-04T10:13:14.328Z</time>
      </trkpt>
      <trkpt lat="42.44585333" lon="1.516285">
        <ele>1707.0</ele>
        <time>2019-08-04T10:13:15.313Z</time>
      </trkpt>
      <trkpt lat="42.44576667" lon="1.51625">
        <ele>1707.0</ele>
        <time>2019-08-04T10:13:16.332Z</time>
      </trkpt>
      <trkpt lat="42.44576667" lon="1.51625">
        <ele>1707.0</ele>
        <time>2019-08-04T10:13:17.326Z</time>
      </trkpt>
      <trkpt lat="42.44567833" lon="1.51621167">
        <ele>1708.0</ele>
        <time>2019-08-04T10:13:18.327Z</time>
      </trkpt>
      <trkpt lat="42.44567833" lon="1.51621167">
        <ele>1708.0</ele>
        <time>2019-08-04T10:13:19.313Z</time>
      </trkpt>
      <trkpt lat="42.44560667" lon="1.51616667">
        <ele>1708.0</ele>
        <time>2019-08-04T10:13:20.335Z</time>
      </trkpt>
      <trkpt lat="42.44556333" lon="1.51615167">
        <ele>1709.0</ele>
        <time>2019-08-04T10:13:21.327Z</time>
      </trkpt>
      <trkpt lat="42.44556333" lon="1.51615167">
        <ele>1709.0</ele>
        <time>2019-08-04T10:13:22.325Z</time>
      </trkpt>
      <trkpt lat="42.44548167" lon="1.51611667">
        <ele>1709.0</ele>
        <time>2019-08-04T10:13:23.308Z</time>
      </trkpt>
      <trkpt lat="42.44548167" lon="1.51611667">
        <ele>1709.0</ele>
        <time>2019-08-04T10:13:24.329Z</time>
      </trkpt>
      <trkpt lat="42.445405" lon="1.51607667">
        <ele>1710.0</ele>
        <time>2019-08-04T10:13:25.319Z</time>
      </trkpt>
      <trkpt lat="42.445405" lon="1.51607667">
        <ele>1710.0</ele>
        <time>2019-08-04T10:13:26.300Z</time>
      </trkpt>
      <trkpt lat="42.44532167" lon="1.516035">
        <ele>1711.0</ele>
        <time>2019-08-04T10:13:27.329Z</time>
      </trkpt>
      <trkpt lat="42.44532167" lon="1.516035">
        <ele>1711.0</ele>
        <time>2019-08-04T10:13:28.319Z</time>
      </trkpt>
      <trkpt lat="42.44523833" lon="1.51599667">
        <ele>1711.0</ele>
        <time>2019-08-04T10:13:29.298Z</time>
      </trkpt>
      <trkpt lat="42.4452" lon="1.51597667">
        <ele>1711.0</ele>
        <time>2019-08-04T10:13:30.318Z</time>
      </trkpt>
      <trkpt lat="42.44516333" lon="1.51596">
        <ele>1712.0</ele>
        <time>2019-08-04T10:13:31.324Z</time>
      </trkpt>
      <trkpt lat="42.44516333" lon="1.51596">
        <ele>1712.0</ele>
        <time>2019-08-04T10:13:32.331Z</time>
      </trkpt>
      <trkpt lat="42.44508667" lon="1.51592333">
        <ele>1712.0</ele>
        <time>2019-08-04T10:13:33.296Z</time>
      </trkpt>
      <trkpt lat="42.445045" lon="1.51590167">
        <ele>1713.0</ele>
        <time>2019-08-04T10:13:34.328Z</time>
      </trkpt>
      <trkpt lat="42.445045" lon="1.51590167">
        <ele>1713.0</ele>
        <time>2019-08-04T10:13:35.300Z</time>
      </trkpt>
      <trkpt lat="42.444965" lon="1.51585">
        <ele>1713.0</ele>
        <time>2019-08-04T10:13:36.325Z</time>
      </trkpt>
      <trkpt lat="42.44492333" lon="1.51581667">
        <ele>1713.0</ele>
        <time>2019-08-04T10:13:37.329Z</time>
      </trkpt>
      <trkpt lat="42.44492333" lon="1.51581667">
        <ele>1713.0</ele>
        <time>2019-08-04T10:13:38.322Z</time>
      </trkpt>
      <trkpt lat="42.44483333" lon="1.51576">
        <ele>1714.0</ele>
        <time>2019-08-04T10:13:39.306Z</time>
      </trkpt>
      <trkpt lat="42.444795" lon="1.51573167">
        <ele>1714.0</ele>
        <time>2019-08-04T10:13:40.329Z</time>
      </trkpt>
      <trkpt lat="42.444795" lon="1.51573167">
        <ele>1714.0</ele>
        <time>2019-08-04T10:13:41.327Z</time>
      </trkpt>
      <trkpt lat="42.44472167" lon="1.51566667">
        <ele>1715.0</ele>
        <time>2019-08-04T10:13:42.329Z</time>
      </trkpt>
      <trkpt lat="42.44468667" lon="1.51563333">
        <ele>1715.0</ele>
        <time>2019-08-04T10:13:43.331Z</time>
      </trkpt>
      <trkpt lat="42.44468667" lon="1.51563333">
        <ele>1715.0</ele>
        <time>2019-08-04T10:13:44.327Z</time>
      </trkpt>
      <trkpt lat="42.444615" lon="1.51555833">
        <ele>1716.0</ele>
        <time>2019-08-04T10:13:45.314Z</time>
      </trkpt>
      <trkpt lat="42.444615" lon="1.51555833">
        <ele>1716.0</ele>
        <time>2019-08-04T10:13:46.296Z</time>
      </trkpt>
      <trkpt lat="42.44455167" lon="1.51547833">
        <ele>1717.0</ele>
        <time>2019-08-04T10:13:47.328Z</time>
      </trkpt>
      <trkpt lat="42.44455167" lon="1.51547833">
        <ele>1717.0</ele>
        <time>2019-08-04T10:13:48.323Z</time>
      </trkpt>
      <trkpt lat="42.44449" lon="1.51540167">
        <ele>1718.0</ele>
        <time>2019-08-04T10:13:49.306Z</time>
      </trkpt>
      <trkpt lat="42.44449" lon="1.51540167">
        <ele>1718.0</ele>
        <time>2019-08-04T10:13:50.331Z</time>
      </trkpt>
      <trkpt lat="42.44443" lon="1.51532333">
        <ele>1719.0</ele>
        <time>2019-08-04T10:13:51.330Z</time>
      </trkpt>
      <trkpt lat="42.44443" lon="1.51532333">
        <ele>1719.0</ele>
        <time>2019-08-04T10:13:52.319Z</time>
      </trkpt>
      <trkpt lat="42.44437667" lon="1.51524333">
        <ele>1719.0</ele>
        <time>2019-08-04T10:13:53.299Z</time>
      </trkpt>
      <trkpt lat="42.44434833" lon="1.515205">
        <ele>1720.0</ele>
        <time>2019-08-04T10:13:54.328Z</time>
      </trkpt>
      <trkpt lat="42.44434833" lon="1.515205">
        <ele>1720.0</ele>
        <time>2019-08-04T10:13:55.306Z</time>
      </trkpt>
      <trkpt lat="42.44429" lon="1.51513167">
        <ele>1721.0</ele>
        <time>2019-08-04T10:13:56.329Z</time>
      </trkpt>
      <trkpt lat="42.44426" lon="1.51509167">
        <ele>1721.0</ele>
        <time>2019-08-04T10:13:57.329Z</time>
      </trkpt>
      <trkpt lat="42.44426" lon="1.51509167">
        <ele>1721.0</ele>
        <time>2019-08-04T10:13:58.323Z</time>
      </trkpt>
      <trkpt lat="42.44420333" lon="1.51500833">
        <ele>1722.0</ele>
        <time>2019-08-04T10:13:59.307Z</time>
      </trkpt>
      <trkpt lat="42.44420333" lon="1.51500833">
        <ele>1722.0</ele>
        <time>2019-08-04T10:14:00.328Z</time>
      </trkpt>
      <trkpt lat="42.444145" lon="1.51492333">
        <ele>1722.0</ele>
        <time>2019-08-04T10:14:01.331Z</time>
      </trkpt>
      <trkpt lat="42.444145" lon="1.51492333">
        <ele>1722.0</ele>
        <time>2019-08-04T10:14:02.326Z</time>
      </trkpt>
      <trkpt lat="42.4441" lon="1.51482167">
        <ele>1723.0</ele>
        <time>2019-08-04T10:14:03.329Z</time>
      </trkpt>
      <trkpt lat="42.4441" lon="1.51482167">
        <ele>1723.0</ele>
        <time>2019-08-04T10:14:04.327Z</time>
      </trkpt>
      <trkpt lat="42.44405833" lon="1.51471167">
        <ele>1724.0</ele>
        <time>2019-08-04T10:14:05.314Z</time>
      </trkpt>
      <trkpt lat="42.44405833" lon="1.51471167">
        <ele>1724.0</ele>
        <time>2019-08-04T10:14:06.335Z</time>
      </trkpt>
      <trkpt lat="42.44402" lon="1.5146">
        <ele>1724.0</ele>
        <time>2019-08-04T10:14:07.326Z</time>
      </trkpt>
      <trkpt lat="42.44402" lon="1.5146">
        <ele>1724.0</ele>
        <time>2019-08-04T10:14:08.324Z</time>
      </trkpt>
      <trkpt lat="42.44397833" lon="1.51448667">
        <ele>1725.0</ele>
        <time>2019-08-04T10:14:09.301Z</time>
      </trkpt>
      <trkpt lat="42.44396" lon="1.51443">
        <ele>1725.0</ele>
        <time>2019-08-04T10:14:10.329Z</time>
      </trkpt>
      <trkpt lat="42.44396" lon="1.51443">
        <ele>1725.0</ele>
        <time>2019-08-04T10:14:11.324Z</time>
      </trkpt>
      <trkpt lat="42.44391833" lon="1.51430667">
        <ele>1726.0</ele>
        <time>2019-08-04T10:14:12.306Z</time>
      </trkpt>
      <trkpt lat="42.44391833" lon="1.51430667">
        <ele>1726.0</ele>
        <time>2019-08-04T10:14:13.327Z</time>
      </trkpt>
      <trkpt lat="42.44386667" lon="1.51418667">
        <ele>1727.0</ele>
        <time>2019-08-04T10:14:14.329Z</time>
      </trkpt>
      <trkpt lat="42.44386667" lon="1.51418667">
        <ele>1727.0</ele>
        <time>2019-08-04T10:14:15.297Z</time>
      </trkpt>
      <trkpt lat="42.44381167" lon="1.51407833">
        <ele>1728.0</ele>
        <time>2019-08-04T10:14:16.329Z</time>
      </trkpt>
      <trkpt lat="42.44381167" lon="1.51407833">
        <ele>1728.0</ele>
        <time>2019-08-04T10:14:17.324Z</time>
      </trkpt>
      <trkpt lat="42.443745" lon="1.513985">
        <ele>1729.0</ele>
        <time>2019-08-04T10:14:18.308Z</time>
      </trkpt>
      <trkpt lat="42.44370667" lon="1.51394667">
        <ele>1730.0</ele>
        <time>2019-08-04T10:14:19.331Z</time>
      </trkpt>
      <trkpt lat="42.44366667" lon="1.513915">
        <ele>1730.0</ele>
        <time>2019-08-04T10:14:20.329Z</time>
      </trkpt>
      <trkpt lat="42.44366667" lon="1.513915">
        <ele>1730.0</ele>
        <time>2019-08-04T10:14:21.327Z</time>
      </trkpt>
      <trkpt lat="42.44358167" lon="1.51385667">
        <ele>1731.0</ele>
        <time>2019-08-04T10:14:22.330Z</time>
      </trkpt>
      <trkpt lat="42.44358167" lon="1.51385667">
        <ele>1731.0</ele>
        <time>2019-08-04T10:14:23.319Z</time>
      </trkpt>
      <trkpt lat="42.44349833" lon="1.51381167">
        <ele>1732.0</ele>
        <time>2019-08-04T10:14:24.300Z</time>
      </trkpt>
      <trkpt lat="42.44349833" lon="1.51381167">
        <ele>1732.0</ele>
        <time>2019-08-04T10:14:25.322Z</time>
      </trkpt>
      <trkpt lat="42.44341833" lon="1.513765">
        <ele>1732.0</ele>
        <time>2019-08-04T10:14:26.307Z</time>
      </trkpt>
      <trkpt lat="42.44341833" lon="1.513765">
        <ele>1732.0</ele>
        <time>2019-08-04T10:14:27.328Z</time>
      </trkpt>
      <trkpt lat="42.44334333" lon="1.51372">
        <ele>1732.0</ele>
        <time>2019-08-04T10:14:28.328Z</time>
      </trkpt>
      <trkpt lat="42.44330833" lon="1.51370333">
        <ele>1733.0</ele>
        <time>2019-08-04T10:14:29.330Z</time>
      </trkpt>
      <trkpt lat="42.44327667" lon="1.51368833">
        <ele>1733.0</ele>
        <time>2019-08-04T10:14:30.330Z</time>
      </trkpt>
      <trkpt lat="42.44327667" lon="1.51368833">
        <ele>1733.0</ele>
        <time>2019-08-04T10:14:31.325Z</time>
      </trkpt>
      <trkpt lat="42.44321667" lon="1.513655">
        <ele>1733.0</ele>
        <time>2019-08-04T10:14:32.329Z</time>
      </trkpt>
      <trkpt lat="42.44321667" lon="1.513655">
        <ele>1733.0</ele>
        <time>2019-08-04T10:14:33.328Z</time>
      </trkpt>
      <trkpt lat="42.44316167" lon="1.51361833">
        <ele>1733.0</ele>
        <time>2019-08-04T10:14:34.326Z</time>
      </trkpt>
      <trkpt lat="42.44316167" lon="1.51361833">
        <ele>1733.0</ele>
        <time>2019-08-04T10:14:35.297Z</time>
      </trkpt>
      <trkpt lat="42.44310333" lon="1.51359">
        <ele>1733.0</ele>
        <time>2019-08-04T10:14:36.331Z</time>
      </trkpt>
      <trkpt lat="42.44310333" lon="1.51359">
        <ele>1733.0</ele>
        <time>2019-08-04T10:14:37.327Z</time>
      </trkpt>
      <trkpt lat="42.443055" lon="1.51357333">
        <ele>1732.0</ele>
        <time>2019-08-04T10:14:38.329Z</time>
      </trkpt>
      <trkpt lat="42.44302833" lon="1.51357167">
        <ele>1732.0</ele>
        <time>2019-08-04T10:14:39.329Z</time>
      </trkpt>
      <trkpt lat="42.44302833" lon="1.51357167">
        <ele>1732.0</ele>
        <time>2019-08-04T10:14:40.330Z</time>
      </trkpt>
      <trkpt lat="42.44298333" lon="1.51359167">
        <ele>1732.0</ele>
        <time>2019-08-04T10:14:41.329Z</time>
      </trkpt>
      <trkpt lat="42.442965" lon="1.51361167">
        <ele>1732.0</ele>
        <time>2019-08-04T10:14:42.329Z</time>
      </trkpt>
      <trkpt lat="42.442965" lon="1.51361167">
        <ele>1732.0</ele>
        <time>2019-08-04T10:14:43.314Z</time>
      </trkpt>
      <trkpt lat="42.44294667" lon="1.51366167">
        <ele>1732.0</ele>
        <time>2019-08-04T10:14:44.335Z</time>
      </trkpt>
      <trkpt lat="42.44294667" lon="1.51366167">
        <ele>1732.0</ele>
        <time>2019-08-04T10:14:45.319Z</time>
      </trkpt>
      <trkpt lat="42.44295667" lon="1.51373667">
        <ele>1732.0</ele>
        <time>2019-08-04T10:14:46.299Z</time>
      </trkpt>
      <trkpt lat="42.442965" lon="1.513775">
        <ele>1732.0</ele>
        <time>2019-08-04T10:14:47.329Z</time>
      </trkpt>
      <trkpt lat="42.442965" lon="1.513775">
        <ele>1732.0</ele>
        <time>2019-08-04T10:14:48.324Z</time>
      </trkpt>
      <trkpt lat="42.44298167" lon="1.51384167">
        <ele>1731.0</ele>
        <time>2019-08-04T10:14:49.329Z</time>
      </trkpt>
      <trkpt lat="42.44298167" lon="1.51384167">
        <ele>1731.0</ele>
        <time>2019-08-04T10:14:50.324Z</time>
      </trkpt>
      <trkpt lat="42.443005" lon="1.5139">
        <ele>1731.0</ele>
        <time>2019-08-04T10:14:51.306Z</time>
      </trkpt>
      <trkpt lat="42.443005" lon="1.5139">
        <ele>1731.0</ele>
        <time>2019-08-04T10:14:52.327Z</time>
      </trkpt>
      <trkpt lat="42.44303167" lon="1.51395667">
        <ele>1731.0</ele>
        <time>2019-08-04T10:14:53.329Z</time>
      </trkpt>
      <trkpt lat="42.44304833" lon="1.51398333">
        <ele>1731.0</ele>
        <time>2019-08-04T10:14:54.330Z</time>
      </trkpt>
      <trkpt lat="42.44304833" lon="1.51398333">
        <ele>1731.0</ele>
        <time>2019-08-04T10:14:55.307Z</time>
      </trkpt>
      <trkpt lat="42.44308167" lon="1.51404">
        <ele>1731.0</ele>
        <time>2019-08-04T10:14:56.329Z</time>
      </trkpt>
      <trkpt lat="42.44308167" lon="1.51404">
        <ele>1731.0</ele>
        <time>2019-08-04T10:14:57.328Z</time>
      </trkpt>
      <trkpt lat="42.44311" lon="1.51410167">
        <ele>1730.0</ele>
        <time>2019-08-04T10:14:58.330Z</time>
      </trkpt>
      <trkpt lat="42.44311" lon="1.51410167">
        <ele>1730.0</ele>
        <time>2019-08-04T10:14:59.328Z</time>
      </trkpt>
      <trkpt lat="42.44313667" lon="1.51416833">
        <ele>1730.0</ele>
        <time>2019-08-04T10:15:00.309Z</time>
      </trkpt>
      <trkpt lat="42.44313667" lon="1.51416833">
        <ele>1730.0</ele>
        <time>2019-08-04T10:15:01.329Z</time>
      </trkpt>
      <trkpt lat="42.44315833" lon="1.51424333">
        <ele>1730.0</ele>
        <time>2019-08-04T10:15:02.329Z</time>
      </trkpt>
      <trkpt lat="42.44315833" lon="1.51424333">
        <ele>1730.0</ele>
        <time>2019-08-04T10:15:03.325Z</time>
      </trkpt>
      <trkpt lat="42.44317833" lon="1.51433">
        <ele>1730.0</ele>
        <time>2019-08-04T10:15:04.329Z</time>
      </trkpt>
      <trkpt lat="42.44317833" lon="1.51433">
        <ele>1730.0</ele>
        <time>2019-08-04T10:15:05.306Z</time>
      </trkpt>
      <trkpt lat="42.44319833" lon="1.51440833">
        <ele>1729.0</ele>
        <time>2019-08-04T10:15:06.329Z</time>
      </trkpt>
      <trkpt lat="42.44319833" lon="1.51440833">
        <ele>1729.0</ele>
        <time>2019-08-04T10:15:07.327Z</time>
      </trkpt>
      <trkpt lat="42.44321" lon="1.51450667">
        <ele>1729.0</ele>
        <time>2019-08-04T10:15:08.331Z</time>
      </trkpt>
      <trkpt lat="42.443215" lon="1.514555">
        <ele>1729.0</ele>
        <time>2019-08-04T10:15:09.331Z</time>
      </trkpt>
      <trkpt lat="42.443215" lon="1.514555">
        <ele>1729.0</ele>
        <time>2019-08-04T10:15:10.324Z</time>
      </trkpt>
      <trkpt lat="42.44323" lon="1.51465667">
        <ele>1729.0</ele>
        <time>2019-08-04T10:15:11.306Z</time>
      </trkpt>
      <trkpt lat="42.44323" lon="1.51465667">
        <ele>1729.0</ele>
        <time>2019-08-04T10:15:12.327Z</time>
      </trkpt>
      <trkpt lat="42.44324667" lon="1.51474833">
        <ele>1729.0</ele>
        <time>2019-08-04T10:15:13.314Z</time>
      </trkpt>
      <trkpt lat="42.44324667" lon="1.51474833">
        <ele>1729.0</ele>
        <time>2019-08-04T10:15:14.335Z</time>
      </trkpt>
      <trkpt lat="42.44326333" lon="1.51483333">
        <ele>1729.0</ele>
        <time>2019-08-04T10:15:15.314Z</time>
      </trkpt>
      <trkpt lat="42.44326333" lon="1.51483333">
        <ele>1729.0</ele>
        <time>2019-08-04T10:15:16.335Z</time>
      </trkpt>
      <trkpt lat="42.443285" lon="1.51492667">
        <ele>1729.0</ele>
        <time>2019-08-04T10:15:17.328Z</time>
      </trkpt>
      <trkpt lat="42.44329667" lon="1.51497167">
        <ele>1729.0</ele>
        <time>2019-08-04T10:15:18.306Z</time>
      </trkpt>
      <trkpt lat="42.44329667" lon="1.51497167">
        <ele>1729.0</ele>
        <time>2019-08-04T10:15:19.328Z</time>
      </trkpt>
      <trkpt lat="42.44332667" lon="1.51505667">
        <ele>1729.0</ele>
        <time>2019-08-04T10:15:20.330Z</time>
      </trkpt>
      <trkpt lat="42.44334167" lon="1.51509833">
        <ele>1729.0</ele>
        <time>2019-08-04T10:15:21.330Z</time>
      </trkpt>
      <trkpt lat="42.44334167" lon="1.51509833">
        <ele>1729.0</ele>
        <time>2019-08-04T10:15:22.320Z</time>
      </trkpt>
      <trkpt lat="42.44336833" lon="1.51518167">
        <ele>1728.0</ele>
        <time>2019-08-04T10:15:23.301Z</time>
      </trkpt>
      <trkpt lat="42.44336833" lon="1.51518167">
        <ele>1728.0</ele>
        <time>2019-08-04T10:15:24.328Z</time>
      </trkpt>
      <trkpt lat="42.4434" lon="1.51526833">
        <ele>1728.0</ele>
        <time>2019-08-04T10:15:25.314Z</time>
      </trkpt>
      <trkpt lat="42.44341667" lon="1.51531">
        <ele>1728.0</ele>
        <time>2019-08-04T10:15:26.314Z</time>
      </trkpt>
      <trkpt lat="42.44341667" lon="1.51531">
        <ele>1728.0</ele>
        <time>2019-08-04T10:15:27.334Z</time>
      </trkpt>
      <trkpt lat="42.44344833" lon="1.515395">
        <ele>1727.0</ele>
        <time>2019-08-04T10:15:28.329Z</time>
      </trkpt>
      <trkpt lat="42.44344833" lon="1.515395">
        <ele>1727.0</ele>
        <time>2019-08-04T10:15:29.327Z</time>
      </trkpt>
      <trkpt lat="42.443475" lon="1.515475">
        <ele>1727.0</ele>
        <time>2019-08-04T10:15:30.309Z</time>
      </trkpt>
      <trkpt lat="42.443475" lon="1.515475">
        <ele>1727.0</ele>
        <time>2019-08-04T10:15:31.319Z</time>
      </trkpt>
      <trkpt lat="42.44350333" lon="1.515555">
        <ele>1727.0</ele>
        <time>2019-08-04T10:15:32.325Z</time>
      </trkpt>
      <trkpt lat="42.44351833" lon="1.51559833">
        <ele>1727.0</ele>
        <time>2019-08-04T10:15:33.331Z</time>
      </trkpt>
      <trkpt lat="42.44351833" lon="1.51559833">
        <ele>1727.0</ele>
        <time>2019-08-04T10:15:34.327Z</time>
      </trkpt>
      <trkpt lat="42.44355" lon="1.51568667">
        <ele>1727.0</ele>
        <time>2019-08-04T10:15:35.306Z</time>
      </trkpt>
      <trkpt lat="42.44356833" lon="1.51573">
        <ele>1727.0</ele>
        <time>2019-08-04T10:15:36.331Z</time>
      </trkpt>
      <trkpt lat="42.44356833" lon="1.51573">
        <ele>1727.0</ele>
        <time>2019-08-04T10:15:37.307Z</time>
      </trkpt>
      <trkpt lat="42.4436" lon="1.51582">
        <ele>1727.0</ele>
        <time>2019-08-04T10:15:38.331Z</time>
      </trkpt>
      <trkpt lat="42.44362" lon="1.515865">
        <ele>1727.0</ele>
        <time>2019-08-04T10:15:39.327Z</time>
      </trkpt>
      <trkpt lat="42.44364167" lon="1.51591167">
        <ele>1727.0</ele>
        <time>2019-08-04T10:15:40.331Z</time>
      </trkpt>
      <trkpt lat="42.44364167" lon="1.51591167">
        <ele>1727.0</ele>
        <time>2019-08-04T10:15:41.327Z</time>
      </trkpt>
      <trkpt lat="42.44368667" lon="1.515995">
        <ele>1727.0</ele>
        <time>2019-08-04T10:15:42.330Z</time>
      </trkpt>
      <trkpt lat="42.44368667" lon="1.515995">
        <ele>1727.0</ele>
        <time>2019-08-04T10:15:43.329Z</time>
      </trkpt>
      <trkpt lat="42.44373333" lon="1.51608167">
        <ele>1727.0</ele>
        <time>2019-08-04T10:15:44.329Z</time>
      </trkpt>
      <trkpt lat="42.44375167" lon="1.51612">
        <ele>1727.0</ele>
        <time>2019-08-04T10:15:45.321Z</time>
      </trkpt>
      <trkpt lat="42.44375167" lon="1.51612">
        <ele>1727.0</ele>
        <time>2019-08-04T10:15:46.307Z</time>
      </trkpt>
      <trkpt lat="42.44379333" lon="1.51619667">
        <ele>1727.0</ele>
        <time>2019-08-04T10:15:47.330Z</time>
      </trkpt>
      <trkpt lat="42.44381333" lon="1.51623833">
        <ele>1727.0</ele>
        <time>2019-08-04T10:15:48.333Z</time>
      </trkpt>
      <trkpt lat="42.44381333" lon="1.51623833">
        <ele>1727.0</ele>
        <time>2019-08-04T10:15:49.328Z</time>
      </trkpt>
      <trkpt lat="42.44385833" lon="1.51631333">
        <ele>1728.0</ele>
        <time>2019-08-04T10:15:50.331Z</time>
      </trkpt>
      <trkpt lat="42.44388" lon="1.51634833">
        <ele>1728.0</ele>
        <time>2019-08-04T10:15:51.330Z</time>
      </trkpt>
      <trkpt lat="42.44388" lon="1.51634833">
        <ele>1728.0</ele>
        <time>2019-08-04T10:15:52.328Z</time>
      </trkpt>
      <trkpt lat="42.44392833" lon="1.516415">
        <ele>1728.0</ele>
        <time>2019-08-04T10:15:53.328Z</time>
      </trkpt>
      <trkpt lat="42.44395333" lon="1.51645167">
        <ele>1728.0</ele>
        <time>2019-08-04T10:15:54.328Z</time>
      </trkpt>
      <trkpt lat="42.44397667" lon="1.51648667">
        <ele>1728.0</ele>
        <time>2019-08-04T10:15:55.330Z</time>
      </trkpt>
      <trkpt lat="42.44397667" lon="1.51648667">
        <ele>1728.0</ele>
        <time>2019-08-04T10:15:56.325Z</time>
      </trkpt>
      <trkpt lat="42.44402333" lon="1.51655333">
        <ele>1728.0</ele>
        <time>2019-08-04T10:15:57.306Z</time>
      </trkpt>
      <trkpt lat="42.444045" lon="1.51659167">
        <ele>1729.0</ele>
        <time>2019-08-04T10:15:58.330Z</time>
      </trkpt>
      <trkpt lat="42.444045" lon="1.51659167">
        <ele>1729.0</ele>
        <time>2019-08-04T10:15:59.327Z</time>
      </trkpt>
      <trkpt lat="42.44409667" lon="1.51666">
        <ele>1729.0</ele>
        <time>2019-08-04T10:16:00.335Z</time>
      </trkpt>
      <trkpt lat="42.44409667" lon="1.51666">
        <ele>1729.0</ele>
        <time>2019-08-04T10:16:01.325Z</time>
      </trkpt>
      <trkpt lat="42.44415167" lon="1.51673333">
        <ele>1729.0</ele>
        <time>2019-08-04T10:16:02.331Z</time>
      </trkpt>
      <trkpt lat="42.44415167" lon="1.51673333">
        <ele>1729.0</ele>
        <time>2019-08-04T10:16:03.327Z</time>
      </trkpt>
      <trkpt lat="42.444205" lon="1.51680167">
        <ele>1730.0</ele>
        <time>2019-08-04T10:16:04.327Z</time>
      </trkpt>
      <trkpt lat="42.444205" lon="1.51680167">
        <ele>1730.0</ele>
        <time>2019-08-04T10:16:05.307Z</time>
      </trkpt>
      <trkpt lat="42.44425667" lon="1.51687833">
        <ele>1730.0</ele>
        <time>2019-08-04T10:16:06.331Z</time>
      </trkpt>
      <trkpt lat="42.44425667" lon="1.51687833">
        <ele>1730.0</ele>
        <time>2019-08-04T10:16:07.328Z</time>
      </trkpt>
      <trkpt lat="42.4443" lon="1.51695333">
        <ele>1730.0</ele>
        <time>2019-08-04T10:16:08.326Z</time>
      </trkpt>
      <trkpt lat="42.44432333" lon="1.51699333">
        <ele>1730.0</ele>
        <time>2019-08-04T10:16:09.331Z</time>
      </trkpt>
      <trkpt lat="42.44432333" lon="1.51699333">
        <ele>1730.0</ele>
        <time>2019-08-04T10:16:10.332Z</time>
      </trkpt>
      <trkpt lat="42.44436333" lon="1.51707333">
        <ele>1731.0</ele>
        <time>2019-08-04T10:16:11.331Z</time>
      </trkpt>
      <trkpt lat="42.44436333" lon="1.51707333">
        <ele>1731.0</ele>
        <time>2019-08-04T10:16:12.327Z</time>
      </trkpt>
      <trkpt lat="42.44439833" lon="1.51715">
        <ele>1730.0</ele>
        <time>2019-08-04T10:16:13.330Z</time>
      </trkpt>
      <trkpt lat="42.44439833" lon="1.51715">
        <ele>1730.0</ele>
        <time>2019-08-04T10:16:14.324Z</time>
      </trkpt>
      <trkpt lat="42.44444167" lon="1.51722667">
        <ele>1730.0</ele>
        <time>2019-08-04T10:16:15.307Z</time>
      </trkpt>
      <trkpt lat="42.44444167" lon="1.51722667">
        <ele>1730.0</ele>
        <time>2019-08-04T10:16:16.327Z</time>
      </trkpt>
      <trkpt lat="42.44448667" lon="1.517305">
        <ele>1730.0</ele>
        <time>2019-08-04T10:16:17.320Z</time>
      </trkpt>
      <trkpt lat="42.44450833" lon="1.51734667">
        <ele>1731.0</ele>
        <time>2019-08-04T10:16:18.301Z</time>
      </trkpt>
      <trkpt lat="42.44450833" lon="1.51734667">
        <ele>1731.0</ele>
        <time>2019-08-04T10:16:19.326Z</time>
      </trkpt>
      <trkpt lat="42.44454833" lon="1.51742833">
        <ele>1731.0</ele>
        <time>2019-08-04T10:16:20.334Z</time>
      </trkpt>
      <trkpt lat="42.44456833" lon="1.51746667">
        <ele>1731.0</ele>
        <time>2019-08-04T10:16:21.331Z</time>
      </trkpt>
      <trkpt lat="42.44456833" lon="1.51746667">
        <ele>1731.0</ele>
        <time>2019-08-04T10:16:22.300Z</time>
      </trkpt>
      <trkpt lat="42.44461333" lon="1.51754667">
        <ele>1731.0</ele>
        <time>2019-08-04T10:16:23.331Z</time>
      </trkpt>
      <trkpt lat="42.44461333" lon="1.51754667">
        <ele>1731.0</ele>
        <time>2019-08-04T10:16:24.325Z</time>
      </trkpt>
      <trkpt lat="42.44466" lon="1.51762167">
        <ele>1731.0</ele>
        <time>2019-08-04T10:16:25.301Z</time>
      </trkpt>
      <trkpt lat="42.44466" lon="1.51762167">
        <ele>1731.0</ele>
        <time>2019-08-04T10:16:26.327Z</time>
      </trkpt>
      <trkpt lat="42.44470833" lon="1.51769833">
        <ele>1731.0</ele>
        <time>2019-08-04T10:16:27.331Z</time>
      </trkpt>
      <trkpt lat="42.44470833" lon="1.51769833">
        <ele>1731.0</ele>
        <time>2019-08-04T10:16:28.328Z</time>
      </trkpt>
      <trkpt lat="42.44476667" lon="1.51777667">
        <ele>1731.0</ele>
        <time>2019-08-04T10:16:29.332Z</time>
      </trkpt>
      <trkpt lat="42.44479667" lon="1.51781667">
        <ele>1732.0</ele>
        <time>2019-08-04T10:16:30.335Z</time>
      </trkpt>
      <trkpt lat="42.44479667" lon="1.51781667">
        <ele>1732.0</ele>
        <time>2019-08-04T10:16:31.298Z</time>
      </trkpt>
      <trkpt lat="42.44486" lon="1.51790333">
        <ele>1732.0</ele>
        <time>2019-08-04T10:16:32.329Z</time>
      </trkpt>
      <trkpt lat="42.44489" lon="1.51794667">
        <ele>1732.0</ele>
        <time>2019-08-04T10:16:33.331Z</time>
      </trkpt>
      <trkpt lat="42.44489" lon="1.51794667">
        <ele>1732.0</ele>
        <time>2019-08-04T10:16:34.328Z</time>
      </trkpt>
      <trkpt lat="42.44495833" lon="1.51802333">
        <ele>1732.0</ele>
        <time>2019-08-04T10:16:35.308Z</time>
      </trkpt>
      <trkpt lat="42.44499" lon="1.51806">
        <ele>1732.0</ele>
        <time>2019-08-04T10:16:36.331Z</time>
      </trkpt>
      <trkpt lat="42.44499" lon="1.51806">
        <ele>1732.0</ele>
        <time>2019-08-04T10:16:37.328Z</time>
      </trkpt>
      <trkpt lat="42.445055" lon="1.518135">
        <ele>1732.0</ele>
        <time>2019-08-04T10:16:38.330Z</time>
      </trkpt>
      <trkpt lat="42.445055" lon="1.518135">
        <ele>1732.0</ele>
        <time>2019-08-04T10:16:39.325Z</time>
      </trkpt>
      <trkpt lat="42.44512" lon="1.51819667">
        <ele>1733.0</ele>
        <time>2019-08-04T10:16:40.331Z</time>
      </trkpt>
      <trkpt lat="42.44512" lon="1.51819667">
        <ele>1733.0</ele>
        <time>2019-08-04T10:16:41.328Z</time>
      </trkpt>
      <trkpt lat="42.44518167" lon="1.51825333">
        <ele>1733.0</ele>
        <time>2019-08-04T10:16:42.330Z</time>
      </trkpt>
      <trkpt lat="42.44518167" lon="1.51825333">
        <ele>1733.0</ele>
        <time>2019-08-04T10:16:43.329Z</time>
      </trkpt>
      <trkpt lat="42.44524833" lon="1.51830667">
        <ele>1733.0</ele>
        <time>2019-08-04T10:16:44.331Z</time>
      </trkpt>
      <trkpt lat="42.44528" lon="1.51832833">
        <ele>1733.0</ele>
        <time>2019-08-04T10:16:45.314Z</time>
      </trkpt>
      <trkpt lat="42.44528" lon="1.51832833">
        <ele>1733.0</ele>
        <time>2019-08-04T10:16:46.336Z</time>
      </trkpt>
      <trkpt lat="42.44533667" lon="1.51836">
        <ele>1733.0</ele>
        <time>2019-08-04T10:16:47.329Z</time>
      </trkpt>
      <trkpt lat="42.44537" lon="1.51838">
        <ele>1733.0</ele>
        <time>2019-08-04T10:16:48.330Z</time>
      </trkpt>
      <trkpt lat="42.44537" lon="1.51838">
        <ele>1733.0</ele>
        <time>2019-08-04T10:16:49.328Z</time>
      </trkpt>
      <trkpt lat="42.44543333" lon="1.518415">
        <ele>1733.0</ele>
        <time>2019-08-04T10:16:50.327Z</time>
      </trkpt>
      <trkpt lat="42.44546667" lon="1.51843667">
        <ele>1733.0</ele>
        <time>2019-08-04T10:16:51.331Z</time>
      </trkpt>
      <trkpt lat="42.44546667" lon="1.51843667">
        <ele>1733.0</ele>
        <time>2019-08-04T10:16:52.325Z</time>
      </trkpt>
      <trkpt lat="42.44552333" lon="1.51847167">
        <ele>1733.0</ele>
        <time>2019-08-04T10:16:53.308Z</time>
      </trkpt>
      <trkpt lat="42.44555" lon="1.51849333">
        <ele>1733.0</ele>
        <time>2019-08-04T10:16:54.297Z</time>
      </trkpt>
      <trkpt lat="42.44555" lon="1.51849333">
        <ele>1733.0</ele>
        <time>2019-08-04T10:16:55.320Z</time>
      </trkpt>
      <trkpt lat="42.44561" lon="1.518535">
        <ele>1734.0</ele>
        <time>2019-08-04T10:16:56.300Z</time>
      </trkpt>
      <trkpt lat="42.44564167" lon="1.51855667">
        <ele>1734.0</ele>
        <time>2019-08-04T10:16:57.298Z</time>
      </trkpt>
      <trkpt lat="42.44564167" lon="1.51855667">
        <ele>1734.0</ele>
        <time>2019-08-04T10:16:58.327Z</time>
      </trkpt>
      <trkpt lat="42.44571667" lon="1.51860667">
        <ele>1734.0</ele>
        <time>2019-08-04T10:16:59.331Z</time>
      </trkpt>
      <trkpt lat="42.44571667" lon="1.51860667">
        <ele>1734.0</ele>
        <time>2019-08-04T10:17:00.325Z</time>
      </trkpt>
      <trkpt lat="42.44578333" lon="1.518665">
        <ele>1734.0</ele>
        <time>2019-08-04T10:17:01.331Z</time>
      </trkpt>
      <trkpt lat="42.44578333" lon="1.518665">
        <ele>1734.0</ele>
        <time>2019-08-04T10:17:02.327Z</time>
      </trkpt>
      <trkpt lat="42.44585333" lon="1.518715">
        <ele>1734.0</ele>
        <time>2019-08-04T10:17:03.331Z</time>
      </trkpt>
      <trkpt lat="42.44585333" lon="1.518715">
        <ele>1734.0</ele>
        <time>2019-08-04T10:17:04.324Z</time>
      </trkpt>
      <trkpt lat="42.445925" lon="1.51876667">
        <ele>1734.0</ele>
        <time>2019-08-04T10:17:05.315Z</time>
      </trkpt>
      <trkpt lat="42.445925" lon="1.51876667">
        <ele>1734.0</ele>
        <time>2019-08-04T10:17:06.335Z</time>
      </trkpt>
      <trkpt lat="42.446" lon="1.51881167">
        <ele>1734.0</ele>
        <time>2019-08-04T10:17:07.331Z</time>
      </trkpt>
      <trkpt lat="42.446" lon="1.51881167">
        <ele>1734.0</ele>
        <time>2019-08-04T10:17:08.328Z</time>
      </trkpt>
      <trkpt lat="42.44606167" lon="1.51886167">
        <ele>1734.0</ele>
        <time>2019-08-04T10:17:09.331Z</time>
      </trkpt>
      <trkpt lat="42.44606167" lon="1.51886167">
        <ele>1734.0</ele>
        <time>2019-08-04T10:17:10.324Z</time>
      </trkpt>
      <trkpt lat="42.446135" lon="1.51890667">
        <ele>1735.0</ele>
        <time>2019-08-04T10:17:11.306Z</time>
      </trkpt>
      <trkpt lat="42.446135" lon="1.51890667">
        <ele>1735.0</ele>
        <time>2019-08-04T10:17:12.328Z</time>
      </trkpt>
      <trkpt lat="42.446195" lon="1.51896167">
        <ele>1735.0</ele>
        <time>2019-08-04T10:17:13.331Z</time>
      </trkpt>
      <trkpt lat="42.446195" lon="1.51896167">
        <ele>1735.0</ele>
        <time>2019-08-04T10:17:14.324Z</time>
      </trkpt>
      <trkpt lat="42.44624667" lon="1.51901667">
        <ele>1735.0</ele>
        <time>2019-08-04T10:17:15.316Z</time>
      </trkpt>
      <trkpt lat="42.44624667" lon="1.51901667">
        <ele>1735.0</ele>
        <time>2019-08-04T10:17:16.298Z</time>
      </trkpt>
      <trkpt lat="42.44629667" lon="1.51908167">
        <ele>1735.0</ele>
        <time>2019-08-04T10:17:17.331Z</time>
      </trkpt>
      <trkpt lat="42.44629667" lon="1.51908167">
        <ele>1735.0</ele>
        <time>2019-08-04T10:17:18.330Z</time>
      </trkpt>
      <trkpt lat="42.44634833" lon="1.51914833">
        <ele>1735.0</ele>
        <time>2019-08-04T10:17:19.329Z</time>
      </trkpt>
      <trkpt lat="42.44634833" lon="1.51914833">
        <ele>1735.0</ele>
        <time>2019-08-04T10:17:20.331Z</time>
      </trkpt>
      <trkpt lat="42.4464" lon="1.51922167">
        <ele>1736.0</ele>
        <time>2019-08-04T10:17:21.328Z</time>
      </trkpt>
      <trkpt lat="42.44642167" lon="1.51925833">
        <ele>1736.0</ele>
        <time>2019-08-04T10:17:22.331Z</time>
      </trkpt>
      <trkpt lat="42.44644" lon="1.519295">
        <ele>1736.0</ele>
        <time>2019-08-04T10:17:23.330Z</time>
      </trkpt>
      <trkpt lat="42.44644" lon="1.519295">
        <ele>1736.0</ele>
        <time>2019-08-04T10:17:24.321Z</time>
      </trkpt>
      <trkpt lat="42.44646333" lon="1.51937833">
        <ele>1737.0</ele>
        <time>2019-08-04T10:17:25.333Z</time>
      </trkpt>
      <trkpt lat="42.44646333" lon="1.51937833">
        <ele>1737.0</ele>
        <time>2019-08-04T10:17:26.327Z</time>
      </trkpt>
      <trkpt lat="42.446485" lon="1.51946333">
        <ele>1737.0</ele>
        <time>2019-08-04T10:17:27.331Z</time>
      </trkpt>
      <trkpt lat="42.446485" lon="1.51946333">
        <ele>1737.0</ele>
        <time>2019-08-04T10:17:28.325Z</time>
      </trkpt>
      <trkpt lat="42.4465" lon="1.51954333">
        <ele>1737.0</ele>
        <time>2019-08-04T10:17:29.302Z</time>
      </trkpt>
      <trkpt lat="42.446505" lon="1.51958667">
        <ele>1738.0</ele>
        <time>2019-08-04T10:17:30.323Z</time>
      </trkpt>
      <trkpt lat="42.44650667" lon="1.519635">
        <ele>1738.0</ele>
        <time>2019-08-04T10:17:31.329Z</time>
      </trkpt>
      <trkpt lat="42.44650667" lon="1.519635">
        <ele>1738.0</ele>
        <time>2019-08-04T10:17:32.335Z</time>
      </trkpt>
      <trkpt lat="42.44650167" lon="1.51973">
        <ele>1738.0</ele>
        <time>2019-08-04T10:17:33.331Z</time>
      </trkpt>
      <trkpt lat="42.44650167" lon="1.51973">
        <ele>1738.0</ele>
        <time>2019-08-04T10:17:34.326Z</time>
      </trkpt>
      <trkpt lat="42.44649167" lon="1.519815">
        <ele>1739.0</ele>
        <time>2019-08-04T10:17:35.309Z</time>
      </trkpt>
      <trkpt lat="42.44649167" lon="1.519815">
        <ele>1739.0</ele>
        <time>2019-08-04T10:17:36.299Z</time>
      </trkpt>
      <trkpt lat="42.44648667" lon="1.51990167">
        <ele>1739.0</ele>
        <time>2019-08-04T10:17:37.331Z</time>
      </trkpt>
      <trkpt lat="42.44648667" lon="1.51990167">
        <ele>1739.0</ele>
        <time>2019-08-04T10:17:38.328Z</time>
      </trkpt>
      <trkpt lat="42.44648667" lon="1.519995">
        <ele>1740.0</ele>
        <time>2019-08-04T10:17:39.331Z</time>
      </trkpt>
      <trkpt lat="42.44648667" lon="1.519995">
        <ele>1740.0</ele>
        <time>2019-08-04T10:17:40.325Z</time>
      </trkpt>
      <trkpt lat="42.44648333" lon="1.520095">
        <ele>1740.0</ele>
        <time>2019-08-04T10:17:41.330Z</time>
      </trkpt>
      <trkpt lat="42.44648333" lon="1.520095">
        <ele>1740.0</ele>
        <time>2019-08-04T10:17:42.327Z</time>
      </trkpt>
      <trkpt lat="42.44648833" lon="1.52018667">
        <ele>1740.0</ele>
        <time>2019-08-04T10:17:43.331Z</time>
      </trkpt>
      <trkpt lat="42.44648833" lon="1.52018667">
        <ele>1740.0</ele>
        <time>2019-08-04T10:17:44.327Z</time>
      </trkpt>
      <trkpt lat="42.44649" lon="1.52026667">
        <ele>1741.0</ele>
        <time>2019-08-04T10:17:45.307Z</time>
      </trkpt>
      <trkpt lat="42.44649" lon="1.52026667">
        <ele>1741.0</ele>
        <time>2019-08-04T10:17:46.328Z</time>
      </trkpt>
      <trkpt lat="42.44649667" lon="1.520365">
        <ele>1741.0</ele>
        <time>2019-08-04T10:17:47.329Z</time>
      </trkpt>
      <trkpt lat="42.44649667" lon="1.520365">
        <ele>1741.0</ele>
        <time>2019-08-04T10:17:48.327Z</time>
      </trkpt>
      <trkpt lat="42.44651333" lon="1.52044">
        <ele>1742.0</ele>
        <time>2019-08-04T10:17:49.309Z</time>
      </trkpt>
      <trkpt lat="42.44651333" lon="1.52044">
        <ele>1742.0</ele>
        <time>2019-08-04T10:17:50.331Z</time>
      </trkpt>
      <trkpt lat="42.44652333" lon="1.52052333">
        <ele>1742.0</ele>
        <time>2019-08-04T10:17:51.331Z</time>
      </trkpt>
      <trkpt lat="42.44652333" lon="1.52052333">
        <ele>1742.0</ele>
        <time>2019-08-04T10:17:52.325Z</time>
      </trkpt>
      <trkpt lat="42.44653833" lon="1.52059833">
        <ele>1743.0</ele>
        <time>2019-08-04T10:17:53.315Z</time>
      </trkpt>
      <trkpt lat="42.44654" lon="1.52062833">
        <ele>1743.0</ele>
        <time>2019-08-04T10:17:54.297Z</time>
      </trkpt>
      <trkpt lat="42.446535" lon="1.52066333">
        <ele>1743.0</ele>
        <time>2019-08-04T10:17:55.308Z</time>
      </trkpt>
      <trkpt lat="42.446535" lon="1.52066333">
        <ele>1743.0</ele>
        <time>2019-08-04T10:17:56.330Z</time>
      </trkpt>
      <trkpt lat="42.44655" lon="1.52075667">
        <ele>1743.0</ele>
        <time>2019-08-04T10:17:57.331Z</time>
      </trkpt>
      <trkpt lat="42.44655" lon="1.52075667">
        <ele>1743.0</ele>
        <time>2019-08-04T10:17:58.328Z</time>
      </trkpt>
      <trkpt lat="42.44657333" lon="1.52085333">
        <ele>1744.0</ele>
        <time>2019-08-04T10:17:59.300Z</time>
      </trkpt>
      <trkpt lat="42.44658167" lon="1.52089333">
        <ele>1744.0</ele>
        <time>2019-08-04T10:18:00.329Z</time>
      </trkpt>
      <trkpt lat="42.44657667" lon="1.52093333">
        <ele>1745.0</ele>
        <time>2019-08-04T10:18:01.331Z</time>
      </trkpt>
      <trkpt lat="42.44657667" lon="1.52093333">
        <ele>1745.0</ele>
        <time>2019-08-04T10:18:02.325Z</time>
      </trkpt>
      <trkpt lat="42.44659" lon="1.52104667">
        <ele>1745.0</ele>
        <time>2019-08-04T10:18:03.306Z</time>
      </trkpt>
      <trkpt lat="42.44659" lon="1.52104667">
        <ele>1745.0</ele>
        <time>2019-08-04T10:18:04.328Z</time>
      </trkpt>
      <trkpt lat="42.44660667" lon="1.52113333">
        <ele>1745.0</ele>
        <time>2019-08-04T10:18:05.307Z</time>
      </trkpt>
      <trkpt lat="42.44661333" lon="1.52118667">
        <ele>1746.0</ele>
        <time>2019-08-04T10:18:06.331Z</time>
      </trkpt>
      <trkpt lat="42.44661333" lon="1.52118667">
        <ele>1746.0</ele>
        <time>2019-08-04T10:18:07.328Z</time>
      </trkpt>
      <trkpt lat="42.44662667" lon="1.52129167">
        <ele>1747.0</ele>
        <time>2019-08-04T10:18:08.329Z</time>
      </trkpt>
      <trkpt lat="42.44662667" lon="1.52133333">
        <ele>1748.0</ele>
        <time>2019-08-04T10:18:09.331Z</time>
      </trkpt>
      <trkpt lat="42.44662667" lon="1.52133333">
        <ele>1748.0</ele>
        <time>2019-08-04T10:18:10.329Z</time>
      </trkpt>
      <trkpt lat="42.446615" lon="1.52140833">
        <ele>1748.0</ele>
        <time>2019-08-04T10:18:11.331Z</time>
      </trkpt>
      <trkpt lat="42.446615" lon="1.52140833">
        <ele>1748.0</ele>
        <time>2019-08-04T10:18:12.327Z</time>
      </trkpt>
      <trkpt lat="42.44658" lon="1.52146333">
        <ele>1749.0</ele>
        <time>2019-08-04T10:18:13.308Z</time>
      </trkpt>
      <trkpt lat="42.44658" lon="1.52146333">
        <ele>1749.0</ele>
        <time>2019-08-04T10:18:14.331Z</time>
      </trkpt>
      <trkpt lat="42.44653667" lon="1.52147833">
        <ele>1750.0</ele>
        <time>2019-08-04T10:18:15.307Z</time>
      </trkpt>
      <trkpt lat="42.44653667" lon="1.52147833">
        <ele>1750.0</ele>
        <time>2019-08-04T10:18:16.329Z</time>
      </trkpt>
      <trkpt lat="42.44649333" lon="1.52144667">
        <ele>1751.0</ele>
        <time>2019-08-04T10:18:17.319Z</time>
      </trkpt>
      <trkpt lat="42.44649333" lon="1.52144667">
        <ele>1751.0</ele>
        <time>2019-08-04T10:18:18.300Z</time>
      </trkpt>
      <trkpt lat="42.44643833" lon="1.52139833">
        <ele>1752.0</ele>
        <time>2019-08-04T10:18:19.332Z</time>
      </trkpt>
      <trkpt lat="42.44643833" lon="1.52139833">
        <ele>1752.0</ele>
        <time>2019-08-04T10:18:20.327Z</time>
      </trkpt>
      <trkpt lat="42.44638167" lon="1.52134833">
        <ele>1752.0</ele>
        <time>2019-08-04T10:18:21.331Z</time>
      </trkpt>
      <trkpt lat="42.44638167" lon="1.52134833">
        <ele>1752.0</ele>
        <time>2019-08-04T10:18:22.329Z</time>
      </trkpt>
      <trkpt lat="42.44632833" lon="1.52129833">
        <ele>1753.0</ele>
        <time>2019-08-04T10:18:23.331Z</time>
      </trkpt>
      <trkpt lat="42.44632833" lon="1.52129833">
        <ele>1753.0</ele>
        <time>2019-08-04T10:18:24.326Z</time>
      </trkpt>
      <trkpt lat="42.44628" lon="1.52124667">
        <ele>1754.0</ele>
        <time>2019-08-04T10:18:25.308Z</time>
      </trkpt>
      <trkpt lat="42.44628" lon="1.52124667">
        <ele>1754.0</ele>
        <time>2019-08-04T10:18:26.329Z</time>
      </trkpt>
      <trkpt lat="42.446235" lon="1.52119833">
        <ele>1755.0</ele>
        <time>2019-08-04T10:18:27.332Z</time>
      </trkpt>
      <trkpt lat="42.446235" lon="1.52119833">
        <ele>1755.0</ele>
        <time>2019-08-04T10:18:28.326Z</time>
      </trkpt>
      <trkpt lat="42.44618833" lon="1.52115">
        <ele>1756.0</ele>
        <time>2019-08-04T10:18:29.329Z</time>
      </trkpt>
      <trkpt lat="42.44618833" lon="1.52115">
        <ele>1756.0</ele>
        <time>2019-08-04T10:18:30.328Z</time>
      </trkpt>
      <trkpt lat="42.44613667" lon="1.52109667">
        <ele>1757.0</ele>
        <time>2019-08-04T10:18:31.332Z</time>
      </trkpt>
      <trkpt lat="42.44613667" lon="1.52109667">
        <ele>1757.0</ele>
        <time>2019-08-04T10:18:32.328Z</time>
      </trkpt>
      <trkpt lat="42.44608" lon="1.521045">
        <ele>1758.0</ele>
        <time>2019-08-04T10:18:33.331Z</time>
      </trkpt>
      <trkpt lat="42.44608" lon="1.521045">
        <ele>1758.0</ele>
        <time>2019-08-04T10:18:34.327Z</time>
      </trkpt>
      <trkpt lat="42.44602" lon="1.521">
        <ele>1759.0</ele>
        <time>2019-08-04T10:18:35.316Z</time>
      </trkpt>
      <trkpt lat="42.44602" lon="1.521">
        <ele>1759.0</ele>
        <time>2019-08-04T10:18:36.298Z</time>
      </trkpt>
      <trkpt lat="42.445965" lon="1.52096167">
        <ele>1760.0</ele>
        <time>2019-08-04T10:18:37.332Z</time>
      </trkpt>
      <trkpt lat="42.445965" lon="1.52096167">
        <ele>1760.0</ele>
        <time>2019-08-04T10:18:38.323Z</time>
      </trkpt>
      <trkpt lat="42.44591167" lon="1.52092167">
        <ele>1761.0</ele>
        <time>2019-08-04T10:18:39.308Z</time>
      </trkpt>
      <trkpt lat="42.44591167" lon="1.52092167">
        <ele>1761.0</ele>
        <time>2019-08-04T10:18:40.331Z</time>
      </trkpt>
      <trkpt lat="42.44585667" lon="1.52089">
        <ele>1762.0</ele>
        <time>2019-08-04T10:18:41.331Z</time>
      </trkpt>
      <trkpt lat="42.44585667" lon="1.52089">
        <ele>1762.0</ele>
        <time>2019-08-04T10:18:42.324Z</time>
      </trkpt>
      <trkpt lat="42.445795" lon="1.520855">
        <ele>1763.0</ele>
        <time>2019-08-04T10:18:43.309Z</time>
      </trkpt>
      <trkpt lat="42.445795" lon="1.520855">
        <ele>1763.0</ele>
        <time>2019-08-04T10:18:44.330Z</time>
      </trkpt>
      <trkpt lat="42.44572667" lon="1.52082333">
        <ele>1764.0</ele>
        <time>2019-08-04T10:18:45.314Z</time>
      </trkpt>
      <trkpt lat="42.44572667" lon="1.52082333">
        <ele>1764.0</ele>
        <time>2019-08-04T10:18:46.309Z</time>
      </trkpt>
      <trkpt lat="42.44565667" lon="1.520795">
        <ele>1765.0</ele>
        <time>2019-08-04T10:18:47.331Z</time>
      </trkpt>
      <trkpt lat="42.44565667" lon="1.520795">
        <ele>1765.0</ele>
        <time>2019-08-04T10:18:48.328Z</time>
      </trkpt>
      <trkpt lat="42.445585" lon="1.52076833">
        <ele>1766.0</ele>
        <time>2019-08-04T10:18:49.332Z</time>
      </trkpt>
      <trkpt lat="42.445585" lon="1.52076833">
        <ele>1766.0</ele>
        <time>2019-08-04T10:18:50.328Z</time>
      </trkpt>
      <trkpt lat="42.44551167" lon="1.52075333">
        <ele>1767.0</ele>
        <time>2019-08-04T10:18:51.331Z</time>
      </trkpt>
      <trkpt lat="42.44551167" lon="1.52075333">
        <ele>1767.0</ele>
        <time>2019-08-04T10:18:52.327Z</time>
      </trkpt>
      <trkpt lat="42.44544" lon="1.52074">
        <ele>1768.0</ele>
        <time>2019-08-04T10:18:53.309Z</time>
      </trkpt>
      <trkpt lat="42.44544" lon="1.52074">
        <ele>1768.0</ele>
        <time>2019-08-04T10:18:54.331Z</time>
      </trkpt>
      <trkpt lat="42.44537167" lon="1.52071833">
        <ele>1769.0</ele>
        <time>2019-08-04T10:18:55.316Z</time>
      </trkpt>
      <trkpt lat="42.44537167" lon="1.52071833">
        <ele>1769.0</ele>
        <time>2019-08-04T10:18:56.297Z</time>
      </trkpt>
      <trkpt lat="42.44530333" lon="1.520685">
        <ele>1770.0</ele>
        <time>2019-08-04T10:18:57.331Z</time>
      </trkpt>
      <trkpt lat="42.44530333" lon="1.520685">
        <ele>1770.0</ele>
        <time>2019-08-04T10:18:58.327Z</time>
      </trkpt>
      <trkpt lat="42.44524" lon="1.52064667">
        <ele>1770.0</ele>
        <time>2019-08-04T10:18:59.331Z</time>
      </trkpt>
      <trkpt lat="42.44520667" lon="1.52062833">
        <ele>1771.0</ele>
        <time>2019-08-04T10:19:00.331Z</time>
      </trkpt>
      <trkpt lat="42.44520667" lon="1.52062833">
        <ele>1771.0</ele>
        <time>2019-08-04T10:19:01.326Z</time>
      </trkpt>
      <trkpt lat="42.445135" lon="1.52059167">
        <ele>1771.0</ele>
        <time>2019-08-04T10:19:02.308Z</time>
      </trkpt>
      <trkpt lat="42.4451" lon="1.52056667">
        <ele>1772.0</ele>
        <time>2019-08-04T10:19:03.332Z</time>
      </trkpt>
      <trkpt lat="42.4451" lon="1.52056667">
        <ele>1772.0</ele>
        <time>2019-08-04T10:19:04.324Z</time>
      </trkpt>
      <trkpt lat="42.44503" lon="1.52051167">
        <ele>1772.0</ele>
        <time>2019-08-04T10:19:05.308Z</time>
      </trkpt>
      <trkpt lat="42.44503" lon="1.52051167">
        <ele>1772.0</ele>
        <time>2019-08-04T10:19:06.329Z</time>
      </trkpt>
      <trkpt lat="42.44496167" lon="1.52045667">
        <ele>1773.0</ele>
        <time>2019-08-04T10:19:07.331Z</time>
      </trkpt>
      <trkpt lat="42.44496167" lon="1.52045667">
        <ele>1773.0</ele>
        <time>2019-08-04T10:19:08.327Z</time>
      </trkpt>
      <trkpt lat="42.44489667" lon="1.520385">
        <ele>1774.0</ele>
        <time>2019-08-04T10:19:09.331Z</time>
      </trkpt>
      <trkpt lat="42.44489667" lon="1.520385">
        <ele>1774.0</ele>
        <time>2019-08-04T10:19:10.329Z</time>
      </trkpt>
      <trkpt lat="42.44483833" lon="1.5203">
        <ele>1774.0</ele>
        <time>2019-08-04T10:19:11.331Z</time>
      </trkpt>
      <trkpt lat="42.44483833" lon="1.5203">
        <ele>1774.0</ele>
        <time>2019-08-04T10:19:12.335Z</time>
      </trkpt>
      <trkpt lat="42.44478333" lon="1.52021833">
        <ele>1775.0</ele>
        <time>2019-08-04T10:19:13.331Z</time>
      </trkpt>
      <trkpt lat="42.44478333" lon="1.52021833">
        <ele>1775.0</ele>
        <time>2019-08-04T10:19:14.328Z</time>
      </trkpt>
      <trkpt lat="42.44472833" lon="1.52013667">
        <ele>1776.0</ele>
        <time>2019-08-04T10:19:15.316Z</time>
      </trkpt>
      <trkpt lat="42.44472833" lon="1.52013667">
        <ele>1776.0</ele>
        <time>2019-08-04T10:19:16.310Z</time>
      </trkpt>
      <trkpt lat="42.44466833" lon="1.52006">
        <ele>1776.0</ele>
        <time>2019-08-04T10:19:17.331Z</time>
      </trkpt>
      <trkpt lat="42.44466833" lon="1.52006">
        <ele>1776.0</ele>
        <time>2019-08-04T10:19:18.329Z</time>
      </trkpt>
      <trkpt lat="42.444615" lon="1.51998667">
        <ele>1777.0</ele>
        <time>2019-08-04T10:19:19.332Z</time>
      </trkpt>
      <trkpt lat="42.44458667" lon="1.51995">
        <ele>1778.0</ele>
        <time>2019-08-04T10:19:20.330Z</time>
      </trkpt>
      <trkpt lat="42.44458667" lon="1.51995">
        <ele>1778.0</ele>
        <time>2019-08-04T10:19:21.329Z</time>
      </trkpt>
      <trkpt lat="42.44453167" lon="1.51987833">
        <ele>1778.0</ele>
        <time>2019-08-04T10:19:22.330Z</time>
      </trkpt>
      <trkpt lat="42.44453167" lon="1.51987833">
        <ele>1778.0</ele>
        <time>2019-08-04T10:19:23.328Z</time>
      </trkpt>
      <trkpt lat="42.44447833" lon="1.51980333">
        <ele>1780.0</ele>
        <time>2019-08-04T10:19:24.328Z</time>
      </trkpt>
      <trkpt lat="42.44445167" lon="1.51976833">
        <ele>1780.0</ele>
        <time>2019-08-04T10:19:25.308Z</time>
      </trkpt>
      <trkpt lat="42.44445167" lon="1.51976833">
        <ele>1780.0</ele>
        <time>2019-08-04T10:19:26.329Z</time>
      </trkpt>
      <trkpt lat="42.44440333" lon="1.51970167">
        <ele>1781.0</ele>
        <time>2019-08-04T10:19:27.331Z</time>
      </trkpt>
      <trkpt lat="42.44440333" lon="1.51970167">
        <ele>1781.0</ele>
        <time>2019-08-04T10:19:28.326Z</time>
      </trkpt>
      <trkpt lat="42.44434833" lon="1.51964333">
        <ele>1782.0</ele>
        <time>2019-08-04T10:19:29.330Z</time>
      </trkpt>
      <trkpt lat="42.44434833" lon="1.51964333">
        <ele>1782.0</ele>
        <time>2019-08-04T10:19:30.320Z</time>
      </trkpt>
      <trkpt lat="42.44429667" lon="1.519585">
        <ele>1783.0</ele>
        <time>2019-08-04T10:19:31.326Z</time>
      </trkpt>
      <trkpt lat="42.44429667" lon="1.519585">
        <ele>1783.0</ele>
        <time>2019-08-04T10:19:32.333Z</time>
      </trkpt>
      <trkpt lat="42.44424167" lon="1.51953333">
        <ele>1783.0</ele>
        <time>2019-08-04T10:19:33.299Z</time>
      </trkpt>
      <trkpt lat="42.44421167" lon="1.51951">
        <ele>1784.0</ele>
        <time>2019-08-04T10:19:34.309Z</time>
      </trkpt>
      <trkpt lat="42.44421167" lon="1.51951">
        <ele>1784.0</ele>
        <time>2019-08-04T10:19:35.315Z</time>
      </trkpt>
      <trkpt lat="42.44415" lon="1.51945833">
        <ele>1784.0</ele>
        <time>2019-08-04T10:19:36.297Z</time>
      </trkpt>
      <trkpt lat="42.44411833" lon="1.519435">
        <ele>1784.0</ele>
        <time>2019-08-04T10:19:37.332Z</time>
      </trkpt>
      <trkpt lat="42.44411833" lon="1.519435">
        <ele>1784.0</ele>
        <time>2019-08-04T10:19:38.325Z</time>
      </trkpt>
      <trkpt lat="42.44406167" lon="1.51938833">
        <ele>1785.0</ele>
        <time>2019-08-04T10:19:39.307Z</time>
      </trkpt>
      <trkpt lat="42.44406167" lon="1.51938833">
        <ele>1785.0</ele>
        <time>2019-08-04T10:19:40.328Z</time>
      </trkpt>
      <trkpt lat="42.44400667" lon="1.519345">
        <ele>1785.0</ele>
        <time>2019-08-04T10:19:41.331Z</time>
      </trkpt>
      <trkpt lat="42.44400667" lon="1.519345">
        <ele>1785.0</ele>
        <time>2019-08-04T10:19:42.326Z</time>
      </trkpt>
      <trkpt lat="42.44394833" lon="1.51930167">
        <ele>1785.0</ele>
        <time>2019-08-04T10:19:43.308Z</time>
      </trkpt>
      <trkpt lat="42.44394833" lon="1.51930167">
        <ele>1785.0</ele>
        <time>2019-08-04T10:19:44.329Z</time>
      </trkpt>
      <trkpt lat="42.44388833" lon="1.51925667">
        <ele>1786.0</ele>
        <time>2019-08-04T10:19:45.316Z</time>
      </trkpt>
      <trkpt lat="42.44388833" lon="1.51925667">
        <ele>1786.0</ele>
        <time>2019-08-04T10:19:46.308Z</time>
      </trkpt>
      <trkpt lat="42.44382667" lon="1.51922333">
        <ele>1786.0</ele>
        <time>2019-08-04T10:19:47.330Z</time>
      </trkpt>
      <trkpt lat="42.443795" lon="1.51921667">
        <ele>1786.0</ele>
        <time>2019-08-04T10:19:48.333Z</time>
      </trkpt>
      <trkpt lat="42.44376667" lon="1.51922167">
        <ele>1786.0</ele>
        <time>2019-08-04T10:19:49.330Z</time>
      </trkpt>
      <trkpt lat="42.44376667" lon="1.51922167">
        <ele>1786.0</ele>
        <time>2019-08-04T10:19:50.329Z</time>
      </trkpt>
      <trkpt lat="42.44372167" lon="1.519265">
        <ele>1786.0</ele>
        <time>2019-08-04T10:19:51.331Z</time>
      </trkpt>
      <trkpt lat="42.44372167" lon="1.519265">
        <ele>1786.0</ele>
        <time>2019-08-04T10:19:52.328Z</time>
      </trkpt>
      <trkpt lat="42.44370333" lon="1.51934667">
        <ele>1786.0</ele>
        <time>2019-08-04T10:19:53.331Z</time>
      </trkpt>
      <trkpt lat="42.443705" lon="1.51938833">
        <ele>1786.0</ele>
        <time>2019-08-04T10:19:54.297Z</time>
      </trkpt>
      <trkpt lat="42.443705" lon="1.51938833">
        <ele>1786.0</ele>
        <time>2019-08-04T10:19:55.308Z</time>
      </trkpt>
      <trkpt lat="42.44372" lon="1.51947">
        <ele>1786.0</ele>
        <time>2019-08-04T10:19:56.332Z</time>
      </trkpt>
      <trkpt lat="42.44372833" lon="1.51950333">
        <ele>1786.0</ele>
        <time>2019-08-04T10:19:57.331Z</time>
      </trkpt>
      <trkpt lat="42.44372833" lon="1.51950333">
        <ele>1786.0</ele>
        <time>2019-08-04T10:19:58.331Z</time>
      </trkpt>
      <trkpt lat="42.44375" lon="1.519555">
        <ele>1786.0</ele>
        <time>2019-08-04T10:19:59.332Z</time>
      </trkpt>
      <trkpt lat="42.44375" lon="1.519555">
        <ele>1786.0</ele>
        <time>2019-08-04T10:20:00.328Z</time>
      </trkpt>
      <trkpt lat="42.44378833" lon="1.51959667">
        <ele>1786.0</ele>
        <time>2019-08-04T10:20:01.332Z</time>
      </trkpt>
      <trkpt lat="42.44378833" lon="1.51959667">
        <ele>1786.0</ele>
        <time>2019-08-04T10:20:02.326Z</time>
      </trkpt>
      <trkpt lat="42.44382833" lon="1.519655">
        <ele>1786.0</ele>
        <time>2019-08-04T10:20:03.302Z</time>
      </trkpt>
      <trkpt lat="42.44382833" lon="1.519655">
        <ele>1786.0</ele>
        <time>2019-08-04T10:20:04.327Z</time>
      </trkpt>
      <trkpt lat="42.44386" lon="1.519715">
        <ele>1786.0</ele>
        <time>2019-08-04T10:20:05.311Z</time>
      </trkpt>
      <trkpt lat="42.44387833" lon="1.51975">
        <ele>1786.0</ele>
        <time>2019-08-04T10:20:06.331Z</time>
      </trkpt>
      <trkpt lat="42.44389667" lon="1.519785">
        <ele>1786.0</ele>
        <time>2019-08-04T10:20:07.333Z</time>
      </trkpt>
      <trkpt lat="42.44389667" lon="1.519785">
        <ele>1786.0</ele>
        <time>2019-08-04T10:20:08.328Z</time>
      </trkpt>
      <trkpt lat="42.44394" lon="1.51986333">
        <ele>1786.0</ele>
        <time>2019-08-04T10:20:09.332Z</time>
      </trkpt>
      <trkpt lat="42.44395667" lon="1.51990167">
        <ele>1786.0</ele>
        <time>2019-08-04T10:20:10.331Z</time>
      </trkpt>
      <trkpt lat="42.44395667" lon="1.51990167">
        <ele>1786.0</ele>
        <time>2019-08-04T10:20:11.329Z</time>
      </trkpt>
      <trkpt lat="42.44398667" lon="1.51997833">
        <ele>1786.0</ele>
        <time>2019-08-04T10:20:12.331Z</time>
      </trkpt>
      <trkpt lat="42.44398667" lon="1.51997833">
        <ele>1786.0</ele>
        <time>2019-08-04T10:20:13.329Z</time>
      </trkpt>
      <trkpt lat="42.44401333" lon="1.520055">
        <ele>1786.0</ele>
        <time>2019-08-04T10:20:14.330Z</time>
      </trkpt>
      <trkpt lat="42.44403" lon="1.52009">
        <ele>1786.0</ele>
        <time>2019-08-04T10:20:15.307Z</time>
      </trkpt>
      <trkpt lat="42.44403" lon="1.52009">
        <ele>1786.0</ele>
        <time>2019-08-04T10:20:16.328Z</time>
      </trkpt>
      <trkpt lat="42.444055" lon="1.52016667">
        <ele>1786.0</ele>
        <time>2019-08-04T10:20:17.330Z</time>
      </trkpt>
      <trkpt lat="42.444055" lon="1.52016667">
        <ele>1786.0</ele>
        <time>2019-08-04T10:20:18.326Z</time>
      </trkpt>
      <trkpt lat="42.44408" lon="1.520245">
        <ele>1786.0</ele>
        <time>2019-08-04T10:20:19.310Z</time>
      </trkpt>
      <trkpt lat="42.44409167" lon="1.52028833">
        <ele>1786.0</ele>
        <time>2019-08-04T10:20:20.331Z</time>
      </trkpt>
      <trkpt lat="42.444105" lon="1.52033">
        <ele>1786.0</ele>
        <time>2019-08-04T10:20:21.331Z</time>
      </trkpt>
      <trkpt lat="42.444105" lon="1.52033">
        <ele>1786.0</ele>
        <time>2019-08-04T10:20:22.331Z</time>
      </trkpt>
      <trkpt lat="42.444125" lon="1.52041333">
        <ele>1786.0</ele>
        <time>2019-08-04T10:20:23.331Z</time>
      </trkpt>
      <trkpt lat="42.444135" lon="1.520455">
        <ele>1786.0</ele>
        <time>2019-08-04T10:20:24.331Z</time>
      </trkpt>
      <trkpt lat="42.44414333" lon="1.52049667">
        <ele>1786.0</ele>
        <time>2019-08-04T10:20:25.310Z</time>
      </trkpt>
      <trkpt lat="42.44414333" lon="1.52049667">
        <ele>1786.0</ele>
        <time>2019-08-04T10:20:26.332Z</time>
      </trkpt>
      <trkpt lat="42.44415167" lon="1.52058">
        <ele>1786.0</ele>
        <time>2019-08-04T10:20:27.332Z</time>
      </trkpt>
      <trkpt lat="42.44415167" lon="1.52058">
        <ele>1786.0</ele>
        <time>2019-08-04T10:20:28.326Z</time>
      </trkpt>
      <trkpt lat="42.44416667" lon="1.52066333">
        <ele>1786.0</ele>
        <time>2019-08-04T10:20:29.327Z</time>
      </trkpt>
      <trkpt lat="42.444175" lon="1.52070833">
        <ele>1786.0</ele>
        <time>2019-08-04T10:20:30.318Z</time>
      </trkpt>
      <trkpt lat="42.44418167" lon="1.52075167">
        <ele>1786.0</ele>
        <time>2019-08-04T10:20:31.324Z</time>
      </trkpt>
      <trkpt lat="42.44418167" lon="1.52075167">
        <ele>1786.0</ele>
        <time>2019-08-04T10:20:32.330Z</time>
      </trkpt>
      <trkpt lat="42.44419167" lon="1.52084167">
        <ele>1785.0</ele>
        <time>2019-08-04T10:20:33.332Z</time>
      </trkpt>
      <trkpt lat="42.44419167" lon="1.52084167">
        <ele>1785.0</ele>
        <time>2019-08-04T10:20:34.300Z</time>
      </trkpt>
      <trkpt lat="42.44420833" lon="1.52093">
        <ele>1785.0</ele>
        <time>2019-08-04T10:20:35.316Z</time>
      </trkpt>
      <trkpt lat="42.44421667" lon="1.520975">
        <ele>1785.0</ele>
        <time>2019-08-04T10:20:36.299Z</time>
      </trkpt>
      <trkpt lat="42.44422333" lon="1.52102">
        <ele>1785.0</ele>
        <time>2019-08-04T10:20:37.333Z</time>
      </trkpt>
      <trkpt lat="42.44422333" lon="1.52102">
        <ele>1785.0</ele>
        <time>2019-08-04T10:20:38.330Z</time>
      </trkpt>
      <trkpt lat="42.44424333" lon="1.521115">
        <ele>1785.0</ele>
        <time>2019-08-04T10:20:39.332Z</time>
      </trkpt>
      <trkpt lat="42.44424333" lon="1.521115">
        <ele>1785.0</ele>
        <time>2019-08-04T10:20:40.331Z</time>
      </trkpt>
      <trkpt lat="42.44425667" lon="1.521205">
        <ele>1785.0</ele>
        <time>2019-08-04T10:20:41.331Z</time>
      </trkpt>
      <trkpt lat="42.444265" lon="1.52125167">
        <ele>1785.0</ele>
        <time>2019-08-04T10:20:42.331Z</time>
      </trkpt>
      <trkpt lat="42.444265" lon="1.52125167">
        <ele>1785.0</ele>
        <time>2019-08-04T10:20:43.331Z</time>
      </trkpt>
      <trkpt lat="42.444285" lon="1.52133833">
        <ele>1785.0</ele>
        <time>2019-08-04T10:20:44.331Z</time>
      </trkpt>
      <trkpt lat="42.44429667" lon="1.52138">
        <ele>1785.0</ele>
        <time>2019-08-04T10:20:45.309Z</time>
      </trkpt>
      <trkpt lat="42.44429667" lon="1.52138">
        <ele>1785.0</ele>
        <time>2019-08-04T10:20:46.331Z</time>
      </trkpt>
      <trkpt lat="42.44433" lon="1.521465">
        <ele>1785.0</ele>
        <time>2019-08-04T10:20:47.331Z</time>
      </trkpt>
      <trkpt lat="42.444345" lon="1.52150833">
        <ele>1785.0</ele>
        <time>2019-08-04T10:20:48.331Z</time>
      </trkpt>
      <trkpt lat="42.44436333" lon="1.52154833">
        <ele>1785.0</ele>
        <time>2019-08-04T10:20:49.332Z</time>
      </trkpt>
      <trkpt lat="42.44436333" lon="1.52154833">
        <ele>1785.0</ele>
        <time>2019-08-04T10:20:50.328Z</time>
      </trkpt>
      <trkpt lat="42.4444" lon="1.52162">
        <ele>1785.0</ele>
        <time>2019-08-04T10:20:51.299Z</time>
      </trkpt>
      <trkpt lat="42.4444" lon="1.52162">
        <ele>1785.0</ele>
        <time>2019-08-04T10:20:52.327Z</time>
      </trkpt>
      <trkpt lat="42.444435" lon="1.52169833">
        <ele>1785.0</ele>
        <time>2019-08-04T10:20:53.310Z</time>
      </trkpt>
      <trkpt lat="42.44445333" lon="1.52173833">
        <ele>1785.0</ele>
        <time>2019-08-04T10:20:54.331Z</time>
      </trkpt>
      <trkpt lat="42.44447333" lon="1.52177667">
        <ele>1785.0</ele>
        <time>2019-08-04T10:20:55.315Z</time>
      </trkpt>
      <trkpt lat="42.44447333" lon="1.52177667">
        <ele>1785.0</ele>
        <time>2019-08-04T10:20:56.297Z</time>
      </trkpt>
      <trkpt lat="42.44451167" lon="1.52186">
        <ele>1786.0</ele>
        <time>2019-08-04T10:20:57.329Z</time>
      </trkpt>
      <trkpt lat="42.44451167" lon="1.52186">
        <ele>1786.0</ele>
        <time>2019-08-04T10:20:58.310Z</time>
      </trkpt>
      <trkpt lat="42.44455" lon="1.52193333">
        <ele>1786.0</ele>
        <time>2019-08-04T10:20:59.331Z</time>
      </trkpt>
      <trkpt lat="42.44456833" lon="1.52197">
        <ele>1786.0</ele>
        <time>2019-08-04T10:21:00.331Z</time>
      </trkpt>
      <trkpt lat="42.44456833" lon="1.52197">
        <ele>1786.0</ele>
        <time>2019-08-04T10:21:01.326Z</time>
      </trkpt>
      <trkpt lat="42.44460667" lon="1.522045">
        <ele>1786.0</ele>
        <time>2019-08-04T10:21:02.331Z</time>
      </trkpt>
      <trkpt lat="42.44460667" lon="1.522045">
        <ele>1786.0</ele>
        <time>2019-08-04T10:21:03.328Z</time>
      </trkpt>
      <trkpt lat="42.44464667" lon="1.522115">
        <ele>1787.0</ele>
        <time>2019-08-04T10:21:04.331Z</time>
      </trkpt>
      <trkpt lat="42.44464667" lon="1.522115">
        <ele>1787.0</ele>
        <time>2019-08-04T10:21:05.300Z</time>
      </trkpt>
      <trkpt lat="42.44469167" lon="1.52218667">
        <ele>1787.0</ele>
        <time>2019-08-04T10:21:06.330Z</time>
      </trkpt>
      <trkpt lat="42.44469167" lon="1.52218667">
        <ele>1787.0</ele>
        <time>2019-08-04T10:21:07.329Z</time>
      </trkpt>
      <trkpt lat="42.444735" lon="1.522255">
        <ele>1787.0</ele>
        <time>2019-08-04T10:21:08.302Z</time>
      </trkpt>
      <trkpt lat="42.444755" lon="1.52228833">
        <ele>1788.0</ele>
        <time>2019-08-04T10:21:09.331Z</time>
      </trkpt>
      <trkpt lat="42.444755" lon="1.52228833">
        <ele>1788.0</ele>
        <time>2019-08-04T10:21:10.325Z</time>
      </trkpt>
      <trkpt lat="42.44479167" lon="1.52236333">
        <ele>1788.0</ele>
        <time>2019-08-04T10:21:11.308Z</time>
      </trkpt>
      <trkpt lat="42.44479167" lon="1.52236333">
        <ele>1788.0</ele>
        <time>2019-08-04T10:21:12.329Z</time>
      </trkpt>
      <trkpt lat="42.44483667" lon="1.52242833">
        <ele>1788.0</ele>
        <time>2019-08-04T10:21:13.331Z</time>
      </trkpt>
      <trkpt lat="42.44483667" lon="1.52242833">
        <ele>1788.0</ele>
        <time>2019-08-04T10:21:14.326Z</time>
      </trkpt>
      <trkpt lat="42.44488167" lon="1.52248667">
        <ele>1788.0</ele>
        <time>2019-08-04T10:21:15.309Z</time>
      </trkpt>
      <trkpt lat="42.44488167" lon="1.52248667">
        <ele>1788.0</ele>
        <time>2019-08-04T10:21:16.331Z</time>
      </trkpt>
      <trkpt lat="42.44493167" lon="1.522545">
        <ele>1789.0</ele>
        <time>2019-08-04T10:21:17.331Z</time>
      </trkpt>
      <trkpt lat="42.44493167" lon="1.522545">
        <ele>1789.0</ele>
        <time>2019-08-04T10:21:18.330Z</time>
      </trkpt>
      <trkpt lat="42.44498333" lon="1.52259667">
        <ele>1789.0</ele>
        <time>2019-08-04T10:21:19.332Z</time>
      </trkpt>
      <trkpt lat="42.44498333" lon="1.52259667">
        <ele>1789.0</ele>
        <time>2019-08-04T10:21:20.323Z</time>
      </trkpt>
      <trkpt lat="42.44502833" lon="1.52264667">
        <ele>1790.0</ele>
        <time>2019-08-04T10:21:21.304Z</time>
      </trkpt>
      <trkpt lat="42.44502833" lon="1.52264667">
        <ele>1790.0</ele>
        <time>2019-08-04T10:21:22.328Z</time>
      </trkpt>
      <trkpt lat="42.44508" lon="1.52269167">
        <ele>1790.0</ele>
        <time>2019-08-04T10:21:23.330Z</time>
      </trkpt>
      <trkpt lat="42.44508" lon="1.52269167">
        <ele>1790.0</ele>
        <time>2019-08-04T10:21:24.327Z</time>
      </trkpt>
      <trkpt lat="42.44512833" lon="1.52272167">
        <ele>1791.0</ele>
        <time>2019-08-04T10:21:25.315Z</time>
      </trkpt>
      <trkpt lat="42.44512833" lon="1.52272167">
        <ele>1791.0</ele>
        <time>2019-08-04T10:21:26.297Z</time>
      </trkpt>
      <trkpt lat="42.44518" lon="1.52274667">
        <ele>1791.0</ele>
        <time>2019-08-04T10:21:27.332Z</time>
      </trkpt>
      <trkpt lat="42.44518" lon="1.52274667">
        <ele>1791.0</ele>
        <time>2019-08-04T10:21:28.325Z</time>
      </trkpt>
      <trkpt lat="42.445235" lon="1.52277">
        <ele>1792.0</ele>
        <time>2019-08-04T10:21:29.329Z</time>
      </trkpt>
      <trkpt lat="42.445235" lon="1.52277">
        <ele>1792.0</ele>
        <time>2019-08-04T10:21:30.328Z</time>
      </trkpt>
      <trkpt lat="42.44529167" lon="1.52278833">
        <ele>1792.0</ele>
        <time>2019-08-04T10:21:31.332Z</time>
      </trkpt>
      <trkpt lat="42.44529167" lon="1.52278833">
        <ele>1792.0</ele>
        <time>2019-08-04T10:21:32.326Z</time>
      </trkpt>
      <trkpt lat="42.445345" lon="1.5228">
        <ele>1792.0</ele>
        <time>2019-08-04T10:21:33.310Z</time>
      </trkpt>
      <trkpt lat="42.445345" lon="1.5228">
        <ele>1792.0</ele>
        <time>2019-08-04T10:21:34.301Z</time>
      </trkpt>
      <trkpt lat="42.445405" lon="1.52281667">
        <ele>1793.0</ele>
        <time>2019-08-04T10:21:35.317Z</time>
      </trkpt>
      <trkpt lat="42.44543667" lon="1.52282667">
        <ele>1793.0</ele>
        <time>2019-08-04T10:21:36.299Z</time>
      </trkpt>
      <trkpt lat="42.44543667" lon="1.52282667">
        <ele>1793.0</ele>
        <time>2019-08-04T10:21:37.326Z</time>
      </trkpt>
      <trkpt lat="42.44549667" lon="1.52283833">
        <ele>1793.0</ele>
        <time>2019-08-04T10:21:38.308Z</time>
      </trkpt>
      <trkpt lat="42.445525" lon="1.52284167">
        <ele>1793.0</ele>
        <time>2019-08-04T10:21:39.331Z</time>
      </trkpt>
      <trkpt lat="42.445525" lon="1.52284167">
        <ele>1793.0</ele>
        <time>2019-08-04T10:21:40.331Z</time>
      </trkpt>
      <trkpt lat="42.44558" lon="1.522845">
        <ele>1793.0</ele>
        <time>2019-08-04T10:21:41.329Z</time>
      </trkpt>
      <trkpt lat="42.445605" lon="1.52284833">
        <ele>1793.0</ele>
        <time>2019-08-04T10:21:42.328Z</time>
      </trkpt>
      <trkpt lat="42.445605" lon="1.52284833">
        <ele>1793.0</ele>
        <time>2019-08-04T10:21:43.329Z</time>
      </trkpt>
      <trkpt lat="42.44565833" lon="1.52286333">
        <ele>1793.0</ele>
        <time>2019-08-04T10:21:44.331Z</time>
      </trkpt>
      <trkpt lat="42.44568333" lon="1.52287833">
        <ele>1794.0</ele>
        <time>2019-08-04T10:21:45.315Z</time>
      </trkpt>
      <trkpt lat="42.44568333" lon="1.52287833">
        <ele>1794.0</ele>
        <time>2019-08-04T10:21:46.301Z</time>
      </trkpt>
      <trkpt lat="42.44572833" lon="1.522905">
        <ele>1793.0</ele>
        <time>2019-08-04T10:21:47.331Z</time>
      </trkpt>
      <trkpt lat="42.44572833" lon="1.522905">
        <ele>1793.0</ele>
        <time>2019-08-04T10:21:48.327Z</time>
      </trkpt>
      <trkpt lat="42.44578667" lon="1.52296">
        <ele>1793.0</ele>
        <time>2019-08-04T10:21:49.308Z</time>
      </trkpt>
      <trkpt lat="42.44578667" lon="1.52296">
        <ele>1793.0</ele>
        <time>2019-08-04T10:21:50.329Z</time>
      </trkpt>
      <trkpt lat="42.44583333" lon="1.52302333">
        <ele>1794.0</ele>
        <time>2019-08-04T10:21:51.332Z</time>
      </trkpt>
      <trkpt lat="42.44583333" lon="1.52302333">
        <ele>1794.0</ele>
        <time>2019-08-04T10:21:52.325Z</time>
      </trkpt>
      <trkpt lat="42.445865" lon="1.5231">
        <ele>1794.0</ele>
        <time>2019-08-04T10:21:53.308Z</time>
      </trkpt>
      <trkpt lat="42.445865" lon="1.5231">
        <ele>1794.0</ele>
        <time>2019-08-04T10:21:54.328Z</time>
      </trkpt>
      <trkpt lat="42.44589" lon="1.52318667">
        <ele>1794.0</ele>
        <time>2019-08-04T10:21:55.315Z</time>
      </trkpt>
      <trkpt lat="42.44589" lon="1.52318667">
        <ele>1794.0</ele>
        <time>2019-08-04T10:21:56.296Z</time>
      </trkpt>
      <trkpt lat="42.44589833" lon="1.52327833">
        <ele>1795.0</ele>
        <time>2019-08-04T10:21:57.332Z</time>
      </trkpt>
      <trkpt lat="42.44589833" lon="1.52327833">
        <ele>1795.0</ele>
        <time>2019-08-04T10:21:58.328Z</time>
      </trkpt>
      <trkpt lat="42.44588167" lon="1.52336833">
        <ele>1795.0</ele>
        <time>2019-08-04T10:21:59.331Z</time>
      </trkpt>
      <trkpt lat="42.44588167" lon="1.52336833">
        <ele>1795.0</ele>
        <time>2019-08-04T10:22:00.327Z</time>
      </trkpt>
      <trkpt lat="42.44585" lon="1.52345667">
        <ele>1795.0</ele>
        <time>2019-08-04T10:22:01.309Z</time>
      </trkpt>
      <trkpt lat="42.44585" lon="1.52345667">
        <ele>1795.0</ele>
        <time>2019-08-04T10:22:02.330Z</time>
      </trkpt>
      <trkpt lat="42.44580333" lon="1.52353167">
        <ele>1796.0</ele>
        <time>2019-08-04T10:22:03.331Z</time>
      </trkpt>
      <trkpt lat="42.44580333" lon="1.52353167">
        <ele>1796.0</ele>
        <time>2019-08-04T10:22:04.328Z</time>
      </trkpt>
      <trkpt lat="42.445745" lon="1.523595">
        <ele>1796.0</ele>
        <time>2019-08-04T10:22:05.315Z</time>
      </trkpt>
      <trkpt lat="42.44571667" lon="1.52362333">
        <ele>1796.0</ele>
        <time>2019-08-04T10:22:06.296Z</time>
      </trkpt>
      <trkpt lat="42.44571667" lon="1.52362333">
        <ele>1796.0</ele>
        <time>2019-08-04T10:22:07.329Z</time>
      </trkpt>
      <trkpt lat="42.44565833" lon="1.52368333">
        <ele>1796.0</ele>
        <time>2019-08-04T10:22:08.331Z</time>
      </trkpt>
      <trkpt lat="42.44562833" lon="1.52371167">
        <ele>1796.0</ele>
        <time>2019-08-04T10:22:09.331Z</time>
      </trkpt>
      <trkpt lat="42.44562833" lon="1.52371167">
        <ele>1796.0</ele>
        <time>2019-08-04T10:22:10.331Z</time>
      </trkpt>
      <trkpt lat="42.445565" lon="1.52377333">
        <ele>1796.0</ele>
        <time>2019-08-04T10:22:11.332Z</time>
      </trkpt>
      <trkpt lat="42.445565" lon="1.52377333">
        <ele>1796.0</ele>
        <time>2019-08-04T10:22:12.328Z</time>
      </trkpt>
      <trkpt lat="42.44550667" lon="1.52384">
        <ele>1797.0</ele>
        <time>2019-08-04T10:22:13.309Z</time>
      </trkpt>
      <trkpt lat="42.44550667" lon="1.52384">
        <ele>1797.0</ele>
        <time>2019-08-04T10:22:14.309Z</time>
      </trkpt>
      <trkpt lat="42.44544833" lon="1.5239">
        <ele>1797.0</ele>
        <time>2019-08-04T10:22:15.308Z</time>
      </trkpt>
      <trkpt lat="42.44544833" lon="1.5239">
        <ele>1797.0</ele>
        <time>2019-08-04T10:22:16.329Z</time>
      </trkpt>
      <trkpt lat="42.445395" lon="1.52397333">
        <ele>1797.0</ele>
        <time>2019-08-04T10:22:17.333Z</time>
      </trkpt>
      <trkpt lat="42.445395" lon="1.52397333">
        <ele>1797.0</ele>
        <time>2019-08-04T10:22:18.328Z</time>
      </trkpt>
      <trkpt lat="42.44534667" lon="1.52406">
        <ele>1797.0</ele>
        <time>2019-08-04T10:22:19.331Z</time>
      </trkpt>
      <trkpt lat="42.44534667" lon="1.52406">
        <ele>1797.0</ele>
        <time>2019-08-04T10:22:20.325Z</time>
      </trkpt>
      <trkpt lat="42.4453" lon="1.52414667">
        <ele>1798.0</ele>
        <time>2019-08-04T10:22:21.308Z</time>
      </trkpt>
      <trkpt lat="42.4453" lon="1.52414667">
        <ele>1798.0</ele>
        <time>2019-08-04T10:22:22.329Z</time>
      </trkpt>
      <trkpt lat="42.445245" lon="1.52422">
        <ele>1798.0</ele>
        <time>2019-08-04T10:22:23.311Z</time>
      </trkpt>
      <trkpt lat="42.445245" lon="1.52422">
        <ele>1798.0</ele>
        <time>2019-08-04T10:22:24.332Z</time>
      </trkpt>
      <trkpt lat="42.44520333" lon="1.52430667">
        <ele>1798.0</ele>
        <time>2019-08-04T10:22:25.309Z</time>
      </trkpt>
      <trkpt lat="42.44520333" lon="1.52430667">
        <ele>1798.0</ele>
        <time>2019-08-04T10:22:26.331Z</time>
      </trkpt>
      <trkpt lat="42.44517667" lon="1.52439833">
        <ele>1798.0</ele>
        <time>2019-08-04T10:22:27.331Z</time>
      </trkpt>
      <trkpt lat="42.44517667" lon="1.52439833">
        <ele>1798.0</ele>
        <time>2019-08-04T10:22:28.327Z</time>
      </trkpt>
      <trkpt lat="42.44515667" lon="1.52449667">
        <ele>1799.0</ele>
        <time>2019-08-04T10:22:29.329Z</time>
      </trkpt>
      <trkpt lat="42.44514167" lon="1.52455167">
        <ele>1799.0</ele>
        <time>2019-08-04T10:22:30.332Z</time>
      </trkpt>
      <trkpt lat="42.44514167" lon="1.52455167">
        <ele>1799.0</ele>
        <time>2019-08-04T10:22:31.329Z</time>
      </trkpt>
      <trkpt lat="42.44512167" lon="1.52466833">
        <ele>1799.0</ele>
        <time>2019-08-04T10:22:32.331Z</time>
      </trkpt>
      <trkpt lat="42.44511833" lon="1.524735">
        <ele>1800.0</ele>
        <time>2019-08-04T10:22:33.332Z</time>
      </trkpt>
      <trkpt lat="42.44511833" lon="1.524735">
        <ele>1800.0</ele>
        <time>2019-08-04T10:22:34.325Z</time>
      </trkpt>
      <trkpt lat="42.44509833" lon="1.52485">
        <ele>1801.0</ele>
        <time>2019-08-04T10:22:35.312Z</time>
      </trkpt>
      <trkpt lat="42.44509833" lon="1.52485">
        <ele>1801.0</ele>
        <time>2019-08-04T10:22:36.333Z</time>
      </trkpt>
      <trkpt lat="42.44508167" lon="1.52497167">
        <ele>1801.0</ele>
        <time>2019-08-04T10:22:37.332Z</time>
      </trkpt>
      <trkpt lat="42.44508167" lon="1.52497167">
        <ele>1801.0</ele>
        <time>2019-08-04T10:22:38.329Z</time>
      </trkpt>
      <trkpt lat="42.44506167" lon="1.52509333">
        <ele>1802.0</ele>
        <time>2019-08-04T10:22:39.332Z</time>
      </trkpt>
      <trkpt lat="42.44506167" lon="1.52509333">
        <ele>1802.0</ele>
        <time>2019-08-04T10:22:40.331Z</time>
      </trkpt>
      <trkpt lat="42.44505167" lon="1.52521">
        <ele>1802.0</ele>
        <time>2019-08-04T10:22:41.331Z</time>
      </trkpt>
      <trkpt lat="42.44505167" lon="1.52521">
        <ele>1802.0</ele>
        <time>2019-08-04T10:22:42.328Z</time>
      </trkpt>
      <trkpt lat="42.44505333" lon="1.52533">
        <ele>1803.0</ele>
        <time>2019-08-04T10:22:43.332Z</time>
      </trkpt>
      <trkpt lat="42.44505333" lon="1.52533">
        <ele>1803.0</ele>
        <time>2019-08-04T10:22:44.322Z</time>
      </trkpt>
      <trkpt lat="42.44505167" lon="1.52545667">
        <ele>1803.0</ele>
        <time>2019-08-04T10:22:45.308Z</time>
      </trkpt>
      <trkpt lat="42.44505167" lon="1.52545667">
        <ele>1803.0</ele>
        <time>2019-08-04T10:22:46.329Z</time>
      </trkpt>
      <trkpt lat="42.44505333" lon="1.52557667">
        <ele>1803.0</ele>
        <time>2019-08-04T10:22:47.331Z</time>
      </trkpt>
      <trkpt lat="42.44505667" lon="1.52563167">
        <ele>1803.0</ele>
        <time>2019-08-04T10:22:48.300Z</time>
      </trkpt>
      <trkpt lat="42.44506333" lon="1.52569167">
        <ele>1804.0</ele>
        <time>2019-08-04T10:22:49.333Z</time>
      </trkpt>
      <trkpt lat="42.44506333" lon="1.52569167">
        <ele>1804.0</ele>
        <time>2019-08-04T10:22:50.329Z</time>
      </trkpt>
      <trkpt lat="42.44507833" lon="1.525805">
        <ele>1804.0</ele>
        <time>2019-08-04T10:22:51.332Z</time>
      </trkpt>
      <trkpt lat="42.44507833" lon="1.525805">
        <ele>1804.0</ele>
        <time>2019-08-04T10:22:52.328Z</time>
      </trkpt>
      <trkpt lat="42.44509667" lon="1.52590333">
        <ele>1805.0</ele>
        <time>2019-08-04T10:22:53.310Z</time>
      </trkpt>
      <trkpt lat="42.44509667" lon="1.52590333">
        <ele>1805.0</ele>
        <time>2019-08-04T10:22:54.335Z</time>
      </trkpt>
      <trkpt lat="42.44511833" lon="1.52599833">
        <ele>1805.0</ele>
        <time>2019-08-04T10:22:55.309Z</time>
      </trkpt>
      <trkpt lat="42.44511833" lon="1.52599833">
        <ele>1805.0</ele>
        <time>2019-08-04T10:22:56.329Z</time>
      </trkpt>
      <trkpt lat="42.44514667" lon="1.52608667">
        <ele>1806.0</ele>
        <time>2019-08-04T10:22:57.332Z</time>
      </trkpt>
      <trkpt lat="42.44514667" lon="1.52608667">
        <ele>1806.0</ele>
        <time>2019-08-04T10:22:58.327Z</time>
      </trkpt>
      <trkpt lat="42.445175" lon="1.52617">
        <ele>1806.0</ele>
        <time>2019-08-04T10:22:59.312Z</time>
      </trkpt>
      <trkpt lat="42.44519167" lon="1.52620833">
        <ele>1807.0</ele>
        <time>2019-08-04T10:23:00.333Z</time>
      </trkpt>
      <trkpt lat="42.44519167" lon="1.52620833">
        <ele>1807.0</ele>
        <time>2019-08-04T10:23:01.329Z</time>
      </trkpt>
      <trkpt lat="42.44521833" lon="1.52628">
        <ele>1807.0</ele>
        <time>2019-08-04T10:23:02.328Z</time>
      </trkpt>
      <trkpt lat="42.44523667" lon="1.52631667">
        <ele>1808.0</ele>
        <time>2019-08-04T10:23:03.331Z</time>
      </trkpt>
      <trkpt lat="42.44523667" lon="1.52631667">
        <ele>1808.0</ele>
        <time>2019-08-04T10:23:04.326Z</time>
      </trkpt>
      <trkpt lat="42.44527333" lon="1.52639333">
        <ele>1809.0</ele>
        <time>2019-08-04T10:23:05.310Z</time>
      </trkpt>
      <trkpt lat="42.44527333" lon="1.52639333">
        <ele>1809.0</ele>
        <time>2019-08-04T10:23:06.332Z</time>
      </trkpt>
      <trkpt lat="42.445315" lon="1.52647333">
        <ele>1809.0</ele>
        <time>2019-08-04T10:23:07.333Z</time>
      </trkpt>
      <trkpt lat="42.445335" lon="1.526515">
        <ele>1810.0</ele>
        <time>2019-08-04T10:23:08.332Z</time>
      </trkpt>
      <trkpt lat="42.44535667" lon="1.526555">
        <ele>1810.0</ele>
        <time>2019-08-04T10:23:09.331Z</time>
      </trkpt>
      <trkpt lat="42.44535667" lon="1.526555">
        <ele>1810.0</ele>
        <time>2019-08-04T10:23:10.331Z</time>
      </trkpt>
      <trkpt lat="42.4454" lon="1.52664333">
        <ele>1811.0</ele>
        <time>2019-08-04T10:23:11.331Z</time>
      </trkpt>
      <trkpt lat="42.4454" lon="1.52664333">
        <ele>1811.0</ele>
        <time>2019-08-04T10:23:12.323Z</time>
      </trkpt>
      <trkpt lat="42.44544333" lon="1.52672333">
        <ele>1812.0</ele>
        <time>2019-08-04T10:23:13.308Z</time>
      </trkpt>
      <trkpt lat="42.44544333" lon="1.52672333">
        <ele>1812.0</ele>
        <time>2019-08-04T10:23:14.329Z</time>
      </trkpt>
      <trkpt lat="42.44548167" lon="1.52680167">
        <ele>1813.0</ele>
        <time>2019-08-04T10:23:15.317Z</time>
      </trkpt>
      <trkpt lat="42.44548167" lon="1.52680167">
        <ele>1813.0</ele>
        <time>2019-08-04T10:23:16.308Z</time>
      </trkpt>
      <trkpt lat="42.44551833" lon="1.52689333">
        <ele>1813.0</ele>
        <time>2019-08-04T10:23:17.331Z</time>
      </trkpt>
      <trkpt lat="42.44551833" lon="1.52689333">
        <ele>1813.0</ele>
        <time>2019-08-04T10:23:18.329Z</time>
      </trkpt>
      <trkpt lat="42.44554667" lon="1.52698333">
        <ele>1814.0</ele>
        <time>2019-08-04T10:23:19.332Z</time>
      </trkpt>
      <trkpt lat="42.44554667" lon="1.52698333">
        <ele>1814.0</ele>
        <time>2019-08-04T10:23:20.329Z</time>
      </trkpt>
      <trkpt lat="42.44558167" lon="1.52706833">
        <ele>1815.0</ele>
        <time>2019-08-04T10:23:21.328Z</time>
      </trkpt>
      <trkpt lat="42.44558167" lon="1.52706833">
        <ele>1815.0</ele>
        <time>2019-08-04T10:23:22.328Z</time>
      </trkpt>
      <trkpt lat="42.44561" lon="1.52714833">
        <ele>1815.0</ele>
        <time>2019-08-04T10:23:23.309Z</time>
      </trkpt>
      <trkpt lat="42.44561" lon="1.52714833">
        <ele>1815.0</ele>
        <time>2019-08-04T10:23:24.330Z</time>
      </trkpt>
      <trkpt lat="42.44563" lon="1.52723167">
        <ele>1816.0</ele>
        <time>2019-08-04T10:23:25.310Z</time>
      </trkpt>
      <trkpt lat="42.44563" lon="1.52723167">
        <ele>1816.0</ele>
        <time>2019-08-04T10:23:26.332Z</time>
      </trkpt>
      <trkpt lat="42.44565167" lon="1.52732833">
        <ele>1817.0</ele>
        <time>2019-08-04T10:23:27.332Z</time>
      </trkpt>
      <trkpt lat="42.44565167" lon="1.52732833">
        <ele>1817.0</ele>
        <time>2019-08-04T10:23:28.329Z</time>
      </trkpt>
      <trkpt lat="42.44566" lon="1.52742333">
        <ele>1817.0</ele>
        <time>2019-08-04T10:23:29.314Z</time>
      </trkpt>
      <trkpt lat="42.44566333" lon="1.52746833">
        <ele>1818.0</ele>
        <time>2019-08-04T10:23:30.322Z</time>
      </trkpt>
      <trkpt lat="42.44566333" lon="1.52751833">
        <ele>1818.0</ele>
        <time>2019-08-04T10:23:31.328Z</time>
      </trkpt>
      <trkpt lat="42.44566333" lon="1.52751833">
        <ele>1818.0</ele>
        <time>2019-08-04T10:23:32.334Z</time>
      </trkpt>
      <trkpt lat="42.44566" lon="1.52761167">
        <ele>1818.0</ele>
        <time>2019-08-04T10:23:33.301Z</time>
      </trkpt>
      <trkpt lat="42.44566" lon="1.52761167">
        <ele>1818.0</ele>
        <time>2019-08-04T10:23:34.303Z</time>
      </trkpt>
      <trkpt lat="42.44565167" lon="1.52771">
        <ele>1819.0</ele>
        <time>2019-08-04T10:23:35.308Z</time>
      </trkpt>
      <trkpt lat="42.44564667" lon="1.52775833">
        <ele>1819.0</ele>
        <time>2019-08-04T10:23:36.335Z</time>
      </trkpt>
      <trkpt lat="42.44564333" lon="1.52780667">
        <ele>1819.0</ele>
        <time>2019-08-04T10:23:37.332Z</time>
      </trkpt>
      <trkpt lat="42.44564333" lon="1.52780667">
        <ele>1819.0</ele>
        <time>2019-08-04T10:23:38.329Z</time>
      </trkpt>
      <trkpt lat="42.44562833" lon="1.52789833">
        <ele>1819.0</ele>
        <time>2019-08-04T10:23:39.333Z</time>
      </trkpt>
      <trkpt lat="42.44562833" lon="1.52789833">
        <ele>1819.0</ele>
        <time>2019-08-04T10:23:40.326Z</time>
      </trkpt>
      <trkpt lat="42.44561167" lon="1.527995">
        <ele>1819.0</ele>
        <time>2019-08-04T10:23:41.309Z</time>
      </trkpt>
      <trkpt lat="42.44560667" lon="1.52804333">
        <ele>1820.0</ele>
        <time>2019-08-04T10:23:42.333Z</time>
      </trkpt>
      <trkpt lat="42.44560167" lon="1.52809">
        <ele>1820.0</ele>
        <time>2019-08-04T10:23:43.334Z</time>
      </trkpt>
      <trkpt lat="42.44560167" lon="1.52809">
        <ele>1820.0</ele>
        <time>2019-08-04T10:23:44.330Z</time>
      </trkpt>
      <trkpt lat="42.44558667" lon="1.528205">
        <ele>1820.0</ele>
        <time>2019-08-04T10:23:45.308Z</time>
      </trkpt>
      <trkpt lat="42.44558667" lon="1.528205">
        <ele>1820.0</ele>
        <time>2019-08-04T10:23:46.329Z</time>
      </trkpt>
      <trkpt lat="42.44556167" lon="1.52831833">
        <ele>1821.0</ele>
        <time>2019-08-04T10:23:47.329Z</time>
      </trkpt>
      <trkpt lat="42.44556167" lon="1.52831833">
        <ele>1821.0</ele>
        <time>2019-08-04T10:23:48.319Z</time>
      </trkpt>
      <trkpt lat="42.445535" lon="1.52842">
        <ele>1821.0</ele>
        <time>2019-08-04T10:23:49.302Z</time>
      </trkpt>
      <trkpt lat="42.44551833" lon="1.52847167">
        <ele>1822.0</ele>
        <time>2019-08-04T10:23:50.308Z</time>
      </trkpt>
      <trkpt lat="42.44551833" lon="1.52847167">
        <ele>1822.0</ele>
        <time>2019-08-04T10:23:51.329Z</time>
      </trkpt>
      <trkpt lat="42.44548333" lon="1.52857">
        <ele>1822.0</ele>
        <time>2019-08-04T10:23:52.332Z</time>
      </trkpt>
      <trkpt lat="42.44548333" lon="1.52857">
        <ele>1822.0</ele>
        <time>2019-08-04T10:23:53.329Z</time>
      </trkpt>
      <trkpt lat="42.44544667" lon="1.528665">
        <ele>1822.0</ele>
        <time>2019-08-04T10:23:54.332Z</time>
      </trkpt>
      <trkpt lat="42.44542833" lon="1.52871333">
        <ele>1822.0</ele>
        <time>2019-08-04T10:23:55.309Z</time>
      </trkpt>
      <trkpt lat="42.44542833" lon="1.52871333">
        <ele>1822.0</ele>
        <time>2019-08-04T10:23:56.331Z</time>
      </trkpt>
      <trkpt lat="42.44539167" lon="1.52881">
        <ele>1823.0</ele>
        <time>2019-08-04T10:23:57.328Z</time>
      </trkpt>
      <trkpt lat="42.44539167" lon="1.52881">
        <ele>1823.0</ele>
        <time>2019-08-04T10:23:58.325Z</time>
      </trkpt>
      <trkpt lat="42.44534833" lon="1.52890667">
        <ele>1823.0</ele>
        <time>2019-08-04T10:23:59.309Z</time>
      </trkpt>
      <trkpt lat="42.44534833" lon="1.52890667">
        <ele>1823.0</ele>
        <time>2019-08-04T10:24:00.330Z</time>
      </trkpt>
      <trkpt lat="42.445305" lon="1.52900333">
        <ele>1823.0</ele>
        <time>2019-08-04T10:24:01.333Z</time>
      </trkpt>
      <trkpt lat="42.445305" lon="1.52900333">
        <ele>1823.0</ele>
        <time>2019-08-04T10:24:02.329Z</time>
      </trkpt>
      <trkpt lat="42.445265" lon="1.529095">
        <ele>1824.0</ele>
        <time>2019-08-04T10:24:03.335Z</time>
      </trkpt>
      <trkpt lat="42.445265" lon="1.529095">
        <ele>1824.0</ele>
        <time>2019-08-04T10:24:04.328Z</time>
      </trkpt>
      <trkpt lat="42.44522333" lon="1.52918667">
        <ele>1824.0</ele>
        <time>2019-08-04T10:24:05.323Z</time>
      </trkpt>
      <trkpt lat="42.4452" lon="1.52922333">
        <ele>1824.0</ele>
        <time>2019-08-04T10:24:06.304Z</time>
      </trkpt>
      <trkpt lat="42.4452" lon="1.52922333">
        <ele>1824.0</ele>
        <time>2019-08-04T10:24:07.327Z</time>
      </trkpt>
      <trkpt lat="42.44515667" lon="1.52930333">
        <ele>1825.0</ele>
        <time>2019-08-04T10:24:08.332Z</time>
      </trkpt>
      <trkpt lat="42.44513833" lon="1.52935167">
        <ele>1825.0</ele>
        <time>2019-08-04T10:24:09.332Z</time>
      </trkpt>
      <trkpt lat="42.44513833" lon="1.52935167">
        <ele>1825.0</ele>
        <time>2019-08-04T10:24:10.301Z</time>
      </trkpt>
      <trkpt lat="42.44510167" lon="1.52944333">
        <ele>1825.0</ele>
        <time>2019-08-04T10:24:11.331Z</time>
      </trkpt>
      <trkpt lat="42.44510167" lon="1.52944333">
        <ele>1825.0</ele>
        <time>2019-08-04T10:24:12.326Z</time>
      </trkpt>
      <trkpt lat="42.44506833" lon="1.52953333">
        <ele>1826.0</ele>
        <time>2019-08-04T10:24:13.309Z</time>
      </trkpt>
      <trkpt lat="42.44506833" lon="1.52953333">
        <ele>1826.0</ele>
        <time>2019-08-04T10:24:14.329Z</time>
      </trkpt>
      <trkpt lat="42.44503" lon="1.52962167">
        <ele>1826.0</ele>
        <time>2019-08-04T10:24:15.303Z</time>
      </trkpt>
      <trkpt lat="42.44503" lon="1.52962167">
        <ele>1826.0</ele>
        <time>2019-08-04T10:24:16.328Z</time>
      </trkpt>
      <trkpt lat="42.44499" lon="1.52970667">
        <ele>1827.0</ele>
        <time>2019-08-04T10:24:17.331Z</time>
      </trkpt>
      <trkpt lat="42.44499" lon="1.52970667">
        <ele>1827.0</ele>
        <time>2019-08-04T10:24:18.331Z</time>
      </trkpt>
      <trkpt lat="42.44494333" lon="1.52978333">
        <ele>1827.0</ele>
        <time>2019-08-04T10:24:19.333Z</time>
      </trkpt>
      <trkpt lat="42.44494333" lon="1.52978333">
        <ele>1827.0</ele>
        <time>2019-08-04T10:24:20.329Z</time>
      </trkpt>
      <trkpt lat="42.44489333" lon="1.52986333">
        <ele>1827.0</ele>
        <time>2019-08-04T10:24:21.333Z</time>
      </trkpt>
      <trkpt lat="42.44489333" lon="1.52986333">
        <ele>1827.0</ele>
        <time>2019-08-04T10:24:22.326Z</time>
      </trkpt>
      <trkpt lat="42.44485333" lon="1.52995333">
        <ele>1828.0</ele>
        <time>2019-08-04T10:24:23.309Z</time>
      </trkpt>
      <trkpt lat="42.44485333" lon="1.52995333">
        <ele>1828.0</ele>
        <time>2019-08-04T10:24:24.329Z</time>
      </trkpt>
      <trkpt lat="42.44482667" lon="1.53004833">
        <ele>1828.0</ele>
        <time>2019-08-04T10:24:25.317Z</time>
      </trkpt>
      <trkpt lat="42.44482667" lon="1.53004833">
        <ele>1828.0</ele>
        <time>2019-08-04T10:24:26.297Z</time>
      </trkpt>
      <trkpt lat="42.444815" lon="1.53013">
        <ele>1828.0</ele>
        <time>2019-08-04T10:24:27.329Z</time>
      </trkpt>
      <trkpt lat="42.444815" lon="1.53013">
        <ele>1828.0</ele>
        <time>2019-08-04T10:24:28.328Z</time>
      </trkpt>
      <trkpt lat="42.44482167" lon="1.53018667">
        <ele>1828.0</ele>
        <time>2019-08-04T10:24:29.303Z</time>
      </trkpt>
      <trkpt lat="42.44482167" lon="1.53018667">
        <ele>1828.0</ele>
        <time>2019-08-04T10:24:30.329Z</time>
      </trkpt>
      <trkpt lat="42.44485333" lon="1.530205">
        <ele>1828.0</ele>
        <time>2019-08-04T10:24:31.333Z</time>
      </trkpt>
      <trkpt lat="42.44485333" lon="1.530205">
        <ele>1828.0</ele>
        <time>2019-08-04T10:24:32.329Z</time>
      </trkpt>
      <trkpt lat="42.444835" lon="1.53029333">
        <ele>1829.0</ele>
        <time>2019-08-04T10:24:33.299Z</time>
      </trkpt>
      <trkpt lat="42.44482333" lon="1.530315">
        <ele>1829.0</ele>
        <time>2019-08-04T10:24:34.322Z</time>
      </trkpt>
      <trkpt lat="42.44482333" lon="1.530315">
        <ele>1829.0</ele>
        <time>2019-08-04T10:24:35.320Z</time>
      </trkpt>
      <trkpt lat="42.44481667" lon="1.53037833">
        <ele>1830.0</ele>
        <time>2019-08-04T10:24:36.320Z</time>
      </trkpt>
      <trkpt lat="42.44481667" lon="1.53037833">
        <ele>1830.0</ele>
        <time>2019-08-04T10:24:37.320Z</time>
      </trkpt>
      <trkpt lat="42.44482" lon="1.53047333">
        <ele>1830.0</ele>
        <time>2019-08-04T10:24:38.324Z</time>
      </trkpt>
      <trkpt lat="42.44482" lon="1.53047333">
        <ele>1830.0</ele>
        <time>2019-08-04T10:24:39.320Z</time>
      </trkpt>
      <trkpt lat="42.44482833" lon="1.53059">
        <ele>1829.0</ele>
        <time>2019-08-04T10:24:40.312Z</time>
      </trkpt>
      <trkpt lat="42.44482833" lon="1.53059">
        <ele>1829.0</ele>
        <time>2019-08-04T10:24:41.333Z</time>
      </trkpt>
      <trkpt lat="42.44486333" lon="1.53073167">
        <ele>1829.0</ele>
        <time>2019-08-04T10:24:42.325Z</time>
      </trkpt>
      <trkpt lat="42.44489167" lon="1.53080333">
        <ele>1829.0</ele>
        <time>2019-08-04T10:24:43.324Z</time>
      </trkpt>
      <trkpt lat="42.44489167" lon="1.53080333">
        <ele>1829.0</ele>
        <time>2019-08-04T10:24:44.320Z</time>
      </trkpt>
      <trkpt lat="42.44497" lon="1.53094333">
        <ele>1829.0</ele>
        <time>2019-08-04T10:24:45.323Z</time>
      </trkpt>
      <trkpt lat="42.44501333" lon="1.53100833">
        <ele>1828.0</ele>
        <time>2019-08-04T10:24:46.320Z</time>
      </trkpt>
      <trkpt lat="42.44501333" lon="1.53100833">
        <ele>1828.0</ele>
        <time>2019-08-04T10:24:47.317Z</time>
      </trkpt>
      <trkpt lat="42.445115" lon="1.53113333">
        <ele>1828.0</ele>
        <time>2019-08-04T10:24:48.300Z</time>
      </trkpt>
      <trkpt lat="42.445115" lon="1.53113333">
        <ele>1828.0</ele>
        <time>2019-08-04T10:24:49.320Z</time>
      </trkpt>
      <trkpt lat="42.445225" lon="1.53127833">
        <ele>1827.0</ele>
        <time>2019-08-04T10:24:50.310Z</time>
      </trkpt>
      <trkpt lat="42.445225" lon="1.53127833">
        <ele>1827.0</ele>
        <time>2019-08-04T10:24:51.330Z</time>
      </trkpt>
      <trkpt lat="42.44533" lon="1.53143">
        <ele>1826.0</ele>
        <time>2019-08-04T10:24:52.325Z</time>
      </trkpt>
      <trkpt lat="42.44533" lon="1.53143">
        <ele>1826.0</ele>
        <time>2019-08-04T10:24:53.320Z</time>
      </trkpt>
      <trkpt lat="42.44539833" lon="1.531605">
        <ele>1826.0</ele>
        <time>2019-08-04T10:24:54.324Z</time>
      </trkpt>
      <trkpt lat="42.44539833" lon="1.531605">
        <ele>1826.0</ele>
        <time>2019-08-04T10:24:55.331Z</time>
      </trkpt>
      <trkpt lat="42.44538833" lon="1.53180167">
        <ele>1825.0</ele>
        <time>2019-08-04T10:24:56.308Z</time>
      </trkpt>
      <trkpt lat="42.44538833" lon="1.53180167">
        <ele>1825.0</ele>
        <time>2019-08-04T10:24:57.330Z</time>
      </trkpt>
      <trkpt lat="42.445295" lon="1.53197333">
        <ele>1824.0</ele>
        <time>2019-08-04T10:24:58.325Z</time>
      </trkpt>
      <trkpt lat="42.445295" lon="1.53197333">
        <ele>1824.0</ele>
        <time>2019-08-04T10:24:59.320Z</time>
      </trkpt>
      <trkpt lat="42.44515333" lon="1.53211333">
        <ele>1823.0</ele>
        <time>2019-08-04T10:25:00.320Z</time>
      </trkpt>
      <trkpt lat="42.44515333" lon="1.53211333">
        <ele>1823.0</ele>
        <time>2019-08-04T10:25:01.320Z</time>
      </trkpt>
      <trkpt lat="42.44500833" lon="1.53226833">
        <ele>1821.0</ele>
        <time>2019-08-04T10:25:02.323Z</time>
      </trkpt>
      <trkpt lat="42.44500833" lon="1.53226833">
        <ele>1821.0</ele>
        <time>2019-08-04T10:25:03.320Z</time>
      </trkpt>
      <trkpt lat="42.44484833" lon="1.53244333">
        <ele>1819.0</ele>
        <time>2019-08-04T10:25:04.324Z</time>
      </trkpt>
      <trkpt lat="42.44476333" lon="1.53253667">
        <ele>1819.0</ele>
        <time>2019-08-04T10:25:05.324Z</time>
      </trkpt>
      <trkpt lat="42.44468" lon="1.532635">
        <ele>1818.0</ele>
        <time>2019-08-04T10:25:06.324Z</time>
      </trkpt>
      <trkpt lat="42.44468" lon="1.532635">
        <ele>1818.0</ele>
        <time>2019-08-04T10:25:07.320Z</time>
      </trkpt>
      <trkpt lat="42.44452333" lon="1.53286667">
        <ele>1817.0</ele>
        <time>2019-08-04T10:25:08.324Z</time>
      </trkpt>
      <trkpt lat="42.44452333" lon="1.53286667">
        <ele>1817.0</ele>
        <time>2019-08-04T10:25:09.315Z</time>
      </trkpt>
      <trkpt lat="42.44436667" lon="1.53311333">
        <ele>1815.0</ele>
        <time>2019-08-04T10:25:10.316Z</time>
      </trkpt>
      <trkpt lat="42.44436667" lon="1.53311333">
        <ele>1815.0</ele>
        <time>2019-08-04T10:25:11.335Z</time>
      </trkpt>
      <trkpt lat="42.44420333" lon="1.53336833">
        <ele>1813.0</ele>
        <time>2019-08-04T10:25:12.321Z</time>
      </trkpt>
      <trkpt lat="42.44420333" lon="1.53336833">
        <ele>1813.0</ele>
        <time>2019-08-04T10:25:13.318Z</time>
      </trkpt>
      <trkpt lat="42.44403833" lon="1.53363333">
        <ele>1810.0</ele>
        <time>2019-08-04T10:25:14.301Z</time>
      </trkpt>
      <trkpt lat="42.44403833" lon="1.53363333">
        <ele>1810.0</ele>
        <time>2019-08-04T10:25:15.322Z</time>
      </trkpt>
      <trkpt lat="42.443885" lon="1.53391833">
        <ele>1809.0</ele>
        <time>2019-08-04T10:25:16.323Z</time>
      </trkpt>
      <trkpt lat="42.443885" lon="1.53391833">
        <ele>1809.0</ele>
        <time>2019-08-04T10:25:17.320Z</time>
      </trkpt>
      <trkpt lat="42.44376833" lon="1.53424">
        <ele>1807.0</ele>
        <time>2019-08-04T10:25:18.303Z</time>
      </trkpt>
      <trkpt lat="42.44376833" lon="1.53424">
        <ele>1807.0</ele>
        <time>2019-08-04T10:25:19.323Z</time>
      </trkpt>
      <trkpt lat="42.44366667" lon="1.534545">
        <ele>1805.0</ele>
        <time>2019-08-04T10:25:20.321Z</time>
      </trkpt>
      <trkpt lat="42.44366667" lon="1.534545">
        <ele>1805.0</ele>
        <time>2019-08-04T10:25:21.296Z</time>
      </trkpt>
      <trkpt lat="42.443585" lon="1.534815">
        <ele>1803.0</ele>
        <time>2019-08-04T10:25:22.320Z</time>
      </trkpt>
      <trkpt lat="42.443585" lon="1.534815">
        <ele>1803.0</ele>
        <time>2019-08-04T10:25:23.318Z</time>
      </trkpt>
      <trkpt lat="42.44359167" lon="1.53505">
        <ele>1801.0</ele>
        <time>2019-08-04T10:25:24.300Z</time>
      </trkpt>
      <trkpt lat="42.44359167" lon="1.53505">
        <ele>1801.0</ele>
        <time>2019-08-04T10:25:25.332Z</time>
      </trkpt>
      <trkpt lat="42.44374333" lon="1.53517167">
        <ele>1799.0</ele>
        <time>2019-08-04T10:25:26.323Z</time>
      </trkpt>
      <trkpt lat="42.44374333" lon="1.53517167">
        <ele>1799.0</ele>
        <time>2019-08-04T10:25:27.317Z</time>
      </trkpt>
      <trkpt lat="42.44392333" lon="1.53522667">
        <ele>1798.0</ele>
        <time>2019-08-04T10:25:28.301Z</time>
      </trkpt>
      <trkpt lat="42.44392333" lon="1.53522667">
        <ele>1798.0</ele>
        <time>2019-08-04T10:25:29.322Z</time>
      </trkpt>
      <trkpt lat="42.44412" lon="1.53523167">
        <ele>1796.0</ele>
        <time>2019-08-04T10:25:30.331Z</time>
      </trkpt>
      <trkpt lat="42.44412" lon="1.53523167">
        <ele>1796.0</ele>
        <time>2019-08-04T10:25:31.312Z</time>
      </trkpt>
      <trkpt lat="42.44432333" lon="1.53515667">
        <ele>1795.0</ele>
        <time>2019-08-04T10:25:32.320Z</time>
      </trkpt>
      <trkpt lat="42.44442833" lon="1.5351">
        <ele>1794.0</ele>
        <time>2019-08-04T10:25:33.301Z</time>
      </trkpt>
      <trkpt lat="42.44442833" lon="1.5351">
        <ele>1794.0</ele>
        <time>2019-08-04T10:25:34.324Z</time>
      </trkpt>
      <trkpt lat="42.44464167" lon="1.53497">
        <ele>1792.0</ele>
        <time>2019-08-04T10:25:35.325Z</time>
      </trkpt>
      <trkpt lat="42.44475167" lon="1.53490667">
        <ele>1792.0</ele>
        <time>2019-08-04T10:25:36.325Z</time>
      </trkpt>
      <trkpt lat="42.44475167" lon="1.53490667">
        <ele>1792.0</ele>
        <time>2019-08-04T10:25:37.331Z</time>
      </trkpt>
      <trkpt lat="42.44499167" lon="1.53484833">
        <ele>1790.0</ele>
        <time>2019-08-04T10:25:38.324Z</time>
      </trkpt>
      <trkpt lat="42.44499167" lon="1.53484833">
        <ele>1790.0</ele>
        <time>2019-08-04T10:25:39.315Z</time>
      </trkpt>
      <trkpt lat="42.44523" lon="1.53487333">
        <ele>1789.0</ele>
        <time>2019-08-04T10:25:40.309Z</time>
      </trkpt>
      <trkpt lat="42.44523" lon="1.53487333">
        <ele>1789.0</ele>
        <time>2019-08-04T10:25:41.333Z</time>
      </trkpt>
      <trkpt lat="42.44547" lon="1.53494">
        <ele>1788.0</ele>
        <time>2019-08-04T10:25:42.321Z</time>
      </trkpt>
      <trkpt lat="42.44547" lon="1.53494">
        <ele>1788.0</ele>
        <time>2019-08-04T10:25:43.319Z</time>
      </trkpt>
      <trkpt lat="42.44568833" lon="1.53497333">
        <ele>1786.0</ele>
        <time>2019-08-04T10:25:44.326Z</time>
      </trkpt>
      <trkpt lat="42.44568833" lon="1.53497333">
        <ele>1786.0</ele>
        <time>2019-08-04T10:25:45.321Z</time>
      </trkpt>
      <trkpt lat="42.44591" lon="1.53488833">
        <ele>1785.0</ele>
        <time>2019-08-04T10:25:46.325Z</time>
      </trkpt>
      <trkpt lat="42.44591" lon="1.53488833">
        <ele>1785.0</ele>
        <time>2019-08-04T10:25:47.320Z</time>
      </trkpt>
      <trkpt lat="42.44613667" lon="1.53474333">
        <ele>1784.0</ele>
        <time>2019-08-04T10:25:48.313Z</time>
      </trkpt>
      <trkpt lat="42.44613667" lon="1.53474333">
        <ele>1784.0</ele>
        <time>2019-08-04T10:25:49.308Z</time>
      </trkpt>
      <trkpt lat="42.44636333" lon="1.53457167">
        <ele>1783.0</ele>
        <time>2019-08-04T10:25:50.307Z</time>
      </trkpt>
      <trkpt lat="42.44648" lon="1.53449">
        <ele>1782.0</ele>
        <time>2019-08-04T10:25:51.333Z</time>
      </trkpt>
      <trkpt lat="42.44660833" lon="1.53442167">
        <ele>1781.0</ele>
        <time>2019-08-04T10:25:52.322Z</time>
      </trkpt>
      <trkpt lat="42.44660833" lon="1.53442167">
        <ele>1781.0</ele>
        <time>2019-08-04T10:25:53.321Z</time>
      </trkpt>
      <trkpt lat="42.446875" lon="1.53434">
        <ele>1780.0</ele>
        <time>2019-08-04T10:25:54.321Z</time>
      </trkpt>
      <trkpt lat="42.446875" lon="1.53434">
        <ele>1780.0</ele>
        <time>2019-08-04T10:25:55.322Z</time>
      </trkpt>
      <trkpt lat="42.44711667" lon="1.53433167">
        <ele>1778.0</ele>
        <time>2019-08-04T10:25:56.324Z</time>
      </trkpt>
      <trkpt lat="42.44711667" lon="1.53433167">
        <ele>1778.0</ele>
        <time>2019-08-04T10:25:57.321Z</time>
      </trkpt>
      <trkpt lat="42.44727" lon="1.53444833">
        <ele>1776.0</ele>
        <time>2019-08-04T10:25:58.324Z</time>
      </trkpt>
      <trkpt lat="42.44727" lon="1.53444833">
        <ele>1776.0</ele>
        <time>2019-08-04T10:25:59.321Z</time>
      </trkpt>
      <trkpt lat="42.44734833" lon="1.53468333">
        <ele>1774.0</ele>
        <time>2019-08-04T10:26:00.300Z</time>
      </trkpt>
      <trkpt lat="42.44734833" lon="1.53468333">
        <ele>1774.0</ele>
        <time>2019-08-04T10:26:01.300Z</time>
      </trkpt>
      <trkpt lat="42.44741667" lon="1.53494333">
        <ele>1773.0</ele>
        <time>2019-08-04T10:26:02.323Z</time>
      </trkpt>
      <trkpt lat="42.44741667" lon="1.53494333">
        <ele>1773.0</ele>
        <time>2019-08-04T10:26:03.320Z</time>
      </trkpt>
      <trkpt lat="42.447525" lon="1.53513167">
        <ele>1771.0</ele>
        <time>2019-08-04T10:26:04.325Z</time>
      </trkpt>
      <trkpt lat="42.447525" lon="1.53513167">
        <ele>1771.0</ele>
        <time>2019-08-04T10:26:05.317Z</time>
      </trkpt>
      <trkpt lat="42.447725" lon="1.53516333">
        <ele>1769.0</ele>
        <time>2019-08-04T10:26:06.325Z</time>
      </trkpt>
      <trkpt lat="42.447725" lon="1.53516333">
        <ele>1769.0</ele>
        <time>2019-08-04T10:26:07.320Z</time>
      </trkpt>
      <trkpt lat="42.44789" lon="1.53502167">
        <ele>1769.0</ele>
        <time>2019-08-04T10:26:08.303Z</time>
      </trkpt>
      <trkpt lat="42.44789" lon="1.53502167">
        <ele>1769.0</ele>
        <time>2019-08-04T10:26:09.323Z</time>
      </trkpt>
      <trkpt lat="42.44803" lon="1.53487167">
        <ele>1769.0</ele>
        <time>2019-08-04T10:26:10.301Z</time>
      </trkpt>
      <trkpt lat="42.44803" lon="1.53487167">
        <ele>1769.0</ele>
        <time>2019-08-04T10:26:11.330Z</time>
      </trkpt>
      <trkpt lat="42.44815333" lon="1.534715">
        <ele>1770.0</ele>
        <time>2019-08-04T10:26:12.321Z</time>
      </trkpt>
      <trkpt lat="42.44815333" lon="1.534715">
        <ele>1770.0</ele>
        <time>2019-08-04T10:26:13.320Z</time>
      </trkpt>
      <trkpt lat="42.44824667" lon="1.53454667">
        <ele>1770.0</ele>
        <time>2019-08-04T10:26:14.323Z</time>
      </trkpt>
      <trkpt lat="42.44824667" lon="1.53454667">
        <ele>1770.0</ele>
        <time>2019-08-04T10:26:15.315Z</time>
      </trkpt>
      <trkpt lat="42.448315" lon="1.53437667">
        <ele>1770.0</ele>
        <time>2019-08-04T10:26:16.335Z</time>
      </trkpt>
      <trkpt lat="42.448315" lon="1.53437667">
        <ele>1770.0</ele>
        <time>2019-08-04T10:26:17.320Z</time>
      </trkpt>
      <trkpt lat="42.44837" lon="1.534205">
        <ele>1770.0</ele>
        <time>2019-08-04T10:26:18.325Z</time>
      </trkpt>
      <trkpt lat="42.44837" lon="1.534205">
        <ele>1770.0</ele>
        <time>2019-08-04T10:26:19.317Z</time>
      </trkpt>
      <trkpt lat="42.44840833" lon="1.53402833">
        <ele>1770.0</ele>
        <time>2019-08-04T10:26:20.310Z</time>
      </trkpt>
      <trkpt lat="42.44840833" lon="1.53402833">
        <ele>1770.0</ele>
        <time>2019-08-04T10:26:21.333Z</time>
      </trkpt>
      <trkpt lat="42.44842833" lon="1.533855">
        <ele>1770.0</ele>
        <time>2019-08-04T10:26:22.323Z</time>
      </trkpt>
      <trkpt lat="42.44842833" lon="1.533855">
        <ele>1770.0</ele>
        <time>2019-08-04T10:26:23.320Z</time>
      </trkpt>
      <trkpt lat="42.44842833" lon="1.53368333">
        <ele>1771.0</ele>
        <time>2019-08-04T10:26:24.325Z</time>
      </trkpt>
      <trkpt lat="42.44842833" lon="1.53368333">
        <ele>1771.0</ele>
        <time>2019-08-04T10:26:25.325Z</time>
      </trkpt>
      <trkpt lat="42.448415" lon="1.53351833">
        <ele>1771.0</ele>
        <time>2019-08-04T10:26:26.323Z</time>
      </trkpt>
      <trkpt lat="42.448415" lon="1.53351833">
        <ele>1771.0</ele>
        <time>2019-08-04T10:26:27.320Z</time>
      </trkpt>
      <trkpt lat="42.44838667" lon="1.53336667">
        <ele>1772.0</ele>
        <time>2019-08-04T10:26:28.326Z</time>
      </trkpt>
      <trkpt lat="42.44838667" lon="1.53336667">
        <ele>1772.0</ele>
        <time>2019-08-04T10:26:29.335Z</time>
      </trkpt>
      <trkpt lat="42.44836167" lon="1.53322167">
        <ele>1772.0</ele>
        <time>2019-08-04T10:26:30.309Z</time>
      </trkpt>
      <trkpt lat="42.44836167" lon="1.53322167">
        <ele>1772.0</ele>
        <time>2019-08-04T10:26:31.307Z</time>
      </trkpt>
      <trkpt lat="42.44835" lon="1.533085">
        <ele>1773.0</ele>
        <time>2019-08-04T10:26:32.328Z</time>
      </trkpt>
      <trkpt lat="42.44835" lon="1.533085">
        <ele>1773.0</ele>
        <time>2019-08-04T10:26:33.318Z</time>
      </trkpt>
      <trkpt lat="42.44837833" lon="1.53295667">
        <ele>1774.0</ele>
        <time>2019-08-04T10:26:34.304Z</time>
      </trkpt>
      <trkpt lat="42.44837833" lon="1.53295667">
        <ele>1774.0</ele>
        <time>2019-08-04T10:26:35.324Z</time>
      </trkpt>
      <trkpt lat="42.44843" lon="1.53284667">
        <ele>1775.0</ele>
        <time>2019-08-04T10:26:36.326Z</time>
      </trkpt>
      <trkpt lat="42.44843" lon="1.53284667">
        <ele>1775.0</ele>
        <time>2019-08-04T10:26:37.321Z</time>
      </trkpt>
      <trkpt lat="42.44849" lon="1.53275">
        <ele>1776.0</ele>
        <time>2019-08-04T10:26:38.323Z</time>
      </trkpt>
      <trkpt lat="42.44849" lon="1.53275">
        <ele>1776.0</ele>
        <time>2019-08-04T10:26:39.323Z</time>
      </trkpt>
      <trkpt lat="42.448545" lon="1.53265833">
        <ele>1777.0</ele>
        <time>2019-08-04T10:26:40.302Z</time>
      </trkpt>
      <trkpt lat="42.448545" lon="1.53265833">
        <ele>1777.0</ele>
        <time>2019-08-04T10:26:41.300Z</time>
      </trkpt>
      <trkpt lat="42.448595" lon="1.532565">
        <ele>1777.0</ele>
        <time>2019-08-04T10:26:42.325Z</time>
      </trkpt>
      <trkpt lat="42.448595" lon="1.532565">
        <ele>1777.0</ele>
        <time>2019-08-04T10:26:43.321Z</time>
      </trkpt>
      <trkpt lat="42.44865" lon="1.53247667">
        <ele>1778.0</ele>
        <time>2019-08-04T10:26:44.319Z</time>
      </trkpt>
      <trkpt lat="42.44868167" lon="1.53243833">
        <ele>1779.0</ele>
        <time>2019-08-04T10:26:45.326Z</time>
      </trkpt>
      <trkpt lat="42.44868167" lon="1.53243833">
        <ele>1779.0</ele>
        <time>2019-08-04T10:26:46.322Z</time>
      </trkpt>
      <trkpt lat="42.448755" lon="1.53237">
        <ele>1780.0</ele>
        <time>2019-08-04T10:26:47.303Z</time>
      </trkpt>
      <trkpt lat="42.448795" lon="1.53234167">
        <ele>1781.0</ele>
        <time>2019-08-04T10:26:48.330Z</time>
      </trkpt>
      <trkpt lat="42.448795" lon="1.53234167">
        <ele>1781.0</ele>
        <time>2019-08-04T10:26:49.318Z</time>
      </trkpt>
      <trkpt lat="42.44888167" lon="1.532295">
        <ele>1781.0</ele>
        <time>2019-08-04T10:26:50.309Z</time>
      </trkpt>
      <trkpt lat="42.44888167" lon="1.532295">
        <ele>1781.0</ele>
        <time>2019-08-04T10:26:51.332Z</time>
      </trkpt>
      <trkpt lat="42.44896833" lon="1.53224667">
        <ele>1782.0</ele>
        <time>2019-08-04T10:26:52.326Z</time>
      </trkpt>
      <trkpt lat="42.44896833" lon="1.53224667">
        <ele>1782.0</ele>
        <time>2019-08-04T10:26:53.321Z</time>
      </trkpt>
      <trkpt lat="42.44906333" lon="1.53221667">
        <ele>1782.0</ele>
        <time>2019-08-04T10:26:54.320Z</time>
      </trkpt>
      <trkpt lat="42.44906333" lon="1.53221667">
        <ele>1782.0</ele>
        <time>2019-08-04T10:26:55.330Z</time>
      </trkpt>
      <trkpt lat="42.449155" lon="1.53218667">
        <ele>1783.0</ele>
        <time>2019-08-04T10:26:56.323Z</time>
      </trkpt>
      <trkpt lat="42.44920333" lon="1.53217167">
        <ele>1783.0</ele>
        <time>2019-08-04T10:26:57.323Z</time>
      </trkpt>
      <trkpt lat="42.449245" lon="1.53215167">
        <ele>1783.0</ele>
        <time>2019-08-04T10:26:58.327Z</time>
      </trkpt>
      <trkpt lat="42.449245" lon="1.53215167">
        <ele>1783.0</ele>
        <time>2019-08-04T10:26:59.321Z</time>
      </trkpt>
      <trkpt lat="42.44933167" lon="1.532115">
        <ele>1784.0</ele>
        <time>2019-08-04T10:27:00.307Z</time>
      </trkpt>
      <trkpt lat="42.44933167" lon="1.532115">
        <ele>1784.0</ele>
        <time>2019-08-04T10:27:01.306Z</time>
      </trkpt>
      <trkpt lat="42.449415" lon="1.532065">
        <ele>1784.0</ele>
        <time>2019-08-04T10:27:02.325Z</time>
      </trkpt>
      <trkpt lat="42.449415" lon="1.532065">
        <ele>1784.0</ele>
        <time>2019-08-04T10:27:03.314Z</time>
      </trkpt>
      <trkpt lat="42.449485" lon="1.53198667">
        <ele>1784.0</ele>
        <time>2019-08-04T10:27:04.334Z</time>
      </trkpt>
      <trkpt lat="42.449485" lon="1.53198667">
        <ele>1784.0</ele>
        <time>2019-08-04T10:27:05.321Z</time>
      </trkpt>
      <trkpt lat="42.44954833" lon="1.531885">
        <ele>1784.0</ele>
        <time>2019-08-04T10:27:06.325Z</time>
      </trkpt>
      <trkpt lat="42.44954833" lon="1.531885">
        <ele>1784.0</ele>
        <time>2019-08-04T10:27:07.318Z</time>
      </trkpt>
      <trkpt lat="42.44958167" lon="1.53175">
        <ele>1784.0</ele>
        <time>2019-08-04T10:27:08.302Z</time>
      </trkpt>
      <trkpt lat="42.44958167" lon="1.53175">
        <ele>1784.0</ele>
        <time>2019-08-04T10:27:09.323Z</time>
      </trkpt>
      <trkpt lat="42.44958333" lon="1.5316">
        <ele>1785.0</ele>
        <time>2019-08-04T10:27:10.296Z</time>
      </trkpt>
      <trkpt lat="42.44958333" lon="1.5316">
        <ele>1785.0</ele>
        <time>2019-08-04T10:27:11.326Z</time>
      </trkpt>
      <trkpt lat="42.44957333" lon="1.53143667">
        <ele>1785.0</ele>
        <time>2019-08-04T10:27:12.325Z</time>
      </trkpt>
      <trkpt lat="42.44957333" lon="1.53143667">
        <ele>1785.0</ele>
        <time>2019-08-04T10:27:13.322Z</time>
      </trkpt>
      <trkpt lat="42.44958833" lon="1.53124167">
        <ele>1785.0</ele>
        <time>2019-08-04T10:27:14.323Z</time>
      </trkpt>
      <trkpt lat="42.44958833" lon="1.53124167">
        <ele>1785.0</ele>
        <time>2019-08-04T10:27:15.320Z</time>
      </trkpt>
      <trkpt lat="42.44965667" lon="1.53105">
        <ele>1784.0</ele>
        <time>2019-08-04T10:27:16.325Z</time>
      </trkpt>
      <trkpt lat="42.449695" lon="1.53094667">
        <ele>1781.0</ele>
        <time>2019-08-04T10:27:17.322Z</time>
      </trkpt>
      <trkpt lat="42.449695" lon="1.53094667">
        <ele>1781.0</ele>
        <time>2019-08-04T10:27:18.319Z</time>
      </trkpt>
      <trkpt lat="42.44976333" lon="1.53073333">
        <ele>1780.0</ele>
        <time>2019-08-04T10:27:19.323Z</time>
      </trkpt>
      <trkpt lat="42.44976333" lon="1.53073333">
        <ele>1780.0</ele>
        <time>2019-08-04T10:27:20.334Z</time>
      </trkpt>
      <trkpt lat="42.44989" lon="1.53057">
        <ele>1779.0</ele>
        <time>2019-08-04T10:27:21.328Z</time>
      </trkpt>
      <trkpt lat="42.449985" lon="1.53053833">
        <ele>1778.0</ele>
        <time>2019-08-04T10:27:22.325Z</time>
      </trkpt>
      <trkpt lat="42.449985" lon="1.53053833">
        <ele>1778.0</ele>
        <time>2019-08-04T10:27:23.320Z</time>
      </trkpt>
      <trkpt lat="42.45018833" lon="1.53055667">
        <ele>1777.0</ele>
        <time>2019-08-04T10:27:24.324Z</time>
      </trkpt>
      <trkpt lat="42.45018833" lon="1.53055667">
        <ele>1777.0</ele>
        <time>2019-08-04T10:27:25.318Z</time>
      </trkpt>
      <trkpt lat="42.45037167" lon="1.5307">
        <ele>1775.0</ele>
        <time>2019-08-04T10:27:26.302Z</time>
      </trkpt>
      <trkpt lat="42.45037167" lon="1.5307">
        <ele>1775.0</ele>
        <time>2019-08-04T10:27:27.323Z</time>
      </trkpt>
      <trkpt lat="42.45052833" lon="1.53091167">
        <ele>1774.0</ele>
        <time>2019-08-04T10:27:28.309Z</time>
      </trkpt>
      <trkpt lat="42.45052833" lon="1.53091167">
        <ele>1774.0</ele>
        <time>2019-08-04T10:27:29.322Z</time>
      </trkpt>
      <trkpt lat="42.450665" lon="1.53117167">
        <ele>1772.0</ele>
        <time>2019-08-04T10:27:30.327Z</time>
      </trkpt>
      <trkpt lat="42.450665" lon="1.53117167">
        <ele>1772.0</ele>
        <time>2019-08-04T10:27:31.334Z</time>
      </trkpt>
      <trkpt lat="42.450785" lon="1.531465">
        <ele>1771.0</ele>
        <time>2019-08-04T10:27:32.303Z</time>
      </trkpt>
      <trkpt lat="42.450785" lon="1.531465">
        <ele>1771.0</ele>
        <time>2019-08-04T10:27:33.324Z</time>
      </trkpt>
      <trkpt lat="42.45091167" lon="1.53174667">
        <ele>1769.0</ele>
        <time>2019-08-04T10:27:34.327Z</time>
      </trkpt>
      <trkpt lat="42.45091167" lon="1.53174667">
        <ele>1769.0</ele>
        <time>2019-08-04T10:27:35.312Z</time>
      </trkpt>
      <trkpt lat="42.45107833" lon="1.531995">
        <ele>1766.0</ele>
        <time>2019-08-04T10:27:36.333Z</time>
      </trkpt>
      <trkpt lat="42.45107833" lon="1.531995">
        <ele>1766.0</ele>
        <time>2019-08-04T10:27:37.333Z</time>
      </trkpt>
      <trkpt lat="42.45125667" lon="1.53219833">
        <ele>1764.0</ele>
        <time>2019-08-04T10:27:38.323Z</time>
      </trkpt>
      <trkpt lat="42.45125667" lon="1.53219833">
        <ele>1764.0</ele>
        <time>2019-08-04T10:27:39.321Z</time>
      </trkpt>
      <trkpt lat="42.45146" lon="1.53231">
        <ele>1763.0</ele>
        <time>2019-08-04T10:27:40.302Z</time>
      </trkpt>
      <trkpt lat="42.45146" lon="1.53231">
        <ele>1763.0</ele>
        <time>2019-08-04T10:27:41.323Z</time>
      </trkpt>
      <trkpt lat="42.451695" lon="1.53232833">
        <ele>1761.0</ele>
        <time>2019-08-04T10:27:42.325Z</time>
      </trkpt>
      <trkpt lat="42.451695" lon="1.53232833">
        <ele>1761.0</ele>
        <time>2019-08-04T10:27:43.322Z</time>
      </trkpt>
      <trkpt lat="42.45190167" lon="1.532345">
        <ele>1759.0</ele>
        <time>2019-08-04T10:27:44.321Z</time>
      </trkpt>
      <trkpt lat="42.45190167" lon="1.532345">
        <ele>1759.0</ele>
        <time>2019-08-04T10:27:45.317Z</time>
      </trkpt>
      <trkpt lat="42.4521" lon="1.53239833">
        <ele>1757.0</ele>
        <time>2019-08-04T10:27:46.301Z</time>
      </trkpt>
      <trkpt lat="42.4521" lon="1.53239833">
        <ele>1757.0</ele>
        <time>2019-08-04T10:27:47.322Z</time>
      </trkpt>
      <trkpt lat="42.45230167" lon="1.532475">
        <ele>1756.0</ele>
        <time>2019-08-04T10:27:48.325Z</time>
      </trkpt>
      <trkpt lat="42.45230167" lon="1.532475">
        <ele>1756.0</ele>
        <time>2019-08-04T10:27:49.316Z</time>
      </trkpt>
      <trkpt lat="42.45250333" lon="1.53258667">
        <ele>1754.0</ele>
        <time>2019-08-04T10:27:50.310Z</time>
      </trkpt>
      <trkpt lat="42.45250333" lon="1.53258667">
        <ele>1754.0</ele>
        <time>2019-08-04T10:27:51.330Z</time>
      </trkpt>
      <trkpt lat="42.45271167" lon="1.53272167">
        <ele>1752.0</ele>
        <time>2019-08-04T10:27:52.325Z</time>
      </trkpt>
      <trkpt lat="42.45271167" lon="1.53272167">
        <ele>1752.0</ele>
        <time>2019-08-04T10:27:53.320Z</time>
      </trkpt>
      <trkpt lat="42.452925" lon="1.53288167">
        <ele>1750.0</ele>
        <time>2019-08-04T10:27:54.327Z</time>
      </trkpt>
      <trkpt lat="42.452925" lon="1.53288167">
        <ele>1750.0</ele>
        <time>2019-08-04T10:27:55.332Z</time>
      </trkpt>
      <trkpt lat="42.45316667" lon="1.532975">
        <ele>1748.0</ele>
        <time>2019-08-04T10:27:56.324Z</time>
      </trkpt>
      <trkpt lat="42.45329333" lon="1.53301333">
        <ele>1746.0</ele>
        <time>2019-08-04T10:27:57.325Z</time>
      </trkpt>
      <trkpt lat="42.453425" lon="1.53305">
        <ele>1745.0</ele>
        <time>2019-08-04T10:27:58.329Z</time>
      </trkpt>
      <trkpt lat="42.453425" lon="1.53305">
        <ele>1745.0</ele>
        <time>2019-08-04T10:27:59.322Z</time>
      </trkpt>
      <trkpt lat="42.45369167" lon="1.53313667">
        <ele>1743.0</ele>
        <time>2019-08-04T10:28:00.304Z</time>
      </trkpt>
      <trkpt lat="42.45369167" lon="1.53313667">
        <ele>1743.0</ele>
        <time>2019-08-04T10:28:01.324Z</time>
      </trkpt>
      <trkpt lat="42.45396167" lon="1.53324">
        <ele>1740.0</ele>
        <time>2019-08-04T10:28:02.323Z</time>
      </trkpt>
      <trkpt lat="42.45409667" lon="1.533305">
        <ele>1739.0</ele>
        <time>2019-08-04T10:28:03.324Z</time>
      </trkpt>
      <trkpt lat="42.45423167" lon="1.53338667">
        <ele>1738.0</ele>
        <time>2019-08-04T10:28:04.327Z</time>
      </trkpt>
      <trkpt lat="42.45423167" lon="1.53338667">
        <ele>1738.0</ele>
        <time>2019-08-04T10:28:05.322Z</time>
      </trkpt>
      <trkpt lat="42.454485" lon="1.53360833">
        <ele>1735.0</ele>
        <time>2019-08-04T10:28:06.325Z</time>
      </trkpt>
      <trkpt lat="42.454485" lon="1.53360833">
        <ele>1735.0</ele>
        <time>2019-08-04T10:28:07.316Z</time>
      </trkpt>
      <trkpt lat="42.45467" lon="1.533865">
        <ele>1732.0</ele>
        <time>2019-08-04T10:28:08.296Z</time>
      </trkpt>
      <trkpt lat="42.45467" lon="1.533865">
        <ele>1732.0</ele>
        <time>2019-08-04T10:28:09.320Z</time>
      </trkpt>
      <trkpt lat="42.45479833" lon="1.5341">
        <ele>1729.0</ele>
        <time>2019-08-04T10:28:10.310Z</time>
      </trkpt>
      <trkpt lat="42.45479833" lon="1.5341">
        <ele>1729.0</ele>
        <time>2019-08-04T10:28:11.330Z</time>
      </trkpt>
      <trkpt lat="42.454905" lon="1.534305">
        <ele>1729.0</ele>
        <time>2019-08-04T10:28:12.320Z</time>
      </trkpt>
      <trkpt lat="42.45495167" lon="1.53439167">
        <ele>1728.0</ele>
        <time>2019-08-04T10:28:13.317Z</time>
      </trkpt>
      <trkpt lat="42.454995" lon="1.53446667">
        <ele>1727.0</ele>
        <time>2019-08-04T10:28:14.302Z</time>
      </trkpt>
      <trkpt lat="42.454995" lon="1.53446667">
        <ele>1727.0</ele>
        <time>2019-08-04T10:28:15.323Z</time>
      </trkpt>
      <trkpt lat="42.45506667" lon="1.53458833">
        <ele>1726.0</ele>
        <time>2019-08-04T10:28:16.327Z</time>
      </trkpt>
      <trkpt lat="42.45506667" lon="1.53458833">
        <ele>1726.0</ele>
        <time>2019-08-04T10:28:17.322Z</time>
      </trkpt>
      <trkpt lat="42.45512333" lon="1.53466833">
        <ele>1724.0</ele>
        <time>2019-08-04T10:28:18.328Z</time>
      </trkpt>
      <trkpt lat="42.45512333" lon="1.53466833">
        <ele>1724.0</ele>
        <time>2019-08-04T10:28:19.322Z</time>
      </trkpt>
      <trkpt lat="42.45517" lon="1.53471833">
        <ele>1723.0</ele>
        <time>2019-08-04T10:28:20.311Z</time>
      </trkpt>
      <trkpt lat="42.45517" lon="1.53471833">
        <ele>1723.0</ele>
        <time>2019-08-04T10:28:21.331Z</time>
      </trkpt>
      <trkpt lat="42.45520333" lon="1.53475833">
        <ele>1722.0</ele>
        <time>2019-08-04T10:28:22.296Z</time>
      </trkpt>
      <trkpt lat="42.45521" lon="1.534775">
        <ele>1721.0</ele>
        <time>2019-08-04T10:28:23.324Z</time>
      </trkpt>
      <trkpt lat="42.45522667" lon="1.53478833">
        <ele>1721.0</ele>
        <time>2019-08-04T10:28:24.327Z</time>
      </trkpt>
      <trkpt lat="42.45522667" lon="1.53478833">
        <ele>1721.0</ele>
        <time>2019-08-04T10:28:25.330Z</time>
      </trkpt>
      <trkpt lat="42.45527833" lon="1.53479667">
        <ele>1720.0</ele>
        <time>2019-08-04T10:28:26.325Z</time>
      </trkpt>
      <trkpt lat="42.45527833" lon="1.53479667">
        <ele>1720.0</ele>
        <time>2019-08-04T10:28:27.322Z</time>
      </trkpt>
      <trkpt lat="42.455335" lon="1.53478333">
        <ele>1719.0</ele>
        <time>2019-08-04T10:28:28.301Z</time>
      </trkpt>
      <trkpt lat="42.455335" lon="1.53478333">
        <ele>1719.0</ele>
        <time>2019-08-04T10:28:29.317Z</time>
      </trkpt>
      <trkpt lat="42.45539" lon="1.53474333">
        <ele>1718.0</ele>
        <time>2019-08-04T10:28:30.325Z</time>
      </trkpt>
      <trkpt lat="42.45541667" lon="1.53472">
        <ele>1718.0</ele>
        <time>2019-08-04T10:28:31.332Z</time>
      </trkpt>
      <trkpt lat="42.45541667" lon="1.53472">
        <ele>1718.0</ele>
        <time>2019-08-04T10:28:32.301Z</time>
      </trkpt>
      <trkpt lat="42.45546" lon="1.53467">
        <ele>1717.0</ele>
        <time>2019-08-04T10:28:33.325Z</time>
      </trkpt>
      <trkpt lat="42.455475" lon="1.53465167">
        <ele>1717.0</ele>
        <time>2019-08-04T10:28:34.324Z</time>
      </trkpt>
      <trkpt lat="42.455475" lon="1.53465167">
        <ele>1717.0</ele>
        <time>2019-08-04T10:28:35.322Z</time>
      </trkpt>
      <trkpt lat="42.45549333" lon="1.534625">
        <ele>1716.0</ele>
        <time>2019-08-04T10:28:36.325Z</time>
      </trkpt>
      <trkpt lat="42.45549333" lon="1.534625">
        <ele>1716.0</ele>
        <time>2019-08-04T10:28:37.316Z</time>
      </trkpt>
      <trkpt lat="42.455505" lon="1.5346">
        <ele>1716.0</ele>
        <time>2019-08-04T10:28:38.305Z</time>
      </trkpt>
      <trkpt lat="42.455505" lon="1.5346">
        <ele>1716.0</ele>
        <time>2019-08-04T10:28:39.328Z</time>
      </trkpt>
      <trkpt lat="42.45550667" lon="1.53458833">
        <ele>1716.0</ele>
        <time>2019-08-04T10:28:40.304Z</time>
      </trkpt>
      <trkpt lat="42.45550667" lon="1.53458833">
        <ele>1716.0</ele>
        <time>2019-08-04T10:28:41.324Z</time>
      </trkpt>
      <trkpt lat="42.45551" lon="1.53458">
        <ele>1715.0</ele>
        <time>2019-08-04T10:28:42.331Z</time>
      </trkpt>
      <trkpt lat="42.45551" lon="1.53458">
        <ele>1715.0</ele>
        <time>2019-08-04T10:28:43.322Z</time>
      </trkpt>
      <trkpt lat="42.455515" lon="1.534575">
        <ele>1715.0</ele>
        <time>2019-08-04T10:28:44.322Z</time>
      </trkpt>
      <trkpt lat="42.455515" lon="1.534575">
        <ele>1715.0</ele>
        <time>2019-08-04T10:28:45.331Z</time>
      </trkpt>
      <trkpt lat="42.455515" lon="1.534575">
        <ele>1715.0</ele>
        <time>2019-08-04T10:28:46.333Z</time>
      </trkpt>
      <trkpt lat="42.455515" lon="1.534575">
        <ele>1715.0</ele>
        <time>2019-08-04T10:28:47.333Z</time>
      </trkpt>
      <trkpt lat="42.455515" lon="1.534575">
        <ele>1715.0</ele>
        <time>2019-08-04T10:28:48.314Z</time>
      </trkpt>
      <trkpt lat="42.455515" lon="1.534575">
        <ele>1715.0</ele>
        <time>2019-08-04T10:28:49.321Z</time>
      </trkpt>
      <trkpt lat="42.455515" lon="1.534575">
        <ele>1715.0</ele>
        <time>2019-08-04T10:28:50.304Z</time>
      </trkpt>
      <trkpt lat="42.45546333" lon="1.53466667">
        <ele>1716.0</ele>
        <time>2019-08-04T10:28:51.329Z</time>
      </trkpt>
      <trkpt lat="42.45546333" lon="1.53466667">
        <ele>1716.0</ele>
        <time>2019-08-04T10:28:52.326Z</time>
      </trkpt>
      <trkpt lat="42.45545667" lon="1.53469333">
        <ele>1716.0</ele>
        <time>2019-08-04T10:28:53.326Z</time>
      </trkpt>
      <trkpt lat="42.45545667" lon="1.53469333">
        <ele>1716.0</ele>
        <time>2019-08-04T10:28:54.324Z</time>
      </trkpt>
      <trkpt lat="42.45544833" lon="1.53473333">
        <ele>1716.0</ele>
        <time>2019-08-04T10:28:55.300Z</time>
      </trkpt>
      <trkpt lat="42.45544833" lon="1.53473333">
        <ele>1716.0</ele>
        <time>2019-08-04T10:28:56.328Z</time>
      </trkpt>
      <trkpt lat="42.45544" lon="1.53476167">
        <ele>1716.0</ele>
        <time>2019-08-04T10:28:57.424Z</time>
      </trkpt>
      <trkpt lat="42.45544" lon="1.53476167">
        <ele>1716.0</ele>
        <time>2019-08-04T10:28:58.327Z</time>
      </trkpt>
      <trkpt lat="42.45543167" lon="1.534785">
        <ele>1716.0</ele>
        <time>2019-08-04T10:28:59.334Z</time>
      </trkpt>
      <trkpt lat="42.45543167" lon="1.534785">
        <ele>1716.0</ele>
        <time>2019-08-04T10:29:00.304Z</time>
      </trkpt>
      <trkpt lat="42.45542" lon="1.53479667">
        <ele>1716.0</ele>
        <time>2019-08-04T10:29:01.316Z</time>
      </trkpt>
      <trkpt lat="42.45541667" lon="1.534805">
        <ele>1716.0</ele>
        <time>2019-08-04T10:29:02.324Z</time>
      </trkpt>
      <trkpt lat="42.45554667" lon="1.53459167">
        <ele>1715.0</ele>
        <time>2019-08-04T10:29:03.302Z</time>
      </trkpt>
      <trkpt lat="42.45554667" lon="1.53459167">
        <ele>1715.0</ele>
        <time>2019-08-04T10:29:04.309Z</time>
      </trkpt>
      <trkpt lat="42.455555" lon="1.534585">
        <ele>1715.0</ele>
        <time>2019-08-04T10:29:05.328Z</time>
      </trkpt>
      <trkpt lat="42.455555" lon="1.534585">
        <ele>1715.0</ele>
        <time>2019-08-04T10:29:06.332Z</time>
      </trkpt>
      <trkpt lat="42.45555333" lon="1.53458">
        <ele>1715.0</ele>
        <time>2019-08-04T10:29:07.333Z</time>
      </trkpt>
      <trkpt lat="42.45555333" lon="1.53458">
        <ele>1715.0</ele>
        <time>2019-08-04T10:29:08.322Z</time>
      </trkpt>
      <trkpt lat="42.45555667" lon="1.53457167">
        <ele>1715.0</ele>
        <time>2019-08-04T10:29:09.310Z</time>
      </trkpt>
      <trkpt lat="42.45555667" lon="1.53457167">
        <ele>1715.0</ele>
        <time>2019-08-04T10:29:10.334Z</time>
      </trkpt>
      <trkpt lat="42.45555667" lon="1.53457167">
        <ele>1715.0</ele>
        <time>2019-08-04T10:29:11.300Z</time>
      </trkpt>
      <trkpt lat="42.45555667" lon="1.53457167">
        <ele>1715.0</ele>
        <time>2019-08-04T10:29:12.307Z</time>
      </trkpt>
      <trkpt lat="42.45555667" lon="1.53457167">
        <ele>1715.0</ele>
        <time>2019-08-04T10:29:13.326Z</time>
      </trkpt>
      <trkpt lat="42.45554" lon="1.53459667">
        <ele>1715.0</ele>
        <time>2019-08-04T10:29:14.300Z</time>
      </trkpt>
      <trkpt lat="42.45554" lon="1.53459667">
        <ele>1715.0</ele>
        <time>2019-08-04T10:29:15.314Z</time>
      </trkpt>
      <trkpt lat="42.45553833" lon="1.53461167">
        <ele>1715.0</ele>
        <time>2019-08-04T10:29:16.321Z</time>
      </trkpt>
      <trkpt lat="42.455535" lon="1.53461667">
        <ele>1715.0</ele>
        <time>2019-08-04T10:29:17.299Z</time>
      </trkpt>
      <trkpt lat="42.455535" lon="1.53461667">
        <ele>1715.0</ele>
        <time>2019-08-04T10:29:18.307Z</time>
      </trkpt>
      <trkpt lat="42.45553833" lon="1.53464167">
        <ele>1715.0</ele>
        <time>2019-08-04T10:29:19.296Z</time>
      </trkpt>
      <trkpt lat="42.455535" lon="1.53465333">
        <ele>1715.0</ele>
        <time>2019-08-04T10:29:20.305Z</time>
      </trkpt>
      <trkpt lat="42.45553333" lon="1.53466167">
        <ele>1715.0</ele>
        <time>2019-08-04T10:29:21.334Z</time>
      </trkpt>
      <trkpt lat="42.45553333" lon="1.53466167">
        <ele>1715.0</ele>
        <time>2019-08-04T10:29:22.330Z</time>
      </trkpt>
      <trkpt lat="42.45553" lon="1.53467667">
        <ele>1715.0</ele>
        <time>2019-08-04T10:29:23.333Z</time>
      </trkpt>
      <trkpt lat="42.45553" lon="1.53467667">
        <ele>1715.0</ele>
        <time>2019-08-04T10:29:24.300Z</time>
      </trkpt>
      <trkpt lat="42.45551833" lon="1.53469833">
        <ele>1715.0</ele>
        <time>2019-08-04T10:29:25.307Z</time>
      </trkpt>
      <trkpt lat="42.45551833" lon="1.53469833">
        <ele>1715.0</ele>
        <time>2019-08-04T10:29:26.328Z</time>
      </trkpt>
      <trkpt lat="42.45550833" lon="1.53472">
        <ele>1715.0</ele>
        <time>2019-08-04T10:29:27.300Z</time>
      </trkpt>
      <trkpt lat="42.455505" lon="1.53473167">
        <ele>1715.0</ele>
        <time>2019-08-04T10:29:28.331Z</time>
      </trkpt>
      <trkpt lat="42.455505" lon="1.53473167">
        <ele>1715.0</ele>
        <time>2019-08-04T10:29:29.296Z</time>
      </trkpt>
      <trkpt lat="42.45548833" lon="1.534745">
        <ele>1715.0</ele>
        <time>2019-08-04T10:29:30.329Z</time>
      </trkpt>
      <trkpt lat="42.45548833" lon="1.534745">
        <ele>1715.0</ele>
        <time>2019-08-04T10:29:31.296Z</time>
      </trkpt>
      <trkpt lat="42.45547667" lon="1.53475667">
        <ele>1715.0</ele>
        <time>2019-08-04T10:29:32.303Z</time>
      </trkpt>
      <trkpt lat="42.45547667" lon="1.53475667">
        <ele>1715.0</ele>
        <time>2019-08-04T10:29:33.309Z</time>
      </trkpt>
      <trkpt lat="42.45547167" lon="1.534765">
        <ele>1715.0</ele>
        <time>2019-08-04T10:29:34.300Z</time>
      </trkpt>
      <trkpt lat="42.45547167" lon="1.534765">
        <ele>1715.0</ele>
        <time>2019-08-04T10:29:35.318Z</time>
      </trkpt>
      <trkpt lat="42.45548167" lon="1.53475">
        <ele>1713.0</ele>
        <time>2019-08-04T10:29:36.305Z</time>
      </trkpt>
      <trkpt lat="42.45548667" lon="1.53474167">
        <ele>1713.0</ele>
        <time>2019-08-04T10:29:37.316Z</time>
      </trkpt>
      <trkpt lat="42.45549167" lon="1.53473667">
        <ele>1713.0</ele>
        <time>2019-08-04T10:29:38.330Z</time>
      </trkpt>
      <trkpt lat="42.45549167" lon="1.53473667">
        <ele>1713.0</ele>
        <time>2019-08-04T10:29:39.296Z</time>
      </trkpt>
      <trkpt lat="42.45549667" lon="1.53472333">
        <ele>1712.0</ele>
        <time>2019-08-04T10:29:40.300Z</time>
      </trkpt>
      <trkpt lat="42.45549667" lon="1.53472333">
        <ele>1712.0</ele>
        <time>2019-08-04T10:29:41.298Z</time>
      </trkpt>
      <trkpt lat="42.455505" lon="1.53470333">
        <ele>1712.0</ele>
        <time>2019-08-04T10:29:42.318Z</time>
      </trkpt>
      <trkpt lat="42.455505" lon="1.53470333">
        <ele>1712.0</ele>
        <time>2019-08-04T10:29:43.318Z</time>
      </trkpt>
      <trkpt lat="42.45555833" lon="1.53450167">
        <ele>1713.0</ele>
        <time>2019-08-04T10:29:44.301Z</time>
      </trkpt>
      <trkpt lat="42.45555833" lon="1.53450167">
        <ele>1713.0</ele>
        <time>2019-08-04T10:29:45.328Z</time>
      </trkpt>
      <trkpt lat="42.45558667" lon="1.53446333">
        <ele>1713.0</ele>
        <time>2019-08-04T10:29:46.331Z</time>
      </trkpt>
      <trkpt lat="42.45558667" lon="1.53446333">
        <ele>1713.0</ele>
        <time>2019-08-04T10:29:47.312Z</time>
      </trkpt>
      <trkpt lat="42.45562" lon="1.534415">
        <ele>1713.0</ele>
        <time>2019-08-04T10:29:48.314Z</time>
      </trkpt>
      <trkpt lat="42.45563667" lon="1.53439167">
        <ele>1713.0</ele>
        <time>2019-08-04T10:29:49.313Z</time>
      </trkpt>
      <trkpt lat="42.45563667" lon="1.53439167">
        <ele>1713.0</ele>
        <time>2019-08-04T10:29:50.333Z</time>
      </trkpt>
      <trkpt lat="42.45567333" lon="1.53434167">
        <ele>1713.0</ele>
        <time>2019-08-04T10:29:51.331Z</time>
      </trkpt>
      <trkpt lat="42.45567333" lon="1.53434167">
        <ele>1713.0</ele>
        <time>2019-08-04T10:29:52.326Z</time>
      </trkpt>
      <trkpt lat="42.455715" lon="1.534265">
        <ele>1712.0</ele>
        <time>2019-08-04T10:29:53.333Z</time>
      </trkpt>
      <trkpt lat="42.455715" lon="1.534265">
        <ele>1712.0</ele>
        <time>2019-08-04T10:29:54.326Z</time>
      </trkpt>
      <trkpt lat="42.45576667" lon="1.53417">
        <ele>1712.0</ele>
        <time>2019-08-04T10:29:55.333Z</time>
      </trkpt>
      <trkpt lat="42.45576667" lon="1.53417">
        <ele>1712.0</ele>
        <time>2019-08-04T10:29:56.326Z</time>
      </trkpt>
      <trkpt lat="42.45582833" lon="1.53405667">
        <ele>1711.0</ele>
        <time>2019-08-04T10:29:57.308Z</time>
      </trkpt>
      <trkpt lat="42.45586" lon="1.53399167">
        <ele>1711.0</ele>
        <time>2019-08-04T10:29:58.305Z</time>
      </trkpt>
      <trkpt lat="42.45586" lon="1.53399167">
        <ele>1711.0</ele>
        <time>2019-08-04T10:29:59.313Z</time>
      </trkpt>
      <trkpt lat="42.45592167" lon="1.53384">
        <ele>1710.0</ele>
        <time>2019-08-04T10:30:00.321Z</time>
      </trkpt>
      <trkpt lat="42.45595167" lon="1.53375667">
        <ele>1710.0</ele>
        <time>2019-08-04T10:30:01.327Z</time>
      </trkpt>
      <trkpt lat="42.45595167" lon="1.53375667">
        <ele>1710.0</ele>
        <time>2019-08-04T10:30:02.302Z</time>
      </trkpt>
      <trkpt lat="42.45600667" lon="1.53357833">
        <ele>1709.0</ele>
        <time>2019-08-04T10:30:03.334Z</time>
      </trkpt>
      <trkpt lat="42.45600667" lon="1.53357833">
        <ele>1709.0</ele>
        <time>2019-08-04T10:30:04.328Z</time>
      </trkpt>
      <trkpt lat="42.45605667" lon="1.53339333">
        <ele>1708.0</ele>
        <time>2019-08-04T10:30:05.333Z</time>
      </trkpt>
      <trkpt lat="42.45605667" lon="1.53339333">
        <ele>1708.0</ele>
        <time>2019-08-04T10:30:06.326Z</time>
      </trkpt>
      <trkpt lat="42.45609833" lon="1.53320167">
        <ele>1707.0</ele>
        <time>2019-08-04T10:30:07.309Z</time>
      </trkpt>
      <trkpt lat="42.456115" lon="1.5331">
        <ele>1707.0</ele>
        <time>2019-08-04T10:30:08.327Z</time>
      </trkpt>
      <trkpt lat="42.456115" lon="1.5331">
        <ele>1707.0</ele>
        <time>2019-08-04T10:30:09.308Z</time>
      </trkpt>
      <trkpt lat="42.45614333" lon="1.5329">
        <ele>1706.0</ele>
        <time>2019-08-04T10:30:10.333Z</time>
      </trkpt>
      <trkpt lat="42.45615333" lon="1.532795">
        <ele>1705.0</ele>
        <time>2019-08-04T10:30:11.334Z</time>
      </trkpt>
      <trkpt lat="42.45615333" lon="1.532795">
        <ele>1705.0</ele>
        <time>2019-08-04T10:30:12.326Z</time>
      </trkpt>
      <trkpt lat="42.45618" lon="1.53257333">
        <ele>1704.0</ele>
        <time>2019-08-04T10:30:13.330Z</time>
      </trkpt>
      <trkpt lat="42.4562" lon="1.532455">
        <ele>1703.0</ele>
        <time>2019-08-04T10:30:14.333Z</time>
      </trkpt>
      <trkpt lat="42.4562" lon="1.532455">
        <ele>1703.0</ele>
        <time>2019-08-04T10:30:15.329Z</time>
      </trkpt>
      <trkpt lat="42.45625667" lon="1.53220833">
        <ele>1701.0</ele>
        <time>2019-08-04T10:30:16.334Z</time>
      </trkpt>
      <trkpt lat="42.45628333" lon="1.53207667">
        <ele>1700.0</ele>
        <time>2019-08-04T10:30:17.313Z</time>
      </trkpt>
      <trkpt lat="42.45628333" lon="1.53207667">
        <ele>1700.0</ele>
        <time>2019-08-04T10:30:18.307Z</time>
      </trkpt>
      <trkpt lat="42.45631833" lon="1.53181833">
        <ele>1698.0</ele>
        <time>2019-08-04T10:30:19.317Z</time>
      </trkpt>
      <trkpt lat="42.45631833" lon="1.53181833">
        <ele>1698.0</ele>
        <time>2019-08-04T10:30:20.334Z</time>
      </trkpt>
      <trkpt lat="42.45632333" lon="1.531575">
        <ele>1697.0</ele>
        <time>2019-08-04T10:30:21.335Z</time>
      </trkpt>
      <trkpt lat="42.45632333" lon="1.531575">
        <ele>1697.0</ele>
        <time>2019-08-04T10:30:22.326Z</time>
      </trkpt>
      <trkpt lat="42.45631167" lon="1.53132667">
        <ele>1695.0</ele>
        <time>2019-08-04T10:30:23.308Z</time>
      </trkpt>
      <trkpt lat="42.45631167" lon="1.53132667">
        <ele>1695.0</ele>
        <time>2019-08-04T10:30:24.297Z</time>
      </trkpt>
      <trkpt lat="42.45631167" lon="1.531065">
        <ele>1693.0</ele>
        <time>2019-08-04T10:30:25.332Z</time>
      </trkpt>
      <trkpt lat="42.45631167" lon="1.531065">
        <ele>1693.0</ele>
        <time>2019-08-04T10:30:26.327Z</time>
      </trkpt>
      <trkpt lat="42.45632333" lon="1.53080167">
        <ele>1691.0</ele>
        <time>2019-08-04T10:30:27.314Z</time>
      </trkpt>
      <trkpt lat="42.45633" lon="1.53066667">
        <ele>1690.0</ele>
        <time>2019-08-04T10:30:28.303Z</time>
      </trkpt>
      <trkpt lat="42.45633" lon="1.53066667">
        <ele>1690.0</ele>
        <time>2019-08-04T10:30:29.296Z</time>
      </trkpt>
      <trkpt lat="42.45635167" lon="1.53038333">
        <ele>1688.0</ele>
        <time>2019-08-04T10:30:30.327Z</time>
      </trkpt>
      <trkpt lat="42.45635167" lon="1.53038333">
        <ele>1688.0</ele>
        <time>2019-08-04T10:30:31.334Z</time>
      </trkpt>
      <trkpt lat="42.45641167" lon="1.53008667">
        <ele>1685.0</ele>
        <time>2019-08-04T10:30:32.301Z</time>
      </trkpt>
      <trkpt lat="42.45645667" lon="1.529935">
        <ele>1684.0</ele>
        <time>2019-08-04T10:30:33.306Z</time>
      </trkpt>
      <trkpt lat="42.45645667" lon="1.529935">
        <ele>1684.0</ele>
        <time>2019-08-04T10:30:34.327Z</time>
      </trkpt>
      <trkpt lat="42.45657667" lon="1.52967333">
        <ele>1682.0</ele>
        <time>2019-08-04T10:30:35.334Z</time>
      </trkpt>
      <trkpt lat="42.45657667" lon="1.52967333">
        <ele>1682.0</ele>
        <time>2019-08-04T10:30:36.328Z</time>
      </trkpt>
      <trkpt lat="42.45674167" lon="1.52952167">
        <ele>1680.0</ele>
        <time>2019-08-04T10:30:37.306Z</time>
      </trkpt>
      <trkpt lat="42.45684333" lon="1.52949667">
        <ele>1680.0</ele>
        <time>2019-08-04T10:30:38.296Z</time>
      </trkpt>
      <trkpt lat="42.45695167" lon="1.529505">
        <ele>1679.0</ele>
        <time>2019-08-04T10:30:39.311Z</time>
      </trkpt>
      <trkpt lat="42.45695167" lon="1.529505">
        <ele>1679.0</ele>
        <time>2019-08-04T10:30:40.329Z</time>
      </trkpt>
      <trkpt lat="42.45717167" lon="1.52957333">
        <ele>1677.0</ele>
        <time>2019-08-04T10:30:41.331Z</time>
      </trkpt>
      <trkpt lat="42.45717167" lon="1.52957333">
        <ele>1677.0</ele>
        <time>2019-08-04T10:30:42.332Z</time>
      </trkpt>
      <trkpt lat="42.45739833" lon="1.52967">
        <ele>1675.0</ele>
        <time>2019-08-04T10:30:43.334Z</time>
      </trkpt>
      <trkpt lat="42.45739833" lon="1.52967">
        <ele>1675.0</ele>
        <time>2019-08-04T10:30:44.331Z</time>
      </trkpt>
      <trkpt lat="42.45761333" lon="1.52978833">
        <ele>1673.0</ele>
        <time>2019-08-04T10:30:45.335Z</time>
      </trkpt>
      <trkpt lat="42.45761333" lon="1.52978833">
        <ele>1673.0</ele>
        <time>2019-08-04T10:30:46.329Z</time>
      </trkpt>
      <trkpt lat="42.45780667" lon="1.52975667">
        <ele>1670.0</ele>
        <time>2019-08-04T10:30:47.296Z</time>
      </trkpt>
      <trkpt lat="42.45780667" lon="1.52975667">
        <ele>1670.0</ele>
        <time>2019-08-04T10:30:48.327Z</time>
      </trkpt>
      <trkpt lat="42.45796333" lon="1.52956333">
        <ele>1668.0</ele>
        <time>2019-08-04T10:30:49.309Z</time>
      </trkpt>
      <trkpt lat="42.45796333" lon="1.52956333">
        <ele>1668.0</ele>
        <time>2019-08-04T10:30:50.327Z</time>
      </trkpt>
      <trkpt lat="42.45812833" lon="1.52935833">
        <ele>1668.0</ele>
        <time>2019-08-04T10:30:51.308Z</time>
      </trkpt>
      <trkpt lat="42.45812833" lon="1.52935833">
        <ele>1668.0</ele>
        <time>2019-08-04T10:30:52.329Z</time>
      </trkpt>
      <trkpt lat="42.458325" lon="1.52923167">
        <ele>1667.0</ele>
        <time>2019-08-04T10:30:53.297Z</time>
      </trkpt>
      <trkpt lat="42.458325" lon="1.52923167">
        <ele>1667.0</ele>
        <time>2019-08-04T10:30:54.335Z</time>
      </trkpt>
      <trkpt lat="42.458505" lon="1.52908">
        <ele>1666.0</ele>
        <time>2019-08-04T10:30:55.331Z</time>
      </trkpt>
      <trkpt lat="42.458505" lon="1.52908">
        <ele>1666.0</ele>
        <time>2019-08-04T10:30:56.308Z</time>
      </trkpt>
      <trkpt lat="42.45858" lon="1.52883">
        <ele>1666.0</ele>
        <time>2019-08-04T10:30:57.335Z</time>
      </trkpt>
      <trkpt lat="42.45858" lon="1.52883">
        <ele>1666.0</ele>
        <time>2019-08-04T10:30:58.327Z</time>
      </trkpt>
      <trkpt lat="42.458545" lon="1.52856667">
        <ele>1664.0</ele>
        <time>2019-08-04T10:30:59.314Z</time>
      </trkpt>
      <trkpt lat="42.458545" lon="1.52856667">
        <ele>1664.0</ele>
        <time>2019-08-04T10:31:00.334Z</time>
      </trkpt>
      <trkpt lat="42.45846833" lon="1.528305">
        <ele>1662.0</ele>
        <time>2019-08-04T10:31:01.330Z</time>
      </trkpt>
      <trkpt lat="42.45846833" lon="1.528305">
        <ele>1662.0</ele>
        <time>2019-08-04T10:31:02.308Z</time>
      </trkpt>
      <trkpt lat="42.458365" lon="1.52804167">
        <ele>1659.0</ele>
        <time>2019-08-04T10:31:03.335Z</time>
      </trkpt>
      <trkpt lat="42.458365" lon="1.52804167">
        <ele>1659.0</ele>
        <time>2019-08-04T10:31:04.328Z</time>
      </trkpt>
      <trkpt lat="42.45826167" lon="1.527765">
        <ele>1657.0</ele>
        <time>2019-08-04T10:31:05.331Z</time>
      </trkpt>
      <trkpt lat="42.45826167" lon="1.527765">
        <ele>1657.0</ele>
        <time>2019-08-04T10:31:06.327Z</time>
      </trkpt>
      <trkpt lat="42.45827167" lon="1.527465">
        <ele>1654.0</ele>
        <time>2019-08-04T10:31:07.334Z</time>
      </trkpt>
      <trkpt lat="42.45827167" lon="1.527465">
        <ele>1654.0</ele>
        <time>2019-08-04T10:31:08.327Z</time>
      </trkpt>
      <trkpt lat="42.458335" lon="1.52714333">
        <ele>1652.0</ele>
        <time>2019-08-04T10:31:09.322Z</time>
      </trkpt>
      <trkpt lat="42.458335" lon="1.52714333">
        <ele>1652.0</ele>
        <time>2019-08-04T10:31:10.304Z</time>
      </trkpt>
      <trkpt lat="42.45829" lon="1.52683333">
        <ele>1652.0</ele>
        <time>2019-08-04T10:31:11.334Z</time>
      </trkpt>
      <trkpt lat="42.45829" lon="1.52683333">
        <ele>1652.0</ele>
        <time>2019-08-04T10:31:12.327Z</time>
      </trkpt>
      <trkpt lat="42.45819333" lon="1.52657667">
        <ele>1653.0</ele>
        <time>2019-08-04T10:31:13.331Z</time>
      </trkpt>
      <trkpt lat="42.45814167" lon="1.52645667">
        <ele>1653.0</ele>
        <time>2019-08-04T10:31:14.307Z</time>
      </trkpt>
      <trkpt lat="42.45814167" lon="1.52645667">
        <ele>1653.0</ele>
        <time>2019-08-04T10:31:15.321Z</time>
      </trkpt>
      <trkpt lat="42.45809" lon="1.52633833">
        <ele>1653.0</ele>
        <time>2019-08-04T10:31:16.328Z</time>
      </trkpt>
      <trkpt lat="42.45799333" lon="1.52610167">
        <ele>1653.0</ele>
        <time>2019-08-04T10:31:17.314Z</time>
      </trkpt>
      <trkpt lat="42.45799333" lon="1.52610167">
        <ele>1653.0</ele>
        <time>2019-08-04T10:31:18.307Z</time>
      </trkpt>
      <trkpt lat="42.45790333" lon="1.52587333">
        <ele>1653.0</ele>
        <time>2019-08-04T10:31:19.317Z</time>
      </trkpt>
      <trkpt lat="42.45790333" lon="1.52587333">
        <ele>1653.0</ele>
        <time>2019-08-04T10:31:20.334Z</time>
      </trkpt>
      <trkpt lat="42.45782167" lon="1.52566">
        <ele>1654.0</ele>
        <time>2019-08-04T10:31:21.335Z</time>
      </trkpt>
      <trkpt lat="42.457785" lon="1.525555">
        <ele>1654.0</ele>
        <time>2019-08-04T10:31:22.304Z</time>
      </trkpt>
      <trkpt lat="42.457785" lon="1.525555">
        <ele>1654.0</ele>
        <time>2019-08-04T10:31:23.332Z</time>
      </trkpt>
      <trkpt lat="42.45770833" lon="1.52536333">
        <ele>1655.0</ele>
        <time>2019-08-04T10:31:24.333Z</time>
      </trkpt>
      <trkpt lat="42.45770833" lon="1.52536333">
        <ele>1655.0</ele>
        <time>2019-08-04T10:31:25.327Z</time>
      </trkpt>
      <trkpt lat="42.45763333" lon="1.52518167">
        <ele>1656.0</ele>
        <time>2019-08-04T10:31:26.330Z</time>
      </trkpt>
      <trkpt lat="42.45759333" lon="1.52509333">
        <ele>1656.0</ele>
        <time>2019-08-04T10:31:27.331Z</time>
      </trkpt>
      <trkpt lat="42.45755333" lon="1.525005">
        <ele>1656.0</ele>
        <time>2019-08-04T10:31:28.331Z</time>
      </trkpt>
      <trkpt lat="42.45755333" lon="1.525005">
        <ele>1656.0</ele>
        <time>2019-08-04T10:31:29.311Z</time>
      </trkpt>
      <trkpt lat="42.45748167" lon="1.52483167">
        <ele>1656.0</ele>
        <time>2019-08-04T10:31:30.323Z</time>
      </trkpt>
      <trkpt lat="42.45748167" lon="1.52483167">
        <ele>1656.0</ele>
        <time>2019-08-04T10:31:31.330Z</time>
      </trkpt>
      <trkpt lat="42.45741667" lon="1.52466333">
        <ele>1657.0</ele>
        <time>2019-08-04T10:31:32.297Z</time>
      </trkpt>
      <trkpt lat="42.45738667" lon="1.52458333">
        <ele>1657.0</ele>
        <time>2019-08-04T10:31:33.334Z</time>
      </trkpt>
      <trkpt lat="42.45738667" lon="1.52458333">
        <ele>1657.0</ele>
        <time>2019-08-04T10:31:34.327Z</time>
      </trkpt>
      <trkpt lat="42.45733667" lon="1.52442167">
        <ele>1657.0</ele>
        <time>2019-08-04T10:31:35.309Z</time>
      </trkpt>
      <trkpt lat="42.45733667" lon="1.52442167">
        <ele>1657.0</ele>
        <time>2019-08-04T10:31:36.328Z</time>
      </trkpt>
      <trkpt lat="42.45733333" lon="1.52425667">
        <ele>1658.0</ele>
        <time>2019-08-04T10:31:37.330Z</time>
      </trkpt>
      <trkpt lat="42.45733333" lon="1.52425667">
        <ele>1658.0</ele>
        <time>2019-08-04T10:31:38.327Z</time>
      </trkpt>
      <trkpt lat="42.45738333" lon="1.524115">
        <ele>1659.0</ele>
        <time>2019-08-04T10:31:39.317Z</time>
      </trkpt>
      <trkpt lat="42.45738333" lon="1.524115">
        <ele>1659.0</ele>
        <time>2019-08-04T10:31:40.335Z</time>
      </trkpt>
      <trkpt lat="42.45745667" lon="1.52401">
        <ele>1660.0</ele>
        <time>2019-08-04T10:31:41.334Z</time>
      </trkpt>
      <trkpt lat="42.45745667" lon="1.52401">
        <ele>1660.0</ele>
        <time>2019-08-04T10:31:42.330Z</time>
      </trkpt>
      <trkpt lat="42.45754" lon="1.52392333">
        <ele>1661.0</ele>
        <time>2019-08-04T10:31:43.311Z</time>
      </trkpt>
      <trkpt lat="42.45754" lon="1.52392333">
        <ele>1661.0</ele>
        <time>2019-08-04T10:31:44.301Z</time>
      </trkpt>
      <trkpt lat="42.457615" lon="1.52383667">
        <ele>1661.0</ele>
        <time>2019-08-04T10:31:45.335Z</time>
      </trkpt>
      <trkpt lat="42.457615" lon="1.52383667">
        <ele>1661.0</ele>
        <time>2019-08-04T10:31:46.328Z</time>
      </trkpt>
      <trkpt lat="42.45769167" lon="1.523765">
        <ele>1662.0</ele>
        <time>2019-08-04T10:31:47.332Z</time>
      </trkpt>
      <trkpt lat="42.45769167" lon="1.523765">
        <ele>1662.0</ele>
        <time>2019-08-04T10:31:48.331Z</time>
      </trkpt>
      <trkpt lat="42.45776833" lon="1.52370167">
        <ele>1662.0</ele>
        <time>2019-08-04T10:31:49.310Z</time>
      </trkpt>
      <trkpt lat="42.45776833" lon="1.52370167">
        <ele>1662.0</ele>
        <time>2019-08-04T10:31:50.328Z</time>
      </trkpt>
      <trkpt lat="42.45784833" lon="1.52364833">
        <ele>1663.0</ele>
        <time>2019-08-04T10:31:51.297Z</time>
      </trkpt>
      <trkpt lat="42.45784833" lon="1.52364833">
        <ele>1663.0</ele>
        <time>2019-08-04T10:31:52.329Z</time>
      </trkpt>
      <trkpt lat="42.45793167" lon="1.52362">
        <ele>1663.0</ele>
        <time>2019-08-04T10:31:53.334Z</time>
      </trkpt>
      <trkpt lat="42.45797" lon="1.52360333">
        <ele>1663.0</ele>
        <time>2019-08-04T10:31:54.334Z</time>
      </trkpt>
      <trkpt lat="42.45797" lon="1.52360333">
        <ele>1663.0</ele>
        <time>2019-08-04T10:31:55.328Z</time>
      </trkpt>
      <trkpt lat="42.45804167" lon="1.52355833">
        <ele>1663.0</ele>
        <time>2019-08-04T10:31:56.331Z</time>
      </trkpt>
      <trkpt lat="42.45807167" lon="1.52352667">
        <ele>1664.0</ele>
        <time>2019-08-04T10:31:57.309Z</time>
      </trkpt>
      <trkpt lat="42.45807167" lon="1.52352667">
        <ele>1664.0</ele>
        <time>2019-08-04T10:31:58.299Z</time>
      </trkpt>
      <trkpt lat="42.458125" lon="1.52345">
        <ele>1664.0</ele>
        <time>2019-08-04T10:31:59.309Z</time>
      </trkpt>
      <trkpt lat="42.458125" lon="1.52345">
        <ele>1664.0</ele>
        <time>2019-08-04T10:32:00.331Z</time>
      </trkpt>
      <trkpt lat="42.45817" lon="1.52336">
        <ele>1664.0</ele>
        <time>2019-08-04T10:32:01.331Z</time>
      </trkpt>
      <trkpt lat="42.45817" lon="1.52336">
        <ele>1664.0</ele>
        <time>2019-08-04T10:32:02.329Z</time>
      </trkpt>
      <trkpt lat="42.45820333" lon="1.52326833">
        <ele>1664.0</ele>
        <time>2019-08-04T10:32:03.296Z</time>
      </trkpt>
      <trkpt lat="42.45822" lon="1.523215">
        <ele>1664.0</ele>
        <time>2019-08-04T10:32:04.335Z</time>
      </trkpt>
      <trkpt lat="42.45822" lon="1.523215">
        <ele>1664.0</ele>
        <time>2019-08-04T10:32:05.331Z</time>
      </trkpt>
      <trkpt lat="42.45825333" lon="1.52311833">
        <ele>1665.0</ele>
        <time>2019-08-04T10:32:06.297Z</time>
      </trkpt>
      <trkpt lat="42.45825333" lon="1.52311833">
        <ele>1665.0</ele>
        <time>2019-08-04T10:32:07.326Z</time>
      </trkpt>
      <trkpt lat="42.4583" lon="1.523045">
        <ele>1665.0</ele>
        <time>2019-08-04T10:32:08.310Z</time>
      </trkpt>
      <trkpt lat="42.45832167" lon="1.52300667">
        <ele>1666.0</ele>
        <time>2019-08-04T10:32:09.309Z</time>
      </trkpt>
      <trkpt lat="42.45832167" lon="1.52300667">
        <ele>1666.0</ele>
        <time>2019-08-04T10:32:10.328Z</time>
      </trkpt>
      <trkpt lat="42.45836833" lon="1.52293167">
        <ele>1666.0</ele>
        <time>2019-08-04T10:32:11.333Z</time>
      </trkpt>
      <trkpt lat="42.45836833" lon="1.52293167">
        <ele>1666.0</ele>
        <time>2019-08-04T10:32:12.327Z</time>
      </trkpt>
      <trkpt lat="42.458425" lon="1.52286333">
        <ele>1666.0</ele>
        <time>2019-08-04T10:32:13.311Z</time>
      </trkpt>
      <trkpt lat="42.458425" lon="1.52286333">
        <ele>1666.0</ele>
        <time>2019-08-04T10:32:14.330Z</time>
      </trkpt>
      <trkpt lat="42.458475" lon="1.52278833">
        <ele>1667.0</ele>
        <time>2019-08-04T10:32:15.335Z</time>
      </trkpt>
      <trkpt lat="42.458475" lon="1.52278833">
        <ele>1667.0</ele>
        <time>2019-08-04T10:32:16.327Z</time>
      </trkpt>
      <trkpt lat="42.45852" lon="1.52272">
        <ele>1667.0</ele>
        <time>2019-08-04T10:32:17.334Z</time>
      </trkpt>
      <trkpt lat="42.45852" lon="1.52272">
        <ele>1667.0</ele>
        <time>2019-08-04T10:32:18.333Z</time>
      </trkpt>
      <trkpt lat="42.45856167" lon="1.52265333">
        <ele>1668.0</ele>
        <time>2019-08-04T10:32:19.317Z</time>
      </trkpt>
      <trkpt lat="42.45856167" lon="1.52265333">
        <ele>1668.0</ele>
        <time>2019-08-04T10:32:20.334Z</time>
      </trkpt>
      <trkpt lat="42.45859333" lon="1.52258333">
        <ele>1669.0</ele>
        <time>2019-08-04T10:32:21.335Z</time>
      </trkpt>
      <trkpt lat="42.458605" lon="1.52254833">
        <ele>1669.0</ele>
        <time>2019-08-04T10:32:22.334Z</time>
      </trkpt>
      <trkpt lat="42.458605" lon="1.52254833">
        <ele>1669.0</ele>
        <time>2019-08-04T10:32:23.332Z</time>
      </trkpt>
      <trkpt lat="42.45862" lon="1.52247833">
        <ele>1669.0</ele>
        <time>2019-08-04T10:32:24.331Z</time>
      </trkpt>
      <trkpt lat="42.45862" lon="1.52247833">
        <ele>1669.0</ele>
        <time>2019-08-04T10:32:25.327Z</time>
      </trkpt>
      <trkpt lat="42.45862333" lon="1.522405">
        <ele>1669.0</ele>
        <time>2019-08-04T10:32:26.307Z</time>
      </trkpt>
      <trkpt lat="42.45862333" lon="1.52237167">
        <ele>1670.0</ele>
        <time>2019-08-04T10:32:27.321Z</time>
      </trkpt>
      <trkpt lat="42.45862333" lon="1.52237167">
        <ele>1670.0</ele>
        <time>2019-08-04T10:32:28.328Z</time>
      </trkpt>
      <trkpt lat="42.45863667" lon="1.522305">
        <ele>1670.0</ele>
        <time>2019-08-04T10:32:29.308Z</time>
      </trkpt>
      <trkpt lat="42.45864667" lon="1.52227333">
        <ele>1670.0</ele>
        <time>2019-08-04T10:32:30.326Z</time>
      </trkpt>
      <trkpt lat="42.45864667" lon="1.52227333">
        <ele>1670.0</ele>
        <time>2019-08-04T10:32:31.333Z</time>
      </trkpt>
      <trkpt lat="42.45866333" lon="1.52219167">
        <ele>1670.0</ele>
        <time>2019-08-04T10:32:32.302Z</time>
      </trkpt>
      <trkpt lat="42.45867" lon="1.52214667">
        <ele>1671.0</ele>
        <time>2019-08-04T10:32:33.335Z</time>
      </trkpt>
      <trkpt lat="42.45868" lon="1.522105">
        <ele>1671.0</ele>
        <time>2019-08-04T10:32:34.334Z</time>
      </trkpt>
      <trkpt lat="42.45868" lon="1.522105">
        <ele>1671.0</ele>
        <time>2019-08-04T10:32:35.330Z</time>
      </trkpt>
      <trkpt lat="42.458705" lon="1.522015">
        <ele>1671.0</ele>
        <time>2019-08-04T10:32:36.334Z</time>
      </trkpt>
      <trkpt lat="42.45871" lon="1.52197167">
        <ele>1672.0</ele>
        <time>2019-08-04T10:32:37.314Z</time>
      </trkpt>
      <trkpt lat="42.45871" lon="1.52197167">
        <ele>1672.0</ele>
        <time>2019-08-04T10:32:38.296Z</time>
      </trkpt>
      <trkpt lat="42.45871667" lon="1.521885">
        <ele>1672.0</ele>
        <time>2019-08-04T10:32:39.314Z</time>
      </trkpt>
      <trkpt lat="42.45871667" lon="1.521885">
        <ele>1672.0</ele>
        <time>2019-08-04T10:32:40.296Z</time>
      </trkpt>
      <trkpt lat="42.45874167" lon="1.52180667">
        <ele>1673.0</ele>
        <time>2019-08-04T10:32:41.335Z</time>
      </trkpt>
      <trkpt lat="42.45874167" lon="1.52180667">
        <ele>1673.0</ele>
        <time>2019-08-04T10:32:42.303Z</time>
      </trkpt>
      <trkpt lat="42.45876167" lon="1.521735">
        <ele>1674.0</ele>
        <time>2019-08-04T10:32:43.335Z</time>
      </trkpt>
      <trkpt lat="42.45877167" lon="1.52168833">
        <ele>1674.0</ele>
        <time>2019-08-04T10:32:44.297Z</time>
      </trkpt>
      <trkpt lat="42.45877167" lon="1.52168833">
        <ele>1674.0</ele>
        <time>2019-08-04T10:32:45.333Z</time>
      </trkpt>
      <trkpt lat="42.45879" lon="1.52159333">
        <ele>1675.0</ele>
        <time>2019-08-04T10:32:46.334Z</time>
      </trkpt>
      <trkpt lat="42.45879333" lon="1.52154167">
        <ele>1675.0</ele>
        <time>2019-08-04T10:32:47.334Z</time>
      </trkpt>
      <trkpt lat="42.45879333" lon="1.52154167">
        <ele>1675.0</ele>
        <time>2019-08-04T10:32:48.328Z</time>
      </trkpt>
      <trkpt lat="42.45880667" lon="1.52143167">
        <ele>1675.0</ele>
        <time>2019-08-04T10:32:49.310Z</time>
      </trkpt>
      <trkpt lat="42.45880667" lon="1.52143167">
        <ele>1675.0</ele>
        <time>2019-08-04T10:32:50.333Z</time>
      </trkpt>
      <trkpt lat="42.4588" lon="1.52130667">
        <ele>1675.0</ele>
        <time>2019-08-04T10:32:51.335Z</time>
      </trkpt>
      <trkpt lat="42.4588" lon="1.52130667">
        <ele>1675.0</ele>
        <time>2019-08-04T10:32:52.328Z</time>
      </trkpt>
      <trkpt lat="42.45878" lon="1.52115833">
        <ele>1674.0</ele>
        <time>2019-08-04T10:32:53.309Z</time>
      </trkpt>
      <trkpt lat="42.45878" lon="1.52115833">
        <ele>1674.0</ele>
        <time>2019-08-04T10:32:54.331Z</time>
      </trkpt>
      <trkpt lat="42.458745" lon="1.52098667">
        <ele>1673.0</ele>
        <time>2019-08-04T10:32:55.331Z</time>
      </trkpt>
      <trkpt lat="42.458745" lon="1.52098667">
        <ele>1673.0</ele>
        <time>2019-08-04T10:32:56.309Z</time>
      </trkpt>
      <trkpt lat="42.45868667" lon="1.520785">
        <ele>1671.0</ele>
        <time>2019-08-04T10:32:57.334Z</time>
      </trkpt>
      <trkpt lat="42.45868667" lon="1.520785">
        <ele>1671.0</ele>
        <time>2019-08-04T10:32:58.328Z</time>
      </trkpt>
      <trkpt lat="42.45861833" lon="1.52054667">
        <ele>1669.0</ele>
        <time>2019-08-04T10:32:59.321Z</time>
      </trkpt>
      <trkpt lat="42.45861833" lon="1.52054667">
        <ele>1669.0</ele>
        <time>2019-08-04T10:33:00.307Z</time>
      </trkpt>
      <trkpt lat="42.45854167" lon="1.520295">
        <ele>1667.0</ele>
        <time>2019-08-04T10:33:01.335Z</time>
      </trkpt>
      <trkpt lat="42.45854167" lon="1.520295">
        <ele>1667.0</ele>
        <time>2019-08-04T10:33:02.328Z</time>
      </trkpt>
      <trkpt lat="42.45846333" lon="1.52002167">
        <ele>1665.0</ele>
        <time>2019-08-04T10:33:03.308Z</time>
      </trkpt>
      <trkpt lat="42.45846333" lon="1.52002167">
        <ele>1665.0</ele>
        <time>2019-08-04T10:33:04.328Z</time>
      </trkpt>
      <trkpt lat="42.458375" lon="1.51974">
        <ele>1663.0</ele>
        <time>2019-08-04T10:33:05.309Z</time>
      </trkpt>
      <trkpt lat="42.458375" lon="1.51974">
        <ele>1663.0</ele>
        <time>2019-08-04T10:33:06.330Z</time>
      </trkpt>
      <trkpt lat="42.458375" lon="1.51974">
        <ele>1663.0</ele>
        <time>2019-08-04T10:33:07.330Z</time>
      </trkpt>
      <trkpt lat="42.45826" lon="1.51934333">
        <ele>1660.0</ele>
        <time>2019-08-04T10:33:08.303Z</time>
      </trkpt>
      <trkpt lat="42.45826" lon="1.51934333">
        <ele>1660.0</ele>
        <time>2019-08-04T10:33:09.303Z</time>
      </trkpt>
      <trkpt lat="42.4583" lon="1.519165">
        <ele>1658.0</ele>
        <time>2019-08-04T10:33:10.334Z</time>
      </trkpt>
      <trkpt lat="42.4583" lon="1.519165">
        <ele>1658.0</ele>
        <time>2019-08-04T10:33:11.329Z</time>
      </trkpt>
      <trkpt lat="42.45840833" lon="1.519165">
        <ele>1657.0</ele>
        <time>2019-08-04T10:33:12.334Z</time>
      </trkpt>
      <trkpt lat="42.45840833" lon="1.519165">
        <ele>1657.0</ele>
        <time>2019-08-04T10:33:13.328Z</time>
      </trkpt>
      <trkpt lat="42.45846" lon="1.51934667">
        <ele>1656.0</ele>
        <time>2019-08-04T10:33:14.331Z</time>
      </trkpt>
      <trkpt lat="42.458475" lon="1.51945667">
        <ele>1656.0</ele>
        <time>2019-08-04T10:33:15.307Z</time>
      </trkpt>
      <trkpt lat="42.458475" lon="1.51945667">
        <ele>1656.0</ele>
        <time>2019-08-04T10:33:16.328Z</time>
      </trkpt>
      <trkpt lat="42.45851833" lon="1.51967667">
        <ele>1655.0</ele>
        <time>2019-08-04T10:33:17.335Z</time>
      </trkpt>
      <trkpt lat="42.45851833" lon="1.51967667">
        <ele>1655.0</ele>
        <time>2019-08-04T10:33:18.332Z</time>
      </trkpt>
      <trkpt lat="42.45858167" lon="1.519905">
        <ele>1653.0</ele>
        <time>2019-08-04T10:33:19.327Z</time>
      </trkpt>
      <trkpt lat="42.45861833" lon="1.52001833">
        <ele>1652.0</ele>
        <time>2019-08-04T10:33:20.331Z</time>
      </trkpt>
      <trkpt lat="42.458665" lon="1.52013167">
        <ele>1651.0</ele>
        <time>2019-08-04T10:33:21.335Z</time>
      </trkpt>
      <trkpt lat="42.458665" lon="1.52013167">
        <ele>1651.0</ele>
        <time>2019-08-04T10:33:22.330Z</time>
      </trkpt>
      <trkpt lat="42.45878" lon="1.52035833">
        <ele>1649.0</ele>
        <time>2019-08-04T10:33:23.331Z</time>
      </trkpt>
      <trkpt lat="42.45884833" lon="1.520475">
        <ele>1648.0</ele>
        <time>2019-08-04T10:33:24.308Z</time>
      </trkpt>
      <trkpt lat="42.45884833" lon="1.520475">
        <ele>1648.0</ele>
        <time>2019-08-04T10:33:25.332Z</time>
      </trkpt>
      <trkpt lat="42.459005" lon="1.52070667">
        <ele>1645.0</ele>
        <time>2019-08-04T10:33:26.335Z</time>
      </trkpt>
      <trkpt lat="42.459005" lon="1.52070667">
        <ele>1645.0</ele>
        <time>2019-08-04T10:33:27.315Z</time>
      </trkpt>
      <trkpt lat="42.45919167" lon="1.520935">
        <ele>1643.0</ele>
        <time>2019-08-04T10:33:28.297Z</time>
      </trkpt>
      <trkpt lat="42.45919167" lon="1.520935">
        <ele>1643.0</ele>
        <time>2019-08-04T10:33:29.304Z</time>
      </trkpt>
      <trkpt lat="42.45942167" lon="1.52113">
        <ele>1641.0</ele>
        <time>2019-08-04T10:33:30.312Z</time>
      </trkpt>
      <trkpt lat="42.45942167" lon="1.52113">
        <ele>1641.0</ele>
        <time>2019-08-04T10:33:31.323Z</time>
      </trkpt>
      <trkpt lat="42.45968667" lon="1.52128">
        <ele>1639.0</ele>
        <time>2019-08-04T10:33:32.301Z</time>
      </trkpt>
      <trkpt lat="42.45982833" lon="1.52135">
        <ele>1637.0</ele>
        <time>2019-08-04T10:33:33.335Z</time>
      </trkpt>
      <trkpt lat="42.45982833" lon="1.52135">
        <ele>1637.0</ele>
        <time>2019-08-04T10:33:34.328Z</time>
      </trkpt>
      <trkpt lat="42.46012" lon="1.52148833">
        <ele>1634.0</ele>
        <time>2019-08-04T10:33:35.335Z</time>
      </trkpt>
      <trkpt lat="42.46012" lon="1.52148833">
        <ele>1634.0</ele>
        <time>2019-08-04T10:33:36.332Z</time>
      </trkpt>
      <trkpt lat="42.46042833" lon="1.52160167">
        <ele>1631.0</ele>
        <time>2019-08-04T10:33:37.332Z</time>
      </trkpt>
      <trkpt lat="42.46059" lon="1.52164833">
        <ele>1629.0</ele>
        <time>2019-08-04T10:33:38.334Z</time>
      </trkpt>
      <trkpt lat="42.46059" lon="1.52164833">
        <ele>1629.0</ele>
        <time>2019-08-04T10:33:39.313Z</time>
      </trkpt>
      <trkpt lat="42.46090667" lon="1.52172833">
        <ele>1627.0</ele>
        <time>2019-08-04T10:33:40.303Z</time>
      </trkpt>
      <trkpt lat="42.46090667" lon="1.52172833">
        <ele>1627.0</ele>
        <time>2019-08-04T10:33:41.332Z</time>
      </trkpt>
      <trkpt lat="42.46115667" lon="1.52177667">
        <ele>1624.0</ele>
        <time>2019-08-04T10:33:42.335Z</time>
      </trkpt>
      <trkpt lat="42.46115667" lon="1.52177667">
        <ele>1624.0</ele>
        <time>2019-08-04T10:33:43.333Z</time>
      </trkpt>
      <trkpt lat="42.46130667" lon="1.52175167">
        <ele>1624.0</ele>
        <time>2019-08-04T10:33:44.309Z</time>
      </trkpt>
      <trkpt lat="42.46134667" lon="1.52169333">
        <ele>1623.0</ele>
        <time>2019-08-04T10:33:45.335Z</time>
      </trkpt>
      <trkpt lat="42.46135" lon="1.52162">
        <ele>1622.0</ele>
        <time>2019-08-04T10:33:46.335Z</time>
      </trkpt>
      <trkpt lat="42.46135" lon="1.52162">
        <ele>1622.0</ele>
        <time>2019-08-04T10:33:47.332Z</time>
      </trkpt>
      <trkpt lat="42.46127167" lon="1.52150667">
        <ele>1620.0</ele>
        <time>2019-08-04T10:33:48.335Z</time>
      </trkpt>
      <trkpt lat="42.4612" lon="1.52148667">
        <ele>1619.0</ele>
        <time>2019-08-04T10:33:49.331Z</time>
      </trkpt>
      <trkpt lat="42.4612" lon="1.52148667">
        <ele>1619.0</ele>
        <time>2019-08-04T10:33:50.308Z</time>
      </trkpt>
      <trkpt lat="42.46103" lon="1.52147167">
        <ele>1618.0</ele>
        <time>2019-08-04T10:33:51.335Z</time>
      </trkpt>
      <trkpt lat="42.46103" lon="1.52147167">
        <ele>1618.0</ele>
        <time>2019-08-04T10:33:52.314Z</time>
      </trkpt>
      <trkpt lat="42.46084667" lon="1.52143833">
        <ele>1616.0</ele>
        <time>2019-08-04T10:33:53.336Z</time>
      </trkpt>
      <trkpt lat="42.46084667" lon="1.52143833">
        <ele>1616.0</ele>
        <time>2019-08-04T10:33:54.328Z</time>
      </trkpt>
      <trkpt lat="42.46066" lon="1.52135833">
        <ele>1615.0</ele>
        <time>2019-08-04T10:33:55.335Z</time>
      </trkpt>
      <trkpt lat="42.46066" lon="1.52135833">
        <ele>1615.0</ele>
        <time>2019-08-04T10:33:56.329Z</time>
      </trkpt>
      <trkpt lat="42.46047833" lon="1.52126333">
        <ele>1616.0</ele>
        <time>2019-08-04T10:33:57.315Z</time>
      </trkpt>
      <trkpt lat="42.46038833" lon="1.52121">
        <ele>1615.0</ele>
        <time>2019-08-04T10:33:58.298Z</time>
      </trkpt>
      <trkpt lat="42.46029833" lon="1.52115333">
        <ele>1615.0</ele>
        <time>2019-08-04T10:33:59.314Z</time>
      </trkpt>
      <trkpt lat="42.46029833" lon="1.52115333">
        <ele>1615.0</ele>
        <time>2019-08-04T10:34:00.334Z</time>
      </trkpt>
      <trkpt lat="42.46011667" lon="1.52104">
        <ele>1614.0</ele>
        <time>2019-08-04T10:34:01.335Z</time>
      </trkpt>
      <trkpt lat="42.46011667" lon="1.52104">
        <ele>1614.0</ele>
        <time>2019-08-04T10:34:02.328Z</time>
      </trkpt>
      <trkpt lat="42.459935" lon="1.52091">
        <ele>1614.0</ele>
        <time>2019-08-04T10:34:03.296Z</time>
      </trkpt>
      <trkpt lat="42.459935" lon="1.52091">
        <ele>1614.0</ele>
        <time>2019-08-04T10:34:04.328Z</time>
      </trkpt>
      <trkpt lat="42.459935" lon="1.52091">
        <ele>1614.0</ele>
        <time>2019-08-04T10:34:05.322Z</time>
      </trkpt>
      <trkpt lat="42.45975833" lon="1.52074833">
        <ele>1613.0</ele>
        <time>2019-08-04T10:34:06.334Z</time>
      </trkpt>
      <trkpt lat="42.45962333" lon="1.52050333">
        <ele>1613.0</ele>
        <time>2019-08-04T10:34:07.334Z</time>
      </trkpt>
      <trkpt lat="42.45956667" lon="1.52036167">
        <ele>1612.0</ele>
        <time>2019-08-04T10:34:08.335Z</time>
      </trkpt>
      <trkpt lat="42.45951167" lon="1.520215">
        <ele>1612.0</ele>
        <time>2019-08-04T10:34:09.305Z</time>
      </trkpt>
      <trkpt lat="42.45951167" lon="1.520215">
        <ele>1612.0</ele>
        <time>2019-08-04T10:34:10.328Z</time>
      </trkpt>
      <trkpt lat="42.45937333" lon="1.51994">
        <ele>1610.0</ele>
        <time>2019-08-04T10:34:11.309Z</time>
      </trkpt>
      <trkpt lat="42.45937333" lon="1.51994">
        <ele>1610.0</ele>
        <time>2019-08-04T10:34:12.328Z</time>
      </trkpt>
      <trkpt lat="42.45923667" lon="1.51963833">
        <ele>1609.0</ele>
        <time>2019-08-04T10:34:13.309Z</time>
      </trkpt>
      <trkpt lat="42.45918333" lon="1.51946333">
        <ele>1609.0</ele>
        <time>2019-08-04T10:34:14.335Z</time>
      </trkpt>
      <trkpt lat="42.459145" lon="1.51928167">
        <ele>1608.0</ele>
        <time>2019-08-04T10:34:15.296Z</time>
      </trkpt>
      <trkpt lat="42.459145" lon="1.51928167">
        <ele>1608.0</ele>
        <time>2019-08-04T10:34:16.333Z</time>
      </trkpt>
      <trkpt lat="42.45908833" lon="1.51890833">
        <ele>1606.0</ele>
        <time>2019-08-04T10:34:17.314Z</time>
      </trkpt>
      <trkpt lat="42.45908833" lon="1.51890833">
        <ele>1606.0</ele>
        <time>2019-08-04T10:34:18.332Z</time>
      </trkpt>
      <trkpt lat="42.45904" lon="1.51853833">
        <ele>1604.0</ele>
        <time>2019-08-04T10:34:19.310Z</time>
      </trkpt>
      <trkpt lat="42.45904" lon="1.51853833">
        <ele>1604.0</ele>
        <time>2019-08-04T10:34:20.331Z</time>
      </trkpt>
      <trkpt lat="42.45896333" lon="1.51816167">
        <ele>1601.0</ele>
        <time>2019-08-04T10:34:21.296Z</time>
      </trkpt>
      <trkpt lat="42.45896333" lon="1.51816167">
        <ele>1601.0</ele>
        <time>2019-08-04T10:34:22.314Z</time>
      </trkpt>
      <trkpt lat="42.45886333" lon="1.5178">
        <ele>1598.0</ele>
        <time>2019-08-04T10:34:23.297Z</time>
      </trkpt>
      <trkpt lat="42.45886333" lon="1.5178">
        <ele>1598.0</ele>
        <time>2019-08-04T10:34:24.315Z</time>
      </trkpt>
      <trkpt lat="42.45875" lon="1.51744167">
        <ele>1594.0</ele>
        <time>2019-08-04T10:34:25.335Z</time>
      </trkpt>
      <trkpt lat="42.45875" lon="1.51744167">
        <ele>1594.0</ele>
        <time>2019-08-04T10:34:26.333Z</time>
      </trkpt>
      <trkpt lat="42.45862833" lon="1.51707667">
        <ele>1591.0</ele>
        <time>2019-08-04T10:34:27.296Z</time>
      </trkpt>
      <trkpt lat="42.45856667" lon="1.51690333">
        <ele>1590.0</ele>
        <time>2019-08-04T10:34:28.335Z</time>
      </trkpt>
      <trkpt lat="42.45856667" lon="1.51690333">
        <ele>1590.0</ele>
        <time>2019-08-04T10:34:29.305Z</time>
      </trkpt>
      <trkpt lat="42.45844167" lon="1.51661833">
        <ele>1588.0</ele>
        <time>2019-08-04T10:34:30.335Z</time>
      </trkpt>
      <trkpt lat="42.45838167" lon="1.51651167">
        <ele>1587.0</ele>
        <time>2019-08-04T10:34:31.302Z</time>
      </trkpt>
      <trkpt lat="42.45838167" lon="1.51651167">
        <ele>1587.0</ele>
        <time>2019-08-04T10:34:32.307Z</time>
      </trkpt>
      <trkpt lat="42.458295" lon="1.51632667">
        <ele>1585.0</ele>
        <time>2019-08-04T10:34:33.323Z</time>
      </trkpt>
      <trkpt lat="42.458295" lon="1.51632667">
        <ele>1585.0</ele>
        <time>2019-08-04T10:34:34.300Z</time>
      </trkpt>
      <trkpt lat="42.45835" lon="1.516205">
        <ele>1584.0</ele>
        <time>2019-08-04T10:34:35.335Z</time>
      </trkpt>
      <trkpt lat="42.45835" lon="1.516205">
        <ele>1584.0</ele>
        <time>2019-08-04T10:34:36.298Z</time>
      </trkpt>
      <trkpt lat="42.45847" lon="1.51629667">
        <ele>1582.0</ele>
        <time>2019-08-04T10:34:37.335Z</time>
      </trkpt>
      <trkpt lat="42.45847" lon="1.51629667">
        <ele>1582.0</ele>
        <time>2019-08-04T10:34:38.333Z</time>
      </trkpt>
      <trkpt lat="42.45855833" lon="1.51648333">
        <ele>1580.0</ele>
        <time>2019-08-04T10:34:39.317Z</time>
      </trkpt>
      <trkpt lat="42.45860333" lon="1.51659">
        <ele>1579.0</ele>
        <time>2019-08-04T10:34:40.301Z</time>
      </trkpt>
      <trkpt lat="42.45860333" lon="1.51659">
        <ele>1579.0</ele>
        <time>2019-08-04T10:34:41.330Z</time>
      </trkpt>
      <trkpt lat="42.458705" lon="1.516815">
        <ele>1578.0</ele>
        <time>2019-08-04T10:34:42.335Z</time>
      </trkpt>
      <trkpt lat="42.458705" lon="1.516815">
        <ele>1578.0</ele>
        <time>2019-08-04T10:34:43.328Z</time>
      </trkpt>
      <trkpt lat="42.45883" lon="1.517055">
        <ele>1576.0</ele>
        <time>2019-08-04T10:34:44.309Z</time>
      </trkpt>
      <trkpt lat="42.45883" lon="1.517055">
        <ele>1576.0</ele>
        <time>2019-08-04T10:34:45.333Z</time>
      </trkpt>
      <trkpt lat="42.45896167" lon="1.51731333">
        <ele>1575.0</ele>
        <time>2019-08-04T10:34:46.296Z</time>
      </trkpt>
      <trkpt lat="42.45896167" lon="1.51731333">
        <ele>1575.0</ele>
        <time>2019-08-04T10:34:47.314Z</time>
      </trkpt>
      <trkpt lat="42.45909667" lon="1.51758833">
        <ele>1573.0</ele>
        <time>2019-08-04T10:34:48.296Z</time>
      </trkpt>
      <trkpt lat="42.45909667" lon="1.51758833">
        <ele>1573.0</ele>
        <time>2019-08-04T10:34:49.302Z</time>
      </trkpt>
      <trkpt lat="42.45924333" lon="1.51786667">
        <ele>1572.0</ele>
        <time>2019-08-04T10:34:50.335Z</time>
      </trkpt>
      <trkpt lat="42.45924333" lon="1.51786667">
        <ele>1572.0</ele>
        <time>2019-08-04T10:34:51.330Z</time>
      </trkpt>
      <trkpt lat="42.45938833" lon="1.51815333">
        <ele>1571.0</ele>
        <time>2019-08-04T10:34:52.335Z</time>
      </trkpt>
      <trkpt lat="42.459465" lon="1.5183">
        <ele>1570.0</ele>
        <time>2019-08-04T10:34:53.335Z</time>
      </trkpt>
      <trkpt lat="42.459465" lon="1.5183">
        <ele>1570.0</ele>
        <time>2019-08-04T10:34:54.330Z</time>
      </trkpt>
      <trkpt lat="42.45961667" lon="1.51857833">
        <ele>1568.0</ele>
        <time>2019-08-04T10:34:55.310Z</time>
      </trkpt>
      <trkpt lat="42.45961667" lon="1.51857833">
        <ele>1568.0</ele>
        <time>2019-08-04T10:34:56.329Z</time>
      </trkpt>
      <trkpt lat="42.45977667" lon="1.51886">
        <ele>1566.0</ele>
        <time>2019-08-04T10:34:57.310Z</time>
      </trkpt>
      <trkpt lat="42.45986333" lon="1.519">
        <ele>1565.0</ele>
        <time>2019-08-04T10:34:58.334Z</time>
      </trkpt>
      <trkpt lat="42.45986333" lon="1.519">
        <ele>1565.0</ele>
        <time>2019-08-04T10:34:59.303Z</time>
      </trkpt>
      <trkpt lat="42.46006" lon="1.51925">
        <ele>1564.0</ele>
        <time>2019-08-04T10:35:00.334Z</time>
      </trkpt>
      <trkpt lat="42.46006" lon="1.51925">
        <ele>1564.0</ele>
        <time>2019-08-04T10:35:01.330Z</time>
      </trkpt>
      <trkpt lat="42.46025833" lon="1.51946333">
        <ele>1562.0</ele>
        <time>2019-08-04T10:35:02.311Z</time>
      </trkpt>
      <trkpt lat="42.46034833" lon="1.51955667">
        <ele>1561.0</ele>
        <time>2019-08-04T10:35:03.304Z</time>
      </trkpt>
      <trkpt lat="42.46034833" lon="1.51955667">
        <ele>1561.0</ele>
        <time>2019-08-04T10:35:04.330Z</time>
      </trkpt>
      <trkpt lat="42.46050667" lon="1.519705">
        <ele>1560.0</ele>
        <time>2019-08-04T10:35:05.335Z</time>
      </trkpt>
      <trkpt lat="42.46050667" lon="1.519705">
        <ele>1560.0</ele>
        <time>2019-08-04T10:35:06.330Z</time>
      </trkpt>
      <trkpt lat="42.46067167" lon="1.51973333">
        <ele>1559.0</ele>
        <time>2019-08-04T10:35:07.335Z</time>
      </trkpt>
      <trkpt lat="42.46067167" lon="1.51973333">
        <ele>1559.0</ele>
        <time>2019-08-04T10:35:08.333Z</time>
      </trkpt>
      <trkpt lat="42.46067167" lon="1.51973333">
        <ele>1559.0</ele>
        <time>2019-08-04T10:35:09.347Z</time>
      </trkpt>
      <trkpt lat="42.46072333" lon="1.519555">
        <ele>1558.0</ele>
        <time>2019-08-04T10:35:10.306Z</time>
      </trkpt>
      <trkpt lat="42.460635" lon="1.51942">
        <ele>1558.0</ele>
        <time>2019-08-04T10:35:11.334Z</time>
      </trkpt>
      <trkpt lat="42.460635" lon="1.51942">
        <ele>1558.0</ele>
        <time>2019-08-04T10:35:12.332Z</time>
      </trkpt>
      <trkpt lat="42.46048833" lon="1.51935167">
        <ele>1557.0</ele>
        <time>2019-08-04T10:35:13.335Z</time>
      </trkpt>
      <trkpt lat="42.46048833" lon="1.51935167">
        <ele>1557.0</ele>
        <time>2019-08-04T10:35:14.329Z</time>
      </trkpt>
      <trkpt lat="42.46035167" lon="1.51922167">
        <ele>1557.0</ele>
        <time>2019-08-04T10:35:15.296Z</time>
      </trkpt>
      <trkpt lat="42.46035167" lon="1.51922167">
        <ele>1557.0</ele>
        <time>2019-08-04T10:35:16.330Z</time>
      </trkpt>
      <trkpt lat="42.46023" lon="1.51904">
        <ele>1556.0</ele>
        <time>2019-08-04T10:35:17.332Z</time>
      </trkpt>
      <trkpt lat="42.460165" lon="1.51894167">
        <ele>1556.0</ele>
        <time>2019-08-04T10:35:18.334Z</time>
      </trkpt>
      <trkpt lat="42.460165" lon="1.51894167">
        <ele>1556.0</ele>
        <time>2019-08-04T10:35:19.312Z</time>
      </trkpt>
      <trkpt lat="42.46003833" lon="1.51872833">
        <ele>1555.0</ele>
        <time>2019-08-04T10:35:20.297Z</time>
      </trkpt>
      <trkpt lat="42.45998" lon="1.51861333">
        <ele>1555.0</ele>
        <time>2019-08-04T10:35:21.296Z</time>
      </trkpt>
      <trkpt lat="42.45998" lon="1.51861333">
        <ele>1555.0</ele>
        <time>2019-08-04T10:35:22.333Z</time>
      </trkpt>
      <trkpt lat="42.459875" lon="1.51837333">
        <ele>1555.0</ele>
        <time>2019-08-04T10:35:23.335Z</time>
      </trkpt>
      <trkpt lat="42.459875" lon="1.51837333">
        <ele>1555.0</ele>
        <time>2019-08-04T10:35:24.329Z</time>
      </trkpt>
      <trkpt lat="42.45977667" lon="1.51812">
        <ele>1554.0</ele>
        <time>2019-08-04T10:35:25.310Z</time>
      </trkpt>
      <trkpt lat="42.45977667" lon="1.51812">
        <ele>1554.0</ele>
        <time>2019-08-04T10:35:26.333Z</time>
      </trkpt>
      <trkpt lat="42.459685" lon="1.51784167">
        <ele>1553.0</ele>
        <time>2019-08-04T10:35:27.296Z</time>
      </trkpt>
      <trkpt lat="42.459685" lon="1.51784167">
        <ele>1553.0</ele>
        <time>2019-08-04T10:35:28.328Z</time>
      </trkpt>
      <trkpt lat="42.45959167" lon="1.51755">
        <ele>1552.0</ele>
        <time>2019-08-04T10:35:29.300Z</time>
      </trkpt>
      <trkpt lat="42.45959167" lon="1.51755">
        <ele>1552.0</ele>
        <time>2019-08-04T10:35:30.318Z</time>
      </trkpt>
      <trkpt lat="42.459495" lon="1.51724167">
        <ele>1551.0</ele>
        <time>2019-08-04T10:35:31.324Z</time>
      </trkpt>
      <trkpt lat="42.459495" lon="1.51724167">
        <ele>1551.0</ele>
        <time>2019-08-04T10:35:32.297Z</time>
      </trkpt>
      <trkpt lat="42.45939" lon="1.51692">
        <ele>1549.0</ele>
        <time>2019-08-04T10:35:33.333Z</time>
      </trkpt>
      <trkpt lat="42.45939" lon="1.51692">
        <ele>1549.0</ele>
        <time>2019-08-04T10:35:34.309Z</time>
      </trkpt>
      <trkpt lat="42.45928333" lon="1.516585">
        <ele>1547.0</ele>
        <time>2019-08-04T10:35:35.335Z</time>
      </trkpt>
      <trkpt lat="42.45928333" lon="1.516585">
        <ele>1547.0</ele>
        <time>2019-08-04T10:35:36.329Z</time>
      </trkpt>
      <trkpt lat="42.459185" lon="1.51623667">
        <ele>1545.0</ele>
        <time>2019-08-04T10:35:37.310Z</time>
      </trkpt>
      <trkpt lat="42.45914" lon="1.516055">
        <ele>1544.0</ele>
        <time>2019-08-04T10:35:38.335Z</time>
      </trkpt>
      <trkpt lat="42.45914" lon="1.516055">
        <ele>1544.0</ele>
        <time>2019-08-04T10:35:39.307Z</time>
      </trkpt>
      <trkpt lat="42.459055" lon="1.51568333">
        <ele>1542.0</ele>
        <time>2019-08-04T10:35:40.332Z</time>
      </trkpt>
      <trkpt lat="42.45901333" lon="1.515495">
        <ele>1541.0</ele>
        <time>2019-08-04T10:35:41.335Z</time>
      </trkpt>
      <trkpt lat="42.45901333" lon="1.515495">
        <ele>1541.0</ele>
        <time>2019-08-04T10:35:42.329Z</time>
      </trkpt>
      <trkpt lat="42.45893833" lon="1.515115">
        <ele>1539.0</ele>
        <time>2019-08-04T10:35:43.335Z</time>
      </trkpt>
      <trkpt lat="42.458905" lon="1.51491833">
        <ele>1538.0</ele>
        <time>2019-08-04T10:35:44.296Z</time>
      </trkpt>
      <trkpt lat="42.458905" lon="1.51491833">
        <ele>1538.0</ele>
        <time>2019-08-04T10:35:45.333Z</time>
      </trkpt>
      <trkpt lat="42.45884667" lon="1.51452667">
        <ele>1536.0</ele>
        <time>2019-08-04T10:35:46.335Z</time>
      </trkpt>
      <trkpt lat="42.45882333" lon="1.51432833">
        <ele>1534.0</ele>
        <time>2019-08-04T10:35:47.314Z</time>
      </trkpt>
      <trkpt lat="42.45882333" lon="1.51432833">
        <ele>1534.0</ele>
        <time>2019-08-04T10:35:48.296Z</time>
      </trkpt>
      <trkpt lat="42.45877" lon="1.51392833">
        <ele>1532.0</ele>
        <time>2019-08-04T10:35:49.309Z</time>
      </trkpt>
      <trkpt lat="42.45877" lon="1.51392833">
        <ele>1532.0</ele>
        <time>2019-08-04T10:35:50.332Z</time>
      </trkpt>
      <trkpt lat="42.45871" lon="1.513535">
        <ele>1531.0</ele>
        <time>2019-08-04T10:35:51.335Z</time>
      </trkpt>
      <trkpt lat="42.45867833" lon="1.51334333">
        <ele>1530.0</ele>
        <time>2019-08-04T10:35:52.334Z</time>
      </trkpt>
      <trkpt lat="42.45867833" lon="1.51334333">
        <ele>1530.0</ele>
        <time>2019-08-04T10:35:53.333Z</time>
      </trkpt>
      <trkpt lat="42.45858667" lon="1.512965">
        <ele>1529.0</ele>
        <time>2019-08-04T10:35:54.335Z</time>
      </trkpt>
      <trkpt lat="42.45858667" lon="1.512965">
        <ele>1529.0</ele>
        <time>2019-08-04T10:35:55.332Z</time>
      </trkpt>
      <trkpt lat="42.45845667" lon="1.51262">
        <ele>1527.0</ele>
        <time>2019-08-04T10:35:56.334Z</time>
      </trkpt>
      <trkpt lat="42.45838167" lon="1.51247667">
        <ele>1525.0</ele>
        <time>2019-08-04T10:35:57.296Z</time>
      </trkpt>
      <trkpt lat="42.45838167" lon="1.51247667">
        <ele>1525.0</ele>
        <time>2019-08-04T10:35:58.332Z</time>
      </trkpt>
      <trkpt lat="42.45821333" lon="1.512275">
        <ele>1523.0</ele>
        <time>2019-08-04T10:35:59.304Z</time>
      </trkpt>
      <trkpt lat="42.45821333" lon="1.512275">
        <ele>1523.0</ele>
        <time>2019-08-04T10:36:00.333Z</time>
      </trkpt>
      <trkpt lat="42.45802833" lon="1.51216333">
        <ele>1520.0</ele>
        <time>2019-08-04T10:36:01.334Z</time>
      </trkpt>
      <trkpt lat="42.45802833" lon="1.51216333">
        <ele>1520.0</ele>
        <time>2019-08-04T10:36:02.351Z</time>
      </trkpt>
      <trkpt lat="42.45792667" lon="1.51200667">
        <ele>1517.0</ele>
        <time>2019-08-04T10:36:03.296Z</time>
      </trkpt>
      <trkpt lat="42.45794667" lon="1.51190833">
        <ele>1516.0</ele>
        <time>2019-08-04T10:36:04.335Z</time>
      </trkpt>
      <trkpt lat="42.45794667" lon="1.51190833">
        <ele>1516.0</ele>
        <time>2019-08-04T10:36:05.333Z</time>
      </trkpt>
      <trkpt lat="42.45809833" lon="1.51185">
        <ele>1514.0</ele>
        <time>2019-08-04T10:36:06.335Z</time>
      </trkpt>
      <trkpt lat="42.45809833" lon="1.51185">
        <ele>1514.0</ele>
        <time>2019-08-04T10:36:07.314Z</time>
      </trkpt>
      <trkpt lat="42.45826667" lon="1.51198333">
        <ele>1511.0</ele>
        <time>2019-08-04T10:36:08.297Z</time>
      </trkpt>
      <trkpt lat="42.45826667" lon="1.51198333">
        <ele>1511.0</ele>
        <time>2019-08-04T10:36:09.308Z</time>
      </trkpt>
      <trkpt lat="42.458415" lon="1.51217333">
        <ele>1509.0</ele>
        <time>2019-08-04T10:36:10.335Z</time>
      </trkpt>
      <trkpt lat="42.45849" lon="1.51225833">
        <ele>1508.0</ele>
        <time>2019-08-04T10:36:11.332Z</time>
      </trkpt>
      <trkpt lat="42.45849" lon="1.51225833">
        <ele>1508.0</ele>
        <time>2019-08-04T10:36:12.308Z</time>
      </trkpt>
      <trkpt lat="42.45864333" lon="1.51245833">
        <ele>1506.0</ele>
        <time>2019-08-04T10:36:13.296Z</time>
      </trkpt>
      <trkpt lat="42.45864333" lon="1.51245833">
        <ele>1506.0</ele>
        <time>2019-08-04T10:36:14.330Z</time>
      </trkpt>
      <trkpt lat="42.45879167" lon="1.51268333">
        <ele>1504.0</ele>
        <time>2019-08-04T10:36:15.310Z</time>
      </trkpt>
      <trkpt lat="42.45886167" lon="1.51280667">
        <ele>1503.0</ele>
        <time>2019-08-04T10:36:16.335Z</time>
      </trkpt>
      <trkpt lat="42.45886167" lon="1.51280667">
        <ele>1503.0</ele>
        <time>2019-08-04T10:36:17.333Z</time>
      </trkpt>
      <trkpt lat="42.45900667" lon="1.513085">
        <ele>1501.0</ele>
        <time>2019-08-04T10:36:18.335Z</time>
      </trkpt>
      <trkpt lat="42.45900667" lon="1.513085">
        <ele>1501.0</ele>
        <time>2019-08-04T10:36:19.305Z</time>
      </trkpt>
      <trkpt lat="42.45912667" lon="1.513395">
        <ele>1499.0</ele>
        <time>2019-08-04T10:36:20.335Z</time>
      </trkpt>
      <trkpt lat="42.459185" lon="1.51356167">
        <ele>1497.0</ele>
        <time>2019-08-04T10:36:21.335Z</time>
      </trkpt>
      <trkpt lat="42.45924333" lon="1.513725">
        <ele>1496.0</ele>
        <time>2019-08-04T10:36:22.297Z</time>
      </trkpt>
      <trkpt lat="42.45929833" lon="1.51389">
        <ele>1495.0</ele>
        <time>2019-08-04T10:36:23.296Z</time>
      </trkpt>
      <trkpt lat="42.45929833" lon="1.51389">
        <ele>1495.0</ele>
        <time>2019-08-04T10:36:24.333Z</time>
      </trkpt>
      <trkpt lat="42.45942167" lon="1.514235">
        <ele>1493.0</ele>
        <time>2019-08-04T10:36:25.335Z</time>
      </trkpt>
      <trkpt lat="42.45942167" lon="1.514235">
        <ele>1493.0</ele>
        <time>2019-08-04T10:36:26.329Z</time>
      </trkpt>
      <trkpt lat="42.45955833" lon="1.51457167">
        <ele>1491.0</ele>
        <time>2019-08-04T10:36:27.310Z</time>
      </trkpt>
      <trkpt lat="42.45963167" lon="1.51473167">
        <ele>1490.0</ele>
        <time>2019-08-04T10:36:28.332Z</time>
      </trkpt>
      <trkpt lat="42.45963167" lon="1.51473167">
        <ele>1490.0</ele>
        <time>2019-08-04T10:36:29.304Z</time>
      </trkpt>
      <trkpt lat="42.45976333" lon="1.51503167">
        <ele>1488.0</ele>
        <time>2019-08-04T10:36:30.333Z</time>
      </trkpt>
      <trkpt lat="42.45976333" lon="1.51503167">
        <ele>1488.0</ele>
        <time>2019-08-04T10:36:31.300Z</time>
      </trkpt>
      <trkpt lat="42.45987833" lon="1.51532333">
        <ele>1486.0</ele>
        <time>2019-08-04T10:36:32.301Z</time>
      </trkpt>
      <trkpt lat="42.45987833" lon="1.51532333">
        <ele>1486.0</ele>
        <time>2019-08-04T10:36:33.334Z</time>
      </trkpt>
      <trkpt lat="42.45995333" lon="1.51557">
        <ele>1484.0</ele>
        <time>2019-08-04T10:36:34.335Z</time>
      </trkpt>
      <trkpt lat="42.45995333" lon="1.51557">
        <ele>1484.0</ele>
        <time>2019-08-04T10:36:35.330Z</time>
      </trkpt>
      <trkpt lat="42.46002" lon="1.51575333">
        <ele>1483.0</ele>
        <time>2019-08-04T10:36:36.335Z</time>
      </trkpt>
      <trkpt lat="42.46002" lon="1.51575333">
        <ele>1483.0</ele>
        <time>2019-08-04T10:36:37.333Z</time>
      </trkpt>
      <trkpt lat="42.460125" lon="1.51585833">
        <ele>1482.0</ele>
        <time>2019-08-04T10:36:38.296Z</time>
      </trkpt>
      <trkpt lat="42.460125" lon="1.51585833">
        <ele>1482.0</ele>
        <time>2019-08-04T10:36:39.308Z</time>
      </trkpt>
      <trkpt lat="42.46021833" lon="1.51578333">
        <ele>1482.0</ele>
        <time>2019-08-04T10:36:40.335Z</time>
      </trkpt>
      <trkpt lat="42.46021833" lon="1.51578333">
        <ele>1482.0</ele>
        <time>2019-08-04T10:36:41.333Z</time>
      </trkpt>
      <trkpt lat="42.4602" lon="1.51560667">
        <ele>1482.0</ele>
        <time>2019-08-04T10:36:42.335Z</time>
      </trkpt>
      <trkpt lat="42.4602" lon="1.51560667">
        <ele>1482.0</ele>
        <time>2019-08-04T10:36:43.333Z</time>
      </trkpt>
      <trkpt lat="42.46012" lon="1.51540833">
        <ele>1481.0</ele>
        <time>2019-08-04T10:36:44.333Z</time>
      </trkpt>
      <trkpt lat="42.46012" lon="1.51540833">
        <ele>1481.0</ele>
        <time>2019-08-04T10:36:45.309Z</time>
      </trkpt>
      <trkpt lat="42.46003167" lon="1.51517">
        <ele>1479.0</ele>
        <time>2019-08-04T10:36:46.335Z</time>
      </trkpt>
      <trkpt lat="42.46003167" lon="1.51517">
        <ele>1479.0</ele>
        <time>2019-08-04T10:36:47.333Z</time>
      </trkpt>
      <trkpt lat="42.45995" lon="1.514915">
        <ele>1478.0</ele>
        <time>2019-08-04T10:36:48.335Z</time>
      </trkpt>
      <trkpt lat="42.45995" lon="1.514915">
        <ele>1478.0</ele>
        <time>2019-08-04T10:36:49.327Z</time>
      </trkpt>
      <trkpt lat="42.45987167" lon="1.51463">
        <ele>1477.0</ele>
        <time>2019-08-04T10:36:50.309Z</time>
      </trkpt>
      <trkpt lat="42.45987167" lon="1.51463">
        <ele>1477.0</ele>
        <time>2019-08-04T10:36:51.334Z</time>
      </trkpt>
      <trkpt lat="42.4598" lon="1.51433">
        <ele>1476.0</ele>
        <time>2019-08-04T10:36:52.335Z</time>
      </trkpt>
      <trkpt lat="42.45977" lon="1.51416667">
        <ele>1475.0</ele>
        <time>2019-08-04T10:36:53.335Z</time>
      </trkpt>
      <trkpt lat="42.45977" lon="1.51416667">
        <ele>1475.0</ele>
        <time>2019-08-04T10:36:54.331Z</time>
      </trkpt>
      <trkpt lat="42.45972" lon="1.513835">
        <ele>1474.0</ele>
        <time>2019-08-04T10:36:55.335Z</time>
      </trkpt>
      <trkpt lat="42.45969833" lon="1.51366167">
        <ele>1474.0</ele>
        <time>2019-08-04T10:36:56.333Z</time>
      </trkpt>
      <trkpt lat="42.45969833" lon="1.51366167">
        <ele>1474.0</ele>
        <time>2019-08-04T10:36:57.309Z</time>
      </trkpt>
      <trkpt lat="42.45965167" lon="1.51331667">
        <ele>1473.0</ele>
        <time>2019-08-04T10:36:58.335Z</time>
      </trkpt>
      <trkpt lat="42.45965167" lon="1.51331667">
        <ele>1473.0</ele>
        <time>2019-08-04T10:36:59.302Z</time>
      </trkpt>
      <trkpt lat="42.45959833" lon="1.51296167">
        <ele>1471.0</ele>
        <time>2019-08-04T10:37:00.335Z</time>
      </trkpt>
      <trkpt lat="42.45959833" lon="1.51296167">
        <ele>1471.0</ele>
        <time>2019-08-04T10:37:01.328Z</time>
      </trkpt>
      <trkpt lat="42.45952167" lon="1.51258667">
        <ele>1470.0</ele>
        <time>2019-08-04T10:37:02.316Z</time>
      </trkpt>
      <trkpt lat="42.45946833" lon="1.51240167">
        <ele>1468.0</ele>
        <time>2019-08-04T10:37:03.335Z</time>
      </trkpt>
      <trkpt lat="42.45946833" lon="1.51240167">
        <ele>1468.0</ele>
        <time>2019-08-04T10:37:04.330Z</time>
      </trkpt>
      <trkpt lat="42.45934167" lon="1.51203333">
        <ele>1466.0</ele>
        <time>2019-08-04T10:37:05.310Z</time>
      </trkpt>
      <trkpt lat="42.45934167" lon="1.51203333">
        <ele>1466.0</ele>
        <time>2019-08-04T10:37:06.333Z</time>
      </trkpt>
      <trkpt lat="42.45919333" lon="1.51166">
        <ele>1463.0</ele>
        <time>2019-08-04T10:37:07.319Z</time>
      </trkpt>
      <trkpt lat="42.45911667" lon="1.51147167">
        <ele>1462.0</ele>
        <time>2019-08-04T10:37:08.303Z</time>
      </trkpt>
      <trkpt lat="42.45911667" lon="1.51147167">
        <ele>1462.0</ele>
        <time>2019-08-04T10:37:09.310Z</time>
      </trkpt>
      <trkpt lat="42.45895" lon="1.51109667">
        <ele>1459.0</ele>
        <time>2019-08-04T10:37:10.335Z</time>
      </trkpt>
      <trkpt lat="42.45895" lon="1.51109667">
        <ele>1459.0</ele>
        <time>2019-08-04T10:37:11.330Z</time>
      </trkpt>
      <trkpt lat="42.45875833" lon="1.51072333">
        <ele>1456.0</ele>
        <time>2019-08-04T10:37:12.309Z</time>
      </trkpt>
      <trkpt lat="42.45875833" lon="1.51072333">
        <ele>1456.0</ele>
        <time>2019-08-04T10:37:13.330Z</time>
      </trkpt>
      <trkpt lat="42.45856333" lon="1.51034833">
        <ele>1453.0</ele>
        <time>2019-08-04T10:37:14.321Z</time>
      </trkpt>
      <trkpt lat="42.45856333" lon="1.51034833">
        <ele>1453.0</ele>
        <time>2019-08-04T10:37:15.333Z</time>
      </trkpt>
      <trkpt lat="42.45835167" lon="1.50997667">
        <ele>1451.0</ele>
        <time>2019-08-04T10:37:16.335Z</time>
      </trkpt>
      <trkpt lat="42.45835167" lon="1.50997667">
        <ele>1451.0</ele>
        <time>2019-08-04T10:37:17.331Z</time>
      </trkpt>
      <trkpt lat="42.45816333" lon="1.50965833">
        <ele>1448.0</ele>
        <time>2019-08-04T10:37:18.335Z</time>
      </trkpt>
      <trkpt lat="42.45816333" lon="1.50965833">
        <ele>1448.0</ele>
        <time>2019-08-04T10:37:19.328Z</time>
      </trkpt>
      <trkpt lat="42.45802333" lon="1.5094">
        <ele>1446.0</ele>
        <time>2019-08-04T10:37:20.304Z</time>
      </trkpt>
      <trkpt lat="42.45802333" lon="1.5094">
        <ele>1446.0</ele>
        <time>2019-08-04T10:37:21.335Z</time>
      </trkpt>
      <trkpt lat="42.45800667" lon="1.509165">
        <ele>1445.0</ele>
        <time>2019-08-04T10:37:22.310Z</time>
      </trkpt>
      <trkpt lat="42.45800667" lon="1.509165">
        <ele>1445.0</ele>
        <time>2019-08-04T10:37:23.333Z</time>
      </trkpt>
      <trkpt lat="42.45817667" lon="1.50911">
        <ele>1445.0</ele>
        <time>2019-08-04T10:37:24.296Z</time>
      </trkpt>
      <trkpt lat="42.45817667" lon="1.50911">
        <ele>1445.0</ele>
        <time>2019-08-04T10:37:25.333Z</time>
      </trkpt>
      <trkpt lat="42.45829167" lon="1.50927">
        <ele>1444.0</ele>
        <time>2019-08-04T10:37:26.309Z</time>
      </trkpt>
      <trkpt lat="42.45829167" lon="1.50927">
        <ele>1444.0</ele>
        <time>2019-08-04T10:37:27.331Z</time>
      </trkpt>
      <trkpt lat="42.45839" lon="1.50951">
        <ele>1443.0</ele>
        <time>2019-08-04T10:37:28.296Z</time>
      </trkpt>
      <trkpt lat="42.45839" lon="1.50951">
        <ele>1443.0</ele>
        <time>2019-08-04T10:37:29.298Z</time>
      </trkpt>
      <trkpt lat="42.458525" lon="1.50976">
        <ele>1442.0</ele>
        <time>2019-08-04T10:37:30.324Z</time>
      </trkpt>
      <trkpt lat="42.458525" lon="1.50976">
        <ele>1442.0</ele>
        <time>2019-08-04T10:37:31.331Z</time>
      </trkpt>
      <trkpt lat="42.45868333" lon="1.51000667">
        <ele>1441.0</ele>
        <time>2019-08-04T10:37:32.301Z</time>
      </trkpt>
      <trkpt lat="42.45876833" lon="1.510135">
        <ele>1441.0</ele>
        <time>2019-08-04T10:37:33.336Z</time>
      </trkpt>
      <trkpt lat="42.45876833" lon="1.510135">
        <ele>1441.0</ele>
        <time>2019-08-04T10:37:34.333Z</time>
      </trkpt>
      <trkpt lat="42.458935" lon="1.51040167">
        <ele>1439.0</ele>
        <time>2019-08-04T10:37:35.333Z</time>
      </trkpt>
      <trkpt lat="42.458935" lon="1.51040167">
        <ele>1439.0</ele>
        <time>2019-08-04T10:37:36.309Z</time>
      </trkpt>
      <trkpt lat="42.45911667" lon="1.51067667">
        <ele>1438.0</ele>
        <time>2019-08-04T10:37:37.296Z</time>
      </trkpt>
      <trkpt lat="42.45911667" lon="1.51067667">
        <ele>1438.0</ele>
        <time>2019-08-04T10:37:38.333Z</time>
      </trkpt>
      <trkpt lat="42.45929167" lon="1.510955">
        <ele>1437.0</ele>
        <time>2019-08-04T10:37:39.318Z</time>
      </trkpt>
      <trkpt lat="42.45929167" lon="1.510955">
        <ele>1437.0</ele>
        <time>2019-08-04T10:37:40.296Z</time>
      </trkpt>
      <trkpt lat="42.45945333" lon="1.51125">
        <ele>1435.0</ele>
        <time>2019-08-04T10:37:41.335Z</time>
      </trkpt>
      <trkpt lat="42.45945333" lon="1.51125">
        <ele>1435.0</ele>
        <time>2019-08-04T10:37:42.331Z</time>
      </trkpt>
      <trkpt lat="42.45961333" lon="1.51153">
        <ele>1434.0</ele>
        <time>2019-08-04T10:37:43.296Z</time>
      </trkpt>
      <trkpt lat="42.45969833" lon="1.51166167">
        <ele>1434.0</ele>
        <time>2019-08-04T10:37:44.296Z</time>
      </trkpt>
      <trkpt lat="42.45969833" lon="1.51166167">
        <ele>1434.0</ele>
        <time>2019-08-04T10:37:45.331Z</time>
      </trkpt>
      <trkpt lat="42.45986333" lon="1.51192">
        <ele>1432.0</ele>
        <time>2019-08-04T10:37:46.296Z</time>
      </trkpt>
      <trkpt lat="42.45986333" lon="1.51192">
        <ele>1432.0</ele>
        <time>2019-08-04T10:37:47.334Z</time>
      </trkpt>
      <trkpt lat="42.46003333" lon="1.51217667">
        <ele>1431.0</ele>
        <time>2019-08-04T10:37:48.335Z</time>
      </trkpt>
      <trkpt lat="42.46012167" lon="1.51230167">
        <ele>1430.0</ele>
        <time>2019-08-04T10:37:49.305Z</time>
      </trkpt>
      <trkpt lat="42.46012167" lon="1.51230167">
        <ele>1430.0</ele>
        <time>2019-08-04T10:37:50.331Z</time>
      </trkpt>
      <trkpt lat="42.460305" lon="1.512545">
        <ele>1429.0</ele>
        <time>2019-08-04T10:37:51.315Z</time>
      </trkpt>
      <trkpt lat="42.460305" lon="1.512545">
        <ele>1429.0</ele>
        <time>2019-08-04T10:37:52.333Z</time>
      </trkpt>
      <trkpt lat="42.46050167" lon="1.512785">
        <ele>1427.0</ele>
        <time>2019-08-04T10:37:53.336Z</time>
      </trkpt>
      <trkpt lat="42.46050167" lon="1.512785">
        <ele>1427.0</ele>
        <time>2019-08-04T10:37:54.332Z</time>
      </trkpt>
      <trkpt lat="42.46069333" lon="1.51300833">
        <ele>1425.0</ele>
        <time>2019-08-04T10:37:55.297Z</time>
      </trkpt>
      <trkpt lat="42.46069333" lon="1.51300833">
        <ele>1425.0</ele>
        <time>2019-08-04T10:37:56.335Z</time>
      </trkpt>
      <trkpt lat="42.46083167" lon="1.51322">
        <ele>1424.0</ele>
        <time>2019-08-04T10:37:57.316Z</time>
      </trkpt>
      <trkpt lat="42.46085667" lon="1.51335667">
        <ele>1422.0</ele>
        <time>2019-08-04T10:37:58.298Z</time>
      </trkpt>
      <trkpt lat="42.46086167" lon="1.51350833">
        <ele>1421.0</ele>
        <time>2019-08-04T10:37:59.307Z</time>
      </trkpt>
      <trkpt lat="42.46086167" lon="1.51350833">
        <ele>1421.0</ele>
        <time>2019-08-04T10:38:00.333Z</time>
      </trkpt>
      <trkpt lat="42.46087833" lon="1.51379167">
        <ele>1419.0</ele>
        <time>2019-08-04T10:38:01.335Z</time>
      </trkpt>
      <trkpt lat="42.46090333" lon="1.51390833">
        <ele>1418.0</ele>
        <time>2019-08-04T10:38:02.304Z</time>
      </trkpt>
      <trkpt lat="42.46090333" lon="1.51390833">
        <ele>1418.0</ele>
        <time>2019-08-04T10:38:03.308Z</time>
      </trkpt>
      <trkpt lat="42.461005" lon="1.51400167">
        <ele>1416.0</ele>
        <time>2019-08-04T10:38:04.335Z</time>
      </trkpt>
      <trkpt lat="42.46106167" lon="1.51395333">
        <ele>1415.0</ele>
        <time>2019-08-04T10:38:05.311Z</time>
      </trkpt>
      <trkpt lat="42.46108833" lon="1.51386833">
        <ele>1414.0</ele>
        <time>2019-08-04T10:38:06.296Z</time>
      </trkpt>
      <trkpt lat="42.46108833" lon="1.51386833">
        <ele>1414.0</ele>
        <time>2019-08-04T10:38:07.335Z</time>
      </trkpt>
      <trkpt lat="42.46107667" lon="1.513645">
        <ele>1413.0</ele>
        <time>2019-08-04T10:38:08.336Z</time>
      </trkpt>
      <trkpt lat="42.46107667" lon="1.513645">
        <ele>1413.0</ele>
        <time>2019-08-04T10:38:09.317Z</time>
      </trkpt>
      <trkpt lat="42.46105333" lon="1.513385">
        <ele>1411.0</ele>
        <time>2019-08-04T10:38:10.296Z</time>
      </trkpt>
      <trkpt lat="42.46105333" lon="1.513385">
        <ele>1411.0</ele>
        <time>2019-08-04T10:38:11.323Z</time>
      </trkpt>
      <trkpt lat="42.46104333" lon="1.51324833">
        <ele>1410.0</ele>
        <time>2019-08-04T10:38:12.298Z</time>
      </trkpt>
      <trkpt lat="42.46097833" lon="1.51297167">
        <ele>1408.0</ele>
        <time>2019-08-04T10:38:13.335Z</time>
      </trkpt>
      <trkpt lat="42.46092333" lon="1.51283833">
        <ele>1407.0</ele>
        <time>2019-08-04T10:38:14.296Z</time>
      </trkpt>
      <trkpt lat="42.46092333" lon="1.51283833">
        <ele>1407.0</ele>
        <time>2019-08-04T10:38:15.335Z</time>
      </trkpt>
      <trkpt lat="42.46079167" lon="1.51257333">
        <ele>1406.0</ele>
        <time>2019-08-04T10:38:16.297Z</time>
      </trkpt>
      <trkpt lat="42.46072167" lon="1.512435">
        <ele>1405.0</ele>
        <time>2019-08-04T10:38:17.315Z</time>
      </trkpt>
      <trkpt lat="42.46072167" lon="1.512435">
        <ele>1405.0</ele>
        <time>2019-08-04T10:38:18.333Z</time>
      </trkpt>
      <trkpt lat="42.46058" lon="1.51214">
        <ele>1403.0</ele>
        <time>2019-08-04T10:38:19.311Z</time>
      </trkpt>
      <trkpt lat="42.46058" lon="1.51214">
        <ele>1403.0</ele>
        <time>2019-08-04T10:38:20.333Z</time>
      </trkpt>
      <trkpt lat="42.46043667" lon="1.511825">
        <ele>1401.0</ele>
        <time>2019-08-04T10:38:21.296Z</time>
      </trkpt>
      <trkpt lat="42.460365" lon="1.511665">
        <ele>1400.0</ele>
        <time>2019-08-04T10:38:22.314Z</time>
      </trkpt>
      <trkpt lat="42.460365" lon="1.511665">
        <ele>1400.0</ele>
        <time>2019-08-04T10:38:23.334Z</time>
      </trkpt>
      <trkpt lat="42.460215" lon="1.51133833">
        <ele>1397.0</ele>
        <time>2019-08-04T10:38:24.335Z</time>
      </trkpt>
      <trkpt lat="42.46013333" lon="1.51117">
        <ele>1396.0</ele>
        <time>2019-08-04T10:38:25.335Z</time>
      </trkpt>
      <trkpt lat="42.46005333" lon="1.51100167">
        <ele>1395.0</ele>
        <time>2019-08-04T10:38:26.296Z</time>
      </trkpt>
      <trkpt lat="42.46005333" lon="1.51100167">
        <ele>1395.0</ele>
        <time>2019-08-04T10:38:27.306Z</time>
      </trkpt>
      <trkpt lat="42.45989333" lon="1.51064667">
        <ele>1392.0</ele>
        <time>2019-08-04T10:38:28.296Z</time>
      </trkpt>
      <trkpt lat="42.45982333" lon="1.51046">
        <ele>1391.0</ele>
        <time>2019-08-04T10:38:29.296Z</time>
      </trkpt>
      <trkpt lat="42.45982333" lon="1.51046">
        <ele>1391.0</ele>
        <time>2019-08-04T10:38:30.299Z</time>
      </trkpt>
      <trkpt lat="42.45970667" lon="1.51008333">
        <ele>1388.0</ele>
        <time>2019-08-04T10:38:31.305Z</time>
      </trkpt>
      <trkpt lat="42.45970667" lon="1.51008333">
        <ele>1388.0</ele>
        <time>2019-08-04T10:38:32.314Z</time>
      </trkpt>
      <trkpt lat="42.459605" lon="1.50970167">
        <ele>1385.0</ele>
        <time>2019-08-04T10:38:33.297Z</time>
      </trkpt>
      <trkpt lat="42.459605" lon="1.50970167">
        <ele>1385.0</ele>
        <time>2019-08-04T10:38:34.333Z</time>
      </trkpt>
      <trkpt lat="42.459535" lon="1.509295">
        <ele>1383.0</ele>
        <time>2019-08-04T10:38:35.305Z</time>
      </trkpt>
      <trkpt lat="42.459535" lon="1.509295">
        <ele>1383.0</ele>
        <time>2019-08-04T10:38:36.331Z</time>
      </trkpt>
      <trkpt lat="42.45948167" lon="1.50888">
        <ele>1380.0</ele>
        <time>2019-08-04T10:38:37.306Z</time>
      </trkpt>
      <trkpt lat="42.45948167" lon="1.50888">
        <ele>1380.0</ele>
        <time>2019-08-04T10:38:38.334Z</time>
      </trkpt>
      <trkpt lat="42.45944167" lon="1.50845667">
        <ele>1376.0</ele>
        <time>2019-08-04T10:38:39.318Z</time>
      </trkpt>
      <trkpt lat="42.45944167" lon="1.50845667">
        <ele>1376.0</ele>
        <time>2019-08-04T10:38:40.296Z</time>
      </trkpt>
      <trkpt lat="42.45940667" lon="1.50801667">
        <ele>1374.0</ele>
        <time>2019-08-04T10:38:41.296Z</time>
      </trkpt>
      <trkpt lat="42.45939333" lon="1.50779333">
        <ele>1372.0</ele>
        <time>2019-08-04T10:38:42.296Z</time>
      </trkpt>
      <trkpt lat="42.45939333" lon="1.50779333">
        <ele>1372.0</ele>
        <time>2019-08-04T10:38:43.334Z</time>
      </trkpt>
      <trkpt lat="42.45940667" lon="1.50737">
        <ele>1369.0</ele>
        <time>2019-08-04T10:38:44.296Z</time>
      </trkpt>
      <trkpt lat="42.459425" lon="1.50716333">
        <ele>1368.0</ele>
        <time>2019-08-04T10:38:45.296Z</time>
      </trkpt>
      <trkpt lat="42.45944833" lon="1.50697167">
        <ele>1367.0</ele>
        <time>2019-08-04T10:38:46.296Z</time>
      </trkpt>
      <trkpt lat="42.45944833" lon="1.50697167">
        <ele>1367.0</ele>
        <time>2019-08-04T10:38:47.315Z</time>
      </trkpt>
      <trkpt lat="42.45943833" lon="1.506575">
        <ele>1365.0</ele>
        <time>2019-08-04T10:38:48.296Z</time>
      </trkpt>
      <trkpt lat="42.45939" lon="1.50638333">
        <ele>1363.0</ele>
        <time>2019-08-04T10:38:49.314Z</time>
      </trkpt>
      <trkpt lat="42.45939" lon="1.50638333">
        <ele>1363.0</ele>
        <time>2019-08-04T10:38:50.331Z</time>
      </trkpt>
      <trkpt lat="42.45925167" lon="1.50601333">
        <ele>1360.0</ele>
        <time>2019-08-04T10:38:51.297Z</time>
      </trkpt>
      <trkpt lat="42.45925167" lon="1.50601333">
        <ele>1360.0</ele>
        <time>2019-08-04T10:38:52.334Z</time>
      </trkpt>
      <trkpt lat="42.45911667" lon="1.50563333">
        <ele>1358.0</ele>
        <time>2019-08-04T10:38:53.296Z</time>
      </trkpt>
      <trkpt lat="42.45911667" lon="1.50563333">
        <ele>1358.0</ele>
        <time>2019-08-04T10:38:54.330Z</time>
      </trkpt>
      <trkpt lat="42.458995" lon="1.505255">
        <ele>1354.0</ele>
        <time>2019-08-04T10:38:55.296Z</time>
      </trkpt>
      <trkpt lat="42.458995" lon="1.505255">
        <ele>1354.0</ele>
        <time>2019-08-04T10:38:56.332Z</time>
      </trkpt>
      <trkpt lat="42.45890833" lon="1.50486167">
        <ele>1352.0</ele>
        <time>2019-08-04T10:38:57.296Z</time>
      </trkpt>
      <trkpt lat="42.45890833" lon="1.50486167">
        <ele>1352.0</ele>
        <time>2019-08-04T10:38:58.333Z</time>
      </trkpt>
      <trkpt lat="42.45884667" lon="1.50445167">
        <ele>1349.0</ele>
        <time>2019-08-04T10:38:59.313Z</time>
      </trkpt>
      <trkpt lat="42.45884667" lon="1.50445167">
        <ele>1349.0</ele>
        <time>2019-08-04T10:39:00.334Z</time>
      </trkpt>
      <trkpt lat="42.45880667" lon="1.50403167">
        <ele>1347.0</ele>
        <time>2019-08-04T10:39:01.336Z</time>
      </trkpt>
      <trkpt lat="42.45878167" lon="1.50382333">
        <ele>1346.0</ele>
        <time>2019-08-04T10:39:02.312Z</time>
      </trkpt>
      <trkpt lat="42.45878167" lon="1.50382333">
        <ele>1346.0</ele>
        <time>2019-08-04T10:39:03.334Z</time>
      </trkpt>
      <trkpt lat="42.45870167" lon="1.50346833">
        <ele>1344.0</ele>
        <time>2019-08-04T10:39:04.296Z</time>
      </trkpt>
      <trkpt lat="42.45866333" lon="1.503335">
        <ele>1343.0</ele>
        <time>2019-08-04T10:39:05.336Z</time>
      </trkpt>
      <trkpt lat="42.45866333" lon="1.503335">
        <ele>1343.0</ele>
        <time>2019-08-04T10:39:06.331Z</time>
      </trkpt>
      <trkpt lat="42.45865667" lon="1.50315">
        <ele>1341.0</ele>
        <time>2019-08-04T10:39:07.310Z</time>
      </trkpt>
      <trkpt lat="42.45865667" lon="1.50315">
        <ele>1341.0</ele>
        <time>2019-08-04T10:39:08.333Z</time>
      </trkpt>
      <trkpt lat="42.45877667" lon="1.50314333">
        <ele>1340.0</ele>
        <time>2019-08-04T10:39:09.317Z</time>
      </trkpt>
      <trkpt lat="42.45877667" lon="1.50314333">
        <ele>1340.0</ele>
        <time>2019-08-04T10:39:10.335Z</time>
      </trkpt>
      <trkpt lat="42.45885667" lon="1.50332">
        <ele>1338.0</ele>
        <time>2019-08-04T10:39:11.308Z</time>
      </trkpt>
      <trkpt lat="42.45885667" lon="1.50332">
        <ele>1338.0</ele>
        <time>2019-08-04T10:39:12.327Z</time>
      </trkpt>
      <trkpt lat="42.45889833" lon="1.50355333">
        <ele>1336.0</ele>
        <time>2019-08-04T10:39:13.322Z</time>
      </trkpt>
      <trkpt lat="42.45889833" lon="1.50355333">
        <ele>1336.0</ele>
        <time>2019-08-04T10:39:14.333Z</time>
      </trkpt>
      <trkpt lat="42.45893833" lon="1.50381167">
        <ele>1334.0</ele>
        <time>2019-08-04T10:39:15.297Z</time>
      </trkpt>
      <trkpt lat="42.458965" lon="1.50394833">
        <ele>1333.0</ele>
        <time>2019-08-04T10:39:16.297Z</time>
      </trkpt>
      <trkpt lat="42.458965" lon="1.50394833">
        <ele>1333.0</ele>
        <time>2019-08-04T10:39:17.334Z</time>
      </trkpt>
      <trkpt lat="42.45903" lon="1.50423667">
        <ele>1331.0</ele>
        <time>2019-08-04T10:39:18.296Z</time>
      </trkpt>
      <trkpt lat="42.45903" lon="1.50423667">
        <ele>1331.0</ele>
        <time>2019-08-04T10:39:19.305Z</time>
      </trkpt>
      <trkpt lat="42.45912333" lon="1.50453667">
        <ele>1329.0</ele>
        <time>2019-08-04T10:39:20.296Z</time>
      </trkpt>
      <trkpt lat="42.45918167" lon="1.50468833">
        <ele>1329.0</ele>
        <time>2019-08-04T10:39:21.297Z</time>
      </trkpt>
      <trkpt lat="42.45918167" lon="1.50468833">
        <ele>1329.0</ele>
        <time>2019-08-04T10:39:22.309Z</time>
      </trkpt>
      <trkpt lat="42.45933833" lon="1.504975">
        <ele>1327.0</ele>
        <time>2019-08-04T10:39:23.296Z</time>
      </trkpt>
      <trkpt lat="42.45933833" lon="1.504975">
        <ele>1327.0</ele>
        <time>2019-08-04T10:39:24.322Z</time>
      </trkpt>
      <trkpt lat="42.45951833" lon="1.50524">
        <ele>1325.0</ele>
        <time>2019-08-04T10:39:25.304Z</time>
      </trkpt>
      <trkpt lat="42.45951833" lon="1.50524">
        <ele>1325.0</ele>
        <time>2019-08-04T10:39:26.334Z</time>
      </trkpt>
      <trkpt lat="42.45972333" lon="1.5055">
        <ele>1323.0</ele>
        <time>2019-08-04T10:39:27.297Z</time>
      </trkpt>
      <trkpt lat="42.45972333" lon="1.5055">
        <ele>1323.0</ele>
        <time>2019-08-04T10:39:28.334Z</time>
      </trkpt>
      <trkpt lat="42.45993667" lon="1.505755">
        <ele>1321.0</ele>
        <time>2019-08-04T10:39:29.330Z</time>
      </trkpt>
      <trkpt lat="42.45993667" lon="1.505755">
        <ele>1321.0</ele>
        <time>2019-08-04T10:39:30.323Z</time>
      </trkpt>
      <trkpt lat="42.46011" lon="1.50603667">
        <ele>1319.0</ele>
        <time>2019-08-04T10:39:31.330Z</time>
      </trkpt>
      <trkpt lat="42.46011" lon="1.50603667">
        <ele>1319.0</ele>
        <time>2019-08-04T10:39:32.296Z</time>
      </trkpt>
      <trkpt lat="42.46021333" lon="1.50639667">
        <ele>1316.0</ele>
        <time>2019-08-04T10:39:33.305Z</time>
      </trkpt>
      <trkpt lat="42.46021333" lon="1.50639667">
        <ele>1316.0</ele>
        <time>2019-08-04T10:39:34.306Z</time>
      </trkpt>
      <trkpt lat="42.46031667" lon="1.50677">
        <ele>1313.0</ele>
        <time>2019-08-04T10:39:35.296Z</time>
      </trkpt>
      <trkpt lat="42.46031667" lon="1.50677">
        <ele>1313.0</ele>
        <time>2019-08-04T10:39:36.333Z</time>
      </trkpt>
      <trkpt lat="42.460465" lon="1.50712">
        <ele>1311.0</ele>
        <time>2019-08-04T10:39:37.296Z</time>
      </trkpt>
      <trkpt lat="42.460465" lon="1.50712">
        <ele>1311.0</ele>
        <time>2019-08-04T10:39:38.333Z</time>
      </trkpt>
      <trkpt lat="42.46065167" lon="1.50744">
        <ele>1309.0</ele>
        <time>2019-08-04T10:39:39.326Z</time>
      </trkpt>
      <trkpt lat="42.46065167" lon="1.50744">
        <ele>1309.0</ele>
        <time>2019-08-04T10:39:40.316Z</time>
      </trkpt>
      <trkpt lat="42.46083833" lon="1.50776833">
        <ele>1307.0</ele>
        <time>2019-08-04T10:39:41.296Z</time>
      </trkpt>
      <trkpt lat="42.46083833" lon="1.50776833">
        <ele>1307.0</ele>
        <time>2019-08-04T10:39:42.331Z</time>
      </trkpt>
      <trkpt lat="42.46102667" lon="1.508105">
        <ele>1305.0</ele>
        <time>2019-08-04T10:39:43.335Z</time>
      </trkpt>
      <trkpt lat="42.46112667" lon="1.508275">
        <ele>1304.0</ele>
        <time>2019-08-04T10:39:44.335Z</time>
      </trkpt>
      <trkpt lat="42.46123" lon="1.50844333">
        <ele>1303.0</ele>
        <time>2019-08-04T10:39:45.297Z</time>
      </trkpt>
      <trkpt lat="42.46123" lon="1.50844333">
        <ele>1303.0</ele>
        <time>2019-08-04T10:39:46.331Z</time>
      </trkpt>
      <trkpt lat="42.46146167" lon="1.508745">
        <ele>1301.0</ele>
        <time>2019-08-04T10:39:47.316Z</time>
      </trkpt>
      <trkpt lat="42.46146167" lon="1.508745">
        <ele>1301.0</ele>
        <time>2019-08-04T10:39:48.297Z</time>
      </trkpt>
      <trkpt lat="42.46174167" lon="1.50894333">
        <ele>1299.0</ele>
        <time>2019-08-04T10:39:49.325Z</time>
      </trkpt>
      <trkpt lat="42.46174167" lon="1.50894333">
        <ele>1299.0</ele>
        <time>2019-08-04T10:39:50.307Z</time>
      </trkpt>
      <trkpt lat="42.46199833" lon="1.50914333">
        <ele>1296.0</ele>
        <time>2019-08-04T10:39:51.298Z</time>
      </trkpt>
      <trkpt lat="42.462095" lon="1.509275">
        <ele>1294.0</ele>
        <time>2019-08-04T10:39:52.296Z</time>
      </trkpt>
      <trkpt lat="42.462095" lon="1.509275">
        <ele>1294.0</ele>
        <time>2019-08-04T10:39:53.334Z</time>
      </trkpt>
      <trkpt lat="42.46222833" lon="1.50955">
        <ele>1291.0</ele>
        <time>2019-08-04T10:39:54.296Z</time>
      </trkpt>
      <trkpt lat="42.46222833" lon="1.50955">
        <ele>1291.0</ele>
        <time>2019-08-04T10:39:55.333Z</time>
      </trkpt>
      <trkpt lat="42.46234167" lon="1.50972333">
        <ele>1288.0</ele>
        <time>2019-08-04T10:39:56.296Z</time>
      </trkpt>
      <trkpt lat="42.46241667" lon="1.50971">
        <ele>1287.0</ele>
        <time>2019-08-04T10:39:57.297Z</time>
      </trkpt>
      <trkpt lat="42.46241667" lon="1.50971">
        <ele>1287.0</ele>
        <time>2019-08-04T10:39:58.333Z</time>
      </trkpt>
      <trkpt lat="42.46255333" lon="1.50955833">
        <ele>1286.0</ele>
        <time>2019-08-04T10:39:59.299Z</time>
      </trkpt>
      <trkpt lat="42.46255333" lon="1.50955833">
        <ele>1286.0</ele>
        <time>2019-08-04T10:40:00.330Z</time>
      </trkpt>
      <trkpt lat="42.46265" lon="1.50931333">
        <ele>1283.0</ele>
        <time>2019-08-04T10:40:01.311Z</time>
      </trkpt>
      <trkpt lat="42.46265" lon="1.50931333">
        <ele>1283.0</ele>
        <time>2019-08-04T10:40:02.305Z</time>
      </trkpt>
      <trkpt lat="42.46270333" lon="1.509025">
        <ele>1281.0</ele>
        <time>2019-08-04T10:40:03.301Z</time>
      </trkpt>
      <trkpt lat="42.46270333" lon="1.509025">
        <ele>1281.0</ele>
        <time>2019-08-04T10:40:04.332Z</time>
      </trkpt>
      <trkpt lat="42.46271667" lon="1.50872333">
        <ele>1279.0</ele>
        <time>2019-08-04T10:40:05.335Z</time>
      </trkpt>
      <trkpt lat="42.46271667" lon="1.50872333">
        <ele>1279.0</ele>
        <time>2019-08-04T10:40:06.332Z</time>
      </trkpt>
      <trkpt lat="42.46269333" lon="1.50841667">
        <ele>1278.0</ele>
        <time>2019-08-04T10:40:07.334Z</time>
      </trkpt>
      <trkpt lat="42.46266833" lon="1.508255">
        <ele>1277.0</ele>
        <time>2019-08-04T10:40:08.298Z</time>
      </trkpt>
      <trkpt lat="42.46266833" lon="1.508255">
        <ele>1277.0</ele>
        <time>2019-08-04T10:40:09.318Z</time>
      </trkpt>
      <trkpt lat="42.46259667" lon="1.50793167">
        <ele>1276.0</ele>
        <time>2019-08-04T10:40:10.335Z</time>
      </trkpt>
      <trkpt lat="42.46259667" lon="1.50793167">
        <ele>1276.0</ele>
        <time>2019-08-04T10:40:11.332Z</time>
      </trkpt>
      <trkpt lat="42.46255333" lon="1.50776833">
        <ele>1274.0</ele>
        <time>2019-08-04T10:40:12.331Z</time>
      </trkpt>
      <trkpt lat="42.46246" lon="1.50743">
        <ele>1272.0</ele>
        <time>2019-08-04T10:40:13.296Z</time>
      </trkpt>
      <trkpt lat="42.46246" lon="1.50743">
        <ele>1272.0</ele>
        <time>2019-08-04T10:40:14.332Z</time>
      </trkpt>
      <trkpt lat="42.46235167" lon="1.50708">
        <ele>1270.0</ele>
        <time>2019-08-04T10:40:15.297Z</time>
      </trkpt>
      <trkpt lat="42.46235167" lon="1.50708">
        <ele>1270.0</ele>
        <time>2019-08-04T10:40:16.330Z</time>
      </trkpt>
      <trkpt lat="42.46223" lon="1.50671333">
        <ele>1267.0</ele>
        <time>2019-08-04T10:40:17.335Z</time>
      </trkpt>
      <trkpt lat="42.46223" lon="1.50671333">
        <ele>1267.0</ele>
        <time>2019-08-04T10:40:18.332Z</time>
      </trkpt>
      <trkpt lat="42.46209167" lon="1.50634333">
        <ele>1265.0</ele>
        <time>2019-08-04T10:40:19.326Z</time>
      </trkpt>
      <trkpt lat="42.46209167" lon="1.50634333">
        <ele>1265.0</ele>
        <time>2019-08-04T10:40:20.308Z</time>
      </trkpt>
      <trkpt lat="42.46194333" lon="1.50601">
        <ele>1263.0</ele>
        <time>2019-08-04T10:40:21.298Z</time>
      </trkpt>
      <trkpt lat="42.46194333" lon="1.50601">
        <ele>1263.0</ele>
        <time>2019-08-04T10:40:22.333Z</time>
      </trkpt>
      <trkpt lat="42.46176167" lon="1.50577">
        <ele>1261.0</ele>
        <time>2019-08-04T10:40:23.336Z</time>
      </trkpt>
      <trkpt lat="42.46176167" lon="1.50577">
        <ele>1261.0</ele>
        <time>2019-08-04T10:40:24.332Z</time>
      </trkpt>
      <trkpt lat="42.46156833" lon="1.50554667">
        <ele>1259.0</ele>
        <time>2019-08-04T10:40:25.335Z</time>
      </trkpt>
      <trkpt lat="42.46149833" lon="1.50539667">
        <ele>1257.0</ele>
        <time>2019-08-04T10:40:26.296Z</time>
      </trkpt>
      <trkpt lat="42.46145667" lon="1.50522667">
        <ele>1255.0</ele>
        <time>2019-08-04T10:40:27.298Z</time>
      </trkpt>
      <trkpt lat="42.46145667" lon="1.50522667">
        <ele>1255.0</ele>
        <time>2019-08-04T10:40:28.332Z</time>
      </trkpt>
      <trkpt lat="42.46144167" lon="1.50486167">
        <ele>1253.0</ele>
        <time>2019-08-04T10:40:29.309Z</time>
      </trkpt>
      <trkpt lat="42.46144167" lon="1.50486167">
        <ele>1253.0</ele>
        <time>2019-08-04T10:40:30.299Z</time>
      </trkpt>
      <trkpt lat="42.461365" lon="1.50451667">
        <ele>1253.0</ele>
        <time>2019-08-04T10:40:31.305Z</time>
      </trkpt>
      <trkpt lat="42.46128667" lon="1.50437">
        <ele>1252.0</ele>
        <time>2019-08-04T10:40:32.315Z</time>
      </trkpt>
      <trkpt lat="42.46128667" lon="1.50437">
        <ele>1252.0</ele>
        <time>2019-08-04T10:40:33.334Z</time>
      </trkpt>
      <trkpt lat="42.461095" lon="1.50410333">
        <ele>1250.0</ele>
        <time>2019-08-04T10:40:34.311Z</time>
      </trkpt>
      <trkpt lat="42.46099" lon="1.503975">
        <ele>1249.0</ele>
        <time>2019-08-04T10:40:35.336Z</time>
      </trkpt>
      <trkpt lat="42.46099" lon="1.503975">
        <ele>1249.0</ele>
        <time>2019-08-04T10:40:36.333Z</time>
      </trkpt>
      <trkpt lat="42.46080333" lon="1.50371833">
        <ele>1247.0</ele>
        <time>2019-08-04T10:40:37.316Z</time>
      </trkpt>
      <trkpt lat="42.46072667" lon="1.50358167">
        <ele>1246.0</ele>
        <time>2019-08-04T10:40:38.298Z</time>
      </trkpt>
      <trkpt lat="42.46072667" lon="1.50358167">
        <ele>1246.0</ele>
        <time>2019-08-04T10:40:39.304Z</time>
      </trkpt>
      <trkpt lat="42.46061333" lon="1.50325">
        <ele>1243.0</ele>
        <time>2019-08-04T10:40:40.296Z</time>
      </trkpt>
      <trkpt lat="42.46061333" lon="1.50325">
        <ele>1243.0</ele>
        <time>2019-08-04T10:40:41.333Z</time>
      </trkpt>
      <trkpt lat="42.46052667" lon="1.502895">
        <ele>1241.0</ele>
        <time>2019-08-04T10:40:42.335Z</time>
      </trkpt>
      <trkpt lat="42.46052667" lon="1.502895">
        <ele>1241.0</ele>
        <time>2019-08-04T10:40:43.332Z</time>
      </trkpt>
      <trkpt lat="42.460445" lon="1.50252333">
        <ele>1239.0</ele>
        <time>2019-08-04T10:40:44.332Z</time>
      </trkpt>
      <trkpt lat="42.46040167" lon="1.502335">
        <ele>1238.0</ele>
        <time>2019-08-04T10:40:45.334Z</time>
      </trkpt>
      <trkpt lat="42.46040167" lon="1.502335">
        <ele>1238.0</ele>
        <time>2019-08-04T10:40:46.310Z</time>
      </trkpt>
      <trkpt lat="42.46031" lon="1.50194333">
        <ele>1236.0</ele>
        <time>2019-08-04T10:40:47.336Z</time>
      </trkpt>
      <trkpt lat="42.46031" lon="1.50194333">
        <ele>1236.0</ele>
        <time>2019-08-04T10:40:48.332Z</time>
      </trkpt>
      <trkpt lat="42.46022167" lon="1.50154333">
        <ele>1233.0</ele>
        <time>2019-08-04T10:40:49.312Z</time>
      </trkpt>
      <trkpt lat="42.46018833" lon="1.50133333">
        <ele>1232.0</ele>
        <time>2019-08-04T10:40:50.298Z</time>
      </trkpt>
      <trkpt lat="42.46018833" lon="1.50133333">
        <ele>1232.0</ele>
        <time>2019-08-04T10:40:51.333Z</time>
      </trkpt>
      <trkpt lat="42.46016833" lon="1.50090667">
        <ele>1230.0</ele>
        <time>2019-08-04T10:40:52.335Z</time>
      </trkpt>
      <trkpt lat="42.46016833" lon="1.50090667">
        <ele>1230.0</ele>
        <time>2019-08-04T10:40:53.331Z</time>
      </trkpt>
      <trkpt lat="42.46019167" lon="1.500485">
        <ele>1227.0</ele>
        <time>2019-08-04T10:40:54.335Z</time>
      </trkpt>
      <trkpt lat="42.46020833" lon="1.50027833">
        <ele>1226.0</ele>
        <time>2019-08-04T10:40:55.335Z</time>
      </trkpt>
      <trkpt lat="42.46020833" lon="1.50027833">
        <ele>1226.0</ele>
        <time>2019-08-04T10:40:56.333Z</time>
      </trkpt>
      <trkpt lat="42.460265" lon="1.49989333">
        <ele>1224.0</ele>
        <time>2019-08-04T10:40:57.336Z</time>
      </trkpt>
      <trkpt lat="42.46030167" lon="1.499705">
        <ele>1223.0</ele>
        <time>2019-08-04T10:40:58.312Z</time>
      </trkpt>
      <trkpt lat="42.460345" lon="1.49952667">
        <ele>1221.0</ele>
        <time>2019-08-04T10:40:59.320Z</time>
      </trkpt>
      <trkpt lat="42.460345" lon="1.49952667">
        <ele>1221.0</ele>
        <time>2019-08-04T10:41:00.296Z</time>
      </trkpt>
      <trkpt lat="42.46044" lon="1.49918">
        <ele>1220.0</ele>
        <time>2019-08-04T10:41:01.336Z</time>
      </trkpt>
      <trkpt lat="42.46044" lon="1.49918">
        <ele>1220.0</ele>
        <time>2019-08-04T10:41:02.335Z</time>
      </trkpt>
      <trkpt lat="42.460525" lon="1.49885167">
        <ele>1219.0</ele>
        <time>2019-08-04T10:41:03.298Z</time>
      </trkpt>
      <trkpt lat="42.46055833" lon="1.4987">
        <ele>1218.0</ele>
        <time>2019-08-04T10:41:04.335Z</time>
      </trkpt>
      <trkpt lat="42.460575" lon="1.49854333">
        <ele>1217.0</ele>
        <time>2019-08-04T10:41:05.325Z</time>
      </trkpt>
      <trkpt lat="42.460575" lon="1.49854333">
        <ele>1217.0</ele>
        <time>2019-08-04T10:41:06.333Z</time>
      </trkpt>
      <trkpt lat="42.46056" lon="1.49820833">
        <ele>1216.0</ele>
        <time>2019-08-04T10:41:07.296Z</time>
      </trkpt>
      <trkpt lat="42.46056" lon="1.49820833">
        <ele>1216.0</ele>
        <time>2019-08-04T10:41:08.300Z</time>
      </trkpt>
      <trkpt lat="42.46049167" lon="1.497875">
        <ele>1214.0</ele>
        <time>2019-08-04T10:41:09.313Z</time>
      </trkpt>
      <trkpt lat="42.46049167" lon="1.497875">
        <ele>1214.0</ele>
        <time>2019-08-04T10:41:10.332Z</time>
      </trkpt>
      <trkpt lat="42.46038" lon="1.49755333">
        <ele>1212.0</ele>
        <time>2019-08-04T10:41:11.296Z</time>
      </trkpt>
      <trkpt lat="42.46038" lon="1.49755333">
        <ele>1212.0</ele>
        <time>2019-08-04T10:41:12.333Z</time>
      </trkpt>
      <trkpt lat="42.460245" lon="1.49723333">
        <ele>1210.0</ele>
        <time>2019-08-04T10:41:13.316Z</time>
      </trkpt>
      <trkpt lat="42.46016667" lon="1.49708167">
        <ele>1210.0</ele>
        <time>2019-08-04T10:41:14.300Z</time>
      </trkpt>
      <trkpt lat="42.46008" lon="1.49694">
        <ele>1209.0</ele>
        <time>2019-08-04T10:41:15.298Z</time>
      </trkpt>
      <trkpt lat="42.46008" lon="1.49694">
        <ele>1209.0</ele>
        <time>2019-08-04T10:41:16.333Z</time>
      </trkpt>
      <trkpt lat="42.45989333" lon="1.496665">
        <ele>1208.0</ele>
        <time>2019-08-04T10:41:17.296Z</time>
      </trkpt>
      <trkpt lat="42.45989333" lon="1.496665">
        <ele>1208.0</ele>
        <time>2019-08-04T10:41:18.331Z</time>
      </trkpt>
      <trkpt lat="42.45968667" lon="1.49643">
        <ele>1206.0</ele>
        <time>2019-08-04T10:41:19.312Z</time>
      </trkpt>
      <trkpt lat="42.45968667" lon="1.49643">
        <ele>1206.0</ele>
        <time>2019-08-04T10:41:20.333Z</time>
      </trkpt>
      <trkpt lat="42.45948" lon="1.49624833">
        <ele>1204.0</ele>
        <time>2019-08-04T10:41:21.298Z</time>
      </trkpt>
      <trkpt lat="42.45948" lon="1.49624833">
        <ele>1204.0</ele>
        <time>2019-08-04T10:41:22.330Z</time>
      </trkpt>
      <trkpt lat="42.45930667" lon="1.496115">
        <ele>1202.0</ele>
        <time>2019-08-04T10:41:23.312Z</time>
      </trkpt>
      <trkpt lat="42.45930667" lon="1.496115">
        <ele>1202.0</ele>
        <time>2019-08-04T10:41:24.298Z</time>
      </trkpt>
      <trkpt lat="42.45920333" lon="1.49599333">
        <ele>1201.0</ele>
        <time>2019-08-04T10:41:25.335Z</time>
      </trkpt>
      <trkpt lat="42.4592" lon="1.49592333">
        <ele>1200.0</ele>
        <time>2019-08-04T10:41:26.336Z</time>
      </trkpt>
      <trkpt lat="42.4592" lon="1.49592333">
        <ele>1200.0</ele>
        <time>2019-08-04T10:41:27.317Z</time>
      </trkpt>
      <trkpt lat="42.45928" lon="1.49586667">
        <ele>1198.0</ele>
        <time>2019-08-04T10:41:28.300Z</time>
      </trkpt>
      <trkpt lat="42.45928" lon="1.49586667">
        <ele>1198.0</ele>
        <time>2019-08-04T10:41:29.299Z</time>
      </trkpt>
      <trkpt lat="42.45939833" lon="1.49594333">
        <ele>1198.0</ele>
        <time>2019-08-04T10:41:30.328Z</time>
      </trkpt>
      <trkpt lat="42.45939833" lon="1.49594333">
        <ele>1198.0</ele>
        <time>2019-08-04T10:41:31.334Z</time>
      </trkpt>
      <trkpt lat="42.45952667" lon="1.49606">
        <ele>1197.0</ele>
        <time>2019-08-04T10:41:32.300Z</time>
      </trkpt>
      <trkpt lat="42.4596" lon="1.49611833">
        <ele>1197.0</ele>
        <time>2019-08-04T10:41:33.297Z</time>
      </trkpt>
      <trkpt lat="42.4596" lon="1.49611833">
        <ele>1197.0</ele>
        <time>2019-08-04T10:41:34.333Z</time>
      </trkpt>
      <trkpt lat="42.45976167" lon="1.49625167">
        <ele>1195.0</ele>
        <time>2019-08-04T10:41:35.296Z</time>
      </trkpt>
      <trkpt lat="42.45976167" lon="1.49625167">
        <ele>1195.0</ele>
        <time>2019-08-04T10:41:36.333Z</time>
      </trkpt>
      <trkpt lat="42.45993833" lon="1.49639667">
        <ele>1194.0</ele>
        <time>2019-08-04T10:41:37.312Z</time>
      </trkpt>
      <trkpt lat="42.45993833" lon="1.49639667">
        <ele>1194.0</ele>
        <time>2019-08-04T10:41:38.332Z</time>
      </trkpt>
      <trkpt lat="42.46012" lon="1.49656167">
        <ele>1192.0</ele>
        <time>2019-08-04T10:41:39.318Z</time>
      </trkpt>
      <trkpt lat="42.46012" lon="1.49656167">
        <ele>1192.0</ele>
        <time>2019-08-04T10:41:40.334Z</time>
      </trkpt>
      <trkpt lat="42.460305" lon="1.49675">
        <ele>1190.0</ele>
        <time>2019-08-04T10:41:41.297Z</time>
      </trkpt>
      <trkpt lat="42.460305" lon="1.49675">
        <ele>1190.0</ele>
        <time>2019-08-04T10:41:42.334Z</time>
      </trkpt>
      <trkpt lat="42.46049333" lon="1.496945">
        <ele>1188.0</ele>
        <time>2019-08-04T10:41:43.335Z</time>
      </trkpt>
      <trkpt lat="42.46049333" lon="1.496945">
        <ele>1188.0</ele>
        <time>2019-08-04T10:41:44.333Z</time>
      </trkpt>
      <trkpt lat="42.46068833" lon="1.497155">
        <ele>1186.0</ele>
        <time>2019-08-04T10:41:45.335Z</time>
      </trkpt>
      <trkpt lat="42.46068833" lon="1.497155">
        <ele>1186.0</ele>
        <time>2019-08-04T10:41:46.330Z</time>
      </trkpt>
      <trkpt lat="42.46087" lon="1.49736167">
        <ele>1184.0</ele>
        <time>2019-08-04T10:41:47.310Z</time>
      </trkpt>
      <trkpt lat="42.46087" lon="1.49736167">
        <ele>1184.0</ele>
        <time>2019-08-04T10:41:48.332Z</time>
      </trkpt>
      <trkpt lat="42.46098833" lon="1.49759833">
        <ele>1182.0</ele>
        <time>2019-08-04T10:41:49.316Z</time>
      </trkpt>
      <trkpt lat="42.46098833" lon="1.49759833">
        <ele>1182.0</ele>
        <time>2019-08-04T10:41:50.332Z</time>
      </trkpt>
      <trkpt lat="42.461045" lon="1.4979">
        <ele>1180.0</ele>
        <time>2019-08-04T10:41:51.296Z</time>
      </trkpt>
      <trkpt lat="42.461045" lon="1.4979">
        <ele>1180.0</ele>
        <time>2019-08-04T10:41:52.333Z</time>
      </trkpt>
      <trkpt lat="42.46112" lon="1.49820667">
        <ele>1178.0</ele>
        <time>2019-08-04T10:41:53.296Z</time>
      </trkpt>
      <trkpt lat="42.46112" lon="1.49820667">
        <ele>1178.0</ele>
        <time>2019-08-04T10:41:54.298Z</time>
      </trkpt>
      <trkpt lat="42.46121" lon="1.49851">
        <ele>1176.0</ele>
        <time>2019-08-04T10:41:55.332Z</time>
      </trkpt>
      <trkpt lat="42.461255" lon="1.49867667">
        <ele>1175.0</ele>
        <time>2019-08-04T10:41:56.296Z</time>
      </trkpt>
      <trkpt lat="42.461255" lon="1.49867667">
        <ele>1175.0</ele>
        <time>2019-08-04T10:41:57.317Z</time>
      </trkpt>
      <trkpt lat="42.461335" lon="1.49901833">
        <ele>1173.0</ele>
        <time>2019-08-04T10:41:58.299Z</time>
      </trkpt>
      <trkpt lat="42.46137167" lon="1.49919167">
        <ele>1172.0</ele>
        <time>2019-08-04T10:41:59.317Z</time>
      </trkpt>
      <trkpt lat="42.46137167" lon="1.49919167">
        <ele>1172.0</ele>
        <time>2019-08-04T10:42:00.333Z</time>
      </trkpt>
      <trkpt lat="42.46144667" lon="1.49952667">
        <ele>1170.0</ele>
        <time>2019-08-04T10:42:01.296Z</time>
      </trkpt>
      <trkpt lat="42.46144667" lon="1.49952667">
        <ele>1170.0</ele>
        <time>2019-08-04T10:42:02.316Z</time>
      </trkpt>
      <trkpt lat="42.46152333" lon="1.49985667">
        <ele>1168.0</ele>
        <time>2019-08-04T10:42:03.308Z</time>
      </trkpt>
      <trkpt lat="42.46152333" lon="1.49985667">
        <ele>1168.0</ele>
        <time>2019-08-04T10:42:04.333Z</time>
      </trkpt>
      <trkpt lat="42.46158667" lon="1.50016667">
        <ele>1165.0</ele>
        <time>2019-08-04T10:42:05.297Z</time>
      </trkpt>
      <trkpt lat="42.46158667" lon="1.50016667">
        <ele>1165.0</ele>
        <time>2019-08-04T10:42:06.333Z</time>
      </trkpt>
      <trkpt lat="42.46164333" lon="1.50046333">
        <ele>1163.0</ele>
        <time>2019-08-04T10:42:07.335Z</time>
      </trkpt>
      <trkpt lat="42.46164333" lon="1.50046333">
        <ele>1163.0</ele>
        <time>2019-08-04T10:42:08.332Z</time>
      </trkpt>
      <trkpt lat="42.46174167" lon="1.50073167">
        <ele>1162.0</ele>
        <time>2019-08-04T10:42:09.319Z</time>
      </trkpt>
      <trkpt lat="42.46174167" lon="1.50073167">
        <ele>1162.0</ele>
        <time>2019-08-04T10:42:10.335Z</time>
      </trkpt>
      <trkpt lat="42.46188333" lon="1.50094333">
        <ele>1160.0</ele>
        <time>2019-08-04T10:42:11.331Z</time>
      </trkpt>
      <trkpt lat="42.46188333" lon="1.50094333">
        <ele>1160.0</ele>
        <time>2019-08-04T10:42:12.332Z</time>
      </trkpt>
      <trkpt lat="42.462035" lon="1.50113833">
        <ele>1158.0</ele>
        <time>2019-08-04T10:42:13.335Z</time>
      </trkpt>
      <trkpt lat="42.462035" lon="1.50113833">
        <ele>1158.0</ele>
        <time>2019-08-04T10:42:14.333Z</time>
      </trkpt>
      <trkpt lat="42.46217" lon="1.50136333">
        <ele>1156.0</ele>
        <time>2019-08-04T10:42:15.335Z</time>
      </trkpt>
      <trkpt lat="42.46217" lon="1.50136333">
        <ele>1156.0</ele>
        <time>2019-08-04T10:42:16.334Z</time>
      </trkpt>
      <trkpt lat="42.462285" lon="1.50160167">
        <ele>1154.0</ele>
        <time>2019-08-04T10:42:17.316Z</time>
      </trkpt>
      <trkpt lat="42.462285" lon="1.50160167">
        <ele>1154.0</ele>
        <time>2019-08-04T10:42:18.299Z</time>
      </trkpt>
      <trkpt lat="42.46238833" lon="1.50181">
        <ele>1152.0</ele>
        <time>2019-08-04T10:42:19.304Z</time>
      </trkpt>
      <trkpt lat="42.46238833" lon="1.50181">
        <ele>1152.0</ele>
        <time>2019-08-04T10:42:20.331Z</time>
      </trkpt>
      <trkpt lat="42.462475" lon="1.501965">
        <ele>1151.0</ele>
        <time>2019-08-04T10:42:21.297Z</time>
      </trkpt>
      <trkpt lat="42.462475" lon="1.501965">
        <ele>1151.0</ele>
        <time>2019-08-04T10:42:22.333Z</time>
      </trkpt>
      <trkpt lat="42.46258167" lon="1.50198667">
        <ele>1149.0</ele>
        <time>2019-08-04T10:42:23.296Z</time>
      </trkpt>
      <trkpt lat="42.46258167" lon="1.50198667">
        <ele>1149.0</ele>
        <time>2019-08-04T10:42:24.332Z</time>
      </trkpt>
      <trkpt lat="42.46265333" lon="1.50186667">
        <ele>1147.0</ele>
        <time>2019-08-04T10:42:25.296Z</time>
      </trkpt>
      <trkpt lat="42.46265333" lon="1.50186667">
        <ele>1147.0</ele>
        <time>2019-08-04T10:42:26.333Z</time>
      </trkpt>
      <trkpt lat="42.46263" lon="1.50169">
        <ele>1146.0</ele>
        <time>2019-08-04T10:42:27.297Z</time>
      </trkpt>
      <trkpt lat="42.46263" lon="1.50169">
        <ele>1146.0</ele>
        <time>2019-08-04T10:42:28.333Z</time>
      </trkpt>
      <trkpt lat="42.46256667" lon="1.50148167">
        <ele>1144.0</ele>
        <time>2019-08-04T10:42:29.335Z</time>
      </trkpt>
      <trkpt lat="42.46256667" lon="1.50148167">
        <ele>1144.0</ele>
        <time>2019-08-04T10:42:30.317Z</time>
      </trkpt>
      <trkpt lat="42.46248167" lon="1.501255">
        <ele>1142.0</ele>
        <time>2019-08-04T10:42:31.326Z</time>
      </trkpt>
      <trkpt lat="42.46248167" lon="1.501255">
        <ele>1142.0</ele>
        <time>2019-08-04T10:42:32.332Z</time>
      </trkpt>
      <trkpt lat="42.46237333" lon="1.50102833">
        <ele>1141.0</ele>
        <time>2019-08-04T10:42:33.304Z</time>
      </trkpt>
      <trkpt lat="42.46237333" lon="1.50102833">
        <ele>1141.0</ele>
        <time>2019-08-04T10:42:34.333Z</time>
      </trkpt>
      <trkpt lat="42.46226167" lon="1.50078667">
        <ele>1139.0</ele>
        <time>2019-08-04T10:42:35.296Z</time>
      </trkpt>
      <trkpt lat="42.46226167" lon="1.50078667">
        <ele>1139.0</ele>
        <time>2019-08-04T10:42:36.308Z</time>
      </trkpt>
      <trkpt lat="42.46216167" lon="1.500555">
        <ele>1138.0</ele>
        <time>2019-08-04T10:42:37.335Z</time>
      </trkpt>
      <trkpt lat="42.462135" lon="1.50042667">
        <ele>1138.0</ele>
        <time>2019-08-04T10:42:38.296Z</time>
      </trkpt>
      <trkpt lat="42.46211333" lon="1.50029">
        <ele>1137.0</ele>
        <time>2019-08-04T10:42:39.314Z</time>
      </trkpt>
      <trkpt lat="42.46211333" lon="1.50029">
        <ele>1137.0</ele>
        <time>2019-08-04T10:42:40.334Z</time>
      </trkpt>
      <trkpt lat="42.462085" lon="1.49999833">
        <ele>1136.0</ele>
        <time>2019-08-04T10:42:41.296Z</time>
      </trkpt>
      <trkpt lat="42.462085" lon="1.49999833">
        <ele>1136.0</ele>
        <time>2019-08-04T10:42:42.333Z</time>
      </trkpt>
      <trkpt lat="42.46208" lon="1.499695">
        <ele>1134.0</ele>
        <time>2019-08-04T10:42:43.296Z</time>
      </trkpt>
      <trkpt lat="42.46208" lon="1.499695">
        <ele>1134.0</ele>
        <time>2019-08-04T10:42:44.317Z</time>
      </trkpt>
      <trkpt lat="42.462105" lon="1.499405">
        <ele>1132.0</ele>
        <time>2019-08-04T10:42:45.298Z</time>
      </trkpt>
      <trkpt lat="42.462105" lon="1.499405">
        <ele>1132.0</ele>
        <time>2019-08-04T10:42:46.331Z</time>
      </trkpt>
      <trkpt lat="42.46212667" lon="1.49913167">
        <ele>1130.0</ele>
        <time>2019-08-04T10:42:47.316Z</time>
      </trkpt>
      <trkpt lat="42.46212667" lon="1.49913167">
        <ele>1130.0</ele>
        <time>2019-08-04T10:42:48.298Z</time>
      </trkpt>
      <trkpt lat="42.46214333" lon="1.498865">
        <ele>1128.0</ele>
        <time>2019-08-04T10:42:49.314Z</time>
      </trkpt>
      <trkpt lat="42.46214333" lon="1.498865">
        <ele>1128.0</ele>
        <time>2019-08-04T10:42:50.332Z</time>
      </trkpt>
      <trkpt lat="42.462145" lon="1.498605">
        <ele>1127.0</ele>
        <time>2019-08-04T10:42:51.298Z</time>
      </trkpt>
      <trkpt lat="42.462145" lon="1.498605">
        <ele>1127.0</ele>
        <time>2019-08-04T10:42:52.333Z</time>
      </trkpt>
      <trkpt lat="42.46206833" lon="1.49835167">
        <ele>1126.0</ele>
        <time>2019-08-04T10:42:53.296Z</time>
      </trkpt>
      <trkpt lat="42.46206833" lon="1.49835167">
        <ele>1126.0</ele>
        <time>2019-08-04T10:42:54.296Z</time>
      </trkpt>
      <trkpt lat="42.46198833" lon="1.49810833">
        <ele>1124.0</ele>
        <time>2019-08-04T10:42:55.311Z</time>
      </trkpt>
      <trkpt lat="42.46196333" lon="1.49798833">
        <ele>1124.0</ele>
        <time>2019-08-04T10:42:56.335Z</time>
      </trkpt>
      <trkpt lat="42.461935" lon="1.49786833">
        <ele>1123.0</ele>
        <time>2019-08-04T10:42:57.298Z</time>
      </trkpt>
      <trkpt lat="42.461935" lon="1.49786833">
        <ele>1123.0</ele>
        <time>2019-08-04T10:42:58.330Z</time>
      </trkpt>
      <trkpt lat="42.46187167" lon="1.49762833">
        <ele>1122.0</ele>
        <time>2019-08-04T10:42:59.314Z</time>
      </trkpt>
      <trkpt lat="42.46187167" lon="1.49762833">
        <ele>1122.0</ele>
        <time>2019-08-04T10:43:00.334Z</time>
      </trkpt>
      <trkpt lat="42.46183667" lon="1.49739">
        <ele>1121.0</ele>
        <time>2019-08-04T10:43:01.327Z</time>
      </trkpt>
      <trkpt lat="42.46183667" lon="1.49739">
        <ele>1121.0</ele>
        <time>2019-08-04T10:43:02.305Z</time>
      </trkpt>
      <trkpt lat="42.46185333" lon="1.49716833">
        <ele>1120.0</ele>
        <time>2019-08-04T10:43:03.304Z</time>
      </trkpt>
      <trkpt lat="42.46185333" lon="1.49716833">
        <ele>1120.0</ele>
        <time>2019-08-04T10:43:04.334Z</time>
      </trkpt>
      <trkpt lat="42.4619" lon="1.49693333">
        <ele>1119.0</ele>
        <time>2019-08-04T10:43:05.309Z</time>
      </trkpt>
      <trkpt lat="42.4619" lon="1.49693333">
        <ele>1119.0</ele>
        <time>2019-08-04T10:43:06.335Z</time>
      </trkpt>
      <trkpt lat="42.46188667" lon="1.49667667">
        <ele>1118.0</ele>
        <time>2019-08-04T10:43:07.317Z</time>
      </trkpt>
      <trkpt lat="42.46184833" lon="1.496545">
        <ele>1117.0</ele>
        <time>2019-08-04T10:43:08.298Z</time>
      </trkpt>
      <trkpt lat="42.46179667" lon="1.49641667">
        <ele>1116.0</ele>
        <time>2019-08-04T10:43:09.316Z</time>
      </trkpt>
      <trkpt lat="42.46179667" lon="1.49641667">
        <ele>1116.0</ele>
        <time>2019-08-04T10:43:10.332Z</time>
      </trkpt>
      <trkpt lat="42.461685" lon="1.496155">
        <ele>1114.0</ele>
        <time>2019-08-04T10:43:11.296Z</time>
      </trkpt>
      <trkpt lat="42.461685" lon="1.496155">
        <ele>1114.0</ele>
        <time>2019-08-04T10:43:12.334Z</time>
      </trkpt>
      <trkpt lat="42.46156333" lon="1.49587">
        <ele>1111.0</ele>
        <time>2019-08-04T10:43:13.329Z</time>
      </trkpt>
      <trkpt lat="42.46156333" lon="1.49587">
        <ele>1111.0</ele>
        <time>2019-08-04T10:43:14.330Z</time>
      </trkpt>
      <trkpt lat="42.46143333" lon="1.495555">
        <ele>1108.0</ele>
        <time>2019-08-04T10:43:15.297Z</time>
      </trkpt>
      <trkpt lat="42.46143333" lon="1.495555">
        <ele>1108.0</ele>
        <time>2019-08-04T10:43:16.333Z</time>
      </trkpt>
      <trkpt lat="42.461305" lon="1.49523667">
        <ele>1104.0</ele>
        <time>2019-08-04T10:43:17.302Z</time>
      </trkpt>
      <trkpt lat="42.461305" lon="1.49523667">
        <ele>1104.0</ele>
        <time>2019-08-04T10:43:18.333Z</time>
      </trkpt>
      <trkpt lat="42.46117333" lon="1.49495833">
        <ele>1102.0</ele>
        <time>2019-08-04T10:43:19.313Z</time>
      </trkpt>
      <trkpt lat="42.46117333" lon="1.49495833">
        <ele>1102.0</ele>
        <time>2019-08-04T10:43:20.333Z</time>
      </trkpt>
      <trkpt lat="42.46099" lon="1.49473333">
        <ele>1099.0</ele>
        <time>2019-08-04T10:43:21.298Z</time>
      </trkpt>
      <trkpt lat="42.46099" lon="1.49473333">
        <ele>1099.0</ele>
        <time>2019-08-04T10:43:22.333Z</time>
      </trkpt>
      <trkpt lat="42.46082167" lon="1.49459333">
        <ele>1097.0</ele>
        <time>2019-08-04T10:43:23.296Z</time>
      </trkpt>
      <trkpt lat="42.46075667" lon="1.49456167">
        <ele>1096.0</ele>
        <time>2019-08-04T10:43:24.296Z</time>
      </trkpt>
      <trkpt lat="42.46075667" lon="1.49456167">
        <ele>1096.0</ele>
        <time>2019-08-04T10:43:25.331Z</time>
      </trkpt>
      <trkpt lat="42.46069" lon="1.49443833">
        <ele>1095.0</ele>
        <time>2019-08-04T10:43:26.312Z</time>
      </trkpt>
      <trkpt lat="42.46072333" lon="1.49439167">
        <ele>1094.0</ele>
        <time>2019-08-04T10:43:27.299Z</time>
      </trkpt>
      <trkpt lat="42.46072333" lon="1.49439167">
        <ele>1094.0</ele>
        <time>2019-08-04T10:43:28.330Z</time>
      </trkpt>
      <trkpt lat="42.46084667" lon="1.49442333">
        <ele>1092.0</ele>
        <time>2019-08-04T10:43:29.303Z</time>
      </trkpt>
      <trkpt lat="42.46084667" lon="1.49442333">
        <ele>1092.0</ele>
        <time>2019-08-04T10:43:30.317Z</time>
      </trkpt>
      <trkpt lat="42.46099167" lon="1.49455">
        <ele>1092.0</ele>
        <time>2019-08-04T10:43:31.327Z</time>
      </trkpt>
      <trkpt lat="42.461075" lon="1.49462333">
        <ele>1090.0</ele>
        <time>2019-08-04T10:43:32.297Z</time>
      </trkpt>
      <trkpt lat="42.461075" lon="1.49462333">
        <ele>1090.0</ele>
        <time>2019-08-04T10:43:33.335Z</time>
      </trkpt>
      <trkpt lat="42.46125667" lon="1.49477833">
        <ele>1088.0</ele>
        <time>2019-08-04T10:43:34.335Z</time>
      </trkpt>
      <trkpt lat="42.46135833" lon="1.49486167">
        <ele>1087.0</ele>
        <time>2019-08-04T10:43:35.297Z</time>
      </trkpt>
      <trkpt lat="42.46135833" lon="1.49486167">
        <ele>1087.0</ele>
        <time>2019-08-04T10:43:36.330Z</time>
      </trkpt>
      <trkpt lat="42.46157667" lon="1.49503667">
        <ele>1084.0</ele>
        <time>2019-08-04T10:43:37.321Z</time>
      </trkpt>
      <trkpt lat="42.46157667" lon="1.49503667">
        <ele>1084.0</ele>
        <time>2019-08-04T10:43:38.296Z</time>
      </trkpt>
      <trkpt lat="42.46182" lon="1.49521">
        <ele>1083.0</ele>
        <time>2019-08-04T10:43:39.320Z</time>
      </trkpt>
      <trkpt lat="42.46182" lon="1.49521">
        <ele>1083.0</ele>
        <time>2019-08-04T10:43:40.296Z</time>
      </trkpt>
      <trkpt lat="42.46208167" lon="1.4954">
        <ele>1080.0</ele>
        <time>2019-08-04T10:43:41.296Z</time>
      </trkpt>
      <trkpt lat="42.46208167" lon="1.4954">
        <ele>1080.0</ele>
        <time>2019-08-04T10:43:42.304Z</time>
      </trkpt>
      <trkpt lat="42.46233" lon="1.495625">
        <ele>1076.0</ele>
        <time>2019-08-04T10:43:43.296Z</time>
      </trkpt>
      <trkpt lat="42.46242833" lon="1.49574167">
        <ele>1075.0</ele>
        <time>2019-08-04T10:43:44.306Z</time>
      </trkpt>
      <trkpt lat="42.46250333" lon="1.49585667">
        <ele>1074.0</ele>
        <time>2019-08-04T10:43:45.299Z</time>
      </trkpt>
      <trkpt lat="42.46250333" lon="1.49585667">
        <ele>1074.0</ele>
        <time>2019-08-04T10:43:46.331Z</time>
      </trkpt>
      <trkpt lat="42.46258667" lon="1.49610667">
        <ele>1071.0</ele>
        <time>2019-08-04T10:43:47.312Z</time>
      </trkpt>
      <trkpt lat="42.46258667" lon="1.49610667">
        <ele>1071.0</ele>
        <time>2019-08-04T10:43:48.300Z</time>
      </trkpt>
      <trkpt lat="42.46265" lon="1.496265">
        <ele>1069.0</ele>
        <time>2019-08-04T10:43:49.317Z</time>
      </trkpt>
      <trkpt lat="42.46265" lon="1.496265">
        <ele>1069.0</ele>
        <time>2019-08-04T10:43:50.334Z</time>
      </trkpt>
      <trkpt lat="42.46277" lon="1.49628167">
        <ele>1067.0</ele>
        <time>2019-08-04T10:43:51.298Z</time>
      </trkpt>
      <trkpt lat="42.46277" lon="1.49628167">
        <ele>1067.0</ele>
        <time>2019-08-04T10:43:52.333Z</time>
      </trkpt>
      <trkpt lat="42.46282833" lon="1.49611">
        <ele>1065.0</ele>
        <time>2019-08-04T10:43:53.336Z</time>
      </trkpt>
      <trkpt lat="42.46282833" lon="1.49611">
        <ele>1065.0</ele>
        <time>2019-08-04T10:43:54.333Z</time>
      </trkpt>
      <trkpt lat="42.46275833" lon="1.49589167">
        <ele>1063.0</ele>
        <time>2019-08-04T10:43:55.296Z</time>
      </trkpt>
      <trkpt lat="42.46270167" lon="1.49577833">
        <ele>1062.0</ele>
        <time>2019-08-04T10:43:56.297Z</time>
      </trkpt>
      <trkpt lat="42.46270167" lon="1.49577833">
        <ele>1062.0</ele>
        <time>2019-08-04T10:43:57.335Z</time>
      </trkpt>
      <trkpt lat="42.46258833" lon="1.49551667">
        <ele>1060.0</ele>
        <time>2019-08-04T10:43:58.296Z</time>
      </trkpt>
      <trkpt lat="42.46252667" lon="1.49537667">
        <ele>1059.0</ele>
        <time>2019-08-04T10:43:59.312Z</time>
      </trkpt>
      <trkpt lat="42.46252667" lon="1.49537667">
        <ele>1059.0</ele>
        <time>2019-08-04T10:44:00.333Z</time>
      </trkpt>
      <trkpt lat="42.46239667" lon="1.49507333">
        <ele>1056.0</ele>
        <time>2019-08-04T10:44:01.308Z</time>
      </trkpt>
      <trkpt lat="42.46239667" lon="1.49507333">
        <ele>1056.0</ele>
        <time>2019-08-04T10:44:02.308Z</time>
      </trkpt>
      <trkpt lat="42.46224167" lon="1.49475333">
        <ele>1053.0</ele>
        <time>2019-08-04T10:44:03.307Z</time>
      </trkpt>
      <trkpt lat="42.46224167" lon="1.49475333">
        <ele>1053.0</ele>
        <time>2019-08-04T10:44:04.333Z</time>
      </trkpt>
      <trkpt lat="42.46205833" lon="1.49443833">
        <ele>1049.0</ele>
        <time>2019-08-04T10:44:05.297Z</time>
      </trkpt>
      <trkpt lat="42.46205833" lon="1.49443833">
        <ele>1049.0</ele>
        <time>2019-08-04T10:44:06.330Z</time>
      </trkpt>
      <trkpt lat="42.461855" lon="1.49414167">
        <ele>1046.0</ele>
        <time>2019-08-04T10:44:07.316Z</time>
      </trkpt>
      <trkpt lat="42.461855" lon="1.49414167">
        <ele>1046.0</ele>
        <time>2019-08-04T10:44:08.296Z</time>
      </trkpt>
      <trkpt lat="42.46164667" lon="1.49386667">
        <ele>1042.0</ele>
        <time>2019-08-04T10:44:09.319Z</time>
      </trkpt>
      <trkpt lat="42.46164667" lon="1.49386667">
        <ele>1042.0</ele>
        <time>2019-08-04T10:44:10.334Z</time>
      </trkpt>
      <trkpt lat="42.46143" lon="1.493595">
        <ele>1038.0</ele>
        <time>2019-08-04T10:44:11.328Z</time>
      </trkpt>
      <trkpt lat="42.46143" lon="1.493595">
        <ele>1038.0</ele>
        <time>2019-08-04T10:44:12.334Z</time>
      </trkpt>
      <trkpt lat="42.46122333" lon="1.49329667">
        <ele>1034.0</ele>
        <time>2019-08-04T10:44:13.296Z</time>
      </trkpt>
      <trkpt lat="42.46122333" lon="1.49329667">
        <ele>1034.0</ele>
        <time>2019-08-04T10:44:14.306Z</time>
      </trkpt>
      <trkpt lat="42.46103333" lon="1.49296667">
        <ele>1030.0</ele>
        <time>2019-08-04T10:44:15.299Z</time>
      </trkpt>
      <trkpt lat="42.46094833" lon="1.49279833">
        <ele>1028.0</ele>
        <time>2019-08-04T10:44:16.334Z</time>
      </trkpt>
      <trkpt lat="42.46094833" lon="1.49279833">
        <ele>1028.0</ele>
        <time>2019-08-04T10:44:17.334Z</time>
      </trkpt>
      <trkpt lat="42.460805" lon="1.4925">
        <ele>1025.0</ele>
        <time>2019-08-04T10:44:18.296Z</time>
      </trkpt>
      <trkpt lat="42.460805" lon="1.4925">
        <ele>1025.0</ele>
        <time>2019-08-04T10:44:19.315Z</time>
      </trkpt>
      <trkpt lat="42.46069167" lon="1.492255">
        <ele>1023.0</ele>
        <time>2019-08-04T10:44:20.296Z</time>
      </trkpt>
      <trkpt lat="42.46064167" lon="1.49215">
        <ele>1021.0</ele>
        <time>2019-08-04T10:44:21.312Z</time>
      </trkpt>
      <trkpt lat="42.46064167" lon="1.49215">
        <ele>1021.0</ele>
        <time>2019-08-04T10:44:22.296Z</time>
      </trkpt>
      <trkpt lat="42.46055333" lon="1.49196167">
        <ele>1020.0</ele>
        <time>2019-08-04T10:44:23.334Z</time>
      </trkpt>
      <trkpt lat="42.46055333" lon="1.49196167">
        <ele>1020.0</ele>
        <time>2019-08-04T10:44:24.333Z</time>
      </trkpt>
      <trkpt lat="42.46047" lon="1.49179">
        <ele>1018.0</ele>
        <time>2019-08-04T10:44:25.300Z</time>
      </trkpt>
      <trkpt lat="42.46043" lon="1.491715">
        <ele>1018.0</ele>
        <time>2019-08-04T10:44:26.296Z</time>
      </trkpt>
      <trkpt lat="42.46043" lon="1.491715">
        <ele>1018.0</ele>
        <time>2019-08-04T10:44:27.335Z</time>
      </trkpt>
      <trkpt lat="42.46036667" lon="1.49159167">
        <ele>1016.0</ele>
        <time>2019-08-04T10:44:28.296Z</time>
      </trkpt>
      <trkpt lat="42.46036667" lon="1.49159167">
        <ele>1016.0</ele>
        <time>2019-08-04T10:44:29.299Z</time>
      </trkpt>
      <trkpt lat="42.46038" lon="1.49148833">
        <ele>1014.0</ele>
        <time>2019-08-04T10:44:30.305Z</time>
      </trkpt>
      <trkpt lat="42.46038" lon="1.49148833">
        <ele>1014.0</ele>
        <time>2019-08-04T10:44:31.312Z</time>
      </trkpt>
      <trkpt lat="42.460475" lon="1.49149333">
        <ele>1013.0</ele>
        <time>2019-08-04T10:44:32.303Z</time>
      </trkpt>
      <trkpt lat="42.460475" lon="1.49149333">
        <ele>1013.0</ele>
        <time>2019-08-04T10:44:33.332Z</time>
      </trkpt>
      <trkpt lat="42.46057333" lon="1.49162667">
        <ele>1012.0</ele>
        <time>2019-08-04T10:44:34.297Z</time>
      </trkpt>
      <trkpt lat="42.46062333" lon="1.49171167">
        <ele>1012.0</ele>
        <time>2019-08-04T10:44:35.297Z</time>
      </trkpt>
      <trkpt lat="42.46062333" lon="1.49171167">
        <ele>1012.0</ele>
        <time>2019-08-04T10:44:36.334Z</time>
      </trkpt>
      <trkpt lat="42.46074333" lon="1.49189">
        <ele>1011.0</ele>
        <time>2019-08-04T10:44:37.296Z</time>
      </trkpt>
      <trkpt lat="42.46074333" lon="1.49189">
        <ele>1011.0</ele>
        <time>2019-08-04T10:44:38.333Z</time>
      </trkpt>
      <trkpt lat="42.46089" lon="1.49207667">
        <ele>1008.0</ele>
        <time>2019-08-04T10:44:39.315Z</time>
      </trkpt>
      <trkpt lat="42.46089" lon="1.49207667">
        <ele>1008.0</ele>
        <time>2019-08-04T10:44:40.333Z</time>
      </trkpt>
      <trkpt lat="42.461065" lon="1.492255">
        <ele>1006.0</ele>
        <time>2019-08-04T10:44:41.334Z</time>
      </trkpt>
      <trkpt lat="42.461065" lon="1.492255">
        <ele>1006.0</ele>
        <time>2019-08-04T10:44:42.334Z</time>
      </trkpt>
      <trkpt lat="42.46126167" lon="1.49240833">
        <ele>1005.0</ele>
        <time>2019-08-04T10:44:43.297Z</time>
      </trkpt>
      <trkpt lat="42.46126167" lon="1.49240833">
        <ele>1005.0</ele>
        <time>2019-08-04T10:44:44.334Z</time>
      </trkpt>
      <trkpt lat="42.46148333" lon="1.49255333">
        <ele>1002.0</ele>
        <time>2019-08-04T10:44:45.297Z</time>
      </trkpt>
      <trkpt lat="42.46159667" lon="1.492635">
        <ele>1001.0</ele>
        <time>2019-08-04T10:44:46.296Z</time>
      </trkpt>
      <trkpt lat="42.46171167" lon="1.49272667">
        <ele>999.0</ele>
        <time>2019-08-04T10:44:47.297Z</time>
      </trkpt>
      <trkpt lat="42.46171167" lon="1.49272667">
        <ele>999.0</ele>
        <time>2019-08-04T10:44:48.331Z</time>
      </trkpt>
      <trkpt lat="42.46194333" lon="1.49294333">
        <ele>996.0</ele>
        <time>2019-08-04T10:44:49.318Z</time>
      </trkpt>
      <trkpt lat="42.46194333" lon="1.49294333">
        <ele>996.0</ele>
        <time>2019-08-04T10:44:50.335Z</time>
      </trkpt>
      <trkpt lat="42.46219667" lon="1.49311833">
        <ele>993.0</ele>
        <time>2019-08-04T10:44:51.299Z</time>
      </trkpt>
      <trkpt lat="42.46219667" lon="1.49311833">
        <ele>993.0</ele>
        <time>2019-08-04T10:44:52.334Z</time>
      </trkpt>
      <trkpt lat="42.462465" lon="1.493225">
        <ele>990.0</ele>
        <time>2019-08-04T10:44:53.334Z</time>
      </trkpt>
      <trkpt lat="42.462465" lon="1.493225">
        <ele>990.0</ele>
        <time>2019-08-04T10:44:54.333Z</time>
      </trkpt>
      <trkpt lat="42.46269833" lon="1.493355">
        <ele>987.0</ele>
        <time>2019-08-04T10:44:55.334Z</time>
      </trkpt>
      <trkpt lat="42.46269833" lon="1.493355">
        <ele>987.0</ele>
        <time>2019-08-04T10:44:56.332Z</time>
      </trkpt>
      <trkpt lat="42.46292167" lon="1.49345167">
        <ele>984.0</ele>
        <time>2019-08-04T10:44:57.313Z</time>
      </trkpt>
      <trkpt lat="42.46292167" lon="1.49345167">
        <ele>984.0</ele>
        <time>2019-08-04T10:44:58.335Z</time>
      </trkpt>
      <trkpt lat="42.46314833" lon="1.49351833">
        <ele>981.0</ele>
        <time>2019-08-04T10:44:59.319Z</time>
      </trkpt>
      <trkpt lat="42.46314833" lon="1.49351833">
        <ele>981.0</ele>
        <time>2019-08-04T10:45:00.334Z</time>
      </trkpt>
      <trkpt lat="42.46337" lon="1.49356333">
        <ele>978.0</ele>
        <time>2019-08-04T10:45:01.296Z</time>
      </trkpt>
      <trkpt lat="42.46337" lon="1.49356333">
        <ele>978.0</ele>
        <time>2019-08-04T10:45:02.318Z</time>
      </trkpt>
      <trkpt lat="42.46357667" lon="1.49359833">
        <ele>974.0</ele>
        <time>2019-08-04T10:45:03.331Z</time>
      </trkpt>
      <trkpt lat="42.46357667" lon="1.49359833">
        <ele>974.0</ele>
        <time>2019-08-04T10:45:04.334Z</time>
      </trkpt>
      <trkpt lat="42.46376833" lon="1.49365833">
        <ele>971.0</ele>
        <time>2019-08-04T10:45:05.334Z</time>
      </trkpt>
      <trkpt lat="42.46376833" lon="1.49365833">
        <ele>971.0</ele>
        <time>2019-08-04T10:45:06.334Z</time>
      </trkpt>
      <trkpt lat="42.46394167" lon="1.49378333">
        <ele>970.0</ele>
        <time>2019-08-04T10:45:07.296Z</time>
      </trkpt>
      <trkpt lat="42.46401667" lon="1.493865">
        <ele>969.0</ele>
        <time>2019-08-04T10:45:08.297Z</time>
      </trkpt>
      <trkpt lat="42.46401667" lon="1.493865">
        <ele>969.0</ele>
        <time>2019-08-04T10:45:09.317Z</time>
      </trkpt>
      <trkpt lat="42.46411167" lon="1.494065">
        <ele>966.0</ele>
        <time>2019-08-04T10:45:10.297Z</time>
      </trkpt>
      <trkpt lat="42.46411833" lon="1.49418833">
        <ele>965.0</ele>
        <time>2019-08-04T10:45:11.313Z</time>
      </trkpt>
      <trkpt lat="42.46411167" lon="1.49431167">
        <ele>964.0</ele>
        <time>2019-08-04T10:45:12.334Z</time>
      </trkpt>
      <trkpt lat="42.46411167" lon="1.49431167">
        <ele>964.0</ele>
        <time>2019-08-04T10:45:13.334Z</time>
      </trkpt>
      <trkpt lat="42.464115" lon="1.49453667">
        <ele>962.0</ele>
        <time>2019-08-04T10:45:14.297Z</time>
      </trkpt>
      <trkpt lat="42.46415167" lon="1.49463">
        <ele>961.0</ele>
        <time>2019-08-04T10:45:15.298Z</time>
      </trkpt>
      <trkpt lat="42.46415167" lon="1.49463">
        <ele>961.0</ele>
        <time>2019-08-04T10:45:16.331Z</time>
      </trkpt>
      <trkpt lat="42.46429333" lon="1.49470833">
        <ele>959.0</ele>
        <time>2019-08-04T10:45:17.318Z</time>
      </trkpt>
      <trkpt lat="42.46429333" lon="1.49470833">
        <ele>959.0</ele>
        <time>2019-08-04T10:45:18.300Z</time>
      </trkpt>
      <trkpt lat="42.464455" lon="1.4946">
        <ele>958.0</ele>
        <time>2019-08-04T10:45:19.318Z</time>
      </trkpt>
      <trkpt lat="42.464455" lon="1.4946">
        <ele>958.0</ele>
        <time>2019-08-04T10:45:20.334Z</time>
      </trkpt>
      <trkpt lat="42.46457" lon="1.49437833">
        <ele>956.0</ele>
        <time>2019-08-04T10:45:21.296Z</time>
      </trkpt>
      <trkpt lat="42.46457" lon="1.49437833">
        <ele>956.0</ele>
        <time>2019-08-04T10:45:22.317Z</time>
      </trkpt>
      <trkpt lat="42.46466667" lon="1.49415167">
        <ele>954.0</ele>
        <time>2019-08-04T10:45:23.298Z</time>
      </trkpt>
      <trkpt lat="42.46466667" lon="1.49415167">
        <ele>954.0</ele>
        <time>2019-08-04T10:45:24.297Z</time>
      </trkpt>
      <trkpt lat="42.46477" lon="1.49401667">
        <ele>951.0</ele>
        <time>2019-08-04T10:45:25.335Z</time>
      </trkpt>
      <trkpt lat="42.46483833" lon="1.49402667">
        <ele>950.0</ele>
        <time>2019-08-04T10:45:26.296Z</time>
      </trkpt>
      <trkpt lat="42.46483833" lon="1.49402667">
        <ele>950.0</ele>
        <time>2019-08-04T10:45:27.313Z</time>
      </trkpt>
      <trkpt lat="42.464965" lon="1.49417667">
        <ele>948.0</ele>
        <time>2019-08-04T10:45:28.296Z</time>
      </trkpt>
      <trkpt lat="42.46502333" lon="1.49426333">
        <ele>948.0</ele>
        <time>2019-08-04T10:45:29.297Z</time>
      </trkpt>
      <trkpt lat="42.46502333" lon="1.49426333">
        <ele>948.0</ele>
        <time>2019-08-04T10:45:30.307Z</time>
      </trkpt>
      <trkpt lat="42.46514167" lon="1.49443667">
        <ele>947.0</ele>
        <time>2019-08-04T10:45:31.313Z</time>
      </trkpt>
      <trkpt lat="42.46514167" lon="1.49443667">
        <ele>947.0</ele>
        <time>2019-08-04T10:45:32.335Z</time>
      </trkpt>
      <trkpt lat="42.465265" lon="1.494615">
        <ele>947.0</ele>
        <time>2019-08-04T10:45:33.298Z</time>
      </trkpt>
      <trkpt lat="42.465265" lon="1.494615">
        <ele>947.0</ele>
        <time>2019-08-04T10:45:34.324Z</time>
      </trkpt>
      <trkpt lat="42.46540167" lon="1.494755">
        <ele>945.0</ele>
        <time>2019-08-04T10:45:35.306Z</time>
      </trkpt>
      <trkpt lat="42.46540167" lon="1.494755">
        <ele>945.0</ele>
        <time>2019-08-04T10:45:36.308Z</time>
      </trkpt>
      <trkpt lat="42.46556833" lon="1.49478">
        <ele>943.0</ele>
        <time>2019-08-04T10:45:37.296Z</time>
      </trkpt>
      <trkpt lat="42.46556833" lon="1.49478">
        <ele>943.0</ele>
        <time>2019-08-04T10:45:38.334Z</time>
      </trkpt>
      <trkpt lat="42.46573333" lon="1.494685">
        <ele>941.0</ele>
        <time>2019-08-04T10:45:39.315Z</time>
      </trkpt>
      <trkpt lat="42.46573333" lon="1.494685">
        <ele>941.0</ele>
        <time>2019-08-04T10:45:40.296Z</time>
      </trkpt>
      <trkpt lat="42.46585833" lon="1.4945">
        <ele>937.0</ele>
        <time>2019-08-04T10:45:41.334Z</time>
      </trkpt>
      <trkpt lat="42.46585833" lon="1.4945">
        <ele>937.0</ele>
        <time>2019-08-04T10:45:42.334Z</time>
      </trkpt>
      <trkpt lat="42.46597167" lon="1.494295">
        <ele>934.0</ele>
        <time>2019-08-04T10:45:43.299Z</time>
      </trkpt>
      <trkpt lat="42.46601833" lon="1.494195">
        <ele>933.0</ele>
        <time>2019-08-04T10:45:44.298Z</time>
      </trkpt>
      <trkpt lat="42.46601833" lon="1.494195">
        <ele>933.0</ele>
        <time>2019-08-04T10:45:45.335Z</time>
      </trkpt>
      <trkpt lat="42.46607333" lon="1.49399833">
        <ele>931.0</ele>
        <time>2019-08-04T10:45:46.306Z</time>
      </trkpt>
      <trkpt lat="42.46607333" lon="1.49399833">
        <ele>931.0</ele>
        <time>2019-08-04T10:45:47.334Z</time>
      </trkpt>
      <trkpt lat="42.46609833" lon="1.49380167">
        <ele>929.0</ele>
        <time>2019-08-04T10:45:48.296Z</time>
      </trkpt>
      <trkpt lat="42.46610833" lon="1.49371333">
        <ele>928.0</ele>
        <time>2019-08-04T10:45:49.310Z</time>
      </trkpt>
      <trkpt lat="42.46610833" lon="1.49371333">
        <ele>928.0</ele>
        <time>2019-08-04T10:45:50.334Z</time>
      </trkpt>
      <trkpt lat="42.46612833" lon="1.49352333">
        <ele>926.0</ele>
        <time>2019-08-04T10:45:51.298Z</time>
      </trkpt>
      <trkpt lat="42.46612833" lon="1.49352333">
        <ele>926.0</ele>
        <time>2019-08-04T10:45:52.319Z</time>
      </trkpt>
      <trkpt lat="42.466145" lon="1.49331667">
        <ele>924.0</ele>
        <time>2019-08-04T10:45:53.299Z</time>
      </trkpt>
      <trkpt lat="42.466145" lon="1.49331667">
        <ele>924.0</ele>
        <time>2019-08-04T10:45:54.334Z</time>
      </trkpt>
      <trkpt lat="42.466165" lon="1.49312833">
        <ele>923.0</ele>
        <time>2019-08-04T10:45:55.296Z</time>
      </trkpt>
      <trkpt lat="42.466165" lon="1.49312833">
        <ele>923.0</ele>
        <time>2019-08-04T10:45:56.313Z</time>
      </trkpt>
      <trkpt lat="42.46622667" lon="1.49296">
        <ele>921.0</ele>
        <time>2019-08-04T10:45:57.298Z</time>
      </trkpt>
      <trkpt lat="42.46627833" lon="1.492885">
        <ele>920.0</ele>
        <time>2019-08-04T10:45:58.334Z</time>
      </trkpt>
      <trkpt lat="42.46627833" lon="1.492885">
        <ele>920.0</ele>
        <time>2019-08-04T10:45:59.303Z</time>
      </trkpt>
      <trkpt lat="42.46637833" lon="1.49275667">
        <ele>918.0</ele>
        <time>2019-08-04T10:46:00.331Z</time>
      </trkpt>
      <trkpt lat="42.46637833" lon="1.49275667">
        <ele>918.0</ele>
        <time>2019-08-04T10:46:01.334Z</time>
      </trkpt>
      <trkpt lat="42.46646" lon="1.49264833">
        <ele>915.0</ele>
        <time>2019-08-04T10:46:02.301Z</time>
      </trkpt>
      <trkpt lat="42.466495" lon="1.49258667">
        <ele>915.0</ele>
        <time>2019-08-04T10:46:03.335Z</time>
      </trkpt>
      <trkpt lat="42.466495" lon="1.49258667">
        <ele>915.0</ele>
        <time>2019-08-04T10:46:04.331Z</time>
      </trkpt>
      <trkpt lat="42.46657" lon="1.49245833">
        <ele>913.0</ele>
        <time>2019-08-04T10:46:05.296Z</time>
      </trkpt>
      <trkpt lat="42.46657" lon="1.49245833">
        <ele>913.0</ele>
        <time>2019-08-04T10:46:06.334Z</time>
      </trkpt>
      <trkpt lat="42.466665" lon="1.49234167">
        <ele>911.0</ele>
        <time>2019-08-04T10:46:07.296Z</time>
      </trkpt>
      <trkpt lat="42.466665" lon="1.49234167">
        <ele>911.0</ele>
        <time>2019-08-04T10:46:08.313Z</time>
      </trkpt>
      <trkpt lat="42.46676667" lon="1.492225">
        <ele>909.0</ele>
        <time>2019-08-04T10:46:09.317Z</time>
      </trkpt>
      <trkpt lat="42.46676667" lon="1.492225">
        <ele>909.0</ele>
        <time>2019-08-04T10:46:10.334Z</time>
      </trkpt>
      <trkpt lat="42.46688833" lon="1.49212167">
        <ele>907.0</ele>
        <time>2019-08-04T10:46:11.334Z</time>
      </trkpt>
      <trkpt lat="42.46688833" lon="1.49212167">
        <ele>907.0</ele>
        <time>2019-08-04T10:46:12.334Z</time>
      </trkpt>
      <trkpt lat="42.467005" lon="1.49202833">
        <ele>906.0</ele>
        <time>2019-08-04T10:46:13.298Z</time>
      </trkpt>
      <trkpt lat="42.467005" lon="1.49202833">
        <ele>906.0</ele>
        <time>2019-08-04T10:46:14.334Z</time>
      </trkpt>
      <trkpt lat="42.46703833" lon="1.49187">
        <ele>904.0</ele>
        <time>2019-08-04T10:46:15.300Z</time>
      </trkpt>
      <trkpt lat="42.46703833" lon="1.49187">
        <ele>904.0</ele>
        <time>2019-08-04T10:46:16.334Z</time>
      </trkpt>
      <trkpt lat="42.46694667" lon="1.49179833">
        <ele>903.0</ele>
        <time>2019-08-04T10:46:17.318Z</time>
      </trkpt>
      <trkpt lat="42.466895" lon="1.491805">
        <ele>903.0</ele>
        <time>2019-08-04T10:46:18.299Z</time>
      </trkpt>
      <trkpt lat="42.466895" lon="1.491805">
        <ele>903.0</ele>
        <time>2019-08-04T10:46:19.308Z</time>
      </trkpt>
      <trkpt lat="42.46677833" lon="1.49184667">
        <ele>902.0</ele>
        <time>2019-08-04T10:46:20.297Z</time>
      </trkpt>
      <trkpt lat="42.46677833" lon="1.49184667">
        <ele>902.0</ele>
        <time>2019-08-04T10:46:21.335Z</time>
      </trkpt>
      <trkpt lat="42.466665" lon="1.491815">
        <ele>901.0</ele>
        <time>2019-08-04T10:46:22.318Z</time>
      </trkpt>
      <trkpt lat="42.46661" lon="1.49177667">
        <ele>900.0</ele>
        <time>2019-08-04T10:46:23.300Z</time>
      </trkpt>
      <trkpt lat="42.46661" lon="1.49177667">
        <ele>900.0</ele>
        <time>2019-08-04T10:46:24.334Z</time>
      </trkpt>
      <trkpt lat="42.46650833" lon="1.49171333">
        <ele>899.0</ele>
        <time>2019-08-04T10:46:25.298Z</time>
      </trkpt>
      <trkpt lat="42.46650833" lon="1.49171333">
        <ele>899.0</ele>
        <time>2019-08-04T10:46:26.327Z</time>
      </trkpt>
      <trkpt lat="42.46639833" lon="1.49162667">
        <ele>898.0</ele>
        <time>2019-08-04T10:46:27.306Z</time>
      </trkpt>
      <trkpt lat="42.46639833" lon="1.49162667">
        <ele>898.0</ele>
        <time>2019-08-04T10:46:28.334Z</time>
      </trkpt>
      <trkpt lat="42.4663" lon="1.49151833">
        <ele>897.0</ele>
        <time>2019-08-04T10:46:29.299Z</time>
      </trkpt>
      <trkpt lat="42.46624667" lon="1.491455">
        <ele>897.0</ele>
        <time>2019-08-04T10:46:30.327Z</time>
      </trkpt>
      <trkpt lat="42.46619333" lon="1.49138167">
        <ele>897.0</ele>
        <time>2019-08-04T10:46:31.334Z</time>
      </trkpt>
      <trkpt lat="42.46619333" lon="1.49138167">
        <ele>897.0</ele>
        <time>2019-08-04T10:46:32.303Z</time>
      </trkpt>
      <trkpt lat="42.46607833" lon="1.49122833">
        <ele>896.0</ele>
        <time>2019-08-04T10:46:33.300Z</time>
      </trkpt>
      <trkpt lat="42.46607833" lon="1.49122833">
        <ele>896.0</ele>
        <time>2019-08-04T10:46:34.335Z</time>
      </trkpt>
      <trkpt lat="42.465955" lon="1.49106667">
        <ele>894.0</ele>
        <time>2019-08-04T10:46:35.298Z</time>
      </trkpt>
      <trkpt lat="42.465955" lon="1.49106667">
        <ele>894.0</ele>
        <time>2019-08-04T10:46:36.334Z</time>
      </trkpt>
      <trkpt lat="42.46583" lon="1.49088833">
        <ele>893.0</ele>
        <time>2019-08-04T10:46:37.310Z</time>
      </trkpt>
      <trkpt lat="42.46583" lon="1.49088833">
        <ele>893.0</ele>
        <time>2019-08-04T10:46:38.335Z</time>
      </trkpt>
      <trkpt lat="42.465705" lon="1.49070833">
        <ele>892.0</ele>
        <time>2019-08-04T10:46:39.317Z</time>
      </trkpt>
      <trkpt lat="42.465705" lon="1.49070833">
        <ele>892.0</ele>
        <time>2019-08-04T10:46:40.335Z</time>
      </trkpt>
      <trkpt lat="42.46558167" lon="1.490525">
        <ele>891.0</ele>
        <time>2019-08-04T10:46:41.299Z</time>
      </trkpt>
      <trkpt lat="42.46558167" lon="1.490525">
        <ele>891.0</ele>
        <time>2019-08-04T10:46:42.334Z</time>
      </trkpt>
      <trkpt lat="42.465465" lon="1.490365">
        <ele>890.0</ele>
        <time>2019-08-04T10:46:43.298Z</time>
      </trkpt>
      <trkpt lat="42.465465" lon="1.490365">
        <ele>890.0</ele>
        <time>2019-08-04T10:46:44.332Z</time>
      </trkpt>
      <trkpt lat="42.46536" lon="1.49022833">
        <ele>888.0</ele>
        <time>2019-08-04T10:46:45.297Z</time>
      </trkpt>
      <trkpt lat="42.46536" lon="1.49022833">
        <ele>888.0</ele>
        <time>2019-08-04T10:46:46.314Z</time>
      </trkpt>
      <trkpt lat="42.46526833" lon="1.49011">
        <ele>887.0</ele>
        <time>2019-08-04T10:46:47.299Z</time>
      </trkpt>
      <trkpt lat="42.46526833" lon="1.49011">
        <ele>887.0</ele>
        <time>2019-08-04T10:46:48.331Z</time>
      </trkpt>
      <trkpt lat="42.4652" lon="1.49002167">
        <ele>886.0</ele>
        <time>2019-08-04T10:46:49.317Z</time>
      </trkpt>
      <trkpt lat="42.4652" lon="1.49002167">
        <ele>886.0</ele>
        <time>2019-08-04T10:46:50.335Z</time>
      </trkpt>
      <trkpt lat="42.46517667" lon="1.48996667">
        <ele>885.0</ele>
        <time>2019-08-04T10:46:51.298Z</time>
      </trkpt>
      <trkpt lat="42.46517667" lon="1.48996667">
        <ele>885.0</ele>
        <time>2019-08-04T10:46:52.334Z</time>
      </trkpt>
      <trkpt lat="42.46515667" lon="1.48991667">
        <ele>884.0</ele>
        <time>2019-08-04T10:46:53.298Z</time>
      </trkpt>
      <trkpt lat="42.46515667" lon="1.48991667">
        <ele>884.0</ele>
        <time>2019-08-04T10:46:54.297Z</time>
      </trkpt>
      <trkpt lat="42.465155" lon="1.48988">
        <ele>883.0</ele>
        <time>2019-08-04T10:46:55.298Z</time>
      </trkpt>
      <trkpt lat="42.465155" lon="1.48988">
        <ele>883.0</ele>
        <time>2019-08-04T10:46:56.335Z</time>
      </trkpt>
      <trkpt lat="42.46512667" lon="1.48986167">
        <ele>882.0</ele>
        <time>2019-08-04T10:46:57.300Z</time>
      </trkpt>
      <trkpt lat="42.46512667" lon="1.48986167">
        <ele>882.0</ele>
        <time>2019-08-04T10:46:58.334Z</time>
      </trkpt>
      <trkpt lat="42.46507333" lon="1.48984833">
        <ele>881.0</ele>
        <time>2019-08-04T10:46:59.318Z</time>
      </trkpt>
      <trkpt lat="42.46507333" lon="1.48984833">
        <ele>881.0</ele>
        <time>2019-08-04T10:47:00.337Z</time>
      </trkpt>
      <trkpt lat="42.465055" lon="1.48981">
        <ele>880.0</ele>
        <time>2019-08-04T10:47:01.332Z</time>
      </trkpt>
      <trkpt lat="42.46498333" lon="1.48978333">
        <ele>879.0</ele>
        <time>2019-08-04T10:47:02.299Z</time>
      </trkpt>
      <trkpt lat="42.46493167" lon="1.489755">
        <ele>879.0</ele>
        <time>2019-08-04T10:47:03.300Z</time>
      </trkpt>
      <trkpt lat="42.46488833" lon="1.489745">
        <ele>878.0</ele>
        <time>2019-08-04T10:47:04.299Z</time>
      </trkpt>
      <trkpt lat="42.46488833" lon="1.489745">
        <ele>878.0</ele>
        <time>2019-08-04T10:47:05.333Z</time>
      </trkpt>
      <trkpt lat="42.46479833" lon="1.48974">
        <ele>877.0</ele>
        <time>2019-08-04T10:47:06.314Z</time>
      </trkpt>
      <trkpt lat="42.46479833" lon="1.48974">
        <ele>877.0</ele>
        <time>2019-08-04T10:47:07.334Z</time>
      </trkpt>
      <trkpt lat="42.46470333" lon="1.48971333">
        <ele>876.0</ele>
        <time>2019-08-04T10:47:08.298Z</time>
      </trkpt>
      <trkpt lat="42.46466" lon="1.489705">
        <ele>876.0</ele>
        <time>2019-08-04T10:47:09.312Z</time>
      </trkpt>
      <trkpt lat="42.46466" lon="1.489705">
        <ele>876.0</ele>
        <time>2019-08-04T10:47:10.335Z</time>
      </trkpt>
      <trkpt lat="42.46458" lon="1.48968333">
        <ele>875.0</ele>
        <time>2019-08-04T10:47:11.298Z</time>
      </trkpt>
      <trkpt lat="42.46458" lon="1.48968333">
        <ele>875.0</ele>
        <time>2019-08-04T10:47:12.333Z</time>
      </trkpt>
      <trkpt lat="42.46449833" lon="1.48967667">
        <ele>874.0</ele>
        <time>2019-08-04T10:47:13.298Z</time>
      </trkpt>
      <trkpt lat="42.46444833" lon="1.48962">
        <ele>874.0</ele>
        <time>2019-08-04T10:47:14.298Z</time>
      </trkpt>
      <trkpt lat="42.46441167" lon="1.48962167">
        <ele>873.0</ele>
        <time>2019-08-04T10:47:15.335Z</time>
      </trkpt>
      <trkpt lat="42.46441167" lon="1.48962167">
        <ele>873.0</ele>
        <time>2019-08-04T10:47:16.312Z</time>
      </trkpt>
      <trkpt lat="42.46437667" lon="1.48966">
        <ele>873.0</ele>
        <time>2019-08-04T10:47:17.298Z</time>
      </trkpt>
      <trkpt lat="42.46437667" lon="1.48966">
        <ele>873.0</ele>
        <time>2019-08-04T10:47:18.334Z</time>
      </trkpt>
      <trkpt lat="42.46434333" lon="1.48968333">
        <ele>873.0</ele>
        <time>2019-08-04T10:47:19.310Z</time>
      </trkpt>
      <trkpt lat="42.46434333" lon="1.48968333">
        <ele>873.0</ele>
        <time>2019-08-04T10:47:20.333Z</time>
      </trkpt>
      <trkpt lat="42.46426667" lon="1.48970833">
        <ele>872.0</ele>
        <time>2019-08-04T10:47:21.314Z</time>
      </trkpt>
      <trkpt lat="42.46426667" lon="1.48970833">
        <ele>872.0</ele>
        <time>2019-08-04T10:47:22.335Z</time>
      </trkpt>
      <trkpt lat="42.46415667" lon="1.489755">
        <ele>872.0</ele>
        <time>2019-08-04T10:47:23.298Z</time>
      </trkpt>
      <trkpt lat="42.46415667" lon="1.489755">
        <ele>872.0</ele>
        <time>2019-08-04T10:47:24.335Z</time>
      </trkpt>
      <trkpt lat="42.464045" lon="1.48979667">
        <ele>872.0</ele>
        <time>2019-08-04T10:47:25.298Z</time>
      </trkpt>
      <trkpt lat="42.464045" lon="1.48979667">
        <ele>872.0</ele>
        <time>2019-08-04T10:47:26.334Z</time>
      </trkpt>
      <trkpt lat="42.46393167" lon="1.48983833">
        <ele>871.0</ele>
        <time>2019-08-04T10:47:27.336Z</time>
      </trkpt>
      <trkpt lat="42.46393167" lon="1.48983833">
        <ele>871.0</ele>
        <time>2019-08-04T10:47:28.317Z</time>
      </trkpt>
      <trkpt lat="42.46380833" lon="1.48987667">
        <ele>871.0</ele>
        <time>2019-08-04T10:47:29.298Z</time>
      </trkpt>
      <trkpt lat="42.46374167" lon="1.48989333">
        <ele>871.0</ele>
        <time>2019-08-04T10:47:30.328Z</time>
      </trkpt>
      <trkpt lat="42.46374167" lon="1.48989333">
        <ele>871.0</ele>
        <time>2019-08-04T10:47:31.334Z</time>
      </trkpt>
      <trkpt lat="42.46359833" lon="1.48992333">
        <ele>870.0</ele>
        <time>2019-08-04T10:47:32.300Z</time>
      </trkpt>
      <trkpt lat="42.463525" lon="1.48994667">
        <ele>870.0</ele>
        <time>2019-08-04T10:47:33.335Z</time>
      </trkpt>
      <trkpt lat="42.463525" lon="1.48994667">
        <ele>870.0</ele>
        <time>2019-08-04T10:47:34.312Z</time>
      </trkpt>
      <trkpt lat="42.46336667" lon="1.48998333">
        <ele>869.0</ele>
        <time>2019-08-04T10:47:35.298Z</time>
      </trkpt>
      <trkpt lat="42.46336667" lon="1.48998333">
        <ele>869.0</ele>
        <time>2019-08-04T10:47:36.334Z</time>
      </trkpt>
      <trkpt lat="42.46319833" lon="1.49002333">
        <ele>869.0</ele>
        <time>2019-08-04T10:47:37.318Z</time>
      </trkpt>
      <trkpt lat="42.46312" lon="1.490045">
        <ele>869.0</ele>
        <time>2019-08-04T10:47:38.302Z</time>
      </trkpt>
      <trkpt lat="42.46304167" lon="1.49006667">
        <ele>869.0</ele>
        <time>2019-08-04T10:47:39.315Z</time>
      </trkpt>
      <trkpt lat="42.46304167" lon="1.49006667">
        <ele>869.0</ele>
        <time>2019-08-04T10:47:40.335Z</time>
      </trkpt>
      <trkpt lat="42.46288667" lon="1.49011667">
        <ele>869.0</ele>
        <time>2019-08-04T10:47:41.306Z</time>
      </trkpt>
      <trkpt lat="42.46288667" lon="1.49011667">
        <ele>869.0</ele>
        <time>2019-08-04T10:47:42.298Z</time>
      </trkpt>
      <trkpt lat="42.46274833" lon="1.49016333">
        <ele>869.0</ele>
        <time>2019-08-04T10:47:43.298Z</time>
      </trkpt>
      <trkpt lat="42.46268" lon="1.49019333">
        <ele>870.0</ele>
        <time>2019-08-04T10:47:44.298Z</time>
      </trkpt>
      <trkpt lat="42.46261333" lon="1.49023">
        <ele>871.0</ele>
        <time>2019-08-04T10:47:45.336Z</time>
      </trkpt>
      <trkpt lat="42.46261333" lon="1.49023">
        <ele>871.0</ele>
        <time>2019-08-04T10:47:46.317Z</time>
      </trkpt>
      <trkpt lat="42.46248833" lon="1.49029333">
        <ele>873.0</ele>
        <time>2019-08-04T10:47:47.297Z</time>
      </trkpt>
      <trkpt lat="42.462435" lon="1.49034333">
        <ele>875.0</ele>
        <time>2019-08-04T10:47:48.299Z</time>
      </trkpt>
      <trkpt lat="42.462435" lon="1.49034333">
        <ele>875.0</ele>
        <time>2019-08-04T10:47:49.311Z</time>
      </trkpt>
      <trkpt lat="42.46232" lon="1.49039167">
        <ele>877.0</ele>
        <time>2019-08-04T10:47:50.297Z</time>
      </trkpt>
      <trkpt lat="42.46226167" lon="1.49041">
        <ele>877.0</ele>
        <time>2019-08-04T10:47:51.314Z</time>
      </trkpt>
      <trkpt lat="42.46226167" lon="1.49041">
        <ele>877.0</ele>
        <time>2019-08-04T10:47:52.335Z</time>
      </trkpt>
      <trkpt lat="42.46213167" lon="1.49043167">
        <ele>878.0</ele>
        <time>2019-08-04T10:47:53.319Z</time>
      </trkpt>
      <trkpt lat="42.46213167" lon="1.49043167">
        <ele>878.0</ele>
        <time>2019-08-04T10:47:54.335Z</time>
      </trkpt>
      <trkpt lat="42.46213167" lon="1.49043167">
        <ele>878.0</ele>
        <time>2019-08-04T10:47:55.326Z</time>
      </trkpt>
      <trkpt lat="42.46190333" lon="1.49044667">
        <ele>885.0</ele>
        <time>2019-08-04T10:47:56.299Z</time>
      </trkpt>
      <trkpt lat="42.46190333" lon="1.49044667">
        <ele>885.0</ele>
        <time>2019-08-04T10:47:57.319Z</time>
      </trkpt>
      <trkpt lat="42.46175167" lon="1.49042167">
        <ele>888.0</ele>
        <time>2019-08-04T10:47:58.300Z</time>
      </trkpt>
      <trkpt lat="42.46168167" lon="1.49040333">
        <ele>888.0</ele>
        <time>2019-08-04T10:47:59.316Z</time>
      </trkpt>
      <trkpt lat="42.46168167" lon="1.49040333">
        <ele>888.0</ele>
        <time>2019-08-04T10:48:00.333Z</time>
      </trkpt>
      <trkpt lat="42.46154167" lon="1.49035">
        <ele>888.0</ele>
        <time>2019-08-04T10:48:01.298Z</time>
      </trkpt>
      <trkpt lat="42.46154167" lon="1.49035">
        <ele>888.0</ele>
        <time>2019-08-04T10:48:02.319Z</time>
      </trkpt>
      <trkpt lat="42.46141667" lon="1.49028">
        <ele>888.0</ele>
        <time>2019-08-04T10:48:03.310Z</time>
      </trkpt>
      <trkpt lat="42.46141667" lon="1.49028">
        <ele>888.0</ele>
        <time>2019-08-04T10:48:04.336Z</time>
      </trkpt>
      <trkpt lat="42.46131" lon="1.49017833">
        <ele>888.0</ele>
        <time>2019-08-04T10:48:05.299Z</time>
      </trkpt>
      <trkpt lat="42.46131" lon="1.49017833">
        <ele>888.0</ele>
        <time>2019-08-04T10:48:06.332Z</time>
      </trkpt>
      <trkpt lat="42.46126333" lon="1.49003333">
        <ele>889.0</ele>
        <time>2019-08-04T10:48:07.314Z</time>
      </trkpt>
      <trkpt lat="42.46127167" lon="1.48995167">
        <ele>889.0</ele>
        <time>2019-08-04T10:48:08.298Z</time>
      </trkpt>
      <trkpt lat="42.46129" lon="1.489875">
        <ele>889.0</ele>
        <time>2019-08-04T10:48:09.317Z</time>
      </trkpt>
      <trkpt lat="42.46129" lon="1.489875">
        <ele>889.0</ele>
        <time>2019-08-04T10:48:10.335Z</time>
      </trkpt>
      <trkpt lat="42.461315" lon="1.48972667">
        <ele>890.0</ele>
        <time>2019-08-04T10:48:11.299Z</time>
      </trkpt>
      <trkpt lat="42.461315" lon="1.48972667">
        <ele>890.0</ele>
        <time>2019-08-04T10:48:12.335Z</time>
      </trkpt>
      <trkpt lat="42.4613" lon="1.489575">
        <ele>890.0</ele>
        <time>2019-08-04T10:48:13.298Z</time>
      </trkpt>
      <trkpt lat="42.4613" lon="1.489575">
        <ele>890.0</ele>
        <time>2019-08-04T10:48:14.335Z</time>
      </trkpt>
      <trkpt lat="42.46127833" lon="1.489445">
        <ele>891.0</ele>
        <time>2019-08-04T10:48:15.300Z</time>
      </trkpt>
      <trkpt lat="42.46127833" lon="1.489445">
        <ele>891.0</ele>
        <time>2019-08-04T10:48:16.335Z</time>
      </trkpt>
      <trkpt lat="42.46124833" lon="1.48933833">
        <ele>891.0</ele>
        <time>2019-08-04T10:48:17.331Z</time>
      </trkpt>
      <trkpt lat="42.46123167" lon="1.48930167">
        <ele>891.0</ele>
        <time>2019-08-04T10:48:18.313Z</time>
      </trkpt>
      <trkpt lat="42.46123167" lon="1.48930167">
        <ele>891.0</ele>
        <time>2019-08-04T10:48:19.317Z</time>
      </trkpt>
      <trkpt lat="42.46121333" lon="1.48921667">
        <ele>891.0</ele>
        <time>2019-08-04T10:48:20.299Z</time>
      </trkpt>
      <trkpt lat="42.46121333" lon="1.48917">
        <ele>891.0</ele>
        <time>2019-08-04T10:48:21.300Z</time>
      </trkpt>
      <trkpt lat="42.46121333" lon="1.48917">
        <ele>891.0</ele>
        <time>2019-08-04T10:48:22.334Z</time>
      </trkpt>
      <trkpt lat="42.46121667" lon="1.489135">
        <ele>892.0</ele>
        <time>2019-08-04T10:48:23.310Z</time>
      </trkpt>
      <trkpt lat="42.46121667" lon="1.489135">
        <ele>892.0</ele>
        <time>2019-08-04T10:48:24.333Z</time>
      </trkpt>
      <trkpt lat="42.46121667" lon="1.48908833">
        <ele>892.0</ele>
        <time>2019-08-04T10:48:25.314Z</time>
      </trkpt>
      <trkpt lat="42.46121667" lon="1.48908833">
        <ele>892.0</ele>
        <time>2019-08-04T10:48:26.335Z</time>
      </trkpt>
      <trkpt lat="42.46121667" lon="1.48908833">
        <ele>892.0</ele>
        <time>2019-08-04T10:48:27.342Z</time>
      </trkpt>
      <trkpt lat="42.46116333" lon="1.488945">
        <ele>892.0</ele>
        <time>2019-08-04T10:48:28.317Z</time>
      </trkpt>
      <trkpt lat="42.46116333" lon="1.488945">
        <ele>892.0</ele>
        <time>2019-08-04T10:48:29.334Z</time>
      </trkpt>
      <trkpt lat="42.461115" lon="1.48886">
        <ele>893.0</ele>
        <time>2019-08-04T10:48:30.316Z</time>
      </trkpt>
      <trkpt lat="42.46109333" lon="1.48881667">
        <ele>893.0</ele>
        <time>2019-08-04T10:48:31.323Z</time>
      </trkpt>
      <trkpt lat="42.46109333" lon="1.48881667">
        <ele>893.0</ele>
        <time>2019-08-04T10:48:32.335Z</time>
      </trkpt>
      <trkpt lat="42.46105333" lon="1.48873333">
        <ele>893.0</ele>
        <time>2019-08-04T10:48:33.299Z</time>
      </trkpt>
      <trkpt lat="42.46105333" lon="1.48873333">
        <ele>893.0</ele>
        <time>2019-08-04T10:48:34.333Z</time>
      </trkpt>
      <trkpt lat="42.46100333" lon="1.48869">
        <ele>894.0</ele>
        <time>2019-08-04T10:48:35.307Z</time>
      </trkpt>
      <trkpt lat="42.46100333" lon="1.48869">
        <ele>894.0</ele>
        <time>2019-08-04T10:48:36.296Z</time>
      </trkpt>
      <trkpt lat="42.46096167" lon="1.48862667">
        <ele>894.0</ele>
        <time>2019-08-04T10:48:37.298Z</time>
      </trkpt>
      <trkpt lat="42.46096167" lon="1.48862667">
        <ele>894.0</ele>
        <time>2019-08-04T10:48:38.333Z</time>
      </trkpt>
      <trkpt lat="42.46092333" lon="1.488555">
        <ele>894.0</ele>
        <time>2019-08-04T10:48:39.310Z</time>
      </trkpt>
      <trkpt lat="42.46092333" lon="1.488555">
        <ele>894.0</ele>
        <time>2019-08-04T10:48:40.296Z</time>
      </trkpt>
      <trkpt lat="42.46088333" lon="1.48849667">
        <ele>894.0</ele>
        <time>2019-08-04T10:48:41.300Z</time>
      </trkpt>
      <trkpt lat="42.46088333" lon="1.48849667">
        <ele>894.0</ele>
        <time>2019-08-04T10:48:42.333Z</time>
      </trkpt>
      <trkpt lat="42.46085667" lon="1.48843667">
        <ele>894.0</ele>
        <time>2019-08-04T10:48:43.298Z</time>
      </trkpt>
      <trkpt lat="42.46085667" lon="1.48843667">
        <ele>894.0</ele>
        <time>2019-08-04T10:48:44.296Z</time>
      </trkpt>
      <trkpt lat="42.46083167" lon="1.48837167">
        <ele>894.0</ele>
        <time>2019-08-04T10:48:45.296Z</time>
      </trkpt>
      <trkpt lat="42.46083167" lon="1.48837167">
        <ele>894.0</ele>
        <time>2019-08-04T10:48:46.313Z</time>
      </trkpt>
      <trkpt lat="42.46080833" lon="1.48830833">
        <ele>895.0</ele>
        <time>2019-08-04T10:48:47.296Z</time>
      </trkpt>
      <trkpt lat="42.46080833" lon="1.48830833">
        <ele>895.0</ele>
        <time>2019-08-04T10:48:48.296Z</time>
      </trkpt>
      <trkpt lat="42.46077833" lon="1.488245">
        <ele>895.0</ele>
        <time>2019-08-04T10:48:49.310Z</time>
      </trkpt>
      <trkpt lat="42.46077833" lon="1.488245">
        <ele>895.0</ele>
        <time>2019-08-04T10:48:50.333Z</time>
      </trkpt>
      <trkpt lat="42.46074" lon="1.48818167">
        <ele>896.0</ele>
        <time>2019-08-04T10:48:51.296Z</time>
      </trkpt>
      <trkpt lat="42.46074" lon="1.48818167">
        <ele>896.0</ele>
        <time>2019-08-04T10:48:52.322Z</time>
      </trkpt>
      <trkpt lat="42.46073167" lon="1.48811167">
        <ele>897.0</ele>
        <time>2019-08-04T10:48:53.304Z</time>
      </trkpt>
      <trkpt lat="42.46073167" lon="1.48811167">
        <ele>897.0</ele>
        <time>2019-08-04T10:48:54.327Z</time>
      </trkpt>
      <trkpt lat="42.46073" lon="1.48805667">
        <ele>898.0</ele>
        <time>2019-08-04T10:48:55.308Z</time>
      </trkpt>
      <trkpt lat="42.46073" lon="1.48805667">
        <ele>898.0</ele>
        <time>2019-08-04T10:48:56.334Z</time>
      </trkpt>
      <trkpt lat="42.46075667" lon="1.48800167">
        <ele>898.0</ele>
        <time>2019-08-04T10:48:57.314Z</time>
      </trkpt>
      <trkpt lat="42.46078167" lon="1.48798667">
        <ele>898.0</ele>
        <time>2019-08-04T10:48:58.299Z</time>
      </trkpt>
      <trkpt lat="42.46078167" lon="1.48798667">
        <ele>898.0</ele>
        <time>2019-08-04T10:48:59.303Z</time>
      </trkpt>
      <trkpt lat="42.46078167" lon="1.48798667">
        <ele>898.0</ele>
        <time>2019-08-04T10:49:00.325Z</time>
      </trkpt>
      <trkpt lat="42.46083667" lon="1.48798667">
        <ele>899.0</ele>
        <time>2019-08-04T10:49:01.298Z</time>
      </trkpt>
      <trkpt lat="42.460885" lon="1.48799667">
        <ele>899.0</ele>
        <time>2019-08-04T10:49:02.320Z</time>
      </trkpt>
      <trkpt lat="42.46090833" lon="1.488005">
        <ele>900.0</ele>
        <time>2019-08-04T10:49:03.296Z</time>
      </trkpt>
      <trkpt lat="42.46090833" lon="1.488005">
        <ele>900.0</ele>
        <time>2019-08-04T10:49:04.296Z</time>
      </trkpt>
      <trkpt lat="42.46094833" lon="1.48803667">
        <ele>900.0</ele>
        <time>2019-08-04T10:49:05.299Z</time>
      </trkpt>
      <trkpt lat="42.46094833" lon="1.48803667">
        <ele>900.0</ele>
        <time>2019-08-04T10:49:06.333Z</time>
      </trkpt>
      <trkpt lat="42.46099167" lon="1.48806833">
        <ele>900.0</ele>
        <time>2019-08-04T10:49:07.314Z</time>
      </trkpt>
      <trkpt lat="42.46099167" lon="1.48806833">
        <ele>900.0</ele>
        <time>2019-08-04T10:49:08.299Z</time>
      </trkpt>
      <trkpt lat="42.46103167" lon="1.48811">
        <ele>902.0</ele>
        <time>2019-08-04T10:49:09.320Z</time>
      </trkpt>
      <trkpt lat="42.46103167" lon="1.48811">
        <ele>902.0</ele>
        <time>2019-08-04T10:49:10.296Z</time>
      </trkpt>
      <trkpt lat="42.46107" lon="1.48815667">
        <ele>903.0</ele>
        <time>2019-08-04T10:49:11.311Z</time>
      </trkpt>
      <trkpt lat="42.46107" lon="1.48815667">
        <ele>903.0</ele>
        <time>2019-08-04T10:49:12.335Z</time>
      </trkpt>
      <trkpt lat="42.46111333" lon="1.48818833">
        <ele>904.0</ele>
        <time>2019-08-04T10:49:13.299Z</time>
      </trkpt>
      <trkpt lat="42.46111333" lon="1.48818833">
        <ele>904.0</ele>
        <time>2019-08-04T10:49:14.296Z</time>
      </trkpt>
      <trkpt lat="42.46116" lon="1.48821167">
        <ele>906.0</ele>
        <time>2019-08-04T10:49:15.302Z</time>
      </trkpt>
      <trkpt lat="42.46116" lon="1.48821167">
        <ele>906.0</ele>
        <time>2019-08-04T10:49:16.335Z</time>
      </trkpt>
      <trkpt lat="42.46120833" lon="1.48823667">
        <ele>906.0</ele>
        <time>2019-08-04T10:49:17.300Z</time>
      </trkpt>
      <trkpt lat="42.46120833" lon="1.48823667">
        <ele>906.0</ele>
        <time>2019-08-04T10:49:18.335Z</time>
      </trkpt>
      <trkpt lat="42.461255" lon="1.48826333">
        <ele>907.0</ele>
        <time>2019-08-04T10:49:19.316Z</time>
      </trkpt>
      <trkpt lat="42.461255" lon="1.48826333">
        <ele>907.0</ele>
        <time>2019-08-04T10:49:20.333Z</time>
      </trkpt>
      <trkpt lat="42.46129667" lon="1.48829333">
        <ele>908.0</ele>
        <time>2019-08-04T10:49:21.300Z</time>
      </trkpt>
      <trkpt lat="42.46129667" lon="1.48829333">
        <ele>908.0</ele>
        <time>2019-08-04T10:49:22.321Z</time>
      </trkpt>
      <trkpt lat="42.46134333" lon="1.48832667">
        <ele>909.0</ele>
        <time>2019-08-04T10:49:23.301Z</time>
      </trkpt>
      <trkpt lat="42.46134333" lon="1.48832667">
        <ele>909.0</ele>
        <time>2019-08-04T10:49:24.334Z</time>
      </trkpt>
      <trkpt lat="42.46139" lon="1.488345">
        <ele>910.0</ele>
        <time>2019-08-04T10:49:25.314Z</time>
      </trkpt>
      <trkpt lat="42.46139" lon="1.488345">
        <ele>910.0</ele>
        <time>2019-08-04T10:49:26.335Z</time>
      </trkpt>
      <trkpt lat="42.46143333" lon="1.488365">
        <ele>911.0</ele>
        <time>2019-08-04T10:49:27.319Z</time>
      </trkpt>
      <trkpt lat="42.461455" lon="1.488375">
        <ele>911.0</ele>
        <time>2019-08-04T10:49:28.300Z</time>
      </trkpt>
      <trkpt lat="42.461455" lon="1.488375">
        <ele>911.0</ele>
        <time>2019-08-04T10:49:29.327Z</time>
      </trkpt>
      <trkpt lat="42.46150167" lon="1.488385">
        <ele>912.0</ele>
        <time>2019-08-04T10:49:30.333Z</time>
      </trkpt>
      <trkpt lat="42.46150167" lon="1.488385">
        <ele>912.0</ele>
        <time>2019-08-04T10:49:31.299Z</time>
      </trkpt>
      <trkpt lat="42.46155333" lon="1.48839167">
        <ele>912.0</ele>
        <time>2019-08-04T10:49:32.305Z</time>
      </trkpt>
      <trkpt lat="42.46158" lon="1.48839333">
        <ele>912.0</ele>
        <time>2019-08-04T10:49:33.302Z</time>
      </trkpt>
      <trkpt lat="42.46158" lon="1.48839333">
        <ele>912.0</ele>
        <time>2019-08-04T10:49:34.334Z</time>
      </trkpt>
      <trkpt lat="42.46163333" lon="1.488395">
        <ele>913.0</ele>
        <time>2019-08-04T10:49:35.300Z</time>
      </trkpt>
      <trkpt lat="42.46163333" lon="1.488395">
        <ele>913.0</ele>
        <time>2019-08-04T10:49:36.296Z</time>
      </trkpt>
      <trkpt lat="42.461685" lon="1.488385">
        <ele>913.0</ele>
        <time>2019-08-04T10:49:37.297Z</time>
      </trkpt>
      <trkpt lat="42.46171167" lon="1.48838167">
        <ele>914.0</ele>
        <time>2019-08-04T10:49:38.300Z</time>
      </trkpt>
      <trkpt lat="42.46173833" lon="1.48837333">
        <ele>914.0</ele>
        <time>2019-08-04T10:49:39.311Z</time>
      </trkpt>
      <trkpt lat="42.46173833" lon="1.48837333">
        <ele>914.0</ele>
        <time>2019-08-04T10:49:40.296Z</time>
      </trkpt>
      <trkpt lat="42.46179" lon="1.48835667">
        <ele>915.0</ele>
        <time>2019-08-04T10:49:41.300Z</time>
      </trkpt>
      <trkpt lat="42.46179" lon="1.48835667">
        <ele>915.0</ele>
        <time>2019-08-04T10:49:42.333Z</time>
      </trkpt>
      <trkpt lat="42.46184667" lon="1.48834833">
        <ele>916.0</ele>
        <time>2019-08-04T10:49:43.300Z</time>
      </trkpt>
      <trkpt lat="42.46184667" lon="1.48834833">
        <ele>916.0</ele>
        <time>2019-08-04T10:49:44.296Z</time>
      </trkpt>
      <trkpt lat="42.461905" lon="1.48833667">
        <ele>917.0</ele>
        <time>2019-08-04T10:49:45.296Z</time>
      </trkpt>
      <trkpt lat="42.461905" lon="1.48833667">
        <ele>917.0</ele>
        <time>2019-08-04T10:49:46.318Z</time>
      </trkpt>
      <trkpt lat="42.46196333" lon="1.488335">
        <ele>918.0</ele>
        <time>2019-08-04T10:49:47.299Z</time>
      </trkpt>
      <trkpt lat="42.46196333" lon="1.488335">
        <ele>918.0</ele>
        <time>2019-08-04T10:49:48.336Z</time>
      </trkpt>
      <trkpt lat="42.46202167" lon="1.488325">
        <ele>918.0</ele>
        <time>2019-08-04T10:49:49.319Z</time>
      </trkpt>
      <trkpt lat="42.46202167" lon="1.488325">
        <ele>918.0</ele>
        <time>2019-08-04T10:49:50.296Z</time>
      </trkpt>
      <trkpt lat="42.46207833" lon="1.488315">
        <ele>918.0</ele>
        <time>2019-08-04T10:49:51.300Z</time>
      </trkpt>
      <trkpt lat="42.46207833" lon="1.488315">
        <ele>918.0</ele>
        <time>2019-08-04T10:49:52.334Z</time>
      </trkpt>
      <trkpt lat="42.46207833" lon="1.488315">
        <ele>918.0</ele>
        <time>2019-08-04T10:49:53.323Z</time>
      </trkpt>
      <trkpt lat="42.462135" lon="1.48830833">
        <ele>917.0</ele>
        <time>2019-08-04T10:49:54.296Z</time>
      </trkpt>
      <trkpt lat="42.46219667" lon="1.48831">
        <ele>919.0</ele>
        <time>2019-08-04T10:49:55.300Z</time>
      </trkpt>
      <trkpt lat="42.46219667" lon="1.48831">
        <ele>919.0</ele>
        <time>2019-08-04T10:49:56.334Z</time>
      </trkpt>
      <trkpt lat="42.46225833" lon="1.48830333">
        <ele>919.0</ele>
        <time>2019-08-04T10:49:57.315Z</time>
      </trkpt>
      <trkpt lat="42.46225833" lon="1.48830333">
        <ele>919.0</ele>
        <time>2019-08-04T10:49:58.298Z</time>
      </trkpt>
      <trkpt lat="42.46231667" lon="1.48830167">
        <ele>919.0</ele>
        <time>2019-08-04T10:49:59.320Z</time>
      </trkpt>
      <trkpt lat="42.46231667" lon="1.48830167">
        <ele>919.0</ele>
        <time>2019-08-04T10:50:00.298Z</time>
      </trkpt>
      <trkpt lat="42.46238333" lon="1.48830333">
        <ele>920.0</ele>
        <time>2019-08-04T10:50:01.299Z</time>
      </trkpt>
      <trkpt lat="42.46241667" lon="1.488305">
        <ele>921.0</ele>
        <time>2019-08-04T10:50:02.300Z</time>
      </trkpt>
      <trkpt lat="42.46244667" lon="1.48830667">
        <ele>921.0</ele>
        <time>2019-08-04T10:50:03.302Z</time>
      </trkpt>
      <trkpt lat="42.46244667" lon="1.48830667">
        <ele>921.0</ele>
        <time>2019-08-04T10:50:04.297Z</time>
      </trkpt>
      <trkpt lat="42.46250667" lon="1.48832167">
        <ele>923.0</ele>
        <time>2019-08-04T10:50:05.300Z</time>
      </trkpt>
      <trkpt lat="42.46250667" lon="1.48832167">
        <ele>923.0</ele>
        <time>2019-08-04T10:50:06.335Z</time>
      </trkpt>
      <trkpt lat="42.46256667" lon="1.48834167">
        <ele>924.0</ele>
        <time>2019-08-04T10:50:07.300Z</time>
      </trkpt>
      <trkpt lat="42.46256667" lon="1.48834167">
        <ele>924.0</ele>
        <time>2019-08-04T10:50:08.329Z</time>
      </trkpt>
      <trkpt lat="42.46263" lon="1.48838167">
        <ele>926.0</ele>
        <time>2019-08-04T10:50:09.327Z</time>
      </trkpt>
      <trkpt lat="42.46263" lon="1.48838167">
        <ele>926.0</ele>
        <time>2019-08-04T10:50:10.317Z</time>
      </trkpt>
      <trkpt lat="42.46269333" lon="1.48841667">
        <ele>928.0</ele>
        <time>2019-08-04T10:50:11.300Z</time>
      </trkpt>
      <trkpt lat="42.46269333" lon="1.48841667">
        <ele>928.0</ele>
        <time>2019-08-04T10:50:12.333Z</time>
      </trkpt>
      <trkpt lat="42.46275333" lon="1.488455">
        <ele>930.0</ele>
        <time>2019-08-04T10:50:13.315Z</time>
      </trkpt>
      <trkpt lat="42.46275333" lon="1.488455">
        <ele>930.0</ele>
        <time>2019-08-04T10:50:14.296Z</time>
      </trkpt>
      <trkpt lat="42.462805" lon="1.48848667">
        <ele>931.0</ele>
        <time>2019-08-04T10:50:15.296Z</time>
      </trkpt>
      <trkpt lat="42.462805" lon="1.48848667">
        <ele>931.0</ele>
        <time>2019-08-04T10:50:16.336Z</time>
      </trkpt>
      <trkpt lat="42.46284667" lon="1.48848833">
        <ele>932.0</ele>
        <time>2019-08-04T10:50:17.299Z</time>
      </trkpt>
      <trkpt lat="42.46284667" lon="1.48848833">
        <ele>932.0</ele>
        <time>2019-08-04T10:50:18.304Z</time>
      </trkpt>
      <trkpt lat="42.462895" lon="1.48848833">
        <ele>933.0</ele>
        <time>2019-08-04T10:50:19.321Z</time>
      </trkpt>
      <trkpt lat="42.462895" lon="1.48848833">
        <ele>933.0</ele>
        <time>2019-08-04T10:50:20.298Z</time>
      </trkpt>
      <trkpt lat="42.46295" lon="1.48847167">
        <ele>931.0</ele>
        <time>2019-08-04T10:50:21.301Z</time>
      </trkpt>
      <trkpt lat="42.46295" lon="1.48847167">
        <ele>931.0</ele>
        <time>2019-08-04T10:50:22.335Z</time>
      </trkpt>
      <trkpt lat="42.46299" lon="1.48841167">
        <ele>930.0</ele>
        <time>2019-08-04T10:50:23.300Z</time>
      </trkpt>
      <trkpt lat="42.46299" lon="1.48841167">
        <ele>930.0</ele>
        <time>2019-08-04T10:50:24.336Z</time>
      </trkpt>
      <trkpt lat="42.46299667" lon="1.48833833">
        <ele>929.0</ele>
        <time>2019-08-04T10:50:25.300Z</time>
      </trkpt>
      <trkpt lat="42.46299667" lon="1.48833833">
        <ele>929.0</ele>
        <time>2019-08-04T10:50:26.296Z</time>
      </trkpt>
      <trkpt lat="42.46297" lon="1.48829">
        <ele>929.0</ele>
        <time>2019-08-04T10:50:27.300Z</time>
      </trkpt>
      <trkpt lat="42.46297" lon="1.48829">
        <ele>929.0</ele>
        <time>2019-08-04T10:50:28.299Z</time>
      </trkpt>
      <trkpt lat="42.46293333" lon="1.48826333">
        <ele>930.0</ele>
        <time>2019-08-04T10:50:29.328Z</time>
      </trkpt>
      <trkpt lat="42.46291167" lon="1.48825">
        <ele>930.0</ele>
        <time>2019-08-04T10:50:30.331Z</time>
      </trkpt>
      <trkpt lat="42.46291167" lon="1.48825">
        <ele>930.0</ele>
        <time>2019-08-04T10:50:31.297Z</time>
      </trkpt>
      <trkpt lat="42.46286667" lon="1.48821833">
        <ele>931.0</ele>
        <time>2019-08-04T10:50:32.307Z</time>
      </trkpt>
      <trkpt lat="42.462845" lon="1.48820333">
        <ele>931.0</ele>
        <time>2019-08-04T10:50:33.302Z</time>
      </trkpt>
      <trkpt lat="42.462845" lon="1.48820333">
        <ele>931.0</ele>
        <time>2019-08-04T10:50:34.296Z</time>
      </trkpt>
      <trkpt lat="42.462805" lon="1.48817333">
        <ele>932.0</ele>
        <time>2019-08-04T10:50:35.300Z</time>
      </trkpt>
      <trkpt lat="42.462805" lon="1.48817333">
        <ele>932.0</ele>
        <time>2019-08-04T10:50:36.296Z</time>
      </trkpt>
      <trkpt lat="42.46276333" lon="1.48813833">
        <ele>932.0</ele>
        <time>2019-08-04T10:50:37.306Z</time>
      </trkpt>
      <trkpt lat="42.46274333" lon="1.48812">
        <ele>932.0</ele>
        <time>2019-08-04T10:50:38.302Z</time>
      </trkpt>
      <trkpt lat="42.46274333" lon="1.48812">
        <ele>932.0</ele>
        <time>2019-08-04T10:50:39.311Z</time>
      </trkpt>
      <trkpt lat="42.46270333" lon="1.48808667">
        <ele>933.0</ele>
        <time>2019-08-04T10:50:40.296Z</time>
      </trkpt>
      <trkpt lat="42.462685" lon="1.48807167">
        <ele>934.0</ele>
        <time>2019-08-04T10:50:41.300Z</time>
      </trkpt>
      <trkpt lat="42.462685" lon="1.48807167">
        <ele>934.0</ele>
        <time>2019-08-04T10:50:42.334Z</time>
      </trkpt>
      <trkpt lat="42.46264333" lon="1.48804">
        <ele>934.0</ele>
        <time>2019-08-04T10:50:43.296Z</time>
      </trkpt>
      <trkpt lat="42.46264333" lon="1.48804">
        <ele>934.0</ele>
        <time>2019-08-04T10:50:44.335Z</time>
      </trkpt>
      <trkpt lat="42.46260333" lon="1.48800667">
        <ele>935.0</ele>
        <time>2019-08-04T10:50:45.302Z</time>
      </trkpt>
      <trkpt lat="42.46260333" lon="1.48800667">
        <ele>935.0</ele>
        <time>2019-08-04T10:50:46.333Z</time>
      </trkpt>
      <trkpt lat="42.462565" lon="1.48797">
        <ele>935.0</ele>
        <time>2019-08-04T10:50:47.315Z</time>
      </trkpt>
      <trkpt lat="42.462565" lon="1.48797">
        <ele>935.0</ele>
        <time>2019-08-04T10:50:48.298Z</time>
      </trkpt>
      <trkpt lat="42.46253" lon="1.487935">
        <ele>936.0</ele>
        <time>2019-08-04T10:50:49.317Z</time>
      </trkpt>
      <trkpt lat="42.46253" lon="1.487935">
        <ele>936.0</ele>
        <time>2019-08-04T10:50:50.296Z</time>
      </trkpt>
      <trkpt lat="42.46248833" lon="1.48790333">
        <ele>936.0</ele>
        <time>2019-08-04T10:50:51.302Z</time>
      </trkpt>
      <trkpt lat="42.46248833" lon="1.48790333">
        <ele>936.0</ele>
        <time>2019-08-04T10:50:52.335Z</time>
      </trkpt>
      <trkpt lat="42.46244833" lon="1.48787167">
        <ele>936.0</ele>
        <time>2019-08-04T10:50:53.297Z</time>
      </trkpt>
      <trkpt lat="42.46244833" lon="1.48787167">
        <ele>936.0</ele>
        <time>2019-08-04T10:50:54.333Z</time>
      </trkpt>
      <trkpt lat="42.46240833" lon="1.487845">
        <ele>937.0</ele>
        <time>2019-08-04T10:50:55.313Z</time>
      </trkpt>
      <trkpt lat="42.46240833" lon="1.487845">
        <ele>937.0</ele>
        <time>2019-08-04T10:50:56.296Z</time>
      </trkpt>
      <trkpt lat="42.46236833" lon="1.48781667">
        <ele>937.0</ele>
        <time>2019-08-04T10:50:57.301Z</time>
      </trkpt>
      <trkpt lat="42.46236833" lon="1.48781667">
        <ele>937.0</ele>
        <time>2019-08-04T10:50:58.335Z</time>
      </trkpt>
      <trkpt lat="42.46232667" lon="1.48779">
        <ele>938.0</ele>
        <time>2019-08-04T10:50:59.354Z</time>
      </trkpt>
      <trkpt lat="42.46230833" lon="1.48777667">
        <ele>938.0</ele>
        <time>2019-08-04T10:51:00.302Z</time>
      </trkpt>
      <trkpt lat="42.46230833" lon="1.48777667">
        <ele>938.0</ele>
        <time>2019-08-04T10:51:01.334Z</time>
      </trkpt>
      <trkpt lat="42.46227167" lon="1.48774167">
        <ele>939.0</ele>
        <time>2019-08-04T10:51:02.315Z</time>
      </trkpt>
      <trkpt lat="42.46225" lon="1.487725">
        <ele>939.0</ele>
        <time>2019-08-04T10:51:03.302Z</time>
      </trkpt>
      <trkpt lat="42.46225" lon="1.487725">
        <ele>939.0</ele>
        <time>2019-08-04T10:51:04.297Z</time>
      </trkpt>
      <trkpt lat="42.46221" lon="1.48769833">
        <ele>939.0</ele>
        <time>2019-08-04T10:51:05.300Z</time>
      </trkpt>
      <trkpt lat="42.46221" lon="1.48769833">
        <ele>939.0</ele>
        <time>2019-08-04T10:51:06.296Z</time>
      </trkpt>
      <trkpt lat="42.46216833" lon="1.48767833">
        <ele>939.0</ele>
        <time>2019-08-04T10:51:07.300Z</time>
      </trkpt>
      <trkpt lat="42.46214667" lon="1.487665">
        <ele>940.0</ele>
        <time>2019-08-04T10:51:08.301Z</time>
      </trkpt>
      <trkpt lat="42.46214667" lon="1.487665">
        <ele>940.0</ele>
        <time>2019-08-04T10:51:09.310Z</time>
      </trkpt>
      <trkpt lat="42.462105" lon="1.48763833">
        <ele>940.0</ele>
        <time>2019-08-04T10:51:10.296Z</time>
      </trkpt>
      <trkpt lat="42.46208333" lon="1.487625">
        <ele>940.0</ele>
        <time>2019-08-04T10:51:11.300Z</time>
      </trkpt>
      <trkpt lat="42.46208333" lon="1.487625">
        <ele>940.0</ele>
        <time>2019-08-04T10:51:12.333Z</time>
      </trkpt>
      <trkpt lat="42.46204" lon="1.48759167">
        <ele>940.0</ele>
        <time>2019-08-04T10:51:13.296Z</time>
      </trkpt>
      <trkpt lat="42.46204" lon="1.48759167">
        <ele>940.0</ele>
        <time>2019-08-04T10:51:14.296Z</time>
      </trkpt>
      <trkpt lat="42.46199333" lon="1.48755667">
        <ele>940.0</ele>
        <time>2019-08-04T10:51:15.300Z</time>
      </trkpt>
      <trkpt lat="42.46199333" lon="1.48755667">
        <ele>940.0</ele>
        <time>2019-08-04T10:51:16.327Z</time>
      </trkpt>
      <trkpt lat="42.46194667" lon="1.48752333">
        <ele>941.0</ele>
        <time>2019-08-04T10:51:17.309Z</time>
      </trkpt>
      <trkpt lat="42.46192333" lon="1.48750667">
        <ele>941.0</ele>
        <time>2019-08-04T10:51:18.301Z</time>
      </trkpt>
      <trkpt lat="42.46192333" lon="1.48750667">
        <ele>941.0</ele>
        <time>2019-08-04T10:51:19.303Z</time>
      </trkpt>
      <trkpt lat="42.46187667" lon="1.48747667">
        <ele>941.0</ele>
        <time>2019-08-04T10:51:20.296Z</time>
      </trkpt>
      <trkpt lat="42.46185167" lon="1.48746167">
        <ele>941.0</ele>
        <time>2019-08-04T10:51:21.302Z</time>
      </trkpt>
      <trkpt lat="42.46185167" lon="1.48746167">
        <ele>941.0</ele>
        <time>2019-08-04T10:51:22.334Z</time>
      </trkpt>
      <trkpt lat="42.46180167" lon="1.48743667">
        <ele>942.0</ele>
        <time>2019-08-04T10:51:23.297Z</time>
      </trkpt>
      <trkpt lat="42.46180167" lon="1.48743667">
        <ele>942.0</ele>
        <time>2019-08-04T10:51:24.327Z</time>
      </trkpt>
      <trkpt lat="42.46176333" lon="1.48740667">
        <ele>942.0</ele>
        <time>2019-08-04T10:51:25.309Z</time>
      </trkpt>
      <trkpt lat="42.46174" lon="1.48739">
        <ele>943.0</ele>
        <time>2019-08-04T10:51:26.300Z</time>
      </trkpt>
      <trkpt lat="42.46174" lon="1.48739">
        <ele>943.0</ele>
        <time>2019-08-04T10:51:27.334Z</time>
      </trkpt>
      <trkpt lat="42.46174" lon="1.48739">
        <ele>943.0</ele>
        <time>2019-08-04T10:51:28.341Z</time>
      </trkpt>
      <trkpt lat="42.46169333" lon="1.48735667">
        <ele>943.0</ele>
        <time>2019-08-04T10:51:29.330Z</time>
      </trkpt>
      <trkpt lat="42.461645" lon="1.48732333">
        <ele>943.0</ele>
        <time>2019-08-04T10:51:30.333Z</time>
      </trkpt>
      <trkpt lat="42.461645" lon="1.48732333">
        <ele>943.0</ele>
        <time>2019-08-04T10:51:31.298Z</time>
      </trkpt>
      <trkpt lat="42.46159667" lon="1.48729">
        <ele>944.0</ele>
        <time>2019-08-04T10:51:32.307Z</time>
      </trkpt>
      <trkpt lat="42.46157" lon="1.48727333">
        <ele>944.0</ele>
        <time>2019-08-04T10:51:33.307Z</time>
      </trkpt>
      <trkpt lat="42.46157" lon="1.48727333">
        <ele>944.0</ele>
        <time>2019-08-04T10:51:34.296Z</time>
      </trkpt>
      <trkpt lat="42.46152167" lon="1.487235">
        <ele>944.0</ele>
        <time>2019-08-04T10:51:35.300Z</time>
      </trkpt>
      <trkpt lat="42.46152167" lon="1.487235">
        <ele>944.0</ele>
        <time>2019-08-04T10:51:36.333Z</time>
      </trkpt>
      <trkpt lat="42.46147167" lon="1.4872">
        <ele>944.0</ele>
        <time>2019-08-04T10:51:37.299Z</time>
      </trkpt>
      <trkpt lat="42.46147167" lon="1.4872">
        <ele>944.0</ele>
        <time>2019-08-04T10:51:38.327Z</time>
      </trkpt>
      <trkpt lat="42.46142" lon="1.48716833">
        <ele>945.0</ele>
        <time>2019-08-04T10:51:39.320Z</time>
      </trkpt>
      <trkpt lat="42.46142" lon="1.48716833">
        <ele>945.0</ele>
        <time>2019-08-04T10:51:40.296Z</time>
      </trkpt>
      <trkpt lat="42.46137" lon="1.48713667">
        <ele>945.0</ele>
        <time>2019-08-04T10:51:41.302Z</time>
      </trkpt>
      <trkpt lat="42.46137" lon="1.48713667">
        <ele>945.0</ele>
        <time>2019-08-04T10:51:42.334Z</time>
      </trkpt>
      <trkpt lat="42.46132167" lon="1.48710333">
        <ele>945.0</ele>
        <time>2019-08-04T10:51:43.315Z</time>
      </trkpt>
      <trkpt lat="42.46132167" lon="1.48710333">
        <ele>945.0</ele>
        <time>2019-08-04T10:51:44.298Z</time>
      </trkpt>
      <trkpt lat="42.46127667" lon="1.48707">
        <ele>945.0</ele>
        <time>2019-08-04T10:51:45.302Z</time>
      </trkpt>
      <trkpt lat="42.46127667" lon="1.48707">
        <ele>945.0</ele>
        <time>2019-08-04T10:51:46.327Z</time>
      </trkpt>
      <trkpt lat="42.46124" lon="1.487025">
        <ele>946.0</ele>
        <time>2019-08-04T10:51:47.310Z</time>
      </trkpt>
      <trkpt lat="42.46124" lon="1.487025">
        <ele>946.0</ele>
        <time>2019-08-04T10:51:48.296Z</time>
      </trkpt>
      <trkpt lat="42.46123" lon="1.48697167">
        <ele>946.0</ele>
        <time>2019-08-04T10:51:49.330Z</time>
      </trkpt>
      <trkpt lat="42.46123667" lon="1.48694333">
        <ele>947.0</ele>
        <time>2019-08-04T10:51:50.309Z</time>
      </trkpt>
      <trkpt lat="42.46123667" lon="1.48694333">
        <ele>947.0</ele>
        <time>2019-08-04T10:51:51.335Z</time>
      </trkpt>
      <trkpt lat="42.461265" lon="1.486895">
        <ele>947.0</ele>
        <time>2019-08-04T10:51:52.321Z</time>
      </trkpt>
      <trkpt lat="42.461285" lon="1.48687667">
        <ele>947.0</ele>
        <time>2019-08-04T10:51:53.302Z</time>
      </trkpt>
      <trkpt lat="42.461285" lon="1.48687667">
        <ele>947.0</ele>
        <time>2019-08-04T10:51:54.334Z</time>
      </trkpt>
      <trkpt lat="42.46132833" lon="1.486855">
        <ele>948.0</ele>
        <time>2019-08-04T10:51:55.296Z</time>
      </trkpt>
      <trkpt lat="42.46132833" lon="1.486855">
        <ele>948.0</ele>
        <time>2019-08-04T10:51:56.336Z</time>
      </trkpt>
      <trkpt lat="42.461375" lon="1.48685167">
        <ele>948.0</ele>
        <time>2019-08-04T10:51:57.304Z</time>
      </trkpt>
      <trkpt lat="42.461375" lon="1.48685167">
        <ele>948.0</ele>
        <time>2019-08-04T10:51:58.296Z</time>
      </trkpt>
      <trkpt lat="42.46142333" lon="1.48685167">
        <ele>948.0</ele>
        <time>2019-08-04T10:51:59.307Z</time>
      </trkpt>
      <trkpt lat="42.46144833" lon="1.48685333">
        <ele>949.0</ele>
        <time>2019-08-04T10:52:00.298Z</time>
      </trkpt>
      <trkpt lat="42.46144833" lon="1.48685333">
        <ele>949.0</ele>
        <time>2019-08-04T10:52:01.296Z</time>
      </trkpt>
      <trkpt lat="42.46149667" lon="1.48686667">
        <ele>949.0</ele>
        <time>2019-08-04T10:52:02.303Z</time>
      </trkpt>
      <trkpt lat="42.46149667" lon="1.48686667">
        <ele>949.0</ele>
        <time>2019-08-04T10:52:03.336Z</time>
      </trkpt>
      <trkpt lat="42.46152167" lon="1.48687">
        <ele>949.0</ele>
        <time>2019-08-04T10:52:04.311Z</time>
      </trkpt>
      <trkpt lat="42.46157" lon="1.48687667">
        <ele>950.0</ele>
        <time>2019-08-04T10:52:05.300Z</time>
      </trkpt>
      <trkpt lat="42.46157" lon="1.48687667">
        <ele>950.0</ele>
        <time>2019-08-04T10:52:06.335Z</time>
      </trkpt>
      <trkpt lat="42.461615" lon="1.486885">
        <ele>950.0</ele>
        <time>2019-08-04T10:52:07.301Z</time>
      </trkpt>
      <trkpt lat="42.461615" lon="1.486885">
        <ele>950.0</ele>
        <time>2019-08-04T10:52:08.334Z</time>
      </trkpt>
      <trkpt lat="42.46166167" lon="1.48689833">
        <ele>951.0</ele>
        <time>2019-08-04T10:52:09.316Z</time>
      </trkpt>
      <trkpt lat="42.46168333" lon="1.486905">
        <ele>951.0</ele>
        <time>2019-08-04T10:52:10.296Z</time>
      </trkpt>
      <trkpt lat="42.461705" lon="1.48690833">
        <ele>951.0</ele>
        <time>2019-08-04T10:52:11.302Z</time>
      </trkpt>
      <trkpt lat="42.461705" lon="1.48690833">
        <ele>951.0</ele>
        <time>2019-08-04T10:52:12.296Z</time>
      </trkpt>
      <trkpt lat="42.46175333" lon="1.48692167">
        <ele>952.0</ele>
        <time>2019-08-04T10:52:13.302Z</time>
      </trkpt>
      <trkpt lat="42.46177667" lon="1.486925">
        <ele>952.0</ele>
        <time>2019-08-04T10:52:14.302Z</time>
      </trkpt>
      <trkpt lat="42.46177667" lon="1.486925">
        <ele>952.0</ele>
        <time>2019-08-04T10:52:15.297Z</time>
      </trkpt>
      <trkpt lat="42.46182167" lon="1.48694">
        <ele>953.0</ele>
        <time>2019-08-04T10:52:16.296Z</time>
      </trkpt>
      <trkpt lat="42.461845" lon="1.48694833">
        <ele>953.0</ele>
        <time>2019-08-04T10:52:17.301Z</time>
      </trkpt>
      <trkpt lat="42.461845" lon="1.48694833">
        <ele>953.0</ele>
        <time>2019-08-04T10:52:18.335Z</time>
      </trkpt>
      <trkpt lat="42.46189333" lon="1.48695833">
        <ele>953.0</ele>
        <time>2019-08-04T10:52:19.328Z</time>
      </trkpt>
      <trkpt lat="42.46189333" lon="1.48695833">
        <ele>953.0</ele>
        <time>2019-08-04T10:52:20.306Z</time>
      </trkpt>
      <trkpt lat="42.46193833" lon="1.48698333">
        <ele>955.0</ele>
        <time>2019-08-04T10:52:21.302Z</time>
      </trkpt>
      <trkpt lat="42.46193833" lon="1.48698333">
        <ele>955.0</ele>
        <time>2019-08-04T10:52:22.333Z</time>
      </trkpt>
      <trkpt lat="42.46198" lon="1.48700333">
        <ele>956.0</ele>
        <time>2019-08-04T10:52:23.315Z</time>
      </trkpt>
      <trkpt lat="42.46200167" lon="1.487015">
        <ele>957.0</ele>
        <time>2019-08-04T10:52:24.305Z</time>
      </trkpt>
      <trkpt lat="42.46200167" lon="1.487015">
        <ele>957.0</ele>
        <time>2019-08-04T10:52:25.333Z</time>
      </trkpt>
      <trkpt lat="42.46204333" lon="1.48703833">
        <ele>958.0</ele>
        <time>2019-08-04T10:52:26.314Z</time>
      </trkpt>
      <trkpt lat="42.46206667" lon="1.48705167">
        <ele>959.0</ele>
        <time>2019-08-04T10:52:27.303Z</time>
      </trkpt>
      <trkpt lat="42.46206667" lon="1.48705167">
        <ele>959.0</ele>
        <time>2019-08-04T10:52:28.333Z</time>
      </trkpt>
      <trkpt lat="42.46210833" lon="1.48707333">
        <ele>959.0</ele>
        <time>2019-08-04T10:52:29.307Z</time>
      </trkpt>
      <trkpt lat="42.46210833" lon="1.48707333">
        <ele>959.0</ele>
        <time>2019-08-04T10:52:30.314Z</time>
      </trkpt>
      <trkpt lat="42.46215167" lon="1.48709">
        <ele>960.0</ele>
        <time>2019-08-04T10:52:31.328Z</time>
      </trkpt>
      <trkpt lat="42.46215167" lon="1.48709">
        <ele>960.0</ele>
        <time>2019-08-04T10:52:32.306Z</time>
      </trkpt>
      <trkpt lat="42.46219667" lon="1.48710167">
        <ele>960.0</ele>
        <time>2019-08-04T10:52:33.302Z</time>
      </trkpt>
      <trkpt lat="42.46219667" lon="1.48710167">
        <ele>960.0</ele>
        <time>2019-08-04T10:52:34.334Z</time>
      </trkpt>
      <trkpt lat="42.46223667" lon="1.48712">
        <ele>961.0</ele>
        <time>2019-08-04T10:52:35.315Z</time>
      </trkpt>
      <trkpt lat="42.46223667" lon="1.48712">
        <ele>961.0</ele>
        <time>2019-08-04T10:52:36.296Z</time>
      </trkpt>
      <trkpt lat="42.46228167" lon="1.487135">
        <ele>961.0</ele>
        <time>2019-08-04T10:52:37.320Z</time>
      </trkpt>
      <trkpt lat="42.462305" lon="1.48713667">
        <ele>962.0</ele>
        <time>2019-08-04T10:52:38.302Z</time>
      </trkpt>
      <trkpt lat="42.462305" lon="1.48713667">
        <ele>962.0</ele>
        <time>2019-08-04T10:52:39.312Z</time>
      </trkpt>
      <trkpt lat="42.46234667" lon="1.48712167">
        <ele>962.0</ele>
        <time>2019-08-04T10:52:40.297Z</time>
      </trkpt>
      <trkpt lat="42.46236167" lon="1.48709667">
        <ele>963.0</ele>
        <time>2019-08-04T10:52:41.302Z</time>
      </trkpt>
      <trkpt lat="42.46236167" lon="1.48709667">
        <ele>963.0</ele>
        <time>2019-08-04T10:52:42.334Z</time>
      </trkpt>
      <trkpt lat="42.46238167" lon="1.487045">
        <ele>964.0</ele>
        <time>2019-08-04T10:52:43.315Z</time>
      </trkpt>
      <trkpt lat="42.46238167" lon="1.487045">
        <ele>964.0</ele>
        <time>2019-08-04T10:52:44.296Z</time>
      </trkpt>
      <trkpt lat="42.46238333" lon="1.48698667">
        <ele>964.0</ele>
        <time>2019-08-04T10:52:45.301Z</time>
      </trkpt>
      <trkpt lat="42.46238333" lon="1.48698667">
        <ele>964.0</ele>
        <time>2019-08-04T10:52:46.334Z</time>
      </trkpt>
      <trkpt lat="42.46236667" lon="1.48692167">
        <ele>964.0</ele>
        <time>2019-08-04T10:52:47.302Z</time>
      </trkpt>
      <trkpt lat="42.46236667" lon="1.48692167">
        <ele>964.0</ele>
        <time>2019-08-04T10:52:48.334Z</time>
      </trkpt>
      <trkpt lat="42.46234333" lon="1.48687">
        <ele>964.0</ele>
        <time>2019-08-04T10:52:49.315Z</time>
      </trkpt>
      <trkpt lat="42.46234333" lon="1.48687">
        <ele>964.0</ele>
        <time>2019-08-04T10:52:50.301Z</time>
      </trkpt>
      <trkpt lat="42.46231667" lon="1.48682">
        <ele>965.0</ele>
        <time>2019-08-04T10:52:51.301Z</time>
      </trkpt>
      <trkpt lat="42.46231667" lon="1.48682">
        <ele>965.0</ele>
        <time>2019-08-04T10:52:52.336Z</time>
      </trkpt>
      <trkpt lat="42.46228833" lon="1.48677667">
        <ele>965.0</ele>
        <time>2019-08-04T10:52:53.302Z</time>
      </trkpt>
      <trkpt lat="42.46228833" lon="1.48677667">
        <ele>965.0</ele>
        <time>2019-08-04T10:52:54.335Z</time>
      </trkpt>
      <trkpt lat="42.46225667" lon="1.48673167">
        <ele>965.0</ele>
        <time>2019-08-04T10:52:55.300Z</time>
      </trkpt>
      <trkpt lat="42.46225667" lon="1.48673167">
        <ele>965.0</ele>
        <time>2019-08-04T10:52:56.333Z</time>
      </trkpt>
      <trkpt lat="42.46223" lon="1.48668333">
        <ele>964.0</ele>
        <time>2019-08-04T10:52:57.320Z</time>
      </trkpt>
      <trkpt lat="42.46221667" lon="1.48665833">
        <ele>964.0</ele>
        <time>2019-08-04T10:52:58.302Z</time>
      </trkpt>
      <trkpt lat="42.46220833" lon="1.48663">
        <ele>964.0</ele>
        <time>2019-08-04T10:52:59.316Z</time>
      </trkpt>
      <trkpt lat="42.46220833" lon="1.48663">
        <ele>964.0</ele>
        <time>2019-08-04T10:53:00.300Z</time>
      </trkpt>
      <trkpt lat="42.46219333" lon="1.48657333">
        <ele>965.0</ele>
        <time>2019-08-04T10:53:01.301Z</time>
      </trkpt>
      <trkpt lat="42.46219333" lon="1.48657333">
        <ele>965.0</ele>
        <time>2019-08-04T10:53:02.301Z</time>
      </trkpt>
      <trkpt lat="42.46218167" lon="1.48652">
        <ele>965.0</ele>
        <time>2019-08-04T10:53:03.303Z</time>
      </trkpt>
      <trkpt lat="42.46218167" lon="1.48652">
        <ele>965.0</ele>
        <time>2019-08-04T10:53:04.334Z</time>
      </trkpt>
      <trkpt lat="42.46217833" lon="1.48646833">
        <ele>966.0</ele>
        <time>2019-08-04T10:53:05.314Z</time>
      </trkpt>
      <trkpt lat="42.46217833" lon="1.48646833">
        <ele>966.0</ele>
        <time>2019-08-04T10:53:06.335Z</time>
      </trkpt>
      <trkpt lat="42.46218167" lon="1.486415">
        <ele>967.0</ele>
        <time>2019-08-04T10:53:07.316Z</time>
      </trkpt>
      <trkpt lat="42.46218167" lon="1.486415">
        <ele>967.0</ele>
        <time>2019-08-04T10:53:08.300Z</time>
      </trkpt>
      <trkpt lat="42.46218167" lon="1.486415">
        <ele>967.0</ele>
        <time>2019-08-04T10:53:09.359Z</time>
      </trkpt>
      <trkpt lat="42.46218833" lon="1.48636167">
        <ele>967.0</ele>
        <time>2019-08-04T10:53:10.311Z</time>
      </trkpt>
      <trkpt lat="42.46219833" lon="1.48631">
        <ele>968.0</ele>
        <time>2019-08-04T10:53:11.302Z</time>
      </trkpt>
      <trkpt lat="42.46219833" lon="1.48631">
        <ele>968.0</ele>
        <time>2019-08-04T10:53:12.334Z</time>
      </trkpt>
      <trkpt lat="42.46220333" lon="1.486255">
        <ele>969.0</ele>
        <time>2019-08-04T10:53:13.316Z</time>
      </trkpt>
      <trkpt lat="42.46220333" lon="1.486255">
        <ele>969.0</ele>
        <time>2019-08-04T10:53:14.300Z</time>
      </trkpt>
      <trkpt lat="42.462195" lon="1.486205">
        <ele>969.0</ele>
        <time>2019-08-04T10:53:15.302Z</time>
      </trkpt>
      <trkpt lat="42.462195" lon="1.486205">
        <ele>969.0</ele>
        <time>2019-08-04T10:53:16.334Z</time>
      </trkpt>
      <trkpt lat="42.46217" lon="1.48615833">
        <ele>970.0</ele>
        <time>2019-08-04T10:53:17.302Z</time>
      </trkpt>
      <trkpt lat="42.46217" lon="1.48615833">
        <ele>970.0</ele>
        <time>2019-08-04T10:53:18.334Z</time>
      </trkpt>
      <trkpt lat="42.46213667" lon="1.48612333">
        <ele>970.0</ele>
        <time>2019-08-04T10:53:19.317Z</time>
      </trkpt>
      <trkpt lat="42.46213667" lon="1.48612333">
        <ele>970.0</ele>
        <time>2019-08-04T10:53:20.298Z</time>
      </trkpt>
      <trkpt lat="42.46209833" lon="1.48609167">
        <ele>970.0</ele>
        <time>2019-08-04T10:53:21.302Z</time>
      </trkpt>
      <trkpt lat="42.46209833" lon="1.48609167">
        <ele>970.0</ele>
        <time>2019-08-04T10:53:22.296Z</time>
      </trkpt>
      <trkpt lat="42.46205833" lon="1.48606667">
        <ele>970.0</ele>
        <time>2019-08-04T10:53:23.306Z</time>
      </trkpt>
      <trkpt lat="42.46205833" lon="1.48606667">
        <ele>970.0</ele>
        <time>2019-08-04T10:53:24.334Z</time>
      </trkpt>
      <trkpt lat="42.46201667" lon="1.486045">
        <ele>971.0</ele>
        <time>2019-08-04T10:53:25.316Z</time>
      </trkpt>
      <trkpt lat="42.46201667" lon="1.486045">
        <ele>971.0</ele>
        <time>2019-08-04T10:53:26.299Z</time>
      </trkpt>
      <trkpt lat="42.46197667" lon="1.48602333">
        <ele>971.0</ele>
        <time>2019-08-04T10:53:27.300Z</time>
      </trkpt>
      <trkpt lat="42.461955" lon="1.486015">
        <ele>971.0</ele>
        <time>2019-08-04T10:53:28.297Z</time>
      </trkpt>
      <trkpt lat="42.461955" lon="1.486015">
        <ele>971.0</ele>
        <time>2019-08-04T10:53:29.303Z</time>
      </trkpt>
      <trkpt lat="42.46191167" lon="1.48600167">
        <ele>971.0</ele>
        <time>2019-08-04T10:53:30.296Z</time>
      </trkpt>
      <trkpt lat="42.46191167" lon="1.48600167">
        <ele>971.0</ele>
        <time>2019-08-04T10:53:31.303Z</time>
      </trkpt>
      <trkpt lat="42.46187167" lon="1.48599167">
        <ele>971.0</ele>
        <time>2019-08-04T10:53:32.319Z</time>
      </trkpt>
      <trkpt lat="42.46185" lon="1.48598667">
        <ele>972.0</ele>
        <time>2019-08-04T10:53:33.302Z</time>
      </trkpt>
      <trkpt lat="42.46185" lon="1.48598667">
        <ele>972.0</ele>
        <time>2019-08-04T10:53:34.296Z</time>
      </trkpt>
      <trkpt lat="42.46180833" lon="1.48597833">
        <ele>972.0</ele>
        <time>2019-08-04T10:53:35.302Z</time>
      </trkpt>
      <trkpt lat="42.46180833" lon="1.48597833">
        <ele>972.0</ele>
        <time>2019-08-04T10:53:36.296Z</time>
      </trkpt>
      <trkpt lat="42.46176333" lon="1.48597667">
        <ele>972.0</ele>
        <time>2019-08-04T10:53:37.316Z</time>
      </trkpt>
      <trkpt lat="42.46176333" lon="1.48597667">
        <ele>972.0</ele>
        <time>2019-08-04T10:53:38.301Z</time>
      </trkpt>
      <trkpt lat="42.46172167" lon="1.48597833">
        <ele>972.0</ele>
        <time>2019-08-04T10:53:39.328Z</time>
      </trkpt>
      <trkpt lat="42.46172167" lon="1.48597833">
        <ele>972.0</ele>
        <time>2019-08-04T10:53:40.315Z</time>
      </trkpt>
      <trkpt lat="42.46168" lon="1.485985">
        <ele>972.0</ele>
        <time>2019-08-04T10:53:41.302Z</time>
      </trkpt>
      <trkpt lat="42.46168" lon="1.485985">
        <ele>972.0</ele>
        <time>2019-08-04T10:53:42.336Z</time>
      </trkpt>
      <trkpt lat="42.46163833" lon="1.48599333">
        <ele>972.0</ele>
        <time>2019-08-04T10:53:43.296Z</time>
      </trkpt>
      <trkpt lat="42.46163833" lon="1.48599333">
        <ele>972.0</ele>
        <time>2019-08-04T10:53:44.307Z</time>
      </trkpt>
      <trkpt lat="42.46160167" lon="1.48599833">
        <ele>972.0</ele>
        <time>2019-08-04T10:53:45.303Z</time>
      </trkpt>
      <trkpt lat="42.46160167" lon="1.48599833">
        <ele>972.0</ele>
        <time>2019-08-04T10:53:46.334Z</time>
      </trkpt>
      <trkpt lat="42.46156167" lon="1.486">
        <ele>973.0</ele>
        <time>2019-08-04T10:53:47.302Z</time>
      </trkpt>
      <trkpt lat="42.46156167" lon="1.486">
        <ele>973.0</ele>
        <time>2019-08-04T10:53:48.335Z</time>
      </trkpt>
      <trkpt lat="42.46152167" lon="1.486005">
        <ele>973.0</ele>
        <time>2019-08-04T10:53:49.318Z</time>
      </trkpt>
      <trkpt lat="42.46152167" lon="1.486005">
        <ele>973.0</ele>
        <time>2019-08-04T10:53:50.298Z</time>
      </trkpt>
      <trkpt lat="42.46148333" lon="1.486015">
        <ele>973.0</ele>
        <time>2019-08-04T10:53:51.302Z</time>
      </trkpt>
      <trkpt lat="42.46148333" lon="1.486015">
        <ele>973.0</ele>
        <time>2019-08-04T10:53:52.296Z</time>
      </trkpt>
      <trkpt lat="42.46144333" lon="1.48601833">
        <ele>973.0</ele>
        <time>2019-08-04T10:53:53.300Z</time>
      </trkpt>
      <trkpt lat="42.46144333" lon="1.48601833">
        <ele>973.0</ele>
        <time>2019-08-04T10:53:54.335Z</time>
      </trkpt>
      <trkpt lat="42.46140667" lon="1.48601833">
        <ele>973.0</ele>
        <time>2019-08-04T10:53:55.316Z</time>
      </trkpt>
      <trkpt lat="42.46140667" lon="1.48601833">
        <ele>973.0</ele>
        <time>2019-08-04T10:53:56.298Z</time>
      </trkpt>
      <trkpt lat="42.46136667" lon="1.486025">
        <ele>974.0</ele>
        <time>2019-08-04T10:53:57.320Z</time>
      </trkpt>
      <trkpt lat="42.46134833" lon="1.48602667">
        <ele>974.0</ele>
        <time>2019-08-04T10:53:58.302Z</time>
      </trkpt>
      <trkpt lat="42.46132833" lon="1.48602667">
        <ele>974.0</ele>
        <time>2019-08-04T10:53:59.313Z</time>
      </trkpt>
      <trkpt lat="42.46132833" lon="1.48602667">
        <ele>974.0</ele>
        <time>2019-08-04T10:54:00.298Z</time>
      </trkpt>
      <trkpt lat="42.46128833" lon="1.48603">
        <ele>975.0</ele>
        <time>2019-08-04T10:54:01.301Z</time>
      </trkpt>
      <trkpt lat="42.46128833" lon="1.48603">
        <ele>975.0</ele>
        <time>2019-08-04T10:54:02.303Z</time>
      </trkpt>
      <trkpt lat="42.461245" lon="1.48603833">
        <ele>975.0</ele>
        <time>2019-08-04T10:54:03.303Z</time>
      </trkpt>
      <trkpt lat="42.461245" lon="1.48603833">
        <ele>975.0</ele>
        <time>2019-08-04T10:54:04.335Z</time>
      </trkpt>
      <trkpt lat="42.46120167" lon="1.48604667">
        <ele>975.0</ele>
        <time>2019-08-04T10:54:05.316Z</time>
      </trkpt>
      <trkpt lat="42.46120167" lon="1.48604667">
        <ele>975.0</ele>
        <time>2019-08-04T10:54:06.298Z</time>
      </trkpt>
      <trkpt lat="42.46116167" lon="1.48605667">
        <ele>976.0</ele>
        <time>2019-08-04T10:54:07.306Z</time>
      </trkpt>
      <trkpt lat="42.46116167" lon="1.48605667">
        <ele>976.0</ele>
        <time>2019-08-04T10:54:08.335Z</time>
      </trkpt>
      <trkpt lat="42.46116167" lon="1.48605667">
        <ele>976.0</ele>
        <time>2019-08-04T10:54:09.371Z</time>
      </trkpt>
      <trkpt lat="42.461125" lon="1.486075">
        <ele>976.0</ele>
        <time>2019-08-04T10:54:10.297Z</time>
      </trkpt>
      <trkpt lat="42.46108333" lon="1.486085">
        <ele>976.0</ele>
        <time>2019-08-04T10:54:11.312Z</time>
      </trkpt>
      <trkpt lat="42.46108333" lon="1.486085">
        <ele>976.0</ele>
        <time>2019-08-04T10:54:12.298Z</time>
      </trkpt>
      <trkpt lat="42.46104" lon="1.48610167">
        <ele>977.0</ele>
        <time>2019-08-04T10:54:13.300Z</time>
      </trkpt>
      <trkpt lat="42.46101667" lon="1.48611333">
        <ele>977.0</ele>
        <time>2019-08-04T10:54:14.303Z</time>
      </trkpt>
      <trkpt lat="42.46101667" lon="1.48611333">
        <ele>977.0</ele>
        <time>2019-08-04T10:54:15.296Z</time>
      </trkpt>
      <trkpt lat="42.46098167" lon="1.48613333">
        <ele>977.0</ele>
        <time>2019-08-04T10:54:16.300Z</time>
      </trkpt>
      <trkpt lat="42.46098167" lon="1.48613333">
        <ele>977.0</ele>
        <time>2019-08-04T10:54:17.297Z</time>
      </trkpt>
      <trkpt lat="42.46094333" lon="1.48614833">
        <ele>977.0</ele>
        <time>2019-08-04T10:54:18.302Z</time>
      </trkpt>
      <trkpt lat="42.46094333" lon="1.48614833">
        <ele>977.0</ele>
        <time>2019-08-04T10:54:19.315Z</time>
      </trkpt>
      <trkpt lat="42.46090167" lon="1.48616833">
        <ele>978.0</ele>
        <time>2019-08-04T10:54:20.302Z</time>
      </trkpt>
      <trkpt lat="42.46088333" lon="1.48617833">
        <ele>978.0</ele>
        <time>2019-08-04T10:54:21.302Z</time>
      </trkpt>
      <trkpt lat="42.46088333" lon="1.48617833">
        <ele>978.0</ele>
        <time>2019-08-04T10:54:22.335Z</time>
      </trkpt>
      <trkpt lat="42.46084833" lon="1.4862">
        <ele>978.0</ele>
        <time>2019-08-04T10:54:23.302Z</time>
      </trkpt>
      <trkpt lat="42.46084833" lon="1.4862">
        <ele>978.0</ele>
        <time>2019-08-04T10:54:24.335Z</time>
      </trkpt>
      <trkpt lat="42.46082167" lon="1.48621833">
        <ele>979.0</ele>
        <time>2019-08-04T10:54:25.315Z</time>
      </trkpt>
      <trkpt lat="42.46080333" lon="1.486225">
        <ele>979.0</ele>
        <time>2019-08-04T10:54:26.300Z</time>
      </trkpt>
      <trkpt lat="42.46078833" lon="1.48623333">
        <ele>979.0</ele>
        <time>2019-08-04T10:54:27.303Z</time>
      </trkpt>
      <trkpt lat="42.46078833" lon="1.48623333">
        <ele>979.0</ele>
        <time>2019-08-04T10:54:28.297Z</time>
      </trkpt>
      <trkpt lat="42.46074833" lon="1.48625333">
        <ele>980.0</ele>
        <time>2019-08-04T10:54:29.310Z</time>
      </trkpt>
      <trkpt lat="42.46074833" lon="1.48625333">
        <ele>980.0</ele>
        <time>2019-08-04T10:54:30.316Z</time>
      </trkpt>
      <trkpt lat="42.46071" lon="1.48627333">
        <ele>980.0</ele>
        <time>2019-08-04T10:54:31.331Z</time>
      </trkpt>
      <trkpt lat="42.46068833" lon="1.48628333">
        <ele>980.0</ele>
        <time>2019-08-04T10:54:32.323Z</time>
      </trkpt>
      <trkpt lat="42.46068833" lon="1.48628333">
        <ele>980.0</ele>
        <time>2019-08-04T10:54:33.306Z</time>
      </trkpt>
      <trkpt lat="42.460645" lon="1.48630167">
        <ele>981.0</ele>
        <time>2019-08-04T10:54:34.296Z</time>
      </trkpt>
      <trkpt lat="42.460625" lon="1.48630833">
        <ele>981.0</ele>
        <time>2019-08-04T10:54:35.302Z</time>
      </trkpt>
      <trkpt lat="42.460625" lon="1.48630833">
        <ele>981.0</ele>
        <time>2019-08-04T10:54:36.335Z</time>
      </trkpt>
      <trkpt lat="42.46058333" lon="1.48632833">
        <ele>981.0</ele>
        <time>2019-08-04T10:54:37.297Z</time>
      </trkpt>
      <trkpt lat="42.46056167" lon="1.48633833">
        <ele>981.0</ele>
        <time>2019-08-04T10:54:38.302Z</time>
      </trkpt>
      <trkpt lat="42.46054" lon="1.486345">
        <ele>981.0</ele>
        <time>2019-08-04T10:54:39.320Z</time>
      </trkpt>
      <trkpt lat="42.46054" lon="1.486345">
        <ele>981.0</ele>
        <time>2019-08-04T10:54:40.300Z</time>
      </trkpt>
      <trkpt lat="42.46049833" lon="1.48636167">
        <ele>981.0</ele>
        <time>2019-08-04T10:54:41.302Z</time>
      </trkpt>
      <trkpt lat="42.46049833" lon="1.48636167">
        <ele>981.0</ele>
        <time>2019-08-04T10:54:42.335Z</time>
      </trkpt>
      <trkpt lat="42.46045667" lon="1.48637667">
        <ele>981.0</ele>
        <time>2019-08-04T10:54:43.302Z</time>
      </trkpt>
      <trkpt lat="42.46045667" lon="1.48637667">
        <ele>981.0</ele>
        <time>2019-08-04T10:54:44.335Z</time>
      </trkpt>
      <trkpt lat="42.460415" lon="1.486395">
        <ele>981.0</ele>
        <time>2019-08-04T10:54:45.304Z</time>
      </trkpt>
      <trkpt lat="42.460415" lon="1.486395">
        <ele>981.0</ele>
        <time>2019-08-04T10:54:46.335Z</time>
      </trkpt>
      <trkpt lat="42.46036667" lon="1.48641667">
        <ele>982.0</ele>
        <time>2019-08-04T10:54:47.321Z</time>
      </trkpt>
      <trkpt lat="42.46036667" lon="1.48641667">
        <ele>982.0</ele>
        <time>2019-08-04T10:54:48.302Z</time>
      </trkpt>
      <trkpt lat="42.46032333" lon="1.48642833">
        <ele>982.0</ele>
        <time>2019-08-04T10:54:49.321Z</time>
      </trkpt>
      <trkpt lat="42.46030333" lon="1.48642833">
        <ele>983.0</ele>
        <time>2019-08-04T10:54:50.303Z</time>
      </trkpt>
      <trkpt lat="42.46030333" lon="1.48642833">
        <ele>983.0</ele>
        <time>2019-08-04T10:54:51.296Z</time>
      </trkpt>
      <trkpt lat="42.460265" lon="1.48641333">
        <ele>983.0</ele>
        <time>2019-08-04T10:54:52.316Z</time>
      </trkpt>
      <trkpt lat="42.46024833" lon="1.48639667">
        <ele>983.0</ele>
        <time>2019-08-04T10:54:53.302Z</time>
      </trkpt>
      <trkpt lat="42.46024833" lon="1.48639667">
        <ele>983.0</ele>
        <time>2019-08-04T10:54:54.303Z</time>
      </trkpt>
      <trkpt lat="42.46022833" lon="1.48634833">
        <ele>984.0</ele>
        <time>2019-08-04T10:54:55.302Z</time>
      </trkpt>
      <trkpt lat="42.46022833" lon="1.48634833">
        <ele>984.0</ele>
        <time>2019-08-04T10:54:56.335Z</time>
      </trkpt>
      <trkpt lat="42.46023833" lon="1.48629167">
        <ele>985.0</ele>
        <time>2019-08-04T10:54:57.315Z</time>
      </trkpt>
      <trkpt lat="42.46023833" lon="1.48629167">
        <ele>985.0</ele>
        <time>2019-08-04T10:54:58.298Z</time>
      </trkpt>
      <trkpt lat="42.46026833" lon="1.48625833">
        <ele>986.0</ele>
        <time>2019-08-04T10:54:59.328Z</time>
      </trkpt>
      <trkpt lat="42.46026833" lon="1.48625833">
        <ele>986.0</ele>
        <time>2019-08-04T10:55:00.342Z</time>
      </trkpt>
      <trkpt lat="42.46028667" lon="1.48624667">
        <ele>986.0</ele>
        <time>2019-08-04T10:55:01.335Z</time>
      </trkpt>
      <trkpt lat="42.46032" lon="1.48622167">
        <ele>987.0</ele>
        <time>2019-08-04T10:55:02.317Z</time>
      </trkpt>
      <trkpt lat="42.46033833" lon="1.48621333">
        <ele>987.0</ele>
        <time>2019-08-04T10:55:03.313Z</time>
      </trkpt>
      <trkpt lat="42.46033833" lon="1.48621333">
        <ele>987.0</ele>
        <time>2019-08-04T10:55:04.335Z</time>
      </trkpt>
      <trkpt lat="42.46037333" lon="1.48619">
        <ele>988.0</ele>
        <time>2019-08-04T10:55:05.302Z</time>
      </trkpt>
      <trkpt lat="42.46037333" lon="1.48619">
        <ele>988.0</ele>
        <time>2019-08-04T10:55:06.296Z</time>
      </trkpt>
      <trkpt lat="42.46040667" lon="1.48616">
        <ele>988.0</ele>
        <time>2019-08-04T10:55:07.301Z</time>
      </trkpt>
      <trkpt lat="42.46040667" lon="1.48616">
        <ele>988.0</ele>
        <time>2019-08-04T10:55:08.296Z</time>
      </trkpt>
      <trkpt lat="42.46044333" lon="1.48614167">
        <ele>989.0</ele>
        <time>2019-08-04T10:55:09.322Z</time>
      </trkpt>
      <trkpt lat="42.46044333" lon="1.48614167">
        <ele>989.0</ele>
        <time>2019-08-04T10:55:10.306Z</time>
      </trkpt>
      <trkpt lat="42.46048167" lon="1.48612833">
        <ele>989.0</ele>
        <time>2019-08-04T10:55:11.302Z</time>
      </trkpt>
      <trkpt lat="42.46048167" lon="1.48612833">
        <ele>989.0</ele>
        <time>2019-08-04T10:55:12.296Z</time>
      </trkpt>
      <trkpt lat="42.46052167" lon="1.486115">
        <ele>990.0</ele>
        <time>2019-08-04T10:55:13.302Z</time>
      </trkpt>
      <trkpt lat="42.46052167" lon="1.486115">
        <ele>990.0</ele>
        <time>2019-08-04T10:55:14.335Z</time>
      </trkpt>
      <trkpt lat="42.46056" lon="1.48608833">
        <ele>990.0</ele>
        <time>2019-08-04T10:55:15.304Z</time>
      </trkpt>
      <trkpt lat="42.46056" lon="1.48608833">
        <ele>990.0</ele>
        <time>2019-08-04T10:55:16.335Z</time>
      </trkpt>
      <trkpt lat="42.460595" lon="1.48606167">
        <ele>991.0</ele>
        <time>2019-08-04T10:55:17.316Z</time>
      </trkpt>
      <trkpt lat="42.460595" lon="1.48606167">
        <ele>991.0</ele>
        <time>2019-08-04T10:55:18.300Z</time>
      </trkpt>
      <trkpt lat="42.46063" lon="1.48603333">
        <ele>992.0</ele>
        <time>2019-08-04T10:55:19.321Z</time>
      </trkpt>
      <trkpt lat="42.46063" lon="1.48603333">
        <ele>992.0</ele>
        <time>2019-08-04T10:55:20.298Z</time>
      </trkpt>
      <trkpt lat="42.46066667" lon="1.48599667">
        <ele>992.0</ele>
        <time>2019-08-04T10:55:21.300Z</time>
      </trkpt>
      <trkpt lat="42.46066667" lon="1.48599667">
        <ele>992.0</ele>
        <time>2019-08-04T10:55:22.336Z</time>
      </trkpt>
      <trkpt lat="42.46070333" lon="1.48597167">
        <ele>993.0</ele>
        <time>2019-08-04T10:55:23.300Z</time>
      </trkpt>
      <trkpt lat="42.46070333" lon="1.48597167">
        <ele>993.0</ele>
        <time>2019-08-04T10:55:24.316Z</time>
      </trkpt>
      <trkpt lat="42.46073833" lon="1.48592833">
        <ele>994.0</ele>
        <time>2019-08-04T10:55:25.300Z</time>
      </trkpt>
      <trkpt lat="42.46073833" lon="1.48592833">
        <ele>994.0</ele>
        <time>2019-08-04T10:55:26.335Z</time>
      </trkpt>
      <trkpt lat="42.46077167" lon="1.48589">
        <ele>995.0</ele>
        <time>2019-08-04T10:55:27.318Z</time>
      </trkpt>
      <trkpt lat="42.46077167" lon="1.48589">
        <ele>995.0</ele>
        <time>2019-08-04T10:55:28.297Z</time>
      </trkpt>
      <trkpt lat="42.460805" lon="1.48585167">
        <ele>996.0</ele>
        <time>2019-08-04T10:55:29.320Z</time>
      </trkpt>
      <trkpt lat="42.460805" lon="1.48585167">
        <ele>996.0</ele>
        <time>2019-08-04T10:55:30.305Z</time>
      </trkpt>
      <trkpt lat="42.46083667" lon="1.48581833">
        <ele>996.0</ele>
        <time>2019-08-04T10:55:31.311Z</time>
      </trkpt>
      <trkpt lat="42.460855" lon="1.48580167">
        <ele>996.0</ele>
        <time>2019-08-04T10:55:32.307Z</time>
      </trkpt>
      <trkpt lat="42.460875" lon="1.48578833">
        <ele>997.0</ele>
        <time>2019-08-04T10:55:33.300Z</time>
      </trkpt>
      <trkpt lat="42.460875" lon="1.48578833">
        <ele>997.0</ele>
        <time>2019-08-04T10:55:34.296Z</time>
      </trkpt>
      <trkpt lat="42.460915" lon="1.48575833">
        <ele>997.0</ele>
        <time>2019-08-04T10:55:35.315Z</time>
      </trkpt>
      <trkpt lat="42.460915" lon="1.48575833">
        <ele>997.0</ele>
        <time>2019-08-04T10:55:36.308Z</time>
      </trkpt>
      <trkpt lat="42.46095167" lon="1.48573167">
        <ele>998.0</ele>
        <time>2019-08-04T10:55:37.301Z</time>
      </trkpt>
      <trkpt lat="42.46096833" lon="1.48572167">
        <ele>998.0</ele>
        <time>2019-08-04T10:55:38.303Z</time>
      </trkpt>
      <trkpt lat="42.460985" lon="1.48571167">
        <ele>998.0</ele>
        <time>2019-08-04T10:55:39.323Z</time>
      </trkpt>
      <trkpt lat="42.460985" lon="1.48571167">
        <ele>998.0</ele>
        <time>2019-08-04T10:55:40.306Z</time>
      </trkpt>
      <trkpt lat="42.46101833" lon="1.48569333">
        <ele>999.0</ele>
        <time>2019-08-04T10:55:41.332Z</time>
      </trkpt>
      <trkpt lat="42.46103333" lon="1.48568333">
        <ele>1000.0</ele>
        <time>2019-08-04T10:55:42.317Z</time>
      </trkpt>
      <trkpt lat="42.461055" lon="1.485665">
        <ele>1000.0</ele>
        <time>2019-08-04T10:55:43.302Z</time>
      </trkpt>
      <trkpt lat="42.461055" lon="1.485665">
        <ele>1000.0</ele>
        <time>2019-08-04T10:55:44.335Z</time>
      </trkpt>
      <trkpt lat="42.46109167" lon="1.48561167">
        <ele>1001.0</ele>
        <time>2019-08-04T10:55:45.317Z</time>
      </trkpt>
      <trkpt lat="42.46109167" lon="1.48561167">
        <ele>1001.0</ele>
        <time>2019-08-04T10:55:46.336Z</time>
      </trkpt>
      <trkpt lat="42.46110833" lon="1.48554333">
        <ele>1002.0</ele>
        <time>2019-08-04T10:55:47.305Z</time>
      </trkpt>
      <trkpt lat="42.46110833" lon="1.48554333">
        <ele>1002.0</ele>
        <time>2019-08-04T10:55:48.335Z</time>
      </trkpt>
      <trkpt lat="42.46109833" lon="1.485475">
        <ele>1003.0</ele>
        <time>2019-08-04T10:55:49.318Z</time>
      </trkpt>
      <trkpt lat="42.46109833" lon="1.485475">
        <ele>1003.0</ele>
        <time>2019-08-04T10:55:50.335Z</time>
      </trkpt>
      <trkpt lat="42.46105833" lon="1.485435">
        <ele>1004.0</ele>
        <time>2019-08-04T10:55:51.321Z</time>
      </trkpt>
      <trkpt lat="42.46103333" lon="1.48542833">
        <ele>1005.0</ele>
        <time>2019-08-04T10:55:52.301Z</time>
      </trkpt>
      <trkpt lat="42.46100833" lon="1.48543333">
        <ele>1005.0</ele>
        <time>2019-08-04T10:55:53.302Z</time>
      </trkpt>
      <trkpt lat="42.46100833" lon="1.48543333">
        <ele>1005.0</ele>
        <time>2019-08-04T10:55:54.335Z</time>
      </trkpt>
      <trkpt lat="42.460955" lon="1.48546667">
        <ele>1005.0</ele>
        <time>2019-08-04T10:55:55.302Z</time>
      </trkpt>
      <trkpt lat="42.460955" lon="1.48546667">
        <ele>1005.0</ele>
        <time>2019-08-04T10:55:56.335Z</time>
      </trkpt>
      <trkpt lat="42.46091667" lon="1.48551167">
        <ele>1006.0</ele>
        <time>2019-08-04T10:55:57.315Z</time>
      </trkpt>
      <trkpt lat="42.46091667" lon="1.48551167">
        <ele>1006.0</ele>
        <time>2019-08-04T10:55:58.298Z</time>
      </trkpt>
      <trkpt lat="42.46087333" lon="1.48555167">
        <ele>1006.0</ele>
        <time>2019-08-04T10:55:59.321Z</time>
      </trkpt>
      <trkpt lat="42.46087333" lon="1.48555167">
        <ele>1006.0</ele>
        <time>2019-08-04T10:56:00.346Z</time>
      </trkpt>
      <trkpt lat="42.460855" lon="1.48557167">
        <ele>1007.0</ele>
        <time>2019-08-04T10:56:01.335Z</time>
      </trkpt>
      <trkpt lat="42.46081" lon="1.48560667">
        <ele>1007.0</ele>
        <time>2019-08-04T10:56:02.313Z</time>
      </trkpt>
      <trkpt lat="42.46078667" lon="1.48562167">
        <ele>1008.0</ele>
        <time>2019-08-04T10:56:03.306Z</time>
      </trkpt>
      <trkpt lat="42.46078667" lon="1.48562167">
        <ele>1008.0</ele>
        <time>2019-08-04T10:56:04.335Z</time>
      </trkpt>
      <trkpt lat="42.460745" lon="1.48565167">
        <ele>1008.0</ele>
        <time>2019-08-04T10:56:05.322Z</time>
      </trkpt>
      <trkpt lat="42.460745" lon="1.48565167">
        <ele>1008.0</ele>
        <time>2019-08-04T10:56:06.304Z</time>
      </trkpt>
      <trkpt lat="42.46070167" lon="1.48567333">
        <ele>1009.0</ele>
        <time>2019-08-04T10:56:07.302Z</time>
      </trkpt>
      <trkpt lat="42.46067667" lon="1.48568167">
        <ele>1009.0</ele>
        <time>2019-08-04T10:56:08.297Z</time>
      </trkpt>
      <trkpt lat="42.46065333" lon="1.48568167">
        <ele>1009.0</ele>
        <time>2019-08-04T10:56:09.323Z</time>
      </trkpt>
      <trkpt lat="42.46065333" lon="1.48568167">
        <ele>1009.0</ele>
        <time>2019-08-04T10:56:10.300Z</time>
      </trkpt>
      <trkpt lat="42.46060667" lon="1.48567833">
        <ele>1010.0</ele>
        <time>2019-08-04T10:56:11.302Z</time>
      </trkpt>
      <trkpt lat="42.460585" lon="1.48567">
        <ele>1010.0</ele>
        <time>2019-08-04T10:56:12.302Z</time>
      </trkpt>
      <trkpt lat="42.460585" lon="1.48567">
        <ele>1010.0</ele>
        <time>2019-08-04T10:56:13.335Z</time>
      </trkpt>
      <trkpt lat="42.46054167" lon="1.48565167">
        <ele>1011.0</ele>
        <time>2019-08-04T10:56:14.317Z</time>
      </trkpt>
      <trkpt lat="42.46052333" lon="1.48563667">
        <ele>1011.0</ele>
        <time>2019-08-04T10:56:15.304Z</time>
      </trkpt>
      <trkpt lat="42.46052333" lon="1.48563667">
        <ele>1011.0</ele>
        <time>2019-08-04T10:56:16.336Z</time>
      </trkpt>
      <trkpt lat="42.46048667" lon="1.48561">
        <ele>1012.0</ele>
        <time>2019-08-04T10:56:17.307Z</time>
      </trkpt>
      <trkpt lat="42.46048667" lon="1.48561">
        <ele>1012.0</ele>
        <time>2019-08-04T10:56:18.334Z</time>
      </trkpt>
      <trkpt lat="42.46044833" lon="1.48557333">
        <ele>1012.0</ele>
        <time>2019-08-04T10:56:19.296Z</time>
      </trkpt>
      <trkpt lat="42.46044833" lon="1.48557333">
        <ele>1012.0</ele>
        <time>2019-08-04T10:56:20.312Z</time>
      </trkpt>
      <trkpt lat="42.460415" lon="1.48553333">
        <ele>1013.0</ele>
        <time>2019-08-04T10:56:21.303Z</time>
      </trkpt>
      <trkpt lat="42.460415" lon="1.48553333">
        <ele>1013.0</ele>
        <time>2019-08-04T10:56:22.335Z</time>
      </trkpt>
      <trkpt lat="42.46038833" lon="1.48549">
        <ele>1013.0</ele>
        <time>2019-08-04T10:56:23.316Z</time>
      </trkpt>
      <trkpt lat="42.46038833" lon="1.48549">
        <ele>1013.0</ele>
        <time>2019-08-04T10:56:24.297Z</time>
      </trkpt>
      <trkpt lat="42.46036167" lon="1.48544">
        <ele>1013.0</ele>
        <time>2019-08-04T10:56:25.302Z</time>
      </trkpt>
      <trkpt lat="42.46036167" lon="1.48544">
        <ele>1013.0</ele>
        <time>2019-08-04T10:56:26.335Z</time>
      </trkpt>
      <trkpt lat="42.46033667" lon="1.48539">
        <ele>1014.0</ele>
        <time>2019-08-04T10:56:27.322Z</time>
      </trkpt>
      <trkpt lat="42.46033667" lon="1.48539">
        <ele>1014.0</ele>
        <time>2019-08-04T10:56:28.299Z</time>
      </trkpt>
      <trkpt lat="42.46031333" lon="1.48533667">
        <ele>1014.0</ele>
        <time>2019-08-04T10:56:29.309Z</time>
      </trkpt>
      <trkpt lat="42.46031333" lon="1.48533667">
        <ele>1014.0</ele>
        <time>2019-08-04T10:56:30.307Z</time>
      </trkpt>
      <trkpt lat="42.46028833" lon="1.48528">
        <ele>1014.0</ele>
        <time>2019-08-04T10:56:31.314Z</time>
      </trkpt>
      <trkpt lat="42.46028833" lon="1.48528">
        <ele>1014.0</ele>
        <time>2019-08-04T10:56:32.298Z</time>
      </trkpt>
      <trkpt lat="42.46027167" lon="1.48522167">
        <ele>1014.0</ele>
        <time>2019-08-04T10:56:33.301Z</time>
      </trkpt>
      <trkpt lat="42.46027167" lon="1.48522167">
        <ele>1014.0</ele>
        <time>2019-08-04T10:56:34.335Z</time>
      </trkpt>
      <trkpt lat="42.460255" lon="1.48516667">
        <ele>1014.0</ele>
        <time>2019-08-04T10:56:35.302Z</time>
      </trkpt>
      <trkpt lat="42.460255" lon="1.48516667">
        <ele>1014.0</ele>
        <time>2019-08-04T10:56:36.306Z</time>
      </trkpt>
      <trkpt lat="42.46024167" lon="1.48510833">
        <ele>1015.0</ele>
        <time>2019-08-04T10:56:37.302Z</time>
      </trkpt>
      <trkpt lat="42.46023667" lon="1.48507833">
        <ele>1015.0</ele>
        <time>2019-08-04T10:56:38.303Z</time>
      </trkpt>
      <trkpt lat="42.46023" lon="1.48505">
        <ele>1015.0</ele>
        <time>2019-08-04T10:56:39.327Z</time>
      </trkpt>
      <trkpt lat="42.46023" lon="1.48505">
        <ele>1015.0</ele>
        <time>2019-08-04T10:56:40.304Z</time>
      </trkpt>
      <trkpt lat="42.46021833" lon="1.48499333">
        <ele>1015.0</ele>
        <time>2019-08-04T10:56:41.300Z</time>
      </trkpt>
      <trkpt lat="42.46021833" lon="1.48499333">
        <ele>1015.0</ele>
        <time>2019-08-04T10:56:42.297Z</time>
      </trkpt>
      <trkpt lat="42.46021" lon="1.48493833">
        <ele>1016.0</ele>
        <time>2019-08-04T10:56:43.301Z</time>
      </trkpt>
      <trkpt lat="42.46020667" lon="1.48491167">
        <ele>1016.0</ele>
        <time>2019-08-04T10:56:44.303Z</time>
      </trkpt>
      <trkpt lat="42.46020333" lon="1.48488167">
        <ele>1017.0</ele>
        <time>2019-08-04T10:56:45.301Z</time>
      </trkpt>
      <trkpt lat="42.46020333" lon="1.48488167">
        <ele>1017.0</ele>
        <time>2019-08-04T10:56:46.296Z</time>
      </trkpt>
      <trkpt lat="42.46019667" lon="1.484825">
        <ele>1017.0</ele>
        <time>2019-08-04T10:56:47.316Z</time>
      </trkpt>
      <trkpt lat="42.46019667" lon="1.484825">
        <ele>1017.0</ele>
        <time>2019-08-04T10:56:48.299Z</time>
      </trkpt>
      <trkpt lat="42.46018667" lon="1.484765">
        <ele>1017.0</ele>
        <time>2019-08-04T10:56:49.311Z</time>
      </trkpt>
      <trkpt lat="42.46018667" lon="1.484765">
        <ele>1017.0</ele>
        <time>2019-08-04T10:56:50.296Z</time>
      </trkpt>
      <trkpt lat="42.46018" lon="1.48470333">
        <ele>1018.0</ele>
        <time>2019-08-04T10:56:51.316Z</time>
      </trkpt>
      <trkpt lat="42.46018" lon="1.48470333">
        <ele>1018.0</ele>
        <time>2019-08-04T10:56:52.296Z</time>
      </trkpt>
      <trkpt lat="42.46016833" lon="1.48464667">
        <ele>1018.0</ele>
        <time>2019-08-04T10:56:53.302Z</time>
      </trkpt>
      <trkpt lat="42.46016833" lon="1.48464667">
        <ele>1018.0</ele>
        <time>2019-08-04T10:56:54.300Z</time>
      </trkpt>
      <trkpt lat="42.46015833" lon="1.48459">
        <ele>1018.0</ele>
        <time>2019-08-04T10:56:55.304Z</time>
      </trkpt>
      <trkpt lat="42.46015833" lon="1.48459">
        <ele>1018.0</ele>
        <time>2019-08-04T10:56:56.296Z</time>
      </trkpt>
      <trkpt lat="42.460145" lon="1.48453833">
        <ele>1019.0</ele>
        <time>2019-08-04T10:56:57.316Z</time>
      </trkpt>
      <trkpt lat="42.460145" lon="1.48453833">
        <ele>1019.0</ele>
        <time>2019-08-04T10:56:58.296Z</time>
      </trkpt>
      <trkpt lat="42.460145" lon="1.48453833">
        <ele>1019.0</ele>
        <time>2019-08-04T10:56:59.362Z</time>
      </trkpt>
      <trkpt lat="42.46013" lon="1.48445">
        <ele>1019.0</ele>
        <time>2019-08-04T10:57:00.303Z</time>
      </trkpt>
      <trkpt lat="42.46013" lon="1.48445">
        <ele>1019.0</ele>
        <time>2019-08-04T10:57:01.296Z</time>
      </trkpt>
      <trkpt lat="42.460125" lon="1.48438333">
        <ele>1019.0</ele>
        <time>2019-08-04T10:57:02.304Z</time>
      </trkpt>
      <trkpt lat="42.46012167" lon="1.48435">
        <ele>1020.0</ele>
        <time>2019-08-04T10:57:03.301Z</time>
      </trkpt>
      <trkpt lat="42.46012167" lon="1.48435">
        <ele>1020.0</ele>
        <time>2019-08-04T10:57:04.336Z</time>
      </trkpt>
      <trkpt lat="42.460115" lon="1.48428833">
        <ele>1020.0</ele>
        <time>2019-08-04T10:57:05.317Z</time>
      </trkpt>
      <trkpt lat="42.460115" lon="1.48428833">
        <ele>1020.0</ele>
        <time>2019-08-04T10:57:06.300Z</time>
      </trkpt>
      <trkpt lat="42.46011" lon="1.484225">
        <ele>1020.0</ele>
        <time>2019-08-04T10:57:07.302Z</time>
      </trkpt>
      <trkpt lat="42.46010833" lon="1.484195">
        <ele>1020.0</ele>
        <time>2019-08-04T10:57:08.304Z</time>
      </trkpt>
      <trkpt lat="42.460105" lon="1.48416333">
        <ele>1021.0</ele>
        <time>2019-08-04T10:57:09.320Z</time>
      </trkpt>
      <trkpt lat="42.460105" lon="1.48416333">
        <ele>1021.0</ele>
        <time>2019-08-04T10:57:10.298Z</time>
      </trkpt>
      <trkpt lat="42.46010333" lon="1.48409333">
        <ele>1021.0</ele>
        <time>2019-08-04T10:57:11.302Z</time>
      </trkpt>
      <trkpt lat="42.46010333" lon="1.48409333">
        <ele>1021.0</ele>
        <time>2019-08-04T10:57:12.335Z</time>
      </trkpt>
      <trkpt lat="42.46009667" lon="1.48402833">
        <ele>1021.0</ele>
        <time>2019-08-04T10:57:13.316Z</time>
      </trkpt>
      <trkpt lat="42.46009667" lon="1.48402833">
        <ele>1021.0</ele>
        <time>2019-08-04T10:57:14.299Z</time>
      </trkpt>
      <trkpt lat="42.46009167" lon="1.48397167">
        <ele>1022.0</ele>
        <time>2019-08-04T10:57:15.304Z</time>
      </trkpt>
      <trkpt lat="42.46009167" lon="1.48397167">
        <ele>1022.0</ele>
        <time>2019-08-04T10:57:16.303Z</time>
      </trkpt>
      <trkpt lat="42.46008833" lon="1.48391333">
        <ele>1022.0</ele>
        <time>2019-08-04T10:57:17.302Z</time>
      </trkpt>
      <trkpt lat="42.46008833" lon="1.48391333">
        <ele>1022.0</ele>
        <time>2019-08-04T10:57:18.296Z</time>
      </trkpt>
      <trkpt lat="42.460085" lon="1.48385333">
        <ele>1023.0</ele>
        <time>2019-08-04T10:57:19.320Z</time>
      </trkpt>
      <trkpt lat="42.46007833" lon="1.483825">
        <ele>1023.0</ele>
        <time>2019-08-04T10:57:20.302Z</time>
      </trkpt>
      <trkpt lat="42.46007833" lon="1.483825">
        <ele>1023.0</ele>
        <time>2019-08-04T10:57:21.298Z</time>
      </trkpt>
      <trkpt lat="42.46007167" lon="1.48377">
        <ele>1023.0</ele>
        <time>2019-08-04T10:57:22.298Z</time>
      </trkpt>
      <trkpt lat="42.46006833" lon="1.48373333">
        <ele>1023.0</ele>
        <time>2019-08-04T10:57:23.302Z</time>
      </trkpt>
      <trkpt lat="42.46006833" lon="1.48373333">
        <ele>1023.0</ele>
        <time>2019-08-04T10:57:24.302Z</time>
      </trkpt>
      <trkpt lat="42.46006" lon="1.48367">
        <ele>1023.0</ele>
        <time>2019-08-04T10:57:25.300Z</time>
      </trkpt>
      <trkpt lat="42.46006" lon="1.48367">
        <ele>1023.0</ele>
        <time>2019-08-04T10:57:26.296Z</time>
      </trkpt>
      <trkpt lat="42.46005333" lon="1.48361">
        <ele>1024.0</ele>
        <time>2019-08-04T10:57:27.316Z</time>
      </trkpt>
      <trkpt lat="42.46005333" lon="1.48361">
        <ele>1024.0</ele>
        <time>2019-08-04T10:57:28.298Z</time>
      </trkpt>
      <trkpt lat="42.46005333" lon="1.48355333">
        <ele>1024.0</ele>
        <time>2019-08-04T10:57:29.328Z</time>
      </trkpt>
      <trkpt lat="42.460055" lon="1.48352333">
        <ele>1024.0</ele>
        <time>2019-08-04T10:57:30.331Z</time>
      </trkpt>
      <trkpt lat="42.460055" lon="1.48352333">
        <ele>1024.0</ele>
        <time>2019-08-04T10:57:31.297Z</time>
      </trkpt>
      <trkpt lat="42.460065" lon="1.48346">
        <ele>1025.0</ele>
        <time>2019-08-04T10:57:32.307Z</time>
      </trkpt>
      <trkpt lat="42.46007167" lon="1.48343">
        <ele>1025.0</ele>
        <time>2019-08-04T10:57:33.304Z</time>
      </trkpt>
      <trkpt lat="42.46007167" lon="1.48343">
        <ele>1025.0</ele>
        <time>2019-08-04T10:57:34.298Z</time>
      </trkpt>
      <trkpt lat="42.46007833" lon="1.48337667">
        <ele>1025.0</ele>
        <time>2019-08-04T10:57:35.302Z</time>
      </trkpt>
      <trkpt lat="42.46007833" lon="1.48337667">
        <ele>1025.0</ele>
        <time>2019-08-04T10:57:36.296Z</time>
      </trkpt>
      <trkpt lat="42.46009" lon="1.48331333">
        <ele>1026.0</ele>
        <time>2019-08-04T10:57:37.318Z</time>
      </trkpt>
      <trkpt lat="42.46009" lon="1.48331333">
        <ele>1026.0</ele>
        <time>2019-08-04T10:57:38.296Z</time>
      </trkpt>
      <trkpt lat="42.46009667" lon="1.48325333">
        <ele>1026.0</ele>
        <time>2019-08-04T10:57:39.319Z</time>
      </trkpt>
      <trkpt lat="42.46009667" lon="1.48325333">
        <ele>1026.0</ele>
        <time>2019-08-04T10:57:40.299Z</time>
      </trkpt>
      <trkpt lat="42.46010667" lon="1.48319667">
        <ele>1027.0</ele>
        <time>2019-08-04T10:57:41.302Z</time>
      </trkpt>
      <trkpt lat="42.46010667" lon="1.48319667">
        <ele>1027.0</ele>
        <time>2019-08-04T10:57:42.299Z</time>
      </trkpt>
      <trkpt lat="42.460115" lon="1.48313833">
        <ele>1027.0</ele>
        <time>2019-08-04T10:57:43.316Z</time>
      </trkpt>
      <trkpt lat="42.460115" lon="1.48313833">
        <ele>1027.0</ele>
        <time>2019-08-04T10:57:44.299Z</time>
      </trkpt>
      <trkpt lat="42.46012167" lon="1.48307">
        <ele>1027.0</ele>
        <time>2019-08-04T10:57:45.301Z</time>
      </trkpt>
      <trkpt lat="42.46012167" lon="1.48307">
        <ele>1027.0</ele>
        <time>2019-08-04T10:57:46.296Z</time>
      </trkpt>
      <trkpt lat="42.46010333" lon="1.48301">
        <ele>1028.0</ele>
        <time>2019-08-04T10:57:47.317Z</time>
      </trkpt>
      <trkpt lat="42.46010333" lon="1.48301">
        <ele>1028.0</ele>
        <time>2019-08-04T10:57:48.298Z</time>
      </trkpt>
      <trkpt lat="42.46007333" lon="1.48295167">
        <ele>1028.0</ele>
        <time>2019-08-04T10:57:49.319Z</time>
      </trkpt>
      <trkpt lat="42.46007333" lon="1.48295167">
        <ele>1028.0</ele>
        <time>2019-08-04T10:57:50.296Z</time>
      </trkpt>
      <trkpt lat="42.46003" lon="1.48290667">
        <ele>1028.0</ele>
        <time>2019-08-04T10:57:51.317Z</time>
      </trkpt>
      <trkpt lat="42.46003" lon="1.48290667">
        <ele>1028.0</ele>
        <time>2019-08-04T10:57:52.335Z</time>
      </trkpt>
      <trkpt lat="42.45998333" lon="1.48287333">
        <ele>1029.0</ele>
        <time>2019-08-04T10:57:53.311Z</time>
      </trkpt>
      <trkpt lat="42.45998333" lon="1.48287333">
        <ele>1029.0</ele>
        <time>2019-08-04T10:57:54.297Z</time>
      </trkpt>
      <trkpt lat="42.45993833" lon="1.48284833">
        <ele>1029.0</ele>
        <time>2019-08-04T10:57:55.302Z</time>
      </trkpt>
      <trkpt lat="42.45991667" lon="1.48283833">
        <ele>1029.0</ele>
        <time>2019-08-04T10:57:56.302Z</time>
      </trkpt>
      <trkpt lat="42.45991667" lon="1.48283833">
        <ele>1029.0</ele>
        <time>2019-08-04T10:57:57.297Z</time>
      </trkpt>
      <trkpt lat="42.45986667" lon="1.48283167">
        <ele>1030.0</ele>
        <time>2019-08-04T10:57:58.317Z</time>
      </trkpt>
      <trkpt lat="42.45984167" lon="1.48283167">
        <ele>1030.0</ele>
        <time>2019-08-04T10:57:59.318Z</time>
      </trkpt>
      <trkpt lat="42.45984167" lon="1.48283167">
        <ele>1030.0</ele>
        <time>2019-08-04T10:58:00.335Z</time>
      </trkpt>
      <trkpt lat="42.45979167" lon="1.482825">
        <ele>1030.0</ele>
        <time>2019-08-04T10:58:01.316Z</time>
      </trkpt>
      <trkpt lat="42.45979167" lon="1.482825">
        <ele>1030.0</ele>
        <time>2019-08-04T10:58:02.319Z</time>
      </trkpt>
      <trkpt lat="42.45974333" lon="1.48281667">
        <ele>1031.0</ele>
        <time>2019-08-04T10:58:03.301Z</time>
      </trkpt>
      <trkpt lat="42.45974333" lon="1.48281667">
        <ele>1031.0</ele>
        <time>2019-08-04T10:58:04.334Z</time>
      </trkpt>
      <trkpt lat="42.45972167" lon="1.48281333">
        <ele>1031.0</ele>
        <time>2019-08-04T10:58:05.309Z</time>
      </trkpt>
      <trkpt lat="42.45967833" lon="1.482805">
        <ele>1031.0</ele>
        <time>2019-08-04T10:58:06.302Z</time>
      </trkpt>
      <trkpt lat="42.45967833" lon="1.482805">
        <ele>1031.0</ele>
        <time>2019-08-04T10:58:07.296Z</time>
      </trkpt>
      <trkpt lat="42.45963167" lon="1.482795">
        <ele>1032.0</ele>
        <time>2019-08-04T10:58:08.317Z</time>
      </trkpt>
      <trkpt lat="42.45960833" lon="1.48279">
        <ele>1032.0</ele>
        <time>2019-08-04T10:58:09.328Z</time>
      </trkpt>
      <trkpt lat="42.45960833" lon="1.48279">
        <ele>1032.0</ele>
        <time>2019-08-04T10:58:10.304Z</time>
      </trkpt>
      <trkpt lat="42.45956167" lon="1.48278167">
        <ele>1032.0</ele>
        <time>2019-08-04T10:58:11.303Z</time>
      </trkpt>
      <trkpt lat="42.45956167" lon="1.48278167">
        <ele>1032.0</ele>
        <time>2019-08-04T10:58:12.296Z</time>
      </trkpt>
      <trkpt lat="42.459515" lon="1.48277333">
        <ele>1033.0</ele>
        <time>2019-08-04T10:58:13.300Z</time>
      </trkpt>
      <trkpt lat="42.459515" lon="1.48277333">
        <ele>1033.0</ele>
        <time>2019-08-04T10:58:14.316Z</time>
      </trkpt>
      <trkpt lat="42.45947" lon="1.48276333">
        <ele>1033.0</ele>
        <time>2019-08-04T10:58:15.299Z</time>
      </trkpt>
      <trkpt lat="42.45947" lon="1.48276333">
        <ele>1033.0</ele>
        <time>2019-08-04T10:58:16.296Z</time>
      </trkpt>
      <trkpt lat="42.45942333" lon="1.48275167">
        <ele>1034.0</ele>
        <time>2019-08-04T10:58:17.299Z</time>
      </trkpt>
      <trkpt lat="42.4594" lon="1.48274667">
        <ele>1034.0</ele>
        <time>2019-08-04T10:58:18.304Z</time>
      </trkpt>
      <trkpt lat="42.4594" lon="1.48274667">
        <ele>1034.0</ele>
        <time>2019-08-04T10:58:19.309Z</time>
      </trkpt>
      <trkpt lat="42.45935833" lon="1.48273167">
        <ele>1035.0</ele>
        <time>2019-08-04T10:58:20.303Z</time>
      </trkpt>
      <trkpt lat="42.45933667" lon="1.48272667">
        <ele>1035.0</ele>
        <time>2019-08-04T10:58:21.301Z</time>
      </trkpt>
      <trkpt lat="42.45933667" lon="1.48272667">
        <ele>1035.0</ele>
        <time>2019-08-04T10:58:22.317Z</time>
      </trkpt>
      <trkpt lat="42.45929167" lon="1.48271833">
        <ele>1035.0</ele>
        <time>2019-08-04T10:58:23.306Z</time>
      </trkpt>
      <trkpt lat="42.45929167" lon="1.48271833">
        <ele>1035.0</ele>
        <time>2019-08-04T10:58:24.297Z</time>
      </trkpt>
      <trkpt lat="42.45924833" lon="1.48271333">
        <ele>1036.0</ele>
        <time>2019-08-04T10:58:25.302Z</time>
      </trkpt>
      <trkpt lat="42.45924833" lon="1.48271333">
        <ele>1036.0</ele>
        <time>2019-08-04T10:58:26.296Z</time>
      </trkpt>
      <trkpt lat="42.45920167" lon="1.48270833">
        <ele>1037.0</ele>
        <time>2019-08-04T10:58:27.316Z</time>
      </trkpt>
      <trkpt lat="42.45920167" lon="1.48270833">
        <ele>1037.0</ele>
        <time>2019-08-04T10:58:28.299Z</time>
      </trkpt>
      <trkpt lat="42.459155" lon="1.48271">
        <ele>1037.0</ele>
        <time>2019-08-04T10:58:29.328Z</time>
      </trkpt>
      <trkpt lat="42.45913333" lon="1.48271167">
        <ele>1038.0</ele>
        <time>2019-08-04T10:58:30.322Z</time>
      </trkpt>
      <trkpt lat="42.45913333" lon="1.48271167">
        <ele>1038.0</ele>
        <time>2019-08-04T10:58:31.328Z</time>
      </trkpt>
      <trkpt lat="42.45908833" lon="1.48271167">
        <ele>1038.0</ele>
        <time>2019-08-04T10:58:32.334Z</time>
      </trkpt>
      <trkpt lat="42.45906333" lon="1.48271">
        <ele>1038.0</ele>
        <time>2019-08-04T10:58:33.303Z</time>
      </trkpt>
      <trkpt lat="42.45906333" lon="1.48271">
        <ele>1038.0</ele>
        <time>2019-08-04T10:58:34.297Z</time>
      </trkpt>
      <trkpt lat="42.45901667" lon="1.48271">
        <ele>1039.0</ele>
        <time>2019-08-04T10:58:35.318Z</time>
      </trkpt>
      <trkpt lat="42.45901667" lon="1.48271">
        <ele>1039.0</ele>
        <time>2019-08-04T10:58:36.300Z</time>
      </trkpt>
      <trkpt lat="42.45897333" lon="1.48271167">
        <ele>1040.0</ele>
        <time>2019-08-04T10:58:37.318Z</time>
      </trkpt>
      <trkpt lat="42.45897333" lon="1.48271167">
        <ele>1040.0</ele>
        <time>2019-08-04T10:58:38.296Z</time>
      </trkpt>
      <trkpt lat="42.45892667" lon="1.48271167">
        <ele>1040.0</ele>
        <time>2019-08-04T10:58:39.328Z</time>
      </trkpt>
      <trkpt lat="42.45892667" lon="1.48271167">
        <ele>1040.0</ele>
        <time>2019-08-04T10:58:40.305Z</time>
      </trkpt>
      <trkpt lat="42.45888333" lon="1.48271">
        <ele>1041.0</ele>
        <time>2019-08-04T10:58:41.300Z</time>
      </trkpt>
      <trkpt lat="42.45888333" lon="1.48271">
        <ele>1041.0</ele>
        <time>2019-08-04T10:58:42.298Z</time>
      </trkpt>
      <trkpt lat="42.45883667" lon="1.48270667">
        <ele>1041.0</ele>
        <time>2019-08-04T10:58:43.302Z</time>
      </trkpt>
      <trkpt lat="42.458815" lon="1.48270667">
        <ele>1042.0</ele>
        <time>2019-08-04T10:58:44.303Z</time>
      </trkpt>
      <trkpt lat="42.45879333" lon="1.48270667">
        <ele>1042.0</ele>
        <time>2019-08-04T10:58:45.301Z</time>
      </trkpt>
      <trkpt lat="42.45879333" lon="1.48270667">
        <ele>1042.0</ele>
        <time>2019-08-04T10:58:46.317Z</time>
      </trkpt>
      <trkpt lat="42.458745" lon="1.48271167">
        <ele>1043.0</ele>
        <time>2019-08-04T10:58:47.302Z</time>
      </trkpt>
      <trkpt lat="42.458745" lon="1.48271167">
        <ele>1043.0</ele>
        <time>2019-08-04T10:58:48.296Z</time>
      </trkpt>
      <trkpt lat="42.45870167" lon="1.48271833">
        <ele>1044.0</ele>
        <time>2019-08-04T10:58:49.326Z</time>
      </trkpt>
      <trkpt lat="42.45870167" lon="1.48271833">
        <ele>1044.0</ele>
        <time>2019-08-04T10:58:50.303Z</time>
      </trkpt>
      <trkpt lat="42.45865833" lon="1.48272">
        <ele>1044.0</ele>
        <time>2019-08-04T10:58:51.305Z</time>
      </trkpt>
      <trkpt lat="42.45865833" lon="1.48272">
        <ele>1044.0</ele>
        <time>2019-08-04T10:58:52.322Z</time>
      </trkpt>
      <trkpt lat="42.458615" lon="1.48272667">
        <ele>1045.0</ele>
        <time>2019-08-04T10:58:53.311Z</time>
      </trkpt>
      <trkpt lat="42.458615" lon="1.48272667">
        <ele>1045.0</ele>
        <time>2019-08-04T10:58:54.307Z</time>
      </trkpt>
      <trkpt lat="42.45857" lon="1.48273333">
        <ele>1046.0</ele>
        <time>2019-08-04T10:58:55.302Z</time>
      </trkpt>
      <trkpt lat="42.45854833" lon="1.48273667">
        <ele>1046.0</ele>
        <time>2019-08-04T10:58:56.303Z</time>
      </trkpt>
      <trkpt lat="42.45854833" lon="1.48273667">
        <ele>1046.0</ele>
        <time>2019-08-04T10:58:57.298Z</time>
      </trkpt>
      <trkpt lat="42.45850333" lon="1.48274167">
        <ele>1047.0</ele>
        <time>2019-08-04T10:58:58.302Z</time>
      </trkpt>
      <trkpt lat="42.45850333" lon="1.48274167">
        <ele>1047.0</ele>
        <time>2019-08-04T10:58:59.317Z</time>
      </trkpt>
      <trkpt lat="42.45846" lon="1.48275167">
        <ele>1048.0</ele>
        <time>2019-08-04T10:59:00.302Z</time>
      </trkpt>
      <trkpt lat="42.45846" lon="1.48275167">
        <ele>1048.0</ele>
        <time>2019-08-04T10:59:01.317Z</time>
      </trkpt>
      <trkpt lat="42.458415" lon="1.48276">
        <ele>1048.0</ele>
        <time>2019-08-04T10:59:02.303Z</time>
      </trkpt>
      <trkpt lat="42.458395" lon="1.48276667">
        <ele>1048.0</ele>
        <time>2019-08-04T10:59:03.312Z</time>
      </trkpt>
      <trkpt lat="42.458395" lon="1.48276667">
        <ele>1048.0</ele>
        <time>2019-08-04T10:59:04.296Z</time>
      </trkpt>
      <trkpt lat="42.45835333" lon="1.48278333">
        <ele>1049.0</ele>
        <time>2019-08-04T10:59:05.316Z</time>
      </trkpt>
      <trkpt lat="42.45835333" lon="1.48278333">
        <ele>1049.0</ele>
        <time>2019-08-04T10:59:06.299Z</time>
      </trkpt>
      <trkpt lat="42.45831333" lon="1.48280167">
        <ele>1050.0</ele>
        <time>2019-08-04T10:59:07.303Z</time>
      </trkpt>
      <trkpt lat="42.45831333" lon="1.48280167">
        <ele>1050.0</ele>
        <time>2019-08-04T10:59:08.297Z</time>
      </trkpt>
      <trkpt lat="42.45831333" lon="1.48280167">
        <ele>1050.0</ele>
        <time>2019-08-04T10:59:09.370Z</time>
      </trkpt>
      <trkpt lat="42.458275" lon="1.48281167">
        <ele>1050.0</ele>
        <time>2019-08-04T10:59:10.304Z</time>
      </trkpt>
      <trkpt lat="42.45824" lon="1.48281667">
        <ele>1050.0</ele>
        <time>2019-08-04T10:59:11.300Z</time>
      </trkpt>
      <trkpt lat="42.45824" lon="1.48281667">
        <ele>1050.0</ele>
        <time>2019-08-04T10:59:12.298Z</time>
      </trkpt>
      <trkpt lat="42.45821167" lon="1.482795">
        <ele>1051.0</ele>
        <time>2019-08-04T10:59:13.304Z</time>
      </trkpt>
      <trkpt lat="42.45821167" lon="1.482795">
        <ele>1051.0</ele>
        <time>2019-08-04T10:59:14.298Z</time>
      </trkpt>
      <trkpt lat="42.458205" lon="1.48274667">
        <ele>1051.0</ele>
        <time>2019-08-04T10:59:15.304Z</time>
      </trkpt>
      <trkpt lat="42.458205" lon="1.48274667">
        <ele>1051.0</ele>
        <time>2019-08-04T10:59:16.298Z</time>
      </trkpt>
      <trkpt lat="42.45822167" lon="1.48271">
        <ele>1052.0</ele>
        <time>2019-08-04T10:59:17.304Z</time>
      </trkpt>
      <trkpt lat="42.45822167" lon="1.48271">
        <ele>1052.0</ele>
        <time>2019-08-04T10:59:18.304Z</time>
      </trkpt>
      <trkpt lat="42.458255" lon="1.482685">
        <ele>1052.0</ele>
        <time>2019-08-04T10:59:19.326Z</time>
      </trkpt>
      <trkpt lat="42.458255" lon="1.482685">
        <ele>1052.0</ele>
        <time>2019-08-04T10:59:20.304Z</time>
      </trkpt>
      <trkpt lat="42.458295" lon="1.48267167">
        <ele>1052.0</ele>
        <time>2019-08-04T10:59:21.305Z</time>
      </trkpt>
      <trkpt lat="42.458295" lon="1.48267167">
        <ele>1052.0</ele>
        <time>2019-08-04T10:59:22.297Z</time>
      </trkpt>
      <trkpt lat="42.45834333" lon="1.48264667">
        <ele>1053.0</ele>
        <time>2019-08-04T10:59:23.317Z</time>
      </trkpt>
      <trkpt lat="42.45834333" lon="1.48264667">
        <ele>1053.0</ele>
        <time>2019-08-04T10:59:24.307Z</time>
      </trkpt>
      <trkpt lat="42.45838667" lon="1.48262">
        <ele>1053.0</ele>
        <time>2019-08-04T10:59:25.303Z</time>
      </trkpt>
      <trkpt lat="42.45841" lon="1.482605">
        <ele>1053.0</ele>
        <time>2019-08-04T10:59:26.300Z</time>
      </trkpt>
      <trkpt lat="42.45843333" lon="1.48259">
        <ele>1054.0</ele>
        <time>2019-08-04T10:59:27.316Z</time>
      </trkpt>
      <trkpt lat="42.45843333" lon="1.48259">
        <ele>1054.0</ele>
        <time>2019-08-04T10:59:28.298Z</time>
      </trkpt>
      <trkpt lat="42.45848" lon="1.48256333">
        <ele>1054.0</ele>
        <time>2019-08-04T10:59:29.318Z</time>
      </trkpt>
      <trkpt lat="42.45850167" lon="1.48255">
        <ele>1054.0</ele>
        <time>2019-08-04T10:59:30.321Z</time>
      </trkpt>
      <trkpt lat="42.45850167" lon="1.48255">
        <ele>1054.0</ele>
        <time>2019-08-04T10:59:31.329Z</time>
      </trkpt>
      <trkpt lat="42.45854167" lon="1.48252667">
        <ele>1055.0</ele>
        <time>2019-08-04T10:59:32.296Z</time>
      </trkpt>
      <trkpt lat="42.45856333" lon="1.48251333">
        <ele>1055.0</ele>
        <time>2019-08-04T10:59:33.307Z</time>
      </trkpt>
      <trkpt lat="42.45856333" lon="1.48251333">
        <ele>1055.0</ele>
        <time>2019-08-04T10:59:34.297Z</time>
      </trkpt>
      <trkpt lat="42.45860833" lon="1.482485">
        <ele>1055.0</ele>
        <time>2019-08-04T10:59:35.303Z</time>
      </trkpt>
      <trkpt lat="42.45860833" lon="1.482485">
        <ele>1055.0</ele>
        <time>2019-08-04T10:59:36.302Z</time>
      </trkpt>
      <trkpt lat="42.45865" lon="1.482465">
        <ele>1056.0</ele>
        <time>2019-08-04T10:59:37.318Z</time>
      </trkpt>
      <trkpt lat="42.45865" lon="1.482465">
        <ele>1056.0</ele>
        <time>2019-08-04T10:59:38.298Z</time>
      </trkpt>
      <trkpt lat="42.45869167" lon="1.48244667">
        <ele>1056.0</ele>
        <time>2019-08-04T10:59:39.321Z</time>
      </trkpt>
      <trkpt lat="42.45869167" lon="1.48244667">
        <ele>1056.0</ele>
        <time>2019-08-04T10:59:40.300Z</time>
      </trkpt>
      <trkpt lat="42.45874" lon="1.48243167">
        <ele>1057.0</ele>
        <time>2019-08-04T10:59:41.303Z</time>
      </trkpt>
      <trkpt lat="42.45874" lon="1.48243167">
        <ele>1057.0</ele>
        <time>2019-08-04T10:59:42.297Z</time>
      </trkpt>
      <trkpt lat="42.45878333" lon="1.48240333">
        <ele>1057.0</ele>
        <time>2019-08-04T10:59:43.302Z</time>
      </trkpt>
      <trkpt lat="42.45878333" lon="1.48240333">
        <ele>1057.0</ele>
        <time>2019-08-04T10:59:44.302Z</time>
      </trkpt>
      <trkpt lat="42.458825" lon="1.48237833">
        <ele>1058.0</ele>
        <time>2019-08-04T10:59:45.303Z</time>
      </trkpt>
      <trkpt lat="42.458825" lon="1.48237833">
        <ele>1058.0</ele>
        <time>2019-08-04T10:59:46.296Z</time>
      </trkpt>
      <trkpt lat="42.45886833" lon="1.48236">
        <ele>1058.0</ele>
        <time>2019-08-04T10:59:47.303Z</time>
      </trkpt>
      <trkpt lat="42.45886833" lon="1.48236">
        <ele>1058.0</ele>
        <time>2019-08-04T10:59:48.336Z</time>
      </trkpt>
      <trkpt lat="42.458915" lon="1.48234667">
        <ele>1059.0</ele>
        <time>2019-08-04T10:59:49.319Z</time>
      </trkpt>
      <trkpt lat="42.458915" lon="1.48234667">
        <ele>1059.0</ele>
        <time>2019-08-04T10:59:50.297Z</time>
      </trkpt>
      <trkpt lat="42.45895833" lon="1.48232833">
        <ele>1060.0</ele>
        <time>2019-08-04T10:59:51.317Z</time>
      </trkpt>
      <trkpt lat="42.45895833" lon="1.48232833">
        <ele>1060.0</ele>
        <time>2019-08-04T10:59:52.299Z</time>
      </trkpt>
      <trkpt lat="42.45900333" lon="1.48230833">
        <ele>1060.0</ele>
        <time>2019-08-04T10:59:53.300Z</time>
      </trkpt>
      <trkpt lat="42.45900333" lon="1.48230833">
        <ele>1060.0</ele>
        <time>2019-08-04T10:59:54.298Z</time>
      </trkpt>
      <trkpt lat="42.45904667" lon="1.48229">
        <ele>1061.0</ele>
        <time>2019-08-04T10:59:55.302Z</time>
      </trkpt>
      <trkpt lat="42.45904667" lon="1.48229">
        <ele>1061.0</ele>
        <time>2019-08-04T10:59:56.296Z</time>
      </trkpt>
      <trkpt lat="42.45908667" lon="1.482275">
        <ele>1061.0</ele>
        <time>2019-08-04T10:59:57.316Z</time>
      </trkpt>
      <trkpt lat="42.45908667" lon="1.482275">
        <ele>1061.0</ele>
        <time>2019-08-04T10:59:58.298Z</time>
      </trkpt>
      <trkpt lat="42.45912833" lon="1.482255">
        <ele>1062.0</ele>
        <time>2019-08-04T10:59:59.319Z</time>
      </trkpt>
      <trkpt lat="42.45914833" lon="1.48224833">
        <ele>1062.0</ele>
        <time>2019-08-04T11:00:00.300Z</time>
      </trkpt>
      <trkpt lat="42.45914833" lon="1.48224833">
        <ele>1062.0</ele>
        <time>2019-08-04T11:00:01.297Z</time>
      </trkpt>
      <trkpt lat="42.45914833" lon="1.48224833">
        <ele>1062.0</ele>
        <time>2019-08-04T11:00:02.356Z</time>
      </trkpt>
      <trkpt lat="42.45918833" lon="1.48224">
        <ele>1062.0</ele>
        <time>2019-08-04T11:00:03.300Z</time>
      </trkpt>
      <trkpt lat="42.45923167" lon="1.482235">
        <ele>1063.0</ele>
        <time>2019-08-04T11:00:04.300Z</time>
      </trkpt>
      <trkpt lat="42.45925333" lon="1.48222833">
        <ele>1063.0</ele>
        <time>2019-08-04T11:00:05.317Z</time>
      </trkpt>
      <trkpt lat="42.45925333" lon="1.48222833">
        <ele>1063.0</ele>
        <time>2019-08-04T11:00:06.300Z</time>
      </trkpt>
      <trkpt lat="42.45929833" lon="1.48221167">
        <ele>1064.0</ele>
        <time>2019-08-04T11:00:07.322Z</time>
      </trkpt>
      <trkpt lat="42.45932" lon="1.482205">
        <ele>1064.0</ele>
        <time>2019-08-04T11:00:08.305Z</time>
      </trkpt>
      <trkpt lat="42.45934167" lon="1.48219833">
        <ele>1064.0</ele>
        <time>2019-08-04T11:00:09.334Z</time>
      </trkpt>
      <trkpt lat="42.45934167" lon="1.48219833">
        <ele>1064.0</ele>
        <time>2019-08-04T11:00:10.318Z</time>
      </trkpt>
      <trkpt lat="42.45938333" lon="1.48218833">
        <ele>1065.0</ele>
        <time>2019-08-04T11:00:11.303Z</time>
      </trkpt>
      <trkpt lat="42.45938333" lon="1.48218833">
        <ele>1065.0</ele>
        <time>2019-08-04T11:00:12.297Z</time>
      </trkpt>
      <trkpt lat="42.45942667" lon="1.48217167">
        <ele>1065.0</ele>
        <time>2019-08-04T11:00:13.318Z</time>
      </trkpt>
      <trkpt lat="42.45942667" lon="1.48217167">
        <ele>1065.0</ele>
        <time>2019-08-04T11:00:14.301Z</time>
      </trkpt>
      <trkpt lat="42.45946667" lon="1.48215833">
        <ele>1066.0</ele>
        <time>2019-08-04T11:00:15.305Z</time>
      </trkpt>
      <trkpt lat="42.45946667" lon="1.48215833">
        <ele>1066.0</ele>
        <time>2019-08-04T11:00:16.298Z</time>
      </trkpt>
      <trkpt lat="42.45951" lon="1.482145">
        <ele>1066.0</ele>
        <time>2019-08-04T11:00:17.301Z</time>
      </trkpt>
      <trkpt lat="42.45951" lon="1.482145">
        <ele>1066.0</ele>
        <time>2019-08-04T11:00:18.322Z</time>
      </trkpt>
      <trkpt lat="42.459555" lon="1.48213167">
        <ele>1066.0</ele>
        <time>2019-08-04T11:00:19.317Z</time>
      </trkpt>
      <trkpt lat="42.45957667" lon="1.48212667">
        <ele>1066.0</ele>
        <time>2019-08-04T11:00:20.300Z</time>
      </trkpt>
      <trkpt lat="42.45959833" lon="1.48212333">
        <ele>1067.0</ele>
        <time>2019-08-04T11:00:21.317Z</time>
      </trkpt>
      <trkpt lat="42.45959833" lon="1.48212333">
        <ele>1067.0</ele>
        <time>2019-08-04T11:00:22.302Z</time>
      </trkpt>
      <trkpt lat="42.459645" lon="1.48211667">
        <ele>1067.0</ele>
        <time>2019-08-04T11:00:23.302Z</time>
      </trkpt>
      <trkpt lat="42.459645" lon="1.48211667">
        <ele>1067.0</ele>
        <time>2019-08-04T11:00:24.298Z</time>
      </trkpt>
      <trkpt lat="42.45968333" lon="1.48211333">
        <ele>1067.0</ele>
        <time>2019-08-04T11:00:25.300Z</time>
      </trkpt>
      <trkpt lat="42.45968333" lon="1.48211333">
        <ele>1067.0</ele>
        <time>2019-08-04T11:00:26.297Z</time>
      </trkpt>
      <trkpt lat="42.459725" lon="1.48211">
        <ele>1067.0</ele>
        <time>2019-08-04T11:00:27.317Z</time>
      </trkpt>
      <trkpt lat="42.459725" lon="1.48211">
        <ele>1067.0</ele>
        <time>2019-08-04T11:00:28.298Z</time>
      </trkpt>
      <trkpt lat="42.45976167" lon="1.48212">
        <ele>1066.0</ele>
        <time>2019-08-04T11:00:29.296Z</time>
      </trkpt>
      <trkpt lat="42.45976167" lon="1.48212">
        <ele>1066.0</ele>
        <time>2019-08-04T11:00:30.328Z</time>
      </trkpt>
      <trkpt lat="42.45980333" lon="1.482135">
        <ele>1068.0</ele>
        <time>2019-08-04T11:00:31.335Z</time>
      </trkpt>
      <trkpt lat="42.45980333" lon="1.482135">
        <ele>1068.0</ele>
        <time>2019-08-04T11:00:32.301Z</time>
      </trkpt>
      <trkpt lat="42.45984333" lon="1.48215333">
        <ele>1068.0</ele>
        <time>2019-08-04T11:00:33.305Z</time>
      </trkpt>
      <trkpt lat="42.45984333" lon="1.48215333">
        <ele>1068.0</ele>
        <time>2019-08-04T11:00:34.296Z</time>
      </trkpt>
      <trkpt lat="42.45988167" lon="1.482165">
        <ele>1069.0</ele>
        <time>2019-08-04T11:00:35.317Z</time>
      </trkpt>
      <trkpt lat="42.45988167" lon="1.482165">
        <ele>1069.0</ele>
        <time>2019-08-04T11:00:36.313Z</time>
      </trkpt>
      <trkpt lat="42.45992333" lon="1.48217833">
        <ele>1071.0</ele>
        <time>2019-08-04T11:00:37.303Z</time>
      </trkpt>
      <trkpt lat="42.45992333" lon="1.48217833">
        <ele>1071.0</ele>
        <time>2019-08-04T11:00:38.298Z</time>
      </trkpt>
      <trkpt lat="42.45997" lon="1.48218667">
        <ele>1071.0</ele>
        <time>2019-08-04T11:00:39.323Z</time>
      </trkpt>
      <trkpt lat="42.45997" lon="1.48218667">
        <ele>1071.0</ele>
        <time>2019-08-04T11:00:40.300Z</time>
      </trkpt>
      <trkpt lat="42.46002167" lon="1.482195">
        <ele>1073.0</ele>
        <time>2019-08-04T11:00:41.303Z</time>
      </trkpt>
      <trkpt lat="42.46002167" lon="1.482195">
        <ele>1073.0</ele>
        <time>2019-08-04T11:00:42.297Z</time>
      </trkpt>
      <trkpt lat="42.46006833" lon="1.482195">
        <ele>1074.0</ele>
        <time>2019-08-04T11:00:43.317Z</time>
      </trkpt>
      <trkpt lat="42.46006833" lon="1.482195">
        <ele>1074.0</ele>
        <time>2019-08-04T11:00:44.296Z</time>
      </trkpt>
      <trkpt lat="42.46011333" lon="1.482205">
        <ele>1075.0</ele>
        <time>2019-08-04T11:00:45.304Z</time>
      </trkpt>
      <trkpt lat="42.46011333" lon="1.482205">
        <ele>1075.0</ele>
        <time>2019-08-04T11:00:46.298Z</time>
      </trkpt>
      <trkpt lat="42.46015667" lon="1.48221833">
        <ele>1076.0</ele>
        <time>2019-08-04T11:00:47.303Z</time>
      </trkpt>
      <trkpt lat="42.46015667" lon="1.48221833">
        <ele>1076.0</ele>
        <time>2019-08-04T11:00:48.298Z</time>
      </trkpt>
      <trkpt lat="42.4602" lon="1.48223">
        <ele>1077.0</ele>
        <time>2019-08-04T11:00:49.317Z</time>
      </trkpt>
      <trkpt lat="42.4602" lon="1.48223">
        <ele>1077.0</ele>
        <time>2019-08-04T11:00:50.296Z</time>
      </trkpt>
      <trkpt lat="42.46024167" lon="1.48223333">
        <ele>1077.0</ele>
        <time>2019-08-04T11:00:51.317Z</time>
      </trkpt>
      <trkpt lat="42.46024167" lon="1.48223333">
        <ele>1077.0</ele>
        <time>2019-08-04T11:00:52.298Z</time>
      </trkpt>
      <trkpt lat="42.46028333" lon="1.48224167">
        <ele>1077.0</ele>
        <time>2019-08-04T11:00:53.323Z</time>
      </trkpt>
      <trkpt lat="42.46028333" lon="1.48224167">
        <ele>1077.0</ele>
        <time>2019-08-04T11:00:54.306Z</time>
      </trkpt>
      <trkpt lat="42.46032667" lon="1.482235">
        <ele>1077.0</ele>
        <time>2019-08-04T11:00:55.300Z</time>
      </trkpt>
      <trkpt lat="42.46032667" lon="1.482235">
        <ele>1077.0</ele>
        <time>2019-08-04T11:00:56.316Z</time>
      </trkpt>
      <trkpt lat="42.46036833" lon="1.48222667">
        <ele>1078.0</ele>
        <time>2019-08-04T11:00:57.301Z</time>
      </trkpt>
      <trkpt lat="42.46039" lon="1.48222">
        <ele>1078.0</ele>
        <time>2019-08-04T11:00:58.317Z</time>
      </trkpt>
      <trkpt lat="42.46039" lon="1.48222">
        <ele>1078.0</ele>
        <time>2019-08-04T11:00:59.306Z</time>
      </trkpt>
      <trkpt lat="42.46043333" lon="1.48220833">
        <ele>1079.0</ele>
        <time>2019-08-04T11:01:00.303Z</time>
      </trkpt>
      <trkpt lat="42.46043333" lon="1.48220833">
        <ele>1079.0</ele>
        <time>2019-08-04T11:01:01.335Z</time>
      </trkpt>
      <trkpt lat="42.460455" lon="1.48219833">
        <ele>1079.0</ele>
        <time>2019-08-04T11:01:02.301Z</time>
      </trkpt>
      <trkpt lat="42.460495" lon="1.48217333">
        <ele>1080.0</ele>
        <time>2019-08-04T11:01:03.312Z</time>
      </trkpt>
      <trkpt lat="42.460495" lon="1.48217333">
        <ele>1080.0</ele>
        <time>2019-08-04T11:01:04.335Z</time>
      </trkpt>
      <trkpt lat="42.46052833" lon="1.482145">
        <ele>1081.0</ele>
        <time>2019-08-04T11:01:05.316Z</time>
      </trkpt>
      <trkpt lat="42.460545" lon="1.48212">
        <ele>1082.0</ele>
        <time>2019-08-04T11:01:06.301Z</time>
      </trkpt>
      <trkpt lat="42.460545" lon="1.48212">
        <ele>1082.0</ele>
        <time>2019-08-04T11:01:07.298Z</time>
      </trkpt>
      <trkpt lat="42.46056167" lon="1.48205833">
        <ele>1083.0</ele>
        <time>2019-08-04T11:01:08.300Z</time>
      </trkpt>
      <trkpt lat="42.46056833" lon="1.48202833">
        <ele>1083.0</ele>
        <time>2019-08-04T11:01:09.305Z</time>
      </trkpt>
      <trkpt lat="42.46056833" lon="1.48202833">
        <ele>1083.0</ele>
        <time>2019-08-04T11:01:10.298Z</time>
      </trkpt>
      <trkpt lat="42.46055833" lon="1.48196833">
        <ele>1083.0</ele>
        <time>2019-08-04T11:01:11.303Z</time>
      </trkpt>
      <trkpt lat="42.46055833" lon="1.48196833">
        <ele>1083.0</ele>
        <time>2019-08-04T11:01:12.298Z</time>
      </trkpt>
      <trkpt lat="42.46052167" lon="1.48193833">
        <ele>1083.0</ele>
        <time>2019-08-04T11:01:13.301Z</time>
      </trkpt>
      <trkpt lat="42.46052167" lon="1.48193833">
        <ele>1083.0</ele>
        <time>2019-08-04T11:01:14.319Z</time>
      </trkpt>
      <trkpt lat="42.46047333" lon="1.48195333">
        <ele>1082.0</ele>
        <time>2019-08-04T11:01:15.305Z</time>
      </trkpt>
      <trkpt lat="42.46047333" lon="1.48195333">
        <ele>1082.0</ele>
        <time>2019-08-04T11:01:16.305Z</time>
      </trkpt>
      <trkpt lat="42.460425" lon="1.48198833">
        <ele>1082.0</ele>
        <time>2019-08-04T11:01:17.304Z</time>
      </trkpt>
      <trkpt lat="42.460425" lon="1.48198833">
        <ele>1082.0</ele>
        <time>2019-08-04T11:01:18.298Z</time>
      </trkpt>
      <trkpt lat="42.46037833" lon="1.48202167">
        <ele>1082.0</ele>
        <time>2019-08-04T11:01:19.327Z</time>
      </trkpt>
      <trkpt lat="42.46037833" lon="1.48202167">
        <ele>1082.0</ele>
        <time>2019-08-04T11:01:20.303Z</time>
      </trkpt>
      <trkpt lat="42.46033167" lon="1.48204667">
        <ele>1082.0</ele>
        <time>2019-08-04T11:01:21.305Z</time>
      </trkpt>
      <trkpt lat="42.46033167" lon="1.48204667">
        <ele>1082.0</ele>
        <time>2019-08-04T11:01:22.298Z</time>
      </trkpt>
      <trkpt lat="42.46028667" lon="1.48206167">
        <ele>1081.0</ele>
        <time>2019-08-04T11:01:23.303Z</time>
      </trkpt>
      <trkpt lat="42.46028667" lon="1.48206167">
        <ele>1081.0</ele>
        <time>2019-08-04T11:01:24.306Z</time>
      </trkpt>
      <trkpt lat="42.46024333" lon="1.48206333">
        <ele>1081.0</ele>
        <time>2019-08-04T11:01:25.300Z</time>
      </trkpt>
      <trkpt lat="42.46022333" lon="1.48206333">
        <ele>1082.0</ele>
        <time>2019-08-04T11:01:26.317Z</time>
      </trkpt>
      <trkpt lat="42.46022333" lon="1.48206333">
        <ele>1082.0</ele>
        <time>2019-08-04T11:01:27.298Z</time>
      </trkpt>
      <trkpt lat="42.46018333" lon="1.48204833">
        <ele>1082.0</ele>
        <time>2019-08-04T11:01:28.324Z</time>
      </trkpt>
      <trkpt lat="42.46018333" lon="1.48204833">
        <ele>1082.0</ele>
        <time>2019-08-04T11:01:29.329Z</time>
      </trkpt>
      <trkpt lat="42.46014167" lon="1.48203167">
        <ele>1083.0</ele>
        <time>2019-08-04T11:01:30.316Z</time>
      </trkpt>
      <trkpt lat="42.46012167" lon="1.48201667">
        <ele>1083.0</ele>
        <time>2019-08-04T11:01:31.301Z</time>
      </trkpt>
      <trkpt lat="42.46012167" lon="1.48201667">
        <ele>1083.0</ele>
        <time>2019-08-04T11:01:32.323Z</time>
      </trkpt>
      <trkpt lat="42.46008333" lon="1.48198667">
        <ele>1083.0</ele>
        <time>2019-08-04T11:01:33.305Z</time>
      </trkpt>
      <trkpt lat="42.46008333" lon="1.48198667">
        <ele>1083.0</ele>
        <time>2019-08-04T11:01:34.298Z</time>
      </trkpt>
      <trkpt lat="42.460045" lon="1.48195333">
        <ele>1084.0</ele>
        <time>2019-08-04T11:01:35.300Z</time>
      </trkpt>
      <trkpt lat="42.460025" lon="1.48194">
        <ele>1084.0</ele>
        <time>2019-08-04T11:01:36.301Z</time>
      </trkpt>
      <trkpt lat="42.46000667" lon="1.48192667">
        <ele>1084.0</ele>
        <time>2019-08-04T11:01:37.303Z</time>
      </trkpt>
      <trkpt lat="42.46000667" lon="1.48192667">
        <ele>1084.0</ele>
        <time>2019-08-04T11:01:38.301Z</time>
      </trkpt>
      <trkpt lat="42.45996833" lon="1.481905">
        <ele>1085.0</ele>
        <time>2019-08-04T11:01:39.318Z</time>
      </trkpt>
      <trkpt lat="42.45996833" lon="1.481905">
        <ele>1085.0</ele>
        <time>2019-08-04T11:01:40.301Z</time>
      </trkpt>
      <trkpt lat="42.45993333" lon="1.48187667">
        <ele>1086.0</ele>
        <time>2019-08-04T11:01:41.304Z</time>
      </trkpt>
      <trkpt lat="42.45993333" lon="1.48187667">
        <ele>1086.0</ele>
        <time>2019-08-04T11:01:42.300Z</time>
      </trkpt>
      <trkpt lat="42.45989833" lon="1.48184333">
        <ele>1086.0</ele>
        <time>2019-08-04T11:01:43.300Z</time>
      </trkpt>
      <trkpt lat="42.45989833" lon="1.48184333">
        <ele>1086.0</ele>
        <time>2019-08-04T11:01:44.298Z</time>
      </trkpt>
      <trkpt lat="42.459865" lon="1.48181167">
        <ele>1087.0</ele>
        <time>2019-08-04T11:01:45.303Z</time>
      </trkpt>
      <trkpt lat="42.459865" lon="1.48181167">
        <ele>1087.0</ele>
        <time>2019-08-04T11:01:46.300Z</time>
      </trkpt>
      <trkpt lat="42.45983" lon="1.48177833">
        <ele>1088.0</ele>
        <time>2019-08-04T11:01:47.303Z</time>
      </trkpt>
      <trkpt lat="42.45983" lon="1.48177833">
        <ele>1088.0</ele>
        <time>2019-08-04T11:01:48.296Z</time>
      </trkpt>
      <trkpt lat="42.459795" lon="1.48174667">
        <ele>1088.0</ele>
        <time>2019-08-04T11:01:49.321Z</time>
      </trkpt>
      <trkpt lat="42.459795" lon="1.48174667">
        <ele>1088.0</ele>
        <time>2019-08-04T11:01:50.300Z</time>
      </trkpt>
      <trkpt lat="42.45975833" lon="1.48171833">
        <ele>1089.0</ele>
        <time>2019-08-04T11:01:51.304Z</time>
      </trkpt>
      <trkpt lat="42.45975833" lon="1.48171833">
        <ele>1089.0</ele>
        <time>2019-08-04T11:01:52.296Z</time>
      </trkpt>
      <trkpt lat="42.45971833" lon="1.48169667">
        <ele>1090.0</ele>
        <time>2019-08-04T11:01:53.316Z</time>
      </trkpt>
      <trkpt lat="42.45971833" lon="1.48169667">
        <ele>1090.0</ele>
        <time>2019-08-04T11:01:54.300Z</time>
      </trkpt>
      <trkpt lat="42.45967833" lon="1.48167833">
        <ele>1090.0</ele>
        <time>2019-08-04T11:01:55.322Z</time>
      </trkpt>
      <trkpt lat="42.45967833" lon="1.48167833">
        <ele>1090.0</ele>
        <time>2019-08-04T11:01:56.304Z</time>
      </trkpt>
      <trkpt lat="42.45963333" lon="1.48166333">
        <ele>1091.0</ele>
        <time>2019-08-04T11:01:57.324Z</time>
      </trkpt>
      <trkpt lat="42.45961167" lon="1.48165667">
        <ele>1091.0</ele>
        <time>2019-08-04T11:01:58.305Z</time>
      </trkpt>
      <trkpt lat="42.45959" lon="1.48164833">
        <ele>1091.0</ele>
        <time>2019-08-04T11:01:59.317Z</time>
      </trkpt>
      <trkpt lat="42.45959" lon="1.48164833">
        <ele>1091.0</ele>
        <time>2019-08-04T11:02:00.301Z</time>
      </trkpt>
      <trkpt lat="42.45955167" lon="1.48163333">
        <ele>1092.0</ele>
        <time>2019-08-04T11:02:01.302Z</time>
      </trkpt>
      <trkpt lat="42.45955167" lon="1.48163333">
        <ele>1092.0</ele>
        <time>2019-08-04T11:02:02.301Z</time>
      </trkpt>
      <trkpt lat="42.45950833" lon="1.48161667">
        <ele>1092.0</ele>
        <time>2019-08-04T11:02:03.302Z</time>
      </trkpt>
      <trkpt lat="42.45950833" lon="1.48161667">
        <ele>1092.0</ele>
        <time>2019-08-04T11:02:04.296Z</time>
      </trkpt>
      <trkpt lat="42.45946667" lon="1.481605">
        <ele>1093.0</ele>
        <time>2019-08-04T11:02:05.316Z</time>
      </trkpt>
      <trkpt lat="42.45946667" lon="1.481605">
        <ele>1093.0</ele>
        <time>2019-08-04T11:02:06.300Z</time>
      </trkpt>
      <trkpt lat="42.45942667" lon="1.481595">
        <ele>1093.0</ele>
        <time>2019-08-04T11:02:07.303Z</time>
      </trkpt>
      <trkpt lat="42.45942667" lon="1.481595">
        <ele>1093.0</ele>
        <time>2019-08-04T11:02:08.300Z</time>
      </trkpt>
      <trkpt lat="42.45942667" lon="1.481595">
        <ele>1093.0</ele>
        <time>2019-08-04T11:02:09.417Z</time>
      </trkpt>
      <trkpt lat="42.459385" lon="1.48158167">
        <ele>1093.0</ele>
        <time>2019-08-04T11:02:10.312Z</time>
      </trkpt>
      <trkpt lat="42.45934167" lon="1.48157667">
        <ele>1093.0</ele>
        <time>2019-08-04T11:02:11.318Z</time>
      </trkpt>
      <trkpt lat="42.45932167" lon="1.48157167">
        <ele>1094.0</ele>
        <time>2019-08-04T11:02:12.325Z</time>
      </trkpt>
      <trkpt lat="42.45932167" lon="1.48157167">
        <ele>1094.0</ele>
        <time>2019-08-04T11:02:13.297Z</time>
      </trkpt>
      <trkpt lat="42.45928" lon="1.48156333">
        <ele>1094.0</ele>
        <time>2019-08-04T11:02:14.317Z</time>
      </trkpt>
      <trkpt lat="42.45928" lon="1.48156333">
        <ele>1094.0</ele>
        <time>2019-08-04T11:02:15.302Z</time>
      </trkpt>
      <trkpt lat="42.45923667" lon="1.48155833">
        <ele>1094.0</ele>
        <time>2019-08-04T11:02:16.318Z</time>
      </trkpt>
      <trkpt lat="42.45921333" lon="1.48155667">
        <ele>1095.0</ele>
        <time>2019-08-04T11:02:17.301Z</time>
      </trkpt>
      <trkpt lat="42.45921333" lon="1.48155667">
        <ele>1095.0</ele>
        <time>2019-08-04T11:02:18.298Z</time>
      </trkpt>
      <trkpt lat="42.45917" lon="1.48155333">
        <ele>1095.0</ele>
        <time>2019-08-04T11:02:19.326Z</time>
      </trkpt>
      <trkpt lat="42.45917" lon="1.48155333">
        <ele>1095.0</ele>
        <time>2019-08-04T11:02:20.303Z</time>
      </trkpt>
      <trkpt lat="42.45912833" lon="1.48154833">
        <ele>1095.0</ele>
        <time>2019-08-04T11:02:21.305Z</time>
      </trkpt>
      <trkpt lat="42.45912833" lon="1.48154833">
        <ele>1095.0</ele>
        <time>2019-08-04T11:02:22.297Z</time>
      </trkpt>
      <trkpt lat="42.45908833" lon="1.48154833">
        <ele>1096.0</ele>
        <time>2019-08-04T11:02:23.317Z</time>
      </trkpt>
      <trkpt lat="42.45908833" lon="1.48154833">
        <ele>1096.0</ele>
        <time>2019-08-04T11:02:24.301Z</time>
      </trkpt>
      <trkpt lat="42.45904833" lon="1.481545">
        <ele>1096.0</ele>
        <time>2019-08-04T11:02:25.301Z</time>
      </trkpt>
      <trkpt lat="42.45904833" lon="1.481545">
        <ele>1096.0</ele>
        <time>2019-08-04T11:02:26.298Z</time>
      </trkpt>
      <trkpt lat="42.45900667" lon="1.48154333">
        <ele>1097.0</ele>
        <time>2019-08-04T11:02:27.319Z</time>
      </trkpt>
      <trkpt lat="42.458985" lon="1.48154333">
        <ele>1097.0</ele>
        <time>2019-08-04T11:02:28.302Z</time>
      </trkpt>
      <trkpt lat="42.458985" lon="1.48154333">
        <ele>1097.0</ele>
        <time>2019-08-04T11:02:29.319Z</time>
      </trkpt>
      <trkpt lat="42.458945" lon="1.481535">
        <ele>1098.0</ele>
        <time>2019-08-04T11:02:30.332Z</time>
      </trkpt>
      <trkpt lat="42.458945" lon="1.481535">
        <ele>1098.0</ele>
        <time>2019-08-04T11:02:31.300Z</time>
      </trkpt>
      <trkpt lat="42.45890667" lon="1.48152833">
        <ele>1098.0</ele>
        <time>2019-08-04T11:02:32.301Z</time>
      </trkpt>
      <trkpt lat="42.45888833" lon="1.48152333">
        <ele>1098.0</ele>
        <time>2019-08-04T11:02:33.303Z</time>
      </trkpt>
      <trkpt lat="42.45888833" lon="1.48152333">
        <ele>1098.0</ele>
        <time>2019-08-04T11:02:34.298Z</time>
      </trkpt>
      <trkpt lat="42.45884833" lon="1.48150833">
        <ele>1099.0</ele>
        <time>2019-08-04T11:02:35.319Z</time>
      </trkpt>
      <trkpt lat="42.45884833" lon="1.48150833">
        <ele>1099.0</ele>
        <time>2019-08-04T11:02:36.302Z</time>
      </trkpt>
      <trkpt lat="42.45881" lon="1.48149167">
        <ele>1099.0</ele>
        <time>2019-08-04T11:02:37.304Z</time>
      </trkpt>
      <trkpt lat="42.45881" lon="1.48149167">
        <ele>1099.0</ele>
        <time>2019-08-04T11:02:38.298Z</time>
      </trkpt>
      <trkpt lat="42.45877167" lon="1.48147167">
        <ele>1100.0</ele>
        <time>2019-08-04T11:02:39.328Z</time>
      </trkpt>
      <trkpt lat="42.45877167" lon="1.48147167">
        <ele>1100.0</ele>
        <time>2019-08-04T11:02:40.321Z</time>
      </trkpt>
      <trkpt lat="42.45873333" lon="1.48145167">
        <ele>1100.0</ele>
        <time>2019-08-04T11:02:41.304Z</time>
      </trkpt>
      <trkpt lat="42.458715" lon="1.48144333">
        <ele>1101.0</ele>
        <time>2019-08-04T11:02:42.304Z</time>
      </trkpt>
      <trkpt lat="42.458715" lon="1.48144333">
        <ele>1101.0</ele>
        <time>2019-08-04T11:02:43.301Z</time>
      </trkpt>
      <trkpt lat="42.45867833" lon="1.48142">
        <ele>1101.0</ele>
        <time>2019-08-04T11:02:44.304Z</time>
      </trkpt>
      <trkpt lat="42.45867833" lon="1.48142">
        <ele>1101.0</ele>
        <time>2019-08-04T11:02:45.299Z</time>
      </trkpt>
      <trkpt lat="42.45864833" lon="1.48139">
        <ele>1102.0</ele>
        <time>2019-08-04T11:02:46.300Z</time>
      </trkpt>
      <trkpt lat="42.45864833" lon="1.48139">
        <ele>1102.0</ele>
        <time>2019-08-04T11:02:47.323Z</time>
      </trkpt>
      <trkpt lat="42.45861333" lon="1.48136333">
        <ele>1103.0</ele>
        <time>2019-08-04T11:02:48.304Z</time>
      </trkpt>
      <trkpt lat="42.45859333" lon="1.48135167">
        <ele>1104.0</ele>
        <time>2019-08-04T11:02:49.316Z</time>
      </trkpt>
      <trkpt lat="42.45859333" lon="1.48135167">
        <ele>1104.0</ele>
        <time>2019-08-04T11:02:50.301Z</time>
      </trkpt>
      <trkpt lat="42.45855833" lon="1.48132333">
        <ele>1104.0</ele>
        <time>2019-08-04T11:02:51.308Z</time>
      </trkpt>
      <trkpt lat="42.45854333" lon="1.48130833">
        <ele>1105.0</ele>
        <time>2019-08-04T11:02:52.304Z</time>
      </trkpt>
      <trkpt lat="42.45854333" lon="1.48130833">
        <ele>1105.0</ele>
        <time>2019-08-04T11:02:53.301Z</time>
      </trkpt>
      <trkpt lat="42.45851833" lon="1.48127167">
        <ele>1105.0</ele>
        <time>2019-08-04T11:02:54.303Z</time>
      </trkpt>
      <trkpt lat="42.45851833" lon="1.48127167">
        <ele>1105.0</ele>
        <time>2019-08-04T11:02:55.332Z</time>
      </trkpt>
      <trkpt lat="42.45849167" lon="1.48123333">
        <ele>1106.0</ele>
        <time>2019-08-04T11:02:56.313Z</time>
      </trkpt>
      <trkpt lat="42.45849167" lon="1.48123333">
        <ele>1106.0</ele>
        <time>2019-08-04T11:02:57.302Z</time>
      </trkpt>
      <trkpt lat="42.45846833" lon="1.48119333">
        <ele>1107.0</ele>
        <time>2019-08-04T11:02:58.304Z</time>
      </trkpt>
      <trkpt lat="42.45845833" lon="1.48117333">
        <ele>1107.0</ele>
        <time>2019-08-04T11:02:59.322Z</time>
      </trkpt>
      <trkpt lat="42.45845833" lon="1.48117333">
        <ele>1107.0</ele>
        <time>2019-08-04T11:03:00.298Z</time>
      </trkpt>
      <trkpt lat="42.45843833" lon="1.48113667">
        <ele>1108.0</ele>
        <time>2019-08-04T11:03:01.318Z</time>
      </trkpt>
      <trkpt lat="42.45843833" lon="1.48113667">
        <ele>1108.0</ele>
        <time>2019-08-04T11:03:02.302Z</time>
      </trkpt>
      <trkpt lat="42.45843833" lon="1.48113667">
        <ele>1108.0</ele>
        <time>2019-08-04T11:03:03.350Z</time>
      </trkpt>
      <trkpt lat="42.45843" lon="1.481095">
        <ele>1108.0</ele>
        <time>2019-08-04T11:03:04.301Z</time>
      </trkpt>
      <trkpt lat="42.45842" lon="1.48105333">
        <ele>1109.0</ele>
        <time>2019-08-04T11:03:05.334Z</time>
      </trkpt>
      <trkpt lat="42.45841833" lon="1.48103">
        <ele>1109.0</ele>
        <time>2019-08-04T11:03:06.319Z</time>
      </trkpt>
      <trkpt lat="42.45841833" lon="1.48103">
        <ele>1109.0</ele>
        <time>2019-08-04T11:03:07.298Z</time>
      </trkpt>
      <trkpt lat="42.45841167" lon="1.48097667">
        <ele>1109.0</ele>
        <time>2019-08-04T11:03:08.319Z</time>
      </trkpt>
      <trkpt lat="42.458405" lon="1.48095167">
        <ele>1110.0</ele>
        <time>2019-08-04T11:03:09.326Z</time>
      </trkpt>
      <trkpt lat="42.458405" lon="1.48095167">
        <ele>1110.0</ele>
        <time>2019-08-04T11:03:10.307Z</time>
      </trkpt>
      <trkpt lat="42.45838667" lon="1.48089667">
        <ele>1110.0</ele>
        <time>2019-08-04T11:03:11.305Z</time>
      </trkpt>
      <trkpt lat="42.45838667" lon="1.48089667">
        <ele>1110.0</ele>
        <time>2019-08-04T11:03:12.298Z</time>
      </trkpt>
      <trkpt lat="42.45836167" lon="1.48084333">
        <ele>1110.0</ele>
        <time>2019-08-04T11:03:13.319Z</time>
      </trkpt>
      <trkpt lat="42.45836167" lon="1.48084333">
        <ele>1110.0</ele>
        <time>2019-08-04T11:03:14.308Z</time>
      </trkpt>
      <trkpt lat="42.45833333" lon="1.48079833">
        <ele>1110.0</ele>
        <time>2019-08-04T11:03:15.321Z</time>
      </trkpt>
      <trkpt lat="42.45831667" lon="1.48077667">
        <ele>1110.0</ele>
        <time>2019-08-04T11:03:16.305Z</time>
      </trkpt>
      <trkpt lat="42.45831667" lon="1.48077667">
        <ele>1110.0</ele>
        <time>2019-08-04T11:03:17.298Z</time>
      </trkpt>
      <trkpt lat="42.45828" lon="1.48073833">
        <ele>1111.0</ele>
        <time>2019-08-04T11:03:18.317Z</time>
      </trkpt>
      <trkpt lat="42.45828" lon="1.48073833">
        <ele>1111.0</ele>
        <time>2019-08-04T11:03:19.314Z</time>
      </trkpt>
      <trkpt lat="42.45824333" lon="1.48070833">
        <ele>1111.0</ele>
        <time>2019-08-04T11:03:20.306Z</time>
      </trkpt>
      <trkpt lat="42.45822333" lon="1.48069667">
        <ele>1111.0</ele>
        <time>2019-08-04T11:03:21.305Z</time>
      </trkpt>
      <trkpt lat="42.45822333" lon="1.48069667">
        <ele>1111.0</ele>
        <time>2019-08-04T11:03:22.301Z</time>
      </trkpt>
      <trkpt lat="42.45818333" lon="1.48067333">
        <ele>1112.0</ele>
        <time>2019-08-04T11:03:23.304Z</time>
      </trkpt>
      <trkpt lat="42.45818333" lon="1.48067333">
        <ele>1112.0</ele>
        <time>2019-08-04T11:03:24.298Z</time>
      </trkpt>
      <trkpt lat="42.45814333" lon="1.480655">
        <ele>1113.0</ele>
        <time>2019-08-04T11:03:25.319Z</time>
      </trkpt>
      <trkpt lat="42.458125" lon="1.480645">
        <ele>1113.0</ele>
        <time>2019-08-04T11:03:26.327Z</time>
      </trkpt>
      <trkpt lat="42.458125" lon="1.480645">
        <ele>1113.0</ele>
        <time>2019-08-04T11:03:27.303Z</time>
      </trkpt>
      <trkpt lat="42.45808667" lon="1.48062833">
        <ele>1113.0</ele>
        <time>2019-08-04T11:03:28.300Z</time>
      </trkpt>
      <trkpt lat="42.45808667" lon="1.48062833">
        <ele>1113.0</ele>
        <time>2019-08-04T11:03:29.309Z</time>
      </trkpt>
      <trkpt lat="42.45804667" lon="1.48061667">
        <ele>1114.0</ele>
        <time>2019-08-04T11:03:30.303Z</time>
      </trkpt>
      <trkpt lat="42.45802833" lon="1.48060667">
        <ele>1114.0</ele>
        <time>2019-08-04T11:03:31.310Z</time>
      </trkpt>
      <trkpt lat="42.45801" lon="1.48059667">
        <ele>1114.0</ele>
        <time>2019-08-04T11:03:32.316Z</time>
      </trkpt>
      <trkpt lat="42.45799" lon="1.48059">
        <ele>1114.0</ele>
        <time>2019-08-04T11:03:33.305Z</time>
      </trkpt>
      <trkpt lat="42.45799" lon="1.48059">
        <ele>1114.0</ele>
        <time>2019-08-04T11:03:34.301Z</time>
      </trkpt>
      <trkpt lat="42.45795167" lon="1.48058">
        <ele>1115.0</ele>
        <time>2019-08-04T11:03:35.301Z</time>
      </trkpt>
      <trkpt lat="42.457935" lon="1.48057167">
        <ele>1115.0</ele>
        <time>2019-08-04T11:03:36.300Z</time>
      </trkpt>
      <trkpt lat="42.457935" lon="1.48057167">
        <ele>1115.0</ele>
        <time>2019-08-04T11:03:37.298Z</time>
      </trkpt>
      <trkpt lat="42.45789667" lon="1.48055333">
        <ele>1115.0</ele>
        <time>2019-08-04T11:03:38.319Z</time>
      </trkpt>
      <trkpt lat="42.45787667" lon="1.480545">
        <ele>1115.0</ele>
        <time>2019-08-04T11:03:39.325Z</time>
      </trkpt>
      <trkpt lat="42.45787667" lon="1.480545">
        <ele>1115.0</ele>
        <time>2019-08-04T11:03:40.306Z</time>
      </trkpt>
      <trkpt lat="42.45784" lon="1.480535">
        <ele>1115.0</ele>
        <time>2019-08-04T11:03:41.304Z</time>
      </trkpt>
      <trkpt lat="42.45782167" lon="1.48053">
        <ele>1116.0</ele>
        <time>2019-08-04T11:03:42.302Z</time>
      </trkpt>
      <trkpt lat="42.45782167" lon="1.48053">
        <ele>1116.0</ele>
        <time>2019-08-04T11:03:43.301Z</time>
      </trkpt>
      <trkpt lat="42.457785" lon="1.48050833">
        <ele>1116.0</ele>
        <time>2019-08-04T11:03:44.304Z</time>
      </trkpt>
      <trkpt lat="42.457785" lon="1.48050833">
        <ele>1116.0</ele>
        <time>2019-08-04T11:03:45.331Z</time>
      </trkpt>
      <trkpt lat="42.45774667" lon="1.48049167">
        <ele>1116.0</ele>
        <time>2019-08-04T11:03:46.312Z</time>
      </trkpt>
      <trkpt lat="42.45772667" lon="1.480485">
        <ele>1116.0</ele>
        <time>2019-08-04T11:03:47.304Z</time>
      </trkpt>
      <trkpt lat="42.45772667" lon="1.480485">
        <ele>1116.0</ele>
        <time>2019-08-04T11:03:48.301Z</time>
      </trkpt>
      <trkpt lat="42.45768667" lon="1.48047">
        <ele>1117.0</ele>
        <time>2019-08-04T11:03:49.303Z</time>
      </trkpt>
      <trkpt lat="42.457665" lon="1.48046333">
        <ele>1117.0</ele>
        <time>2019-08-04T11:03:50.319Z</time>
      </trkpt>
      <trkpt lat="42.457645" lon="1.48045667">
        <ele>1117.0</ele>
        <time>2019-08-04T11:03:51.305Z</time>
      </trkpt>
      <trkpt lat="42.457645" lon="1.48045667">
        <ele>1117.0</ele>
        <time>2019-08-04T11:03:52.301Z</time>
      </trkpt>
      <trkpt lat="42.457605" lon="1.48044167">
        <ele>1118.0</ele>
        <time>2019-08-04T11:03:53.304Z</time>
      </trkpt>
      <trkpt lat="42.457605" lon="1.48044167">
        <ele>1118.0</ele>
        <time>2019-08-04T11:03:54.298Z</time>
      </trkpt>
      <trkpt lat="42.457565" lon="1.480435">
        <ele>1118.0</ele>
        <time>2019-08-04T11:03:55.319Z</time>
      </trkpt>
      <trkpt lat="42.457545" lon="1.48043">
        <ele>1118.0</ele>
        <time>2019-08-04T11:03:56.304Z</time>
      </trkpt>
      <trkpt lat="42.457545" lon="1.48043">
        <ele>1118.0</ele>
        <time>2019-08-04T11:03:57.302Z</time>
      </trkpt>
      <trkpt lat="42.457505" lon="1.480425">
        <ele>1119.0</ele>
        <time>2019-08-04T11:03:58.301Z</time>
      </trkpt>
      <trkpt lat="42.457485" lon="1.48042333">
        <ele>1119.0</ele>
        <time>2019-08-04T11:03:59.321Z</time>
      </trkpt>
      <trkpt lat="42.457485" lon="1.48042333">
        <ele>1119.0</ele>
        <time>2019-08-04T11:04:00.301Z</time>
      </trkpt>
      <trkpt lat="42.457445" lon="1.48041833">
        <ele>1119.0</ele>
        <time>2019-08-04T11:04:01.304Z</time>
      </trkpt>
      <trkpt lat="42.457445" lon="1.48041833">
        <ele>1119.0</ele>
        <time>2019-08-04T11:04:02.303Z</time>
      </trkpt>
      <trkpt lat="42.457405" lon="1.480415">
        <ele>1119.0</ele>
        <time>2019-08-04T11:04:03.309Z</time>
      </trkpt>
      <trkpt lat="42.457405" lon="1.480415">
        <ele>1119.0</ele>
        <time>2019-08-04T11:04:04.301Z</time>
      </trkpt>
      <trkpt lat="42.457365" lon="1.48041">
        <ele>1120.0</ele>
        <time>2019-08-04T11:04:05.303Z</time>
      </trkpt>
      <trkpt lat="42.457365" lon="1.48041">
        <ele>1120.0</ele>
        <time>2019-08-04T11:04:06.301Z</time>
      </trkpt>
      <trkpt lat="42.45732333" lon="1.48041">
        <ele>1120.0</ele>
        <time>2019-08-04T11:04:07.324Z</time>
      </trkpt>
      <trkpt lat="42.45730333" lon="1.48041">
        <ele>1120.0</ele>
        <time>2019-08-04T11:04:08.305Z</time>
      </trkpt>
      <trkpt lat="42.45730333" lon="1.48041">
        <ele>1120.0</ele>
        <time>2019-08-04T11:04:09.371Z</time>
      </trkpt>
      <trkpt lat="42.457285" lon="1.48041333">
        <ele>1120.0</ele>
        <time>2019-08-04T11:04:10.304Z</time>
      </trkpt>
      <trkpt lat="42.45724667" lon="1.48042333">
        <ele>1120.0</ele>
        <time>2019-08-04T11:04:11.304Z</time>
      </trkpt>
      <trkpt lat="42.45724667" lon="1.48042333">
        <ele>1120.0</ele>
        <time>2019-08-04T11:04:12.298Z</time>
      </trkpt>
      <trkpt lat="42.457215" lon="1.48043833">
        <ele>1121.0</ele>
        <time>2019-08-04T11:04:13.319Z</time>
      </trkpt>
      <trkpt lat="42.457215" lon="1.48043833">
        <ele>1121.0</ele>
        <time>2019-08-04T11:04:14.300Z</time>
      </trkpt>
      <trkpt lat="42.4572" lon="1.48045667">
        <ele>1121.0</ele>
        <time>2019-08-04T11:04:15.305Z</time>
      </trkpt>
      <trkpt lat="42.4572" lon="1.48045667">
        <ele>1121.0</ele>
        <time>2019-08-04T11:04:16.298Z</time>
      </trkpt>
      <trkpt lat="42.45719333" lon="1.48047167">
        <ele>1121.0</ele>
        <time>2019-08-04T11:04:17.319Z</time>
      </trkpt>
      <trkpt lat="42.45719333" lon="1.48047167">
        <ele>1121.0</ele>
        <time>2019-08-04T11:04:18.301Z</time>
      </trkpt>
      <trkpt lat="42.45718667" lon="1.48048333">
        <ele>1121.0</ele>
        <time>2019-08-04T11:04:19.320Z</time>
      </trkpt>
      <trkpt lat="42.45718667" lon="1.480485">
        <ele>1121.0</ele>
        <time>2019-08-04T11:04:20.303Z</time>
      </trkpt>
      <trkpt lat="42.457185" lon="1.480485">
        <ele>1121.0</ele>
        <time>2019-08-04T11:04:21.305Z</time>
      </trkpt>
      <trkpt lat="42.457185" lon="1.480485">
        <ele>1121.0</ele>
        <time>2019-08-04T11:04:22.301Z</time>
      </trkpt>
      <trkpt lat="42.457185" lon="1.480485">
        <ele>1121.0</ele>
        <time>2019-08-04T11:04:23.307Z</time>
      </trkpt>
      <trkpt lat="42.45715667" lon="1.480405">
        <ele>1117.0</ele>
        <time>2019-08-04T11:04:24.307Z</time>
      </trkpt>
      <trkpt lat="42.45715667" lon="1.480405">
        <ele>1117.0</ele>
        <time>2019-08-04T11:04:25.304Z</time>
      </trkpt>
      <trkpt lat="42.45711667" lon="1.48040167">
        <ele>1118.0</ele>
        <time>2019-08-04T11:04:26.305Z</time>
      </trkpt>
      <trkpt lat="42.45711667" lon="1.48040167">
        <ele>1118.0</ele>
        <time>2019-08-04T11:04:27.301Z</time>
      </trkpt>
      <trkpt lat="42.45707" lon="1.48040167">
        <ele>1119.0</ele>
        <time>2019-08-04T11:04:28.328Z</time>
      </trkpt>
      <trkpt lat="42.45707" lon="1.48040167">
        <ele>1119.0</ele>
        <time>2019-08-04T11:04:29.334Z</time>
      </trkpt>
      <trkpt lat="42.457025" lon="1.48041">
        <ele>1120.0</ele>
        <time>2019-08-04T11:04:30.315Z</time>
      </trkpt>
      <trkpt lat="42.457025" lon="1.48041">
        <ele>1120.0</ele>
        <time>2019-08-04T11:04:31.321Z</time>
      </trkpt>
      <trkpt lat="42.45697833" lon="1.48041">
        <ele>1120.0</ele>
        <time>2019-08-04T11:04:32.297Z</time>
      </trkpt>
      <trkpt lat="42.45695167" lon="1.48041167">
        <ele>1121.0</ele>
        <time>2019-08-04T11:04:33.321Z</time>
      </trkpt>
      <trkpt lat="42.456925" lon="1.48041833">
        <ele>1121.0</ele>
        <time>2019-08-04T11:04:34.307Z</time>
      </trkpt>
      <trkpt lat="42.456925" lon="1.48041833">
        <ele>1121.0</ele>
        <time>2019-08-04T11:04:35.322Z</time>
      </trkpt>
      <trkpt lat="42.45687667" lon="1.480435">
        <ele>1122.0</ele>
        <time>2019-08-04T11:04:36.303Z</time>
      </trkpt>
      <trkpt lat="42.456855" lon="1.48044833">
        <ele>1122.0</ele>
        <time>2019-08-04T11:04:37.309Z</time>
      </trkpt>
      <trkpt lat="42.456855" lon="1.48044833">
        <ele>1122.0</ele>
        <time>2019-08-04T11:04:38.304Z</time>
      </trkpt>
      <trkpt lat="42.456815" lon="1.480495">
        <ele>1123.0</ele>
        <time>2019-08-04T11:04:39.307Z</time>
      </trkpt>
      <trkpt lat="42.45680167" lon="1.48052333">
        <ele>1123.0</ele>
        <time>2019-08-04T11:04:40.325Z</time>
      </trkpt>
      <trkpt lat="42.45680167" lon="1.48052333">
        <ele>1123.0</ele>
        <time>2019-08-04T11:04:41.322Z</time>
      </trkpt>
      <trkpt lat="42.45676833" lon="1.48058333">
        <ele>1124.0</ele>
        <time>2019-08-04T11:04:42.306Z</time>
      </trkpt>
      <trkpt lat="42.45676833" lon="1.48058333">
        <ele>1124.0</ele>
        <time>2019-08-04T11:04:43.303Z</time>
      </trkpt>
      <trkpt lat="42.45674667" lon="1.480635">
        <ele>1124.0</ele>
        <time>2019-08-04T11:04:44.306Z</time>
      </trkpt>
      <trkpt lat="42.45674667" lon="1.480635">
        <ele>1124.0</ele>
        <time>2019-08-04T11:04:45.300Z</time>
      </trkpt>
      <trkpt lat="42.45672667" lon="1.48068833">
        <ele>1124.0</ele>
        <time>2019-08-04T11:04:46.321Z</time>
      </trkpt>
      <trkpt lat="42.45672667" lon="1.48068833">
        <ele>1124.0</ele>
        <time>2019-08-04T11:04:47.303Z</time>
      </trkpt>
      <trkpt lat="42.456705" lon="1.480745">
        <ele>1125.0</ele>
        <time>2019-08-04T11:04:48.306Z</time>
      </trkpt>
      <trkpt lat="42.456705" lon="1.480745">
        <ele>1125.0</ele>
        <time>2019-08-04T11:04:49.301Z</time>
      </trkpt>
      <trkpt lat="42.456685" lon="1.48080333">
        <ele>1125.0</ele>
        <time>2019-08-04T11:04:50.329Z</time>
      </trkpt>
      <trkpt lat="42.456685" lon="1.48080333">
        <ele>1125.0</ele>
        <time>2019-08-04T11:04:51.309Z</time>
      </trkpt>
      <trkpt lat="42.45667" lon="1.48086333">
        <ele>1125.0</ele>
        <time>2019-08-04T11:04:52.305Z</time>
      </trkpt>
      <trkpt lat="42.45667" lon="1.48086333">
        <ele>1125.0</ele>
        <time>2019-08-04T11:04:53.303Z</time>
      </trkpt>
      <trkpt lat="42.45666" lon="1.48092">
        <ele>1126.0</ele>
        <time>2019-08-04T11:04:54.306Z</time>
      </trkpt>
      <trkpt lat="42.45666" lon="1.48092">
        <ele>1126.0</ele>
        <time>2019-08-04T11:04:55.303Z</time>
      </trkpt>
      <trkpt lat="42.45663333" lon="1.48095333">
        <ele>1126.0</ele>
        <time>2019-08-04T11:04:56.306Z</time>
      </trkpt>
      <trkpt lat="42.45663333" lon="1.48095333">
        <ele>1126.0</ele>
        <time>2019-08-04T11:04:57.303Z</time>
      </trkpt>
      <trkpt lat="42.45659833" lon="1.48093833">
        <ele>1126.0</ele>
        <time>2019-08-04T11:04:58.330Z</time>
      </trkpt>
      <trkpt lat="42.45659" lon="1.48092">
        <ele>1126.0</ele>
        <time>2019-08-04T11:04:59.329Z</time>
      </trkpt>
      <trkpt lat="42.45659" lon="1.48092">
        <ele>1126.0</ele>
        <time>2019-08-04T11:05:00.321Z</time>
      </trkpt>
      <trkpt lat="42.45657333" lon="1.48087167">
        <ele>1127.0</ele>
        <time>2019-08-04T11:05:01.303Z</time>
      </trkpt>
      <trkpt lat="42.45656833" lon="1.480845">
        <ele>1127.0</ele>
        <time>2019-08-04T11:05:02.306Z</time>
      </trkpt>
      <trkpt lat="42.456565" lon="1.48081833">
        <ele>1127.0</ele>
        <time>2019-08-04T11:05:03.329Z</time>
      </trkpt>
      <trkpt lat="42.456565" lon="1.48081833">
        <ele>1127.0</ele>
        <time>2019-08-04T11:05:04.310Z</time>
      </trkpt>
      <trkpt lat="42.45656167" lon="1.480755">
        <ele>1127.0</ele>
        <time>2019-08-04T11:05:05.306Z</time>
      </trkpt>
      <trkpt lat="42.45656167" lon="1.480755">
        <ele>1127.0</ele>
        <time>2019-08-04T11:05:06.302Z</time>
      </trkpt>
      <trkpt lat="42.45656167" lon="1.48069333">
        <ele>1128.0</ele>
        <time>2019-08-04T11:05:07.305Z</time>
      </trkpt>
      <trkpt lat="42.45656167" lon="1.48066333">
        <ele>1128.0</ele>
        <time>2019-08-04T11:05:08.307Z</time>
      </trkpt>
      <trkpt lat="42.45656167" lon="1.48066333">
        <ele>1128.0</ele>
        <time>2019-08-04T11:05:09.302Z</time>
      </trkpt>
      <trkpt lat="42.45656167" lon="1.48060167">
        <ele>1129.0</ele>
        <time>2019-08-04T11:05:10.312Z</time>
      </trkpt>
      <trkpt lat="42.45656167" lon="1.48060167">
        <ele>1129.0</ele>
        <time>2019-08-04T11:05:11.300Z</time>
      </trkpt>
      <trkpt lat="42.456565" lon="1.48054">
        <ele>1130.0</ele>
        <time>2019-08-04T11:05:12.321Z</time>
      </trkpt>
      <trkpt lat="42.456565" lon="1.48054">
        <ele>1130.0</ele>
        <time>2019-08-04T11:05:13.306Z</time>
      </trkpt>
      <trkpt lat="42.45657" lon="1.48048">
        <ele>1131.0</ele>
        <time>2019-08-04T11:05:14.312Z</time>
      </trkpt>
      <trkpt lat="42.45657" lon="1.48048">
        <ele>1131.0</ele>
        <time>2019-08-04T11:05:15.303Z</time>
      </trkpt>
      <trkpt lat="42.45657167" lon="1.48042167">
        <ele>1131.0</ele>
        <time>2019-08-04T11:05:16.306Z</time>
      </trkpt>
      <trkpt lat="42.45657167" lon="1.48042167">
        <ele>1131.0</ele>
        <time>2019-08-04T11:05:17.304Z</time>
      </trkpt>
      <trkpt lat="42.45656667" lon="1.48036333">
        <ele>1132.0</ele>
        <time>2019-08-04T11:05:18.308Z</time>
      </trkpt>
      <trkpt lat="42.45656667" lon="1.48036333">
        <ele>1132.0</ele>
        <time>2019-08-04T11:05:19.303Z</time>
      </trkpt>
      <trkpt lat="42.45657" lon="1.48030667">
        <ele>1132.0</ele>
        <time>2019-08-04T11:05:20.329Z</time>
      </trkpt>
      <trkpt lat="42.45657" lon="1.48030667">
        <ele>1132.0</ele>
        <time>2019-08-04T11:05:21.310Z</time>
      </trkpt>
      <trkpt lat="42.45657333" lon="1.48024667">
        <ele>1133.0</ele>
        <time>2019-08-04T11:05:22.308Z</time>
      </trkpt>
      <trkpt lat="42.45657333" lon="1.48024667">
        <ele>1133.0</ele>
        <time>2019-08-04T11:05:23.300Z</time>
      </trkpt>
      <trkpt lat="42.456575" lon="1.48018833">
        <ele>1133.0</ele>
        <time>2019-08-04T11:05:24.321Z</time>
      </trkpt>
      <trkpt lat="42.456575" lon="1.48018833">
        <ele>1133.0</ele>
        <time>2019-08-04T11:05:25.303Z</time>
      </trkpt>
      <trkpt lat="42.456575" lon="1.48012667">
        <ele>1134.0</ele>
        <time>2019-08-04T11:05:26.307Z</time>
      </trkpt>
      <trkpt lat="42.456575" lon="1.48012667">
        <ele>1134.0</ele>
        <time>2019-08-04T11:05:27.301Z</time>
      </trkpt>
      <trkpt lat="42.45658" lon="1.480065">
        <ele>1135.0</ele>
        <time>2019-08-04T11:05:28.330Z</time>
      </trkpt>
      <trkpt lat="42.45658333" lon="1.480035">
        <ele>1135.0</ele>
        <time>2019-08-04T11:05:29.304Z</time>
      </trkpt>
      <trkpt lat="42.45658333" lon="1.480035">
        <ele>1135.0</ele>
        <time>2019-08-04T11:05:30.328Z</time>
      </trkpt>
      <trkpt lat="42.456585" lon="1.47998667">
        <ele>1135.0</ele>
        <time>2019-08-04T11:05:31.335Z</time>
      </trkpt>
      <trkpt lat="42.456585" lon="1.47998667">
        <ele>1135.0</ele>
        <time>2019-08-04T11:05:32.301Z</time>
      </trkpt>
      <trkpt lat="42.45658667" lon="1.47994333">
        <ele>1136.0</ele>
        <time>2019-08-04T11:05:33.305Z</time>
      </trkpt>
      <trkpt lat="42.45658667" lon="1.47992167">
        <ele>1136.0</ele>
        <time>2019-08-04T11:05:34.306Z</time>
      </trkpt>
      <trkpt lat="42.45658667" lon="1.47992167">
        <ele>1136.0</ele>
        <time>2019-08-04T11:05:35.303Z</time>
      </trkpt>
      <trkpt lat="42.45658667" lon="1.47988333">
        <ele>1136.0</ele>
        <time>2019-08-04T11:05:36.306Z</time>
      </trkpt>
      <trkpt lat="42.45658667" lon="1.47988333">
        <ele>1136.0</ele>
        <time>2019-08-04T11:05:37.301Z</time>
      </trkpt>
      <trkpt lat="42.456585" lon="1.47987167">
        <ele>1136.0</ele>
        <time>2019-08-04T11:05:38.322Z</time>
      </trkpt>
      <trkpt lat="42.456585" lon="1.47987167">
        <ele>1136.0</ele>
        <time>2019-08-04T11:05:39.304Z</time>
      </trkpt>
      <trkpt lat="42.45658333" lon="1.47987">
        <ele>1136.0</ele>
        <time>2019-08-04T11:05:40.329Z</time>
      </trkpt>
      <trkpt lat="42.45658333" lon="1.47987">
        <ele>1136.0</ele>
        <time>2019-08-04T11:05:41.311Z</time>
      </trkpt>
      <trkpt lat="42.45658333" lon="1.47987">
        <ele>1136.0</ele>
        <time>2019-08-04T11:05:42.306Z</time>
      </trkpt>
      <trkpt lat="42.45658333" lon="1.47987">
        <ele>1136.0</ele>
        <time>2019-08-04T11:05:43.303Z</time>
      </trkpt>
      <trkpt lat="42.45655" lon="1.47984167">
        <ele>1136.0</ele>
        <time>2019-08-04T11:05:44.296Z</time>
      </trkpt>
      <trkpt lat="42.45655" lon="1.47984167">
        <ele>1136.0</ele>
        <time>2019-08-04T11:05:45.335Z</time>
      </trkpt>
      <trkpt lat="42.45655" lon="1.479795">
        <ele>1136.0</ele>
        <time>2019-08-04T11:05:46.297Z</time>
      </trkpt>
      <trkpt lat="42.45655" lon="1.479795">
        <ele>1136.0</ele>
        <time>2019-08-04T11:05:47.298Z</time>
      </trkpt>
      <trkpt lat="42.45655" lon="1.47973333">
        <ele>1136.0</ele>
        <time>2019-08-04T11:05:48.301Z</time>
      </trkpt>
      <trkpt lat="42.45655" lon="1.47973333">
        <ele>1136.0</ele>
        <time>2019-08-04T11:05:49.333Z</time>
      </trkpt>
      <trkpt lat="42.45654833" lon="1.47964667">
        <ele>1136.0</ele>
        <time>2019-08-04T11:05:50.314Z</time>
      </trkpt>
      <trkpt lat="42.45654833" lon="1.47964667">
        <ele>1136.0</ele>
        <time>2019-08-04T11:05:51.335Z</time>
      </trkpt>
      <trkpt lat="42.45655167" lon="1.47952167">
        <ele>1135.0</ele>
        <time>2019-08-04T11:05:52.316Z</time>
      </trkpt>
      <trkpt lat="42.45655167" lon="1.47952167">
        <ele>1135.0</ele>
        <time>2019-08-04T11:05:53.296Z</time>
      </trkpt>
      <trkpt lat="42.456565" lon="1.47935833">
        <ele>1133.0</ele>
        <time>2019-08-04T11:05:54.298Z</time>
      </trkpt>
      <trkpt lat="42.456565" lon="1.47935833">
        <ele>1133.0</ele>
        <time>2019-08-04T11:05:55.298Z</time>
      </trkpt>
      <trkpt lat="42.45659167" lon="1.47915667">
        <ele>1132.0</ele>
        <time>2019-08-04T11:05:56.300Z</time>
      </trkpt>
      <trkpt lat="42.45659167" lon="1.47915667">
        <ele>1132.0</ele>
        <time>2019-08-04T11:05:57.335Z</time>
      </trkpt>
      <trkpt lat="42.45663" lon="1.47892">
        <ele>1130.0</ele>
        <time>2019-08-04T11:05:58.298Z</time>
      </trkpt>
      <trkpt lat="42.45663" lon="1.47892">
        <ele>1130.0</ele>
        <time>2019-08-04T11:05:59.333Z</time>
      </trkpt>
      <trkpt lat="42.456685" lon="1.47865167">
        <ele>1127.0</ele>
        <time>2019-08-04T11:06:00.314Z</time>
      </trkpt>
      <trkpt lat="42.45672" lon="1.47850833">
        <ele>1125.0</ele>
        <time>2019-08-04T11:06:01.298Z</time>
      </trkpt>
      <trkpt lat="42.45675667" lon="1.47836333">
        <ele>1124.0</ele>
        <time>2019-08-04T11:06:02.321Z</time>
      </trkpt>
      <trkpt lat="42.45675667" lon="1.47836333">
        <ele>1124.0</ele>
        <time>2019-08-04T11:06:03.315Z</time>
      </trkpt>
      <trkpt lat="42.45681333" lon="1.47806167">
        <ele>1121.0</ele>
        <time>2019-08-04T11:06:04.297Z</time>
      </trkpt>
      <trkpt lat="42.45681333" lon="1.47806167">
        <ele>1121.0</ele>
        <time>2019-08-04T11:06:05.335Z</time>
      </trkpt>
      <trkpt lat="42.45685667" lon="1.47775333">
        <ele>1119.0</ele>
        <time>2019-08-04T11:06:06.298Z</time>
      </trkpt>
      <trkpt lat="42.45685667" lon="1.47775333">
        <ele>1119.0</ele>
        <time>2019-08-04T11:06:07.335Z</time>
      </trkpt>
      <trkpt lat="42.45692667" lon="1.47745333">
        <ele>1116.0</ele>
        <time>2019-08-04T11:06:08.301Z</time>
      </trkpt>
      <trkpt lat="42.45698167" lon="1.47730667">
        <ele>1115.0</ele>
        <time>2019-08-04T11:06:09.335Z</time>
      </trkpt>
      <trkpt lat="42.45698167" lon="1.47730667">
        <ele>1115.0</ele>
        <time>2019-08-04T11:06:10.335Z</time>
      </trkpt>
      <trkpt lat="42.45711167" lon="1.47701">
        <ele>1112.0</ele>
        <time>2019-08-04T11:06:11.299Z</time>
      </trkpt>
      <trkpt lat="42.45711167" lon="1.47701">
        <ele>1112.0</ele>
        <time>2019-08-04T11:06:12.318Z</time>
      </trkpt>
      <trkpt lat="42.45721667" lon="1.476675">
        <ele>1110.0</ele>
        <time>2019-08-04T11:06:13.301Z</time>
      </trkpt>
      <trkpt lat="42.457255" lon="1.476495">
        <ele>1109.0</ele>
        <time>2019-08-04T11:06:14.301Z</time>
      </trkpt>
      <trkpt lat="42.457255" lon="1.476495">
        <ele>1109.0</ele>
        <time>2019-08-04T11:06:15.335Z</time>
      </trkpt>
      <trkpt lat="42.45731" lon="1.47614">
        <ele>1108.0</ele>
        <time>2019-08-04T11:06:16.297Z</time>
      </trkpt>
      <trkpt lat="42.45731" lon="1.47614">
        <ele>1108.0</ele>
        <time>2019-08-04T11:06:17.298Z</time>
      </trkpt>
      <trkpt lat="42.457345" lon="1.475845">
        <ele>1107.0</ele>
        <time>2019-08-04T11:06:18.298Z</time>
      </trkpt>
      <trkpt lat="42.45738167" lon="1.47572">
        <ele>1107.0</ele>
        <time>2019-08-04T11:06:19.298Z</time>
      </trkpt>
      <trkpt lat="42.45738167" lon="1.47572">
        <ele>1107.0</ele>
        <time>2019-08-04T11:06:20.298Z</time>
      </trkpt>
      <trkpt lat="42.45748167" lon="1.475485">
        <ele>1106.0</ele>
        <time>2019-08-04T11:06:21.298Z</time>
      </trkpt>
      <trkpt lat="42.45753" lon="1.47536667">
        <ele>1106.0</ele>
        <time>2019-08-04T11:06:22.322Z</time>
      </trkpt>
      <trkpt lat="42.45753" lon="1.47536667">
        <ele>1106.0</ele>
        <time>2019-08-04T11:06:23.305Z</time>
      </trkpt>
      <trkpt lat="42.45759333" lon="1.47510167">
        <ele>1105.0</ele>
        <time>2019-08-04T11:06:24.299Z</time>
      </trkpt>
      <trkpt lat="42.45759333" lon="1.47510167">
        <ele>1105.0</ele>
        <time>2019-08-04T11:06:25.335Z</time>
      </trkpt>
      <trkpt lat="42.45767" lon="1.474845">
        <ele>1103.0</ele>
        <time>2019-08-04T11:06:26.322Z</time>
      </trkpt>
      <trkpt lat="42.45767" lon="1.474845">
        <ele>1103.0</ele>
        <time>2019-08-04T11:06:27.303Z</time>
      </trkpt>
      <trkpt lat="42.45777" lon="1.47462833">
        <ele>1102.0</ele>
        <time>2019-08-04T11:06:28.298Z</time>
      </trkpt>
      <trkpt lat="42.45777" lon="1.47462833">
        <ele>1102.0</ele>
        <time>2019-08-04T11:06:29.329Z</time>
      </trkpt>
      <trkpt lat="42.45781667" lon="1.47442333">
        <ele>1101.0</ele>
        <time>2019-08-04T11:06:30.324Z</time>
      </trkpt>
      <trkpt lat="42.45779333" lon="1.47433167">
        <ele>1100.0</ele>
        <time>2019-08-04T11:06:31.332Z</time>
      </trkpt>
      <trkpt lat="42.457745" lon="1.474265">
        <ele>1100.0</ele>
        <time>2019-08-04T11:06:32.322Z</time>
      </trkpt>
      <trkpt lat="42.45769" lon="1.474235">
        <ele>1099.0</ele>
        <time>2019-08-04T11:06:33.313Z</time>
      </trkpt>
      <trkpt lat="42.45769" lon="1.474235">
        <ele>1099.0</ele>
        <time>2019-08-04T11:06:34.336Z</time>
      </trkpt>
      <trkpt lat="42.45758333" lon="1.47419167">
        <ele>1098.0</ele>
        <time>2019-08-04T11:06:35.298Z</time>
      </trkpt>
      <trkpt lat="42.45758333" lon="1.47419167">
        <ele>1098.0</ele>
        <time>2019-08-04T11:06:36.335Z</time>
      </trkpt>
      <trkpt lat="42.45748667" lon="1.47414">
        <ele>1097.0</ele>
        <time>2019-08-04T11:06:37.297Z</time>
      </trkpt>
      <trkpt lat="42.45744333" lon="1.47410667">
        <ele>1096.0</ele>
        <time>2019-08-04T11:06:38.300Z</time>
      </trkpt>
      <trkpt lat="42.45744333" lon="1.47410667">
        <ele>1096.0</ele>
        <time>2019-08-04T11:06:39.334Z</time>
      </trkpt>
      <trkpt lat="42.45738333" lon="1.47403">
        <ele>1095.0</ele>
        <time>2019-08-04T11:06:40.298Z</time>
      </trkpt>
      <trkpt lat="42.45738333" lon="1.47403">
        <ele>1095.0</ele>
        <time>2019-08-04T11:06:41.335Z</time>
      </trkpt>
      <trkpt lat="42.45735833" lon="1.47391">
        <ele>1095.0</ele>
        <time>2019-08-04T11:06:42.315Z</time>
      </trkpt>
      <trkpt lat="42.45735833" lon="1.47391">
        <ele>1095.0</ele>
        <time>2019-08-04T11:06:43.296Z</time>
      </trkpt>
      <trkpt lat="42.457335" lon="1.47376833">
        <ele>1095.0</ele>
        <time>2019-08-04T11:06:44.307Z</time>
      </trkpt>
      <trkpt lat="42.457335" lon="1.47376833">
        <ele>1095.0</ele>
        <time>2019-08-04T11:06:45.296Z</time>
      </trkpt>
      <trkpt lat="42.45731" lon="1.47364333">
        <ele>1096.0</ele>
        <time>2019-08-04T11:06:46.296Z</time>
      </trkpt>
      <trkpt lat="42.45731" lon="1.47364333">
        <ele>1096.0</ele>
        <time>2019-08-04T11:06:47.296Z</time>
      </trkpt>
      <trkpt lat="42.457275" lon="1.47352333">
        <ele>1096.0</ele>
        <time>2019-08-04T11:06:48.298Z</time>
      </trkpt>
      <trkpt lat="42.457275" lon="1.47352333">
        <ele>1096.0</ele>
        <time>2019-08-04T11:06:49.296Z</time>
      </trkpt>
      <trkpt lat="42.45723" lon="1.47341667">
        <ele>1097.0</ele>
        <time>2019-08-04T11:06:50.306Z</time>
      </trkpt>
      <trkpt lat="42.45723" lon="1.47341667">
        <ele>1097.0</ele>
        <time>2019-08-04T11:06:51.296Z</time>
      </trkpt>
      <trkpt lat="42.45718833" lon="1.473325">
        <ele>1097.0</ele>
        <time>2019-08-04T11:06:52.323Z</time>
      </trkpt>
      <trkpt lat="42.45717" lon="1.47328">
        <ele>1097.0</ele>
        <time>2019-08-04T11:06:53.305Z</time>
      </trkpt>
      <trkpt lat="42.45717" lon="1.47328">
        <ele>1097.0</ele>
        <time>2019-08-04T11:06:54.335Z</time>
      </trkpt>
      <trkpt lat="42.457135" lon="1.47319167">
        <ele>1098.0</ele>
        <time>2019-08-04T11:06:55.300Z</time>
      </trkpt>
      <trkpt lat="42.457115" lon="1.47315167">
        <ele>1098.0</ele>
        <time>2019-08-04T11:06:56.302Z</time>
      </trkpt>
      <trkpt lat="42.457115" lon="1.47315167">
        <ele>1098.0</ele>
        <time>2019-08-04T11:06:57.299Z</time>
      </trkpt>
      <trkpt lat="42.45707333" lon="1.47308333">
        <ele>1099.0</ele>
        <time>2019-08-04T11:06:58.298Z</time>
      </trkpt>
      <trkpt lat="42.45707333" lon="1.47308333">
        <ele>1099.0</ele>
        <time>2019-08-04T11:06:59.336Z</time>
      </trkpt>
      <trkpt lat="42.45703333" lon="1.47302">
        <ele>1100.0</ele>
        <time>2019-08-04T11:07:00.298Z</time>
      </trkpt>
      <trkpt lat="42.45703333" lon="1.47302">
        <ele>1100.0</ele>
        <time>2019-08-04T11:07:01.332Z</time>
      </trkpt>
      <trkpt lat="42.45699667" lon="1.47295667">
        <ele>1100.0</ele>
        <time>2019-08-04T11:07:02.316Z</time>
      </trkpt>
      <trkpt lat="42.45699667" lon="1.47295667">
        <ele>1100.0</ele>
        <time>2019-08-04T11:07:03.296Z</time>
      </trkpt>
      <trkpt lat="42.45695333" lon="1.472895">
        <ele>1101.0</ele>
        <time>2019-08-04T11:07:04.296Z</time>
      </trkpt>
      <trkpt lat="42.45695333" lon="1.472895">
        <ele>1101.0</ele>
        <time>2019-08-04T11:07:05.335Z</time>
      </trkpt>
      <trkpt lat="42.45691333" lon="1.47283833">
        <ele>1102.0</ele>
        <time>2019-08-04T11:07:06.298Z</time>
      </trkpt>
      <trkpt lat="42.45689167" lon="1.47281">
        <ele>1102.0</ele>
        <time>2019-08-04T11:07:07.298Z</time>
      </trkpt>
      <trkpt lat="42.45689167" lon="1.47281">
        <ele>1102.0</ele>
        <time>2019-08-04T11:07:08.296Z</time>
      </trkpt>
      <trkpt lat="42.45684667" lon="1.47275333">
        <ele>1103.0</ele>
        <time>2019-08-04T11:07:09.298Z</time>
      </trkpt>
      <trkpt lat="42.45684667" lon="1.47275333">
        <ele>1103.0</ele>
        <time>2019-08-04T11:07:10.322Z</time>
      </trkpt>
      <trkpt lat="42.45680667" lon="1.47269833">
        <ele>1104.0</ele>
        <time>2019-08-04T11:07:11.303Z</time>
      </trkpt>
      <trkpt lat="42.45680667" lon="1.47269833">
        <ele>1104.0</ele>
        <time>2019-08-04T11:07:12.296Z</time>
      </trkpt>
      <trkpt lat="42.45676833" lon="1.47264">
        <ele>1105.0</ele>
        <time>2019-08-04T11:07:13.297Z</time>
      </trkpt>
      <trkpt lat="42.45674833" lon="1.47261333">
        <ele>1105.0</ele>
        <time>2019-08-04T11:07:14.301Z</time>
      </trkpt>
      <trkpt lat="42.45674833" lon="1.47261333">
        <ele>1105.0</ele>
        <time>2019-08-04T11:07:15.296Z</time>
      </trkpt>
      <trkpt lat="42.45670667" lon="1.47256833">
        <ele>1106.0</ele>
        <time>2019-08-04T11:07:16.298Z</time>
      </trkpt>
      <trkpt lat="42.45670667" lon="1.47256833">
        <ele>1106.0</ele>
        <time>2019-08-04T11:07:17.335Z</time>
      </trkpt>
      <trkpt lat="42.456665" lon="1.47251833">
        <ele>1106.0</ele>
        <time>2019-08-04T11:07:18.298Z</time>
      </trkpt>
      <trkpt lat="42.456665" lon="1.47251833">
        <ele>1106.0</ele>
        <time>2019-08-04T11:07:19.296Z</time>
      </trkpt>
      <trkpt lat="42.45662667" lon="1.47247167">
        <ele>1108.0</ele>
        <time>2019-08-04T11:07:20.300Z</time>
      </trkpt>
      <trkpt lat="42.45660667" lon="1.47245167">
        <ele>1108.0</ele>
        <time>2019-08-04T11:07:21.298Z</time>
      </trkpt>
      <trkpt lat="42.45660667" lon="1.47245167">
        <ele>1108.0</ele>
        <time>2019-08-04T11:07:22.308Z</time>
      </trkpt>
      <trkpt lat="42.456565" lon="1.47241667">
        <ele>1109.0</ele>
        <time>2019-08-04T11:07:23.298Z</time>
      </trkpt>
      <trkpt lat="42.45654667" lon="1.47239833">
        <ele>1109.0</ele>
        <time>2019-08-04T11:07:24.298Z</time>
      </trkpt>
      <trkpt lat="42.45654667" lon="1.47239833">
        <ele>1109.0</ele>
        <time>2019-08-04T11:07:25.296Z</time>
      </trkpt>
      <trkpt lat="42.45650667" lon="1.47236167">
        <ele>1110.0</ele>
        <time>2019-08-04T11:07:26.305Z</time>
      </trkpt>
      <trkpt lat="42.45650667" lon="1.47236167">
        <ele>1110.0</ele>
        <time>2019-08-04T11:07:27.333Z</time>
      </trkpt>
      <trkpt lat="42.45646833" lon="1.47232667">
        <ele>1111.0</ele>
        <time>2019-08-04T11:07:28.298Z</time>
      </trkpt>
      <trkpt lat="42.45646833" lon="1.47232667">
        <ele>1111.0</ele>
        <time>2019-08-04T11:07:29.330Z</time>
      </trkpt>
      <trkpt lat="42.45642833" lon="1.47228833">
        <ele>1112.0</ele>
        <time>2019-08-04T11:07:30.325Z</time>
      </trkpt>
      <trkpt lat="42.45641" lon="1.47226833">
        <ele>1112.0</ele>
        <time>2019-08-04T11:07:31.332Z</time>
      </trkpt>
      <trkpt lat="42.45639167" lon="1.47225">
        <ele>1113.0</ele>
        <time>2019-08-04T11:07:32.316Z</time>
      </trkpt>
      <trkpt lat="42.45639167" lon="1.47225">
        <ele>1113.0</ele>
        <time>2019-08-04T11:07:33.297Z</time>
      </trkpt>
      <trkpt lat="42.45635667" lon="1.47221167">
        <ele>1114.0</ele>
        <time>2019-08-04T11:07:34.336Z</time>
      </trkpt>
      <trkpt lat="42.45635667" lon="1.47221167">
        <ele>1114.0</ele>
        <time>2019-08-04T11:07:35.314Z</time>
      </trkpt>
      <trkpt lat="42.45633" lon="1.47216167">
        <ele>1115.0</ele>
        <time>2019-08-04T11:07:36.298Z</time>
      </trkpt>
      <trkpt lat="42.45631667" lon="1.47213167">
        <ele>1115.0</ele>
        <time>2019-08-04T11:07:37.299Z</time>
      </trkpt>
      <trkpt lat="42.45631667" lon="1.47213167">
        <ele>1115.0</ele>
        <time>2019-08-04T11:07:38.297Z</time>
      </trkpt>
      <trkpt lat="42.45629167" lon="1.47206833">
        <ele>1115.0</ele>
        <time>2019-08-04T11:07:39.298Z</time>
      </trkpt>
      <trkpt lat="42.45627833" lon="1.47203833">
        <ele>1116.0</ele>
        <time>2019-08-04T11:07:40.300Z</time>
      </trkpt>
      <trkpt lat="42.45627833" lon="1.47203833">
        <ele>1116.0</ele>
        <time>2019-08-04T11:07:41.333Z</time>
      </trkpt>
      <trkpt lat="42.45624833" lon="1.47197833">
        <ele>1117.0</ele>
        <time>2019-08-04T11:07:42.329Z</time>
      </trkpt>
      <trkpt lat="42.45624833" lon="1.47197833">
        <ele>1117.0</ele>
        <time>2019-08-04T11:07:43.309Z</time>
      </trkpt>
      <trkpt lat="42.45622" lon="1.47190833">
        <ele>1117.0</ele>
        <time>2019-08-04T11:07:44.300Z</time>
      </trkpt>
      <trkpt lat="42.45622" lon="1.47190833">
        <ele>1117.0</ele>
        <time>2019-08-04T11:07:45.334Z</time>
      </trkpt>
      <trkpt lat="42.45619333" lon="1.471835">
        <ele>1118.0</ele>
        <time>2019-08-04T11:07:46.336Z</time>
      </trkpt>
      <trkpt lat="42.45619333" lon="1.471835">
        <ele>1118.0</ele>
        <time>2019-08-04T11:07:47.296Z</time>
      </trkpt>
      <trkpt lat="42.456155" lon="1.47176167">
        <ele>1118.0</ele>
        <time>2019-08-04T11:07:48.300Z</time>
      </trkpt>
      <trkpt lat="42.456155" lon="1.47176167">
        <ele>1118.0</ele>
        <time>2019-08-04T11:07:49.296Z</time>
      </trkpt>
      <trkpt lat="42.45611" lon="1.47169">
        <ele>1119.0</ele>
        <time>2019-08-04T11:07:50.302Z</time>
      </trkpt>
      <trkpt lat="42.45611" lon="1.47169">
        <ele>1119.0</ele>
        <time>2019-08-04T11:07:51.296Z</time>
      </trkpt>
      <trkpt lat="42.45606333" lon="1.47162167">
        <ele>1119.0</ele>
        <time>2019-08-04T11:07:52.323Z</time>
      </trkpt>
      <trkpt lat="42.45606333" lon="1.47162167">
        <ele>1119.0</ele>
        <time>2019-08-04T11:07:53.304Z</time>
      </trkpt>
      <trkpt lat="42.45601167" lon="1.47155167">
        <ele>1119.0</ele>
        <time>2019-08-04T11:07:54.296Z</time>
      </trkpt>
      <trkpt lat="42.45601167" lon="1.47155167">
        <ele>1119.0</ele>
        <time>2019-08-04T11:07:55.319Z</time>
      </trkpt>
      <trkpt lat="42.45595833" lon="1.47148">
        <ele>1120.0</ele>
        <time>2019-08-04T11:07:56.301Z</time>
      </trkpt>
      <trkpt lat="42.45595833" lon="1.47148">
        <ele>1120.0</ele>
        <time>2019-08-04T11:07:57.298Z</time>
      </trkpt>
      <trkpt lat="42.45590333" lon="1.47140333">
        <ele>1120.0</ele>
        <time>2019-08-04T11:07:58.301Z</time>
      </trkpt>
      <trkpt lat="42.45590333" lon="1.47140333">
        <ele>1120.0</ele>
        <time>2019-08-04T11:07:59.296Z</time>
      </trkpt>
      <trkpt lat="42.45585167" lon="1.471335">
        <ele>1121.0</ele>
        <time>2019-08-04T11:08:00.298Z</time>
      </trkpt>
      <trkpt lat="42.455825" lon="1.47130167">
        <ele>1121.0</ele>
        <time>2019-08-04T11:08:01.335Z</time>
      </trkpt>
      <trkpt lat="42.45580167" lon="1.471265">
        <ele>1121.0</ele>
        <time>2019-08-04T11:08:02.316Z</time>
      </trkpt>
      <trkpt lat="42.45580167" lon="1.471265">
        <ele>1121.0</ele>
        <time>2019-08-04T11:08:03.301Z</time>
      </trkpt>
      <trkpt lat="42.45575833" lon="1.47118833">
        <ele>1122.0</ele>
        <time>2019-08-04T11:08:04.298Z</time>
      </trkpt>
      <trkpt lat="42.45575833" lon="1.47118833">
        <ele>1122.0</ele>
        <time>2019-08-04T11:08:05.333Z</time>
      </trkpt>
      <trkpt lat="42.45571167" lon="1.47111833">
        <ele>1122.0</ele>
        <time>2019-08-04T11:08:06.314Z</time>
      </trkpt>
      <trkpt lat="42.45571167" lon="1.47111833">
        <ele>1122.0</ele>
        <time>2019-08-04T11:08:07.296Z</time>
      </trkpt>
      <trkpt lat="42.45564" lon="1.47108333">
        <ele>1123.0</ele>
        <time>2019-08-04T11:08:08.296Z</time>
      </trkpt>
      <trkpt lat="42.45564" lon="1.47108333">
        <ele>1123.0</ele>
        <time>2019-08-04T11:08:09.296Z</time>
      </trkpt>
      <trkpt lat="42.455575" lon="1.47110167">
        <ele>1124.0</ele>
        <time>2019-08-04T11:08:10.298Z</time>
      </trkpt>
      <trkpt lat="42.455575" lon="1.47110167">
        <ele>1124.0</ele>
        <time>2019-08-04T11:08:11.296Z</time>
      </trkpt>
      <trkpt lat="42.45552667" lon="1.47118833">
        <ele>1124.0</ele>
        <time>2019-08-04T11:08:12.322Z</time>
      </trkpt>
      <trkpt lat="42.45552667" lon="1.47118833">
        <ele>1124.0</ele>
        <time>2019-08-04T11:08:13.302Z</time>
      </trkpt>
      <trkpt lat="42.45549833" lon="1.47126333">
        <ele>1125.0</ele>
        <time>2019-08-04T11:08:14.301Z</time>
      </trkpt>
      <trkpt lat="42.45548333" lon="1.47130167">
        <ele>1125.0</ele>
        <time>2019-08-04T11:08:15.300Z</time>
      </trkpt>
      <trkpt lat="42.45548333" lon="1.47130167">
        <ele>1125.0</ele>
        <time>2019-08-04T11:08:16.296Z</time>
      </trkpt>
      <trkpt lat="42.45548333" lon="1.47139">
        <ele>1126.0</ele>
        <time>2019-08-04T11:08:17.300Z</time>
      </trkpt>
      <trkpt lat="42.45548333" lon="1.47139">
        <ele>1126.0</ele>
        <time>2019-08-04T11:08:18.296Z</time>
      </trkpt>
      <trkpt lat="42.45547667" lon="1.47147167">
        <ele>1126.0</ele>
        <time>2019-08-04T11:08:19.301Z</time>
      </trkpt>
      <trkpt lat="42.45546833" lon="1.47151667">
        <ele>1127.0</ele>
        <time>2019-08-04T11:08:20.302Z</time>
      </trkpt>
      <trkpt lat="42.45546833" lon="1.47151667">
        <ele>1127.0</ele>
        <time>2019-08-04T11:08:21.296Z</time>
      </trkpt>
      <trkpt lat="42.45544833" lon="1.471605">
        <ele>1127.0</ele>
        <time>2019-08-04T11:08:22.323Z</time>
      </trkpt>
      <trkpt lat="42.45544833" lon="1.471605">
        <ele>1127.0</ele>
        <time>2019-08-04T11:08:23.299Z</time>
      </trkpt>
      <trkpt lat="42.45543167" lon="1.47169333">
        <ele>1128.0</ele>
        <time>2019-08-04T11:08:24.300Z</time>
      </trkpt>
      <trkpt lat="42.45542667" lon="1.471735">
        <ele>1128.0</ele>
        <time>2019-08-04T11:08:25.296Z</time>
      </trkpt>
      <trkpt lat="42.45542667" lon="1.471735">
        <ele>1128.0</ele>
        <time>2019-08-04T11:08:26.297Z</time>
      </trkpt>
      <trkpt lat="42.45543167" lon="1.47182333">
        <ele>1128.0</ele>
        <time>2019-08-04T11:08:27.303Z</time>
      </trkpt>
      <trkpt lat="42.455435" lon="1.471865">
        <ele>1128.0</ele>
        <time>2019-08-04T11:08:28.298Z</time>
      </trkpt>
      <trkpt lat="42.455435" lon="1.471865">
        <ele>1128.0</ele>
        <time>2019-08-04T11:08:29.335Z</time>
      </trkpt>
      <trkpt lat="42.45543833" lon="1.47194167">
        <ele>1129.0</ele>
        <time>2019-08-04T11:08:30.327Z</time>
      </trkpt>
      <trkpt lat="42.45543833" lon="1.47194167">
        <ele>1129.0</ele>
        <time>2019-08-04T11:08:31.333Z</time>
      </trkpt>
      <trkpt lat="42.45544" lon="1.47201333">
        <ele>1129.0</ele>
        <time>2019-08-04T11:08:32.322Z</time>
      </trkpt>
      <trkpt lat="42.455435" lon="1.47204667">
        <ele>1130.0</ele>
        <time>2019-08-04T11:08:33.322Z</time>
      </trkpt>
      <trkpt lat="42.45542833" lon="1.47208167">
        <ele>1130.0</ele>
        <time>2019-08-04T11:08:34.308Z</time>
      </trkpt>
      <trkpt lat="42.45542833" lon="1.47208167">
        <ele>1130.0</ele>
        <time>2019-08-04T11:08:35.336Z</time>
      </trkpt>
      <trkpt lat="42.45541167" lon="1.47215">
        <ele>1130.0</ele>
        <time>2019-08-04T11:08:36.300Z</time>
      </trkpt>
      <trkpt lat="42.45541167" lon="1.47215">
        <ele>1130.0</ele>
        <time>2019-08-04T11:08:37.296Z</time>
      </trkpt>
      <trkpt lat="42.4554" lon="1.472215">
        <ele>1131.0</ele>
        <time>2019-08-04T11:08:38.302Z</time>
      </trkpt>
      <trkpt lat="42.4554" lon="1.472215">
        <ele>1131.0</ele>
        <time>2019-08-04T11:08:39.296Z</time>
      </trkpt>
      <trkpt lat="42.45537667" lon="1.47227667">
        <ele>1131.0</ele>
        <time>2019-08-04T11:08:40.308Z</time>
      </trkpt>
      <trkpt lat="42.45537667" lon="1.47227667">
        <ele>1131.0</ele>
        <time>2019-08-04T11:08:41.314Z</time>
      </trkpt>
      <trkpt lat="42.45535333" lon="1.47234333">
        <ele>1132.0</ele>
        <time>2019-08-04T11:08:42.323Z</time>
      </trkpt>
      <trkpt lat="42.45535333" lon="1.47234333">
        <ele>1132.0</ele>
        <time>2019-08-04T11:08:43.330Z</time>
      </trkpt>
      <trkpt lat="42.455325" lon="1.47241">
        <ele>1132.0</ele>
        <time>2019-08-04T11:08:44.336Z</time>
      </trkpt>
      <trkpt lat="42.45531167" lon="1.47244333">
        <ele>1133.0</ele>
        <time>2019-08-04T11:08:45.302Z</time>
      </trkpt>
      <trkpt lat="42.4553" lon="1.47247667">
        <ele>1133.0</ele>
        <time>2019-08-04T11:08:46.296Z</time>
      </trkpt>
      <trkpt lat="42.4553" lon="1.47247667">
        <ele>1133.0</ele>
        <time>2019-08-04T11:08:47.333Z</time>
      </trkpt>
      <trkpt lat="42.455285" lon="1.47255">
        <ele>1133.0</ele>
        <time>2019-08-04T11:08:48.314Z</time>
      </trkpt>
      <trkpt lat="42.455285" lon="1.47255">
        <ele>1133.0</ele>
        <time>2019-08-04T11:08:49.296Z</time>
      </trkpt>
      <trkpt lat="42.455275" lon="1.47262333">
        <ele>1133.0</ele>
        <time>2019-08-04T11:08:50.303Z</time>
      </trkpt>
      <trkpt lat="42.455275" lon="1.47262333">
        <ele>1133.0</ele>
        <time>2019-08-04T11:08:51.296Z</time>
      </trkpt>
      <trkpt lat="42.455275" lon="1.47270167">
        <ele>1133.0</ele>
        <time>2019-08-04T11:08:52.327Z</time>
      </trkpt>
      <trkpt lat="42.455275" lon="1.47270167">
        <ele>1133.0</ele>
        <time>2019-08-04T11:08:53.314Z</time>
      </trkpt>
      <trkpt lat="42.45528" lon="1.47277833">
        <ele>1133.0</ele>
        <time>2019-08-04T11:08:54.300Z</time>
      </trkpt>
      <trkpt lat="42.45528" lon="1.47277833">
        <ele>1133.0</ele>
        <time>2019-08-04T11:08:55.298Z</time>
      </trkpt>
      <trkpt lat="42.45529" lon="1.47285167">
        <ele>1134.0</ele>
        <time>2019-08-04T11:08:56.301Z</time>
      </trkpt>
      <trkpt lat="42.45529" lon="1.47285167">
        <ele>1134.0</ele>
        <time>2019-08-04T11:08:57.309Z</time>
      </trkpt>
      <trkpt lat="42.45529167" lon="1.47291833">
        <ele>1134.0</ele>
        <time>2019-08-04T11:08:58.301Z</time>
      </trkpt>
      <trkpt lat="42.45529167" lon="1.47291833">
        <ele>1134.0</ele>
        <time>2019-08-04T11:08:59.331Z</time>
      </trkpt>
      <trkpt lat="42.45529833" lon="1.47299167">
        <ele>1135.0</ele>
        <time>2019-08-04T11:09:00.314Z</time>
      </trkpt>
      <trkpt lat="42.45529833" lon="1.47299167">
        <ele>1135.0</ele>
        <time>2019-08-04T11:09:01.296Z</time>
      </trkpt>
      <trkpt lat="42.45530833" lon="1.473065">
        <ele>1135.0</ele>
        <time>2019-08-04T11:09:02.332Z</time>
      </trkpt>
      <trkpt lat="42.45530833" lon="1.473065">
        <ele>1135.0</ele>
        <time>2019-08-04T11:09:03.330Z</time>
      </trkpt>
      <trkpt lat="42.45532667" lon="1.473135">
        <ele>1136.0</ele>
        <time>2019-08-04T11:09:04.314Z</time>
      </trkpt>
      <trkpt lat="42.45532667" lon="1.473135">
        <ele>1136.0</ele>
        <time>2019-08-04T11:09:05.296Z</time>
      </trkpt>
      <trkpt lat="42.45534667" lon="1.47320333">
        <ele>1136.0</ele>
        <time>2019-08-04T11:09:06.298Z</time>
      </trkpt>
      <trkpt lat="42.45534667" lon="1.47320333">
        <ele>1136.0</ele>
        <time>2019-08-04T11:09:07.334Z</time>
      </trkpt>
      <trkpt lat="42.45537167" lon="1.47327167">
        <ele>1137.0</ele>
        <time>2019-08-04T11:09:08.297Z</time>
      </trkpt>
      <trkpt lat="42.45537167" lon="1.47327167">
        <ele>1137.0</ele>
        <time>2019-08-04T11:09:09.296Z</time>
      </trkpt>
      <trkpt lat="42.4554" lon="1.47333833">
        <ele>1137.0</ele>
        <time>2019-08-04T11:09:10.297Z</time>
      </trkpt>
      <trkpt lat="42.4554" lon="1.47333833">
        <ele>1137.0</ele>
        <time>2019-08-04T11:09:11.297Z</time>
      </trkpt>
      <trkpt lat="42.45543" lon="1.47340333">
        <ele>1138.0</ele>
        <time>2019-08-04T11:09:12.328Z</time>
      </trkpt>
      <trkpt lat="42.45544667" lon="1.47343333">
        <ele>1138.0</ele>
        <time>2019-08-04T11:09:13.300Z</time>
      </trkpt>
      <trkpt lat="42.45544667" lon="1.47343333">
        <ele>1138.0</ele>
        <time>2019-08-04T11:09:14.297Z</time>
      </trkpt>
      <trkpt lat="42.45547833" lon="1.47349167">
        <ele>1139.0</ele>
        <time>2019-08-04T11:09:15.326Z</time>
      </trkpt>
      <trkpt lat="42.45549167" lon="1.47352333">
        <ele>1139.0</ele>
        <time>2019-08-04T11:09:16.308Z</time>
      </trkpt>
      <trkpt lat="42.45549167" lon="1.47352333">
        <ele>1139.0</ele>
        <time>2019-08-04T11:09:17.296Z</time>
      </trkpt>
      <trkpt lat="42.45551333" lon="1.473575">
        <ele>1139.0</ele>
        <time>2019-08-04T11:09:18.299Z</time>
      </trkpt>
      <trkpt lat="42.45551333" lon="1.473575">
        <ele>1139.0</ele>
        <time>2019-08-04T11:09:19.296Z</time>
      </trkpt>
      <trkpt lat="42.45552833" lon="1.473635">
        <ele>1140.0</ele>
        <time>2019-08-04T11:09:20.304Z</time>
      </trkpt>
      <trkpt lat="42.45552833" lon="1.473635">
        <ele>1140.0</ele>
        <time>2019-08-04T11:09:21.297Z</time>
      </trkpt>
      <trkpt lat="42.45552833" lon="1.473695">
        <ele>1142.0</ele>
        <time>2019-08-04T11:09:22.325Z</time>
      </trkpt>
      <trkpt lat="42.45552833" lon="1.473695">
        <ele>1142.0</ele>
        <time>2019-08-04T11:09:23.308Z</time>
      </trkpt>
      <trkpt lat="42.45550167" lon="1.47374">
        <ele>1142.0</ele>
        <time>2019-08-04T11:09:24.298Z</time>
      </trkpt>
      <trkpt lat="42.45550167" lon="1.47374">
        <ele>1142.0</ele>
        <time>2019-08-04T11:09:25.296Z</time>
      </trkpt>
      <trkpt lat="42.45546" lon="1.47374333">
        <ele>1143.0</ele>
        <time>2019-08-04T11:09:26.300Z</time>
      </trkpt>
      <trkpt lat="42.45546" lon="1.47374333">
        <ele>1143.0</ele>
        <time>2019-08-04T11:09:27.306Z</time>
      </trkpt>
      <trkpt lat="42.45541333" lon="1.47371833">
        <ele>1143.0</ele>
        <time>2019-08-04T11:09:28.300Z</time>
      </trkpt>
      <trkpt lat="42.45541333" lon="1.47371833">
        <ele>1143.0</ele>
        <time>2019-08-04T11:09:29.297Z</time>
      </trkpt>
      <trkpt lat="42.45537833" lon="1.473675">
        <ele>1144.0</ele>
        <time>2019-08-04T11:09:30.320Z</time>
      </trkpt>
      <trkpt lat="42.45536667" lon="1.47364833">
        <ele>1144.0</ele>
        <time>2019-08-04T11:09:31.330Z</time>
      </trkpt>
      <trkpt lat="42.45535167" lon="1.47362167">
        <ele>1144.0</ele>
        <time>2019-08-04T11:09:32.322Z</time>
      </trkpt>
      <trkpt lat="42.45535167" lon="1.47362167">
        <ele>1144.0</ele>
        <time>2019-08-04T11:09:33.321Z</time>
      </trkpt>
      <trkpt lat="42.45532" lon="1.47356667">
        <ele>1145.0</ele>
        <time>2019-08-04T11:09:34.302Z</time>
      </trkpt>
      <trkpt lat="42.45532" lon="1.47356667">
        <ele>1145.0</ele>
        <time>2019-08-04T11:09:35.296Z</time>
      </trkpt>
      <trkpt lat="42.45528833" lon="1.47350833">
        <ele>1145.0</ele>
        <time>2019-08-04T11:09:36.299Z</time>
      </trkpt>
      <trkpt lat="42.45527167" lon="1.47348">
        <ele>1146.0</ele>
        <time>2019-08-04T11:09:37.317Z</time>
      </trkpt>
      <trkpt lat="42.45525667" lon="1.47345167">
        <ele>1146.0</ele>
        <time>2019-08-04T11:09:38.300Z</time>
      </trkpt>
      <trkpt lat="42.45525667" lon="1.47345167">
        <ele>1146.0</ele>
        <time>2019-08-04T11:09:39.296Z</time>
      </trkpt>
      <trkpt lat="42.45522833" lon="1.47338833">
        <ele>1146.0</ele>
        <time>2019-08-04T11:09:40.301Z</time>
      </trkpt>
      <trkpt lat="42.45522833" lon="1.47338833">
        <ele>1146.0</ele>
        <time>2019-08-04T11:09:41.334Z</time>
      </trkpt>
      <trkpt lat="42.45519833" lon="1.473325">
        <ele>1147.0</ele>
        <time>2019-08-04T11:09:42.314Z</time>
      </trkpt>
      <trkpt lat="42.45519833" lon="1.473325">
        <ele>1147.0</ele>
        <time>2019-08-04T11:09:43.296Z</time>
      </trkpt>
      <trkpt lat="42.45517167" lon="1.47326">
        <ele>1147.0</ele>
        <time>2019-08-04T11:09:44.300Z</time>
      </trkpt>
      <trkpt lat="42.45517167" lon="1.47326">
        <ele>1147.0</ele>
        <time>2019-08-04T11:09:45.296Z</time>
      </trkpt>
      <trkpt lat="42.455145" lon="1.47319667">
        <ele>1148.0</ele>
        <time>2019-08-04T11:09:46.296Z</time>
      </trkpt>
      <trkpt lat="42.455145" lon="1.47319667">
        <ele>1148.0</ele>
        <time>2019-08-04T11:09:47.296Z</time>
      </trkpt>
      <trkpt lat="42.45511667" lon="1.47313833">
        <ele>1148.0</ele>
        <time>2019-08-04T11:09:48.300Z</time>
      </trkpt>
      <trkpt lat="42.45511667" lon="1.47313833">
        <ele>1148.0</ele>
        <time>2019-08-04T11:09:49.297Z</time>
      </trkpt>
      <trkpt lat="42.45508833" lon="1.47307833">
        <ele>1148.0</ele>
        <time>2019-08-04T11:09:50.297Z</time>
      </trkpt>
      <trkpt lat="42.455075" lon="1.47305">
        <ele>1148.0</ele>
        <time>2019-08-04T11:09:51.334Z</time>
      </trkpt>
      <trkpt lat="42.455075" lon="1.47305">
        <ele>1148.0</ele>
        <time>2019-08-04T11:09:52.314Z</time>
      </trkpt>
      <trkpt lat="42.455045" lon="1.47299167">
        <ele>1149.0</ele>
        <time>2019-08-04T11:09:53.301Z</time>
      </trkpt>
      <trkpt lat="42.455045" lon="1.47299167">
        <ele>1149.0</ele>
        <time>2019-08-04T11:09:54.296Z</time>
      </trkpt>
      <trkpt lat="42.45502333" lon="1.47292833">
        <ele>1149.0</ele>
        <time>2019-08-04T11:09:55.319Z</time>
      </trkpt>
      <trkpt lat="42.455015" lon="1.472895">
        <ele>1149.0</ele>
        <time>2019-08-04T11:09:56.309Z</time>
      </trkpt>
      <trkpt lat="42.455015" lon="1.472895">
        <ele>1149.0</ele>
        <time>2019-08-04T11:09:57.333Z</time>
      </trkpt>
      <trkpt lat="42.45499667" lon="1.47283167">
        <ele>1149.0</ele>
        <time>2019-08-04T11:09:58.314Z</time>
      </trkpt>
      <trkpt lat="42.45499667" lon="1.47283167">
        <ele>1149.0</ele>
        <time>2019-08-04T11:09:59.296Z</time>
      </trkpt>
      <trkpt lat="42.45498" lon="1.472765">
        <ele>1150.0</ele>
        <time>2019-08-04T11:10:00.314Z</time>
      </trkpt>
      <trkpt lat="42.45498" lon="1.472765">
        <ele>1150.0</ele>
        <time>2019-08-04T11:10:01.296Z</time>
      </trkpt>
      <trkpt lat="42.45496667" lon="1.4727">
        <ele>1150.0</ele>
        <time>2019-08-04T11:10:02.322Z</time>
      </trkpt>
      <trkpt lat="42.45496667" lon="1.4727">
        <ele>1150.0</ele>
        <time>2019-08-04T11:10:03.319Z</time>
      </trkpt>
      <trkpt lat="42.45495167" lon="1.472635">
        <ele>1150.0</ele>
        <time>2019-08-04T11:10:04.300Z</time>
      </trkpt>
      <trkpt lat="42.45495167" lon="1.472635">
        <ele>1150.0</ele>
        <time>2019-08-04T11:10:05.296Z</time>
      </trkpt>
      <trkpt lat="42.45494667" lon="1.47257167">
        <ele>1151.0</ele>
        <time>2019-08-04T11:10:06.300Z</time>
      </trkpt>
      <trkpt lat="42.45494667" lon="1.47257167">
        <ele>1151.0</ele>
        <time>2019-08-04T11:10:07.331Z</time>
      </trkpt>
      <trkpt lat="42.45494167" lon="1.47251167">
        <ele>1151.0</ele>
        <time>2019-08-04T11:10:08.314Z</time>
      </trkpt>
      <trkpt lat="42.45494167" lon="1.47251167">
        <ele>1151.0</ele>
        <time>2019-08-04T11:10:09.296Z</time>
      </trkpt>
      <trkpt lat="42.45494667" lon="1.47244833">
        <ele>1152.0</ele>
        <time>2019-08-04T11:10:10.296Z</time>
      </trkpt>
      <trkpt lat="42.45494667" lon="1.47244833">
        <ele>1152.0</ele>
        <time>2019-08-04T11:10:11.335Z</time>
      </trkpt>
      <trkpt lat="42.45496167" lon="1.47238833">
        <ele>1153.0</ele>
        <time>2019-08-04T11:10:12.316Z</time>
      </trkpt>
      <trkpt lat="42.45496167" lon="1.47238833">
        <ele>1153.0</ele>
        <time>2019-08-04T11:10:13.296Z</time>
      </trkpt>
      <trkpt lat="42.45497833" lon="1.47233">
        <ele>1154.0</ele>
        <time>2019-08-04T11:10:14.298Z</time>
      </trkpt>
      <trkpt lat="42.45497833" lon="1.47233">
        <ele>1154.0</ele>
        <time>2019-08-04T11:10:15.296Z</time>
      </trkpt>
      <trkpt lat="42.45498667" lon="1.47227333">
        <ele>1154.0</ele>
        <time>2019-08-04T11:10:16.301Z</time>
      </trkpt>
      <trkpt lat="42.45498667" lon="1.47227333">
        <ele>1154.0</ele>
        <time>2019-08-04T11:10:17.333Z</time>
      </trkpt>
      <trkpt lat="42.45500167" lon="1.47221833">
        <ele>1155.0</ele>
        <time>2019-08-04T11:10:18.314Z</time>
      </trkpt>
      <trkpt lat="42.45500167" lon="1.47221833">
        <ele>1155.0</ele>
        <time>2019-08-04T11:10:19.296Z</time>
      </trkpt>
      <trkpt lat="42.45501667" lon="1.47216333">
        <ele>1156.0</ele>
        <time>2019-08-04T11:10:20.323Z</time>
      </trkpt>
      <trkpt lat="42.45502667" lon="1.47213667">
        <ele>1156.0</ele>
        <time>2019-08-04T11:10:21.315Z</time>
      </trkpt>
      <trkpt lat="42.45503667" lon="1.47210667">
        <ele>1157.0</ele>
        <time>2019-08-04T11:10:22.316Z</time>
      </trkpt>
      <trkpt lat="42.45503667" lon="1.47210667">
        <ele>1157.0</ele>
        <time>2019-08-04T11:10:23.297Z</time>
      </trkpt>
      <trkpt lat="42.45505167" lon="1.47204833">
        <ele>1157.0</ele>
        <time>2019-08-04T11:10:24.300Z</time>
      </trkpt>
      <trkpt lat="42.45505167" lon="1.47204833">
        <ele>1157.0</ele>
        <time>2019-08-04T11:10:25.296Z</time>
      </trkpt>
      <trkpt lat="42.45505833" lon="1.47199">
        <ele>1158.0</ele>
        <time>2019-08-04T11:10:26.304Z</time>
      </trkpt>
      <trkpt lat="42.45505833" lon="1.47199">
        <ele>1158.0</ele>
        <time>2019-08-04T11:10:27.296Z</time>
      </trkpt>
      <trkpt lat="42.45505" lon="1.47192667">
        <ele>1159.0</ele>
        <time>2019-08-04T11:10:28.300Z</time>
      </trkpt>
      <trkpt lat="42.45505" lon="1.47192667">
        <ele>1159.0</ele>
        <time>2019-08-04T11:10:29.300Z</time>
      </trkpt>
      <trkpt lat="42.45502833" lon="1.471885">
        <ele>1160.0</ele>
        <time>2019-08-04T11:10:30.334Z</time>
      </trkpt>
      <trkpt lat="42.45502833" lon="1.471885">
        <ele>1160.0</ele>
        <time>2019-08-04T11:10:31.299Z</time>
      </trkpt>
      <trkpt lat="42.454995" lon="1.47188167">
        <ele>1161.0</ele>
        <time>2019-08-04T11:10:32.317Z</time>
      </trkpt>
      <trkpt lat="42.454995" lon="1.47188167">
        <ele>1161.0</ele>
        <time>2019-08-04T11:10:33.297Z</time>
      </trkpt>
      <trkpt lat="42.45497" lon="1.47191">
        <ele>1161.0</ele>
        <time>2019-08-04T11:10:34.299Z</time>
      </trkpt>
      <trkpt lat="42.45497" lon="1.47191">
        <ele>1161.0</ele>
        <time>2019-08-04T11:10:35.335Z</time>
      </trkpt>
      <trkpt lat="42.45494833" lon="1.47195833">
        <ele>1162.0</ele>
        <time>2019-08-04T11:10:36.297Z</time>
      </trkpt>
      <trkpt lat="42.45494833" lon="1.47195833">
        <ele>1162.0</ele>
        <time>2019-08-04T11:10:37.297Z</time>
      </trkpt>
      <trkpt lat="42.45493167" lon="1.47202">
        <ele>1163.0</ele>
        <time>2019-08-04T11:10:38.309Z</time>
      </trkpt>
      <trkpt lat="42.45493167" lon="1.47202">
        <ele>1163.0</ele>
        <time>2019-08-04T11:10:39.297Z</time>
      </trkpt>
      <trkpt lat="42.454915" lon="1.472085">
        <ele>1163.0</ele>
        <time>2019-08-04T11:10:40.317Z</time>
      </trkpt>
      <trkpt lat="42.45490667" lon="1.47211667">
        <ele>1163.0</ele>
        <time>2019-08-04T11:10:41.301Z</time>
      </trkpt>
      <trkpt lat="42.45490667" lon="1.47211667">
        <ele>1163.0</ele>
        <time>2019-08-04T11:10:42.322Z</time>
      </trkpt>
      <trkpt lat="42.45489167" lon="1.47218333">
        <ele>1164.0</ele>
        <time>2019-08-04T11:10:43.306Z</time>
      </trkpt>
      <trkpt lat="42.45489167" lon="1.47218333">
        <ele>1164.0</ele>
        <time>2019-08-04T11:10:44.297Z</time>
      </trkpt>
      <trkpt lat="42.45487" lon="1.47224833">
        <ele>1164.0</ele>
        <time>2019-08-04T11:10:45.300Z</time>
      </trkpt>
      <trkpt lat="42.45487" lon="1.47224833">
        <ele>1164.0</ele>
        <time>2019-08-04T11:10:46.298Z</time>
      </trkpt>
      <trkpt lat="42.45485333" lon="1.47231167">
        <ele>1164.0</ele>
        <time>2019-08-04T11:10:47.300Z</time>
      </trkpt>
      <trkpt lat="42.45485333" lon="1.47231167">
        <ele>1164.0</ele>
        <time>2019-08-04T11:10:48.297Z</time>
      </trkpt>
      <trkpt lat="42.454825" lon="1.472375">
        <ele>1165.0</ele>
        <time>2019-08-04T11:10:49.300Z</time>
      </trkpt>
      <trkpt lat="42.45481" lon="1.472405">
        <ele>1165.0</ele>
        <time>2019-08-04T11:10:50.303Z</time>
      </trkpt>
      <trkpt lat="42.45481" lon="1.472405">
        <ele>1165.0</ele>
        <time>2019-08-04T11:10:51.297Z</time>
      </trkpt>
      <trkpt lat="42.45479" lon="1.47247">
        <ele>1165.0</ele>
        <time>2019-08-04T11:10:52.323Z</time>
      </trkpt>
      <trkpt lat="42.45479" lon="1.47247">
        <ele>1165.0</ele>
        <time>2019-08-04T11:10:53.303Z</time>
      </trkpt>
      <trkpt lat="42.45477667" lon="1.47253833">
        <ele>1165.0</ele>
        <time>2019-08-04T11:10:54.297Z</time>
      </trkpt>
      <trkpt lat="42.45477167" lon="1.47257">
        <ele>1165.0</ele>
        <time>2019-08-04T11:10:55.301Z</time>
      </trkpt>
      <trkpt lat="42.45476667" lon="1.47260167">
        <ele>1165.0</ele>
        <time>2019-08-04T11:10:56.300Z</time>
      </trkpt>
      <trkpt lat="42.45476667" lon="1.47260167">
        <ele>1165.0</ele>
        <time>2019-08-04T11:10:57.298Z</time>
      </trkpt>
      <trkpt lat="42.454755" lon="1.47266667">
        <ele>1165.0</ele>
        <time>2019-08-04T11:10:58.300Z</time>
      </trkpt>
      <trkpt lat="42.454755" lon="1.47266667">
        <ele>1165.0</ele>
        <time>2019-08-04T11:10:59.296Z</time>
      </trkpt>
      <trkpt lat="42.45474833" lon="1.47273">
        <ele>1165.0</ele>
        <time>2019-08-04T11:11:00.301Z</time>
      </trkpt>
      <trkpt lat="42.45474833" lon="1.47273">
        <ele>1165.0</ele>
        <time>2019-08-04T11:11:01.297Z</time>
      </trkpt>
      <trkpt lat="42.45474167" lon="1.472795">
        <ele>1165.0</ele>
        <time>2019-08-04T11:11:02.323Z</time>
      </trkpt>
      <trkpt lat="42.45474167" lon="1.472795">
        <ele>1165.0</ele>
        <time>2019-08-04T11:11:03.322Z</time>
      </trkpt>
      <trkpt lat="42.45473833" lon="1.47285833">
        <ele>1166.0</ele>
        <time>2019-08-04T11:11:04.307Z</time>
      </trkpt>
      <trkpt lat="42.45473833" lon="1.47285833">
        <ele>1166.0</ele>
        <time>2019-08-04T11:11:05.334Z</time>
      </trkpt>
      <trkpt lat="42.45473" lon="1.47292167">
        <ele>1166.0</ele>
        <time>2019-08-04T11:11:06.315Z</time>
      </trkpt>
      <trkpt lat="42.45473" lon="1.47292167">
        <ele>1166.0</ele>
        <time>2019-08-04T11:11:07.296Z</time>
      </trkpt>
      <trkpt lat="42.45471833" lon="1.47298667">
        <ele>1166.0</ele>
        <time>2019-08-04T11:11:08.300Z</time>
      </trkpt>
      <trkpt lat="42.45471833" lon="1.47298667">
        <ele>1166.0</ele>
        <time>2019-08-04T11:11:09.333Z</time>
      </trkpt>
      <trkpt lat="42.45471167" lon="1.47305167">
        <ele>1167.0</ele>
        <time>2019-08-04T11:11:10.314Z</time>
      </trkpt>
      <trkpt lat="42.45471167" lon="1.47305167">
        <ele>1167.0</ele>
        <time>2019-08-04T11:11:11.296Z</time>
      </trkpt>
      <trkpt lat="42.45470667" lon="1.47311167">
        <ele>1167.0</ele>
        <time>2019-08-04T11:11:12.323Z</time>
      </trkpt>
      <trkpt lat="42.454705" lon="1.47314333">
        <ele>1168.0</ele>
        <time>2019-08-04T11:11:13.304Z</time>
      </trkpt>
      <trkpt lat="42.4547" lon="1.47317333">
        <ele>1168.0</ele>
        <time>2019-08-04T11:11:14.302Z</time>
      </trkpt>
      <trkpt lat="42.45469833" lon="1.473205">
        <ele>1168.0</ele>
        <time>2019-08-04T11:11:15.297Z</time>
      </trkpt>
      <trkpt lat="42.45469833" lon="1.473205">
        <ele>1168.0</ele>
        <time>2019-08-04T11:11:16.333Z</time>
      </trkpt>
      <trkpt lat="42.45469333" lon="1.47326667">
        <ele>1169.0</ele>
        <time>2019-08-04T11:11:17.315Z</time>
      </trkpt>
      <trkpt lat="42.45469333" lon="1.47326667">
        <ele>1169.0</ele>
        <time>2019-08-04T11:11:18.297Z</time>
      </trkpt>
      <trkpt lat="42.454685" lon="1.47332833">
        <ele>1169.0</ele>
        <time>2019-08-04T11:11:19.300Z</time>
      </trkpt>
      <trkpt lat="42.45468167" lon="1.47336">
        <ele>1170.0</ele>
        <time>2019-08-04T11:11:20.300Z</time>
      </trkpt>
      <trkpt lat="42.45468167" lon="1.47336">
        <ele>1170.0</ele>
        <time>2019-08-04T11:11:21.297Z</time>
      </trkpt>
      <trkpt lat="42.45468" lon="1.47342167">
        <ele>1170.0</ele>
        <time>2019-08-04T11:11:22.332Z</time>
      </trkpt>
      <trkpt lat="42.45468167" lon="1.47345167">
        <ele>1171.0</ele>
        <time>2019-08-04T11:11:23.315Z</time>
      </trkpt>
      <trkpt lat="42.45468167" lon="1.47345167">
        <ele>1171.0</ele>
        <time>2019-08-04T11:11:24.297Z</time>
      </trkpt>
      <trkpt lat="42.45468333" lon="1.47351667">
        <ele>1171.0</ele>
        <time>2019-08-04T11:11:25.300Z</time>
      </trkpt>
      <trkpt lat="42.45468333" lon="1.47351667">
        <ele>1171.0</ele>
        <time>2019-08-04T11:11:26.297Z</time>
      </trkpt>
      <trkpt lat="42.45469167" lon="1.47358">
        <ele>1172.0</ele>
        <time>2019-08-04T11:11:27.309Z</time>
      </trkpt>
      <trkpt lat="42.454695" lon="1.47361">
        <ele>1172.0</ele>
        <time>2019-08-04T11:11:28.302Z</time>
      </trkpt>
      <trkpt lat="42.454695" lon="1.47361">
        <ele>1172.0</ele>
        <time>2019-08-04T11:11:29.333Z</time>
      </trkpt>
      <trkpt lat="42.454705" lon="1.473665">
        <ele>1172.0</ele>
        <time>2019-08-04T11:11:30.301Z</time>
      </trkpt>
      <trkpt lat="42.45471167" lon="1.473695">
        <ele>1173.0</ele>
        <time>2019-08-04T11:11:31.307Z</time>
      </trkpt>
      <trkpt lat="42.45471167" lon="1.473695">
        <ele>1173.0</ele>
        <time>2019-08-04T11:11:32.318Z</time>
      </trkpt>
      <trkpt lat="42.45472667" lon="1.47376333">
        <ele>1173.0</ele>
        <time>2019-08-04T11:11:33.301Z</time>
      </trkpt>
      <trkpt lat="42.45473667" lon="1.47379333">
        <ele>1173.0</ele>
        <time>2019-08-04T11:11:34.326Z</time>
      </trkpt>
      <trkpt lat="42.45473667" lon="1.47379333">
        <ele>1173.0</ele>
        <time>2019-08-04T11:11:35.306Z</time>
      </trkpt>
      <trkpt lat="42.45475667" lon="1.47385167">
        <ele>1174.0</ele>
        <time>2019-08-04T11:11:36.300Z</time>
      </trkpt>
      <trkpt lat="42.45475667" lon="1.47385167">
        <ele>1174.0</ele>
        <time>2019-08-04T11:11:37.296Z</time>
      </trkpt>
      <trkpt lat="42.45477833" lon="1.47390667">
        <ele>1174.0</ele>
        <time>2019-08-04T11:11:38.304Z</time>
      </trkpt>
      <trkpt lat="42.45477833" lon="1.47390667">
        <ele>1174.0</ele>
        <time>2019-08-04T11:11:39.297Z</time>
      </trkpt>
      <trkpt lat="42.45480333" lon="1.47396833">
        <ele>1174.0</ele>
        <time>2019-08-04T11:11:40.301Z</time>
      </trkpt>
      <trkpt lat="42.45480333" lon="1.47396833">
        <ele>1174.0</ele>
        <time>2019-08-04T11:11:41.297Z</time>
      </trkpt>
      <trkpt lat="42.45481667" lon="1.47403167">
        <ele>1175.0</ele>
        <time>2019-08-04T11:11:42.323Z</time>
      </trkpt>
      <trkpt lat="42.45481667" lon="1.47403167">
        <ele>1175.0</ele>
        <time>2019-08-04T11:11:43.304Z</time>
      </trkpt>
      <trkpt lat="42.45480833" lon="1.47409">
        <ele>1175.0</ele>
        <time>2019-08-04T11:11:44.317Z</time>
      </trkpt>
      <trkpt lat="42.45480833" lon="1.47409">
        <ele>1175.0</ele>
        <time>2019-08-04T11:11:45.300Z</time>
      </trkpt>
      <trkpt lat="42.45477167" lon="1.47412833">
        <ele>1176.0</ele>
        <time>2019-08-04T11:11:46.300Z</time>
      </trkpt>
      <trkpt lat="42.45477167" lon="1.47412833">
        <ele>1176.0</ele>
        <time>2019-08-04T11:11:47.334Z</time>
      </trkpt>
      <trkpt lat="42.45472833" lon="1.47415">
        <ele>1176.0</ele>
        <time>2019-08-04T11:11:48.315Z</time>
      </trkpt>
      <trkpt lat="42.45472833" lon="1.47415">
        <ele>1176.0</ele>
        <time>2019-08-04T11:11:49.297Z</time>
      </trkpt>
      <trkpt lat="42.45467833" lon="1.47414833">
        <ele>1177.0</ele>
        <time>2019-08-04T11:11:50.298Z</time>
      </trkpt>
      <trkpt lat="42.45467833" lon="1.47414833">
        <ele>1177.0</ele>
        <time>2019-08-04T11:11:51.297Z</time>
      </trkpt>
      <trkpt lat="42.45463333" lon="1.47411167">
        <ele>1178.0</ele>
        <time>2019-08-04T11:11:52.325Z</time>
      </trkpt>
      <trkpt lat="42.45462" lon="1.47408333">
        <ele>1178.0</ele>
        <time>2019-08-04T11:11:53.305Z</time>
      </trkpt>
      <trkpt lat="42.45462" lon="1.47408333">
        <ele>1178.0</ele>
        <time>2019-08-04T11:11:54.297Z</time>
      </trkpt>
      <trkpt lat="42.45459" lon="1.47402667">
        <ele>1179.0</ele>
        <time>2019-08-04T11:11:55.316Z</time>
      </trkpt>
      <trkpt lat="42.45457833" lon="1.47399833">
        <ele>1179.0</ele>
        <time>2019-08-04T11:11:56.303Z</time>
      </trkpt>
      <trkpt lat="42.45457833" lon="1.47399833">
        <ele>1179.0</ele>
        <time>2019-08-04T11:11:57.305Z</time>
      </trkpt>
      <trkpt lat="42.454555" lon="1.47394167">
        <ele>1179.0</ele>
        <time>2019-08-04T11:11:58.300Z</time>
      </trkpt>
      <trkpt lat="42.454555" lon="1.47394167">
        <ele>1179.0</ele>
        <time>2019-08-04T11:11:59.335Z</time>
      </trkpt>
      <trkpt lat="42.45453" lon="1.47389">
        <ele>1180.0</ele>
        <time>2019-08-04T11:12:00.297Z</time>
      </trkpt>
      <trkpt lat="42.45453" lon="1.47389">
        <ele>1180.0</ele>
        <time>2019-08-04T11:12:01.296Z</time>
      </trkpt>
      <trkpt lat="42.45450667" lon="1.47383333">
        <ele>1180.0</ele>
        <time>2019-08-04T11:12:02.325Z</time>
      </trkpt>
      <trkpt lat="42.45450667" lon="1.47383333">
        <ele>1180.0</ele>
        <time>2019-08-04T11:12:03.318Z</time>
      </trkpt>
      <trkpt lat="42.45448333" lon="1.47378">
        <ele>1181.0</ele>
        <time>2019-08-04T11:12:04.307Z</time>
      </trkpt>
      <trkpt lat="42.45448333" lon="1.47378">
        <ele>1181.0</ele>
        <time>2019-08-04T11:12:05.334Z</time>
      </trkpt>
      <trkpt lat="42.45446333" lon="1.473725">
        <ele>1181.0</ele>
        <time>2019-08-04T11:12:06.298Z</time>
      </trkpt>
      <trkpt lat="42.45446333" lon="1.473725">
        <ele>1181.0</ele>
        <time>2019-08-04T11:12:07.296Z</time>
      </trkpt>
      <trkpt lat="42.45443833" lon="1.47367167">
        <ele>1181.0</ele>
        <time>2019-08-04T11:12:08.301Z</time>
      </trkpt>
      <trkpt lat="42.45443833" lon="1.47367167">
        <ele>1181.0</ele>
        <time>2019-08-04T11:12:09.297Z</time>
      </trkpt>
      <trkpt lat="42.45441667" lon="1.473615">
        <ele>1182.0</ele>
        <time>2019-08-04T11:12:10.300Z</time>
      </trkpt>
      <trkpt lat="42.45441667" lon="1.473615">
        <ele>1182.0</ele>
        <time>2019-08-04T11:12:11.297Z</time>
      </trkpt>
      <trkpt lat="42.45439333" lon="1.47356167">
        <ele>1182.0</ele>
        <time>2019-08-04T11:12:12.323Z</time>
      </trkpt>
      <trkpt lat="42.454385" lon="1.47353333">
        <ele>1182.0</ele>
        <time>2019-08-04T11:12:13.308Z</time>
      </trkpt>
      <trkpt lat="42.45437833" lon="1.47350167">
        <ele>1182.0</ele>
        <time>2019-08-04T11:12:14.304Z</time>
      </trkpt>
      <trkpt lat="42.45437833" lon="1.47350167">
        <ele>1182.0</ele>
        <time>2019-08-04T11:12:15.296Z</time>
      </trkpt>
      <trkpt lat="42.45436167" lon="1.47344167">
        <ele>1182.0</ele>
        <time>2019-08-04T11:12:16.302Z</time>
      </trkpt>
      <trkpt lat="42.45436167" lon="1.47344167">
        <ele>1182.0</ele>
        <time>2019-08-04T11:12:17.297Z</time>
      </trkpt>
      <trkpt lat="42.45434833" lon="1.47337833">
        <ele>1182.0</ele>
        <time>2019-08-04T11:12:18.302Z</time>
      </trkpt>
      <trkpt lat="42.45434333" lon="1.47334667">
        <ele>1183.0</ele>
        <time>2019-08-04T11:12:19.302Z</time>
      </trkpt>
      <trkpt lat="42.45434333" lon="1.47334667">
        <ele>1183.0</ele>
        <time>2019-08-04T11:12:20.302Z</time>
      </trkpt>
      <trkpt lat="42.45433" lon="1.47328333">
        <ele>1184.0</ele>
        <time>2019-08-04T11:12:21.299Z</time>
      </trkpt>
      <trkpt lat="42.45432333" lon="1.47325167">
        <ele>1184.0</ele>
        <time>2019-08-04T11:12:22.323Z</time>
      </trkpt>
      <trkpt lat="42.45432333" lon="1.47325167">
        <ele>1184.0</ele>
        <time>2019-08-04T11:12:23.304Z</time>
      </trkpt>
      <trkpt lat="42.45431" lon="1.47318833">
        <ele>1184.0</ele>
        <time>2019-08-04T11:12:24.301Z</time>
      </trkpt>
      <trkpt lat="42.45431" lon="1.47318833">
        <ele>1184.0</ele>
        <time>2019-08-04T11:12:25.297Z</time>
      </trkpt>
      <trkpt lat="42.45429667" lon="1.473125">
        <ele>1185.0</ele>
        <time>2019-08-04T11:12:26.301Z</time>
      </trkpt>
      <trkpt lat="42.45429667" lon="1.473125">
        <ele>1185.0</ele>
        <time>2019-08-04T11:12:27.296Z</time>
      </trkpt>
      <trkpt lat="42.45428" lon="1.47306167">
        <ele>1185.0</ele>
        <time>2019-08-04T11:12:28.301Z</time>
      </trkpt>
      <trkpt lat="42.45428" lon="1.47306167">
        <ele>1185.0</ele>
        <time>2019-08-04T11:12:29.334Z</time>
      </trkpt>
      <trkpt lat="42.45426833" lon="1.47299333">
        <ele>1185.0</ele>
        <time>2019-08-04T11:12:30.309Z</time>
      </trkpt>
      <trkpt lat="42.45426167" lon="1.47296">
        <ele>1186.0</ele>
        <time>2019-08-04T11:12:31.315Z</time>
      </trkpt>
      <trkpt lat="42.45426167" lon="1.47296">
        <ele>1186.0</ele>
        <time>2019-08-04T11:12:32.303Z</time>
      </trkpt>
      <trkpt lat="42.45425" lon="1.47289167">
        <ele>1186.0</ele>
        <time>2019-08-04T11:12:33.300Z</time>
      </trkpt>
      <trkpt lat="42.45424" lon="1.47286">
        <ele>1186.0</ele>
        <time>2019-08-04T11:12:34.301Z</time>
      </trkpt>
      <trkpt lat="42.45424" lon="1.47286">
        <ele>1186.0</ele>
        <time>2019-08-04T11:12:35.333Z</time>
      </trkpt>
      <trkpt lat="42.45422333" lon="1.47279667">
        <ele>1186.0</ele>
        <time>2019-08-04T11:12:36.315Z</time>
      </trkpt>
      <trkpt lat="42.454215" lon="1.472765">
        <ele>1187.0</ele>
        <time>2019-08-04T11:12:37.300Z</time>
      </trkpt>
      <trkpt lat="42.454215" lon="1.472765">
        <ele>1187.0</ele>
        <time>2019-08-04T11:12:38.296Z</time>
      </trkpt>
      <trkpt lat="42.45419833" lon="1.4727">
        <ele>1187.0</ele>
        <time>2019-08-04T11:12:39.300Z</time>
      </trkpt>
      <trkpt lat="42.45419833" lon="1.4727">
        <ele>1187.0</ele>
        <time>2019-08-04T11:12:40.297Z</time>
      </trkpt>
      <trkpt lat="42.45418333" lon="1.472635">
        <ele>1188.0</ele>
        <time>2019-08-04T11:12:41.301Z</time>
      </trkpt>
      <trkpt lat="42.45417667" lon="1.4726">
        <ele>1188.0</ele>
        <time>2019-08-04T11:12:42.316Z</time>
      </trkpt>
      <trkpt lat="42.45417667" lon="1.4726">
        <ele>1188.0</ele>
        <time>2019-08-04T11:12:43.297Z</time>
      </trkpt>
      <trkpt lat="42.454165" lon="1.47252833">
        <ele>1189.0</ele>
        <time>2019-08-04T11:12:44.298Z</time>
      </trkpt>
      <trkpt lat="42.454165" lon="1.47252833">
        <ele>1189.0</ele>
        <time>2019-08-04T11:12:45.297Z</time>
      </trkpt>
      <trkpt lat="42.45415" lon="1.472455">
        <ele>1189.0</ele>
        <time>2019-08-04T11:12:46.301Z</time>
      </trkpt>
      <trkpt lat="42.45415" lon="1.472455">
        <ele>1189.0</ele>
        <time>2019-08-04T11:12:47.297Z</time>
      </trkpt>
      <trkpt lat="42.45413667" lon="1.47238">
        <ele>1190.0</ele>
        <time>2019-08-04T11:12:48.300Z</time>
      </trkpt>
      <trkpt lat="42.45413667" lon="1.47238">
        <ele>1190.0</ele>
        <time>2019-08-04T11:12:49.304Z</time>
      </trkpt>
      <trkpt lat="42.45412833" lon="1.4723">
        <ele>1190.0</ele>
        <time>2019-08-04T11:12:50.301Z</time>
      </trkpt>
      <trkpt lat="42.45412667" lon="1.47226167">
        <ele>1190.0</ele>
        <time>2019-08-04T11:12:51.302Z</time>
      </trkpt>
      <trkpt lat="42.45412667" lon="1.47226167">
        <ele>1190.0</ele>
        <time>2019-08-04T11:12:52.304Z</time>
      </trkpt>
      <trkpt lat="42.45412667" lon="1.47219">
        <ele>1190.0</ele>
        <time>2019-08-04T11:12:53.301Z</time>
      </trkpt>
      <trkpt lat="42.45413" lon="1.47215667">
        <ele>1190.0</ele>
        <time>2019-08-04T11:12:54.301Z</time>
      </trkpt>
      <trkpt lat="42.45413" lon="1.47215667">
        <ele>1190.0</ele>
        <time>2019-08-04T11:12:55.298Z</time>
      </trkpt>
      <trkpt lat="42.45414167" lon="1.47208833">
        <ele>1191.0</ele>
        <time>2019-08-04T11:12:56.300Z</time>
      </trkpt>
      <trkpt lat="42.45414167" lon="1.47208833">
        <ele>1191.0</ele>
        <time>2019-08-04T11:12:57.334Z</time>
      </trkpt>
      <trkpt lat="42.45416" lon="1.472025">
        <ele>1191.0</ele>
        <time>2019-08-04T11:12:58.315Z</time>
      </trkpt>
      <trkpt lat="42.45416667" lon="1.47199167">
        <ele>1191.0</ele>
        <time>2019-08-04T11:12:59.300Z</time>
      </trkpt>
      <trkpt lat="42.45416667" lon="1.47199167">
        <ele>1191.0</ele>
        <time>2019-08-04T11:13:00.298Z</time>
      </trkpt>
      <trkpt lat="42.45417333" lon="1.471925">
        <ele>1191.0</ele>
        <time>2019-08-04T11:13:01.300Z</time>
      </trkpt>
      <trkpt lat="42.45417667" lon="1.47189167">
        <ele>1191.0</ele>
        <time>2019-08-04T11:13:02.319Z</time>
      </trkpt>
      <trkpt lat="42.45417667" lon="1.47189167">
        <ele>1191.0</ele>
        <time>2019-08-04T11:13:03.302Z</time>
      </trkpt>
      <trkpt lat="42.45418833" lon="1.47182833">
        <ele>1192.0</ele>
        <time>2019-08-04T11:13:04.301Z</time>
      </trkpt>
      <trkpt lat="42.45418833" lon="1.47182833">
        <ele>1192.0</ele>
        <time>2019-08-04T11:13:05.297Z</time>
      </trkpt>
      <trkpt lat="42.45420833" lon="1.47176667">
        <ele>1192.0</ele>
        <time>2019-08-04T11:13:06.296Z</time>
      </trkpt>
      <trkpt lat="42.45421667" lon="1.471735">
        <ele>1192.0</ele>
        <time>2019-08-04T11:13:07.302Z</time>
      </trkpt>
      <trkpt lat="42.45421667" lon="1.471735">
        <ele>1192.0</ele>
        <time>2019-08-04T11:13:08.297Z</time>
      </trkpt>
      <trkpt lat="42.45422667" lon="1.47166833">
        <ele>1193.0</ele>
        <time>2019-08-04T11:13:09.300Z</time>
      </trkpt>
      <trkpt lat="42.45423333" lon="1.471635">
        <ele>1193.0</ele>
        <time>2019-08-04T11:13:10.298Z</time>
      </trkpt>
      <trkpt lat="42.45423333" lon="1.471635">
        <ele>1193.0</ele>
        <time>2019-08-04T11:13:11.334Z</time>
      </trkpt>
      <trkpt lat="42.45424333" lon="1.47156833">
        <ele>1193.0</ele>
        <time>2019-08-04T11:13:12.317Z</time>
      </trkpt>
      <trkpt lat="42.45424333" lon="1.47156833">
        <ele>1193.0</ele>
        <time>2019-08-04T11:13:13.297Z</time>
      </trkpt>
      <trkpt lat="42.45425667" lon="1.471505">
        <ele>1194.0</ele>
        <time>2019-08-04T11:13:14.306Z</time>
      </trkpt>
      <trkpt lat="42.45425667" lon="1.471505">
        <ele>1194.0</ele>
        <time>2019-08-04T11:13:15.298Z</time>
      </trkpt>
      <trkpt lat="42.45426833" lon="1.47143833">
        <ele>1195.0</ele>
        <time>2019-08-04T11:13:16.302Z</time>
      </trkpt>
      <trkpt lat="42.45426833" lon="1.47143833">
        <ele>1195.0</ele>
        <time>2019-08-04T11:13:17.297Z</time>
      </trkpt>
      <trkpt lat="42.45427667" lon="1.47137667">
        <ele>1196.0</ele>
        <time>2019-08-04T11:13:18.301Z</time>
      </trkpt>
      <trkpt lat="42.45427667" lon="1.47137667">
        <ele>1196.0</ele>
        <time>2019-08-04T11:13:19.298Z</time>
      </trkpt>
      <trkpt lat="42.45428667" lon="1.47131667">
        <ele>1197.0</ele>
        <time>2019-08-04T11:13:20.298Z</time>
      </trkpt>
      <trkpt lat="42.45428667" lon="1.47131667">
        <ele>1197.0</ele>
        <time>2019-08-04T11:13:21.335Z</time>
      </trkpt>
      <trkpt lat="42.45430167" lon="1.47126333">
        <ele>1198.0</ele>
        <time>2019-08-04T11:13:22.326Z</time>
      </trkpt>
      <trkpt lat="42.45430167" lon="1.47126333">
        <ele>1198.0</ele>
        <time>2019-08-04T11:13:23.323Z</time>
      </trkpt>
      <trkpt lat="42.45431" lon="1.471195">
        <ele>1198.0</ele>
        <time>2019-08-04T11:13:24.305Z</time>
      </trkpt>
      <trkpt lat="42.45431" lon="1.471195">
        <ele>1198.0</ele>
        <time>2019-08-04T11:13:25.334Z</time>
      </trkpt>
      <trkpt lat="42.45432" lon="1.47112833">
        <ele>1199.0</ele>
        <time>2019-08-04T11:13:26.315Z</time>
      </trkpt>
      <trkpt lat="42.45432" lon="1.47112833">
        <ele>1199.0</ele>
        <time>2019-08-04T11:13:27.297Z</time>
      </trkpt>
      <trkpt lat="42.454325" lon="1.47106167">
        <ele>1200.0</ele>
        <time>2019-08-04T11:13:28.302Z</time>
      </trkpt>
      <trkpt lat="42.45432667" lon="1.47102833">
        <ele>1201.0</ele>
        <time>2019-08-04T11:13:29.297Z</time>
      </trkpt>
      <trkpt lat="42.45432667" lon="1.47102833">
        <ele>1201.0</ele>
        <time>2019-08-04T11:13:30.308Z</time>
      </trkpt>
      <trkpt lat="42.45433333" lon="1.47096833">
        <ele>1202.0</ele>
        <time>2019-08-04T11:13:31.315Z</time>
      </trkpt>
      <trkpt lat="42.45433833" lon="1.47093833">
        <ele>1202.0</ele>
        <time>2019-08-04T11:13:32.315Z</time>
      </trkpt>
      <trkpt lat="42.45433833" lon="1.47093833">
        <ele>1202.0</ele>
        <time>2019-08-04T11:13:33.298Z</time>
      </trkpt>
      <trkpt lat="42.45434833" lon="1.470875">
        <ele>1203.0</ele>
        <time>2019-08-04T11:13:34.302Z</time>
      </trkpt>
      <trkpt lat="42.45434833" lon="1.470875">
        <ele>1203.0</ele>
        <time>2019-08-04T11:13:35.335Z</time>
      </trkpt>
      <trkpt lat="42.454365" lon="1.47081833">
        <ele>1204.0</ele>
        <time>2019-08-04T11:13:36.300Z</time>
      </trkpt>
      <trkpt lat="42.454365" lon="1.47081833">
        <ele>1204.0</ele>
        <time>2019-08-04T11:13:37.298Z</time>
      </trkpt>
      <trkpt lat="42.454375" lon="1.47075667">
        <ele>1205.0</ele>
        <time>2019-08-04T11:13:38.302Z</time>
      </trkpt>
      <trkpt lat="42.454375" lon="1.47075667">
        <ele>1205.0</ele>
        <time>2019-08-04T11:13:39.328Z</time>
      </trkpt>
      <trkpt lat="42.45439" lon="1.470695">
        <ele>1206.0</ele>
        <time>2019-08-04T11:13:40.310Z</time>
      </trkpt>
      <trkpt lat="42.45439" lon="1.470695">
        <ele>1206.0</ele>
        <time>2019-08-04T11:13:41.297Z</time>
      </trkpt>
      <trkpt lat="42.45439833" lon="1.47063">
        <ele>1206.0</ele>
        <time>2019-08-04T11:13:42.315Z</time>
      </trkpt>
      <trkpt lat="42.45439833" lon="1.47063">
        <ele>1206.0</ele>
        <time>2019-08-04T11:13:43.297Z</time>
      </trkpt>
      <trkpt lat="42.45439667" lon="1.47056833">
        <ele>1206.0</ele>
        <time>2019-08-04T11:13:44.303Z</time>
      </trkpt>
      <trkpt lat="42.45439167" lon="1.47053667">
        <ele>1207.0</ele>
        <time>2019-08-04T11:13:45.303Z</time>
      </trkpt>
      <trkpt lat="42.45439167" lon="1.47053667">
        <ele>1207.0</ele>
        <time>2019-08-04T11:13:46.335Z</time>
      </trkpt>
      <trkpt lat="42.454365" lon="1.47048667">
        <ele>1207.0</ele>
        <time>2019-08-04T11:13:47.300Z</time>
      </trkpt>
      <trkpt lat="42.454365" lon="1.47048667">
        <ele>1207.0</ele>
        <time>2019-08-04T11:13:48.297Z</time>
      </trkpt>
      <trkpt lat="42.45432" lon="1.47047333">
        <ele>1208.0</ele>
        <time>2019-08-04T11:13:49.301Z</time>
      </trkpt>
      <trkpt lat="42.45432" lon="1.47047333">
        <ele>1208.0</ele>
        <time>2019-08-04T11:13:50.296Z</time>
      </trkpt>
      <trkpt lat="42.45427833" lon="1.470495">
        <ele>1208.0</ele>
        <time>2019-08-04T11:13:51.300Z</time>
      </trkpt>
      <trkpt lat="42.45425833" lon="1.470515">
        <ele>1209.0</ele>
        <time>2019-08-04T11:13:52.325Z</time>
      </trkpt>
      <trkpt lat="42.45425833" lon="1.470515">
        <ele>1209.0</ele>
        <time>2019-08-04T11:13:53.306Z</time>
      </trkpt>
      <trkpt lat="42.45423833" lon="1.47056667">
        <ele>1209.0</ele>
        <time>2019-08-04T11:13:54.301Z</time>
      </trkpt>
      <trkpt lat="42.45423" lon="1.47059833">
        <ele>1209.0</ele>
        <time>2019-08-04T11:13:55.316Z</time>
      </trkpt>
      <trkpt lat="42.454225" lon="1.47063">
        <ele>1209.0</ele>
        <time>2019-08-04T11:13:56.305Z</time>
      </trkpt>
      <trkpt lat="42.454225" lon="1.47063">
        <ele>1209.0</ele>
        <time>2019-08-04T11:13:57.297Z</time>
      </trkpt>
      <trkpt lat="42.45422" lon="1.47069333">
        <ele>1210.0</ele>
        <time>2019-08-04T11:13:58.301Z</time>
      </trkpt>
      <trkpt lat="42.45422" lon="1.47069333">
        <ele>1210.0</ele>
        <time>2019-08-04T11:13:59.301Z</time>
      </trkpt>
      <trkpt lat="42.45421333" lon="1.47075833">
        <ele>1210.0</ele>
        <time>2019-08-04T11:14:00.300Z</time>
      </trkpt>
      <trkpt lat="42.45419833" lon="1.47078667">
        <ele>1211.0</ele>
        <time>2019-08-04T11:14:01.302Z</time>
      </trkpt>
      <trkpt lat="42.45419833" lon="1.47078667">
        <ele>1211.0</ele>
        <time>2019-08-04T11:14:02.315Z</time>
      </trkpt>
      <trkpt lat="42.454185" lon="1.47084333">
        <ele>1211.0</ele>
        <time>2019-08-04T11:14:03.302Z</time>
      </trkpt>
      <trkpt lat="42.45417667" lon="1.470875">
        <ele>1211.0</ele>
        <time>2019-08-04T11:14:04.300Z</time>
      </trkpt>
      <trkpt lat="42.45417667" lon="1.470875">
        <ele>1211.0</ele>
        <time>2019-08-04T11:14:05.335Z</time>
      </trkpt>
      <trkpt lat="42.454155" lon="1.47094167">
        <ele>1212.0</ele>
        <time>2019-08-04T11:14:06.300Z</time>
      </trkpt>
      <trkpt lat="42.45414333" lon="1.47097333">
        <ele>1212.0</ele>
        <time>2019-08-04T11:14:07.300Z</time>
      </trkpt>
      <trkpt lat="42.45413667" lon="1.471">
        <ele>1212.0</ele>
        <time>2019-08-04T11:14:08.300Z</time>
      </trkpt>
      <trkpt lat="42.45413667" lon="1.471">
        <ele>1212.0</ele>
        <time>2019-08-04T11:14:09.297Z</time>
      </trkpt>
      <trkpt lat="42.45411833" lon="1.47105667">
        <ele>1212.0</ele>
        <time>2019-08-04T11:14:10.302Z</time>
      </trkpt>
      <trkpt lat="42.45411833" lon="1.47105667">
        <ele>1212.0</ele>
        <time>2019-08-04T11:14:11.297Z</time>
      </trkpt>
      <trkpt lat="42.45409667" lon="1.47111667">
        <ele>1213.0</ele>
        <time>2019-08-04T11:14:12.315Z</time>
      </trkpt>
      <trkpt lat="42.45409667" lon="1.47111667">
        <ele>1213.0</ele>
        <time>2019-08-04T11:14:13.298Z</time>
      </trkpt>
      <trkpt lat="42.45407833" lon="1.47117833">
        <ele>1213.0</ele>
        <time>2019-08-04T11:14:14.302Z</time>
      </trkpt>
      <trkpt lat="42.45407833" lon="1.47117833">
        <ele>1213.0</ele>
        <time>2019-08-04T11:14:15.333Z</time>
      </trkpt>
      <trkpt lat="42.45406" lon="1.471235">
        <ele>1213.0</ele>
        <time>2019-08-04T11:14:16.315Z</time>
      </trkpt>
      <trkpt lat="42.45405" lon="1.47126167">
        <ele>1214.0</ele>
        <time>2019-08-04T11:14:17.301Z</time>
      </trkpt>
      <trkpt lat="42.45405" lon="1.47126167">
        <ele>1214.0</ele>
        <time>2019-08-04T11:14:18.297Z</time>
      </trkpt>
      <trkpt lat="42.45403167" lon="1.47132167">
        <ele>1214.0</ele>
        <time>2019-08-04T11:14:19.300Z</time>
      </trkpt>
      <trkpt lat="42.45403167" lon="1.47132167">
        <ele>1214.0</ele>
        <time>2019-08-04T11:14:20.323Z</time>
      </trkpt>
      <trkpt lat="42.454" lon="1.47138667">
        <ele>1214.0</ele>
        <time>2019-08-04T11:14:21.305Z</time>
      </trkpt>
      <trkpt lat="42.45398333" lon="1.471415">
        <ele>1214.0</ele>
        <time>2019-08-04T11:14:22.315Z</time>
      </trkpt>
      <trkpt lat="42.45398333" lon="1.471415">
        <ele>1214.0</ele>
        <time>2019-08-04T11:14:23.297Z</time>
      </trkpt>
      <trkpt lat="42.45394667" lon="1.47147333">
        <ele>1215.0</ele>
        <time>2019-08-04T11:14:24.322Z</time>
      </trkpt>
      <trkpt lat="42.45393333" lon="1.47150333">
        <ele>1215.0</ele>
        <time>2019-08-04T11:14:25.316Z</time>
      </trkpt>
      <trkpt lat="42.45393333" lon="1.47150333">
        <ele>1215.0</ele>
        <time>2019-08-04T11:14:26.297Z</time>
      </trkpt>
      <trkpt lat="42.45391167" lon="1.47156">
        <ele>1215.0</ele>
        <time>2019-08-04T11:14:27.300Z</time>
      </trkpt>
      <trkpt lat="42.45390167" lon="1.47158667">
        <ele>1216.0</ele>
        <time>2019-08-04T11:14:28.302Z</time>
      </trkpt>
      <trkpt lat="42.45390167" lon="1.47158667">
        <ele>1216.0</ele>
        <time>2019-08-04T11:14:29.327Z</time>
      </trkpt>
      <trkpt lat="42.453875" lon="1.47164333">
        <ele>1216.0</ele>
        <time>2019-08-04T11:14:30.316Z</time>
      </trkpt>
      <trkpt lat="42.45386333" lon="1.47167">
        <ele>1216.0</ele>
        <time>2019-08-04T11:14:31.325Z</time>
      </trkpt>
      <trkpt lat="42.45385167" lon="1.47169833">
        <ele>1216.0</ele>
        <time>2019-08-04T11:14:32.324Z</time>
      </trkpt>
      <trkpt lat="42.45385167" lon="1.47169833">
        <ele>1216.0</ele>
        <time>2019-08-04T11:14:33.304Z</time>
      </trkpt>
      <trkpt lat="42.45382833" lon="1.47175333">
        <ele>1217.0</ele>
        <time>2019-08-04T11:14:34.303Z</time>
      </trkpt>
      <trkpt lat="42.45382833" lon="1.47175333">
        <ele>1217.0</ele>
        <time>2019-08-04T11:14:35.311Z</time>
      </trkpt>
      <trkpt lat="42.45379833" lon="1.47180333">
        <ele>1217.0</ele>
        <time>2019-08-04T11:14:36.319Z</time>
      </trkpt>
      <trkpt lat="42.45377833" lon="1.47183333">
        <ele>1218.0</ele>
        <time>2019-08-04T11:14:37.300Z</time>
      </trkpt>
      <trkpt lat="42.45376333" lon="1.47186">
        <ele>1218.0</ele>
        <time>2019-08-04T11:14:38.302Z</time>
      </trkpt>
      <trkpt lat="42.45374667" lon="1.471885">
        <ele>1218.0</ele>
        <time>2019-08-04T11:14:39.298Z</time>
      </trkpt>
      <trkpt lat="42.45374667" lon="1.471885">
        <ele>1218.0</ele>
        <time>2019-08-04T11:14:40.322Z</time>
      </trkpt>
      <trkpt lat="42.45369667" lon="1.47192667">
        <ele>1219.0</ele>
        <time>2019-08-04T11:14:41.303Z</time>
      </trkpt>
      <trkpt lat="42.45369667" lon="1.47192667">
        <ele>1219.0</ele>
        <time>2019-08-04T11:14:42.323Z</time>
      </trkpt>
      <trkpt lat="42.45365333" lon="1.471975">
        <ele>1219.0</ele>
        <time>2019-08-04T11:14:43.306Z</time>
      </trkpt>
      <trkpt lat="42.45364" lon="1.47200167">
        <ele>1218.0</ele>
        <time>2019-08-04T11:14:44.301Z</time>
      </trkpt>
      <trkpt lat="42.45364" lon="1.47200167">
        <ele>1218.0</ele>
        <time>2019-08-04T11:14:45.297Z</time>
      </trkpt>
      <trkpt lat="42.45361333" lon="1.47206">
        <ele>1219.0</ele>
        <time>2019-08-04T11:14:46.302Z</time>
      </trkpt>
      <trkpt lat="42.45361333" lon="1.47206">
        <ele>1219.0</ele>
        <time>2019-08-04T11:14:47.297Z</time>
      </trkpt>
      <trkpt lat="42.453595" lon="1.47211667">
        <ele>1220.0</ele>
        <time>2019-08-04T11:14:48.301Z</time>
      </trkpt>
      <trkpt lat="42.453595" lon="1.47211667">
        <ele>1220.0</ele>
        <time>2019-08-04T11:14:49.297Z</time>
      </trkpt>
      <trkpt lat="42.45357667" lon="1.47216667">
        <ele>1220.0</ele>
        <time>2019-08-04T11:14:50.303Z</time>
      </trkpt>
      <trkpt lat="42.45357667" lon="1.47216667">
        <ele>1220.0</ele>
        <time>2019-08-04T11:14:51.297Z</time>
      </trkpt>
      <trkpt lat="42.45356167" lon="1.47221667">
        <ele>1221.0</ele>
        <time>2019-08-04T11:14:52.317Z</time>
      </trkpt>
      <trkpt lat="42.45356167" lon="1.47221667">
        <ele>1221.0</ele>
        <time>2019-08-04T11:14:53.298Z</time>
      </trkpt>
      <trkpt lat="42.45353667" lon="1.47227667">
        <ele>1222.0</ele>
        <time>2019-08-04T11:14:54.300Z</time>
      </trkpt>
      <trkpt lat="42.45353" lon="1.47231">
        <ele>1222.0</ele>
        <time>2019-08-04T11:14:55.300Z</time>
      </trkpt>
      <trkpt lat="42.45352333" lon="1.47234">
        <ele>1223.0</ele>
        <time>2019-08-04T11:14:56.303Z</time>
      </trkpt>
      <trkpt lat="42.45352333" lon="1.47234">
        <ele>1223.0</ele>
        <time>2019-08-04T11:14:57.298Z</time>
      </trkpt>
      <trkpt lat="42.45350167" lon="1.47239667">
        <ele>1224.0</ele>
        <time>2019-08-04T11:14:58.302Z</time>
      </trkpt>
      <trkpt lat="42.45350167" lon="1.47239667">
        <ele>1224.0</ele>
        <time>2019-08-04T11:14:59.333Z</time>
      </trkpt>
      <trkpt lat="42.453475" lon="1.472445">
        <ele>1225.0</ele>
        <time>2019-08-04T11:15:00.316Z</time>
      </trkpt>
      <trkpt lat="42.453475" lon="1.472445">
        <ele>1225.0</ele>
        <time>2019-08-04T11:15:01.297Z</time>
      </trkpt>
      <trkpt lat="42.453455" lon="1.47250833">
        <ele>1226.0</ele>
        <time>2019-08-04T11:15:02.322Z</time>
      </trkpt>
      <trkpt lat="42.453455" lon="1.47250833">
        <ele>1226.0</ele>
        <time>2019-08-04T11:15:03.302Z</time>
      </trkpt>
      <trkpt lat="42.45345" lon="1.47258">
        <ele>1226.0</ele>
        <time>2019-08-04T11:15:04.302Z</time>
      </trkpt>
      <trkpt lat="42.45345" lon="1.47258">
        <ele>1226.0</ele>
        <time>2019-08-04T11:15:05.335Z</time>
      </trkpt>
      <trkpt lat="42.45344833" lon="1.47265333">
        <ele>1227.0</ele>
        <time>2019-08-04T11:15:06.301Z</time>
      </trkpt>
      <trkpt lat="42.45344833" lon="1.47265333">
        <ele>1227.0</ele>
        <time>2019-08-04T11:15:07.298Z</time>
      </trkpt>
      <trkpt lat="42.45342833" lon="1.47272">
        <ele>1227.0</ele>
        <time>2019-08-04T11:15:08.306Z</time>
      </trkpt>
      <trkpt lat="42.45341667" lon="1.47275167">
        <ele>1228.0</ele>
        <time>2019-08-04T11:15:09.304Z</time>
      </trkpt>
      <trkpt lat="42.45341667" lon="1.47275167">
        <ele>1228.0</ele>
        <time>2019-08-04T11:15:10.296Z</time>
      </trkpt>
      <trkpt lat="42.453405" lon="1.47281833">
        <ele>1228.0</ele>
        <time>2019-08-04T11:15:11.301Z</time>
      </trkpt>
      <trkpt lat="42.453405" lon="1.47281833">
        <ele>1228.0</ele>
        <time>2019-08-04T11:15:12.322Z</time>
      </trkpt>
      <trkpt lat="42.4534" lon="1.47287833">
        <ele>1229.0</ele>
        <time>2019-08-04T11:15:13.304Z</time>
      </trkpt>
      <trkpt lat="42.45339667" lon="1.47291167">
        <ele>1229.0</ele>
        <time>2019-08-04T11:15:14.298Z</time>
      </trkpt>
      <trkpt lat="42.45339667" lon="1.47291167">
        <ele>1229.0</ele>
        <time>2019-08-04T11:15:15.298Z</time>
      </trkpt>
      <trkpt lat="42.45339167" lon="1.47297833">
        <ele>1229.0</ele>
        <time>2019-08-04T11:15:16.316Z</time>
      </trkpt>
      <trkpt lat="42.45339167" lon="1.47297833">
        <ele>1229.0</ele>
        <time>2019-08-04T11:15:17.298Z</time>
      </trkpt>
      <trkpt lat="42.45338333" lon="1.473045">
        <ele>1230.0</ele>
        <time>2019-08-04T11:15:18.302Z</time>
      </trkpt>
      <trkpt lat="42.45338" lon="1.47308">
        <ele>1230.0</ele>
        <time>2019-08-04T11:15:19.318Z</time>
      </trkpt>
      <trkpt lat="42.45338" lon="1.47308">
        <ele>1230.0</ele>
        <time>2019-08-04T11:15:20.301Z</time>
      </trkpt>
      <trkpt lat="42.45338167" lon="1.47314167">
        <ele>1231.0</ele>
        <time>2019-08-04T11:15:21.300Z</time>
      </trkpt>
      <trkpt lat="42.45338333" lon="1.47317667">
        <ele>1231.0</ele>
        <time>2019-08-04T11:15:22.324Z</time>
      </trkpt>
      <trkpt lat="42.45338333" lon="1.47317667">
        <ele>1231.0</ele>
        <time>2019-08-04T11:15:23.304Z</time>
      </trkpt>
      <trkpt lat="42.45338833" lon="1.473245">
        <ele>1231.0</ele>
        <time>2019-08-04T11:15:24.302Z</time>
      </trkpt>
      <trkpt lat="42.45338833" lon="1.473245">
        <ele>1231.0</ele>
        <time>2019-08-04T11:15:25.298Z</time>
      </trkpt>
      <trkpt lat="42.4534" lon="1.473315">
        <ele>1231.0</ele>
        <time>2019-08-04T11:15:26.298Z</time>
      </trkpt>
      <trkpt lat="42.4534" lon="1.473315">
        <ele>1231.0</ele>
        <time>2019-08-04T11:15:27.316Z</time>
      </trkpt>
      <trkpt lat="42.45341333" lon="1.473385">
        <ele>1232.0</ele>
        <time>2019-08-04T11:15:28.302Z</time>
      </trkpt>
      <trkpt lat="42.45341333" lon="1.473385">
        <ele>1232.0</ele>
        <time>2019-08-04T11:15:29.335Z</time>
      </trkpt>
      <trkpt lat="42.45343167" lon="1.47345">
        <ele>1232.0</ele>
        <time>2019-08-04T11:15:30.323Z</time>
      </trkpt>
      <trkpt lat="42.45343167" lon="1.47345">
        <ele>1232.0</ele>
        <time>2019-08-04T11:15:31.330Z</time>
      </trkpt>
      <trkpt lat="42.453445" lon="1.47351833">
        <ele>1232.0</ele>
        <time>2019-08-04T11:15:32.316Z</time>
      </trkpt>
      <trkpt lat="42.45344167" lon="1.47354833">
        <ele>1232.0</ele>
        <time>2019-08-04T11:15:33.302Z</time>
      </trkpt>
      <trkpt lat="42.453435" lon="1.47357667">
        <ele>1232.0</ele>
        <time>2019-08-04T11:15:34.302Z</time>
      </trkpt>
      <trkpt lat="42.453435" lon="1.47357667">
        <ele>1232.0</ele>
        <time>2019-08-04T11:15:35.316Z</time>
      </trkpt>
      <trkpt lat="42.45341" lon="1.47363333">
        <ele>1233.0</ele>
        <time>2019-08-04T11:15:36.302Z</time>
      </trkpt>
      <trkpt lat="42.45341" lon="1.47363333">
        <ele>1233.0</ele>
        <time>2019-08-04T11:15:37.297Z</time>
      </trkpt>
      <trkpt lat="42.45337667" lon="1.47367">
        <ele>1233.0</ele>
        <time>2019-08-04T11:15:38.301Z</time>
      </trkpt>
      <trkpt lat="42.45337667" lon="1.47367">
        <ele>1233.0</ele>
        <time>2019-08-04T11:15:39.298Z</time>
      </trkpt>
      <trkpt lat="42.45333" lon="1.47367667">
        <ele>1233.0</ele>
        <time>2019-08-04T11:15:40.302Z</time>
      </trkpt>
      <trkpt lat="42.45333" lon="1.47367667">
        <ele>1233.0</ele>
        <time>2019-08-04T11:15:41.335Z</time>
      </trkpt>
      <trkpt lat="42.45328167" lon="1.47366">
        <ele>1234.0</ele>
        <time>2019-08-04T11:15:42.317Z</time>
      </trkpt>
      <trkpt lat="42.45328167" lon="1.47366">
        <ele>1234.0</ele>
        <time>2019-08-04T11:15:43.298Z</time>
      </trkpt>
      <trkpt lat="42.45324167" lon="1.47363167">
        <ele>1234.0</ele>
        <time>2019-08-04T11:15:44.301Z</time>
      </trkpt>
      <trkpt lat="42.45324167" lon="1.47363167">
        <ele>1234.0</ele>
        <time>2019-08-04T11:15:45.297Z</time>
      </trkpt>
      <trkpt lat="42.45320833" lon="1.47359">
        <ele>1235.0</ele>
        <time>2019-08-04T11:15:46.302Z</time>
      </trkpt>
      <trkpt lat="42.45320833" lon="1.47359">
        <ele>1235.0</ele>
        <time>2019-08-04T11:15:47.300Z</time>
      </trkpt>
      <trkpt lat="42.45318833" lon="1.47353">
        <ele>1235.0</ele>
        <time>2019-08-04T11:15:48.301Z</time>
      </trkpt>
      <trkpt lat="42.453185" lon="1.47349833">
        <ele>1235.0</ele>
        <time>2019-08-04T11:15:49.302Z</time>
      </trkpt>
      <trkpt lat="42.453185" lon="1.47349833">
        <ele>1235.0</ele>
        <time>2019-08-04T11:15:50.335Z</time>
      </trkpt>
      <trkpt lat="42.45318667" lon="1.47343667">
        <ele>1235.0</ele>
        <time>2019-08-04T11:15:51.316Z</time>
      </trkpt>
      <trkpt lat="42.45319333" lon="1.47340333">
        <ele>1236.0</ele>
        <time>2019-08-04T11:15:52.319Z</time>
      </trkpt>
      <trkpt lat="42.45319333" lon="1.47340333">
        <ele>1236.0</ele>
        <time>2019-08-04T11:15:53.300Z</time>
      </trkpt>
      <trkpt lat="42.45319" lon="1.47333">
        <ele>1236.0</ele>
        <time>2019-08-04T11:15:54.304Z</time>
      </trkpt>
      <trkpt lat="42.45319" lon="1.47333">
        <ele>1236.0</ele>
        <time>2019-08-04T11:15:55.299Z</time>
      </trkpt>
      <trkpt lat="42.45317833" lon="1.473265">
        <ele>1236.0</ele>
        <time>2019-08-04T11:15:56.298Z</time>
      </trkpt>
      <trkpt lat="42.45317833" lon="1.473265">
        <ele>1236.0</ele>
        <time>2019-08-04T11:15:57.318Z</time>
      </trkpt>
      <trkpt lat="42.45315333" lon="1.47320333">
        <ele>1236.0</ele>
        <time>2019-08-04T11:15:58.302Z</time>
      </trkpt>
      <trkpt lat="42.45315333" lon="1.47320333">
        <ele>1236.0</ele>
        <time>2019-08-04T11:15:59.297Z</time>
      </trkpt>
      <trkpt lat="42.45313667" lon="1.47314167">
        <ele>1236.0</ele>
        <time>2019-08-04T11:16:00.302Z</time>
      </trkpt>
      <trkpt lat="42.45313667" lon="1.47314167">
        <ele>1236.0</ele>
        <time>2019-08-04T11:16:01.297Z</time>
      </trkpt>
      <trkpt lat="42.45311667" lon="1.47308333">
        <ele>1237.0</ele>
        <time>2019-08-04T11:16:02.316Z</time>
      </trkpt>
      <trkpt lat="42.45311667" lon="1.47308333">
        <ele>1237.0</ele>
        <time>2019-08-04T11:16:03.298Z</time>
      </trkpt>
      <trkpt lat="42.453095" lon="1.47302333">
        <ele>1237.0</ele>
        <time>2019-08-04T11:16:04.302Z</time>
      </trkpt>
      <trkpt lat="42.453095" lon="1.47302333">
        <ele>1237.0</ele>
        <time>2019-08-04T11:16:05.335Z</time>
      </trkpt>
      <trkpt lat="42.45307833" lon="1.47296333">
        <ele>1237.0</ele>
        <time>2019-08-04T11:16:06.316Z</time>
      </trkpt>
      <trkpt lat="42.453075" lon="1.47293167">
        <ele>1237.0</ele>
        <time>2019-08-04T11:16:07.301Z</time>
      </trkpt>
      <trkpt lat="42.453075" lon="1.47293167">
        <ele>1237.0</ele>
        <time>2019-08-04T11:16:08.335Z</time>
      </trkpt>
      <trkpt lat="42.45306167" lon="1.47287167">
        <ele>1238.0</ele>
        <time>2019-08-04T11:16:09.301Z</time>
      </trkpt>
      <trkpt lat="42.453055" lon="1.47284">
        <ele>1238.0</ele>
        <time>2019-08-04T11:16:10.303Z</time>
      </trkpt>
      <trkpt lat="42.453055" lon="1.47284">
        <ele>1238.0</ele>
        <time>2019-08-04T11:16:11.297Z</time>
      </trkpt>
      <trkpt lat="42.45304667" lon="1.47278">
        <ele>1238.0</ele>
        <time>2019-08-04T11:16:12.309Z</time>
      </trkpt>
      <trkpt lat="42.45304667" lon="1.47278">
        <ele>1238.0</ele>
        <time>2019-08-04T11:16:13.298Z</time>
      </trkpt>
      <trkpt lat="42.45304167" lon="1.47272">
        <ele>1238.0</ele>
        <time>2019-08-04T11:16:14.303Z</time>
      </trkpt>
      <trkpt lat="42.45304167" lon="1.47272">
        <ele>1238.0</ele>
        <time>2019-08-04T11:16:15.335Z</time>
      </trkpt>
      <trkpt lat="42.453045" lon="1.47265833">
        <ele>1239.0</ele>
        <time>2019-08-04T11:16:16.316Z</time>
      </trkpt>
      <trkpt lat="42.453045" lon="1.47265833">
        <ele>1239.0</ele>
        <time>2019-08-04T11:16:17.298Z</time>
      </trkpt>
      <trkpt lat="42.45304667" lon="1.47259">
        <ele>1239.0</ele>
        <time>2019-08-04T11:16:18.308Z</time>
      </trkpt>
      <trkpt lat="42.45304667" lon="1.47259">
        <ele>1239.0</ele>
        <time>2019-08-04T11:16:19.296Z</time>
      </trkpt>
      <trkpt lat="42.45305167" lon="1.47252833">
        <ele>1240.0</ele>
        <time>2019-08-04T11:16:20.300Z</time>
      </trkpt>
      <trkpt lat="42.45305167" lon="1.47252833">
        <ele>1240.0</ele>
        <time>2019-08-04T11:16:21.298Z</time>
      </trkpt>
      <trkpt lat="42.453055" lon="1.47246667">
        <ele>1240.0</ele>
        <time>2019-08-04T11:16:22.326Z</time>
      </trkpt>
      <trkpt lat="42.453055" lon="1.47246667">
        <ele>1240.0</ele>
        <time>2019-08-04T11:16:23.319Z</time>
      </trkpt>
      <trkpt lat="42.45306" lon="1.47241167">
        <ele>1241.0</ele>
        <time>2019-08-04T11:16:24.302Z</time>
      </trkpt>
      <trkpt lat="42.45306" lon="1.47241167">
        <ele>1241.0</ele>
        <time>2019-08-04T11:16:25.297Z</time>
      </trkpt>
      <trkpt lat="42.45305333" lon="1.47234667">
        <ele>1241.0</ele>
        <time>2019-08-04T11:16:26.317Z</time>
      </trkpt>
      <trkpt lat="42.45305333" lon="1.47234667">
        <ele>1241.0</ele>
        <time>2019-08-04T11:16:27.299Z</time>
      </trkpt>
      <trkpt lat="42.453045" lon="1.47228333">
        <ele>1241.0</ele>
        <time>2019-08-04T11:16:28.302Z</time>
      </trkpt>
      <trkpt lat="42.453045" lon="1.47228333">
        <ele>1241.0</ele>
        <time>2019-08-04T11:16:29.297Z</time>
      </trkpt>
      <trkpt lat="42.45304" lon="1.47221667">
        <ele>1242.0</ele>
        <time>2019-08-04T11:16:30.317Z</time>
      </trkpt>
      <trkpt lat="42.45303833" lon="1.47218167">
        <ele>1242.0</ele>
        <time>2019-08-04T11:16:31.328Z</time>
      </trkpt>
      <trkpt lat="42.453035" lon="1.47214833">
        <ele>1242.0</ele>
        <time>2019-08-04T11:16:32.324Z</time>
      </trkpt>
      <trkpt lat="42.453035" lon="1.47214833">
        <ele>1242.0</ele>
        <time>2019-08-04T11:16:33.305Z</time>
      </trkpt>
      <trkpt lat="42.45303333" lon="1.47208167">
        <ele>1242.0</ele>
        <time>2019-08-04T11:16:34.302Z</time>
      </trkpt>
      <trkpt lat="42.45303333" lon="1.47208167">
        <ele>1242.0</ele>
        <time>2019-08-04T11:16:35.309Z</time>
      </trkpt>
      <trkpt lat="42.45303" lon="1.47201667">
        <ele>1242.0</ele>
        <time>2019-08-04T11:16:36.301Z</time>
      </trkpt>
      <trkpt lat="42.45303" lon="1.47201667">
        <ele>1242.0</ele>
        <time>2019-08-04T11:16:37.299Z</time>
      </trkpt>
      <trkpt lat="42.45302333" lon="1.47195167">
        <ele>1242.0</ele>
        <time>2019-08-04T11:16:38.301Z</time>
      </trkpt>
      <trkpt lat="42.45302333" lon="1.47195167">
        <ele>1242.0</ele>
        <time>2019-08-04T11:16:39.296Z</time>
      </trkpt>
      <trkpt lat="42.45301667" lon="1.47188667">
        <ele>1242.0</ele>
        <time>2019-08-04T11:16:40.304Z</time>
      </trkpt>
      <trkpt lat="42.45301667" lon="1.47188667">
        <ele>1242.0</ele>
        <time>2019-08-04T11:16:41.298Z</time>
      </trkpt>
      <trkpt lat="42.45301333" lon="1.47182167">
        <ele>1242.0</ele>
        <time>2019-08-04T11:16:42.324Z</time>
      </trkpt>
      <trkpt lat="42.45301333" lon="1.47182167">
        <ele>1242.0</ele>
        <time>2019-08-04T11:16:43.304Z</time>
      </trkpt>
      <trkpt lat="42.45300667" lon="1.47176">
        <ele>1243.0</ele>
        <time>2019-08-04T11:16:44.303Z</time>
      </trkpt>
      <trkpt lat="42.45300667" lon="1.47176">
        <ele>1243.0</ele>
        <time>2019-08-04T11:16:45.298Z</time>
      </trkpt>
      <trkpt lat="42.45300167" lon="1.47169667">
        <ele>1243.0</ele>
        <time>2019-08-04T11:16:46.302Z</time>
      </trkpt>
      <trkpt lat="42.45300167" lon="1.47169667">
        <ele>1243.0</ele>
        <time>2019-08-04T11:16:47.306Z</time>
      </trkpt>
      <trkpt lat="42.45300333" lon="1.47163167">
        <ele>1243.0</ele>
        <time>2019-08-04T11:16:48.302Z</time>
      </trkpt>
      <trkpt lat="42.45300333" lon="1.47163167">
        <ele>1243.0</ele>
        <time>2019-08-04T11:16:49.298Z</time>
      </trkpt>
      <trkpt lat="42.45300833" lon="1.47156833">
        <ele>1244.0</ele>
        <time>2019-08-04T11:16:50.298Z</time>
      </trkpt>
      <trkpt lat="42.45300833" lon="1.47156833">
        <ele>1244.0</ele>
        <time>2019-08-04T11:16:51.298Z</time>
      </trkpt>
      <trkpt lat="42.453015" lon="1.47150667">
        <ele>1244.0</ele>
        <time>2019-08-04T11:16:52.317Z</time>
      </trkpt>
      <trkpt lat="42.453015" lon="1.47150667">
        <ele>1244.0</ele>
        <time>2019-08-04T11:16:53.298Z</time>
      </trkpt>
      <trkpt lat="42.45302333" lon="1.47144667">
        <ele>1244.0</ele>
        <time>2019-08-04T11:16:54.302Z</time>
      </trkpt>
      <trkpt lat="42.45302333" lon="1.47144667">
        <ele>1244.0</ele>
        <time>2019-08-04T11:16:55.298Z</time>
      </trkpt>
      <trkpt lat="42.45303167" lon="1.47138833">
        <ele>1244.0</ele>
        <time>2019-08-04T11:16:56.302Z</time>
      </trkpt>
      <trkpt lat="42.45303167" lon="1.47138833">
        <ele>1244.0</ele>
        <time>2019-08-04T11:16:57.306Z</time>
      </trkpt>
      <trkpt lat="42.45304333" lon="1.47132667">
        <ele>1245.0</ele>
        <time>2019-08-04T11:16:58.302Z</time>
      </trkpt>
      <trkpt lat="42.45304333" lon="1.47132667">
        <ele>1245.0</ele>
        <time>2019-08-04T11:16:59.296Z</time>
      </trkpt>
      <trkpt lat="42.45305167" lon="1.47126333">
        <ele>1245.0</ele>
        <time>2019-08-04T11:17:00.325Z</time>
      </trkpt>
      <trkpt lat="42.45305167" lon="1.47126333">
        <ele>1245.0</ele>
        <time>2019-08-04T11:17:01.305Z</time>
      </trkpt>
      <trkpt lat="42.45306333" lon="1.47120167">
        <ele>1245.0</ele>
        <time>2019-08-04T11:17:02.325Z</time>
      </trkpt>
      <trkpt lat="42.45306333" lon="1.47120167">
        <ele>1245.0</ele>
        <time>2019-08-04T11:17:03.305Z</time>
      </trkpt>
      <trkpt lat="42.45307333" lon="1.47114167">
        <ele>1245.0</ele>
        <time>2019-08-04T11:17:04.303Z</time>
      </trkpt>
      <trkpt lat="42.45307333" lon="1.47114167">
        <ele>1245.0</ele>
        <time>2019-08-04T11:17:05.305Z</time>
      </trkpt>
      <trkpt lat="42.45308333" lon="1.47108">
        <ele>1245.0</ele>
        <time>2019-08-04T11:17:06.301Z</time>
      </trkpt>
      <trkpt lat="42.45308333" lon="1.47108">
        <ele>1245.0</ele>
        <time>2019-08-04T11:17:07.312Z</time>
      </trkpt>
      <trkpt lat="42.45309" lon="1.47101667">
        <ele>1246.0</ele>
        <time>2019-08-04T11:17:08.302Z</time>
      </trkpt>
      <trkpt lat="42.453095" lon="1.47098333">
        <ele>1246.0</ele>
        <time>2019-08-04T11:17:09.302Z</time>
      </trkpt>
      <trkpt lat="42.453095" lon="1.47098333">
        <ele>1246.0</ele>
        <time>2019-08-04T11:17:10.296Z</time>
      </trkpt>
      <trkpt lat="42.453105" lon="1.47092167">
        <ele>1246.0</ele>
        <time>2019-08-04T11:17:11.301Z</time>
      </trkpt>
      <trkpt lat="42.453105" lon="1.47092167">
        <ele>1246.0</ele>
        <time>2019-08-04T11:17:12.319Z</time>
      </trkpt>
      <trkpt lat="42.45312" lon="1.47086">
        <ele>1246.0</ele>
        <time>2019-08-04T11:17:13.301Z</time>
      </trkpt>
      <trkpt lat="42.45312667" lon="1.47083">
        <ele>1247.0</ele>
        <time>2019-08-04T11:17:14.304Z</time>
      </trkpt>
      <trkpt lat="42.45312667" lon="1.47083">
        <ele>1247.0</ele>
        <time>2019-08-04T11:17:15.298Z</time>
      </trkpt>
      <trkpt lat="42.45314" lon="1.47077">
        <ele>1247.0</ele>
        <time>2019-08-04T11:17:16.302Z</time>
      </trkpt>
      <trkpt lat="42.45314" lon="1.47077">
        <ele>1247.0</ele>
        <time>2019-08-04T11:17:17.304Z</time>
      </trkpt>
      <trkpt lat="42.45314833" lon="1.47070667">
        <ele>1247.0</ele>
        <time>2019-08-04T11:17:18.302Z</time>
      </trkpt>
      <trkpt lat="42.45315333" lon="1.470675">
        <ele>1248.0</ele>
        <time>2019-08-04T11:17:19.303Z</time>
      </trkpt>
      <trkpt lat="42.45315333" lon="1.470675">
        <ele>1248.0</ele>
        <time>2019-08-04T11:17:20.296Z</time>
      </trkpt>
      <trkpt lat="42.45316167" lon="1.47061333">
        <ele>1248.0</ele>
        <time>2019-08-04T11:17:21.298Z</time>
      </trkpt>
      <trkpt lat="42.45316667" lon="1.47058167">
        <ele>1248.0</ele>
        <time>2019-08-04T11:17:22.327Z</time>
      </trkpt>
      <trkpt lat="42.45316667" lon="1.47058167">
        <ele>1248.0</ele>
        <time>2019-08-04T11:17:23.319Z</time>
      </trkpt>
      <trkpt lat="42.45317833" lon="1.47052">
        <ele>1249.0</ele>
        <time>2019-08-04T11:17:24.304Z</time>
      </trkpt>
      <trkpt lat="42.45317833" lon="1.47052">
        <ele>1249.0</ele>
        <time>2019-08-04T11:17:25.336Z</time>
      </trkpt>
      <trkpt lat="42.45319167" lon="1.47046">
        <ele>1249.0</ele>
        <time>2019-08-04T11:17:26.316Z</time>
      </trkpt>
      <trkpt lat="42.45319667" lon="1.47043">
        <ele>1249.0</ele>
        <time>2019-08-04T11:17:27.310Z</time>
      </trkpt>
      <trkpt lat="42.45319667" lon="1.47043">
        <ele>1249.0</ele>
        <time>2019-08-04T11:17:28.296Z</time>
      </trkpt>
      <trkpt lat="42.45320667" lon="1.47036833">
        <ele>1250.0</ele>
        <time>2019-08-04T11:17:29.300Z</time>
      </trkpt>
      <trkpt lat="42.45320667" lon="1.47036833">
        <ele>1250.0</ele>
        <time>2019-08-04T11:17:30.323Z</time>
      </trkpt>
      <trkpt lat="42.45321333" lon="1.470305">
        <ele>1250.0</ele>
        <time>2019-08-04T11:17:31.331Z</time>
      </trkpt>
      <trkpt lat="42.45321667" lon="1.470275">
        <ele>1250.0</ele>
        <time>2019-08-04T11:17:32.328Z</time>
      </trkpt>
      <trkpt lat="42.45321667" lon="1.470275">
        <ele>1250.0</ele>
        <time>2019-08-04T11:17:33.309Z</time>
      </trkpt>
      <trkpt lat="42.45322167" lon="1.47021167">
        <ele>1251.0</ele>
        <time>2019-08-04T11:17:34.303Z</time>
      </trkpt>
      <trkpt lat="42.45322167" lon="1.47021167">
        <ele>1251.0</ele>
        <time>2019-08-04T11:17:35.298Z</time>
      </trkpt>
      <trkpt lat="42.45322833" lon="1.47015">
        <ele>1251.0</ele>
        <time>2019-08-04T11:17:36.316Z</time>
      </trkpt>
      <trkpt lat="42.45322833" lon="1.47015">
        <ele>1251.0</ele>
        <time>2019-08-04T11:17:37.304Z</time>
      </trkpt>
      <trkpt lat="42.45323667" lon="1.47008667">
        <ele>1252.0</ele>
        <time>2019-08-04T11:17:38.303Z</time>
      </trkpt>
      <trkpt lat="42.45323667" lon="1.47008667">
        <ele>1252.0</ele>
        <time>2019-08-04T11:17:39.296Z</time>
      </trkpt>
      <trkpt lat="42.453245" lon="1.470025">
        <ele>1252.0</ele>
        <time>2019-08-04T11:17:40.304Z</time>
      </trkpt>
      <trkpt lat="42.453245" lon="1.470025">
        <ele>1252.0</ele>
        <time>2019-08-04T11:17:41.300Z</time>
      </trkpt>
      <trkpt lat="42.453255" lon="1.46996333">
        <ele>1253.0</ele>
        <time>2019-08-04T11:17:42.316Z</time>
      </trkpt>
      <trkpt lat="42.453255" lon="1.46996333">
        <ele>1253.0</ele>
        <time>2019-08-04T11:17:43.300Z</time>
      </trkpt>
      <trkpt lat="42.45326167" lon="1.46989667">
        <ele>1253.0</ele>
        <time>2019-08-04T11:17:44.303Z</time>
      </trkpt>
      <trkpt lat="42.45326167" lon="1.46989667">
        <ele>1253.0</ele>
        <time>2019-08-04T11:17:45.297Z</time>
      </trkpt>
      <trkpt lat="42.45326833" lon="1.46983167">
        <ele>1253.0</ele>
        <time>2019-08-04T11:17:46.303Z</time>
      </trkpt>
      <trkpt lat="42.45326833" lon="1.46983167">
        <ele>1253.0</ele>
        <time>2019-08-04T11:17:47.309Z</time>
      </trkpt>
      <trkpt lat="42.453275" lon="1.46977">
        <ele>1253.0</ele>
        <time>2019-08-04T11:17:48.301Z</time>
      </trkpt>
      <trkpt lat="42.453275" lon="1.46977">
        <ele>1253.0</ele>
        <time>2019-08-04T11:17:49.296Z</time>
      </trkpt>
      <trkpt lat="42.45327667" lon="1.469705">
        <ele>1254.0</ele>
        <time>2019-08-04T11:17:50.318Z</time>
      </trkpt>
      <trkpt lat="42.45327667" lon="1.469705">
        <ele>1254.0</ele>
        <time>2019-08-04T11:17:51.301Z</time>
      </trkpt>
      <trkpt lat="42.45328" lon="1.46964">
        <ele>1254.0</ele>
        <time>2019-08-04T11:17:52.319Z</time>
      </trkpt>
      <trkpt lat="42.45328333" lon="1.46960833">
        <ele>1254.0</ele>
        <time>2019-08-04T11:17:53.300Z</time>
      </trkpt>
      <trkpt lat="42.45328333" lon="1.46960833">
        <ele>1254.0</ele>
        <time>2019-08-04T11:17:54.296Z</time>
      </trkpt>
      <trkpt lat="42.45329" lon="1.46955">
        <ele>1254.0</ele>
        <time>2019-08-04T11:17:55.308Z</time>
      </trkpt>
      <trkpt lat="42.45329" lon="1.46955">
        <ele>1254.0</ele>
        <time>2019-08-04T11:17:56.297Z</time>
      </trkpt>
      <trkpt lat="42.45329167" lon="1.46948667">
        <ele>1255.0</ele>
        <time>2019-08-04T11:17:57.303Z</time>
      </trkpt>
      <trkpt lat="42.45329167" lon="1.46948667">
        <ele>1255.0</ele>
        <time>2019-08-04T11:17:58.299Z</time>
      </trkpt>
      <trkpt lat="42.45329333" lon="1.46942667">
        <ele>1255.0</ele>
        <time>2019-08-04T11:17:59.302Z</time>
      </trkpt>
      <trkpt lat="42.45329333" lon="1.46942667">
        <ele>1255.0</ele>
        <time>2019-08-04T11:18:00.296Z</time>
      </trkpt>
      <trkpt lat="42.453295" lon="1.46936333">
        <ele>1256.0</ele>
        <time>2019-08-04T11:18:01.316Z</time>
      </trkpt>
      <trkpt lat="42.45329333" lon="1.46933">
        <ele>1256.0</ele>
        <time>2019-08-04T11:18:02.323Z</time>
      </trkpt>
      <trkpt lat="42.45329333" lon="1.46933">
        <ele>1256.0</ele>
        <time>2019-08-04T11:18:03.303Z</time>
      </trkpt>
      <trkpt lat="42.453295" lon="1.46926667">
        <ele>1256.0</ele>
        <time>2019-08-04T11:18:04.307Z</time>
      </trkpt>
      <trkpt lat="42.453295" lon="1.46926667">
        <ele>1256.0</ele>
        <time>2019-08-04T11:18:05.336Z</time>
      </trkpt>
      <trkpt lat="42.45329667" lon="1.46920333">
        <ele>1256.0</ele>
        <time>2019-08-04T11:18:06.316Z</time>
      </trkpt>
      <trkpt lat="42.45329667" lon="1.46920333">
        <ele>1256.0</ele>
        <time>2019-08-04T11:18:07.296Z</time>
      </trkpt>
      <trkpt lat="42.45329667" lon="1.46914167">
        <ele>1257.0</ele>
        <time>2019-08-04T11:18:08.326Z</time>
      </trkpt>
      <trkpt lat="42.45329667" lon="1.46914167">
        <ele>1257.0</ele>
        <time>2019-08-04T11:18:09.306Z</time>
      </trkpt>
      <trkpt lat="42.45328667" lon="1.46908167">
        <ele>1257.0</ele>
        <time>2019-08-04T11:18:10.303Z</time>
      </trkpt>
      <trkpt lat="42.45328667" lon="1.46908167">
        <ele>1257.0</ele>
        <time>2019-08-04T11:18:11.296Z</time>
      </trkpt>
      <trkpt lat="42.45327167" lon="1.46902333">
        <ele>1257.0</ele>
        <time>2019-08-04T11:18:12.320Z</time>
      </trkpt>
      <trkpt lat="42.45327167" lon="1.46902333">
        <ele>1257.0</ele>
        <time>2019-08-04T11:18:13.299Z</time>
      </trkpt>
      <trkpt lat="42.45325" lon="1.46896833">
        <ele>1258.0</ele>
        <time>2019-08-04T11:18:14.308Z</time>
      </trkpt>
      <trkpt lat="42.45325" lon="1.46896833">
        <ele>1258.0</ele>
        <time>2019-08-04T11:18:15.298Z</time>
      </trkpt>
      <trkpt lat="42.453225" lon="1.468915">
        <ele>1258.0</ele>
        <time>2019-08-04T11:18:16.302Z</time>
      </trkpt>
      <trkpt lat="42.453225" lon="1.468915">
        <ele>1258.0</ele>
        <time>2019-08-04T11:18:17.335Z</time>
      </trkpt>
      <trkpt lat="42.45319667" lon="1.46886833">
        <ele>1259.0</ele>
        <time>2019-08-04T11:18:18.319Z</time>
      </trkpt>
      <trkpt lat="42.45319667" lon="1.46886833">
        <ele>1259.0</ele>
        <time>2019-08-04T11:18:19.299Z</time>
      </trkpt>
      <trkpt lat="42.45316667" lon="1.46882167">
        <ele>1259.0</ele>
        <time>2019-08-04T11:18:20.307Z</time>
      </trkpt>
      <trkpt lat="42.45316667" lon="1.46882167">
        <ele>1259.0</ele>
        <time>2019-08-04T11:18:21.335Z</time>
      </trkpt>
      <trkpt lat="42.453135" lon="1.468775">
        <ele>1259.0</ele>
        <time>2019-08-04T11:18:22.327Z</time>
      </trkpt>
      <trkpt lat="42.45312" lon="1.46875">
        <ele>1260.0</ele>
        <time>2019-08-04T11:18:23.310Z</time>
      </trkpt>
      <trkpt lat="42.45312" lon="1.46875">
        <ele>1260.0</ele>
        <time>2019-08-04T11:18:24.298Z</time>
      </trkpt>
      <trkpt lat="42.45309667" lon="1.46869333">
        <ele>1260.0</ele>
        <time>2019-08-04T11:18:25.301Z</time>
      </trkpt>
      <trkpt lat="42.45308667" lon="1.46866667">
        <ele>1260.0</ele>
        <time>2019-08-04T11:18:26.304Z</time>
      </trkpt>
      <trkpt lat="42.45308667" lon="1.46866667">
        <ele>1260.0</ele>
        <time>2019-08-04T11:18:27.307Z</time>
      </trkpt>
      <trkpt lat="42.45306833" lon="1.46861">
        <ele>1260.0</ele>
        <time>2019-08-04T11:18:28.306Z</time>
      </trkpt>
      <trkpt lat="42.45306833" lon="1.46861">
        <ele>1260.0</ele>
        <time>2019-08-04T11:18:29.335Z</time>
      </trkpt>
      <trkpt lat="42.45305333" lon="1.468545">
        <ele>1261.0</ele>
        <time>2019-08-04T11:18:30.332Z</time>
      </trkpt>
      <trkpt lat="42.45305333" lon="1.468545">
        <ele>1261.0</ele>
        <time>2019-08-04T11:18:31.298Z</time>
      </trkpt>
      <trkpt lat="42.45304667" lon="1.468485">
        <ele>1262.0</ele>
        <time>2019-08-04T11:18:32.307Z</time>
      </trkpt>
      <trkpt lat="42.45304667" lon="1.46845333">
        <ele>1262.0</ele>
        <time>2019-08-04T11:18:33.329Z</time>
      </trkpt>
      <trkpt lat="42.45304667" lon="1.46845333">
        <ele>1262.0</ele>
        <time>2019-08-04T11:18:34.309Z</time>
      </trkpt>
      <trkpt lat="42.45304667" lon="1.46838833">
        <ele>1262.0</ele>
        <time>2019-08-04T11:18:35.303Z</time>
      </trkpt>
      <trkpt lat="42.45304333" lon="1.46835667">
        <ele>1262.0</ele>
        <time>2019-08-04T11:18:36.298Z</time>
      </trkpt>
      <trkpt lat="42.45304333" lon="1.46835667">
        <ele>1262.0</ele>
        <time>2019-08-04T11:18:37.335Z</time>
      </trkpt>
      <trkpt lat="42.45303833" lon="1.46829">
        <ele>1263.0</ele>
        <time>2019-08-04T11:18:38.322Z</time>
      </trkpt>
      <trkpt lat="42.45303833" lon="1.46829">
        <ele>1263.0</ele>
        <time>2019-08-04T11:18:39.302Z</time>
      </trkpt>
      <trkpt lat="42.45304167" lon="1.46822667">
        <ele>1263.0</ele>
        <time>2019-08-04T11:18:40.304Z</time>
      </trkpt>
      <trkpt lat="42.45304167" lon="1.46822667">
        <ele>1263.0</ele>
        <time>2019-08-04T11:18:41.296Z</time>
      </trkpt>
      <trkpt lat="42.45304333" lon="1.46816">
        <ele>1263.0</ele>
        <time>2019-08-04T11:18:42.324Z</time>
      </trkpt>
      <trkpt lat="42.45304333" lon="1.46812833">
        <ele>1264.0</ele>
        <time>2019-08-04T11:18:43.305Z</time>
      </trkpt>
      <trkpt lat="42.45304333" lon="1.46812833">
        <ele>1264.0</ele>
        <time>2019-08-04T11:18:44.297Z</time>
      </trkpt>
      <trkpt lat="42.45304167" lon="1.468065">
        <ele>1264.0</ele>
        <time>2019-08-04T11:18:45.298Z</time>
      </trkpt>
      <trkpt lat="42.453045" lon="1.468035">
        <ele>1264.0</ele>
        <time>2019-08-04T11:18:46.303Z</time>
      </trkpt>
      <trkpt lat="42.453045" lon="1.468035">
        <ele>1264.0</ele>
        <time>2019-08-04T11:18:47.297Z</time>
      </trkpt>
      <trkpt lat="42.453045" lon="1.467975">
        <ele>1264.0</ele>
        <time>2019-08-04T11:18:48.299Z</time>
      </trkpt>
      <trkpt lat="42.453045" lon="1.467975">
        <ele>1264.0</ele>
        <time>2019-08-04T11:18:49.335Z</time>
      </trkpt>
      <trkpt lat="42.45304167" lon="1.46791667">
        <ele>1265.0</ele>
        <time>2019-08-04T11:18:50.317Z</time>
      </trkpt>
      <trkpt lat="42.45304167" lon="1.46791667">
        <ele>1265.0</ele>
        <time>2019-08-04T11:18:51.298Z</time>
      </trkpt>
      <trkpt lat="42.45303167" lon="1.467855">
        <ele>1265.0</ele>
        <time>2019-08-04T11:18:52.319Z</time>
      </trkpt>
      <trkpt lat="42.45302333" lon="1.46782667">
        <ele>1266.0</ele>
        <time>2019-08-04T11:18:53.301Z</time>
      </trkpt>
      <trkpt lat="42.45302333" lon="1.46782667">
        <ele>1266.0</ele>
        <time>2019-08-04T11:18:54.335Z</time>
      </trkpt>
      <trkpt lat="42.45300667" lon="1.46777">
        <ele>1266.0</ele>
        <time>2019-08-04T11:18:55.318Z</time>
      </trkpt>
      <trkpt lat="42.45299833" lon="1.46774167">
        <ele>1266.0</ele>
        <time>2019-08-04T11:18:56.303Z</time>
      </trkpt>
      <trkpt lat="42.45299833" lon="1.46774167">
        <ele>1266.0</ele>
        <time>2019-08-04T11:18:57.296Z</time>
      </trkpt>
      <trkpt lat="42.452975" lon="1.46769">
        <ele>1267.0</ele>
        <time>2019-08-04T11:18:58.319Z</time>
      </trkpt>
      <trkpt lat="42.452975" lon="1.46769">
        <ele>1267.0</ele>
        <time>2019-08-04T11:18:59.296Z</time>
      </trkpt>
      <trkpt lat="42.452945" lon="1.46764167">
        <ele>1267.0</ele>
        <time>2019-08-04T11:19:00.317Z</time>
      </trkpt>
      <trkpt lat="42.452945" lon="1.46764167">
        <ele>1267.0</ele>
        <time>2019-08-04T11:19:01.298Z</time>
      </trkpt>
      <trkpt lat="42.45291833" lon="1.46758833">
        <ele>1268.0</ele>
        <time>2019-08-04T11:19:02.325Z</time>
      </trkpt>
      <trkpt lat="42.45291833" lon="1.46758833">
        <ele>1268.0</ele>
        <time>2019-08-04T11:19:03.305Z</time>
      </trkpt>
      <trkpt lat="42.45290167" lon="1.46753333">
        <ele>1268.0</ele>
        <time>2019-08-04T11:19:04.303Z</time>
      </trkpt>
      <trkpt lat="42.45290167" lon="1.46753333">
        <ele>1268.0</ele>
        <time>2019-08-04T11:19:05.336Z</time>
      </trkpt>
      <trkpt lat="42.45289833" lon="1.46747833">
        <ele>1268.0</ele>
        <time>2019-08-04T11:19:06.305Z</time>
      </trkpt>
      <trkpt lat="42.45289833" lon="1.46747833">
        <ele>1268.0</ele>
        <time>2019-08-04T11:19:07.296Z</time>
      </trkpt>
      <trkpt lat="42.45289833" lon="1.46741">
        <ele>1269.0</ele>
        <time>2019-08-04T11:19:08.319Z</time>
      </trkpt>
      <trkpt lat="42.45289833" lon="1.46741">
        <ele>1269.0</ele>
        <time>2019-08-04T11:19:09.297Z</time>
      </trkpt>
      <trkpt lat="42.45290333" lon="1.467345">
        <ele>1269.0</ele>
        <time>2019-08-04T11:19:10.304Z</time>
      </trkpt>
      <trkpt lat="42.45290333" lon="1.467345">
        <ele>1269.0</ele>
        <time>2019-08-04T11:19:11.296Z</time>
      </trkpt>
      <trkpt lat="42.45291167" lon="1.46728167">
        <ele>1270.0</ele>
        <time>2019-08-04T11:19:12.325Z</time>
      </trkpt>
      <trkpt lat="42.45291167" lon="1.46728167">
        <ele>1270.0</ele>
        <time>2019-08-04T11:19:13.306Z</time>
      </trkpt>
      <trkpt lat="42.45292167" lon="1.46722167">
        <ele>1271.0</ele>
        <time>2019-08-04T11:19:14.303Z</time>
      </trkpt>
      <trkpt lat="42.45292167" lon="1.46722167">
        <ele>1271.0</ele>
        <time>2019-08-04T11:19:15.297Z</time>
      </trkpt>
      <trkpt lat="42.45294" lon="1.46716333">
        <ele>1271.0</ele>
        <time>2019-08-04T11:19:16.303Z</time>
      </trkpt>
      <trkpt lat="42.45294" lon="1.46716333">
        <ele>1271.0</ele>
        <time>2019-08-04T11:19:17.299Z</time>
      </trkpt>
      <trkpt lat="42.45296" lon="1.46710833">
        <ele>1272.0</ele>
        <time>2019-08-04T11:19:18.314Z</time>
      </trkpt>
      <trkpt lat="42.45296833" lon="1.46708167">
        <ele>1272.0</ele>
        <time>2019-08-04T11:19:19.317Z</time>
      </trkpt>
      <trkpt lat="42.45296833" lon="1.46708167">
        <ele>1272.0</ele>
        <time>2019-08-04T11:19:20.310Z</time>
      </trkpt>
      <trkpt lat="42.452985" lon="1.46701833">
        <ele>1273.0</ele>
        <time>2019-08-04T11:19:21.298Z</time>
      </trkpt>
      <trkpt lat="42.452995" lon="1.46698333">
        <ele>1273.0</ele>
        <time>2019-08-04T11:19:22.325Z</time>
      </trkpt>
      <trkpt lat="42.452995" lon="1.46698333">
        <ele>1273.0</ele>
        <time>2019-08-04T11:19:23.305Z</time>
      </trkpt>
      <trkpt lat="42.45301" lon="1.46691667">
        <ele>1274.0</ele>
        <time>2019-08-04T11:19:24.303Z</time>
      </trkpt>
      <trkpt lat="42.45301667" lon="1.46688167">
        <ele>1274.0</ele>
        <time>2019-08-04T11:19:25.304Z</time>
      </trkpt>
      <trkpt lat="42.45301667" lon="1.46688167">
        <ele>1274.0</ele>
        <time>2019-08-04T11:19:26.303Z</time>
      </trkpt>
      <trkpt lat="42.45303667" lon="1.46682">
        <ele>1274.0</ele>
        <time>2019-08-04T11:19:27.303Z</time>
      </trkpt>
      <trkpt lat="42.45303667" lon="1.46682">
        <ele>1274.0</ele>
        <time>2019-08-04T11:19:28.297Z</time>
      </trkpt>
      <trkpt lat="42.45305833" lon="1.46676167">
        <ele>1275.0</ele>
        <time>2019-08-04T11:19:29.298Z</time>
      </trkpt>
      <trkpt lat="42.45305833" lon="1.46676167">
        <ele>1275.0</ele>
        <time>2019-08-04T11:19:30.332Z</time>
      </trkpt>
      <trkpt lat="42.45307833" lon="1.46669833">
        <ele>1276.0</ele>
        <time>2019-08-04T11:19:31.298Z</time>
      </trkpt>
      <trkpt lat="42.45308667" lon="1.46667">
        <ele>1276.0</ele>
        <time>2019-08-04T11:19:32.303Z</time>
      </trkpt>
      <trkpt lat="42.45308667" lon="1.46667">
        <ele>1276.0</ele>
        <time>2019-08-04T11:19:33.296Z</time>
      </trkpt>
      <trkpt lat="42.45310333" lon="1.46661333">
        <ele>1277.0</ele>
        <time>2019-08-04T11:19:34.317Z</time>
      </trkpt>
      <trkpt lat="42.45310333" lon="1.46661333">
        <ele>1277.0</ele>
        <time>2019-08-04T11:19:35.298Z</time>
      </trkpt>
      <trkpt lat="42.45312" lon="1.46655167">
        <ele>1277.0</ele>
        <time>2019-08-04T11:19:36.303Z</time>
      </trkpt>
      <trkpt lat="42.45312" lon="1.46655167">
        <ele>1277.0</ele>
        <time>2019-08-04T11:19:37.296Z</time>
      </trkpt>
      <trkpt lat="42.45313167" lon="1.46649">
        <ele>1278.0</ele>
        <time>2019-08-04T11:19:38.317Z</time>
      </trkpt>
      <trkpt lat="42.45313167" lon="1.46649">
        <ele>1278.0</ele>
        <time>2019-08-04T11:19:39.298Z</time>
      </trkpt>
      <trkpt lat="42.45314167" lon="1.46643">
        <ele>1278.0</ele>
        <time>2019-08-04T11:19:40.327Z</time>
      </trkpt>
      <trkpt lat="42.45314667" lon="1.4664">
        <ele>1279.0</ele>
        <time>2019-08-04T11:19:41.311Z</time>
      </trkpt>
      <trkpt lat="42.45314667" lon="1.4664">
        <ele>1279.0</ele>
        <time>2019-08-04T11:19:42.311Z</time>
      </trkpt>
      <trkpt lat="42.45314167" lon="1.46633667">
        <ele>1279.0</ele>
        <time>2019-08-04T11:19:43.299Z</time>
      </trkpt>
      <trkpt lat="42.45313667" lon="1.466305">
        <ele>1279.0</ele>
        <time>2019-08-04T11:19:44.305Z</time>
      </trkpt>
      <trkpt lat="42.45313667" lon="1.466305">
        <ele>1279.0</ele>
        <time>2019-08-04T11:19:45.335Z</time>
      </trkpt>
      <trkpt lat="42.45312833" lon="1.46624167">
        <ele>1279.0</ele>
        <time>2019-08-04T11:19:46.317Z</time>
      </trkpt>
      <trkpt lat="42.45312833" lon="1.46624167">
        <ele>1279.0</ele>
        <time>2019-08-04T11:19:47.298Z</time>
      </trkpt>
      <trkpt lat="42.45312" lon="1.46617167">
        <ele>1279.0</ele>
        <time>2019-08-04T11:19:48.305Z</time>
      </trkpt>
      <trkpt lat="42.45312" lon="1.46617167">
        <ele>1279.0</ele>
        <time>2019-08-04T11:19:49.332Z</time>
      </trkpt>
      <trkpt lat="42.45311" lon="1.46610333">
        <ele>1279.0</ele>
        <time>2019-08-04T11:19:50.317Z</time>
      </trkpt>
      <trkpt lat="42.45311" lon="1.46610333">
        <ele>1279.0</ele>
        <time>2019-08-04T11:19:51.298Z</time>
      </trkpt>
      <trkpt lat="42.45309667" lon="1.46603667">
        <ele>1280.0</ele>
        <time>2019-08-04T11:19:52.320Z</time>
      </trkpt>
      <trkpt lat="42.45309667" lon="1.46603667">
        <ele>1280.0</ele>
        <time>2019-08-04T11:19:53.301Z</time>
      </trkpt>
      <trkpt lat="42.453085" lon="1.465975">
        <ele>1280.0</ele>
        <time>2019-08-04T11:19:54.302Z</time>
      </trkpt>
      <trkpt lat="42.45308" lon="1.46594167">
        <ele>1280.0</ele>
        <time>2019-08-04T11:19:55.308Z</time>
      </trkpt>
      <trkpt lat="42.45308" lon="1.46594167">
        <ele>1280.0</ele>
        <time>2019-08-04T11:19:56.298Z</time>
      </trkpt>
      <trkpt lat="42.45306667" lon="1.46588">
        <ele>1280.0</ele>
        <time>2019-08-04T11:19:57.305Z</time>
      </trkpt>
      <trkpt lat="42.45306667" lon="1.46588">
        <ele>1280.0</ele>
        <time>2019-08-04T11:19:58.297Z</time>
      </trkpt>
      <trkpt lat="42.45305" lon="1.46581833">
        <ele>1280.0</ele>
        <time>2019-08-04T11:19:59.320Z</time>
      </trkpt>
      <trkpt lat="42.45304167" lon="1.46578833">
        <ele>1280.0</ele>
        <time>2019-08-04T11:20:00.306Z</time>
      </trkpt>
      <trkpt lat="42.45304167" lon="1.46578833">
        <ele>1280.0</ele>
        <time>2019-08-04T11:20:01.296Z</time>
      </trkpt>
      <trkpt lat="42.45302167" lon="1.46573167">
        <ele>1280.0</ele>
        <time>2019-08-04T11:20:02.320Z</time>
      </trkpt>
      <trkpt lat="42.45302167" lon="1.46573167">
        <ele>1280.0</ele>
        <time>2019-08-04T11:20:03.300Z</time>
      </trkpt>
      <trkpt lat="42.45301167" lon="1.465675">
        <ele>1280.0</ele>
        <time>2019-08-04T11:20:04.303Z</time>
      </trkpt>
      <trkpt lat="42.45301167" lon="1.465675">
        <ele>1280.0</ele>
        <time>2019-08-04T11:20:05.296Z</time>
      </trkpt>
      <trkpt lat="42.45299167" lon="1.46561333">
        <ele>1281.0</ele>
        <time>2019-08-04T11:20:06.303Z</time>
      </trkpt>
      <trkpt lat="42.45299167" lon="1.46561333">
        <ele>1281.0</ele>
        <time>2019-08-04T11:20:07.298Z</time>
      </trkpt>
      <trkpt lat="42.45297167" lon="1.46555667">
        <ele>1281.0</ele>
        <time>2019-08-04T11:20:08.305Z</time>
      </trkpt>
      <trkpt lat="42.45297167" lon="1.46555667">
        <ele>1281.0</ele>
        <time>2019-08-04T11:20:09.330Z</time>
      </trkpt>
      <trkpt lat="42.45295667" lon="1.46549667">
        <ele>1282.0</ele>
        <time>2019-08-04T11:20:10.302Z</time>
      </trkpt>
      <trkpt lat="42.45295667" lon="1.46549667">
        <ele>1282.0</ele>
        <time>2019-08-04T11:20:11.296Z</time>
      </trkpt>
      <trkpt lat="42.452945" lon="1.46543833">
        <ele>1282.0</ele>
        <time>2019-08-04T11:20:12.319Z</time>
      </trkpt>
      <trkpt lat="42.452945" lon="1.46543833">
        <ele>1282.0</ele>
        <time>2019-08-04T11:20:13.302Z</time>
      </trkpt>
      <trkpt lat="42.45293667" lon="1.46537667">
        <ele>1283.0</ele>
        <time>2019-08-04T11:20:14.302Z</time>
      </trkpt>
      <trkpt lat="42.45293667" lon="1.46537667">
        <ele>1283.0</ele>
        <time>2019-08-04T11:20:15.296Z</time>
      </trkpt>
      <trkpt lat="42.45292833" lon="1.465315">
        <ele>1284.0</ele>
        <time>2019-08-04T11:20:16.317Z</time>
      </trkpt>
      <trkpt lat="42.45292833" lon="1.465285">
        <ele>1284.0</ele>
        <time>2019-08-04T11:20:17.308Z</time>
      </trkpt>
      <trkpt lat="42.45292833" lon="1.465285">
        <ele>1284.0</ele>
        <time>2019-08-04T11:20:18.296Z</time>
      </trkpt>
      <trkpt lat="42.45294" lon="1.46522667">
        <ele>1285.0</ele>
        <time>2019-08-04T11:20:19.324Z</time>
      </trkpt>
      <trkpt lat="42.45294667" lon="1.46519667">
        <ele>1285.0</ele>
        <time>2019-08-04T11:20:20.305Z</time>
      </trkpt>
      <trkpt lat="42.45294667" lon="1.46519667">
        <ele>1285.0</ele>
        <time>2019-08-04T11:20:21.335Z</time>
      </trkpt>
      <trkpt lat="42.45295667" lon="1.46513833">
        <ele>1286.0</ele>
        <time>2019-08-04T11:20:22.326Z</time>
      </trkpt>
      <trkpt lat="42.45295833" lon="1.465105">
        <ele>1286.0</ele>
        <time>2019-08-04T11:20:23.307Z</time>
      </trkpt>
      <trkpt lat="42.45295833" lon="1.465105">
        <ele>1286.0</ele>
        <time>2019-08-04T11:20:24.304Z</time>
      </trkpt>
      <trkpt lat="42.45296167" lon="1.46504">
        <ele>1286.0</ele>
        <time>2019-08-04T11:20:25.303Z</time>
      </trkpt>
      <trkpt lat="42.45296167" lon="1.46504">
        <ele>1286.0</ele>
        <time>2019-08-04T11:20:26.297Z</time>
      </trkpt>
      <trkpt lat="42.45296833" lon="1.46497667">
        <ele>1287.0</ele>
        <time>2019-08-04T11:20:27.303Z</time>
      </trkpt>
      <trkpt lat="42.45296833" lon="1.464945">
        <ele>1287.0</ele>
        <time>2019-08-04T11:20:28.303Z</time>
      </trkpt>
      <trkpt lat="42.45296833" lon="1.464945">
        <ele>1287.0</ele>
        <time>2019-08-04T11:20:29.303Z</time>
      </trkpt>
      <trkpt lat="42.45296" lon="1.464875">
        <ele>1288.0</ele>
        <time>2019-08-04T11:20:30.298Z</time>
      </trkpt>
      <trkpt lat="42.45296" lon="1.464875">
        <ele>1288.0</ele>
        <time>2019-08-04T11:20:31.304Z</time>
      </trkpt>
      <trkpt lat="42.45294667" lon="1.46480167">
        <ele>1288.0</ele>
        <time>2019-08-04T11:20:32.311Z</time>
      </trkpt>
      <trkpt lat="42.45294167" lon="1.46476667">
        <ele>1288.0</ele>
        <time>2019-08-04T11:20:33.303Z</time>
      </trkpt>
      <trkpt lat="42.45293333" lon="1.46473">
        <ele>1288.0</ele>
        <time>2019-08-04T11:20:34.304Z</time>
      </trkpt>
      <trkpt lat="42.45293333" lon="1.46473">
        <ele>1288.0</ele>
        <time>2019-08-04T11:20:35.297Z</time>
      </trkpt>
      <trkpt lat="42.45291833" lon="1.46466333">
        <ele>1288.0</ele>
        <time>2019-08-04T11:20:36.317Z</time>
      </trkpt>
      <trkpt lat="42.45291833" lon="1.46466333">
        <ele>1288.0</ele>
        <time>2019-08-04T11:20:37.300Z</time>
      </trkpt>
      <trkpt lat="42.45290333" lon="1.46459667">
        <ele>1288.0</ele>
        <time>2019-08-04T11:20:38.302Z</time>
      </trkpt>
      <trkpt lat="42.45290333" lon="1.46459667">
        <ele>1288.0</ele>
        <time>2019-08-04T11:20:39.297Z</time>
      </trkpt>
      <trkpt lat="42.45288833" lon="1.46452833">
        <ele>1288.0</ele>
        <time>2019-08-04T11:20:40.304Z</time>
      </trkpt>
      <trkpt lat="42.45288833" lon="1.46452833">
        <ele>1288.0</ele>
        <time>2019-08-04T11:20:41.297Z</time>
      </trkpt>
      <trkpt lat="42.45287667" lon="1.46446667">
        <ele>1289.0</ele>
        <time>2019-08-04T11:20:42.324Z</time>
      </trkpt>
      <trkpt lat="42.45287667" lon="1.46446667">
        <ele>1289.0</ele>
        <time>2019-08-04T11:20:43.306Z</time>
      </trkpt>
      <trkpt lat="42.45286" lon="1.46440333">
        <ele>1289.0</ele>
        <time>2019-08-04T11:20:44.305Z</time>
      </trkpt>
      <trkpt lat="42.45286" lon="1.46440333">
        <ele>1289.0</ele>
        <time>2019-08-04T11:20:45.296Z</time>
      </trkpt>
      <trkpt lat="42.45284333" lon="1.46434667">
        <ele>1289.0</ele>
        <time>2019-08-04T11:20:46.304Z</time>
      </trkpt>
      <trkpt lat="42.45284333" lon="1.46434667">
        <ele>1289.0</ele>
        <time>2019-08-04T11:20:47.297Z</time>
      </trkpt>
      <trkpt lat="42.452825" lon="1.46428833">
        <ele>1289.0</ele>
        <time>2019-08-04T11:20:48.317Z</time>
      </trkpt>
      <trkpt lat="42.452825" lon="1.46428833">
        <ele>1289.0</ele>
        <time>2019-08-04T11:20:49.298Z</time>
      </trkpt>
      <trkpt lat="42.45280333" lon="1.46422833">
        <ele>1289.0</ele>
        <time>2019-08-04T11:20:50.303Z</time>
      </trkpt>
      <trkpt lat="42.45280333" lon="1.46422833">
        <ele>1289.0</ele>
        <time>2019-08-04T11:20:51.296Z</time>
      </trkpt>
      <trkpt lat="42.45278" lon="1.46417333">
        <ele>1289.0</ele>
        <time>2019-08-04T11:20:52.319Z</time>
      </trkpt>
      <trkpt lat="42.45278" lon="1.46417333">
        <ele>1289.0</ele>
        <time>2019-08-04T11:20:53.300Z</time>
      </trkpt>
      <trkpt lat="42.45275833" lon="1.46411667">
        <ele>1289.0</ele>
        <time>2019-08-04T11:20:54.302Z</time>
      </trkpt>
      <trkpt lat="42.45275833" lon="1.46411667">
        <ele>1289.0</ele>
        <time>2019-08-04T11:20:55.301Z</time>
      </trkpt>
      <trkpt lat="42.452735" lon="1.46406">
        <ele>1289.0</ele>
        <time>2019-08-04T11:20:56.305Z</time>
      </trkpt>
      <trkpt lat="42.452735" lon="1.46406">
        <ele>1289.0</ele>
        <time>2019-08-04T11:20:57.296Z</time>
      </trkpt>
      <trkpt lat="42.452715" lon="1.46400167">
        <ele>1290.0</ele>
        <time>2019-08-04T11:20:58.317Z</time>
      </trkpt>
      <trkpt lat="42.452715" lon="1.46400167">
        <ele>1290.0</ele>
        <time>2019-08-04T11:20:59.297Z</time>
      </trkpt>
      <trkpt lat="42.45269" lon="1.46394833">
        <ele>1290.0</ele>
        <time>2019-08-04T11:21:00.317Z</time>
      </trkpt>
      <trkpt lat="42.45268" lon="1.46392167">
        <ele>1290.0</ele>
        <time>2019-08-04T11:21:01.303Z</time>
      </trkpt>
      <trkpt lat="42.45266833" lon="1.46389667">
        <ele>1290.0</ele>
        <time>2019-08-04T11:21:02.326Z</time>
      </trkpt>
      <trkpt lat="42.45266833" lon="1.46389667">
        <ele>1290.0</ele>
        <time>2019-08-04T11:21:03.306Z</time>
      </trkpt>
      <trkpt lat="42.45264333" lon="1.46384167">
        <ele>1291.0</ele>
        <time>2019-08-04T11:21:04.304Z</time>
      </trkpt>
      <trkpt lat="42.45264333" lon="1.46384167">
        <ele>1291.0</ele>
        <time>2019-08-04T11:21:05.335Z</time>
      </trkpt>
      <trkpt lat="42.452615" lon="1.46379">
        <ele>1291.0</ele>
        <time>2019-08-04T11:21:06.319Z</time>
      </trkpt>
      <trkpt lat="42.452615" lon="1.46379">
        <ele>1291.0</ele>
        <time>2019-08-04T11:21:07.300Z</time>
      </trkpt>
      <trkpt lat="42.45258833" lon="1.46373833">
        <ele>1292.0</ele>
        <time>2019-08-04T11:21:08.305Z</time>
      </trkpt>
      <trkpt lat="42.45258833" lon="1.46373833">
        <ele>1292.0</ele>
        <time>2019-08-04T11:21:09.299Z</time>
      </trkpt>
      <trkpt lat="42.45255833" lon="1.46369">
        <ele>1292.0</ele>
        <time>2019-08-04T11:21:10.303Z</time>
      </trkpt>
      <trkpt lat="42.45255833" lon="1.46369">
        <ele>1292.0</ele>
        <time>2019-08-04T11:21:11.306Z</time>
      </trkpt>
      <trkpt lat="42.45253" lon="1.46364333">
        <ele>1292.0</ele>
        <time>2019-08-04T11:21:12.324Z</time>
      </trkpt>
      <trkpt lat="42.45253" lon="1.46364333">
        <ele>1292.0</ele>
        <time>2019-08-04T11:21:13.305Z</time>
      </trkpt>
      <trkpt lat="42.452495" lon="1.463595">
        <ele>1293.0</ele>
        <time>2019-08-04T11:21:14.306Z</time>
      </trkpt>
      <trkpt lat="42.452495" lon="1.463595">
        <ele>1293.0</ele>
        <time>2019-08-04T11:21:15.298Z</time>
      </trkpt>
      <trkpt lat="42.45245833" lon="1.46355333">
        <ele>1293.0</ele>
        <time>2019-08-04T11:21:16.305Z</time>
      </trkpt>
      <trkpt lat="42.45245833" lon="1.46355333">
        <ele>1293.0</ele>
        <time>2019-08-04T11:21:17.304Z</time>
      </trkpt>
      <trkpt lat="42.45242" lon="1.463515">
        <ele>1294.0</ele>
        <time>2019-08-04T11:21:18.303Z</time>
      </trkpt>
      <trkpt lat="42.45242" lon="1.463515">
        <ele>1294.0</ele>
        <time>2019-08-04T11:21:19.297Z</time>
      </trkpt>
      <trkpt lat="42.452385" lon="1.46347333">
        <ele>1294.0</ele>
        <time>2019-08-04T11:21:20.326Z</time>
      </trkpt>
      <trkpt lat="42.45236667" lon="1.46345167">
        <ele>1294.0</ele>
        <time>2019-08-04T11:21:21.306Z</time>
      </trkpt>
      <trkpt lat="42.45234833" lon="1.46343167">
        <ele>1295.0</ele>
        <time>2019-08-04T11:21:22.327Z</time>
      </trkpt>
      <trkpt lat="42.45234833" lon="1.46343167">
        <ele>1295.0</ele>
        <time>2019-08-04T11:21:23.307Z</time>
      </trkpt>
      <trkpt lat="42.45230667" lon="1.46339333">
        <ele>1295.0</ele>
        <time>2019-08-04T11:21:24.301Z</time>
      </trkpt>
      <trkpt lat="42.45230667" lon="1.46339333">
        <ele>1295.0</ele>
        <time>2019-08-04T11:21:25.326Z</time>
      </trkpt>
      <trkpt lat="42.45226833" lon="1.46335667">
        <ele>1296.0</ele>
        <time>2019-08-04T11:21:26.308Z</time>
      </trkpt>
      <trkpt lat="42.45226833" lon="1.46335667">
        <ele>1296.0</ele>
        <time>2019-08-04T11:21:27.297Z</time>
      </trkpt>
      <trkpt lat="42.45224" lon="1.46331167">
        <ele>1297.0</ele>
        <time>2019-08-04T11:21:28.318Z</time>
      </trkpt>
      <trkpt lat="42.45224" lon="1.46331167">
        <ele>1297.0</ele>
        <time>2019-08-04T11:21:29.307Z</time>
      </trkpt>
      <trkpt lat="42.45221167" lon="1.463265">
        <ele>1297.0</ele>
        <time>2019-08-04T11:21:30.300Z</time>
      </trkpt>
      <trkpt lat="42.45220167" lon="1.46323833">
        <ele>1297.0</ele>
        <time>2019-08-04T11:21:31.306Z</time>
      </trkpt>
      <trkpt lat="42.452195" lon="1.46320833">
        <ele>1297.0</ele>
        <time>2019-08-04T11:21:32.320Z</time>
      </trkpt>
      <trkpt lat="42.452195" lon="1.46320833">
        <ele>1297.0</ele>
        <time>2019-08-04T11:21:33.301Z</time>
      </trkpt>
      <trkpt lat="42.452185" lon="1.46315167">
        <ele>1298.0</ele>
        <time>2019-08-04T11:21:34.303Z</time>
      </trkpt>
      <trkpt lat="42.452185" lon="1.46315167">
        <ele>1298.0</ele>
        <time>2019-08-04T11:21:35.308Z</time>
      </trkpt>
      <trkpt lat="42.45217" lon="1.46309333">
        <ele>1298.0</ele>
        <time>2019-08-04T11:21:36.301Z</time>
      </trkpt>
      <trkpt lat="42.45216333" lon="1.46306333">
        <ele>1298.0</ele>
        <time>2019-08-04T11:21:37.304Z</time>
      </trkpt>
      <trkpt lat="42.45216333" lon="1.46306333">
        <ele>1298.0</ele>
        <time>2019-08-04T11:21:38.298Z</time>
      </trkpt>
      <trkpt lat="42.45215167" lon="1.46300333">
        <ele>1299.0</ele>
        <time>2019-08-04T11:21:39.303Z</time>
      </trkpt>
      <trkpt lat="42.45215167" lon="1.46300333">
        <ele>1299.0</ele>
        <time>2019-08-04T11:21:40.332Z</time>
      </trkpt>
      <trkpt lat="42.45213833" lon="1.462945">
        <ele>1299.0</ele>
        <time>2019-08-04T11:21:41.326Z</time>
      </trkpt>
      <trkpt lat="42.45213833" lon="1.462945">
        <ele>1299.0</ele>
        <time>2019-08-04T11:21:42.309Z</time>
      </trkpt>
      <trkpt lat="42.45212833" lon="1.462885">
        <ele>1299.0</ele>
        <time>2019-08-04T11:21:43.303Z</time>
      </trkpt>
      <trkpt lat="42.45212333" lon="1.46285667">
        <ele>1300.0</ele>
        <time>2019-08-04T11:21:44.303Z</time>
      </trkpt>
      <trkpt lat="42.45212333" lon="1.46285667">
        <ele>1300.0</ele>
        <time>2019-08-04T11:21:45.299Z</time>
      </trkpt>
      <trkpt lat="42.45212" lon="1.46279667">
        <ele>1300.0</ele>
        <time>2019-08-04T11:21:46.305Z</time>
      </trkpt>
      <trkpt lat="42.45212" lon="1.46279667">
        <ele>1300.0</ele>
        <time>2019-08-04T11:21:47.298Z</time>
      </trkpt>
      <trkpt lat="42.452115" lon="1.46273667">
        <ele>1301.0</ele>
        <time>2019-08-04T11:21:48.304Z</time>
      </trkpt>
      <trkpt lat="42.452115" lon="1.46273667">
        <ele>1301.0</ele>
        <time>2019-08-04T11:21:49.298Z</time>
      </trkpt>
      <trkpt lat="42.45210167" lon="1.46267667">
        <ele>1302.0</ele>
        <time>2019-08-04T11:21:50.325Z</time>
      </trkpt>
      <trkpt lat="42.45209667" lon="1.46264667">
        <ele>1302.0</ele>
        <time>2019-08-04T11:21:51.308Z</time>
      </trkpt>
      <trkpt lat="42.45209667" lon="1.46264667">
        <ele>1302.0</ele>
        <time>2019-08-04T11:21:52.313Z</time>
      </trkpt>
      <trkpt lat="42.45208167" lon="1.46259167">
        <ele>1302.0</ele>
        <time>2019-08-04T11:21:53.302Z</time>
      </trkpt>
      <trkpt lat="42.45208167" lon="1.46259167">
        <ele>1302.0</ele>
        <time>2019-08-04T11:21:54.297Z</time>
      </trkpt>
      <trkpt lat="42.45204167" lon="1.46255333">
        <ele>1303.0</ele>
        <time>2019-08-04T11:21:55.308Z</time>
      </trkpt>
      <trkpt lat="42.45201833" lon="1.46254333">
        <ele>1303.0</ele>
        <time>2019-08-04T11:21:56.303Z</time>
      </trkpt>
      <trkpt lat="42.45201833" lon="1.46254333">
        <ele>1303.0</ele>
        <time>2019-08-04T11:21:57.297Z</time>
      </trkpt>
      <trkpt lat="42.451975" lon="1.46254167">
        <ele>1303.0</ele>
        <time>2019-08-04T11:21:58.318Z</time>
      </trkpt>
      <trkpt lat="42.451975" lon="1.46254167">
        <ele>1303.0</ele>
        <time>2019-08-04T11:21:59.299Z</time>
      </trkpt>
      <trkpt lat="42.45192667" lon="1.462545">
        <ele>1304.0</ele>
        <time>2019-08-04T11:22:00.303Z</time>
      </trkpt>
      <trkpt lat="42.45192667" lon="1.462545">
        <ele>1304.0</ele>
        <time>2019-08-04T11:22:01.297Z</time>
      </trkpt>
      <trkpt lat="42.451885" lon="1.462575">
        <ele>1304.0</ele>
        <time>2019-08-04T11:22:02.320Z</time>
      </trkpt>
      <trkpt lat="42.451885" lon="1.462575">
        <ele>1304.0</ele>
        <time>2019-08-04T11:22:03.301Z</time>
      </trkpt>
      <trkpt lat="42.451855" lon="1.46261167">
        <ele>1305.0</ele>
        <time>2019-08-04T11:22:04.303Z</time>
      </trkpt>
      <trkpt lat="42.451855" lon="1.46261167">
        <ele>1305.0</ele>
        <time>2019-08-04T11:22:05.299Z</time>
      </trkpt>
      <trkpt lat="42.45182833" lon="1.46266667">
        <ele>1305.0</ele>
        <time>2019-08-04T11:22:06.303Z</time>
      </trkpt>
      <trkpt lat="42.45182833" lon="1.46266667">
        <ele>1305.0</ele>
        <time>2019-08-04T11:22:07.298Z</time>
      </trkpt>
      <trkpt lat="42.45181667" lon="1.46272333">
        <ele>1306.0</ele>
        <time>2019-08-04T11:22:08.318Z</time>
      </trkpt>
      <trkpt lat="42.45181667" lon="1.46272333">
        <ele>1306.0</ele>
        <time>2019-08-04T11:22:09.300Z</time>
      </trkpt>
      <trkpt lat="42.45180333" lon="1.46278667">
        <ele>1307.0</ele>
        <time>2019-08-04T11:22:10.332Z</time>
      </trkpt>
      <trkpt lat="42.45180333" lon="1.46281833">
        <ele>1307.0</ele>
        <time>2019-08-04T11:22:11.320Z</time>
      </trkpt>
      <trkpt lat="42.45180333" lon="1.46281833">
        <ele>1307.0</ele>
        <time>2019-08-04T11:22:12.312Z</time>
      </trkpt>
      <trkpt lat="42.4518" lon="1.46288167">
        <ele>1308.0</ele>
        <time>2019-08-04T11:22:13.318Z</time>
      </trkpt>
      <trkpt lat="42.451795" lon="1.46291333">
        <ele>1308.0</ele>
        <time>2019-08-04T11:22:14.304Z</time>
      </trkpt>
      <trkpt lat="42.451795" lon="1.46291333">
        <ele>1308.0</ele>
        <time>2019-08-04T11:22:15.297Z</time>
      </trkpt>
      <trkpt lat="42.451785" lon="1.46297667">
        <ele>1309.0</ele>
        <time>2019-08-04T11:22:16.303Z</time>
      </trkpt>
      <trkpt lat="42.451785" lon="1.46297667">
        <ele>1309.0</ele>
        <time>2019-08-04T11:22:17.298Z</time>
      </trkpt>
      <trkpt lat="42.45177667" lon="1.46303833">
        <ele>1309.0</ele>
        <time>2019-08-04T11:22:18.318Z</time>
      </trkpt>
      <trkpt lat="42.45177667" lon="1.46303833">
        <ele>1309.0</ele>
        <time>2019-08-04T11:22:19.300Z</time>
      </trkpt>
      <trkpt lat="42.45176833" lon="1.4631">
        <ele>1310.0</ele>
        <time>2019-08-04T11:22:20.303Z</time>
      </trkpt>
      <trkpt lat="42.45176833" lon="1.46313167">
        <ele>1310.0</ele>
        <time>2019-08-04T11:22:21.302Z</time>
      </trkpt>
      <trkpt lat="42.45176833" lon="1.46313167">
        <ele>1310.0</ele>
        <time>2019-08-04T11:22:22.313Z</time>
      </trkpt>
      <trkpt lat="42.45176667" lon="1.46319667">
        <ele>1311.0</ele>
        <time>2019-08-04T11:22:23.303Z</time>
      </trkpt>
      <trkpt lat="42.45176667" lon="1.46319667">
        <ele>1311.0</ele>
        <time>2019-08-04T11:22:24.297Z</time>
      </trkpt>
      <trkpt lat="42.45176167" lon="1.46326">
        <ele>1311.0</ele>
        <time>2019-08-04T11:22:25.303Z</time>
      </trkpt>
      <trkpt lat="42.45176167" lon="1.46329167">
        <ele>1311.0</ele>
        <time>2019-08-04T11:22:26.304Z</time>
      </trkpt>
      <trkpt lat="42.45176167" lon="1.46329167">
        <ele>1311.0</ele>
        <time>2019-08-04T11:22:27.297Z</time>
      </trkpt>
      <trkpt lat="42.45176167" lon="1.46335333">
        <ele>1312.0</ele>
        <time>2019-08-04T11:22:28.318Z</time>
      </trkpt>
      <trkpt lat="42.45176167" lon="1.46335333">
        <ele>1312.0</ele>
        <time>2019-08-04T11:22:29.298Z</time>
      </trkpt>
      <trkpt lat="42.45175833" lon="1.463415">
        <ele>1312.0</ele>
        <time>2019-08-04T11:22:30.298Z</time>
      </trkpt>
      <trkpt lat="42.45175833" lon="1.463415">
        <ele>1312.0</ele>
        <time>2019-08-04T11:22:31.304Z</time>
      </trkpt>
      <trkpt lat="42.45175833" lon="1.46347833">
        <ele>1313.0</ele>
        <time>2019-08-04T11:22:32.332Z</time>
      </trkpt>
      <trkpt lat="42.45175833" lon="1.46347833">
        <ele>1313.0</ele>
        <time>2019-08-04T11:22:33.313Z</time>
      </trkpt>
      <trkpt lat="42.45177333" lon="1.46354">
        <ele>1313.0</ele>
        <time>2019-08-04T11:22:34.303Z</time>
      </trkpt>
      <trkpt lat="42.45177333" lon="1.46354">
        <ele>1313.0</ele>
        <time>2019-08-04T11:22:35.313Z</time>
      </trkpt>
      <trkpt lat="42.45178667" lon="1.4636">
        <ele>1314.0</ele>
        <time>2019-08-04T11:22:36.303Z</time>
      </trkpt>
      <trkpt lat="42.45178667" lon="1.4636">
        <ele>1314.0</ele>
        <time>2019-08-04T11:22:37.297Z</time>
      </trkpt>
      <trkpt lat="42.451795" lon="1.46366167">
        <ele>1314.0</ele>
        <time>2019-08-04T11:22:38.318Z</time>
      </trkpt>
      <trkpt lat="42.451795" lon="1.46366167">
        <ele>1314.0</ele>
        <time>2019-08-04T11:22:39.300Z</time>
      </trkpt>
      <trkpt lat="42.45180833" lon="1.46372333">
        <ele>1315.0</ele>
        <time>2019-08-04T11:22:40.306Z</time>
      </trkpt>
      <trkpt lat="42.45180833" lon="1.46372333">
        <ele>1315.0</ele>
        <time>2019-08-04T11:22:41.297Z</time>
      </trkpt>
      <trkpt lat="42.45181667" lon="1.46378667">
        <ele>1315.0</ele>
        <time>2019-08-04T11:22:42.329Z</time>
      </trkpt>
      <trkpt lat="42.45181667" lon="1.46378667">
        <ele>1315.0</ele>
        <time>2019-08-04T11:22:43.309Z</time>
      </trkpt>
      <trkpt lat="42.451825" lon="1.46384833">
        <ele>1316.0</ele>
        <time>2019-08-04T11:22:44.301Z</time>
      </trkpt>
      <trkpt lat="42.451825" lon="1.46384833">
        <ele>1316.0</ele>
        <time>2019-08-04T11:22:45.298Z</time>
      </trkpt>
      <trkpt lat="42.451835" lon="1.46391167">
        <ele>1316.0</ele>
        <time>2019-08-04T11:22:46.303Z</time>
      </trkpt>
      <trkpt lat="42.451835" lon="1.46391167">
        <ele>1316.0</ele>
        <time>2019-08-04T11:22:47.308Z</time>
      </trkpt>
      <trkpt lat="42.451845" lon="1.46397333">
        <ele>1317.0</ele>
        <time>2019-08-04T11:22:48.303Z</time>
      </trkpt>
      <trkpt lat="42.451845" lon="1.46397333">
        <ele>1317.0</ele>
        <time>2019-08-04T11:22:49.298Z</time>
      </trkpt>
      <trkpt lat="42.45185667" lon="1.46403167">
        <ele>1317.0</ele>
        <time>2019-08-04T11:22:50.326Z</time>
      </trkpt>
      <trkpt lat="42.45185667" lon="1.46403167">
        <ele>1317.0</ele>
        <time>2019-08-04T11:22:51.301Z</time>
      </trkpt>
      <trkpt lat="42.451875" lon="1.464095">
        <ele>1318.0</ele>
        <time>2019-08-04T11:22:52.334Z</time>
      </trkpt>
      <trkpt lat="42.451875" lon="1.464095">
        <ele>1318.0</ele>
        <time>2019-08-04T11:22:53.319Z</time>
      </trkpt>
      <trkpt lat="42.45188833" lon="1.46415667">
        <ele>1318.0</ele>
        <time>2019-08-04T11:22:54.303Z</time>
      </trkpt>
      <trkpt lat="42.45188833" lon="1.46415667">
        <ele>1318.0</ele>
        <time>2019-08-04T11:22:55.299Z</time>
      </trkpt>
      <trkpt lat="42.4519" lon="1.46421833">
        <ele>1319.0</ele>
        <time>2019-08-04T11:22:56.303Z</time>
      </trkpt>
      <trkpt lat="42.4519" lon="1.46421833">
        <ele>1319.0</ele>
        <time>2019-08-04T11:22:57.296Z</time>
      </trkpt>
      <trkpt lat="42.45191167" lon="1.46428167">
        <ele>1319.0</ele>
        <time>2019-08-04T11:22:58.318Z</time>
      </trkpt>
      <trkpt lat="42.45191167" lon="1.46428167">
        <ele>1319.0</ele>
        <time>2019-08-04T11:22:59.298Z</time>
      </trkpt>
      <trkpt lat="42.45192333" lon="1.464345">
        <ele>1320.0</ele>
        <time>2019-08-04T11:23:00.325Z</time>
      </trkpt>
      <trkpt lat="42.45192333" lon="1.464345">
        <ele>1320.0</ele>
        <time>2019-08-04T11:23:01.313Z</time>
      </trkpt>
      <trkpt lat="42.45193167" lon="1.46441">
        <ele>1320.0</ele>
        <time>2019-08-04T11:23:02.333Z</time>
      </trkpt>
      <trkpt lat="42.45193167" lon="1.46441">
        <ele>1320.0</ele>
        <time>2019-08-04T11:23:03.313Z</time>
      </trkpt>
      <trkpt lat="42.45193833" lon="1.46447333">
        <ele>1321.0</ele>
        <time>2019-08-04T11:23:04.304Z</time>
      </trkpt>
      <trkpt lat="42.45193833" lon="1.46447333">
        <ele>1321.0</ele>
        <time>2019-08-04T11:23:05.297Z</time>
      </trkpt>
      <trkpt lat="42.45193167" lon="1.46453667">
        <ele>1321.0</ele>
        <time>2019-08-04T11:23:06.318Z</time>
      </trkpt>
      <trkpt lat="42.45192667" lon="1.46456833">
        <ele>1321.0</ele>
        <time>2019-08-04T11:23:07.303Z</time>
      </trkpt>
      <trkpt lat="42.45192667" lon="1.46456833">
        <ele>1321.0</ele>
        <time>2019-08-04T11:23:08.298Z</time>
      </trkpt>
      <trkpt lat="42.45191" lon="1.464625">
        <ele>1322.0</ele>
        <time>2019-08-04T11:23:09.302Z</time>
      </trkpt>
      <trkpt lat="42.45190167" lon="1.46465167">
        <ele>1322.0</ele>
        <time>2019-08-04T11:23:10.304Z</time>
      </trkpt>
      <trkpt lat="42.45190167" lon="1.46465167">
        <ele>1322.0</ele>
        <time>2019-08-04T11:23:11.297Z</time>
      </trkpt>
      <trkpt lat="42.45188167" lon="1.464705">
        <ele>1322.0</ele>
        <time>2019-08-04T11:23:12.329Z</time>
      </trkpt>
      <trkpt lat="42.45188167" lon="1.464705">
        <ele>1322.0</ele>
        <time>2019-08-04T11:23:13.310Z</time>
      </trkpt>
      <trkpt lat="42.451855" lon="1.464755">
        <ele>1323.0</ele>
        <time>2019-08-04T11:23:14.308Z</time>
      </trkpt>
      <trkpt lat="42.451855" lon="1.464755">
        <ele>1323.0</ele>
        <time>2019-08-04T11:23:15.296Z</time>
      </trkpt>
      <trkpt lat="42.45182667" lon="1.46480833">
        <ele>1324.0</ele>
        <time>2019-08-04T11:23:16.307Z</time>
      </trkpt>
      <trkpt lat="42.45182667" lon="1.46480833">
        <ele>1324.0</ele>
        <time>2019-08-04T11:23:17.309Z</time>
      </trkpt>
      <trkpt lat="42.45180333" lon="1.46485833">
        <ele>1324.0</ele>
        <time>2019-08-04T11:23:18.302Z</time>
      </trkpt>
      <trkpt lat="42.45180333" lon="1.46485833">
        <ele>1324.0</ele>
        <time>2019-08-04T11:23:19.299Z</time>
      </trkpt>
      <trkpt lat="42.45177833" lon="1.46490833">
        <ele>1325.0</ele>
        <time>2019-08-04T11:23:20.303Z</time>
      </trkpt>
      <trkpt lat="42.45177833" lon="1.46490833">
        <ele>1325.0</ele>
        <time>2019-08-04T11:23:21.297Z</time>
      </trkpt>
      <trkpt lat="42.45175" lon="1.464955">
        <ele>1325.0</ele>
        <time>2019-08-04T11:23:22.334Z</time>
      </trkpt>
      <trkpt lat="42.45173333" lon="1.46497833">
        <ele>1325.0</ele>
        <time>2019-08-04T11:23:23.319Z</time>
      </trkpt>
      <trkpt lat="42.45173333" lon="1.46497833">
        <ele>1325.0</ele>
        <time>2019-08-04T11:23:24.300Z</time>
      </trkpt>
      <trkpt lat="42.451705" lon="1.46502667">
        <ele>1326.0</ele>
        <time>2019-08-04T11:23:25.305Z</time>
      </trkpt>
      <trkpt lat="42.45169" lon="1.46505167">
        <ele>1326.0</ele>
        <time>2019-08-04T11:23:26.303Z</time>
      </trkpt>
      <trkpt lat="42.45169" lon="1.46505167">
        <ele>1326.0</ele>
        <time>2019-08-04T11:23:27.296Z</time>
      </trkpt>
      <trkpt lat="42.45165833" lon="1.46509667">
        <ele>1326.0</ele>
        <time>2019-08-04T11:23:28.318Z</time>
      </trkpt>
      <trkpt lat="42.45165833" lon="1.46509667">
        <ele>1326.0</ele>
        <time>2019-08-04T11:23:29.302Z</time>
      </trkpt>
      <trkpt lat="42.45162667" lon="1.465145">
        <ele>1327.0</ele>
        <time>2019-08-04T11:23:30.298Z</time>
      </trkpt>
      <trkpt lat="42.45162667" lon="1.465145">
        <ele>1327.0</ele>
        <time>2019-08-04T11:23:31.304Z</time>
      </trkpt>
      <trkpt lat="42.45159833" lon="1.46518667">
        <ele>1327.0</ele>
        <time>2019-08-04T11:23:32.301Z</time>
      </trkpt>
      <trkpt lat="42.45159833" lon="1.46518667">
        <ele>1327.0</ele>
        <time>2019-08-04T11:23:33.298Z</time>
      </trkpt>
      <trkpt lat="42.451565" lon="1.46522667">
        <ele>1327.0</ele>
        <time>2019-08-04T11:23:34.304Z</time>
      </trkpt>
      <trkpt lat="42.451565" lon="1.46522667">
        <ele>1327.0</ele>
        <time>2019-08-04T11:23:35.311Z</time>
      </trkpt>
      <trkpt lat="42.45153167" lon="1.46527167">
        <ele>1328.0</ele>
        <time>2019-08-04T11:23:36.303Z</time>
      </trkpt>
      <trkpt lat="42.45153167" lon="1.46527167">
        <ele>1328.0</ele>
        <time>2019-08-04T11:23:37.299Z</time>
      </trkpt>
      <trkpt lat="42.45150167" lon="1.46531833">
        <ele>1328.0</ele>
        <time>2019-08-04T11:23:38.303Z</time>
      </trkpt>
      <trkpt lat="42.45150167" lon="1.46531833">
        <ele>1328.0</ele>
        <time>2019-08-04T11:23:39.297Z</time>
      </trkpt>
      <trkpt lat="42.451465" lon="1.465365">
        <ele>1329.0</ele>
        <time>2019-08-04T11:23:40.304Z</time>
      </trkpt>
      <trkpt lat="42.451465" lon="1.465365">
        <ele>1329.0</ele>
        <time>2019-08-04T11:23:41.334Z</time>
      </trkpt>
      <trkpt lat="42.45143167" lon="1.46540667">
        <ele>1329.0</ele>
        <time>2019-08-04T11:23:42.319Z</time>
      </trkpt>
      <trkpt lat="42.45143167" lon="1.46540667">
        <ele>1329.0</ele>
        <time>2019-08-04T11:23:43.301Z</time>
      </trkpt>
      <trkpt lat="42.45139333" lon="1.46545167">
        <ele>1330.0</ele>
        <time>2019-08-04T11:23:44.303Z</time>
      </trkpt>
      <trkpt lat="42.45139333" lon="1.46545167">
        <ele>1330.0</ele>
        <time>2019-08-04T11:23:45.299Z</time>
      </trkpt>
      <trkpt lat="42.45136333" lon="1.4655">
        <ele>1331.0</ele>
        <time>2019-08-04T11:23:46.303Z</time>
      </trkpt>
      <trkpt lat="42.45136333" lon="1.4655">
        <ele>1331.0</ele>
        <time>2019-08-04T11:23:47.301Z</time>
      </trkpt>
      <trkpt lat="42.45133167" lon="1.46555">
        <ele>1331.0</ele>
        <time>2019-08-04T11:23:48.303Z</time>
      </trkpt>
      <trkpt lat="42.45132167" lon="1.46557333">
        <ele>1332.0</ele>
        <time>2019-08-04T11:23:49.303Z</time>
      </trkpt>
      <trkpt lat="42.45131167" lon="1.46559667">
        <ele>1332.0</ele>
        <time>2019-08-04T11:23:50.303Z</time>
      </trkpt>
      <trkpt lat="42.45131167" lon="1.46559667">
        <ele>1332.0</ele>
        <time>2019-08-04T11:23:51.297Z</time>
      </trkpt>
      <trkpt lat="42.45129833" lon="1.46565">
        <ele>1332.0</ele>
        <time>2019-08-04T11:23:52.320Z</time>
      </trkpt>
      <trkpt lat="42.45129833" lon="1.46565">
        <ele>1332.0</ele>
        <time>2019-08-04T11:23:53.300Z</time>
      </trkpt>
      <trkpt lat="42.45127" lon="1.46571">
        <ele>1333.0</ele>
        <time>2019-08-04T11:23:54.302Z</time>
      </trkpt>
      <trkpt lat="42.45127" lon="1.46571">
        <ele>1333.0</ele>
        <time>2019-08-04T11:23:55.298Z</time>
      </trkpt>
      <trkpt lat="42.451255" lon="1.46576833">
        <ele>1334.0</ele>
        <time>2019-08-04T11:23:56.319Z</time>
      </trkpt>
      <trkpt lat="42.451255" lon="1.46576833">
        <ele>1334.0</ele>
        <time>2019-08-04T11:23:57.299Z</time>
      </trkpt>
      <trkpt lat="42.45124667" lon="1.46582833">
        <ele>1334.0</ele>
        <time>2019-08-04T11:23:58.303Z</time>
      </trkpt>
      <trkpt lat="42.45124667" lon="1.46582833">
        <ele>1334.0</ele>
        <time>2019-08-04T11:23:59.296Z</time>
      </trkpt>
      <trkpt lat="42.451235" lon="1.46588833">
        <ele>1335.0</ele>
        <time>2019-08-04T11:24:00.318Z</time>
      </trkpt>
      <trkpt lat="42.451235" lon="1.46588833">
        <ele>1335.0</ele>
        <time>2019-08-04T11:24:01.299Z</time>
      </trkpt>
      <trkpt lat="42.45122" lon="1.46595333">
        <ele>1336.0</ele>
        <time>2019-08-04T11:24:02.320Z</time>
      </trkpt>
      <trkpt lat="42.45122" lon="1.46595333">
        <ele>1336.0</ele>
        <time>2019-08-04T11:24:03.302Z</time>
      </trkpt>
      <trkpt lat="42.45120667" lon="1.466015">
        <ele>1336.0</ele>
        <time>2019-08-04T11:24:04.303Z</time>
      </trkpt>
      <trkpt lat="42.45120667" lon="1.466015">
        <ele>1336.0</ele>
        <time>2019-08-04T11:24:05.297Z</time>
      </trkpt>
      <trkpt lat="42.451185" lon="1.46608167">
        <ele>1336.0</ele>
        <time>2019-08-04T11:24:06.299Z</time>
      </trkpt>
      <trkpt lat="42.451185" lon="1.46608167">
        <ele>1336.0</ele>
        <time>2019-08-04T11:24:07.296Z</time>
      </trkpt>
      <trkpt lat="42.45116833" lon="1.466145">
        <ele>1337.0</ele>
        <time>2019-08-04T11:24:08.304Z</time>
      </trkpt>
      <trkpt lat="42.45116833" lon="1.466145">
        <ele>1337.0</ele>
        <time>2019-08-04T11:24:09.297Z</time>
      </trkpt>
      <trkpt lat="42.45115667" lon="1.46621167">
        <ele>1337.0</ele>
        <time>2019-08-04T11:24:10.318Z</time>
      </trkpt>
      <trkpt lat="42.45115333" lon="1.46624333">
        <ele>1337.0</ele>
        <time>2019-08-04T11:24:11.302Z</time>
      </trkpt>
      <trkpt lat="42.45115" lon="1.46627333">
        <ele>1337.0</ele>
        <time>2019-08-04T11:24:12.320Z</time>
      </trkpt>
      <trkpt lat="42.45115" lon="1.46627333">
        <ele>1337.0</ele>
        <time>2019-08-04T11:24:13.302Z</time>
      </trkpt>
      <trkpt lat="42.451145" lon="1.466335">
        <ele>1338.0</ele>
        <time>2019-08-04T11:24:14.304Z</time>
      </trkpt>
      <trkpt lat="42.451145" lon="1.466335">
        <ele>1338.0</ele>
        <time>2019-08-04T11:24:15.304Z</time>
      </trkpt>
      <trkpt lat="42.451135" lon="1.46639667">
        <ele>1338.0</ele>
        <time>2019-08-04T11:24:16.305Z</time>
      </trkpt>
      <trkpt lat="42.451135" lon="1.46639667">
        <ele>1338.0</ele>
        <time>2019-08-04T11:24:17.298Z</time>
      </trkpt>
      <trkpt lat="42.45111833" lon="1.46644833">
        <ele>1337.0</ele>
        <time>2019-08-04T11:24:18.301Z</time>
      </trkpt>
      <trkpt lat="42.451125" lon="1.46648">
        <ele>1338.0</ele>
        <time>2019-08-04T11:24:19.303Z</time>
      </trkpt>
      <trkpt lat="42.451125" lon="1.46648">
        <ele>1338.0</ele>
        <time>2019-08-04T11:24:20.298Z</time>
      </trkpt>
      <trkpt lat="42.45112667" lon="1.46654833">
        <ele>1338.0</ele>
        <time>2019-08-04T11:24:21.303Z</time>
      </trkpt>
      <trkpt lat="42.45113167" lon="1.46658">
        <ele>1338.0</ele>
        <time>2019-08-04T11:24:22.318Z</time>
      </trkpt>
      <trkpt lat="42.45113167" lon="1.46658">
        <ele>1338.0</ele>
        <time>2019-08-04T11:24:23.299Z</time>
      </trkpt>
      <trkpt lat="42.45113833" lon="1.46664667">
        <ele>1339.0</ele>
        <time>2019-08-04T11:24:24.303Z</time>
      </trkpt>
      <trkpt lat="42.451135" lon="1.46667667">
        <ele>1339.0</ele>
        <time>2019-08-04T11:24:25.303Z</time>
      </trkpt>
      <trkpt lat="42.451135" lon="1.46667667">
        <ele>1339.0</ele>
        <time>2019-08-04T11:24:26.299Z</time>
      </trkpt>
      <trkpt lat="42.45113" lon="1.466735">
        <ele>1339.0</ele>
        <time>2019-08-04T11:24:27.304Z</time>
      </trkpt>
      <trkpt lat="42.45112833" lon="1.466765">
        <ele>1339.0</ele>
        <time>2019-08-04T11:24:28.304Z</time>
      </trkpt>
      <trkpt lat="42.45112833" lon="1.466765">
        <ele>1339.0</ele>
        <time>2019-08-04T11:24:29.307Z</time>
      </trkpt>
      <trkpt lat="42.45113" lon="1.46682333">
        <ele>1339.0</ele>
        <time>2019-08-04T11:24:30.332Z</time>
      </trkpt>
      <trkpt lat="42.45113" lon="1.46685167">
        <ele>1339.0</ele>
        <time>2019-08-04T11:24:31.299Z</time>
      </trkpt>
      <trkpt lat="42.45113333" lon="1.46688333">
        <ele>1340.0</ele>
        <time>2019-08-04T11:24:32.318Z</time>
      </trkpt>
      <trkpt lat="42.45113333" lon="1.46688333">
        <ele>1340.0</ele>
        <time>2019-08-04T11:24:33.299Z</time>
      </trkpt>
      <trkpt lat="42.45113333" lon="1.46694333">
        <ele>1340.0</ele>
        <time>2019-08-04T11:24:34.304Z</time>
      </trkpt>
      <trkpt lat="42.45113333" lon="1.46694333">
        <ele>1340.0</ele>
        <time>2019-08-04T11:24:35.310Z</time>
      </trkpt>
      <trkpt lat="42.45114" lon="1.467005">
        <ele>1340.0</ele>
        <time>2019-08-04T11:24:36.304Z</time>
      </trkpt>
      <trkpt lat="42.45114" lon="1.467005">
        <ele>1340.0</ele>
        <time>2019-08-04T11:24:37.299Z</time>
      </trkpt>
      <trkpt lat="42.45114667" lon="1.46706333">
        <ele>1341.0</ele>
        <time>2019-08-04T11:24:38.319Z</time>
      </trkpt>
      <trkpt lat="42.45114667" lon="1.46706333">
        <ele>1341.0</ele>
        <time>2019-08-04T11:24:39.300Z</time>
      </trkpt>
      <trkpt lat="42.451155" lon="1.467125">
        <ele>1341.0</ele>
        <time>2019-08-04T11:24:40.304Z</time>
      </trkpt>
      <trkpt lat="42.451155" lon="1.467125">
        <ele>1341.0</ele>
        <time>2019-08-04T11:24:41.299Z</time>
      </trkpt>
      <trkpt lat="42.45115333" lon="1.467185">
        <ele>1342.0</ele>
        <time>2019-08-04T11:24:42.319Z</time>
      </trkpt>
      <trkpt lat="42.45115333" lon="1.467185">
        <ele>1342.0</ele>
        <time>2019-08-04T11:24:43.300Z</time>
      </trkpt>
      <trkpt lat="42.45114833" lon="1.46724333">
        <ele>1342.0</ele>
        <time>2019-08-04T11:24:44.306Z</time>
      </trkpt>
      <trkpt lat="42.45114833" lon="1.46724333">
        <ele>1342.0</ele>
        <time>2019-08-04T11:24:45.298Z</time>
      </trkpt>
      <trkpt lat="42.45114667" lon="1.46730333">
        <ele>1343.0</ele>
        <time>2019-08-04T11:24:46.319Z</time>
      </trkpt>
      <trkpt lat="42.45114667" lon="1.46730333">
        <ele>1343.0</ele>
        <time>2019-08-04T11:24:47.303Z</time>
      </trkpt>
      <trkpt lat="42.45114667" lon="1.46736333">
        <ele>1343.0</ele>
        <time>2019-08-04T11:24:48.303Z</time>
      </trkpt>
      <trkpt lat="42.45114667" lon="1.46736333">
        <ele>1343.0</ele>
        <time>2019-08-04T11:24:49.300Z</time>
      </trkpt>
      <trkpt lat="42.451145" lon="1.467425">
        <ele>1344.0</ele>
        <time>2019-08-04T11:24:50.305Z</time>
      </trkpt>
      <trkpt lat="42.451145" lon="1.467425">
        <ele>1344.0</ele>
        <time>2019-08-04T11:24:51.299Z</time>
      </trkpt>
      <trkpt lat="42.45114333" lon="1.46748333">
        <ele>1344.0</ele>
        <time>2019-08-04T11:24:52.322Z</time>
      </trkpt>
      <trkpt lat="42.45114333" lon="1.46748333">
        <ele>1344.0</ele>
        <time>2019-08-04T11:24:53.302Z</time>
      </trkpt>
      <trkpt lat="42.45113167" lon="1.46754333">
        <ele>1345.0</ele>
        <time>2019-08-04T11:24:54.305Z</time>
      </trkpt>
      <trkpt lat="42.45113167" lon="1.46754333">
        <ele>1345.0</ele>
        <time>2019-08-04T11:24:55.300Z</time>
      </trkpt>
      <trkpt lat="42.45112667" lon="1.46760167">
        <ele>1345.0</ele>
        <time>2019-08-04T11:24:56.304Z</time>
      </trkpt>
      <trkpt lat="42.45112667" lon="1.46760167">
        <ele>1345.0</ele>
        <time>2019-08-04T11:24:57.299Z</time>
      </trkpt>
      <trkpt lat="42.45111667" lon="1.46765833">
        <ele>1346.0</ele>
        <time>2019-08-04T11:24:58.304Z</time>
      </trkpt>
      <trkpt lat="42.45111667" lon="1.46765833">
        <ele>1346.0</ele>
        <time>2019-08-04T11:24:59.298Z</time>
      </trkpt>
      <trkpt lat="42.45110833" lon="1.46771667">
        <ele>1346.0</ele>
        <time>2019-08-04T11:25:00.327Z</time>
      </trkpt>
      <trkpt lat="42.451105" lon="1.46774667">
        <ele>1346.0</ele>
        <time>2019-08-04T11:25:01.308Z</time>
      </trkpt>
      <trkpt lat="42.451105" lon="1.46774667">
        <ele>1346.0</ele>
        <time>2019-08-04T11:25:02.313Z</time>
      </trkpt>
      <trkpt lat="42.45109667" lon="1.46780833">
        <ele>1347.0</ele>
        <time>2019-08-04T11:25:03.303Z</time>
      </trkpt>
      <trkpt lat="42.45109167" lon="1.46783833">
        <ele>1347.0</ele>
        <time>2019-08-04T11:25:04.303Z</time>
      </trkpt>
      <trkpt lat="42.45109167" lon="1.46783833">
        <ele>1347.0</ele>
        <time>2019-08-04T11:25:05.299Z</time>
      </trkpt>
      <trkpt lat="42.45108" lon="1.467895">
        <ele>1348.0</ele>
        <time>2019-08-04T11:25:06.301Z</time>
      </trkpt>
      <trkpt lat="42.45108" lon="1.467895">
        <ele>1348.0</ele>
        <time>2019-08-04T11:25:07.298Z</time>
      </trkpt>
      <trkpt lat="42.45106833" lon="1.46795167">
        <ele>1348.0</ele>
        <time>2019-08-04T11:25:08.319Z</time>
      </trkpt>
      <trkpt lat="42.45106833" lon="1.46795167">
        <ele>1348.0</ele>
        <time>2019-08-04T11:25:09.301Z</time>
      </trkpt>
      <trkpt lat="42.45105833" lon="1.46801">
        <ele>1349.0</ele>
        <time>2019-08-04T11:25:10.309Z</time>
      </trkpt>
      <trkpt lat="42.45105833" lon="1.46801">
        <ele>1349.0</ele>
        <time>2019-08-04T11:25:11.299Z</time>
      </trkpt>
      <trkpt lat="42.451055" lon="1.46807">
        <ele>1349.0</ele>
        <time>2019-08-04T11:25:12.327Z</time>
      </trkpt>
      <trkpt lat="42.45105333" lon="1.4681">
        <ele>1350.0</ele>
        <time>2019-08-04T11:25:13.309Z</time>
      </trkpt>
      <trkpt lat="42.45105333" lon="1.46813167">
        <ele>1350.0</ele>
        <time>2019-08-04T11:25:14.305Z</time>
      </trkpt>
      <trkpt lat="42.45105333" lon="1.46813167">
        <ele>1350.0</ele>
        <time>2019-08-04T11:25:15.298Z</time>
      </trkpt>
      <trkpt lat="42.45105" lon="1.46819">
        <ele>1350.0</ele>
        <time>2019-08-04T11:25:16.303Z</time>
      </trkpt>
      <trkpt lat="42.45105" lon="1.46819">
        <ele>1350.0</ele>
        <time>2019-08-04T11:25:17.298Z</time>
      </trkpt>
      <trkpt lat="42.45104333" lon="1.46824833">
        <ele>1351.0</ele>
        <time>2019-08-04T11:25:18.304Z</time>
      </trkpt>
      <trkpt lat="42.45104167" lon="1.46827833">
        <ele>1351.0</ele>
        <time>2019-08-04T11:25:19.305Z</time>
      </trkpt>
      <trkpt lat="42.45104167" lon="1.46827833">
        <ele>1351.0</ele>
        <time>2019-08-04T11:25:20.299Z</time>
      </trkpt>
      <trkpt lat="42.45103" lon="1.46833667">
        <ele>1352.0</ele>
        <time>2019-08-04T11:25:21.304Z</time>
      </trkpt>
      <trkpt lat="42.45103" lon="1.46833667">
        <ele>1352.0</ele>
        <time>2019-08-04T11:25:22.333Z</time>
      </trkpt>
      <trkpt lat="42.45102333" lon="1.46839167">
        <ele>1352.0</ele>
        <time>2019-08-04T11:25:23.319Z</time>
      </trkpt>
      <trkpt lat="42.45102333" lon="1.46839167">
        <ele>1352.0</ele>
        <time>2019-08-04T11:25:24.301Z</time>
      </trkpt>
      <trkpt lat="42.45101833" lon="1.46845">
        <ele>1353.0</ele>
        <time>2019-08-04T11:25:25.329Z</time>
      </trkpt>
      <trkpt lat="42.451015" lon="1.46847833">
        <ele>1353.0</ele>
        <time>2019-08-04T11:25:26.311Z</time>
      </trkpt>
      <trkpt lat="42.451015" lon="1.46847833">
        <ele>1353.0</ele>
        <time>2019-08-04T11:25:27.298Z</time>
      </trkpt>
      <trkpt lat="42.45101" lon="1.46853833">
        <ele>1354.0</ele>
        <time>2019-08-04T11:25:28.319Z</time>
      </trkpt>
      <trkpt lat="42.45101" lon="1.46853833">
        <ele>1354.0</ele>
        <time>2019-08-04T11:25:29.307Z</time>
      </trkpt>
      <trkpt lat="42.45100833" lon="1.46859833">
        <ele>1354.0</ele>
        <time>2019-08-04T11:25:30.303Z</time>
      </trkpt>
      <trkpt lat="42.45100833" lon="1.46859833">
        <ele>1354.0</ele>
        <time>2019-08-04T11:25:31.309Z</time>
      </trkpt>
      <trkpt lat="42.45099333" lon="1.46865333">
        <ele>1355.0</ele>
        <time>2019-08-04T11:25:32.304Z</time>
      </trkpt>
      <trkpt lat="42.45099333" lon="1.46865333">
        <ele>1355.0</ele>
        <time>2019-08-04T11:25:33.299Z</time>
      </trkpt>
      <trkpt lat="42.45097833" lon="1.46870833">
        <ele>1355.0</ele>
        <time>2019-08-04T11:25:34.304Z</time>
      </trkpt>
      <trkpt lat="42.45097833" lon="1.46870833">
        <ele>1355.0</ele>
        <time>2019-08-04T11:25:35.310Z</time>
      </trkpt>
      <trkpt lat="42.450965" lon="1.46876167">
        <ele>1355.0</ele>
        <time>2019-08-04T11:25:36.303Z</time>
      </trkpt>
      <trkpt lat="42.450955" lon="1.46878833">
        <ele>1356.0</ele>
        <time>2019-08-04T11:25:37.304Z</time>
      </trkpt>
      <trkpt lat="42.45094667" lon="1.46881667">
        <ele>1356.0</ele>
        <time>2019-08-04T11:25:38.306Z</time>
      </trkpt>
      <trkpt lat="42.45094667" lon="1.46881667">
        <ele>1356.0</ele>
        <time>2019-08-04T11:25:39.299Z</time>
      </trkpt>
      <trkpt lat="42.45093167" lon="1.46887167">
        <ele>1357.0</ele>
        <time>2019-08-04T11:25:40.329Z</time>
      </trkpt>
      <trkpt lat="42.45093167" lon="1.46887167">
        <ele>1357.0</ele>
        <time>2019-08-04T11:25:41.319Z</time>
      </trkpt>
      <trkpt lat="42.45091833" lon="1.46893">
        <ele>1357.0</ele>
        <time>2019-08-04T11:25:42.319Z</time>
      </trkpt>
      <trkpt lat="42.45091833" lon="1.46893">
        <ele>1357.0</ele>
        <time>2019-08-04T11:25:43.302Z</time>
      </trkpt>
      <trkpt lat="42.45090333" lon="1.46898667">
        <ele>1358.0</ele>
        <time>2019-08-04T11:25:44.305Z</time>
      </trkpt>
      <trkpt lat="42.45090333" lon="1.46898667">
        <ele>1358.0</ele>
        <time>2019-08-04T11:25:45.297Z</time>
      </trkpt>
      <trkpt lat="42.45089167" lon="1.46904833">
        <ele>1358.0</ele>
        <time>2019-08-04T11:25:46.319Z</time>
      </trkpt>
      <trkpt lat="42.45089167" lon="1.46904833">
        <ele>1358.0</ele>
        <time>2019-08-04T11:25:47.302Z</time>
      </trkpt>
      <trkpt lat="42.45088" lon="1.46911">
        <ele>1358.0</ele>
        <time>2019-08-04T11:25:48.303Z</time>
      </trkpt>
      <trkpt lat="42.45088" lon="1.46911">
        <ele>1358.0</ele>
        <time>2019-08-04T11:25:49.299Z</time>
      </trkpt>
      <trkpt lat="42.45086833" lon="1.46916833">
        <ele>1358.0</ele>
        <time>2019-08-04T11:25:50.320Z</time>
      </trkpt>
      <trkpt lat="42.45086833" lon="1.46916833">
        <ele>1358.0</ele>
        <time>2019-08-04T11:25:51.302Z</time>
      </trkpt>
      <trkpt lat="42.45085" lon="1.46922167">
        <ele>1359.0</ele>
        <time>2019-08-04T11:25:52.321Z</time>
      </trkpt>
      <trkpt lat="42.45084" lon="1.46924833">
        <ele>1359.0</ele>
        <time>2019-08-04T11:25:53.305Z</time>
      </trkpt>
      <trkpt lat="42.45084" lon="1.46924833">
        <ele>1359.0</ele>
        <time>2019-08-04T11:25:54.299Z</time>
      </trkpt>
      <trkpt lat="42.450825" lon="1.46930333">
        <ele>1359.0</ele>
        <time>2019-08-04T11:25:55.306Z</time>
      </trkpt>
      <trkpt lat="42.45082" lon="1.46933333">
        <ele>1359.0</ele>
        <time>2019-08-04T11:25:56.304Z</time>
      </trkpt>
      <trkpt lat="42.45082" lon="1.46933333">
        <ele>1359.0</ele>
        <time>2019-08-04T11:25:57.299Z</time>
      </trkpt>
      <trkpt lat="42.450805" lon="1.46939">
        <ele>1359.0</ele>
        <time>2019-08-04T11:25:58.305Z</time>
      </trkpt>
      <trkpt lat="42.45079833" lon="1.46941833">
        <ele>1360.0</ele>
        <time>2019-08-04T11:25:59.306Z</time>
      </trkpt>
      <trkpt lat="42.45079833" lon="1.46941833">
        <ele>1360.0</ele>
        <time>2019-08-04T11:26:00.298Z</time>
      </trkpt>
      <trkpt lat="42.45077833" lon="1.46947333">
        <ele>1360.0</ele>
        <time>2019-08-04T11:26:01.319Z</time>
      </trkpt>
      <trkpt lat="42.45076833" lon="1.4695">
        <ele>1360.0</ele>
        <time>2019-08-04T11:26:02.327Z</time>
      </trkpt>
      <trkpt lat="42.45076833" lon="1.4695">
        <ele>1360.0</ele>
        <time>2019-08-04T11:26:03.307Z</time>
      </trkpt>
      <trkpt lat="42.45074667" lon="1.46955167">
        <ele>1360.0</ele>
        <time>2019-08-04T11:26:04.304Z</time>
      </trkpt>
      <trkpt lat="42.45074667" lon="1.46955167">
        <ele>1360.0</ele>
        <time>2019-08-04T11:26:05.298Z</time>
      </trkpt>
      <trkpt lat="42.45072833" lon="1.46960333">
        <ele>1360.0</ele>
        <time>2019-08-04T11:26:06.319Z</time>
      </trkpt>
      <trkpt lat="42.45072833" lon="1.46960333">
        <ele>1360.0</ele>
        <time>2019-08-04T11:26:07.299Z</time>
      </trkpt>
      <trkpt lat="42.450715" lon="1.46965833">
        <ele>1361.0</ele>
        <time>2019-08-04T11:26:08.319Z</time>
      </trkpt>
      <trkpt lat="42.450715" lon="1.46965833">
        <ele>1361.0</ele>
        <time>2019-08-04T11:26:09.303Z</time>
      </trkpt>
      <trkpt lat="42.45070167" lon="1.469715">
        <ele>1361.0</ele>
        <time>2019-08-04T11:26:10.319Z</time>
      </trkpt>
      <trkpt lat="42.45069333" lon="1.46974">
        <ele>1361.0</ele>
        <time>2019-08-04T11:26:11.304Z</time>
      </trkpt>
      <trkpt lat="42.45068167" lon="1.46976667">
        <ele>1361.0</ele>
        <time>2019-08-04T11:26:12.299Z</time>
      </trkpt>
      <trkpt lat="42.45068167" lon="1.46976667">
        <ele>1361.0</ele>
        <time>2019-08-04T11:26:13.319Z</time>
      </trkpt>
      <trkpt lat="42.45066333" lon="1.46982167">
        <ele>1362.0</ele>
        <time>2019-08-04T11:26:14.303Z</time>
      </trkpt>
      <trkpt lat="42.45066333" lon="1.46982167">
        <ele>1362.0</ele>
        <time>2019-08-04T11:26:15.308Z</time>
      </trkpt>
      <trkpt lat="42.45064833" lon="1.46987667">
        <ele>1362.0</ele>
        <time>2019-08-04T11:26:16.304Z</time>
      </trkpt>
      <trkpt lat="42.45064833" lon="1.46987667">
        <ele>1362.0</ele>
        <time>2019-08-04T11:26:17.299Z</time>
      </trkpt>
      <trkpt lat="42.45062333" lon="1.46992333">
        <ele>1363.0</ele>
        <time>2019-08-04T11:26:18.305Z</time>
      </trkpt>
      <trkpt lat="42.45062333" lon="1.46992333">
        <ele>1363.0</ele>
        <time>2019-08-04T11:26:19.299Z</time>
      </trkpt>
      <trkpt lat="42.45059667" lon="1.46997167">
        <ele>1364.0</ele>
        <time>2019-08-04T11:26:20.307Z</time>
      </trkpt>
      <trkpt lat="42.45059667" lon="1.46997167">
        <ele>1364.0</ele>
        <time>2019-08-04T11:26:21.299Z</time>
      </trkpt>
      <trkpt lat="42.45057667" lon="1.47002333">
        <ele>1364.0</ele>
        <time>2019-08-04T11:26:22.319Z</time>
      </trkpt>
      <trkpt lat="42.45057667" lon="1.47002333">
        <ele>1364.0</ele>
        <time>2019-08-04T11:26:23.299Z</time>
      </trkpt>
      <trkpt lat="42.45055167" lon="1.47007">
        <ele>1365.0</ele>
        <time>2019-08-04T11:26:24.304Z</time>
      </trkpt>
      <trkpt lat="42.45055167" lon="1.47007">
        <ele>1365.0</ele>
        <time>2019-08-04T11:26:25.299Z</time>
      </trkpt>
      <trkpt lat="42.450525" lon="1.47011833">
        <ele>1365.0</ele>
        <time>2019-08-04T11:26:26.319Z</time>
      </trkpt>
      <trkpt lat="42.450525" lon="1.47011833">
        <ele>1365.0</ele>
        <time>2019-08-04T11:26:27.302Z</time>
      </trkpt>
      <trkpt lat="42.450505" lon="1.47017">
        <ele>1366.0</ele>
        <time>2019-08-04T11:26:28.304Z</time>
      </trkpt>
      <trkpt lat="42.450505" lon="1.47017">
        <ele>1366.0</ele>
        <time>2019-08-04T11:26:29.306Z</time>
      </trkpt>
      <trkpt lat="42.45049667" lon="1.47022167">
        <ele>1367.0</ele>
        <time>2019-08-04T11:26:30.309Z</time>
      </trkpt>
      <trkpt lat="42.45048167" lon="1.47024333">
        <ele>1367.0</ele>
        <time>2019-08-04T11:26:31.316Z</time>
      </trkpt>
      <trkpt lat="42.45046833" lon="1.470265">
        <ele>1367.0</ele>
        <time>2019-08-04T11:26:32.324Z</time>
      </trkpt>
      <trkpt lat="42.45046833" lon="1.470265">
        <ele>1367.0</ele>
        <time>2019-08-04T11:26:33.299Z</time>
      </trkpt>
      <trkpt lat="42.45044333" lon="1.470305">
        <ele>1368.0</ele>
        <time>2019-08-04T11:26:34.304Z</time>
      </trkpt>
      <trkpt lat="42.45044333" lon="1.470305">
        <ele>1368.0</ele>
        <time>2019-08-04T11:26:35.299Z</time>
      </trkpt>
      <trkpt lat="42.45042333" lon="1.47035167">
        <ele>1369.0</ele>
        <time>2019-08-04T11:26:36.304Z</time>
      </trkpt>
      <trkpt lat="42.45041" lon="1.47037333">
        <ele>1369.0</ele>
        <time>2019-08-04T11:26:37.305Z</time>
      </trkpt>
      <trkpt lat="42.45041" lon="1.47037333">
        <ele>1369.0</ele>
        <time>2019-08-04T11:26:38.299Z</time>
      </trkpt>
      <trkpt lat="42.45039333" lon="1.47042167">
        <ele>1370.0</ele>
        <time>2019-08-04T11:26:39.304Z</time>
      </trkpt>
      <trkpt lat="42.45038667" lon="1.470445">
        <ele>1371.0</ele>
        <time>2019-08-04T11:26:40.307Z</time>
      </trkpt>
      <trkpt lat="42.45038667" lon="1.470445">
        <ele>1371.0</ele>
        <time>2019-08-04T11:26:41.299Z</time>
      </trkpt>
      <trkpt lat="42.45036667" lon="1.47049333">
        <ele>1372.0</ele>
        <time>2019-08-04T11:26:42.333Z</time>
      </trkpt>
      <trkpt lat="42.45036667" lon="1.47049333">
        <ele>1372.0</ele>
        <time>2019-08-04T11:26:43.299Z</time>
      </trkpt>
      <trkpt lat="42.45034667" lon="1.47054167">
        <ele>1372.0</ele>
        <time>2019-08-04T11:26:44.305Z</time>
      </trkpt>
      <trkpt lat="42.45034667" lon="1.47054167">
        <ele>1372.0</ele>
        <time>2019-08-04T11:26:45.303Z</time>
      </trkpt>
      <trkpt lat="42.45031167" lon="1.47059">
        <ele>1373.0</ele>
        <time>2019-08-04T11:26:46.304Z</time>
      </trkpt>
      <trkpt lat="42.45031167" lon="1.47059">
        <ele>1373.0</ele>
        <time>2019-08-04T11:26:47.299Z</time>
      </trkpt>
      <trkpt lat="42.45028333" lon="1.47064167">
        <ele>1374.0</ele>
        <time>2019-08-04T11:26:48.304Z</time>
      </trkpt>
      <trkpt lat="42.45028333" lon="1.47064167">
        <ele>1374.0</ele>
        <time>2019-08-04T11:26:49.299Z</time>
      </trkpt>
      <trkpt lat="42.45026167" lon="1.47069833">
        <ele>1374.0</ele>
        <time>2019-08-04T11:26:50.305Z</time>
      </trkpt>
      <trkpt lat="42.45026167" lon="1.47069833">
        <ele>1374.0</ele>
        <time>2019-08-04T11:26:51.300Z</time>
      </trkpt>
      <trkpt lat="42.45024167" lon="1.47075167">
        <ele>1375.0</ele>
        <time>2019-08-04T11:26:52.328Z</time>
      </trkpt>
      <trkpt lat="42.45024167" lon="1.47075167">
        <ele>1375.0</ele>
        <time>2019-08-04T11:26:53.314Z</time>
      </trkpt>
      <trkpt lat="42.45022" lon="1.47080667">
        <ele>1376.0</ele>
        <time>2019-08-04T11:26:54.304Z</time>
      </trkpt>
      <trkpt lat="42.45022" lon="1.47080667">
        <ele>1376.0</ele>
        <time>2019-08-04T11:26:55.304Z</time>
      </trkpt>
      <trkpt lat="42.45019833" lon="1.47086333">
        <ele>1377.0</ele>
        <time>2019-08-04T11:26:56.304Z</time>
      </trkpt>
      <trkpt lat="42.45019833" lon="1.47086333">
        <ele>1377.0</ele>
        <time>2019-08-04T11:26:57.302Z</time>
      </trkpt>
      <trkpt lat="42.45017833" lon="1.47091667">
        <ele>1377.0</ele>
        <time>2019-08-04T11:26:58.304Z</time>
      </trkpt>
      <trkpt lat="42.45017833" lon="1.47091667">
        <ele>1377.0</ele>
        <time>2019-08-04T11:26:59.300Z</time>
      </trkpt>
      <trkpt lat="42.450155" lon="1.47097">
        <ele>1378.0</ele>
        <time>2019-08-04T11:27:00.327Z</time>
      </trkpt>
      <trkpt lat="42.45014167" lon="1.470995">
        <ele>1378.0</ele>
        <time>2019-08-04T11:27:01.308Z</time>
      </trkpt>
      <trkpt lat="42.45013167" lon="1.47102333">
        <ele>1379.0</ele>
        <time>2019-08-04T11:27:02.319Z</time>
      </trkpt>
      <trkpt lat="42.45013167" lon="1.47102333">
        <ele>1379.0</ele>
        <time>2019-08-04T11:27:03.310Z</time>
      </trkpt>
      <trkpt lat="42.45010333" lon="1.47107">
        <ele>1380.0</ele>
        <time>2019-08-04T11:27:04.304Z</time>
      </trkpt>
      <trkpt lat="42.45010333" lon="1.47107">
        <ele>1380.0</ele>
        <time>2019-08-04T11:27:05.299Z</time>
      </trkpt>
      <trkpt lat="42.45008167" lon="1.47111833">
        <ele>1380.0</ele>
        <time>2019-08-04T11:27:06.334Z</time>
      </trkpt>
      <trkpt lat="42.45008167" lon="1.47111833">
        <ele>1380.0</ele>
        <time>2019-08-04T11:27:07.314Z</time>
      </trkpt>
      <trkpt lat="42.45006333" lon="1.47117167">
        <ele>1381.0</ele>
        <time>2019-08-04T11:27:08.307Z</time>
      </trkpt>
      <trkpt lat="42.45006333" lon="1.47117167">
        <ele>1381.0</ele>
        <time>2019-08-04T11:27:09.299Z</time>
      </trkpt>
      <trkpt lat="42.45005167" lon="1.47123">
        <ele>1382.0</ele>
        <time>2019-08-04T11:27:10.307Z</time>
      </trkpt>
      <trkpt lat="42.450045" lon="1.47125667">
        <ele>1383.0</ele>
        <time>2019-08-04T11:27:11.312Z</time>
      </trkpt>
      <trkpt lat="42.450045" lon="1.47125667">
        <ele>1383.0</ele>
        <time>2019-08-04T11:27:12.314Z</time>
      </trkpt>
      <trkpt lat="42.45003" lon="1.47131333">
        <ele>1383.0</ele>
        <time>2019-08-04T11:27:13.311Z</time>
      </trkpt>
      <trkpt lat="42.45002167" lon="1.47134">
        <ele>1384.0</ele>
        <time>2019-08-04T11:27:14.305Z</time>
      </trkpt>
      <trkpt lat="42.45002167" lon="1.47134">
        <ele>1384.0</ele>
        <time>2019-08-04T11:27:15.296Z</time>
      </trkpt>
      <trkpt lat="42.45000833" lon="1.47139667">
        <ele>1384.0</ele>
        <time>2019-08-04T11:27:16.319Z</time>
      </trkpt>
      <trkpt lat="42.45000833" lon="1.47139667">
        <ele>1384.0</ele>
        <time>2019-08-04T11:27:17.301Z</time>
      </trkpt>
      <trkpt lat="42.44999333" lon="1.47145">
        <ele>1385.0</ele>
        <time>2019-08-04T11:27:18.305Z</time>
      </trkpt>
      <trkpt lat="42.44999333" lon="1.47145">
        <ele>1385.0</ele>
        <time>2019-08-04T11:27:19.300Z</time>
      </trkpt>
      <trkpt lat="42.44998333" lon="1.4715">
        <ele>1386.0</ele>
        <time>2019-08-04T11:27:20.328Z</time>
      </trkpt>
      <trkpt lat="42.44998333" lon="1.4715">
        <ele>1386.0</ele>
        <time>2019-08-04T11:27:21.310Z</time>
      </trkpt>
      <trkpt lat="42.44997167" lon="1.47154667">
        <ele>1387.0</ele>
        <time>2019-08-04T11:27:22.320Z</time>
      </trkpt>
      <trkpt lat="42.44997167" lon="1.47154667">
        <ele>1387.0</ele>
        <time>2019-08-04T11:27:23.306Z</time>
      </trkpt>
      <trkpt lat="42.44994333" lon="1.47157833">
        <ele>1387.0</ele>
        <time>2019-08-04T11:27:24.301Z</time>
      </trkpt>
      <trkpt lat="42.44992167" lon="1.47158667">
        <ele>1388.0</ele>
        <time>2019-08-04T11:27:25.323Z</time>
      </trkpt>
      <trkpt lat="42.4499" lon="1.47158167">
        <ele>1388.0</ele>
        <time>2019-08-04T11:27:26.306Z</time>
      </trkpt>
      <trkpt lat="42.4499" lon="1.47158167">
        <ele>1388.0</ele>
        <time>2019-08-04T11:27:27.300Z</time>
      </trkpt>
      <trkpt lat="42.44986" lon="1.47155833">
        <ele>1389.0</ele>
        <time>2019-08-04T11:27:28.304Z</time>
      </trkpt>
      <trkpt lat="42.44986" lon="1.47155833">
        <ele>1389.0</ele>
        <time>2019-08-04T11:27:29.304Z</time>
      </trkpt>
      <trkpt lat="42.44982333" lon="1.47151167">
        <ele>1389.0</ele>
        <time>2019-08-04T11:27:30.301Z</time>
      </trkpt>
      <trkpt lat="42.44981" lon="1.47148833">
        <ele>1389.0</ele>
        <time>2019-08-04T11:27:31.306Z</time>
      </trkpt>
      <trkpt lat="42.44979833" lon="1.47146167">
        <ele>1390.0</ele>
        <time>2019-08-04T11:27:32.322Z</time>
      </trkpt>
      <trkpt lat="42.44979167" lon="1.47142333">
        <ele>1390.0</ele>
        <time>2019-08-04T11:27:33.305Z</time>
      </trkpt>
      <trkpt lat="42.44979167" lon="1.47142333">
        <ele>1390.0</ele>
        <time>2019-08-04T11:27:34.302Z</time>
      </trkpt>
      <trkpt lat="42.44978167" lon="1.47135">
        <ele>1390.0</ele>
        <time>2019-08-04T11:27:35.305Z</time>
      </trkpt>
      <trkpt lat="42.449775" lon="1.47132">
        <ele>1390.0</ele>
        <time>2019-08-04T11:27:36.321Z</time>
      </trkpt>
      <trkpt lat="42.449775" lon="1.47132">
        <ele>1390.0</ele>
        <time>2019-08-04T11:27:37.303Z</time>
      </trkpt>
      <trkpt lat="42.44976833" lon="1.47125833">
        <ele>1390.0</ele>
        <time>2019-08-04T11:27:38.305Z</time>
      </trkpt>
      <trkpt lat="42.44976" lon="1.47122833">
        <ele>1390.0</ele>
        <time>2019-08-04T11:27:39.306Z</time>
      </trkpt>
      <trkpt lat="42.44976" lon="1.47122833">
        <ele>1390.0</ele>
        <time>2019-08-04T11:27:40.300Z</time>
      </trkpt>
      <trkpt lat="42.44974833" lon="1.471165">
        <ele>1390.0</ele>
        <time>2019-08-04T11:27:41.305Z</time>
      </trkpt>
      <trkpt lat="42.44974833" lon="1.471165">
        <ele>1390.0</ele>
        <time>2019-08-04T11:27:42.320Z</time>
      </trkpt>
      <trkpt lat="42.449735" lon="1.47110333">
        <ele>1390.0</ele>
        <time>2019-08-04T11:27:43.302Z</time>
      </trkpt>
      <trkpt lat="42.44972667" lon="1.47107667">
        <ele>1390.0</ele>
        <time>2019-08-04T11:27:44.306Z</time>
      </trkpt>
      <trkpt lat="42.44971833" lon="1.47104833">
        <ele>1390.0</ele>
        <time>2019-08-04T11:27:45.306Z</time>
      </trkpt>
      <trkpt lat="42.44971833" lon="1.47104833">
        <ele>1390.0</ele>
        <time>2019-08-04T11:27:46.301Z</time>
      </trkpt>
      <trkpt lat="42.44970333" lon="1.47099333">
        <ele>1389.0</ele>
        <time>2019-08-04T11:27:47.303Z</time>
      </trkpt>
      <trkpt lat="42.4497" lon="1.47096333">
        <ele>1389.0</ele>
        <time>2019-08-04T11:27:48.306Z</time>
      </trkpt>
      <trkpt lat="42.4497" lon="1.47096333">
        <ele>1389.0</ele>
        <time>2019-08-04T11:27:49.301Z</time>
      </trkpt>
      <trkpt lat="42.44969167" lon="1.47091">
        <ele>1389.0</ele>
        <time>2019-08-04T11:27:50.305Z</time>
      </trkpt>
      <trkpt lat="42.44969167" lon="1.47091">
        <ele>1389.0</ele>
        <time>2019-08-04T11:27:51.302Z</time>
      </trkpt>
      <trkpt lat="42.44968667" lon="1.47085333">
        <ele>1389.0</ele>
        <time>2019-08-04T11:27:52.332Z</time>
      </trkpt>
      <trkpt lat="42.449685" lon="1.47082667">
        <ele>1388.0</ele>
        <time>2019-08-04T11:27:53.314Z</time>
      </trkpt>
      <trkpt lat="42.449685" lon="1.47082667">
        <ele>1388.0</ele>
        <time>2019-08-04T11:27:54.300Z</time>
      </trkpt>
      <trkpt lat="42.44968" lon="1.47077333">
        <ele>1388.0</ele>
        <time>2019-08-04T11:27:55.306Z</time>
      </trkpt>
      <trkpt lat="42.44968" lon="1.470745">
        <ele>1389.0</ele>
        <time>2019-08-04T11:27:56.306Z</time>
      </trkpt>
      <trkpt lat="42.44968167" lon="1.47071667">
        <ele>1389.0</ele>
        <time>2019-08-04T11:27:57.304Z</time>
      </trkpt>
      <trkpt lat="42.44968167" lon="1.47071667">
        <ele>1389.0</ele>
        <time>2019-08-04T11:27:58.300Z</time>
      </trkpt>
      <trkpt lat="42.44969" lon="1.47066167">
        <ele>1389.0</ele>
        <time>2019-08-04T11:27:59.313Z</time>
      </trkpt>
      <trkpt lat="42.44969167" lon="1.47063333">
        <ele>1389.0</ele>
        <time>2019-08-04T11:28:00.302Z</time>
      </trkpt>
      <trkpt lat="42.44969167" lon="1.47063333">
        <ele>1389.0</ele>
        <time>2019-08-04T11:28:01.303Z</time>
      </trkpt>
      <trkpt lat="42.44969333" lon="1.47057667">
        <ele>1389.0</ele>
        <time>2019-08-04T11:28:02.328Z</time>
      </trkpt>
      <trkpt lat="42.44969" lon="1.47054833">
        <ele>1389.0</ele>
        <time>2019-08-04T11:28:03.308Z</time>
      </trkpt>
      <trkpt lat="42.44969" lon="1.47054833">
        <ele>1389.0</ele>
        <time>2019-08-04T11:28:04.299Z</time>
      </trkpt>
      <trkpt lat="42.44967" lon="1.47049833">
        <ele>1389.0</ele>
        <time>2019-08-04T11:28:05.320Z</time>
      </trkpt>
      <trkpt lat="42.44965667" lon="1.47047833">
        <ele>1390.0</ele>
        <time>2019-08-04T11:28:06.304Z</time>
      </trkpt>
      <trkpt lat="42.44965667" lon="1.47047833">
        <ele>1390.0</ele>
        <time>2019-08-04T11:28:07.299Z</time>
      </trkpt>
      <trkpt lat="42.44961833" lon="1.47045167">
        <ele>1390.0</ele>
        <time>2019-08-04T11:28:08.320Z</time>
      </trkpt>
      <trkpt lat="42.44959667" lon="1.47044833">
        <ele>1390.0</ele>
        <time>2019-08-04T11:28:09.304Z</time>
      </trkpt>
      <trkpt lat="42.44959667" lon="1.47044833">
        <ele>1390.0</ele>
        <time>2019-08-04T11:28:10.313Z</time>
      </trkpt>
      <trkpt lat="42.44955667" lon="1.47045167">
        <ele>1391.0</ele>
        <time>2019-08-04T11:28:11.306Z</time>
      </trkpt>
      <trkpt lat="42.44954" lon="1.47045667">
        <ele>1391.0</ele>
        <time>2019-08-04T11:28:12.329Z</time>
      </trkpt>
      <trkpt lat="42.44954" lon="1.47045667">
        <ele>1391.0</ele>
        <time>2019-08-04T11:28:13.310Z</time>
      </trkpt>
      <trkpt lat="42.44950667" lon="1.47047833">
        <ele>1391.0</ele>
        <time>2019-08-04T11:28:14.305Z</time>
      </trkpt>
      <trkpt lat="42.44950667" lon="1.47047833">
        <ele>1391.0</ele>
        <time>2019-08-04T11:28:15.299Z</time>
      </trkpt>
      <trkpt lat="42.44947167" lon="1.47049167">
        <ele>1391.0</ele>
        <time>2019-08-04T11:28:16.320Z</time>
      </trkpt>
      <trkpt lat="42.44945167" lon="1.47049167">
        <ele>1391.0</ele>
        <time>2019-08-04T11:28:17.306Z</time>
      </trkpt>
      <trkpt lat="42.44945167" lon="1.47049167">
        <ele>1391.0</ele>
        <time>2019-08-04T11:28:18.299Z</time>
      </trkpt>
      <trkpt lat="42.44941333" lon="1.47048">
        <ele>1392.0</ele>
        <time>2019-08-04T11:28:19.320Z</time>
      </trkpt>
      <trkpt lat="42.44941333" lon="1.47048">
        <ele>1392.0</ele>
        <time>2019-08-04T11:28:20.303Z</time>
      </trkpt>
      <trkpt lat="42.449375" lon="1.47044667">
        <ele>1392.0</ele>
        <time>2019-08-04T11:28:21.305Z</time>
      </trkpt>
      <trkpt lat="42.44936333" lon="1.47041833">
        <ele>1393.0</ele>
        <time>2019-08-04T11:28:22.300Z</time>
      </trkpt>
      <trkpt lat="42.44936333" lon="1.47041833">
        <ele>1393.0</ele>
        <time>2019-08-04T11:28:23.299Z</time>
      </trkpt>
      <trkpt lat="42.449355" lon="1.47035833">
        <ele>1393.0</ele>
        <time>2019-08-04T11:28:24.303Z</time>
      </trkpt>
      <trkpt lat="42.449355" lon="1.47033">
        <ele>1393.0</ele>
        <time>2019-08-04T11:28:25.305Z</time>
      </trkpt>
      <trkpt lat="42.44935833" lon="1.47030333">
        <ele>1394.0</ele>
        <time>2019-08-04T11:28:26.306Z</time>
      </trkpt>
      <trkpt lat="42.449365" lon="1.47027833">
        <ele>1394.0</ele>
        <time>2019-08-04T11:28:27.313Z</time>
      </trkpt>
      <trkpt lat="42.449365" lon="1.47027833">
        <ele>1394.0</ele>
        <time>2019-08-04T11:28:28.302Z</time>
      </trkpt>
      <trkpt lat="42.44938667" lon="1.47023167">
        <ele>1395.0</ele>
        <time>2019-08-04T11:28:29.316Z</time>
      </trkpt>
      <trkpt lat="42.44938667" lon="1.47023167">
        <ele>1395.0</ele>
        <time>2019-08-04T11:28:30.315Z</time>
      </trkpt>
      <trkpt lat="42.449415" lon="1.47019333">
        <ele>1395.0</ele>
        <time>2019-08-04T11:28:31.321Z</time>
      </trkpt>
      <trkpt lat="42.44942833" lon="1.47017167">
        <ele>1395.0</ele>
        <time>2019-08-04T11:28:32.320Z</time>
      </trkpt>
      <trkpt lat="42.44944333" lon="1.47014833">
        <ele>1396.0</ele>
        <time>2019-08-04T11:28:33.306Z</time>
      </trkpt>
      <trkpt lat="42.44944333" lon="1.47014833">
        <ele>1396.0</ele>
        <time>2019-08-04T11:28:34.300Z</time>
      </trkpt>
      <trkpt lat="42.44947333" lon="1.470105">
        <ele>1396.0</ele>
        <time>2019-08-04T11:28:35.307Z</time>
      </trkpt>
      <trkpt lat="42.44947333" lon="1.470105">
        <ele>1396.0</ele>
        <time>2019-08-04T11:28:36.302Z</time>
      </trkpt>
      <trkpt lat="42.44950167" lon="1.47006167">
        <ele>1396.0</ele>
        <time>2019-08-04T11:28:37.306Z</time>
      </trkpt>
      <trkpt lat="42.44950167" lon="1.47006167">
        <ele>1396.0</ele>
        <time>2019-08-04T11:28:38.303Z</time>
      </trkpt>
      <trkpt lat="42.44952333" lon="1.47001667">
        <ele>1396.0</ele>
        <time>2019-08-04T11:28:39.303Z</time>
      </trkpt>
      <trkpt lat="42.44952333" lon="1.47001667">
        <ele>1396.0</ele>
        <time>2019-08-04T11:28:40.303Z</time>
      </trkpt>
      <trkpt lat="42.44954333" lon="1.46996667">
        <ele>1397.0</ele>
        <time>2019-08-04T11:28:41.306Z</time>
      </trkpt>
      <trkpt lat="42.44954333" lon="1.46996667">
        <ele>1397.0</ele>
        <time>2019-08-04T11:28:42.312Z</time>
      </trkpt>
      <trkpt lat="42.44955833" lon="1.46991167">
        <ele>1398.0</ele>
        <time>2019-08-04T11:28:43.305Z</time>
      </trkpt>
      <trkpt lat="42.44955833" lon="1.46991167">
        <ele>1398.0</ele>
        <time>2019-08-04T11:28:44.301Z</time>
      </trkpt>
      <trkpt lat="42.44956333" lon="1.46985667">
        <ele>1398.0</ele>
        <time>2019-08-04T11:28:45.304Z</time>
      </trkpt>
      <trkpt lat="42.44956" lon="1.46983">
        <ele>1398.0</ele>
        <time>2019-08-04T11:28:46.305Z</time>
      </trkpt>
      <trkpt lat="42.44956" lon="1.46983">
        <ele>1398.0</ele>
        <time>2019-08-04T11:28:47.300Z</time>
      </trkpt>
      <trkpt lat="42.44954833" lon="1.46977333">
        <ele>1399.0</ele>
        <time>2019-08-04T11:28:48.303Z</time>
      </trkpt>
      <trkpt lat="42.44954167" lon="1.46974667">
        <ele>1399.0</ele>
        <time>2019-08-04T11:28:49.306Z</time>
      </trkpt>
      <trkpt lat="42.44954167" lon="1.46974667">
        <ele>1399.0</ele>
        <time>2019-08-04T11:28:50.299Z</time>
      </trkpt>
      <trkpt lat="42.449525" lon="1.46969833">
        <ele>1399.0</ele>
        <time>2019-08-04T11:28:51.321Z</time>
      </trkpt>
      <trkpt lat="42.44951167" lon="1.46967667">
        <ele>1400.0</ele>
        <time>2019-08-04T11:28:52.322Z</time>
      </trkpt>
      <trkpt lat="42.44951167" lon="1.46967667">
        <ele>1400.0</ele>
        <time>2019-08-04T11:28:53.303Z</time>
      </trkpt>
      <trkpt lat="42.44948833" lon="1.46963333">
        <ele>1400.0</ele>
        <time>2019-08-04T11:28:54.309Z</time>
      </trkpt>
      <trkpt lat="42.44947333" lon="1.46961333">
        <ele>1400.0</ele>
        <time>2019-08-04T11:28:55.303Z</time>
      </trkpt>
      <trkpt lat="42.44945667" lon="1.46959667">
        <ele>1400.0</ele>
        <time>2019-08-04T11:28:56.306Z</time>
      </trkpt>
      <trkpt lat="42.44945667" lon="1.46959667">
        <ele>1400.0</ele>
        <time>2019-08-04T11:28:57.302Z</time>
      </trkpt>
      <trkpt lat="42.44942167" lon="1.46957">
        <ele>1401.0</ele>
        <time>2019-08-04T11:28:58.305Z</time>
      </trkpt>
      <trkpt lat="42.449405" lon="1.46956333">
        <ele>1401.0</ele>
        <time>2019-08-04T11:28:59.306Z</time>
      </trkpt>
      <trkpt lat="42.449405" lon="1.46956333">
        <ele>1401.0</ele>
        <time>2019-08-04T11:29:00.300Z</time>
      </trkpt>
      <trkpt lat="42.449365" lon="1.46955">
        <ele>1401.0</ele>
        <time>2019-08-04T11:29:01.305Z</time>
      </trkpt>
      <trkpt lat="42.449365" lon="1.46955">
        <ele>1401.0</ele>
        <time>2019-08-04T11:29:02.333Z</time>
      </trkpt>
      <trkpt lat="42.44932333" lon="1.46952833">
        <ele>1402.0</ele>
        <time>2019-08-04T11:29:03.321Z</time>
      </trkpt>
      <trkpt lat="42.44932333" lon="1.46952833">
        <ele>1402.0</ele>
        <time>2019-08-04T11:29:04.310Z</time>
      </trkpt>
      <trkpt lat="42.44928667" lon="1.46950333">
        <ele>1402.0</ele>
        <time>2019-08-04T11:29:05.313Z</time>
      </trkpt>
      <trkpt lat="42.44928667" lon="1.46950333">
        <ele>1402.0</ele>
        <time>2019-08-04T11:29:06.302Z</time>
      </trkpt>
      <trkpt lat="42.44925" lon="1.469475">
        <ele>1403.0</ele>
        <time>2019-08-04T11:29:07.306Z</time>
      </trkpt>
      <trkpt lat="42.449235" lon="1.46945667">
        <ele>1403.0</ele>
        <time>2019-08-04T11:29:08.329Z</time>
      </trkpt>
      <trkpt lat="42.449235" lon="1.46945667">
        <ele>1403.0</ele>
        <time>2019-08-04T11:29:09.310Z</time>
      </trkpt>
      <trkpt lat="42.44921167" lon="1.46941833">
        <ele>1404.0</ele>
        <time>2019-08-04T11:29:10.305Z</time>
      </trkpt>
      <trkpt lat="42.44920167" lon="1.469395">
        <ele>1404.0</ele>
        <time>2019-08-04T11:29:11.306Z</time>
      </trkpt>
      <trkpt lat="42.44920167" lon="1.469395">
        <ele>1404.0</ele>
        <time>2019-08-04T11:29:12.323Z</time>
      </trkpt>
      <trkpt lat="42.44917667" lon="1.46935">
        <ele>1404.0</ele>
        <time>2019-08-04T11:29:13.305Z</time>
      </trkpt>
      <trkpt lat="42.449165" lon="1.46932833">
        <ele>1405.0</ele>
        <time>2019-08-04T11:29:14.303Z</time>
      </trkpt>
      <trkpt lat="42.449165" lon="1.46932833">
        <ele>1405.0</ele>
        <time>2019-08-04T11:29:15.327Z</time>
      </trkpt>
      <trkpt lat="42.44914333" lon="1.46928333">
        <ele>1405.0</ele>
        <time>2019-08-04T11:29:16.309Z</time>
      </trkpt>
      <trkpt lat="42.44914333" lon="1.46928333">
        <ele>1405.0</ele>
        <time>2019-08-04T11:29:17.303Z</time>
      </trkpt>
      <trkpt lat="42.44911833" lon="1.46923833">
        <ele>1406.0</ele>
        <time>2019-08-04T11:29:18.306Z</time>
      </trkpt>
      <trkpt lat="42.44911833" lon="1.46923833">
        <ele>1406.0</ele>
        <time>2019-08-04T11:29:19.302Z</time>
      </trkpt>
      <trkpt lat="42.44909167" lon="1.4692">
        <ele>1406.0</ele>
        <time>2019-08-04T11:29:20.328Z</time>
      </trkpt>
      <trkpt lat="42.44907833" lon="1.469185">
        <ele>1407.0</ele>
        <time>2019-08-04T11:29:21.321Z</time>
      </trkpt>
      <trkpt lat="42.44907833" lon="1.469185">
        <ele>1407.0</ele>
        <time>2019-08-04T11:29:22.313Z</time>
      </trkpt>
      <trkpt lat="42.44904833" lon="1.46916167">
        <ele>1407.0</ele>
        <time>2019-08-04T11:29:23.307Z</time>
      </trkpt>
      <trkpt lat="42.44904833" lon="1.46916167">
        <ele>1407.0</ele>
        <time>2019-08-04T11:29:24.302Z</time>
      </trkpt>
      <trkpt lat="42.449025" lon="1.469135">
        <ele>1408.0</ele>
        <time>2019-08-04T11:29:25.306Z</time>
      </trkpt>
      <trkpt lat="42.449025" lon="1.469135">
        <ele>1408.0</ele>
        <time>2019-08-04T11:29:26.303Z</time>
      </trkpt>
      <trkpt lat="42.449" lon="1.46910333">
        <ele>1408.0</ele>
        <time>2019-08-04T11:29:27.306Z</time>
      </trkpt>
      <trkpt lat="42.44898667" lon="1.46909">
        <ele>1409.0</ele>
        <time>2019-08-04T11:29:28.306Z</time>
      </trkpt>
      <trkpt lat="42.44898667" lon="1.46909">
        <ele>1409.0</ele>
        <time>2019-08-04T11:29:29.308Z</time>
      </trkpt>
      <trkpt lat="42.44895333" lon="1.46906333">
        <ele>1409.0</ele>
        <time>2019-08-04T11:29:30.300Z</time>
      </trkpt>
      <trkpt lat="42.44895333" lon="1.46906333">
        <ele>1409.0</ele>
        <time>2019-08-04T11:29:31.307Z</time>
      </trkpt>
      <trkpt lat="42.44891833" lon="1.46904167">
        <ele>1410.0</ele>
        <time>2019-08-04T11:29:32.308Z</time>
      </trkpt>
      <trkpt lat="42.44889833" lon="1.469035">
        <ele>1410.0</ele>
        <time>2019-08-04T11:29:33.307Z</time>
      </trkpt>
      <trkpt lat="42.44889833" lon="1.469035">
        <ele>1410.0</ele>
        <time>2019-08-04T11:29:34.306Z</time>
      </trkpt>
      <trkpt lat="42.44886167" lon="1.469005">
        <ele>1411.0</ele>
        <time>2019-08-04T11:29:35.306Z</time>
      </trkpt>
      <trkpt lat="42.44886167" lon="1.469005">
        <ele>1411.0</ele>
        <time>2019-08-04T11:29:36.303Z</time>
      </trkpt>
      <trkpt lat="42.44882167" lon="1.46896667">
        <ele>1412.0</ele>
        <time>2019-08-04T11:29:37.303Z</time>
      </trkpt>
      <trkpt lat="42.44882167" lon="1.46896667">
        <ele>1412.0</ele>
        <time>2019-08-04T11:29:38.301Z</time>
      </trkpt>
      <trkpt lat="42.44878333" lon="1.46893333">
        <ele>1413.0</ele>
        <time>2019-08-04T11:29:39.305Z</time>
      </trkpt>
      <trkpt lat="42.44876667" lon="1.46892">
        <ele>1413.0</ele>
        <time>2019-08-04T11:29:40.306Z</time>
      </trkpt>
      <trkpt lat="42.44874833" lon="1.46890667">
        <ele>1413.0</ele>
        <time>2019-08-04T11:29:41.306Z</time>
      </trkpt>
      <trkpt lat="42.44874833" lon="1.46890667">
        <ele>1413.0</ele>
        <time>2019-08-04T11:29:42.321Z</time>
      </trkpt>
      <trkpt lat="42.44871333" lon="1.46888333">
        <ele>1414.0</ele>
        <time>2019-08-04T11:29:43.304Z</time>
      </trkpt>
      <trkpt lat="42.44869833" lon="1.46886833">
        <ele>1414.0</ele>
        <time>2019-08-04T11:29:44.308Z</time>
      </trkpt>
      <trkpt lat="42.44868" lon="1.468855">
        <ele>1415.0</ele>
        <time>2019-08-04T11:29:45.306Z</time>
      </trkpt>
      <trkpt lat="42.44868" lon="1.468855">
        <ele>1415.0</ele>
        <time>2019-08-04T11:29:46.302Z</time>
      </trkpt>
      <trkpt lat="42.44863833" lon="1.46883">
        <ele>1415.0</ele>
        <time>2019-08-04T11:29:47.313Z</time>
      </trkpt>
      <trkpt lat="42.44863833" lon="1.46883">
        <ele>1415.0</ele>
        <time>2019-08-04T11:29:48.300Z</time>
      </trkpt>
      <trkpt lat="42.44860333" lon="1.46879167">
        <ele>1416.0</ele>
        <time>2019-08-04T11:29:49.306Z</time>
      </trkpt>
      <trkpt lat="42.44858667" lon="1.46877">
        <ele>1416.0</ele>
        <time>2019-08-04T11:29:50.306Z</time>
      </trkpt>
      <trkpt lat="42.44858667" lon="1.46877">
        <ele>1416.0</ele>
        <time>2019-08-04T11:29:51.303Z</time>
      </trkpt>
      <trkpt lat="42.44856333" lon="1.46872333">
        <ele>1416.0</ele>
        <time>2019-08-04T11:29:52.299Z</time>
      </trkpt>
      <trkpt lat="42.44856333" lon="1.46872333">
        <ele>1416.0</ele>
        <time>2019-08-04T11:29:53.320Z</time>
      </trkpt>
      <trkpt lat="42.44853833" lon="1.46868667">
        <ele>1417.0</ele>
        <time>2019-08-04T11:29:54.311Z</time>
      </trkpt>
      <trkpt lat="42.44853833" lon="1.46868667">
        <ele>1417.0</ele>
        <time>2019-08-04T11:29:55.304Z</time>
      </trkpt>
      <trkpt lat="42.44851167" lon="1.46865333">
        <ele>1417.0</ele>
        <time>2019-08-04T11:29:56.307Z</time>
      </trkpt>
      <trkpt lat="42.44849667" lon="1.46863667">
        <ele>1418.0</ele>
        <time>2019-08-04T11:29:57.306Z</time>
      </trkpt>
      <trkpt lat="42.44849667" lon="1.46863667">
        <ele>1418.0</ele>
        <time>2019-08-04T11:29:58.299Z</time>
      </trkpt>
      <trkpt lat="42.448465" lon="1.46859833">
        <ele>1418.0</ele>
        <time>2019-08-04T11:29:59.305Z</time>
      </trkpt>
      <trkpt lat="42.44845167" lon="1.468575">
        <ele>1418.0</ele>
        <time>2019-08-04T11:30:00.322Z</time>
      </trkpt>
      <trkpt lat="42.44845167" lon="1.468575">
        <ele>1418.0</ele>
        <time>2019-08-04T11:30:01.303Z</time>
      </trkpt>
      <trkpt lat="42.44842833" lon="1.468525">
        <ele>1419.0</ele>
        <time>2019-08-04T11:30:02.329Z</time>
      </trkpt>
      <trkpt lat="42.44842833" lon="1.468525">
        <ele>1419.0</ele>
        <time>2019-08-04T11:30:03.311Z</time>
      </trkpt>
      <trkpt lat="42.44841333" lon="1.46847167">
        <ele>1419.0</ele>
        <time>2019-08-04T11:30:04.307Z</time>
      </trkpt>
      <trkpt lat="42.44841333" lon="1.46847167">
        <ele>1419.0</ele>
        <time>2019-08-04T11:30:05.301Z</time>
      </trkpt>
      <trkpt lat="42.44839" lon="1.46842">
        <ele>1420.0</ele>
        <time>2019-08-04T11:30:06.304Z</time>
      </trkpt>
      <trkpt lat="42.44839" lon="1.46842">
        <ele>1420.0</ele>
        <time>2019-08-04T11:30:07.299Z</time>
      </trkpt>
      <trkpt lat="42.44837333" lon="1.46837">
        <ele>1420.0</ele>
        <time>2019-08-04T11:30:08.320Z</time>
      </trkpt>
      <trkpt lat="42.44837333" lon="1.46837">
        <ele>1420.0</ele>
        <time>2019-08-04T11:30:09.301Z</time>
      </trkpt>
      <trkpt lat="42.448355" lon="1.46832">
        <ele>1421.0</ele>
        <time>2019-08-04T11:30:10.305Z</time>
      </trkpt>
      <trkpt lat="42.448355" lon="1.46832">
        <ele>1421.0</ele>
        <time>2019-08-04T11:30:11.300Z</time>
      </trkpt>
      <trkpt lat="42.44833833" lon="1.46826833">
        <ele>1421.0</ele>
        <time>2019-08-04T11:30:12.328Z</time>
      </trkpt>
      <trkpt lat="42.44833833" lon="1.46826833">
        <ele>1421.0</ele>
        <time>2019-08-04T11:30:13.320Z</time>
      </trkpt>
      <trkpt lat="42.44832" lon="1.46821833">
        <ele>1421.0</ele>
        <time>2019-08-04T11:30:14.307Z</time>
      </trkpt>
      <trkpt lat="42.44832" lon="1.46821833">
        <ele>1421.0</ele>
        <time>2019-08-04T11:30:15.314Z</time>
      </trkpt>
      <trkpt lat="42.44830333" lon="1.468165">
        <ele>1422.0</ele>
        <time>2019-08-04T11:30:16.305Z</time>
      </trkpt>
      <trkpt lat="42.448295" lon="1.46813833">
        <ele>1422.0</ele>
        <time>2019-08-04T11:30:17.306Z</time>
      </trkpt>
      <trkpt lat="42.448295" lon="1.46813833">
        <ele>1422.0</ele>
        <time>2019-08-04T11:30:18.300Z</time>
      </trkpt>
      <trkpt lat="42.44828" lon="1.46808667">
        <ele>1422.0</ele>
        <time>2019-08-04T11:30:19.328Z</time>
      </trkpt>
      <trkpt lat="42.44827333" lon="1.46806167">
        <ele>1423.0</ele>
        <time>2019-08-04T11:30:20.310Z</time>
      </trkpt>
      <trkpt lat="42.44827333" lon="1.46806167">
        <ele>1423.0</ele>
        <time>2019-08-04T11:30:21.300Z</time>
      </trkpt>
      <trkpt lat="42.44826333" lon="1.46800833">
        <ele>1423.0</ele>
        <time>2019-08-04T11:30:22.331Z</time>
      </trkpt>
      <trkpt lat="42.44826" lon="1.46798167">
        <ele>1423.0</ele>
        <time>2019-08-04T11:30:23.314Z</time>
      </trkpt>
      <trkpt lat="42.44826" lon="1.46798167">
        <ele>1423.0</ele>
        <time>2019-08-04T11:30:24.306Z</time>
      </trkpt>
      <trkpt lat="42.44825" lon="1.46793">
        <ele>1424.0</ele>
        <time>2019-08-04T11:30:25.306Z</time>
      </trkpt>
      <trkpt lat="42.44825" lon="1.46793">
        <ele>1424.0</ele>
        <time>2019-08-04T11:30:26.301Z</time>
      </trkpt>
      <trkpt lat="42.44823833" lon="1.46787833">
        <ele>1424.0</ele>
        <time>2019-08-04T11:30:27.305Z</time>
      </trkpt>
      <trkpt lat="42.44823833" lon="1.46787833">
        <ele>1424.0</ele>
        <time>2019-08-04T11:30:28.303Z</time>
      </trkpt>
      <trkpt lat="42.448225" lon="1.46782667">
        <ele>1424.0</ele>
        <time>2019-08-04T11:30:29.307Z</time>
      </trkpt>
      <trkpt lat="42.448225" lon="1.46782667">
        <ele>1424.0</ele>
        <time>2019-08-04T11:30:30.331Z</time>
      </trkpt>
      <trkpt lat="42.44821" lon="1.46777667">
        <ele>1425.0</ele>
        <time>2019-08-04T11:30:31.299Z</time>
      </trkpt>
      <trkpt lat="42.44820167" lon="1.46775167">
        <ele>1425.0</ele>
        <time>2019-08-04T11:30:32.323Z</time>
      </trkpt>
      <trkpt lat="42.44819" lon="1.46772667">
        <ele>1425.0</ele>
        <time>2019-08-04T11:30:33.307Z</time>
      </trkpt>
      <trkpt lat="42.44819" lon="1.46772667">
        <ele>1425.0</ele>
        <time>2019-08-04T11:30:34.303Z</time>
      </trkpt>
      <trkpt lat="42.44817333" lon="1.46767667">
        <ele>1425.0</ele>
        <time>2019-08-04T11:30:35.300Z</time>
      </trkpt>
      <trkpt lat="42.448165" lon="1.46765167">
        <ele>1425.0</ele>
        <time>2019-08-04T11:30:36.321Z</time>
      </trkpt>
      <trkpt lat="42.44815667" lon="1.46762833">
        <ele>1426.0</ele>
        <time>2019-08-04T11:30:37.305Z</time>
      </trkpt>
      <trkpt lat="42.44815667" lon="1.46762833">
        <ele>1426.0</ele>
        <time>2019-08-04T11:30:38.304Z</time>
      </trkpt>
      <trkpt lat="42.44814" lon="1.46757833">
        <ele>1426.0</ele>
        <time>2019-08-04T11:30:39.305Z</time>
      </trkpt>
      <trkpt lat="42.44814" lon="1.46757833">
        <ele>1426.0</ele>
        <time>2019-08-04T11:30:40.301Z</time>
      </trkpt>
      <trkpt lat="42.44812" lon="1.46753167">
        <ele>1427.0</ele>
        <time>2019-08-04T11:30:41.304Z</time>
      </trkpt>
      <trkpt lat="42.44811167" lon="1.46750833">
        <ele>1427.0</ele>
        <time>2019-08-04T11:30:42.321Z</time>
      </trkpt>
      <trkpt lat="42.44810167" lon="1.46748333">
        <ele>1427.0</ele>
        <time>2019-08-04T11:30:43.304Z</time>
      </trkpt>
      <trkpt lat="42.44810167" lon="1.46748333">
        <ele>1427.0</ele>
        <time>2019-08-04T11:30:44.304Z</time>
      </trkpt>
      <trkpt lat="42.448085" lon="1.46743667">
        <ele>1427.0</ele>
        <time>2019-08-04T11:30:45.297Z</time>
      </trkpt>
      <trkpt lat="42.448075" lon="1.46741333">
        <ele>1428.0</ele>
        <time>2019-08-04T11:30:46.320Z</time>
      </trkpt>
      <trkpt lat="42.448075" lon="1.46741333">
        <ele>1428.0</ele>
        <time>2019-08-04T11:30:47.303Z</time>
      </trkpt>
      <trkpt lat="42.44805667" lon="1.46736667">
        <ele>1428.0</ele>
        <time>2019-08-04T11:30:48.302Z</time>
      </trkpt>
      <trkpt lat="42.448045" lon="1.467345">
        <ele>1428.0</ele>
        <time>2019-08-04T11:30:49.306Z</time>
      </trkpt>
      <trkpt lat="42.448045" lon="1.467345">
        <ele>1428.0</ele>
        <time>2019-08-04T11:30:50.297Z</time>
      </trkpt>
      <trkpt lat="42.448025" lon="1.4673">
        <ele>1428.0</ele>
        <time>2019-08-04T11:30:51.321Z</time>
      </trkpt>
      <trkpt lat="42.448015" lon="1.46727667">
        <ele>1429.0</ele>
        <time>2019-08-04T11:30:52.329Z</time>
      </trkpt>
      <trkpt lat="42.448015" lon="1.46727667">
        <ele>1429.0</ele>
        <time>2019-08-04T11:30:53.320Z</time>
      </trkpt>
      <trkpt lat="42.44799833" lon="1.46722833">
        <ele>1429.0</ele>
        <time>2019-08-04T11:30:54.304Z</time>
      </trkpt>
      <trkpt lat="42.44799833" lon="1.46722833">
        <ele>1429.0</ele>
        <time>2019-08-04T11:30:55.334Z</time>
      </trkpt>
      <trkpt lat="42.44798167" lon="1.46717833">
        <ele>1429.0</ele>
        <time>2019-08-04T11:30:56.320Z</time>
      </trkpt>
      <trkpt lat="42.44798167" lon="1.46717833">
        <ele>1429.0</ele>
        <time>2019-08-04T11:30:57.301Z</time>
      </trkpt>
      <trkpt lat="42.44796167" lon="1.46712667">
        <ele>1430.0</ele>
        <time>2019-08-04T11:30:58.306Z</time>
      </trkpt>
      <trkpt lat="42.44796167" lon="1.46712667">
        <ele>1430.0</ele>
        <time>2019-08-04T11:30:59.299Z</time>
      </trkpt>
      <trkpt lat="42.44794" lon="1.46707833">
        <ele>1430.0</ele>
        <time>2019-08-04T11:31:00.321Z</time>
      </trkpt>
      <trkpt lat="42.44794" lon="1.46707833">
        <ele>1430.0</ele>
        <time>2019-08-04T11:31:01.302Z</time>
      </trkpt>
      <trkpt lat="42.44792167" lon="1.46702667">
        <ele>1430.0</ele>
        <time>2019-08-04T11:31:02.323Z</time>
      </trkpt>
      <trkpt lat="42.44791" lon="1.46700333">
        <ele>1430.0</ele>
        <time>2019-08-04T11:31:03.313Z</time>
      </trkpt>
      <trkpt lat="42.44791" lon="1.46700333">
        <ele>1430.0</ele>
        <time>2019-08-04T11:31:04.299Z</time>
      </trkpt>
      <trkpt lat="42.44788833" lon="1.46695667">
        <ele>1431.0</ele>
        <time>2019-08-04T11:31:05.326Z</time>
      </trkpt>
      <trkpt lat="42.44788833" lon="1.46695667">
        <ele>1431.0</ele>
        <time>2019-08-04T11:31:06.307Z</time>
      </trkpt>
      <trkpt lat="42.44786833" lon="1.46690833">
        <ele>1431.0</ele>
        <time>2019-08-04T11:31:07.306Z</time>
      </trkpt>
      <trkpt lat="42.44786833" lon="1.46690833">
        <ele>1431.0</ele>
        <time>2019-08-04T11:31:08.304Z</time>
      </trkpt>
      <trkpt lat="42.44784833" lon="1.46686">
        <ele>1431.0</ele>
        <time>2019-08-04T11:31:09.306Z</time>
      </trkpt>
      <trkpt lat="42.44784833" lon="1.46686">
        <ele>1431.0</ele>
        <time>2019-08-04T11:31:10.304Z</time>
      </trkpt>
      <trkpt lat="42.44782667" lon="1.46681333">
        <ele>1432.0</ele>
        <time>2019-08-04T11:31:11.306Z</time>
      </trkpt>
      <trkpt lat="42.44782667" lon="1.46681333">
        <ele>1432.0</ele>
        <time>2019-08-04T11:31:12.315Z</time>
      </trkpt>
      <trkpt lat="42.44780667" lon="1.466765">
        <ele>1432.0</ele>
        <time>2019-08-04T11:31:13.305Z</time>
      </trkpt>
      <trkpt lat="42.447795" lon="1.46674333">
        <ele>1432.0</ele>
        <time>2019-08-04T11:31:14.306Z</time>
      </trkpt>
      <trkpt lat="42.447795" lon="1.46674333">
        <ele>1432.0</ele>
        <time>2019-08-04T11:31:15.303Z</time>
      </trkpt>
      <trkpt lat="42.44777333" lon="1.4667">
        <ele>1433.0</ele>
        <time>2019-08-04T11:31:16.306Z</time>
      </trkpt>
      <trkpt lat="42.44776167" lon="1.46667833">
        <ele>1433.0</ele>
        <time>2019-08-04T11:31:17.305Z</time>
      </trkpt>
      <trkpt lat="42.44776167" lon="1.46667833">
        <ele>1433.0</ele>
        <time>2019-08-04T11:31:18.301Z</time>
      </trkpt>
      <trkpt lat="42.44773333" lon="1.46664167">
        <ele>1433.0</ele>
        <time>2019-08-04T11:31:19.305Z</time>
      </trkpt>
      <trkpt lat="42.44772" lon="1.46662">
        <ele>1433.0</ele>
        <time>2019-08-04T11:31:20.329Z</time>
      </trkpt>
      <trkpt lat="42.44772" lon="1.46662">
        <ele>1433.0</ele>
        <time>2019-08-04T11:31:21.310Z</time>
      </trkpt>
      <trkpt lat="42.44769" lon="1.46658333">
        <ele>1434.0</ele>
        <time>2019-08-04T11:31:22.329Z</time>
      </trkpt>
      <trkpt lat="42.44769" lon="1.46658333">
        <ele>1434.0</ele>
        <time>2019-08-04T11:31:23.310Z</time>
      </trkpt>
      <trkpt lat="42.447655" lon="1.466555">
        <ele>1434.0</ele>
        <time>2019-08-04T11:31:24.306Z</time>
      </trkpt>
      <trkpt lat="42.44763667" lon="1.46654167">
        <ele>1435.0</ele>
        <time>2019-08-04T11:31:25.305Z</time>
      </trkpt>
      <trkpt lat="42.44763667" lon="1.46654167">
        <ele>1435.0</ele>
        <time>2019-08-04T11:31:26.303Z</time>
      </trkpt>
      <trkpt lat="42.4476" lon="1.46651833">
        <ele>1435.0</ele>
        <time>2019-08-04T11:31:27.305Z</time>
      </trkpt>
      <trkpt lat="42.4476" lon="1.46651833">
        <ele>1435.0</ele>
        <time>2019-08-04T11:31:28.303Z</time>
      </trkpt>
      <trkpt lat="42.44756167" lon="1.46649333">
        <ele>1436.0</ele>
        <time>2019-08-04T11:31:29.310Z</time>
      </trkpt>
      <trkpt lat="42.44756167" lon="1.46649333">
        <ele>1436.0</ele>
        <time>2019-08-04T11:31:30.309Z</time>
      </trkpt>
      <trkpt lat="42.447525" lon="1.46646667">
        <ele>1436.0</ele>
        <time>2019-08-04T11:31:31.315Z</time>
      </trkpt>
      <trkpt lat="42.44750667" lon="1.466455">
        <ele>1436.0</ele>
        <time>2019-08-04T11:31:32.329Z</time>
      </trkpt>
      <trkpt lat="42.44750667" lon="1.466455">
        <ele>1436.0</ele>
        <time>2019-08-04T11:31:33.310Z</time>
      </trkpt>
      <trkpt lat="42.44747" lon="1.46642833">
        <ele>1437.0</ele>
        <time>2019-08-04T11:31:34.306Z</time>
      </trkpt>
      <trkpt lat="42.44747" lon="1.46642833">
        <ele>1437.0</ele>
        <time>2019-08-04T11:31:35.308Z</time>
      </trkpt>
      <trkpt lat="42.44743667" lon="1.46639667">
        <ele>1437.0</ele>
        <time>2019-08-04T11:31:36.307Z</time>
      </trkpt>
      <trkpt lat="42.44743667" lon="1.46639667">
        <ele>1437.0</ele>
        <time>2019-08-04T11:31:37.299Z</time>
      </trkpt>
      <trkpt lat="42.44740167" lon="1.46637333">
        <ele>1438.0</ele>
        <time>2019-08-04T11:31:38.321Z</time>
      </trkpt>
      <trkpt lat="42.44740167" lon="1.46637333">
        <ele>1438.0</ele>
        <time>2019-08-04T11:31:39.307Z</time>
      </trkpt>
      <trkpt lat="42.44736667" lon="1.46635">
        <ele>1438.0</ele>
        <time>2019-08-04T11:31:40.329Z</time>
      </trkpt>
      <trkpt lat="42.44735" lon="1.46633833">
        <ele>1438.0</ele>
        <time>2019-08-04T11:31:41.311Z</time>
      </trkpt>
      <trkpt lat="42.44735" lon="1.46633833">
        <ele>1438.0</ele>
        <time>2019-08-04T11:31:42.313Z</time>
      </trkpt>
      <trkpt lat="42.44731333" lon="1.46631833">
        <ele>1439.0</ele>
        <time>2019-08-04T11:31:43.307Z</time>
      </trkpt>
      <trkpt lat="42.44731333" lon="1.46631833">
        <ele>1439.0</ele>
        <time>2019-08-04T11:31:44.305Z</time>
      </trkpt>
      <trkpt lat="42.44728" lon="1.46629167">
        <ele>1439.0</ele>
        <time>2019-08-04T11:31:45.310Z</time>
      </trkpt>
      <trkpt lat="42.44728" lon="1.46629167">
        <ele>1439.0</ele>
        <time>2019-08-04T11:31:46.300Z</time>
      </trkpt>
      <trkpt lat="42.44725" lon="1.466265">
        <ele>1440.0</ele>
        <time>2019-08-04T11:31:47.306Z</time>
      </trkpt>
      <trkpt lat="42.44723333" lon="1.46625167">
        <ele>1440.0</ele>
        <time>2019-08-04T11:31:48.306Z</time>
      </trkpt>
      <trkpt lat="42.44723333" lon="1.46625167">
        <ele>1440.0</ele>
        <time>2019-08-04T11:31:49.297Z</time>
      </trkpt>
      <trkpt lat="42.44719833" lon="1.466235">
        <ele>1440.0</ele>
        <time>2019-08-04T11:31:50.320Z</time>
      </trkpt>
      <trkpt lat="42.44718" lon="1.46622667">
        <ele>1441.0</ele>
        <time>2019-08-04T11:31:51.306Z</time>
      </trkpt>
      <trkpt lat="42.44718" lon="1.46622667">
        <ele>1441.0</ele>
        <time>2019-08-04T11:31:52.320Z</time>
      </trkpt>
      <trkpt lat="42.44714667" lon="1.466205">
        <ele>1441.0</ele>
        <time>2019-08-04T11:31:53.306Z</time>
      </trkpt>
      <trkpt lat="42.44714667" lon="1.466205">
        <ele>1441.0</ele>
        <time>2019-08-04T11:31:54.299Z</time>
      </trkpt>
      <trkpt lat="42.44711167" lon="1.46618333">
        <ele>1441.0</ele>
        <time>2019-08-04T11:31:55.327Z</time>
      </trkpt>
      <trkpt lat="42.44711167" lon="1.46618333">
        <ele>1441.0</ele>
        <time>2019-08-04T11:31:56.303Z</time>
      </trkpt>
      <trkpt lat="42.44708" lon="1.46616">
        <ele>1442.0</ele>
        <time>2019-08-04T11:31:57.304Z</time>
      </trkpt>
      <trkpt lat="42.447065" lon="1.46615167">
        <ele>1442.0</ele>
        <time>2019-08-04T11:31:58.305Z</time>
      </trkpt>
      <trkpt lat="42.44704833" lon="1.46614">
        <ele>1442.0</ele>
        <time>2019-08-04T11:31:59.307Z</time>
      </trkpt>
      <trkpt lat="42.44704833" lon="1.46614">
        <ele>1442.0</ele>
        <time>2019-08-04T11:32:00.301Z</time>
      </trkpt>
      <trkpt lat="42.44701667" lon="1.466115">
        <ele>1443.0</ele>
        <time>2019-08-04T11:32:01.306Z</time>
      </trkpt>
      <trkpt lat="42.44701667" lon="1.466115">
        <ele>1443.0</ele>
        <time>2019-08-04T11:32:02.328Z</time>
      </trkpt>
      <trkpt lat="42.44698667" lon="1.46608667">
        <ele>1443.0</ele>
        <time>2019-08-04T11:32:03.310Z</time>
      </trkpt>
      <trkpt lat="42.44698667" lon="1.46608667">
        <ele>1443.0</ele>
        <time>2019-08-04T11:32:04.300Z</time>
      </trkpt>
      <trkpt lat="42.44695" lon="1.466065">
        <ele>1443.0</ele>
        <time>2019-08-04T11:32:05.307Z</time>
      </trkpt>
      <trkpt lat="42.44693" lon="1.46605167">
        <ele>1444.0</ele>
        <time>2019-08-04T11:32:06.307Z</time>
      </trkpt>
      <trkpt lat="42.44693" lon="1.46605167">
        <ele>1444.0</ele>
        <time>2019-08-04T11:32:07.302Z</time>
      </trkpt>
      <trkpt lat="42.44689667" lon="1.466025">
        <ele>1444.0</ele>
        <time>2019-08-04T11:32:08.306Z</time>
      </trkpt>
      <trkpt lat="42.44688" lon="1.46601167">
        <ele>1445.0</ele>
        <time>2019-08-04T11:32:09.314Z</time>
      </trkpt>
      <trkpt lat="42.44688" lon="1.46601167">
        <ele>1445.0</ele>
        <time>2019-08-04T11:32:10.301Z</time>
      </trkpt>
      <trkpt lat="42.44685167" lon="1.46597833">
        <ele>1445.0</ele>
        <time>2019-08-04T11:32:11.303Z</time>
      </trkpt>
      <trkpt lat="42.44683667" lon="1.46596">
        <ele>1445.0</ele>
        <time>2019-08-04T11:32:12.323Z</time>
      </trkpt>
      <trkpt lat="42.44683667" lon="1.46596">
        <ele>1445.0</ele>
        <time>2019-08-04T11:32:13.304Z</time>
      </trkpt>
      <trkpt lat="42.44681167" lon="1.46592">
        <ele>1445.0</ele>
        <time>2019-08-04T11:32:14.306Z</time>
      </trkpt>
      <trkpt lat="42.4468" lon="1.46589833">
        <ele>1446.0</ele>
        <time>2019-08-04T11:32:15.307Z</time>
      </trkpt>
      <trkpt lat="42.4468" lon="1.46589833">
        <ele>1446.0</ele>
        <time>2019-08-04T11:32:16.301Z</time>
      </trkpt>
      <trkpt lat="42.44678667" lon="1.46585167">
        <ele>1446.0</ele>
        <time>2019-08-04T11:32:17.307Z</time>
      </trkpt>
      <trkpt lat="42.44678667" lon="1.46585167">
        <ele>1446.0</ele>
        <time>2019-08-04T11:32:18.302Z</time>
      </trkpt>
      <trkpt lat="42.44679167" lon="1.46580333">
        <ele>1446.0</ele>
        <time>2019-08-04T11:32:19.307Z</time>
      </trkpt>
      <trkpt lat="42.44679167" lon="1.46580333">
        <ele>1446.0</ele>
        <time>2019-08-04T11:32:20.305Z</time>
      </trkpt>
      <trkpt lat="42.44681667" lon="1.46576333">
        <ele>1446.0</ele>
        <time>2019-08-04T11:32:21.306Z</time>
      </trkpt>
      <trkpt lat="42.44681667" lon="1.46576333">
        <ele>1446.0</ele>
        <time>2019-08-04T11:32:22.320Z</time>
      </trkpt>
      <trkpt lat="42.44685" lon="1.46573667">
        <ele>1447.0</ele>
        <time>2019-08-04T11:32:23.304Z</time>
      </trkpt>
      <trkpt lat="42.44685" lon="1.46573667">
        <ele>1447.0</ele>
        <time>2019-08-04T11:32:24.304Z</time>
      </trkpt>
      <trkpt lat="42.44688667" lon="1.46572667">
        <ele>1447.0</ele>
        <time>2019-08-04T11:32:25.307Z</time>
      </trkpt>
      <trkpt lat="42.44688667" lon="1.46572667">
        <ele>1447.0</ele>
        <time>2019-08-04T11:32:26.298Z</time>
      </trkpt>
      <trkpt lat="42.446925" lon="1.465725">
        <ele>1447.0</ele>
        <time>2019-08-04T11:32:27.322Z</time>
      </trkpt>
      <trkpt lat="42.446925" lon="1.465725">
        <ele>1447.0</ele>
        <time>2019-08-04T11:32:28.304Z</time>
      </trkpt>
      <trkpt lat="42.44696667" lon="1.46573167">
        <ele>1448.0</ele>
        <time>2019-08-04T11:32:29.309Z</time>
      </trkpt>
      <trkpt lat="42.44696667" lon="1.46573167">
        <ele>1448.0</ele>
        <time>2019-08-04T11:32:30.307Z</time>
      </trkpt>
      <trkpt lat="42.44700833" lon="1.46573833">
        <ele>1449.0</ele>
        <time>2019-08-04T11:32:31.313Z</time>
      </trkpt>
      <trkpt lat="42.44703" lon="1.46573167">
        <ele>1449.0</ele>
        <time>2019-08-04T11:32:32.301Z</time>
      </trkpt>
      <trkpt lat="42.44705" lon="1.46572167">
        <ele>1449.0</ele>
        <time>2019-08-04T11:32:33.307Z</time>
      </trkpt>
      <trkpt lat="42.44705" lon="1.46572167">
        <ele>1449.0</ele>
        <time>2019-08-04T11:32:34.301Z</time>
      </trkpt>
      <trkpt lat="42.44708667" lon="1.465705">
        <ele>1450.0</ele>
        <time>2019-08-04T11:32:35.309Z</time>
      </trkpt>
      <trkpt lat="42.44708667" lon="1.465705">
        <ele>1450.0</ele>
        <time>2019-08-04T11:32:36.299Z</time>
      </trkpt>
      <trkpt lat="42.44711833" lon="1.46568333">
        <ele>1451.0</ele>
        <time>2019-08-04T11:32:37.321Z</time>
      </trkpt>
      <trkpt lat="42.44713667" lon="1.46567167">
        <ele>1451.0</ele>
        <time>2019-08-04T11:32:38.304Z</time>
      </trkpt>
      <trkpt lat="42.44715167" lon="1.46566">
        <ele>1451.0</ele>
        <time>2019-08-04T11:32:39.307Z</time>
      </trkpt>
      <trkpt lat="42.44715167" lon="1.46566">
        <ele>1451.0</ele>
        <time>2019-08-04T11:32:40.304Z</time>
      </trkpt>
      <trkpt lat="42.447185" lon="1.46562667">
        <ele>1452.0</ele>
        <time>2019-08-04T11:32:41.303Z</time>
      </trkpt>
      <trkpt lat="42.44720333" lon="1.46561167">
        <ele>1452.0</ele>
        <time>2019-08-04T11:32:42.329Z</time>
      </trkpt>
      <trkpt lat="42.44720333" lon="1.46561167">
        <ele>1452.0</ele>
        <time>2019-08-04T11:32:43.310Z</time>
      </trkpt>
      <trkpt lat="42.44723833" lon="1.46556833">
        <ele>1453.0</ele>
        <time>2019-08-04T11:32:44.308Z</time>
      </trkpt>
      <trkpt lat="42.44725" lon="1.46554833">
        <ele>1453.0</ele>
        <time>2019-08-04T11:32:45.306Z</time>
      </trkpt>
      <trkpt lat="42.44725" lon="1.46554833">
        <ele>1453.0</ele>
        <time>2019-08-04T11:32:46.308Z</time>
      </trkpt>
      <trkpt lat="42.44727167" lon="1.46549833">
        <ele>1453.0</ele>
        <time>2019-08-04T11:32:47.305Z</time>
      </trkpt>
      <trkpt lat="42.44727167" lon="1.46549833">
        <ele>1453.0</ele>
        <time>2019-08-04T11:32:48.300Z</time>
      </trkpt>
      <trkpt lat="42.44729" lon="1.46544">
        <ele>1454.0</ele>
        <time>2019-08-04T11:32:49.330Z</time>
      </trkpt>
      <trkpt lat="42.44729" lon="1.46544">
        <ele>1454.0</ele>
        <time>2019-08-04T11:32:50.310Z</time>
      </trkpt>
      <trkpt lat="42.44730167" lon="1.46538167">
        <ele>1455.0</ele>
        <time>2019-08-04T11:32:51.302Z</time>
      </trkpt>
      <trkpt lat="42.447305" lon="1.46535167">
        <ele>1455.0</ele>
        <time>2019-08-04T11:32:52.329Z</time>
      </trkpt>
      <trkpt lat="42.447305" lon="1.46535167">
        <ele>1455.0</ele>
        <time>2019-08-04T11:32:53.310Z</time>
      </trkpt>
      <trkpt lat="42.4473" lon="1.46529167">
        <ele>1455.0</ele>
        <time>2019-08-04T11:32:54.306Z</time>
      </trkpt>
      <trkpt lat="42.4473" lon="1.46529167">
        <ele>1455.0</ele>
        <time>2019-08-04T11:32:55.307Z</time>
      </trkpt>
      <trkpt lat="42.44729333" lon="1.46523333">
        <ele>1456.0</ele>
        <time>2019-08-04T11:32:56.310Z</time>
      </trkpt>
      <trkpt lat="42.44728833" lon="1.46520667">
        <ele>1456.0</ele>
        <time>2019-08-04T11:32:57.307Z</time>
      </trkpt>
      <trkpt lat="42.44728833" lon="1.46520667">
        <ele>1456.0</ele>
        <time>2019-08-04T11:32:58.303Z</time>
      </trkpt>
      <trkpt lat="42.44728" lon="1.46514667">
        <ele>1456.0</ele>
        <time>2019-08-04T11:32:59.307Z</time>
      </trkpt>
      <trkpt lat="42.44728" lon="1.46514667">
        <ele>1456.0</ele>
        <time>2019-08-04T11:33:00.305Z</time>
      </trkpt>
      <trkpt lat="42.44727333" lon="1.46508333">
        <ele>1456.0</ele>
        <time>2019-08-04T11:33:01.306Z</time>
      </trkpt>
      <trkpt lat="42.44727333" lon="1.46508333">
        <ele>1456.0</ele>
        <time>2019-08-04T11:33:02.316Z</time>
      </trkpt>
      <trkpt lat="42.44726833" lon="1.46502333">
        <ele>1456.0</ele>
        <time>2019-08-04T11:33:03.306Z</time>
      </trkpt>
      <trkpt lat="42.447265" lon="1.46499167">
        <ele>1456.0</ele>
        <time>2019-08-04T11:33:04.308Z</time>
      </trkpt>
      <trkpt lat="42.447265" lon="1.46499167">
        <ele>1456.0</ele>
        <time>2019-08-04T11:33:05.301Z</time>
      </trkpt>
      <trkpt lat="42.44725667" lon="1.46493333">
        <ele>1457.0</ele>
        <time>2019-08-04T11:33:06.306Z</time>
      </trkpt>
      <trkpt lat="42.44725667" lon="1.46493333">
        <ele>1457.0</ele>
        <time>2019-08-04T11:33:07.304Z</time>
      </trkpt>
      <trkpt lat="42.44724833" lon="1.46487333">
        <ele>1457.0</ele>
        <time>2019-08-04T11:33:08.304Z</time>
      </trkpt>
      <trkpt lat="42.44724333" lon="1.46484">
        <ele>1457.0</ele>
        <time>2019-08-04T11:33:09.304Z</time>
      </trkpt>
      <trkpt lat="42.44724333" lon="1.46484">
        <ele>1457.0</ele>
        <time>2019-08-04T11:33:10.303Z</time>
      </trkpt>
      <trkpt lat="42.44722833" lon="1.464775">
        <ele>1457.0</ele>
        <time>2019-08-04T11:33:11.307Z</time>
      </trkpt>
      <trkpt lat="42.44722833" lon="1.464775">
        <ele>1457.0</ele>
        <time>2019-08-04T11:33:12.315Z</time>
      </trkpt>
      <trkpt lat="42.447215" lon="1.46471333">
        <ele>1458.0</ele>
        <time>2019-08-04T11:33:13.304Z</time>
      </trkpt>
      <trkpt lat="42.447215" lon="1.46471333">
        <ele>1458.0</ele>
        <time>2019-08-04T11:33:14.301Z</time>
      </trkpt>
      <trkpt lat="42.44720167" lon="1.46465333">
        <ele>1458.0</ele>
        <time>2019-08-04T11:33:15.306Z</time>
      </trkpt>
      <trkpt lat="42.44720167" lon="1.46465333">
        <ele>1458.0</ele>
        <time>2019-08-04T11:33:16.303Z</time>
      </trkpt>
      <trkpt lat="42.44718833" lon="1.46460167">
        <ele>1459.0</ele>
        <time>2019-08-04T11:33:17.306Z</time>
      </trkpt>
      <trkpt lat="42.44718" lon="1.464575">
        <ele>1459.0</ele>
        <time>2019-08-04T11:33:18.308Z</time>
      </trkpt>
      <trkpt lat="42.44717667" lon="1.46455">
        <ele>1459.0</ele>
        <time>2019-08-04T11:33:19.307Z</time>
      </trkpt>
      <trkpt lat="42.44717667" lon="1.46455">
        <ele>1459.0</ele>
        <time>2019-08-04T11:33:20.304Z</time>
      </trkpt>
      <trkpt lat="42.44717333" lon="1.464495">
        <ele>1459.0</ele>
        <time>2019-08-04T11:33:21.306Z</time>
      </trkpt>
      <trkpt lat="42.44717167" lon="1.46446667">
        <ele>1460.0</ele>
        <time>2019-08-04T11:33:22.321Z</time>
      </trkpt>
      <trkpt lat="42.44717833" lon="1.46443833">
        <ele>1460.0</ele>
        <time>2019-08-04T11:33:23.308Z</time>
      </trkpt>
      <trkpt lat="42.44717833" lon="1.46443833">
        <ele>1460.0</ele>
        <time>2019-08-04T11:33:24.303Z</time>
      </trkpt>
      <trkpt lat="42.44718167" lon="1.46437833">
        <ele>1460.0</ele>
        <time>2019-08-04T11:33:25.306Z</time>
      </trkpt>
      <trkpt lat="42.44718167" lon="1.46437833">
        <ele>1460.0</ele>
        <time>2019-08-04T11:33:26.304Z</time>
      </trkpt>
      <trkpt lat="42.44718667" lon="1.46431667">
        <ele>1461.0</ele>
        <time>2019-08-04T11:33:27.307Z</time>
      </trkpt>
      <trkpt lat="42.44719167" lon="1.464285">
        <ele>1461.0</ele>
        <time>2019-08-04T11:33:28.306Z</time>
      </trkpt>
      <trkpt lat="42.44719167" lon="1.464285">
        <ele>1461.0</ele>
        <time>2019-08-04T11:33:29.314Z</time>
      </trkpt>
      <trkpt lat="42.44718833" lon="1.46422333">
        <ele>1462.0</ele>
        <time>2019-08-04T11:33:30.312Z</time>
      </trkpt>
      <trkpt lat="42.44718833" lon="1.46422333">
        <ele>1462.0</ele>
        <time>2019-08-04T11:33:31.321Z</time>
      </trkpt>
      <trkpt lat="42.44718" lon="1.46416">
        <ele>1462.0</ele>
        <time>2019-08-04T11:33:32.322Z</time>
      </trkpt>
      <trkpt lat="42.44718" lon="1.46416">
        <ele>1462.0</ele>
        <time>2019-08-04T11:33:33.304Z</time>
      </trkpt>
      <trkpt lat="42.44717167" lon="1.4641">
        <ele>1462.0</ele>
        <time>2019-08-04T11:33:34.307Z</time>
      </trkpt>
      <trkpt lat="42.44717167" lon="1.4641">
        <ele>1462.0</ele>
        <time>2019-08-04T11:33:35.304Z</time>
      </trkpt>
      <trkpt lat="42.44716" lon="1.46404833">
        <ele>1463.0</ele>
        <time>2019-08-04T11:33:36.306Z</time>
      </trkpt>
      <trkpt lat="42.44715" lon="1.46402667">
        <ele>1463.0</ele>
        <time>2019-08-04T11:33:37.306Z</time>
      </trkpt>
      <trkpt lat="42.44715" lon="1.46402667">
        <ele>1463.0</ele>
        <time>2019-08-04T11:33:38.305Z</time>
      </trkpt>
      <trkpt lat="42.44713667" lon="1.46397667">
        <ele>1463.0</ele>
        <time>2019-08-04T11:33:39.303Z</time>
      </trkpt>
      <trkpt lat="42.44713" lon="1.46395333">
        <ele>1463.0</ele>
        <time>2019-08-04T11:33:40.329Z</time>
      </trkpt>
      <trkpt lat="42.44713" lon="1.46395333">
        <ele>1463.0</ele>
        <time>2019-08-04T11:33:41.310Z</time>
      </trkpt>
      <trkpt lat="42.44712167" lon="1.463905">
        <ele>1464.0</ele>
        <time>2019-08-04T11:33:42.322Z</time>
      </trkpt>
      <trkpt lat="42.44711667" lon="1.46387833">
        <ele>1464.0</ele>
        <time>2019-08-04T11:33:43.305Z</time>
      </trkpt>
      <trkpt lat="42.44711667" lon="1.46387833">
        <ele>1464.0</ele>
        <time>2019-08-04T11:33:44.304Z</time>
      </trkpt>
      <trkpt lat="42.4471" lon="1.46382667">
        <ele>1464.0</ele>
        <time>2019-08-04T11:33:45.305Z</time>
      </trkpt>
      <trkpt lat="42.44709" lon="1.4638">
        <ele>1464.0</ele>
        <time>2019-08-04T11:33:46.306Z</time>
      </trkpt>
      <trkpt lat="42.44708667" lon="1.46377333">
        <ele>1464.0</ele>
        <time>2019-08-04T11:33:47.321Z</time>
      </trkpt>
      <trkpt lat="42.44708667" lon="1.46377333">
        <ele>1464.0</ele>
        <time>2019-08-04T11:33:48.303Z</time>
      </trkpt>
      <trkpt lat="42.44707167" lon="1.46371833">
        <ele>1465.0</ele>
        <time>2019-08-04T11:33:49.306Z</time>
      </trkpt>
      <trkpt lat="42.44707167" lon="1.46371833">
        <ele>1465.0</ele>
        <time>2019-08-04T11:33:50.305Z</time>
      </trkpt>
      <trkpt lat="42.44705833" lon="1.46365833">
        <ele>1465.0</ele>
        <time>2019-08-04T11:33:51.306Z</time>
      </trkpt>
      <trkpt lat="42.44705167" lon="1.46363">
        <ele>1465.0</ele>
        <time>2019-08-04T11:33:52.322Z</time>
      </trkpt>
      <trkpt lat="42.44705167" lon="1.46363">
        <ele>1465.0</ele>
        <time>2019-08-04T11:33:53.303Z</time>
      </trkpt>
      <trkpt lat="42.44704" lon="1.463565">
        <ele>1466.0</ele>
        <time>2019-08-04T11:33:54.306Z</time>
      </trkpt>
      <trkpt lat="42.44704" lon="1.463565">
        <ele>1466.0</ele>
        <time>2019-08-04T11:33:55.304Z</time>
      </trkpt>
      <trkpt lat="42.447015" lon="1.46351">
        <ele>1466.0</ele>
        <time>2019-08-04T11:33:56.307Z</time>
      </trkpt>
      <trkpt lat="42.447015" lon="1.46351">
        <ele>1466.0</ele>
        <time>2019-08-04T11:33:57.335Z</time>
      </trkpt>
      <trkpt lat="42.44699167" lon="1.46344333">
        <ele>1467.0</ele>
        <time>2019-08-04T11:33:58.315Z</time>
      </trkpt>
      <trkpt lat="42.44699167" lon="1.46344333">
        <ele>1467.0</ele>
        <time>2019-08-04T11:33:59.304Z</time>
      </trkpt>
      <trkpt lat="42.44697333" lon="1.46338">
        <ele>1467.0</ele>
        <time>2019-08-04T11:34:00.306Z</time>
      </trkpt>
      <trkpt lat="42.44697333" lon="1.46338">
        <ele>1467.0</ele>
        <time>2019-08-04T11:34:01.304Z</time>
      </trkpt>
      <trkpt lat="42.44695667" lon="1.46332">
        <ele>1467.0</ele>
        <time>2019-08-04T11:34:02.322Z</time>
      </trkpt>
      <trkpt lat="42.44694833" lon="1.46328833">
        <ele>1467.0</ele>
        <time>2019-08-04T11:34:03.305Z</time>
      </trkpt>
      <trkpt lat="42.44694833" lon="1.46328833">
        <ele>1467.0</ele>
        <time>2019-08-04T11:34:04.303Z</time>
      </trkpt>
      <trkpt lat="42.44693" lon="1.46323">
        <ele>1468.0</ele>
        <time>2019-08-04T11:34:05.329Z</time>
      </trkpt>
      <trkpt lat="42.44691833" lon="1.46319667">
        <ele>1468.0</ele>
        <time>2019-08-04T11:34:06.310Z</time>
      </trkpt>
      <trkpt lat="42.44691833" lon="1.46319667">
        <ele>1468.0</ele>
        <time>2019-08-04T11:34:07.303Z</time>
      </trkpt>
      <trkpt lat="42.44689333" lon="1.46313167">
        <ele>1468.0</ele>
        <time>2019-08-04T11:34:08.307Z</time>
      </trkpt>
      <trkpt lat="42.44689333" lon="1.46313167">
        <ele>1468.0</ele>
        <time>2019-08-04T11:34:09.304Z</time>
      </trkpt>
      <trkpt lat="42.446865" lon="1.463065">
        <ele>1469.0</ele>
        <time>2019-08-04T11:34:10.324Z</time>
      </trkpt>
      <trkpt lat="42.44684833" lon="1.46303167">
        <ele>1469.0</ele>
        <time>2019-08-04T11:34:11.307Z</time>
      </trkpt>
      <trkpt lat="42.44684833" lon="1.46303167">
        <ele>1469.0</ele>
        <time>2019-08-04T11:34:12.311Z</time>
      </trkpt>
      <trkpt lat="42.44681667" lon="1.46296333">
        <ele>1469.0</ele>
        <time>2019-08-04T11:34:13.306Z</time>
      </trkpt>
      <trkpt lat="42.44681667" lon="1.46296333">
        <ele>1469.0</ele>
        <time>2019-08-04T11:34:14.305Z</time>
      </trkpt>
      <trkpt lat="42.44678333" lon="1.46288667">
        <ele>1469.0</ele>
        <time>2019-08-04T11:34:15.306Z</time>
      </trkpt>
      <trkpt lat="42.44676667" lon="1.46284667">
        <ele>1469.0</ele>
        <time>2019-08-04T11:34:16.305Z</time>
      </trkpt>
      <trkpt lat="42.44676667" lon="1.46284667">
        <ele>1469.0</ele>
        <time>2019-08-04T11:34:17.301Z</time>
      </trkpt>
      <trkpt lat="42.44673333" lon="1.46276667">
        <ele>1469.0</ele>
        <time>2019-08-04T11:34:18.305Z</time>
      </trkpt>
      <trkpt lat="42.44671667" lon="1.46272833">
        <ele>1469.0</ele>
        <time>2019-08-04T11:34:19.306Z</time>
      </trkpt>
      <trkpt lat="42.44671667" lon="1.46272833">
        <ele>1469.0</ele>
        <time>2019-08-04T11:34:20.302Z</time>
      </trkpt>
      <trkpt lat="42.44667667" lon="1.46265667">
        <ele>1469.0</ele>
        <time>2019-08-04T11:34:21.306Z</time>
      </trkpt>
      <trkpt lat="42.44665667" lon="1.46261833">
        <ele>1470.0</ele>
        <time>2019-08-04T11:34:22.330Z</time>
      </trkpt>
      <trkpt lat="42.44665667" lon="1.46261833">
        <ele>1470.0</ele>
        <time>2019-08-04T11:34:23.309Z</time>
      </trkpt>
      <trkpt lat="42.44662" lon="1.46253667">
        <ele>1469.0</ele>
        <time>2019-08-04T11:34:24.303Z</time>
      </trkpt>
      <trkpt lat="42.4466" lon="1.4625">
        <ele>1469.0</ele>
        <time>2019-08-04T11:34:25.321Z</time>
      </trkpt>
      <trkpt lat="42.4466" lon="1.4625">
        <ele>1469.0</ele>
        <time>2019-08-04T11:34:26.304Z</time>
      </trkpt>
      <trkpt lat="42.446555" lon="1.462435">
        <ele>1469.0</ele>
        <time>2019-08-04T11:34:27.298Z</time>
      </trkpt>
      <trkpt lat="42.44653333" lon="1.46240333">
        <ele>1469.0</ele>
        <time>2019-08-04T11:34:28.321Z</time>
      </trkpt>
      <trkpt lat="42.44653333" lon="1.46240333">
        <ele>1469.0</ele>
        <time>2019-08-04T11:34:29.314Z</time>
      </trkpt>
      <trkpt lat="42.44649167" lon="1.46233667">
        <ele>1469.0</ele>
        <time>2019-08-04T11:34:30.298Z</time>
      </trkpt>
      <trkpt lat="42.44649167" lon="1.46233667">
        <ele>1469.0</ele>
        <time>2019-08-04T11:34:31.304Z</time>
      </trkpt>
      <trkpt lat="42.44645167" lon="1.46227333">
        <ele>1469.0</ele>
        <time>2019-08-04T11:34:32.310Z</time>
      </trkpt>
      <trkpt lat="42.44643167" lon="1.46224">
        <ele>1469.0</ele>
        <time>2019-08-04T11:34:33.306Z</time>
      </trkpt>
      <trkpt lat="42.44643167" lon="1.46224">
        <ele>1469.0</ele>
        <time>2019-08-04T11:34:34.301Z</time>
      </trkpt>
      <trkpt lat="42.44639667" lon="1.46217167">
        <ele>1469.0</ele>
        <time>2019-08-04T11:34:35.330Z</time>
      </trkpt>
      <trkpt lat="42.44639667" lon="1.46217167">
        <ele>1469.0</ele>
        <time>2019-08-04T11:34:36.310Z</time>
      </trkpt>
      <trkpt lat="42.44635833" lon="1.46210667">
        <ele>1469.0</ele>
        <time>2019-08-04T11:34:37.303Z</time>
      </trkpt>
      <trkpt lat="42.44633833" lon="1.462075">
        <ele>1469.0</ele>
        <time>2019-08-04T11:34:38.304Z</time>
      </trkpt>
      <trkpt lat="42.44631833" lon="1.46204333">
        <ele>1469.0</ele>
        <time>2019-08-04T11:34:39.306Z</time>
      </trkpt>
      <trkpt lat="42.4463" lon="1.46201167">
        <ele>1469.0</ele>
        <time>2019-08-04T11:34:40.308Z</time>
      </trkpt>
      <trkpt lat="42.4463" lon="1.46201167">
        <ele>1469.0</ele>
        <time>2019-08-04T11:34:41.303Z</time>
      </trkpt>
      <trkpt lat="42.44626667" lon="1.46195">
        <ele>1469.0</ele>
        <time>2019-08-04T11:34:42.297Z</time>
      </trkpt>
      <trkpt lat="42.44626667" lon="1.46195">
        <ele>1469.0</ele>
        <time>2019-08-04T11:34:43.321Z</time>
      </trkpt>
      <trkpt lat="42.446235" lon="1.46189">
        <ele>1470.0</ele>
        <time>2019-08-04T11:34:44.307Z</time>
      </trkpt>
      <trkpt lat="42.446235" lon="1.46189">
        <ele>1470.0</ele>
        <time>2019-08-04T11:34:45.304Z</time>
      </trkpt>
      <trkpt lat="42.44620833" lon="1.461825">
        <ele>1470.0</ele>
        <time>2019-08-04T11:34:46.306Z</time>
      </trkpt>
      <trkpt lat="42.44620833" lon="1.461825">
        <ele>1470.0</ele>
        <time>2019-08-04T11:34:47.323Z</time>
      </trkpt>
      <trkpt lat="42.44617833" lon="1.46175833">
        <ele>1470.0</ele>
        <time>2019-08-04T11:34:48.306Z</time>
      </trkpt>
      <trkpt lat="42.44616167" lon="1.46172667">
        <ele>1470.0</ele>
        <time>2019-08-04T11:34:49.306Z</time>
      </trkpt>
      <trkpt lat="42.44616167" lon="1.46172667">
        <ele>1470.0</ele>
        <time>2019-08-04T11:34:50.305Z</time>
      </trkpt>
      <trkpt lat="42.44612667" lon="1.46166667">
        <ele>1470.0</ele>
        <time>2019-08-04T11:34:51.306Z</time>
      </trkpt>
      <trkpt lat="42.44611" lon="1.46163833">
        <ele>1470.0</ele>
        <time>2019-08-04T11:34:52.316Z</time>
      </trkpt>
      <trkpt lat="42.44611" lon="1.46163833">
        <ele>1470.0</ele>
        <time>2019-08-04T11:34:53.301Z</time>
      </trkpt>
      <trkpt lat="42.44607167" lon="1.46157667">
        <ele>1471.0</ele>
        <time>2019-08-04T11:34:54.306Z</time>
      </trkpt>
      <trkpt lat="42.44607167" lon="1.46157667">
        <ele>1471.0</ele>
        <time>2019-08-04T11:34:55.308Z</time>
      </trkpt>
      <trkpt lat="42.44603333" lon="1.46152">
        <ele>1471.0</ele>
        <time>2019-08-04T11:34:56.307Z</time>
      </trkpt>
      <trkpt lat="42.44603333" lon="1.46152">
        <ele>1471.0</ele>
        <time>2019-08-04T11:34:57.307Z</time>
      </trkpt>
      <trkpt lat="42.44599667" lon="1.46146">
        <ele>1471.0</ele>
        <time>2019-08-04T11:34:58.306Z</time>
      </trkpt>
      <trkpt lat="42.44599667" lon="1.46146">
        <ele>1471.0</ele>
        <time>2019-08-04T11:34:59.301Z</time>
      </trkpt>
      <trkpt lat="42.44596833" lon="1.46139833">
        <ele>1471.0</ele>
        <time>2019-08-04T11:35:00.307Z</time>
      </trkpt>
      <trkpt lat="42.44596833" lon="1.46139833">
        <ele>1471.0</ele>
        <time>2019-08-04T11:35:01.302Z</time>
      </trkpt>
      <trkpt lat="42.445945" lon="1.46133333">
        <ele>1471.0</ele>
        <time>2019-08-04T11:35:02.301Z</time>
      </trkpt>
      <trkpt lat="42.445945" lon="1.46133333">
        <ele>1471.0</ele>
        <time>2019-08-04T11:35:03.322Z</time>
      </trkpt>
      <trkpt lat="42.44592333" lon="1.46126667">
        <ele>1471.0</ele>
        <time>2019-08-04T11:35:04.306Z</time>
      </trkpt>
      <trkpt lat="42.44592333" lon="1.46126667">
        <ele>1471.0</ele>
        <time>2019-08-04T11:35:05.303Z</time>
      </trkpt>
      <trkpt lat="42.445905" lon="1.46119667">
        <ele>1472.0</ele>
        <time>2019-08-04T11:35:06.306Z</time>
      </trkpt>
      <trkpt lat="42.445905" lon="1.46119667">
        <ele>1472.0</ele>
        <time>2019-08-04T11:35:07.308Z</time>
      </trkpt>
      <trkpt lat="42.44589167" lon="1.46112667">
        <ele>1472.0</ele>
        <time>2019-08-04T11:35:08.314Z</time>
      </trkpt>
      <trkpt lat="42.44589167" lon="1.46112667">
        <ele>1472.0</ele>
        <time>2019-08-04T11:35:09.304Z</time>
      </trkpt>
      <trkpt lat="42.44589" lon="1.46105167">
        <ele>1472.0</ele>
        <time>2019-08-04T11:35:10.306Z</time>
      </trkpt>
      <trkpt lat="42.44589" lon="1.46105167">
        <ele>1472.0</ele>
        <time>2019-08-04T11:35:11.304Z</time>
      </trkpt>
      <trkpt lat="42.44589167" lon="1.46097667">
        <ele>1473.0</ele>
        <time>2019-08-04T11:35:12.324Z</time>
      </trkpt>
      <trkpt lat="42.44589167" lon="1.46097667">
        <ele>1473.0</ele>
        <time>2019-08-04T11:35:13.305Z</time>
      </trkpt>
      <trkpt lat="42.4459" lon="1.46090167">
        <ele>1473.0</ele>
        <time>2019-08-04T11:35:14.307Z</time>
      </trkpt>
      <trkpt lat="42.44590833" lon="1.46086167">
        <ele>1474.0</ele>
        <time>2019-08-04T11:35:15.306Z</time>
      </trkpt>
      <trkpt lat="42.44591667" lon="1.46082333">
        <ele>1474.0</ele>
        <time>2019-08-04T11:35:16.306Z</time>
      </trkpt>
      <trkpt lat="42.44591667" lon="1.46082333">
        <ele>1474.0</ele>
        <time>2019-08-04T11:35:17.306Z</time>
      </trkpt>
      <trkpt lat="42.44593667" lon="1.46075">
        <ele>1474.0</ele>
        <time>2019-08-04T11:35:18.306Z</time>
      </trkpt>
      <trkpt lat="42.44593667" lon="1.46075">
        <ele>1474.0</ele>
        <time>2019-08-04T11:35:19.304Z</time>
      </trkpt>
      <trkpt lat="42.445955" lon="1.46067833">
        <ele>1475.0</ele>
        <time>2019-08-04T11:35:20.309Z</time>
      </trkpt>
      <trkpt lat="42.445955" lon="1.46067833">
        <ele>1475.0</ele>
        <time>2019-08-04T11:35:21.301Z</time>
      </trkpt>
      <trkpt lat="42.44597333" lon="1.46061">
        <ele>1475.0</ele>
        <time>2019-08-04T11:35:22.329Z</time>
      </trkpt>
      <trkpt lat="42.44597333" lon="1.46061">
        <ele>1475.0</ele>
        <time>2019-08-04T11:35:23.322Z</time>
      </trkpt>
      <trkpt lat="42.44599333" lon="1.46054667">
        <ele>1476.0</ele>
        <time>2019-08-04T11:35:24.306Z</time>
      </trkpt>
      <trkpt lat="42.446" lon="1.460515">
        <ele>1476.0</ele>
        <time>2019-08-04T11:35:25.308Z</time>
      </trkpt>
      <trkpt lat="42.446" lon="1.460515">
        <ele>1476.0</ele>
        <time>2019-08-04T11:35:26.301Z</time>
      </trkpt>
      <trkpt lat="42.44600333" lon="1.46045333">
        <ele>1477.0</ele>
        <time>2019-08-04T11:35:27.310Z</time>
      </trkpt>
      <trkpt lat="42.44600333" lon="1.46045333">
        <ele>1477.0</ele>
        <time>2019-08-04T11:35:28.308Z</time>
      </trkpt>
      <trkpt lat="42.446005" lon="1.46039">
        <ele>1477.0</ele>
        <time>2019-08-04T11:35:29.313Z</time>
      </trkpt>
      <trkpt lat="42.446005" lon="1.46039">
        <ele>1477.0</ele>
        <time>2019-08-04T11:35:30.332Z</time>
      </trkpt>
      <trkpt lat="42.446" lon="1.46032333">
        <ele>1477.0</ele>
        <time>2019-08-04T11:35:31.298Z</time>
      </trkpt>
      <trkpt lat="42.445995" lon="1.46029167">
        <ele>1477.0</ele>
        <time>2019-08-04T11:35:32.322Z</time>
      </trkpt>
      <trkpt lat="42.445995" lon="1.46029167">
        <ele>1477.0</ele>
        <time>2019-08-04T11:35:33.304Z</time>
      </trkpt>
      <trkpt lat="42.44599333" lon="1.460225">
        <ele>1478.0</ele>
        <time>2019-08-04T11:35:34.306Z</time>
      </trkpt>
      <trkpt lat="42.44599333" lon="1.460225">
        <ele>1478.0</ele>
        <time>2019-08-04T11:35:35.303Z</time>
      </trkpt>
      <trkpt lat="42.44597833" lon="1.46016333">
        <ele>1478.0</ele>
        <time>2019-08-04T11:35:36.306Z</time>
      </trkpt>
      <trkpt lat="42.44597833" lon="1.46016333">
        <ele>1478.0</ele>
        <time>2019-08-04T11:35:37.303Z</time>
      </trkpt>
      <trkpt lat="42.44597167" lon="1.46010667">
        <ele>1479.0</ele>
        <time>2019-08-04T11:35:38.322Z</time>
      </trkpt>
      <trkpt lat="42.44597167" lon="1.46010667">
        <ele>1479.0</ele>
        <time>2019-08-04T11:35:39.304Z</time>
      </trkpt>
      <trkpt lat="42.44596333" lon="1.460055">
        <ele>1479.0</ele>
        <time>2019-08-04T11:35:40.305Z</time>
      </trkpt>
      <trkpt lat="42.44596667" lon="1.46002333">
        <ele>1479.0</ele>
        <time>2019-08-04T11:35:41.310Z</time>
      </trkpt>
      <trkpt lat="42.44596667" lon="1.46002333">
        <ele>1479.0</ele>
        <time>2019-08-04T11:35:42.316Z</time>
      </trkpt>
      <trkpt lat="42.44596167" lon="1.45996833">
        <ele>1480.0</ele>
        <time>2019-08-04T11:35:43.307Z</time>
      </trkpt>
      <trkpt lat="42.44596" lon="1.45994333">
        <ele>1480.0</ele>
        <time>2019-08-04T11:35:44.308Z</time>
      </trkpt>
      <trkpt lat="42.44595333" lon="1.45992167">
        <ele>1481.0</ele>
        <time>2019-08-04T11:35:45.322Z</time>
      </trkpt>
      <trkpt lat="42.44595333" lon="1.45992167">
        <ele>1481.0</ele>
        <time>2019-08-04T11:35:46.309Z</time>
      </trkpt>
      <trkpt lat="42.44596333" lon="1.45987">
        <ele>1482.0</ele>
        <time>2019-08-04T11:35:47.307Z</time>
      </trkpt>
      <trkpt lat="42.44597167" lon="1.45984167">
        <ele>1482.0</ele>
        <time>2019-08-04T11:35:48.306Z</time>
      </trkpt>
      <trkpt lat="42.44597167" lon="1.45984167">
        <ele>1482.0</ele>
        <time>2019-08-04T11:35:49.303Z</time>
      </trkpt>
      <trkpt lat="42.446" lon="1.45978667">
        <ele>1483.0</ele>
        <time>2019-08-04T11:35:50.308Z</time>
      </trkpt>
      <trkpt lat="42.446" lon="1.45978667">
        <ele>1483.0</ele>
        <time>2019-08-04T11:35:51.303Z</time>
      </trkpt>
      <trkpt lat="42.44602667" lon="1.45974333">
        <ele>1483.0</ele>
        <time>2019-08-04T11:35:52.307Z</time>
      </trkpt>
      <trkpt lat="42.44602667" lon="1.45974333">
        <ele>1483.0</ele>
        <time>2019-08-04T11:35:53.304Z</time>
      </trkpt>
      <trkpt lat="42.44606" lon="1.45969833">
        <ele>1484.0</ele>
        <time>2019-08-04T11:35:54.305Z</time>
      </trkpt>
      <trkpt lat="42.44606" lon="1.45969833">
        <ele>1484.0</ele>
        <time>2019-08-04T11:35:55.306Z</time>
      </trkpt>
      <trkpt lat="42.44608667" lon="1.45965167">
        <ele>1485.0</ele>
        <time>2019-08-04T11:35:56.304Z</time>
      </trkpt>
      <trkpt lat="42.44608667" lon="1.45965167">
        <ele>1485.0</ele>
        <time>2019-08-04T11:35:57.301Z</time>
      </trkpt>
      <trkpt lat="42.446115" lon="1.45960167">
        <ele>1485.0</ele>
        <time>2019-08-04T11:35:58.322Z</time>
      </trkpt>
      <trkpt lat="42.446115" lon="1.45960167">
        <ele>1485.0</ele>
        <time>2019-08-04T11:35:59.304Z</time>
      </trkpt>
      <trkpt lat="42.44613833" lon="1.45955667">
        <ele>1485.0</ele>
        <time>2019-08-04T11:36:00.306Z</time>
      </trkpt>
      <trkpt lat="42.44613833" lon="1.45955667">
        <ele>1485.0</ele>
        <time>2019-08-04T11:36:01.301Z</time>
      </trkpt>
      <trkpt lat="42.446165" lon="1.45951167">
        <ele>1486.0</ele>
        <time>2019-08-04T11:36:02.323Z</time>
      </trkpt>
      <trkpt lat="42.446165" lon="1.45951167">
        <ele>1486.0</ele>
        <time>2019-08-04T11:36:03.305Z</time>
      </trkpt>
      <trkpt lat="42.44619167" lon="1.45946">
        <ele>1486.0</ele>
        <time>2019-08-04T11:36:04.310Z</time>
      </trkpt>
      <trkpt lat="42.44619167" lon="1.45946">
        <ele>1486.0</ele>
        <time>2019-08-04T11:36:05.300Z</time>
      </trkpt>
      <trkpt lat="42.44622167" lon="1.45941">
        <ele>1487.0</ele>
        <time>2019-08-04T11:36:06.323Z</time>
      </trkpt>
      <trkpt lat="42.44624" lon="1.45938333">
        <ele>1487.0</ele>
        <time>2019-08-04T11:36:07.308Z</time>
      </trkpt>
      <trkpt lat="42.44624" lon="1.45938333">
        <ele>1487.0</ele>
        <time>2019-08-04T11:36:08.305Z</time>
      </trkpt>
      <trkpt lat="42.44627167" lon="1.45933667">
        <ele>1488.0</ele>
        <time>2019-08-04T11:36:09.306Z</time>
      </trkpt>
      <trkpt lat="42.44627167" lon="1.45933667">
        <ele>1488.0</ele>
        <time>2019-08-04T11:36:10.301Z</time>
      </trkpt>
      <trkpt lat="42.44629833" lon="1.45929167">
        <ele>1488.0</ele>
        <time>2019-08-04T11:36:11.322Z</time>
      </trkpt>
      <trkpt lat="42.44629833" lon="1.45929167">
        <ele>1488.0</ele>
        <time>2019-08-04T11:36:12.323Z</time>
      </trkpt>
      <trkpt lat="42.44632333" lon="1.45924167">
        <ele>1489.0</ele>
        <time>2019-08-04T11:36:13.306Z</time>
      </trkpt>
      <trkpt lat="42.44633667" lon="1.45921833">
        <ele>1489.0</ele>
        <time>2019-08-04T11:36:14.308Z</time>
      </trkpt>
      <trkpt lat="42.44635167" lon="1.45919833">
        <ele>1489.0</ele>
        <time>2019-08-04T11:36:15.307Z</time>
      </trkpt>
      <trkpt lat="42.44635167" lon="1.45919833">
        <ele>1489.0</ele>
        <time>2019-08-04T11:36:16.304Z</time>
      </trkpt>
      <trkpt lat="42.44638167" lon="1.45916167">
        <ele>1490.0</ele>
        <time>2019-08-04T11:36:17.306Z</time>
      </trkpt>
      <trkpt lat="42.44638167" lon="1.45916167">
        <ele>1490.0</ele>
        <time>2019-08-04T11:36:18.336Z</time>
      </trkpt>
      <trkpt lat="42.44641667" lon="1.45912833">
        <ele>1490.0</ele>
        <time>2019-08-04T11:36:19.316Z</time>
      </trkpt>
      <trkpt lat="42.44641667" lon="1.45912833">
        <ele>1490.0</ele>
        <time>2019-08-04T11:36:20.301Z</time>
      </trkpt>
      <trkpt lat="42.44645833" lon="1.459105">
        <ele>1490.0</ele>
        <time>2019-08-04T11:36:21.309Z</time>
      </trkpt>
      <trkpt lat="42.44647667" lon="1.45909333">
        <ele>1490.0</ele>
        <time>2019-08-04T11:36:22.323Z</time>
      </trkpt>
      <trkpt lat="42.44647667" lon="1.45909333">
        <ele>1490.0</ele>
        <time>2019-08-04T11:36:23.303Z</time>
      </trkpt>
      <trkpt lat="42.44651667" lon="1.45907333">
        <ele>1491.0</ele>
        <time>2019-08-04T11:36:24.303Z</time>
      </trkpt>
      <trkpt lat="42.44651667" lon="1.45907333">
        <ele>1491.0</ele>
        <time>2019-08-04T11:36:25.302Z</time>
      </trkpt>
      <trkpt lat="42.446555" lon="1.45904833">
        <ele>1491.0</ele>
        <time>2019-08-04T11:36:26.307Z</time>
      </trkpt>
      <trkpt lat="42.446555" lon="1.45904833">
        <ele>1491.0</ele>
        <time>2019-08-04T11:36:27.303Z</time>
      </trkpt>
      <trkpt lat="42.44659667" lon="1.45903">
        <ele>1491.0</ele>
        <time>2019-08-04T11:36:28.330Z</time>
      </trkpt>
      <trkpt lat="42.44661667" lon="1.45902">
        <ele>1492.0</ele>
        <time>2019-08-04T11:36:29.318Z</time>
      </trkpt>
      <trkpt lat="42.44661667" lon="1.45902">
        <ele>1492.0</ele>
        <time>2019-08-04T11:36:30.313Z</time>
      </trkpt>
      <trkpt lat="42.446655" lon="1.45900667">
        <ele>1492.0</ele>
        <time>2019-08-04T11:36:31.322Z</time>
      </trkpt>
      <trkpt lat="42.44667167" lon="1.45900333">
        <ele>1493.0</ele>
        <time>2019-08-04T11:36:32.325Z</time>
      </trkpt>
      <trkpt lat="42.44667167" lon="1.45900333">
        <ele>1493.0</ele>
        <time>2019-08-04T11:36:33.306Z</time>
      </trkpt>
      <trkpt lat="42.44671167" lon="1.459">
        <ele>1493.0</ele>
        <time>2019-08-04T11:36:34.306Z</time>
      </trkpt>
      <trkpt lat="42.44673" lon="1.45899667">
        <ele>1494.0</ele>
        <time>2019-08-04T11:36:35.307Z</time>
      </trkpt>
      <trkpt lat="42.44673" lon="1.45899667">
        <ele>1494.0</ele>
        <time>2019-08-04T11:36:36.303Z</time>
      </trkpt>
      <trkpt lat="42.44677" lon="1.45899667">
        <ele>1494.0</ele>
        <time>2019-08-04T11:36:37.306Z</time>
      </trkpt>
      <trkpt lat="42.44679" lon="1.459">
        <ele>1495.0</ele>
        <time>2019-08-04T11:36:38.307Z</time>
      </trkpt>
      <trkpt lat="42.44679" lon="1.459">
        <ele>1495.0</ele>
        <time>2019-08-04T11:36:39.301Z</time>
      </trkpt>
      <trkpt lat="42.44682667" lon="1.45901667">
        <ele>1495.0</ele>
        <time>2019-08-04T11:36:40.307Z</time>
      </trkpt>
      <trkpt lat="42.44682667" lon="1.45901667">
        <ele>1495.0</ele>
        <time>2019-08-04T11:36:41.304Z</time>
      </trkpt>
      <trkpt lat="42.44686167" lon="1.45903833">
        <ele>1496.0</ele>
        <time>2019-08-04T11:36:42.329Z</time>
      </trkpt>
      <trkpt lat="42.44687833" lon="1.45905167">
        <ele>1497.0</ele>
        <time>2019-08-04T11:36:43.310Z</time>
      </trkpt>
      <trkpt lat="42.44687833" lon="1.45905167">
        <ele>1497.0</ele>
        <time>2019-08-04T11:36:44.305Z</time>
      </trkpt>
      <trkpt lat="42.44691667" lon="1.45908">
        <ele>1498.0</ele>
        <time>2019-08-04T11:36:45.306Z</time>
      </trkpt>
      <trkpt lat="42.446935" lon="1.45909333">
        <ele>1498.0</ele>
        <time>2019-08-04T11:36:46.306Z</time>
      </trkpt>
      <trkpt lat="42.446935" lon="1.45909333">
        <ele>1498.0</ele>
        <time>2019-08-04T11:36:47.301Z</time>
      </trkpt>
      <trkpt lat="42.44697333" lon="1.45911833">
        <ele>1499.0</ele>
        <time>2019-08-04T11:36:48.323Z</time>
      </trkpt>
      <trkpt lat="42.44697333" lon="1.45911833">
        <ele>1499.0</ele>
        <time>2019-08-04T11:36:49.304Z</time>
      </trkpt>
      <trkpt lat="42.44700667" lon="1.45913833">
        <ele>1500.0</ele>
        <time>2019-08-04T11:36:50.308Z</time>
      </trkpt>
      <trkpt lat="42.44700667" lon="1.45913833">
        <ele>1500.0</ele>
        <time>2019-08-04T11:36:51.303Z</time>
      </trkpt>
      <trkpt lat="42.44704333" lon="1.45916">
        <ele>1501.0</ele>
        <time>2019-08-04T11:36:52.322Z</time>
      </trkpt>
      <trkpt lat="42.44704333" lon="1.45916">
        <ele>1501.0</ele>
        <time>2019-08-04T11:36:53.303Z</time>
      </trkpt>
      <trkpt lat="42.44708" lon="1.459185">
        <ele>1501.0</ele>
        <time>2019-08-04T11:36:54.306Z</time>
      </trkpt>
      <trkpt lat="42.44708" lon="1.459185">
        <ele>1501.0</ele>
        <time>2019-08-04T11:36:55.301Z</time>
      </trkpt>
      <trkpt lat="42.44711333" lon="1.45920667">
        <ele>1502.0</ele>
        <time>2019-08-04T11:36:56.322Z</time>
      </trkpt>
      <trkpt lat="42.44711333" lon="1.45920667">
        <ele>1502.0</ele>
        <time>2019-08-04T11:36:57.303Z</time>
      </trkpt>
      <trkpt lat="42.44715167" lon="1.459225">
        <ele>1503.0</ele>
        <time>2019-08-04T11:36:58.306Z</time>
      </trkpt>
      <trkpt lat="42.44715167" lon="1.459225">
        <ele>1503.0</ele>
        <time>2019-08-04T11:36:59.304Z</time>
      </trkpt>
      <trkpt lat="42.44718667" lon="1.459245">
        <ele>1503.0</ele>
        <time>2019-08-04T11:37:00.330Z</time>
      </trkpt>
      <trkpt lat="42.44720167" lon="1.459255">
        <ele>1503.0</ele>
        <time>2019-08-04T11:37:01.311Z</time>
      </trkpt>
      <trkpt lat="42.44722" lon="1.45926333">
        <ele>1504.0</ele>
        <time>2019-08-04T11:37:02.322Z</time>
      </trkpt>
      <trkpt lat="42.44722" lon="1.45926333">
        <ele>1504.0</ele>
        <time>2019-08-04T11:37:03.303Z</time>
      </trkpt>
      <trkpt lat="42.44725667" lon="1.459285">
        <ele>1504.0</ele>
        <time>2019-08-04T11:37:04.306Z</time>
      </trkpt>
      <trkpt lat="42.44725667" lon="1.459285">
        <ele>1504.0</ele>
        <time>2019-08-04T11:37:05.304Z</time>
      </trkpt>
      <trkpt lat="42.447295" lon="1.45930167">
        <ele>1505.0</ele>
        <time>2019-08-04T11:37:06.323Z</time>
      </trkpt>
      <trkpt lat="42.44731333" lon="1.45931167">
        <ele>1505.0</ele>
        <time>2019-08-04T11:37:07.308Z</time>
      </trkpt>
      <trkpt lat="42.44731333" lon="1.45931167">
        <ele>1505.0</ele>
        <time>2019-08-04T11:37:08.305Z</time>
      </trkpt>
      <trkpt lat="42.44734833" lon="1.45932833">
        <ele>1506.0</ele>
        <time>2019-08-04T11:37:09.306Z</time>
      </trkpt>
      <trkpt lat="42.44736667" lon="1.45933667">
        <ele>1506.0</ele>
        <time>2019-08-04T11:37:10.304Z</time>
      </trkpt>
      <trkpt lat="42.44736667" lon="1.45933667">
        <ele>1506.0</ele>
        <time>2019-08-04T11:37:11.303Z</time>
      </trkpt>
      <trkpt lat="42.447405" lon="1.45935333">
        <ele>1506.0</ele>
        <time>2019-08-04T11:37:12.323Z</time>
      </trkpt>
      <trkpt lat="42.447405" lon="1.45935333">
        <ele>1506.0</ele>
        <time>2019-08-04T11:37:13.304Z</time>
      </trkpt>
      <trkpt lat="42.44744333" lon="1.459365">
        <ele>1507.0</ele>
        <time>2019-08-04T11:37:14.307Z</time>
      </trkpt>
      <trkpt lat="42.44744333" lon="1.459365">
        <ele>1507.0</ele>
        <time>2019-08-04T11:37:15.304Z</time>
      </trkpt>
      <trkpt lat="42.44748167" lon="1.45937667">
        <ele>1507.0</ele>
        <time>2019-08-04T11:37:16.308Z</time>
      </trkpt>
      <trkpt lat="42.44748167" lon="1.45937667">
        <ele>1507.0</ele>
        <time>2019-08-04T11:37:17.304Z</time>
      </trkpt>
      <trkpt lat="42.44752333" lon="1.45937833">
        <ele>1507.0</ele>
        <time>2019-08-04T11:37:18.307Z</time>
      </trkpt>
      <trkpt lat="42.447545" lon="1.45937667">
        <ele>1507.0</ele>
        <time>2019-08-04T11:37:19.307Z</time>
      </trkpt>
      <trkpt lat="42.447545" lon="1.45937667">
        <ele>1507.0</ele>
        <time>2019-08-04T11:37:20.305Z</time>
      </trkpt>
      <trkpt lat="42.44758667" lon="1.45936833">
        <ele>1508.0</ele>
        <time>2019-08-04T11:37:21.307Z</time>
      </trkpt>
      <trkpt lat="42.44758667" lon="1.45936833">
        <ele>1508.0</ele>
        <time>2019-08-04T11:37:22.315Z</time>
      </trkpt>
      <trkpt lat="42.44762333" lon="1.459365">
        <ele>1508.0</ele>
        <time>2019-08-04T11:37:23.306Z</time>
      </trkpt>
      <trkpt lat="42.44762333" lon="1.459365">
        <ele>1508.0</ele>
        <time>2019-08-04T11:37:24.304Z</time>
      </trkpt>
      <trkpt lat="42.44766167" lon="1.459365">
        <ele>1509.0</ele>
        <time>2019-08-04T11:37:25.325Z</time>
      </trkpt>
      <trkpt lat="42.44768" lon="1.459365">
        <ele>1509.0</ele>
        <time>2019-08-04T11:37:26.308Z</time>
      </trkpt>
      <trkpt lat="42.44768" lon="1.459365">
        <ele>1509.0</ele>
        <time>2019-08-04T11:37:27.304Z</time>
      </trkpt>
      <trkpt lat="42.44771667" lon="1.45936167">
        <ele>1509.0</ele>
        <time>2019-08-04T11:37:28.306Z</time>
      </trkpt>
      <trkpt lat="42.44771667" lon="1.45936167">
        <ele>1509.0</ele>
        <time>2019-08-04T11:37:29.316Z</time>
      </trkpt>
      <trkpt lat="42.447755" lon="1.459365">
        <ele>1510.0</ele>
        <time>2019-08-04T11:37:30.321Z</time>
      </trkpt>
      <trkpt lat="42.44777667" lon="1.459365">
        <ele>1510.0</ele>
        <time>2019-08-04T11:37:31.330Z</time>
      </trkpt>
      <trkpt lat="42.44779833" lon="1.45936333">
        <ele>1510.0</ele>
        <time>2019-08-04T11:37:32.299Z</time>
      </trkpt>
      <trkpt lat="42.44779833" lon="1.45936333">
        <ele>1510.0</ele>
        <time>2019-08-04T11:37:33.323Z</time>
      </trkpt>
      <trkpt lat="42.44783667" lon="1.45935833">
        <ele>1510.0</ele>
        <time>2019-08-04T11:37:34.309Z</time>
      </trkpt>
      <trkpt lat="42.44783667" lon="1.45935833">
        <ele>1510.0</ele>
        <time>2019-08-04T11:37:35.312Z</time>
      </trkpt>
      <trkpt lat="42.447875" lon="1.45935">
        <ele>1511.0</ele>
        <time>2019-08-04T11:37:36.307Z</time>
      </trkpt>
      <trkpt lat="42.447875" lon="1.45935">
        <ele>1511.0</ele>
        <time>2019-08-04T11:37:37.304Z</time>
      </trkpt>
      <trkpt lat="42.44791333" lon="1.45934667">
        <ele>1512.0</ele>
        <time>2019-08-04T11:37:38.321Z</time>
      </trkpt>
      <trkpt lat="42.44791333" lon="1.45934667">
        <ele>1512.0</ele>
        <time>2019-08-04T11:37:39.315Z</time>
      </trkpt>
      <trkpt lat="42.44795" lon="1.45933833">
        <ele>1512.0</ele>
        <time>2019-08-04T11:37:40.307Z</time>
      </trkpt>
      <trkpt lat="42.44795" lon="1.45933833">
        <ele>1512.0</ele>
        <time>2019-08-04T11:37:41.304Z</time>
      </trkpt>
      <trkpt lat="42.44798667" lon="1.45933167">
        <ele>1512.0</ele>
        <time>2019-08-04T11:37:42.297Z</time>
      </trkpt>
      <trkpt lat="42.44798667" lon="1.45933167">
        <ele>1512.0</ele>
        <time>2019-08-04T11:37:43.317Z</time>
      </trkpt>
      <trkpt lat="42.44802667" lon="1.45933167">
        <ele>1512.0</ele>
        <time>2019-08-04T11:37:44.308Z</time>
      </trkpt>
      <trkpt lat="42.44802667" lon="1.45933167">
        <ele>1512.0</ele>
        <time>2019-08-04T11:37:45.304Z</time>
      </trkpt>
      <trkpt lat="42.44806167" lon="1.45934">
        <ele>1513.0</ele>
        <time>2019-08-04T11:37:46.307Z</time>
      </trkpt>
      <trkpt lat="42.44806167" lon="1.45934">
        <ele>1513.0</ele>
        <time>2019-08-04T11:37:47.318Z</time>
      </trkpt>
      <trkpt lat="42.44809667" lon="1.45934">
        <ele>1513.0</ele>
        <time>2019-08-04T11:37:48.306Z</time>
      </trkpt>
      <trkpt lat="42.44809667" lon="1.45934">
        <ele>1513.0</ele>
        <time>2019-08-04T11:37:49.306Z</time>
      </trkpt>
      <trkpt lat="42.44812833" lon="1.45933833">
        <ele>1515.0</ele>
        <time>2019-08-04T11:37:50.309Z</time>
      </trkpt>
      <trkpt lat="42.44812833" lon="1.45933833">
        <ele>1515.0</ele>
        <time>2019-08-04T11:37:51.304Z</time>
      </trkpt>
      <trkpt lat="42.44815833" lon="1.45933167">
        <ele>1516.0</ele>
        <time>2019-08-04T11:37:52.330Z</time>
      </trkpt>
      <trkpt lat="42.44815833" lon="1.45933167">
        <ele>1516.0</ele>
        <time>2019-08-04T11:37:53.322Z</time>
      </trkpt>
      <trkpt lat="42.44819333" lon="1.45931">
        <ele>1517.0</ele>
        <time>2019-08-04T11:37:54.307Z</time>
      </trkpt>
      <trkpt lat="42.44819333" lon="1.45931">
        <ele>1517.0</ele>
        <time>2019-08-04T11:37:55.306Z</time>
      </trkpt>
      <trkpt lat="42.448235" lon="1.45930167">
        <ele>1519.0</ele>
        <time>2019-08-04T11:37:56.308Z</time>
      </trkpt>
      <trkpt lat="42.448235" lon="1.45930167">
        <ele>1519.0</ele>
        <time>2019-08-04T11:37:57.304Z</time>
      </trkpt>
      <trkpt lat="42.44827" lon="1.45928833">
        <ele>1519.0</ele>
        <time>2019-08-04T11:37:58.307Z</time>
      </trkpt>
      <trkpt lat="42.44827" lon="1.45928833">
        <ele>1519.0</ele>
        <time>2019-08-04T11:37:59.302Z</time>
      </trkpt>
      <trkpt lat="42.44831333" lon="1.45927667">
        <ele>1520.0</ele>
        <time>2019-08-04T11:38:00.323Z</time>
      </trkpt>
      <trkpt lat="42.44831333" lon="1.45927667">
        <ele>1520.0</ele>
        <time>2019-08-04T11:38:01.304Z</time>
      </trkpt>
      <trkpt lat="42.44835" lon="1.45926833">
        <ele>1521.0</ele>
        <time>2019-08-04T11:38:02.299Z</time>
      </trkpt>
      <trkpt lat="42.44835" lon="1.45926833">
        <ele>1521.0</ele>
        <time>2019-08-04T11:38:03.323Z</time>
      </trkpt>
      <trkpt lat="42.448385" lon="1.45925667">
        <ele>1521.0</ele>
        <time>2019-08-04T11:38:04.306Z</time>
      </trkpt>
      <trkpt lat="42.448385" lon="1.45925667">
        <ele>1521.0</ele>
        <time>2019-08-04T11:38:05.304Z</time>
      </trkpt>
      <trkpt lat="42.44842667" lon="1.45925167">
        <ele>1522.0</ele>
        <time>2019-08-04T11:38:06.305Z</time>
      </trkpt>
      <trkpt lat="42.448445" lon="1.45925">
        <ele>1523.0</ele>
        <time>2019-08-04T11:38:07.306Z</time>
      </trkpt>
      <trkpt lat="42.448465" lon="1.45924">
        <ele>1523.0</ele>
        <time>2019-08-04T11:38:08.307Z</time>
      </trkpt>
      <trkpt lat="42.448465" lon="1.45924">
        <ele>1523.0</ele>
        <time>2019-08-04T11:38:09.297Z</time>
      </trkpt>
      <trkpt lat="42.44849833" lon="1.45923">
        <ele>1524.0</ele>
        <time>2019-08-04T11:38:10.322Z</time>
      </trkpt>
      <trkpt lat="42.44849833" lon="1.45923">
        <ele>1524.0</ele>
        <time>2019-08-04T11:38:11.305Z</time>
      </trkpt>
      <trkpt lat="42.44853167" lon="1.45921833">
        <ele>1524.0</ele>
        <time>2019-08-04T11:38:12.333Z</time>
      </trkpt>
      <trkpt lat="42.44853167" lon="1.45921833">
        <ele>1524.0</ele>
        <time>2019-08-04T11:38:13.314Z</time>
      </trkpt>
      <trkpt lat="42.448565" lon="1.45920333">
        <ele>1525.0</ele>
        <time>2019-08-04T11:38:14.308Z</time>
      </trkpt>
      <trkpt lat="42.448565" lon="1.45920333">
        <ele>1525.0</ele>
        <time>2019-08-04T11:38:15.304Z</time>
      </trkpt>
      <trkpt lat="42.44860333" lon="1.459175">
        <ele>1525.0</ele>
        <time>2019-08-04T11:38:16.312Z</time>
      </trkpt>
      <trkpt lat="42.44860333" lon="1.459175">
        <ele>1525.0</ele>
        <time>2019-08-04T11:38:17.305Z</time>
      </trkpt>
      <trkpt lat="42.44863667" lon="1.45916">
        <ele>1526.0</ele>
        <time>2019-08-04T11:38:18.307Z</time>
      </trkpt>
      <trkpt lat="42.44863667" lon="1.45916">
        <ele>1526.0</ele>
        <time>2019-08-04T11:38:19.306Z</time>
      </trkpt>
      <trkpt lat="42.44865833" lon="1.45915333">
        <ele>1527.0</ele>
        <time>2019-08-04T11:38:20.308Z</time>
      </trkpt>
      <trkpt lat="42.44865833" lon="1.45915333">
        <ele>1527.0</ele>
        <time>2019-08-04T11:38:21.302Z</time>
      </trkpt>
      <trkpt lat="42.44867" lon="1.459155">
        <ele>1528.0</ele>
        <time>2019-08-04T11:38:22.298Z</time>
      </trkpt>
      <trkpt lat="42.44867" lon="1.459155">
        <ele>1528.0</ele>
        <time>2019-08-04T11:38:23.330Z</time>
      </trkpt>
      <trkpt lat="42.44868667" lon="1.459135">
        <ele>1528.0</ele>
        <time>2019-08-04T11:38:24.312Z</time>
      </trkpt>
      <trkpt lat="42.44868667" lon="1.459135">
        <ele>1528.0</ele>
        <time>2019-08-04T11:38:25.303Z</time>
      </trkpt>
      <trkpt lat="42.44870167" lon="1.45910167">
        <ele>1528.0</ele>
        <time>2019-08-04T11:38:26.308Z</time>
      </trkpt>
      <trkpt lat="42.44870167" lon="1.45910167">
        <ele>1528.0</ele>
        <time>2019-08-04T11:38:27.304Z</time>
      </trkpt>
      <trkpt lat="42.448725" lon="1.45908333">
        <ele>1528.0</ele>
        <time>2019-08-04T11:38:28.308Z</time>
      </trkpt>
      <trkpt lat="42.448725" lon="1.45908333">
        <ele>1528.0</ele>
        <time>2019-08-04T11:38:29.306Z</time>
      </trkpt>
      <trkpt lat="42.44874" lon="1.45906833">
        <ele>1529.0</ele>
        <time>2019-08-04T11:38:30.315Z</time>
      </trkpt>
      <trkpt lat="42.44874667" lon="1.45906333">
        <ele>1529.0</ele>
        <time>2019-08-04T11:38:31.322Z</time>
      </trkpt>
      <trkpt lat="42.44875833" lon="1.45905667">
        <ele>1529.0</ele>
        <time>2019-08-04T11:38:32.331Z</time>
      </trkpt>
      <trkpt lat="42.44875833" lon="1.45905667">
        <ele>1529.0</ele>
        <time>2019-08-04T11:38:33.310Z</time>
      </trkpt>
      <trkpt lat="42.44878" lon="1.45904">
        <ele>1530.0</ele>
        <time>2019-08-04T11:38:34.308Z</time>
      </trkpt>
      <trkpt lat="42.4488" lon="1.45903833">
        <ele>1530.0</ele>
        <time>2019-08-04T11:38:35.324Z</time>
      </trkpt>
      <trkpt lat="42.4488" lon="1.45903833">
        <ele>1530.0</ele>
        <time>2019-08-04T11:38:36.305Z</time>
      </trkpt>
      <trkpt lat="42.44883167" lon="1.459005">
        <ele>1530.0</ele>
        <time>2019-08-04T11:38:37.307Z</time>
      </trkpt>
      <trkpt lat="42.44883167" lon="1.459005">
        <ele>1530.0</ele>
        <time>2019-08-04T11:38:38.305Z</time>
      </trkpt>
      <trkpt lat="42.448865" lon="1.45897">
        <ele>1530.0</ele>
        <time>2019-08-04T11:38:39.304Z</time>
      </trkpt>
      <trkpt lat="42.44888167" lon="1.45895833">
        <ele>1530.0</ele>
        <time>2019-08-04T11:38:40.306Z</time>
      </trkpt>
      <trkpt lat="42.44888167" lon="1.45895833">
        <ele>1530.0</ele>
        <time>2019-08-04T11:38:41.304Z</time>
      </trkpt>
      <trkpt lat="42.44891333" lon="1.45892667">
        <ele>1530.0</ele>
        <time>2019-08-04T11:38:42.323Z</time>
      </trkpt>
      <trkpt lat="42.44891333" lon="1.45892667">
        <ele>1530.0</ele>
        <time>2019-08-04T11:38:43.305Z</time>
      </trkpt>
      <trkpt lat="42.44894833" lon="1.45890167">
        <ele>1530.0</ele>
        <time>2019-08-04T11:38:44.308Z</time>
      </trkpt>
      <trkpt lat="42.44894833" lon="1.45890167">
        <ele>1530.0</ele>
        <time>2019-08-04T11:38:45.305Z</time>
      </trkpt>
      <trkpt lat="42.44902167" lon="1.45887">
        <ele>1531.0</ele>
        <time>2019-08-04T11:38:46.307Z</time>
      </trkpt>
      <trkpt lat="42.44902167" lon="1.45887">
        <ele>1531.0</ele>
        <time>2019-08-04T11:38:47.309Z</time>
      </trkpt>
      <trkpt lat="42.44906167" lon="1.45884167">
        <ele>1531.0</ele>
        <time>2019-08-04T11:38:48.307Z</time>
      </trkpt>
      <trkpt lat="42.44906167" lon="1.45884167">
        <ele>1531.0</ele>
        <time>2019-08-04T11:38:49.303Z</time>
      </trkpt>
      <trkpt lat="42.44910167" lon="1.458815">
        <ele>1531.0</ele>
        <time>2019-08-04T11:38:50.308Z</time>
      </trkpt>
      <trkpt lat="42.44910167" lon="1.458815">
        <ele>1531.0</ele>
        <time>2019-08-04T11:38:51.304Z</time>
      </trkpt>
      <trkpt lat="42.44914333" lon="1.458785">
        <ele>1532.0</ele>
        <time>2019-08-04T11:38:52.322Z</time>
      </trkpt>
      <trkpt lat="42.44914333" lon="1.458785">
        <ele>1532.0</ele>
        <time>2019-08-04T11:38:53.305Z</time>
      </trkpt>
      <trkpt lat="42.449185" lon="1.45874">
        <ele>1532.0</ele>
        <time>2019-08-04T11:38:54.307Z</time>
      </trkpt>
      <trkpt lat="42.449185" lon="1.45874">
        <ele>1532.0</ele>
        <time>2019-08-04T11:38:55.314Z</time>
      </trkpt>
      <trkpt lat="42.44922167" lon="1.458705">
        <ele>1533.0</ele>
        <time>2019-08-04T11:38:56.309Z</time>
      </trkpt>
      <trkpt lat="42.44922167" lon="1.458705">
        <ele>1533.0</ele>
        <time>2019-08-04T11:38:57.304Z</time>
      </trkpt>
      <trkpt lat="42.44926" lon="1.45868">
        <ele>1533.0</ele>
        <time>2019-08-04T11:38:58.307Z</time>
      </trkpt>
      <trkpt lat="42.44926" lon="1.45868">
        <ele>1533.0</ele>
        <time>2019-08-04T11:38:59.305Z</time>
      </trkpt>
      <trkpt lat="42.44929333" lon="1.458655">
        <ele>1533.0</ele>
        <time>2019-08-04T11:39:00.331Z</time>
      </trkpt>
      <trkpt lat="42.44929333" lon="1.458655">
        <ele>1533.0</ele>
        <time>2019-08-04T11:39:01.311Z</time>
      </trkpt>
      <trkpt lat="42.44933167" lon="1.45862667">
        <ele>1533.0</ele>
        <time>2019-08-04T11:39:02.323Z</time>
      </trkpt>
      <trkpt lat="42.44933167" lon="1.45862667">
        <ele>1533.0</ele>
        <time>2019-08-04T11:39:03.304Z</time>
      </trkpt>
      <trkpt lat="42.44936" lon="1.4586">
        <ele>1534.0</ele>
        <time>2019-08-04T11:39:04.308Z</time>
      </trkpt>
      <trkpt lat="42.44936" lon="1.4586">
        <ele>1534.0</ele>
        <time>2019-08-04T11:39:05.305Z</time>
      </trkpt>
      <trkpt lat="42.449375" lon="1.45857">
        <ele>1534.0</ele>
        <time>2019-08-04T11:39:06.307Z</time>
      </trkpt>
      <trkpt lat="42.449375" lon="1.45857">
        <ele>1534.0</ele>
        <time>2019-08-04T11:39:07.304Z</time>
      </trkpt>
      <trkpt lat="42.44941833" lon="1.45855333">
        <ele>1535.0</ele>
        <time>2019-08-04T11:39:08.305Z</time>
      </trkpt>
      <trkpt lat="42.44941833" lon="1.45855333">
        <ele>1535.0</ele>
        <time>2019-08-04T11:39:09.302Z</time>
      </trkpt>
      <trkpt lat="42.44944167" lon="1.458545">
        <ele>1535.0</ele>
        <time>2019-08-04T11:39:10.322Z</time>
      </trkpt>
      <trkpt lat="42.44944167" lon="1.458545">
        <ele>1535.0</ele>
        <time>2019-08-04T11:39:11.304Z</time>
      </trkpt>
      <trkpt lat="42.449485" lon="1.45854333">
        <ele>1536.0</ele>
        <time>2019-08-04T11:39:12.331Z</time>
      </trkpt>
      <trkpt lat="42.449485" lon="1.45854333">
        <ele>1536.0</ele>
        <time>2019-08-04T11:39:13.312Z</time>
      </trkpt>
      <trkpt lat="42.44951" lon="1.45853">
        <ele>1536.0</ele>
        <time>2019-08-04T11:39:14.317Z</time>
      </trkpt>
      <trkpt lat="42.44951" lon="1.45853">
        <ele>1536.0</ele>
        <time>2019-08-04T11:39:15.304Z</time>
      </trkpt>
      <trkpt lat="42.44954333" lon="1.45849667">
        <ele>1537.0</ele>
        <time>2019-08-04T11:39:16.308Z</time>
      </trkpt>
      <trkpt lat="42.44954333" lon="1.45849667">
        <ele>1537.0</ele>
        <time>2019-08-04T11:39:17.305Z</time>
      </trkpt>
      <trkpt lat="42.44959333" lon="1.458475">
        <ele>1537.0</ele>
        <time>2019-08-04T11:39:18.329Z</time>
      </trkpt>
      <trkpt lat="42.44959333" lon="1.458475">
        <ele>1537.0</ele>
        <time>2019-08-04T11:39:19.310Z</time>
      </trkpt>
      <trkpt lat="42.449635" lon="1.45844167">
        <ele>1538.0</ele>
        <time>2019-08-04T11:39:20.309Z</time>
      </trkpt>
      <trkpt lat="42.449635" lon="1.45844167">
        <ele>1538.0</ele>
        <time>2019-08-04T11:39:21.305Z</time>
      </trkpt>
      <trkpt lat="42.44966167" lon="1.45841833">
        <ele>1538.0</ele>
        <time>2019-08-04T11:39:22.331Z</time>
      </trkpt>
      <trkpt lat="42.44966167" lon="1.45841833">
        <ele>1538.0</ele>
        <time>2019-08-04T11:39:23.312Z</time>
      </trkpt>
      <trkpt lat="42.44969833" lon="1.45838167">
        <ele>1538.0</ele>
        <time>2019-08-04T11:39:24.308Z</time>
      </trkpt>
      <trkpt lat="42.44972" lon="1.458365">
        <ele>1538.0</ele>
        <time>2019-08-04T11:39:25.310Z</time>
      </trkpt>
      <trkpt lat="42.44972" lon="1.458365">
        <ele>1538.0</ele>
        <time>2019-08-04T11:39:26.306Z</time>
      </trkpt>
      <trkpt lat="42.449755" lon="1.45833333">
        <ele>1539.0</ele>
        <time>2019-08-04T11:39:27.307Z</time>
      </trkpt>
      <trkpt lat="42.44979167" lon="1.45832333">
        <ele>1539.0</ele>
        <time>2019-08-04T11:39:28.308Z</time>
      </trkpt>
      <trkpt lat="42.44979167" lon="1.45832333">
        <ele>1539.0</ele>
        <time>2019-08-04T11:39:29.316Z</time>
      </trkpt>
      <trkpt lat="42.44982333" lon="1.458295">
        <ele>1539.0</ele>
        <time>2019-08-04T11:39:30.324Z</time>
      </trkpt>
      <trkpt lat="42.44982333" lon="1.458295">
        <ele>1539.0</ele>
        <time>2019-08-04T11:39:31.332Z</time>
      </trkpt>
      <trkpt lat="42.44984333" lon="1.45825667">
        <ele>1539.0</ele>
        <time>2019-08-04T11:39:32.325Z</time>
      </trkpt>
      <trkpt lat="42.44984333" lon="1.45825667">
        <ele>1539.0</ele>
        <time>2019-08-04T11:39:33.306Z</time>
      </trkpt>
      <trkpt lat="42.44986167" lon="1.45822833">
        <ele>1540.0</ele>
        <time>2019-08-04T11:39:34.308Z</time>
      </trkpt>
      <trkpt lat="42.44986167" lon="1.45822833">
        <ele>1540.0</ele>
        <time>2019-08-04T11:39:35.315Z</time>
      </trkpt>
      <trkpt lat="42.449895" lon="1.45817333">
        <ele>1539.0</ele>
        <time>2019-08-04T11:39:36.308Z</time>
      </trkpt>
      <trkpt lat="42.449895" lon="1.45817333">
        <ele>1539.0</ele>
        <time>2019-08-04T11:39:37.304Z</time>
      </trkpt>
      <trkpt lat="42.44991833" lon="1.45813167">
        <ele>1540.0</ele>
        <time>2019-08-04T11:39:38.309Z</time>
      </trkpt>
      <trkpt lat="42.44991833" lon="1.45813167">
        <ele>1540.0</ele>
        <time>2019-08-04T11:39:39.307Z</time>
      </trkpt>
      <trkpt lat="42.44993833" lon="1.45810667">
        <ele>1540.0</ele>
        <time>2019-08-04T11:39:40.308Z</time>
      </trkpt>
      <trkpt lat="42.44993833" lon="1.45810667">
        <ele>1540.0</ele>
        <time>2019-08-04T11:39:41.306Z</time>
      </trkpt>
      <trkpt lat="42.44995833" lon="1.458085">
        <ele>1540.0</ele>
        <time>2019-08-04T11:39:42.299Z</time>
      </trkpt>
      <trkpt lat="42.44995833" lon="1.458085">
        <ele>1540.0</ele>
        <time>2019-08-04T11:39:43.323Z</time>
      </trkpt>
      <trkpt lat="42.44998" lon="1.458055">
        <ele>1540.0</ele>
        <time>2019-08-04T11:39:44.310Z</time>
      </trkpt>
      <trkpt lat="42.44998" lon="1.458055">
        <ele>1540.0</ele>
        <time>2019-08-04T11:39:45.301Z</time>
      </trkpt>
      <trkpt lat="42.450005" lon="1.45801167">
        <ele>1539.0</ele>
        <time>2019-08-04T11:39:46.323Z</time>
      </trkpt>
      <trkpt lat="42.450005" lon="1.45801167">
        <ele>1539.0</ele>
        <time>2019-08-04T11:39:47.316Z</time>
      </trkpt>
      <trkpt lat="42.45002833" lon="1.45796167">
        <ele>1539.0</ele>
        <time>2019-08-04T11:39:48.307Z</time>
      </trkpt>
      <trkpt lat="42.45004" lon="1.45794">
        <ele>1539.0</ele>
        <time>2019-08-04T11:39:49.307Z</time>
      </trkpt>
      <trkpt lat="42.45005667" lon="1.45792">
        <ele>1539.0</ele>
        <time>2019-08-04T11:39:50.310Z</time>
      </trkpt>
      <trkpt lat="42.45005667" lon="1.45792">
        <ele>1539.0</ele>
        <time>2019-08-04T11:39:51.303Z</time>
      </trkpt>
      <trkpt lat="42.45008167" lon="1.45787667">
        <ele>1539.0</ele>
        <time>2019-08-04T11:39:52.335Z</time>
      </trkpt>
      <trkpt lat="42.45008167" lon="1.45787667">
        <ele>1539.0</ele>
        <time>2019-08-04T11:39:53.327Z</time>
      </trkpt>
      <trkpt lat="42.450105" lon="1.45783833">
        <ele>1539.0</ele>
        <time>2019-08-04T11:39:54.310Z</time>
      </trkpt>
      <trkpt lat="42.450105" lon="1.45783833">
        <ele>1539.0</ele>
        <time>2019-08-04T11:39:55.316Z</time>
      </trkpt>
      <trkpt lat="42.45012667" lon="1.4578">
        <ele>1539.0</ele>
        <time>2019-08-04T11:39:56.310Z</time>
      </trkpt>
      <trkpt lat="42.45012667" lon="1.4578">
        <ele>1539.0</ele>
        <time>2019-08-04T11:39:57.298Z</time>
      </trkpt>
      <trkpt lat="42.45015" lon="1.45776">
        <ele>1539.0</ele>
        <time>2019-08-04T11:39:58.323Z</time>
      </trkpt>
      <trkpt lat="42.45015" lon="1.45776">
        <ele>1539.0</ele>
        <time>2019-08-04T11:39:59.305Z</time>
      </trkpt>
      <trkpt lat="42.450165" lon="1.45771">
        <ele>1539.0</ele>
        <time>2019-08-04T11:40:00.305Z</time>
      </trkpt>
      <trkpt lat="42.450175" lon="1.45768833">
        <ele>1539.0</ele>
        <time>2019-08-04T11:40:01.307Z</time>
      </trkpt>
      <trkpt lat="42.45018333" lon="1.45766667">
        <ele>1538.0</ele>
        <time>2019-08-04T11:40:02.335Z</time>
      </trkpt>
      <trkpt lat="42.45018333" lon="1.45766667">
        <ele>1538.0</ele>
        <time>2019-08-04T11:40:03.315Z</time>
      </trkpt>
      <trkpt lat="42.45020167" lon="1.45762667">
        <ele>1538.0</ele>
        <time>2019-08-04T11:40:04.308Z</time>
      </trkpt>
      <trkpt lat="42.45020167" lon="1.45762667">
        <ele>1538.0</ele>
        <time>2019-08-04T11:40:05.305Z</time>
      </trkpt>
      <trkpt lat="42.45021167" lon="1.457585">
        <ele>1538.0</ele>
        <time>2019-08-04T11:40:06.307Z</time>
      </trkpt>
      <trkpt lat="42.450225" lon="1.45756833">
        <ele>1538.0</ele>
        <time>2019-08-04T11:40:07.316Z</time>
      </trkpt>
      <trkpt lat="42.450225" lon="1.45756833">
        <ele>1538.0</ele>
        <time>2019-08-04T11:40:08.303Z</time>
      </trkpt>
      <trkpt lat="42.45024167" lon="1.45752333">
        <ele>1538.0</ele>
        <time>2019-08-04T11:40:09.307Z</time>
      </trkpt>
      <trkpt lat="42.45024167" lon="1.45752333">
        <ele>1538.0</ele>
        <time>2019-08-04T11:40:10.304Z</time>
      </trkpt>
      <trkpt lat="42.45026167" lon="1.45748167">
        <ele>1538.0</ele>
        <time>2019-08-04T11:40:11.308Z</time>
      </trkpt>
      <trkpt lat="42.45026167" lon="1.45748167">
        <ele>1538.0</ele>
        <time>2019-08-04T11:40:12.319Z</time>
      </trkpt>
      <trkpt lat="42.450285" lon="1.457445">
        <ele>1538.0</ele>
        <time>2019-08-04T11:40:13.304Z</time>
      </trkpt>
      <trkpt lat="42.45029333" lon="1.45742667">
        <ele>1538.0</ele>
        <time>2019-08-04T11:40:14.309Z</time>
      </trkpt>
      <trkpt lat="42.45029333" lon="1.45742667">
        <ele>1538.0</ele>
        <time>2019-08-04T11:40:15.305Z</time>
      </trkpt>
      <trkpt lat="42.45032167" lon="1.45738667">
        <ele>1538.0</ele>
        <time>2019-08-04T11:40:16.309Z</time>
      </trkpt>
      <trkpt lat="42.45032167" lon="1.45738667">
        <ele>1538.0</ele>
        <time>2019-08-04T11:40:17.305Z</time>
      </trkpt>
      <trkpt lat="42.45033833" lon="1.45734333">
        <ele>1538.0</ele>
        <time>2019-08-04T11:40:18.308Z</time>
      </trkpt>
      <trkpt lat="42.45033833" lon="1.45734333">
        <ele>1538.0</ele>
        <time>2019-08-04T11:40:19.305Z</time>
      </trkpt>
      <trkpt lat="42.45036167" lon="1.45730167">
        <ele>1538.0</ele>
        <time>2019-08-04T11:40:20.323Z</time>
      </trkpt>
      <trkpt lat="42.45036167" lon="1.45730167">
        <ele>1538.0</ele>
        <time>2019-08-04T11:40:21.308Z</time>
      </trkpt>
      <trkpt lat="42.450375" lon="1.45725833">
        <ele>1538.0</ele>
        <time>2019-08-04T11:40:22.323Z</time>
      </trkpt>
      <trkpt lat="42.45038167" lon="1.457235">
        <ele>1538.0</ele>
        <time>2019-08-04T11:40:23.308Z</time>
      </trkpt>
      <trkpt lat="42.45038167" lon="1.457235">
        <ele>1538.0</ele>
        <time>2019-08-04T11:40:24.305Z</time>
      </trkpt>
      <trkpt lat="42.4504" lon="1.45719">
        <ele>1539.0</ele>
        <time>2019-08-04T11:40:25.308Z</time>
      </trkpt>
      <trkpt lat="42.4504" lon="1.45719">
        <ele>1539.0</ele>
        <time>2019-08-04T11:40:26.306Z</time>
      </trkpt>
      <trkpt lat="42.450425" lon="1.45715">
        <ele>1539.0</ele>
        <time>2019-08-04T11:40:27.304Z</time>
      </trkpt>
      <trkpt lat="42.450425" lon="1.45715">
        <ele>1539.0</ele>
        <time>2019-08-04T11:40:28.302Z</time>
      </trkpt>
      <trkpt lat="42.45044167" lon="1.45711833">
        <ele>1539.0</ele>
        <time>2019-08-04T11:40:29.317Z</time>
      </trkpt>
      <trkpt lat="42.45044667" lon="1.45710167">
        <ele>1540.0</ele>
        <time>2019-08-04T11:40:30.323Z</time>
      </trkpt>
      <trkpt lat="42.45044667" lon="1.45710167">
        <ele>1540.0</ele>
        <time>2019-08-04T11:40:31.333Z</time>
      </trkpt>
      <trkpt lat="42.45044667" lon="1.45705333">
        <ele>1540.0</ele>
        <time>2019-08-04T11:40:32.326Z</time>
      </trkpt>
      <trkpt lat="42.45045" lon="1.45702833">
        <ele>1540.0</ele>
        <time>2019-08-04T11:40:33.310Z</time>
      </trkpt>
      <trkpt lat="42.45045" lon="1.45702833">
        <ele>1540.0</ele>
        <time>2019-08-04T11:40:34.305Z</time>
      </trkpt>
      <trkpt lat="42.450445" lon="1.456985">
        <ele>1541.0</ele>
        <time>2019-08-04T11:40:35.326Z</time>
      </trkpt>
      <trkpt lat="42.45044667" lon="1.456965">
        <ele>1541.0</ele>
        <time>2019-08-04T11:40:36.308Z</time>
      </trkpt>
      <trkpt lat="42.45044667" lon="1.456965">
        <ele>1541.0</ele>
        <time>2019-08-04T11:40:37.302Z</time>
      </trkpt>
      <trkpt lat="42.45045333" lon="1.45692">
        <ele>1542.0</ele>
        <time>2019-08-04T11:40:38.323Z</time>
      </trkpt>
      <trkpt lat="42.45045333" lon="1.45692">
        <ele>1542.0</ele>
        <time>2019-08-04T11:40:39.305Z</time>
      </trkpt>
      <trkpt lat="42.45045333" lon="1.45687667">
        <ele>1542.0</ele>
        <time>2019-08-04T11:40:40.308Z</time>
      </trkpt>
      <trkpt lat="42.45045333" lon="1.45687667">
        <ele>1542.0</ele>
        <time>2019-08-04T11:40:41.304Z</time>
      </trkpt>
      <trkpt lat="42.45046" lon="1.45683">
        <ele>1542.0</ele>
        <time>2019-08-04T11:40:42.324Z</time>
      </trkpt>
      <trkpt lat="42.45046" lon="1.45683">
        <ele>1542.0</ele>
        <time>2019-08-04T11:40:43.305Z</time>
      </trkpt>
      <trkpt lat="42.450475" lon="1.45678333">
        <ele>1543.0</ele>
        <time>2019-08-04T11:40:44.310Z</time>
      </trkpt>
      <trkpt lat="42.450475" lon="1.45678333">
        <ele>1543.0</ele>
        <time>2019-08-04T11:40:45.304Z</time>
      </trkpt>
      <trkpt lat="42.45048667" lon="1.45673833">
        <ele>1544.0</ele>
        <time>2019-08-04T11:40:46.307Z</time>
      </trkpt>
      <trkpt lat="42.45048667" lon="1.45673833">
        <ele>1544.0</ele>
        <time>2019-08-04T11:40:47.304Z</time>
      </trkpt>
      <trkpt lat="42.45049833" lon="1.4567">
        <ele>1545.0</ele>
        <time>2019-08-04T11:40:48.308Z</time>
      </trkpt>
      <trkpt lat="42.45049833" lon="1.4567">
        <ele>1545.0</ele>
        <time>2019-08-04T11:40:49.303Z</time>
      </trkpt>
      <trkpt lat="42.45051" lon="1.456665">
        <ele>1546.0</ele>
        <time>2019-08-04T11:40:50.306Z</time>
      </trkpt>
      <trkpt lat="42.45051" lon="1.456665">
        <ele>1546.0</ele>
        <time>2019-08-04T11:40:51.305Z</time>
      </trkpt>
      <trkpt lat="42.450525" lon="1.456615">
        <ele>1547.0</ele>
        <time>2019-08-04T11:40:52.323Z</time>
      </trkpt>
      <trkpt lat="42.450525" lon="1.456615">
        <ele>1547.0</ele>
        <time>2019-08-04T11:40:53.305Z</time>
      </trkpt>
      <trkpt lat="42.450555" lon="1.456575">
        <ele>1547.0</ele>
        <time>2019-08-04T11:40:54.308Z</time>
      </trkpt>
      <trkpt lat="42.45056667" lon="1.45655667">
        <ele>1548.0</ele>
        <time>2019-08-04T11:40:55.314Z</time>
      </trkpt>
      <trkpt lat="42.45056667" lon="1.45655667">
        <ele>1548.0</ele>
        <time>2019-08-04T11:40:56.303Z</time>
      </trkpt>
      <trkpt lat="42.45058" lon="1.45651167">
        <ele>1548.0</ele>
        <time>2019-08-04T11:40:57.308Z</time>
      </trkpt>
      <trkpt lat="42.45058167" lon="1.45649167">
        <ele>1549.0</ele>
        <time>2019-08-04T11:40:58.308Z</time>
      </trkpt>
      <trkpt lat="42.45058167" lon="1.45649167">
        <ele>1549.0</ele>
        <time>2019-08-04T11:40:59.305Z</time>
      </trkpt>
      <trkpt lat="42.45058667" lon="1.45644333">
        <ele>1550.0</ele>
        <time>2019-08-04T11:41:00.326Z</time>
      </trkpt>
      <trkpt lat="42.45059167" lon="1.45642167">
        <ele>1550.0</ele>
        <time>2019-08-04T11:41:01.308Z</time>
      </trkpt>
      <trkpt lat="42.45060333" lon="1.45639333">
        <ele>1551.0</ele>
        <time>2019-08-04T11:41:02.323Z</time>
      </trkpt>
      <trkpt lat="42.45060333" lon="1.45639333">
        <ele>1551.0</ele>
        <time>2019-08-04T11:41:03.305Z</time>
      </trkpt>
      <trkpt lat="42.45062" lon="1.456345">
        <ele>1551.0</ele>
        <time>2019-08-04T11:41:04.307Z</time>
      </trkpt>
      <trkpt lat="42.45062" lon="1.456345">
        <ele>1551.0</ele>
        <time>2019-08-04T11:41:05.331Z</time>
      </trkpt>
      <trkpt lat="42.45061333" lon="1.456295">
        <ele>1552.0</ele>
        <time>2019-08-04T11:41:06.313Z</time>
      </trkpt>
      <trkpt lat="42.45061333" lon="1.456295">
        <ele>1552.0</ele>
        <time>2019-08-04T11:41:07.304Z</time>
      </trkpt>
      <trkpt lat="42.450625" lon="1.45623667">
        <ele>1553.0</ele>
        <time>2019-08-04T11:41:08.308Z</time>
      </trkpt>
      <trkpt lat="42.450625" lon="1.45623667">
        <ele>1553.0</ele>
        <time>2019-08-04T11:41:09.305Z</time>
      </trkpt>
      <trkpt lat="42.45063333" lon="1.45619">
        <ele>1553.0</ele>
        <time>2019-08-04T11:41:10.318Z</time>
      </trkpt>
      <trkpt lat="42.45063333" lon="1.45619">
        <ele>1553.0</ele>
        <time>2019-08-04T11:41:11.305Z</time>
      </trkpt>
      <trkpt lat="42.45064333" lon="1.45613667">
        <ele>1554.0</ele>
        <time>2019-08-04T11:41:12.332Z</time>
      </trkpt>
      <trkpt lat="42.45064833" lon="1.45611167">
        <ele>1554.0</ele>
        <time>2019-08-04T11:41:13.319Z</time>
      </trkpt>
      <trkpt lat="42.45065667" lon="1.45608667">
        <ele>1555.0</ele>
        <time>2019-08-04T11:41:14.306Z</time>
      </trkpt>
      <trkpt lat="42.45065667" lon="1.45608667">
        <ele>1555.0</ele>
        <time>2019-08-04T11:41:15.303Z</time>
      </trkpt>
      <trkpt lat="42.45065833" lon="1.45603833">
        <ele>1556.0</ele>
        <time>2019-08-04T11:41:16.308Z</time>
      </trkpt>
      <trkpt lat="42.45065833" lon="1.45603833">
        <ele>1556.0</ele>
        <time>2019-08-04T11:41:17.304Z</time>
      </trkpt>
      <trkpt lat="42.450655" lon="1.45599167">
        <ele>1556.0</ele>
        <time>2019-08-04T11:41:18.308Z</time>
      </trkpt>
      <trkpt lat="42.450655" lon="1.45599167">
        <ele>1556.0</ele>
        <time>2019-08-04T11:41:19.303Z</time>
      </trkpt>
      <trkpt lat="42.45066667" lon="1.45594167">
        <ele>1557.0</ele>
        <time>2019-08-04T11:41:20.306Z</time>
      </trkpt>
      <trkpt lat="42.45066667" lon="1.45594167">
        <ele>1557.0</ele>
        <time>2019-08-04T11:41:21.300Z</time>
      </trkpt>
      <trkpt lat="42.45067833" lon="1.455885">
        <ele>1558.0</ele>
        <time>2019-08-04T11:41:22.326Z</time>
      </trkpt>
      <trkpt lat="42.45067833" lon="1.455885">
        <ele>1558.0</ele>
        <time>2019-08-04T11:41:23.305Z</time>
      </trkpt>
      <trkpt lat="42.45067833" lon="1.45584">
        <ele>1559.0</ele>
        <time>2019-08-04T11:41:24.308Z</time>
      </trkpt>
      <trkpt lat="42.45067833" lon="1.45584">
        <ele>1559.0</ele>
        <time>2019-08-04T11:41:25.305Z</time>
      </trkpt>
      <trkpt lat="42.45069333" lon="1.45579167">
        <ele>1560.0</ele>
        <time>2019-08-04T11:41:26.309Z</time>
      </trkpt>
      <trkpt lat="42.45069333" lon="1.45579167">
        <ele>1560.0</ele>
        <time>2019-08-04T11:41:27.302Z</time>
      </trkpt>
      <trkpt lat="42.45071167" lon="1.455755">
        <ele>1561.0</ele>
        <time>2019-08-04T11:41:28.307Z</time>
      </trkpt>
      <trkpt lat="42.45071167" lon="1.455755">
        <ele>1561.0</ele>
        <time>2019-08-04T11:41:29.314Z</time>
      </trkpt>
      <trkpt lat="42.45071833" lon="1.45572167">
        <ele>1562.0</ele>
        <time>2019-08-04T11:41:30.328Z</time>
      </trkpt>
      <trkpt lat="42.45071833" lon="1.45572167">
        <ele>1562.0</ele>
        <time>2019-08-04T11:41:31.334Z</time>
      </trkpt>
      <trkpt lat="42.45072333" lon="1.45569">
        <ele>1563.0</ele>
        <time>2019-08-04T11:41:32.326Z</time>
      </trkpt>
      <trkpt lat="42.45073167" lon="1.455665">
        <ele>1563.0</ele>
        <time>2019-08-04T11:41:33.310Z</time>
      </trkpt>
      <trkpt lat="42.45073167" lon="1.455665">
        <ele>1563.0</ele>
        <time>2019-08-04T11:41:34.305Z</time>
      </trkpt>
      <trkpt lat="42.45074667" lon="1.45561833">
        <ele>1564.0</ele>
        <time>2019-08-04T11:41:35.308Z</time>
      </trkpt>
      <trkpt lat="42.45074667" lon="1.45561833">
        <ele>1564.0</ele>
        <time>2019-08-04T11:41:36.305Z</time>
      </trkpt>
      <trkpt lat="42.45076167" lon="1.45555667">
        <ele>1565.0</ele>
        <time>2019-08-04T11:41:37.304Z</time>
      </trkpt>
      <trkpt lat="42.45077167" lon="1.45553">
        <ele>1566.0</ele>
        <time>2019-08-04T11:41:38.308Z</time>
      </trkpt>
      <trkpt lat="42.45077167" lon="1.45553">
        <ele>1566.0</ele>
        <time>2019-08-04T11:41:39.305Z</time>
      </trkpt>
      <trkpt lat="42.45079667" lon="1.45548833">
        <ele>1567.0</ele>
        <time>2019-08-04T11:41:40.331Z</time>
      </trkpt>
      <trkpt lat="42.45079667" lon="1.45548833">
        <ele>1567.0</ele>
        <time>2019-08-04T11:41:41.313Z</time>
      </trkpt>
      <trkpt lat="42.450815" lon="1.45544167">
        <ele>1568.0</ele>
        <time>2019-08-04T11:41:42.324Z</time>
      </trkpt>
      <trkpt lat="42.450815" lon="1.45544167">
        <ele>1568.0</ele>
        <time>2019-08-04T11:41:43.305Z</time>
      </trkpt>
      <trkpt lat="42.45084167" lon="1.455385">
        <ele>1569.0</ele>
        <time>2019-08-04T11:41:44.310Z</time>
      </trkpt>
      <trkpt lat="42.45084167" lon="1.455385">
        <ele>1569.0</ele>
        <time>2019-08-04T11:41:45.304Z</time>
      </trkpt>
      <trkpt lat="42.45085833" lon="1.45533833">
        <ele>1570.0</ele>
        <time>2019-08-04T11:41:46.308Z</time>
      </trkpt>
      <trkpt lat="42.45085833" lon="1.45533833">
        <ele>1570.0</ele>
        <time>2019-08-04T11:41:47.300Z</time>
      </trkpt>
      <trkpt lat="42.45087167" lon="1.455295">
        <ele>1571.0</ele>
        <time>2019-08-04T11:41:48.324Z</time>
      </trkpt>
      <trkpt lat="42.45088333" lon="1.45526667">
        <ele>1572.0</ele>
        <time>2019-08-04T11:41:49.308Z</time>
      </trkpt>
      <trkpt lat="42.45089333" lon="1.45524167">
        <ele>1572.0</ele>
        <time>2019-08-04T11:41:50.310Z</time>
      </trkpt>
      <trkpt lat="42.45089333" lon="1.45524167">
        <ele>1572.0</ele>
        <time>2019-08-04T11:41:51.305Z</time>
      </trkpt>
      <trkpt lat="42.450915" lon="1.45519833">
        <ele>1573.0</ele>
        <time>2019-08-04T11:41:52.323Z</time>
      </trkpt>
      <trkpt lat="42.450915" lon="1.45519833">
        <ele>1573.0</ele>
        <time>2019-08-04T11:41:53.304Z</time>
      </trkpt>
      <trkpt lat="42.45092333" lon="1.45515333">
        <ele>1574.0</ele>
        <time>2019-08-04T11:41:54.308Z</time>
      </trkpt>
      <trkpt lat="42.45092333" lon="1.45515333">
        <ele>1574.0</ele>
        <time>2019-08-04T11:41:55.306Z</time>
      </trkpt>
      <trkpt lat="42.45093333" lon="1.455115">
        <ele>1575.0</ele>
        <time>2019-08-04T11:41:56.310Z</time>
      </trkpt>
      <trkpt lat="42.45093333" lon="1.455115">
        <ele>1575.0</ele>
        <time>2019-08-04T11:41:57.305Z</time>
      </trkpt>
      <trkpt lat="42.450925" lon="1.45508667">
        <ele>1576.0</ele>
        <time>2019-08-04T11:41:58.309Z</time>
      </trkpt>
      <trkpt lat="42.450925" lon="1.45508667">
        <ele>1576.0</ele>
        <time>2019-08-04T11:41:59.304Z</time>
      </trkpt>
      <trkpt lat="42.45093667" lon="1.455045">
        <ele>1578.0</ele>
        <time>2019-08-04T11:42:00.307Z</time>
      </trkpt>
      <trkpt lat="42.45093667" lon="1.455045">
        <ele>1578.0</ele>
        <time>2019-08-04T11:42:01.298Z</time>
      </trkpt>
      <trkpt lat="42.45092833" lon="1.45501167">
        <ele>1579.0</ele>
        <time>2019-08-04T11:42:02.326Z</time>
      </trkpt>
      <trkpt lat="42.45092833" lon="1.45501167">
        <ele>1579.0</ele>
        <time>2019-08-04T11:42:03.307Z</time>
      </trkpt>
      <trkpt lat="42.45093" lon="1.45497167">
        <ele>1580.0</ele>
        <time>2019-08-04T11:42:04.307Z</time>
      </trkpt>
      <trkpt lat="42.45093" lon="1.45497167">
        <ele>1580.0</ele>
        <time>2019-08-04T11:42:05.305Z</time>
      </trkpt>
      <trkpt lat="42.450945" lon="1.454925">
        <ele>1581.0</ele>
        <time>2019-08-04T11:42:06.308Z</time>
      </trkpt>
      <trkpt lat="42.45095333" lon="1.45490333">
        <ele>1581.0</ele>
        <time>2019-08-04T11:42:07.313Z</time>
      </trkpt>
      <trkpt lat="42.45095333" lon="1.45490333">
        <ele>1581.0</ele>
        <time>2019-08-04T11:42:08.306Z</time>
      </trkpt>
      <trkpt lat="42.45098667" lon="1.45485333">
        <ele>1583.0</ele>
        <time>2019-08-04T11:42:09.308Z</time>
      </trkpt>
      <trkpt lat="42.45098667" lon="1.45485333">
        <ele>1583.0</ele>
        <time>2019-08-04T11:42:10.306Z</time>
      </trkpt>
      <trkpt lat="42.45101833" lon="1.45481">
        <ele>1584.0</ele>
        <time>2019-08-04T11:42:11.309Z</time>
      </trkpt>
      <trkpt lat="42.45102667" lon="1.45478667">
        <ele>1584.0</ele>
        <time>2019-08-04T11:42:12.324Z</time>
      </trkpt>
      <trkpt lat="42.45102667" lon="1.45478667">
        <ele>1584.0</ele>
        <time>2019-08-04T11:42:13.333Z</time>
      </trkpt>
      <trkpt lat="42.45104667" lon="1.454735">
        <ele>1585.0</ele>
        <time>2019-08-04T11:42:14.314Z</time>
      </trkpt>
      <trkpt lat="42.45104667" lon="1.454735">
        <ele>1585.0</ele>
        <time>2019-08-04T11:42:15.319Z</time>
      </trkpt>
      <trkpt lat="42.451055" lon="1.45468667">
        <ele>1586.0</ele>
        <time>2019-08-04T11:42:16.305Z</time>
      </trkpt>
      <trkpt lat="42.451055" lon="1.45468667">
        <ele>1586.0</ele>
        <time>2019-08-04T11:42:17.306Z</time>
      </trkpt>
      <trkpt lat="42.451045" lon="1.45465">
        <ele>1587.0</ele>
        <time>2019-08-04T11:42:18.308Z</time>
      </trkpt>
      <trkpt lat="42.451045" lon="1.45465">
        <ele>1587.0</ele>
        <time>2019-08-04T11:42:19.305Z</time>
      </trkpt>
      <trkpt lat="42.45106" lon="1.454615">
        <ele>1589.0</ele>
        <time>2019-08-04T11:42:20.310Z</time>
      </trkpt>
      <trkpt lat="42.45106" lon="1.454615">
        <ele>1589.0</ele>
        <time>2019-08-04T11:42:21.303Z</time>
      </trkpt>
      <trkpt lat="42.451075" lon="1.45458833">
        <ele>1590.0</ele>
        <time>2019-08-04T11:42:22.332Z</time>
      </trkpt>
      <trkpt lat="42.451075" lon="1.45458833">
        <ele>1590.0</ele>
        <time>2019-08-04T11:42:23.312Z</time>
      </trkpt>
      <trkpt lat="42.45109167" lon="1.45454667">
        <ele>1591.0</ele>
        <time>2019-08-04T11:42:24.308Z</time>
      </trkpt>
      <trkpt lat="42.45109167" lon="1.45453">
        <ele>1591.0</ele>
        <time>2019-08-04T11:42:25.307Z</time>
      </trkpt>
      <trkpt lat="42.45110333" lon="1.45451167">
        <ele>1592.0</ele>
        <time>2019-08-04T11:42:26.309Z</time>
      </trkpt>
      <trkpt lat="42.45110333" lon="1.45451167">
        <ele>1592.0</ele>
        <time>2019-08-04T11:42:27.305Z</time>
      </trkpt>
      <trkpt lat="42.451125" lon="1.45445667">
        <ele>1593.0</ele>
        <time>2019-08-04T11:42:28.310Z</time>
      </trkpt>
      <trkpt lat="42.451125" lon="1.45445667">
        <ele>1593.0</ele>
        <time>2019-08-04T11:42:29.299Z</time>
      </trkpt>
      <trkpt lat="42.45112833" lon="1.45439833">
        <ele>1593.0</ele>
        <time>2019-08-04T11:42:30.319Z</time>
      </trkpt>
      <trkpt lat="42.45113" lon="1.45437333">
        <ele>1594.0</ele>
        <time>2019-08-04T11:42:31.325Z</time>
      </trkpt>
      <trkpt lat="42.45113833" lon="1.45434667">
        <ele>1594.0</ele>
        <time>2019-08-04T11:42:32.332Z</time>
      </trkpt>
      <trkpt lat="42.45113833" lon="1.45434667">
        <ele>1594.0</ele>
        <time>2019-08-04T11:42:33.313Z</time>
      </trkpt>
      <trkpt lat="42.45114833" lon="1.454315">
        <ele>1595.0</ele>
        <time>2019-08-04T11:42:34.310Z</time>
      </trkpt>
      <trkpt lat="42.45114833" lon="1.454315">
        <ele>1595.0</ele>
        <time>2019-08-04T11:42:35.303Z</time>
      </trkpt>
      <trkpt lat="42.45114667" lon="1.45427167">
        <ele>1596.0</ele>
        <time>2019-08-04T11:42:36.325Z</time>
      </trkpt>
      <trkpt lat="42.45114667" lon="1.45427167">
        <ele>1596.0</ele>
        <time>2019-08-04T11:42:37.306Z</time>
      </trkpt>
      <trkpt lat="42.45116333" lon="1.45422333">
        <ele>1597.0</ele>
        <time>2019-08-04T11:42:38.310Z</time>
      </trkpt>
      <trkpt lat="42.45117167" lon="1.454205">
        <ele>1598.0</ele>
        <time>2019-08-04T11:42:39.311Z</time>
      </trkpt>
      <trkpt lat="42.45118333" lon="1.45418167">
        <ele>1598.0</ele>
        <time>2019-08-04T11:42:40.305Z</time>
      </trkpt>
      <trkpt lat="42.45118333" lon="1.45418167">
        <ele>1598.0</ele>
        <time>2019-08-04T11:42:41.309Z</time>
      </trkpt>
      <trkpt lat="42.451205" lon="1.45412667">
        <ele>1599.0</ele>
        <time>2019-08-04T11:42:42.296Z</time>
      </trkpt>
      <trkpt lat="42.45122333" lon="1.45410167">
        <ele>1600.0</ele>
        <time>2019-08-04T11:42:43.316Z</time>
      </trkpt>
      <trkpt lat="42.45123833" lon="1.45407667">
        <ele>1600.0</ele>
        <time>2019-08-04T11:42:44.311Z</time>
      </trkpt>
      <trkpt lat="42.45123833" lon="1.45407667">
        <ele>1600.0</ele>
        <time>2019-08-04T11:42:45.308Z</time>
      </trkpt>
      <trkpt lat="42.451255" lon="1.454025">
        <ele>1601.0</ele>
        <time>2019-08-04T11:42:46.307Z</time>
      </trkpt>
      <trkpt lat="42.451255" lon="1.454025">
        <ele>1601.0</ele>
        <time>2019-08-04T11:42:47.306Z</time>
      </trkpt>
      <trkpt lat="42.45127167" lon="1.45397833">
        <ele>1602.0</ele>
        <time>2019-08-04T11:42:48.308Z</time>
      </trkpt>
      <trkpt lat="42.45128167" lon="1.45396333">
        <ele>1603.0</ele>
        <time>2019-08-04T11:42:49.310Z</time>
      </trkpt>
      <trkpt lat="42.45128167" lon="1.45396333">
        <ele>1603.0</ele>
        <time>2019-08-04T11:42:50.306Z</time>
      </trkpt>
      <trkpt lat="42.45129667" lon="1.45391667">
        <ele>1604.0</ele>
        <time>2019-08-04T11:42:51.309Z</time>
      </trkpt>
      <trkpt lat="42.45129667" lon="1.45391667">
        <ele>1604.0</ele>
        <time>2019-08-04T11:42:52.319Z</time>
      </trkpt>
      <trkpt lat="42.45130667" lon="1.45386833">
        <ele>1605.0</ele>
        <time>2019-08-04T11:42:53.308Z</time>
      </trkpt>
      <trkpt lat="42.45130667" lon="1.45386833">
        <ele>1605.0</ele>
        <time>2019-08-04T11:42:54.306Z</time>
      </trkpt>
      <trkpt lat="42.45131167" lon="1.45382333">
        <ele>1605.0</ele>
        <time>2019-08-04T11:42:55.333Z</time>
      </trkpt>
      <trkpt lat="42.45131" lon="1.45380167">
        <ele>1606.0</ele>
        <time>2019-08-04T11:42:56.315Z</time>
      </trkpt>
      <trkpt lat="42.45131" lon="1.45380167">
        <ele>1606.0</ele>
        <time>2019-08-04T11:42:57.305Z</time>
      </trkpt>
      <trkpt lat="42.451305" lon="1.453765">
        <ele>1607.0</ele>
        <time>2019-08-04T11:42:58.305Z</time>
      </trkpt>
      <trkpt lat="42.451305" lon="1.453765">
        <ele>1607.0</ele>
        <time>2019-08-04T11:42:59.305Z</time>
      </trkpt>
      <trkpt lat="42.45130833" lon="1.45373">
        <ele>1608.0</ele>
        <time>2019-08-04T11:43:00.332Z</time>
      </trkpt>
      <trkpt lat="42.45131167" lon="1.45370667">
        <ele>1608.0</ele>
        <time>2019-08-04T11:43:01.319Z</time>
      </trkpt>
      <trkpt lat="42.45131333" lon="1.453685">
        <ele>1608.0</ele>
        <time>2019-08-04T11:43:02.332Z</time>
      </trkpt>
      <trkpt lat="42.45131333" lon="1.453685">
        <ele>1608.0</ele>
        <time>2019-08-04T11:43:03.313Z</time>
      </trkpt>
      <trkpt lat="42.45132667" lon="1.45363833">
        <ele>1609.0</ele>
        <time>2019-08-04T11:43:04.308Z</time>
      </trkpt>
      <trkpt lat="42.45132667" lon="1.45363833">
        <ele>1609.0</ele>
        <time>2019-08-04T11:43:05.303Z</time>
      </trkpt>
      <trkpt lat="42.45134667" lon="1.45359667">
        <ele>1610.0</ele>
        <time>2019-08-04T11:43:06.310Z</time>
      </trkpt>
      <trkpt lat="42.45135333" lon="1.45357667">
        <ele>1611.0</ele>
        <time>2019-08-04T11:43:07.308Z</time>
      </trkpt>
      <trkpt lat="42.45136333" lon="1.45356667">
        <ele>1611.0</ele>
        <time>2019-08-04T11:43:08.308Z</time>
      </trkpt>
      <trkpt lat="42.45136333" lon="1.45356667">
        <ele>1611.0</ele>
        <time>2019-08-04T11:43:09.302Z</time>
      </trkpt>
      <trkpt lat="42.45138833" lon="1.45351833">
        <ele>1612.0</ele>
        <time>2019-08-04T11:43:10.324Z</time>
      </trkpt>
      <trkpt lat="42.45138833" lon="1.45351833">
        <ele>1612.0</ele>
        <time>2019-08-04T11:43:11.311Z</time>
      </trkpt>
      <trkpt lat="42.45140833" lon="1.453455">
        <ele>1612.0</ele>
        <time>2019-08-04T11:43:12.332Z</time>
      </trkpt>
      <trkpt lat="42.45140833" lon="1.453455">
        <ele>1612.0</ele>
        <time>2019-08-04T11:43:13.312Z</time>
      </trkpt>
      <trkpt lat="42.451435" lon="1.4534">
        <ele>1613.0</ele>
        <time>2019-08-04T11:43:14.310Z</time>
      </trkpt>
      <trkpt lat="42.451435" lon="1.4534">
        <ele>1613.0</ele>
        <time>2019-08-04T11:43:15.305Z</time>
      </trkpt>
      <trkpt lat="42.45145667" lon="1.45335">
        <ele>1614.0</ele>
        <time>2019-08-04T11:43:16.308Z</time>
      </trkpt>
      <trkpt lat="42.45145667" lon="1.45335">
        <ele>1614.0</ele>
        <time>2019-08-04T11:43:17.305Z</time>
      </trkpt>
      <trkpt lat="42.45144833" lon="1.45331">
        <ele>1615.0</ele>
        <time>2019-08-04T11:43:18.304Z</time>
      </trkpt>
      <trkpt lat="42.45144833" lon="1.45331">
        <ele>1615.0</ele>
        <time>2019-08-04T11:43:19.303Z</time>
      </trkpt>
      <trkpt lat="42.45145" lon="1.45327333">
        <ele>1615.0</ele>
        <time>2019-08-04T11:43:20.318Z</time>
      </trkpt>
      <trkpt lat="42.45145" lon="1.45327333">
        <ele>1615.0</ele>
        <time>2019-08-04T11:43:21.306Z</time>
      </trkpt>
      <trkpt lat="42.451445" lon="1.45322167">
        <ele>1616.0</ele>
        <time>2019-08-04T11:43:22.330Z</time>
      </trkpt>
      <trkpt lat="42.451445" lon="1.45322167">
        <ele>1616.0</ele>
        <time>2019-08-04T11:43:23.315Z</time>
      </trkpt>
      <trkpt lat="42.45145833" lon="1.45318">
        <ele>1617.0</ele>
        <time>2019-08-04T11:43:24.310Z</time>
      </trkpt>
      <trkpt lat="42.45145833" lon="1.45318">
        <ele>1617.0</ele>
        <time>2019-08-04T11:43:25.306Z</time>
      </trkpt>
      <trkpt lat="42.45147" lon="1.45313667">
        <ele>1618.0</ele>
        <time>2019-08-04T11:43:26.311Z</time>
      </trkpt>
      <trkpt lat="42.45147667" lon="1.45311833">
        <ele>1618.0</ele>
        <time>2019-08-04T11:43:27.310Z</time>
      </trkpt>
      <trkpt lat="42.45147667" lon="1.45311833">
        <ele>1618.0</ele>
        <time>2019-08-04T11:43:28.305Z</time>
      </trkpt>
      <trkpt lat="42.45150167" lon="1.45307167">
        <ele>1619.0</ele>
        <time>2019-08-04T11:43:29.311Z</time>
      </trkpt>
      <trkpt lat="42.45150333" lon="1.45304833">
        <ele>1619.0</ele>
        <time>2019-08-04T11:43:30.321Z</time>
      </trkpt>
      <trkpt lat="42.45151167" lon="1.45302667">
        <ele>1619.0</ele>
        <time>2019-08-04T11:43:31.332Z</time>
      </trkpt>
      <trkpt lat="42.45151167" lon="1.45302667">
        <ele>1619.0</ele>
        <time>2019-08-04T11:43:32.315Z</time>
      </trkpt>
      <trkpt lat="42.45152" lon="1.45299">
        <ele>1620.0</ele>
        <time>2019-08-04T11:43:33.308Z</time>
      </trkpt>
      <trkpt lat="42.45152" lon="1.45299">
        <ele>1620.0</ele>
        <time>2019-08-04T11:43:34.306Z</time>
      </trkpt>
      <trkpt lat="42.45152167" lon="1.45294667">
        <ele>1621.0</ele>
        <time>2019-08-04T11:43:35.308Z</time>
      </trkpt>
      <trkpt lat="42.45152167" lon="1.45294667">
        <ele>1621.0</ele>
        <time>2019-08-04T11:43:36.302Z</time>
      </trkpt>
      <trkpt lat="42.45151667" lon="1.45291333">
        <ele>1621.0</ele>
        <time>2019-08-04T11:43:37.324Z</time>
      </trkpt>
      <trkpt lat="42.45152" lon="1.45289667">
        <ele>1622.0</ele>
        <time>2019-08-04T11:43:38.311Z</time>
      </trkpt>
      <trkpt lat="42.45152" lon="1.45289667">
        <ele>1622.0</ele>
        <time>2019-08-04T11:43:39.306Z</time>
      </trkpt>
      <trkpt lat="42.451525" lon="1.45286667">
        <ele>1622.0</ele>
        <time>2019-08-04T11:43:40.319Z</time>
      </trkpt>
      <trkpt lat="42.45152667" lon="1.452845">
        <ele>1623.0</ele>
        <time>2019-08-04T11:43:41.311Z</time>
      </trkpt>
      <trkpt lat="42.45152667" lon="1.452845">
        <ele>1623.0</ele>
        <time>2019-08-04T11:43:42.299Z</time>
      </trkpt>
      <trkpt lat="42.45154" lon="1.45280333">
        <ele>1623.0</ele>
        <time>2019-08-04T11:43:43.324Z</time>
      </trkpt>
      <trkpt lat="42.45155" lon="1.45279">
        <ele>1624.0</ele>
        <time>2019-08-04T11:43:44.310Z</time>
      </trkpt>
      <trkpt lat="42.45155" lon="1.45279">
        <ele>1624.0</ele>
        <time>2019-08-04T11:43:45.305Z</time>
      </trkpt>
      <trkpt lat="42.45157" lon="1.45273833">
        <ele>1624.0</ele>
        <time>2019-08-04T11:43:46.308Z</time>
      </trkpt>
      <trkpt lat="42.45157" lon="1.45273833">
        <ele>1624.0</ele>
        <time>2019-08-04T11:43:47.306Z</time>
      </trkpt>
      <trkpt lat="42.45158667" lon="1.45269167">
        <ele>1625.0</ele>
        <time>2019-08-04T11:43:48.308Z</time>
      </trkpt>
      <trkpt lat="42.45159333" lon="1.45266167">
        <ele>1625.0</ele>
        <time>2019-08-04T11:43:49.310Z</time>
      </trkpt>
      <trkpt lat="42.45159333" lon="1.45263333">
        <ele>1625.0</ele>
        <time>2019-08-04T11:43:50.311Z</time>
      </trkpt>
      <trkpt lat="42.45159833" lon="1.45260333">
        <ele>1625.0</ele>
        <time>2019-08-04T11:43:51.310Z</time>
      </trkpt>
      <trkpt lat="42.45159833" lon="1.45260333">
        <ele>1625.0</ele>
        <time>2019-08-04T11:43:52.308Z</time>
      </trkpt>
      <trkpt lat="42.45160667" lon="1.45254167">
        <ele>1625.0</ele>
        <time>2019-08-04T11:43:53.308Z</time>
      </trkpt>
      <trkpt lat="42.45160667" lon="1.45254167">
        <ele>1625.0</ele>
        <time>2019-08-04T11:43:54.304Z</time>
      </trkpt>
      <trkpt lat="42.45161167" lon="1.45246333">
        <ele>1624.0</ele>
        <time>2019-08-04T11:43:55.314Z</time>
      </trkpt>
      <trkpt lat="42.45162" lon="1.45243167">
        <ele>1624.0</ele>
        <time>2019-08-04T11:43:56.312Z</time>
      </trkpt>
      <trkpt lat="42.45162" lon="1.45243167">
        <ele>1624.0</ele>
        <time>2019-08-04T11:43:57.306Z</time>
      </trkpt>
      <trkpt lat="42.45163167" lon="1.45239167">
        <ele>1624.0</ele>
        <time>2019-08-04T11:43:58.306Z</time>
      </trkpt>
      <trkpt lat="42.45163167" lon="1.45239167">
        <ele>1624.0</ele>
        <time>2019-08-04T11:43:59.306Z</time>
      </trkpt>
      <trkpt lat="42.451635" lon="1.45235">
        <ele>1624.0</ele>
        <time>2019-08-04T11:44:00.316Z</time>
      </trkpt>
      <trkpt lat="42.451635" lon="1.45235">
        <ele>1624.0</ele>
        <time>2019-08-04T11:44:01.303Z</time>
      </trkpt>
      <trkpt lat="42.45165333" lon="1.452295">
        <ele>1624.0</ele>
        <time>2019-08-04T11:44:02.333Z</time>
      </trkpt>
      <trkpt lat="42.45165333" lon="1.452295">
        <ele>1624.0</ele>
        <time>2019-08-04T11:44:03.332Z</time>
      </trkpt>
      <trkpt lat="42.45167" lon="1.45224">
        <ele>1623.0</ele>
        <time>2019-08-04T11:44:04.313Z</time>
      </trkpt>
      <trkpt lat="42.45167" lon="1.45224">
        <ele>1623.0</ele>
        <time>2019-08-04T11:44:05.298Z</time>
      </trkpt>
      <trkpt lat="42.45168333" lon="1.452195">
        <ele>1623.0</ele>
        <time>2019-08-04T11:44:06.319Z</time>
      </trkpt>
      <trkpt lat="42.45168333" lon="1.452195">
        <ele>1623.0</ele>
        <time>2019-08-04T11:44:07.306Z</time>
      </trkpt>
      <trkpt lat="42.451685" lon="1.45215167">
        <ele>1623.0</ele>
        <time>2019-08-04T11:44:08.309Z</time>
      </trkpt>
      <trkpt lat="42.451685" lon="1.45215167">
        <ele>1623.0</ele>
        <time>2019-08-04T11:44:09.306Z</time>
      </trkpt>
      <trkpt lat="42.45167833" lon="1.452095">
        <ele>1623.0</ele>
        <time>2019-08-04T11:44:10.332Z</time>
      </trkpt>
      <trkpt lat="42.45166833" lon="1.45207667">
        <ele>1623.0</ele>
        <time>2019-08-04T11:44:11.313Z</time>
      </trkpt>
      <trkpt lat="42.45166833" lon="1.45207667">
        <ele>1623.0</ele>
        <time>2019-08-04T11:44:12.325Z</time>
      </trkpt>
      <trkpt lat="42.45166833" lon="1.452035">
        <ele>1623.0</ele>
        <time>2019-08-04T11:44:13.306Z</time>
      </trkpt>
      <trkpt lat="42.45166167" lon="1.45202">
        <ele>1623.0</ele>
        <time>2019-08-04T11:44:14.307Z</time>
      </trkpt>
      <trkpt lat="42.45166167" lon="1.45202">
        <ele>1623.0</ele>
        <time>2019-08-04T11:44:15.306Z</time>
      </trkpt>
      <trkpt lat="42.45165833" lon="1.451975">
        <ele>1624.0</ele>
        <time>2019-08-04T11:44:16.309Z</time>
      </trkpt>
      <trkpt lat="42.45165833" lon="1.451975">
        <ele>1624.0</ele>
        <time>2019-08-04T11:44:17.306Z</time>
      </trkpt>
      <trkpt lat="42.45167" lon="1.451935">
        <ele>1624.0</ele>
        <time>2019-08-04T11:44:18.308Z</time>
      </trkpt>
      <trkpt lat="42.45167" lon="1.451935">
        <ele>1624.0</ele>
        <time>2019-08-04T11:44:19.306Z</time>
      </trkpt>
      <trkpt lat="42.45166167" lon="1.45188833">
        <ele>1624.0</ele>
        <time>2019-08-04T11:44:20.328Z</time>
      </trkpt>
      <trkpt lat="42.45166167" lon="1.45188833">
        <ele>1624.0</ele>
        <time>2019-08-04T11:44:21.308Z</time>
      </trkpt>
      <trkpt lat="42.45165333" lon="1.45183833">
        <ele>1624.0</ele>
        <time>2019-08-04T11:44:22.324Z</time>
      </trkpt>
      <trkpt lat="42.45165333" lon="1.45183833">
        <ele>1624.0</ele>
        <time>2019-08-04T11:44:23.305Z</time>
      </trkpt>
      <trkpt lat="42.45162333" lon="1.45179333">
        <ele>1624.0</ele>
        <time>2019-08-04T11:44:24.308Z</time>
      </trkpt>
      <trkpt lat="42.45162333" lon="1.45179333">
        <ele>1624.0</ele>
        <time>2019-08-04T11:44:25.306Z</time>
      </trkpt>
      <trkpt lat="42.45160833" lon="1.45174833">
        <ele>1623.0</ele>
        <time>2019-08-04T11:44:26.306Z</time>
      </trkpt>
      <trkpt lat="42.45160833" lon="1.45174833">
        <ele>1623.0</ele>
        <time>2019-08-04T11:44:27.304Z</time>
      </trkpt>
      <trkpt lat="42.45160833" lon="1.45171">
        <ele>1623.0</ele>
        <time>2019-08-04T11:44:28.306Z</time>
      </trkpt>
      <trkpt lat="42.45160833" lon="1.45171">
        <ele>1623.0</ele>
        <time>2019-08-04T11:44:29.320Z</time>
      </trkpt>
      <trkpt lat="42.45161" lon="1.45166167">
        <ele>1623.0</ele>
        <time>2019-08-04T11:44:30.332Z</time>
      </trkpt>
      <trkpt lat="42.45161" lon="1.45166167">
        <ele>1623.0</ele>
        <time>2019-08-04T11:44:31.298Z</time>
      </trkpt>
      <trkpt lat="42.45161667" lon="1.45162167">
        <ele>1623.0</ele>
        <time>2019-08-04T11:44:32.324Z</time>
      </trkpt>
      <trkpt lat="42.45161667" lon="1.45162167">
        <ele>1623.0</ele>
        <time>2019-08-04T11:44:33.307Z</time>
      </trkpt>
      <trkpt lat="42.451615" lon="1.45158167">
        <ele>1624.0</ele>
        <time>2019-08-04T11:44:34.308Z</time>
      </trkpt>
      <trkpt lat="42.451615" lon="1.45158167">
        <ele>1624.0</ele>
        <time>2019-08-04T11:44:35.307Z</time>
      </trkpt>
      <trkpt lat="42.45161" lon="1.451545">
        <ele>1624.0</ele>
        <time>2019-08-04T11:44:36.306Z</time>
      </trkpt>
      <trkpt lat="42.45161" lon="1.451545">
        <ele>1624.0</ele>
        <time>2019-08-04T11:44:37.303Z</time>
      </trkpt>
      <trkpt lat="42.45160333" lon="1.451505">
        <ele>1624.0</ele>
        <time>2019-08-04T11:44:38.324Z</time>
      </trkpt>
      <trkpt lat="42.45160333" lon="1.451505">
        <ele>1624.0</ele>
        <time>2019-08-04T11:44:39.307Z</time>
      </trkpt>
      <trkpt lat="42.45158833" lon="1.45145333">
        <ele>1624.0</ele>
        <time>2019-08-04T11:44:40.310Z</time>
      </trkpt>
      <trkpt lat="42.45158833" lon="1.45145333">
        <ele>1624.0</ele>
        <time>2019-08-04T11:44:41.303Z</time>
      </trkpt>
      <trkpt lat="42.45159" lon="1.4514">
        <ele>1623.0</ele>
        <time>2019-08-04T11:44:42.324Z</time>
      </trkpt>
      <trkpt lat="42.45159" lon="1.4514">
        <ele>1623.0</ele>
        <time>2019-08-04T11:44:43.306Z</time>
      </trkpt>
      <trkpt lat="42.45157333" lon="1.45135333">
        <ele>1623.0</ele>
        <time>2019-08-04T11:44:44.312Z</time>
      </trkpt>
      <trkpt lat="42.451575" lon="1.45132667">
        <ele>1623.0</ele>
        <time>2019-08-04T11:44:45.333Z</time>
      </trkpt>
      <trkpt lat="42.451575" lon="1.45132667">
        <ele>1623.0</ele>
        <time>2019-08-04T11:44:46.316Z</time>
      </trkpt>
      <trkpt lat="42.45157167" lon="1.45128167">
        <ele>1622.0</ele>
        <time>2019-08-04T11:44:47.310Z</time>
      </trkpt>
      <trkpt lat="42.45155333" lon="1.45126167">
        <ele>1622.0</ele>
        <time>2019-08-04T11:44:48.311Z</time>
      </trkpt>
      <trkpt lat="42.45155333" lon="1.45126167">
        <ele>1622.0</ele>
        <time>2019-08-04T11:44:49.306Z</time>
      </trkpt>
      <trkpt lat="42.45154333" lon="1.45121667">
        <ele>1622.0</ele>
        <time>2019-08-04T11:44:50.311Z</time>
      </trkpt>
      <trkpt lat="42.45154333" lon="1.45121667">
        <ele>1622.0</ele>
        <time>2019-08-04T11:44:51.305Z</time>
      </trkpt>
      <trkpt lat="42.45153833" lon="1.45115667">
        <ele>1622.0</ele>
        <time>2019-08-04T11:44:52.323Z</time>
      </trkpt>
      <trkpt lat="42.45153833" lon="1.45115667">
        <ele>1622.0</ele>
        <time>2019-08-04T11:44:53.307Z</time>
      </trkpt>
      <trkpt lat="42.45155167" lon="1.45110167">
        <ele>1622.0</ele>
        <time>2019-08-04T11:44:54.310Z</time>
      </trkpt>
      <trkpt lat="42.45155167" lon="1.45110167">
        <ele>1622.0</ele>
        <time>2019-08-04T11:44:55.306Z</time>
      </trkpt>
      <trkpt lat="42.451545" lon="1.45105">
        <ele>1622.0</ele>
        <time>2019-08-04T11:44:56.311Z</time>
      </trkpt>
      <trkpt lat="42.451545" lon="1.45105">
        <ele>1622.0</ele>
        <time>2019-08-04T11:44:57.306Z</time>
      </trkpt>
      <trkpt lat="42.45154" lon="1.45100167">
        <ele>1622.0</ele>
        <time>2019-08-04T11:44:58.310Z</time>
      </trkpt>
      <trkpt lat="42.45154" lon="1.45100167">
        <ele>1622.0</ele>
        <time>2019-08-04T11:44:59.303Z</time>
      </trkpt>
      <trkpt lat="42.45152667" lon="1.45096167">
        <ele>1622.0</ele>
        <time>2019-08-04T11:45:00.325Z</time>
      </trkpt>
      <trkpt lat="42.45152167" lon="1.45093667">
        <ele>1622.0</ele>
        <time>2019-08-04T11:45:01.318Z</time>
      </trkpt>
      <trkpt lat="42.45152167" lon="1.45093667">
        <ele>1622.0</ele>
        <time>2019-08-04T11:45:02.327Z</time>
      </trkpt>
      <trkpt lat="42.45152167" lon="1.45089">
        <ele>1621.0</ele>
        <time>2019-08-04T11:45:03.310Z</time>
      </trkpt>
      <trkpt lat="42.45152167" lon="1.45089">
        <ele>1621.0</ele>
        <time>2019-08-04T11:45:04.306Z</time>
      </trkpt>
      <trkpt lat="42.45151" lon="1.45084">
        <ele>1621.0</ele>
        <time>2019-08-04T11:45:05.313Z</time>
      </trkpt>
      <trkpt lat="42.45150167" lon="1.45081833">
        <ele>1621.0</ele>
        <time>2019-08-04T11:45:06.310Z</time>
      </trkpt>
      <trkpt lat="42.45150167" lon="1.45081833">
        <ele>1621.0</ele>
        <time>2019-08-04T11:45:07.306Z</time>
      </trkpt>
      <trkpt lat="42.45149667" lon="1.45077667">
        <ele>1621.0</ele>
        <time>2019-08-04T11:45:08.307Z</time>
      </trkpt>
      <trkpt lat="42.45149667" lon="1.45077667">
        <ele>1621.0</ele>
        <time>2019-08-04T11:45:09.306Z</time>
      </trkpt>
      <trkpt lat="42.4515" lon="1.45073167">
        <ele>1621.0</ele>
        <time>2019-08-04T11:45:10.310Z</time>
      </trkpt>
      <trkpt lat="42.4515" lon="1.45073167">
        <ele>1621.0</ele>
        <time>2019-08-04T11:45:11.306Z</time>
      </trkpt>
      <trkpt lat="42.45147333" lon="1.450695">
        <ele>1621.0</ele>
        <time>2019-08-04T11:45:12.328Z</time>
      </trkpt>
      <trkpt lat="42.45147333" lon="1.450695">
        <ele>1621.0</ele>
        <time>2019-08-04T11:45:13.303Z</time>
      </trkpt>
      <trkpt lat="42.45145" lon="1.45065667">
        <ele>1621.0</ele>
        <time>2019-08-04T11:45:14.325Z</time>
      </trkpt>
      <trkpt lat="42.45145" lon="1.45065667">
        <ele>1621.0</ele>
        <time>2019-08-04T11:45:15.307Z</time>
      </trkpt>
      <trkpt lat="42.45145333" lon="1.45061167">
        <ele>1621.0</ele>
        <time>2019-08-04T11:45:16.308Z</time>
      </trkpt>
      <trkpt lat="42.45145167" lon="1.45059">
        <ele>1621.0</ele>
        <time>2019-08-04T11:45:17.310Z</time>
      </trkpt>
      <trkpt lat="42.45145167" lon="1.45059">
        <ele>1621.0</ele>
        <time>2019-08-04T11:45:18.306Z</time>
      </trkpt>
      <trkpt lat="42.45143667" lon="1.45055">
        <ele>1621.0</ele>
        <time>2019-08-04T11:45:19.310Z</time>
      </trkpt>
      <trkpt lat="42.45143667" lon="1.45055">
        <ele>1621.0</ele>
        <time>2019-08-04T11:45:20.307Z</time>
      </trkpt>
      <trkpt lat="42.45143333" lon="1.45050833">
        <ele>1622.0</ele>
        <time>2019-08-04T11:45:21.334Z</time>
      </trkpt>
      <trkpt lat="42.45143333" lon="1.45050833">
        <ele>1622.0</ele>
        <time>2019-08-04T11:45:22.299Z</time>
      </trkpt>
      <trkpt lat="42.45142333" lon="1.45047">
        <ele>1622.0</ele>
        <time>2019-08-04T11:45:23.305Z</time>
      </trkpt>
      <trkpt lat="42.45142167" lon="1.45045167">
        <ele>1622.0</ele>
        <time>2019-08-04T11:45:24.311Z</time>
      </trkpt>
      <trkpt lat="42.45141833" lon="1.450435">
        <ele>1622.0</ele>
        <time>2019-08-04T11:45:25.303Z</time>
      </trkpt>
      <trkpt lat="42.45141833" lon="1.450435">
        <ele>1622.0</ele>
        <time>2019-08-04T11:45:26.324Z</time>
      </trkpt>
      <trkpt lat="42.45140833" lon="1.45040333">
        <ele>1623.0</ele>
        <time>2019-08-04T11:45:27.310Z</time>
      </trkpt>
      <trkpt lat="42.451405" lon="1.45038333">
        <ele>1623.0</ele>
        <time>2019-08-04T11:45:28.310Z</time>
      </trkpt>
      <trkpt lat="42.451405" lon="1.45038333">
        <ele>1623.0</ele>
        <time>2019-08-04T11:45:29.321Z</time>
      </trkpt>
      <trkpt lat="42.45139667" lon="1.45034667">
        <ele>1624.0</ele>
        <time>2019-08-04T11:45:30.320Z</time>
      </trkpt>
      <trkpt lat="42.45139667" lon="1.45034667">
        <ele>1624.0</ele>
        <time>2019-08-04T11:45:31.326Z</time>
      </trkpt>
      <trkpt lat="42.45139833" lon="1.450305">
        <ele>1624.0</ele>
        <time>2019-08-04T11:45:32.330Z</time>
      </trkpt>
      <trkpt lat="42.45139833" lon="1.450305">
        <ele>1624.0</ele>
        <time>2019-08-04T11:45:33.319Z</time>
      </trkpt>
      <trkpt lat="42.451405" lon="1.45026167">
        <ele>1624.0</ele>
        <time>2019-08-04T11:45:34.306Z</time>
      </trkpt>
      <trkpt lat="42.451405" lon="1.45026167">
        <ele>1624.0</ele>
        <time>2019-08-04T11:45:35.306Z</time>
      </trkpt>
      <trkpt lat="42.45140667" lon="1.45020833">
        <ele>1625.0</ele>
        <time>2019-08-04T11:45:36.310Z</time>
      </trkpt>
      <trkpt lat="42.45140667" lon="1.45020833">
        <ele>1625.0</ele>
        <time>2019-08-04T11:45:37.306Z</time>
      </trkpt>
      <trkpt lat="42.45141" lon="1.45015833">
        <ele>1625.0</ele>
        <time>2019-08-04T11:45:38.313Z</time>
      </trkpt>
      <trkpt lat="42.45141" lon="1.45015833">
        <ele>1625.0</ele>
        <time>2019-08-04T11:45:39.306Z</time>
      </trkpt>
      <trkpt lat="42.45140667" lon="1.45010833">
        <ele>1625.0</ele>
        <time>2019-08-04T11:45:40.310Z</time>
      </trkpt>
      <trkpt lat="42.45140667" lon="1.45010833">
        <ele>1625.0</ele>
        <time>2019-08-04T11:45:41.306Z</time>
      </trkpt>
      <trkpt lat="42.45140167" lon="1.45005833">
        <ele>1626.0</ele>
        <time>2019-08-04T11:45:42.335Z</time>
      </trkpt>
      <trkpt lat="42.45140167" lon="1.45005833">
        <ele>1626.0</ele>
        <time>2019-08-04T11:45:43.308Z</time>
      </trkpt>
      <trkpt lat="42.45140333" lon="1.45001167">
        <ele>1626.0</ele>
        <time>2019-08-04T11:45:44.310Z</time>
      </trkpt>
      <trkpt lat="42.45140333" lon="1.45001167">
        <ele>1626.0</ele>
        <time>2019-08-04T11:45:45.306Z</time>
      </trkpt>
      <trkpt lat="42.45141167" lon="1.44996167">
        <ele>1627.0</ele>
        <time>2019-08-04T11:45:46.306Z</time>
      </trkpt>
      <trkpt lat="42.45141167" lon="1.44996167">
        <ele>1627.0</ele>
        <time>2019-08-04T11:45:47.304Z</time>
      </trkpt>
      <trkpt lat="42.45141833" lon="1.44991333">
        <ele>1627.0</ele>
        <time>2019-08-04T11:45:48.326Z</time>
      </trkpt>
      <trkpt lat="42.45141833" lon="1.44991333">
        <ele>1627.0</ele>
        <time>2019-08-04T11:45:49.307Z</time>
      </trkpt>
      <trkpt lat="42.45144" lon="1.44987">
        <ele>1627.0</ele>
        <time>2019-08-04T11:45:50.308Z</time>
      </trkpt>
      <trkpt lat="42.45144" lon="1.44987">
        <ele>1627.0</ele>
        <time>2019-08-04T11:45:51.303Z</time>
      </trkpt>
      <trkpt lat="42.45147" lon="1.44984">
        <ele>1628.0</ele>
        <time>2019-08-04T11:45:52.336Z</time>
      </trkpt>
      <trkpt lat="42.45149333" lon="1.44983167">
        <ele>1628.0</ele>
        <time>2019-08-04T11:45:53.326Z</time>
      </trkpt>
      <trkpt lat="42.45149333" lon="1.44983167">
        <ele>1628.0</ele>
        <time>2019-08-04T11:45:54.307Z</time>
      </trkpt>
      <trkpt lat="42.45153167" lon="1.44983667">
        <ele>1629.0</ele>
        <time>2019-08-04T11:45:55.314Z</time>
      </trkpt>
      <trkpt lat="42.45155167" lon="1.44985">
        <ele>1629.0</ele>
        <time>2019-08-04T11:45:56.310Z</time>
      </trkpt>
      <trkpt lat="42.45155167" lon="1.44985">
        <ele>1629.0</ele>
        <time>2019-08-04T11:45:57.307Z</time>
      </trkpt>
      <trkpt lat="42.45160333" lon="1.44988833">
        <ele>1630.0</ele>
        <time>2019-08-04T11:45:58.310Z</time>
      </trkpt>
      <trkpt lat="42.45162167" lon="1.44991">
        <ele>1631.0</ele>
        <time>2019-08-04T11:45:59.335Z</time>
      </trkpt>
      <trkpt lat="42.45162167" lon="1.44991">
        <ele>1631.0</ele>
        <time>2019-08-04T11:46:00.315Z</time>
      </trkpt>
      <trkpt lat="42.45165333" lon="1.449955">
        <ele>1632.0</ele>
        <time>2019-08-04T11:46:01.310Z</time>
      </trkpt>
      <trkpt lat="42.45166167" lon="1.44998">
        <ele>1632.0</ele>
        <time>2019-08-04T11:46:02.333Z</time>
      </trkpt>
      <trkpt lat="42.45166167" lon="1.44998">
        <ele>1632.0</ele>
        <time>2019-08-04T11:46:03.317Z</time>
      </trkpt>
      <trkpt lat="42.45168" lon="1.45003167">
        <ele>1632.0</ele>
        <time>2019-08-04T11:46:04.307Z</time>
      </trkpt>
      <trkpt lat="42.45168" lon="1.45003167">
        <ele>1632.0</ele>
        <time>2019-08-04T11:46:05.307Z</time>
      </trkpt>
      <trkpt lat="42.45170333" lon="1.45007833">
        <ele>1633.0</ele>
        <time>2019-08-04T11:46:06.310Z</time>
      </trkpt>
      <trkpt lat="42.45170333" lon="1.45007833">
        <ele>1633.0</ele>
        <time>2019-08-04T11:46:07.305Z</time>
      </trkpt>
      <trkpt lat="42.45172" lon="1.45012833">
        <ele>1633.0</ele>
        <time>2019-08-04T11:46:08.312Z</time>
      </trkpt>
      <trkpt lat="42.45172" lon="1.45012833">
        <ele>1633.0</ele>
        <time>2019-08-04T11:46:09.306Z</time>
      </trkpt>
      <trkpt lat="42.45174333" lon="1.45017">
        <ele>1634.0</ele>
        <time>2019-08-04T11:46:10.325Z</time>
      </trkpt>
      <trkpt lat="42.45174333" lon="1.45017">
        <ele>1634.0</ele>
        <time>2019-08-04T11:46:11.307Z</time>
      </trkpt>
      <trkpt lat="42.45177333" lon="1.45021167">
        <ele>1635.0</ele>
        <time>2019-08-04T11:46:12.326Z</time>
      </trkpt>
      <trkpt lat="42.45178833" lon="1.45023333">
        <ele>1635.0</ele>
        <time>2019-08-04T11:46:13.325Z</time>
      </trkpt>
      <trkpt lat="42.45178833" lon="1.45023333">
        <ele>1635.0</ele>
        <time>2019-08-04T11:46:14.307Z</time>
      </trkpt>
      <trkpt lat="42.451815" lon="1.45027333">
        <ele>1635.0</ele>
        <time>2019-08-04T11:46:15.310Z</time>
      </trkpt>
      <trkpt lat="42.45182333" lon="1.45029333">
        <ele>1636.0</ele>
        <time>2019-08-04T11:46:16.311Z</time>
      </trkpt>
      <trkpt lat="42.45182333" lon="1.45029333">
        <ele>1636.0</ele>
        <time>2019-08-04T11:46:17.315Z</time>
      </trkpt>
      <trkpt lat="42.45185167" lon="1.45033167">
        <ele>1636.0</ele>
        <time>2019-08-04T11:46:18.311Z</time>
      </trkpt>
      <trkpt lat="42.45185167" lon="1.45033167">
        <ele>1636.0</ele>
        <time>2019-08-04T11:46:19.306Z</time>
      </trkpt>
      <trkpt lat="42.451875" lon="1.450375">
        <ele>1637.0</ele>
        <time>2019-08-04T11:46:20.310Z</time>
      </trkpt>
      <trkpt lat="42.451875" lon="1.450375">
        <ele>1637.0</ele>
        <time>2019-08-04T11:46:21.306Z</time>
      </trkpt>
      <trkpt lat="42.45190833" lon="1.45040833">
        <ele>1637.0</ele>
        <time>2019-08-04T11:46:22.335Z</time>
      </trkpt>
      <trkpt lat="42.45190833" lon="1.45040833">
        <ele>1637.0</ele>
        <time>2019-08-04T11:46:23.301Z</time>
      </trkpt>
      <trkpt lat="42.45194" lon="1.45044167">
        <ele>1638.0</ele>
        <time>2019-08-04T11:46:24.325Z</time>
      </trkpt>
      <trkpt lat="42.45194" lon="1.45044167">
        <ele>1638.0</ele>
        <time>2019-08-04T11:46:25.307Z</time>
      </trkpt>
      <trkpt lat="42.45197333" lon="1.450475">
        <ele>1639.0</ele>
        <time>2019-08-04T11:46:26.312Z</time>
      </trkpt>
      <trkpt lat="42.45197333" lon="1.450475">
        <ele>1639.0</ele>
        <time>2019-08-04T11:46:27.306Z</time>
      </trkpt>
      <trkpt lat="42.45199667" lon="1.45051833">
        <ele>1640.0</ele>
        <time>2019-08-04T11:46:28.310Z</time>
      </trkpt>
      <trkpt lat="42.45199667" lon="1.45051833">
        <ele>1640.0</ele>
        <time>2019-08-04T11:46:29.317Z</time>
      </trkpt>
      <trkpt lat="42.45202167" lon="1.45055833">
        <ele>1640.0</ele>
        <time>2019-08-04T11:46:30.327Z</time>
      </trkpt>
      <trkpt lat="42.45202167" lon="1.45055833">
        <ele>1640.0</ele>
        <time>2019-08-04T11:46:31.296Z</time>
      </trkpt>
      <trkpt lat="42.452045" lon="1.45060167">
        <ele>1641.0</ele>
        <time>2019-08-04T11:46:32.303Z</time>
      </trkpt>
      <trkpt lat="42.452055" lon="1.45062333">
        <ele>1641.0</ele>
        <time>2019-08-04T11:46:33.328Z</time>
      </trkpt>
      <trkpt lat="42.45206167" lon="1.45065">
        <ele>1641.0</ele>
        <time>2019-08-04T11:46:34.312Z</time>
      </trkpt>
      <trkpt lat="42.45206167" lon="1.45065">
        <ele>1641.0</ele>
        <time>2019-08-04T11:46:35.325Z</time>
      </trkpt>
      <trkpt lat="42.45208167" lon="1.4507">
        <ele>1642.0</ele>
        <time>2019-08-04T11:46:36.309Z</time>
      </trkpt>
      <trkpt lat="42.45208167" lon="1.4507">
        <ele>1642.0</ele>
        <time>2019-08-04T11:46:37.307Z</time>
      </trkpt>
      <trkpt lat="42.45211167" lon="1.45074833">
        <ele>1642.0</ele>
        <time>2019-08-04T11:46:38.309Z</time>
      </trkpt>
      <trkpt lat="42.45211167" lon="1.45074833">
        <ele>1642.0</ele>
        <time>2019-08-04T11:46:39.304Z</time>
      </trkpt>
      <trkpt lat="42.45215" lon="1.45078333">
        <ele>1643.0</ele>
        <time>2019-08-04T11:46:40.308Z</time>
      </trkpt>
      <trkpt lat="42.45215" lon="1.45078333">
        <ele>1643.0</ele>
        <time>2019-08-04T11:46:41.306Z</time>
      </trkpt>
      <trkpt lat="42.452185" lon="1.45081333">
        <ele>1643.0</ele>
        <time>2019-08-04T11:46:42.334Z</time>
      </trkpt>
      <trkpt lat="42.452185" lon="1.45081333">
        <ele>1643.0</ele>
        <time>2019-08-04T11:46:43.318Z</time>
      </trkpt>
      <trkpt lat="42.45222" lon="1.450835">
        <ele>1643.0</ele>
        <time>2019-08-04T11:46:44.313Z</time>
      </trkpt>
      <trkpt lat="42.45222" lon="1.450835">
        <ele>1643.0</ele>
        <time>2019-08-04T11:46:45.307Z</time>
      </trkpt>
      <trkpt lat="42.45225833" lon="1.45085333">
        <ele>1644.0</ele>
        <time>2019-08-04T11:46:46.307Z</time>
      </trkpt>
      <trkpt lat="42.45225833" lon="1.45085333">
        <ele>1644.0</ele>
        <time>2019-08-04T11:46:47.308Z</time>
      </trkpt>
      <trkpt lat="42.45230167" lon="1.45085833">
        <ele>1644.0</ele>
        <time>2019-08-04T11:46:48.310Z</time>
      </trkpt>
      <trkpt lat="42.452325" lon="1.45086167">
        <ele>1644.0</ele>
        <time>2019-08-04T11:46:49.307Z</time>
      </trkpt>
      <trkpt lat="42.452325" lon="1.45086167">
        <ele>1644.0</ele>
        <time>2019-08-04T11:46:50.329Z</time>
      </trkpt>
      <trkpt lat="42.45237167" lon="1.45086833">
        <ele>1645.0</ele>
        <time>2019-08-04T11:46:51.311Z</time>
      </trkpt>
      <trkpt lat="42.45239" lon="1.45087667">
        <ele>1646.0</ele>
        <time>2019-08-04T11:46:52.320Z</time>
      </trkpt>
      <trkpt lat="42.45239" lon="1.45087667">
        <ele>1646.0</ele>
        <time>2019-08-04T11:46:53.307Z</time>
      </trkpt>
      <trkpt lat="42.45243" lon="1.450895">
        <ele>1646.0</ele>
        <time>2019-08-04T11:46:54.311Z</time>
      </trkpt>
      <trkpt lat="42.45243" lon="1.450895">
        <ele>1646.0</ele>
        <time>2019-08-04T11:46:55.312Z</time>
      </trkpt>
      <trkpt lat="42.45247167" lon="1.45090833">
        <ele>1647.0</ele>
        <time>2019-08-04T11:46:56.311Z</time>
      </trkpt>
      <trkpt lat="42.45248833" lon="1.45091167">
        <ele>1648.0</ele>
        <time>2019-08-04T11:46:57.334Z</time>
      </trkpt>
      <trkpt lat="42.45248833" lon="1.45091167">
        <ele>1648.0</ele>
        <time>2019-08-04T11:46:58.314Z</time>
      </trkpt>
      <trkpt lat="42.45252667" lon="1.45091833">
        <ele>1649.0</ele>
        <time>2019-08-04T11:46:59.317Z</time>
      </trkpt>
      <trkpt lat="42.45255167" lon="1.45092">
        <ele>1650.0</ele>
        <time>2019-08-04T11:47:00.311Z</time>
      </trkpt>
      <trkpt lat="42.45255167" lon="1.45092">
        <ele>1650.0</ele>
        <time>2019-08-04T11:47:01.306Z</time>
      </trkpt>
      <trkpt lat="42.45259333" lon="1.45092833">
        <ele>1651.0</ele>
        <time>2019-08-04T11:47:02.333Z</time>
      </trkpt>
      <trkpt lat="42.45259333" lon="1.45092833">
        <ele>1651.0</ele>
        <time>2019-08-04T11:47:03.314Z</time>
      </trkpt>
      <trkpt lat="42.45263" lon="1.45093167">
        <ele>1652.0</ele>
        <time>2019-08-04T11:47:04.315Z</time>
      </trkpt>
      <trkpt lat="42.45263" lon="1.45093167">
        <ele>1652.0</ele>
        <time>2019-08-04T11:47:05.302Z</time>
      </trkpt>
      <trkpt lat="42.45266667" lon="1.45095">
        <ele>1653.0</ele>
        <time>2019-08-04T11:47:06.325Z</time>
      </trkpt>
      <trkpt lat="42.45268833" lon="1.45095833">
        <ele>1653.0</ele>
        <time>2019-08-04T11:47:07.309Z</time>
      </trkpt>
      <trkpt lat="42.45268833" lon="1.45095833">
        <ele>1653.0</ele>
        <time>2019-08-04T11:47:08.307Z</time>
      </trkpt>
      <trkpt lat="42.45273333" lon="1.45098">
        <ele>1654.0</ele>
        <time>2019-08-04T11:47:09.312Z</time>
      </trkpt>
      <trkpt lat="42.45275167" lon="1.45099167">
        <ele>1654.0</ele>
        <time>2019-08-04T11:47:10.307Z</time>
      </trkpt>
      <trkpt lat="42.45275167" lon="1.45099167">
        <ele>1654.0</ele>
        <time>2019-08-04T11:47:11.306Z</time>
      </trkpt>
      <trkpt lat="42.45278833" lon="1.45100667">
        <ele>1655.0</ele>
        <time>2019-08-04T11:47:12.333Z</time>
      </trkpt>
      <trkpt lat="42.45278833" lon="1.45100667">
        <ele>1655.0</ele>
        <time>2019-08-04T11:47:13.315Z</time>
      </trkpt>
      <trkpt lat="42.45282" lon="1.451015">
        <ele>1656.0</ele>
        <time>2019-08-04T11:47:14.310Z</time>
      </trkpt>
      <trkpt lat="42.45283667" lon="1.45101667">
        <ele>1656.0</ele>
        <time>2019-08-04T11:47:15.335Z</time>
      </trkpt>
      <trkpt lat="42.45285167" lon="1.451015">
        <ele>1657.0</ele>
        <time>2019-08-04T11:47:16.314Z</time>
      </trkpt>
      <trkpt lat="42.45285167" lon="1.451015">
        <ele>1657.0</ele>
        <time>2019-08-04T11:47:17.308Z</time>
      </trkpt>
      <trkpt lat="42.45288" lon="1.45101333">
        <ele>1657.0</ele>
        <time>2019-08-04T11:47:18.310Z</time>
      </trkpt>
      <trkpt lat="42.45288" lon="1.45101333">
        <ele>1657.0</ele>
        <time>2019-08-04T11:47:19.306Z</time>
      </trkpt>
      <trkpt lat="42.45291667" lon="1.451">
        <ele>1658.0</ele>
        <time>2019-08-04T11:47:20.333Z</time>
      </trkpt>
      <trkpt lat="42.45291667" lon="1.451">
        <ele>1658.0</ele>
        <time>2019-08-04T11:47:21.312Z</time>
      </trkpt>
      <trkpt lat="42.452955" lon="1.45098">
        <ele>1659.0</ele>
        <time>2019-08-04T11:47:22.320Z</time>
      </trkpt>
      <trkpt lat="42.452975" lon="1.45096833">
        <ele>1659.0</ele>
        <time>2019-08-04T11:47:23.332Z</time>
      </trkpt>
      <trkpt lat="42.452975" lon="1.45096833">
        <ele>1659.0</ele>
        <time>2019-08-04T11:47:24.318Z</time>
      </trkpt>
      <trkpt lat="42.453015" lon="1.45094833">
        <ele>1660.0</ele>
        <time>2019-08-04T11:47:25.310Z</time>
      </trkpt>
      <trkpt lat="42.45303" lon="1.45094">
        <ele>1661.0</ele>
        <time>2019-08-04T11:47:26.312Z</time>
      </trkpt>
      <trkpt lat="42.45304667" lon="1.45092333">
        <ele>1661.0</ele>
        <time>2019-08-04T11:47:27.311Z</time>
      </trkpt>
      <trkpt lat="42.45304667" lon="1.45092333">
        <ele>1661.0</ele>
        <time>2019-08-04T11:47:28.308Z</time>
      </trkpt>
      <trkpt lat="42.45308167" lon="1.45089333">
        <ele>1661.0</ele>
        <time>2019-08-04T11:47:29.306Z</time>
      </trkpt>
      <trkpt lat="42.45308167" lon="1.45089333">
        <ele>1661.0</ele>
        <time>2019-08-04T11:47:30.309Z</time>
      </trkpt>
      <trkpt lat="42.45309333" lon="1.45084167">
        <ele>1662.0</ele>
        <time>2019-08-04T11:47:31.315Z</time>
      </trkpt>
      <trkpt lat="42.45311" lon="1.45082333">
        <ele>1662.0</ele>
        <time>2019-08-04T11:47:32.325Z</time>
      </trkpt>
      <trkpt lat="42.45311" lon="1.45082333">
        <ele>1662.0</ele>
        <time>2019-08-04T11:47:33.309Z</time>
      </trkpt>
      <trkpt lat="42.453135" lon="1.45079">
        <ele>1662.0</ele>
        <time>2019-08-04T11:47:34.302Z</time>
      </trkpt>
      <trkpt lat="42.45314333" lon="1.45077">
        <ele>1663.0</ele>
        <time>2019-08-04T11:47:35.333Z</time>
      </trkpt>
      <trkpt lat="42.45314333" lon="1.45077">
        <ele>1663.0</ele>
        <time>2019-08-04T11:47:36.313Z</time>
      </trkpt>
      <trkpt lat="42.45316667" lon="1.450725">
        <ele>1663.0</ele>
        <time>2019-08-04T11:47:37.311Z</time>
      </trkpt>
      <trkpt lat="42.45316667" lon="1.45070833">
        <ele>1663.0</ele>
        <time>2019-08-04T11:47:38.311Z</time>
      </trkpt>
      <trkpt lat="42.45316667" lon="1.45070833">
        <ele>1663.0</ele>
        <time>2019-08-04T11:47:39.316Z</time>
      </trkpt>
      <trkpt lat="42.45317667" lon="1.45066333">
        <ele>1664.0</ele>
        <time>2019-08-04T11:47:40.325Z</time>
      </trkpt>
      <trkpt lat="42.45317667" lon="1.45066333">
        <ele>1664.0</ele>
        <time>2019-08-04T11:47:41.307Z</time>
      </trkpt>
      <trkpt lat="42.45318667" lon="1.450625">
        <ele>1664.0</ele>
        <time>2019-08-04T11:47:42.334Z</time>
      </trkpt>
      <trkpt lat="42.45318667" lon="1.450625">
        <ele>1664.0</ele>
        <time>2019-08-04T11:47:43.314Z</time>
      </trkpt>
      <trkpt lat="42.45320667" lon="1.45058333">
        <ele>1665.0</ele>
        <time>2019-08-04T11:47:44.319Z</time>
      </trkpt>
      <trkpt lat="42.45320667" lon="1.45058333">
        <ele>1665.0</ele>
        <time>2019-08-04T11:47:45.307Z</time>
      </trkpt>
      <trkpt lat="42.45322167" lon="1.45054">
        <ele>1665.0</ele>
        <time>2019-08-04T11:47:46.307Z</time>
      </trkpt>
      <trkpt lat="42.45322167" lon="1.45054">
        <ele>1665.0</ele>
        <time>2019-08-04T11:47:47.307Z</time>
      </trkpt>
      <trkpt lat="42.45324" lon="1.45050333">
        <ele>1666.0</ele>
        <time>2019-08-04T11:47:48.308Z</time>
      </trkpt>
      <trkpt lat="42.45325333" lon="1.45048333">
        <ele>1666.0</ele>
        <time>2019-08-04T11:47:49.311Z</time>
      </trkpt>
      <trkpt lat="42.45326833" lon="1.45045833">
        <ele>1666.0</ele>
        <time>2019-08-04T11:47:50.313Z</time>
      </trkpt>
      <trkpt lat="42.45326833" lon="1.45045833">
        <ele>1666.0</ele>
        <time>2019-08-04T11:47:51.307Z</time>
      </trkpt>
      <trkpt lat="42.45329333" lon="1.45042">
        <ele>1666.0</ele>
        <time>2019-08-04T11:47:52.329Z</time>
      </trkpt>
      <trkpt lat="42.45329333" lon="1.45042">
        <ele>1666.0</ele>
        <time>2019-08-04T11:47:53.308Z</time>
      </trkpt>
      <trkpt lat="42.45333" lon="1.45038333">
        <ele>1666.0</ele>
        <time>2019-08-04T11:47:54.319Z</time>
      </trkpt>
      <trkpt lat="42.45333" lon="1.45038333">
        <ele>1666.0</ele>
        <time>2019-08-04T11:47:55.314Z</time>
      </trkpt>
      <trkpt lat="42.45336" lon="1.45035">
        <ele>1667.0</ele>
        <time>2019-08-04T11:47:56.315Z</time>
      </trkpt>
      <trkpt lat="42.45336" lon="1.45035">
        <ele>1667.0</ele>
        <time>2019-08-04T11:47:57.307Z</time>
      </trkpt>
      <trkpt lat="42.45337667" lon="1.45031167">
        <ele>1667.0</ele>
        <time>2019-08-04T11:47:58.311Z</time>
      </trkpt>
      <trkpt lat="42.45337667" lon="1.45031167">
        <ele>1667.0</ele>
        <time>2019-08-04T11:47:59.307Z</time>
      </trkpt>
      <trkpt lat="42.45340667" lon="1.45027833">
        <ele>1667.0</ele>
        <time>2019-08-04T11:48:00.335Z</time>
      </trkpt>
      <trkpt lat="42.45340667" lon="1.45027833">
        <ele>1667.0</ele>
        <time>2019-08-04T11:48:01.315Z</time>
      </trkpt>
      <trkpt lat="42.45346167" lon="1.45023167">
        <ele>1667.0</ele>
        <time>2019-08-04T11:48:02.334Z</time>
      </trkpt>
      <trkpt lat="42.45346167" lon="1.45023167">
        <ele>1667.0</ele>
        <time>2019-08-04T11:48:03.314Z</time>
      </trkpt>
      <trkpt lat="42.45348833" lon="1.45018167">
        <ele>1667.0</ele>
        <time>2019-08-04T11:48:04.314Z</time>
      </trkpt>
      <trkpt lat="42.45348833" lon="1.45018167">
        <ele>1667.0</ele>
        <time>2019-08-04T11:48:05.303Z</time>
      </trkpt>
      <trkpt lat="42.45351167" lon="1.45013667">
        <ele>1668.0</ele>
        <time>2019-08-04T11:48:06.325Z</time>
      </trkpt>
      <trkpt lat="42.45352333" lon="1.45010667">
        <ele>1668.0</ele>
        <time>2019-08-04T11:48:07.311Z</time>
      </trkpt>
      <trkpt lat="42.45353167" lon="1.45008">
        <ele>1668.0</ele>
        <time>2019-08-04T11:48:08.318Z</time>
      </trkpt>
      <trkpt lat="42.45353167" lon="1.45008">
        <ele>1668.0</ele>
        <time>2019-08-04T11:48:09.305Z</time>
      </trkpt>
      <trkpt lat="42.45354667" lon="1.45003167">
        <ele>1669.0</ele>
        <time>2019-08-04T11:48:10.311Z</time>
      </trkpt>
      <trkpt lat="42.45354667" lon="1.45003167">
        <ele>1669.0</ele>
        <time>2019-08-04T11:48:11.307Z</time>
      </trkpt>
      <trkpt lat="42.45356833" lon="1.449995">
        <ele>1669.0</ele>
        <time>2019-08-04T11:48:12.334Z</time>
      </trkpt>
      <trkpt lat="42.45356833" lon="1.449995">
        <ele>1669.0</ele>
        <time>2019-08-04T11:48:13.316Z</time>
      </trkpt>
      <trkpt lat="42.45358833" lon="1.449955">
        <ele>1670.0</ele>
        <time>2019-08-04T11:48:14.315Z</time>
      </trkpt>
      <trkpt lat="42.453595" lon="1.44993167">
        <ele>1670.0</ele>
        <time>2019-08-04T11:48:15.312Z</time>
      </trkpt>
      <trkpt lat="42.4536" lon="1.44990833">
        <ele>1670.0</ele>
        <time>2019-08-04T11:48:16.312Z</time>
      </trkpt>
      <trkpt lat="42.4536" lon="1.44990833">
        <ele>1670.0</ele>
        <time>2019-08-04T11:48:17.308Z</time>
      </trkpt>
      <trkpt lat="42.45361" lon="1.44986167">
        <ele>1670.0</ele>
        <time>2019-08-04T11:48:18.308Z</time>
      </trkpt>
      <trkpt lat="42.453615" lon="1.44983833">
        <ele>1670.0</ele>
        <time>2019-08-04T11:48:19.314Z</time>
      </trkpt>
      <trkpt lat="42.453615" lon="1.44983833">
        <ele>1670.0</ele>
        <time>2019-08-04T11:48:20.308Z</time>
      </trkpt>
      <trkpt lat="42.453625" lon="1.44978667">
        <ele>1671.0</ele>
        <time>2019-08-04T11:48:21.310Z</time>
      </trkpt>
      <trkpt lat="42.45363167" lon="1.44976333">
        <ele>1671.0</ele>
        <time>2019-08-04T11:48:22.333Z</time>
      </trkpt>
      <trkpt lat="42.45363167" lon="1.44976333">
        <ele>1671.0</ele>
        <time>2019-08-04T11:48:23.314Z</time>
      </trkpt>
      <trkpt lat="42.45364667" lon="1.44972333">
        <ele>1672.0</ele>
        <time>2019-08-04T11:48:24.312Z</time>
      </trkpt>
      <trkpt lat="42.45364667" lon="1.44972333">
        <ele>1672.0</ele>
        <time>2019-08-04T11:48:25.306Z</time>
      </trkpt>
      <trkpt lat="42.453665" lon="1.44967833">
        <ele>1672.0</ele>
        <time>2019-08-04T11:48:26.312Z</time>
      </trkpt>
      <trkpt lat="42.453665" lon="1.44967833">
        <ele>1672.0</ele>
        <time>2019-08-04T11:48:27.334Z</time>
      </trkpt>
      <trkpt lat="42.45368" lon="1.44963333">
        <ele>1673.0</ele>
        <time>2019-08-04T11:48:28.315Z</time>
      </trkpt>
      <trkpt lat="42.45368" lon="1.44961">
        <ele>1673.0</ele>
        <time>2019-08-04T11:48:29.328Z</time>
      </trkpt>
      <trkpt lat="42.45368" lon="1.44961">
        <ele>1673.0</ele>
        <time>2019-08-04T11:48:30.298Z</time>
      </trkpt>
      <trkpt lat="42.45367333" lon="1.44956">
        <ele>1673.0</ele>
        <time>2019-08-04T11:48:31.304Z</time>
      </trkpt>
      <trkpt lat="42.45367833" lon="1.44953167">
        <ele>1673.0</ele>
        <time>2019-08-04T11:48:32.328Z</time>
      </trkpt>
      <trkpt lat="42.45367833" lon="1.44953167">
        <ele>1673.0</ele>
        <time>2019-08-04T11:48:33.310Z</time>
      </trkpt>
      <trkpt lat="42.45368833" lon="1.44948167">
        <ele>1674.0</ele>
        <time>2019-08-04T11:48:34.314Z</time>
      </trkpt>
      <trkpt lat="42.45368833" lon="1.44948167">
        <ele>1674.0</ele>
        <time>2019-08-04T11:48:35.307Z</time>
      </trkpt>
      <trkpt lat="42.453705" lon="1.44943833">
        <ele>1674.0</ele>
        <time>2019-08-04T11:48:36.308Z</time>
      </trkpt>
      <trkpt lat="42.45369333" lon="1.44940667">
        <ele>1674.0</ele>
        <time>2019-08-04T11:48:37.312Z</time>
      </trkpt>
      <trkpt lat="42.45369333" lon="1.44940667">
        <ele>1674.0</ele>
        <time>2019-08-04T11:48:38.306Z</time>
      </trkpt>
      <trkpt lat="42.45369333" lon="1.44934833">
        <ele>1674.0</ele>
        <time>2019-08-04T11:48:39.311Z</time>
      </trkpt>
      <trkpt lat="42.45369167" lon="1.44932">
        <ele>1674.0</ele>
        <time>2019-08-04T11:48:40.311Z</time>
      </trkpt>
      <trkpt lat="42.45369167" lon="1.44932">
        <ele>1674.0</ele>
        <time>2019-08-04T11:48:41.307Z</time>
      </trkpt>
      <trkpt lat="42.45368833" lon="1.449265">
        <ele>1674.0</ele>
        <time>2019-08-04T11:48:42.326Z</time>
      </trkpt>
      <trkpt lat="42.45368833" lon="1.449265">
        <ele>1674.0</ele>
        <time>2019-08-04T11:48:43.307Z</time>
      </trkpt>
      <trkpt lat="42.45369" lon="1.44922">
        <ele>1674.0</ele>
        <time>2019-08-04T11:48:44.317Z</time>
      </trkpt>
      <trkpt lat="42.45369" lon="1.44922">
        <ele>1674.0</ele>
        <time>2019-08-04T11:48:45.307Z</time>
      </trkpt>
      <trkpt lat="42.45369833" lon="1.44917167">
        <ele>1675.0</ele>
        <time>2019-08-04T11:48:46.311Z</time>
      </trkpt>
      <trkpt lat="42.45369833" lon="1.44917167">
        <ele>1675.0</ele>
        <time>2019-08-04T11:48:47.307Z</time>
      </trkpt>
      <trkpt lat="42.45369667" lon="1.44911667">
        <ele>1675.0</ele>
        <time>2019-08-04T11:48:48.311Z</time>
      </trkpt>
      <trkpt lat="42.45369667" lon="1.44911667">
        <ele>1675.0</ele>
        <time>2019-08-04T11:48:49.308Z</time>
      </trkpt>
      <trkpt lat="42.45369833" lon="1.44906833">
        <ele>1675.0</ele>
        <time>2019-08-04T11:48:50.298Z</time>
      </trkpt>
      <trkpt lat="42.45369833" lon="1.44906833">
        <ele>1675.0</ele>
        <time>2019-08-04T11:48:51.318Z</time>
      </trkpt>
      <trkpt lat="42.453705" lon="1.44902833">
        <ele>1676.0</ele>
        <time>2019-08-04T11:48:52.325Z</time>
      </trkpt>
      <trkpt lat="42.45371" lon="1.44900333">
        <ele>1676.0</ele>
        <time>2019-08-04T11:48:53.310Z</time>
      </trkpt>
      <trkpt lat="42.45371" lon="1.44900333">
        <ele>1676.0</ele>
        <time>2019-08-04T11:48:54.308Z</time>
      </trkpt>
      <trkpt lat="42.45372333" lon="1.448955">
        <ele>1677.0</ele>
        <time>2019-08-04T11:48:55.297Z</time>
      </trkpt>
      <trkpt lat="42.45373833" lon="1.448935">
        <ele>1677.0</ele>
        <time>2019-08-04T11:48:56.317Z</time>
      </trkpt>
      <trkpt lat="42.45373833" lon="1.448935">
        <ele>1677.0</ele>
        <time>2019-08-04T11:48:57.307Z</time>
      </trkpt>
      <trkpt lat="42.45375167" lon="1.44888167">
        <ele>1677.0</ele>
        <time>2019-08-04T11:48:58.311Z</time>
      </trkpt>
      <trkpt lat="42.45375167" lon="1.44888167">
        <ele>1677.0</ele>
        <time>2019-08-04T11:48:59.307Z</time>
      </trkpt>
      <trkpt lat="42.45376667" lon="1.448835">
        <ele>1678.0</ele>
        <time>2019-08-04T11:49:00.307Z</time>
      </trkpt>
      <trkpt lat="42.45377667" lon="1.44881167">
        <ele>1678.0</ele>
        <time>2019-08-04T11:49:01.308Z</time>
      </trkpt>
      <trkpt lat="42.45377667" lon="1.44881167">
        <ele>1678.0</ele>
        <time>2019-08-04T11:49:02.329Z</time>
      </trkpt>
      <trkpt lat="42.45379833" lon="1.44877167">
        <ele>1678.0</ele>
        <time>2019-08-04T11:49:03.311Z</time>
      </trkpt>
      <trkpt lat="42.45380167" lon="1.44874667">
        <ele>1679.0</ele>
        <time>2019-08-04T11:49:04.307Z</time>
      </trkpt>
      <trkpt lat="42.45380167" lon="1.44874667">
        <ele>1679.0</ele>
        <time>2019-08-04T11:49:05.303Z</time>
      </trkpt>
      <trkpt lat="42.45382167" lon="1.44870167">
        <ele>1679.0</ele>
        <time>2019-08-04T11:49:06.329Z</time>
      </trkpt>
      <trkpt lat="42.45382167" lon="1.44870167">
        <ele>1679.0</ele>
        <time>2019-08-04T11:49:07.310Z</time>
      </trkpt>
      <trkpt lat="42.45384167" lon="1.44865833">
        <ele>1679.0</ele>
        <time>2019-08-04T11:49:08.326Z</time>
      </trkpt>
      <trkpt lat="42.45384167" lon="1.44865833">
        <ele>1679.0</ele>
        <time>2019-08-04T11:49:09.313Z</time>
      </trkpt>
      <trkpt lat="42.45382833" lon="1.44862333">
        <ele>1680.0</ele>
        <time>2019-08-04T11:49:10.311Z</time>
      </trkpt>
      <trkpt lat="42.45382833" lon="1.44862333">
        <ele>1680.0</ele>
        <time>2019-08-04T11:49:11.309Z</time>
      </trkpt>
      <trkpt lat="42.45383167" lon="1.44859">
        <ele>1681.0</ele>
        <time>2019-08-04T11:49:12.322Z</time>
      </trkpt>
      <trkpt lat="42.45385" lon="1.44856333">
        <ele>1681.0</ele>
        <time>2019-08-04T11:49:13.308Z</time>
      </trkpt>
      <trkpt lat="42.45386333" lon="1.44854167">
        <ele>1681.0</ele>
        <time>2019-08-04T11:49:14.333Z</time>
      </trkpt>
      <trkpt lat="42.45386333" lon="1.44854167">
        <ele>1681.0</ele>
        <time>2019-08-04T11:49:15.321Z</time>
      </trkpt>
      <trkpt lat="42.45388667" lon="1.4485">
        <ele>1681.0</ele>
        <time>2019-08-04T11:49:16.312Z</time>
      </trkpt>
      <trkpt lat="42.45388667" lon="1.4485">
        <ele>1681.0</ele>
        <time>2019-08-04T11:49:17.308Z</time>
      </trkpt>
      <trkpt lat="42.453895" lon="1.448465">
        <ele>1682.0</ele>
        <time>2019-08-04T11:49:18.311Z</time>
      </trkpt>
      <trkpt lat="42.453895" lon="1.448465">
        <ele>1682.0</ele>
        <time>2019-08-04T11:49:19.307Z</time>
      </trkpt>
      <trkpt lat="42.45390833" lon="1.44843167">
        <ele>1682.0</ele>
        <time>2019-08-04T11:49:20.334Z</time>
      </trkpt>
      <trkpt lat="42.45390833" lon="1.44843167">
        <ele>1682.0</ele>
        <time>2019-08-04T11:49:21.315Z</time>
      </trkpt>
      <trkpt lat="42.453935" lon="1.44839333">
        <ele>1683.0</ele>
        <time>2019-08-04T11:49:22.301Z</time>
      </trkpt>
      <trkpt lat="42.453935" lon="1.44839333">
        <ele>1683.0</ele>
        <time>2019-08-04T11:49:23.329Z</time>
      </trkpt>
      <trkpt lat="42.45395333" lon="1.44835167">
        <ele>1683.0</ele>
        <time>2019-08-04T11:49:24.313Z</time>
      </trkpt>
      <trkpt lat="42.45395333" lon="1.44835167">
        <ele>1683.0</ele>
        <time>2019-08-04T11:49:25.326Z</time>
      </trkpt>
      <trkpt lat="42.45399" lon="1.448315">
        <ele>1683.0</ele>
        <time>2019-08-04T11:49:26.313Z</time>
      </trkpt>
      <trkpt lat="42.45399" lon="1.448315">
        <ele>1683.0</ele>
        <time>2019-08-04T11:49:27.305Z</time>
      </trkpt>
      <trkpt lat="42.45403167" lon="1.448305">
        <ele>1684.0</ele>
        <time>2019-08-04T11:49:28.326Z</time>
      </trkpt>
      <trkpt lat="42.45403167" lon="1.448305">
        <ele>1684.0</ele>
        <time>2019-08-04T11:49:29.303Z</time>
      </trkpt>
      <trkpt lat="42.45406" lon="1.448315">
        <ele>1684.0</ele>
        <time>2019-08-04T11:49:30.318Z</time>
      </trkpt>
      <trkpt lat="42.45406833" lon="1.44832667">
        <ele>1684.0</ele>
        <time>2019-08-04T11:49:31.326Z</time>
      </trkpt>
      <trkpt lat="42.45407833" lon="1.44834167">
        <ele>1684.0</ele>
        <time>2019-08-04T11:49:32.334Z</time>
      </trkpt>
      <trkpt lat="42.45407833" lon="1.44834167">
        <ele>1684.0</ele>
        <time>2019-08-04T11:49:33.314Z</time>
      </trkpt>
      <trkpt lat="42.45409333" lon="1.44838333">
        <ele>1684.0</ele>
        <time>2019-08-04T11:49:34.312Z</time>
      </trkpt>
      <trkpt lat="42.45409333" lon="1.44838333">
        <ele>1684.0</ele>
        <time>2019-08-04T11:49:35.316Z</time>
      </trkpt>
      <trkpt lat="42.454105" lon="1.448425">
        <ele>1685.0</ele>
        <time>2019-08-04T11:49:36.313Z</time>
      </trkpt>
      <trkpt lat="42.454105" lon="1.448445">
        <ele>1685.0</ele>
        <time>2019-08-04T11:49:37.312Z</time>
      </trkpt>
      <trkpt lat="42.454105" lon="1.448445">
        <ele>1685.0</ele>
        <time>2019-08-04T11:49:38.307Z</time>
      </trkpt>
      <trkpt lat="42.45410833" lon="1.44848667">
        <ele>1685.0</ele>
        <time>2019-08-04T11:49:39.313Z</time>
      </trkpt>
      <trkpt lat="42.45411333" lon="1.44850333">
        <ele>1686.0</ele>
        <time>2019-08-04T11:49:40.315Z</time>
      </trkpt>
      <trkpt lat="42.45411333" lon="1.44850333">
        <ele>1686.0</ele>
        <time>2019-08-04T11:49:41.305Z</time>
      </trkpt>
      <trkpt lat="42.45412167" lon="1.44854167">
        <ele>1686.0</ele>
        <time>2019-08-04T11:49:42.335Z</time>
      </trkpt>
      <trkpt lat="42.45412167" lon="1.44854167">
        <ele>1686.0</ele>
        <time>2019-08-04T11:49:43.316Z</time>
      </trkpt>
      <trkpt lat="42.45413833" lon="1.44858833">
        <ele>1686.0</ele>
        <time>2019-08-04T11:49:44.315Z</time>
      </trkpt>
      <trkpt lat="42.45413833" lon="1.44858833">
        <ele>1686.0</ele>
        <time>2019-08-04T11:49:45.305Z</time>
      </trkpt>
      <trkpt lat="42.45415167" lon="1.44862333">
        <ele>1686.0</ele>
        <time>2019-08-04T11:49:46.326Z</time>
      </trkpt>
      <trkpt lat="42.45415167" lon="1.44862333">
        <ele>1686.0</ele>
        <time>2019-08-04T11:49:47.308Z</time>
      </trkpt>
      <trkpt lat="42.45416167" lon="1.44866167">
        <ele>1687.0</ele>
        <time>2019-08-04T11:49:48.318Z</time>
      </trkpt>
      <trkpt lat="42.45416167" lon="1.44866167">
        <ele>1687.0</ele>
        <time>2019-08-04T11:49:49.305Z</time>
      </trkpt>
      <trkpt lat="42.454165" lon="1.448705">
        <ele>1687.0</ele>
        <time>2019-08-04T11:49:50.326Z</time>
      </trkpt>
      <trkpt lat="42.454165" lon="1.448705">
        <ele>1687.0</ele>
        <time>2019-08-04T11:49:51.307Z</time>
      </trkpt>
      <trkpt lat="42.45417333" lon="1.44875">
        <ele>1688.0</ele>
        <time>2019-08-04T11:49:52.333Z</time>
      </trkpt>
      <trkpt lat="42.45417333" lon="1.44875">
        <ele>1688.0</ele>
        <time>2019-08-04T11:49:53.313Z</time>
      </trkpt>
      <trkpt lat="42.45418167" lon="1.44879833">
        <ele>1688.0</ele>
        <time>2019-08-04T11:49:54.307Z</time>
      </trkpt>
      <trkpt lat="42.45418667" lon="1.44882167">
        <ele>1688.0</ele>
        <time>2019-08-04T11:49:55.309Z</time>
      </trkpt>
      <trkpt lat="42.45419333" lon="1.448845">
        <ele>1688.0</ele>
        <time>2019-08-04T11:49:56.312Z</time>
      </trkpt>
      <trkpt lat="42.45419333" lon="1.448845">
        <ele>1688.0</ele>
        <time>2019-08-04T11:49:57.305Z</time>
      </trkpt>
      <trkpt lat="42.45422167" lon="1.448885">
        <ele>1689.0</ele>
        <time>2019-08-04T11:49:58.312Z</time>
      </trkpt>
      <trkpt lat="42.45422167" lon="1.448885">
        <ele>1689.0</ele>
        <time>2019-08-04T11:49:59.306Z</time>
      </trkpt>
      <trkpt lat="42.45425833" lon="1.44891667">
        <ele>1689.0</ele>
        <time>2019-08-04T11:50:00.326Z</time>
      </trkpt>
      <trkpt lat="42.45427667" lon="1.44893333">
        <ele>1690.0</ele>
        <time>2019-08-04T11:50:01.308Z</time>
      </trkpt>
      <trkpt lat="42.454295" lon="1.44894833">
        <ele>1690.0</ele>
        <time>2019-08-04T11:50:02.334Z</time>
      </trkpt>
      <trkpt lat="42.454295" lon="1.44894833">
        <ele>1690.0</ele>
        <time>2019-08-04T11:50:03.315Z</time>
      </trkpt>
      <trkpt lat="42.45433167" lon="1.44898167">
        <ele>1690.0</ele>
        <time>2019-08-04T11:50:04.312Z</time>
      </trkpt>
      <trkpt lat="42.45433167" lon="1.44898167">
        <ele>1690.0</ele>
        <time>2019-08-04T11:50:05.305Z</time>
      </trkpt>
      <trkpt lat="42.45436167" lon="1.44901167">
        <ele>1690.0</ele>
        <time>2019-08-04T11:50:06.326Z</time>
      </trkpt>
      <trkpt lat="42.45436167" lon="1.44901167">
        <ele>1690.0</ele>
        <time>2019-08-04T11:50:07.307Z</time>
      </trkpt>
      <trkpt lat="42.45438833" lon="1.44904333">
        <ele>1691.0</ele>
        <time>2019-08-04T11:50:08.334Z</time>
      </trkpt>
      <trkpt lat="42.45438833" lon="1.44904333">
        <ele>1691.0</ele>
        <time>2019-08-04T11:50:09.313Z</time>
      </trkpt>
      <trkpt lat="42.45441" lon="1.44907167">
        <ele>1691.0</ele>
        <time>2019-08-04T11:50:10.308Z</time>
      </trkpt>
      <trkpt lat="42.45441" lon="1.44907167">
        <ele>1691.0</ele>
        <time>2019-08-04T11:50:11.316Z</time>
      </trkpt>
      <trkpt lat="42.45444167" lon="1.4491">
        <ele>1691.0</ele>
        <time>2019-08-04T11:50:12.334Z</time>
      </trkpt>
      <trkpt lat="42.45444167" lon="1.4491">
        <ele>1691.0</ele>
        <time>2019-08-04T11:50:13.314Z</time>
      </trkpt>
      <trkpt lat="42.45446667" lon="1.44913">
        <ele>1692.0</ele>
        <time>2019-08-04T11:50:14.315Z</time>
      </trkpt>
      <trkpt lat="42.45446667" lon="1.44913">
        <ele>1692.0</ele>
        <time>2019-08-04T11:50:15.305Z</time>
      </trkpt>
      <trkpt lat="42.454495" lon="1.44915833">
        <ele>1693.0</ele>
        <time>2019-08-04T11:50:16.326Z</time>
      </trkpt>
      <trkpt lat="42.454495" lon="1.44915833">
        <ele>1693.0</ele>
        <time>2019-08-04T11:50:17.314Z</time>
      </trkpt>
      <trkpt lat="42.45451667" lon="1.44920333">
        <ele>1693.0</ele>
        <time>2019-08-04T11:50:18.315Z</time>
      </trkpt>
      <trkpt lat="42.45451667" lon="1.44920333">
        <ele>1693.0</ele>
        <time>2019-08-04T11:50:19.305Z</time>
      </trkpt>
      <trkpt lat="42.45453833" lon="1.44924833">
        <ele>1694.0</ele>
        <time>2019-08-04T11:50:20.327Z</time>
      </trkpt>
      <trkpt lat="42.45453833" lon="1.44924833">
        <ele>1694.0</ele>
        <time>2019-08-04T11:50:21.308Z</time>
      </trkpt>
      <trkpt lat="42.454565" lon="1.44927667">
        <ele>1695.0</ele>
        <time>2019-08-04T11:50:22.327Z</time>
      </trkpt>
      <trkpt lat="42.454565" lon="1.44927667">
        <ele>1695.0</ele>
        <time>2019-08-04T11:50:23.311Z</time>
      </trkpt>
      <trkpt lat="42.45459167" lon="1.44931333">
        <ele>1696.0</ele>
        <time>2019-08-04T11:50:24.310Z</time>
      </trkpt>
      <trkpt lat="42.45459167" lon="1.44931333">
        <ele>1696.0</ele>
        <time>2019-08-04T11:50:25.307Z</time>
      </trkpt>
      <trkpt lat="42.45462333" lon="1.44933833">
        <ele>1697.0</ele>
        <time>2019-08-04T11:50:26.326Z</time>
      </trkpt>
      <trkpt lat="42.45462333" lon="1.44933833">
        <ele>1697.0</ele>
        <time>2019-08-04T11:50:27.308Z</time>
      </trkpt>
      <trkpt lat="42.45465667" lon="1.449365">
        <ele>1698.0</ele>
        <time>2019-08-04T11:50:28.312Z</time>
      </trkpt>
      <trkpt lat="42.45465667" lon="1.449365">
        <ele>1698.0</ele>
        <time>2019-08-04T11:50:29.316Z</time>
      </trkpt>
      <trkpt lat="42.45468167" lon="1.449385">
        <ele>1699.0</ele>
        <time>2019-08-04T11:50:30.325Z</time>
      </trkpt>
      <trkpt lat="42.454695" lon="1.44939333">
        <ele>1699.0</ele>
        <time>2019-08-04T11:50:31.331Z</time>
      </trkpt>
      <trkpt lat="42.45470833" lon="1.44940333">
        <ele>1699.0</ele>
        <time>2019-08-04T11:50:32.298Z</time>
      </trkpt>
      <trkpt lat="42.45470833" lon="1.44940333">
        <ele>1699.0</ele>
        <time>2019-08-04T11:50:33.318Z</time>
      </trkpt>
      <trkpt lat="42.45473167" lon="1.44942">
        <ele>1700.0</ele>
        <time>2019-08-04T11:50:34.314Z</time>
      </trkpt>
      <trkpt lat="42.45473167" lon="1.44942">
        <ele>1700.0</ele>
        <time>2019-08-04T11:50:35.324Z</time>
      </trkpt>
      <trkpt lat="42.45476167" lon="1.44943667">
        <ele>1701.0</ele>
        <time>2019-08-04T11:50:36.320Z</time>
      </trkpt>
      <trkpt lat="42.45476167" lon="1.44943667">
        <ele>1701.0</ele>
        <time>2019-08-04T11:50:37.305Z</time>
      </trkpt>
      <trkpt lat="42.45478833" lon="1.44947">
        <ele>1701.0</ele>
        <time>2019-08-04T11:50:38.327Z</time>
      </trkpt>
      <trkpt lat="42.45478833" lon="1.44947">
        <ele>1701.0</ele>
        <time>2019-08-04T11:50:39.312Z</time>
      </trkpt>
      <trkpt lat="42.45479667" lon="1.44951833">
        <ele>1702.0</ele>
        <time>2019-08-04T11:50:40.313Z</time>
      </trkpt>
      <trkpt lat="42.45479667" lon="1.44951833">
        <ele>1702.0</ele>
        <time>2019-08-04T11:50:41.305Z</time>
      </trkpt>
      <trkpt lat="42.45479833" lon="1.449565">
        <ele>1703.0</ele>
        <time>2019-08-04T11:50:42.334Z</time>
      </trkpt>
      <trkpt lat="42.45479833" lon="1.449565">
        <ele>1703.0</ele>
        <time>2019-08-04T11:50:43.315Z</time>
      </trkpt>
      <trkpt lat="42.45479167" lon="1.44961333">
        <ele>1703.0</ele>
        <time>2019-08-04T11:50:44.316Z</time>
      </trkpt>
      <trkpt lat="42.45479167" lon="1.44961333">
        <ele>1703.0</ele>
        <time>2019-08-04T11:50:45.310Z</time>
      </trkpt>
      <trkpt lat="42.45479" lon="1.449665">
        <ele>1704.0</ele>
        <time>2019-08-04T11:50:46.329Z</time>
      </trkpt>
      <trkpt lat="42.45479" lon="1.449665">
        <ele>1704.0</ele>
        <time>2019-08-04T11:50:47.318Z</time>
      </trkpt>
      <trkpt lat="42.454795" lon="1.44971333">
        <ele>1704.0</ele>
        <time>2019-08-04T11:50:48.313Z</time>
      </trkpt>
      <trkpt lat="42.454795" lon="1.44971333">
        <ele>1704.0</ele>
        <time>2019-08-04T11:50:49.305Z</time>
      </trkpt>
      <trkpt lat="42.45479167" lon="1.44976667">
        <ele>1704.0</ele>
        <time>2019-08-04T11:50:50.334Z</time>
      </trkpt>
      <trkpt lat="42.45479167" lon="1.44976667">
        <ele>1704.0</ele>
        <time>2019-08-04T11:50:51.315Z</time>
      </trkpt>
      <trkpt lat="42.45478833" lon="1.44982333">
        <ele>1705.0</ele>
        <time>2019-08-04T11:50:52.335Z</time>
      </trkpt>
      <trkpt lat="42.45478833" lon="1.44982333">
        <ele>1705.0</ele>
        <time>2019-08-04T11:50:53.315Z</time>
      </trkpt>
      <trkpt lat="42.45480333" lon="1.44987333">
        <ele>1706.0</ele>
        <time>2019-08-04T11:50:54.308Z</time>
      </trkpt>
      <trkpt lat="42.45481" lon="1.44989833">
        <ele>1706.0</ele>
        <time>2019-08-04T11:50:55.315Z</time>
      </trkpt>
      <trkpt lat="42.45481" lon="1.44989833">
        <ele>1706.0</ele>
        <time>2019-08-04T11:50:56.313Z</time>
      </trkpt>
      <trkpt lat="42.45482167" lon="1.44995333">
        <ele>1706.0</ele>
        <time>2019-08-04T11:50:57.310Z</time>
      </trkpt>
      <trkpt lat="42.454825" lon="1.44998">
        <ele>1707.0</ele>
        <time>2019-08-04T11:50:58.313Z</time>
      </trkpt>
      <trkpt lat="42.454825" lon="1.44998">
        <ele>1707.0</ele>
        <time>2019-08-04T11:50:59.306Z</time>
      </trkpt>
      <trkpt lat="42.45483" lon="1.45003333">
        <ele>1707.0</ele>
        <time>2019-08-04T11:51:00.316Z</time>
      </trkpt>
      <trkpt lat="42.45483167" lon="1.45006">
        <ele>1707.0</ele>
        <time>2019-08-04T11:51:01.313Z</time>
      </trkpt>
      <trkpt lat="42.45483" lon="1.45008667">
        <ele>1707.0</ele>
        <time>2019-08-04T11:51:02.335Z</time>
      </trkpt>
      <trkpt lat="42.45483" lon="1.45008667">
        <ele>1707.0</ele>
        <time>2019-08-04T11:51:03.316Z</time>
      </trkpt>
      <trkpt lat="42.45482833" lon="1.45014167">
        <ele>1707.0</ele>
        <time>2019-08-04T11:51:04.313Z</time>
      </trkpt>
      <trkpt lat="42.45482667" lon="1.45017">
        <ele>1707.0</ele>
        <time>2019-08-04T11:51:05.314Z</time>
      </trkpt>
      <trkpt lat="42.45482667" lon="1.45017">
        <ele>1707.0</ele>
        <time>2019-08-04T11:51:06.301Z</time>
      </trkpt>
      <trkpt lat="42.45482" lon="1.45022167">
        <ele>1708.0</ele>
        <time>2019-08-04T11:51:07.322Z</time>
      </trkpt>
      <trkpt lat="42.45481333" lon="1.45024667">
        <ele>1708.0</ele>
        <time>2019-08-04T11:51:08.316Z</time>
      </trkpt>
      <trkpt lat="42.45481333" lon="1.45024667">
        <ele>1708.0</ele>
        <time>2019-08-04T11:51:09.306Z</time>
      </trkpt>
      <trkpt lat="42.45481" lon="1.4503">
        <ele>1708.0</ele>
        <time>2019-08-04T11:51:10.313Z</time>
      </trkpt>
      <trkpt lat="42.45481" lon="1.4503">
        <ele>1708.0</ele>
        <time>2019-08-04T11:51:11.306Z</time>
      </trkpt>
      <trkpt lat="42.4548" lon="1.450355">
        <ele>1708.0</ele>
        <time>2019-08-04T11:51:12.334Z</time>
      </trkpt>
      <trkpt lat="42.4548" lon="1.450355">
        <ele>1708.0</ele>
        <time>2019-08-04T11:51:13.314Z</time>
      </trkpt>
      <trkpt lat="42.4548" lon="1.45041167">
        <ele>1709.0</ele>
        <time>2019-08-04T11:51:14.316Z</time>
      </trkpt>
      <trkpt lat="42.4548" lon="1.45041167">
        <ele>1709.0</ele>
        <time>2019-08-04T11:51:15.307Z</time>
      </trkpt>
      <trkpt lat="42.45479833" lon="1.45046833">
        <ele>1709.0</ele>
        <time>2019-08-04T11:51:16.307Z</time>
      </trkpt>
      <trkpt lat="42.45479833" lon="1.45046833">
        <ele>1709.0</ele>
        <time>2019-08-04T11:51:17.307Z</time>
      </trkpt>
      <trkpt lat="42.45480333" lon="1.45053">
        <ele>1710.0</ele>
        <time>2019-08-04T11:51:18.312Z</time>
      </trkpt>
      <trkpt lat="42.45480333" lon="1.45053">
        <ele>1710.0</ele>
        <time>2019-08-04T11:51:19.306Z</time>
      </trkpt>
      <trkpt lat="42.45480667" lon="1.45059667">
        <ele>1710.0</ele>
        <time>2019-08-04T11:51:20.327Z</time>
      </trkpt>
      <trkpt lat="42.45480667" lon="1.45059667">
        <ele>1710.0</ele>
        <time>2019-08-04T11:51:21.308Z</time>
      </trkpt>
      <trkpt lat="42.45480667" lon="1.450665">
        <ele>1710.0</ele>
        <time>2019-08-04T11:51:22.334Z</time>
      </trkpt>
      <trkpt lat="42.45480833" lon="1.4507">
        <ele>1710.0</ele>
        <time>2019-08-04T11:51:23.326Z</time>
      </trkpt>
      <trkpt lat="42.45481" lon="1.45073333">
        <ele>1711.0</ele>
        <time>2019-08-04T11:51:24.312Z</time>
      </trkpt>
      <trkpt lat="42.45481" lon="1.45073333">
        <ele>1711.0</ele>
        <time>2019-08-04T11:51:25.308Z</time>
      </trkpt>
      <trkpt lat="42.45482333" lon="1.45080333">
        <ele>1711.0</ele>
        <time>2019-08-04T11:51:26.333Z</time>
      </trkpt>
      <trkpt lat="42.45482333" lon="1.45080333">
        <ele>1711.0</ele>
        <time>2019-08-04T11:51:27.313Z</time>
      </trkpt>
      <trkpt lat="42.45484667" lon="1.45086667">
        <ele>1711.0</ele>
        <time>2019-08-04T11:51:28.316Z</time>
      </trkpt>
      <trkpt lat="42.45484667" lon="1.45086667">
        <ele>1711.0</ele>
        <time>2019-08-04T11:51:29.328Z</time>
      </trkpt>
      <trkpt lat="42.45488" lon="1.45092333">
        <ele>1711.0</ele>
        <time>2019-08-04T11:51:30.302Z</time>
      </trkpt>
      <trkpt lat="42.45488" lon="1.45092333">
        <ele>1711.0</ele>
        <time>2019-08-04T11:51:31.308Z</time>
      </trkpt>
      <trkpt lat="42.454915" lon="1.45096833">
        <ele>1712.0</ele>
        <time>2019-08-04T11:51:32.299Z</time>
      </trkpt>
      <trkpt lat="42.454915" lon="1.45096833">
        <ele>1712.0</ele>
        <time>2019-08-04T11:51:33.321Z</time>
      </trkpt>
      <trkpt lat="42.45495667" lon="1.451005">
        <ele>1712.0</ele>
        <time>2019-08-04T11:51:34.315Z</time>
      </trkpt>
      <trkpt lat="42.45495667" lon="1.451005">
        <ele>1712.0</ele>
        <time>2019-08-04T11:51:35.299Z</time>
      </trkpt>
      <trkpt lat="42.455005" lon="1.45103833">
        <ele>1712.0</ele>
        <time>2019-08-04T11:51:36.326Z</time>
      </trkpt>
      <trkpt lat="42.45503167" lon="1.451055">
        <ele>1712.0</ele>
        <time>2019-08-04T11:51:37.316Z</time>
      </trkpt>
      <trkpt lat="42.45505833" lon="1.45107167">
        <ele>1711.0</ele>
        <time>2019-08-04T11:51:38.316Z</time>
      </trkpt>
      <trkpt lat="42.45505833" lon="1.45107167">
        <ele>1711.0</ele>
        <time>2019-08-04T11:51:39.308Z</time>
      </trkpt>
      <trkpt lat="42.45511333" lon="1.45109167">
        <ele>1711.0</ele>
        <time>2019-08-04T11:51:40.312Z</time>
      </trkpt>
      <trkpt lat="42.45511333" lon="1.45109167">
        <ele>1711.0</ele>
        <time>2019-08-04T11:51:41.309Z</time>
      </trkpt>
      <trkpt lat="42.45516667" lon="1.451105">
        <ele>1710.0</ele>
        <time>2019-08-04T11:51:42.296Z</time>
      </trkpt>
      <trkpt lat="42.45516667" lon="1.451105">
        <ele>1710.0</ele>
        <time>2019-08-04T11:51:43.316Z</time>
      </trkpt>
      <trkpt lat="42.45522167" lon="1.45110167">
        <ele>1710.0</ele>
        <time>2019-08-04T11:51:44.316Z</time>
      </trkpt>
      <trkpt lat="42.45525" lon="1.45110333">
        <ele>1710.0</ele>
        <time>2019-08-04T11:51:45.298Z</time>
      </trkpt>
      <trkpt lat="42.45525" lon="1.45110333">
        <ele>1710.0</ele>
        <time>2019-08-04T11:51:46.304Z</time>
      </trkpt>
      <trkpt lat="42.45530333" lon="1.451105">
        <ele>1710.0</ele>
        <time>2019-08-04T11:51:47.307Z</time>
      </trkpt>
      <trkpt lat="42.45530333" lon="1.451105">
        <ele>1710.0</ele>
        <time>2019-08-04T11:51:48.314Z</time>
      </trkpt>
      <trkpt lat="42.45535833" lon="1.45110333">
        <ele>1711.0</ele>
        <time>2019-08-04T11:51:49.320Z</time>
      </trkpt>
      <trkpt lat="42.45538" lon="1.45110167">
        <ele>1711.0</ele>
        <time>2019-08-04T11:51:50.316Z</time>
      </trkpt>
      <trkpt lat="42.4554" lon="1.45110333">
        <ele>1711.0</ele>
        <time>2019-08-04T11:51:51.297Z</time>
      </trkpt>
      <trkpt lat="42.4554" lon="1.45110333">
        <ele>1711.0</ele>
        <time>2019-08-04T11:51:52.320Z</time>
      </trkpt>
      <trkpt lat="42.45544333" lon="1.45111">
        <ele>1711.0</ele>
        <time>2019-08-04T11:51:53.315Z</time>
      </trkpt>
      <trkpt lat="42.45545833" lon="1.451115">
        <ele>1711.0</ele>
        <time>2019-08-04T11:51:54.314Z</time>
      </trkpt>
      <trkpt lat="42.45545833" lon="1.451115">
        <ele>1711.0</ele>
        <time>2019-08-04T11:51:55.308Z</time>
      </trkpt>
      <trkpt lat="42.45549667" lon="1.451125">
        <ele>1711.0</ele>
        <time>2019-08-04T11:51:56.329Z</time>
      </trkpt>
      <trkpt lat="42.45549667" lon="1.451125">
        <ele>1711.0</ele>
        <time>2019-08-04T11:51:57.309Z</time>
      </trkpt>
      <trkpt lat="42.45553833" lon="1.45114">
        <ele>1711.0</ele>
        <time>2019-08-04T11:51:58.312Z</time>
      </trkpt>
      <trkpt lat="42.45553833" lon="1.45114">
        <ele>1711.0</ele>
        <time>2019-08-04T11:51:59.312Z</time>
      </trkpt>
      <trkpt lat="42.455585" lon="1.45115833">
        <ele>1712.0</ele>
        <time>2019-08-04T11:52:00.314Z</time>
      </trkpt>
      <trkpt lat="42.455605" lon="1.45117">
        <ele>1712.0</ele>
        <time>2019-08-04T11:52:01.312Z</time>
      </trkpt>
      <trkpt lat="42.45562167" lon="1.451185">
        <ele>1712.0</ele>
        <time>2019-08-04T11:52:02.298Z</time>
      </trkpt>
      <trkpt lat="42.45562167" lon="1.451185">
        <ele>1712.0</ele>
        <time>2019-08-04T11:52:03.319Z</time>
      </trkpt>
      <trkpt lat="42.45565333" lon="1.45122">
        <ele>1712.0</ele>
        <time>2019-08-04T11:52:04.314Z</time>
      </trkpt>
      <trkpt lat="42.45565333" lon="1.45122">
        <ele>1712.0</ele>
        <time>2019-08-04T11:52:05.308Z</time>
      </trkpt>
      <trkpt lat="42.45568333" lon="1.45125833">
        <ele>1713.0</ele>
        <time>2019-08-04T11:52:06.314Z</time>
      </trkpt>
      <trkpt lat="42.45568333" lon="1.45125833">
        <ele>1713.0</ele>
        <time>2019-08-04T11:52:07.308Z</time>
      </trkpt>
      <trkpt lat="42.45570833" lon="1.451295">
        <ele>1713.0</ele>
        <time>2019-08-04T11:52:08.328Z</time>
      </trkpt>
      <trkpt lat="42.45570833" lon="1.451295">
        <ele>1713.0</ele>
        <time>2019-08-04T11:52:09.311Z</time>
      </trkpt>
      <trkpt lat="42.45573167" lon="1.451335">
        <ele>1714.0</ele>
        <time>2019-08-04T11:52:10.312Z</time>
      </trkpt>
      <trkpt lat="42.455745" lon="1.451355">
        <ele>1714.0</ele>
        <time>2019-08-04T11:52:11.312Z</time>
      </trkpt>
      <trkpt lat="42.455745" lon="1.451355">
        <ele>1714.0</ele>
        <time>2019-08-04T11:52:12.320Z</time>
      </trkpt>
      <trkpt lat="42.45577167" lon="1.45139333">
        <ele>1714.0</ele>
        <time>2019-08-04T11:52:13.315Z</time>
      </trkpt>
      <trkpt lat="42.45578333" lon="1.451415">
        <ele>1714.0</ele>
        <time>2019-08-04T11:52:14.317Z</time>
      </trkpt>
      <trkpt lat="42.45578333" lon="1.451415">
        <ele>1714.0</ele>
        <time>2019-08-04T11:52:15.308Z</time>
      </trkpt>
      <trkpt lat="42.45580833" lon="1.45145">
        <ele>1715.0</ele>
        <time>2019-08-04T11:52:16.315Z</time>
      </trkpt>
      <trkpt lat="42.45580833" lon="1.45145">
        <ele>1715.0</ele>
        <time>2019-08-04T11:52:17.308Z</time>
      </trkpt>
      <trkpt lat="42.45584333" lon="1.45147667">
        <ele>1716.0</ele>
        <time>2019-08-04T11:52:18.315Z</time>
      </trkpt>
      <trkpt lat="42.45584333" lon="1.45147667">
        <ele>1716.0</ele>
        <time>2019-08-04T11:52:19.308Z</time>
      </trkpt>
      <trkpt lat="42.45587667" lon="1.45149">
        <ele>1717.0</ele>
        <time>2019-08-04T11:52:20.317Z</time>
      </trkpt>
      <trkpt lat="42.45587667" lon="1.45149">
        <ele>1717.0</ele>
        <time>2019-08-04T11:52:21.335Z</time>
      </trkpt>
      <trkpt lat="42.45590667" lon="1.45147667">
        <ele>1718.0</ele>
        <time>2019-08-04T11:52:22.298Z</time>
      </trkpt>
      <trkpt lat="42.45590667" lon="1.45147667">
        <ele>1718.0</ele>
        <time>2019-08-04T11:52:23.314Z</time>
      </trkpt>
      <trkpt lat="42.45593333" lon="1.45144">
        <ele>1719.0</ele>
        <time>2019-08-04T11:52:24.312Z</time>
      </trkpt>
      <trkpt lat="42.45593333" lon="1.45144">
        <ele>1719.0</ele>
        <time>2019-08-04T11:52:25.334Z</time>
      </trkpt>
      <trkpt lat="42.45594333" lon="1.45139333">
        <ele>1719.0</ele>
        <time>2019-08-04T11:52:26.317Z</time>
      </trkpt>
      <trkpt lat="42.45594333" lon="1.45139333">
        <ele>1719.0</ele>
        <time>2019-08-04T11:52:27.308Z</time>
      </trkpt>
      <trkpt lat="42.455945" lon="1.45134667">
        <ele>1720.0</ele>
        <time>2019-08-04T11:52:28.328Z</time>
      </trkpt>
      <trkpt lat="42.455945" lon="1.45134667">
        <ele>1720.0</ele>
        <time>2019-08-04T11:52:29.325Z</time>
      </trkpt>
      <trkpt lat="42.45593667" lon="1.45130333">
        <ele>1720.0</ele>
        <time>2019-08-04T11:52:30.303Z</time>
      </trkpt>
      <trkpt lat="42.45593667" lon="1.45130333">
        <ele>1720.0</ele>
        <time>2019-08-04T11:52:31.310Z</time>
      </trkpt>
      <trkpt lat="42.45592167" lon="1.45125667">
        <ele>1721.0</ele>
        <time>2019-08-04T11:52:32.335Z</time>
      </trkpt>
      <trkpt lat="42.45592167" lon="1.45125667">
        <ele>1721.0</ele>
        <time>2019-08-04T11:52:33.316Z</time>
      </trkpt>
      <trkpt lat="42.45591167" lon="1.45120833">
        <ele>1721.0</ele>
        <time>2019-08-04T11:52:34.314Z</time>
      </trkpt>
      <trkpt lat="42.45591167" lon="1.45120833">
        <ele>1721.0</ele>
        <time>2019-08-04T11:52:35.318Z</time>
      </trkpt>
      <trkpt lat="42.4559" lon="1.45115833">
        <ele>1722.0</ele>
        <time>2019-08-04T11:52:36.314Z</time>
      </trkpt>
      <trkpt lat="42.4559" lon="1.45115833">
        <ele>1722.0</ele>
        <time>2019-08-04T11:52:37.306Z</time>
      </trkpt>
      <trkpt lat="42.45589167" lon="1.45111167">
        <ele>1722.0</ele>
        <time>2019-08-04T11:52:38.328Z</time>
      </trkpt>
      <trkpt lat="42.45589167" lon="1.45111167">
        <ele>1722.0</ele>
        <time>2019-08-04T11:52:39.310Z</time>
      </trkpt>
      <trkpt lat="42.45588667" lon="1.45106333">
        <ele>1723.0</ele>
        <time>2019-08-04T11:52:40.335Z</time>
      </trkpt>
      <trkpt lat="42.45589" lon="1.45103833">
        <ele>1723.0</ele>
        <time>2019-08-04T11:52:41.329Z</time>
      </trkpt>
      <trkpt lat="42.45589" lon="1.45103833">
        <ele>1723.0</ele>
        <time>2019-08-04T11:52:42.320Z</time>
      </trkpt>
      <trkpt lat="42.45588833" lon="1.45098667">
        <ele>1723.0</ele>
        <time>2019-08-04T11:52:43.315Z</time>
      </trkpt>
      <trkpt lat="42.45589" lon="1.45095833">
        <ele>1723.0</ele>
        <time>2019-08-04T11:52:44.317Z</time>
      </trkpt>
      <trkpt lat="42.45589" lon="1.45095833">
        <ele>1723.0</ele>
        <time>2019-08-04T11:52:45.315Z</time>
      </trkpt>
      <trkpt lat="42.45589667" lon="1.45090833">
        <ele>1724.0</ele>
        <time>2019-08-04T11:52:46.316Z</time>
      </trkpt>
      <trkpt lat="42.45589667" lon="1.45090833">
        <ele>1724.0</ele>
        <time>2019-08-04T11:52:47.307Z</time>
      </trkpt>
      <trkpt lat="42.45590667" lon="1.45085833">
        <ele>1724.0</ele>
        <time>2019-08-04T11:52:48.317Z</time>
      </trkpt>
      <trkpt lat="42.45590667" lon="1.45085833">
        <ele>1724.0</ele>
        <time>2019-08-04T11:52:49.313Z</time>
      </trkpt>
      <trkpt lat="42.45592167" lon="1.45081167">
        <ele>1724.0</ele>
        <time>2019-08-04T11:52:50.335Z</time>
      </trkpt>
      <trkpt lat="42.45592167" lon="1.45081167">
        <ele>1724.0</ele>
        <time>2019-08-04T11:52:51.315Z</time>
      </trkpt>
      <trkpt lat="42.45592833" lon="1.45075667">
        <ele>1725.0</ele>
        <time>2019-08-04T11:52:52.330Z</time>
      </trkpt>
      <trkpt lat="42.45592833" lon="1.45075667">
        <ele>1725.0</ele>
        <time>2019-08-04T11:52:53.312Z</time>
      </trkpt>
      <trkpt lat="42.45593667" lon="1.45070667">
        <ele>1725.0</ele>
        <time>2019-08-04T11:52:54.315Z</time>
      </trkpt>
      <trkpt lat="42.45593667" lon="1.45070667">
        <ele>1725.0</ele>
        <time>2019-08-04T11:52:55.315Z</time>
      </trkpt>
      <trkpt lat="42.45594667" lon="1.45066">
        <ele>1726.0</ele>
        <time>2019-08-04T11:52:56.316Z</time>
      </trkpt>
      <trkpt lat="42.45594667" lon="1.45066">
        <ele>1726.0</ele>
        <time>2019-08-04T11:52:57.303Z</time>
      </trkpt>
      <trkpt lat="42.455955" lon="1.450615">
        <ele>1726.0</ele>
        <time>2019-08-04T11:52:58.327Z</time>
      </trkpt>
      <trkpt lat="42.455955" lon="1.450615">
        <ele>1726.0</ele>
        <time>2019-08-04T11:52:59.313Z</time>
      </trkpt>
      <trkpt lat="42.45597" lon="1.45056">
        <ele>1726.0</ele>
        <time>2019-08-04T11:53:00.315Z</time>
      </trkpt>
      <trkpt lat="42.45597" lon="1.45056">
        <ele>1726.0</ele>
        <time>2019-08-04T11:53:01.308Z</time>
      </trkpt>
      <trkpt lat="42.45598167" lon="1.45050833">
        <ele>1727.0</ele>
        <time>2019-08-04T11:53:02.335Z</time>
      </trkpt>
      <trkpt lat="42.45598167" lon="1.45050833">
        <ele>1727.0</ele>
        <time>2019-08-04T11:53:03.316Z</time>
      </trkpt>
      <trkpt lat="42.45598833" lon="1.450455">
        <ele>1727.0</ele>
        <time>2019-08-04T11:53:04.314Z</time>
      </trkpt>
      <trkpt lat="42.45598833" lon="1.450455">
        <ele>1727.0</ele>
        <time>2019-08-04T11:53:05.308Z</time>
      </trkpt>
      <trkpt lat="42.45599667" lon="1.45040167">
        <ele>1728.0</ele>
        <time>2019-08-04T11:53:06.328Z</time>
      </trkpt>
      <trkpt lat="42.45599667" lon="1.45040167">
        <ele>1728.0</ele>
        <time>2019-08-04T11:53:07.314Z</time>
      </trkpt>
      <trkpt lat="42.45600167" lon="1.45034833">
        <ele>1728.0</ele>
        <time>2019-08-04T11:53:08.314Z</time>
      </trkpt>
      <trkpt lat="42.45601" lon="1.45032">
        <ele>1729.0</ele>
        <time>2019-08-04T11:53:09.316Z</time>
      </trkpt>
      <trkpt lat="42.45601" lon="1.45032">
        <ele>1729.0</ele>
        <time>2019-08-04T11:53:10.308Z</time>
      </trkpt>
      <trkpt lat="42.45602167" lon="1.45026667">
        <ele>1729.0</ele>
        <time>2019-08-04T11:53:11.335Z</time>
      </trkpt>
      <trkpt lat="42.45602167" lon="1.45026667">
        <ele>1729.0</ele>
        <time>2019-08-04T11:53:12.320Z</time>
      </trkpt>
      <trkpt lat="42.456025" lon="1.45020833">
        <ele>1730.0</ele>
        <time>2019-08-04T11:53:13.312Z</time>
      </trkpt>
      <trkpt lat="42.45602667" lon="1.45018">
        <ele>1730.0</ele>
        <time>2019-08-04T11:53:14.335Z</time>
      </trkpt>
      <trkpt lat="42.45602667" lon="1.45018">
        <ele>1730.0</ele>
        <time>2019-08-04T11:53:15.315Z</time>
      </trkpt>
      <trkpt lat="42.45602667" lon="1.45012667">
        <ele>1731.0</ele>
        <time>2019-08-04T11:53:16.315Z</time>
      </trkpt>
      <trkpt lat="42.45602667" lon="1.45012667">
        <ele>1731.0</ele>
        <time>2019-08-04T11:53:17.308Z</time>
      </trkpt>
      <trkpt lat="42.45603667" lon="1.45007333">
        <ele>1731.0</ele>
        <time>2019-08-04T11:53:18.312Z</time>
      </trkpt>
      <trkpt lat="42.45603667" lon="1.45007333">
        <ele>1731.0</ele>
        <time>2019-08-04T11:53:19.308Z</time>
      </trkpt>
      <trkpt lat="42.45604167" lon="1.45001833">
        <ele>1732.0</ele>
        <time>2019-08-04T11:53:20.329Z</time>
      </trkpt>
      <trkpt lat="42.45604167" lon="1.45001833">
        <ele>1732.0</ele>
        <time>2019-08-04T11:53:21.311Z</time>
      </trkpt>
      <trkpt lat="42.45605" lon="1.44996333">
        <ele>1732.0</ele>
        <time>2019-08-04T11:53:22.329Z</time>
      </trkpt>
      <trkpt lat="42.45605" lon="1.44996333">
        <ele>1732.0</ele>
        <time>2019-08-04T11:53:23.311Z</time>
      </trkpt>
      <trkpt lat="42.45605667" lon="1.44991167">
        <ele>1732.0</ele>
        <time>2019-08-04T11:53:24.316Z</time>
      </trkpt>
      <trkpt lat="42.45605667" lon="1.44991167">
        <ele>1732.0</ele>
        <time>2019-08-04T11:53:25.308Z</time>
      </trkpt>
      <trkpt lat="42.45605667" lon="1.44985833">
        <ele>1733.0</ele>
        <time>2019-08-04T11:53:26.328Z</time>
      </trkpt>
      <trkpt lat="42.45605667" lon="1.44985833">
        <ele>1733.0</ele>
        <time>2019-08-04T11:53:27.308Z</time>
      </trkpt>
      <trkpt lat="42.45606167" lon="1.44980667">
        <ele>1733.0</ele>
        <time>2019-08-04T11:53:28.328Z</time>
      </trkpt>
      <trkpt lat="42.45606167" lon="1.44980667">
        <ele>1733.0</ele>
        <time>2019-08-04T11:53:29.328Z</time>
      </trkpt>
      <trkpt lat="42.456065" lon="1.44975667">
        <ele>1733.0</ele>
        <time>2019-08-04T11:53:30.302Z</time>
      </trkpt>
      <trkpt lat="42.456065" lon="1.44975667">
        <ele>1733.0</ele>
        <time>2019-08-04T11:53:31.308Z</time>
      </trkpt>
      <trkpt lat="42.45606667" lon="1.44970333">
        <ele>1734.0</ele>
        <time>2019-08-04T11:53:32.334Z</time>
      </trkpt>
      <trkpt lat="42.45606667" lon="1.44970333">
        <ele>1734.0</ele>
        <time>2019-08-04T11:53:33.314Z</time>
      </trkpt>
      <trkpt lat="42.45606833" lon="1.44965833">
        <ele>1734.0</ele>
        <time>2019-08-04T11:53:34.314Z</time>
      </trkpt>
      <trkpt lat="42.45606833" lon="1.44965833">
        <ele>1734.0</ele>
        <time>2019-08-04T11:53:35.308Z</time>
      </trkpt>
      <trkpt lat="42.45607" lon="1.449605">
        <ele>1734.0</ele>
        <time>2019-08-04T11:53:36.312Z</time>
      </trkpt>
      <trkpt lat="42.45607167" lon="1.44958">
        <ele>1734.0</ele>
        <time>2019-08-04T11:53:37.318Z</time>
      </trkpt>
      <trkpt lat="42.45608" lon="1.449555">
        <ele>1734.0</ele>
        <time>2019-08-04T11:53:38.317Z</time>
      </trkpt>
      <trkpt lat="42.45608" lon="1.449555">
        <ele>1734.0</ele>
        <time>2019-08-04T11:53:39.308Z</time>
      </trkpt>
      <trkpt lat="42.45608667" lon="1.449505">
        <ele>1735.0</ele>
        <time>2019-08-04T11:53:40.315Z</time>
      </trkpt>
      <trkpt lat="42.45608667" lon="1.449505">
        <ele>1735.0</ele>
        <time>2019-08-04T11:53:41.308Z</time>
      </trkpt>
      <trkpt lat="42.456095" lon="1.44945333">
        <ele>1736.0</ele>
        <time>2019-08-04T11:53:42.308Z</time>
      </trkpt>
      <trkpt lat="42.456095" lon="1.44945333">
        <ele>1736.0</ele>
        <time>2019-08-04T11:53:43.309Z</time>
      </trkpt>
      <trkpt lat="42.45610833" lon="1.44940333">
        <ele>1736.0</ele>
        <time>2019-08-04T11:53:44.332Z</time>
      </trkpt>
      <trkpt lat="42.45610833" lon="1.44940333">
        <ele>1736.0</ele>
        <time>2019-08-04T11:53:45.313Z</time>
      </trkpt>
      <trkpt lat="42.45611667" lon="1.44935833">
        <ele>1737.0</ele>
        <time>2019-08-04T11:53:46.312Z</time>
      </trkpt>
      <trkpt lat="42.45611667" lon="1.44935833">
        <ele>1737.0</ele>
        <time>2019-08-04T11:53:47.310Z</time>
      </trkpt>
      <trkpt lat="42.45613167" lon="1.449315">
        <ele>1737.0</ele>
        <time>2019-08-04T11:53:48.327Z</time>
      </trkpt>
      <trkpt lat="42.45613167" lon="1.449315">
        <ele>1737.0</ele>
        <time>2019-08-04T11:53:49.309Z</time>
      </trkpt>
      <trkpt lat="42.45615167" lon="1.44927">
        <ele>1737.0</ele>
        <time>2019-08-04T11:53:50.330Z</time>
      </trkpt>
      <trkpt lat="42.45615167" lon="1.44927">
        <ele>1737.0</ele>
        <time>2019-08-04T11:53:51.311Z</time>
      </trkpt>
      <trkpt lat="42.45617" lon="1.449225">
        <ele>1738.0</ele>
        <time>2019-08-04T11:53:52.328Z</time>
      </trkpt>
      <trkpt lat="42.45617" lon="1.449225">
        <ele>1738.0</ele>
        <time>2019-08-04T11:53:53.311Z</time>
      </trkpt>
      <trkpt lat="42.45619333" lon="1.44918333">
        <ele>1738.0</ele>
        <time>2019-08-04T11:53:54.312Z</time>
      </trkpt>
      <trkpt lat="42.45619333" lon="1.44918333">
        <ele>1738.0</ele>
        <time>2019-08-04T11:53:55.301Z</time>
      </trkpt>
      <trkpt lat="42.456215" lon="1.44914">
        <ele>1738.0</ele>
        <time>2019-08-04T11:53:56.325Z</time>
      </trkpt>
      <trkpt lat="42.45622833" lon="1.44911667">
        <ele>1738.0</ele>
        <time>2019-08-04T11:53:57.298Z</time>
      </trkpt>
      <trkpt lat="42.45622833" lon="1.44911667">
        <ele>1738.0</ele>
        <time>2019-08-04T11:53:58.303Z</time>
      </trkpt>
      <trkpt lat="42.456245" lon="1.44906667">
        <ele>1739.0</ele>
        <time>2019-08-04T11:53:59.310Z</time>
      </trkpt>
      <trkpt lat="42.45625" lon="1.44904">
        <ele>1739.0</ele>
        <time>2019-08-04T11:54:00.316Z</time>
      </trkpt>
      <trkpt lat="42.45625" lon="1.44904">
        <ele>1739.0</ele>
        <time>2019-08-04T11:54:01.308Z</time>
      </trkpt>
      <trkpt lat="42.45625833" lon="1.44898667">
        <ele>1740.0</ele>
        <time>2019-08-04T11:54:02.334Z</time>
      </trkpt>
      <trkpt lat="42.45625833" lon="1.44898667">
        <ele>1740.0</ele>
        <time>2019-08-04T11:54:03.315Z</time>
      </trkpt>
      <trkpt lat="42.45626333" lon="1.448935">
        <ele>1741.0</ele>
        <time>2019-08-04T11:54:04.312Z</time>
      </trkpt>
      <trkpt lat="42.45626333" lon="1.448935">
        <ele>1741.0</ele>
        <time>2019-08-04T11:54:05.327Z</time>
      </trkpt>
      <trkpt lat="42.45627167" lon="1.44888833">
        <ele>1741.0</ele>
        <time>2019-08-04T11:54:06.315Z</time>
      </trkpt>
      <trkpt lat="42.45627167" lon="1.44888833">
        <ele>1741.0</ele>
        <time>2019-08-04T11:54:07.308Z</time>
      </trkpt>
      <trkpt lat="42.45627833" lon="1.44884167">
        <ele>1742.0</ele>
        <time>2019-08-04T11:54:08.327Z</time>
      </trkpt>
      <trkpt lat="42.45627833" lon="1.44884167">
        <ele>1742.0</ele>
        <time>2019-08-04T11:54:09.308Z</time>
      </trkpt>
      <trkpt lat="42.45629167" lon="1.44879167">
        <ele>1742.0</ele>
        <time>2019-08-04T11:54:10.328Z</time>
      </trkpt>
      <trkpt lat="42.45629167" lon="1.44879167">
        <ele>1742.0</ele>
        <time>2019-08-04T11:54:11.308Z</time>
      </trkpt>
      <trkpt lat="42.45630167" lon="1.44874333">
        <ele>1742.0</ele>
        <time>2019-08-04T11:54:12.301Z</time>
      </trkpt>
      <trkpt lat="42.45630333" lon="1.44871667">
        <ele>1742.0</ele>
        <time>2019-08-04T11:54:13.323Z</time>
      </trkpt>
      <trkpt lat="42.45629833" lon="1.44869167">
        <ele>1743.0</ele>
        <time>2019-08-04T11:54:14.327Z</time>
      </trkpt>
      <trkpt lat="42.45629833" lon="1.44869167">
        <ele>1743.0</ele>
        <time>2019-08-04T11:54:15.310Z</time>
      </trkpt>
      <trkpt lat="42.456285" lon="1.44864333">
        <ele>1743.0</ele>
        <time>2019-08-04T11:54:16.315Z</time>
      </trkpt>
      <trkpt lat="42.456285" lon="1.44864333">
        <ele>1743.0</ele>
        <time>2019-08-04T11:54:17.319Z</time>
      </trkpt>
      <trkpt lat="42.45627333" lon="1.44859167">
        <ele>1744.0</ele>
        <time>2019-08-04T11:54:18.312Z</time>
      </trkpt>
      <trkpt lat="42.45627333" lon="1.44859167">
        <ele>1744.0</ele>
        <time>2019-08-04T11:54:19.309Z</time>
      </trkpt>
      <trkpt lat="42.45626" lon="1.44853833">
        <ele>1745.0</ele>
        <time>2019-08-04T11:54:20.330Z</time>
      </trkpt>
      <trkpt lat="42.45626" lon="1.44853833">
        <ele>1745.0</ele>
        <time>2019-08-04T11:54:21.312Z</time>
      </trkpt>
      <trkpt lat="42.45624833" lon="1.448485">
        <ele>1745.0</ele>
        <time>2019-08-04T11:54:22.329Z</time>
      </trkpt>
      <trkpt lat="42.456245" lon="1.44845833">
        <ele>1745.0</ele>
        <time>2019-08-04T11:54:23.312Z</time>
      </trkpt>
      <trkpt lat="42.456245" lon="1.44845833">
        <ele>1745.0</ele>
        <time>2019-08-04T11:54:24.308Z</time>
      </trkpt>
      <trkpt lat="42.45623833" lon="1.448405">
        <ele>1745.0</ele>
        <time>2019-08-04T11:54:25.312Z</time>
      </trkpt>
      <trkpt lat="42.45623667" lon="1.44837667">
        <ele>1746.0</ele>
        <time>2019-08-04T11:54:26.335Z</time>
      </trkpt>
      <trkpt lat="42.45623667" lon="1.44837667">
        <ele>1746.0</ele>
        <time>2019-08-04T11:54:27.316Z</time>
      </trkpt>
      <trkpt lat="42.45623" lon="1.44832333">
        <ele>1746.0</ele>
        <time>2019-08-04T11:54:28.316Z</time>
      </trkpt>
      <trkpt lat="42.45623" lon="1.44832333">
        <ele>1746.0</ele>
        <time>2019-08-04T11:54:29.316Z</time>
      </trkpt>
      <trkpt lat="42.45622167" lon="1.44827333">
        <ele>1746.0</ele>
        <time>2019-08-04T11:54:30.327Z</time>
      </trkpt>
      <trkpt lat="42.45622167" lon="1.44827333">
        <ele>1746.0</ele>
        <time>2019-08-04T11:54:31.334Z</time>
      </trkpt>
      <trkpt lat="42.45621667" lon="1.44822167">
        <ele>1747.0</ele>
        <time>2019-08-04T11:54:32.303Z</time>
      </trkpt>
      <trkpt lat="42.45621667" lon="1.44822167">
        <ele>1747.0</ele>
        <time>2019-08-04T11:54:33.327Z</time>
      </trkpt>
      <trkpt lat="42.45620667" lon="1.44817167">
        <ele>1747.0</ele>
        <time>2019-08-04T11:54:34.315Z</time>
      </trkpt>
      <trkpt lat="42.45620667" lon="1.44817167">
        <ele>1747.0</ele>
        <time>2019-08-04T11:54:35.308Z</time>
      </trkpt>
      <trkpt lat="42.4562" lon="1.44811667">
        <ele>1748.0</ele>
        <time>2019-08-04T11:54:36.329Z</time>
      </trkpt>
      <trkpt lat="42.4562" lon="1.44811667">
        <ele>1748.0</ele>
        <time>2019-08-04T11:54:37.310Z</time>
      </trkpt>
      <trkpt lat="42.456195" lon="1.44805833">
        <ele>1748.0</ele>
        <time>2019-08-04T11:54:38.318Z</time>
      </trkpt>
      <trkpt lat="42.456195" lon="1.44805833">
        <ele>1748.0</ele>
        <time>2019-08-04T11:54:39.309Z</time>
      </trkpt>
      <trkpt lat="42.45619333" lon="1.44800333">
        <ele>1749.0</ele>
        <time>2019-08-04T11:54:40.318Z</time>
      </trkpt>
      <trkpt lat="42.45619333" lon="1.44800333">
        <ele>1749.0</ele>
        <time>2019-08-04T11:54:41.310Z</time>
      </trkpt>
      <trkpt lat="42.45619167" lon="1.44795167">
        <ele>1749.0</ele>
        <time>2019-08-04T11:54:42.305Z</time>
      </trkpt>
      <trkpt lat="42.45619167" lon="1.44795167">
        <ele>1749.0</ele>
        <time>2019-08-04T11:54:43.327Z</time>
      </trkpt>
      <trkpt lat="42.45618" lon="1.4479">
        <ele>1750.0</ele>
        <time>2019-08-04T11:54:44.317Z</time>
      </trkpt>
      <trkpt lat="42.45618" lon="1.4479">
        <ele>1750.0</ele>
        <time>2019-08-04T11:54:45.313Z</time>
      </trkpt>
      <trkpt lat="42.45616833" lon="1.44784833">
        <ele>1750.0</ele>
        <time>2019-08-04T11:54:46.312Z</time>
      </trkpt>
      <trkpt lat="42.45616833" lon="1.44784833">
        <ele>1750.0</ele>
        <time>2019-08-04T11:54:47.327Z</time>
      </trkpt>
      <trkpt lat="42.45615167" lon="1.4478">
        <ele>1750.0</ele>
        <time>2019-08-04T11:54:48.311Z</time>
      </trkpt>
      <trkpt lat="42.45614333" lon="1.44777667">
        <ele>1751.0</ele>
        <time>2019-08-04T11:54:49.318Z</time>
      </trkpt>
      <trkpt lat="42.45613167" lon="1.44775333">
        <ele>1751.0</ele>
        <time>2019-08-04T11:54:50.317Z</time>
      </trkpt>
      <trkpt lat="42.45613167" lon="1.44775333">
        <ele>1751.0</ele>
        <time>2019-08-04T11:54:51.311Z</time>
      </trkpt>
      <trkpt lat="42.45611167" lon="1.44770833">
        <ele>1751.0</ele>
        <time>2019-08-04T11:54:52.305Z</time>
      </trkpt>
      <trkpt lat="42.45611167" lon="1.44770833">
        <ele>1751.0</ele>
        <time>2019-08-04T11:54:53.329Z</time>
      </trkpt>
      <trkpt lat="42.45609" lon="1.44766333">
        <ele>1752.0</ele>
        <time>2019-08-04T11:54:54.312Z</time>
      </trkpt>
      <trkpt lat="42.45609" lon="1.44766333">
        <ele>1752.0</ele>
        <time>2019-08-04T11:54:55.313Z</time>
      </trkpt>
      <trkpt lat="42.45606833" lon="1.44762333">
        <ele>1752.0</ele>
        <time>2019-08-04T11:54:56.318Z</time>
      </trkpt>
      <trkpt lat="42.45606833" lon="1.44762333">
        <ele>1752.0</ele>
        <time>2019-08-04T11:54:57.309Z</time>
      </trkpt>
      <trkpt lat="42.45605167" lon="1.44757833">
        <ele>1753.0</ele>
        <time>2019-08-04T11:54:58.328Z</time>
      </trkpt>
      <trkpt lat="42.45604333" lon="1.44755333">
        <ele>1753.0</ele>
        <time>2019-08-04T11:54:59.315Z</time>
      </trkpt>
      <trkpt lat="42.45604333" lon="1.44755333">
        <ele>1753.0</ele>
        <time>2019-08-04T11:55:00.311Z</time>
      </trkpt>
      <trkpt lat="42.45602833" lon="1.447505">
        <ele>1754.0</ele>
        <time>2019-08-04T11:55:01.312Z</time>
      </trkpt>
      <trkpt lat="42.45602" lon="1.44748167">
        <ele>1754.0</ele>
        <time>2019-08-04T11:55:02.307Z</time>
      </trkpt>
      <trkpt lat="42.45602" lon="1.44748167">
        <ele>1754.0</ele>
        <time>2019-08-04T11:55:03.328Z</time>
      </trkpt>
      <trkpt lat="42.45600667" lon="1.44743">
        <ele>1754.0</ele>
        <time>2019-08-04T11:55:04.315Z</time>
      </trkpt>
      <trkpt lat="42.45600667" lon="1.44743">
        <ele>1754.0</ele>
        <time>2019-08-04T11:55:05.313Z</time>
      </trkpt>
      <trkpt lat="42.45599" lon="1.44738167">
        <ele>1755.0</ele>
        <time>2019-08-04T11:55:06.313Z</time>
      </trkpt>
      <trkpt lat="42.45599" lon="1.44738167">
        <ele>1755.0</ele>
        <time>2019-08-04T11:55:07.309Z</time>
      </trkpt>
      <trkpt lat="42.45596833" lon="1.44733833">
        <ele>1755.0</ele>
        <time>2019-08-04T11:55:08.316Z</time>
      </trkpt>
      <trkpt lat="42.455955" lon="1.44731667">
        <ele>1755.0</ele>
        <time>2019-08-04T11:55:09.316Z</time>
      </trkpt>
      <trkpt lat="42.45594" lon="1.44729667">
        <ele>1756.0</ele>
        <time>2019-08-04T11:55:10.314Z</time>
      </trkpt>
      <trkpt lat="42.45594" lon="1.44729667">
        <ele>1756.0</ele>
        <time>2019-08-04T11:55:11.309Z</time>
      </trkpt>
      <trkpt lat="42.455905" lon="1.44726167">
        <ele>1756.0</ele>
        <time>2019-08-04T11:55:12.336Z</time>
      </trkpt>
      <trkpt lat="42.455905" lon="1.44726167">
        <ele>1756.0</ele>
        <time>2019-08-04T11:55:13.315Z</time>
      </trkpt>
      <trkpt lat="42.45587" lon="1.44722833">
        <ele>1756.0</ele>
        <time>2019-08-04T11:55:14.317Z</time>
      </trkpt>
      <trkpt lat="42.45587" lon="1.44722833">
        <ele>1756.0</ele>
        <time>2019-08-04T11:55:15.311Z</time>
      </trkpt>
      <trkpt lat="42.455835" lon="1.44719">
        <ele>1757.0</ele>
        <time>2019-08-04T11:55:16.316Z</time>
      </trkpt>
      <trkpt lat="42.455835" lon="1.44719">
        <ele>1757.0</ele>
        <time>2019-08-04T11:55:17.313Z</time>
      </trkpt>
      <trkpt lat="42.45579667" lon="1.44715833">
        <ele>1757.0</ele>
        <time>2019-08-04T11:55:18.317Z</time>
      </trkpt>
      <trkpt lat="42.45577833" lon="1.44714167">
        <ele>1757.0</ele>
        <time>2019-08-04T11:55:19.312Z</time>
      </trkpt>
      <trkpt lat="42.45576" lon="1.447125">
        <ele>1757.0</ele>
        <time>2019-08-04T11:55:20.336Z</time>
      </trkpt>
      <trkpt lat="42.45574333" lon="1.447105">
        <ele>1757.0</ele>
        <time>2019-08-04T11:55:21.297Z</time>
      </trkpt>
      <trkpt lat="42.45574333" lon="1.447105">
        <ele>1757.0</ele>
        <time>2019-08-04T11:55:22.303Z</time>
      </trkpt>
      <trkpt lat="42.45571333" lon="1.44706333">
        <ele>1758.0</ele>
        <time>2019-08-04T11:55:23.311Z</time>
      </trkpt>
      <trkpt lat="42.4557" lon="1.44704">
        <ele>1758.0</ele>
        <time>2019-08-04T11:55:24.317Z</time>
      </trkpt>
      <trkpt lat="42.4557" lon="1.44704">
        <ele>1758.0</ele>
        <time>2019-08-04T11:55:25.322Z</time>
      </trkpt>
      <trkpt lat="42.45567667" lon="1.44699167">
        <ele>1758.0</ele>
        <time>2019-08-04T11:55:26.317Z</time>
      </trkpt>
      <trkpt lat="42.45567667" lon="1.44699167">
        <ele>1758.0</ele>
        <time>2019-08-04T11:55:27.309Z</time>
      </trkpt>
      <trkpt lat="42.45565333" lon="1.44694333">
        <ele>1758.0</ele>
        <time>2019-08-04T11:55:28.313Z</time>
      </trkpt>
      <trkpt lat="42.45565333" lon="1.44694333">
        <ele>1758.0</ele>
        <time>2019-08-04T11:55:29.301Z</time>
      </trkpt>
      <trkpt lat="42.45564" lon="1.44689">
        <ele>1759.0</ele>
        <time>2019-08-04T11:55:30.313Z</time>
      </trkpt>
      <trkpt lat="42.45564" lon="1.44689">
        <ele>1759.0</ele>
        <time>2019-08-04T11:55:31.319Z</time>
      </trkpt>
      <trkpt lat="42.455625" lon="1.44683833">
        <ele>1759.0</ele>
        <time>2019-08-04T11:55:32.329Z</time>
      </trkpt>
      <trkpt lat="42.455625" lon="1.44683833">
        <ele>1759.0</ele>
        <time>2019-08-04T11:55:33.311Z</time>
      </trkpt>
      <trkpt lat="42.45561" lon="1.44678667">
        <ele>1759.0</ele>
        <time>2019-08-04T11:55:34.315Z</time>
      </trkpt>
      <trkpt lat="42.45561" lon="1.44678667">
        <ele>1759.0</ele>
        <time>2019-08-04T11:55:35.322Z</time>
      </trkpt>
      <trkpt lat="42.455595" lon="1.44673667">
        <ele>1760.0</ele>
        <time>2019-08-04T11:55:36.316Z</time>
      </trkpt>
      <trkpt lat="42.455595" lon="1.44673667">
        <ele>1760.0</ele>
        <time>2019-08-04T11:55:37.308Z</time>
      </trkpt>
      <trkpt lat="42.45558167" lon="1.44668333">
        <ele>1760.0</ele>
        <time>2019-08-04T11:55:38.329Z</time>
      </trkpt>
      <trkpt lat="42.45558167" lon="1.44668333">
        <ele>1760.0</ele>
        <time>2019-08-04T11:55:39.314Z</time>
      </trkpt>
      <trkpt lat="42.45557167" lon="1.44663">
        <ele>1760.0</ele>
        <time>2019-08-04T11:55:40.312Z</time>
      </trkpt>
      <trkpt lat="42.45556667" lon="1.44660167">
        <ele>1760.0</ele>
        <time>2019-08-04T11:55:41.317Z</time>
      </trkpt>
      <trkpt lat="42.45556667" lon="1.44660167">
        <ele>1760.0</ele>
        <time>2019-08-04T11:55:42.328Z</time>
      </trkpt>
      <trkpt lat="42.45556" lon="1.44654833">
        <ele>1761.0</ele>
        <time>2019-08-04T11:55:43.320Z</time>
      </trkpt>
      <trkpt lat="42.455555" lon="1.44652167">
        <ele>1761.0</ele>
        <time>2019-08-04T11:55:44.318Z</time>
      </trkpt>
      <trkpt lat="42.455555" lon="1.44652167">
        <ele>1761.0</ele>
        <time>2019-08-04T11:55:45.310Z</time>
      </trkpt>
      <trkpt lat="42.45555" lon="1.44646667">
        <ele>1761.0</ele>
        <time>2019-08-04T11:55:46.313Z</time>
      </trkpt>
      <trkpt lat="42.45555" lon="1.44646667">
        <ele>1761.0</ele>
        <time>2019-08-04T11:55:47.309Z</time>
      </trkpt>
      <trkpt lat="42.45554667" lon="1.44641333">
        <ele>1761.0</ele>
        <time>2019-08-04T11:55:48.313Z</time>
      </trkpt>
      <trkpt lat="42.45554667" lon="1.44641333">
        <ele>1761.0</ele>
        <time>2019-08-04T11:55:49.311Z</time>
      </trkpt>
      <trkpt lat="42.45554333" lon="1.44636167">
        <ele>1762.0</ele>
        <time>2019-08-04T11:55:50.319Z</time>
      </trkpt>
      <trkpt lat="42.45554333" lon="1.44636167">
        <ele>1762.0</ele>
        <time>2019-08-04T11:55:51.309Z</time>
      </trkpt>
      <trkpt lat="42.455535" lon="1.44631">
        <ele>1762.0</ele>
        <time>2019-08-04T11:55:52.336Z</time>
      </trkpt>
      <trkpt lat="42.45553167" lon="1.44628333">
        <ele>1762.0</ele>
        <time>2019-08-04T11:55:53.318Z</time>
      </trkpt>
      <trkpt lat="42.45553" lon="1.44625667">
        <ele>1763.0</ele>
        <time>2019-08-04T11:55:54.317Z</time>
      </trkpt>
      <trkpt lat="42.45553" lon="1.44625667">
        <ele>1763.0</ele>
        <time>2019-08-04T11:55:55.314Z</time>
      </trkpt>
      <trkpt lat="42.45552667" lon="1.44620333">
        <ele>1763.0</ele>
        <time>2019-08-04T11:55:56.296Z</time>
      </trkpt>
      <trkpt lat="42.45552333" lon="1.44617667">
        <ele>1763.0</ele>
        <time>2019-08-04T11:55:57.317Z</time>
      </trkpt>
      <trkpt lat="42.45552333" lon="1.44617667">
        <ele>1763.0</ele>
        <time>2019-08-04T11:55:58.315Z</time>
      </trkpt>
      <trkpt lat="42.45552" lon="1.44612667">
        <ele>1764.0</ele>
        <time>2019-08-04T11:55:59.315Z</time>
      </trkpt>
      <trkpt lat="42.45551667" lon="1.44610167">
        <ele>1764.0</ele>
        <time>2019-08-04T11:56:00.316Z</time>
      </trkpt>
      <trkpt lat="42.45551667" lon="1.44610167">
        <ele>1764.0</ele>
        <time>2019-08-04T11:56:01.310Z</time>
      </trkpt>
      <trkpt lat="42.45550833" lon="1.44605333">
        <ele>1764.0</ele>
        <time>2019-08-04T11:56:02.299Z</time>
      </trkpt>
      <trkpt lat="42.455505" lon="1.44602667">
        <ele>1764.0</ele>
        <time>2019-08-04T11:56:03.321Z</time>
      </trkpt>
      <trkpt lat="42.455505" lon="1.44602667">
        <ele>1764.0</ele>
        <time>2019-08-04T11:56:04.313Z</time>
      </trkpt>
      <trkpt lat="42.45550167" lon="1.445975">
        <ele>1765.0</ele>
        <time>2019-08-04T11:56:05.296Z</time>
      </trkpt>
      <trkpt lat="42.45550167" lon="1.44594833">
        <ele>1765.0</ele>
        <time>2019-08-04T11:56:06.317Z</time>
      </trkpt>
      <trkpt lat="42.45550167" lon="1.44594833">
        <ele>1765.0</ele>
        <time>2019-08-04T11:56:07.312Z</time>
      </trkpt>
      <trkpt lat="42.45549" lon="1.445895">
        <ele>1765.0</ele>
        <time>2019-08-04T11:56:08.335Z</time>
      </trkpt>
      <trkpt lat="42.45549" lon="1.445895">
        <ele>1765.0</ele>
        <time>2019-08-04T11:56:09.314Z</time>
      </trkpt>
      <trkpt lat="42.45546833" lon="1.44585167">
        <ele>1765.0</ele>
        <time>2019-08-04T11:56:10.300Z</time>
      </trkpt>
      <trkpt lat="42.45545" lon="1.44584">
        <ele>1765.0</ele>
        <time>2019-08-04T11:56:11.321Z</time>
      </trkpt>
      <trkpt lat="42.45545" lon="1.44584">
        <ele>1765.0</ele>
        <time>2019-08-04T11:56:12.328Z</time>
      </trkpt>
      <trkpt lat="42.45540833" lon="1.44583667">
        <ele>1766.0</ele>
        <time>2019-08-04T11:56:13.317Z</time>
      </trkpt>
      <trkpt lat="42.45540833" lon="1.44583667">
        <ele>1766.0</ele>
        <time>2019-08-04T11:56:14.315Z</time>
      </trkpt>
      <trkpt lat="42.455365" lon="1.44583667">
        <ele>1766.0</ele>
        <time>2019-08-04T11:56:15.317Z</time>
      </trkpt>
      <trkpt lat="42.455365" lon="1.44583667">
        <ele>1766.0</ele>
        <time>2019-08-04T11:56:16.312Z</time>
      </trkpt>
      <trkpt lat="42.45532333" lon="1.445835">
        <ele>1766.0</ele>
        <time>2019-08-04T11:56:17.316Z</time>
      </trkpt>
      <trkpt lat="42.45532333" lon="1.445835">
        <ele>1766.0</ele>
        <time>2019-08-04T11:56:18.311Z</time>
      </trkpt>
      <trkpt lat="42.45528333" lon="1.44582333">
        <ele>1767.0</ele>
        <time>2019-08-04T11:56:19.315Z</time>
      </trkpt>
      <trkpt lat="42.45526333" lon="1.445815">
        <ele>1767.0</ele>
        <time>2019-08-04T11:56:20.318Z</time>
      </trkpt>
      <trkpt lat="42.45526333" lon="1.445815">
        <ele>1767.0</ele>
        <time>2019-08-04T11:56:21.309Z</time>
      </trkpt>
      <trkpt lat="42.45522667" lon="1.44579">
        <ele>1768.0</ele>
        <time>2019-08-04T11:56:22.330Z</time>
      </trkpt>
      <trkpt lat="42.45520833" lon="1.44577667">
        <ele>1768.0</ele>
        <time>2019-08-04T11:56:23.316Z</time>
      </trkpt>
      <trkpt lat="42.45520833" lon="1.44577667">
        <ele>1768.0</ele>
        <time>2019-08-04T11:56:24.310Z</time>
      </trkpt>
      <trkpt lat="42.455175" lon="1.445745">
        <ele>1769.0</ele>
        <time>2019-08-04T11:56:25.318Z</time>
      </trkpt>
      <trkpt lat="42.455175" lon="1.445745">
        <ele>1769.0</ele>
        <time>2019-08-04T11:56:26.314Z</time>
      </trkpt>
      <trkpt lat="42.45514" lon="1.44571">
        <ele>1769.0</ele>
        <time>2019-08-04T11:56:27.313Z</time>
      </trkpt>
      <trkpt lat="42.45514" lon="1.44571">
        <ele>1769.0</ele>
        <time>2019-08-04T11:56:28.310Z</time>
      </trkpt>
      <trkpt lat="42.45510333" lon="1.445675">
        <ele>1769.0</ele>
        <time>2019-08-04T11:56:29.314Z</time>
      </trkpt>
      <trkpt lat="42.455085" lon="1.44565667">
        <ele>1770.0</ele>
        <time>2019-08-04T11:56:30.328Z</time>
      </trkpt>
      <trkpt lat="42.455085" lon="1.44565667">
        <ele>1770.0</ele>
        <time>2019-08-04T11:56:31.335Z</time>
      </trkpt>
      <trkpt lat="42.45505" lon="1.44562167">
        <ele>1770.0</ele>
        <time>2019-08-04T11:56:32.298Z</time>
      </trkpt>
      <trkpt lat="42.45502833" lon="1.44560833">
        <ele>1770.0</ele>
        <time>2019-08-04T11:56:33.319Z</time>
      </trkpt>
      <trkpt lat="42.455005" lon="1.44559667">
        <ele>1771.0</ele>
        <time>2019-08-04T11:56:34.331Z</time>
      </trkpt>
      <trkpt lat="42.455005" lon="1.44559667">
        <ele>1771.0</ele>
        <time>2019-08-04T11:56:35.315Z</time>
      </trkpt>
      <trkpt lat="42.45496333" lon="1.445575">
        <ele>1771.0</ele>
        <time>2019-08-04T11:56:36.316Z</time>
      </trkpt>
      <trkpt lat="42.45496333" lon="1.445575">
        <ele>1771.0</ele>
        <time>2019-08-04T11:56:37.312Z</time>
      </trkpt>
      <trkpt lat="42.45492833" lon="1.44554167">
        <ele>1772.0</ele>
        <time>2019-08-04T11:56:38.318Z</time>
      </trkpt>
      <trkpt lat="42.45492833" lon="1.44554167">
        <ele>1772.0</ele>
        <time>2019-08-04T11:56:39.310Z</time>
      </trkpt>
      <trkpt lat="42.45489833" lon="1.44550667">
        <ele>1772.0</ele>
        <time>2019-08-04T11:56:40.316Z</time>
      </trkpt>
      <trkpt lat="42.454885" lon="1.445485">
        <ele>1772.0</ele>
        <time>2019-08-04T11:56:41.315Z</time>
      </trkpt>
      <trkpt lat="42.454885" lon="1.445485">
        <ele>1772.0</ele>
        <time>2019-08-04T11:56:42.328Z</time>
      </trkpt>
      <trkpt lat="42.45485833" lon="1.44543667">
        <ele>1773.0</ele>
        <time>2019-08-04T11:56:43.317Z</time>
      </trkpt>
      <trkpt lat="42.45484667" lon="1.44541">
        <ele>1773.0</ele>
        <time>2019-08-04T11:56:44.330Z</time>
      </trkpt>
      <trkpt lat="42.45483667" lon="1.44538333">
        <ele>1773.0</ele>
        <time>2019-08-04T11:56:45.318Z</time>
      </trkpt>
      <trkpt lat="42.45483667" lon="1.44538333">
        <ele>1773.0</ele>
        <time>2019-08-04T11:56:46.314Z</time>
      </trkpt>
      <trkpt lat="42.45481333" lon="1.44533">
        <ele>1773.0</ele>
        <time>2019-08-04T11:56:47.317Z</time>
      </trkpt>
      <trkpt lat="42.45481333" lon="1.44533">
        <ele>1773.0</ele>
        <time>2019-08-04T11:56:48.312Z</time>
      </trkpt>
      <trkpt lat="42.45479333" lon="1.44527667">
        <ele>1774.0</ele>
        <time>2019-08-04T11:56:49.320Z</time>
      </trkpt>
      <trkpt lat="42.45479333" lon="1.44527667">
        <ele>1774.0</ele>
        <time>2019-08-04T11:56:50.316Z</time>
      </trkpt>
      <trkpt lat="42.45477167" lon="1.44522333">
        <ele>1774.0</ele>
        <time>2019-08-04T11:56:51.316Z</time>
      </trkpt>
      <trkpt lat="42.45475833" lon="1.44519833">
        <ele>1774.0</ele>
        <time>2019-08-04T11:56:52.298Z</time>
      </trkpt>
      <trkpt lat="42.45475833" lon="1.44519833">
        <ele>1774.0</ele>
        <time>2019-08-04T11:56:53.318Z</time>
      </trkpt>
      <trkpt lat="42.454735" lon="1.445145">
        <ele>1775.0</ele>
        <time>2019-08-04T11:56:54.313Z</time>
      </trkpt>
      <trkpt lat="42.45472167" lon="1.44512">
        <ele>1775.0</ele>
        <time>2019-08-04T11:56:55.297Z</time>
      </trkpt>
      <trkpt lat="42.45471" lon="1.44509667">
        <ele>1775.0</ele>
        <time>2019-08-04T11:56:56.329Z</time>
      </trkpt>
      <trkpt lat="42.45471" lon="1.44509667">
        <ele>1775.0</ele>
        <time>2019-08-04T11:56:57.313Z</time>
      </trkpt>
      <trkpt lat="42.454685" lon="1.44505333">
        <ele>1775.0</ele>
        <time>2019-08-04T11:56:58.315Z</time>
      </trkpt>
      <trkpt lat="42.454675" lon="1.445035">
        <ele>1775.0</ele>
        <time>2019-08-04T11:56:59.319Z</time>
      </trkpt>
      <trkpt lat="42.454675" lon="1.445035">
        <ele>1775.0</ele>
        <time>2019-08-04T11:57:00.313Z</time>
      </trkpt>
      <trkpt lat="42.454655" lon="1.44499">
        <ele>1776.0</ele>
        <time>2019-08-04T11:57:01.316Z</time>
      </trkpt>
      <trkpt lat="42.454655" lon="1.44499">
        <ele>1776.0</ele>
        <time>2019-08-04T11:57:02.328Z</time>
      </trkpt>
      <trkpt lat="42.45463167" lon="1.444945">
        <ele>1777.0</ele>
        <time>2019-08-04T11:57:03.319Z</time>
      </trkpt>
      <trkpt lat="42.45463167" lon="1.444945">
        <ele>1777.0</ele>
        <time>2019-08-04T11:57:04.312Z</time>
      </trkpt>
      <trkpt lat="42.45460667" lon="1.44490667">
        <ele>1778.0</ele>
        <time>2019-08-04T11:57:05.318Z</time>
      </trkpt>
      <trkpt lat="42.45460667" lon="1.44490667">
        <ele>1778.0</ele>
        <time>2019-08-04T11:57:06.314Z</time>
      </trkpt>
      <trkpt lat="42.45457833" lon="1.44486333">
        <ele>1778.0</ele>
        <time>2019-08-04T11:57:07.317Z</time>
      </trkpt>
      <trkpt lat="42.45457833" lon="1.44486333">
        <ele>1778.0</ele>
        <time>2019-08-04T11:57:08.316Z</time>
      </trkpt>
      <trkpt lat="42.45455167" lon="1.44482667">
        <ele>1778.0</ele>
        <time>2019-08-04T11:57:09.318Z</time>
      </trkpt>
      <trkpt lat="42.45455167" lon="1.44482667">
        <ele>1778.0</ele>
        <time>2019-08-04T11:57:10.312Z</time>
      </trkpt>
      <trkpt lat="42.45453167" lon="1.44477833">
        <ele>1778.0</ele>
        <time>2019-08-04T11:57:11.316Z</time>
      </trkpt>
      <trkpt lat="42.45453167" lon="1.44477833">
        <ele>1778.0</ele>
        <time>2019-08-04T11:57:12.328Z</time>
      </trkpt>
      <trkpt lat="42.45451333" lon="1.444735">
        <ele>1778.0</ele>
        <time>2019-08-04T11:57:13.316Z</time>
      </trkpt>
      <trkpt lat="42.4545" lon="1.444715">
        <ele>1778.0</ele>
        <time>2019-08-04T11:57:14.318Z</time>
      </trkpt>
      <trkpt lat="42.4545" lon="1.444715">
        <ele>1778.0</ele>
        <time>2019-08-04T11:57:15.314Z</time>
      </trkpt>
      <trkpt lat="42.45447667" lon="1.44466">
        <ele>1779.0</ele>
        <time>2019-08-04T11:57:16.317Z</time>
      </trkpt>
      <trkpt lat="42.45446333" lon="1.444635">
        <ele>1780.0</ele>
        <time>2019-08-04T11:57:17.317Z</time>
      </trkpt>
      <trkpt lat="42.45446333" lon="1.444635">
        <ele>1780.0</ele>
        <time>2019-08-04T11:57:18.311Z</time>
      </trkpt>
      <trkpt lat="42.45443667" lon="1.44458833">
        <ele>1781.0</ele>
        <time>2019-08-04T11:57:19.322Z</time>
      </trkpt>
      <trkpt lat="42.45443667" lon="1.44458833">
        <ele>1781.0</ele>
        <time>2019-08-04T11:57:20.316Z</time>
      </trkpt>
      <trkpt lat="42.45442833" lon="1.44454167">
        <ele>1781.0</ele>
        <time>2019-08-04T11:57:21.328Z</time>
      </trkpt>
      <trkpt lat="42.45442833" lon="1.44454167">
        <ele>1781.0</ele>
        <time>2019-08-04T11:57:22.328Z</time>
      </trkpt>
      <trkpt lat="42.45442667" lon="1.44449833">
        <ele>1782.0</ele>
        <time>2019-08-04T11:57:23.317Z</time>
      </trkpt>
      <trkpt lat="42.45442667" lon="1.44449833">
        <ele>1782.0</ele>
        <time>2019-08-04T11:57:24.311Z</time>
      </trkpt>
      <trkpt lat="42.45443667" lon="1.444455">
        <ele>1782.0</ele>
        <time>2019-08-04T11:57:25.318Z</time>
      </trkpt>
      <trkpt lat="42.45443667" lon="1.444455">
        <ele>1782.0</ele>
        <time>2019-08-04T11:57:26.315Z</time>
      </trkpt>
      <trkpt lat="42.45446833" lon="1.44442333">
        <ele>1783.0</ele>
        <time>2019-08-04T11:57:27.328Z</time>
      </trkpt>
      <trkpt lat="42.454485" lon="1.444415">
        <ele>1783.0</ele>
        <time>2019-08-04T11:57:28.317Z</time>
      </trkpt>
      <trkpt lat="42.454485" lon="1.444415">
        <ele>1783.0</ele>
        <time>2019-08-04T11:57:29.330Z</time>
      </trkpt>
      <trkpt lat="42.45452167" lon="1.44441667">
        <ele>1783.0</ele>
        <time>2019-08-04T11:57:30.299Z</time>
      </trkpt>
      <trkpt lat="42.45452167" lon="1.44441667">
        <ele>1783.0</ele>
        <time>2019-08-04T11:57:31.304Z</time>
      </trkpt>
      <trkpt lat="42.45456" lon="1.44444">
        <ele>1783.0</ele>
        <time>2019-08-04T11:57:32.321Z</time>
      </trkpt>
      <trkpt lat="42.45457833" lon="1.44446">
        <ele>1783.0</ele>
        <time>2019-08-04T11:57:33.317Z</time>
      </trkpt>
      <trkpt lat="42.45457833" lon="1.44446">
        <ele>1783.0</ele>
        <time>2019-08-04T11:57:34.311Z</time>
      </trkpt>
      <trkpt lat="42.45461" lon="1.444495">
        <ele>1784.0</ele>
        <time>2019-08-04T11:57:35.296Z</time>
      </trkpt>
      <trkpt lat="42.454625" lon="1.44451333">
        <ele>1784.0</ele>
        <time>2019-08-04T11:57:36.317Z</time>
      </trkpt>
      <trkpt lat="42.45464" lon="1.44453">
        <ele>1784.0</ele>
        <time>2019-08-04T11:57:37.317Z</time>
      </trkpt>
      <trkpt lat="42.45464" lon="1.44453">
        <ele>1784.0</ele>
        <time>2019-08-04T11:57:38.312Z</time>
      </trkpt>
      <trkpt lat="42.45467167" lon="1.44455833">
        <ele>1785.0</ele>
        <time>2019-08-04T11:57:39.317Z</time>
      </trkpt>
      <trkpt lat="42.45467167" lon="1.44455833">
        <ele>1785.0</ele>
        <time>2019-08-04T11:57:40.307Z</time>
      </trkpt>
      <trkpt lat="42.45470167" lon="1.44459167">
        <ele>1786.0</ele>
        <time>2019-08-04T11:57:41.328Z</time>
      </trkpt>
      <trkpt lat="42.45471833" lon="1.44460333">
        <ele>1786.0</ele>
        <time>2019-08-04T11:57:42.298Z</time>
      </trkpt>
      <trkpt lat="42.45473167" lon="1.44461333">
        <ele>1787.0</ele>
        <time>2019-08-04T11:57:43.319Z</time>
      </trkpt>
      <trkpt lat="42.45473167" lon="1.44461333">
        <ele>1787.0</ele>
        <time>2019-08-04T11:57:44.316Z</time>
      </trkpt>
      <trkpt lat="42.45476" lon="1.44463833">
        <ele>1787.0</ele>
        <time>2019-08-04T11:57:45.315Z</time>
      </trkpt>
      <trkpt lat="42.45477667" lon="1.44465333">
        <ele>1788.0</ele>
        <time>2019-08-04T11:57:46.316Z</time>
      </trkpt>
      <trkpt lat="42.45477667" lon="1.44465333">
        <ele>1788.0</ele>
        <time>2019-08-04T11:57:47.309Z</time>
      </trkpt>
      <trkpt lat="42.45481" lon="1.44468">
        <ele>1788.0</ele>
        <time>2019-08-04T11:57:48.317Z</time>
      </trkpt>
      <trkpt lat="42.45481" lon="1.44468">
        <ele>1788.0</ele>
        <time>2019-08-04T11:57:49.314Z</time>
      </trkpt>
      <trkpt lat="42.454845" lon="1.44470667">
        <ele>1788.0</ele>
        <time>2019-08-04T11:57:50.296Z</time>
      </trkpt>
      <trkpt lat="42.454845" lon="1.44470667">
        <ele>1788.0</ele>
        <time>2019-08-04T11:57:51.316Z</time>
      </trkpt>
      <trkpt lat="42.45488" lon="1.444735">
        <ele>1788.0</ele>
        <time>2019-08-04T11:57:52.330Z</time>
      </trkpt>
      <trkpt lat="42.45489667" lon="1.44475167">
        <ele>1788.0</ele>
        <time>2019-08-04T11:57:53.318Z</time>
      </trkpt>
      <trkpt lat="42.45489667" lon="1.44475167">
        <ele>1788.0</ele>
        <time>2019-08-04T11:57:54.314Z</time>
      </trkpt>
      <trkpt lat="42.45492833" lon="1.444785">
        <ele>1789.0</ele>
        <time>2019-08-04T11:57:55.314Z</time>
      </trkpt>
      <trkpt lat="42.45494333" lon="1.44480333">
        <ele>1789.0</ele>
        <time>2019-08-04T11:57:56.318Z</time>
      </trkpt>
      <trkpt lat="42.45494333" lon="1.44480333">
        <ele>1789.0</ele>
        <time>2019-08-04T11:57:57.314Z</time>
      </trkpt>
      <trkpt lat="42.454975" lon="1.44483167">
        <ele>1789.0</ele>
        <time>2019-08-04T11:57:58.316Z</time>
      </trkpt>
      <trkpt lat="42.454975" lon="1.44483167">
        <ele>1789.0</ele>
        <time>2019-08-04T11:57:59.314Z</time>
      </trkpt>
      <trkpt lat="42.45500833" lon="1.44485667">
        <ele>1790.0</ele>
        <time>2019-08-04T11:58:00.316Z</time>
      </trkpt>
      <trkpt lat="42.45502667" lon="1.44486833">
        <ele>1790.0</ele>
        <time>2019-08-04T11:58:01.324Z</time>
      </trkpt>
      <trkpt lat="42.45502667" lon="1.44486833">
        <ele>1790.0</ele>
        <time>2019-08-04T11:58:02.296Z</time>
      </trkpt>
      <trkpt lat="42.45506333" lon="1.44488833">
        <ele>1791.0</ele>
        <time>2019-08-04T11:58:03.317Z</time>
      </trkpt>
      <trkpt lat="42.45508333" lon="1.44490167">
        <ele>1791.0</ele>
        <time>2019-08-04T11:58:04.316Z</time>
      </trkpt>
      <trkpt lat="42.45508333" lon="1.44490167">
        <ele>1791.0</ele>
        <time>2019-08-04T11:58:05.311Z</time>
      </trkpt>
      <trkpt lat="42.45512" lon="1.44492667">
        <ele>1792.0</ele>
        <time>2019-08-04T11:58:06.317Z</time>
      </trkpt>
      <trkpt lat="42.45512" lon="1.44492667">
        <ele>1792.0</ele>
        <time>2019-08-04T11:58:07.311Z</time>
      </trkpt>
      <trkpt lat="42.455155" lon="1.44494167">
        <ele>1792.0</ele>
        <time>2019-08-04T11:58:08.332Z</time>
      </trkpt>
      <trkpt lat="42.455155" lon="1.44494167">
        <ele>1792.0</ele>
        <time>2019-08-04T11:58:09.312Z</time>
      </trkpt>
      <trkpt lat="42.45519333" lon="1.44495833">
        <ele>1793.0</ele>
        <time>2019-08-04T11:58:10.297Z</time>
      </trkpt>
      <trkpt lat="42.45521167" lon="1.44496667">
        <ele>1793.0</ele>
        <time>2019-08-04T11:58:11.318Z</time>
      </trkpt>
      <trkpt lat="42.45521167" lon="1.44496667">
        <ele>1793.0</ele>
        <time>2019-08-04T11:58:12.330Z</time>
      </trkpt>
      <trkpt lat="42.45524833" lon="1.44498333">
        <ele>1794.0</ele>
        <time>2019-08-04T11:58:13.316Z</time>
      </trkpt>
      <trkpt lat="42.45526833" lon="1.44499167">
        <ele>1794.0</ele>
        <time>2019-08-04T11:58:14.319Z</time>
      </trkpt>
      <trkpt lat="42.45526833" lon="1.44499167">
        <ele>1794.0</ele>
        <time>2019-08-04T11:58:15.312Z</time>
      </trkpt>
      <trkpt lat="42.45531" lon="1.44501167">
        <ele>1794.0</ele>
        <time>2019-08-04T11:58:16.317Z</time>
      </trkpt>
      <trkpt lat="42.45531" lon="1.44501167">
        <ele>1794.0</ele>
        <time>2019-08-04T11:58:17.314Z</time>
      </trkpt>
      <trkpt lat="42.45535" lon="1.44502833">
        <ele>1794.0</ele>
        <time>2019-08-04T11:58:18.317Z</time>
      </trkpt>
      <trkpt lat="42.45535" lon="1.44502833">
        <ele>1794.0</ele>
        <time>2019-08-04T11:58:19.314Z</time>
      </trkpt>
      <trkpt lat="42.45538667" lon="1.44504167">
        <ele>1795.0</ele>
        <time>2019-08-04T11:58:20.297Z</time>
      </trkpt>
      <trkpt lat="42.455405" lon="1.44504833">
        <ele>1795.0</ele>
        <time>2019-08-04T11:58:21.318Z</time>
      </trkpt>
      <trkpt lat="42.455425" lon="1.44505667">
        <ele>1795.0</ele>
        <time>2019-08-04T11:58:22.330Z</time>
      </trkpt>
      <trkpt lat="42.455425" lon="1.44505667">
        <ele>1795.0</ele>
        <time>2019-08-04T11:58:23.313Z</time>
      </trkpt>
      <trkpt lat="42.45546333" lon="1.44506833">
        <ele>1796.0</ele>
        <time>2019-08-04T11:58:24.315Z</time>
      </trkpt>
      <trkpt lat="42.45548167" lon="1.44507167">
        <ele>1796.0</ele>
        <time>2019-08-04T11:58:25.317Z</time>
      </trkpt>
      <trkpt lat="42.45548167" lon="1.44507167">
        <ele>1796.0</ele>
        <time>2019-08-04T11:58:26.316Z</time>
      </trkpt>
      <trkpt lat="42.45552333" lon="1.44507167">
        <ele>1796.0</ele>
        <time>2019-08-04T11:58:27.317Z</time>
      </trkpt>
      <trkpt lat="42.45552333" lon="1.44507167">
        <ele>1796.0</ele>
        <time>2019-08-04T11:58:28.311Z</time>
      </trkpt>
      <trkpt lat="42.45556167" lon="1.44506667">
        <ele>1797.0</ele>
        <time>2019-08-04T11:58:29.332Z</time>
      </trkpt>
      <trkpt lat="42.45556167" lon="1.44506667">
        <ele>1797.0</ele>
        <time>2019-08-04T11:58:30.318Z</time>
      </trkpt>
      <trkpt lat="42.45560167" lon="1.44506333">
        <ele>1797.0</ele>
        <time>2019-08-04T11:58:31.324Z</time>
      </trkpt>
      <trkpt lat="42.45562167" lon="1.44506">
        <ele>1797.0</ele>
        <time>2019-08-04T11:58:32.296Z</time>
      </trkpt>
      <trkpt lat="42.45562167" lon="1.44506">
        <ele>1797.0</ele>
        <time>2019-08-04T11:58:33.317Z</time>
      </trkpt>
      <trkpt lat="42.455665" lon="1.44505833">
        <ele>1797.0</ele>
        <time>2019-08-04T11:58:34.317Z</time>
      </trkpt>
      <trkpt lat="42.455665" lon="1.44505833">
        <ele>1797.0</ele>
        <time>2019-08-04T11:58:35.315Z</time>
      </trkpt>
      <trkpt lat="42.455705" lon="1.44506">
        <ele>1797.0</ele>
        <time>2019-08-04T11:58:36.316Z</time>
      </trkpt>
      <trkpt lat="42.45572667" lon="1.44506167">
        <ele>1797.0</ele>
        <time>2019-08-04T11:58:37.316Z</time>
      </trkpt>
      <trkpt lat="42.45572667" lon="1.44506167">
        <ele>1797.0</ele>
        <time>2019-08-04T11:58:38.315Z</time>
      </trkpt>
      <trkpt lat="42.45576667" lon="1.44507167">
        <ele>1797.0</ele>
        <time>2019-08-04T11:58:39.317Z</time>
      </trkpt>
      <trkpt lat="42.45576667" lon="1.44507167">
        <ele>1797.0</ele>
        <time>2019-08-04T11:58:40.320Z</time>
      </trkpt>
      <trkpt lat="42.455805" lon="1.44509">
        <ele>1798.0</ele>
        <time>2019-08-04T11:58:41.297Z</time>
      </trkpt>
      <trkpt lat="42.455805" lon="1.44509">
        <ele>1798.0</ele>
        <time>2019-08-04T11:58:42.329Z</time>
      </trkpt>
      <trkpt lat="42.45584167" lon="1.44511667">
        <ele>1799.0</ele>
        <time>2019-08-04T11:58:43.316Z</time>
      </trkpt>
      <trkpt lat="42.45586" lon="1.44513167">
        <ele>1799.0</ele>
        <time>2019-08-04T11:58:44.316Z</time>
      </trkpt>
      <trkpt lat="42.455875" lon="1.44515">
        <ele>1799.0</ele>
        <time>2019-08-04T11:58:45.318Z</time>
      </trkpt>
      <trkpt lat="42.455875" lon="1.44515">
        <ele>1799.0</ele>
        <time>2019-08-04T11:58:46.314Z</time>
      </trkpt>
      <trkpt lat="42.45590333" lon="1.44519">
        <ele>1800.0</ele>
        <time>2019-08-04T11:58:47.317Z</time>
      </trkpt>
      <trkpt lat="42.45590333" lon="1.44519">
        <ele>1800.0</ele>
        <time>2019-08-04T11:58:48.314Z</time>
      </trkpt>
      <trkpt lat="42.45593" lon="1.445235">
        <ele>1800.0</ele>
        <time>2019-08-04T11:58:49.316Z</time>
      </trkpt>
      <trkpt lat="42.45593" lon="1.445235">
        <ele>1800.0</ele>
        <time>2019-08-04T11:58:50.303Z</time>
      </trkpt>
      <trkpt lat="42.455955" lon="1.44528">
        <ele>1801.0</ele>
        <time>2019-08-04T11:58:51.324Z</time>
      </trkpt>
      <trkpt lat="42.455965" lon="1.44530333">
        <ele>1801.0</ele>
        <time>2019-08-04T11:58:52.311Z</time>
      </trkpt>
      <trkpt lat="42.455965" lon="1.44530333">
        <ele>1801.0</ele>
        <time>2019-08-04T11:58:53.314Z</time>
      </trkpt>
      <trkpt lat="42.455985" lon="1.44535167">
        <ele>1802.0</ele>
        <time>2019-08-04T11:58:54.316Z</time>
      </trkpt>
      <trkpt lat="42.455985" lon="1.44535167">
        <ele>1802.0</ele>
        <time>2019-08-04T11:58:55.314Z</time>
      </trkpt>
      <trkpt lat="42.45600833" lon="1.4454">
        <ele>1802.0</ele>
        <time>2019-08-04T11:58:56.296Z</time>
      </trkpt>
      <trkpt lat="42.45600833" lon="1.4454">
        <ele>1802.0</ele>
        <time>2019-08-04T11:58:57.318Z</time>
      </trkpt>
      <trkpt lat="42.45603" lon="1.44545167">
        <ele>1802.0</ele>
        <time>2019-08-04T11:58:58.317Z</time>
      </trkpt>
      <trkpt lat="42.45603" lon="1.44545167">
        <ele>1802.0</ele>
        <time>2019-08-04T11:58:59.315Z</time>
      </trkpt>
      <trkpt lat="42.45604833" lon="1.445505">
        <ele>1803.0</ele>
        <time>2019-08-04T11:59:00.319Z</time>
      </trkpt>
      <trkpt lat="42.45604833" lon="1.445505">
        <ele>1803.0</ele>
        <time>2019-08-04T11:59:01.312Z</time>
      </trkpt>
      <trkpt lat="42.45606833" lon="1.445555">
        <ele>1803.0</ele>
        <time>2019-08-04T11:59:02.335Z</time>
      </trkpt>
      <trkpt lat="42.45606833" lon="1.445555">
        <ele>1803.0</ele>
        <time>2019-08-04T11:59:03.315Z</time>
      </trkpt>
      <trkpt lat="42.45609" lon="1.4456">
        <ele>1803.0</ele>
        <time>2019-08-04T11:59:04.332Z</time>
      </trkpt>
      <trkpt lat="42.45609" lon="1.4456">
        <ele>1803.0</ele>
        <time>2019-08-04T11:59:05.314Z</time>
      </trkpt>
      <trkpt lat="42.45611333" lon="1.445645">
        <ele>1804.0</ele>
        <time>2019-08-04T11:59:06.316Z</time>
      </trkpt>
      <trkpt lat="42.45611333" lon="1.445645">
        <ele>1804.0</ele>
        <time>2019-08-04T11:59:07.312Z</time>
      </trkpt>
      <trkpt lat="42.456135" lon="1.44568667">
        <ele>1804.0</ele>
        <time>2019-08-04T11:59:08.318Z</time>
      </trkpt>
      <trkpt lat="42.456135" lon="1.44568667">
        <ele>1804.0</ele>
        <time>2019-08-04T11:59:09.319Z</time>
      </trkpt>
      <trkpt lat="42.45615667" lon="1.44573333">
        <ele>1805.0</ele>
        <time>2019-08-04T11:59:10.322Z</time>
      </trkpt>
      <trkpt lat="42.45615667" lon="1.44573333">
        <ele>1805.0</ele>
        <time>2019-08-04T11:59:11.315Z</time>
      </trkpt>
      <trkpt lat="42.45618333" lon="1.44577667">
        <ele>1805.0</ele>
        <time>2019-08-04T11:59:12.299Z</time>
      </trkpt>
      <trkpt lat="42.45618333" lon="1.44577667">
        <ele>1805.0</ele>
        <time>2019-08-04T11:59:13.319Z</time>
      </trkpt>
      <trkpt lat="42.45621333" lon="1.44581167">
        <ele>1806.0</ele>
        <time>2019-08-04T11:59:14.318Z</time>
      </trkpt>
      <trkpt lat="42.45621333" lon="1.44581167">
        <ele>1806.0</ele>
        <time>2019-08-04T11:59:15.303Z</time>
      </trkpt>
      <trkpt lat="42.45624333" lon="1.44584833">
        <ele>1807.0</ele>
        <time>2019-08-04T11:59:16.325Z</time>
      </trkpt>
      <trkpt lat="42.45624333" lon="1.44584833">
        <ele>1807.0</ele>
        <time>2019-08-04T11:59:17.314Z</time>
      </trkpt>
      <trkpt lat="42.45626833" lon="1.44588667">
        <ele>1808.0</ele>
        <time>2019-08-04T11:59:18.317Z</time>
      </trkpt>
      <trkpt lat="42.45626833" lon="1.44588667">
        <ele>1808.0</ele>
        <time>2019-08-04T11:59:19.312Z</time>
      </trkpt>
      <trkpt lat="42.45629667" lon="1.445925">
        <ele>1808.0</ele>
        <time>2019-08-04T11:59:20.311Z</time>
      </trkpt>
      <trkpt lat="42.45629667" lon="1.445925">
        <ele>1808.0</ele>
        <time>2019-08-04T11:59:21.307Z</time>
      </trkpt>
      <trkpt lat="42.456325" lon="1.44596167">
        <ele>1809.0</ele>
        <time>2019-08-04T11:59:22.299Z</time>
      </trkpt>
      <trkpt lat="42.456325" lon="1.44596167">
        <ele>1809.0</ele>
        <time>2019-08-04T11:59:23.319Z</time>
      </trkpt>
      <trkpt lat="42.45635833" lon="1.44599333">
        <ele>1810.0</ele>
        <time>2019-08-04T11:59:24.318Z</time>
      </trkpt>
      <trkpt lat="42.45635833" lon="1.44599333">
        <ele>1810.0</ele>
        <time>2019-08-04T11:59:25.318Z</time>
      </trkpt>
      <trkpt lat="42.45638667" lon="1.44602833">
        <ele>1810.0</ele>
        <time>2019-08-04T11:59:26.318Z</time>
      </trkpt>
      <trkpt lat="42.45640167" lon="1.44604667">
        <ele>1810.0</ele>
        <time>2019-08-04T11:59:27.317Z</time>
      </trkpt>
      <trkpt lat="42.45640167" lon="1.44604667">
        <ele>1810.0</ele>
        <time>2019-08-04T11:59:28.311Z</time>
      </trkpt>
      <trkpt lat="42.45643667" lon="1.44608167">
        <ele>1811.0</ele>
        <time>2019-08-04T11:59:29.325Z</time>
      </trkpt>
      <trkpt lat="42.45643667" lon="1.44608167">
        <ele>1811.0</ele>
        <time>2019-08-04T11:59:30.327Z</time>
      </trkpt>
      <trkpt lat="42.45647167" lon="1.446115">
        <ele>1811.0</ele>
        <time>2019-08-04T11:59:31.297Z</time>
      </trkpt>
      <trkpt lat="42.45648667" lon="1.44613167">
        <ele>1811.0</ele>
        <time>2019-08-04T11:59:32.301Z</time>
      </trkpt>
      <trkpt lat="42.45648667" lon="1.44613167">
        <ele>1811.0</ele>
        <time>2019-08-04T11:59:33.321Z</time>
      </trkpt>
      <trkpt lat="42.45652" lon="1.44616167">
        <ele>1812.0</ele>
        <time>2019-08-04T11:59:34.332Z</time>
      </trkpt>
      <trkpt lat="42.45652" lon="1.44616167">
        <ele>1812.0</ele>
        <time>2019-08-04T11:59:35.314Z</time>
      </trkpt>
      <trkpt lat="42.45655333" lon="1.44619">
        <ele>1812.0</ele>
        <time>2019-08-04T11:59:36.316Z</time>
      </trkpt>
      <trkpt lat="42.45655333" lon="1.44619">
        <ele>1812.0</ele>
        <time>2019-08-04T11:59:37.314Z</time>
      </trkpt>
      <trkpt lat="42.45659" lon="1.44621167">
        <ele>1813.0</ele>
        <time>2019-08-04T11:59:38.297Z</time>
      </trkpt>
      <trkpt lat="42.45659" lon="1.44621167">
        <ele>1813.0</ele>
        <time>2019-08-04T11:59:39.317Z</time>
      </trkpt>
      <trkpt lat="42.45662333" lon="1.44623333">
        <ele>1813.0</ele>
        <time>2019-08-04T11:59:40.320Z</time>
      </trkpt>
      <trkpt lat="42.45662333" lon="1.44623333">
        <ele>1813.0</ele>
        <time>2019-08-04T11:59:41.314Z</time>
      </trkpt>
      <trkpt lat="42.456655" lon="1.44626">
        <ele>1813.0</ele>
        <time>2019-08-04T11:59:42.303Z</time>
      </trkpt>
      <trkpt lat="42.456655" lon="1.44626">
        <ele>1813.0</ele>
        <time>2019-08-04T11:59:43.323Z</time>
      </trkpt>
      <trkpt lat="42.45668667" lon="1.44628833">
        <ele>1814.0</ele>
        <time>2019-08-04T11:59:44.319Z</time>
      </trkpt>
      <trkpt lat="42.45668667" lon="1.44628833">
        <ele>1814.0</ele>
        <time>2019-08-04T11:59:45.312Z</time>
      </trkpt>
      <trkpt lat="42.45672167" lon="1.44630667">
        <ele>1814.0</ele>
        <time>2019-08-04T11:59:46.317Z</time>
      </trkpt>
      <trkpt lat="42.45672167" lon="1.44630667">
        <ele>1814.0</ele>
        <time>2019-08-04T11:59:47.304Z</time>
      </trkpt>
      <trkpt lat="42.45675667" lon="1.446325">
        <ele>1815.0</ele>
        <time>2019-08-04T11:59:48.329Z</time>
      </trkpt>
      <trkpt lat="42.45675667" lon="1.446325">
        <ele>1815.0</ele>
        <time>2019-08-04T11:59:49.314Z</time>
      </trkpt>
      <trkpt lat="42.45679333" lon="1.44633667">
        <ele>1815.0</ele>
        <time>2019-08-04T11:59:50.324Z</time>
      </trkpt>
      <trkpt lat="42.45679333" lon="1.44633667">
        <ele>1815.0</ele>
        <time>2019-08-04T11:59:51.315Z</time>
      </trkpt>
      <trkpt lat="42.45683333" lon="1.44635">
        <ele>1816.0</ele>
        <time>2019-08-04T11:59:52.297Z</time>
      </trkpt>
      <trkpt lat="42.45685" lon="1.44635833">
        <ele>1816.0</ele>
        <time>2019-08-04T11:59:53.317Z</time>
      </trkpt>
      <trkpt lat="42.45685" lon="1.44635833">
        <ele>1816.0</ele>
        <time>2019-08-04T11:59:54.315Z</time>
      </trkpt>
      <trkpt lat="42.45687833" lon="1.44638833">
        <ele>1816.0</ele>
        <time>2019-08-04T11:59:55.317Z</time>
      </trkpt>
      <trkpt lat="42.45689333" lon="1.44640333">
        <ele>1817.0</ele>
        <time>2019-08-04T11:59:56.319Z</time>
      </trkpt>
      <trkpt lat="42.45689333" lon="1.44640333">
        <ele>1817.0</ele>
        <time>2019-08-04T11:59:57.314Z</time>
      </trkpt>
      <trkpt lat="42.45692333" lon="1.44643167">
        <ele>1817.0</ele>
        <time>2019-08-04T11:59:58.317Z</time>
      </trkpt>
      <trkpt lat="42.45692333" lon="1.44643167">
        <ele>1817.0</ele>
        <time>2019-08-04T11:59:59.312Z</time>
      </trkpt>
      <trkpt lat="42.45695333" lon="1.44647">
        <ele>1818.0</ele>
        <time>2019-08-04T12:00:00.299Z</time>
      </trkpt>
      <trkpt lat="42.45695333" lon="1.44647">
        <ele>1818.0</ele>
        <time>2019-08-04T12:00:01.323Z</time>
      </trkpt>
      <trkpt lat="42.45698333" lon="1.44650667">
        <ele>1818.0</ele>
        <time>2019-08-04T12:00:02.297Z</time>
      </trkpt>
      <trkpt lat="42.45698333" lon="1.44650667">
        <ele>1818.0</ele>
        <time>2019-08-04T12:00:03.317Z</time>
      </trkpt>
      <trkpt lat="42.45701333" lon="1.44654667">
        <ele>1818.0</ele>
        <time>2019-08-04T12:00:04.317Z</time>
      </trkpt>
      <trkpt lat="42.45702667" lon="1.44656667">
        <ele>1819.0</ele>
        <time>2019-08-04T12:00:05.317Z</time>
      </trkpt>
      <trkpt lat="42.45702667" lon="1.44656667">
        <ele>1819.0</ele>
        <time>2019-08-04T12:00:06.314Z</time>
      </trkpt>
      <trkpt lat="42.45706" lon="1.44660333">
        <ele>1819.0</ele>
        <time>2019-08-04T12:00:07.316Z</time>
      </trkpt>
      <trkpt lat="42.45707833" lon="1.44662167">
        <ele>1819.0</ele>
        <time>2019-08-04T12:00:08.333Z</time>
      </trkpt>
      <trkpt lat="42.45709667" lon="1.44663667">
        <ele>1819.0</ele>
        <time>2019-08-04T12:00:09.318Z</time>
      </trkpt>
      <trkpt lat="42.45709667" lon="1.44663667">
        <ele>1819.0</ele>
        <time>2019-08-04T12:00:10.313Z</time>
      </trkpt>
      <trkpt lat="42.45713" lon="1.44667333">
        <ele>1819.0</ele>
        <time>2019-08-04T12:00:11.313Z</time>
      </trkpt>
      <trkpt lat="42.457145" lon="1.44668833">
        <ele>1819.0</ele>
        <time>2019-08-04T12:00:12.299Z</time>
      </trkpt>
      <trkpt lat="42.457145" lon="1.44668833">
        <ele>1819.0</ele>
        <time>2019-08-04T12:00:13.319Z</time>
      </trkpt>
      <trkpt lat="42.457175" lon="1.44671833">
        <ele>1819.0</ele>
        <time>2019-08-04T12:00:14.318Z</time>
      </trkpt>
      <trkpt lat="42.457175" lon="1.44671833">
        <ele>1819.0</ele>
        <time>2019-08-04T12:00:15.314Z</time>
      </trkpt>
      <trkpt lat="42.45719833" lon="1.44675333">
        <ele>1819.0</ele>
        <time>2019-08-04T12:00:16.316Z</time>
      </trkpt>
      <trkpt lat="42.45719833" lon="1.44675333">
        <ele>1819.0</ele>
        <time>2019-08-04T12:00:17.314Z</time>
      </trkpt>
      <trkpt lat="42.457225" lon="1.44679167">
        <ele>1820.0</ele>
        <time>2019-08-04T12:00:18.317Z</time>
      </trkpt>
      <trkpt lat="42.457225" lon="1.44679167">
        <ele>1820.0</ele>
        <time>2019-08-04T12:00:19.314Z</time>
      </trkpt>
      <trkpt lat="42.45725333" lon="1.44682667">
        <ele>1820.0</ele>
        <time>2019-08-04T12:00:20.329Z</time>
      </trkpt>
      <trkpt lat="42.45725333" lon="1.44682667">
        <ele>1820.0</ele>
        <time>2019-08-04T12:00:21.317Z</time>
      </trkpt>
      <trkpt lat="42.45727667" lon="1.44686333">
        <ele>1821.0</ele>
        <time>2019-08-04T12:00:22.297Z</time>
      </trkpt>
      <trkpt lat="42.45729" lon="1.44688333">
        <ele>1821.0</ele>
        <time>2019-08-04T12:00:23.320Z</time>
      </trkpt>
      <trkpt lat="42.45729" lon="1.44688333">
        <ele>1821.0</ele>
        <time>2019-08-04T12:00:24.315Z</time>
      </trkpt>
      <trkpt lat="42.457315" lon="1.44692333">
        <ele>1821.0</ele>
        <time>2019-08-04T12:00:25.316Z</time>
      </trkpt>
      <trkpt lat="42.45732833" lon="1.44694333">
        <ele>1821.0</ele>
        <time>2019-08-04T12:00:26.316Z</time>
      </trkpt>
      <trkpt lat="42.45732833" lon="1.44694333">
        <ele>1821.0</ele>
        <time>2019-08-04T12:00:27.314Z</time>
      </trkpt>
      <trkpt lat="42.45735333" lon="1.44698333">
        <ele>1822.0</ele>
        <time>2019-08-04T12:00:28.317Z</time>
      </trkpt>
      <trkpt lat="42.45735333" lon="1.44698333">
        <ele>1822.0</ele>
        <time>2019-08-04T12:00:29.326Z</time>
      </trkpt>
      <trkpt lat="42.45737667" lon="1.447025">
        <ele>1822.0</ele>
        <time>2019-08-04T12:00:30.305Z</time>
      </trkpt>
      <trkpt lat="42.45738833" lon="1.44704833">
        <ele>1822.0</ele>
        <time>2019-08-04T12:00:31.311Z</time>
      </trkpt>
      <trkpt lat="42.45740167" lon="1.44707333">
        <ele>1822.0</ele>
        <time>2019-08-04T12:00:32.301Z</time>
      </trkpt>
      <trkpt lat="42.45740167" lon="1.44707333">
        <ele>1822.0</ele>
        <time>2019-08-04T12:00:33.298Z</time>
      </trkpt>
      <trkpt lat="42.45742333" lon="1.44712833">
        <ele>1823.0</ele>
        <time>2019-08-04T12:00:34.319Z</time>
      </trkpt>
      <trkpt lat="42.45742333" lon="1.44712833">
        <ele>1823.0</ele>
        <time>2019-08-04T12:00:35.315Z</time>
      </trkpt>
      <trkpt lat="42.45744" lon="1.44718333">
        <ele>1824.0</ele>
        <time>2019-08-04T12:00:36.314Z</time>
      </trkpt>
      <trkpt lat="42.45744" lon="1.44718333">
        <ele>1824.0</ele>
        <time>2019-08-04T12:00:37.312Z</time>
      </trkpt>
      <trkpt lat="42.45745333" lon="1.44723833">
        <ele>1824.0</ele>
        <time>2019-08-04T12:00:38.317Z</time>
      </trkpt>
      <trkpt lat="42.45745333" lon="1.44723833">
        <ele>1824.0</ele>
        <time>2019-08-04T12:00:39.314Z</time>
      </trkpt>
      <trkpt lat="42.45746667" lon="1.44729333">
        <ele>1825.0</ele>
        <time>2019-08-04T12:00:40.316Z</time>
      </trkpt>
      <trkpt lat="42.45746667" lon="1.44729333">
        <ele>1825.0</ele>
        <time>2019-08-04T12:00:41.312Z</time>
      </trkpt>
      <trkpt lat="42.45748" lon="1.44734667">
        <ele>1826.0</ele>
        <time>2019-08-04T12:00:42.332Z</time>
      </trkpt>
      <trkpt lat="42.45748" lon="1.44734667">
        <ele>1826.0</ele>
        <time>2019-08-04T12:00:43.315Z</time>
      </trkpt>
      <trkpt lat="42.457495" lon="1.4474">
        <ele>1827.0</ele>
        <time>2019-08-04T12:00:44.297Z</time>
      </trkpt>
      <trkpt lat="42.457495" lon="1.4474">
        <ele>1827.0</ele>
        <time>2019-08-04T12:00:45.318Z</time>
      </trkpt>
      <trkpt lat="42.45751667" lon="1.447455">
        <ele>1827.0</ele>
        <time>2019-08-04T12:00:46.318Z</time>
      </trkpt>
      <trkpt lat="42.45751667" lon="1.447455">
        <ele>1827.0</ele>
        <time>2019-08-04T12:00:47.314Z</time>
      </trkpt>
      <trkpt lat="42.45753333" lon="1.44750333">
        <ele>1828.0</ele>
        <time>2019-08-04T12:00:48.317Z</time>
      </trkpt>
      <trkpt lat="42.45754667" lon="1.44753">
        <ele>1827.0</ele>
        <time>2019-08-04T12:00:49.317Z</time>
      </trkpt>
      <trkpt lat="42.45754667" lon="1.44753">
        <ele>1827.0</ele>
        <time>2019-08-04T12:00:50.298Z</time>
      </trkpt>
      <trkpt lat="42.45756667" lon="1.44758333">
        <ele>1827.0</ele>
        <time>2019-08-04T12:00:51.319Z</time>
      </trkpt>
      <trkpt lat="42.45756667" lon="1.44758333">
        <ele>1827.0</ele>
        <time>2019-08-04T12:00:52.322Z</time>
      </trkpt>
      <trkpt lat="42.45758833" lon="1.44763333">
        <ele>1828.0</ele>
        <time>2019-08-04T12:00:53.314Z</time>
      </trkpt>
      <trkpt lat="42.45758833" lon="1.44763333">
        <ele>1828.0</ele>
        <time>2019-08-04T12:00:54.312Z</time>
      </trkpt>
      <trkpt lat="42.457605" lon="1.44768333">
        <ele>1828.0</ele>
        <time>2019-08-04T12:00:55.325Z</time>
      </trkpt>
      <trkpt lat="42.45761333" lon="1.44770667">
        <ele>1829.0</ele>
        <time>2019-08-04T12:00:56.320Z</time>
      </trkpt>
      <trkpt lat="42.45761333" lon="1.44770667">
        <ele>1829.0</ele>
        <time>2019-08-04T12:00:57.314Z</time>
      </trkpt>
      <trkpt lat="42.45762833" lon="1.44775">
        <ele>1829.0</ele>
        <time>2019-08-04T12:00:58.316Z</time>
      </trkpt>
      <trkpt lat="42.457635" lon="1.447775">
        <ele>1829.0</ele>
        <time>2019-08-04T12:00:59.316Z</time>
      </trkpt>
      <trkpt lat="42.457635" lon="1.447775">
        <ele>1829.0</ele>
        <time>2019-08-04T12:01:00.311Z</time>
      </trkpt>
      <trkpt lat="42.45764667" lon="1.44782167">
        <ele>1830.0</ele>
        <time>2019-08-04T12:01:01.317Z</time>
      </trkpt>
      <trkpt lat="42.45764667" lon="1.44782167">
        <ele>1830.0</ele>
        <time>2019-08-04T12:01:02.329Z</time>
      </trkpt>
      <trkpt lat="42.457665" lon="1.44786667">
        <ele>1831.0</ele>
        <time>2019-08-04T12:01:03.317Z</time>
      </trkpt>
      <trkpt lat="42.45767167" lon="1.44789">
        <ele>1831.0</ele>
        <time>2019-08-04T12:01:04.317Z</time>
      </trkpt>
      <trkpt lat="42.45767167" lon="1.44789">
        <ele>1831.0</ele>
        <time>2019-08-04T12:01:05.312Z</time>
      </trkpt>
      <trkpt lat="42.45768667" lon="1.44793833">
        <ele>1832.0</ele>
        <time>2019-08-04T12:01:06.317Z</time>
      </trkpt>
      <trkpt lat="42.45769333" lon="1.44796167">
        <ele>1833.0</ele>
        <time>2019-08-04T12:01:07.317Z</time>
      </trkpt>
      <trkpt lat="42.45769333" lon="1.44796167">
        <ele>1833.0</ele>
        <time>2019-08-04T12:01:08.317Z</time>
      </trkpt>
      <trkpt lat="42.45770167" lon="1.44800667">
        <ele>1833.0</ele>
        <time>2019-08-04T12:01:09.317Z</time>
      </trkpt>
      <trkpt lat="42.45770667" lon="1.44802833">
        <ele>1834.0</ele>
        <time>2019-08-04T12:01:10.317Z</time>
      </trkpt>
      <trkpt lat="42.45770667" lon="1.44802833">
        <ele>1834.0</ele>
        <time>2019-08-04T12:01:11.312Z</time>
      </trkpt>
      <trkpt lat="42.45771" lon="1.44807833">
        <ele>1835.0</ele>
        <time>2019-08-04T12:01:12.298Z</time>
      </trkpt>
      <trkpt lat="42.45771" lon="1.44807833">
        <ele>1835.0</ele>
        <time>2019-08-04T12:01:13.319Z</time>
      </trkpt>
      <trkpt lat="42.45771167" lon="1.44813">
        <ele>1836.0</ele>
        <time>2019-08-04T12:01:14.319Z</time>
      </trkpt>
      <trkpt lat="42.45771167" lon="1.44813">
        <ele>1836.0</ele>
        <time>2019-08-04T12:01:15.307Z</time>
      </trkpt>
      <trkpt lat="42.45771333" lon="1.44818">
        <ele>1836.0</ele>
        <time>2019-08-04T12:01:16.330Z</time>
      </trkpt>
      <trkpt lat="42.45771333" lon="1.44818">
        <ele>1836.0</ele>
        <time>2019-08-04T12:01:17.315Z</time>
      </trkpt>
      <trkpt lat="42.45771333" lon="1.44822833">
        <ele>1837.0</ele>
        <time>2019-08-04T12:01:18.314Z</time>
      </trkpt>
      <trkpt lat="42.45772" lon="1.44825333">
        <ele>1838.0</ele>
        <time>2019-08-04T12:01:19.318Z</time>
      </trkpt>
      <trkpt lat="42.45772" lon="1.44825333">
        <ele>1838.0</ele>
        <time>2019-08-04T12:01:20.316Z</time>
      </trkpt>
      <trkpt lat="42.45772167" lon="1.44830667">
        <ele>1838.0</ele>
        <time>2019-08-04T12:01:21.302Z</time>
      </trkpt>
      <trkpt lat="42.45772667" lon="1.448335">
        <ele>1838.0</ele>
        <time>2019-08-04T12:01:22.296Z</time>
      </trkpt>
      <trkpt lat="42.45772667" lon="1.448335">
        <ele>1838.0</ele>
        <time>2019-08-04T12:01:23.319Z</time>
      </trkpt>
      <trkpt lat="42.45773333" lon="1.44839333">
        <ele>1839.0</ele>
        <time>2019-08-04T12:01:24.317Z</time>
      </trkpt>
      <trkpt lat="42.45773333" lon="1.44839333">
        <ele>1839.0</ele>
        <time>2019-08-04T12:01:25.315Z</time>
      </trkpt>
      <trkpt lat="42.45774" lon="1.44845">
        <ele>1840.0</ele>
        <time>2019-08-04T12:01:26.298Z</time>
      </trkpt>
      <trkpt lat="42.45774" lon="1.44845">
        <ele>1840.0</ele>
        <time>2019-08-04T12:01:27.318Z</time>
      </trkpt>
      <trkpt lat="42.45774667" lon="1.44850833">
        <ele>1840.0</ele>
        <time>2019-08-04T12:01:28.317Z</time>
      </trkpt>
      <trkpt lat="42.45774667" lon="1.44850833">
        <ele>1840.0</ele>
        <time>2019-08-04T12:01:29.326Z</time>
      </trkpt>
      <trkpt lat="42.457755" lon="1.44856833">
        <ele>1841.0</ele>
        <time>2019-08-04T12:01:30.305Z</time>
      </trkpt>
      <trkpt lat="42.457755" lon="1.44856833">
        <ele>1841.0</ele>
        <time>2019-08-04T12:01:31.311Z</time>
      </trkpt>
      <trkpt lat="42.45776" lon="1.44862833">
        <ele>1841.0</ele>
        <time>2019-08-04T12:01:32.298Z</time>
      </trkpt>
      <trkpt lat="42.45776" lon="1.44862833">
        <ele>1841.0</ele>
        <time>2019-08-04T12:01:33.319Z</time>
      </trkpt>
      <trkpt lat="42.45776667" lon="1.44868">
        <ele>1842.0</ele>
        <time>2019-08-04T12:01:34.318Z</time>
      </trkpt>
      <trkpt lat="42.45776667" lon="1.44868">
        <ele>1842.0</ele>
        <time>2019-08-04T12:01:35.308Z</time>
      </trkpt>
      <trkpt lat="42.45777167" lon="1.44873333">
        <ele>1843.0</ele>
        <time>2019-08-04T12:01:36.330Z</time>
      </trkpt>
      <trkpt lat="42.45777167" lon="1.44873333">
        <ele>1843.0</ele>
        <time>2019-08-04T12:01:37.316Z</time>
      </trkpt>
      <trkpt lat="42.45777667" lon="1.448785">
        <ele>1844.0</ele>
        <time>2019-08-04T12:01:38.298Z</time>
      </trkpt>
      <trkpt lat="42.45777667" lon="1.448785">
        <ele>1844.0</ele>
        <time>2019-08-04T12:01:39.318Z</time>
      </trkpt>
      <trkpt lat="42.45778167" lon="1.44884333">
        <ele>1845.0</ele>
        <time>2019-08-04T12:01:40.317Z</time>
      </trkpt>
      <trkpt lat="42.45778167" lon="1.44884333">
        <ele>1845.0</ele>
        <time>2019-08-04T12:01:41.315Z</time>
      </trkpt>
      <trkpt lat="42.45778833" lon="1.4489">
        <ele>1845.0</ele>
        <time>2019-08-04T12:01:42.306Z</time>
      </trkpt>
      <trkpt lat="42.45779167" lon="1.44893">
        <ele>1845.0</ele>
        <time>2019-08-04T12:01:43.298Z</time>
      </trkpt>
      <trkpt lat="42.457795" lon="1.44895833">
        <ele>1846.0</ele>
        <time>2019-08-04T12:01:44.319Z</time>
      </trkpt>
      <trkpt lat="42.457795" lon="1.44895833">
        <ele>1846.0</ele>
        <time>2019-08-04T12:01:45.315Z</time>
      </trkpt>
      <trkpt lat="42.45780167" lon="1.44901667">
        <ele>1846.0</ele>
        <time>2019-08-04T12:01:46.318Z</time>
      </trkpt>
      <trkpt lat="42.45780167" lon="1.44901667">
        <ele>1846.0</ele>
        <time>2019-08-04T12:01:47.312Z</time>
      </trkpt>
      <trkpt lat="42.45781" lon="1.44907833">
        <ele>1847.0</ele>
        <time>2019-08-04T12:01:48.317Z</time>
      </trkpt>
      <trkpt lat="42.45781" lon="1.44907833">
        <ele>1847.0</ele>
        <time>2019-08-04T12:01:49.315Z</time>
      </trkpt>
      <trkpt lat="42.45782333" lon="1.44914167">
        <ele>1847.0</ele>
        <time>2019-08-04T12:01:50.297Z</time>
      </trkpt>
      <trkpt lat="42.45783167" lon="1.44917333">
        <ele>1847.0</ele>
        <time>2019-08-04T12:01:51.297Z</time>
      </trkpt>
      <trkpt lat="42.45783167" lon="1.44917333">
        <ele>1847.0</ele>
        <time>2019-08-04T12:01:52.319Z</time>
      </trkpt>
      <trkpt lat="42.45783667" lon="1.44923333">
        <ele>1848.0</ele>
        <time>2019-08-04T12:01:53.318Z</time>
      </trkpt>
      <trkpt lat="42.45783667" lon="1.44923333">
        <ele>1848.0</ele>
        <time>2019-08-04T12:01:54.315Z</time>
      </trkpt>
      <trkpt lat="42.45784" lon="1.44929333">
        <ele>1848.0</ele>
        <time>2019-08-04T12:01:55.324Z</time>
      </trkpt>
      <trkpt lat="42.45784167" lon="1.44932">
        <ele>1849.0</ele>
        <time>2019-08-04T12:01:56.319Z</time>
      </trkpt>
      <trkpt lat="42.45784167" lon="1.44932">
        <ele>1849.0</ele>
        <time>2019-08-04T12:01:57.315Z</time>
      </trkpt>
      <trkpt lat="42.45784667" lon="1.44937333">
        <ele>1849.0</ele>
        <time>2019-08-04T12:01:58.316Z</time>
      </trkpt>
      <trkpt lat="42.45784667" lon="1.44937333">
        <ele>1849.0</ele>
        <time>2019-08-04T12:01:59.315Z</time>
      </trkpt>
      <trkpt lat="42.45784833" lon="1.44943167">
        <ele>1849.0</ele>
        <time>2019-08-04T12:02:00.299Z</time>
      </trkpt>
      <trkpt lat="42.45784667" lon="1.44945833">
        <ele>1850.0</ele>
        <time>2019-08-04T12:02:01.321Z</time>
      </trkpt>
      <trkpt lat="42.45784667" lon="1.44945833">
        <ele>1850.0</ele>
        <time>2019-08-04T12:02:02.330Z</time>
      </trkpt>
      <trkpt lat="42.45784333" lon="1.44951667">
        <ele>1850.0</ele>
        <time>2019-08-04T12:02:03.317Z</time>
      </trkpt>
      <trkpt lat="42.45784167" lon="1.449545">
        <ele>1850.0</ele>
        <time>2019-08-04T12:02:04.316Z</time>
      </trkpt>
      <trkpt lat="42.45784167" lon="1.449545">
        <ele>1850.0</ele>
        <time>2019-08-04T12:02:05.314Z</time>
      </trkpt>
      <trkpt lat="42.45784333" lon="1.44959833">
        <ele>1851.0</ele>
        <time>2019-08-04T12:02:06.316Z</time>
      </trkpt>
      <trkpt lat="42.45784333" lon="1.44959833">
        <ele>1851.0</ele>
        <time>2019-08-04T12:02:07.312Z</time>
      </trkpt>
      <trkpt lat="42.45784667" lon="1.449655">
        <ele>1851.0</ele>
        <time>2019-08-04T12:02:08.332Z</time>
      </trkpt>
      <trkpt lat="42.45784667" lon="1.449655">
        <ele>1851.0</ele>
        <time>2019-08-04T12:02:09.313Z</time>
      </trkpt>
      <trkpt lat="42.45784667" lon="1.44970667">
        <ele>1852.0</ele>
        <time>2019-08-04T12:02:10.316Z</time>
      </trkpt>
      <trkpt lat="42.45784667" lon="1.44970667">
        <ele>1852.0</ele>
        <time>2019-08-04T12:02:11.313Z</time>
      </trkpt>
      <trkpt lat="42.45784833" lon="1.44976167">
        <ele>1852.0</ele>
        <time>2019-08-04T12:02:12.309Z</time>
      </trkpt>
      <trkpt lat="42.45784833" lon="1.44979">
        <ele>1852.0</ele>
        <time>2019-08-04T12:02:13.296Z</time>
      </trkpt>
      <trkpt lat="42.45785" lon="1.44982167">
        <ele>1852.0</ele>
        <time>2019-08-04T12:02:14.334Z</time>
      </trkpt>
      <trkpt lat="42.45785" lon="1.44982167">
        <ele>1852.0</ele>
        <time>2019-08-04T12:02:15.314Z</time>
      </trkpt>
      <trkpt lat="42.45785" lon="1.44988167">
        <ele>1852.0</ele>
        <time>2019-08-04T12:02:16.316Z</time>
      </trkpt>
      <trkpt lat="42.45785" lon="1.44988167">
        <ele>1852.0</ele>
        <time>2019-08-04T12:02:17.313Z</time>
      </trkpt>
      <trkpt lat="42.45784667" lon="1.44994167">
        <ele>1853.0</ele>
        <time>2019-08-04T12:02:18.316Z</time>
      </trkpt>
      <trkpt lat="42.45784667" lon="1.44994167">
        <ele>1853.0</ele>
        <time>2019-08-04T12:02:19.313Z</time>
      </trkpt>
      <trkpt lat="42.45784667" lon="1.449995">
        <ele>1853.0</ele>
        <time>2019-08-04T12:02:20.298Z</time>
      </trkpt>
      <trkpt lat="42.45784667" lon="1.449995">
        <ele>1853.0</ele>
        <time>2019-08-04T12:02:21.318Z</time>
      </trkpt>
      <trkpt lat="42.45784667" lon="1.450055">
        <ele>1854.0</ele>
        <time>2019-08-04T12:02:22.331Z</time>
      </trkpt>
      <trkpt lat="42.45784667" lon="1.450055">
        <ele>1854.0</ele>
        <time>2019-08-04T12:02:23.314Z</time>
      </trkpt>
      <trkpt lat="42.45784833" lon="1.45010667">
        <ele>1854.0</ele>
        <time>2019-08-04T12:02:24.318Z</time>
      </trkpt>
      <trkpt lat="42.45784833" lon="1.45010667">
        <ele>1854.0</ele>
        <time>2019-08-04T12:02:25.312Z</time>
      </trkpt>
      <trkpt lat="42.45785333" lon="1.45015167">
        <ele>1854.0</ele>
        <time>2019-08-04T12:02:26.333Z</time>
      </trkpt>
      <trkpt lat="42.45785333" lon="1.45015167">
        <ele>1854.0</ele>
        <time>2019-08-04T12:02:27.313Z</time>
      </trkpt>
      <trkpt lat="42.45785833" lon="1.45020333">
        <ele>1854.0</ele>
        <time>2019-08-04T12:02:28.316Z</time>
      </trkpt>
      <trkpt lat="42.45785833" lon="1.45020333">
        <ele>1854.0</ele>
        <time>2019-08-04T12:02:29.321Z</time>
      </trkpt>
      <trkpt lat="42.45787167" lon="1.45025667">
        <ele>1854.0</ele>
        <time>2019-08-04T12:02:30.334Z</time>
      </trkpt>
      <trkpt lat="42.45787667" lon="1.45028333">
        <ele>1854.0</ele>
        <time>2019-08-04T12:02:31.314Z</time>
      </trkpt>
      <trkpt lat="42.45788" lon="1.45031">
        <ele>1854.0</ele>
        <time>2019-08-04T12:02:32.320Z</time>
      </trkpt>
      <trkpt lat="42.45788" lon="1.45031">
        <ele>1854.0</ele>
        <time>2019-08-04T12:02:33.327Z</time>
      </trkpt>
      <trkpt lat="42.45788167" lon="1.45036833">
        <ele>1854.0</ele>
        <time>2019-08-04T12:02:34.333Z</time>
      </trkpt>
      <trkpt lat="42.45788167" lon="1.4504">
        <ele>1855.0</ele>
        <time>2019-08-04T12:02:35.302Z</time>
      </trkpt>
      <trkpt lat="42.45788167" lon="1.4504">
        <ele>1855.0</ele>
        <time>2019-08-04T12:02:36.324Z</time>
      </trkpt>
      <trkpt lat="42.45788333" lon="1.45045833">
        <ele>1855.0</ele>
        <time>2019-08-04T12:02:37.315Z</time>
      </trkpt>
      <trkpt lat="42.45788667" lon="1.45048833">
        <ele>1855.0</ele>
        <time>2019-08-04T12:02:38.298Z</time>
      </trkpt>
      <trkpt lat="42.45788667" lon="1.45048833">
        <ele>1855.0</ele>
        <time>2019-08-04T12:02:39.321Z</time>
      </trkpt>
      <trkpt lat="42.45789333" lon="1.450545">
        <ele>1855.0</ele>
        <time>2019-08-04T12:02:40.317Z</time>
      </trkpt>
      <trkpt lat="42.45789333" lon="1.450545">
        <ele>1855.0</ele>
        <time>2019-08-04T12:02:41.314Z</time>
      </trkpt>
      <trkpt lat="42.4579" lon="1.4506">
        <ele>1855.0</ele>
        <time>2019-08-04T12:02:42.308Z</time>
      </trkpt>
      <trkpt lat="42.45790333" lon="1.450625">
        <ele>1856.0</ele>
        <time>2019-08-04T12:02:43.330Z</time>
      </trkpt>
      <trkpt lat="42.457905" lon="1.45065333">
        <ele>1856.0</ele>
        <time>2019-08-04T12:02:44.319Z</time>
      </trkpt>
      <trkpt lat="42.457905" lon="1.45065333">
        <ele>1856.0</ele>
        <time>2019-08-04T12:02:45.312Z</time>
      </trkpt>
      <trkpt lat="42.45790833" lon="1.45070167">
        <ele>1856.0</ele>
        <time>2019-08-04T12:02:46.317Z</time>
      </trkpt>
      <trkpt lat="42.45790833" lon="1.45070167">
        <ele>1856.0</ele>
        <time>2019-08-04T12:02:47.313Z</time>
      </trkpt>
      <trkpt lat="42.45790833" lon="1.45075">
        <ele>1857.0</ele>
        <time>2019-08-04T12:02:48.316Z</time>
      </trkpt>
      <trkpt lat="42.45790833" lon="1.45075">
        <ele>1857.0</ele>
        <time>2019-08-04T12:02:49.314Z</time>
      </trkpt>
      <trkpt lat="42.45791" lon="1.45079833">
        <ele>1857.0</ele>
        <time>2019-08-04T12:02:50.298Z</time>
      </trkpt>
      <trkpt lat="42.45791" lon="1.45079833">
        <ele>1857.0</ele>
        <time>2019-08-04T12:02:51.320Z</time>
      </trkpt>
      <trkpt lat="42.45791167" lon="1.45085167">
        <ele>1857.0</ele>
        <time>2019-08-04T12:02:52.306Z</time>
      </trkpt>
      <trkpt lat="42.45791167" lon="1.45085167">
        <ele>1857.0</ele>
        <time>2019-08-04T12:02:53.330Z</time>
      </trkpt>
      <trkpt lat="42.45791333" lon="1.45089833">
        <ele>1858.0</ele>
        <time>2019-08-04T12:02:54.317Z</time>
      </trkpt>
      <trkpt lat="42.45791167" lon="1.45092667">
        <ele>1858.0</ele>
        <time>2019-08-04T12:02:55.317Z</time>
      </trkpt>
      <trkpt lat="42.45791" lon="1.45095333">
        <ele>1858.0</ele>
        <time>2019-08-04T12:02:56.320Z</time>
      </trkpt>
      <trkpt lat="42.45791" lon="1.45095333">
        <ele>1858.0</ele>
        <time>2019-08-04T12:02:57.314Z</time>
      </trkpt>
      <trkpt lat="42.45791667" lon="1.45101333">
        <ele>1859.0</ele>
        <time>2019-08-04T12:02:58.317Z</time>
      </trkpt>
      <trkpt lat="42.45791667" lon="1.45101333">
        <ele>1859.0</ele>
        <time>2019-08-04T12:02:59.314Z</time>
      </trkpt>
      <trkpt lat="42.45793" lon="1.45106833">
        <ele>1859.0</ele>
        <time>2019-08-04T12:03:00.317Z</time>
      </trkpt>
      <trkpt lat="42.45794" lon="1.451095">
        <ele>1859.0</ele>
        <time>2019-08-04T12:03:01.317Z</time>
      </trkpt>
      <trkpt lat="42.45794667" lon="1.45112333">
        <ele>1860.0</ele>
        <time>2019-08-04T12:03:02.303Z</time>
      </trkpt>
      <trkpt lat="42.45794667" lon="1.45112333">
        <ele>1860.0</ele>
        <time>2019-08-04T12:03:03.318Z</time>
      </trkpt>
      <trkpt lat="42.45795333" lon="1.45117333">
        <ele>1860.0</ele>
        <time>2019-08-04T12:03:04.317Z</time>
      </trkpt>
      <trkpt lat="42.45795333" lon="1.45117333">
        <ele>1860.0</ele>
        <time>2019-08-04T12:03:05.314Z</time>
      </trkpt>
      <trkpt lat="42.45796167" lon="1.451225">
        <ele>1861.0</ele>
        <time>2019-08-04T12:03:06.318Z</time>
      </trkpt>
      <trkpt lat="42.45796167" lon="1.451225">
        <ele>1861.0</ele>
        <time>2019-08-04T12:03:07.311Z</time>
      </trkpt>
      <trkpt lat="42.45796" lon="1.45128167">
        <ele>1861.0</ele>
        <time>2019-08-04T12:03:08.296Z</time>
      </trkpt>
      <trkpt lat="42.45796" lon="1.45128167">
        <ele>1861.0</ele>
        <time>2019-08-04T12:03:09.330Z</time>
      </trkpt>
      <trkpt lat="42.45796667" lon="1.45133833">
        <ele>1862.0</ele>
        <time>2019-08-04T12:03:10.317Z</time>
      </trkpt>
      <trkpt lat="42.45796667" lon="1.45136667">
        <ele>1862.0</ele>
        <time>2019-08-04T12:03:11.316Z</time>
      </trkpt>
      <trkpt lat="42.45796667" lon="1.45136667">
        <ele>1862.0</ele>
        <time>2019-08-04T12:03:12.329Z</time>
      </trkpt>
      <trkpt lat="42.45795667" lon="1.45142333">
        <ele>1862.0</ele>
        <time>2019-08-04T12:03:13.296Z</time>
      </trkpt>
      <trkpt lat="42.45795667" lon="1.45145333">
        <ele>1863.0</ele>
        <time>2019-08-04T12:03:14.320Z</time>
      </trkpt>
      <trkpt lat="42.45795667" lon="1.45145333">
        <ele>1863.0</ele>
        <time>2019-08-04T12:03:15.314Z</time>
      </trkpt>
      <trkpt lat="42.45795833" lon="1.45152167">
        <ele>1863.0</ele>
        <time>2019-08-04T12:03:16.318Z</time>
      </trkpt>
      <trkpt lat="42.45795833" lon="1.45152167">
        <ele>1863.0</ele>
        <time>2019-08-04T12:03:17.312Z</time>
      </trkpt>
      <trkpt lat="42.45797833" lon="1.45158167">
        <ele>1863.0</ele>
        <time>2019-08-04T12:03:18.317Z</time>
      </trkpt>
      <trkpt lat="42.45797833" lon="1.45158167">
        <ele>1863.0</ele>
        <time>2019-08-04T12:03:19.315Z</time>
      </trkpt>
      <trkpt lat="42.45801833" lon="1.45160167">
        <ele>1864.0</ele>
        <time>2019-08-04T12:03:20.299Z</time>
      </trkpt>
      <trkpt lat="42.45801833" lon="1.45160167">
        <ele>1864.0</ele>
        <time>2019-08-04T12:03:21.320Z</time>
      </trkpt>
      <trkpt lat="42.45806333" lon="1.45157667">
        <ele>1863.0</ele>
        <time>2019-08-04T12:03:22.296Z</time>
      </trkpt>
      <trkpt lat="42.45806333" lon="1.45157667">
        <ele>1863.0</ele>
        <time>2019-08-04T12:03:23.314Z</time>
      </trkpt>
      <trkpt lat="42.45807333" lon="1.45152833">
        <ele>1863.0</ele>
        <time>2019-08-04T12:03:24.317Z</time>
      </trkpt>
      <trkpt lat="42.45807333" lon="1.45150167">
        <ele>1863.0</ele>
        <time>2019-08-04T12:03:25.317Z</time>
      </trkpt>
      <trkpt lat="42.45807333" lon="1.45150167">
        <ele>1863.0</ele>
        <time>2019-08-04T12:03:26.313Z</time>
      </trkpt>
      <trkpt lat="42.45807" lon="1.45144667">
        <ele>1863.0</ele>
        <time>2019-08-04T12:03:27.315Z</time>
      </trkpt>
      <trkpt lat="42.45806667" lon="1.45142">
        <ele>1863.0</ele>
        <time>2019-08-04T12:03:28.316Z</time>
      </trkpt>
      <trkpt lat="42.45806667" lon="1.45142">
        <ele>1863.0</ele>
        <time>2019-08-04T12:03:29.328Z</time>
      </trkpt>
      <trkpt lat="42.458065" lon="1.45137">
        <ele>1862.0</ele>
        <time>2019-08-04T12:03:30.298Z</time>
      </trkpt>
      <trkpt lat="42.458065" lon="1.45137">
        <ele>1862.0</ele>
        <time>2019-08-04T12:03:31.305Z</time>
      </trkpt>
      <trkpt lat="42.45806667" lon="1.45132333">
        <ele>1862.0</ele>
        <time>2019-08-04T12:03:32.298Z</time>
      </trkpt>
      <trkpt lat="42.45806667" lon="1.45132333">
        <ele>1862.0</ele>
        <time>2019-08-04T12:03:33.322Z</time>
      </trkpt>
      <trkpt lat="42.45807333" lon="1.45127167">
        <ele>1862.0</ele>
        <time>2019-08-04T12:03:34.317Z</time>
      </trkpt>
      <trkpt lat="42.45807333" lon="1.45127167">
        <ele>1862.0</ele>
        <time>2019-08-04T12:03:35.298Z</time>
      </trkpt>
      <trkpt lat="42.458085" lon="1.45122333">
        <ele>1862.0</ele>
        <time>2019-08-04T12:03:36.320Z</time>
      </trkpt>
      <trkpt lat="42.458085" lon="1.45122333">
        <ele>1862.0</ele>
        <time>2019-08-04T12:03:37.315Z</time>
      </trkpt>
      <trkpt lat="42.458085" lon="1.451175">
        <ele>1861.0</ele>
        <time>2019-08-04T12:03:38.320Z</time>
      </trkpt>
      <trkpt lat="42.458085" lon="1.451175">
        <ele>1861.0</ele>
        <time>2019-08-04T12:03:39.314Z</time>
      </trkpt>
      <trkpt lat="42.45809" lon="1.45113">
        <ele>1862.0</ele>
        <time>2019-08-04T12:03:40.318Z</time>
      </trkpt>
      <trkpt lat="42.4581" lon="1.45110833">
        <ele>1861.0</ele>
        <time>2019-08-04T12:03:41.317Z</time>
      </trkpt>
      <trkpt lat="42.4581" lon="1.45110833">
        <ele>1861.0</ele>
        <time>2019-08-04T12:03:42.296Z</time>
      </trkpt>
      <trkpt lat="42.45811333" lon="1.45106333">
        <ele>1861.0</ele>
        <time>2019-08-04T12:03:43.313Z</time>
      </trkpt>
      <trkpt lat="42.45812167" lon="1.45104333">
        <ele>1861.0</ele>
        <time>2019-08-04T12:03:44.298Z</time>
      </trkpt>
      <trkpt lat="42.45812167" lon="1.45104333">
        <ele>1861.0</ele>
        <time>2019-08-04T12:03:45.320Z</time>
      </trkpt>
      <trkpt lat="42.458135" lon="1.45099167">
        <ele>1861.0</ele>
        <time>2019-08-04T12:03:46.317Z</time>
      </trkpt>
      <trkpt lat="42.458135" lon="1.45099167">
        <ele>1861.0</ele>
        <time>2019-08-04T12:03:47.315Z</time>
      </trkpt>
      <trkpt lat="42.45814" lon="1.45093">
        <ele>1861.0</ele>
        <time>2019-08-04T12:03:48.317Z</time>
      </trkpt>
      <trkpt lat="42.45814" lon="1.45093">
        <ele>1861.0</ele>
        <time>2019-08-04T12:03:49.313Z</time>
      </trkpt>
      <trkpt lat="42.458145" lon="1.45087833">
        <ele>1862.0</ele>
        <time>2019-08-04T12:03:50.298Z</time>
      </trkpt>
      <trkpt lat="42.458145" lon="1.45087833">
        <ele>1862.0</ele>
        <time>2019-08-04T12:03:51.318Z</time>
      </trkpt>
      <trkpt lat="42.45815667" lon="1.45082667">
        <ele>1862.0</ele>
        <time>2019-08-04T12:03:52.299Z</time>
      </trkpt>
      <trkpt lat="42.45815667" lon="1.45082667">
        <ele>1862.0</ele>
        <time>2019-08-04T12:03:53.319Z</time>
      </trkpt>
      <trkpt lat="42.45817333" lon="1.45077667">
        <ele>1862.0</ele>
        <time>2019-08-04T12:03:54.317Z</time>
      </trkpt>
      <trkpt lat="42.45818" lon="1.45075333">
        <ele>1862.0</ele>
        <time>2019-08-04T12:03:55.298Z</time>
      </trkpt>
      <trkpt lat="42.458185" lon="1.45072833">
        <ele>1862.0</ele>
        <time>2019-08-04T12:03:56.321Z</time>
      </trkpt>
      <trkpt lat="42.458185" lon="1.45072833">
        <ele>1862.0</ele>
        <time>2019-08-04T12:03:57.314Z</time>
      </trkpt>
      <trkpt lat="42.45820333" lon="1.45068167">
        <ele>1862.0</ele>
        <time>2019-08-04T12:03:58.317Z</time>
      </trkpt>
      <trkpt lat="42.45820333" lon="1.45068167">
        <ele>1862.0</ele>
        <time>2019-08-04T12:03:59.314Z</time>
      </trkpt>
      <trkpt lat="42.45821667" lon="1.45063667">
        <ele>1862.0</ele>
        <time>2019-08-04T12:04:00.300Z</time>
      </trkpt>
      <trkpt lat="42.45821667" lon="1.45063667">
        <ele>1862.0</ele>
        <time>2019-08-04T12:04:01.320Z</time>
      </trkpt>
      <trkpt lat="42.458235" lon="1.45059333">
        <ele>1861.0</ele>
        <time>2019-08-04T12:04:02.296Z</time>
      </trkpt>
      <trkpt lat="42.458235" lon="1.45059333">
        <ele>1861.0</ele>
        <time>2019-08-04T12:04:03.314Z</time>
      </trkpt>
      <trkpt lat="42.45824667" lon="1.450545">
        <ele>1861.0</ele>
        <time>2019-08-04T12:04:04.296Z</time>
      </trkpt>
      <trkpt lat="42.45824667" lon="1.450545">
        <ele>1861.0</ele>
        <time>2019-08-04T12:04:05.316Z</time>
      </trkpt>
      <trkpt lat="42.458255" lon="1.45049667">
        <ele>1861.0</ele>
        <time>2019-08-04T12:04:06.317Z</time>
      </trkpt>
      <trkpt lat="42.45825833" lon="1.45046833">
        <ele>1861.0</ele>
        <time>2019-08-04T12:04:07.317Z</time>
      </trkpt>
      <trkpt lat="42.458265" lon="1.450445">
        <ele>1861.0</ele>
        <time>2019-08-04T12:04:08.315Z</time>
      </trkpt>
      <trkpt lat="42.458265" lon="1.450445">
        <ele>1861.0</ele>
        <time>2019-08-04T12:04:09.312Z</time>
      </trkpt>
      <trkpt lat="42.45828" lon="1.45040667">
        <ele>1861.0</ele>
        <time>2019-08-04T12:04:10.317Z</time>
      </trkpt>
      <trkpt lat="42.45828" lon="1.45040667">
        <ele>1861.0</ele>
        <time>2019-08-04T12:04:11.315Z</time>
      </trkpt>
      <trkpt lat="42.45829333" lon="1.45037167">
        <ele>1860.0</ele>
        <time>2019-08-04T12:04:12.300Z</time>
      </trkpt>
      <trkpt lat="42.45829333" lon="1.45037167">
        <ele>1860.0</ele>
        <time>2019-08-04T12:04:13.322Z</time>
      </trkpt>
      <trkpt lat="42.4583" lon="1.45032667">
        <ele>1860.0</ele>
        <time>2019-08-04T12:04:14.320Z</time>
      </trkpt>
      <trkpt lat="42.4583" lon="1.45032667">
        <ele>1860.0</ele>
        <time>2019-08-04T12:04:15.315Z</time>
      </trkpt>
      <trkpt lat="42.45831" lon="1.450275">
        <ele>1860.0</ele>
        <time>2019-08-04T12:04:16.317Z</time>
      </trkpt>
      <trkpt lat="42.45831" lon="1.450275">
        <ele>1860.0</ele>
        <time>2019-08-04T12:04:17.318Z</time>
      </trkpt>
      <trkpt lat="42.45832333" lon="1.450225">
        <ele>1860.0</ele>
        <time>2019-08-04T12:04:18.318Z</time>
      </trkpt>
      <trkpt lat="42.45833333" lon="1.45020167">
        <ele>1860.0</ele>
        <time>2019-08-04T12:04:19.318Z</time>
      </trkpt>
      <trkpt lat="42.45834167" lon="1.45017833">
        <ele>1859.0</ele>
        <time>2019-08-04T12:04:20.319Z</time>
      </trkpt>
      <trkpt lat="42.45834167" lon="1.45017833">
        <ele>1859.0</ele>
        <time>2019-08-04T12:04:21.315Z</time>
      </trkpt>
      <trkpt lat="42.45835833" lon="1.45012667">
        <ele>1860.0</ele>
        <time>2019-08-04T12:04:22.299Z</time>
      </trkpt>
      <trkpt lat="42.45835833" lon="1.45012667">
        <ele>1860.0</ele>
        <time>2019-08-04T12:04:23.320Z</time>
      </trkpt>
      <trkpt lat="42.458375" lon="1.45008">
        <ele>1860.0</ele>
        <time>2019-08-04T12:04:24.318Z</time>
      </trkpt>
      <trkpt lat="42.458385" lon="1.45005833">
        <ele>1860.0</ele>
        <time>2019-08-04T12:04:25.317Z</time>
      </trkpt>
      <trkpt lat="42.458385" lon="1.45005833">
        <ele>1860.0</ele>
        <time>2019-08-04T12:04:26.298Z</time>
      </trkpt>
      <trkpt lat="42.4584" lon="1.45000833">
        <ele>1860.0</ele>
        <time>2019-08-04T12:04:27.320Z</time>
      </trkpt>
      <trkpt lat="42.45840833" lon="1.44998667">
        <ele>1859.0</ele>
        <time>2019-08-04T12:04:28.318Z</time>
      </trkpt>
      <trkpt lat="42.45840833" lon="1.44998667">
        <ele>1859.0</ele>
        <time>2019-08-04T12:04:29.327Z</time>
      </trkpt>
      <trkpt lat="42.45842333" lon="1.44994167">
        <ele>1860.0</ele>
        <time>2019-08-04T12:04:30.301Z</time>
      </trkpt>
      <trkpt lat="42.45843333" lon="1.44992">
        <ele>1860.0</ele>
        <time>2019-08-04T12:04:31.308Z</time>
      </trkpt>
      <trkpt lat="42.45844333" lon="1.44989833">
        <ele>1860.0</ele>
        <time>2019-08-04T12:04:32.298Z</time>
      </trkpt>
      <trkpt lat="42.45844333" lon="1.44989833">
        <ele>1860.0</ele>
        <time>2019-08-04T12:04:33.324Z</time>
      </trkpt>
      <trkpt lat="42.458465" lon="1.44985">
        <ele>1860.0</ele>
        <time>2019-08-04T12:04:34.317Z</time>
      </trkpt>
      <trkpt lat="42.458465" lon="1.44985">
        <ele>1860.0</ele>
        <time>2019-08-04T12:04:35.325Z</time>
      </trkpt>
      <trkpt lat="42.45849167" lon="1.44979833">
        <ele>1860.0</ele>
        <time>2019-08-04T12:04:36.317Z</time>
      </trkpt>
      <trkpt lat="42.45849167" lon="1.44979833">
        <ele>1860.0</ele>
        <time>2019-08-04T12:04:37.313Z</time>
      </trkpt>
      <trkpt lat="42.45851" lon="1.449745">
        <ele>1861.0</ele>
        <time>2019-08-04T12:04:38.296Z</time>
      </trkpt>
      <trkpt lat="42.45851" lon="1.449745">
        <ele>1861.0</ele>
        <time>2019-08-04T12:04:39.315Z</time>
      </trkpt>
      <trkpt lat="42.45852167" lon="1.449685">
        <ele>1861.0</ele>
        <time>2019-08-04T12:04:40.315Z</time>
      </trkpt>
      <trkpt lat="42.45852167" lon="1.449685">
        <ele>1861.0</ele>
        <time>2019-08-04T12:04:41.312Z</time>
      </trkpt>
      <trkpt lat="42.45854167" lon="1.44962833">
        <ele>1862.0</ele>
        <time>2019-08-04T12:04:42.299Z</time>
      </trkpt>
      <trkpt lat="42.45854167" lon="1.44962833">
        <ele>1862.0</ele>
        <time>2019-08-04T12:04:43.325Z</time>
      </trkpt>
      <trkpt lat="42.45857" lon="1.44957167">
        <ele>1863.0</ele>
        <time>2019-08-04T12:04:44.318Z</time>
      </trkpt>
      <trkpt lat="42.45858167" lon="1.44954667">
        <ele>1863.0</ele>
        <time>2019-08-04T12:04:45.316Z</time>
      </trkpt>
      <trkpt lat="42.45858167" lon="1.44954667">
        <ele>1863.0</ele>
        <time>2019-08-04T12:04:46.313Z</time>
      </trkpt>
      <trkpt lat="42.45859667" lon="1.44949">
        <ele>1864.0</ele>
        <time>2019-08-04T12:04:47.317Z</time>
      </trkpt>
      <trkpt lat="42.45859667" lon="1.44949">
        <ele>1864.0</ele>
        <time>2019-08-04T12:04:48.314Z</time>
      </trkpt>
      <trkpt lat="42.45860833" lon="1.449435">
        <ele>1864.0</ele>
        <time>2019-08-04T12:04:49.317Z</time>
      </trkpt>
      <trkpt lat="42.45861667" lon="1.44941">
        <ele>1864.0</ele>
        <time>2019-08-04T12:04:50.299Z</time>
      </trkpt>
      <trkpt lat="42.45861667" lon="1.44941">
        <ele>1864.0</ele>
        <time>2019-08-04T12:04:51.319Z</time>
      </trkpt>
      <trkpt lat="42.45863833" lon="1.44936">
        <ele>1865.0</ele>
        <time>2019-08-04T12:04:52.296Z</time>
      </trkpt>
      <trkpt lat="42.45863833" lon="1.44936">
        <ele>1865.0</ele>
        <time>2019-08-04T12:04:53.317Z</time>
      </trkpt>
      <trkpt lat="42.45866" lon="1.449305">
        <ele>1866.0</ele>
        <time>2019-08-04T12:04:54.318Z</time>
      </trkpt>
      <trkpt lat="42.45866" lon="1.449305">
        <ele>1866.0</ele>
        <time>2019-08-04T12:04:55.314Z</time>
      </trkpt>
      <trkpt lat="42.45867667" lon="1.44924833">
        <ele>1867.0</ele>
        <time>2019-08-04T12:04:56.299Z</time>
      </trkpt>
      <trkpt lat="42.45867667" lon="1.44924833">
        <ele>1867.0</ele>
        <time>2019-08-04T12:04:57.320Z</time>
      </trkpt>
      <trkpt lat="42.458685" lon="1.44919333">
        <ele>1867.0</ele>
        <time>2019-08-04T12:04:58.318Z</time>
      </trkpt>
      <trkpt lat="42.458685" lon="1.44919333">
        <ele>1867.0</ele>
        <time>2019-08-04T12:04:59.315Z</time>
      </trkpt>
      <trkpt lat="42.45869167" lon="1.44913667">
        <ele>1867.0</ele>
        <time>2019-08-04T12:05:00.317Z</time>
      </trkpt>
      <trkpt lat="42.45869167" lon="1.44913667">
        <ele>1867.0</ele>
        <time>2019-08-04T12:05:01.315Z</time>
      </trkpt>
      <trkpt lat="42.4587" lon="1.44908">
        <ele>1867.0</ele>
        <time>2019-08-04T12:05:02.308Z</time>
      </trkpt>
      <trkpt lat="42.4587" lon="1.44908">
        <ele>1867.0</ele>
        <time>2019-08-04T12:05:03.334Z</time>
      </trkpt>
      <trkpt lat="42.45871" lon="1.44902333">
        <ele>1867.0</ele>
        <time>2019-08-04T12:05:04.331Z</time>
      </trkpt>
      <trkpt lat="42.45871" lon="1.44902333">
        <ele>1867.0</ele>
        <time>2019-08-04T12:05:05.315Z</time>
      </trkpt>
      <trkpt lat="42.45872833" lon="1.44897167">
        <ele>1867.0</ele>
        <time>2019-08-04T12:05:06.296Z</time>
      </trkpt>
      <trkpt lat="42.45872833" lon="1.44897167">
        <ele>1867.0</ele>
        <time>2019-08-04T12:05:07.315Z</time>
      </trkpt>
      <trkpt lat="42.45874667" lon="1.44892333">
        <ele>1868.0</ele>
        <time>2019-08-04T12:05:08.299Z</time>
      </trkpt>
      <trkpt lat="42.45874667" lon="1.44892333">
        <ele>1868.0</ele>
        <time>2019-08-04T12:05:09.320Z</time>
      </trkpt>
      <trkpt lat="42.458765" lon="1.44886667">
        <ele>1868.0</ele>
        <time>2019-08-04T12:05:10.316Z</time>
      </trkpt>
      <trkpt lat="42.45877" lon="1.44883667">
        <ele>1868.0</ele>
        <time>2019-08-04T12:05:11.318Z</time>
      </trkpt>
      <trkpt lat="42.45877" lon="1.44883667">
        <ele>1868.0</ele>
        <time>2019-08-04T12:05:12.323Z</time>
      </trkpt>
      <trkpt lat="42.458775" lon="1.44877167">
        <ele>1870.0</ele>
        <time>2019-08-04T12:05:13.327Z</time>
      </trkpt>
      <trkpt lat="42.45878" lon="1.448745">
        <ele>1870.0</ele>
        <time>2019-08-04T12:05:14.320Z</time>
      </trkpt>
      <trkpt lat="42.45878" lon="1.448745">
        <ele>1870.0</ele>
        <time>2019-08-04T12:05:15.313Z</time>
      </trkpt>
      <trkpt lat="42.45878167" lon="1.44868833">
        <ele>1871.0</ele>
        <time>2019-08-04T12:05:16.318Z</time>
      </trkpt>
      <trkpt lat="42.45878167" lon="1.44868833">
        <ele>1871.0</ele>
        <time>2019-08-04T12:05:17.315Z</time>
      </trkpt>
      <trkpt lat="42.45879167" lon="1.44863333">
        <ele>1872.0</ele>
        <time>2019-08-04T12:05:18.317Z</time>
      </trkpt>
      <trkpt lat="42.45879667" lon="1.44861">
        <ele>1872.0</ele>
        <time>2019-08-04T12:05:19.318Z</time>
      </trkpt>
      <trkpt lat="42.45879833" lon="1.44858167">
        <ele>1873.0</ele>
        <time>2019-08-04T12:05:20.317Z</time>
      </trkpt>
      <trkpt lat="42.45879833" lon="1.44858167">
        <ele>1873.0</ele>
        <time>2019-08-04T12:05:21.312Z</time>
      </trkpt>
      <trkpt lat="42.45880667" lon="1.44852333">
        <ele>1874.0</ele>
        <time>2019-08-04T12:05:22.296Z</time>
      </trkpt>
      <trkpt lat="42.45880667" lon="1.44852333">
        <ele>1874.0</ele>
        <time>2019-08-04T12:05:23.315Z</time>
      </trkpt>
      <trkpt lat="42.45881167" lon="1.44847667">
        <ele>1875.0</ele>
        <time>2019-08-04T12:05:24.317Z</time>
      </trkpt>
      <trkpt lat="42.45881167" lon="1.44847667">
        <ele>1875.0</ele>
        <time>2019-08-04T12:05:25.315Z</time>
      </trkpt>
      <trkpt lat="42.45882833" lon="1.44843167">
        <ele>1875.0</ele>
        <time>2019-08-04T12:05:26.299Z</time>
      </trkpt>
      <trkpt lat="42.45882833" lon="1.44843167">
        <ele>1875.0</ele>
        <time>2019-08-04T12:05:27.319Z</time>
      </trkpt>
      <trkpt lat="42.45884167" lon="1.448385">
        <ele>1875.0</ele>
        <time>2019-08-04T12:05:28.318Z</time>
      </trkpt>
      <trkpt lat="42.45884167" lon="1.448385">
        <ele>1875.0</ele>
        <time>2019-08-04T12:05:29.297Z</time>
      </trkpt>
      <trkpt lat="42.45885167" lon="1.44834">
        <ele>1875.0</ele>
        <time>2019-08-04T12:05:30.310Z</time>
      </trkpt>
      <trkpt lat="42.45885167" lon="1.44834">
        <ele>1875.0</ele>
        <time>2019-08-04T12:05:31.316Z</time>
      </trkpt>
      <trkpt lat="42.458865" lon="1.44829">
        <ele>1875.0</ele>
        <time>2019-08-04T12:05:32.300Z</time>
      </trkpt>
      <trkpt lat="42.458865" lon="1.44829">
        <ele>1875.0</ele>
        <time>2019-08-04T12:05:33.322Z</time>
      </trkpt>
      <trkpt lat="42.45887667" lon="1.44824">
        <ele>1875.0</ele>
        <time>2019-08-04T12:05:34.316Z</time>
      </trkpt>
      <trkpt lat="42.45888167" lon="1.44821167">
        <ele>1875.0</ele>
        <time>2019-08-04T12:05:35.301Z</time>
      </trkpt>
      <trkpt lat="42.45888167" lon="1.44821167">
        <ele>1875.0</ele>
        <time>2019-08-04T12:05:36.321Z</time>
      </trkpt>
      <trkpt lat="42.45888" lon="1.44814833">
        <ele>1875.0</ele>
        <time>2019-08-04T12:05:37.318Z</time>
      </trkpt>
      <trkpt lat="42.45888333" lon="1.44811833">
        <ele>1876.0</ele>
        <time>2019-08-04T12:05:38.320Z</time>
      </trkpt>
      <trkpt lat="42.45888333" lon="1.44811833">
        <ele>1876.0</ele>
        <time>2019-08-04T12:05:39.312Z</time>
      </trkpt>
      <trkpt lat="42.45889" lon="1.44806">
        <ele>1876.0</ele>
        <time>2019-08-04T12:05:40.318Z</time>
      </trkpt>
      <trkpt lat="42.45889" lon="1.44806">
        <ele>1876.0</ele>
        <time>2019-08-04T12:05:41.315Z</time>
      </trkpt>
      <trkpt lat="42.45889333" lon="1.448">
        <ele>1876.0</ele>
        <time>2019-08-04T12:05:42.299Z</time>
      </trkpt>
      <trkpt lat="42.45889333" lon="1.448">
        <ele>1876.0</ele>
        <time>2019-08-04T12:05:43.319Z</time>
      </trkpt>
      <trkpt lat="42.45889667" lon="1.44794">
        <ele>1876.0</ele>
        <time>2019-08-04T12:05:44.318Z</time>
      </trkpt>
      <trkpt lat="42.45889667" lon="1.44794">
        <ele>1876.0</ele>
        <time>2019-08-04T12:05:45.315Z</time>
      </trkpt>
      <trkpt lat="42.45889333" lon="1.44788833">
        <ele>1876.0</ele>
        <time>2019-08-04T12:05:46.318Z</time>
      </trkpt>
      <trkpt lat="42.45888833" lon="1.44786">
        <ele>1876.0</ele>
        <time>2019-08-04T12:05:47.315Z</time>
      </trkpt>
      <trkpt lat="42.45888667" lon="1.44783167">
        <ele>1876.0</ele>
        <time>2019-08-04T12:05:48.317Z</time>
      </trkpt>
      <trkpt lat="42.45888667" lon="1.44783167">
        <ele>1876.0</ele>
        <time>2019-08-04T12:05:49.315Z</time>
      </trkpt>
      <trkpt lat="42.45887667" lon="1.447765">
        <ele>1877.0</ele>
        <time>2019-08-04T12:05:50.321Z</time>
      </trkpt>
      <trkpt lat="42.45887667" lon="1.447765">
        <ele>1877.0</ele>
        <time>2019-08-04T12:05:51.315Z</time>
      </trkpt>
      <trkpt lat="42.458865" lon="1.44771">
        <ele>1877.0</ele>
        <time>2019-08-04T12:05:52.327Z</time>
      </trkpt>
      <trkpt lat="42.458865" lon="1.44771">
        <ele>1877.0</ele>
        <time>2019-08-04T12:05:53.315Z</time>
      </trkpt>
      <trkpt lat="42.45885833" lon="1.44765333">
        <ele>1878.0</ele>
        <time>2019-08-04T12:05:54.317Z</time>
      </trkpt>
      <trkpt lat="42.45885833" lon="1.44765333">
        <ele>1878.0</ele>
        <time>2019-08-04T12:05:55.318Z</time>
      </trkpt>
      <trkpt lat="42.45886" lon="1.44759833">
        <ele>1878.0</ele>
        <time>2019-08-04T12:05:56.320Z</time>
      </trkpt>
      <trkpt lat="42.45886" lon="1.44759833">
        <ele>1878.0</ele>
        <time>2019-08-04T12:05:57.314Z</time>
      </trkpt>
      <trkpt lat="42.45887333" lon="1.44754167">
        <ele>1879.0</ele>
        <time>2019-08-04T12:05:58.317Z</time>
      </trkpt>
      <trkpt lat="42.45887333" lon="1.44754167">
        <ele>1879.0</ele>
        <time>2019-08-04T12:05:59.312Z</time>
      </trkpt>
      <trkpt lat="42.45889667" lon="1.44749667">
        <ele>1880.0</ele>
        <time>2019-08-04T12:06:00.301Z</time>
      </trkpt>
      <trkpt lat="42.45890667" lon="1.44748">
        <ele>1881.0</ele>
        <time>2019-08-04T12:06:01.297Z</time>
      </trkpt>
      <trkpt lat="42.45892667" lon="1.44747">
        <ele>1882.0</ele>
        <time>2019-08-04T12:06:02.318Z</time>
      </trkpt>
      <trkpt lat="42.45892667" lon="1.44747">
        <ele>1882.0</ele>
        <time>2019-08-04T12:06:03.312Z</time>
      </trkpt>
      <trkpt lat="42.458965" lon="1.44748">
        <ele>1882.0</ele>
        <time>2019-08-04T12:06:04.318Z</time>
      </trkpt>
      <trkpt lat="42.45898333" lon="1.44749167">
        <ele>1883.0</ele>
        <time>2019-08-04T12:06:05.318Z</time>
      </trkpt>
      <trkpt lat="42.45898333" lon="1.44749167">
        <ele>1883.0</ele>
        <time>2019-08-04T12:06:06.316Z</time>
      </trkpt>
      <trkpt lat="42.45901333" lon="1.447515">
        <ele>1884.0</ele>
        <time>2019-08-04T12:06:07.318Z</time>
      </trkpt>
      <trkpt lat="42.45902667" lon="1.447525">
        <ele>1884.0</ele>
        <time>2019-08-04T12:06:08.321Z</time>
      </trkpt>
      <trkpt lat="42.45902667" lon="1.447525">
        <ele>1884.0</ele>
        <time>2019-08-04T12:06:09.315Z</time>
      </trkpt>
      <trkpt lat="42.459045" lon="1.44756">
        <ele>1885.0</ele>
        <time>2019-08-04T12:06:10.318Z</time>
      </trkpt>
      <trkpt lat="42.459045" lon="1.44756">
        <ele>1885.0</ele>
        <time>2019-08-04T12:06:11.315Z</time>
      </trkpt>
      <trkpt lat="42.45906" lon="1.447595">
        <ele>1886.0</ele>
        <time>2019-08-04T12:06:12.301Z</time>
      </trkpt>
      <trkpt lat="42.45906667" lon="1.44761667">
        <ele>1887.0</ele>
        <time>2019-08-04T12:06:13.322Z</time>
      </trkpt>
      <trkpt lat="42.45906833" lon="1.447635">
        <ele>1888.0</ele>
        <time>2019-08-04T12:06:14.321Z</time>
      </trkpt>
      <trkpt lat="42.45906833" lon="1.447635">
        <ele>1888.0</ele>
        <time>2019-08-04T12:06:15.315Z</time>
      </trkpt>
      <trkpt lat="42.459075" lon="1.447675">
        <ele>1889.0</ele>
        <time>2019-08-04T12:06:16.317Z</time>
      </trkpt>
      <trkpt lat="42.459075" lon="1.447675">
        <ele>1889.0</ele>
        <time>2019-08-04T12:06:17.314Z</time>
      </trkpt>
      <trkpt lat="42.45908" lon="1.44772">
        <ele>1890.0</ele>
        <time>2019-08-04T12:06:18.318Z</time>
      </trkpt>
      <trkpt lat="42.45908" lon="1.44772">
        <ele>1890.0</ele>
        <time>2019-08-04T12:06:19.315Z</time>
      </trkpt>
      <trkpt lat="42.45909" lon="1.44777667">
        <ele>1890.0</ele>
        <time>2019-08-04T12:06:20.321Z</time>
      </trkpt>
      <trkpt lat="42.45909" lon="1.44777667">
        <ele>1890.0</ele>
        <time>2019-08-04T12:06:21.315Z</time>
      </trkpt>
      <trkpt lat="42.45909667" lon="1.44783333">
        <ele>1891.0</ele>
        <time>2019-08-04T12:06:22.296Z</time>
      </trkpt>
      <trkpt lat="42.45909667" lon="1.44783333">
        <ele>1891.0</ele>
        <time>2019-08-04T12:06:23.315Z</time>
      </trkpt>
      <trkpt lat="42.459105" lon="1.44788333">
        <ele>1892.0</ele>
        <time>2019-08-04T12:06:24.318Z</time>
      </trkpt>
      <trkpt lat="42.459105" lon="1.44788333">
        <ele>1892.0</ele>
        <time>2019-08-04T12:06:25.315Z</time>
      </trkpt>
      <trkpt lat="42.45911333" lon="1.447935">
        <ele>1893.0</ele>
        <time>2019-08-04T12:06:26.299Z</time>
      </trkpt>
      <trkpt lat="42.45911333" lon="1.447935">
        <ele>1893.0</ele>
        <time>2019-08-04T12:06:27.320Z</time>
      </trkpt>
      <trkpt lat="42.45912" lon="1.44798667">
        <ele>1894.0</ele>
        <time>2019-08-04T12:06:28.317Z</time>
      </trkpt>
      <trkpt lat="42.45912" lon="1.44798667">
        <ele>1894.0</ele>
        <time>2019-08-04T12:06:29.332Z</time>
      </trkpt>
      <trkpt lat="42.45912667" lon="1.44804167">
        <ele>1895.0</ele>
        <time>2019-08-04T12:06:30.296Z</time>
      </trkpt>
      <trkpt lat="42.45912667" lon="1.44804167">
        <ele>1895.0</ele>
        <time>2019-08-04T12:06:31.300Z</time>
      </trkpt>
      <trkpt lat="42.45913667" lon="1.44809833">
        <ele>1896.0</ele>
        <time>2019-08-04T12:06:32.305Z</time>
      </trkpt>
      <trkpt lat="42.45913667" lon="1.44809833">
        <ele>1896.0</ele>
        <time>2019-08-04T12:06:33.327Z</time>
      </trkpt>
      <trkpt lat="42.459135" lon="1.44815333">
        <ele>1897.0</ele>
        <time>2019-08-04T12:06:34.323Z</time>
      </trkpt>
      <trkpt lat="42.459135" lon="1.44815333">
        <ele>1897.0</ele>
        <time>2019-08-04T12:06:35.325Z</time>
      </trkpt>
      <trkpt lat="42.45913167" lon="1.44821">
        <ele>1898.0</ele>
        <time>2019-08-04T12:06:36.318Z</time>
      </trkpt>
      <trkpt lat="42.45913" lon="1.44823667">
        <ele>1899.0</ele>
        <time>2019-08-04T12:06:37.318Z</time>
      </trkpt>
      <trkpt lat="42.45913" lon="1.44826">
        <ele>1900.0</ele>
        <time>2019-08-04T12:06:38.321Z</time>
      </trkpt>
      <trkpt lat="42.45913" lon="1.44826">
        <ele>1900.0</ele>
        <time>2019-08-04T12:06:39.315Z</time>
      </trkpt>
      <trkpt lat="42.45913667" lon="1.44830667">
        <ele>1902.0</ele>
        <time>2019-08-04T12:06:40.318Z</time>
      </trkpt>
      <trkpt lat="42.45913667" lon="1.44830667">
        <ele>1902.0</ele>
        <time>2019-08-04T12:06:41.310Z</time>
      </trkpt>
      <trkpt lat="42.45913333" lon="1.44835333">
        <ele>1904.0</ele>
        <time>2019-08-04T12:06:42.307Z</time>
      </trkpt>
      <trkpt lat="42.45913333" lon="1.44835333">
        <ele>1904.0</ele>
        <time>2019-08-04T12:06:43.297Z</time>
      </trkpt>
      <trkpt lat="42.45912833" lon="1.4484">
        <ele>1906.0</ele>
        <time>2019-08-04T12:06:44.318Z</time>
      </trkpt>
      <trkpt lat="42.45912833" lon="1.4484">
        <ele>1906.0</ele>
        <time>2019-08-04T12:06:45.312Z</time>
      </trkpt>
      <trkpt lat="42.45912833" lon="1.448455">
        <ele>1907.0</ele>
        <time>2019-08-04T12:06:46.320Z</time>
      </trkpt>
      <trkpt lat="42.45912833" lon="1.448455">
        <ele>1907.0</ele>
        <time>2019-08-04T12:06:47.297Z</time>
      </trkpt>
      <trkpt lat="42.459135" lon="1.44851167">
        <ele>1907.0</ele>
        <time>2019-08-04T12:06:48.318Z</time>
      </trkpt>
      <trkpt lat="42.459135" lon="1.44851167">
        <ele>1907.0</ele>
        <time>2019-08-04T12:06:49.315Z</time>
      </trkpt>
      <trkpt lat="42.45913833" lon="1.448565">
        <ele>1908.0</ele>
        <time>2019-08-04T12:06:50.300Z</time>
      </trkpt>
      <trkpt lat="42.45913833" lon="1.448565">
        <ele>1908.0</ele>
        <time>2019-08-04T12:06:51.320Z</time>
      </trkpt>
      <trkpt lat="42.45913833" lon="1.44862167">
        <ele>1909.0</ele>
        <time>2019-08-04T12:06:52.301Z</time>
      </trkpt>
      <trkpt lat="42.45913833" lon="1.44862167">
        <ele>1909.0</ele>
        <time>2019-08-04T12:06:53.322Z</time>
      </trkpt>
      <trkpt lat="42.45913833" lon="1.44868">
        <ele>1910.0</ele>
        <time>2019-08-04T12:06:54.316Z</time>
      </trkpt>
      <trkpt lat="42.45913833" lon="1.44868">
        <ele>1910.0</ele>
        <time>2019-08-04T12:06:55.303Z</time>
      </trkpt>
      <trkpt lat="42.45914" lon="1.448735">
        <ele>1911.0</ele>
        <time>2019-08-04T12:06:56.324Z</time>
      </trkpt>
      <trkpt lat="42.45914" lon="1.448735">
        <ele>1911.0</ele>
        <time>2019-08-04T12:06:57.313Z</time>
      </trkpt>
      <trkpt lat="42.45915167" lon="1.4488">
        <ele>1911.0</ele>
        <time>2019-08-04T12:06:58.317Z</time>
      </trkpt>
      <trkpt lat="42.45916" lon="1.44882833">
        <ele>1912.0</ele>
        <time>2019-08-04T12:06:59.303Z</time>
      </trkpt>
      <trkpt lat="42.45916" lon="1.44882833">
        <ele>1912.0</ele>
        <time>2019-08-04T12:07:00.325Z</time>
      </trkpt>
      <trkpt lat="42.45917167" lon="1.44888833">
        <ele>1912.0</ele>
        <time>2019-08-04T12:07:01.314Z</time>
      </trkpt>
      <trkpt lat="42.45917333" lon="1.44891833">
        <ele>1912.0</ele>
        <time>2019-08-04T12:07:02.324Z</time>
      </trkpt>
      <trkpt lat="42.45917333" lon="1.44891833">
        <ele>1912.0</ele>
        <time>2019-08-04T12:07:03.315Z</time>
      </trkpt>
      <trkpt lat="42.45918333" lon="1.448985">
        <ele>1912.0</ele>
        <time>2019-08-04T12:07:04.320Z</time>
      </trkpt>
      <trkpt lat="42.45918333" lon="1.448985">
        <ele>1912.0</ele>
        <time>2019-08-04T12:07:05.297Z</time>
      </trkpt>
      <trkpt lat="42.459195" lon="1.44904667">
        <ele>1913.0</ele>
        <time>2019-08-04T12:07:06.320Z</time>
      </trkpt>
      <trkpt lat="42.459195" lon="1.44904667">
        <ele>1913.0</ele>
        <time>2019-08-04T12:07:07.315Z</time>
      </trkpt>
      <trkpt lat="42.45919667" lon="1.44911333">
        <ele>1914.0</ele>
        <time>2019-08-04T12:07:08.318Z</time>
      </trkpt>
      <trkpt lat="42.45919667" lon="1.44911333">
        <ele>1914.0</ele>
        <time>2019-08-04T12:07:09.315Z</time>
      </trkpt>
      <trkpt lat="42.45919667" lon="1.44918167">
        <ele>1915.0</ele>
        <time>2019-08-04T12:07:10.320Z</time>
      </trkpt>
      <trkpt lat="42.45919667" lon="1.44918167">
        <ele>1915.0</ele>
        <time>2019-08-04T12:07:11.313Z</time>
      </trkpt>
      <trkpt lat="42.45919167" lon="1.44924833">
        <ele>1916.0</ele>
        <time>2019-08-04T12:07:12.308Z</time>
      </trkpt>
      <trkpt lat="42.45919167" lon="1.44924833">
        <ele>1916.0</ele>
        <time>2019-08-04T12:07:13.297Z</time>
      </trkpt>
      <trkpt lat="42.4592" lon="1.44932">
        <ele>1916.0</ele>
        <time>2019-08-04T12:07:14.321Z</time>
      </trkpt>
      <trkpt lat="42.4592" lon="1.44932">
        <ele>1916.0</ele>
        <time>2019-08-04T12:07:15.313Z</time>
      </trkpt>
      <trkpt lat="42.45920167" lon="1.44939167">
        <ele>1917.0</ele>
        <time>2019-08-04T12:07:16.320Z</time>
      </trkpt>
      <trkpt lat="42.45920167" lon="1.44939167">
        <ele>1917.0</ele>
        <time>2019-08-04T12:07:17.297Z</time>
      </trkpt>
      <trkpt lat="42.4592" lon="1.44945833">
        <ele>1917.0</ele>
        <time>2019-08-04T12:07:18.318Z</time>
      </trkpt>
      <trkpt lat="42.45920833" lon="1.44949833">
        <ele>1917.0</ele>
        <time>2019-08-04T12:07:19.316Z</time>
      </trkpt>
      <trkpt lat="42.459215" lon="1.449535">
        <ele>1917.0</ele>
        <time>2019-08-04T12:07:20.300Z</time>
      </trkpt>
      <trkpt lat="42.459215" lon="1.449535">
        <ele>1917.0</ele>
        <time>2019-08-04T12:07:21.320Z</time>
      </trkpt>
      <trkpt lat="42.45924167" lon="1.449615">
        <ele>1917.0</ele>
        <time>2019-08-04T12:07:22.301Z</time>
      </trkpt>
      <trkpt lat="42.45924167" lon="1.449615">
        <ele>1917.0</ele>
        <time>2019-08-04T12:07:23.322Z</time>
      </trkpt>
      <trkpt lat="42.45925667" lon="1.44969167">
        <ele>1915.0</ele>
        <time>2019-08-04T12:07:24.318Z</time>
      </trkpt>
      <trkpt lat="42.45926" lon="1.44972167">
        <ele>1915.0</ele>
        <time>2019-08-04T12:07:25.315Z</time>
      </trkpt>
      <trkpt lat="42.459265" lon="1.44975">
        <ele>1915.0</ele>
        <time>2019-08-04T12:07:26.297Z</time>
      </trkpt>
      <trkpt lat="42.459265" lon="1.44975">
        <ele>1915.0</ele>
        <time>2019-08-04T12:07:27.315Z</time>
      </trkpt>
      <trkpt lat="42.45927833" lon="1.44979">
        <ele>1915.0</ele>
        <time>2019-08-04T12:07:28.319Z</time>
      </trkpt>
      <trkpt lat="42.45927833" lon="1.44979">
        <ele>1915.0</ele>
        <time>2019-08-04T12:07:29.328Z</time>
      </trkpt>
      <trkpt lat="42.45929" lon="1.44981667">
        <ele>1915.0</ele>
        <time>2019-08-04T12:07:30.309Z</time>
      </trkpt>
      <trkpt lat="42.459295" lon="1.44982833">
        <ele>1915.0</ele>
        <time>2019-08-04T12:07:31.315Z</time>
      </trkpt>
      <trkpt lat="42.45930167" lon="1.44984">
        <ele>1915.0</ele>
        <time>2019-08-04T12:07:32.301Z</time>
      </trkpt>
      <trkpt lat="42.45930167" lon="1.44984">
        <ele>1915.0</ele>
        <time>2019-08-04T12:07:33.320Z</time>
      </trkpt>
      <trkpt lat="42.45931333" lon="1.44986">
        <ele>1915.0</ele>
        <time>2019-08-04T12:07:34.318Z</time>
      </trkpt>
      <trkpt lat="42.45931333" lon="1.44986">
        <ele>1915.0</ele>
        <time>2019-08-04T12:07:35.318Z</time>
      </trkpt>
      <trkpt lat="42.45932" lon="1.44986833">
        <ele>1914.0</ele>
        <time>2019-08-04T12:07:36.318Z</time>
      </trkpt>
      <trkpt lat="42.45932" lon="1.44986833">
        <ele>1914.0</ele>
        <time>2019-08-04T12:07:37.315Z</time>
      </trkpt>
      <trkpt lat="42.45932333" lon="1.44987167">
        <ele>1914.0</ele>
        <time>2019-08-04T12:07:38.299Z</time>
      </trkpt>
      <trkpt lat="42.45932333" lon="1.44987167">
        <ele>1914.0</ele>
        <time>2019-08-04T12:07:39.320Z</time>
      </trkpt>
      <trkpt lat="42.45932333" lon="1.44987167">
        <ele>1914.0</ele>
        <time>2019-08-04T12:07:40.316Z</time>
      </trkpt>
      <trkpt lat="42.45935333" lon="1.449855">
        <ele>1909.0</ele>
        <time>2019-08-04T12:07:41.304Z</time>
      </trkpt>
      <trkpt lat="42.45935333" lon="1.449855">
        <ele>1909.0</ele>
        <time>2019-08-04T12:07:42.335Z</time>
      </trkpt>
      <trkpt lat="42.45935333" lon="1.449855">
        <ele>1909.0</ele>
        <time>2019-08-04T12:07:43.297Z</time>
      </trkpt>
      <trkpt lat="42.45935333" lon="1.449855">
        <ele>1909.0</ele>
        <time>2019-08-04T12:07:44.298Z</time>
      </trkpt>
      <trkpt lat="42.45935333" lon="1.449855">
        <ele>1909.0</ele>
        <time>2019-08-04T12:07:45.297Z</time>
      </trkpt>
      <trkpt lat="42.45935333" lon="1.449855">
        <ele>1909.0</ele>
        <time>2019-08-04T12:07:46.335Z</time>
      </trkpt>
      <trkpt lat="42.45935333" lon="1.449855">
        <ele>1909.0</ele>
        <time>2019-08-04T12:07:47.300Z</time>
      </trkpt>
      <trkpt lat="42.45937833" lon="1.44995833">
        <ele>1908.0</ele>
        <time>2019-08-04T12:07:48.318Z</time>
      </trkpt>
      <trkpt lat="42.45937833" lon="1.44995833">
        <ele>1908.0</ele>
        <time>2019-08-04T12:07:49.299Z</time>
      </trkpt>
      <trkpt lat="42.45938833" lon="1.44997333">
        <ele>1908.0</ele>
        <time>2019-08-04T12:07:50.329Z</time>
      </trkpt>
      <trkpt lat="42.45938833" lon="1.44997333">
        <ele>1908.0</ele>
        <time>2019-08-04T12:07:51.323Z</time>
      </trkpt>
      <trkpt lat="42.45939833" lon="1.44998167">
        <ele>1908.0</ele>
        <time>2019-08-04T12:07:52.311Z</time>
      </trkpt>
      <trkpt lat="42.45940167" lon="1.44998833">
        <ele>1908.0</ele>
        <time>2019-08-04T12:07:53.319Z</time>
      </trkpt>
      <trkpt lat="42.45941167" lon="1.44999167">
        <ele>1908.0</ele>
        <time>2019-08-04T12:07:54.325Z</time>
      </trkpt>
      <trkpt lat="42.45941167" lon="1.44999167">
        <ele>1908.0</ele>
        <time>2019-08-04T12:07:55.331Z</time>
      </trkpt>
      <trkpt lat="42.45942333" lon="1.45000333">
        <ele>1908.0</ele>
        <time>2019-08-04T12:07:56.325Z</time>
      </trkpt>
      <trkpt lat="42.45942333" lon="1.45000333">
        <ele>1908.0</ele>
        <time>2019-08-04T12:07:57.333Z</time>
      </trkpt>
      <trkpt lat="42.45943167" lon="1.45001167">
        <ele>1908.0</ele>
        <time>2019-08-04T12:07:58.307Z</time>
      </trkpt>
      <trkpt lat="42.459435" lon="1.45001333">
        <ele>1908.0</ele>
        <time>2019-08-04T12:07:59.329Z</time>
      </trkpt>
      <trkpt lat="42.459435" lon="1.45001333">
        <ele>1908.0</ele>
        <time>2019-08-04T12:08:00.323Z</time>
      </trkpt>
      <trkpt lat="42.45944333" lon="1.45001833">
        <ele>1908.0</ele>
        <time>2019-08-04T12:08:01.325Z</time>
      </trkpt>
      <trkpt lat="42.45944333" lon="1.45001833">
        <ele>1908.0</ele>
        <time>2019-08-04T12:08:02.308Z</time>
      </trkpt>
      <trkpt lat="42.45944167" lon="1.45002667">
        <ele>1908.0</ele>
        <time>2019-08-04T12:08:03.329Z</time>
      </trkpt>
      <trkpt lat="42.45944167" lon="1.45002667">
        <ele>1908.0</ele>
        <time>2019-08-04T12:08:04.334Z</time>
      </trkpt>
      <trkpt lat="42.459445" lon="1.45003167">
        <ele>1908.0</ele>
        <time>2019-08-04T12:08:05.325Z</time>
      </trkpt>
      <trkpt lat="42.459445" lon="1.45003167">
        <ele>1908.0</ele>
        <time>2019-08-04T12:08:06.322Z</time>
      </trkpt>
      <trkpt lat="42.459445" lon="1.45003167">
        <ele>1908.0</ele>
        <time>2019-08-04T12:08:07.325Z</time>
      </trkpt>
      <trkpt lat="42.459445" lon="1.45003167">
        <ele>1908.0</ele>
        <time>2019-08-04T12:08:08.317Z</time>
      </trkpt>
      <trkpt lat="42.459445" lon="1.45003167">
        <ele>1908.0</ele>
        <time>2019-08-04T12:08:09.326Z</time>
      </trkpt>
      <trkpt lat="42.459445" lon="1.45003167">
        <ele>1908.0</ele>
        <time>2019-08-04T12:08:10.320Z</time>
      </trkpt>
      <trkpt lat="42.45933" lon="1.44990167">
        <ele>1906.0</ele>
        <time>2019-08-04T12:08:11.298Z</time>
      </trkpt>
      <trkpt lat="42.45933" lon="1.44990167">
        <ele>1906.0</ele>
        <time>2019-08-04T12:08:12.319Z</time>
      </trkpt>
      <trkpt lat="42.45935167" lon="1.44991167">
        <ele>1905.0</ele>
        <time>2019-08-04T12:08:13.312Z</time>
      </trkpt>
      <trkpt lat="42.45934667" lon="1.44992167">
        <ele>1905.0</ele>
        <time>2019-08-04T12:08:14.301Z</time>
      </trkpt>
      <trkpt lat="42.45934667" lon="1.44992167">
        <ele>1905.0</ele>
        <time>2019-08-04T12:08:15.310Z</time>
      </trkpt>
      <trkpt lat="42.45934167" lon="1.449925">
        <ele>1905.0</ele>
        <time>2019-08-04T12:08:16.323Z</time>
      </trkpt>
      <trkpt lat="42.45934167" lon="1.449925">
        <ele>1905.0</ele>
        <time>2019-08-04T12:08:17.312Z</time>
      </trkpt>
      <trkpt lat="42.459345" lon="1.44992833">
        <ele>1905.0</ele>
        <time>2019-08-04T12:08:18.333Z</time>
      </trkpt>
      <trkpt lat="42.45939" lon="1.449965">
        <ele>1904.0</ele>
        <time>2019-08-04T12:08:19.335Z</time>
      </trkpt>
      <trkpt lat="42.45939" lon="1.449965">
        <ele>1904.0</ele>
        <time>2019-08-04T12:08:20.322Z</time>
      </trkpt>
      <trkpt lat="42.45939667" lon="1.449975">
        <ele>1904.0</ele>
        <time>2019-08-04T12:08:21.325Z</time>
      </trkpt>
      <trkpt lat="42.45940167" lon="1.44998">
        <ele>1904.0</ele>
        <time>2019-08-04T12:08:22.324Z</time>
      </trkpt>
      <trkpt lat="42.45940167" lon="1.44998">
        <ele>1904.0</ele>
        <time>2019-08-04T12:08:23.318Z</time>
      </trkpt>
      <trkpt lat="42.45941167" lon="1.44998333">
        <ele>1904.0</ele>
        <time>2019-08-04T12:08:24.299Z</time>
      </trkpt>
      <trkpt lat="42.45941667" lon="1.44998833">
        <ele>1904.0</ele>
        <time>2019-08-04T12:08:25.329Z</time>
      </trkpt>
      <trkpt lat="42.45941667" lon="1.44998833">
        <ele>1904.0</ele>
        <time>2019-08-04T12:08:26.328Z</time>
      </trkpt>
      <trkpt lat="42.45941833" lon="1.450005">
        <ele>1905.0</ele>
        <time>2019-08-04T12:08:27.326Z</time>
      </trkpt>
      <trkpt lat="42.45941667" lon="1.45000833">
        <ele>1905.0</ele>
        <time>2019-08-04T12:08:28.308Z</time>
      </trkpt>
      <trkpt lat="42.45941667" lon="1.45000833">
        <ele>1905.0</ele>
        <time>2019-08-04T12:08:29.324Z</time>
      </trkpt>
      <trkpt lat="42.45941833" lon="1.450015">
        <ele>1905.0</ele>
        <time>2019-08-04T12:08:30.324Z</time>
      </trkpt>
      <trkpt lat="42.45942333" lon="1.450015">
        <ele>1905.0</ele>
        <time>2019-08-04T12:08:31.334Z</time>
      </trkpt>
      <trkpt lat="42.45942333" lon="1.450015">
        <ele>1905.0</ele>
        <time>2019-08-04T12:08:32.322Z</time>
      </trkpt>
      <trkpt lat="42.45944833" lon="1.45003833">
        <ele>1904.0</ele>
        <time>2019-08-04T12:08:33.301Z</time>
      </trkpt>
      <trkpt lat="42.45945" lon="1.45004833">
        <ele>1904.0</ele>
        <time>2019-08-04T12:08:34.314Z</time>
      </trkpt>
      <trkpt lat="42.45945" lon="1.45004833">
        <ele>1904.0</ele>
        <time>2019-08-04T12:08:35.297Z</time>
      </trkpt>
      <trkpt lat="42.45945167" lon="1.45005667">
        <ele>1905.0</ele>
        <time>2019-08-04T12:08:36.296Z</time>
      </trkpt>
      <trkpt lat="42.45945167" lon="1.45005667">
        <ele>1904.0</ele>
        <time>2019-08-04T12:08:37.333Z</time>
      </trkpt>
      <trkpt lat="42.45945167" lon="1.45005667">
        <ele>1904.0</ele>
        <time>2019-08-04T12:08:38.304Z</time>
      </trkpt>
      <trkpt lat="42.45945667" lon="1.45001">
        <ele>1904.0</ele>
        <time>2019-08-04T12:08:39.312Z</time>
      </trkpt>
      <trkpt lat="42.45945667" lon="1.45001">
        <ele>1904.0</ele>
        <time>2019-08-04T12:08:40.308Z</time>
      </trkpt>
      <trkpt lat="42.45945167" lon="1.45004167">
        <ele>1904.0</ele>
        <time>2019-08-04T12:08:41.300Z</time>
      </trkpt>
      <trkpt lat="42.45945" lon="1.45005333">
        <ele>1904.0</ele>
        <time>2019-08-04T12:08:42.303Z</time>
      </trkpt>
      <trkpt lat="42.45945" lon="1.45005333">
        <ele>1904.0</ele>
        <time>2019-08-04T12:08:43.298Z</time>
      </trkpt>
      <trkpt lat="42.45945333" lon="1.45006833">
        <ele>1904.0</ele>
        <time>2019-08-04T12:08:44.302Z</time>
      </trkpt>
      <trkpt lat="42.45945333" lon="1.45006833">
        <ele>1904.0</ele>
        <time>2019-08-04T12:08:45.298Z</time>
      </trkpt>
      <trkpt lat="42.45945333" lon="1.45007833">
        <ele>1905.0</ele>
        <time>2019-08-04T12:08:46.314Z</time>
      </trkpt>
      <trkpt lat="42.45945333" lon="1.45007833">
        <ele>1905.0</ele>
        <time>2019-08-04T12:08:47.306Z</time>
      </trkpt>
      <trkpt lat="42.45945333" lon="1.45007667">
        <ele>1905.0</ele>
        <time>2019-08-04T12:08:48.307Z</time>
      </trkpt>
      <trkpt lat="42.45945333" lon="1.45007667">
        <ele>1905.0</ele>
        <time>2019-08-04T12:08:49.298Z</time>
      </trkpt>
      <trkpt lat="42.45945333" lon="1.45007667">
        <ele>1905.0</ele>
        <time>2019-08-04T12:08:50.329Z</time>
      </trkpt>
      <trkpt lat="42.45941833" lon="1.44996167">
        <ele>1905.0</ele>
        <time>2019-08-04T12:08:51.323Z</time>
      </trkpt>
      <trkpt lat="42.45941833" lon="1.44995667">
        <ele>1905.0</ele>
        <time>2019-08-04T12:08:52.326Z</time>
      </trkpt>
      <trkpt lat="42.45931833" lon="1.44990833">
        <ele>1905.0</ele>
        <time>2019-08-04T12:08:53.326Z</time>
      </trkpt>
      <trkpt lat="42.45931333" lon="1.4499">
        <ele>1905.0</ele>
        <time>2019-08-04T12:08:54.335Z</time>
      </trkpt>
      <trkpt lat="42.45931333" lon="1.4499">
        <ele>1905.0</ele>
        <time>2019-08-04T12:08:55.329Z</time>
      </trkpt>
      <trkpt lat="42.45929833" lon="1.449885">
        <ele>1905.0</ele>
        <time>2019-08-04T12:08:56.330Z</time>
      </trkpt>
      <trkpt lat="42.45929833" lon="1.449885">
        <ele>1905.0</ele>
        <time>2019-08-04T12:08:57.318Z</time>
      </trkpt>
      <trkpt lat="42.45928333" lon="1.44987167">
        <ele>1905.0</ele>
        <time>2019-08-04T12:08:58.305Z</time>
      </trkpt>
      <trkpt lat="42.459275" lon="1.44987167">
        <ele>1905.0</ele>
        <time>2019-08-04T12:08:59.332Z</time>
      </trkpt>
      <trkpt lat="42.45926833" lon="1.449875">
        <ele>1905.0</ele>
        <time>2019-08-04T12:09:00.331Z</time>
      </trkpt>
      <trkpt lat="42.45926833" lon="1.449875">
        <ele>1905.0</ele>
        <time>2019-08-04T12:09:01.320Z</time>
      </trkpt>
      <trkpt lat="42.45926833" lon="1.44989">
        <ele>1905.0</ele>
        <time>2019-08-04T12:09:02.334Z</time>
      </trkpt>
      <trkpt lat="42.45926833" lon="1.44989">
        <ele>1905.0</ele>
        <time>2019-08-04T12:09:03.322Z</time>
      </trkpt>
      <trkpt lat="42.45926333" lon="1.44991333">
        <ele>1905.0</ele>
        <time>2019-08-04T12:09:04.326Z</time>
      </trkpt>
      <trkpt lat="42.45926167" lon="1.44992333">
        <ele>1905.0</ele>
        <time>2019-08-04T12:09:05.334Z</time>
      </trkpt>
      <trkpt lat="42.45926167" lon="1.44992333">
        <ele>1905.0</ele>
        <time>2019-08-04T12:09:06.319Z</time>
      </trkpt>
      <trkpt lat="42.45925833" lon="1.44994">
        <ele>1905.0</ele>
        <time>2019-08-04T12:09:07.325Z</time>
      </trkpt>
      <trkpt lat="42.45925833" lon="1.44995167">
        <ele>1905.0</ele>
        <time>2019-08-04T12:09:08.301Z</time>
      </trkpt>
      <trkpt lat="42.45925833" lon="1.44995167">
        <ele>1905.0</ele>
        <time>2019-08-04T12:09:09.323Z</time>
      </trkpt>
      <trkpt lat="42.45925833" lon="1.44998">
        <ele>1905.0</ele>
        <time>2019-08-04T12:09:10.324Z</time>
      </trkpt>
      <trkpt lat="42.45925667" lon="1.44998833">
        <ele>1905.0</ele>
        <time>2019-08-04T12:09:11.333Z</time>
      </trkpt>
      <trkpt lat="42.45925667" lon="1.44998833">
        <ele>1905.0</ele>
        <time>2019-08-04T12:09:12.297Z</time>
      </trkpt>
      <trkpt lat="42.459255" lon="1.449995">
        <ele>1905.0</ele>
        <time>2019-08-04T12:09:13.331Z</time>
      </trkpt>
      <trkpt lat="42.459255" lon="1.449995">
        <ele>1905.0</ele>
        <time>2019-08-04T12:09:14.325Z</time>
      </trkpt>
      <trkpt lat="42.45924" lon="1.45000333">
        <ele>1905.0</ele>
        <time>2019-08-04T12:09:15.326Z</time>
      </trkpt>
      <trkpt lat="42.45924" lon="1.45000333">
        <ele>1905.0</ele>
        <time>2019-08-04T12:09:16.319Z</time>
      </trkpt>
      <trkpt lat="42.459225" lon="1.45001167">
        <ele>1906.0</ele>
        <time>2019-08-04T12:09:17.327Z</time>
      </trkpt>
      <trkpt lat="42.459225" lon="1.45001">
        <ele>1906.0</ele>
        <time>2019-08-04T12:09:18.328Z</time>
      </trkpt>
      <trkpt lat="42.459225" lon="1.45001">
        <ele>1906.0</ele>
        <time>2019-08-04T12:09:19.322Z</time>
      </trkpt>
      <trkpt lat="42.45921667" lon="1.45001333">
        <ele>1906.0</ele>
        <time>2019-08-04T12:09:20.328Z</time>
      </trkpt>
      <trkpt lat="42.45921667" lon="1.45001333">
        <ele>1906.0</ele>
        <time>2019-08-04T12:09:21.319Z</time>
      </trkpt>
      <trkpt lat="42.45921167" lon="1.45001667">
        <ele>1906.0</ele>
        <time>2019-08-04T12:09:22.335Z</time>
      </trkpt>
      <trkpt lat="42.45921167" lon="1.45001667">
        <ele>1906.0</ele>
        <time>2019-08-04T12:09:23.319Z</time>
      </trkpt>
      <trkpt lat="42.45921167" lon="1.45001667">
        <ele>1906.0</ele>
        <time>2019-08-04T12:09:24.305Z</time>
      </trkpt>
      <trkpt lat="42.45921167" lon="1.45001667">
        <ele>1906.0</ele>
        <time>2019-08-04T12:09:25.327Z</time>
      </trkpt>
      <trkpt lat="42.45921167" lon="1.45001667">
        <ele>1906.0</ele>
        <time>2019-08-04T12:09:26.319Z</time>
      </trkpt>
      <trkpt lat="42.459225" lon="1.44997167">
        <ele>1906.0</ele>
        <time>2019-08-04T12:09:27.309Z</time>
      </trkpt>
      <trkpt lat="42.459225" lon="1.44996167">
        <ele>1906.0</ele>
        <time>2019-08-04T12:09:28.300Z</time>
      </trkpt>
      <trkpt lat="42.459225" lon="1.44996167">
        <ele>1906.0</ele>
        <time>2019-08-04T12:09:29.320Z</time>
      </trkpt>
      <trkpt lat="42.45923333" lon="1.44994833">
        <ele>1906.0</ele>
        <time>2019-08-04T12:09:30.310Z</time>
      </trkpt>
      <trkpt lat="42.45923833" lon="1.44993833">
        <ele>1906.0</ele>
        <time>2019-08-04T12:09:31.319Z</time>
      </trkpt>
      <trkpt lat="42.45923833" lon="1.44993833">
        <ele>1906.0</ele>
        <time>2019-08-04T12:09:32.326Z</time>
      </trkpt>
      <trkpt lat="42.459235" lon="1.44992167">
        <ele>1906.0</ele>
        <time>2019-08-04T12:09:33.334Z</time>
      </trkpt>
      <trkpt lat="42.45923" lon="1.44990833">
        <ele>1906.0</ele>
        <time>2019-08-04T12:09:34.302Z</time>
      </trkpt>
      <trkpt lat="42.45923" lon="1.44990833">
        <ele>1906.0</ele>
        <time>2019-08-04T12:09:35.325Z</time>
      </trkpt>
      <trkpt lat="42.45923333" lon="1.44988167">
        <ele>1906.0</ele>
        <time>2019-08-04T12:09:36.314Z</time>
      </trkpt>
      <trkpt lat="42.45923333" lon="1.44988167">
        <ele>1906.0</ele>
        <time>2019-08-04T12:09:37.298Z</time>
      </trkpt>
      <trkpt lat="42.45924" lon="1.44986">
        <ele>1906.0</ele>
        <time>2019-08-04T12:09:38.325Z</time>
      </trkpt>
      <trkpt lat="42.45924333" lon="1.449855">
        <ele>1905.0</ele>
        <time>2019-08-04T12:09:39.316Z</time>
      </trkpt>
      <trkpt lat="42.45924333" lon="1.449855">
        <ele>1905.0</ele>
        <time>2019-08-04T12:09:40.335Z</time>
      </trkpt>
      <trkpt lat="42.45925333" lon="1.44984833">
        <ele>1906.0</ele>
        <time>2019-08-04T12:09:41.322Z</time>
      </trkpt>
      <trkpt lat="42.45925333" lon="1.44984833">
        <ele>1906.0</ele>
        <time>2019-08-04T12:09:42.306Z</time>
      </trkpt>
      <trkpt lat="42.45926833" lon="1.44984167">
        <ele>1906.0</ele>
        <time>2019-08-04T12:09:43.319Z</time>
      </trkpt>
      <trkpt lat="42.45927167" lon="1.44983833">
        <ele>1906.0</ele>
        <time>2019-08-04T12:09:44.304Z</time>
      </trkpt>
      <trkpt lat="42.45927167" lon="1.44983833">
        <ele>1906.0</ele>
        <time>2019-08-04T12:09:45.329Z</time>
      </trkpt>
      <trkpt lat="42.45927833" lon="1.449845">
        <ele>1906.0</ele>
        <time>2019-08-04T12:09:46.319Z</time>
      </trkpt>
      <trkpt lat="42.45928333" lon="1.44984833">
        <ele>1906.0</ele>
        <time>2019-08-04T12:09:47.302Z</time>
      </trkpt>
      <trkpt lat="42.45928333" lon="1.44984833">
        <ele>1906.0</ele>
        <time>2019-08-04T12:09:48.326Z</time>
      </trkpt>
      <trkpt lat="42.45929333" lon="1.44986">
        <ele>1906.0</ele>
        <time>2019-08-04T12:09:49.326Z</time>
      </trkpt>
      <trkpt lat="42.45929333" lon="1.44986">
        <ele>1906.0</ele>
        <time>2019-08-04T12:09:50.320Z</time>
      </trkpt>
      <trkpt lat="42.45929833" lon="1.44986833">
        <ele>1906.0</ele>
        <time>2019-08-04T12:09:51.316Z</time>
      </trkpt>
      <trkpt lat="42.45930333" lon="1.44987333">
        <ele>1906.0</ele>
        <time>2019-08-04T12:09:52.302Z</time>
      </trkpt>
      <trkpt lat="42.45930333" lon="1.44987333">
        <ele>1906.0</ele>
        <time>2019-08-04T12:09:53.329Z</time>
      </trkpt>
      <trkpt lat="42.45930833" lon="1.44988167">
        <ele>1906.0</ele>
        <time>2019-08-04T12:09:54.326Z</time>
      </trkpt>
      <trkpt lat="42.45930833" lon="1.449885">
        <ele>1905.0</ele>
        <time>2019-08-04T12:09:55.315Z</time>
      </trkpt>
      <trkpt lat="42.45930833" lon="1.449885">
        <ele>1905.0</ele>
        <time>2019-08-04T12:09:56.335Z</time>
      </trkpt>
      <trkpt lat="42.45931833" lon="1.44988667">
        <ele>1905.0</ele>
        <time>2019-08-04T12:09:57.330Z</time>
      </trkpt>
      <trkpt lat="42.45931833" lon="1.44988667">
        <ele>1905.0</ele>
        <time>2019-08-04T12:09:58.312Z</time>
      </trkpt>
      <trkpt lat="42.45931833" lon="1.44988667">
        <ele>1905.0</ele>
        <time>2019-08-04T12:09:59.302Z</time>
      </trkpt>
      <trkpt lat="42.45931833" lon="1.44988667">
        <ele>1905.0</ele>
        <time>2019-08-04T12:10:00.297Z</time>
      </trkpt>
      <trkpt lat="42.45931833" lon="1.44988667">
        <ele>1905.0</ele>
        <time>2019-08-04T12:10:01.321Z</time>
      </trkpt>
      <trkpt lat="42.459335" lon="1.44990833">
        <ele>1905.0</ele>
        <time>2019-08-04T12:10:02.306Z</time>
      </trkpt>
      <trkpt lat="42.45934333" lon="1.449915">
        <ele>1905.0</ele>
        <time>2019-08-04T12:10:03.332Z</time>
      </trkpt>
      <trkpt lat="42.45934333" lon="1.449915">
        <ele>1905.0</ele>
        <time>2019-08-04T12:10:04.335Z</time>
      </trkpt>
      <trkpt lat="42.45934833" lon="1.44991667">
        <ele>1905.0</ele>
        <time>2019-08-04T12:10:05.300Z</time>
      </trkpt>
      <trkpt lat="42.45934833" lon="1.44991667">
        <ele>1905.0</ele>
        <time>2019-08-04T12:10:06.311Z</time>
      </trkpt>
      <trkpt lat="42.45936167" lon="1.449935">
        <ele>1904.0</ele>
        <time>2019-08-04T12:10:07.313Z</time>
      </trkpt>
      <trkpt lat="42.45936167" lon="1.449935">
        <ele>1904.0</ele>
        <time>2019-08-04T12:10:08.325Z</time>
      </trkpt>
      <trkpt lat="42.45936667" lon="1.44993167">
        <ele>1904.0</ele>
        <time>2019-08-04T12:10:09.296Z</time>
      </trkpt>
      <trkpt lat="42.45936667" lon="1.44993167">
        <ele>1904.0</ele>
        <time>2019-08-04T12:10:10.302Z</time>
      </trkpt>
      <trkpt lat="42.45937667" lon="1.44985167">
        <ele>1904.0</ele>
        <time>2019-08-04T12:10:11.337Z</time>
      </trkpt>
      <trkpt lat="42.45937667" lon="1.44985667">
        <ele>1904.0</ele>
        <time>2019-08-04T12:10:12.332Z</time>
      </trkpt>
      <trkpt lat="42.45937667" lon="1.44985667">
        <ele>1904.0</ele>
        <time>2019-08-04T12:10:13.319Z</time>
      </trkpt>
      <trkpt lat="42.45937333" lon="1.44988167">
        <ele>1904.0</ele>
        <time>2019-08-04T12:10:14.340Z</time>
      </trkpt>
      <trkpt lat="42.45937333" lon="1.44988167">
        <ele>1904.0</ele>
        <time>2019-08-04T12:10:15.398Z</time>
      </trkpt>
      <trkpt lat="42.459385" lon="1.449895">
        <ele>1904.0</ele>
        <time>2019-08-04T12:10:16.307Z</time>
      </trkpt>
      <trkpt lat="42.459385" lon="1.449895">
        <ele>1904.0</ele>
        <time>2019-08-04T12:10:17.297Z</time>
      </trkpt>
      <trkpt lat="42.459395" lon="1.44990667">
        <ele>1904.0</ele>
        <time>2019-08-04T12:10:18.298Z</time>
      </trkpt>
      <trkpt lat="42.45939333" lon="1.44991167">
        <ele>1904.0</ele>
        <time>2019-08-04T12:10:19.299Z</time>
      </trkpt>
      <trkpt lat="42.45939333" lon="1.44991167">
        <ele>1904.0</ele>
        <time>2019-08-04T12:10:20.333Z</time>
      </trkpt>
      <trkpt lat="42.45939333" lon="1.44991167">
        <ele>1904.0</ele>
        <time>2019-08-04T12:10:21.296Z</time>
      </trkpt>
      <trkpt lat="42.45939333" lon="1.44991167">
        <ele>1904.0</ele>
        <time>2019-08-04T12:10:22.329Z</time>
      </trkpt>
      <trkpt lat="42.45943667" lon="1.44996833">
        <ele>1904.0</ele>
        <time>2019-08-04T12:10:23.304Z</time>
      </trkpt>
      <trkpt lat="42.45943667" lon="1.44996833">
        <ele>1904.0</ele>
        <time>2019-08-04T12:10:24.310Z</time>
      </trkpt>
      <trkpt lat="42.45945667" lon="1.45000167">
        <ele>1904.0</ele>
        <time>2019-08-04T12:10:25.303Z</time>
      </trkpt>
      <trkpt lat="42.45945667" lon="1.45000167">
        <ele>1904.0</ele>
        <time>2019-08-04T12:10:26.298Z</time>
      </trkpt>
      <trkpt lat="42.45948" lon="1.450025">
        <ele>1904.0</ele>
        <time>2019-08-04T12:10:27.472Z</time>
      </trkpt>
      <trkpt lat="42.45950167" lon="1.45002333">
        <ele>1904.0</ele>
        <time>2019-08-04T12:10:28.318Z</time>
      </trkpt>
      <trkpt lat="42.45950167" lon="1.45002333">
        <ele>1904.0</ele>
        <time>2019-08-04T12:10:29.328Z</time>
      </trkpt>
      <trkpt lat="42.45956667" lon="1.44999833">
        <ele>1904.0</ele>
        <time>2019-08-04T12:10:30.309Z</time>
      </trkpt>
      <trkpt lat="42.45956667" lon="1.44999833">
        <ele>1904.0</ele>
        <time>2019-08-04T12:10:31.316Z</time>
      </trkpt>
      <trkpt lat="42.45963333" lon="1.44994833">
        <ele>1904.0</ele>
        <time>2019-08-04T12:10:32.304Z</time>
      </trkpt>
      <trkpt lat="42.45963333" lon="1.44994833">
        <ele>1904.0</ele>
        <time>2019-08-04T12:10:33.302Z</time>
      </trkpt>
      <trkpt lat="42.45971167" lon="1.44988167">
        <ele>1904.0</ele>
        <time>2019-08-04T12:10:34.313Z</time>
      </trkpt>
      <trkpt lat="42.45971167" lon="1.44988167">
        <ele>1904.0</ele>
        <time>2019-08-04T12:10:35.298Z</time>
      </trkpt>
      <trkpt lat="42.45980333" lon="1.44980667">
        <ele>1903.0</ele>
        <time>2019-08-04T12:10:36.303Z</time>
      </trkpt>
      <trkpt lat="42.45980333" lon="1.44980667">
        <ele>1903.0</ele>
        <time>2019-08-04T12:10:37.298Z</time>
      </trkpt>
      <trkpt lat="42.45990833" lon="1.44973333">
        <ele>1903.0</ele>
        <time>2019-08-04T12:10:38.304Z</time>
      </trkpt>
      <trkpt lat="42.45990833" lon="1.44973333">
        <ele>1903.0</ele>
        <time>2019-08-04T12:10:39.305Z</time>
      </trkpt>
      <trkpt lat="42.46001" lon="1.44965167">
        <ele>1903.0</ele>
        <time>2019-08-04T12:10:40.304Z</time>
      </trkpt>
      <trkpt lat="42.46006333" lon="1.44960167">
        <ele>1903.0</ele>
        <time>2019-08-04T12:10:41.303Z</time>
      </trkpt>
      <trkpt lat="42.460125" lon="1.449555">
        <ele>1902.0</ele>
        <time>2019-08-04T12:10:42.305Z</time>
      </trkpt>
      <trkpt lat="42.460125" lon="1.449555">
        <ele>1902.0</ele>
        <time>2019-08-04T12:10:43.298Z</time>
      </trkpt>
      <trkpt lat="42.460245" lon="1.44947333">
        <ele>1902.0</ele>
        <time>2019-08-04T12:10:44.311Z</time>
      </trkpt>
      <trkpt lat="42.460245" lon="1.44947333">
        <ele>1902.0</ele>
        <time>2019-08-04T12:10:45.298Z</time>
      </trkpt>
      <trkpt lat="42.46038333" lon="1.44940167">
        <ele>1901.0</ele>
        <time>2019-08-04T12:10:46.319Z</time>
      </trkpt>
      <trkpt lat="42.46038333" lon="1.44940167">
        <ele>1901.0</ele>
        <time>2019-08-04T12:10:47.296Z</time>
      </trkpt>
      <trkpt lat="42.46052333" lon="1.44932667">
        <ele>1900.0</ele>
        <time>2019-08-04T12:10:48.301Z</time>
      </trkpt>
      <trkpt lat="42.46052333" lon="1.44932667">
        <ele>1900.0</ele>
        <time>2019-08-04T12:10:49.318Z</time>
      </trkpt>
      <trkpt lat="42.46066" lon="1.44923">
        <ele>1899.0</ele>
        <time>2019-08-04T12:10:50.307Z</time>
      </trkpt>
      <trkpt lat="42.46072833" lon="1.44917167">
        <ele>1899.0</ele>
        <time>2019-08-04T12:10:51.317Z</time>
      </trkpt>
      <trkpt lat="42.46072833" lon="1.44917167">
        <ele>1899.0</ele>
        <time>2019-08-04T12:10:52.299Z</time>
      </trkpt>
      <trkpt lat="42.46083667" lon="1.44899667">
        <ele>1897.0</ele>
        <time>2019-08-04T12:10:53.304Z</time>
      </trkpt>
      <trkpt lat="42.46083667" lon="1.44899667">
        <ele>1897.0</ele>
        <time>2019-08-04T12:10:54.311Z</time>
      </trkpt>
      <trkpt lat="42.46091333" lon="1.44875667">
        <ele>1896.0</ele>
        <time>2019-08-04T12:10:55.303Z</time>
      </trkpt>
      <trkpt lat="42.46091333" lon="1.44875667">
        <ele>1896.0</ele>
        <time>2019-08-04T12:10:56.301Z</time>
      </trkpt>
      <trkpt lat="42.46102167" lon="1.44853">
        <ele>1894.0</ele>
        <time>2019-08-04T12:10:57.304Z</time>
      </trkpt>
      <trkpt lat="42.46102167" lon="1.44853">
        <ele>1894.0</ele>
        <time>2019-08-04T12:10:58.302Z</time>
      </trkpt>
      <trkpt lat="42.46115833" lon="1.448355">
        <ele>1893.0</ele>
        <time>2019-08-04T12:10:59.303Z</time>
      </trkpt>
      <trkpt lat="42.46115833" lon="1.448355">
        <ele>1893.0</ele>
        <time>2019-08-04T12:11:00.321Z</time>
      </trkpt>
      <trkpt lat="42.461315" lon="1.44820667">
        <ele>1891.0</ele>
        <time>2019-08-04T12:11:01.303Z</time>
      </trkpt>
      <trkpt lat="42.461415" lon="1.44812">
        <ele>1890.0</ele>
        <time>2019-08-04T12:11:02.448Z</time>
      </trkpt>
      <trkpt lat="42.461415" lon="1.44812">
        <ele>1890.0</ele>
        <time>2019-08-04T12:11:03.298Z</time>
      </trkpt>
      <trkpt lat="42.46151333" lon="1.44787333">
        <ele>1888.0</ele>
        <time>2019-08-04T12:11:04.325Z</time>
      </trkpt>
      <trkpt lat="42.46151333" lon="1.44787333">
        <ele>1888.0</ele>
        <time>2019-08-04T12:11:05.302Z</time>
      </trkpt>
      <trkpt lat="42.46160167" lon="1.44759667">
        <ele>1886.0</ele>
        <time>2019-08-04T12:11:06.303Z</time>
      </trkpt>
      <trkpt lat="42.461645" lon="1.44746667">
        <ele>1885.0</ele>
        <time>2019-08-04T12:11:07.303Z</time>
      </trkpt>
      <trkpt lat="42.461645" lon="1.44746667">
        <ele>1885.0</ele>
        <time>2019-08-04T12:11:08.298Z</time>
      </trkpt>
      <trkpt lat="42.46176833" lon="1.44722667">
        <ele>1883.0</ele>
        <time>2019-08-04T12:11:09.303Z</time>
      </trkpt>
      <trkpt lat="42.46176833" lon="1.44722667">
        <ele>1883.0</ele>
        <time>2019-08-04T12:11:10.321Z</time>
      </trkpt>
      <trkpt lat="42.46189333" lon="1.44695333">
        <ele>1881.0</ele>
        <time>2019-08-04T12:11:11.304Z</time>
      </trkpt>
      <trkpt lat="42.46189333" lon="1.44695333">
        <ele>1881.0</ele>
        <time>2019-08-04T12:11:12.323Z</time>
      </trkpt>
      <trkpt lat="42.46194833" lon="1.44661">
        <ele>1879.0</ele>
        <time>2019-08-04T12:11:13.306Z</time>
      </trkpt>
      <trkpt lat="42.46194833" lon="1.44661">
        <ele>1879.0</ele>
        <time>2019-08-04T12:11:14.333Z</time>
      </trkpt>
      <trkpt lat="42.462045" lon="1.44626333">
        <ele>1876.0</ele>
        <time>2019-08-04T12:11:15.304Z</time>
      </trkpt>
      <trkpt lat="42.46210333" lon="1.44611333">
        <ele>1875.0</ele>
        <time>2019-08-04T12:11:16.304Z</time>
      </trkpt>
      <trkpt lat="42.46210333" lon="1.44611333">
        <ele>1875.0</ele>
        <time>2019-08-04T12:11:17.322Z</time>
      </trkpt>
      <trkpt lat="42.46219667" lon="1.44587">
        <ele>1873.0</ele>
        <time>2019-08-04T12:11:18.304Z</time>
      </trkpt>
      <trkpt lat="42.46219667" lon="1.44587">
        <ele>1873.0</ele>
        <time>2019-08-04T12:11:19.301Z</time>
      </trkpt>
      <trkpt lat="42.46237" lon="1.44572667">
        <ele>1870.0</ele>
        <time>2019-08-04T12:11:20.335Z</time>
      </trkpt>
      <trkpt lat="42.46246833" lon="1.44570167">
        <ele>1869.0</ele>
        <time>2019-08-04T12:11:21.316Z</time>
      </trkpt>
      <trkpt lat="42.46246833" lon="1.44570167">
        <ele>1869.0</ele>
        <time>2019-08-04T12:11:22.298Z</time>
      </trkpt>
      <trkpt lat="42.46268667" lon="1.445695">
        <ele>1866.0</ele>
        <time>2019-08-04T12:11:23.303Z</time>
      </trkpt>
      <trkpt lat="42.46280333" lon="1.445695">
        <ele>1865.0</ele>
        <time>2019-08-04T12:11:24.328Z</time>
      </trkpt>
      <trkpt lat="42.46280333" lon="1.445695">
        <ele>1865.0</ele>
        <time>2019-08-04T12:11:25.305Z</time>
      </trkpt>
      <trkpt lat="42.46305833" lon="1.44571167">
        <ele>1863.0</ele>
        <time>2019-08-04T12:11:26.304Z</time>
      </trkpt>
      <trkpt lat="42.46305833" lon="1.44571167">
        <ele>1863.0</ele>
        <time>2019-08-04T12:11:27.297Z</time>
      </trkpt>
      <trkpt lat="42.463305" lon="1.44575">
        <ele>1860.0</ele>
        <time>2019-08-04T12:11:28.303Z</time>
      </trkpt>
      <trkpt lat="42.463305" lon="1.44575">
        <ele>1860.0</ele>
        <time>2019-08-04T12:11:29.330Z</time>
      </trkpt>
      <trkpt lat="42.46351" lon="1.445775">
        <ele>1857.0</ele>
        <time>2019-08-04T12:11:30.299Z</time>
      </trkpt>
      <trkpt lat="42.46351" lon="1.445775">
        <ele>1857.0</ele>
        <time>2019-08-04T12:11:31.318Z</time>
      </trkpt>
      <trkpt lat="42.46368667" lon="1.445755">
        <ele>1854.0</ele>
        <time>2019-08-04T12:11:32.302Z</time>
      </trkpt>
      <trkpt lat="42.46377" lon="1.445745">
        <ele>1853.0</ele>
        <time>2019-08-04T12:11:33.303Z</time>
      </trkpt>
      <trkpt lat="42.46383667" lon="1.44573667">
        <ele>1852.0</ele>
        <time>2019-08-04T12:11:34.311Z</time>
      </trkpt>
      <trkpt lat="42.46383667" lon="1.44573667">
        <ele>1852.0</ele>
        <time>2019-08-04T12:11:35.298Z</time>
      </trkpt>
      <trkpt lat="42.46394" lon="1.44574833">
        <ele>1850.0</ele>
        <time>2019-08-04T12:11:36.305Z</time>
      </trkpt>
      <trkpt lat="42.46394" lon="1.44574833">
        <ele>1850.0</ele>
        <time>2019-08-04T12:11:37.298Z</time>
      </trkpt>
      <trkpt lat="42.46394167" lon="1.44585167">
        <ele>1848.0</ele>
        <time>2019-08-04T12:11:38.302Z</time>
      </trkpt>
      <trkpt lat="42.463915" lon="1.44591333">
        <ele>1847.0</ele>
        <time>2019-08-04T12:11:39.303Z</time>
      </trkpt>
      <trkpt lat="42.463915" lon="1.44591333">
        <ele>1847.0</ele>
        <time>2019-08-04T12:11:40.301Z</time>
      </trkpt>
      <trkpt lat="42.463785" lon="1.44596333">
        <ele>1844.0</ele>
        <time>2019-08-04T12:11:41.300Z</time>
      </trkpt>
      <trkpt lat="42.463785" lon="1.44596333">
        <ele>1844.0</ele>
        <time>2019-08-04T12:11:42.318Z</time>
      </trkpt>
      <trkpt lat="42.46359833" lon="1.44599667">
        <ele>1842.0</ele>
        <time>2019-08-04T12:11:43.303Z</time>
      </trkpt>
      <trkpt lat="42.4635" lon="1.44602333">
        <ele>1840.0</ele>
        <time>2019-08-04T12:11:44.311Z</time>
      </trkpt>
      <trkpt lat="42.4635" lon="1.44602333">
        <ele>1840.0</ele>
        <time>2019-08-04T12:11:45.298Z</time>
      </trkpt>
      <trkpt lat="42.46328833" lon="1.44608667">
        <ele>1838.0</ele>
        <time>2019-08-04T12:11:46.304Z</time>
      </trkpt>
      <trkpt lat="42.46328833" lon="1.44608667">
        <ele>1838.0</ele>
        <time>2019-08-04T12:11:47.323Z</time>
      </trkpt>
      <trkpt lat="42.46307667" lon="1.44615833">
        <ele>1836.0</ele>
        <time>2019-08-04T12:11:48.304Z</time>
      </trkpt>
      <trkpt lat="42.46307667" lon="1.44615833">
        <ele>1836.0</ele>
        <time>2019-08-04T12:11:49.306Z</time>
      </trkpt>
      <trkpt lat="42.46288667" lon="1.44628833">
        <ele>1833.0</ele>
        <time>2019-08-04T12:11:50.305Z</time>
      </trkpt>
      <trkpt lat="42.46288667" lon="1.44628833">
        <ele>1833.0</ele>
        <time>2019-08-04T12:11:51.300Z</time>
      </trkpt>
      <trkpt lat="42.462745" lon="1.44651333">
        <ele>1830.0</ele>
        <time>2019-08-04T12:11:52.307Z</time>
      </trkpt>
      <trkpt lat="42.462745" lon="1.44651333">
        <ele>1830.0</ele>
        <time>2019-08-04T12:11:53.297Z</time>
      </trkpt>
      <trkpt lat="42.462635" lon="1.44672167">
        <ele>1828.0</ele>
        <time>2019-08-04T12:11:54.313Z</time>
      </trkpt>
      <trkpt lat="42.462635" lon="1.44672167">
        <ele>1828.0</ele>
        <time>2019-08-04T12:11:55.300Z</time>
      </trkpt>
      <trkpt lat="42.46256" lon="1.44689667">
        <ele>1825.0</ele>
        <time>2019-08-04T12:11:56.303Z</time>
      </trkpt>
      <trkpt lat="42.46256" lon="1.44689667">
        <ele>1825.0</ele>
        <time>2019-08-04T12:11:57.297Z</time>
      </trkpt>
      <trkpt lat="42.46255167" lon="1.44704333">
        <ele>1822.0</ele>
        <time>2019-08-04T12:11:58.319Z</time>
      </trkpt>
      <trkpt lat="42.46255167" lon="1.44704333">
        <ele>1822.0</ele>
        <time>2019-08-04T12:11:59.300Z</time>
      </trkpt>
      <trkpt lat="42.46262167" lon="1.44708833">
        <ele>1820.0</ele>
        <time>2019-08-04T12:12:00.303Z</time>
      </trkpt>
      <trkpt lat="42.46262167" lon="1.44708833">
        <ele>1820.0</ele>
        <time>2019-08-04T12:12:01.300Z</time>
      </trkpt>
      <trkpt lat="42.46277333" lon="1.44694833">
        <ele>1818.0</ele>
        <time>2019-08-04T12:12:02.303Z</time>
      </trkpt>
      <trkpt lat="42.46283667" lon="1.44689833">
        <ele>1817.0</ele>
        <time>2019-08-04T12:12:03.322Z</time>
      </trkpt>
      <trkpt lat="42.46283667" lon="1.44689833">
        <ele>1817.0</ele>
        <time>2019-08-04T12:12:04.470Z</time>
      </trkpt>
      <trkpt lat="42.46288667" lon="1.44688833">
        <ele>1815.0</ele>
        <time>2019-08-04T12:12:05.303Z</time>
      </trkpt>
      <trkpt lat="42.46295667" lon="1.44701833">
        <ele>1814.0</ele>
        <time>2019-08-04T12:12:06.303Z</time>
      </trkpt>
      <trkpt lat="42.46295667" lon="1.44701833">
        <ele>1814.0</ele>
        <time>2019-08-04T12:12:07.323Z</time>
      </trkpt>
      <trkpt lat="42.46290333" lon="1.44722333">
        <ele>1811.0</ele>
        <time>2019-08-04T12:12:08.304Z</time>
      </trkpt>
      <trkpt lat="42.46290333" lon="1.44722333">
        <ele>1811.0</ele>
        <time>2019-08-04T12:12:09.300Z</time>
      </trkpt>
      <trkpt lat="42.462795" lon="1.447435">
        <ele>1810.0</ele>
        <time>2019-08-04T12:12:10.303Z</time>
      </trkpt>
      <trkpt lat="42.462795" lon="1.447435">
        <ele>1810.0</ele>
        <time>2019-08-04T12:12:11.322Z</time>
      </trkpt>
      <trkpt lat="42.46276667" lon="1.44771167">
        <ele>1808.0</ele>
        <time>2019-08-04T12:12:12.304Z</time>
      </trkpt>
      <trkpt lat="42.46276833" lon="1.44785667">
        <ele>1807.0</ele>
        <time>2019-08-04T12:12:13.303Z</time>
      </trkpt>
      <trkpt lat="42.46277167" lon="1.44801">
        <ele>1806.0</ele>
        <time>2019-08-04T12:12:14.318Z</time>
      </trkpt>
      <trkpt lat="42.46277667" lon="1.44816667">
        <ele>1805.0</ele>
        <time>2019-08-04T12:12:15.304Z</time>
      </trkpt>
      <trkpt lat="42.46277667" lon="1.44816667">
        <ele>1805.0</ele>
        <time>2019-08-04T12:12:16.299Z</time>
      </trkpt>
      <trkpt lat="42.46279833" lon="1.448495">
        <ele>1803.0</ele>
        <time>2019-08-04T12:12:17.305Z</time>
      </trkpt>
      <trkpt lat="42.46279833" lon="1.448495">
        <ele>1803.0</ele>
        <time>2019-08-04T12:12:18.301Z</time>
      </trkpt>
      <trkpt lat="42.46282833" lon="1.44883833">
        <ele>1802.0</ele>
        <time>2019-08-04T12:12:19.302Z</time>
      </trkpt>
      <trkpt lat="42.46284667" lon="1.44901167">
        <ele>1801.0</ele>
        <time>2019-08-04T12:12:20.305Z</time>
      </trkpt>
      <trkpt lat="42.46284667" lon="1.44901167">
        <ele>1801.0</ele>
        <time>2019-08-04T12:12:21.322Z</time>
      </trkpt>
      <trkpt lat="42.46283333" lon="1.44935">
        <ele>1799.0</ele>
        <time>2019-08-04T12:12:22.304Z</time>
      </trkpt>
      <trkpt lat="42.46279667" lon="1.44949833">
        <ele>1798.0</ele>
        <time>2019-08-04T12:12:23.305Z</time>
      </trkpt>
      <trkpt lat="42.46279667" lon="1.44949833">
        <ele>1798.0</ele>
        <time>2019-08-04T12:12:24.301Z</time>
      </trkpt>
      <trkpt lat="42.46269" lon="1.44975667">
        <ele>1796.0</ele>
        <time>2019-08-04T12:12:25.303Z</time>
      </trkpt>
      <trkpt lat="42.46269" lon="1.44975667">
        <ele>1796.0</ele>
        <time>2019-08-04T12:12:26.301Z</time>
      </trkpt>
      <trkpt lat="42.46258167" lon="1.45000333">
        <ele>1793.0</ele>
        <time>2019-08-04T12:12:27.304Z</time>
      </trkpt>
      <trkpt lat="42.46258167" lon="1.45000333">
        <ele>1793.0</ele>
        <time>2019-08-04T12:12:28.324Z</time>
      </trkpt>
      <trkpt lat="42.46254333" lon="1.45028833">
        <ele>1791.0</ele>
        <time>2019-08-04T12:12:29.330Z</time>
      </trkpt>
      <trkpt lat="42.46255667" lon="1.45043667">
        <ele>1789.0</ele>
        <time>2019-08-04T12:12:30.314Z</time>
      </trkpt>
      <trkpt lat="42.46255667" lon="1.45043667">
        <ele>1789.0</ele>
        <time>2019-08-04T12:12:31.320Z</time>
      </trkpt>
      <trkpt lat="42.46261" lon="1.45074">
        <ele>1787.0</ele>
        <time>2019-08-04T12:12:32.302Z</time>
      </trkpt>
      <trkpt lat="42.46265833" lon="1.450905">
        <ele>1786.0</ele>
        <time>2019-08-04T12:12:33.304Z</time>
      </trkpt>
      <trkpt lat="42.46265833" lon="1.450905">
        <ele>1786.0</ele>
        <time>2019-08-04T12:12:34.311Z</time>
      </trkpt>
      <trkpt lat="42.46278167" lon="1.45123333">
        <ele>1784.0</ele>
        <time>2019-08-04T12:12:35.303Z</time>
      </trkpt>
      <trkpt lat="42.462845" lon="1.451405">
        <ele>1782.0</ele>
        <time>2019-08-04T12:12:36.304Z</time>
      </trkpt>
      <trkpt lat="42.462845" lon="1.451405">
        <ele>1782.0</ele>
        <time>2019-08-04T12:12:37.323Z</time>
      </trkpt>
      <trkpt lat="42.46298833" lon="1.45175167">
        <ele>1780.0</ele>
        <time>2019-08-04T12:12:38.304Z</time>
      </trkpt>
      <trkpt lat="42.46298833" lon="1.45175167">
        <ele>1780.0</ele>
        <time>2019-08-04T12:12:39.300Z</time>
      </trkpt>
      <trkpt lat="42.46315833" lon="1.45206333">
        <ele>1777.0</ele>
        <time>2019-08-04T12:12:40.305Z</time>
      </trkpt>
      <trkpt lat="42.46315833" lon="1.45206333">
        <ele>1777.0</ele>
        <time>2019-08-04T12:12:41.322Z</time>
      </trkpt>
      <trkpt lat="42.46336667" lon="1.45233667">
        <ele>1775.0</ele>
        <time>2019-08-04T12:12:42.318Z</time>
      </trkpt>
      <trkpt lat="42.46336667" lon="1.45233667">
        <ele>1775.0</ele>
        <time>2019-08-04T12:12:43.299Z</time>
      </trkpt>
      <trkpt lat="42.46355167" lon="1.452585">
        <ele>1773.0</ele>
        <time>2019-08-04T12:12:44.323Z</time>
      </trkpt>
      <trkpt lat="42.46362" lon="1.45268">
        <ele>1771.0</ele>
        <time>2019-08-04T12:12:45.310Z</time>
      </trkpt>
      <trkpt lat="42.46362" lon="1.45268">
        <ele>1771.0</ele>
        <time>2019-08-04T12:12:46.299Z</time>
      </trkpt>
      <trkpt lat="42.463735" lon="1.45278833">
        <ele>1769.0</ele>
        <time>2019-08-04T12:12:47.303Z</time>
      </trkpt>
      <trkpt lat="42.46379333" lon="1.45278667">
        <ele>1767.0</ele>
        <time>2019-08-04T12:12:48.304Z</time>
      </trkpt>
      <trkpt lat="42.46379333" lon="1.45278667">
        <ele>1767.0</ele>
        <time>2019-08-04T12:12:49.299Z</time>
      </trkpt>
      <trkpt lat="42.46383667" lon="1.452685">
        <ele>1765.0</ele>
        <time>2019-08-04T12:12:50.303Z</time>
      </trkpt>
      <trkpt lat="42.46383667" lon="1.452685">
        <ele>1765.0</ele>
        <time>2019-08-04T12:12:51.322Z</time>
      </trkpt>
      <trkpt lat="42.46376167" lon="1.45252667">
        <ele>1762.0</ele>
        <time>2019-08-04T12:12:52.304Z</time>
      </trkpt>
      <trkpt lat="42.463715" lon="1.45244">
        <ele>1761.0</ele>
        <time>2019-08-04T12:12:53.305Z</time>
      </trkpt>
      <trkpt lat="42.463715" lon="1.45244">
        <ele>1761.0</ele>
        <time>2019-08-04T12:12:54.298Z</time>
      </trkpt>
      <trkpt lat="42.46367" lon="1.45220167">
        <ele>1759.0</ele>
        <time>2019-08-04T12:12:55.317Z</time>
      </trkpt>
      <trkpt lat="42.46367" lon="1.45220167">
        <ele>1759.0</ele>
        <time>2019-08-04T12:12:56.301Z</time>
      </trkpt>
      <trkpt lat="42.463665" lon="1.45191333">
        <ele>1757.0</ele>
        <time>2019-08-04T12:12:57.323Z</time>
      </trkpt>
      <trkpt lat="42.46366" lon="1.45176">
        <ele>1756.0</ele>
        <time>2019-08-04T12:12:58.305Z</time>
      </trkpt>
      <trkpt lat="42.46365333" lon="1.451605">
        <ele>1755.0</ele>
        <time>2019-08-04T12:12:59.304Z</time>
      </trkpt>
      <trkpt lat="42.46364667" lon="1.45144667">
        <ele>1754.0</ele>
        <time>2019-08-04T12:13:00.303Z</time>
      </trkpt>
      <trkpt lat="42.46364667" lon="1.45144667">
        <ele>1754.0</ele>
        <time>2019-08-04T12:13:01.321Z</time>
      </trkpt>
      <trkpt lat="42.46364667" lon="1.45144667">
        <ele>1754.0</ele>
        <time>2019-08-04T12:13:02.439Z</time>
      </trkpt>
      <trkpt lat="42.46367333" lon="1.45114667">
        <ele>1751.0</ele>
        <time>2019-08-04T12:13:03.298Z</time>
      </trkpt>
      <trkpt lat="42.46374167" lon="1.45084833">
        <ele>1749.0</ele>
        <time>2019-08-04T12:13:04.319Z</time>
      </trkpt>
      <trkpt lat="42.463785" lon="1.45070167">
        <ele>1748.0</ele>
        <time>2019-08-04T12:13:05.306Z</time>
      </trkpt>
      <trkpt lat="42.463785" lon="1.45070167">
        <ele>1748.0</ele>
        <time>2019-08-04T12:13:06.301Z</time>
      </trkpt>
      <trkpt lat="42.46389833" lon="1.450435">
        <ele>1745.0</ele>
        <time>2019-08-04T12:13:07.303Z</time>
      </trkpt>
      <trkpt lat="42.46397333" lon="1.45031833">
        <ele>1744.0</ele>
        <time>2019-08-04T12:13:08.301Z</time>
      </trkpt>
      <trkpt lat="42.46397333" lon="1.45031833">
        <ele>1744.0</ele>
        <time>2019-08-04T12:13:09.298Z</time>
      </trkpt>
      <trkpt lat="42.46417167" lon="1.45016667">
        <ele>1741.0</ele>
        <time>2019-08-04T12:13:10.304Z</time>
      </trkpt>
      <trkpt lat="42.46417167" lon="1.45016667">
        <ele>1741.0</ele>
        <time>2019-08-04T12:13:11.334Z</time>
      </trkpt>
      <trkpt lat="42.464375" lon="1.45007">
        <ele>1739.0</ele>
        <time>2019-08-04T12:13:12.315Z</time>
      </trkpt>
      <trkpt lat="42.464375" lon="1.45007">
        <ele>1739.0</ele>
        <time>2019-08-04T12:13:13.299Z</time>
      </trkpt>
      <trkpt lat="42.464625" lon="1.44998167">
        <ele>1736.0</ele>
        <time>2019-08-04T12:13:14.310Z</time>
      </trkpt>
      <trkpt lat="42.464625" lon="1.44998167">
        <ele>1736.0</ele>
        <time>2019-08-04T12:13:15.299Z</time>
      </trkpt>
      <trkpt lat="42.46485" lon="1.44982333">
        <ele>1734.0</ele>
        <time>2019-08-04T12:13:16.304Z</time>
      </trkpt>
      <trkpt lat="42.46485" lon="1.44982333">
        <ele>1734.0</ele>
        <time>2019-08-04T12:13:17.301Z</time>
      </trkpt>
      <trkpt lat="42.46507167" lon="1.44960333">
        <ele>1731.0</ele>
        <time>2019-08-04T12:13:18.304Z</time>
      </trkpt>
      <trkpt lat="42.46507167" lon="1.44960333">
        <ele>1731.0</ele>
        <time>2019-08-04T12:13:19.302Z</time>
      </trkpt>
      <trkpt lat="42.46526333" lon="1.44931833">
        <ele>1729.0</ele>
        <time>2019-08-04T12:13:20.304Z</time>
      </trkpt>
      <trkpt lat="42.46526333" lon="1.44931833">
        <ele>1729.0</ele>
        <time>2019-08-04T12:13:21.321Z</time>
      </trkpt>
      <trkpt lat="42.46539" lon="1.448985">
        <ele>1726.0</ele>
        <time>2019-08-04T12:13:22.304Z</time>
      </trkpt>
      <trkpt lat="42.46539" lon="1.448985">
        <ele>1726.0</ele>
        <time>2019-08-04T12:13:23.323Z</time>
      </trkpt>
      <trkpt lat="42.46543167" lon="1.44863333">
        <ele>1725.0</ele>
        <time>2019-08-04T12:13:24.310Z</time>
      </trkpt>
      <trkpt lat="42.46543167" lon="1.44863333">
        <ele>1725.0</ele>
        <time>2019-08-04T12:13:25.302Z</time>
      </trkpt>
      <trkpt lat="42.46552333" lon="1.44834">
        <ele>1723.0</ele>
        <time>2019-08-04T12:13:26.304Z</time>
      </trkpt>
      <trkpt lat="42.46552333" lon="1.44834">
        <ele>1723.0</ele>
        <time>2019-08-04T12:13:27.323Z</time>
      </trkpt>
      <trkpt lat="42.4657" lon="1.44809667">
        <ele>1721.0</ele>
        <time>2019-08-04T12:13:28.305Z</time>
      </trkpt>
      <trkpt lat="42.4657" lon="1.44809667">
        <ele>1721.0</ele>
        <time>2019-08-04T12:13:29.305Z</time>
      </trkpt>
      <trkpt lat="42.46592667" lon="1.44792833">
        <ele>1718.0</ele>
        <time>2019-08-04T12:13:30.325Z</time>
      </trkpt>
      <trkpt lat="42.46592667" lon="1.44792833">
        <ele>1718.0</ele>
        <time>2019-08-04T12:13:31.335Z</time>
      </trkpt>
      <trkpt lat="42.46617333" lon="1.447795">
        <ele>1716.0</ele>
        <time>2019-08-04T12:13:32.305Z</time>
      </trkpt>
      <trkpt lat="42.46617333" lon="1.447795">
        <ele>1716.0</ele>
        <time>2019-08-04T12:13:33.298Z</time>
      </trkpt>
      <trkpt lat="42.46617333" lon="1.447795">
        <ele>1716.0</ele>
        <time>2019-08-04T12:13:34.296Z</time>
      </trkpt>
      <trkpt lat="42.46642" lon="1.4477">
        <ele>1713.0</ele>
        <time>2019-08-04T12:13:35.308Z</time>
      </trkpt>
      <trkpt lat="42.466655" lon="1.44767667">
        <ele>1710.0</ele>
        <time>2019-08-04T12:13:36.304Z</time>
      </trkpt>
      <trkpt lat="42.466655" lon="1.44767667">
        <ele>1710.0</ele>
        <time>2019-08-04T12:13:37.298Z</time>
      </trkpt>
      <trkpt lat="42.46688167" lon="1.44763667">
        <ele>1708.0</ele>
        <time>2019-08-04T12:13:38.316Z</time>
      </trkpt>
      <trkpt lat="42.46688167" lon="1.44763667">
        <ele>1708.0</ele>
        <time>2019-08-04T12:13:39.298Z</time>
      </trkpt>
      <trkpt lat="42.46708833" lon="1.44749667">
        <ele>1706.0</ele>
        <time>2019-08-04T12:13:40.320Z</time>
      </trkpt>
      <trkpt lat="42.46708833" lon="1.44749667">
        <ele>1706.0</ele>
        <time>2019-08-04T12:13:41.300Z</time>
      </trkpt>
      <trkpt lat="42.46721" lon="1.44724167">
        <ele>1704.0</ele>
        <time>2019-08-04T12:13:42.303Z</time>
      </trkpt>
      <trkpt lat="42.46721" lon="1.44724167">
        <ele>1704.0</ele>
        <time>2019-08-04T12:13:43.296Z</time>
      </trkpt>
      <trkpt lat="42.467305" lon="1.44695667">
        <ele>1703.0</ele>
        <time>2019-08-04T12:13:44.331Z</time>
      </trkpt>
      <trkpt lat="42.467305" lon="1.44695667">
        <ele>1703.0</ele>
        <time>2019-08-04T12:13:45.302Z</time>
      </trkpt>
      <trkpt lat="42.46741167" lon="1.44669">
        <ele>1701.0</ele>
        <time>2019-08-04T12:13:46.302Z</time>
      </trkpt>
      <trkpt lat="42.46747667" lon="1.446575">
        <ele>1701.0</ele>
        <time>2019-08-04T12:13:47.318Z</time>
      </trkpt>
      <trkpt lat="42.46754833" lon="1.44648">
        <ele>1700.0</ele>
        <time>2019-08-04T12:13:48.304Z</time>
      </trkpt>
      <trkpt lat="42.46754833" lon="1.44648">
        <ele>1700.0</ele>
        <time>2019-08-04T12:13:49.302Z</time>
      </trkpt>
      <trkpt lat="42.46769833" lon="1.44632167">
        <ele>1698.0</ele>
        <time>2019-08-04T12:13:50.304Z</time>
      </trkpt>
      <trkpt lat="42.46778333" lon="1.44628333">
        <ele>1697.0</ele>
        <time>2019-08-04T12:13:51.304Z</time>
      </trkpt>
      <trkpt lat="42.46787833" lon="1.44628333">
        <ele>1696.0</ele>
        <time>2019-08-04T12:13:52.305Z</time>
      </trkpt>
      <trkpt lat="42.46787833" lon="1.44628333">
        <ele>1696.0</ele>
        <time>2019-08-04T12:13:53.302Z</time>
      </trkpt>
      <trkpt lat="42.46808" lon="1.44636167">
        <ele>1695.0</ele>
        <time>2019-08-04T12:13:54.335Z</time>
      </trkpt>
      <trkpt lat="42.46818" lon="1.44640167">
        <ele>1694.0</ele>
        <time>2019-08-04T12:13:55.317Z</time>
      </trkpt>
      <trkpt lat="42.46818" lon="1.44640167">
        <ele>1694.0</ele>
        <time>2019-08-04T12:13:56.303Z</time>
      </trkpt>
      <trkpt lat="42.46839667" lon="1.44645833">
        <ele>1692.0</ele>
        <time>2019-08-04T12:13:57.304Z</time>
      </trkpt>
      <trkpt lat="42.46852" lon="1.44646">
        <ele>1691.0</ele>
        <time>2019-08-04T12:13:58.319Z</time>
      </trkpt>
      <trkpt lat="42.468645" lon="1.44644833">
        <ele>1690.0</ele>
        <time>2019-08-04T12:13:59.304Z</time>
      </trkpt>
      <trkpt lat="42.46877" lon="1.44643333">
        <ele>1689.0</ele>
        <time>2019-08-04T12:14:00.304Z</time>
      </trkpt>
      <trkpt lat="42.46877" lon="1.44643333">
        <ele>1689.0</ele>
        <time>2019-08-04T12:14:01.302Z</time>
      </trkpt>
      <trkpt lat="42.46903833" lon="1.446435">
        <ele>1687.0</ele>
        <time>2019-08-04T12:14:02.304Z</time>
      </trkpt>
      <trkpt lat="42.469185" lon="1.44645333">
        <ele>1686.0</ele>
        <time>2019-08-04T12:14:03.304Z</time>
      </trkpt>
      <trkpt lat="42.469185" lon="1.44645333">
        <ele>1686.0</ele>
        <time>2019-08-04T12:14:04.323Z</time>
      </trkpt>
      <trkpt lat="42.46946667" lon="1.44652833">
        <ele>1683.0</ele>
        <time>2019-08-04T12:14:05.305Z</time>
      </trkpt>
      <trkpt lat="42.46960833" lon="1.44659">
        <ele>1682.0</ele>
        <time>2019-08-04T12:14:06.303Z</time>
      </trkpt>
      <trkpt lat="42.469745" lon="1.44666833">
        <ele>1681.0</ele>
        <time>2019-08-04T12:14:07.305Z</time>
      </trkpt>
      <trkpt lat="42.469745" lon="1.44666833">
        <ele>1681.0</ele>
        <time>2019-08-04T12:14:08.302Z</time>
      </trkpt>
      <trkpt lat="42.47" lon="1.44682167">
        <ele>1678.0</ele>
        <time>2019-08-04T12:14:09.302Z</time>
      </trkpt>
      <trkpt lat="42.47" lon="1.44682167">
        <ele>1678.0</ele>
        <time>2019-08-04T12:14:10.319Z</time>
      </trkpt>
      <trkpt lat="42.47" lon="1.44682167">
        <ele>1678.0</ele>
        <time>2019-08-04T12:14:11.441Z</time>
      </trkpt>
      <trkpt lat="42.47028167" lon="1.44708167">
        <ele>1676.0</ele>
        <time>2019-08-04T12:14:12.304Z</time>
      </trkpt>
      <trkpt lat="42.47028167" lon="1.44708167">
        <ele>1676.0</ele>
        <time>2019-08-04T12:14:13.302Z</time>
      </trkpt>
      <trkpt lat="42.470465" lon="1.44715">
        <ele>1673.0</ele>
        <time>2019-08-04T12:14:14.320Z</time>
      </trkpt>
      <trkpt lat="42.470465" lon="1.44715">
        <ele>1673.0</ele>
        <time>2019-08-04T12:14:15.302Z</time>
      </trkpt>
      <trkpt lat="42.47067333" lon="1.44705833">
        <ele>1671.0</ele>
        <time>2019-08-04T12:14:16.305Z</time>
      </trkpt>
      <trkpt lat="42.47067333" lon="1.44705833">
        <ele>1671.0</ele>
        <time>2019-08-04T12:14:17.302Z</time>
      </trkpt>
      <trkpt lat="42.470885" lon="1.44692333">
        <ele>1668.0</ele>
        <time>2019-08-04T12:14:18.304Z</time>
      </trkpt>
      <trkpt lat="42.470885" lon="1.44692333">
        <ele>1668.0</ele>
        <time>2019-08-04T12:14:19.309Z</time>
      </trkpt>
      <trkpt lat="42.47113833" lon="1.44684667">
        <ele>1665.0</ele>
        <time>2019-08-04T12:14:20.305Z</time>
      </trkpt>
      <trkpt lat="42.47113833" lon="1.44684667">
        <ele>1665.0</ele>
        <time>2019-08-04T12:14:21.302Z</time>
      </trkpt>
      <trkpt lat="42.47140167" lon="1.44686333">
        <ele>1663.0</ele>
        <time>2019-08-04T12:14:22.304Z</time>
      </trkpt>
      <trkpt lat="42.47153167" lon="1.44691">
        <ele>1662.0</ele>
        <time>2019-08-04T12:14:23.304Z</time>
      </trkpt>
      <trkpt lat="42.47153167" lon="1.44691">
        <ele>1662.0</ele>
        <time>2019-08-04T12:14:24.299Z</time>
      </trkpt>
      <trkpt lat="42.47178" lon="1.44707167">
        <ele>1659.0</ele>
        <time>2019-08-04T12:14:25.322Z</time>
      </trkpt>
      <trkpt lat="42.47188833" lon="1.44713833">
        <ele>1659.0</ele>
        <time>2019-08-04T12:14:26.305Z</time>
      </trkpt>
      <trkpt lat="42.47188833" lon="1.44713833">
        <ele>1659.0</ele>
        <time>2019-08-04T12:14:27.302Z</time>
      </trkpt>
      <trkpt lat="42.472115" lon="1.44719667">
        <ele>1657.0</ele>
        <time>2019-08-04T12:14:28.305Z</time>
      </trkpt>
      <trkpt lat="42.472115" lon="1.44719667">
        <ele>1657.0</ele>
        <time>2019-08-04T12:14:29.336Z</time>
      </trkpt>
      <trkpt lat="42.47225167" lon="1.44722">
        <ele>1655.0</ele>
        <time>2019-08-04T12:14:30.333Z</time>
      </trkpt>
      <trkpt lat="42.47225167" lon="1.44722">
        <ele>1655.0</ele>
        <time>2019-08-04T12:14:31.300Z</time>
      </trkpt>
      <trkpt lat="42.47230167" lon="1.44732833">
        <ele>1653.0</ele>
        <time>2019-08-04T12:14:32.308Z</time>
      </trkpt>
      <trkpt lat="42.472255" lon="1.44740333">
        <ele>1652.0</ele>
        <time>2019-08-04T12:14:33.305Z</time>
      </trkpt>
      <trkpt lat="42.47221167" lon="1.44746333">
        <ele>1651.0</ele>
        <time>2019-08-04T12:14:34.325Z</time>
      </trkpt>
      <trkpt lat="42.47221167" lon="1.44746333">
        <ele>1651.0</ele>
        <time>2019-08-04T12:14:35.299Z</time>
      </trkpt>
      <trkpt lat="42.47205167" lon="1.447515">
        <ele>1649.0</ele>
        <time>2019-08-04T12:14:36.303Z</time>
      </trkpt>
      <trkpt lat="42.47205167" lon="1.447515">
        <ele>1649.0</ele>
        <time>2019-08-04T12:14:37.301Z</time>
      </trkpt>
      <trkpt lat="42.47189667" lon="1.44756833">
        <ele>1647.0</ele>
        <time>2019-08-04T12:14:38.323Z</time>
      </trkpt>
      <trkpt lat="42.47189667" lon="1.44756833">
        <ele>1647.0</ele>
        <time>2019-08-04T12:14:39.302Z</time>
      </trkpt>
      <trkpt lat="42.47171833" lon="1.44762833">
        <ele>1645.0</ele>
        <time>2019-08-04T12:14:40.306Z</time>
      </trkpt>
      <trkpt lat="42.47171833" lon="1.44762833">
        <ele>1645.0</ele>
        <time>2019-08-04T12:14:41.301Z</time>
      </trkpt>
      <trkpt lat="42.471515" lon="1.44768333">
        <ele>1642.0</ele>
        <time>2019-08-04T12:14:42.323Z</time>
      </trkpt>
      <trkpt lat="42.47141" lon="1.44771667">
        <ele>1641.0</ele>
        <time>2019-08-04T12:14:43.304Z</time>
      </trkpt>
      <trkpt lat="42.47141" lon="1.44771667">
        <ele>1641.0</ele>
        <time>2019-08-04T12:14:44.310Z</time>
      </trkpt>
      <trkpt lat="42.47122667" lon="1.447785">
        <ele>1639.0</ele>
        <time>2019-08-04T12:14:45.304Z</time>
      </trkpt>
      <trkpt lat="42.47114833" lon="1.44784333">
        <ele>1639.0</ele>
        <time>2019-08-04T12:14:46.306Z</time>
      </trkpt>
      <trkpt lat="42.47114833" lon="1.44784333">
        <ele>1639.0</ele>
        <time>2019-08-04T12:14:47.323Z</time>
      </trkpt>
      <trkpt lat="42.47100667" lon="1.44796167">
        <ele>1637.0</ele>
        <time>2019-08-04T12:14:48.304Z</time>
      </trkpt>
      <trkpt lat="42.47100667" lon="1.44796167">
        <ele>1637.0</ele>
        <time>2019-08-04T12:14:49.299Z</time>
      </trkpt>
      <trkpt lat="42.47091667" lon="1.44809">
        <ele>1635.0</ele>
        <time>2019-08-04T12:14:50.319Z</time>
      </trkpt>
      <trkpt lat="42.47091667" lon="1.44809">
        <ele>1635.0</ele>
        <time>2019-08-04T12:14:51.301Z</time>
      </trkpt>
      <trkpt lat="42.47099833" lon="1.44823167">
        <ele>1633.0</ele>
        <time>2019-08-04T12:14:52.324Z</time>
      </trkpt>
      <trkpt lat="42.47099833" lon="1.44823167">
        <ele>1633.0</ele>
        <time>2019-08-04T12:14:53.302Z</time>
      </trkpt>
      <trkpt lat="42.47116" lon="1.44822833">
        <ele>1631.0</ele>
        <time>2019-08-04T12:14:54.319Z</time>
      </trkpt>
      <trkpt lat="42.47116" lon="1.44822833">
        <ele>1631.0</ele>
        <time>2019-08-04T12:14:55.302Z</time>
      </trkpt>
      <trkpt lat="42.47133167" lon="1.44816667">
        <ele>1629.0</ele>
        <time>2019-08-04T12:14:56.304Z</time>
      </trkpt>
      <trkpt lat="42.47133167" lon="1.44816667">
        <ele>1629.0</ele>
        <time>2019-08-04T12:14:57.323Z</time>
      </trkpt>
      <trkpt lat="42.47151167" lon="1.44812667">
        <ele>1628.0</ele>
        <time>2019-08-04T12:14:58.305Z</time>
      </trkpt>
      <trkpt lat="42.471615" lon="1.44810333">
        <ele>1627.0</ele>
        <time>2019-08-04T12:14:59.304Z</time>
      </trkpt>
      <trkpt lat="42.471615" lon="1.44810333">
        <ele>1627.0</ele>
        <time>2019-08-04T12:15:00.301Z</time>
      </trkpt>
      <trkpt lat="42.471855" lon="1.44809833">
        <ele>1625.0</ele>
        <time>2019-08-04T12:15:01.304Z</time>
      </trkpt>
      <trkpt lat="42.471855" lon="1.44809833">
        <ele>1625.0</ele>
        <time>2019-08-04T12:15:02.322Z</time>
      </trkpt>
      <trkpt lat="42.47206833" lon="1.44815667">
        <ele>1623.0</ele>
        <time>2019-08-04T12:15:03.306Z</time>
      </trkpt>
      <trkpt lat="42.47206833" lon="1.44815667">
        <ele>1623.0</ele>
        <time>2019-08-04T12:15:04.310Z</time>
      </trkpt>
      <trkpt lat="42.47226667" lon="1.44823">
        <ele>1621.0</ele>
        <time>2019-08-04T12:15:05.304Z</time>
      </trkpt>
      <trkpt lat="42.47236167" lon="1.44825167">
        <ele>1620.0</ele>
        <time>2019-08-04T12:15:06.301Z</time>
      </trkpt>
      <trkpt lat="42.47236167" lon="1.44825167">
        <ele>1620.0</ele>
        <time>2019-08-04T12:15:07.317Z</time>
      </trkpt>
      <trkpt lat="42.47252167" lon="1.448285">
        <ele>1618.0</ele>
        <time>2019-08-04T12:15:08.305Z</time>
      </trkpt>
      <trkpt lat="42.47252167" lon="1.448285">
        <ele>1618.0</ele>
        <time>2019-08-04T12:15:09.301Z</time>
      </trkpt>
      <trkpt lat="42.472655" lon="1.44840167">
        <ele>1616.0</ele>
        <time>2019-08-04T12:15:10.305Z</time>
      </trkpt>
      <trkpt lat="42.472655" lon="1.44840167">
        <ele>1616.0</ele>
        <time>2019-08-04T12:15:11.302Z</time>
      </trkpt>
      <trkpt lat="42.47276667" lon="1.44860833">
        <ele>1613.0</ele>
        <time>2019-08-04T12:15:12.300Z</time>
      </trkpt>
      <trkpt lat="42.472815" lon="1.44873833">
        <ele>1613.0</ele>
        <time>2019-08-04T12:15:13.324Z</time>
      </trkpt>
      <trkpt lat="42.47285" lon="1.448875">
        <ele>1613.0</ele>
        <time>2019-08-04T12:15:14.314Z</time>
      </trkpt>
      <trkpt lat="42.47285" lon="1.448875">
        <ele>1613.0</ele>
        <time>2019-08-04T12:15:15.301Z</time>
      </trkpt>
      <trkpt lat="42.47290167" lon="1.44913167">
        <ele>1613.0</ele>
        <time>2019-08-04T12:15:16.447Z</time>
      </trkpt>
      <trkpt lat="42.47290167" lon="1.44913167">
        <ele>1613.0</ele>
        <time>2019-08-04T12:15:17.323Z</time>
      </trkpt>
      <trkpt lat="42.47297167" lon="1.44938333">
        <ele>1611.0</ele>
        <time>2019-08-04T12:15:18.306Z</time>
      </trkpt>
      <trkpt lat="42.47297167" lon="1.44938333">
        <ele>1611.0</ele>
        <time>2019-08-04T12:15:19.302Z</time>
      </trkpt>
      <trkpt lat="42.47304833" lon="1.44964">
        <ele>1610.0</ele>
        <time>2019-08-04T12:15:20.304Z</time>
      </trkpt>
      <trkpt lat="42.47304833" lon="1.44964">
        <ele>1610.0</ele>
        <time>2019-08-04T12:15:21.300Z</time>
      </trkpt>
      <trkpt lat="42.47313667" lon="1.44987167">
        <ele>1608.0</ele>
        <time>2019-08-04T12:15:22.325Z</time>
      </trkpt>
      <trkpt lat="42.47318667" lon="1.449975">
        <ele>1606.0</ele>
        <time>2019-08-04T12:15:23.305Z</time>
      </trkpt>
      <trkpt lat="42.47324167" lon="1.45007667">
        <ele>1605.0</ele>
        <time>2019-08-04T12:15:24.318Z</time>
      </trkpt>
      <trkpt lat="42.47324167" lon="1.45007667">
        <ele>1605.0</ele>
        <time>2019-08-04T12:15:25.302Z</time>
      </trkpt>
      <trkpt lat="42.473355" lon="1.45024833">
        <ele>1602.0</ele>
        <time>2019-08-04T12:15:26.305Z</time>
      </trkpt>
      <trkpt lat="42.473355" lon="1.45024833">
        <ele>1602.0</ele>
        <time>2019-08-04T12:15:27.302Z</time>
      </trkpt>
      <trkpt lat="42.47348" lon="1.45033667">
        <ele>1601.0</ele>
        <time>2019-08-04T12:15:28.306Z</time>
      </trkpt>
      <trkpt lat="42.47348" lon="1.45033667">
        <ele>1601.0</ele>
        <time>2019-08-04T12:15:29.333Z</time>
      </trkpt>
      <trkpt lat="42.47358167" lon="1.45041833">
        <ele>1599.0</ele>
        <time>2019-08-04T12:15:30.312Z</time>
      </trkpt>
      <trkpt lat="42.47359167" lon="1.45047333">
        <ele>1598.0</ele>
        <time>2019-08-04T12:15:31.318Z</time>
      </trkpt>
      <trkpt lat="42.47355667" lon="1.45051167">
        <ele>1598.0</ele>
        <time>2019-08-04T12:15:32.305Z</time>
      </trkpt>
      <trkpt lat="42.47355667" lon="1.45051167">
        <ele>1598.0</ele>
        <time>2019-08-04T12:15:33.299Z</time>
      </trkpt>
      <trkpt lat="42.473455" lon="1.45048167">
        <ele>1597.0</ele>
        <time>2019-08-04T12:15:34.327Z</time>
      </trkpt>
      <trkpt lat="42.47340333" lon="1.450445">
        <ele>1597.0</ele>
        <time>2019-08-04T12:15:35.304Z</time>
      </trkpt>
      <trkpt lat="42.47340333" lon="1.450445">
        <ele>1597.0</ele>
        <time>2019-08-04T12:15:36.302Z</time>
      </trkpt>
      <trkpt lat="42.4733" lon="1.45035667">
        <ele>1596.0</ele>
        <time>2019-08-04T12:15:37.302Z</time>
      </trkpt>
      <trkpt lat="42.473245" lon="1.450305">
        <ele>1596.0</ele>
        <time>2019-08-04T12:15:38.318Z</time>
      </trkpt>
      <trkpt lat="42.473245" lon="1.450305">
        <ele>1596.0</ele>
        <time>2019-08-04T12:15:39.302Z</time>
      </trkpt>
      <trkpt lat="42.47312833" lon="1.45019">
        <ele>1595.0</ele>
        <time>2019-08-04T12:15:40.306Z</time>
      </trkpt>
      <trkpt lat="42.47312833" lon="1.45019">
        <ele>1595.0</ele>
        <time>2019-08-04T12:15:41.302Z</time>
      </trkpt>
      <trkpt lat="42.47299833" lon="1.45007">
        <ele>1594.0</ele>
        <time>2019-08-04T12:15:42.325Z</time>
      </trkpt>
      <trkpt lat="42.47299833" lon="1.45007">
        <ele>1594.0</ele>
        <time>2019-08-04T12:15:43.302Z</time>
      </trkpt>
      <trkpt lat="42.47287667" lon="1.44991833">
        <ele>1594.0</ele>
        <time>2019-08-04T12:15:44.317Z</time>
      </trkpt>
      <trkpt lat="42.47287667" lon="1.44991833">
        <ele>1594.0</ele>
        <time>2019-08-04T12:15:45.302Z</time>
      </trkpt>
      <trkpt lat="42.47278333" lon="1.44973333">
        <ele>1594.0</ele>
        <time>2019-08-04T12:15:46.306Z</time>
      </trkpt>
      <trkpt lat="42.47278333" lon="1.44973333">
        <ele>1594.0</ele>
        <time>2019-08-04T12:15:47.324Z</time>
      </trkpt>
      <trkpt lat="42.472705" lon="1.449535">
        <ele>1594.0</ele>
        <time>2019-08-04T12:15:48.306Z</time>
      </trkpt>
      <trkpt lat="42.472675" lon="1.44943333">
        <ele>1594.0</ele>
        <time>2019-08-04T12:15:49.305Z</time>
      </trkpt>
      <trkpt lat="42.472675" lon="1.44943333">
        <ele>1594.0</ele>
        <time>2019-08-04T12:15:50.302Z</time>
      </trkpt>
      <trkpt lat="42.47262333" lon="1.44926833">
        <ele>1594.0</ele>
        <time>2019-08-04T12:15:51.304Z</time>
      </trkpt>
      <trkpt lat="42.472585" lon="1.44924333">
        <ele>1594.0</ele>
        <time>2019-08-04T12:15:52.320Z</time>
      </trkpt>
      <trkpt lat="42.472585" lon="1.44924333">
        <ele>1594.0</ele>
        <time>2019-08-04T12:15:53.302Z</time>
      </trkpt>
      <trkpt lat="42.47254" lon="1.44934167">
        <ele>1591.0</ele>
        <time>2019-08-04T12:15:54.328Z</time>
      </trkpt>
      <trkpt lat="42.47254" lon="1.44934167">
        <ele>1591.0</ele>
        <time>2019-08-04T12:15:55.299Z</time>
      </trkpt>
      <trkpt lat="42.47258333" lon="1.44952">
        <ele>1590.0</ele>
        <time>2019-08-04T12:15:56.305Z</time>
      </trkpt>
      <trkpt lat="42.47258333" lon="1.44952">
        <ele>1590.0</ele>
        <time>2019-08-04T12:15:57.302Z</time>
      </trkpt>
      <trkpt lat="42.47266667" lon="1.449755">
        <ele>1588.0</ele>
        <time>2019-08-04T12:15:58.326Z</time>
      </trkpt>
      <trkpt lat="42.47266667" lon="1.449755">
        <ele>1588.0</ele>
        <time>2019-08-04T12:15:59.302Z</time>
      </trkpt>
      <trkpt lat="42.47275333" lon="1.45002167">
        <ele>1586.0</ele>
        <time>2019-08-04T12:16:00.304Z</time>
      </trkpt>
      <trkpt lat="42.47275333" lon="1.45002167">
        <ele>1586.0</ele>
        <time>2019-08-04T12:16:01.302Z</time>
      </trkpt>
      <trkpt lat="42.47291333" lon="1.45025333">
        <ele>1584.0</ele>
        <time>2019-08-04T12:16:02.304Z</time>
      </trkpt>
      <trkpt lat="42.47291333" lon="1.45025333">
        <ele>1584.0</ele>
        <time>2019-08-04T12:16:03.324Z</time>
      </trkpt>
      <trkpt lat="42.47306667" lon="1.450505">
        <ele>1582.0</ele>
        <time>2019-08-04T12:16:04.319Z</time>
      </trkpt>
      <trkpt lat="42.47313" lon="1.45064667">
        <ele>1581.0</ele>
        <time>2019-08-04T12:16:05.304Z</time>
      </trkpt>
      <trkpt lat="42.47313" lon="1.45064667">
        <ele>1581.0</ele>
        <time>2019-08-04T12:16:06.300Z</time>
      </trkpt>
      <trkpt lat="42.47324667" lon="1.45094">
        <ele>1578.0</ele>
        <time>2019-08-04T12:16:07.325Z</time>
      </trkpt>
      <trkpt lat="42.47324667" lon="1.45094">
        <ele>1578.0</ele>
        <time>2019-08-04T12:16:08.302Z</time>
      </trkpt>
      <trkpt lat="42.47338" lon="1.451175">
        <ele>1575.0</ele>
        <time>2019-08-04T12:16:09.305Z</time>
      </trkpt>
      <trkpt lat="42.47338" lon="1.451175">
        <ele>1575.0</ele>
        <time>2019-08-04T12:16:10.447Z</time>
      </trkpt>
      <trkpt lat="42.47347" lon="1.45125333">
        <ele>1573.0</ele>
        <time>2019-08-04T12:16:11.302Z</time>
      </trkpt>
      <trkpt lat="42.473695" lon="1.45134333">
        <ele>1572.0</ele>
        <time>2019-08-04T12:16:12.324Z</time>
      </trkpt>
      <trkpt lat="42.473695" lon="1.45134333">
        <ele>1572.0</ele>
        <time>2019-08-04T12:16:13.301Z</time>
      </trkpt>
      <trkpt lat="42.47391333" lon="1.45147167">
        <ele>1569.0</ele>
        <time>2019-08-04T12:16:14.310Z</time>
      </trkpt>
      <trkpt lat="42.47391333" lon="1.45147167">
        <ele>1569.0</ele>
        <time>2019-08-04T12:16:15.301Z</time>
      </trkpt>
      <trkpt lat="42.47408333" lon="1.4516">
        <ele>1567.0</ele>
        <time>2019-08-04T12:16:16.308Z</time>
      </trkpt>
      <trkpt lat="42.47408333" lon="1.4516">
        <ele>1567.0</ele>
        <time>2019-08-04T12:16:17.324Z</time>
      </trkpt>
      <trkpt lat="42.47422167" lon="1.45162667">
        <ele>1565.0</ele>
        <time>2019-08-04T12:16:18.306Z</time>
      </trkpt>
      <trkpt lat="42.47422167" lon="1.45162667">
        <ele>1565.0</ele>
        <time>2019-08-04T12:16:19.303Z</time>
      </trkpt>
      <trkpt lat="42.47431833" lon="1.45146833">
        <ele>1563.0</ele>
        <time>2019-08-04T12:16:20.305Z</time>
      </trkpt>
      <trkpt lat="42.47431833" lon="1.45146833">
        <ele>1563.0</ele>
        <time>2019-08-04T12:16:21.302Z</time>
      </trkpt>
      <trkpt lat="42.47439833" lon="1.4513">
        <ele>1560.0</ele>
        <time>2019-08-04T12:16:22.305Z</time>
      </trkpt>
      <trkpt lat="42.47439833" lon="1.4513">
        <ele>1560.0</ele>
        <time>2019-08-04T12:16:23.324Z</time>
      </trkpt>
      <trkpt lat="42.474505" lon="1.451285">
        <ele>1558.0</ele>
        <time>2019-08-04T12:16:24.327Z</time>
      </trkpt>
      <trkpt lat="42.474505" lon="1.451285">
        <ele>1558.0</ele>
        <time>2019-08-04T12:16:25.303Z</time>
      </trkpt>
      <trkpt lat="42.47456167" lon="1.45145833">
        <ele>1555.0</ele>
        <time>2019-08-04T12:16:26.318Z</time>
      </trkpt>
      <trkpt lat="42.47456167" lon="1.45145833">
        <ele>1555.0</ele>
        <time>2019-08-04T12:16:27.299Z</time>
      </trkpt>
      <trkpt lat="42.47456833" lon="1.45169667">
        <ele>1552.0</ele>
        <time>2019-08-04T12:16:28.306Z</time>
      </trkpt>
      <trkpt lat="42.47456833" lon="1.45169667">
        <ele>1552.0</ele>
        <time>2019-08-04T12:16:29.334Z</time>
      </trkpt>
      <trkpt lat="42.47459333" lon="1.45195833">
        <ele>1550.0</ele>
        <time>2019-08-04T12:16:30.311Z</time>
      </trkpt>
      <trkpt lat="42.47461667" lon="1.45208">
        <ele>1549.0</ele>
        <time>2019-08-04T12:16:31.318Z</time>
      </trkpt>
      <trkpt lat="42.47461667" lon="1.45208">
        <ele>1549.0</ele>
        <time>2019-08-04T12:16:32.324Z</time>
      </trkpt>
      <trkpt lat="42.47469333" lon="1.45224333">
        <ele>1548.0</ele>
        <time>2019-08-04T12:16:33.305Z</time>
      </trkpt>
      <trkpt lat="42.47474667" lon="1.45226">
        <ele>1547.0</ele>
        <time>2019-08-04T12:16:34.318Z</time>
      </trkpt>
      <trkpt lat="42.47474667" lon="1.45226">
        <ele>1547.0</ele>
        <time>2019-08-04T12:16:35.300Z</time>
      </trkpt>
      <trkpt lat="42.47483" lon="1.45212333">
        <ele>1546.0</ele>
        <time>2019-08-04T12:16:36.305Z</time>
      </trkpt>
      <trkpt lat="42.47483" lon="1.45212333">
        <ele>1546.0</ele>
        <time>2019-08-04T12:16:37.299Z</time>
      </trkpt>
      <trkpt lat="42.47488333" lon="1.451885">
        <ele>1544.0</ele>
        <time>2019-08-04T12:16:38.320Z</time>
      </trkpt>
      <trkpt lat="42.47488333" lon="1.451885">
        <ele>1544.0</ele>
        <time>2019-08-04T12:16:39.300Z</time>
      </trkpt>
      <trkpt lat="42.474935" lon="1.45160167">
        <ele>1542.0</ele>
        <time>2019-08-04T12:16:40.320Z</time>
      </trkpt>
      <trkpt lat="42.474935" lon="1.45160167">
        <ele>1542.0</ele>
        <time>2019-08-04T12:16:41.302Z</time>
      </trkpt>
      <trkpt lat="42.47500333" lon="1.45129">
        <ele>1540.0</ele>
        <time>2019-08-04T12:16:42.325Z</time>
      </trkpt>
      <trkpt lat="42.47500333" lon="1.45129">
        <ele>1540.0</ele>
        <time>2019-08-04T12:16:43.303Z</time>
      </trkpt>
      <trkpt lat="42.47513" lon="1.451015">
        <ele>1538.0</ele>
        <time>2019-08-04T12:16:44.319Z</time>
      </trkpt>
      <trkpt lat="42.47513" lon="1.451015">
        <ele>1538.0</ele>
        <time>2019-08-04T12:16:45.302Z</time>
      </trkpt>
      <trkpt lat="42.47536167" lon="1.45090833">
        <ele>1536.0</ele>
        <time>2019-08-04T12:16:46.305Z</time>
      </trkpt>
      <trkpt lat="42.47536167" lon="1.45090833">
        <ele>1536.0</ele>
        <time>2019-08-04T12:16:47.303Z</time>
      </trkpt>
      <trkpt lat="42.47562667" lon="1.45095">
        <ele>1534.0</ele>
        <time>2019-08-04T12:16:48.305Z</time>
      </trkpt>
      <trkpt lat="42.47562667" lon="1.45095">
        <ele>1534.0</ele>
        <time>2019-08-04T12:16:49.301Z</time>
      </trkpt>
      <trkpt lat="42.47588833" lon="1.450955">
        <ele>1534.0</ele>
        <time>2019-08-04T12:16:50.305Z</time>
      </trkpt>
      <trkpt lat="42.47588833" lon="1.450955">
        <ele>1534.0</ele>
        <time>2019-08-04T12:16:51.302Z</time>
      </trkpt>
      <trkpt lat="42.47614333" lon="1.45084167">
        <ele>1533.0</ele>
        <time>2019-08-04T12:16:52.306Z</time>
      </trkpt>
      <trkpt lat="42.47614333" lon="1.45084167">
        <ele>1533.0</ele>
        <time>2019-08-04T12:16:53.334Z</time>
      </trkpt>
      <trkpt lat="42.476395" lon="1.45076833">
        <ele>1533.0</ele>
        <time>2019-08-04T12:16:54.327Z</time>
      </trkpt>
      <trkpt lat="42.476395" lon="1.45076833">
        <ele>1533.0</ele>
        <time>2019-08-04T12:16:55.302Z</time>
      </trkpt>
      <trkpt lat="42.47661833" lon="1.45081333">
        <ele>1533.0</ele>
        <time>2019-08-04T12:16:56.304Z</time>
      </trkpt>
      <trkpt lat="42.47669667" lon="1.45087833">
        <ele>1532.0</ele>
        <time>2019-08-04T12:16:57.302Z</time>
      </trkpt>
      <trkpt lat="42.47674833" lon="1.45094333">
        <ele>1529.0</ele>
        <time>2019-08-04T12:16:58.318Z</time>
      </trkpt>
      <trkpt lat="42.47674833" lon="1.45094333">
        <ele>1529.0</ele>
        <time>2019-08-04T12:16:59.302Z</time>
      </trkpt>
      <trkpt lat="42.47675667" lon="1.45115833">
        <ele>1526.0</ele>
        <time>2019-08-04T12:17:00.305Z</time>
      </trkpt>
      <trkpt lat="42.47675667" lon="1.45115833">
        <ele>1526.0</ele>
        <time>2019-08-04T12:17:01.302Z</time>
      </trkpt>
      <trkpt lat="42.47662667" lon="1.45136">
        <ele>1522.0</ele>
        <time>2019-08-04T12:17:02.324Z</time>
      </trkpt>
      <trkpt lat="42.47654667" lon="1.45147167">
        <ele>1521.0</ele>
        <time>2019-08-04T12:17:03.319Z</time>
      </trkpt>
      <trkpt lat="42.47654667" lon="1.45147167">
        <ele>1521.0</ele>
        <time>2019-08-04T12:17:04.314Z</time>
      </trkpt>
      <trkpt lat="42.476405" lon="1.45171833">
        <ele>1519.0</ele>
        <time>2019-08-04T12:17:05.305Z</time>
      </trkpt>
      <trkpt lat="42.476325" lon="1.45182833">
        <ele>1518.0</ele>
        <time>2019-08-04T12:17:06.320Z</time>
      </trkpt>
      <trkpt lat="42.476325" lon="1.45182833">
        <ele>1518.0</ele>
        <time>2019-08-04T12:17:07.300Z</time>
      </trkpt>
      <trkpt lat="42.476115" lon="1.45198">
        <ele>1516.0</ele>
        <time>2019-08-04T12:17:08.320Z</time>
      </trkpt>
      <trkpt lat="42.476115" lon="1.45198">
        <ele>1516.0</ele>
        <time>2019-08-04T12:17:09.302Z</time>
      </trkpt>
      <trkpt lat="42.47592167" lon="1.452065">
        <ele>1513.0</ele>
        <time>2019-08-04T12:17:10.321Z</time>
      </trkpt>
      <trkpt lat="42.47592167" lon="1.452065">
        <ele>1513.0</ele>
        <time>2019-08-04T12:17:11.299Z</time>
      </trkpt>
      <trkpt lat="42.47576" lon="1.45215667">
        <ele>1510.0</ele>
        <time>2019-08-04T12:17:12.321Z</time>
      </trkpt>
      <trkpt lat="42.47576" lon="1.45215667">
        <ele>1510.0</ele>
        <time>2019-08-04T12:17:13.302Z</time>
      </trkpt>
      <trkpt lat="42.47576" lon="1.45215667">
        <ele>1510.0</ele>
        <time>2019-08-04T12:17:14.475Z</time>
      </trkpt>
      <trkpt lat="42.47569167" lon="1.452375">
        <ele>1508.0</ele>
        <time>2019-08-04T12:17:15.302Z</time>
      </trkpt>
      <trkpt lat="42.47565833" lon="1.452635">
        <ele>1506.0</ele>
        <time>2019-08-04T12:17:16.306Z</time>
      </trkpt>
      <trkpt lat="42.47565833" lon="1.452635">
        <ele>1506.0</ele>
        <time>2019-08-04T12:17:17.302Z</time>
      </trkpt>
      <trkpt lat="42.475665" lon="1.45292167">
        <ele>1504.0</ele>
        <time>2019-08-04T12:17:18.305Z</time>
      </trkpt>
      <trkpt lat="42.475665" lon="1.45292167">
        <ele>1504.0</ele>
        <time>2019-08-04T12:17:19.303Z</time>
      </trkpt>
      <trkpt lat="42.47576667" lon="1.45320167">
        <ele>1501.0</ele>
        <time>2019-08-04T12:17:20.302Z</time>
      </trkpt>
      <trkpt lat="42.47581333" lon="1.453325">
        <ele>1500.0</ele>
        <time>2019-08-04T12:17:21.318Z</time>
      </trkpt>
      <trkpt lat="42.47581333" lon="1.453325">
        <ele>1500.0</ele>
        <time>2019-08-04T12:17:22.303Z</time>
      </trkpt>
      <trkpt lat="42.47591333" lon="1.45354">
        <ele>1498.0</ele>
        <time>2019-08-04T12:17:23.305Z</time>
      </trkpt>
      <trkpt lat="42.47591333" lon="1.45354">
        <ele>1498.0</ele>
        <time>2019-08-04T12:17:24.308Z</time>
      </trkpt>
      <trkpt lat="42.47601167" lon="1.45371333">
        <ele>1495.0</ele>
        <time>2019-08-04T12:17:25.305Z</time>
      </trkpt>
      <trkpt lat="42.47601167" lon="1.45371333">
        <ele>1495.0</ele>
        <time>2019-08-04T12:17:26.302Z</time>
      </trkpt>
      <trkpt lat="42.47608667" lon="1.45386">
        <ele>1493.0</ele>
        <time>2019-08-04T12:17:27.324Z</time>
      </trkpt>
      <trkpt lat="42.47608667" lon="1.45386">
        <ele>1493.0</ele>
        <time>2019-08-04T12:17:28.304Z</time>
      </trkpt>
      <trkpt lat="42.47614" lon="1.45397167">
        <ele>1492.0</ele>
        <time>2019-08-04T12:17:29.326Z</time>
      </trkpt>
      <trkpt lat="42.47614" lon="1.45397167">
        <ele>1492.0</ele>
        <time>2019-08-04T12:17:30.310Z</time>
      </trkpt>
      <trkpt lat="42.47620333" lon="1.45397667">
        <ele>1490.0</ele>
        <time>2019-08-04T12:17:31.316Z</time>
      </trkpt>
      <trkpt lat="42.47622833" lon="1.45392667">
        <ele>1489.0</ele>
        <time>2019-08-04T12:17:32.324Z</time>
      </trkpt>
      <trkpt lat="42.47622833" lon="1.45392667">
        <ele>1489.0</ele>
        <time>2019-08-04T12:17:33.302Z</time>
      </trkpt>
      <trkpt lat="42.47622167" lon="1.45378">
        <ele>1487.0</ele>
        <time>2019-08-04T12:17:34.317Z</time>
      </trkpt>
      <trkpt lat="42.47622167" lon="1.45378">
        <ele>1487.0</ele>
        <time>2019-08-04T12:17:35.302Z</time>
      </trkpt>
      <trkpt lat="42.47619167" lon="1.45366167">
        <ele>1485.0</ele>
        <time>2019-08-04T12:17:36.325Z</time>
      </trkpt>
      <trkpt lat="42.47619167" lon="1.45366167">
        <ele>1485.0</ele>
        <time>2019-08-04T12:17:37.305Z</time>
      </trkpt>
      <trkpt lat="42.47617" lon="1.453575">
        <ele>1483.0</ele>
        <time>2019-08-04T12:17:38.305Z</time>
      </trkpt>
      <trkpt lat="42.47617" lon="1.453575">
        <ele>1483.0</ele>
        <time>2019-08-04T12:17:39.303Z</time>
      </trkpt>
      <trkpt lat="42.47618167" lon="1.45350833">
        <ele>1481.0</ele>
        <time>2019-08-04T12:17:40.306Z</time>
      </trkpt>
      <trkpt lat="42.47618167" lon="1.45350833">
        <ele>1481.0</ele>
        <time>2019-08-04T12:17:41.297Z</time>
      </trkpt>
      <trkpt lat="42.476255" lon="1.45357167">
        <ele>1480.0</ele>
        <time>2019-08-04T12:17:42.305Z</time>
      </trkpt>
      <trkpt lat="42.476255" lon="1.45357167">
        <ele>1480.0</ele>
        <time>2019-08-04T12:17:43.301Z</time>
      </trkpt>
      <trkpt lat="42.47632833" lon="1.453715">
        <ele>1478.0</ele>
        <time>2019-08-04T12:17:44.327Z</time>
      </trkpt>
      <trkpt lat="42.47632833" lon="1.453715">
        <ele>1478.0</ele>
        <time>2019-08-04T12:17:45.303Z</time>
      </trkpt>
      <trkpt lat="42.476435" lon="1.45388167">
        <ele>1477.0</ele>
        <time>2019-08-04T12:17:46.306Z</time>
      </trkpt>
      <trkpt lat="42.476435" lon="1.45388167">
        <ele>1477.0</ele>
        <time>2019-08-04T12:17:47.300Z</time>
      </trkpt>
      <trkpt lat="42.47654" lon="1.45404167">
        <ele>1474.0</ele>
        <time>2019-08-04T12:17:48.305Z</time>
      </trkpt>
      <trkpt lat="42.47654" lon="1.45404167">
        <ele>1474.0</ele>
        <time>2019-08-04T12:17:49.302Z</time>
      </trkpt>
      <trkpt lat="42.47662333" lon="1.454185">
        <ele>1473.0</ele>
        <time>2019-08-04T12:17:50.305Z</time>
      </trkpt>
      <trkpt lat="42.47662333" lon="1.454185">
        <ele>1473.0</ele>
        <time>2019-08-04T12:17:51.320Z</time>
      </trkpt>
      <trkpt lat="42.47668833" lon="1.45431167">
        <ele>1472.0</ele>
        <time>2019-08-04T12:17:52.306Z</time>
      </trkpt>
      <trkpt lat="42.47668833" lon="1.45431167">
        <ele>1472.0</ele>
        <time>2019-08-04T12:17:53.303Z</time>
      </trkpt>
      <trkpt lat="42.47673667" lon="1.454365">
        <ele>1471.0</ele>
        <time>2019-08-04T12:17:54.327Z</time>
      </trkpt>
      <trkpt lat="42.47673667" lon="1.454365">
        <ele>1471.0</ele>
        <time>2019-08-04T12:17:55.303Z</time>
      </trkpt>
      <trkpt lat="42.47675667" lon="1.45427">
        <ele>1470.0</ele>
        <time>2019-08-04T12:17:56.305Z</time>
      </trkpt>
      <trkpt lat="42.47675667" lon="1.45427">
        <ele>1470.0</ele>
        <time>2019-08-04T12:17:57.324Z</time>
      </trkpt>
      <trkpt lat="42.476735" lon="1.45411667">
        <ele>1468.0</ele>
        <time>2019-08-04T12:17:58.306Z</time>
      </trkpt>
      <trkpt lat="42.476735" lon="1.45411667">
        <ele>1468.0</ele>
        <time>2019-08-04T12:17:59.300Z</time>
      </trkpt>
      <trkpt lat="42.47669167" lon="1.453935">
        <ele>1467.0</ele>
        <time>2019-08-04T12:18:00.320Z</time>
      </trkpt>
      <trkpt lat="42.47669167" lon="1.453935">
        <ele>1467.0</ele>
        <time>2019-08-04T12:18:01.302Z</time>
      </trkpt>
      <trkpt lat="42.47663833" lon="1.45374">
        <ele>1467.0</ele>
        <time>2019-08-04T12:18:02.324Z</time>
      </trkpt>
      <trkpt lat="42.47663833" lon="1.45374">
        <ele>1467.0</ele>
        <time>2019-08-04T12:18:03.306Z</time>
      </trkpt>
      <trkpt lat="42.47657167" lon="1.45355833">
        <ele>1466.0</ele>
        <time>2019-08-04T12:18:04.327Z</time>
      </trkpt>
      <trkpt lat="42.47657167" lon="1.45355833">
        <ele>1466.0</ele>
        <time>2019-08-04T12:18:05.303Z</time>
      </trkpt>
      <trkpt lat="42.47649167" lon="1.45341167">
        <ele>1466.0</ele>
        <time>2019-08-04T12:18:06.305Z</time>
      </trkpt>
      <trkpt lat="42.47649167" lon="1.45341167">
        <ele>1466.0</ele>
        <time>2019-08-04T12:18:07.303Z</time>
      </trkpt>
      <trkpt lat="42.476435" lon="1.45327167">
        <ele>1465.0</ele>
        <time>2019-08-04T12:18:08.305Z</time>
      </trkpt>
      <trkpt lat="42.476435" lon="1.45327167">
        <ele>1465.0</ele>
        <time>2019-08-04T12:18:09.320Z</time>
      </trkpt>
      <trkpt lat="42.47646833" lon="1.45312167">
        <ele>1464.0</ele>
        <time>2019-08-04T12:18:10.306Z</time>
      </trkpt>
      <trkpt lat="42.47646833" lon="1.45312167">
        <ele>1464.0</ele>
        <time>2019-08-04T12:18:11.302Z</time>
      </trkpt>
      <trkpt lat="42.47655833" lon="1.45300333">
        <ele>1463.0</ele>
        <time>2019-08-04T12:18:12.306Z</time>
      </trkpt>
      <trkpt lat="42.47655833" lon="1.45300333">
        <ele>1463.0</ele>
        <time>2019-08-04T12:18:13.300Z</time>
      </trkpt>
      <trkpt lat="42.47671" lon="1.45293833">
        <ele>1462.0</ele>
        <time>2019-08-04T12:18:14.327Z</time>
      </trkpt>
      <trkpt lat="42.47671" lon="1.45293833">
        <ele>1462.0</ele>
        <time>2019-08-04T12:18:15.455Z</time>
      </trkpt>
      <trkpt lat="42.47679" lon="1.45294333">
        <ele>1463.0</ele>
        <time>2019-08-04T12:18:16.304Z</time>
      </trkpt>
      <trkpt lat="42.476925" lon="1.45300167">
        <ele>1463.0</ele>
        <time>2019-08-04T12:18:17.305Z</time>
      </trkpt>
      <trkpt lat="42.47698333" lon="1.45303">
        <ele>1462.0</ele>
        <time>2019-08-04T12:18:18.306Z</time>
      </trkpt>
      <trkpt lat="42.47698333" lon="1.45303">
        <ele>1462.0</ele>
        <time>2019-08-04T12:18:19.302Z</time>
      </trkpt>
      <trkpt lat="42.477115" lon="1.45306167">
        <ele>1461.0</ele>
        <time>2019-08-04T12:18:20.306Z</time>
      </trkpt>
      <trkpt lat="42.477115" lon="1.45306167">
        <ele>1461.0</ele>
        <time>2019-08-04T12:18:21.303Z</time>
      </trkpt>
      <trkpt lat="42.47727" lon="1.45303167">
        <ele>1460.0</ele>
        <time>2019-08-04T12:18:22.326Z</time>
      </trkpt>
      <trkpt lat="42.47735333" lon="1.45299833">
        <ele>1459.0</ele>
        <time>2019-08-04T12:18:23.305Z</time>
      </trkpt>
      <trkpt lat="42.47735333" lon="1.45299833">
        <ele>1459.0</ele>
        <time>2019-08-04T12:18:24.327Z</time>
      </trkpt>
      <trkpt lat="42.47751833" lon="1.452895">
        <ele>1457.0</ele>
        <time>2019-08-04T12:18:25.305Z</time>
      </trkpt>
      <trkpt lat="42.47751833" lon="1.452895">
        <ele>1457.0</ele>
        <time>2019-08-04T12:18:26.299Z</time>
      </trkpt>
      <trkpt lat="42.47767833" lon="1.45276833">
        <ele>1455.0</ele>
        <time>2019-08-04T12:18:27.324Z</time>
      </trkpt>
      <trkpt lat="42.47767833" lon="1.45276833">
        <ele>1455.0</ele>
        <time>2019-08-04T12:18:28.302Z</time>
      </trkpt>
      <trkpt lat="42.477815" lon="1.45263167">
        <ele>1453.0</ele>
        <time>2019-08-04T12:18:29.297Z</time>
      </trkpt>
      <trkpt lat="42.477815" lon="1.45263167">
        <ele>1453.0</ele>
        <time>2019-08-04T12:18:30.297Z</time>
      </trkpt>
      <trkpt lat="42.47792333" lon="1.45251833">
        <ele>1452.0</ele>
        <time>2019-08-04T12:18:31.303Z</time>
      </trkpt>
      <trkpt lat="42.47797167" lon="1.45246667">
        <ele>1451.0</ele>
        <time>2019-08-04T12:18:32.314Z</time>
      </trkpt>
      <trkpt lat="42.47797167" lon="1.45246667">
        <ele>1451.0</ele>
        <time>2019-08-04T12:18:33.300Z</time>
      </trkpt>
      <trkpt lat="42.47809667" lon="1.45238667">
        <ele>1449.0</ele>
        <time>2019-08-04T12:18:34.327Z</time>
      </trkpt>
      <trkpt lat="42.47819167" lon="1.452375">
        <ele>1448.0</ele>
        <time>2019-08-04T12:18:35.305Z</time>
      </trkpt>
      <trkpt lat="42.47828833" lon="1.45236333">
        <ele>1447.0</ele>
        <time>2019-08-04T12:18:36.306Z</time>
      </trkpt>
      <trkpt lat="42.47828833" lon="1.45236333">
        <ele>1447.0</ele>
        <time>2019-08-04T12:18:37.302Z</time>
      </trkpt>
      <trkpt lat="42.47851333" lon="1.45238667">
        <ele>1445.0</ele>
        <time>2019-08-04T12:18:38.305Z</time>
      </trkpt>
      <trkpt lat="42.47863333" lon="1.45241333">
        <ele>1444.0</ele>
        <time>2019-08-04T12:18:39.305Z</time>
      </trkpt>
      <trkpt lat="42.47863333" lon="1.45241333">
        <ele>1444.0</ele>
        <time>2019-08-04T12:18:40.321Z</time>
      </trkpt>
      <trkpt lat="42.47892333" lon="1.45243167">
        <ele>1441.0</ele>
        <time>2019-08-04T12:18:41.305Z</time>
      </trkpt>
      <trkpt lat="42.47908" lon="1.45244167">
        <ele>1440.0</ele>
        <time>2019-08-04T12:18:42.306Z</time>
      </trkpt>
      <trkpt lat="42.47908" lon="1.45244167">
        <ele>1440.0</ele>
        <time>2019-08-04T12:18:43.300Z</time>
      </trkpt>
      <trkpt lat="42.47934833" lon="1.45250833">
        <ele>1437.0</ele>
        <time>2019-08-04T12:18:44.320Z</time>
      </trkpt>
      <trkpt lat="42.479455" lon="1.452525">
        <ele>1436.0</ele>
        <time>2019-08-04T12:18:45.306Z</time>
      </trkpt>
      <trkpt lat="42.479455" lon="1.452525">
        <ele>1436.0</ele>
        <time>2019-08-04T12:18:46.303Z</time>
      </trkpt>
      <trkpt lat="42.47964833" lon="1.45252333">
        <ele>1433.0</ele>
        <time>2019-08-04T12:18:47.323Z</time>
      </trkpt>
      <trkpt lat="42.47964833" lon="1.45252333">
        <ele>1433.0</ele>
        <time>2019-08-04T12:18:48.303Z</time>
      </trkpt>
      <trkpt lat="42.47981" lon="1.4525">
        <ele>1430.0</ele>
        <time>2019-08-04T12:18:49.305Z</time>
      </trkpt>
      <trkpt lat="42.47981" lon="1.4525">
        <ele>1430.0</ele>
        <time>2019-08-04T12:18:50.320Z</time>
      </trkpt>
      <trkpt lat="42.47986667" lon="1.45252333">
        <ele>1428.0</ele>
        <time>2019-08-04T12:18:51.302Z</time>
      </trkpt>
      <trkpt lat="42.47986667" lon="1.45252333">
        <ele>1428.0</ele>
        <time>2019-08-04T12:18:52.319Z</time>
      </trkpt>
      <trkpt lat="42.47985167" lon="1.45263667">
        <ele>1425.0</ele>
        <time>2019-08-04T12:18:53.305Z</time>
      </trkpt>
      <trkpt lat="42.47978" lon="1.45267167">
        <ele>1424.0</ele>
        <time>2019-08-04T12:18:54.321Z</time>
      </trkpt>
      <trkpt lat="42.47978" lon="1.45267167">
        <ele>1424.0</ele>
        <time>2019-08-04T12:18:55.318Z</time>
      </trkpt>
      <trkpt lat="42.47960333" lon="1.452745">
        <ele>1421.0</ele>
        <time>2019-08-04T12:18:56.305Z</time>
      </trkpt>
      <trkpt lat="42.47949833" lon="1.4528">
        <ele>1421.0</ele>
        <time>2019-08-04T12:18:57.318Z</time>
      </trkpt>
      <trkpt lat="42.47949833" lon="1.4528">
        <ele>1421.0</ele>
        <time>2019-08-04T12:18:58.304Z</time>
      </trkpt>
      <trkpt lat="42.479245" lon="1.45288">
        <ele>1418.0</ele>
        <time>2019-08-04T12:18:59.306Z</time>
      </trkpt>
      <trkpt lat="42.47912167" lon="1.45293833">
        <ele>1417.0</ele>
        <time>2019-08-04T12:19:00.306Z</time>
      </trkpt>
      <trkpt lat="42.47912167" lon="1.45293833">
        <ele>1417.0</ele>
        <time>2019-08-04T12:19:01.300Z</time>
      </trkpt>
      <trkpt lat="42.478905" lon="1.45315">
        <ele>1414.0</ele>
        <time>2019-08-04T12:19:02.320Z</time>
      </trkpt>
      <trkpt lat="42.478905" lon="1.45315">
        <ele>1414.0</ele>
        <time>2019-08-04T12:19:03.302Z</time>
      </trkpt>
      <trkpt lat="42.478905" lon="1.45315">
        <ele>1414.0</ele>
        <time>2019-08-04T12:19:04.299Z</time>
      </trkpt>
      <trkpt lat="42.47876667" lon="1.45341333">
        <ele>1411.0</ele>
        <time>2019-08-04T12:19:05.299Z</time>
      </trkpt>
      <trkpt lat="42.47876667" lon="1.45341333">
        <ele>1411.0</ele>
        <time>2019-08-04T12:19:06.449Z</time>
      </trkpt>
      <trkpt lat="42.478715" lon="1.45364">
        <ele>1408.0</ele>
        <time>2019-08-04T12:19:07.318Z</time>
      </trkpt>
      <trkpt lat="42.47874333" lon="1.45381167">
        <ele>1405.0</ele>
        <time>2019-08-04T12:19:08.306Z</time>
      </trkpt>
      <trkpt lat="42.47874333" lon="1.45381167">
        <ele>1405.0</ele>
        <time>2019-08-04T12:19:09.303Z</time>
      </trkpt>
      <trkpt lat="42.47883167" lon="1.45385167">
        <ele>1404.0</ele>
        <time>2019-08-04T12:19:10.309Z</time>
      </trkpt>
      <trkpt lat="42.47883167" lon="1.45385167">
        <ele>1404.0</ele>
        <time>2019-08-04T12:19:11.303Z</time>
      </trkpt>
      <trkpt lat="42.47889833" lon="1.45369">
        <ele>1402.0</ele>
        <time>2019-08-04T12:19:12.325Z</time>
      </trkpt>
      <trkpt lat="42.47889833" lon="1.45369">
        <ele>1402.0</ele>
        <time>2019-08-04T12:19:13.303Z</time>
      </trkpt>
      <trkpt lat="42.47901" lon="1.453485">
        <ele>1400.0</ele>
        <time>2019-08-04T12:19:14.318Z</time>
      </trkpt>
      <trkpt lat="42.47901" lon="1.453485">
        <ele>1400.0</ele>
        <time>2019-08-04T12:19:15.301Z</time>
      </trkpt>
      <trkpt lat="42.47918833" lon="1.45334333">
        <ele>1398.0</ele>
        <time>2019-08-04T12:19:16.320Z</time>
      </trkpt>
      <trkpt lat="42.47928667" lon="1.45329333">
        <ele>1397.0</ele>
        <time>2019-08-04T12:19:17.306Z</time>
      </trkpt>
      <trkpt lat="42.47928667" lon="1.45329333">
        <ele>1397.0</ele>
        <time>2019-08-04T12:19:18.304Z</time>
      </trkpt>
      <trkpt lat="42.479515" lon="1.45326833">
        <ele>1395.0</ele>
        <time>2019-08-04T12:19:19.306Z</time>
      </trkpt>
      <trkpt lat="42.479515" lon="1.45326833">
        <ele>1395.0</ele>
        <time>2019-08-04T12:19:20.303Z</time>
      </trkpt>
      <trkpt lat="42.47975333" lon="1.45321833">
        <ele>1393.0</ele>
        <time>2019-08-04T12:19:21.306Z</time>
      </trkpt>
      <trkpt lat="42.47975333" lon="1.45321833">
        <ele>1393.0</ele>
        <time>2019-08-04T12:19:22.322Z</time>
      </trkpt>
      <trkpt lat="42.479985" lon="1.45315">
        <ele>1390.0</ele>
        <time>2019-08-04T12:19:23.308Z</time>
      </trkpt>
      <trkpt lat="42.48008667" lon="1.45311333">
        <ele>1389.0</ele>
        <time>2019-08-04T12:19:24.310Z</time>
      </trkpt>
      <trkpt lat="42.48008667" lon="1.45311333">
        <ele>1389.0</ele>
        <time>2019-08-04T12:19:25.302Z</time>
      </trkpt>
      <trkpt lat="42.48023" lon="1.45304">
        <ele>1388.0</ele>
        <time>2019-08-04T12:19:26.305Z</time>
      </trkpt>
      <trkpt lat="42.48023" lon="1.45304">
        <ele>1388.0</ele>
        <time>2019-08-04T12:19:27.303Z</time>
      </trkpt>
      <trkpt lat="42.48029667" lon="1.45310333">
        <ele>1386.0</ele>
        <time>2019-08-04T12:19:28.306Z</time>
      </trkpt>
      <trkpt lat="42.48029667" lon="1.45310333">
        <ele>1386.0</ele>
        <time>2019-08-04T12:19:29.297Z</time>
      </trkpt>
      <trkpt lat="42.48022333" lon="1.45325333">
        <ele>1383.0</ele>
        <time>2019-08-04T12:19:30.312Z</time>
      </trkpt>
      <trkpt lat="42.48015667" lon="1.45332833">
        <ele>1382.0</ele>
        <time>2019-08-04T12:19:31.318Z</time>
      </trkpt>
      <trkpt lat="42.48015667" lon="1.45332833">
        <ele>1382.0</ele>
        <time>2019-08-04T12:19:32.324Z</time>
      </trkpt>
      <trkpt lat="42.47998333" lon="1.453495">
        <ele>1380.0</ele>
        <time>2019-08-04T12:19:33.306Z</time>
      </trkpt>
      <trkpt lat="42.47989833" lon="1.45359333">
        <ele>1379.0</ele>
        <time>2019-08-04T12:19:34.321Z</time>
      </trkpt>
      <trkpt lat="42.47989833" lon="1.45359333">
        <ele>1379.0</ele>
        <time>2019-08-04T12:19:35.300Z</time>
      </trkpt>
      <trkpt lat="42.47973667" lon="1.45380333">
        <ele>1376.0</ele>
        <time>2019-08-04T12:19:36.304Z</time>
      </trkpt>
      <trkpt lat="42.47973667" lon="1.45380333">
        <ele>1376.0</ele>
        <time>2019-08-04T12:19:37.303Z</time>
      </trkpt>
      <trkpt lat="42.47962667" lon="1.45396">
        <ele>1374.0</ele>
        <time>2019-08-04T12:19:38.326Z</time>
      </trkpt>
      <trkpt lat="42.47962667" lon="1.45396">
        <ele>1374.0</ele>
        <time>2019-08-04T12:19:39.303Z</time>
      </trkpt>
      <trkpt lat="42.47962333" lon="1.45411333">
        <ele>1372.0</ele>
        <time>2019-08-04T12:19:40.308Z</time>
      </trkpt>
      <trkpt lat="42.47962333" lon="1.45411333">
        <ele>1372.0</ele>
        <time>2019-08-04T12:19:41.304Z</time>
      </trkpt>
      <trkpt lat="42.47975" lon="1.45416167">
        <ele>1370.0</ele>
        <time>2019-08-04T12:19:42.324Z</time>
      </trkpt>
      <trkpt lat="42.479835" lon="1.454125">
        <ele>1368.0</ele>
        <time>2019-08-04T12:19:43.306Z</time>
      </trkpt>
      <trkpt lat="42.479835" lon="1.454125">
        <ele>1368.0</ele>
        <time>2019-08-04T12:19:44.301Z</time>
      </trkpt>
      <trkpt lat="42.479995" lon="1.45397167">
        <ele>1366.0</ele>
        <time>2019-08-04T12:19:45.318Z</time>
      </trkpt>
      <trkpt lat="42.479995" lon="1.45397167">
        <ele>1366.0</ele>
        <time>2019-08-04T12:19:46.304Z</time>
      </trkpt>
      <trkpt lat="42.48015667" lon="1.453775">
        <ele>1364.0</ele>
        <time>2019-08-04T12:19:47.325Z</time>
      </trkpt>
      <trkpt lat="42.48024667" lon="1.45367333">
        <ele>1363.0</ele>
        <time>2019-08-04T12:19:48.306Z</time>
      </trkpt>
      <trkpt lat="42.48024667" lon="1.45367333">
        <ele>1363.0</ele>
        <time>2019-08-04T12:19:49.300Z</time>
      </trkpt>
      <trkpt lat="42.48045333" lon="1.45348833">
        <ele>1361.0</ele>
        <time>2019-08-04T12:19:50.305Z</time>
      </trkpt>
      <trkpt lat="42.48045333" lon="1.45348833">
        <ele>1361.0</ele>
        <time>2019-08-04T12:19:51.303Z</time>
      </trkpt>
      <trkpt lat="42.480685" lon="1.45334167">
        <ele>1359.0</ele>
        <time>2019-08-04T12:19:52.308Z</time>
      </trkpt>
      <trkpt lat="42.480685" lon="1.45334167">
        <ele>1359.0</ele>
        <time>2019-08-04T12:19:53.303Z</time>
      </trkpt>
      <trkpt lat="42.48088333" lon="1.45322">
        <ele>1357.0</ele>
        <time>2019-08-04T12:19:54.319Z</time>
      </trkpt>
      <trkpt lat="42.48088333" lon="1.45322">
        <ele>1357.0</ele>
        <time>2019-08-04T12:19:55.303Z</time>
      </trkpt>
      <trkpt lat="42.48103667" lon="1.45310833">
        <ele>1354.0</ele>
        <time>2019-08-04T12:19:56.306Z</time>
      </trkpt>
      <trkpt lat="42.48103667" lon="1.45310833">
        <ele>1354.0</ele>
        <time>2019-08-04T12:19:57.300Z</time>
      </trkpt>
      <trkpt lat="42.48114333" lon="1.45308">
        <ele>1352.0</ele>
        <time>2019-08-04T12:19:58.321Z</time>
      </trkpt>
      <trkpt lat="42.48114333" lon="1.45308">
        <ele>1352.0</ele>
        <time>2019-08-04T12:19:59.304Z</time>
      </trkpt>
      <trkpt lat="42.48113333" lon="1.453195">
        <ele>1350.0</ele>
        <time>2019-08-04T12:20:00.304Z</time>
      </trkpt>
      <trkpt lat="42.48113333" lon="1.453195">
        <ele>1350.0</ele>
        <time>2019-08-04T12:20:01.324Z</time>
      </trkpt>
      <trkpt lat="42.48101667" lon="1.45331667">
        <ele>1348.0</ele>
        <time>2019-08-04T12:20:02.306Z</time>
      </trkpt>
      <trkpt lat="42.48101667" lon="1.45331667">
        <ele>1348.0</ele>
        <time>2019-08-04T12:20:03.303Z</time>
      </trkpt>
      <trkpt lat="42.48087833" lon="1.45350167">
        <ele>1346.0</ele>
        <time>2019-08-04T12:20:04.327Z</time>
      </trkpt>
      <trkpt lat="42.48087833" lon="1.45350167">
        <ele>1346.0</ele>
        <time>2019-08-04T12:20:05.302Z</time>
      </trkpt>
      <trkpt lat="42.48074667" lon="1.45375833">
        <ele>1344.0</ele>
        <time>2019-08-04T12:20:06.305Z</time>
      </trkpt>
      <trkpt lat="42.48074667" lon="1.45375833">
        <ele>1344.0</ele>
        <time>2019-08-04T12:20:07.460Z</time>
      </trkpt>
      <trkpt lat="42.48069833" lon="1.45391167">
        <ele>1343.0</ele>
        <time>2019-08-04T12:20:08.311Z</time>
      </trkpt>
      <trkpt lat="42.48069167" lon="1.45424667">
        <ele>1341.0</ele>
        <time>2019-08-04T12:20:09.306Z</time>
      </trkpt>
      <trkpt lat="42.48071667" lon="1.45441167">
        <ele>1341.0</ele>
        <time>2019-08-04T12:20:10.309Z</time>
      </trkpt>
      <trkpt lat="42.48071667" lon="1.45441167">
        <ele>1341.0</ele>
        <time>2019-08-04T12:20:11.301Z</time>
      </trkpt>
      <trkpt lat="42.48072667" lon="1.45472">
        <ele>1340.0</ele>
        <time>2019-08-04T12:20:12.329Z</time>
      </trkpt>
      <trkpt lat="42.48072667" lon="1.45472">
        <ele>1340.0</ele>
        <time>2019-08-04T12:20:13.316Z</time>
      </trkpt>
      <trkpt lat="42.48060667" lon="1.45491667">
        <ele>1339.0</ele>
        <time>2019-08-04T12:20:14.317Z</time>
      </trkpt>
      <trkpt lat="42.48060667" lon="1.45491667">
        <ele>1339.0</ele>
        <time>2019-08-04T12:20:15.301Z</time>
      </trkpt>
      <trkpt lat="42.48043833" lon="1.45496667">
        <ele>1337.0</ele>
        <time>2019-08-04T12:20:16.305Z</time>
      </trkpt>
      <trkpt lat="42.48043833" lon="1.45496667">
        <ele>1337.0</ele>
        <time>2019-08-04T12:20:17.325Z</time>
      </trkpt>
      <trkpt lat="42.48027333" lon="1.45496">
        <ele>1335.0</ele>
        <time>2019-08-04T12:20:18.308Z</time>
      </trkpt>
      <trkpt lat="42.48027333" lon="1.45496">
        <ele>1335.0</ele>
        <time>2019-08-04T12:20:19.303Z</time>
      </trkpt>
      <trkpt lat="42.48018667" lon="1.45504333">
        <ele>1333.0</ele>
        <time>2019-08-04T12:20:20.302Z</time>
      </trkpt>
      <trkpt lat="42.48020667" lon="1.45509333">
        <ele>1332.0</ele>
        <time>2019-08-04T12:20:21.319Z</time>
      </trkpt>
      <trkpt lat="42.48028833" lon="1.45513833">
        <ele>1331.0</ele>
        <time>2019-08-04T12:20:22.308Z</time>
      </trkpt>
      <trkpt lat="42.48028833" lon="1.45513833">
        <ele>1331.0</ele>
        <time>2019-08-04T12:20:23.304Z</time>
      </trkpt>
      <trkpt lat="42.48046667" lon="1.45514833">
        <ele>1328.0</ele>
        <time>2019-08-04T12:20:24.320Z</time>
      </trkpt>
      <trkpt lat="42.48046667" lon="1.45514833">
        <ele>1328.0</ele>
        <time>2019-08-04T12:20:25.298Z</time>
      </trkpt>
      <trkpt lat="42.48068" lon="1.45514833">
        <ele>1325.0</ele>
        <time>2019-08-04T12:20:26.315Z</time>
      </trkpt>
      <trkpt lat="42.48068" lon="1.45514833">
        <ele>1325.0</ele>
        <time>2019-08-04T12:20:27.304Z</time>
      </trkpt>
      <trkpt lat="42.48091833" lon="1.45510833">
        <ele>1322.0</ele>
        <time>2019-08-04T12:20:28.328Z</time>
      </trkpt>
      <trkpt lat="42.48091833" lon="1.45510833">
        <ele>1322.0</ele>
        <time>2019-08-04T12:20:29.331Z</time>
      </trkpt>
      <trkpt lat="42.48108833" lon="1.45493333">
        <ele>1320.0</ele>
        <time>2019-08-04T12:20:30.308Z</time>
      </trkpt>
      <trkpt lat="42.48108833" lon="1.45493333">
        <ele>1320.0</ele>
        <time>2019-08-04T12:20:31.314Z</time>
      </trkpt>
      <trkpt lat="42.48120667" lon="1.45466333">
        <ele>1317.0</ele>
        <time>2019-08-04T12:20:32.321Z</time>
      </trkpt>
      <trkpt lat="42.48122167" lon="1.45451333">
        <ele>1315.0</ele>
        <time>2019-08-04T12:20:33.305Z</time>
      </trkpt>
      <trkpt lat="42.48126333" lon="1.45438667">
        <ele>1314.0</ele>
        <time>2019-08-04T12:20:34.327Z</time>
      </trkpt>
      <trkpt lat="42.48126333" lon="1.45438667">
        <ele>1314.0</ele>
        <time>2019-08-04T12:20:35.315Z</time>
      </trkpt>
      <trkpt lat="42.48139833" lon="1.45419">
        <ele>1312.0</ele>
        <time>2019-08-04T12:20:36.307Z</time>
      </trkpt>
      <trkpt lat="42.48139833" lon="1.45419">
        <ele>1312.0</ele>
        <time>2019-08-04T12:20:37.324Z</time>
      </trkpt>
      <trkpt lat="42.48157667" lon="1.45407833">
        <ele>1310.0</ele>
        <time>2019-08-04T12:20:38.306Z</time>
      </trkpt>
      <trkpt lat="42.48157667" lon="1.45407833">
        <ele>1310.0</ele>
        <time>2019-08-04T12:20:39.301Z</time>
      </trkpt>
      <trkpt lat="42.48171667" lon="1.45396833">
        <ele>1308.0</ele>
        <time>2019-08-04T12:20:40.321Z</time>
      </trkpt>
      <trkpt lat="42.48171667" lon="1.45396833">
        <ele>1308.0</ele>
        <time>2019-08-04T12:20:41.304Z</time>
      </trkpt>
      <trkpt lat="42.48182" lon="1.453975">
        <ele>1306.0</ele>
        <time>2019-08-04T12:20:42.324Z</time>
      </trkpt>
      <trkpt lat="42.481835" lon="1.45404167">
        <ele>1304.0</ele>
        <time>2019-08-04T12:20:43.309Z</time>
      </trkpt>
      <trkpt lat="42.481835" lon="1.45404167">
        <ele>1304.0</ele>
        <time>2019-08-04T12:20:44.314Z</time>
      </trkpt>
      <trkpt lat="42.48176333" lon="1.4542">
        <ele>1302.0</ele>
        <time>2019-08-04T12:20:45.306Z</time>
      </trkpt>
      <trkpt lat="42.48170333" lon="1.45429167">
        <ele>1301.0</ele>
        <time>2019-08-04T12:20:46.309Z</time>
      </trkpt>
      <trkpt lat="42.48164333" lon="1.45440167">
        <ele>1301.0</ele>
        <time>2019-08-04T12:20:47.308Z</time>
      </trkpt>
      <trkpt lat="42.48164333" lon="1.45440167">
        <ele>1301.0</ele>
        <time>2019-08-04T12:20:48.306Z</time>
      </trkpt>
      <trkpt lat="42.481565" lon="1.454675">
        <ele>1298.0</ele>
        <time>2019-08-04T12:20:49.305Z</time>
      </trkpt>
      <trkpt lat="42.481575" lon="1.45483167">
        <ele>1297.0</ele>
        <time>2019-08-04T12:20:50.306Z</time>
      </trkpt>
      <trkpt lat="42.481575" lon="1.45483167">
        <ele>1297.0</ele>
        <time>2019-08-04T12:20:51.301Z</time>
      </trkpt>
      <trkpt lat="42.48160667" lon="1.45513333">
        <ele>1295.0</ele>
        <time>2019-08-04T12:20:52.321Z</time>
      </trkpt>
      <trkpt lat="42.48160667" lon="1.45513333">
        <ele>1295.0</ele>
        <time>2019-08-04T12:20:53.304Z</time>
      </trkpt>
      <trkpt lat="42.48160667" lon="1.45513333">
        <ele>1295.0</ele>
        <time>2019-08-04T12:20:54.305Z</time>
      </trkpt>
      <trkpt lat="42.48151833" lon="1.45537667">
        <ele>1292.0</ele>
        <time>2019-08-04T12:20:55.303Z</time>
      </trkpt>
      <trkpt lat="42.48136167" lon="1.45557667">
        <ele>1290.0</ele>
        <time>2019-08-04T12:20:56.306Z</time>
      </trkpt>
      <trkpt lat="42.48125333" lon="1.45565">
        <ele>1289.0</ele>
        <time>2019-08-04T12:20:57.325Z</time>
      </trkpt>
      <trkpt lat="42.48125333" lon="1.45565">
        <ele>1289.0</ele>
        <time>2019-08-04T12:20:58.305Z</time>
      </trkpt>
      <trkpt lat="42.48125333" lon="1.45565">
        <ele>1289.0</ele>
        <time>2019-08-04T12:20:59.455Z</time>
      </trkpt>
      <trkpt lat="42.48098333" lon="1.45594667">
        <ele>1286.0</ele>
        <time>2019-08-04T12:21:00.320Z</time>
      </trkpt>
      <trkpt lat="42.48098333" lon="1.45594667">
        <ele>1286.0</ele>
        <time>2019-08-04T12:21:01.303Z</time>
      </trkpt>
      <trkpt lat="42.48086333" lon="1.45610167">
        <ele>1284.0</ele>
        <time>2019-08-04T12:21:02.325Z</time>
      </trkpt>
      <trkpt lat="42.48086333" lon="1.45610167">
        <ele>1284.0</ele>
        <time>2019-08-04T12:21:03.303Z</time>
      </trkpt>
      <trkpt lat="42.48084333" lon="1.45623833">
        <ele>1282.0</ele>
        <time>2019-08-04T12:21:04.320Z</time>
      </trkpt>
      <trkpt lat="42.48084333" lon="1.45623833">
        <ele>1282.0</ele>
        <time>2019-08-04T12:21:05.301Z</time>
      </trkpt>
      <trkpt lat="42.480935" lon="1.45625833">
        <ele>1280.0</ele>
        <time>2019-08-04T12:21:06.326Z</time>
      </trkpt>
      <trkpt lat="42.480935" lon="1.45625833">
        <ele>1280.0</ele>
        <time>2019-08-04T12:21:07.304Z</time>
      </trkpt>
      <trkpt lat="42.48104833" lon="1.45612167">
        <ele>1277.0</ele>
        <time>2019-08-04T12:21:08.306Z</time>
      </trkpt>
      <trkpt lat="42.48104833" lon="1.45612167">
        <ele>1277.0</ele>
        <time>2019-08-04T12:21:09.303Z</time>
      </trkpt>
      <trkpt lat="42.48119833" lon="1.45597167">
        <ele>1275.0</ele>
        <time>2019-08-04T12:21:10.308Z</time>
      </trkpt>
      <trkpt lat="42.48119833" lon="1.45597167">
        <ele>1275.0</ele>
        <time>2019-08-04T12:21:11.302Z</time>
      </trkpt>
      <trkpt lat="42.48138833" lon="1.45584333">
        <ele>1273.0</ele>
        <time>2019-08-04T12:21:12.308Z</time>
      </trkpt>
      <trkpt lat="42.48138833" lon="1.45584333">
        <ele>1273.0</ele>
        <time>2019-08-04T12:21:13.303Z</time>
      </trkpt>
      <trkpt lat="42.481595" lon="1.45575833">
        <ele>1271.0</ele>
        <time>2019-08-04T12:21:14.309Z</time>
      </trkpt>
      <trkpt lat="42.481595" lon="1.45575833">
        <ele>1271.0</ele>
        <time>2019-08-04T12:21:15.301Z</time>
      </trkpt>
      <trkpt lat="42.48179167" lon="1.45569">
        <ele>1269.0</ele>
        <time>2019-08-04T12:21:16.320Z</time>
      </trkpt>
      <trkpt lat="42.48179167" lon="1.45569">
        <ele>1269.0</ele>
        <time>2019-08-04T12:21:17.302Z</time>
      </trkpt>
      <trkpt lat="42.48201" lon="1.45563167">
        <ele>1267.0</ele>
        <time>2019-08-04T12:21:18.307Z</time>
      </trkpt>
      <trkpt lat="42.48201" lon="1.45563167">
        <ele>1267.0</ele>
        <time>2019-08-04T12:21:19.301Z</time>
      </trkpt>
      <trkpt lat="42.48219167" lon="1.45550333">
        <ele>1266.0</ele>
        <time>2019-08-04T12:21:20.321Z</time>
      </trkpt>
      <trkpt lat="42.48224667" lon="1.45542">
        <ele>1265.0</ele>
        <time>2019-08-04T12:21:21.306Z</time>
      </trkpt>
      <trkpt lat="42.4823" lon="1.455365">
        <ele>1264.0</ele>
        <time>2019-08-04T12:21:22.322Z</time>
      </trkpt>
      <trkpt lat="42.4823" lon="1.455365">
        <ele>1264.0</ele>
        <time>2019-08-04T12:21:23.301Z</time>
      </trkpt>
      <trkpt lat="42.48240167" lon="1.45539167">
        <ele>1262.0</ele>
        <time>2019-08-04T12:21:24.321Z</time>
      </trkpt>
      <trkpt lat="42.48240167" lon="1.45539167">
        <ele>1262.0</ele>
        <time>2019-08-04T12:21:25.301Z</time>
      </trkpt>
      <trkpt lat="42.48241" lon="1.45558167">
        <ele>1260.0</ele>
        <time>2019-08-04T12:21:26.323Z</time>
      </trkpt>
      <trkpt lat="42.48241" lon="1.45558167">
        <ele>1260.0</ele>
        <time>2019-08-04T12:21:27.303Z</time>
      </trkpt>
      <trkpt lat="42.48232333" lon="1.45577">
        <ele>1258.0</ele>
        <time>2019-08-04T12:21:28.308Z</time>
      </trkpt>
      <trkpt lat="42.48232333" lon="1.45577">
        <ele>1258.0</ele>
        <time>2019-08-04T12:21:29.308Z</time>
      </trkpt>
      <trkpt lat="42.482175" lon="1.45593667">
        <ele>1255.0</ele>
        <time>2019-08-04T12:21:30.331Z</time>
      </trkpt>
      <trkpt lat="42.482175" lon="1.45593667">
        <ele>1255.0</ele>
        <time>2019-08-04T12:21:31.297Z</time>
      </trkpt>
      <trkpt lat="42.48198667" lon="1.45611833">
        <ele>1253.0</ele>
        <time>2019-08-04T12:21:32.306Z</time>
      </trkpt>
      <trkpt lat="42.48198667" lon="1.45611833">
        <ele>1253.0</ele>
        <time>2019-08-04T12:21:33.304Z</time>
      </trkpt>
      <trkpt lat="42.48181667" lon="1.45632833">
        <ele>1251.0</ele>
        <time>2019-08-04T12:21:34.326Z</time>
      </trkpt>
      <trkpt lat="42.48175333" lon="1.456435">
        <ele>1250.0</ele>
        <time>2019-08-04T12:21:35.319Z</time>
      </trkpt>
      <trkpt lat="42.48175333" lon="1.456435">
        <ele>1250.0</ele>
        <time>2019-08-04T12:21:36.300Z</time>
      </trkpt>
      <trkpt lat="42.48167" lon="1.45661667">
        <ele>1248.0</ele>
        <time>2019-08-04T12:21:37.320Z</time>
      </trkpt>
      <trkpt lat="42.48166833" lon="1.45667833">
        <ele>1247.0</ele>
        <time>2019-08-04T12:21:38.304Z</time>
      </trkpt>
      <trkpt lat="42.48166833" lon="1.45667833">
        <ele>1247.0</ele>
        <time>2019-08-04T12:21:39.320Z</time>
      </trkpt>
      <trkpt lat="42.48178167" lon="1.45674667">
        <ele>1245.0</ele>
        <time>2019-08-04T12:21:40.308Z</time>
      </trkpt>
      <trkpt lat="42.48178167" lon="1.45674667">
        <ele>1245.0</ele>
        <time>2019-08-04T12:21:41.304Z</time>
      </trkpt>
      <trkpt lat="42.48195333" lon="1.45665">
        <ele>1242.0</ele>
        <time>2019-08-04T12:21:42.306Z</time>
      </trkpt>
      <trkpt lat="42.48195333" lon="1.45665">
        <ele>1242.0</ele>
        <time>2019-08-04T12:21:43.300Z</time>
      </trkpt>
      <trkpt lat="42.48213333" lon="1.456495">
        <ele>1241.0</ele>
        <time>2019-08-04T12:21:44.322Z</time>
      </trkpt>
      <trkpt lat="42.48213333" lon="1.456495">
        <ele>1241.0</ele>
        <time>2019-08-04T12:21:45.301Z</time>
      </trkpt>
      <trkpt lat="42.48233667" lon="1.456365">
        <ele>1238.0</ele>
        <time>2019-08-04T12:21:46.321Z</time>
      </trkpt>
      <trkpt lat="42.48233667" lon="1.456365">
        <ele>1238.0</ele>
        <time>2019-08-04T12:21:47.303Z</time>
      </trkpt>
      <trkpt lat="42.48256667" lon="1.45627">
        <ele>1236.0</ele>
        <time>2019-08-04T12:21:48.326Z</time>
      </trkpt>
      <trkpt lat="42.48268833" lon="1.45620667">
        <ele>1235.0</ele>
        <time>2019-08-04T12:21:49.306Z</time>
      </trkpt>
      <trkpt lat="42.48268833" lon="1.45620667">
        <ele>1235.0</ele>
        <time>2019-08-04T12:21:50.304Z</time>
      </trkpt>
      <trkpt lat="42.48291167" lon="1.45611">
        <ele>1233.0</ele>
        <time>2019-08-04T12:21:51.306Z</time>
      </trkpt>
      <trkpt lat="42.48291167" lon="1.45611">
        <ele>1233.0</ele>
        <time>2019-08-04T12:21:52.322Z</time>
      </trkpt>
      <trkpt lat="42.48305333" lon="1.455915">
        <ele>1231.0</ele>
        <time>2019-08-04T12:21:53.306Z</time>
      </trkpt>
      <trkpt lat="42.48308167" lon="1.45577667">
        <ele>1230.0</ele>
        <time>2019-08-04T12:21:54.322Z</time>
      </trkpt>
      <trkpt lat="42.48308167" lon="1.45577667">
        <ele>1230.0</ele>
        <time>2019-08-04T12:21:55.304Z</time>
      </trkpt>
      <trkpt lat="42.483035" lon="1.45551">
        <ele>1228.0</ele>
        <time>2019-08-04T12:21:56.325Z</time>
      </trkpt>
      <trkpt lat="42.483035" lon="1.45551">
        <ele>1228.0</ele>
        <time>2019-08-04T12:21:57.302Z</time>
      </trkpt>
      <trkpt lat="42.48294667" lon="1.45533833">
        <ele>1226.0</ele>
        <time>2019-08-04T12:21:58.322Z</time>
      </trkpt>
      <trkpt lat="42.48294667" lon="1.45533833">
        <ele>1226.0</ele>
        <time>2019-08-04T12:21:59.302Z</time>
      </trkpt>
      <trkpt lat="42.48291333" lon="1.45520833">
        <ele>1224.0</ele>
        <time>2019-08-04T12:22:00.306Z</time>
      </trkpt>
      <trkpt lat="42.482935" lon="1.45517333">
        <ele>1223.0</ele>
        <time>2019-08-04T12:22:01.321Z</time>
      </trkpt>
      <trkpt lat="42.482935" lon="1.45517333">
        <ele>1223.0</ele>
        <time>2019-08-04T12:22:02.300Z</time>
      </trkpt>
      <trkpt lat="42.48302167" lon="1.45526833">
        <ele>1221.0</ele>
        <time>2019-08-04T12:22:03.320Z</time>
      </trkpt>
      <trkpt lat="42.483085" lon="1.45537667">
        <ele>1220.0</ele>
        <time>2019-08-04T12:22:04.328Z</time>
      </trkpt>
      <trkpt lat="42.483085" lon="1.45537667">
        <ele>1220.0</ele>
        <time>2019-08-04T12:22:05.301Z</time>
      </trkpt>
      <trkpt lat="42.483085" lon="1.45537667">
        <ele>1220.0</ele>
        <time>2019-08-04T12:22:06.449Z</time>
      </trkpt>
      <trkpt lat="42.48322167" lon="1.45564167">
        <ele>1218.0</ele>
        <time>2019-08-04T12:22:07.304Z</time>
      </trkpt>
      <trkpt lat="42.48328667" lon="1.455935">
        <ele>1216.0</ele>
        <time>2019-08-04T12:22:08.306Z</time>
      </trkpt>
      <trkpt lat="42.48328667" lon="1.455935">
        <ele>1216.0</ele>
        <time>2019-08-04T12:22:09.300Z</time>
      </trkpt>
      <trkpt lat="42.48330667" lon="1.45622333">
        <ele>1214.0</ele>
        <time>2019-08-04T12:22:10.322Z</time>
      </trkpt>
      <trkpt lat="42.48330667" lon="1.45622333">
        <ele>1214.0</ele>
        <time>2019-08-04T12:22:11.303Z</time>
      </trkpt>
      <trkpt lat="42.48324833" lon="1.45649333">
        <ele>1212.0</ele>
        <time>2019-08-04T12:22:12.304Z</time>
      </trkpt>
      <trkpt lat="42.48324833" lon="1.45649333">
        <ele>1212.0</ele>
        <time>2019-08-04T12:22:13.320Z</time>
      </trkpt>
      <trkpt lat="42.48310667" lon="1.45675167">
        <ele>1210.0</ele>
        <time>2019-08-04T12:22:14.319Z</time>
      </trkpt>
      <trkpt lat="42.48305" lon="1.45686833">
        <ele>1209.0</ele>
        <time>2019-08-04T12:22:15.307Z</time>
      </trkpt>
      <trkpt lat="42.48305" lon="1.45686833">
        <ele>1209.0</ele>
        <time>2019-08-04T12:22:16.325Z</time>
      </trkpt>
      <trkpt lat="42.48301" lon="1.45705167">
        <ele>1207.0</ele>
        <time>2019-08-04T12:22:17.309Z</time>
      </trkpt>
      <trkpt lat="42.48304667" lon="1.45712">
        <ele>1206.0</ele>
        <time>2019-08-04T12:22:18.326Z</time>
      </trkpt>
      <trkpt lat="42.48304667" lon="1.45712">
        <ele>1206.0</ele>
        <time>2019-08-04T12:22:19.305Z</time>
      </trkpt>
      <trkpt lat="42.48318167" lon="1.45718333">
        <ele>1205.0</ele>
        <time>2019-08-04T12:22:20.308Z</time>
      </trkpt>
      <trkpt lat="42.48318167" lon="1.45718333">
        <ele>1205.0</ele>
        <time>2019-08-04T12:22:21.304Z</time>
      </trkpt>
      <trkpt lat="42.48335167" lon="1.45709833">
        <ele>1202.0</ele>
        <time>2019-08-04T12:22:22.328Z</time>
      </trkpt>
      <trkpt lat="42.48343833" lon="1.45702833">
        <ele>1201.0</ele>
        <time>2019-08-04T12:22:23.306Z</time>
      </trkpt>
      <trkpt lat="42.48351667" lon="1.45695">
        <ele>1199.0</ele>
        <time>2019-08-04T12:22:24.323Z</time>
      </trkpt>
      <trkpt lat="42.48351667" lon="1.45695">
        <ele>1199.0</ele>
        <time>2019-08-04T12:22:25.304Z</time>
      </trkpt>
      <trkpt lat="42.48364667" lon="1.45675">
        <ele>1198.0</ele>
        <time>2019-08-04T12:22:26.329Z</time>
      </trkpt>
      <trkpt lat="42.48368167" lon="1.45663">
        <ele>1197.0</ele>
        <time>2019-08-04T12:22:27.306Z</time>
      </trkpt>
      <trkpt lat="42.48368167" lon="1.456485">
        <ele>1196.0</ele>
        <time>2019-08-04T12:22:28.305Z</time>
      </trkpt>
      <trkpt lat="42.48368167" lon="1.456485">
        <ele>1196.0</ele>
        <time>2019-08-04T12:22:29.331Z</time>
      </trkpt>
      <trkpt lat="42.48369333" lon="1.45619667">
        <ele>1195.0</ele>
        <time>2019-08-04T12:22:30.305Z</time>
      </trkpt>
      <trkpt lat="42.48369333" lon="1.45619667">
        <ele>1195.0</ele>
        <time>2019-08-04T12:22:31.312Z</time>
      </trkpt>
      <trkpt lat="42.48374333" lon="1.455895">
        <ele>1193.0</ele>
        <time>2019-08-04T12:22:32.308Z</time>
      </trkpt>
      <trkpt lat="42.48374333" lon="1.455895">
        <ele>1193.0</ele>
        <time>2019-08-04T12:22:33.304Z</time>
      </trkpt>
      <trkpt lat="42.48366833" lon="1.45556167">
        <ele>1191.0</ele>
        <time>2019-08-04T12:22:34.319Z</time>
      </trkpt>
      <trkpt lat="42.48366833" lon="1.45556167">
        <ele>1191.0</ele>
        <time>2019-08-04T12:22:35.304Z</time>
      </trkpt>
      <trkpt lat="42.48358" lon="1.45534667">
        <ele>1190.0</ele>
        <time>2019-08-04T12:22:36.304Z</time>
      </trkpt>
      <trkpt lat="42.48358" lon="1.45534667">
        <ele>1190.0</ele>
        <time>2019-08-04T12:22:37.304Z</time>
      </trkpt>
      <trkpt lat="42.48357667" lon="1.45522333">
        <ele>1189.0</ele>
        <time>2019-08-04T12:22:38.304Z</time>
      </trkpt>
      <trkpt lat="42.48357667" lon="1.45522333">
        <ele>1189.0</ele>
        <time>2019-08-04T12:22:39.320Z</time>
      </trkpt>
      <trkpt lat="42.48364667" lon="1.45524333">
        <ele>1187.0</ele>
        <time>2019-08-04T12:22:40.308Z</time>
      </trkpt>
      <trkpt lat="42.48364667" lon="1.45524333">
        <ele>1187.0</ele>
        <time>2019-08-04T12:22:41.304Z</time>
      </trkpt>
      <trkpt lat="42.48370333" lon="1.45541167">
        <ele>1185.0</ele>
        <time>2019-08-04T12:22:42.308Z</time>
      </trkpt>
      <trkpt lat="42.48370333" lon="1.45541167">
        <ele>1185.0</ele>
        <time>2019-08-04T12:22:43.300Z</time>
      </trkpt>
      <trkpt lat="42.48375333" lon="1.45563">
        <ele>1183.0</ele>
        <time>2019-08-04T12:22:44.323Z</time>
      </trkpt>
      <trkpt lat="42.48375333" lon="1.45563">
        <ele>1183.0</ele>
        <time>2019-08-04T12:22:45.304Z</time>
      </trkpt>
      <trkpt lat="42.48379833" lon="1.45585333">
        <ele>1182.0</ele>
        <time>2019-08-04T12:22:46.308Z</time>
      </trkpt>
      <trkpt lat="42.48379833" lon="1.45585333">
        <ele>1182.0</ele>
        <time>2019-08-04T12:22:47.325Z</time>
      </trkpt>
      <trkpt lat="42.48385833" lon="1.45608833">
        <ele>1180.0</ele>
        <time>2019-08-04T12:22:48.309Z</time>
      </trkpt>
      <trkpt lat="42.48385833" lon="1.45608833">
        <ele>1180.0</ele>
        <time>2019-08-04T12:22:49.303Z</time>
      </trkpt>
      <trkpt lat="42.48391" lon="1.45634667">
        <ele>1178.0</ele>
        <time>2019-08-04T12:22:50.306Z</time>
      </trkpt>
      <trkpt lat="42.48391" lon="1.45634667">
        <ele>1178.0</ele>
        <time>2019-08-04T12:22:51.326Z</time>
      </trkpt>
      <trkpt lat="42.48394833" lon="1.45663833">
        <ele>1176.0</ele>
        <time>2019-08-04T12:22:52.309Z</time>
      </trkpt>
      <trkpt lat="42.483975" lon="1.456805">
        <ele>1175.0</ele>
        <time>2019-08-04T12:22:53.304Z</time>
      </trkpt>
      <trkpt lat="42.48398833" lon="1.45697833">
        <ele>1175.0</ele>
        <time>2019-08-04T12:22:54.321Z</time>
      </trkpt>
      <trkpt lat="42.48398833" lon="1.45697833">
        <ele>1175.0</ele>
        <time>2019-08-04T12:22:55.304Z</time>
      </trkpt>
      <trkpt lat="42.48397333" lon="1.45731333">
        <ele>1173.0</ele>
        <time>2019-08-04T12:22:56.306Z</time>
      </trkpt>
      <trkpt lat="42.48397333" lon="1.45731333">
        <ele>1173.0</ele>
        <time>2019-08-04T12:22:57.322Z</time>
      </trkpt>
      <trkpt lat="42.483895" lon="1.457635">
        <ele>1171.0</ele>
        <time>2019-08-04T12:22:58.308Z</time>
      </trkpt>
      <trkpt lat="42.483895" lon="1.457635">
        <ele>1171.0</ele>
        <time>2019-08-04T12:22:59.304Z</time>
      </trkpt>
      <trkpt lat="42.48378833" lon="1.45790833">
        <ele>1169.0</ele>
        <time>2019-08-04T12:23:00.304Z</time>
      </trkpt>
      <trkpt lat="42.48378833" lon="1.45790833">
        <ele>1169.0</ele>
        <time>2019-08-04T12:23:01.319Z</time>
      </trkpt>
      <trkpt lat="42.4837" lon="1.45816667">
        <ele>1166.0</ele>
        <time>2019-08-04T12:23:02.304Z</time>
      </trkpt>
      <trkpt lat="42.4837" lon="1.45816667">
        <ele>1166.0</ele>
        <time>2019-08-04T12:23:03.327Z</time>
      </trkpt>
      <trkpt lat="42.48368667" lon="1.45836">
        <ele>1164.0</ele>
        <time>2019-08-04T12:23:04.319Z</time>
      </trkpt>
      <trkpt lat="42.48368667" lon="1.45836">
        <ele>1164.0</ele>
        <time>2019-08-04T12:23:05.304Z</time>
      </trkpt>
      <trkpt lat="42.48362667" lon="1.45850167">
        <ele>1163.0</ele>
        <time>2019-08-04T12:23:06.304Z</time>
      </trkpt>
      <trkpt lat="42.48362667" lon="1.45850167">
        <ele>1163.0</ele>
        <time>2019-08-04T12:23:07.319Z</time>
      </trkpt>
      <trkpt lat="42.48345833" lon="1.45855167">
        <ele>1161.0</ele>
        <time>2019-08-04T12:23:08.305Z</time>
      </trkpt>
      <trkpt lat="42.48337333" lon="1.45855833">
        <ele>1160.0</ele>
        <time>2019-08-04T12:23:09.320Z</time>
      </trkpt>
      <trkpt lat="42.48329167" lon="1.45855667">
        <ele>1159.0</ele>
        <time>2019-08-04T12:23:10.308Z</time>
      </trkpt>
      <trkpt lat="42.48329167" lon="1.45855667">
        <ele>1159.0</ele>
        <time>2019-08-04T12:23:11.301Z</time>
      </trkpt>
      <trkpt lat="42.483095" lon="1.458505">
        <ele>1157.0</ele>
        <time>2019-08-04T12:23:12.326Z</time>
      </trkpt>
      <trkpt lat="42.483095" lon="1.458505">
        <ele>1157.0</ele>
        <time>2019-08-04T12:23:13.304Z</time>
      </trkpt>
      <trkpt lat="42.483095" lon="1.458505">
        <ele>1157.0</ele>
        <time>2019-08-04T12:23:14.476Z</time>
      </trkpt>
      <trkpt lat="42.48289833" lon="1.45850167">
        <ele>1155.0</ele>
        <time>2019-08-04T12:23:15.302Z</time>
      </trkpt>
      <trkpt lat="42.48266833" lon="1.45855">
        <ele>1154.0</ele>
        <time>2019-08-04T12:23:16.323Z</time>
      </trkpt>
      <trkpt lat="42.48266833" lon="1.45855">
        <ele>1154.0</ele>
        <time>2019-08-04T12:23:17.308Z</time>
      </trkpt>
      <trkpt lat="42.48240667" lon="1.458625">
        <ele>1151.0</ele>
        <time>2019-08-04T12:23:18.308Z</time>
      </trkpt>
      <trkpt lat="42.48240667" lon="1.458625">
        <ele>1151.0</ele>
        <time>2019-08-04T12:23:19.304Z</time>
      </trkpt>
      <trkpt lat="42.48214167" lon="1.458705">
        <ele>1149.0</ele>
        <time>2019-08-04T12:23:20.308Z</time>
      </trkpt>
      <trkpt lat="42.48214167" lon="1.458705">
        <ele>1149.0</ele>
        <time>2019-08-04T12:23:21.304Z</time>
      </trkpt>
      <trkpt lat="42.48186833" lon="1.45876167">
        <ele>1146.0</ele>
        <time>2019-08-04T12:23:22.326Z</time>
      </trkpt>
      <trkpt lat="42.48173667" lon="1.45878">
        <ele>1145.0</ele>
        <time>2019-08-04T12:23:23.308Z</time>
      </trkpt>
      <trkpt lat="42.48161667" lon="1.4588">
        <ele>1143.0</ele>
        <time>2019-08-04T12:23:24.312Z</time>
      </trkpt>
      <trkpt lat="42.48149667" lon="1.45882667">
        <ele>1142.0</ele>
        <time>2019-08-04T12:23:25.308Z</time>
      </trkpt>
      <trkpt lat="42.48149667" lon="1.45882667">
        <ele>1142.0</ele>
        <time>2019-08-04T12:23:26.304Z</time>
      </trkpt>
      <trkpt lat="42.48126167" lon="1.45888833">
        <ele>1139.0</ele>
        <time>2019-08-04T12:23:27.327Z</time>
      </trkpt>
      <trkpt lat="42.48115833" lon="1.45894167">
        <ele>1137.0</ele>
        <time>2019-08-04T12:23:28.308Z</time>
      </trkpt>
      <trkpt lat="42.48115833" lon="1.45894167">
        <ele>1137.0</ele>
        <time>2019-08-04T12:23:29.330Z</time>
      </trkpt>
      <trkpt lat="42.48096667" lon="1.45914">
        <ele>1135.0</ele>
        <time>2019-08-04T12:23:30.322Z</time>
      </trkpt>
      <trkpt lat="42.48096667" lon="1.45914">
        <ele>1135.0</ele>
        <time>2019-08-04T12:23:31.335Z</time>
      </trkpt>
      <trkpt lat="42.480875" lon="1.45946">
        <ele>1132.0</ele>
        <time>2019-08-04T12:23:32.313Z</time>
      </trkpt>
      <trkpt lat="42.480875" lon="1.45946">
        <ele>1132.0</ele>
        <time>2019-08-04T12:23:33.304Z</time>
      </trkpt>
      <trkpt lat="42.480795" lon="1.45980167">
        <ele>1129.0</ele>
        <time>2019-08-04T12:23:34.320Z</time>
      </trkpt>
      <trkpt lat="42.480795" lon="1.45980167">
        <ele>1129.0</ele>
        <time>2019-08-04T12:23:35.304Z</time>
      </trkpt>
      <trkpt lat="42.480735" lon="1.46016833">
        <ele>1127.0</ele>
        <time>2019-08-04T12:23:36.308Z</time>
      </trkpt>
      <trkpt lat="42.480735" lon="1.46016833">
        <ele>1127.0</ele>
        <time>2019-08-04T12:23:37.326Z</time>
      </trkpt>
      <trkpt lat="42.48069" lon="1.46052333">
        <ele>1124.0</ele>
        <time>2019-08-04T12:23:38.308Z</time>
      </trkpt>
      <trkpt lat="42.48069" lon="1.46052333">
        <ele>1124.0</ele>
        <time>2019-08-04T12:23:39.304Z</time>
      </trkpt>
      <trkpt lat="42.480605" lon="1.46081167">
        <ele>1121.0</ele>
        <time>2019-08-04T12:23:40.308Z</time>
      </trkpt>
      <trkpt lat="42.480605" lon="1.46081167">
        <ele>1121.0</ele>
        <time>2019-08-04T12:23:41.301Z</time>
      </trkpt>
      <trkpt lat="42.4804" lon="1.46094833">
        <ele>1118.0</ele>
        <time>2019-08-04T12:23:42.320Z</time>
      </trkpt>
      <trkpt lat="42.4804" lon="1.46094833">
        <ele>1118.0</ele>
        <time>2019-08-04T12:23:43.304Z</time>
      </trkpt>
      <trkpt lat="42.48016833" lon="1.461015">
        <ele>1116.0</ele>
        <time>2019-08-04T12:23:44.317Z</time>
      </trkpt>
      <trkpt lat="42.48006" lon="1.46105">
        <ele>1116.0</ele>
        <time>2019-08-04T12:23:45.306Z</time>
      </trkpt>
      <trkpt lat="42.47997167" lon="1.46112167">
        <ele>1115.0</ele>
        <time>2019-08-04T12:23:46.323Z</time>
      </trkpt>
      <trkpt lat="42.47997167" lon="1.46112167">
        <ele>1115.0</ele>
        <time>2019-08-04T12:23:47.304Z</time>
      </trkpt>
      <trkpt lat="42.47981667" lon="1.46134">
        <ele>1114.0</ele>
        <time>2019-08-04T12:23:48.308Z</time>
      </trkpt>
      <trkpt lat="42.47981667" lon="1.46134">
        <ele>1114.0</ele>
        <time>2019-08-04T12:23:49.304Z</time>
      </trkpt>
      <trkpt lat="42.47972667" lon="1.46162333">
        <ele>1112.0</ele>
        <time>2019-08-04T12:23:50.304Z</time>
      </trkpt>
      <trkpt lat="42.47966667" lon="1.46174833">
        <ele>1111.0</ele>
        <time>2019-08-04T12:23:51.320Z</time>
      </trkpt>
      <trkpt lat="42.47966667" lon="1.46174833">
        <ele>1111.0</ele>
        <time>2019-08-04T12:23:52.305Z</time>
      </trkpt>
      <trkpt lat="42.47952667" lon="1.46184167">
        <ele>1110.0</ele>
        <time>2019-08-04T12:23:53.308Z</time>
      </trkpt>
      <trkpt lat="42.47944833" lon="1.46181833">
        <ele>1109.0</ele>
        <time>2019-08-04T12:23:54.318Z</time>
      </trkpt>
      <trkpt lat="42.47944833" lon="1.46181833">
        <ele>1109.0</ele>
        <time>2019-08-04T12:23:55.302Z</time>
      </trkpt>
      <trkpt lat="42.47929333" lon="1.46180667">
        <ele>1107.0</ele>
        <time>2019-08-04T12:23:56.324Z</time>
      </trkpt>
      <trkpt lat="42.47929333" lon="1.46180667">
        <ele>1107.0</ele>
        <time>2019-08-04T12:23:57.301Z</time>
      </trkpt>
      <trkpt lat="42.47912667" lon="1.461935">
        <ele>1104.0</ele>
        <time>2019-08-04T12:23:58.320Z</time>
      </trkpt>
      <trkpt lat="42.47912667" lon="1.461935">
        <ele>1104.0</ele>
        <time>2019-08-04T12:23:59.301Z</time>
      </trkpt>
      <trkpt lat="42.47895667" lon="1.46210833">
        <ele>1103.0</ele>
        <time>2019-08-04T12:24:00.321Z</time>
      </trkpt>
      <trkpt lat="42.47895667" lon="1.46210833">
        <ele>1103.0</ele>
        <time>2019-08-04T12:24:01.307Z</time>
      </trkpt>
      <trkpt lat="42.478765" lon="1.46221333">
        <ele>1101.0</ele>
        <time>2019-08-04T12:24:02.308Z</time>
      </trkpt>
      <trkpt lat="42.478765" lon="1.46221333">
        <ele>1101.0</ele>
        <time>2019-08-04T12:24:03.304Z</time>
      </trkpt>
      <trkpt lat="42.47856167" lon="1.46240333">
        <ele>1099.0</ele>
        <time>2019-08-04T12:24:04.319Z</time>
      </trkpt>
      <trkpt lat="42.47856167" lon="1.46240333">
        <ele>1099.0</ele>
        <time>2019-08-04T12:24:05.304Z</time>
      </trkpt>
      <trkpt lat="42.47838333" lon="1.46269167">
        <ele>1097.0</ele>
        <time>2019-08-04T12:24:06.304Z</time>
      </trkpt>
      <trkpt lat="42.47838333" lon="1.46269167">
        <ele>1097.0</ele>
        <time>2019-08-04T12:24:07.323Z</time>
      </trkpt>
      <trkpt lat="42.47833" lon="1.46306167">
        <ele>1095.0</ele>
        <time>2019-08-04T12:24:08.304Z</time>
      </trkpt>
      <trkpt lat="42.47833" lon="1.46306167">
        <ele>1095.0</ele>
        <time>2019-08-04T12:24:09.320Z</time>
      </trkpt>
      <trkpt lat="42.47840833" lon="1.46338167">
        <ele>1094.0</ele>
        <time>2019-08-04T12:24:10.308Z</time>
      </trkpt>
      <trkpt lat="42.47840833" lon="1.46338167">
        <ele>1094.0</ele>
        <time>2019-08-04T12:24:11.304Z</time>
      </trkpt>
      <trkpt lat="42.4786" lon="1.46358667">
        <ele>1091.0</ele>
        <time>2019-08-04T12:24:12.327Z</time>
      </trkpt>
      <trkpt lat="42.4786" lon="1.46358667">
        <ele>1091.0</ele>
        <time>2019-08-04T12:24:13.459Z</time>
      </trkpt>
      <trkpt lat="42.478805" lon="1.46376833">
        <ele>1089.0</ele>
        <time>2019-08-04T12:24:14.320Z</time>
      </trkpt>
      <trkpt lat="42.478805" lon="1.46376833">
        <ele>1089.0</ele>
        <time>2019-08-04T12:24:15.304Z</time>
      </trkpt>
      <trkpt lat="42.47901" lon="1.463885">
        <ele>1087.0</ele>
        <time>2019-08-04T12:24:16.308Z</time>
      </trkpt>
      <trkpt lat="42.47901" lon="1.463885">
        <ele>1087.0</ele>
        <time>2019-08-04T12:24:17.325Z</time>
      </trkpt>
      <trkpt lat="42.47923333" lon="1.4639">
        <ele>1085.0</ele>
        <time>2019-08-04T12:24:18.308Z</time>
      </trkpt>
      <trkpt lat="42.47923333" lon="1.4639">
        <ele>1085.0</ele>
        <time>2019-08-04T12:24:19.304Z</time>
      </trkpt>
      <trkpt lat="42.479435" lon="1.46395333">
        <ele>1083.0</ele>
        <time>2019-08-04T12:24:20.306Z</time>
      </trkpt>
      <trkpt lat="42.479435" lon="1.46395333">
        <ele>1083.0</ele>
        <time>2019-08-04T12:24:21.322Z</time>
      </trkpt>
      <trkpt lat="42.479585" lon="1.46411167">
        <ele>1083.0</ele>
        <time>2019-08-04T12:24:22.309Z</time>
      </trkpt>
      <trkpt lat="42.479585" lon="1.46411167">
        <ele>1083.0</ele>
        <time>2019-08-04T12:24:23.302Z</time>
      </trkpt>
      <trkpt lat="42.47961833" lon="1.46431333">
        <ele>1083.0</ele>
        <time>2019-08-04T12:24:24.320Z</time>
      </trkpt>
      <trkpt lat="42.47961833" lon="1.46431333">
        <ele>1083.0</ele>
        <time>2019-08-04T12:24:25.305Z</time>
      </trkpt>
      <trkpt lat="42.47955833" lon="1.46454333">
        <ele>1082.0</ele>
        <time>2019-08-04T12:24:26.308Z</time>
      </trkpt>
      <trkpt lat="42.47955833" lon="1.46454333">
        <ele>1082.0</ele>
        <time>2019-08-04T12:24:27.302Z</time>
      </trkpt>
      <trkpt lat="42.47946667" lon="1.46479333">
        <ele>1081.0</ele>
        <time>2019-08-04T12:24:28.308Z</time>
      </trkpt>
      <trkpt lat="42.47946667" lon="1.46479333">
        <ele>1081.0</ele>
        <time>2019-08-04T12:24:29.333Z</time>
      </trkpt>
      <trkpt lat="42.47934833" lon="1.46506">
        <ele>1081.0</ele>
        <time>2019-08-04T12:24:30.303Z</time>
      </trkpt>
      <trkpt lat="42.47934833" lon="1.46506">
        <ele>1081.0</ele>
        <time>2019-08-04T12:24:31.317Z</time>
      </trkpt>
      <trkpt lat="42.479205" lon="1.46530333">
        <ele>1080.0</ele>
        <time>2019-08-04T12:24:32.323Z</time>
      </trkpt>
      <trkpt lat="42.47904167" lon="1.46534833">
        <ele>1080.0</ele>
        <time>2019-08-04T12:24:33.308Z</time>
      </trkpt>
      <trkpt lat="42.47904167" lon="1.46534833">
        <ele>1080.0</ele>
        <time>2019-08-04T12:24:34.299Z</time>
      </trkpt>
      <trkpt lat="42.47878833" lon="1.46541">
        <ele>1079.0</ele>
        <time>2019-08-04T12:24:35.307Z</time>
      </trkpt>
      <trkpt lat="42.47867" lon="1.465455">
        <ele>1078.0</ele>
        <time>2019-08-04T12:24:36.308Z</time>
      </trkpt>
      <trkpt lat="42.47867" lon="1.465455">
        <ele>1078.0</ele>
        <time>2019-08-04T12:24:37.314Z</time>
      </trkpt>
      <trkpt lat="42.47840333" lon="1.46557833">
        <ele>1077.0</ele>
        <time>2019-08-04T12:24:38.306Z</time>
      </trkpt>
      <trkpt lat="42.47826833" lon="1.46565333">
        <ele>1077.0</ele>
        <time>2019-08-04T12:24:39.309Z</time>
      </trkpt>
      <trkpt lat="42.47826833" lon="1.46565333">
        <ele>1077.0</ele>
        <time>2019-08-04T12:24:40.305Z</time>
      </trkpt>
      <trkpt lat="42.47802167" lon="1.465785">
        <ele>1077.0</ele>
        <time>2019-08-04T12:24:41.306Z</time>
      </trkpt>
      <trkpt lat="42.47792667" lon="1.46585833">
        <ele>1076.0</ele>
        <time>2019-08-04T12:24:42.305Z</time>
      </trkpt>
      <trkpt lat="42.47792667" lon="1.46585833">
        <ele>1076.0</ele>
        <time>2019-08-04T12:24:43.302Z</time>
      </trkpt>
      <trkpt lat="42.47791833" lon="1.466075">
        <ele>1075.0</ele>
        <time>2019-08-04T12:24:44.318Z</time>
      </trkpt>
      <trkpt lat="42.47791833" lon="1.466075">
        <ele>1075.0</ele>
        <time>2019-08-04T12:24:45.304Z</time>
      </trkpt>
      <trkpt lat="42.47791667" lon="1.46627667">
        <ele>1074.0</ele>
        <time>2019-08-04T12:24:46.308Z</time>
      </trkpt>
      <trkpt lat="42.47791667" lon="1.46627667">
        <ele>1074.0</ele>
        <time>2019-08-04T12:24:47.305Z</time>
      </trkpt>
      <trkpt lat="42.478085" lon="1.46645333">
        <ele>1072.0</ele>
        <time>2019-08-04T12:24:48.305Z</time>
      </trkpt>
      <trkpt lat="42.478085" lon="1.46645333">
        <ele>1072.0</ele>
        <time>2019-08-04T12:24:49.321Z</time>
      </trkpt>
      <trkpt lat="42.47825167" lon="1.46655833">
        <ele>1071.0</ele>
        <time>2019-08-04T12:24:50.306Z</time>
      </trkpt>
      <trkpt lat="42.47825167" lon="1.46655833">
        <ele>1071.0</ele>
        <time>2019-08-04T12:24:51.322Z</time>
      </trkpt>
      <trkpt lat="42.47846" lon="1.46666167">
        <ele>1070.0</ele>
        <time>2019-08-04T12:24:52.309Z</time>
      </trkpt>
      <trkpt lat="42.47846" lon="1.46666167">
        <ele>1070.0</ele>
        <time>2019-08-04T12:24:53.302Z</time>
      </trkpt>
      <trkpt lat="42.47864333" lon="1.46673">
        <ele>1069.0</ele>
        <time>2019-08-04T12:24:54.320Z</time>
      </trkpt>
      <trkpt lat="42.47864333" lon="1.46673">
        <ele>1069.0</ele>
        <time>2019-08-04T12:24:55.304Z</time>
      </trkpt>
      <trkpt lat="42.47880667" lon="1.46683167">
        <ele>1067.0</ele>
        <time>2019-08-04T12:24:56.308Z</time>
      </trkpt>
      <trkpt lat="42.47880667" lon="1.46683167">
        <ele>1067.0</ele>
        <time>2019-08-04T12:24:57.302Z</time>
      </trkpt>
      <trkpt lat="42.47894167" lon="1.46700667">
        <ele>1067.0</ele>
        <time>2019-08-04T12:24:58.308Z</time>
      </trkpt>
      <trkpt lat="42.47894167" lon="1.46700667">
        <ele>1067.0</ele>
        <time>2019-08-04T12:24:59.304Z</time>
      </trkpt>
      <trkpt lat="42.47903667" lon="1.467255">
        <ele>1066.0</ele>
        <time>2019-08-04T12:25:00.305Z</time>
      </trkpt>
      <trkpt lat="42.47903667" lon="1.467255">
        <ele>1066.0</ele>
        <time>2019-08-04T12:25:01.325Z</time>
      </trkpt>
      <trkpt lat="42.47901667" lon="1.46752">
        <ele>1066.0</ele>
        <time>2019-08-04T12:25:02.309Z</time>
      </trkpt>
      <trkpt lat="42.47901667" lon="1.46752">
        <ele>1066.0</ele>
        <time>2019-08-04T12:25:03.304Z</time>
      </trkpt>
      <trkpt lat="42.47894" lon="1.46778333">
        <ele>1065.0</ele>
        <time>2019-08-04T12:25:04.320Z</time>
      </trkpt>
      <trkpt lat="42.47894" lon="1.46778333">
        <ele>1065.0</ele>
        <time>2019-08-04T12:25:05.302Z</time>
      </trkpt>
      <trkpt lat="42.47881667" lon="1.46799333">
        <ele>1065.0</ele>
        <time>2019-08-04T12:25:06.323Z</time>
      </trkpt>
      <trkpt lat="42.47881667" lon="1.46799333">
        <ele>1065.0</ele>
        <time>2019-08-04T12:25:07.308Z</time>
      </trkpt>
      <trkpt lat="42.47869833" lon="1.46817833">
        <ele>1065.0</ele>
        <time>2019-08-04T12:25:08.306Z</time>
      </trkpt>
      <trkpt lat="42.47864833" lon="1.46827333">
        <ele>1064.0</ele>
        <time>2019-08-04T12:25:09.327Z</time>
      </trkpt>
      <trkpt lat="42.4786" lon="1.46836667">
        <ele>1064.0</ele>
        <time>2019-08-04T12:25:10.310Z</time>
      </trkpt>
      <trkpt lat="42.4786" lon="1.46836667">
        <ele>1064.0</ele>
        <time>2019-08-04T12:25:11.304Z</time>
      </trkpt>
      <trkpt lat="42.47850167" lon="1.46852">
        <ele>1062.0</ele>
        <time>2019-08-04T12:25:12.309Z</time>
      </trkpt>
      <trkpt lat="42.47850167" lon="1.46852">
        <ele>1062.0</ele>
        <time>2019-08-04T12:25:13.304Z</time>
      </trkpt>
      <trkpt lat="42.47850167" lon="1.46852">
        <ele>1062.0</ele>
        <time>2019-08-04T12:25:14.298Z</time>
      </trkpt>
      <trkpt lat="42.47834" lon="1.46861">
        <ele>1060.0</ele>
        <time>2019-08-04T12:25:15.320Z</time>
      </trkpt>
      <trkpt lat="42.47834" lon="1.46861">
        <ele>1060.0</ele>
        <time>2019-08-04T12:25:16.304Z</time>
      </trkpt>
      <trkpt lat="42.47834" lon="1.46861">
        <ele>1060.0</ele>
        <time>2019-08-04T12:25:17.463Z</time>
      </trkpt>
      <trkpt lat="42.47820667" lon="1.468685">
        <ele>1060.0</ele>
        <time>2019-08-04T12:25:18.309Z</time>
      </trkpt>
      <trkpt lat="42.47820667" lon="1.468685">
        <ele>1060.0</ele>
        <time>2019-08-04T12:25:19.312Z</time>
      </trkpt>
      <trkpt lat="42.47814833" lon="1.46879">
        <ele>1060.0</ele>
        <time>2019-08-04T12:25:20.308Z</time>
      </trkpt>
      <trkpt lat="42.47814833" lon="1.46879">
        <ele>1060.0</ele>
        <time>2019-08-04T12:25:21.304Z</time>
      </trkpt>
      <trkpt lat="42.47808833" lon="1.46889333">
        <ele>1060.0</ele>
        <time>2019-08-04T12:25:22.308Z</time>
      </trkpt>
      <trkpt lat="42.47808833" lon="1.46889333">
        <ele>1060.0</ele>
        <time>2019-08-04T12:25:23.304Z</time>
      </trkpt>
      <trkpt lat="42.47808833" lon="1.46889333">
        <ele>1060.0</ele>
        <time>2019-08-04T12:25:24.298Z</time>
      </trkpt>
      <trkpt lat="42.47805167" lon="1.469005">
        <ele>1060.0</ele>
        <time>2019-08-04T12:25:25.309Z</time>
      </trkpt>
      <trkpt lat="42.47800167" lon="1.46910667">
        <ele>1060.0</ele>
        <time>2019-08-04T12:25:26.308Z</time>
      </trkpt>
      <trkpt lat="42.47800167" lon="1.46910667">
        <ele>1060.0</ele>
        <time>2019-08-04T12:25:27.304Z</time>
      </trkpt>
      <trkpt lat="42.477955" lon="1.46921833">
        <ele>1060.0</ele>
        <time>2019-08-04T12:25:28.311Z</time>
      </trkpt>
      <trkpt lat="42.477955" lon="1.46921833">
        <ele>1060.0</ele>
        <time>2019-08-04T12:25:29.334Z</time>
      </trkpt>
      <trkpt lat="42.47792833" lon="1.46933833">
        <ele>1060.0</ele>
        <time>2019-08-04T12:25:30.315Z</time>
      </trkpt>
      <trkpt lat="42.47793833" lon="1.469415">
        <ele>1060.0</ele>
        <time>2019-08-04T12:25:31.321Z</time>
      </trkpt>
      <trkpt lat="42.47793833" lon="1.469415">
        <ele>1060.0</ele>
        <time>2019-08-04T12:25:32.327Z</time>
      </trkpt>
      <trkpt lat="42.47796" lon="1.46960167">
        <ele>1060.0</ele>
        <time>2019-08-04T12:25:33.308Z</time>
      </trkpt>
      <trkpt lat="42.477975" lon="1.46972">
        <ele>1059.0</ele>
        <time>2019-08-04T12:25:34.325Z</time>
      </trkpt>
      <trkpt lat="42.477975" lon="1.46972">
        <ele>1059.0</ele>
        <time>2019-08-04T12:25:35.305Z</time>
      </trkpt>
      <trkpt lat="42.47795667" lon="1.469985">
        <ele>1058.0</ele>
        <time>2019-08-04T12:25:36.305Z</time>
      </trkpt>
      <trkpt lat="42.47795667" lon="1.469985">
        <ele>1058.0</ele>
        <time>2019-08-04T12:25:37.322Z</time>
      </trkpt>
      <trkpt lat="42.47787667" lon="1.47027333">
        <ele>1056.0</ele>
        <time>2019-08-04T12:25:38.306Z</time>
      </trkpt>
      <trkpt lat="42.47782" lon="1.47041333">
        <ele>1055.0</ele>
        <time>2019-08-04T12:25:39.323Z</time>
      </trkpt>
      <trkpt lat="42.4778" lon="1.47056167">
        <ele>1054.0</ele>
        <time>2019-08-04T12:25:40.309Z</time>
      </trkpt>
      <trkpt lat="42.4778" lon="1.47056167">
        <ele>1054.0</ele>
        <time>2019-08-04T12:25:41.304Z</time>
      </trkpt>
      <trkpt lat="42.47782333" lon="1.47087833">
        <ele>1052.0</ele>
        <time>2019-08-04T12:25:42.306Z</time>
      </trkpt>
      <trkpt lat="42.47782333" lon="1.47087833">
        <ele>1052.0</ele>
        <time>2019-08-04T12:25:43.302Z</time>
      </trkpt>
      <trkpt lat="42.47784667" lon="1.47121667">
        <ele>1049.0</ele>
        <time>2019-08-04T12:25:44.320Z</time>
      </trkpt>
      <trkpt lat="42.47784667" lon="1.47121667">
        <ele>1049.0</ele>
        <time>2019-08-04T12:25:45.304Z</time>
      </trkpt>
      <trkpt lat="42.477865" lon="1.47151333">
        <ele>1047.0</ele>
        <time>2019-08-04T12:25:46.306Z</time>
      </trkpt>
      <trkpt lat="42.477865" lon="1.47151333">
        <ele>1047.0</ele>
        <time>2019-08-04T12:25:47.305Z</time>
      </trkpt>
      <trkpt lat="42.47794167" lon="1.47173333">
        <ele>1045.0</ele>
        <time>2019-08-04T12:25:48.325Z</time>
      </trkpt>
      <trkpt lat="42.478" lon="1.47181">
        <ele>1043.0</ele>
        <time>2019-08-04T12:25:49.308Z</time>
      </trkpt>
      <trkpt lat="42.478" lon="1.47181">
        <ele>1043.0</ele>
        <time>2019-08-04T12:25:50.304Z</time>
      </trkpt>
      <trkpt lat="42.47808833" lon="1.47197333">
        <ele>1041.0</ele>
        <time>2019-08-04T12:25:51.308Z</time>
      </trkpt>
      <trkpt lat="42.47810833" lon="1.47208">
        <ele>1040.0</ele>
        <time>2019-08-04T12:25:52.305Z</time>
      </trkpt>
      <trkpt lat="42.47810833" lon="1.47208">
        <ele>1040.0</ele>
        <time>2019-08-04T12:25:53.321Z</time>
      </trkpt>
      <trkpt lat="42.47794333" lon="1.47213833">
        <ele>1039.0</ele>
        <time>2019-08-04T12:25:54.321Z</time>
      </trkpt>
      <trkpt lat="42.47794333" lon="1.47213833">
        <ele>1039.0</ele>
        <time>2019-08-04T12:25:55.303Z</time>
      </trkpt>
      <trkpt lat="42.47778833" lon="1.47220333">
        <ele>1038.0</ele>
        <time>2019-08-04T12:25:56.308Z</time>
      </trkpt>
      <trkpt lat="42.47778833" lon="1.47220333">
        <ele>1038.0</ele>
        <time>2019-08-04T12:25:57.327Z</time>
      </trkpt>
      <trkpt lat="42.477625" lon="1.472365">
        <ele>1037.0</ele>
        <time>2019-08-04T12:25:58.309Z</time>
      </trkpt>
      <trkpt lat="42.477585" lon="1.472505">
        <ele>1036.0</ele>
        <time>2019-08-04T12:25:59.308Z</time>
      </trkpt>
      <trkpt lat="42.477585" lon="1.472505">
        <ele>1036.0</ele>
        <time>2019-08-04T12:26:00.450Z</time>
      </trkpt>
      <trkpt lat="42.477545" lon="1.47264833">
        <ele>1036.0</ele>
        <time>2019-08-04T12:26:01.305Z</time>
      </trkpt>
      <trkpt lat="42.47738167" lon="1.47290167">
        <ele>1034.0</ele>
        <time>2019-08-04T12:26:02.326Z</time>
      </trkpt>
      <trkpt lat="42.47729833" lon="1.47302167">
        <ele>1034.0</ele>
        <time>2019-08-04T12:26:03.308Z</time>
      </trkpt>
      <trkpt lat="42.47729833" lon="1.47302167">
        <ele>1034.0</ele>
        <time>2019-08-04T12:26:04.336Z</time>
      </trkpt>
      <trkpt lat="42.477145" lon="1.47328833">
        <ele>1032.0</ele>
        <time>2019-08-04T12:26:05.309Z</time>
      </trkpt>
      <trkpt lat="42.477145" lon="1.47328833">
        <ele>1032.0</ele>
        <time>2019-08-04T12:26:06.303Z</time>
      </trkpt>
      <trkpt lat="42.47705" lon="1.47357833">
        <ele>1030.0</ele>
        <time>2019-08-04T12:26:07.335Z</time>
      </trkpt>
      <trkpt lat="42.476995" lon="1.4737">
        <ele>1029.0</ele>
        <time>2019-08-04T12:26:08.316Z</time>
      </trkpt>
      <trkpt lat="42.47699167" lon="1.47383833">
        <ele>1028.0</ele>
        <time>2019-08-04T12:26:09.309Z</time>
      </trkpt>
      <trkpt lat="42.47702667" lon="1.47397667">
        <ele>1027.0</ele>
        <time>2019-08-04T12:26:10.306Z</time>
      </trkpt>
      <trkpt lat="42.47702667" lon="1.47397667">
        <ele>1027.0</ele>
        <time>2019-08-04T12:26:11.323Z</time>
      </trkpt>
      <trkpt lat="42.47708167" lon="1.47424833">
        <ele>1025.0</ele>
        <time>2019-08-04T12:26:12.310Z</time>
      </trkpt>
      <trkpt lat="42.47708167" lon="1.47424833">
        <ele>1025.0</ele>
        <time>2019-08-04T12:26:13.305Z</time>
      </trkpt>
      <trkpt lat="42.477115" lon="1.47455167">
        <ele>1023.0</ele>
        <time>2019-08-04T12:26:14.317Z</time>
      </trkpt>
      <trkpt lat="42.477115" lon="1.47455167">
        <ele>1023.0</ele>
        <time>2019-08-04T12:26:15.304Z</time>
      </trkpt>
      <trkpt lat="42.47713667" lon="1.47486667">
        <ele>1021.0</ele>
        <time>2019-08-04T12:26:16.309Z</time>
      </trkpt>
      <trkpt lat="42.47713667" lon="1.47486667">
        <ele>1021.0</ele>
        <time>2019-08-04T12:26:17.304Z</time>
      </trkpt>
      <trkpt lat="42.47715833" lon="1.47516167">
        <ele>1019.0</ele>
        <time>2019-08-04T12:26:18.326Z</time>
      </trkpt>
      <trkpt lat="42.47715833" lon="1.47516167">
        <ele>1019.0</ele>
        <time>2019-08-04T12:26:19.305Z</time>
      </trkpt>
      <trkpt lat="42.47716" lon="1.47544333">
        <ele>1017.0</ele>
        <time>2019-08-04T12:26:20.309Z</time>
      </trkpt>
      <trkpt lat="42.477145" lon="1.47558">
        <ele>1016.0</ele>
        <time>2019-08-04T12:26:21.305Z</time>
      </trkpt>
      <trkpt lat="42.477145" lon="1.47558">
        <ele>1016.0</ele>
        <time>2019-08-04T12:26:22.321Z</time>
      </trkpt>
      <trkpt lat="42.47707333" lon="1.47585167">
        <ele>1014.0</ele>
        <time>2019-08-04T12:26:23.308Z</time>
      </trkpt>
      <trkpt lat="42.47702833" lon="1.475995">
        <ele>1012.0</ele>
        <time>2019-08-04T12:26:24.318Z</time>
      </trkpt>
      <trkpt lat="42.47702833" lon="1.475995">
        <ele>1012.0</ele>
        <time>2019-08-04T12:26:25.303Z</time>
      </trkpt>
      <trkpt lat="42.47693833" lon="1.47628667">
        <ele>1010.0</ele>
        <time>2019-08-04T12:26:26.323Z</time>
      </trkpt>
      <trkpt lat="42.47693833" lon="1.47628667">
        <ele>1010.0</ele>
        <time>2019-08-04T12:26:27.304Z</time>
      </trkpt>
      <trkpt lat="42.47687" lon="1.47655">
        <ele>1008.0</ele>
        <time>2019-08-04T12:26:28.310Z</time>
      </trkpt>
      <trkpt lat="42.47687" lon="1.47655">
        <ele>1008.0</ele>
        <time>2019-08-04T12:26:29.333Z</time>
      </trkpt>
      <trkpt lat="42.476895" lon="1.476825">
        <ele>1007.0</ele>
        <time>2019-08-04T12:26:30.303Z</time>
      </trkpt>
      <trkpt lat="42.47693" lon="1.47696">
        <ele>1006.0</ele>
        <time>2019-08-04T12:26:31.308Z</time>
      </trkpt>
      <trkpt lat="42.47693" lon="1.47696">
        <ele>1006.0</ele>
        <time>2019-08-04T12:26:32.323Z</time>
      </trkpt>
      <trkpt lat="42.477005" lon="1.477255">
        <ele>1004.0</ele>
        <time>2019-08-04T12:26:33.308Z</time>
      </trkpt>
      <trkpt lat="42.47705667" lon="1.47741">
        <ele>1003.0</ele>
        <time>2019-08-04T12:26:34.332Z</time>
      </trkpt>
      <trkpt lat="42.47705667" lon="1.47741">
        <ele>1003.0</ele>
        <time>2019-08-04T12:26:35.308Z</time>
      </trkpt>
      <trkpt lat="42.477195" lon="1.47770833">
        <ele>1000.0</ele>
        <time>2019-08-04T12:26:36.310Z</time>
      </trkpt>
      <trkpt lat="42.477195" lon="1.47770833">
        <ele>1000.0</ele>
        <time>2019-08-04T12:26:37.303Z</time>
      </trkpt>
      <trkpt lat="42.47736333" lon="1.477985">
        <ele>998.0</ele>
        <time>2019-08-04T12:26:38.308Z</time>
      </trkpt>
      <trkpt lat="42.47736333" lon="1.477985">
        <ele>998.0</ele>
        <time>2019-08-04T12:26:39.305Z</time>
      </trkpt>
      <trkpt lat="42.47749" lon="1.47832">
        <ele>995.0</ele>
        <time>2019-08-04T12:26:40.309Z</time>
      </trkpt>
      <trkpt lat="42.47749" lon="1.47832">
        <ele>995.0</ele>
        <time>2019-08-04T12:26:41.305Z</time>
      </trkpt>
      <trkpt lat="42.47757833" lon="1.478695">
        <ele>992.0</ele>
        <time>2019-08-04T12:26:42.309Z</time>
      </trkpt>
      <trkpt lat="42.47757833" lon="1.478695">
        <ele>992.0</ele>
        <time>2019-08-04T12:26:43.307Z</time>
      </trkpt>
      <trkpt lat="42.47762333" lon="1.47909833">
        <ele>988.0</ele>
        <time>2019-08-04T12:26:44.332Z</time>
      </trkpt>
      <trkpt lat="42.47762333" lon="1.47909833">
        <ele>988.0</ele>
        <time>2019-08-04T12:26:45.309Z</time>
      </trkpt>
      <trkpt lat="42.47760167" lon="1.47953167">
        <ele>984.0</ele>
        <time>2019-08-04T12:26:46.306Z</time>
      </trkpt>
      <trkpt lat="42.47760167" lon="1.47953167">
        <ele>984.0</ele>
        <time>2019-08-04T12:26:47.322Z</time>
      </trkpt>
      <trkpt lat="42.47755333" lon="1.47993167">
        <ele>981.0</ele>
        <time>2019-08-04T12:26:48.309Z</time>
      </trkpt>
      <trkpt lat="42.47755333" lon="1.47993167">
        <ele>981.0</ele>
        <time>2019-08-04T12:26:49.307Z</time>
      </trkpt>
      <trkpt lat="42.47750667" lon="1.48024833">
        <ele>978.0</ele>
        <time>2019-08-04T12:26:50.308Z</time>
      </trkpt>
      <trkpt lat="42.47750667" lon="1.48024833">
        <ele>978.0</ele>
        <time>2019-08-04T12:26:51.323Z</time>
      </trkpt>
      <trkpt lat="42.47735167" lon="1.48047667">
        <ele>975.0</ele>
        <time>2019-08-04T12:26:52.308Z</time>
      </trkpt>
      <trkpt lat="42.47735167" lon="1.48047667">
        <ele>975.0</ele>
        <time>2019-08-04T12:26:53.304Z</time>
      </trkpt>
      <trkpt lat="42.47720333" lon="1.48063333">
        <ele>973.0</ele>
        <time>2019-08-04T12:26:54.317Z</time>
      </trkpt>
      <trkpt lat="42.47710167" lon="1.48069">
        <ele>971.0</ele>
        <time>2019-08-04T12:26:55.308Z</time>
      </trkpt>
      <trkpt lat="42.47710167" lon="1.48069">
        <ele>971.0</ele>
        <time>2019-08-04T12:26:56.303Z</time>
      </trkpt>
      <trkpt lat="42.47691667" lon="1.48081667">
        <ele>969.0</ele>
        <time>2019-08-04T12:26:57.323Z</time>
      </trkpt>
      <trkpt lat="42.47683" lon="1.48088333">
        <ele>967.0</ele>
        <time>2019-08-04T12:26:58.310Z</time>
      </trkpt>
      <trkpt lat="42.47683" lon="1.48088333">
        <ele>967.0</ele>
        <time>2019-08-04T12:26:59.305Z</time>
      </trkpt>
      <trkpt lat="42.47666833" lon="1.48102833">
        <ele>966.0</ele>
        <time>2019-08-04T12:27:00.314Z</time>
      </trkpt>
      <trkpt lat="42.47666833" lon="1.48102833">
        <ele>966.0</ele>
        <time>2019-08-04T12:27:01.316Z</time>
      </trkpt>
      <trkpt lat="42.47650667" lon="1.48120333">
        <ele>964.0</ele>
        <time>2019-08-04T12:27:02.308Z</time>
      </trkpt>
      <trkpt lat="42.47650667" lon="1.48120333">
        <ele>964.0</ele>
        <time>2019-08-04T12:27:03.323Z</time>
      </trkpt>
      <trkpt lat="42.47634333" lon="1.48138833">
        <ele>963.0</ele>
        <time>2019-08-04T12:27:04.317Z</time>
      </trkpt>
      <trkpt lat="42.47634333" lon="1.48138833">
        <ele>963.0</ele>
        <time>2019-08-04T12:27:05.303Z</time>
      </trkpt>
      <trkpt lat="42.47622" lon="1.48164333">
        <ele>962.0</ele>
        <time>2019-08-04T12:27:06.308Z</time>
      </trkpt>
      <trkpt lat="42.47622" lon="1.48164333">
        <ele>962.0</ele>
        <time>2019-08-04T12:27:07.304Z</time>
      </trkpt>
      <trkpt lat="42.47611667" lon="1.48192833">
        <ele>960.0</ele>
        <time>2019-08-04T12:27:08.308Z</time>
      </trkpt>
      <trkpt lat="42.47611667" lon="1.48192833">
        <ele>960.0</ele>
        <time>2019-08-04T12:27:09.304Z</time>
      </trkpt>
      <trkpt lat="42.476015" lon="1.48221833">
        <ele>958.0</ele>
        <time>2019-08-04T12:27:10.324Z</time>
      </trkpt>
      <trkpt lat="42.476015" lon="1.48221833">
        <ele>958.0</ele>
        <time>2019-08-04T12:27:11.305Z</time>
      </trkpt>
      <trkpt lat="42.47592" lon="1.48251333">
        <ele>956.0</ele>
        <time>2019-08-04T12:27:12.309Z</time>
      </trkpt>
      <trkpt lat="42.47592" lon="1.48251333">
        <ele>956.0</ele>
        <time>2019-08-04T12:27:13.305Z</time>
      </trkpt>
      <trkpt lat="42.47582167" lon="1.48280667">
        <ele>955.0</ele>
        <time>2019-08-04T12:27:14.319Z</time>
      </trkpt>
      <trkpt lat="42.47582167" lon="1.48280667">
        <ele>955.0</ele>
        <time>2019-08-04T12:27:15.305Z</time>
      </trkpt>
      <trkpt lat="42.47575" lon="1.48311667">
        <ele>953.0</ele>
        <time>2019-08-04T12:27:16.324Z</time>
      </trkpt>
      <trkpt lat="42.47575" lon="1.48311667">
        <ele>953.0</ele>
        <time>2019-08-04T12:27:17.305Z</time>
      </trkpt>
      <trkpt lat="42.47570333" lon="1.48343167">
        <ele>952.0</ele>
        <time>2019-08-04T12:27:18.455Z</time>
      </trkpt>
      <trkpt lat="42.47570333" lon="1.48343167">
        <ele>952.0</ele>
        <time>2019-08-04T12:27:19.303Z</time>
      </trkpt>
      <trkpt lat="42.47566333" lon="1.48374667">
        <ele>951.0</ele>
        <time>2019-08-04T12:27:20.308Z</time>
      </trkpt>
      <trkpt lat="42.47563833" lon="1.48390333">
        <ele>950.0</ele>
        <time>2019-08-04T12:27:21.308Z</time>
      </trkpt>
      <trkpt lat="42.47563833" lon="1.48390333">
        <ele>950.0</ele>
        <time>2019-08-04T12:27:22.306Z</time>
      </trkpt>
      <trkpt lat="42.47555833" lon="1.48418833">
        <ele>949.0</ele>
        <time>2019-08-04T12:27:23.309Z</time>
      </trkpt>
      <trkpt lat="42.47555833" lon="1.48418833">
        <ele>949.0</ele>
        <time>2019-08-04T12:27:24.310Z</time>
      </trkpt>
      <trkpt lat="42.47548167" lon="1.48445667">
        <ele>948.0</ele>
        <time>2019-08-04T12:27:25.308Z</time>
      </trkpt>
      <trkpt lat="42.47548167" lon="1.48445667">
        <ele>948.0</ele>
        <time>2019-08-04T12:27:26.303Z</time>
      </trkpt>
      <trkpt lat="42.47543167" lon="1.48472167">
        <ele>947.0</ele>
        <time>2019-08-04T12:27:27.327Z</time>
      </trkpt>
      <trkpt lat="42.47543167" lon="1.48472167">
        <ele>947.0</ele>
        <time>2019-08-04T12:27:28.306Z</time>
      </trkpt>
      <trkpt lat="42.47541" lon="1.48494167">
        <ele>946.0</ele>
        <time>2019-08-04T12:27:29.334Z</time>
      </trkpt>
      <trkpt lat="42.475415" lon="1.48504833">
        <ele>945.0</ele>
        <time>2019-08-04T12:27:30.313Z</time>
      </trkpt>
      <trkpt lat="42.475435" lon="1.485155">
        <ele>945.0</ele>
        <time>2019-08-04T12:27:31.319Z</time>
      </trkpt>
      <trkpt lat="42.475435" lon="1.485155">
        <ele>945.0</ele>
        <time>2019-08-04T12:27:32.306Z</time>
      </trkpt>
      <trkpt lat="42.47546833" lon="1.48537167">
        <ele>944.0</ele>
        <time>2019-08-04T12:27:33.305Z</time>
      </trkpt>
      <trkpt lat="42.47546833" lon="1.48537167">
        <ele>944.0</ele>
        <time>2019-08-04T12:27:34.301Z</time>
      </trkpt>
      <trkpt lat="42.47548833" lon="1.48549333">
        <ele>943.0</ele>
        <time>2019-08-04T12:27:35.321Z</time>
      </trkpt>
      <trkpt lat="42.47554" lon="1.48576333">
        <ele>942.0</ele>
        <time>2019-08-04T12:27:36.310Z</time>
      </trkpt>
      <trkpt lat="42.47554" lon="1.48576333">
        <ele>942.0</ele>
        <time>2019-08-04T12:27:37.306Z</time>
      </trkpt>
      <trkpt lat="42.475615" lon="1.48606">
        <ele>940.0</ele>
        <time>2019-08-04T12:27:38.309Z</time>
      </trkpt>
      <trkpt lat="42.475615" lon="1.48606">
        <ele>940.0</ele>
        <time>2019-08-04T12:27:39.306Z</time>
      </trkpt>
      <trkpt lat="42.475695" lon="1.48637667">
        <ele>939.0</ele>
        <time>2019-08-04T12:27:40.306Z</time>
      </trkpt>
      <trkpt lat="42.475695" lon="1.48637667">
        <ele>939.0</ele>
        <time>2019-08-04T12:27:41.323Z</time>
      </trkpt>
      <trkpt lat="42.47576667" lon="1.48670833">
        <ele>938.0</ele>
        <time>2019-08-04T12:27:42.310Z</time>
      </trkpt>
      <trkpt lat="42.47576667" lon="1.48670833">
        <ele>938.0</ele>
        <time>2019-08-04T12:27:43.303Z</time>
      </trkpt>
      <trkpt lat="42.47585667" lon="1.48704667">
        <ele>936.0</ele>
        <time>2019-08-04T12:27:44.319Z</time>
      </trkpt>
      <trkpt lat="42.47585667" lon="1.48704667">
        <ele>936.0</ele>
        <time>2019-08-04T12:27:45.305Z</time>
      </trkpt>
      <trkpt lat="42.47592833" lon="1.48737">
        <ele>935.0</ele>
        <time>2019-08-04T12:27:46.308Z</time>
      </trkpt>
      <trkpt lat="42.47592833" lon="1.48737">
        <ele>935.0</ele>
        <time>2019-08-04T12:27:47.303Z</time>
      </trkpt>
      <trkpt lat="42.47598833" lon="1.48768">
        <ele>934.0</ele>
        <time>2019-08-04T12:27:48.310Z</time>
      </trkpt>
      <trkpt lat="42.47598833" lon="1.48768">
        <ele>934.0</ele>
        <time>2019-08-04T12:27:49.307Z</time>
      </trkpt>
      <trkpt lat="42.47605" lon="1.487965">
        <ele>933.0</ele>
        <time>2019-08-04T12:27:50.319Z</time>
      </trkpt>
      <trkpt lat="42.47605" lon="1.487965">
        <ele>933.0</ele>
        <time>2019-08-04T12:27:51.305Z</time>
      </trkpt>
      <trkpt lat="42.476105" lon="1.48822167">
        <ele>932.0</ele>
        <time>2019-08-04T12:27:52.329Z</time>
      </trkpt>
      <trkpt lat="42.47613" lon="1.48833333">
        <ele>932.0</ele>
        <time>2019-08-04T12:27:53.311Z</time>
      </trkpt>
      <trkpt lat="42.476155" lon="1.48844833">
        <ele>932.0</ele>
        <time>2019-08-04T12:27:54.320Z</time>
      </trkpt>
      <trkpt lat="42.476155" lon="1.48844833">
        <ele>932.0</ele>
        <time>2019-08-04T12:27:55.305Z</time>
      </trkpt>
      <trkpt lat="42.47620833" lon="1.48868">
        <ele>931.0</ele>
        <time>2019-08-04T12:27:56.305Z</time>
      </trkpt>
      <trkpt lat="42.47620833" lon="1.48868">
        <ele>931.0</ele>
        <time>2019-08-04T12:27:57.322Z</time>
      </trkpt>
      <trkpt lat="42.47625333" lon="1.48893">
        <ele>930.0</ele>
        <time>2019-08-04T12:27:58.321Z</time>
      </trkpt>
      <trkpt lat="42.47625333" lon="1.48893">
        <ele>930.0</ele>
        <time>2019-08-04T12:27:59.305Z</time>
      </trkpt>
      <trkpt lat="42.4763" lon="1.48918">
        <ele>930.0</ele>
        <time>2019-08-04T12:28:00.321Z</time>
      </trkpt>
      <trkpt lat="42.4763" lon="1.48918">
        <ele>930.0</ele>
        <time>2019-08-04T12:28:01.308Z</time>
      </trkpt>
      <trkpt lat="42.476355" lon="1.48942667">
        <ele>929.0</ele>
        <time>2019-08-04T12:28:02.311Z</time>
      </trkpt>
      <trkpt lat="42.476355" lon="1.48942667">
        <ele>929.0</ele>
        <time>2019-08-04T12:28:03.305Z</time>
      </trkpt>
      <trkpt lat="42.47639833" lon="1.48967167">
        <ele>929.0</ele>
        <time>2019-08-04T12:28:04.327Z</time>
      </trkpt>
      <trkpt lat="42.476425" lon="1.48979">
        <ele>929.0</ele>
        <time>2019-08-04T12:28:05.305Z</time>
      </trkpt>
      <trkpt lat="42.47644333" lon="1.48990833">
        <ele>928.0</ele>
        <time>2019-08-04T12:28:06.321Z</time>
      </trkpt>
      <trkpt lat="42.47644333" lon="1.48990833">
        <ele>928.0</ele>
        <time>2019-08-04T12:28:07.305Z</time>
      </trkpt>
      <trkpt lat="42.47645667" lon="1.49013">
        <ele>928.0</ele>
        <time>2019-08-04T12:28:08.309Z</time>
      </trkpt>
      <trkpt lat="42.47645667" lon="1.49013">
        <ele>928.0</ele>
        <time>2019-08-04T12:28:09.324Z</time>
      </trkpt>
      <trkpt lat="42.47645667" lon="1.49013">
        <ele>928.0</ele>
        <time>2019-08-04T12:28:10.456Z</time>
      </trkpt>
      <trkpt lat="42.47645" lon="1.490345">
        <ele>927.0</ele>
        <time>2019-08-04T12:28:11.322Z</time>
      </trkpt>
      <trkpt lat="42.47644667" lon="1.49053667">
        <ele>927.0</ele>
        <time>2019-08-04T12:28:12.307Z</time>
      </trkpt>
      <trkpt lat="42.47644667" lon="1.49053667">
        <ele>927.0</ele>
        <time>2019-08-04T12:28:13.323Z</time>
      </trkpt>
      <trkpt lat="42.47659667" lon="1.49072333">
        <ele>926.0</ele>
        <time>2019-08-04T12:28:14.327Z</time>
      </trkpt>
      <trkpt lat="42.47659667" lon="1.49072333">
        <ele>926.0</ele>
        <time>2019-08-04T12:28:15.305Z</time>
      </trkpt>
      <trkpt lat="42.47675333" lon="1.49076833">
        <ele>925.0</ele>
        <time>2019-08-04T12:28:16.311Z</time>
      </trkpt>
      <trkpt lat="42.47675333" lon="1.49076833">
        <ele>925.0</ele>
        <time>2019-08-04T12:28:17.327Z</time>
      </trkpt>
      <trkpt lat="42.4769" lon="1.49075">
        <ele>925.0</ele>
        <time>2019-08-04T12:28:18.312Z</time>
      </trkpt>
      <trkpt lat="42.4769" lon="1.49075">
        <ele>925.0</ele>
        <time>2019-08-04T12:28:19.304Z</time>
      </trkpt>
      <trkpt lat="42.47707" lon="1.49072667">
        <ele>924.0</ele>
        <time>2019-08-04T12:28:20.310Z</time>
      </trkpt>
      <trkpt lat="42.47707" lon="1.49072667">
        <ele>924.0</ele>
        <time>2019-08-04T12:28:21.305Z</time>
      </trkpt>
      <trkpt lat="42.47724333" lon="1.49067833">
        <ele>924.0</ele>
        <time>2019-08-04T12:28:22.319Z</time>
      </trkpt>
      <trkpt lat="42.47724333" lon="1.49067833">
        <ele>924.0</ele>
        <time>2019-08-04T12:28:23.306Z</time>
      </trkpt>
      <trkpt lat="42.47724333" lon="1.49067833">
        <ele>924.0</ele>
        <time>2019-08-04T12:28:24.301Z</time>
      </trkpt>
      <trkpt lat="42.47741667" lon="1.49062333">
        <ele>924.0</ele>
        <time>2019-08-04T12:28:25.303Z</time>
      </trkpt>
      <trkpt lat="42.47759667" lon="1.49055">
        <ele>924.0</ele>
        <time>2019-08-04T12:28:26.305Z</time>
      </trkpt>
      <trkpt lat="42.47759667" lon="1.49055">
        <ele>924.0</ele>
        <time>2019-08-04T12:28:27.322Z</time>
      </trkpt>
      <trkpt lat="42.47776667" lon="1.490455">
        <ele>924.0</ele>
        <time>2019-08-04T12:28:28.310Z</time>
      </trkpt>
      <trkpt lat="42.47776667" lon="1.490455">
        <ele>924.0</ele>
        <time>2019-08-04T12:28:29.316Z</time>
      </trkpt>
      <trkpt lat="42.47794167" lon="1.49035833">
        <ele>924.0</ele>
        <time>2019-08-04T12:28:30.309Z</time>
      </trkpt>
      <trkpt lat="42.47803167" lon="1.49030333">
        <ele>924.0</ele>
        <time>2019-08-04T12:28:31.316Z</time>
      </trkpt>
      <trkpt lat="42.47803167" lon="1.49030333">
        <ele>924.0</ele>
        <time>2019-08-04T12:28:32.322Z</time>
      </trkpt>
      <trkpt lat="42.47820833" lon="1.4902">
        <ele>923.0</ele>
        <time>2019-08-04T12:28:33.308Z</time>
      </trkpt>
      <trkpt lat="42.4783" lon="1.49015">
        <ele>923.0</ele>
        <time>2019-08-04T12:28:34.331Z</time>
      </trkpt>
      <trkpt lat="42.4783" lon="1.49015">
        <ele>923.0</ele>
        <time>2019-08-04T12:28:35.308Z</time>
      </trkpt>
      <trkpt lat="42.478475" lon="1.490055">
        <ele>923.0</ele>
        <time>2019-08-04T12:28:36.310Z</time>
      </trkpt>
      <trkpt lat="42.478475" lon="1.490055">
        <ele>923.0</ele>
        <time>2019-08-04T12:28:37.327Z</time>
      </trkpt>
      <trkpt lat="42.47864333" lon="1.48995667">
        <ele>923.0</ele>
        <time>2019-08-04T12:28:38.309Z</time>
      </trkpt>
      <trkpt lat="42.47864333" lon="1.48995667">
        <ele>923.0</ele>
        <time>2019-08-04T12:28:39.306Z</time>
      </trkpt>
      <trkpt lat="42.47880833" lon="1.48985667">
        <ele>923.0</ele>
        <time>2019-08-04T12:28:40.328Z</time>
      </trkpt>
      <trkpt lat="42.47880833" lon="1.48985667">
        <ele>923.0</ele>
        <time>2019-08-04T12:28:41.305Z</time>
      </trkpt>
      <trkpt lat="42.47896667" lon="1.48976833">
        <ele>923.0</ele>
        <time>2019-08-04T12:28:42.327Z</time>
      </trkpt>
      <trkpt lat="42.47896667" lon="1.48976833">
        <ele>923.0</ele>
        <time>2019-08-04T12:28:43.306Z</time>
      </trkpt>
      <trkpt lat="42.47912" lon="1.48968833">
        <ele>923.0</ele>
        <time>2019-08-04T12:28:44.327Z</time>
      </trkpt>
      <trkpt lat="42.47912" lon="1.48968833">
        <ele>923.0</ele>
        <time>2019-08-04T12:28:45.303Z</time>
      </trkpt>
      <trkpt lat="42.47926667" lon="1.48961333">
        <ele>923.0</ele>
        <time>2019-08-04T12:28:46.324Z</time>
      </trkpt>
      <trkpt lat="42.47926667" lon="1.48961333">
        <ele>923.0</ele>
        <time>2019-08-04T12:28:47.305Z</time>
      </trkpt>
      <trkpt lat="42.47941833" lon="1.48955167">
        <ele>923.0</ele>
        <time>2019-08-04T12:28:48.310Z</time>
      </trkpt>
      <trkpt lat="42.47941833" lon="1.48955167">
        <ele>923.0</ele>
        <time>2019-08-04T12:28:49.307Z</time>
      </trkpt>
      <trkpt lat="42.47956167" lon="1.48952167">
        <ele>923.0</ele>
        <time>2019-08-04T12:28:50.310Z</time>
      </trkpt>
      <trkpt lat="42.47956167" lon="1.48952167">
        <ele>923.0</ele>
        <time>2019-08-04T12:28:51.305Z</time>
      </trkpt>
      <trkpt lat="42.47970667" lon="1.48949833">
        <ele>923.0</ele>
        <time>2019-08-04T12:28:52.310Z</time>
      </trkpt>
      <trkpt lat="42.47970667" lon="1.48949833">
        <ele>923.0</ele>
        <time>2019-08-04T12:28:53.306Z</time>
      </trkpt>
      <trkpt lat="42.47984833" lon="1.48948667">
        <ele>923.0</ele>
        <time>2019-08-04T12:28:54.326Z</time>
      </trkpt>
      <trkpt lat="42.47984833" lon="1.48948667">
        <ele>923.0</ele>
        <time>2019-08-04T12:28:55.305Z</time>
      </trkpt>
      <trkpt lat="42.47998167" lon="1.48948333">
        <ele>924.0</ele>
        <time>2019-08-04T12:28:56.308Z</time>
      </trkpt>
      <trkpt lat="42.47998167" lon="1.48948333">
        <ele>924.0</ele>
        <time>2019-08-04T12:28:57.305Z</time>
      </trkpt>
      <trkpt lat="42.48011167" lon="1.489485">
        <ele>926.0</ele>
        <time>2019-08-04T12:28:58.329Z</time>
      </trkpt>
      <trkpt lat="42.48017333" lon="1.48948167">
        <ele>927.0</ele>
        <time>2019-08-04T12:28:59.309Z</time>
      </trkpt>
      <trkpt lat="42.48017333" lon="1.48948167">
        <ele>927.0</ele>
        <time>2019-08-04T12:29:00.327Z</time>
      </trkpt>
      <trkpt lat="42.48029833" lon="1.489485">
        <ele>929.0</ele>
        <time>2019-08-04T12:29:01.328Z</time>
      </trkpt>
      <trkpt lat="42.48029833" lon="1.489485">
        <ele>929.0</ele>
        <time>2019-08-04T12:29:02.318Z</time>
      </trkpt>
      <trkpt lat="42.48042333" lon="1.4895">
        <ele>930.0</ele>
        <time>2019-08-04T12:29:03.312Z</time>
      </trkpt>
      <trkpt lat="42.48042333" lon="1.4895">
        <ele>930.0</ele>
        <time>2019-08-04T12:29:04.303Z</time>
      </trkpt>
      <trkpt lat="42.48054667" lon="1.48951667">
        <ele>930.0</ele>
        <time>2019-08-04T12:29:05.319Z</time>
      </trkpt>
      <trkpt lat="42.48060833" lon="1.48952667">
        <ele>930.0</ele>
        <time>2019-08-04T12:29:06.313Z</time>
      </trkpt>
      <trkpt lat="42.48060833" lon="1.48952667">
        <ele>930.0</ele>
        <time>2019-08-04T12:29:07.302Z</time>
      </trkpt>
      <trkpt lat="42.48072833" lon="1.489545">
        <ele>931.0</ele>
        <time>2019-08-04T12:29:08.323Z</time>
      </trkpt>
      <trkpt lat="42.48072833" lon="1.489545">
        <ele>931.0</ele>
        <time>2019-08-04T12:29:09.305Z</time>
      </trkpt>
      <trkpt lat="42.48084833" lon="1.48956333">
        <ele>931.0</ele>
        <time>2019-08-04T12:29:10.327Z</time>
      </trkpt>
      <trkpt lat="42.48090833" lon="1.48957333">
        <ele>931.0</ele>
        <time>2019-08-04T12:29:11.305Z</time>
      </trkpt>
      <trkpt lat="42.48090833" lon="1.48957333">
        <ele>931.0</ele>
        <time>2019-08-04T12:29:12.321Z</time>
      </trkpt>
      <trkpt lat="42.481025" lon="1.48959167">
        <ele>931.0</ele>
        <time>2019-08-04T12:29:13.308Z</time>
      </trkpt>
      <trkpt lat="42.481025" lon="1.48959167">
        <ele>931.0</ele>
        <time>2019-08-04T12:29:14.323Z</time>
      </trkpt>
      <trkpt lat="42.48113833" lon="1.48960833">
        <ele>932.0</ele>
        <time>2019-08-04T12:29:15.308Z</time>
      </trkpt>
      <trkpt lat="42.48119333" lon="1.48962">
        <ele>932.0</ele>
        <time>2019-08-04T12:29:16.324Z</time>
      </trkpt>
      <trkpt lat="42.48119333" lon="1.48962">
        <ele>932.0</ele>
        <time>2019-08-04T12:29:17.305Z</time>
      </trkpt>
      <trkpt lat="42.48119333" lon="1.48962">
        <ele>932.0</ele>
        <time>2019-08-04T12:29:18.462Z</time>
      </trkpt>
      <trkpt lat="42.4813" lon="1.48964333">
        <ele>932.0</ele>
        <time>2019-08-04T12:29:19.317Z</time>
      </trkpt>
      <trkpt lat="42.48140833" lon="1.489665">
        <ele>932.0</ele>
        <time>2019-08-04T12:29:20.307Z</time>
      </trkpt>
      <trkpt lat="42.48146" lon="1.48967833">
        <ele>933.0</ele>
        <time>2019-08-04T12:29:21.323Z</time>
      </trkpt>
      <trkpt lat="42.48151167" lon="1.48969167">
        <ele>933.0</ele>
        <time>2019-08-04T12:29:22.310Z</time>
      </trkpt>
      <trkpt lat="42.48151167" lon="1.48969167">
        <ele>933.0</ele>
        <time>2019-08-04T12:29:23.304Z</time>
      </trkpt>
      <trkpt lat="42.48161833" lon="1.489725">
        <ele>933.0</ele>
        <time>2019-08-04T12:29:24.315Z</time>
      </trkpt>
      <trkpt lat="42.48161833" lon="1.489725">
        <ele>933.0</ele>
        <time>2019-08-04T12:29:25.304Z</time>
      </trkpt>
      <trkpt lat="42.48171833" lon="1.48976167">
        <ele>933.0</ele>
        <time>2019-08-04T12:29:26.310Z</time>
      </trkpt>
      <trkpt lat="42.48171833" lon="1.48976167">
        <ele>933.0</ele>
        <time>2019-08-04T12:29:27.306Z</time>
      </trkpt>
      <trkpt lat="42.48182" lon="1.48980333">
        <ele>934.0</ele>
        <time>2019-08-04T12:29:28.330Z</time>
      </trkpt>
      <trkpt lat="42.48182" lon="1.48980333">
        <ele>934.0</ele>
        <time>2019-08-04T12:29:29.324Z</time>
      </trkpt>
      <trkpt lat="42.48192333" lon="1.489845">
        <ele>934.0</ele>
        <time>2019-08-04T12:29:30.298Z</time>
      </trkpt>
      <trkpt lat="42.48197333" lon="1.489865">
        <ele>934.0</ele>
        <time>2019-08-04T12:29:31.308Z</time>
      </trkpt>
      <trkpt lat="42.48197333" lon="1.489865">
        <ele>934.0</ele>
        <time>2019-08-04T12:29:32.328Z</time>
      </trkpt>
      <trkpt lat="42.48207" lon="1.48991">
        <ele>935.0</ele>
        <time>2019-08-04T12:29:33.309Z</time>
      </trkpt>
      <trkpt lat="42.48207" lon="1.48991">
        <ele>935.0</ele>
        <time>2019-08-04T12:29:34.304Z</time>
      </trkpt>
      <trkpt lat="42.48216667" lon="1.48995833">
        <ele>936.0</ele>
        <time>2019-08-04T12:29:35.323Z</time>
      </trkpt>
      <trkpt lat="42.48216667" lon="1.48995833">
        <ele>936.0</ele>
        <time>2019-08-04T12:29:36.306Z</time>
      </trkpt>
      <trkpt lat="42.48226833" lon="1.49000667">
        <ele>936.0</ele>
        <time>2019-08-04T12:29:37.328Z</time>
      </trkpt>
      <trkpt lat="42.48231667" lon="1.49003333">
        <ele>936.0</ele>
        <time>2019-08-04T12:29:38.310Z</time>
      </trkpt>
      <trkpt lat="42.48231667" lon="1.49003333">
        <ele>936.0</ele>
        <time>2019-08-04T12:29:39.305Z</time>
      </trkpt>
      <trkpt lat="42.482415" lon="1.49009">
        <ele>936.0</ele>
        <time>2019-08-04T12:29:40.321Z</time>
      </trkpt>
      <trkpt lat="42.482415" lon="1.49009">
        <ele>936.0</ele>
        <time>2019-08-04T12:29:41.314Z</time>
      </trkpt>
      <trkpt lat="42.48251" lon="1.49014167">
        <ele>937.0</ele>
        <time>2019-08-04T12:29:42.308Z</time>
      </trkpt>
      <trkpt lat="42.48251" lon="1.49014167">
        <ele>937.0</ele>
        <time>2019-08-04T12:29:43.324Z</time>
      </trkpt>
      <trkpt lat="42.482605" lon="1.49019667">
        <ele>937.0</ele>
        <time>2019-08-04T12:29:44.321Z</time>
      </trkpt>
      <trkpt lat="42.482605" lon="1.49019667">
        <ele>937.0</ele>
        <time>2019-08-04T12:29:45.304Z</time>
      </trkpt>
      <trkpt lat="42.48269667" lon="1.49024833">
        <ele>937.0</ele>
        <time>2019-08-04T12:29:46.324Z</time>
      </trkpt>
      <trkpt lat="42.48269667" lon="1.49024833">
        <ele>937.0</ele>
        <time>2019-08-04T12:29:47.306Z</time>
      </trkpt>
      <trkpt lat="42.48279167" lon="1.49030333">
        <ele>938.0</ele>
        <time>2019-08-04T12:29:48.309Z</time>
      </trkpt>
      <trkpt lat="42.48279167" lon="1.49030333">
        <ele>938.0</ele>
        <time>2019-08-04T12:29:49.324Z</time>
      </trkpt>
      <trkpt lat="42.48289167" lon="1.49035833">
        <ele>938.0</ele>
        <time>2019-08-04T12:29:50.309Z</time>
      </trkpt>
      <trkpt lat="42.48289167" lon="1.49035833">
        <ele>938.0</ele>
        <time>2019-08-04T12:29:51.332Z</time>
      </trkpt>
      <trkpt lat="42.48298" lon="1.49040833">
        <ele>939.0</ele>
        <time>2019-08-04T12:29:52.314Z</time>
      </trkpt>
      <trkpt lat="42.48298" lon="1.49040833">
        <ele>939.0</ele>
        <time>2019-08-04T12:29:53.306Z</time>
      </trkpt>
      <trkpt lat="42.48306333" lon="1.49046">
        <ele>939.0</ele>
        <time>2019-08-04T12:29:54.320Z</time>
      </trkpt>
      <trkpt lat="42.48310167" lon="1.49048833">
        <ele>939.0</ele>
        <time>2019-08-04T12:29:55.306Z</time>
      </trkpt>
      <trkpt lat="42.48310167" lon="1.49048833">
        <ele>939.0</ele>
        <time>2019-08-04T12:29:56.322Z</time>
      </trkpt>
      <trkpt lat="42.48318167" lon="1.490545">
        <ele>939.0</ele>
        <time>2019-08-04T12:29:57.308Z</time>
      </trkpt>
      <trkpt lat="42.48322667" lon="1.49057167">
        <ele>939.0</ele>
        <time>2019-08-04T12:29:58.327Z</time>
      </trkpt>
      <trkpt lat="42.48322667" lon="1.49057167">
        <ele>939.0</ele>
        <time>2019-08-04T12:29:59.306Z</time>
      </trkpt>
      <trkpt lat="42.48330667" lon="1.49061833">
        <ele>940.0</ele>
        <time>2019-08-04T12:30:00.311Z</time>
      </trkpt>
      <trkpt lat="42.48330667" lon="1.49061833">
        <ele>940.0</ele>
        <time>2019-08-04T12:30:01.305Z</time>
      </trkpt>
      <trkpt lat="42.48339167" lon="1.49066833">
        <ele>941.0</ele>
        <time>2019-08-04T12:30:02.328Z</time>
      </trkpt>
      <trkpt lat="42.48343833" lon="1.49069167">
        <ele>941.0</ele>
        <time>2019-08-04T12:30:03.308Z</time>
      </trkpt>
      <trkpt lat="42.48348333" lon="1.49071333">
        <ele>941.0</ele>
        <time>2019-08-04T12:30:04.324Z</time>
      </trkpt>
      <trkpt lat="42.48348333" lon="1.49071333">
        <ele>941.0</ele>
        <time>2019-08-04T12:30:05.306Z</time>
      </trkpt>
      <trkpt lat="42.48357833" lon="1.49076333">
        <ele>942.0</ele>
        <time>2019-08-04T12:30:06.309Z</time>
      </trkpt>
      <trkpt lat="42.48357833" lon="1.49076333">
        <ele>942.0</ele>
        <time>2019-08-04T12:30:07.328Z</time>
      </trkpt>
      <trkpt lat="42.48367167" lon="1.49080667">
        <ele>942.0</ele>
        <time>2019-08-04T12:30:08.309Z</time>
      </trkpt>
      <trkpt lat="42.48367167" lon="1.49080667">
        <ele>942.0</ele>
        <time>2019-08-04T12:30:09.305Z</time>
      </trkpt>
      <trkpt lat="42.48376167" lon="1.490855">
        <ele>943.0</ele>
        <time>2019-08-04T12:30:10.306Z</time>
      </trkpt>
      <trkpt lat="42.48376167" lon="1.490855">
        <ele>943.0</ele>
        <time>2019-08-04T12:30:11.322Z</time>
      </trkpt>
      <trkpt lat="42.48385167" lon="1.49090667">
        <ele>943.0</ele>
        <time>2019-08-04T12:30:12.309Z</time>
      </trkpt>
      <trkpt lat="42.48389667" lon="1.49092833">
        <ele>943.0</ele>
        <time>2019-08-04T12:30:13.310Z</time>
      </trkpt>
      <trkpt lat="42.48389667" lon="1.49092833">
        <ele>943.0</ele>
        <time>2019-08-04T12:30:14.318Z</time>
      </trkpt>
      <trkpt lat="42.48397833" lon="1.49097833">
        <ele>943.0</ele>
        <time>2019-08-04T12:30:15.306Z</time>
      </trkpt>
      <trkpt lat="42.48397833" lon="1.49097833">
        <ele>943.0</ele>
        <time>2019-08-04T12:30:16.451Z</time>
      </trkpt>
      <trkpt lat="42.48401667" lon="1.49100667">
        <ele>943.0</ele>
        <time>2019-08-04T12:30:17.320Z</time>
      </trkpt>
      <trkpt lat="42.484075" lon="1.49108667">
        <ele>943.0</ele>
        <time>2019-08-04T12:30:18.309Z</time>
      </trkpt>
      <trkpt lat="42.484075" lon="1.49108667">
        <ele>943.0</ele>
        <time>2019-08-04T12:30:19.303Z</time>
      </trkpt>
      <trkpt lat="42.48411167" lon="1.49119667">
        <ele>943.0</ele>
        <time>2019-08-04T12:30:20.324Z</time>
      </trkpt>
      <trkpt lat="42.48411167" lon="1.49119667">
        <ele>943.0</ele>
        <time>2019-08-04T12:30:21.305Z</time>
      </trkpt>
      <trkpt lat="42.48415333" lon="1.49131167">
        <ele>943.0</ele>
        <time>2019-08-04T12:30:22.329Z</time>
      </trkpt>
      <trkpt lat="42.48418167" lon="1.49136167">
        <ele>943.0</ele>
        <time>2019-08-04T12:30:23.308Z</time>
      </trkpt>
      <trkpt lat="42.48421667" lon="1.49140333">
        <ele>944.0</ele>
        <time>2019-08-04T12:30:24.333Z</time>
      </trkpt>
      <trkpt lat="42.48421667" lon="1.49140333">
        <ele>944.0</ele>
        <time>2019-08-04T12:30:25.309Z</time>
      </trkpt>
      <trkpt lat="42.484295" lon="1.49147333">
        <ele>944.0</ele>
        <time>2019-08-04T12:30:26.308Z</time>
      </trkpt>
      <trkpt lat="42.484295" lon="1.49147333">
        <ele>944.0</ele>
        <time>2019-08-04T12:30:27.305Z</time>
      </trkpt>
      <trkpt lat="42.48436667" lon="1.49155">
        <ele>944.0</ele>
        <time>2019-08-04T12:30:28.310Z</time>
      </trkpt>
      <trkpt lat="42.48436667" lon="1.49155">
        <ele>944.0</ele>
        <time>2019-08-04T12:30:29.333Z</time>
      </trkpt>
      <trkpt lat="42.48442667" lon="1.49164167">
        <ele>944.0</ele>
        <time>2019-08-04T12:30:30.314Z</time>
      </trkpt>
      <trkpt lat="42.484455" lon="1.49168833">
        <ele>944.0</ele>
        <time>2019-08-04T12:30:31.324Z</time>
      </trkpt>
      <trkpt lat="42.484455" lon="1.49168833">
        <ele>944.0</ele>
        <time>2019-08-04T12:30:32.306Z</time>
      </trkpt>
      <trkpt lat="42.48450833" lon="1.49179">
        <ele>945.0</ele>
        <time>2019-08-04T12:30:33.309Z</time>
      </trkpt>
      <trkpt lat="42.48452667" lon="1.49184667">
        <ele>945.0</ele>
        <time>2019-08-04T12:30:34.327Z</time>
      </trkpt>
      <trkpt lat="42.48452667" lon="1.49184667">
        <ele>945.0</ele>
        <time>2019-08-04T12:30:35.305Z</time>
      </trkpt>
      <trkpt lat="42.48455167" lon="1.49196667">
        <ele>945.0</ele>
        <time>2019-08-04T12:30:36.327Z</time>
      </trkpt>
      <trkpt lat="42.48455167" lon="1.49196667">
        <ele>945.0</ele>
        <time>2019-08-04T12:30:37.304Z</time>
      </trkpt>
      <trkpt lat="42.48458667" lon="1.49209">
        <ele>945.0</ele>
        <time>2019-08-04T12:30:38.309Z</time>
      </trkpt>
      <trkpt lat="42.48461" lon="1.49215">
        <ele>946.0</ele>
        <time>2019-08-04T12:30:39.310Z</time>
      </trkpt>
      <trkpt lat="42.48461" lon="1.49215">
        <ele>946.0</ele>
        <time>2019-08-04T12:30:40.305Z</time>
      </trkpt>
      <trkpt lat="42.484665" lon="1.49227">
        <ele>946.0</ele>
        <time>2019-08-04T12:30:41.326Z</time>
      </trkpt>
      <trkpt lat="42.48468833" lon="1.49233333">
        <ele>946.0</ele>
        <time>2019-08-04T12:30:42.310Z</time>
      </trkpt>
      <trkpt lat="42.48468833" lon="1.49233333">
        <ele>946.0</ele>
        <time>2019-08-04T12:30:43.307Z</time>
      </trkpt>
      <trkpt lat="42.48472667" lon="1.492465">
        <ele>946.0</ele>
        <time>2019-08-04T12:30:44.318Z</time>
      </trkpt>
      <trkpt lat="42.48472667" lon="1.492465">
        <ele>946.0</ele>
        <time>2019-08-04T12:30:45.305Z</time>
      </trkpt>
      <trkpt lat="42.484775" lon="1.49259667">
        <ele>946.0</ele>
        <time>2019-08-04T12:30:46.325Z</time>
      </trkpt>
      <trkpt lat="42.484775" lon="1.49259667">
        <ele>946.0</ele>
        <time>2019-08-04T12:30:47.304Z</time>
      </trkpt>
      <trkpt lat="42.48484167" lon="1.49271833">
        <ele>946.0</ele>
        <time>2019-08-04T12:30:48.329Z</time>
      </trkpt>
      <trkpt lat="42.48487833" lon="1.49277833">
        <ele>946.0</ele>
        <time>2019-08-04T12:30:49.308Z</time>
      </trkpt>
      <trkpt lat="42.484915" lon="1.49284167">
        <ele>946.0</ele>
        <time>2019-08-04T12:30:50.324Z</time>
      </trkpt>
      <trkpt lat="42.484915" lon="1.49284167">
        <ele>946.0</ele>
        <time>2019-08-04T12:30:51.305Z</time>
      </trkpt>
      <trkpt lat="42.48499167" lon="1.49296833">
        <ele>946.0</ele>
        <time>2019-08-04T12:30:52.329Z</time>
      </trkpt>
      <trkpt lat="42.48503167" lon="1.49303167">
        <ele>946.0</ele>
        <time>2019-08-04T12:30:53.307Z</time>
      </trkpt>
      <trkpt lat="42.48507167" lon="1.49309167">
        <ele>946.0</ele>
        <time>2019-08-04T12:30:54.318Z</time>
      </trkpt>
      <trkpt lat="42.48507167" lon="1.49309167">
        <ele>946.0</ele>
        <time>2019-08-04T12:30:55.305Z</time>
      </trkpt>
      <trkpt lat="42.48515" lon="1.493215">
        <ele>946.0</ele>
        <time>2019-08-04T12:30:56.306Z</time>
      </trkpt>
      <trkpt lat="42.48515" lon="1.493215">
        <ele>946.0</ele>
        <time>2019-08-04T12:30:57.322Z</time>
      </trkpt>
      <trkpt lat="42.48523" lon="1.49333833">
        <ele>946.0</ele>
        <time>2019-08-04T12:30:58.311Z</time>
      </trkpt>
      <trkpt lat="42.48523" lon="1.49333833">
        <ele>946.0</ele>
        <time>2019-08-04T12:30:59.304Z</time>
      </trkpt>
      <trkpt lat="42.48531" lon="1.49346333">
        <ele>946.0</ele>
        <time>2019-08-04T12:31:00.323Z</time>
      </trkpt>
      <trkpt lat="42.48531" lon="1.49346333">
        <ele>946.0</ele>
        <time>2019-08-04T12:31:01.303Z</time>
      </trkpt>
      <trkpt lat="42.48538833" lon="1.493585">
        <ele>946.0</ele>
        <time>2019-08-04T12:31:02.325Z</time>
      </trkpt>
      <trkpt lat="42.48538833" lon="1.493585">
        <ele>946.0</ele>
        <time>2019-08-04T12:31:03.306Z</time>
      </trkpt>
      <trkpt lat="42.48546667" lon="1.49370667">
        <ele>946.0</ele>
        <time>2019-08-04T12:31:04.331Z</time>
      </trkpt>
      <trkpt lat="42.48546667" lon="1.49370667">
        <ele>946.0</ele>
        <time>2019-08-04T12:31:05.309Z</time>
      </trkpt>
      <trkpt lat="42.48554667" lon="1.49382167">
        <ele>946.0</ele>
        <time>2019-08-04T12:31:06.310Z</time>
      </trkpt>
      <trkpt lat="42.48554667" lon="1.49382167">
        <ele>946.0</ele>
        <time>2019-08-04T12:31:07.305Z</time>
      </trkpt>
      <trkpt lat="42.48563167" lon="1.49393333">
        <ele>945.0</ele>
        <time>2019-08-04T12:31:08.306Z</time>
      </trkpt>
      <trkpt lat="42.48563167" lon="1.49393333">
        <ele>945.0</ele>
        <time>2019-08-04T12:31:09.323Z</time>
      </trkpt>
      <trkpt lat="42.48572" lon="1.49404167">
        <ele>945.0</ele>
        <time>2019-08-04T12:31:10.309Z</time>
      </trkpt>
      <trkpt lat="42.48572" lon="1.49404167">
        <ele>945.0</ele>
        <time>2019-08-04T12:31:11.327Z</time>
      </trkpt>
      <trkpt lat="42.48580833" lon="1.49414167">
        <ele>946.0</ele>
        <time>2019-08-04T12:31:12.311Z</time>
      </trkpt>
      <trkpt lat="42.48580833" lon="1.49414167">
        <ele>946.0</ele>
        <time>2019-08-04T12:31:13.305Z</time>
      </trkpt>
      <trkpt lat="42.48580833" lon="1.49414167">
        <ele>946.0</ele>
        <time>2019-08-04T12:31:14.483Z</time>
      </trkpt>
      <trkpt lat="42.48589833" lon="1.49424">
        <ele>946.0</ele>
        <time>2019-08-04T12:31:15.304Z</time>
      </trkpt>
      <trkpt lat="42.48599" lon="1.494335">
        <ele>946.0</ele>
        <time>2019-08-04T12:31:16.325Z</time>
      </trkpt>
      <trkpt lat="42.48599" lon="1.494335">
        <ele>946.0</ele>
        <time>2019-08-04T12:31:17.306Z</time>
      </trkpt>
      <trkpt lat="42.48608" lon="1.494425">
        <ele>946.0</ele>
        <time>2019-08-04T12:31:18.309Z</time>
      </trkpt>
      <trkpt lat="42.48608" lon="1.494425">
        <ele>946.0</ele>
        <time>2019-08-04T12:31:19.304Z</time>
      </trkpt>
      <trkpt lat="42.48617333" lon="1.49450667">
        <ele>947.0</ele>
        <time>2019-08-04T12:31:20.324Z</time>
      </trkpt>
      <trkpt lat="42.48617333" lon="1.49450667">
        <ele>947.0</ele>
        <time>2019-08-04T12:31:21.305Z</time>
      </trkpt>
      <trkpt lat="42.48627" lon="1.49457833">
        <ele>947.0</ele>
        <time>2019-08-04T12:31:22.321Z</time>
      </trkpt>
      <trkpt lat="42.48632167" lon="1.49461">
        <ele>947.0</ele>
        <time>2019-08-04T12:31:23.307Z</time>
      </trkpt>
      <trkpt lat="42.48637" lon="1.49463833">
        <ele>947.0</ele>
        <time>2019-08-04T12:31:24.324Z</time>
      </trkpt>
      <trkpt lat="42.48637" lon="1.49463833">
        <ele>947.0</ele>
        <time>2019-08-04T12:31:25.305Z</time>
      </trkpt>
      <trkpt lat="42.48647" lon="1.49469333">
        <ele>947.0</ele>
        <time>2019-08-04T12:31:26.310Z</time>
      </trkpt>
      <trkpt lat="42.48647" lon="1.49469333">
        <ele>947.0</ele>
        <time>2019-08-04T12:31:27.329Z</time>
      </trkpt>
      <trkpt lat="42.48656833" lon="1.49474167">
        <ele>947.0</ele>
        <time>2019-08-04T12:31:28.325Z</time>
      </trkpt>
      <trkpt lat="42.48656833" lon="1.49474167">
        <ele>947.0</ele>
        <time>2019-08-04T12:31:29.335Z</time>
      </trkpt>
      <trkpt lat="42.48667" lon="1.49477833">
        <ele>948.0</ele>
        <time>2019-08-04T12:31:30.304Z</time>
      </trkpt>
      <trkpt lat="42.48672167" lon="1.49479667">
        <ele>948.0</ele>
        <time>2019-08-04T12:31:31.311Z</time>
      </trkpt>
      <trkpt lat="42.48672167" lon="1.49479667">
        <ele>948.0</ele>
        <time>2019-08-04T12:31:32.314Z</time>
      </trkpt>
      <trkpt lat="42.486825" lon="1.49482167">
        <ele>948.0</ele>
        <time>2019-08-04T12:31:33.310Z</time>
      </trkpt>
      <trkpt lat="42.486825" lon="1.49482167">
        <ele>948.0</ele>
        <time>2019-08-04T12:31:34.301Z</time>
      </trkpt>
      <trkpt lat="42.48687667" lon="1.49483167">
        <ele>948.0</ele>
        <time>2019-08-04T12:31:35.311Z</time>
      </trkpt>
      <trkpt lat="42.48698167" lon="1.494845">
        <ele>948.0</ele>
        <time>2019-08-04T12:31:36.310Z</time>
      </trkpt>
      <trkpt lat="42.48698167" lon="1.494845">
        <ele>948.0</ele>
        <time>2019-08-04T12:31:37.305Z</time>
      </trkpt>
      <trkpt lat="42.48708167" lon="1.49484667">
        <ele>948.0</ele>
        <time>2019-08-04T12:31:38.310Z</time>
      </trkpt>
      <trkpt lat="42.48708167" lon="1.49484667">
        <ele>948.0</ele>
        <time>2019-08-04T12:31:39.304Z</time>
      </trkpt>
      <trkpt lat="42.48718" lon="1.49484333">
        <ele>949.0</ele>
        <time>2019-08-04T12:31:40.324Z</time>
      </trkpt>
      <trkpt lat="42.48718" lon="1.49484333">
        <ele>949.0</ele>
        <time>2019-08-04T12:31:41.305Z</time>
      </trkpt>
      <trkpt lat="42.48727167" lon="1.49483">
        <ele>949.0</ele>
        <time>2019-08-04T12:31:42.310Z</time>
      </trkpt>
      <trkpt lat="42.48727167" lon="1.49483">
        <ele>949.0</ele>
        <time>2019-08-04T12:31:43.307Z</time>
      </trkpt>
      <trkpt lat="42.487365" lon="1.49481667">
        <ele>949.0</ele>
        <time>2019-08-04T12:31:44.319Z</time>
      </trkpt>
      <trkpt lat="42.487365" lon="1.49481667">
        <ele>949.0</ele>
        <time>2019-08-04T12:31:45.303Z</time>
      </trkpt>
      <trkpt lat="42.487455" lon="1.49479667">
        <ele>950.0</ele>
        <time>2019-08-04T12:31:46.324Z</time>
      </trkpt>
      <trkpt lat="42.487455" lon="1.49479667">
        <ele>950.0</ele>
        <time>2019-08-04T12:31:47.306Z</time>
      </trkpt>
      <trkpt lat="42.48754667" lon="1.49477833">
        <ele>950.0</ele>
        <time>2019-08-04T12:31:48.310Z</time>
      </trkpt>
      <trkpt lat="42.487595" lon="1.49477167">
        <ele>950.0</ele>
        <time>2019-08-04T12:31:49.317Z</time>
      </trkpt>
      <trkpt lat="42.487595" lon="1.49477167">
        <ele>950.0</ele>
        <time>2019-08-04T12:31:50.304Z</time>
      </trkpt>
      <trkpt lat="42.48768833" lon="1.494765">
        <ele>951.0</ele>
        <time>2019-08-04T12:31:51.325Z</time>
      </trkpt>
      <trkpt lat="42.487735" lon="1.49476833">
        <ele>951.0</ele>
        <time>2019-08-04T12:31:52.321Z</time>
      </trkpt>
      <trkpt lat="42.487735" lon="1.49476833">
        <ele>951.0</ele>
        <time>2019-08-04T12:31:53.312Z</time>
      </trkpt>
      <trkpt lat="42.487825" lon="1.49477833">
        <ele>952.0</ele>
        <time>2019-08-04T12:31:54.328Z</time>
      </trkpt>
      <trkpt lat="42.487825" lon="1.49477833">
        <ele>952.0</ele>
        <time>2019-08-04T12:31:55.306Z</time>
      </trkpt>
      <trkpt lat="42.48790833" lon="1.49480333">
        <ele>952.0</ele>
        <time>2019-08-04T12:31:56.306Z</time>
      </trkpt>
      <trkpt lat="42.48790833" lon="1.49480333">
        <ele>952.0</ele>
        <time>2019-08-04T12:31:57.324Z</time>
      </trkpt>
      <trkpt lat="42.487985" lon="1.49483833">
        <ele>952.0</ele>
        <time>2019-08-04T12:31:58.312Z</time>
      </trkpt>
      <trkpt lat="42.487985" lon="1.49483833">
        <ele>952.0</ele>
        <time>2019-08-04T12:31:59.304Z</time>
      </trkpt>
      <trkpt lat="42.48806" lon="1.49488833">
        <ele>953.0</ele>
        <time>2019-08-04T12:32:00.325Z</time>
      </trkpt>
      <trkpt lat="42.48806" lon="1.49488833">
        <ele>953.0</ele>
        <time>2019-08-04T12:32:01.307Z</time>
      </trkpt>
      <trkpt lat="42.48812667" lon="1.49494333">
        <ele>953.0</ele>
        <time>2019-08-04T12:32:02.306Z</time>
      </trkpt>
      <trkpt lat="42.48812667" lon="1.49494333">
        <ele>953.0</ele>
        <time>2019-08-04T12:32:03.323Z</time>
      </trkpt>
      <trkpt lat="42.48818667" lon="1.49501333">
        <ele>954.0</ele>
        <time>2019-08-04T12:32:04.320Z</time>
      </trkpt>
      <trkpt lat="42.48818667" lon="1.49501333">
        <ele>954.0</ele>
        <time>2019-08-04T12:32:05.303Z</time>
      </trkpt>
      <trkpt lat="42.48824167" lon="1.49508667">
        <ele>954.0</ele>
        <time>2019-08-04T12:32:06.323Z</time>
      </trkpt>
      <trkpt lat="42.48824167" lon="1.49508667">
        <ele>954.0</ele>
        <time>2019-08-04T12:32:07.303Z</time>
      </trkpt>
      <trkpt lat="42.48829" lon="1.495165">
        <ele>955.0</ele>
        <time>2019-08-04T12:32:08.306Z</time>
      </trkpt>
      <trkpt lat="42.48829" lon="1.495165">
        <ele>955.0</ele>
        <time>2019-08-04T12:32:09.322Z</time>
      </trkpt>
      <trkpt lat="42.48829" lon="1.495165">
        <ele>955.0</ele>
        <time>2019-08-04T12:32:10.462Z</time>
      </trkpt>
      <trkpt lat="42.48834167" lon="1.49523833">
        <ele>955.0</ele>
        <time>2019-08-04T12:32:11.304Z</time>
      </trkpt>
      <trkpt lat="42.48838833" lon="1.49530833">
        <ele>956.0</ele>
        <time>2019-08-04T12:32:12.307Z</time>
      </trkpt>
      <trkpt lat="42.48838833" lon="1.49530833">
        <ele>956.0</ele>
        <time>2019-08-04T12:32:13.324Z</time>
      </trkpt>
      <trkpt lat="42.48843" lon="1.495365">
        <ele>957.0</ele>
        <time>2019-08-04T12:32:14.319Z</time>
      </trkpt>
      <trkpt lat="42.48843" lon="1.495365">
        <ele>957.0</ele>
        <time>2019-08-04T12:32:15.304Z</time>
      </trkpt>
      <trkpt lat="42.48847833" lon="1.49542167">
        <ele>957.0</ele>
        <time>2019-08-04T12:32:16.325Z</time>
      </trkpt>
      <trkpt lat="42.48847833" lon="1.49542167">
        <ele>957.0</ele>
        <time>2019-08-04T12:32:17.305Z</time>
      </trkpt>
      <trkpt lat="42.48853" lon="1.49547">
        <ele>958.0</ele>
        <time>2019-08-04T12:32:18.310Z</time>
      </trkpt>
      <trkpt lat="42.48853" lon="1.49547">
        <ele>958.0</ele>
        <time>2019-08-04T12:32:19.298Z</time>
      </trkpt>
      <trkpt lat="42.48857833" lon="1.49551167">
        <ele>958.0</ele>
        <time>2019-08-04T12:32:20.307Z</time>
      </trkpt>
      <trkpt lat="42.48857833" lon="1.49551167">
        <ele>958.0</ele>
        <time>2019-08-04T12:32:21.325Z</time>
      </trkpt>
      <trkpt lat="42.48863" lon="1.49556">
        <ele>959.0</ele>
        <time>2019-08-04T12:32:22.310Z</time>
      </trkpt>
      <trkpt lat="42.488655" lon="1.495585">
        <ele>959.0</ele>
        <time>2019-08-04T12:32:23.309Z</time>
      </trkpt>
      <trkpt lat="42.48868" lon="1.49560833">
        <ele>960.0</ele>
        <time>2019-08-04T12:32:24.327Z</time>
      </trkpt>
      <trkpt lat="42.48868" lon="1.49560833">
        <ele>960.0</ele>
        <time>2019-08-04T12:32:25.305Z</time>
      </trkpt>
      <trkpt lat="42.48873333" lon="1.495655">
        <ele>960.0</ele>
        <time>2019-08-04T12:32:26.320Z</time>
      </trkpt>
      <trkpt lat="42.48873333" lon="1.495655">
        <ele>960.0</ele>
        <time>2019-08-04T12:32:27.304Z</time>
      </trkpt>
      <trkpt lat="42.48878833" lon="1.495705">
        <ele>961.0</ele>
        <time>2019-08-04T12:32:28.325Z</time>
      </trkpt>
      <trkpt lat="42.48878833" lon="1.495705">
        <ele>961.0</ele>
        <time>2019-08-04T12:32:29.296Z</time>
      </trkpt>
      <trkpt lat="42.48885" lon="1.49575167">
        <ele>961.0</ele>
        <time>2019-08-04T12:32:30.310Z</time>
      </trkpt>
      <trkpt lat="42.48885" lon="1.49575167">
        <ele>961.0</ele>
        <time>2019-08-04T12:32:31.316Z</time>
      </trkpt>
      <trkpt lat="42.48890833" lon="1.495805">
        <ele>962.0</ele>
        <time>2019-08-04T12:32:32.322Z</time>
      </trkpt>
      <trkpt lat="42.48893833" lon="1.49583333">
        <ele>963.0</ele>
        <time>2019-08-04T12:32:33.310Z</time>
      </trkpt>
      <trkpt lat="42.48897333" lon="1.49586">
        <ele>963.0</ele>
        <time>2019-08-04T12:32:34.321Z</time>
      </trkpt>
      <trkpt lat="42.48897333" lon="1.49586">
        <ele>963.0</ele>
        <time>2019-08-04T12:32:35.304Z</time>
      </trkpt>
      <trkpt lat="42.48903833" lon="1.49591333">
        <ele>963.0</ele>
        <time>2019-08-04T12:32:36.311Z</time>
      </trkpt>
      <trkpt lat="42.48903833" lon="1.49591333">
        <ele>963.0</ele>
        <time>2019-08-04T12:32:37.329Z</time>
      </trkpt>
      <trkpt lat="42.48910667" lon="1.49596">
        <ele>964.0</ele>
        <time>2019-08-04T12:32:38.311Z</time>
      </trkpt>
      <trkpt lat="42.48910667" lon="1.49596">
        <ele>964.0</ele>
        <time>2019-08-04T12:32:39.304Z</time>
      </trkpt>
      <trkpt lat="42.48917333" lon="1.496015">
        <ele>965.0</ele>
        <time>2019-08-04T12:32:40.325Z</time>
      </trkpt>
      <trkpt lat="42.48917333" lon="1.496015">
        <ele>965.0</ele>
        <time>2019-08-04T12:32:41.305Z</time>
      </trkpt>
      <trkpt lat="42.489245" lon="1.496075">
        <ele>965.0</ele>
        <time>2019-08-04T12:32:42.329Z</time>
      </trkpt>
      <trkpt lat="42.48928167" lon="1.496105">
        <ele>966.0</ele>
        <time>2019-08-04T12:32:43.311Z</time>
      </trkpt>
      <trkpt lat="42.48931833" lon="1.49613667">
        <ele>966.0</ele>
        <time>2019-08-04T12:32:44.318Z</time>
      </trkpt>
      <trkpt lat="42.48931833" lon="1.49613667">
        <ele>966.0</ele>
        <time>2019-08-04T12:32:45.304Z</time>
      </trkpt>
      <trkpt lat="42.48939167" lon="1.49619833">
        <ele>966.0</ele>
        <time>2019-08-04T12:32:46.323Z</time>
      </trkpt>
      <trkpt lat="42.48939167" lon="1.49619833">
        <ele>966.0</ele>
        <time>2019-08-04T12:32:47.304Z</time>
      </trkpt>
      <trkpt lat="42.48946833" lon="1.49626">
        <ele>966.0</ele>
        <time>2019-08-04T12:32:48.325Z</time>
      </trkpt>
      <trkpt lat="42.48946833" lon="1.49626">
        <ele>966.0</ele>
        <time>2019-08-04T12:32:49.304Z</time>
      </trkpt>
      <trkpt lat="42.48954333" lon="1.49632">
        <ele>967.0</ele>
        <time>2019-08-04T12:32:50.325Z</time>
      </trkpt>
      <trkpt lat="42.48954333" lon="1.49632">
        <ele>967.0</ele>
        <time>2019-08-04T12:32:51.304Z</time>
      </trkpt>
      <trkpt lat="42.48954333" lon="1.49632">
        <ele>967.0</ele>
        <time>2019-08-04T12:32:52.297Z</time>
      </trkpt>
      <trkpt lat="42.489665" lon="1.49637167">
        <ele>967.0</ele>
        <time>2019-08-04T12:32:53.309Z</time>
      </trkpt>
      <trkpt lat="42.48970833" lon="1.49637667">
        <ele>967.0</ele>
        <time>2019-08-04T12:32:54.331Z</time>
      </trkpt>
      <trkpt lat="42.48970833" lon="1.49637667">
        <ele>967.0</ele>
        <time>2019-08-04T12:32:55.307Z</time>
      </trkpt>
      <trkpt lat="42.48979667" lon="1.49638167">
        <ele>967.0</ele>
        <time>2019-08-04T12:32:56.309Z</time>
      </trkpt>
      <trkpt lat="42.48979667" lon="1.49638167">
        <ele>967.0</ele>
        <time>2019-08-04T12:32:57.303Z</time>
      </trkpt>
      <trkpt lat="42.48988333" lon="1.49638167">
        <ele>967.0</ele>
        <time>2019-08-04T12:32:58.310Z</time>
      </trkpt>
      <trkpt lat="42.48988333" lon="1.49638167">
        <ele>967.0</ele>
        <time>2019-08-04T12:32:59.304Z</time>
      </trkpt>
      <trkpt lat="42.48996833" lon="1.496385">
        <ele>967.0</ele>
        <time>2019-08-04T12:33:00.323Z</time>
      </trkpt>
      <trkpt lat="42.48996833" lon="1.496385">
        <ele>967.0</ele>
        <time>2019-08-04T12:33:01.304Z</time>
      </trkpt>
      <trkpt lat="42.49005333" lon="1.49638833">
        <ele>967.0</ele>
        <time>2019-08-04T12:33:02.328Z</time>
      </trkpt>
      <trkpt lat="42.49009667" lon="1.49638833">
        <ele>967.0</ele>
        <time>2019-08-04T12:33:03.307Z</time>
      </trkpt>
      <trkpt lat="42.49013667" lon="1.49638833">
        <ele>967.0</ele>
        <time>2019-08-04T12:33:04.324Z</time>
      </trkpt>
      <trkpt lat="42.49013667" lon="1.49638833">
        <ele>967.0</ele>
        <time>2019-08-04T12:33:05.305Z</time>
      </trkpt>
      <trkpt lat="42.49022333" lon="1.49638833">
        <ele>967.0</ele>
        <time>2019-08-04T12:33:06.325Z</time>
      </trkpt>
      <trkpt lat="42.49022333" lon="1.49638833">
        <ele>967.0</ele>
        <time>2019-08-04T12:33:07.306Z</time>
      </trkpt>
      <trkpt lat="42.49022333" lon="1.49638833">
        <ele>967.0</ele>
        <time>2019-08-04T12:33:08.449Z</time>
      </trkpt>
      <trkpt lat="42.490345" lon="1.496385">
        <ele>969.0</ele>
        <time>2019-08-04T12:33:09.307Z</time>
      </trkpt>
      <trkpt lat="42.49038667" lon="1.496385">
        <ele>970.0</ele>
        <time>2019-08-04T12:33:10.323Z</time>
      </trkpt>
      <trkpt lat="42.49038667" lon="1.496385">
        <ele>970.0</ele>
        <time>2019-08-04T12:33:11.304Z</time>
      </trkpt>
      <trkpt lat="42.49046833" lon="1.49638333">
        <ele>971.0</ele>
        <time>2019-08-04T12:33:12.325Z</time>
      </trkpt>
      <trkpt lat="42.49051" lon="1.49638167">
        <ele>971.0</ele>
        <time>2019-08-04T12:33:13.307Z</time>
      </trkpt>
      <trkpt lat="42.49055167" lon="1.49638">
        <ele>972.0</ele>
        <time>2019-08-04T12:33:14.324Z</time>
      </trkpt>
      <trkpt lat="42.49055167" lon="1.49638">
        <ele>972.0</ele>
        <time>2019-08-04T12:33:15.304Z</time>
      </trkpt>
      <trkpt lat="42.490635" lon="1.49638167">
        <ele>973.0</ele>
        <time>2019-08-04T12:33:16.310Z</time>
      </trkpt>
      <trkpt lat="42.490635" lon="1.49638167">
        <ele>973.0</ele>
        <time>2019-08-04T12:33:17.304Z</time>
      </trkpt>
      <trkpt lat="42.490725" lon="1.49638833">
        <ele>973.0</ele>
        <time>2019-08-04T12:33:18.310Z</time>
      </trkpt>
      <trkpt lat="42.490725" lon="1.49638833">
        <ele>973.0</ele>
        <time>2019-08-04T12:33:19.305Z</time>
      </trkpt>
      <trkpt lat="42.49081333" lon="1.49639333">
        <ele>973.0</ele>
        <time>2019-08-04T12:33:20.310Z</time>
      </trkpt>
      <trkpt lat="42.49081333" lon="1.49639333">
        <ele>973.0</ele>
        <time>2019-08-04T12:33:21.325Z</time>
      </trkpt>
      <trkpt lat="42.49089667" lon="1.49640167">
        <ele>974.0</ele>
        <time>2019-08-04T12:33:22.311Z</time>
      </trkpt>
      <trkpt lat="42.49089667" lon="1.49640167">
        <ele>974.0</ele>
        <time>2019-08-04T12:33:23.304Z</time>
      </trkpt>
      <trkpt lat="42.49098" lon="1.496425">
        <ele>974.0</ele>
        <time>2019-08-04T12:33:24.297Z</time>
      </trkpt>
      <trkpt lat="42.49098" lon="1.496425">
        <ele>974.0</ele>
        <time>2019-08-04T12:33:25.333Z</time>
      </trkpt>
      <trkpt lat="42.49106333" lon="1.49646333">
        <ele>974.0</ele>
        <time>2019-08-04T12:33:26.315Z</time>
      </trkpt>
      <trkpt lat="42.49106333" lon="1.49646333">
        <ele>974.0</ele>
        <time>2019-08-04T12:33:27.304Z</time>
      </trkpt>
      <trkpt lat="42.49114333" lon="1.49651333">
        <ele>974.0</ele>
        <time>2019-08-04T12:33:28.311Z</time>
      </trkpt>
      <trkpt lat="42.49114333" lon="1.49651333">
        <ele>974.0</ele>
        <time>2019-08-04T12:33:29.304Z</time>
      </trkpt>
      <trkpt lat="42.49122" lon="1.49658333">
        <ele>974.0</ele>
        <time>2019-08-04T12:33:30.314Z</time>
      </trkpt>
      <trkpt lat="42.49122" lon="1.49658333">
        <ele>974.0</ele>
        <time>2019-08-04T12:33:31.319Z</time>
      </trkpt>
      <trkpt lat="42.49129167" lon="1.49666667">
        <ele>974.0</ele>
        <time>2019-08-04T12:33:32.325Z</time>
      </trkpt>
      <trkpt lat="42.49132167" lon="1.49671">
        <ele>974.0</ele>
        <time>2019-08-04T12:33:33.310Z</time>
      </trkpt>
      <trkpt lat="42.49134833" lon="1.49675833">
        <ele>974.0</ele>
        <time>2019-08-04T12:33:34.328Z</time>
      </trkpt>
      <trkpt lat="42.49134833" lon="1.49675833">
        <ele>974.0</ele>
        <time>2019-08-04T12:33:35.305Z</time>
      </trkpt>
      <trkpt lat="42.49140667" lon="1.49685833">
        <ele>974.0</ele>
        <time>2019-08-04T12:33:36.325Z</time>
      </trkpt>
      <trkpt lat="42.49140667" lon="1.49685833">
        <ele>974.0</ele>
        <time>2019-08-04T12:33:37.306Z</time>
      </trkpt>
      <trkpt lat="42.49146333" lon="1.49695167">
        <ele>974.0</ele>
        <time>2019-08-04T12:33:38.310Z</time>
      </trkpt>
      <trkpt lat="42.49146333" lon="1.49695167">
        <ele>974.0</ele>
        <time>2019-08-04T12:33:39.305Z</time>
      </trkpt>
      <trkpt lat="42.49152167" lon="1.497045">
        <ele>975.0</ele>
        <time>2019-08-04T12:33:40.312Z</time>
      </trkpt>
      <trkpt lat="42.49152167" lon="1.497045">
        <ele>975.0</ele>
        <time>2019-08-04T12:33:41.305Z</time>
      </trkpt>
      <trkpt lat="42.49158167" lon="1.49713833">
        <ele>975.0</ele>
        <time>2019-08-04T12:33:42.326Z</time>
      </trkpt>
      <trkpt lat="42.49158167" lon="1.49713833">
        <ele>975.0</ele>
        <time>2019-08-04T12:33:43.305Z</time>
      </trkpt>
      <trkpt lat="42.49164167" lon="1.49723833">
        <ele>975.0</ele>
        <time>2019-08-04T12:33:44.325Z</time>
      </trkpt>
      <trkpt lat="42.49166833" lon="1.497285">
        <ele>975.0</ele>
        <time>2019-08-04T12:33:45.311Z</time>
      </trkpt>
      <trkpt lat="42.49166833" lon="1.497285">
        <ele>975.0</ele>
        <time>2019-08-04T12:33:46.326Z</time>
      </trkpt>
      <trkpt lat="42.49172333" lon="1.49737667">
        <ele>975.0</ele>
        <time>2019-08-04T12:33:47.310Z</time>
      </trkpt>
      <trkpt lat="42.49172333" lon="1.49737667">
        <ele>975.0</ele>
        <time>2019-08-04T12:33:48.317Z</time>
      </trkpt>
      <trkpt lat="42.491755" lon="1.497425">
        <ele>975.0</ele>
        <time>2019-08-04T12:33:49.322Z</time>
      </trkpt>
      <trkpt lat="42.49181" lon="1.49752">
        <ele>976.0</ele>
        <time>2019-08-04T12:33:50.310Z</time>
      </trkpt>
      <trkpt lat="42.49184167" lon="1.49756833">
        <ele>976.0</ele>
        <time>2019-08-04T12:33:51.307Z</time>
      </trkpt>
      <trkpt lat="42.49187" lon="1.497615">
        <ele>976.0</ele>
        <time>2019-08-04T12:33:52.323Z</time>
      </trkpt>
      <trkpt lat="42.49187" lon="1.497615">
        <ele>976.0</ele>
        <time>2019-08-04T12:33:53.305Z</time>
      </trkpt>
      <trkpt lat="42.49192333" lon="1.49770667">
        <ele>976.0</ele>
        <time>2019-08-04T12:33:54.298Z</time>
      </trkpt>
      <trkpt lat="42.49192333" lon="1.49770667">
        <ele>976.0</ele>
        <time>2019-08-04T12:33:55.333Z</time>
      </trkpt>
      <trkpt lat="42.491975" lon="1.49779667">
        <ele>977.0</ele>
        <time>2019-08-04T12:33:56.315Z</time>
      </trkpt>
      <trkpt lat="42.491975" lon="1.49779667">
        <ele>977.0</ele>
        <time>2019-08-04T12:33:57.306Z</time>
      </trkpt>
      <trkpt lat="42.49202833" lon="1.49788833">
        <ele>977.0</ele>
        <time>2019-08-04T12:33:58.326Z</time>
      </trkpt>
      <trkpt lat="42.49202833" lon="1.49788833">
        <ele>977.0</ele>
        <time>2019-08-04T12:33:59.306Z</time>
      </trkpt>
      <trkpt lat="42.49207833" lon="1.497975">
        <ele>977.0</ele>
        <time>2019-08-04T12:34:00.310Z</time>
      </trkpt>
      <trkpt lat="42.49207833" lon="1.497975">
        <ele>977.0</ele>
        <time>2019-08-04T12:34:01.331Z</time>
      </trkpt>
      <trkpt lat="42.492125" lon="1.49806333">
        <ele>977.0</ele>
        <time>2019-08-04T12:34:02.313Z</time>
      </trkpt>
      <trkpt lat="42.492145" lon="1.49810667">
        <ele>977.0</ele>
        <time>2019-08-04T12:34:03.330Z</time>
      </trkpt>
      <trkpt lat="42.49217167" lon="1.49815333">
        <ele>978.0</ele>
        <time>2019-08-04T12:34:04.321Z</time>
      </trkpt>
      <trkpt lat="42.49217167" lon="1.49815333">
        <ele>978.0</ele>
        <time>2019-08-04T12:34:05.305Z</time>
      </trkpt>
      <trkpt lat="42.49223" lon="1.49824833">
        <ele>978.0</ele>
        <time>2019-08-04T12:34:06.324Z</time>
      </trkpt>
      <trkpt lat="42.49223" lon="1.49824833">
        <ele>978.0</ele>
        <time>2019-08-04T12:34:07.308Z</time>
      </trkpt>
      <trkpt lat="42.49228" lon="1.498345">
        <ele>979.0</ele>
        <time>2019-08-04T12:34:08.310Z</time>
      </trkpt>
      <trkpt lat="42.49228" lon="1.498345">
        <ele>979.0</ele>
        <time>2019-08-04T12:34:09.326Z</time>
      </trkpt>
      <trkpt lat="42.49228" lon="1.498345">
        <ele>979.0</ele>
        <time>2019-08-04T12:34:10.453Z</time>
      </trkpt>
      <trkpt lat="42.49233333" lon="1.49844333">
        <ele>979.0</ele>
        <time>2019-08-04T12:34:11.322Z</time>
      </trkpt>
      <trkpt lat="42.49238167" lon="1.498545">
        <ele>980.0</ele>
        <time>2019-08-04T12:34:12.310Z</time>
      </trkpt>
      <trkpt lat="42.49238167" lon="1.498545">
        <ele>980.0</ele>
        <time>2019-08-04T12:34:13.333Z</time>
      </trkpt>
      <trkpt lat="42.492435" lon="1.49865667">
        <ele>980.0</ele>
        <time>2019-08-04T12:34:14.319Z</time>
      </trkpt>
      <trkpt lat="42.492435" lon="1.49865667">
        <ele>980.0</ele>
        <time>2019-08-04T12:34:15.305Z</time>
      </trkpt>
      <trkpt lat="42.49249167" lon="1.49876833">
        <ele>980.0</ele>
        <time>2019-08-04T12:34:16.324Z</time>
      </trkpt>
      <trkpt lat="42.49249167" lon="1.49876833">
        <ele>980.0</ele>
        <time>2019-08-04T12:34:17.305Z</time>
      </trkpt>
      <trkpt lat="42.49254667" lon="1.49888333">
        <ele>980.0</ele>
        <time>2019-08-04T12:34:18.326Z</time>
      </trkpt>
      <trkpt lat="42.49257333" lon="1.498945">
        <ele>980.0</ele>
        <time>2019-08-04T12:34:19.310Z</time>
      </trkpt>
      <trkpt lat="42.49257333" lon="1.498945">
        <ele>980.0</ele>
        <time>2019-08-04T12:34:20.305Z</time>
      </trkpt>
      <trkpt lat="42.49262833" lon="1.49906833">
        <ele>980.0</ele>
        <time>2019-08-04T12:34:21.310Z</time>
      </trkpt>
      <trkpt lat="42.49265833" lon="1.49913">
        <ele>980.0</ele>
        <time>2019-08-04T12:34:22.326Z</time>
      </trkpt>
      <trkpt lat="42.49265833" lon="1.49913">
        <ele>980.0</ele>
        <time>2019-08-04T12:34:23.307Z</time>
      </trkpt>
      <trkpt lat="42.49272333" lon="1.499255">
        <ele>980.0</ele>
        <time>2019-08-04T12:34:24.331Z</time>
      </trkpt>
      <trkpt lat="42.49272333" lon="1.499255">
        <ele>980.0</ele>
        <time>2019-08-04T12:34:25.307Z</time>
      </trkpt>
      <trkpt lat="42.49279667" lon="1.49937667">
        <ele>980.0</ele>
        <time>2019-08-04T12:34:26.310Z</time>
      </trkpt>
      <trkpt lat="42.49279667" lon="1.49937667">
        <ele>980.0</ele>
        <time>2019-08-04T12:34:27.326Z</time>
      </trkpt>
      <trkpt lat="42.49288333" lon="1.49949667">
        <ele>980.0</ele>
        <time>2019-08-04T12:34:28.311Z</time>
      </trkpt>
      <trkpt lat="42.49288333" lon="1.49949667">
        <ele>980.0</ele>
        <time>2019-08-04T12:34:29.309Z</time>
      </trkpt>
      <trkpt lat="42.49298" lon="1.49962167">
        <ele>980.0</ele>
        <time>2019-08-04T12:34:30.318Z</time>
      </trkpt>
      <trkpt lat="42.49303" lon="1.499685">
        <ele>980.0</ele>
        <time>2019-08-04T12:34:31.323Z</time>
      </trkpt>
      <trkpt lat="42.49303" lon="1.499685">
        <ele>980.0</ele>
        <time>2019-08-04T12:34:32.329Z</time>
      </trkpt>
      <trkpt lat="42.49313667" lon="1.49981">
        <ele>980.0</ele>
        <time>2019-08-04T12:34:33.311Z</time>
      </trkpt>
      <trkpt lat="42.49319" lon="1.499875">
        <ele>980.0</ele>
        <time>2019-08-04T12:34:34.335Z</time>
      </trkpt>
      <trkpt lat="42.49319" lon="1.499875">
        <ele>980.0</ele>
        <time>2019-08-04T12:34:35.312Z</time>
      </trkpt>
      <trkpt lat="42.49329833" lon="1.50000833">
        <ele>980.0</ele>
        <time>2019-08-04T12:34:36.312Z</time>
      </trkpt>
      <trkpt lat="42.49329833" lon="1.50000833">
        <ele>980.0</ele>
        <time>2019-08-04T12:34:37.306Z</time>
      </trkpt>
      <trkpt lat="42.49341167" lon="1.50014667">
        <ele>979.0</ele>
        <time>2019-08-04T12:34:38.310Z</time>
      </trkpt>
      <trkpt lat="42.49341167" lon="1.50014667">
        <ele>979.0</ele>
        <time>2019-08-04T12:34:39.305Z</time>
      </trkpt>
      <trkpt lat="42.49352167" lon="1.50028">
        <ele>980.0</ele>
        <time>2019-08-04T12:34:40.330Z</time>
      </trkpt>
      <trkpt lat="42.49352167" lon="1.50028">
        <ele>980.0</ele>
        <time>2019-08-04T12:34:41.308Z</time>
      </trkpt>
      <trkpt lat="42.49363" lon="1.500415">
        <ele>979.0</ele>
        <time>2019-08-04T12:34:42.310Z</time>
      </trkpt>
      <trkpt lat="42.49363" lon="1.500415">
        <ele>979.0</ele>
        <time>2019-08-04T12:34:43.328Z</time>
      </trkpt>
      <trkpt lat="42.49373167" lon="1.500555">
        <ele>979.0</ele>
        <time>2019-08-04T12:34:44.319Z</time>
      </trkpt>
      <trkpt lat="42.49373167" lon="1.500555">
        <ele>979.0</ele>
        <time>2019-08-04T12:34:45.305Z</time>
      </trkpt>
      <trkpt lat="42.49382333" lon="1.5007">
        <ele>979.0</ele>
        <time>2019-08-04T12:34:46.326Z</time>
      </trkpt>
      <trkpt lat="42.49382333" lon="1.5007">
        <ele>979.0</ele>
        <time>2019-08-04T12:34:47.305Z</time>
      </trkpt>
      <trkpt lat="42.49389833" lon="1.50085833">
        <ele>978.0</ele>
        <time>2019-08-04T12:34:48.330Z</time>
      </trkpt>
      <trkpt lat="42.49389833" lon="1.50085833">
        <ele>978.0</ele>
        <time>2019-08-04T12:34:49.307Z</time>
      </trkpt>
      <trkpt lat="42.49395833" lon="1.50102167">
        <ele>978.0</ele>
        <time>2019-08-04T12:34:50.310Z</time>
      </trkpt>
      <trkpt lat="42.49399" lon="1.50110167">
        <ele>978.0</ele>
        <time>2019-08-04T12:34:51.310Z</time>
      </trkpt>
      <trkpt lat="42.49399" lon="1.50110167">
        <ele>978.0</ele>
        <time>2019-08-04T12:34:52.331Z</time>
      </trkpt>
      <trkpt lat="42.49406" lon="1.50124333">
        <ele>978.0</ele>
        <time>2019-08-04T12:34:53.310Z</time>
      </trkpt>
      <trkpt lat="42.49409833" lon="1.50131167">
        <ele>979.0</ele>
        <time>2019-08-04T12:34:54.326Z</time>
      </trkpt>
      <trkpt lat="42.49409833" lon="1.50131167">
        <ele>979.0</ele>
        <time>2019-08-04T12:34:55.305Z</time>
      </trkpt>
      <trkpt lat="42.49417" lon="1.50145667">
        <ele>979.0</ele>
        <time>2019-08-04T12:34:56.310Z</time>
      </trkpt>
      <trkpt lat="42.49417" lon="1.50145667">
        <ele>979.0</ele>
        <time>2019-08-04T12:34:57.326Z</time>
      </trkpt>
      <trkpt lat="42.494235" lon="1.50161833">
        <ele>979.0</ele>
        <time>2019-08-04T12:34:58.311Z</time>
      </trkpt>
      <trkpt lat="42.494235" lon="1.50161833">
        <ele>979.0</ele>
        <time>2019-08-04T12:34:59.304Z</time>
      </trkpt>
      <trkpt lat="42.49429667" lon="1.50178167">
        <ele>979.0</ele>
        <time>2019-08-04T12:35:00.324Z</time>
      </trkpt>
      <trkpt lat="42.49429667" lon="1.50178167">
        <ele>979.0</ele>
        <time>2019-08-04T12:35:01.305Z</time>
      </trkpt>
      <trkpt lat="42.49435333" lon="1.501945">
        <ele>979.0</ele>
        <time>2019-08-04T12:35:02.322Z</time>
      </trkpt>
      <trkpt lat="42.49435333" lon="1.501945">
        <ele>979.0</ele>
        <time>2019-08-04T12:35:03.320Z</time>
      </trkpt>
      <trkpt lat="42.49441167" lon="1.50210667">
        <ele>979.0</ele>
        <time>2019-08-04T12:35:04.327Z</time>
      </trkpt>
      <trkpt lat="42.49444" lon="1.50218333">
        <ele>978.0</ele>
        <time>2019-08-04T12:35:05.309Z</time>
      </trkpt>
      <trkpt lat="42.49444" lon="1.50218333">
        <ele>978.0</ele>
        <time>2019-08-04T12:35:06.325Z</time>
      </trkpt>
      <trkpt lat="42.49449667" lon="1.502335">
        <ele>978.0</ele>
        <time>2019-08-04T12:35:07.310Z</time>
      </trkpt>
      <trkpt lat="42.49449667" lon="1.502335">
        <ele>978.0</ele>
        <time>2019-08-04T12:35:08.305Z</time>
      </trkpt>
      <trkpt lat="42.49456" lon="1.50248167">
        <ele>978.0</ele>
        <time>2019-08-04T12:35:09.325Z</time>
      </trkpt>
      <trkpt lat="42.494595" lon="1.502555">
        <ele>978.0</ele>
        <time>2019-08-04T12:35:10.311Z</time>
      </trkpt>
      <trkpt lat="42.494595" lon="1.502555">
        <ele>978.0</ele>
        <time>2019-08-04T12:35:11.305Z</time>
      </trkpt>
      <trkpt lat="42.494595" lon="1.502555">
        <ele>978.0</ele>
        <time>2019-08-04T12:35:12.458Z</time>
      </trkpt>
      <trkpt lat="42.49466833" lon="1.5027">
        <ele>978.0</ele>
        <time>2019-08-04T12:35:13.311Z</time>
      </trkpt>
      <trkpt lat="42.49466833" lon="1.5027">
        <ele>978.0</ele>
        <time>2019-08-04T12:35:14.305Z</time>
      </trkpt>
      <trkpt lat="42.49474" lon="1.50284333">
        <ele>978.0</ele>
        <time>2019-08-04T12:35:15.305Z</time>
      </trkpt>
      <trkpt lat="42.49480667" lon="1.50298167">
        <ele>978.0</ele>
        <time>2019-08-04T12:35:16.326Z</time>
      </trkpt>
      <trkpt lat="42.49480667" lon="1.50298167">
        <ele>978.0</ele>
        <time>2019-08-04T12:35:17.307Z</time>
      </trkpt>
      <trkpt lat="42.49487833" lon="1.50312833">
        <ele>978.0</ele>
        <time>2019-08-04T12:35:18.311Z</time>
      </trkpt>
      <trkpt lat="42.49487833" lon="1.50312833">
        <ele>978.0</ele>
        <time>2019-08-04T12:35:19.308Z</time>
      </trkpt>
      <trkpt lat="42.49494" lon="1.503275">
        <ele>978.0</ele>
        <time>2019-08-04T12:35:20.310Z</time>
      </trkpt>
      <trkpt lat="42.49494" lon="1.503275">
        <ele>978.0</ele>
        <time>2019-08-04T12:35:21.326Z</time>
      </trkpt>
      <trkpt lat="42.49499667" lon="1.503415">
        <ele>978.0</ele>
        <time>2019-08-04T12:35:22.311Z</time>
      </trkpt>
      <trkpt lat="42.49502" lon="1.50348333">
        <ele>979.0</ele>
        <time>2019-08-04T12:35:23.310Z</time>
      </trkpt>
      <trkpt lat="42.49503833" lon="1.503555">
        <ele>979.0</ele>
        <time>2019-08-04T12:35:24.319Z</time>
      </trkpt>
      <trkpt lat="42.49503833" lon="1.503555">
        <ele>979.0</ele>
        <time>2019-08-04T12:35:25.305Z</time>
      </trkpt>
      <trkpt lat="42.49504833" lon="1.50369667">
        <ele>980.0</ele>
        <time>2019-08-04T12:35:26.326Z</time>
      </trkpt>
      <trkpt lat="42.49504833" lon="1.50369667">
        <ele>980.0</ele>
        <time>2019-08-04T12:35:27.307Z</time>
      </trkpt>
      <trkpt lat="42.495025" lon="1.50382333">
        <ele>980.0</ele>
        <time>2019-08-04T12:35:28.312Z</time>
      </trkpt>
      <trkpt lat="42.495025" lon="1.50382333">
        <ele>980.0</ele>
        <time>2019-08-04T12:35:29.304Z</time>
      </trkpt>
      <trkpt lat="42.49502167" lon="1.50394333">
        <ele>981.0</ele>
        <time>2019-08-04T12:35:30.328Z</time>
      </trkpt>
      <trkpt lat="42.49502833" lon="1.50400167">
        <ele>981.0</ele>
        <time>2019-08-04T12:35:31.299Z</time>
      </trkpt>
      <trkpt lat="42.49502833" lon="1.50400167">
        <ele>981.0</ele>
        <time>2019-08-04T12:35:32.304Z</time>
      </trkpt>
      <trkpt lat="42.49504833" lon="1.50411667">
        <ele>982.0</ele>
        <time>2019-08-04T12:35:33.324Z</time>
      </trkpt>
      <trkpt lat="42.49505167" lon="1.50417333">
        <ele>982.0</ele>
        <time>2019-08-04T12:35:34.316Z</time>
      </trkpt>
      <trkpt lat="42.49505167" lon="1.50417333">
        <ele>982.0</ele>
        <time>2019-08-04T12:35:35.306Z</time>
      </trkpt>
      <trkpt lat="42.49505" lon="1.50428">
        <ele>983.0</ele>
        <time>2019-08-04T12:35:36.326Z</time>
      </trkpt>
      <trkpt lat="42.49505" lon="1.50428">
        <ele>983.0</ele>
        <time>2019-08-04T12:35:37.305Z</time>
      </trkpt>
      <trkpt lat="42.49505" lon="1.50428">
        <ele>983.0</ele>
        <time>2019-08-04T12:35:38.329Z</time>
      </trkpt>
      <trkpt lat="42.49504333" lon="1.50438667">
        <ele>984.0</ele>
        <time>2019-08-04T12:35:39.311Z</time>
      </trkpt>
      <trkpt lat="42.49504" lon="1.504495">
        <ele>984.0</ele>
        <time>2019-08-04T12:35:40.312Z</time>
      </trkpt>
      <trkpt lat="42.49504" lon="1.504495">
        <ele>984.0</ele>
        <time>2019-08-04T12:35:41.305Z</time>
      </trkpt>
      <trkpt lat="42.49504" lon="1.50460667">
        <ele>985.0</ele>
        <time>2019-08-04T12:35:42.326Z</time>
      </trkpt>
      <trkpt lat="42.49504" lon="1.50460667">
        <ele>985.0</ele>
        <time>2019-08-04T12:35:43.305Z</time>
      </trkpt>
      <trkpt lat="42.49504667" lon="1.50472167">
        <ele>985.0</ele>
        <time>2019-08-04T12:35:44.319Z</time>
      </trkpt>
      <trkpt lat="42.49504667" lon="1.50472167">
        <ele>985.0</ele>
        <time>2019-08-04T12:35:45.305Z</time>
      </trkpt>
      <trkpt lat="42.49506" lon="1.50484333">
        <ele>985.0</ele>
        <time>2019-08-04T12:35:46.311Z</time>
      </trkpt>
      <trkpt lat="42.49506" lon="1.50484333">
        <ele>985.0</ele>
        <time>2019-08-04T12:35:47.330Z</time>
      </trkpt>
      <trkpt lat="42.495085" lon="1.50497667">
        <ele>985.0</ele>
        <time>2019-08-04T12:35:48.311Z</time>
      </trkpt>
      <trkpt lat="42.495085" lon="1.50497667">
        <ele>985.0</ele>
        <time>2019-08-04T12:35:49.305Z</time>
      </trkpt>
      <trkpt lat="42.49512333" lon="1.50512">
        <ele>986.0</ele>
        <time>2019-08-04T12:35:50.324Z</time>
      </trkpt>
      <trkpt lat="42.49512333" lon="1.50512">
        <ele>986.0</ele>
        <time>2019-08-04T12:35:51.305Z</time>
      </trkpt>
      <trkpt lat="42.49517333" lon="1.50527333">
        <ele>985.0</ele>
        <time>2019-08-04T12:35:52.326Z</time>
      </trkpt>
      <trkpt lat="42.49520667" lon="1.50535333">
        <ele>984.0</ele>
        <time>2019-08-04T12:35:53.310Z</time>
      </trkpt>
      <trkpt lat="42.49524167" lon="1.50543333">
        <ele>984.0</ele>
        <time>2019-08-04T12:35:54.298Z</time>
      </trkpt>
      <trkpt lat="42.49524167" lon="1.50543333">
        <ele>984.0</ele>
        <time>2019-08-04T12:35:55.328Z</time>
      </trkpt>
      <trkpt lat="42.49532833" lon="1.50559333">
        <ele>983.0</ele>
        <time>2019-08-04T12:35:56.311Z</time>
      </trkpt>
      <trkpt lat="42.49537667" lon="1.505675">
        <ele>983.0</ele>
        <time>2019-08-04T12:35:57.311Z</time>
      </trkpt>
      <trkpt lat="42.495425" lon="1.50576">
        <ele>983.0</ele>
        <time>2019-08-04T12:35:58.327Z</time>
      </trkpt>
      <trkpt lat="42.495425" lon="1.50576">
        <ele>983.0</ele>
        <time>2019-08-04T12:35:59.305Z</time>
      </trkpt>
      <trkpt lat="42.49552333" lon="1.50592833">
        <ele>982.0</ele>
        <time>2019-08-04T12:36:00.325Z</time>
      </trkpt>
      <trkpt lat="42.49552333" lon="1.50592833">
        <ele>982.0</ele>
        <time>2019-08-04T12:36:01.305Z</time>
      </trkpt>
      <trkpt lat="42.49562" lon="1.506095">
        <ele>982.0</ele>
        <time>2019-08-04T12:36:02.325Z</time>
      </trkpt>
      <trkpt lat="42.49562" lon="1.506095">
        <ele>982.0</ele>
        <time>2019-08-04T12:36:03.305Z</time>
      </trkpt>
      <trkpt lat="42.49571667" lon="1.50625667">
        <ele>981.0</ele>
        <time>2019-08-04T12:36:04.330Z</time>
      </trkpt>
      <trkpt lat="42.49571667" lon="1.50625667">
        <ele>981.0</ele>
        <time>2019-08-04T12:36:05.307Z</time>
      </trkpt>
      <trkpt lat="42.49581333" lon="1.50642167">
        <ele>981.0</ele>
        <time>2019-08-04T12:36:06.311Z</time>
      </trkpt>
      <trkpt lat="42.49586333" lon="1.50650333">
        <ele>981.0</ele>
        <time>2019-08-04T12:36:07.312Z</time>
      </trkpt>
      <trkpt lat="42.49586333" lon="1.50650333">
        <ele>981.0</ele>
        <time>2019-08-04T12:36:08.305Z</time>
      </trkpt>
      <trkpt lat="42.49586333" lon="1.50650333">
        <ele>981.0</ele>
        <time>2019-08-04T12:36:09.460Z</time>
      </trkpt>
      <trkpt lat="42.49601" lon="1.50674833">
        <ele>981.0</ele>
        <time>2019-08-04T12:36:10.312Z</time>
      </trkpt>
      <trkpt lat="42.49601" lon="1.50674833">
        <ele>981.0</ele>
        <time>2019-08-04T12:36:11.305Z</time>
      </trkpt>
      <trkpt lat="42.49611" lon="1.50691167">
        <ele>981.0</ele>
        <time>2019-08-04T12:36:12.326Z</time>
      </trkpt>
      <trkpt lat="42.49616" lon="1.50699333">
        <ele>981.0</ele>
        <time>2019-08-04T12:36:13.311Z</time>
      </trkpt>
      <trkpt lat="42.49616" lon="1.50699333">
        <ele>981.0</ele>
        <time>2019-08-04T12:36:14.332Z</time>
      </trkpt>
      <trkpt lat="42.49626167" lon="1.50716167">
        <ele>981.0</ele>
        <time>2019-08-04T12:36:15.312Z</time>
      </trkpt>
      <trkpt lat="42.49631167" lon="1.50724667">
        <ele>981.0</ele>
        <time>2019-08-04T12:36:16.313Z</time>
      </trkpt>
      <trkpt lat="42.49631167" lon="1.50724667">
        <ele>981.0</ele>
        <time>2019-08-04T12:36:17.330Z</time>
      </trkpt>
      <trkpt lat="42.49641333" lon="1.50741333">
        <ele>981.0</ele>
        <time>2019-08-04T12:36:18.311Z</time>
      </trkpt>
      <trkpt lat="42.49641333" lon="1.50741333">
        <ele>981.0</ele>
        <time>2019-08-04T12:36:19.306Z</time>
      </trkpt>
      <trkpt lat="42.49651333" lon="1.50757833">
        <ele>981.0</ele>
        <time>2019-08-04T12:36:20.312Z</time>
      </trkpt>
      <trkpt lat="42.49656333" lon="1.50766167">
        <ele>981.0</ele>
        <time>2019-08-04T12:36:21.312Z</time>
      </trkpt>
      <trkpt lat="42.49656333" lon="1.50766167">
        <ele>981.0</ele>
        <time>2019-08-04T12:36:22.306Z</time>
      </trkpt>
      <trkpt lat="42.49666" lon="1.50782667">
        <ele>981.0</ele>
        <time>2019-08-04T12:36:23.311Z</time>
      </trkpt>
      <trkpt lat="42.496705" lon="1.50791">
        <ele>981.0</ele>
        <time>2019-08-04T12:36:24.331Z</time>
      </trkpt>
      <trkpt lat="42.496705" lon="1.50791">
        <ele>981.0</ele>
        <time>2019-08-04T12:36:25.308Z</time>
      </trkpt>
      <trkpt lat="42.49679333" lon="1.50807833">
        <ele>981.0</ele>
        <time>2019-08-04T12:36:26.312Z</time>
      </trkpt>
      <trkpt lat="42.49683333" lon="1.50816167">
        <ele>981.0</ele>
        <time>2019-08-04T12:36:27.312Z</time>
      </trkpt>
      <trkpt lat="42.49687" lon="1.50824167">
        <ele>981.0</ele>
        <time>2019-08-04T12:36:28.314Z</time>
      </trkpt>
      <trkpt lat="42.49687" lon="1.50824167">
        <ele>981.0</ele>
        <time>2019-08-04T12:36:29.305Z</time>
      </trkpt>
      <trkpt lat="42.49694" lon="1.5084">
        <ele>982.0</ele>
        <time>2019-08-04T12:36:30.311Z</time>
      </trkpt>
      <trkpt lat="42.49694" lon="1.5084">
        <ele>982.0</ele>
        <time>2019-08-04T12:36:31.318Z</time>
      </trkpt>
      <trkpt lat="42.49701667" lon="1.50856">
        <ele>982.0</ele>
        <time>2019-08-04T12:36:32.332Z</time>
      </trkpt>
      <trkpt lat="42.49701667" lon="1.50856">
        <ele>982.0</ele>
        <time>2019-08-04T12:36:33.309Z</time>
      </trkpt>
      <trkpt lat="42.497095" lon="1.50871833">
        <ele>982.0</ele>
        <time>2019-08-04T12:36:34.321Z</time>
      </trkpt>
      <trkpt lat="42.49713167" lon="1.50879333">
        <ele>982.0</ele>
        <time>2019-08-04T12:36:35.324Z</time>
      </trkpt>
      <trkpt lat="42.49717" lon="1.50887">
        <ele>982.0</ele>
        <time>2019-08-04T12:36:36.311Z</time>
      </trkpt>
      <trkpt lat="42.49717" lon="1.50887">
        <ele>982.0</ele>
        <time>2019-08-04T12:36:37.330Z</time>
      </trkpt>
      <trkpt lat="42.497255" lon="1.50903167">
        <ele>983.0</ele>
        <time>2019-08-04T12:36:38.312Z</time>
      </trkpt>
      <trkpt lat="42.497255" lon="1.50903167">
        <ele>983.0</ele>
        <time>2019-08-04T12:36:39.305Z</time>
      </trkpt>
      <trkpt lat="42.49733" lon="1.50918333">
        <ele>983.0</ele>
        <time>2019-08-04T12:36:40.326Z</time>
      </trkpt>
      <trkpt lat="42.49733" lon="1.50918333">
        <ele>983.0</ele>
        <time>2019-08-04T12:36:41.305Z</time>
      </trkpt>
      <trkpt lat="42.49740167" lon="1.50932833">
        <ele>984.0</ele>
        <time>2019-08-04T12:36:42.330Z</time>
      </trkpt>
      <trkpt lat="42.49740167" lon="1.50932833">
        <ele>984.0</ele>
        <time>2019-08-04T12:36:43.309Z</time>
      </trkpt>
      <trkpt lat="42.497475" lon="1.50947667">
        <ele>984.0</ele>
        <time>2019-08-04T12:36:44.302Z</time>
      </trkpt>
      <trkpt lat="42.49751" lon="1.50954667">
        <ele>984.0</ele>
        <time>2019-08-04T12:36:45.318Z</time>
      </trkpt>
      <trkpt lat="42.497545" lon="1.50962">
        <ele>985.0</ele>
        <time>2019-08-04T12:36:46.313Z</time>
      </trkpt>
      <trkpt lat="42.497545" lon="1.50962">
        <ele>985.0</ele>
        <time>2019-08-04T12:36:47.332Z</time>
      </trkpt>
      <trkpt lat="42.49761667" lon="1.50977167">
        <ele>985.0</ele>
        <time>2019-08-04T12:36:48.313Z</time>
      </trkpt>
      <trkpt lat="42.49761667" lon="1.50977167">
        <ele>985.0</ele>
        <time>2019-08-04T12:36:49.306Z</time>
      </trkpt>
      <trkpt lat="42.49768667" lon="1.50992667">
        <ele>985.0</ele>
        <time>2019-08-04T12:36:50.326Z</time>
      </trkpt>
      <trkpt lat="42.49772667" lon="1.51000167">
        <ele>985.0</ele>
        <time>2019-08-04T12:36:51.312Z</time>
      </trkpt>
      <trkpt lat="42.49772667" lon="1.51000167">
        <ele>985.0</ele>
        <time>2019-08-04T12:36:52.306Z</time>
      </trkpt>
      <trkpt lat="42.49780667" lon="1.51016167">
        <ele>985.0</ele>
        <time>2019-08-04T12:36:53.310Z</time>
      </trkpt>
      <trkpt lat="42.49780667" lon="1.51016167">
        <ele>985.0</ele>
        <time>2019-08-04T12:36:54.330Z</time>
      </trkpt>
      <trkpt lat="42.49790167" lon="1.51032">
        <ele>985.0</ele>
        <time>2019-08-04T12:36:55.313Z</time>
      </trkpt>
      <trkpt lat="42.49790167" lon="1.51032">
        <ele>985.0</ele>
        <time>2019-08-04T12:36:56.306Z</time>
      </trkpt>
      <trkpt lat="42.49799333" lon="1.51048">
        <ele>985.0</ele>
        <time>2019-08-04T12:36:57.326Z</time>
      </trkpt>
      <trkpt lat="42.49803667" lon="1.51056167">
        <ele>985.0</ele>
        <time>2019-08-04T12:36:58.312Z</time>
      </trkpt>
      <trkpt lat="42.49803667" lon="1.51056167">
        <ele>985.0</ele>
        <time>2019-08-04T12:36:59.306Z</time>
      </trkpt>
      <trkpt lat="42.49810833" lon="1.51073">
        <ele>986.0</ele>
        <time>2019-08-04T12:37:00.310Z</time>
      </trkpt>
      <trkpt lat="42.49810833" lon="1.51073">
        <ele>986.0</ele>
        <time>2019-08-04T12:37:01.325Z</time>
      </trkpt>
      <trkpt lat="42.49821833" lon="1.51085">
        <ele>986.0</ele>
        <time>2019-08-04T12:37:02.311Z</time>
      </trkpt>
      <trkpt lat="42.49821833" lon="1.51085">
        <ele>986.0</ele>
        <time>2019-08-04T12:37:03.326Z</time>
      </trkpt>
      <trkpt lat="42.49836" lon="1.51089167">
        <ele>985.0</ele>
        <time>2019-08-04T12:37:04.332Z</time>
      </trkpt>
      <trkpt lat="42.49836" lon="1.51089167">
        <ele>985.0</ele>
        <time>2019-08-04T12:37:05.308Z</time>
      </trkpt>
      <trkpt lat="42.49850667" lon="1.51095667">
        <ele>985.0</ele>
        <time>2019-08-04T12:37:06.311Z</time>
      </trkpt>
      <trkpt lat="42.49850667" lon="1.51095667">
        <ele>985.0</ele>
        <time>2019-08-04T12:37:07.326Z</time>
      </trkpt>
      <trkpt lat="42.49850667" lon="1.51095667">
        <ele>985.0</ele>
        <time>2019-08-04T12:37:08.452Z</time>
      </trkpt>
      <trkpt lat="42.49863167" lon="1.51105667">
        <ele>984.0</ele>
        <time>2019-08-04T12:37:09.308Z</time>
      </trkpt>
      <trkpt lat="42.49875667" lon="1.51116">
        <ele>985.0</ele>
        <time>2019-08-04T12:37:10.313Z</time>
      </trkpt>
      <trkpt lat="42.49875667" lon="1.51116">
        <ele>985.0</ele>
        <time>2019-08-04T12:37:11.305Z</time>
      </trkpt>
      <trkpt lat="42.49888" lon="1.51125833">
        <ele>985.0</ele>
        <time>2019-08-04T12:37:12.326Z</time>
      </trkpt>
      <trkpt lat="42.49888" lon="1.51125833">
        <ele>985.0</ele>
        <time>2019-08-04T12:37:13.306Z</time>
      </trkpt>
      <trkpt lat="42.49900167" lon="1.51135333">
        <ele>985.0</ele>
        <time>2019-08-04T12:37:14.320Z</time>
      </trkpt>
      <trkpt lat="42.49900167" lon="1.51135333">
        <ele>985.0</ele>
        <time>2019-08-04T12:37:15.305Z</time>
      </trkpt>
      <trkpt lat="42.49912167" lon="1.51144833">
        <ele>985.0</ele>
        <time>2019-08-04T12:37:16.326Z</time>
      </trkpt>
      <trkpt lat="42.49912167" lon="1.51144833">
        <ele>985.0</ele>
        <time>2019-08-04T12:37:17.306Z</time>
      </trkpt>
      <trkpt lat="42.49924333" lon="1.51154833">
        <ele>985.0</ele>
        <time>2019-08-04T12:37:18.311Z</time>
      </trkpt>
      <trkpt lat="42.49924333" lon="1.51154833">
        <ele>985.0</ele>
        <time>2019-08-04T12:37:19.328Z</time>
      </trkpt>
      <trkpt lat="42.499365" lon="1.51164833">
        <ele>985.0</ele>
        <time>2019-08-04T12:37:20.311Z</time>
      </trkpt>
      <trkpt lat="42.499365" lon="1.51164833">
        <ele>985.0</ele>
        <time>2019-08-04T12:37:21.306Z</time>
      </trkpt>
      <trkpt lat="42.49948833" lon="1.511745">
        <ele>985.0</ele>
        <time>2019-08-04T12:37:22.328Z</time>
      </trkpt>
      <trkpt lat="42.49948833" lon="1.511745">
        <ele>985.0</ele>
        <time>2019-08-04T12:37:23.306Z</time>
      </trkpt>
      <trkpt lat="42.49960833" lon="1.51184167">
        <ele>985.0</ele>
        <time>2019-08-04T12:37:24.319Z</time>
      </trkpt>
      <trkpt lat="42.49960833" lon="1.51184167">
        <ele>985.0</ele>
        <time>2019-08-04T12:37:25.309Z</time>
      </trkpt>
      <trkpt lat="42.49972667" lon="1.511935">
        <ele>985.0</ele>
        <time>2019-08-04T12:37:26.311Z</time>
      </trkpt>
      <trkpt lat="42.49972667" lon="1.511935">
        <ele>985.0</ele>
        <time>2019-08-04T12:37:27.305Z</time>
      </trkpt>
      <trkpt lat="42.49984333" lon="1.51202833">
        <ele>985.0</ele>
        <time>2019-08-04T12:37:28.331Z</time>
      </trkpt>
      <trkpt lat="42.49984333" lon="1.51202833">
        <ele>985.0</ele>
        <time>2019-08-04T12:37:29.304Z</time>
      </trkpt>
      <trkpt lat="42.49996167" lon="1.51212167">
        <ele>985.0</ele>
        <time>2019-08-04T12:37:30.325Z</time>
      </trkpt>
      <trkpt lat="42.50002" lon="1.51216667">
        <ele>985.0</ele>
        <time>2019-08-04T12:37:31.331Z</time>
      </trkpt>
      <trkpt lat="42.50008" lon="1.51221167">
        <ele>985.0</ele>
        <time>2019-08-04T12:37:32.312Z</time>
      </trkpt>
      <trkpt lat="42.50008" lon="1.51221167">
        <ele>985.0</ele>
        <time>2019-08-04T12:37:33.306Z</time>
      </trkpt>
      <trkpt lat="42.500195" lon="1.51230167">
        <ele>985.0</ele>
        <time>2019-08-04T12:37:34.328Z</time>
      </trkpt>
      <trkpt lat="42.500195" lon="1.51230167">
        <ele>985.0</ele>
        <time>2019-08-04T12:37:35.317Z</time>
      </trkpt>
      <trkpt lat="42.500315" lon="1.51239">
        <ele>984.0</ele>
        <time>2019-08-04T12:37:36.312Z</time>
      </trkpt>
      <trkpt lat="42.500315" lon="1.51239">
        <ele>984.0</ele>
        <time>2019-08-04T12:37:37.305Z</time>
      </trkpt>
      <trkpt lat="42.50043333" lon="1.51246833">
        <ele>984.0</ele>
        <time>2019-08-04T12:37:38.326Z</time>
      </trkpt>
      <trkpt lat="42.50043333" lon="1.51246833">
        <ele>984.0</ele>
        <time>2019-08-04T12:37:39.309Z</time>
      </trkpt>
      <trkpt lat="42.50055167" lon="1.51254333">
        <ele>984.0</ele>
        <time>2019-08-04T12:37:40.313Z</time>
      </trkpt>
      <trkpt lat="42.50055167" lon="1.51254333">
        <ele>984.0</ele>
        <time>2019-08-04T12:37:41.306Z</time>
      </trkpt>
      <trkpt lat="42.50066833" lon="1.512625">
        <ele>984.0</ele>
        <time>2019-08-04T12:37:42.328Z</time>
      </trkpt>
      <trkpt lat="42.50072667" lon="1.51267">
        <ele>984.0</ele>
        <time>2019-08-04T12:37:43.312Z</time>
      </trkpt>
      <trkpt lat="42.500785" lon="1.51271167">
        <ele>984.0</ele>
        <time>2019-08-04T12:37:44.330Z</time>
      </trkpt>
      <trkpt lat="42.500785" lon="1.51271167">
        <ele>984.0</ele>
        <time>2019-08-04T12:37:45.310Z</time>
      </trkpt>
      <trkpt lat="42.50090167" lon="1.51279833">
        <ele>984.0</ele>
        <time>2019-08-04T12:37:46.313Z</time>
      </trkpt>
      <trkpt lat="42.50090167" lon="1.51279833">
        <ele>984.0</ele>
        <time>2019-08-04T12:37:47.306Z</time>
      </trkpt>
      <trkpt lat="42.50101333" lon="1.51288333">
        <ele>984.0</ele>
        <time>2019-08-04T12:37:48.326Z</time>
      </trkpt>
      <trkpt lat="42.50107" lon="1.51292667">
        <ele>984.0</ele>
        <time>2019-08-04T12:37:49.314Z</time>
      </trkpt>
      <trkpt lat="42.50107" lon="1.51292667">
        <ele>984.0</ele>
        <time>2019-08-04T12:37:50.306Z</time>
      </trkpt>
      <trkpt lat="42.50118333" lon="1.51301667">
        <ele>984.0</ele>
        <time>2019-08-04T12:37:51.327Z</time>
      </trkpt>
      <trkpt lat="42.50123833" lon="1.51306">
        <ele>984.0</ele>
        <time>2019-08-04T12:37:52.316Z</time>
      </trkpt>
      <trkpt lat="42.50123833" lon="1.51306">
        <ele>984.0</ele>
        <time>2019-08-04T12:37:53.306Z</time>
      </trkpt>
      <trkpt lat="42.50123833" lon="1.51306">
        <ele>984.0</ele>
        <time>2019-08-04T12:37:54.297Z</time>
      </trkpt>
      <trkpt lat="42.50135" lon="1.51314667">
        <ele>985.0</ele>
        <time>2019-08-04T12:37:55.309Z</time>
      </trkpt>
      <trkpt lat="42.50145833" lon="1.513235">
        <ele>985.0</ele>
        <time>2019-08-04T12:37:56.312Z</time>
      </trkpt>
      <trkpt lat="42.50145833" lon="1.513235">
        <ele>985.0</ele>
        <time>2019-08-04T12:37:57.307Z</time>
      </trkpt>
      <trkpt lat="42.50157" lon="1.513325">
        <ele>985.0</ele>
        <time>2019-08-04T12:37:58.314Z</time>
      </trkpt>
      <trkpt lat="42.50157" lon="1.513325">
        <ele>985.0</ele>
        <time>2019-08-04T12:37:59.306Z</time>
      </trkpt>
      <trkpt lat="42.50168" lon="1.513415">
        <ele>985.0</ele>
        <time>2019-08-04T12:38:00.327Z</time>
      </trkpt>
      <trkpt lat="42.50168" lon="1.513415">
        <ele>985.0</ele>
        <time>2019-08-04T12:38:01.308Z</time>
      </trkpt>
      <trkpt lat="42.501795" lon="1.51350667">
        <ele>986.0</ele>
        <time>2019-08-04T12:38:02.331Z</time>
      </trkpt>
      <trkpt lat="42.501855" lon="1.513555">
        <ele>986.0</ele>
        <time>2019-08-04T12:38:03.312Z</time>
      </trkpt>
      <trkpt lat="42.501855" lon="1.513555">
        <ele>986.0</ele>
        <time>2019-08-04T12:38:04.307Z</time>
      </trkpt>
      <trkpt lat="42.50197167" lon="1.51365333">
        <ele>986.0</ele>
        <time>2019-08-04T12:38:05.333Z</time>
      </trkpt>
      <trkpt lat="42.50202833" lon="1.513705">
        <ele>987.0</ele>
        <time>2019-08-04T12:38:06.311Z</time>
      </trkpt>
      <trkpt lat="42.50202833" lon="1.513705">
        <ele>987.0</ele>
        <time>2019-08-04T12:38:07.305Z</time>
      </trkpt>
      <trkpt lat="42.50202833" lon="1.513705">
        <ele>987.0</ele>
        <time>2019-08-04T12:38:08.458Z</time>
      </trkpt>
      <trkpt lat="42.50213333" lon="1.51380667">
        <ele>987.0</ele>
        <time>2019-08-04T12:38:09.313Z</time>
      </trkpt>
      <trkpt lat="42.50223167" lon="1.51392333">
        <ele>987.0</ele>
        <time>2019-08-04T12:38:10.315Z</time>
      </trkpt>
      <trkpt lat="42.50223167" lon="1.51392333">
        <ele>987.0</ele>
        <time>2019-08-04T12:38:11.307Z</time>
      </trkpt>
      <trkpt lat="42.502305" lon="1.51405333">
        <ele>988.0</ele>
        <time>2019-08-04T12:38:12.311Z</time>
      </trkpt>
      <trkpt lat="42.502305" lon="1.51405333">
        <ele>988.0</ele>
        <time>2019-08-04T12:38:13.307Z</time>
      </trkpt>
      <trkpt lat="42.50236167" lon="1.51419833">
        <ele>988.0</ele>
        <time>2019-08-04T12:38:14.319Z</time>
      </trkpt>
      <trkpt lat="42.50236167" lon="1.51419833">
        <ele>988.0</ele>
        <time>2019-08-04T12:38:15.305Z</time>
      </trkpt>
      <trkpt lat="42.50242" lon="1.51435">
        <ele>989.0</ele>
        <time>2019-08-04T12:38:16.326Z</time>
      </trkpt>
      <trkpt lat="42.50242" lon="1.51435">
        <ele>989.0</ele>
        <time>2019-08-04T12:38:17.311Z</time>
      </trkpt>
      <trkpt lat="42.50247" lon="1.514495">
        <ele>990.0</ele>
        <time>2019-08-04T12:38:18.312Z</time>
      </trkpt>
      <trkpt lat="42.50247" lon="1.514495">
        <ele>990.0</ele>
        <time>2019-08-04T12:38:19.307Z</time>
      </trkpt>
      <trkpt lat="42.50252667" lon="1.51464667">
        <ele>990.0</ele>
        <time>2019-08-04T12:38:20.328Z</time>
      </trkpt>
      <trkpt lat="42.50252667" lon="1.51464667">
        <ele>990.0</ele>
        <time>2019-08-04T12:38:21.307Z</time>
      </trkpt>
      <trkpt lat="42.50259167" lon="1.51479167">
        <ele>991.0</ele>
        <time>2019-08-04T12:38:22.328Z</time>
      </trkpt>
      <trkpt lat="42.50259167" lon="1.51479167">
        <ele>991.0</ele>
        <time>2019-08-04T12:38:23.309Z</time>
      </trkpt>
      <trkpt lat="42.50266333" lon="1.51492833">
        <ele>992.0</ele>
        <time>2019-08-04T12:38:24.325Z</time>
      </trkpt>
      <trkpt lat="42.50266333" lon="1.51492833">
        <ele>992.0</ele>
        <time>2019-08-04T12:38:25.304Z</time>
      </trkpt>
      <trkpt lat="42.50274667" lon="1.51505833">
        <ele>993.0</ele>
        <time>2019-08-04T12:38:26.324Z</time>
      </trkpt>
      <trkpt lat="42.50278833" lon="1.51512333">
        <ele>993.0</ele>
        <time>2019-08-04T12:38:27.312Z</time>
      </trkpt>
      <trkpt lat="42.50282833" lon="1.51518833">
        <ele>993.0</ele>
        <time>2019-08-04T12:38:28.312Z</time>
      </trkpt>
      <trkpt lat="42.50282833" lon="1.51518833">
        <ele>993.0</ele>
        <time>2019-08-04T12:38:29.307Z</time>
      </trkpt>
      <trkpt lat="42.50290667" lon="1.51532">
        <ele>994.0</ele>
        <time>2019-08-04T12:38:30.321Z</time>
      </trkpt>
      <trkpt lat="42.50294667" lon="1.51538667">
        <ele>994.0</ele>
        <time>2019-08-04T12:38:31.327Z</time>
      </trkpt>
      <trkpt lat="42.50294667" lon="1.51538667">
        <ele>994.0</ele>
        <time>2019-08-04T12:38:32.306Z</time>
      </trkpt>
      <trkpt lat="42.50303" lon="1.515515">
        <ele>995.0</ele>
        <time>2019-08-04T12:38:33.313Z</time>
      </trkpt>
      <trkpt lat="42.50307" lon="1.51557833">
        <ele>995.0</ele>
        <time>2019-08-04T12:38:34.319Z</time>
      </trkpt>
      <trkpt lat="42.50307" lon="1.51557833">
        <ele>995.0</ele>
        <time>2019-08-04T12:38:35.303Z</time>
      </trkpt>
      <trkpt lat="42.503155" lon="1.5157">
        <ele>996.0</ele>
        <time>2019-08-04T12:38:36.322Z</time>
      </trkpt>
      <trkpt lat="42.503155" lon="1.5157">
        <ele>996.0</ele>
        <time>2019-08-04T12:38:37.311Z</time>
      </trkpt>
      <trkpt lat="42.50324333" lon="1.515825">
        <ele>996.0</ele>
        <time>2019-08-04T12:38:38.311Z</time>
      </trkpt>
      <trkpt lat="42.50324333" lon="1.515825">
        <ele>996.0</ele>
        <time>2019-08-04T12:38:39.309Z</time>
      </trkpt>
      <trkpt lat="42.50333167" lon="1.51595167">
        <ele>996.0</ele>
        <time>2019-08-04T12:38:40.313Z</time>
      </trkpt>
      <trkpt lat="42.50333167" lon="1.51595167">
        <ele>996.0</ele>
        <time>2019-08-04T12:38:41.307Z</time>
      </trkpt>
      <trkpt lat="42.503415" lon="1.516085">
        <ele>996.0</ele>
        <time>2019-08-04T12:38:42.312Z</time>
      </trkpt>
      <trkpt lat="42.503415" lon="1.516085">
        <ele>996.0</ele>
        <time>2019-08-04T12:38:43.309Z</time>
      </trkpt>
      <trkpt lat="42.50349167" lon="1.51622333">
        <ele>996.0</ele>
        <time>2019-08-04T12:38:44.320Z</time>
      </trkpt>
      <trkpt lat="42.50349167" lon="1.51622333">
        <ele>996.0</ele>
        <time>2019-08-04T12:38:45.314Z</time>
      </trkpt>
      <trkpt lat="42.503555" lon="1.51636833">
        <ele>997.0</ele>
        <time>2019-08-04T12:38:46.312Z</time>
      </trkpt>
      <trkpt lat="42.503555" lon="1.51636833">
        <ele>997.0</ele>
        <time>2019-08-04T12:38:47.309Z</time>
      </trkpt>
      <trkpt lat="42.503605" lon="1.51651833">
        <ele>997.0</ele>
        <time>2019-08-04T12:38:48.329Z</time>
      </trkpt>
      <trkpt lat="42.50362167" lon="1.51659833">
        <ele>997.0</ele>
        <time>2019-08-04T12:38:49.311Z</time>
      </trkpt>
      <trkpt lat="42.50362167" lon="1.51659833">
        <ele>997.0</ele>
        <time>2019-08-04T12:38:50.328Z</time>
      </trkpt>
      <trkpt lat="42.50364333" lon="1.51676333">
        <ele>997.0</ele>
        <time>2019-08-04T12:38:51.311Z</time>
      </trkpt>
      <trkpt lat="42.50364333" lon="1.51676333">
        <ele>997.0</ele>
        <time>2019-08-04T12:38:52.328Z</time>
      </trkpt>
      <trkpt lat="42.50365" lon="1.51693">
        <ele>997.0</ele>
        <time>2019-08-04T12:38:53.312Z</time>
      </trkpt>
      <trkpt lat="42.50365" lon="1.51701333">
        <ele>997.0</ele>
        <time>2019-08-04T12:38:54.328Z</time>
      </trkpt>
      <trkpt lat="42.50365" lon="1.51701333">
        <ele>997.0</ele>
        <time>2019-08-04T12:38:55.307Z</time>
      </trkpt>
      <trkpt lat="42.50364833" lon="1.517185">
        <ele>997.0</ele>
        <time>2019-08-04T12:38:56.327Z</time>
      </trkpt>
      <trkpt lat="42.50364833" lon="1.517185">
        <ele>997.0</ele>
        <time>2019-08-04T12:38:57.305Z</time>
      </trkpt>
      <trkpt lat="42.50364167" lon="1.51735667">
        <ele>997.0</ele>
        <time>2019-08-04T12:38:58.325Z</time>
      </trkpt>
      <trkpt lat="42.50364167" lon="1.51735667">
        <ele>997.0</ele>
        <time>2019-08-04T12:38:59.306Z</time>
      </trkpt>
      <trkpt lat="42.503635" lon="1.51753">
        <ele>997.0</ele>
        <time>2019-08-04T12:39:00.327Z</time>
      </trkpt>
      <trkpt lat="42.503635" lon="1.51753">
        <ele>997.0</ele>
        <time>2019-08-04T12:39:01.309Z</time>
      </trkpt>
      <trkpt lat="42.50362667" lon="1.51770833">
        <ele>997.0</ele>
        <time>2019-08-04T12:39:02.312Z</time>
      </trkpt>
      <trkpt lat="42.50362667" lon="1.51770833">
        <ele>997.0</ele>
        <time>2019-08-04T12:39:03.328Z</time>
      </trkpt>
      <trkpt lat="42.50361833" lon="1.51788833">
        <ele>996.0</ele>
        <time>2019-08-04T12:39:04.320Z</time>
      </trkpt>
      <trkpt lat="42.50361833" lon="1.51788833">
        <ele>996.0</ele>
        <time>2019-08-04T12:39:05.308Z</time>
      </trkpt>
      <trkpt lat="42.503605" lon="1.51806667">
        <ele>996.0</ele>
        <time>2019-08-04T12:39:06.311Z</time>
      </trkpt>
      <trkpt lat="42.503605" lon="1.51806667">
        <ele>996.0</ele>
        <time>2019-08-04T12:39:07.325Z</time>
      </trkpt>
      <trkpt lat="42.50359167" lon="1.518245">
        <ele>996.0</ele>
        <time>2019-08-04T12:39:08.312Z</time>
      </trkpt>
      <trkpt lat="42.503585" lon="1.51833333">
        <ele>996.0</ele>
        <time>2019-08-04T12:39:09.327Z</time>
      </trkpt>
      <trkpt lat="42.50357833" lon="1.51842167">
        <ele>996.0</ele>
        <time>2019-08-04T12:39:10.313Z</time>
      </trkpt>
      <trkpt lat="42.50357833" lon="1.51842167">
        <ele>996.0</ele>
        <time>2019-08-04T12:39:11.309Z</time>
      </trkpt>
      <trkpt lat="42.50357833" lon="1.51842167">
        <ele>996.0</ele>
        <time>2019-08-04T12:39:12.456Z</time>
      </trkpt>
      <trkpt lat="42.50356667" lon="1.51859667">
        <ele>996.0</ele>
        <time>2019-08-04T12:39:13.312Z</time>
      </trkpt>
      <trkpt lat="42.50355667" lon="1.51876667">
        <ele>996.0</ele>
        <time>2019-08-04T12:39:14.319Z</time>
      </trkpt>
      <trkpt lat="42.50355667" lon="1.51876667">
        <ele>996.0</ele>
        <time>2019-08-04T12:39:15.309Z</time>
      </trkpt>
      <trkpt lat="42.503545" lon="1.518935">
        <ele>996.0</ele>
        <time>2019-08-04T12:39:16.328Z</time>
      </trkpt>
      <trkpt lat="42.503545" lon="1.518935">
        <ele>996.0</ele>
        <time>2019-08-04T12:39:17.308Z</time>
      </trkpt>
      <trkpt lat="42.50352" lon="1.51909667">
        <ele>996.0</ele>
        <time>2019-08-04T12:39:18.312Z</time>
      </trkpt>
      <trkpt lat="42.50352" lon="1.51909667">
        <ele>996.0</ele>
        <time>2019-08-04T12:39:19.307Z</time>
      </trkpt>
      <trkpt lat="42.50346833" lon="1.51925">
        <ele>996.0</ele>
        <time>2019-08-04T12:39:20.328Z</time>
      </trkpt>
      <trkpt lat="42.50346833" lon="1.51925">
        <ele>996.0</ele>
        <time>2019-08-04T12:39:21.307Z</time>
      </trkpt>
      <trkpt lat="42.5034" lon="1.51939167">
        <ele>996.0</ele>
        <time>2019-08-04T12:39:22.328Z</time>
      </trkpt>
      <trkpt lat="42.50336" lon="1.51945667">
        <ele>996.0</ele>
        <time>2019-08-04T12:39:23.313Z</time>
      </trkpt>
      <trkpt lat="42.50336" lon="1.51945667">
        <ele>996.0</ele>
        <time>2019-08-04T12:39:24.303Z</time>
      </trkpt>
      <trkpt lat="42.50327" lon="1.519565">
        <ele>996.0</ele>
        <time>2019-08-04T12:39:25.319Z</time>
      </trkpt>
      <trkpt lat="42.50327" lon="1.519565">
        <ele>996.0</ele>
        <time>2019-08-04T12:39:26.307Z</time>
      </trkpt>
      <trkpt lat="42.50318167" lon="1.51967167">
        <ele>996.0</ele>
        <time>2019-08-04T12:39:27.297Z</time>
      </trkpt>
      <trkpt lat="42.50314" lon="1.519725">
        <ele>996.0</ele>
        <time>2019-08-04T12:39:28.313Z</time>
      </trkpt>
      <trkpt lat="42.50314" lon="1.519725">
        <ele>996.0</ele>
        <time>2019-08-04T12:39:29.302Z</time>
      </trkpt>
      <trkpt lat="42.50307167" lon="1.51983">
        <ele>997.0</ele>
        <time>2019-08-04T12:39:30.317Z</time>
      </trkpt>
      <trkpt lat="42.50307167" lon="1.51983">
        <ele>997.0</ele>
        <time>2019-08-04T12:39:31.322Z</time>
      </trkpt>
      <trkpt lat="42.50301167" lon="1.51992833">
        <ele>998.0</ele>
        <time>2019-08-04T12:39:32.311Z</time>
      </trkpt>
      <trkpt lat="42.50301167" lon="1.51992833">
        <ele>998.0</ele>
        <time>2019-08-04T12:39:33.328Z</time>
      </trkpt>
      <trkpt lat="42.50296" lon="1.52001833">
        <ele>998.0</ele>
        <time>2019-08-04T12:39:34.321Z</time>
      </trkpt>
      <trkpt lat="42.50296" lon="1.52001833">
        <ele>998.0</ele>
        <time>2019-08-04T12:39:35.317Z</time>
      </trkpt>
      <trkpt lat="42.50290167" lon="1.520085">
        <ele>999.0</ele>
        <time>2019-08-04T12:39:36.312Z</time>
      </trkpt>
      <trkpt lat="42.502875" lon="1.52011667">
        <ele>1000.0</ele>
        <time>2019-08-04T12:39:37.312Z</time>
      </trkpt>
      <trkpt lat="42.502875" lon="1.52011667">
        <ele>1000.0</ele>
        <time>2019-08-04T12:39:38.306Z</time>
      </trkpt>
      <trkpt lat="42.50281167" lon="1.52017">
        <ele>1001.0</ele>
        <time>2019-08-04T12:39:39.312Z</time>
      </trkpt>
      <trkpt lat="42.502775" lon="1.52018667">
        <ele>1001.0</ele>
        <time>2019-08-04T12:39:40.312Z</time>
      </trkpt>
      <trkpt lat="42.502775" lon="1.52018667">
        <ele>1001.0</ele>
        <time>2019-08-04T12:39:41.309Z</time>
      </trkpt>
      <trkpt lat="42.50269833" lon="1.520195">
        <ele>1001.0</ele>
        <time>2019-08-04T12:39:42.331Z</time>
      </trkpt>
      <trkpt lat="42.50266" lon="1.52018667">
        <ele>1002.0</ele>
        <time>2019-08-04T12:39:43.312Z</time>
      </trkpt>
      <trkpt lat="42.50262667" lon="1.52017">
        <ele>1002.0</ele>
        <time>2019-08-04T12:39:44.319Z</time>
      </trkpt>
      <trkpt lat="42.50262667" lon="1.52017">
        <ele>1002.0</ele>
        <time>2019-08-04T12:39:45.306Z</time>
      </trkpt>
      <trkpt lat="42.502575" lon="1.52014">
        <ele>1003.0</ele>
        <time>2019-08-04T12:39:46.327Z</time>
      </trkpt>
      <trkpt lat="42.502575" lon="1.52014">
        <ele>1003.0</ele>
        <time>2019-08-04T12:39:47.308Z</time>
      </trkpt>
      <trkpt lat="42.50252667" lon="1.52011667">
        <ele>1003.0</ele>
        <time>2019-08-04T12:39:48.312Z</time>
      </trkpt>
      <trkpt lat="42.50252667" lon="1.52011667">
        <ele>1003.0</ele>
        <time>2019-08-04T12:39:49.328Z</time>
      </trkpt>
      <trkpt lat="42.50248333" lon="1.520085">
        <ele>1004.0</ele>
        <time>2019-08-04T12:39:50.311Z</time>
      </trkpt>
      <trkpt lat="42.50248333" lon="1.520085">
        <ele>1004.0</ele>
        <time>2019-08-04T12:39:51.328Z</time>
      </trkpt>
      <trkpt lat="42.50244333" lon="1.52005">
        <ele>1004.0</ele>
        <time>2019-08-04T12:39:52.311Z</time>
      </trkpt>
      <trkpt lat="42.50242333" lon="1.520035">
        <ele>1005.0</ele>
        <time>2019-08-04T12:39:53.313Z</time>
      </trkpt>
      <trkpt lat="42.50242333" lon="1.520035">
        <ele>1005.0</ele>
        <time>2019-08-04T12:39:54.307Z</time>
      </trkpt>
      <trkpt lat="42.50239333" lon="1.52000833">
        <ele>1005.0</ele>
        <time>2019-08-04T12:39:55.322Z</time>
      </trkpt>
      <trkpt lat="42.50239333" lon="1.52000833">
        <ele>1005.0</ele>
        <time>2019-08-04T12:39:56.306Z</time>
      </trkpt>
      <trkpt lat="42.50237" lon="1.51999333">
        <ele>1006.0</ele>
        <time>2019-08-04T12:39:57.326Z</time>
      </trkpt>
      <trkpt lat="42.50235333" lon="1.51998333">
        <ele>1006.0</ele>
        <time>2019-08-04T12:39:58.312Z</time>
      </trkpt>
      <trkpt lat="42.50235333" lon="1.51998333">
        <ele>1006.0</ele>
        <time>2019-08-04T12:39:59.309Z</time>
      </trkpt>
      <trkpt lat="42.50231667" lon="1.51995333">
        <ele>1006.0</ele>
        <time>2019-08-04T12:40:00.322Z</time>
      </trkpt>
      <trkpt lat="42.50231667" lon="1.51995333">
        <ele>1006.0</ele>
        <time>2019-08-04T12:40:01.308Z</time>
      </trkpt>
      <trkpt lat="42.50228" lon="1.51992333">
        <ele>1007.0</ele>
        <time>2019-08-04T12:40:02.312Z</time>
      </trkpt>
      <trkpt lat="42.50228" lon="1.51992333">
        <ele>1007.0</ele>
        <time>2019-08-04T12:40:03.328Z</time>
      </trkpt>
      <trkpt lat="42.50224333" lon="1.51990167">
        <ele>1007.0</ele>
        <time>2019-08-04T12:40:04.320Z</time>
      </trkpt>
      <trkpt lat="42.50224333" lon="1.51990167">
        <ele>1007.0</ele>
        <time>2019-08-04T12:40:05.309Z</time>
      </trkpt>
      <trkpt lat="42.502205" lon="1.51988333">
        <ele>1008.0</ele>
        <time>2019-08-04T12:40:06.331Z</time>
      </trkpt>
      <trkpt lat="42.502205" lon="1.51988333">
        <ele>1008.0</ele>
        <time>2019-08-04T12:40:07.310Z</time>
      </trkpt>
      <trkpt lat="42.502205" lon="1.51988333">
        <ele>1008.0</ele>
        <time>2019-08-04T12:40:08.455Z</time>
      </trkpt>
      <trkpt lat="42.50213667" lon="1.51986833">
        <ele>1009.0</ele>
        <time>2019-08-04T12:40:09.312Z</time>
      </trkpt>
      <trkpt lat="42.502115" lon="1.51986833">
        <ele>1010.0</ele>
        <time>2019-08-04T12:40:10.328Z</time>
      </trkpt>
      <trkpt lat="42.502115" lon="1.51986833">
        <ele>1010.0</ele>
        <time>2019-08-04T12:40:11.307Z</time>
      </trkpt>
      <trkpt lat="42.50207167" lon="1.51987167">
        <ele>1011.0</ele>
        <time>2019-08-04T12:40:12.331Z</time>
      </trkpt>
      <trkpt lat="42.50207167" lon="1.51987167">
        <ele>1011.0</ele>
        <time>2019-08-04T12:40:13.311Z</time>
      </trkpt>
      <trkpt lat="42.502035" lon="1.51987667">
        <ele>1012.0</ele>
        <time>2019-08-04T12:40:14.319Z</time>
      </trkpt>
      <trkpt lat="42.502035" lon="1.51987667">
        <ele>1012.0</ele>
        <time>2019-08-04T12:40:15.308Z</time>
      </trkpt>
      <trkpt lat="42.50199667" lon="1.519875">
        <ele>1013.0</ele>
        <time>2019-08-04T12:40:16.332Z</time>
      </trkpt>
      <trkpt lat="42.501975" lon="1.51987167">
        <ele>1013.0</ele>
        <time>2019-08-04T12:40:17.313Z</time>
      </trkpt>
      <trkpt lat="42.501955" lon="1.51986667">
        <ele>1013.0</ele>
        <time>2019-08-04T12:40:18.312Z</time>
      </trkpt>
      <trkpt lat="42.501955" lon="1.51986667">
        <ele>1013.0</ele>
        <time>2019-08-04T12:40:19.310Z</time>
      </trkpt>
      <trkpt lat="42.50191333" lon="1.51986167">
        <ele>1014.0</ele>
        <time>2019-08-04T12:40:20.312Z</time>
      </trkpt>
      <trkpt lat="42.50189333" lon="1.51986">
        <ele>1014.0</ele>
        <time>2019-08-04T12:40:21.313Z</time>
      </trkpt>
      <trkpt lat="42.50189333" lon="1.51986">
        <ele>1014.0</ele>
        <time>2019-08-04T12:40:22.310Z</time>
      </trkpt>
      <trkpt lat="42.50185333" lon="1.51985667">
        <ele>1014.0</ele>
        <time>2019-08-04T12:40:23.327Z</time>
      </trkpt>
      <trkpt lat="42.50185333" lon="1.51985667">
        <ele>1014.0</ele>
        <time>2019-08-04T12:40:24.314Z</time>
      </trkpt>
      <trkpt lat="42.501815" lon="1.51986">
        <ele>1015.0</ele>
        <time>2019-08-04T12:40:25.322Z</time>
      </trkpt>
      <trkpt lat="42.501815" lon="1.51986">
        <ele>1015.0</ele>
        <time>2019-08-04T12:40:26.302Z</time>
      </trkpt>
      <trkpt lat="42.50177667" lon="1.51985833">
        <ele>1015.0</ele>
        <time>2019-08-04T12:40:27.322Z</time>
      </trkpt>
      <trkpt lat="42.50175833" lon="1.51985667">
        <ele>1015.0</ele>
        <time>2019-08-04T12:40:28.313Z</time>
      </trkpt>
      <trkpt lat="42.50175833" lon="1.51985667">
        <ele>1015.0</ele>
        <time>2019-08-04T12:40:29.301Z</time>
      </trkpt>
      <trkpt lat="42.50172167" lon="1.51985833">
        <ele>1016.0</ele>
        <time>2019-08-04T12:40:30.316Z</time>
      </trkpt>
      <trkpt lat="42.50172167" lon="1.51985833">
        <ele>1016.0</ele>
        <time>2019-08-04T12:40:31.322Z</time>
      </trkpt>
      <trkpt lat="42.50168333" lon="1.51986">
        <ele>1016.0</ele>
        <time>2019-08-04T12:40:32.331Z</time>
      </trkpt>
      <trkpt lat="42.501665" lon="1.51986">
        <ele>1016.0</ele>
        <time>2019-08-04T12:40:33.312Z</time>
      </trkpt>
      <trkpt lat="42.501645" lon="1.51986167">
        <ele>1017.0</ele>
        <time>2019-08-04T12:40:34.329Z</time>
      </trkpt>
      <trkpt lat="42.501645" lon="1.51986167">
        <ele>1017.0</ele>
        <time>2019-08-04T12:40:35.317Z</time>
      </trkpt>
      <trkpt lat="42.50160333" lon="1.51986333">
        <ele>1017.0</ele>
        <time>2019-08-04T12:40:36.297Z</time>
      </trkpt>
      <trkpt lat="42.50160333" lon="1.51986333">
        <ele>1017.0</ele>
        <time>2019-08-04T12:40:37.331Z</time>
      </trkpt>
      <trkpt lat="42.50156167" lon="1.51985833">
        <ele>1017.0</ele>
        <time>2019-08-04T12:40:38.312Z</time>
      </trkpt>
      <trkpt lat="42.50156167" lon="1.51985833">
        <ele>1017.0</ele>
        <time>2019-08-04T12:40:39.306Z</time>
      </trkpt>
      <trkpt lat="42.50152167" lon="1.51985167">
        <ele>1018.0</ele>
        <time>2019-08-04T12:40:40.328Z</time>
      </trkpt>
      <trkpt lat="42.50152167" lon="1.51985167">
        <ele>1018.0</ele>
        <time>2019-08-04T12:40:41.307Z</time>
      </trkpt>
      <trkpt lat="42.50148" lon="1.51984">
        <ele>1018.0</ele>
        <time>2019-08-04T12:40:42.325Z</time>
      </trkpt>
      <trkpt lat="42.50146" lon="1.51983167">
        <ele>1018.0</ele>
        <time>2019-08-04T12:40:43.313Z</time>
      </trkpt>
      <trkpt lat="42.50144" lon="1.519825">
        <ele>1018.0</ele>
        <time>2019-08-04T12:40:44.319Z</time>
      </trkpt>
      <trkpt lat="42.50144" lon="1.519825">
        <ele>1018.0</ele>
        <time>2019-08-04T12:40:45.307Z</time>
      </trkpt>
      <trkpt lat="42.50140333" lon="1.51980833">
        <ele>1019.0</ele>
        <time>2019-08-04T12:40:46.328Z</time>
      </trkpt>
      <trkpt lat="42.50140333" lon="1.51980833">
        <ele>1019.0</ele>
        <time>2019-08-04T12:40:47.306Z</time>
      </trkpt>
      <trkpt lat="42.50136833" lon="1.51979">
        <ele>1019.0</ele>
        <time>2019-08-04T12:40:48.328Z</time>
      </trkpt>
      <trkpt lat="42.50136833" lon="1.51979">
        <ele>1019.0</ele>
        <time>2019-08-04T12:40:49.307Z</time>
      </trkpt>
      <trkpt lat="42.501335" lon="1.51976667">
        <ele>1020.0</ele>
        <time>2019-08-04T12:40:50.313Z</time>
      </trkpt>
      <trkpt lat="42.501335" lon="1.51976667">
        <ele>1020.0</ele>
        <time>2019-08-04T12:40:51.307Z</time>
      </trkpt>
      <trkpt lat="42.50131" lon="1.51973667">
        <ele>1020.0</ele>
        <time>2019-08-04T12:40:52.328Z</time>
      </trkpt>
      <trkpt lat="42.50131" lon="1.51973667">
        <ele>1020.0</ele>
        <time>2019-08-04T12:40:53.307Z</time>
      </trkpt>
      <trkpt lat="42.50128167" lon="1.51970167">
        <ele>1020.0</ele>
        <time>2019-08-04T12:40:54.320Z</time>
      </trkpt>
      <trkpt lat="42.50128167" lon="1.51970167">
        <ele>1020.0</ele>
        <time>2019-08-04T12:40:55.307Z</time>
      </trkpt>
      <trkpt lat="42.501255" lon="1.51966833">
        <ele>1021.0</ele>
        <time>2019-08-04T12:40:56.327Z</time>
      </trkpt>
      <trkpt lat="42.501255" lon="1.51966833">
        <ele>1021.0</ele>
        <time>2019-08-04T12:40:57.307Z</time>
      </trkpt>
      <trkpt lat="42.50122833" lon="1.51962833">
        <ele>1021.0</ele>
        <time>2019-08-04T12:40:58.328Z</time>
      </trkpt>
      <trkpt lat="42.50122833" lon="1.51962833">
        <ele>1021.0</ele>
        <time>2019-08-04T12:40:59.307Z</time>
      </trkpt>
      <trkpt lat="42.501205" lon="1.519585">
        <ele>1022.0</ele>
        <time>2019-08-04T12:41:00.328Z</time>
      </trkpt>
      <trkpt lat="42.501205" lon="1.519585">
        <ele>1022.0</ele>
        <time>2019-08-04T12:41:01.307Z</time>
      </trkpt>
      <trkpt lat="42.50118167" lon="1.519535">
        <ele>1022.0</ele>
        <time>2019-08-04T12:41:02.328Z</time>
      </trkpt>
      <trkpt lat="42.50117" lon="1.51950667">
        <ele>1022.0</ele>
        <time>2019-08-04T12:41:03.313Z</time>
      </trkpt>
      <trkpt lat="42.50117" lon="1.51950667">
        <ele>1022.0</ele>
        <time>2019-08-04T12:41:04.307Z</time>
      </trkpt>
      <trkpt lat="42.50115" lon="1.51944333">
        <ele>1022.0</ele>
        <time>2019-08-04T12:41:05.333Z</time>
      </trkpt>
      <trkpt lat="42.50113833" lon="1.51941167">
        <ele>1022.0</ele>
        <time>2019-08-04T12:41:06.312Z</time>
      </trkpt>
      <trkpt lat="42.50113833" lon="1.51941167">
        <ele>1022.0</ele>
        <time>2019-08-04T12:41:07.331Z</time>
      </trkpt>
      <trkpt lat="42.50113833" lon="1.51941167">
        <ele>1022.0</ele>
        <time>2019-08-04T12:41:08.464Z</time>
      </trkpt>
      <trkpt lat="42.50111667" lon="1.51935">
        <ele>1023.0</ele>
        <time>2019-08-04T12:41:09.307Z</time>
      </trkpt>
      <trkpt lat="42.50109167" lon="1.519285">
        <ele>1023.0</ele>
        <time>2019-08-04T12:41:10.328Z</time>
      </trkpt>
      <trkpt lat="42.50109167" lon="1.519285">
        <ele>1023.0</ele>
        <time>2019-08-04T12:41:11.307Z</time>
      </trkpt>
      <trkpt lat="42.50107" lon="1.51922667">
        <ele>1023.0</ele>
        <time>2019-08-04T12:41:12.332Z</time>
      </trkpt>
      <trkpt lat="42.50105833" lon="1.5192">
        <ele>1023.0</ele>
        <time>2019-08-04T12:41:13.314Z</time>
      </trkpt>
      <trkpt lat="42.50105833" lon="1.5192">
        <ele>1023.0</ele>
        <time>2019-08-04T12:41:14.319Z</time>
      </trkpt>
      <trkpt lat="42.50103333" lon="1.51913833">
        <ele>1024.0</ele>
        <time>2019-08-04T12:41:15.315Z</time>
      </trkpt>
      <trkpt lat="42.50103333" lon="1.51913833">
        <ele>1024.0</ele>
        <time>2019-08-04T12:41:16.312Z</time>
      </trkpt>
      <trkpt lat="42.50101333" lon="1.51908">
        <ele>1024.0</ele>
        <time>2019-08-04T12:41:17.296Z</time>
      </trkpt>
      <trkpt lat="42.50100333" lon="1.51905">
        <ele>1024.0</ele>
        <time>2019-08-04T12:41:18.313Z</time>
      </trkpt>
      <trkpt lat="42.50100333" lon="1.51905">
        <ele>1024.0</ele>
        <time>2019-08-04T12:41:19.308Z</time>
      </trkpt>
      <trkpt lat="42.50100333" lon="1.51905">
        <ele>1024.0</ele>
        <time>2019-08-04T12:41:20.331Z</time>
      </trkpt>
      <trkpt lat="42.500985" lon="1.518985">
        <ele>1024.0</ele>
        <time>2019-08-04T12:41:21.312Z</time>
      </trkpt>
      <trkpt lat="42.50098167" lon="1.51892">
        <ele>1025.0</ele>
        <time>2019-08-04T12:41:22.315Z</time>
      </trkpt>
      <trkpt lat="42.50098167" lon="1.51892">
        <ele>1025.0</ele>
        <time>2019-08-04T12:41:23.311Z</time>
      </trkpt>
      <trkpt lat="42.50098333" lon="1.518855">
        <ele>1025.0</ele>
        <time>2019-08-04T12:41:24.328Z</time>
      </trkpt>
      <trkpt lat="42.50098333" lon="1.518855">
        <ele>1025.0</ele>
        <time>2019-08-04T12:41:25.312Z</time>
      </trkpt>
      <trkpt lat="42.50098833" lon="1.5188">
        <ele>1026.0</ele>
        <time>2019-08-04T12:41:26.315Z</time>
      </trkpt>
      <trkpt lat="42.50098833" lon="1.51877">
        <ele>1026.0</ele>
        <time>2019-08-04T12:41:27.333Z</time>
      </trkpt>
      <trkpt lat="42.50098833" lon="1.51877">
        <ele>1026.0</ele>
        <time>2019-08-04T12:41:28.319Z</time>
      </trkpt>
      <trkpt lat="42.500975" lon="1.51869833">
        <ele>1026.0</ele>
        <time>2019-08-04T12:41:29.308Z</time>
      </trkpt>
      <trkpt lat="42.50097" lon="1.51866833">
        <ele>1027.0</ele>
        <time>2019-08-04T12:41:30.324Z</time>
      </trkpt>
      <trkpt lat="42.500965" lon="1.51863833">
        <ele>1027.0</ele>
        <time>2019-08-04T12:41:31.314Z</time>
      </trkpt>
      <trkpt lat="42.500965" lon="1.51863833">
        <ele>1027.0</ele>
        <time>2019-08-04T12:41:32.333Z</time>
      </trkpt>
      <trkpt lat="42.50096" lon="1.51858">
        <ele>1027.0</ele>
        <time>2019-08-04T12:41:33.315Z</time>
      </trkpt>
      <trkpt lat="42.50096" lon="1.51858">
        <ele>1027.0</ele>
        <time>2019-08-04T12:41:34.320Z</time>
      </trkpt>
      <trkpt lat="42.50096167" lon="1.51852">
        <ele>1028.0</ele>
        <time>2019-08-04T12:41:35.330Z</time>
      </trkpt>
      <trkpt lat="42.50096167" lon="1.51852">
        <ele>1028.0</ele>
        <time>2019-08-04T12:41:36.311Z</time>
      </trkpt>
      <trkpt lat="42.500965" lon="1.518465">
        <ele>1029.0</ele>
        <time>2019-08-04T12:41:37.333Z</time>
      </trkpt>
      <trkpt lat="42.50096667" lon="1.51843667">
        <ele>1030.0</ele>
        <time>2019-08-04T12:41:38.315Z</time>
      </trkpt>
      <trkpt lat="42.50096667" lon="1.51843667">
        <ele>1030.0</ele>
        <time>2019-08-04T12:41:39.313Z</time>
      </trkpt>
      <trkpt lat="42.50097333" lon="1.518385">
        <ele>1031.0</ele>
        <time>2019-08-04T12:41:40.315Z</time>
      </trkpt>
      <trkpt lat="42.50097333" lon="1.518385">
        <ele>1031.0</ele>
        <time>2019-08-04T12:41:41.308Z</time>
      </trkpt>
      <trkpt lat="42.50098667" lon="1.518335">
        <ele>1032.0</ele>
        <time>2019-08-04T12:41:42.329Z</time>
      </trkpt>
      <trkpt lat="42.50098667" lon="1.518335">
        <ele>1032.0</ele>
        <time>2019-08-04T12:41:43.312Z</time>
      </trkpt>
      <trkpt lat="42.50099833" lon="1.51828333">
        <ele>1033.0</ele>
        <time>2019-08-04T12:41:44.328Z</time>
      </trkpt>
      <trkpt lat="42.50099833" lon="1.51828333">
        <ele>1033.0</ele>
        <time>2019-08-04T12:41:45.311Z</time>
      </trkpt>
      <trkpt lat="42.50101667" lon="1.51822833">
        <ele>1033.0</ele>
        <time>2019-08-04T12:41:46.315Z</time>
      </trkpt>
      <trkpt lat="42.501025" lon="1.51820167">
        <ele>1034.0</ele>
        <time>2019-08-04T12:41:47.303Z</time>
      </trkpt>
      <trkpt lat="42.501025" lon="1.51820167">
        <ele>1034.0</ele>
        <time>2019-08-04T12:41:48.320Z</time>
      </trkpt>
      <trkpt lat="42.50104667" lon="1.518155">
        <ele>1034.0</ele>
        <time>2019-08-04T12:41:49.314Z</time>
      </trkpt>
      <trkpt lat="42.50105167" lon="1.51812667">
        <ele>1035.0</ele>
        <time>2019-08-04T12:41:50.313Z</time>
      </trkpt>
      <trkpt lat="42.50105167" lon="1.51812667">
        <ele>1035.0</ele>
        <time>2019-08-04T12:41:51.329Z</time>
      </trkpt>
      <trkpt lat="42.50105833" lon="1.51807">
        <ele>1035.0</ele>
        <time>2019-08-04T12:41:52.315Z</time>
      </trkpt>
      <trkpt lat="42.50105833" lon="1.51803833">
        <ele>1035.0</ele>
        <time>2019-08-04T12:41:53.314Z</time>
      </trkpt>
      <trkpt lat="42.50105833" lon="1.51803833">
        <ele>1035.0</ele>
        <time>2019-08-04T12:41:54.309Z</time>
      </trkpt>
      <trkpt lat="42.501055" lon="1.51800333">
        <ele>1035.0</ele>
        <time>2019-08-04T12:41:55.309Z</time>
      </trkpt>
      <trkpt lat="42.50105167" lon="1.51793667">
        <ele>1036.0</ele>
        <time>2019-08-04T12:41:56.314Z</time>
      </trkpt>
      <trkpt lat="42.50105167" lon="1.51793667">
        <ele>1036.0</ele>
        <time>2019-08-04T12:41:57.329Z</time>
      </trkpt>
      <trkpt lat="42.50103667" lon="1.51787833">
        <ele>1036.0</ele>
        <time>2019-08-04T12:41:58.315Z</time>
      </trkpt>
      <trkpt lat="42.50103667" lon="1.51787833">
        <ele>1036.0</ele>
        <time>2019-08-04T12:41:59.311Z</time>
      </trkpt>
      <trkpt lat="42.50101" lon="1.51783">
        <ele>1036.0</ele>
        <time>2019-08-04T12:42:00.314Z</time>
      </trkpt>
      <trkpt lat="42.50101" lon="1.51783">
        <ele>1036.0</ele>
        <time>2019-08-04T12:42:01.312Z</time>
      </trkpt>
      <trkpt lat="42.50097167" lon="1.51779333">
        <ele>1036.0</ele>
        <time>2019-08-04T12:42:02.333Z</time>
      </trkpt>
      <trkpt lat="42.50097167" lon="1.51779333">
        <ele>1036.0</ele>
        <time>2019-08-04T12:42:03.314Z</time>
      </trkpt>
      <trkpt lat="42.50093167" lon="1.51777">
        <ele>1037.0</ele>
        <time>2019-08-04T12:42:04.319Z</time>
      </trkpt>
      <trkpt lat="42.50091" lon="1.51775833">
        <ele>1037.0</ele>
        <time>2019-08-04T12:42:05.314Z</time>
      </trkpt>
      <trkpt lat="42.50091" lon="1.51775833">
        <ele>1037.0</ele>
        <time>2019-08-04T12:42:06.311Z</time>
      </trkpt>
      <trkpt lat="42.500865" lon="1.51774333">
        <ele>1037.0</ele>
        <time>2019-08-04T12:42:07.333Z</time>
      </trkpt>
      <trkpt lat="42.50084333" lon="1.517735">
        <ele>1038.0</ele>
        <time>2019-08-04T12:42:08.316Z</time>
      </trkpt>
      <trkpt lat="42.50084333" lon="1.517735">
        <ele>1038.0</ele>
        <time>2019-08-04T12:42:09.309Z</time>
      </trkpt>
      <trkpt lat="42.50079833" lon="1.51772333">
        <ele>1038.0</ele>
        <time>2019-08-04T12:42:10.330Z</time>
      </trkpt>
      <trkpt lat="42.500775" lon="1.51771667">
        <ele>1038.0</ele>
        <time>2019-08-04T12:42:11.314Z</time>
      </trkpt>
      <trkpt lat="42.50075333" lon="1.51770833">
        <ele>1038.0</ele>
        <time>2019-08-04T12:42:12.314Z</time>
      </trkpt>
      <trkpt lat="42.50075333" lon="1.51770833">
        <ele>1038.0</ele>
        <time>2019-08-04T12:42:13.329Z</time>
      </trkpt>
      <trkpt lat="42.50075333" lon="1.51770833">
        <ele>1038.0</ele>
        <time>2019-08-04T12:42:14.539Z</time>
      </trkpt>
      <trkpt lat="42.50069" lon="1.51769167">
        <ele>1039.0</ele>
        <time>2019-08-04T12:42:15.318Z</time>
      </trkpt>
      <trkpt lat="42.50067167" lon="1.51769">
        <ele>1039.0</ele>
        <time>2019-08-04T12:42:16.315Z</time>
      </trkpt>
      <trkpt lat="42.50067167" lon="1.51769">
        <ele>1039.0</ele>
        <time>2019-08-04T12:42:17.303Z</time>
      </trkpt>
      <trkpt lat="42.50063333" lon="1.51768667">
        <ele>1039.0</ele>
        <time>2019-08-04T12:42:18.321Z</time>
      </trkpt>
      <trkpt lat="42.50061667" lon="1.51768667">
        <ele>1040.0</ele>
        <time>2019-08-04T12:42:19.315Z</time>
      </trkpt>
      <trkpt lat="42.50061667" lon="1.51768667">
        <ele>1040.0</ele>
        <time>2019-08-04T12:42:20.312Z</time>
      </trkpt>
      <trkpt lat="42.50057833" lon="1.51768833">
        <ele>1041.0</ele>
        <time>2019-08-04T12:42:21.315Z</time>
      </trkpt>
      <trkpt lat="42.500555" lon="1.51768833">
        <ele>1041.0</ele>
        <time>2019-08-04T12:42:22.334Z</time>
      </trkpt>
      <trkpt lat="42.500555" lon="1.51768833">
        <ele>1041.0</ele>
        <time>2019-08-04T12:42:23.312Z</time>
      </trkpt>
      <trkpt lat="42.50051333" lon="1.51769167">
        <ele>1042.0</ele>
        <time>2019-08-04T12:42:24.332Z</time>
      </trkpt>
      <trkpt lat="42.50049667" lon="1.51769167">
        <ele>1042.0</ele>
        <time>2019-08-04T12:42:25.326Z</time>
      </trkpt>
      <trkpt lat="42.50049667" lon="1.51769167">
        <ele>1042.0</ele>
        <time>2019-08-04T12:42:26.312Z</time>
      </trkpt>
      <trkpt lat="42.50049667" lon="1.51769167">
        <ele>1042.0</ele>
        <time>2019-08-04T12:42:27.320Z</time>
      </trkpt>
      <trkpt lat="42.50043833" lon="1.51768667">
        <ele>1043.0</ele>
        <time>2019-08-04T12:42:28.328Z</time>
      </trkpt>
      <trkpt lat="42.50043833" lon="1.51768667">
        <ele>1043.0</ele>
        <time>2019-08-04T12:42:29.301Z</time>
      </trkpt>
      <trkpt lat="42.50039667" lon="1.51767">
        <ele>1044.0</ele>
        <time>2019-08-04T12:42:30.311Z</time>
      </trkpt>
      <trkpt lat="42.50039667" lon="1.51767">
        <ele>1044.0</ele>
        <time>2019-08-04T12:42:31.316Z</time>
      </trkpt>
      <trkpt lat="42.500355" lon="1.51765667">
        <ele>1044.0</ele>
        <time>2019-08-04T12:42:32.323Z</time>
      </trkpt>
      <trkpt lat="42.50033833" lon="1.51765">
        <ele>1045.0</ele>
        <time>2019-08-04T12:42:33.314Z</time>
      </trkpt>
      <trkpt lat="42.50032" lon="1.517645">
        <ele>1045.0</ele>
        <time>2019-08-04T12:42:34.330Z</time>
      </trkpt>
      <trkpt lat="42.50032" lon="1.517645">
        <ele>1045.0</ele>
        <time>2019-08-04T12:42:35.310Z</time>
      </trkpt>
      <trkpt lat="42.50027833" lon="1.51763167">
        <ele>1046.0</ele>
        <time>2019-08-04T12:42:36.314Z</time>
      </trkpt>
      <trkpt lat="42.50027833" lon="1.51763167">
        <ele>1046.0</ele>
        <time>2019-08-04T12:42:37.312Z</time>
      </trkpt>
      <trkpt lat="42.500235" lon="1.51762167">
        <ele>1047.0</ele>
        <time>2019-08-04T12:42:38.314Z</time>
      </trkpt>
      <trkpt lat="42.500235" lon="1.51762167">
        <ele>1047.0</ele>
        <time>2019-08-04T12:42:39.451Z</time>
      </trkpt>
      <trkpt lat="42.50019333" lon="1.51760667">
        <ele>1047.0</ele>
        <time>2019-08-04T12:42:40.315Z</time>
      </trkpt>
      <trkpt lat="42.50019333" lon="1.51760667">
        <ele>1047.0</ele>
        <time>2019-08-04T12:42:41.312Z</time>
      </trkpt>
      <trkpt lat="42.50015333" lon="1.51759">
        <ele>1047.0</ele>
        <time>2019-08-04T12:42:42.314Z</time>
      </trkpt>
      <trkpt lat="42.50015333" lon="1.51759">
        <ele>1047.0</ele>
        <time>2019-08-04T12:42:43.312Z</time>
      </trkpt>
      <trkpt lat="42.50011333" lon="1.517575">
        <ele>1048.0</ele>
        <time>2019-08-04T12:42:44.329Z</time>
      </trkpt>
      <trkpt lat="42.50009167" lon="1.51756667">
        <ele>1048.0</ele>
        <time>2019-08-04T12:42:45.314Z</time>
      </trkpt>
      <trkpt lat="42.50007167" lon="1.51755833">
        <ele>1048.0</ele>
        <time>2019-08-04T12:42:46.315Z</time>
      </trkpt>
      <trkpt lat="42.50007167" lon="1.51755833">
        <ele>1048.0</ele>
        <time>2019-08-04T12:42:47.312Z</time>
      </trkpt>
      <trkpt lat="42.50003167" lon="1.51754167">
        <ele>1048.0</ele>
        <time>2019-08-04T12:42:48.314Z</time>
      </trkpt>
      <trkpt lat="42.50001167" lon="1.51753333">
        <ele>1049.0</ele>
        <time>2019-08-04T12:42:49.315Z</time>
      </trkpt>
      <trkpt lat="42.50001167" lon="1.51753333">
        <ele>1049.0</ele>
        <time>2019-08-04T12:42:50.311Z</time>
      </trkpt>
      <trkpt lat="42.49997167" lon="1.51751667">
        <ele>1049.0</ele>
        <time>2019-08-04T12:42:51.315Z</time>
      </trkpt>
      <trkpt lat="42.49995167" lon="1.51751">
        <ele>1050.0</ele>
        <time>2019-08-04T12:42:52.331Z</time>
      </trkpt>
      <trkpt lat="42.49995167" lon="1.51751">
        <ele>1050.0</ele>
        <time>2019-08-04T12:42:53.310Z</time>
      </trkpt>
      <trkpt lat="42.49991167" lon="1.51749333">
        <ele>1050.0</ele>
        <time>2019-08-04T12:42:54.330Z</time>
      </trkpt>
      <trkpt lat="42.49989167" lon="1.51748667">
        <ele>1050.0</ele>
        <time>2019-08-04T12:42:55.315Z</time>
      </trkpt>
      <trkpt lat="42.49987167" lon="1.51747667">
        <ele>1050.0</ele>
        <time>2019-08-04T12:42:56.314Z</time>
      </trkpt>
      <trkpt lat="42.49987167" lon="1.51747667">
        <ele>1050.0</ele>
        <time>2019-08-04T12:42:57.333Z</time>
      </trkpt>
      <trkpt lat="42.49983167" lon="1.517455">
        <ele>1051.0</ele>
        <time>2019-08-04T12:42:58.315Z</time>
      </trkpt>
      <trkpt lat="42.49983167" lon="1.517455">
        <ele>1051.0</ele>
        <time>2019-08-04T12:42:59.312Z</time>
      </trkpt>
      <trkpt lat="42.499795" lon="1.51743333">
        <ele>1051.0</ele>
        <time>2019-08-04T12:43:00.314Z</time>
      </trkpt>
      <trkpt lat="42.499795" lon="1.51743333">
        <ele>1051.0</ele>
        <time>2019-08-04T12:43:01.312Z</time>
      </trkpt>
      <trkpt lat="42.49976167" lon="1.51741333">
        <ele>1052.0</ele>
        <time>2019-08-04T12:43:02.311Z</time>
      </trkpt>
      <trkpt lat="42.49974167" lon="1.51740333">
        <ele>1052.0</ele>
        <time>2019-08-04T12:43:03.328Z</time>
      </trkpt>
      <trkpt lat="42.49974167" lon="1.51740333">
        <ele>1052.0</ele>
        <time>2019-08-04T12:43:04.307Z</time>
      </trkpt>
      <trkpt lat="42.49972167" lon="1.51739167">
        <ele>1052.0</ele>
        <time>2019-08-04T12:43:05.321Z</time>
      </trkpt>
      <trkpt lat="42.49968" lon="1.51737333">
        <ele>1053.0</ele>
        <time>2019-08-04T12:43:06.314Z</time>
      </trkpt>
      <trkpt lat="42.49968" lon="1.51737333">
        <ele>1053.0</ele>
        <time>2019-08-04T12:43:07.333Z</time>
      </trkpt>
      <trkpt lat="42.49963833" lon="1.51735833">
        <ele>1053.0</ele>
        <time>2019-08-04T12:43:08.315Z</time>
      </trkpt>
      <trkpt lat="42.49961667" lon="1.51735333">
        <ele>1054.0</ele>
        <time>2019-08-04T12:43:09.314Z</time>
      </trkpt>
      <trkpt lat="42.49959667" lon="1.51735">
        <ele>1054.0</ele>
        <time>2019-08-04T12:43:10.330Z</time>
      </trkpt>
      <trkpt lat="42.49957667" lon="1.517345">
        <ele>1054.0</ele>
        <time>2019-08-04T12:43:11.316Z</time>
      </trkpt>
      <trkpt lat="42.49957667" lon="1.517345">
        <ele>1054.0</ele>
        <time>2019-08-04T12:43:12.312Z</time>
      </trkpt>
      <trkpt lat="42.49952833" lon="1.51733167">
        <ele>1055.0</ele>
        <time>2019-08-04T12:43:13.335Z</time>
      </trkpt>
      <trkpt lat="42.49952833" lon="1.51733167">
        <ele>1055.0</ele>
        <time>2019-08-04T12:43:14.318Z</time>
      </trkpt>
      <trkpt lat="42.49948333" lon="1.51731333">
        <ele>1055.0</ele>
        <time>2019-08-04T12:43:15.315Z</time>
      </trkpt>
      <trkpt lat="42.49946" lon="1.51730667">
        <ele>1055.0</ele>
        <time>2019-08-04T12:43:16.330Z</time>
      </trkpt>
      <trkpt lat="42.49946" lon="1.51730667">
        <ele>1055.0</ele>
        <time>2019-08-04T12:43:17.308Z</time>
      </trkpt>
      <trkpt lat="42.499415" lon="1.517295">
        <ele>1055.0</ele>
        <time>2019-08-04T12:43:18.328Z</time>
      </trkpt>
      <trkpt lat="42.499415" lon="1.517295">
        <ele>1055.0</ele>
        <time>2019-08-04T12:43:19.309Z</time>
      </trkpt>
      <trkpt lat="42.499415" lon="1.517295">
        <ele>1055.0</ele>
        <time>2019-08-04T12:43:20.469Z</time>
      </trkpt>
      <trkpt lat="42.49936667" lon="1.51728">
        <ele>1056.0</ele>
        <time>2019-08-04T12:43:21.321Z</time>
      </trkpt>
      <trkpt lat="42.49931667" lon="1.51726167">
        <ele>1056.0</ele>
        <time>2019-08-04T12:43:22.315Z</time>
      </trkpt>
      <trkpt lat="42.49931667" lon="1.51726167">
        <ele>1056.0</ele>
        <time>2019-08-04T12:43:23.312Z</time>
      </trkpt>
      <trkpt lat="42.499265" lon="1.51724167">
        <ele>1056.0</ele>
        <time>2019-08-04T12:43:24.329Z</time>
      </trkpt>
      <trkpt lat="42.49924" lon="1.51723">
        <ele>1056.0</ele>
        <time>2019-08-04T12:43:25.314Z</time>
      </trkpt>
      <trkpt lat="42.49924" lon="1.51723">
        <ele>1056.0</ele>
        <time>2019-08-04T12:43:26.312Z</time>
      </trkpt>
      <trkpt lat="42.49919" lon="1.51720167">
        <ele>1056.0</ele>
        <time>2019-08-04T12:43:27.334Z</time>
      </trkpt>
      <trkpt lat="42.499165" lon="1.51718667">
        <ele>1056.0</ele>
        <time>2019-08-04T12:43:28.318Z</time>
      </trkpt>
      <trkpt lat="42.499165" lon="1.51718667">
        <ele>1056.0</ele>
        <time>2019-08-04T12:43:29.300Z</time>
      </trkpt>
      <trkpt lat="42.49911333" lon="1.51715833">
        <ele>1056.0</ele>
        <time>2019-08-04T12:43:30.322Z</time>
      </trkpt>
      <trkpt lat="42.49908833" lon="1.51714333">
        <ele>1056.0</ele>
        <time>2019-08-04T12:43:31.328Z</time>
      </trkpt>
      <trkpt lat="42.49906167" lon="1.51712333">
        <ele>1056.0</ele>
        <time>2019-08-04T12:43:32.315Z</time>
      </trkpt>
      <trkpt lat="42.49906167" lon="1.51712333">
        <ele>1056.0</ele>
        <time>2019-08-04T12:43:33.311Z</time>
      </trkpt>
      <trkpt lat="42.49906167" lon="1.51712333">
        <ele>1056.0</ele>
        <time>2019-08-04T12:43:34.296Z</time>
      </trkpt>
      <trkpt lat="42.49901167" lon="1.51708333">
        <ele>1056.0</ele>
        <time>2019-08-04T12:43:35.317Z</time>
      </trkpt>
      <trkpt lat="42.49896" lon="1.51704">
        <ele>1056.0</ele>
        <time>2019-08-04T12:43:36.331Z</time>
      </trkpt>
      <trkpt lat="42.49896" lon="1.51704">
        <ele>1056.0</ele>
        <time>2019-08-04T12:43:37.312Z</time>
      </trkpt>
      <trkpt lat="42.49891" lon="1.51698667">
        <ele>1056.0</ele>
        <time>2019-08-04T12:43:38.315Z</time>
      </trkpt>
      <trkpt lat="42.49891" lon="1.51698667">
        <ele>1056.0</ele>
        <time>2019-08-04T12:43:39.312Z</time>
      </trkpt>
      <trkpt lat="42.49886" lon="1.51692667">
        <ele>1056.0</ele>
        <time>2019-08-04T12:43:40.315Z</time>
      </trkpt>
      <trkpt lat="42.49886" lon="1.51692667">
        <ele>1056.0</ele>
        <time>2019-08-04T12:43:41.312Z</time>
      </trkpt>
      <trkpt lat="42.49881167" lon="1.51687333">
        <ele>1056.0</ele>
        <time>2019-08-04T12:43:42.314Z</time>
      </trkpt>
      <trkpt lat="42.49881167" lon="1.51687333">
        <ele>1056.0</ele>
        <time>2019-08-04T12:43:43.312Z</time>
      </trkpt>
      <trkpt lat="42.49876833" lon="1.51682">
        <ele>1057.0</ele>
        <time>2019-08-04T12:43:44.333Z</time>
      </trkpt>
      <trkpt lat="42.49876833" lon="1.51682">
        <ele>1057.0</ele>
        <time>2019-08-04T12:43:45.312Z</time>
      </trkpt>
      <trkpt lat="42.49872667" lon="1.51676">
        <ele>1057.0</ele>
        <time>2019-08-04T12:43:46.316Z</time>
      </trkpt>
      <trkpt lat="42.49872667" lon="1.51676">
        <ele>1057.0</ele>
        <time>2019-08-04T12:43:47.312Z</time>
      </trkpt>
      <trkpt lat="42.49869333" lon="1.51669833">
        <ele>1057.0</ele>
        <time>2019-08-04T12:43:48.328Z</time>
      </trkpt>
      <trkpt lat="42.49869333" lon="1.51669833">
        <ele>1057.0</ele>
        <time>2019-08-04T12:43:49.313Z</time>
      </trkpt>
      <trkpt lat="42.498665" lon="1.51663333">
        <ele>1058.0</ele>
        <time>2019-08-04T12:43:50.314Z</time>
      </trkpt>
      <trkpt lat="42.498665" lon="1.51663333">
        <ele>1058.0</ele>
        <time>2019-08-04T12:43:51.329Z</time>
      </trkpt>
      <trkpt lat="42.49863833" lon="1.516575">
        <ele>1058.0</ele>
        <time>2019-08-04T12:43:52.314Z</time>
      </trkpt>
      <trkpt lat="42.49862333" lon="1.51654667">
        <ele>1058.0</ele>
        <time>2019-08-04T12:43:53.333Z</time>
      </trkpt>
      <trkpt lat="42.49862333" lon="1.51654667">
        <ele>1058.0</ele>
        <time>2019-08-04T12:43:54.297Z</time>
      </trkpt>
      <trkpt lat="42.49860667" lon="1.51652167">
        <ele>1058.0</ele>
        <time>2019-08-04T12:43:55.316Z</time>
      </trkpt>
      <trkpt lat="42.49858833" lon="1.51646833">
        <ele>1058.0</ele>
        <time>2019-08-04T12:43:56.314Z</time>
      </trkpt>
      <trkpt lat="42.498585" lon="1.51644333">
        <ele>1059.0</ele>
        <time>2019-08-04T12:43:57.314Z</time>
      </trkpt>
      <trkpt lat="42.498585" lon="1.51644333">
        <ele>1059.0</ele>
        <time>2019-08-04T12:43:58.312Z</time>
      </trkpt>
      <trkpt lat="42.498585" lon="1.51644333">
        <ele>1059.0</ele>
        <time>2019-08-04T12:43:59.314Z</time>
      </trkpt>
      <trkpt lat="42.498565" lon="1.51635167">
        <ele>1059.0</ele>
        <time>2019-08-04T12:44:00.326Z</time>
      </trkpt>
      <trkpt lat="42.498565" lon="1.51635167">
        <ele>1059.0</ele>
        <time>2019-08-04T12:44:01.311Z</time>
      </trkpt>
      <trkpt lat="42.49855167" lon="1.516295">
        <ele>1060.0</ele>
        <time>2019-08-04T12:44:02.314Z</time>
      </trkpt>
      <trkpt lat="42.49855167" lon="1.516295">
        <ele>1060.0</ele>
        <time>2019-08-04T12:44:03.329Z</time>
      </trkpt>
      <trkpt lat="42.49853333" lon="1.51623667">
        <ele>1060.0</ele>
        <time>2019-08-04T12:44:04.324Z</time>
      </trkpt>
      <trkpt lat="42.49853333" lon="1.51623667">
        <ele>1060.0</ele>
        <time>2019-08-04T12:44:05.312Z</time>
      </trkpt>
      <trkpt lat="42.49851167" lon="1.51616833">
        <ele>1061.0</ele>
        <time>2019-08-04T12:44:06.315Z</time>
      </trkpt>
      <trkpt lat="42.49851167" lon="1.51616833">
        <ele>1061.0</ele>
        <time>2019-08-04T12:44:07.309Z</time>
      </trkpt>
      <trkpt lat="42.498495" lon="1.51609">
        <ele>1062.0</ele>
        <time>2019-08-04T12:44:08.335Z</time>
      </trkpt>
      <trkpt lat="42.49848833" lon="1.51605167">
        <ele>1062.0</ele>
        <time>2019-08-04T12:44:09.314Z</time>
      </trkpt>
      <trkpt lat="42.49848167" lon="1.51602">
        <ele>1062.0</ele>
        <time>2019-08-04T12:44:10.312Z</time>
      </trkpt>
      <trkpt lat="42.49848167" lon="1.51602">
        <ele>1062.0</ele>
        <time>2019-08-04T12:44:11.328Z</time>
      </trkpt>
      <trkpt lat="42.49848167" lon="1.51602">
        <ele>1062.0</ele>
        <time>2019-08-04T12:44:12.462Z</time>
      </trkpt>
      <trkpt lat="42.49846833" lon="1.51595833">
        <ele>1063.0</ele>
        <time>2019-08-04T12:44:13.312Z</time>
      </trkpt>
      <trkpt lat="42.49846833" lon="1.51595833">
        <ele>1063.0</ele>
        <time>2019-08-04T12:44:14.296Z</time>
      </trkpt>
      <trkpt lat="42.49846" lon="1.51588333">
        <ele>1064.0</ele>
        <time>2019-08-04T12:44:15.317Z</time>
      </trkpt>
      <trkpt lat="42.49844333" lon="1.51581167">
        <ele>1064.0</ele>
        <time>2019-08-04T12:44:16.315Z</time>
      </trkpt>
      <trkpt lat="42.49843833" lon="1.515775">
        <ele>1064.0</ele>
        <time>2019-08-04T12:44:17.334Z</time>
      </trkpt>
      <trkpt lat="42.49843167" lon="1.51574167">
        <ele>1065.0</ele>
        <time>2019-08-04T12:44:18.317Z</time>
      </trkpt>
      <trkpt lat="42.49843167" lon="1.51574167">
        <ele>1065.0</ele>
        <time>2019-08-04T12:44:19.318Z</time>
      </trkpt>
      <trkpt lat="42.49841667" lon="1.51568">
        <ele>1065.0</ele>
        <time>2019-08-04T12:44:20.315Z</time>
      </trkpt>
      <trkpt lat="42.49841167" lon="1.51565167">
        <ele>1066.0</ele>
        <time>2019-08-04T12:44:21.315Z</time>
      </trkpt>
      <trkpt lat="42.49841167" lon="1.51565167">
        <ele>1066.0</ele>
        <time>2019-08-04T12:44:22.334Z</time>
      </trkpt>
      <trkpt lat="42.498405" lon="1.51558667">
        <ele>1066.0</ele>
        <time>2019-08-04T12:44:23.316Z</time>
      </trkpt>
      <trkpt lat="42.4984" lon="1.51556">
        <ele>1067.0</ele>
        <time>2019-08-04T12:44:24.329Z</time>
      </trkpt>
      <trkpt lat="42.4984" lon="1.51556">
        <ele>1067.0</ele>
        <time>2019-08-04T12:44:25.310Z</time>
      </trkpt>
      <trkpt lat="42.49838" lon="1.515495">
        <ele>1067.0</ele>
        <time>2019-08-04T12:44:26.316Z</time>
      </trkpt>
      <trkpt lat="42.49838" lon="1.515495">
        <ele>1067.0</ele>
        <time>2019-08-04T12:44:27.312Z</time>
      </trkpt>
      <trkpt lat="42.49836167" lon="1.51543667">
        <ele>1068.0</ele>
        <time>2019-08-04T12:44:28.316Z</time>
      </trkpt>
      <trkpt lat="42.49836167" lon="1.51543667">
        <ele>1068.0</ele>
        <time>2019-08-04T12:44:29.333Z</time>
      </trkpt>
      <trkpt lat="42.49835167" lon="1.51537833">
        <ele>1069.0</ele>
        <time>2019-08-04T12:44:30.326Z</time>
      </trkpt>
      <trkpt lat="42.49835167" lon="1.51537833">
        <ele>1069.0</ele>
        <time>2019-08-04T12:44:31.333Z</time>
      </trkpt>
      <trkpt lat="42.49833667" lon="1.51531167">
        <ele>1070.0</ele>
        <time>2019-08-04T12:44:32.314Z</time>
      </trkpt>
      <trkpt lat="42.49833167" lon="1.51528167">
        <ele>1070.0</ele>
        <time>2019-08-04T12:44:33.316Z</time>
      </trkpt>
      <trkpt lat="42.49833167" lon="1.51528167">
        <ele>1070.0</ele>
        <time>2019-08-04T12:44:34.319Z</time>
      </trkpt>
      <trkpt lat="42.49832167" lon="1.515225">
        <ele>1071.0</ele>
        <time>2019-08-04T12:44:35.324Z</time>
      </trkpt>
      <trkpt lat="42.49832167" lon="1.515195">
        <ele>1071.0</ele>
        <time>2019-08-04T12:44:36.314Z</time>
      </trkpt>
      <trkpt lat="42.49832167" lon="1.515195">
        <ele>1071.0</ele>
        <time>2019-08-04T12:44:37.330Z</time>
      </trkpt>
      <trkpt lat="42.49830833" lon="1.515135">
        <ele>1071.0</ele>
        <time>2019-08-04T12:44:38.314Z</time>
      </trkpt>
      <trkpt lat="42.49830833" lon="1.515135">
        <ele>1071.0</ele>
        <time>2019-08-04T12:44:39.312Z</time>
      </trkpt>
      <trkpt lat="42.4983" lon="1.51508333">
        <ele>1072.0</ele>
        <time>2019-08-04T12:44:40.315Z</time>
      </trkpt>
      <trkpt lat="42.4983" lon="1.51506333">
        <ele>1073.0</ele>
        <time>2019-08-04T12:44:41.315Z</time>
      </trkpt>
      <trkpt lat="42.498295" lon="1.51503667">
        <ele>1073.0</ele>
        <time>2019-08-04T12:44:42.334Z</time>
      </trkpt>
      <trkpt lat="42.498295" lon="1.51503667">
        <ele>1073.0</ele>
        <time>2019-08-04T12:44:43.312Z</time>
      </trkpt>
      <trkpt lat="42.49828833" lon="1.51497833">
        <ele>1074.0</ele>
        <time>2019-08-04T12:44:44.328Z</time>
      </trkpt>
      <trkpt lat="42.49828833" lon="1.51497833">
        <ele>1074.0</ele>
        <time>2019-08-04T12:44:45.309Z</time>
      </trkpt>
      <trkpt lat="42.49827" lon="1.51491667">
        <ele>1075.0</ele>
        <time>2019-08-04T12:44:46.330Z</time>
      </trkpt>
      <trkpt lat="42.49827" lon="1.51491667">
        <ele>1075.0</ele>
        <time>2019-08-04T12:44:47.311Z</time>
      </trkpt>
      <trkpt lat="42.49825333" lon="1.51485333">
        <ele>1075.0</ele>
        <time>2019-08-04T12:44:48.314Z</time>
      </trkpt>
      <trkpt lat="42.49825333" lon="1.51485333">
        <ele>1075.0</ele>
        <time>2019-08-04T12:44:49.309Z</time>
      </trkpt>
      <trkpt lat="42.498235" lon="1.51479167">
        <ele>1076.0</ele>
        <time>2019-08-04T12:44:50.315Z</time>
      </trkpt>
      <trkpt lat="42.498235" lon="1.51479167">
        <ele>1076.0</ele>
        <time>2019-08-04T12:44:51.312Z</time>
      </trkpt>
      <trkpt lat="42.49821833" lon="1.51473">
        <ele>1076.0</ele>
        <time>2019-08-04T12:44:52.315Z</time>
      </trkpt>
      <trkpt lat="42.49821833" lon="1.51473">
        <ele>1076.0</ele>
        <time>2019-08-04T12:44:53.312Z</time>
      </trkpt>
      <trkpt lat="42.4982" lon="1.51466833">
        <ele>1077.0</ele>
        <time>2019-08-04T12:44:54.333Z</time>
      </trkpt>
      <trkpt lat="42.4982" lon="1.51466833">
        <ele>1077.0</ele>
        <time>2019-08-04T12:44:55.335Z</time>
      </trkpt>
      <trkpt lat="42.49817167" lon="1.51460833">
        <ele>1077.0</ele>
        <time>2019-08-04T12:44:56.315Z</time>
      </trkpt>
      <trkpt lat="42.49817167" lon="1.51460833">
        <ele>1077.0</ele>
        <time>2019-08-04T12:44:57.312Z</time>
      </trkpt>
      <trkpt lat="42.49815" lon="1.51455167">
        <ele>1077.0</ele>
        <time>2019-08-04T12:44:58.315Z</time>
      </trkpt>
      <trkpt lat="42.49814" lon="1.51452333">
        <ele>1077.0</ele>
        <time>2019-08-04T12:44:59.334Z</time>
      </trkpt>
      <trkpt lat="42.49814" lon="1.51452333">
        <ele>1077.0</ele>
        <time>2019-08-04T12:45:00.312Z</time>
      </trkpt>
      <trkpt lat="42.498115" lon="1.51446833">
        <ele>1077.0</ele>
        <time>2019-08-04T12:45:01.315Z</time>
      </trkpt>
      <trkpt lat="42.498115" lon="1.51446833">
        <ele>1077.0</ele>
        <time>2019-08-04T12:45:02.310Z</time>
      </trkpt>
      <trkpt lat="42.49808667" lon="1.514415">
        <ele>1077.0</ele>
        <time>2019-08-04T12:45:03.314Z</time>
      </trkpt>
      <trkpt lat="42.49807" lon="1.51439">
        <ele>1078.0</ele>
        <time>2019-08-04T12:45:04.331Z</time>
      </trkpt>
      <trkpt lat="42.49807" lon="1.51439">
        <ele>1078.0</ele>
        <time>2019-08-04T12:45:05.312Z</time>
      </trkpt>
      <trkpt lat="42.49804667" lon="1.51433833">
        <ele>1078.0</ele>
        <time>2019-08-04T12:45:06.315Z</time>
      </trkpt>
      <trkpt lat="42.49804667" lon="1.51433833">
        <ele>1078.0</ele>
        <time>2019-08-04T12:45:07.334Z</time>
      </trkpt>
      <trkpt lat="42.49801833" lon="1.51429167">
        <ele>1079.0</ele>
        <time>2019-08-04T12:45:08.315Z</time>
      </trkpt>
      <trkpt lat="42.49801833" lon="1.51429167">
        <ele>1079.0</ele>
        <time>2019-08-04T12:45:09.334Z</time>
      </trkpt>
      <trkpt lat="42.49798667" lon="1.51424667">
        <ele>1079.0</ele>
        <time>2019-08-04T12:45:10.315Z</time>
      </trkpt>
      <trkpt lat="42.49798667" lon="1.51424667">
        <ele>1079.0</ele>
        <time>2019-08-04T12:45:11.312Z</time>
      </trkpt>
      <trkpt lat="42.49795667" lon="1.51420333">
        <ele>1080.0</ele>
        <time>2019-08-04T12:45:12.334Z</time>
      </trkpt>
      <trkpt lat="42.49795667" lon="1.51420333">
        <ele>1080.0</ele>
        <time>2019-08-04T12:45:13.312Z</time>
      </trkpt>
      <trkpt lat="42.49792333" lon="1.51416167">
        <ele>1080.0</ele>
        <time>2019-08-04T12:45:14.325Z</time>
      </trkpt>
      <trkpt lat="42.49792333" lon="1.51416167">
        <ele>1080.0</ele>
        <time>2019-08-04T12:45:15.312Z</time>
      </trkpt>
      <trkpt lat="42.49789333" lon="1.51412167">
        <ele>1080.0</ele>
        <time>2019-08-04T12:45:16.315Z</time>
      </trkpt>
      <trkpt lat="42.49789333" lon="1.51412167">
        <ele>1080.0</ele>
        <time>2019-08-04T12:45:17.330Z</time>
      </trkpt>
      <trkpt lat="42.49789333" lon="1.51412167">
        <ele>1080.0</ele>
        <time>2019-08-04T12:45:18.464Z</time>
      </trkpt>
      <trkpt lat="42.49785833" lon="1.51407667">
        <ele>1080.0</ele>
        <time>2019-08-04T12:45:19.328Z</time>
      </trkpt>
      <trkpt lat="42.49782" lon="1.51403333">
        <ele>1080.0</ele>
        <time>2019-08-04T12:45:20.315Z</time>
      </trkpt>
      <trkpt lat="42.49782" lon="1.51403333">
        <ele>1080.0</ele>
        <time>2019-08-04T12:45:21.312Z</time>
      </trkpt>
      <trkpt lat="42.49778667" lon="1.51398833">
        <ele>1080.0</ele>
        <time>2019-08-04T12:45:22.316Z</time>
      </trkpt>
      <trkpt lat="42.49778667" lon="1.51398833">
        <ele>1080.0</ele>
        <time>2019-08-04T12:45:23.312Z</time>
      </trkpt>
      <trkpt lat="42.49778667" lon="1.51398833">
        <ele>1080.0</ele>
        <time>2019-08-04T12:45:24.297Z</time>
      </trkpt>
      <trkpt lat="42.49775333" lon="1.51394167">
        <ele>1081.0</ele>
        <time>2019-08-04T12:45:25.313Z</time>
      </trkpt>
      <trkpt lat="42.49772" lon="1.51389333">
        <ele>1081.0</ele>
        <time>2019-08-04T12:45:26.314Z</time>
      </trkpt>
      <trkpt lat="42.49770333" lon="1.51387">
        <ele>1081.0</ele>
        <time>2019-08-04T12:45:27.315Z</time>
      </trkpt>
      <trkpt lat="42.49770333" lon="1.51387">
        <ele>1081.0</ele>
        <time>2019-08-04T12:45:28.310Z</time>
      </trkpt>
      <trkpt lat="42.49766667" lon="1.513835">
        <ele>1081.0</ele>
        <time>2019-08-04T12:45:29.315Z</time>
      </trkpt>
      <trkpt lat="42.49765333" lon="1.51381333">
        <ele>1081.0</ele>
        <time>2019-08-04T12:45:30.330Z</time>
      </trkpt>
      <trkpt lat="42.49763833" lon="1.513795">
        <ele>1081.0</ele>
        <time>2019-08-04T12:45:31.296Z</time>
      </trkpt>
      <trkpt lat="42.49763833" lon="1.513795">
        <ele>1081.0</ele>
        <time>2019-08-04T12:45:32.309Z</time>
      </trkpt>
      <trkpt lat="42.49760667" lon="1.51375">
        <ele>1081.0</ele>
        <time>2019-08-04T12:45:33.330Z</time>
      </trkpt>
      <trkpt lat="42.49758667" lon="1.51372667">
        <ele>1081.0</ele>
        <time>2019-08-04T12:45:34.331Z</time>
      </trkpt>
      <trkpt lat="42.49758667" lon="1.51372667">
        <ele>1081.0</ele>
        <time>2019-08-04T12:45:35.312Z</time>
      </trkpt>
      <trkpt lat="42.49758667" lon="1.51372667">
        <ele>1081.0</ele>
        <time>2019-08-04T12:45:36.453Z</time>
      </trkpt>
      <trkpt lat="42.49755" lon="1.51368333">
        <ele>1082.0</ele>
        <time>2019-08-04T12:45:37.310Z</time>
      </trkpt>
      <trkpt lat="42.49752" lon="1.51364167">
        <ele>1082.0</ele>
        <time>2019-08-04T12:45:38.333Z</time>
      </trkpt>
      <trkpt lat="42.49752" lon="1.51364167">
        <ele>1082.0</ele>
        <time>2019-08-04T12:45:39.311Z</time>
      </trkpt>
      <trkpt lat="42.49747833" lon="1.51361">
        <ele>1082.0</ele>
        <time>2019-08-04T12:45:40.315Z</time>
      </trkpt>
      <trkpt lat="42.49747833" lon="1.51361">
        <ele>1082.0</ele>
        <time>2019-08-04T12:45:41.311Z</time>
      </trkpt>
      <trkpt lat="42.49744833" lon="1.51357333">
        <ele>1082.0</ele>
        <time>2019-08-04T12:45:42.314Z</time>
      </trkpt>
      <trkpt lat="42.49744833" lon="1.51357333">
        <ele>1082.0</ele>
        <time>2019-08-04T12:45:43.312Z</time>
      </trkpt>
      <trkpt lat="42.49741667" lon="1.513535">
        <ele>1083.0</ele>
        <time>2019-08-04T12:45:44.323Z</time>
      </trkpt>
      <trkpt lat="42.49741667" lon="1.513535">
        <ele>1083.0</ele>
        <time>2019-08-04T12:45:45.313Z</time>
      </trkpt>
      <trkpt lat="42.49738667" lon="1.513485">
        <ele>1083.0</ele>
        <time>2019-08-04T12:45:46.316Z</time>
      </trkpt>
      <trkpt lat="42.49737167" lon="1.51346333">
        <ele>1084.0</ele>
        <time>2019-08-04T12:45:47.316Z</time>
      </trkpt>
      <trkpt lat="42.49736167" lon="1.51343833">
        <ele>1084.0</ele>
        <time>2019-08-04T12:45:48.316Z</time>
      </trkpt>
      <trkpt lat="42.49736167" lon="1.51343833">
        <ele>1084.0</ele>
        <time>2019-08-04T12:45:49.307Z</time>
      </trkpt>
      <trkpt lat="42.49733667" lon="1.513395">
        <ele>1084.0</ele>
        <time>2019-08-04T12:45:50.330Z</time>
      </trkpt>
      <trkpt lat="42.49733667" lon="1.513395">
        <ele>1084.0</ele>
        <time>2019-08-04T12:45:51.310Z</time>
      </trkpt>
      <trkpt lat="42.497305" lon="1.51335">
        <ele>1085.0</ele>
        <time>2019-08-04T12:45:52.330Z</time>
      </trkpt>
      <trkpt lat="42.497305" lon="1.51335">
        <ele>1085.0</ele>
        <time>2019-08-04T12:45:53.312Z</time>
      </trkpt>
      <trkpt lat="42.497305" lon="1.51335">
        <ele>1085.0</ele>
        <time>2019-08-04T12:45:54.355Z</time>
      </trkpt>
      <trkpt lat="42.49728167" lon="1.51329167">
        <ele>1085.0</ele>
        <time>2019-08-04T12:45:55.332Z</time>
      </trkpt>
      <trkpt lat="42.49726167" lon="1.51324833">
        <ele>1086.0</ele>
        <time>2019-08-04T12:45:56.315Z</time>
      </trkpt>
      <trkpt lat="42.49726167" lon="1.51324833">
        <ele>1086.0</ele>
        <time>2019-08-04T12:45:57.334Z</time>
      </trkpt>
      <trkpt lat="42.49724" lon="1.513205">
        <ele>1087.0</ele>
        <time>2019-08-04T12:45:58.316Z</time>
      </trkpt>
      <trkpt lat="42.49723" lon="1.51318">
        <ele>1087.0</ele>
        <time>2019-08-04T12:45:59.298Z</time>
      </trkpt>
      <trkpt lat="42.49723" lon="1.51318">
        <ele>1087.0</ele>
        <time>2019-08-04T12:46:00.312Z</time>
      </trkpt>
      <trkpt lat="42.4972" lon="1.51314167">
        <ele>1087.0</ele>
        <time>2019-08-04T12:46:01.316Z</time>
      </trkpt>
      <trkpt lat="42.49719333" lon="1.51312333">
        <ele>1088.0</ele>
        <time>2019-08-04T12:46:02.334Z</time>
      </trkpt>
      <trkpt lat="42.49719333" lon="1.51312333">
        <ele>1088.0</ele>
        <time>2019-08-04T12:46:03.312Z</time>
      </trkpt>
      <trkpt lat="42.49715833" lon="1.51309167">
        <ele>1088.0</ele>
        <time>2019-08-04T12:46:04.330Z</time>
      </trkpt>
      <trkpt lat="42.49715833" lon="1.51309167">
        <ele>1088.0</ele>
        <time>2019-08-04T12:46:05.310Z</time>
      </trkpt>
      <trkpt lat="42.49711667" lon="1.51306">
        <ele>1090.0</ele>
        <time>2019-08-04T12:46:06.330Z</time>
      </trkpt>
      <trkpt lat="42.49711667" lon="1.51306">
        <ele>1090.0</ele>
        <time>2019-08-04T12:46:07.313Z</time>
      </trkpt>
      <trkpt lat="42.497075" lon="1.51304833">
        <ele>1090.0</ele>
        <time>2019-08-04T12:46:08.329Z</time>
      </trkpt>
      <trkpt lat="42.497075" lon="1.51304833">
        <ele>1090.0</ele>
        <time>2019-08-04T12:46:09.309Z</time>
      </trkpt>
      <trkpt lat="42.49703667" lon="1.51306333">
        <ele>1091.0</ele>
        <time>2019-08-04T12:46:10.331Z</time>
      </trkpt>
      <trkpt lat="42.49703667" lon="1.51306333">
        <ele>1091.0</ele>
        <time>2019-08-04T12:46:11.312Z</time>
      </trkpt>
      <trkpt lat="42.49701167" lon="1.51310833">
        <ele>1092.0</ele>
        <time>2019-08-04T12:46:12.315Z</time>
      </trkpt>
      <trkpt lat="42.49701167" lon="1.51310833">
        <ele>1092.0</ele>
        <time>2019-08-04T12:46:13.312Z</time>
      </trkpt>
      <trkpt lat="42.49699833" lon="1.51317">
        <ele>1092.0</ele>
        <time>2019-08-04T12:46:14.331Z</time>
      </trkpt>
      <trkpt lat="42.49699833" lon="1.51317">
        <ele>1092.0</ele>
        <time>2019-08-04T12:46:15.313Z</time>
      </trkpt>
      <trkpt lat="42.49699833" lon="1.51323333">
        <ele>1093.0</ele>
        <time>2019-08-04T12:46:16.316Z</time>
      </trkpt>
      <trkpt lat="42.49699833" lon="1.51323333">
        <ele>1093.0</ele>
        <time>2019-08-04T12:46:17.312Z</time>
      </trkpt>
      <trkpt lat="42.49701667" lon="1.51330167">
        <ele>1093.0</ele>
        <time>2019-08-04T12:46:18.335Z</time>
      </trkpt>
      <trkpt lat="42.49701667" lon="1.51330167">
        <ele>1093.0</ele>
        <time>2019-08-04T12:46:19.312Z</time>
      </trkpt>
      <trkpt lat="42.49705" lon="1.51336167">
        <ele>1093.0</ele>
        <time>2019-08-04T12:46:20.314Z</time>
      </trkpt>
      <trkpt lat="42.49705" lon="1.51336167">
        <ele>1093.0</ele>
        <time>2019-08-04T12:46:21.331Z</time>
      </trkpt>
      <trkpt lat="42.49708333" lon="1.51342167">
        <ele>1093.0</ele>
        <time>2019-08-04T12:46:22.315Z</time>
      </trkpt>
      <trkpt lat="42.49710167" lon="1.51344833">
        <ele>1093.0</ele>
        <time>2019-08-04T12:46:23.315Z</time>
      </trkpt>
      <trkpt lat="42.49712" lon="1.513475">
        <ele>1093.0</ele>
        <time>2019-08-04T12:46:24.331Z</time>
      </trkpt>
      <trkpt lat="42.49712" lon="1.513475">
        <ele>1093.0</ele>
        <time>2019-08-04T12:46:25.312Z</time>
      </trkpt>
      <trkpt lat="42.49712" lon="1.513475">
        <ele>1093.0</ele>
        <time>2019-08-04T12:46:26.467Z</time>
      </trkpt>
      <trkpt lat="42.49715833" lon="1.51352833">
        <ele>1094.0</ele>
        <time>2019-08-04T12:46:27.309Z</time>
      </trkpt>
      <trkpt lat="42.497195" lon="1.51357833">
        <ele>1094.0</ele>
        <time>2019-08-04T12:46:28.330Z</time>
      </trkpt>
      <trkpt lat="42.497195" lon="1.51357833">
        <ele>1094.0</ele>
        <time>2019-08-04T12:46:29.303Z</time>
      </trkpt>
      <trkpt lat="42.49722667" lon="1.51362667">
        <ele>1094.0</ele>
        <time>2019-08-04T12:46:30.314Z</time>
      </trkpt>
      <trkpt lat="42.49724167" lon="1.51365167">
        <ele>1095.0</ele>
        <time>2019-08-04T12:46:31.319Z</time>
      </trkpt>
      <trkpt lat="42.49725667" lon="1.51367667">
        <ele>1095.0</ele>
        <time>2019-08-04T12:46:32.325Z</time>
      </trkpt>
      <trkpt lat="42.49725667" lon="1.51367667">
        <ele>1095.0</ele>
        <time>2019-08-04T12:46:33.313Z</time>
      </trkpt>
      <trkpt lat="42.497285" lon="1.51372833">
        <ele>1095.0</ele>
        <time>2019-08-04T12:46:34.328Z</time>
      </trkpt>
      <trkpt lat="42.497285" lon="1.51372833">
        <ele>1095.0</ele>
        <time>2019-08-04T12:46:35.310Z</time>
      </trkpt>
      <trkpt lat="42.497285" lon="1.51372833">
        <ele>1095.0</ele>
        <time>2019-08-04T12:46:36.454Z</time>
      </trkpt>
      <trkpt lat="42.49731" lon="1.51378">
        <ele>1095.0</ele>
        <time>2019-08-04T12:46:37.313Z</time>
      </trkpt>
      <trkpt lat="42.49733333" lon="1.51383">
        <ele>1096.0</ele>
        <time>2019-08-04T12:46:38.315Z</time>
      </trkpt>
      <trkpt lat="42.49733333" lon="1.51383">
        <ele>1096.0</ele>
        <time>2019-08-04T12:46:39.309Z</time>
      </trkpt>
      <trkpt lat="42.49735333" lon="1.51388667">
        <ele>1096.0</ele>
        <time>2019-08-04T12:46:40.316Z</time>
      </trkpt>
      <trkpt lat="42.49735333" lon="1.51388667">
        <ele>1096.0</ele>
        <time>2019-08-04T12:46:41.312Z</time>
      </trkpt>
      <trkpt lat="42.49737667" lon="1.51394167">
        <ele>1097.0</ele>
        <time>2019-08-04T12:46:42.316Z</time>
      </trkpt>
      <trkpt lat="42.49737667" lon="1.51394167">
        <ele>1097.0</ele>
        <time>2019-08-04T12:46:43.313Z</time>
      </trkpt>
      <trkpt lat="42.49739667" lon="1.51399667">
        <ele>1098.0</ele>
        <time>2019-08-04T12:46:44.331Z</time>
      </trkpt>
      <trkpt lat="42.49739667" lon="1.51399667">
        <ele>1098.0</ele>
        <time>2019-08-04T12:46:45.313Z</time>
      </trkpt>
      <trkpt lat="42.49742167" lon="1.51405167">
        <ele>1098.0</ele>
        <time>2019-08-04T12:46:46.316Z</time>
      </trkpt>
      <trkpt lat="42.49742167" lon="1.51405167">
        <ele>1098.0</ele>
        <time>2019-08-04T12:46:47.313Z</time>
      </trkpt>
      <trkpt lat="42.497445" lon="1.514105">
        <ele>1099.0</ele>
        <time>2019-08-04T12:46:48.316Z</time>
      </trkpt>
      <trkpt lat="42.497445" lon="1.514105">
        <ele>1099.0</ele>
        <time>2019-08-04T12:46:49.317Z</time>
      </trkpt>
      <trkpt lat="42.49746667" lon="1.514155">
        <ele>1100.0</ele>
        <time>2019-08-04T12:46:50.319Z</time>
      </trkpt>
      <trkpt lat="42.49746667" lon="1.514155">
        <ele>1100.0</ele>
        <time>2019-08-04T12:46:51.312Z</time>
      </trkpt>
      <trkpt lat="42.49748833" lon="1.514205">
        <ele>1101.0</ele>
        <time>2019-08-04T12:46:52.335Z</time>
      </trkpt>
      <trkpt lat="42.49748833" lon="1.514205">
        <ele>1101.0</ele>
        <time>2019-08-04T12:46:53.312Z</time>
      </trkpt>
      <trkpt lat="42.49751167" lon="1.51425667">
        <ele>1102.0</ele>
        <time>2019-08-04T12:46:54.339Z</time>
      </trkpt>
      <trkpt lat="42.49751167" lon="1.51425667">
        <ele>1102.0</ele>
        <time>2019-08-04T12:46:55.313Z</time>
      </trkpt>
      <trkpt lat="42.49753333" lon="1.51430667">
        <ele>1103.0</ele>
        <time>2019-08-04T12:46:56.315Z</time>
      </trkpt>
      <trkpt lat="42.49755" lon="1.51432833">
        <ele>1103.0</ele>
        <time>2019-08-04T12:46:57.334Z</time>
      </trkpt>
      <trkpt lat="42.49755" lon="1.51432833">
        <ele>1103.0</ele>
        <time>2019-08-04T12:46:58.315Z</time>
      </trkpt>
      <trkpt lat="42.49757167" lon="1.514375">
        <ele>1104.0</ele>
        <time>2019-08-04T12:46:59.315Z</time>
      </trkpt>
      <trkpt lat="42.49758667" lon="1.51439833">
        <ele>1104.0</ele>
        <time>2019-08-04T12:47:00.313Z</time>
      </trkpt>
      <trkpt lat="42.49758667" lon="1.51439833">
        <ele>1104.0</ele>
        <time>2019-08-04T12:47:01.332Z</time>
      </trkpt>
      <trkpt lat="42.49761" lon="1.51445">
        <ele>1104.0</ele>
        <time>2019-08-04T12:47:02.316Z</time>
      </trkpt>
      <trkpt lat="42.49761" lon="1.51445">
        <ele>1104.0</ele>
        <time>2019-08-04T12:47:03.313Z</time>
      </trkpt>
      <trkpt lat="42.49761" lon="1.51445">
        <ele>1104.0</ele>
        <time>2019-08-04T12:47:04.297Z</time>
      </trkpt>
      <trkpt lat="42.49762667" lon="1.514505">
        <ele>1105.0</ele>
        <time>2019-08-04T12:47:05.313Z</time>
      </trkpt>
      <trkpt lat="42.49764833" lon="1.51456167">
        <ele>1105.0</ele>
        <time>2019-08-04T12:47:06.313Z</time>
      </trkpt>
      <trkpt lat="42.49764833" lon="1.51456167">
        <ele>1105.0</ele>
        <time>2019-08-04T12:47:07.312Z</time>
      </trkpt>
      <trkpt lat="42.49766667" lon="1.51461833">
        <ele>1106.0</ele>
        <time>2019-08-04T12:47:08.316Z</time>
      </trkpt>
      <trkpt lat="42.49767667" lon="1.51464667">
        <ele>1106.0</ele>
        <time>2019-08-04T12:47:09.315Z</time>
      </trkpt>
      <trkpt lat="42.49767667" lon="1.51464667">
        <ele>1106.0</ele>
        <time>2019-08-04T12:47:10.311Z</time>
      </trkpt>
      <trkpt lat="42.49769167" lon="1.51470333">
        <ele>1107.0</ele>
        <time>2019-08-04T12:47:11.315Z</time>
      </trkpt>
      <trkpt lat="42.4977" lon="1.51473167">
        <ele>1107.0</ele>
        <time>2019-08-04T12:47:12.331Z</time>
      </trkpt>
      <trkpt lat="42.4977" lon="1.51473167">
        <ele>1107.0</ele>
        <time>2019-08-04T12:47:13.312Z</time>
      </trkpt>
      <trkpt lat="42.49771667" lon="1.51479167">
        <ele>1108.0</ele>
        <time>2019-08-04T12:47:14.335Z</time>
      </trkpt>
      <trkpt lat="42.49772667" lon="1.51482167">
        <ele>1108.0</ele>
        <time>2019-08-04T12:47:15.314Z</time>
      </trkpt>
      <trkpt lat="42.49772667" lon="1.51482167">
        <ele>1108.0</ele>
        <time>2019-08-04T12:47:16.331Z</time>
      </trkpt>
      <trkpt lat="42.49774" lon="1.51487667">
        <ele>1109.0</ele>
        <time>2019-08-04T12:47:17.315Z</time>
      </trkpt>
      <trkpt lat="42.49775" lon="1.514905">
        <ele>1109.0</ele>
        <time>2019-08-04T12:47:18.331Z</time>
      </trkpt>
      <trkpt lat="42.49775" lon="1.514905">
        <ele>1109.0</ele>
        <time>2019-08-04T12:47:19.312Z</time>
      </trkpt>
      <trkpt lat="42.497765" lon="1.514965">
        <ele>1110.0</ele>
        <time>2019-08-04T12:47:20.315Z</time>
      </trkpt>
      <trkpt lat="42.497765" lon="1.514965">
        <ele>1110.0</ele>
        <time>2019-08-04T12:47:21.331Z</time>
      </trkpt>
      <trkpt lat="42.49778333" lon="1.515025">
        <ele>1110.0</ele>
        <time>2019-08-04T12:47:22.316Z</time>
      </trkpt>
      <trkpt lat="42.49778333" lon="1.515025">
        <ele>1110.0</ele>
        <time>2019-08-04T12:47:23.312Z</time>
      </trkpt>
      <trkpt lat="42.49778333" lon="1.515025">
        <ele>1110.0</ele>
        <time>2019-08-04T12:47:24.498Z</time>
      </trkpt>
      <trkpt lat="42.497805" lon="1.51511167">
        <ele>1111.0</ele>
        <time>2019-08-04T12:47:25.318Z</time>
      </trkpt>
      <trkpt lat="42.497805" lon="1.51511167">
        <ele>1111.0</ele>
        <time>2019-08-04T12:47:26.314Z</time>
      </trkpt>
      <trkpt lat="42.497815" lon="1.515165">
        <ele>1112.0</ele>
        <time>2019-08-04T12:47:27.335Z</time>
      </trkpt>
      <trkpt lat="42.497815" lon="1.515165">
        <ele>1112.0</ele>
        <time>2019-08-04T12:47:28.316Z</time>
      </trkpt>
      <trkpt lat="42.49781833" lon="1.51522">
        <ele>1113.0</ele>
        <time>2019-08-04T12:47:29.321Z</time>
      </trkpt>
      <trkpt lat="42.49781833" lon="1.51522">
        <ele>1113.0</ele>
        <time>2019-08-04T12:47:30.325Z</time>
      </trkpt>
      <trkpt lat="42.49782833" lon="1.51527667">
        <ele>1113.0</ele>
        <time>2019-08-04T12:47:31.331Z</time>
      </trkpt>
      <trkpt lat="42.49782833" lon="1.515305">
        <ele>1114.0</ele>
        <time>2019-08-04T12:47:32.314Z</time>
      </trkpt>
      <trkpt lat="42.49782833" lon="1.515305">
        <ele>1114.0</ele>
        <time>2019-08-04T12:47:33.330Z</time>
      </trkpt>
      <trkpt lat="42.49782833" lon="1.515305">
        <ele>1114.0</ele>
        <time>2019-08-04T12:47:34.297Z</time>
      </trkpt>
      <trkpt lat="42.49782833" lon="1.51536">
        <ele>1114.0</ele>
        <time>2019-08-04T12:47:35.315Z</time>
      </trkpt>
      <trkpt lat="42.49783" lon="1.515425">
        <ele>1115.0</ele>
        <time>2019-08-04T12:47:36.331Z</time>
      </trkpt>
      <trkpt lat="42.49783" lon="1.515425">
        <ele>1115.0</ele>
        <time>2019-08-04T12:47:37.313Z</time>
      </trkpt>
      <trkpt lat="42.49782833" lon="1.51549333">
        <ele>1116.0</ele>
        <time>2019-08-04T12:47:38.334Z</time>
      </trkpt>
      <trkpt lat="42.49782833" lon="1.51549333">
        <ele>1116.0</ele>
        <time>2019-08-04T12:47:39.312Z</time>
      </trkpt>
      <trkpt lat="42.49782333" lon="1.51556">
        <ele>1116.0</ele>
        <time>2019-08-04T12:47:40.334Z</time>
      </trkpt>
      <trkpt lat="42.49782" lon="1.51559667">
        <ele>1116.0</ele>
        <time>2019-08-04T12:47:41.315Z</time>
      </trkpt>
      <trkpt lat="42.49781833" lon="1.51563167">
        <ele>1117.0</ele>
        <time>2019-08-04T12:47:42.335Z</time>
      </trkpt>
      <trkpt lat="42.49781833" lon="1.51563167">
        <ele>1117.0</ele>
        <time>2019-08-04T12:47:43.313Z</time>
      </trkpt>
      <trkpt lat="42.49781167" lon="1.51569833">
        <ele>1117.0</ele>
        <time>2019-08-04T12:47:44.330Z</time>
      </trkpt>
      <trkpt lat="42.49781167" lon="1.51569833">
        <ele>1117.0</ele>
        <time>2019-08-04T12:47:45.313Z</time>
      </trkpt>
      <trkpt lat="42.497805" lon="1.51577">
        <ele>1117.0</ele>
        <time>2019-08-04T12:47:46.316Z</time>
      </trkpt>
      <trkpt lat="42.497805" lon="1.51580833">
        <ele>1117.0</ele>
        <time>2019-08-04T12:47:47.336Z</time>
      </trkpt>
      <trkpt lat="42.497805" lon="1.51580833">
        <ele>1117.0</ele>
        <time>2019-08-04T12:47:48.313Z</time>
      </trkpt>
      <trkpt lat="42.49779667" lon="1.51588333">
        <ele>1117.0</ele>
        <time>2019-08-04T12:47:49.317Z</time>
      </trkpt>
      <trkpt lat="42.49779667" lon="1.51588333">
        <ele>1117.0</ele>
        <time>2019-08-04T12:47:50.333Z</time>
      </trkpt>
      <trkpt lat="42.49778833" lon="1.515955">
        <ele>1117.0</ele>
        <time>2019-08-04T12:47:51.316Z</time>
      </trkpt>
      <trkpt lat="42.49778833" lon="1.515955">
        <ele>1117.0</ele>
        <time>2019-08-04T12:47:52.316Z</time>
      </trkpt>
      <trkpt lat="42.49777667" lon="1.516025">
        <ele>1117.0</ele>
        <time>2019-08-04T12:47:53.315Z</time>
      </trkpt>
      <trkpt lat="42.497775" lon="1.51606">
        <ele>1117.0</ele>
        <time>2019-08-04T12:47:54.330Z</time>
      </trkpt>
      <trkpt lat="42.497775" lon="1.51606">
        <ele>1117.0</ele>
        <time>2019-08-04T12:47:55.313Z</time>
      </trkpt>
      <trkpt lat="42.497775" lon="1.51613">
        <ele>1118.0</ele>
        <time>2019-08-04T12:47:56.316Z</time>
      </trkpt>
      <trkpt lat="42.497775" lon="1.51613">
        <ele>1118.0</ele>
        <time>2019-08-04T12:47:57.303Z</time>
      </trkpt>
      <trkpt lat="42.49776833" lon="1.51619167">
        <ele>1118.0</ele>
        <time>2019-08-04T12:47:58.297Z</time>
      </trkpt>
      <trkpt lat="42.49776833" lon="1.51619167">
        <ele>1118.0</ele>
        <time>2019-08-04T12:47:59.314Z</time>
      </trkpt>
      <trkpt lat="42.49776333" lon="1.51625833">
        <ele>1118.0</ele>
        <time>2019-08-04T12:48:00.316Z</time>
      </trkpt>
      <trkpt lat="42.49776333" lon="1.51625833">
        <ele>1118.0</ele>
        <time>2019-08-04T12:48:01.313Z</time>
      </trkpt>
      <trkpt lat="42.49776333" lon="1.51632167">
        <ele>1118.0</ele>
        <time>2019-08-04T12:48:02.315Z</time>
      </trkpt>
      <trkpt lat="42.49776167" lon="1.51635333">
        <ele>1118.0</ele>
        <time>2019-08-04T12:48:03.331Z</time>
      </trkpt>
      <trkpt lat="42.49776167" lon="1.51635333">
        <ele>1118.0</ele>
        <time>2019-08-04T12:48:04.328Z</time>
      </trkpt>
      <trkpt lat="42.49776" lon="1.51641667">
        <ele>1119.0</ele>
        <time>2019-08-04T12:48:05.315Z</time>
      </trkpt>
      <trkpt lat="42.497765" lon="1.51644833">
        <ele>1119.0</ele>
        <time>2019-08-04T12:48:06.316Z</time>
      </trkpt>
      <trkpt lat="42.497765" lon="1.51644833">
        <ele>1119.0</ele>
        <time>2019-08-04T12:48:07.310Z</time>
      </trkpt>
      <trkpt lat="42.49777167" lon="1.516515">
        <ele>1119.0</ele>
        <time>2019-08-04T12:48:08.331Z</time>
      </trkpt>
      <trkpt lat="42.49777167" lon="1.516515">
        <ele>1119.0</ele>
        <time>2019-08-04T12:48:09.313Z</time>
      </trkpt>
      <trkpt lat="42.497775" lon="1.51658333">
        <ele>1119.0</ele>
        <time>2019-08-04T12:48:10.316Z</time>
      </trkpt>
      <trkpt lat="42.497775" lon="1.51658333">
        <ele>1119.0</ele>
        <time>2019-08-04T12:48:11.309Z</time>
      </trkpt>
      <trkpt lat="42.49778667" lon="1.516655">
        <ele>1120.0</ele>
        <time>2019-08-04T12:48:12.329Z</time>
      </trkpt>
      <trkpt lat="42.49778667" lon="1.516655">
        <ele>1120.0</ele>
        <time>2019-08-04T12:48:13.463Z</time>
      </trkpt>
      <trkpt lat="42.49779" lon="1.51669167">
        <ele>1120.0</ele>
        <time>2019-08-04T12:48:14.322Z</time>
      </trkpt>
      <trkpt lat="42.49779667" lon="1.516765">
        <ele>1120.0</ele>
        <time>2019-08-04T12:48:15.316Z</time>
      </trkpt>
      <trkpt lat="42.49779833" lon="1.51680167">
        <ele>1120.0</ele>
        <time>2019-08-04T12:48:16.317Z</time>
      </trkpt>
      <trkpt lat="42.49779833" lon="1.51680167">
        <ele>1120.0</ele>
        <time>2019-08-04T12:48:17.334Z</time>
      </trkpt>
      <trkpt lat="42.4978" lon="1.51686833">
        <ele>1120.0</ele>
        <time>2019-08-04T12:48:18.316Z</time>
      </trkpt>
      <trkpt lat="42.4978" lon="1.51686833">
        <ele>1120.0</ele>
        <time>2019-08-04T12:48:19.313Z</time>
      </trkpt>
      <trkpt lat="42.4978" lon="1.51693333">
        <ele>1121.0</ele>
        <time>2019-08-04T12:48:20.313Z</time>
      </trkpt>
      <trkpt lat="42.4978" lon="1.51693333">
        <ele>1121.0</ele>
        <time>2019-08-04T12:48:21.300Z</time>
      </trkpt>
      <trkpt lat="42.49781" lon="1.51699833">
        <ele>1121.0</ele>
        <time>2019-08-04T12:48:22.322Z</time>
      </trkpt>
      <trkpt lat="42.49781" lon="1.51699833">
        <ele>1121.0</ele>
        <time>2019-08-04T12:48:23.313Z</time>
      </trkpt>
      <trkpt lat="42.49782167" lon="1.51705833">
        <ele>1121.0</ele>
        <time>2019-08-04T12:48:24.324Z</time>
      </trkpt>
      <trkpt lat="42.49782167" lon="1.51705833">
        <ele>1121.0</ele>
        <time>2019-08-04T12:48:25.310Z</time>
      </trkpt>
      <trkpt lat="42.49783" lon="1.51712167">
        <ele>1122.0</ele>
        <time>2019-08-04T12:48:26.331Z</time>
      </trkpt>
      <trkpt lat="42.49783" lon="1.51712167">
        <ele>1122.0</ele>
        <time>2019-08-04T12:48:27.312Z</time>
      </trkpt>
      <trkpt lat="42.49784167" lon="1.51718833">
        <ele>1123.0</ele>
        <time>2019-08-04T12:48:28.317Z</time>
      </trkpt>
      <trkpt lat="42.49784167" lon="1.51718833">
        <ele>1123.0</ele>
        <time>2019-08-04T12:48:29.307Z</time>
      </trkpt>
      <trkpt lat="42.49785333" lon="1.51725167">
        <ele>1123.0</ele>
        <time>2019-08-04T12:48:30.334Z</time>
      </trkpt>
      <trkpt lat="42.49785833" lon="1.51728667">
        <ele>1124.0</ele>
        <time>2019-08-04T12:48:31.305Z</time>
      </trkpt>
      <trkpt lat="42.497865" lon="1.51732">
        <ele>1124.0</ele>
        <time>2019-08-04T12:48:32.313Z</time>
      </trkpt>
      <trkpt lat="42.497865" lon="1.51732">
        <ele>1124.0</ele>
        <time>2019-08-04T12:48:33.330Z</time>
      </trkpt>
      <trkpt lat="42.497875" lon="1.51739">
        <ele>1125.0</ele>
        <time>2019-08-04T12:48:34.330Z</time>
      </trkpt>
      <trkpt lat="42.497875" lon="1.51739">
        <ele>1125.0</ele>
        <time>2019-08-04T12:48:35.313Z</time>
      </trkpt>
      <trkpt lat="42.497885" lon="1.51746">
        <ele>1126.0</ele>
        <time>2019-08-04T12:48:36.315Z</time>
      </trkpt>
      <trkpt lat="42.497885" lon="1.51746">
        <ele>1126.0</ele>
        <time>2019-08-04T12:48:37.310Z</time>
      </trkpt>
      <trkpt lat="42.497885" lon="1.51752333">
        <ele>1126.0</ele>
        <time>2019-08-04T12:48:38.315Z</time>
      </trkpt>
      <trkpt lat="42.497885" lon="1.51752333">
        <ele>1126.0</ele>
        <time>2019-08-04T12:48:39.315Z</time>
      </trkpt>
      <trkpt lat="42.49789667" lon="1.5176">
        <ele>1127.0</ele>
        <time>2019-08-04T12:48:40.316Z</time>
      </trkpt>
      <trkpt lat="42.49789667" lon="1.5176">
        <ele>1127.0</ele>
        <time>2019-08-04T12:48:41.312Z</time>
      </trkpt>
      <trkpt lat="42.49790333" lon="1.51768333">
        <ele>1128.0</ele>
        <time>2019-08-04T12:48:42.335Z</time>
      </trkpt>
      <trkpt lat="42.49790333" lon="1.51768333">
        <ele>1128.0</ele>
        <time>2019-08-04T12:48:43.312Z</time>
      </trkpt>
      <trkpt lat="42.49790333" lon="1.51768333">
        <ele>1128.0</ele>
        <time>2019-08-04T12:48:44.297Z</time>
      </trkpt>
      <trkpt lat="42.497915" lon="1.51776167">
        <ele>1128.0</ele>
        <time>2019-08-04T12:48:45.296Z</time>
      </trkpt>
      <trkpt lat="42.49793333" lon="1.51783833">
        <ele>1129.0</ele>
        <time>2019-08-04T12:48:46.318Z</time>
      </trkpt>
      <trkpt lat="42.49794" lon="1.51787833">
        <ele>1129.0</ele>
        <time>2019-08-04T12:48:47.335Z</time>
      </trkpt>
      <trkpt lat="42.49794" lon="1.51787833">
        <ele>1129.0</ele>
        <time>2019-08-04T12:48:48.318Z</time>
      </trkpt>
      <trkpt lat="42.49795833" lon="1.51795333">
        <ele>1130.0</ele>
        <time>2019-08-04T12:48:49.315Z</time>
      </trkpt>
      <trkpt lat="42.49795833" lon="1.51795333">
        <ele>1130.0</ele>
        <time>2019-08-04T12:48:50.324Z</time>
      </trkpt>
      <trkpt lat="42.497975" lon="1.51802833">
        <ele>1130.0</ele>
        <time>2019-08-04T12:48:51.315Z</time>
      </trkpt>
      <trkpt lat="42.49798167" lon="1.51806667">
        <ele>1131.0</ele>
        <time>2019-08-04T12:48:52.331Z</time>
      </trkpt>
      <trkpt lat="42.49798167" lon="1.51806667">
        <ele>1131.0</ele>
        <time>2019-08-04T12:48:53.312Z</time>
      </trkpt>
      <trkpt lat="42.49798167" lon="1.51806667">
        <ele>1131.0</ele>
        <time>2019-08-04T12:48:54.303Z</time>
      </trkpt>
      <trkpt lat="42.49799333" lon="1.51813667">
        <ele>1132.0</ele>
        <time>2019-08-04T12:48:55.318Z</time>
      </trkpt>
      <trkpt lat="42.498" lon="1.5182">
        <ele>1133.0</ele>
        <time>2019-08-04T12:48:56.315Z</time>
      </trkpt>
      <trkpt lat="42.498" lon="1.5182">
        <ele>1133.0</ele>
        <time>2019-08-04T12:48:57.311Z</time>
      </trkpt>
      <trkpt lat="42.49800833" lon="1.51826833">
        <ele>1134.0</ele>
        <time>2019-08-04T12:48:58.316Z</time>
      </trkpt>
      <trkpt lat="42.49800833" lon="1.51826833">
        <ele>1134.0</ele>
        <time>2019-08-04T12:48:59.313Z</time>
      </trkpt>
      <trkpt lat="42.49802" lon="1.518345">
        <ele>1135.0</ele>
        <time>2019-08-04T12:49:00.315Z</time>
      </trkpt>
      <trkpt lat="42.49802333" lon="1.51838333">
        <ele>1135.0</ele>
        <time>2019-08-04T12:49:01.316Z</time>
      </trkpt>
      <trkpt lat="42.49802333" lon="1.51838333">
        <ele>1135.0</ele>
        <time>2019-08-04T12:49:02.313Z</time>
      </trkpt>
      <trkpt lat="42.49802833" lon="1.51845667">
        <ele>1136.0</ele>
        <time>2019-08-04T12:49:03.315Z</time>
      </trkpt>
      <trkpt lat="42.49802833" lon="1.51845667">
        <ele>1136.0</ele>
        <time>2019-08-04T12:49:04.334Z</time>
      </trkpt>
      <trkpt lat="42.49803" lon="1.51853167">
        <ele>1137.0</ele>
        <time>2019-08-04T12:49:05.315Z</time>
      </trkpt>
      <trkpt lat="42.49803" lon="1.51856833">
        <ele>1137.0</ele>
        <time>2019-08-04T12:49:06.331Z</time>
      </trkpt>
      <trkpt lat="42.49803" lon="1.51856833">
        <ele>1137.0</ele>
        <time>2019-08-04T12:49:07.312Z</time>
      </trkpt>
      <trkpt lat="42.49802833" lon="1.51863333">
        <ele>1138.0</ele>
        <time>2019-08-04T12:49:08.315Z</time>
      </trkpt>
      <trkpt lat="42.49802833" lon="1.51863333">
        <ele>1138.0</ele>
        <time>2019-08-04T12:49:09.331Z</time>
      </trkpt>
      <trkpt lat="42.49801833" lon="1.51870167">
        <ele>1139.0</ele>
        <time>2019-08-04T12:49:10.316Z</time>
      </trkpt>
      <trkpt lat="42.49801833" lon="1.51870167">
        <ele>1139.0</ele>
        <time>2019-08-04T12:49:11.335Z</time>
      </trkpt>
      <trkpt lat="42.49799667" lon="1.518765">
        <ele>1139.0</ele>
        <time>2019-08-04T12:49:12.318Z</time>
      </trkpt>
      <trkpt lat="42.49799667" lon="1.518765">
        <ele>1139.0</ele>
        <time>2019-08-04T12:49:13.313Z</time>
      </trkpt>
      <trkpt lat="42.49799667" lon="1.518765">
        <ele>1139.0</ele>
        <time>2019-08-04T12:49:14.495Z</time>
      </trkpt>
      <trkpt lat="42.49796833" lon="1.51883">
        <ele>1139.0</ele>
        <time>2019-08-04T12:49:15.313Z</time>
      </trkpt>
      <trkpt lat="42.49794167" lon="1.51889">
        <ele>1139.0</ele>
        <time>2019-08-04T12:49:16.316Z</time>
      </trkpt>
      <trkpt lat="42.49794167" lon="1.51889">
        <ele>1139.0</ele>
        <time>2019-08-04T12:49:17.315Z</time>
      </trkpt>
      <trkpt lat="42.49792" lon="1.51895167">
        <ele>1139.0</ele>
        <time>2019-08-04T12:49:18.316Z</time>
      </trkpt>
      <trkpt lat="42.49792" lon="1.51895167">
        <ele>1139.0</ele>
        <time>2019-08-04T12:49:19.311Z</time>
      </trkpt>
      <trkpt lat="42.497895" lon="1.51901167">
        <ele>1140.0</ele>
        <time>2019-08-04T12:49:20.331Z</time>
      </trkpt>
      <trkpt lat="42.497895" lon="1.51901167">
        <ele>1140.0</ele>
        <time>2019-08-04T12:49:21.328Z</time>
      </trkpt>
      <trkpt lat="42.49787" lon="1.51907">
        <ele>1140.0</ele>
        <time>2019-08-04T12:49:22.316Z</time>
      </trkpt>
      <trkpt lat="42.49787" lon="1.51907">
        <ele>1140.0</ele>
        <time>2019-08-04T12:49:23.310Z</time>
      </trkpt>
      <trkpt lat="42.497845" lon="1.51912833">
        <ele>1140.0</ele>
        <time>2019-08-04T12:49:24.330Z</time>
      </trkpt>
      <trkpt lat="42.497845" lon="1.51912833">
        <ele>1140.0</ele>
        <time>2019-08-04T12:49:25.312Z</time>
      </trkpt>
      <trkpt lat="42.49782" lon="1.519185">
        <ele>1140.0</ele>
        <time>2019-08-04T12:49:26.315Z</time>
      </trkpt>
      <trkpt lat="42.49782" lon="1.519185">
        <ele>1140.0</ele>
        <time>2019-08-04T12:49:27.313Z</time>
      </trkpt>
      <trkpt lat="42.49779333" lon="1.51924">
        <ele>1140.0</ele>
        <time>2019-08-04T12:49:28.315Z</time>
      </trkpt>
      <trkpt lat="42.49779333" lon="1.51924">
        <ele>1140.0</ele>
        <time>2019-08-04T12:49:29.300Z</time>
      </trkpt>
      <trkpt lat="42.497765" lon="1.51929167">
        <ele>1140.0</ele>
        <time>2019-08-04T12:49:30.320Z</time>
      </trkpt>
      <trkpt lat="42.497765" lon="1.51929167">
        <ele>1140.0</ele>
        <time>2019-08-04T12:49:31.326Z</time>
      </trkpt>
      <trkpt lat="42.49773667" lon="1.51934">
        <ele>1139.0</ele>
        <time>2019-08-04T12:49:32.315Z</time>
      </trkpt>
      <trkpt lat="42.49773667" lon="1.51934">
        <ele>1139.0</ele>
        <time>2019-08-04T12:49:33.313Z</time>
      </trkpt>
      <trkpt lat="42.49771" lon="1.51939167">
        <ele>1139.0</ele>
        <time>2019-08-04T12:49:34.328Z</time>
      </trkpt>
      <trkpt lat="42.49771" lon="1.51939167">
        <ele>1139.0</ele>
        <time>2019-08-04T12:49:35.313Z</time>
      </trkpt>
      <trkpt lat="42.497685" lon="1.519445">
        <ele>1139.0</ele>
        <time>2019-08-04T12:49:36.316Z</time>
      </trkpt>
      <trkpt lat="42.497685" lon="1.519445">
        <ele>1139.0</ele>
        <time>2019-08-04T12:49:37.335Z</time>
      </trkpt>
      <trkpt lat="42.49765833" lon="1.51949833">
        <ele>1139.0</ele>
        <time>2019-08-04T12:49:38.316Z</time>
      </trkpt>
      <trkpt lat="42.49765833" lon="1.51949833">
        <ele>1139.0</ele>
        <time>2019-08-04T12:49:39.311Z</time>
      </trkpt>
      <trkpt lat="42.49763167" lon="1.51955">
        <ele>1139.0</ele>
        <time>2019-08-04T12:49:40.315Z</time>
      </trkpt>
      <trkpt lat="42.49763167" lon="1.51955">
        <ele>1139.0</ele>
        <time>2019-08-04T12:49:41.311Z</time>
      </trkpt>
      <trkpt lat="42.49760667" lon="1.51960167">
        <ele>1140.0</ele>
        <time>2019-08-04T12:49:42.328Z</time>
      </trkpt>
      <trkpt lat="42.49759333" lon="1.519625">
        <ele>1140.0</ele>
        <time>2019-08-04T12:49:43.315Z</time>
      </trkpt>
      <trkpt lat="42.49758" lon="1.51965">
        <ele>1140.0</ele>
        <time>2019-08-04T12:49:44.331Z</time>
      </trkpt>
      <trkpt lat="42.49758" lon="1.51965">
        <ele>1140.0</ele>
        <time>2019-08-04T12:49:45.312Z</time>
      </trkpt>
      <trkpt lat="42.49755667" lon="1.51970167">
        <ele>1140.0</ele>
        <time>2019-08-04T12:49:46.316Z</time>
      </trkpt>
      <trkpt lat="42.49755667" lon="1.51970167">
        <ele>1140.0</ele>
        <time>2019-08-04T12:49:47.332Z</time>
      </trkpt>
      <trkpt lat="42.497535" lon="1.51975833">
        <ele>1141.0</ele>
        <time>2019-08-04T12:49:48.315Z</time>
      </trkpt>
      <trkpt lat="42.497535" lon="1.51975833">
        <ele>1141.0</ele>
        <time>2019-08-04T12:49:49.313Z</time>
      </trkpt>
      <trkpt lat="42.49751167" lon="1.51981167">
        <ele>1141.0</ele>
        <time>2019-08-04T12:49:50.315Z</time>
      </trkpt>
      <trkpt lat="42.49751167" lon="1.51981167">
        <ele>1141.0</ele>
        <time>2019-08-04T12:49:51.341Z</time>
      </trkpt>
      <trkpt lat="42.49749" lon="1.519865">
        <ele>1141.0</ele>
        <time>2019-08-04T12:49:52.331Z</time>
      </trkpt>
      <trkpt lat="42.49748" lon="1.51989167">
        <ele>1141.0</ele>
        <time>2019-08-04T12:49:53.316Z</time>
      </trkpt>
      <trkpt lat="42.49748" lon="1.51989167">
        <ele>1141.0</ele>
        <time>2019-08-04T12:49:54.326Z</time>
      </trkpt>
      <trkpt lat="42.497465" lon="1.51994833">
        <ele>1142.0</ele>
        <time>2019-08-04T12:49:55.315Z</time>
      </trkpt>
      <trkpt lat="42.497465" lon="1.51994833">
        <ele>1142.0</ele>
        <time>2019-08-04T12:49:56.331Z</time>
      </trkpt>
      <trkpt lat="42.49745333" lon="1.52000833">
        <ele>1143.0</ele>
        <time>2019-08-04T12:49:57.315Z</time>
      </trkpt>
      <trkpt lat="42.49745333" lon="1.52000833">
        <ele>1143.0</ele>
        <time>2019-08-04T12:49:58.331Z</time>
      </trkpt>
      <trkpt lat="42.49743667" lon="1.520065">
        <ele>1143.0</ele>
        <time>2019-08-04T12:49:59.315Z</time>
      </trkpt>
      <trkpt lat="42.49742833" lon="1.52009167">
        <ele>1143.0</ele>
        <time>2019-08-04T12:50:00.331Z</time>
      </trkpt>
      <trkpt lat="42.49742833" lon="1.52009167">
        <ele>1143.0</ele>
        <time>2019-08-04T12:50:01.310Z</time>
      </trkpt>
      <trkpt lat="42.49741" lon="1.52014833">
        <ele>1144.0</ele>
        <time>2019-08-04T12:50:02.296Z</time>
      </trkpt>
      <trkpt lat="42.497405" lon="1.52018">
        <ele>1145.0</ele>
        <time>2019-08-04T12:50:03.324Z</time>
      </trkpt>
      <trkpt lat="42.497405" lon="1.52018">
        <ele>1145.0</ele>
        <time>2019-08-04T12:50:04.322Z</time>
      </trkpt>
      <trkpt lat="42.497395" lon="1.52024">
        <ele>1145.0</ele>
        <time>2019-08-04T12:50:05.315Z</time>
      </trkpt>
      <trkpt lat="42.49738667" lon="1.52026833">
        <ele>1145.0</ele>
        <time>2019-08-04T12:50:06.331Z</time>
      </trkpt>
      <trkpt lat="42.49738667" lon="1.52026833">
        <ele>1145.0</ele>
        <time>2019-08-04T12:50:07.313Z</time>
      </trkpt>
      <trkpt lat="42.49737167" lon="1.520325">
        <ele>1145.0</ele>
        <time>2019-08-04T12:50:08.314Z</time>
      </trkpt>
      <trkpt lat="42.49737167" lon="1.520325">
        <ele>1145.0</ele>
        <time>2019-08-04T12:50:09.330Z</time>
      </trkpt>
      <trkpt lat="42.497355" lon="1.520385">
        <ele>1146.0</ele>
        <time>2019-08-04T12:50:10.316Z</time>
      </trkpt>
      <trkpt lat="42.497355" lon="1.520385">
        <ele>1146.0</ele>
        <time>2019-08-04T12:50:11.331Z</time>
      </trkpt>
      <trkpt lat="42.497355" lon="1.520385">
        <ele>1146.0</ele>
        <time>2019-08-04T12:50:12.473Z</time>
      </trkpt>
      <trkpt lat="42.49733833" lon="1.52044667">
        <ele>1147.0</ele>
        <time>2019-08-04T12:50:13.324Z</time>
      </trkpt>
      <trkpt lat="42.49731667" lon="1.5205">
        <ele>1147.0</ele>
        <time>2019-08-04T12:50:14.328Z</time>
      </trkpt>
      <trkpt lat="42.49731667" lon="1.5205">
        <ele>1147.0</ele>
        <time>2019-08-04T12:50:15.311Z</time>
      </trkpt>
      <trkpt lat="42.49729333" lon="1.520555">
        <ele>1148.0</ele>
        <time>2019-08-04T12:50:16.316Z</time>
      </trkpt>
      <trkpt lat="42.49729333" lon="1.520555">
        <ele>1148.0</ele>
        <time>2019-08-04T12:50:17.312Z</time>
      </trkpt>
      <trkpt lat="42.49726667" lon="1.520605">
        <ele>1148.0</ele>
        <time>2019-08-04T12:50:18.315Z</time>
      </trkpt>
      <trkpt lat="42.49726667" lon="1.520605">
        <ele>1148.0</ele>
        <time>2019-08-04T12:50:19.331Z</time>
      </trkpt>
      <trkpt lat="42.49723833" lon="1.52065667">
        <ele>1148.0</ele>
        <time>2019-08-04T12:50:20.316Z</time>
      </trkpt>
      <trkpt lat="42.49723833" lon="1.52065667">
        <ele>1148.0</ele>
        <time>2019-08-04T12:50:21.312Z</time>
      </trkpt>
      <trkpt lat="42.49720167" lon="1.52069667">
        <ele>1149.0</ele>
        <time>2019-08-04T12:50:22.316Z</time>
      </trkpt>
      <trkpt lat="42.49720167" lon="1.52069667">
        <ele>1149.0</ele>
        <time>2019-08-04T12:50:23.313Z</time>
      </trkpt>
      <trkpt lat="42.497165" lon="1.52073667">
        <ele>1149.0</ele>
        <time>2019-08-04T12:50:24.330Z</time>
      </trkpt>
      <trkpt lat="42.497165" lon="1.52073667">
        <ele>1149.0</ele>
        <time>2019-08-04T12:50:25.310Z</time>
      </trkpt>
      <trkpt lat="42.49713333" lon="1.52078">
        <ele>1149.0</ele>
        <time>2019-08-04T12:50:26.330Z</time>
      </trkpt>
      <trkpt lat="42.49713333" lon="1.52078">
        <ele>1149.0</ele>
        <time>2019-08-04T12:50:27.313Z</time>
      </trkpt>
      <trkpt lat="42.49709667" lon="1.52081833">
        <ele>1149.0</ele>
        <time>2019-08-04T12:50:28.316Z</time>
      </trkpt>
      <trkpt lat="42.49709667" lon="1.52081833">
        <ele>1149.0</ele>
        <time>2019-08-04T12:50:29.318Z</time>
      </trkpt>
      <trkpt lat="42.49706167" lon="1.52085667">
        <ele>1149.0</ele>
        <time>2019-08-04T12:50:30.307Z</time>
      </trkpt>
      <trkpt lat="42.49706167" lon="1.52085667">
        <ele>1149.0</ele>
        <time>2019-08-04T12:50:31.312Z</time>
      </trkpt>
      <trkpt lat="42.49702667" lon="1.520895">
        <ele>1149.0</ele>
        <time>2019-08-04T12:50:32.319Z</time>
      </trkpt>
      <trkpt lat="42.49701167" lon="1.52091667">
        <ele>1149.0</ele>
        <time>2019-08-04T12:50:33.314Z</time>
      </trkpt>
      <trkpt lat="42.49699333" lon="1.520935">
        <ele>1149.0</ele>
        <time>2019-08-04T12:50:34.332Z</time>
      </trkpt>
      <trkpt lat="42.49699333" lon="1.520935">
        <ele>1149.0</ele>
        <time>2019-08-04T12:50:35.312Z</time>
      </trkpt>
      <trkpt lat="42.49695833" lon="1.52097167">
        <ele>1149.0</ele>
        <time>2019-08-04T12:50:36.316Z</time>
      </trkpt>
      <trkpt lat="42.49695833" lon="1.52097167">
        <ele>1149.0</ele>
        <time>2019-08-04T12:50:37.333Z</time>
      </trkpt>
      <trkpt lat="42.49692333" lon="1.52101">
        <ele>1150.0</ele>
        <time>2019-08-04T12:50:38.315Z</time>
      </trkpt>
      <trkpt lat="42.49690833" lon="1.52103167">
        <ele>1150.0</ele>
        <time>2019-08-04T12:50:39.331Z</time>
      </trkpt>
      <trkpt lat="42.49689333" lon="1.521055">
        <ele>1150.0</ele>
        <time>2019-08-04T12:50:40.317Z</time>
      </trkpt>
      <trkpt lat="42.49689333" lon="1.521055">
        <ele>1150.0</ele>
        <time>2019-08-04T12:50:41.310Z</time>
      </trkpt>
      <trkpt lat="42.49685667" lon="1.52109667">
        <ele>1150.0</ele>
        <time>2019-08-04T12:50:42.297Z</time>
      </trkpt>
      <trkpt lat="42.49685667" lon="1.52109667">
        <ele>1150.0</ele>
        <time>2019-08-04T12:50:43.297Z</time>
      </trkpt>
      <trkpt lat="42.49681833" lon="1.52112833">
        <ele>1151.0</ele>
        <time>2019-08-04T12:50:44.328Z</time>
      </trkpt>
      <trkpt lat="42.49681833" lon="1.52112833">
        <ele>1151.0</ele>
        <time>2019-08-04T12:50:45.310Z</time>
      </trkpt>
      <trkpt lat="42.49678" lon="1.52115833">
        <ele>1151.0</ele>
        <time>2019-08-04T12:50:46.331Z</time>
      </trkpt>
      <trkpt lat="42.49678" lon="1.52115833">
        <ele>1151.0</ele>
        <time>2019-08-04T12:50:47.314Z</time>
      </trkpt>
      <trkpt lat="42.49674833" lon="1.52119333">
        <ele>1152.0</ele>
        <time>2019-08-04T12:50:48.336Z</time>
      </trkpt>
      <trkpt lat="42.49674833" lon="1.52119333">
        <ele>1152.0</ele>
        <time>2019-08-04T12:50:49.312Z</time>
      </trkpt>
      <trkpt lat="42.49672167" lon="1.521235">
        <ele>1152.0</ele>
        <time>2019-08-04T12:50:50.315Z</time>
      </trkpt>
      <trkpt lat="42.49672167" lon="1.521235">
        <ele>1152.0</ele>
        <time>2019-08-04T12:50:51.332Z</time>
      </trkpt>
      <trkpt lat="42.496705" lon="1.52128667">
        <ele>1153.0</ele>
        <time>2019-08-04T12:50:52.316Z</time>
      </trkpt>
      <trkpt lat="42.496705" lon="1.52128667">
        <ele>1153.0</ele>
        <time>2019-08-04T12:50:53.332Z</time>
      </trkpt>
      <trkpt lat="42.49669833" lon="1.52133167">
        <ele>1154.0</ele>
        <time>2019-08-04T12:50:54.329Z</time>
      </trkpt>
      <trkpt lat="42.49669833" lon="1.52133167">
        <ele>1154.0</ele>
        <time>2019-08-04T12:50:55.310Z</time>
      </trkpt>
      <trkpt lat="42.49674167" lon="1.521405">
        <ele>1155.0</ele>
        <time>2019-08-04T12:50:56.330Z</time>
      </trkpt>
      <trkpt lat="42.49674167" lon="1.521405">
        <ele>1155.0</ele>
        <time>2019-08-04T12:50:57.311Z</time>
      </trkpt>
      <trkpt lat="42.49678" lon="1.52144">
        <ele>1156.0</ele>
        <time>2019-08-04T12:50:58.317Z</time>
      </trkpt>
      <trkpt lat="42.49678" lon="1.52144">
        <ele>1156.0</ele>
        <time>2019-08-04T12:50:59.310Z</time>
      </trkpt>
      <trkpt lat="42.49681167" lon="1.52146333">
        <ele>1157.0</ele>
        <time>2019-08-04T12:51:00.330Z</time>
      </trkpt>
      <trkpt lat="42.49681167" lon="1.52146333">
        <ele>1157.0</ele>
        <time>2019-08-04T12:51:01.312Z</time>
      </trkpt>
      <trkpt lat="42.49685167" lon="1.52147667">
        <ele>1157.0</ele>
        <time>2019-08-04T12:51:02.335Z</time>
      </trkpt>
      <trkpt lat="42.49687" lon="1.52147667">
        <ele>1158.0</ele>
        <time>2019-08-04T12:51:03.318Z</time>
      </trkpt>
      <trkpt lat="42.49689167" lon="1.52148167">
        <ele>1158.0</ele>
        <time>2019-08-04T12:51:04.329Z</time>
      </trkpt>
      <trkpt lat="42.49689167" lon="1.52148167">
        <ele>1158.0</ele>
        <time>2019-08-04T12:51:05.312Z</time>
      </trkpt>
      <trkpt lat="42.49689167" lon="1.52148167">
        <ele>1158.0</ele>
        <time>2019-08-04T12:51:06.467Z</time>
      </trkpt>
      <trkpt lat="42.49693167" lon="1.521485">
        <ele>1159.0</ele>
        <time>2019-08-04T12:51:07.335Z</time>
      </trkpt>
      <trkpt lat="42.49697167" lon="1.52147333">
        <ele>1160.0</ele>
        <time>2019-08-04T12:51:08.316Z</time>
      </trkpt>
      <trkpt lat="42.49699333" lon="1.52146667">
        <ele>1160.0</ele>
        <time>2019-08-04T12:51:09.316Z</time>
      </trkpt>
      <trkpt lat="42.49699333" lon="1.52146667">
        <ele>1160.0</ele>
        <time>2019-08-04T12:51:10.314Z</time>
      </trkpt>
      <trkpt lat="42.49703333" lon="1.52146167">
        <ele>1161.0</ele>
        <time>2019-08-04T12:51:11.315Z</time>
      </trkpt>
      <trkpt lat="42.49703333" lon="1.52146167">
        <ele>1161.0</ele>
        <time>2019-08-04T12:51:12.331Z</time>
      </trkpt>
      <trkpt lat="42.49707667" lon="1.52145667">
        <ele>1162.0</ele>
        <time>2019-08-04T12:51:13.315Z</time>
      </trkpt>
      <trkpt lat="42.49709833" lon="1.52145333">
        <ele>1162.0</ele>
        <time>2019-08-04T12:51:14.330Z</time>
      </trkpt>
      <trkpt lat="42.49709833" lon="1.52145333">
        <ele>1162.0</ele>
        <time>2019-08-04T12:51:15.312Z</time>
      </trkpt>
      <trkpt lat="42.49714167" lon="1.52145">
        <ele>1163.0</ele>
        <time>2019-08-04T12:51:16.313Z</time>
      </trkpt>
      <trkpt lat="42.49714167" lon="1.52145">
        <ele>1163.0</ele>
        <time>2019-08-04T12:51:17.330Z</time>
      </trkpt>
      <trkpt lat="42.497185" lon="1.52144667">
        <ele>1163.0</ele>
        <time>2019-08-04T12:51:18.313Z</time>
      </trkpt>
      <trkpt lat="42.497185" lon="1.52144667">
        <ele>1163.0</ele>
        <time>2019-08-04T12:51:19.332Z</time>
      </trkpt>
      <trkpt lat="42.497235" lon="1.52145667">
        <ele>1162.0</ele>
        <time>2019-08-04T12:51:20.315Z</time>
      </trkpt>
      <trkpt lat="42.497235" lon="1.52145667">
        <ele>1162.0</ele>
        <time>2019-08-04T12:51:21.312Z</time>
      </trkpt>
      <trkpt lat="42.49727833" lon="1.52144833">
        <ele>1164.0</ele>
        <time>2019-08-04T12:51:22.335Z</time>
      </trkpt>
      <trkpt lat="42.49730333" lon="1.52145">
        <ele>1163.0</ele>
        <time>2019-08-04T12:51:23.316Z</time>
      </trkpt>
      <trkpt lat="42.49732667" lon="1.52144833">
        <ele>1163.0</ele>
        <time>2019-08-04T12:51:24.301Z</time>
      </trkpt>
      <trkpt lat="42.49732667" lon="1.52144833">
        <ele>1163.0</ele>
        <time>2019-08-04T12:51:25.310Z</time>
      </trkpt>
      <trkpt lat="42.49737167" lon="1.521445">
        <ele>1163.0</ele>
        <time>2019-08-04T12:51:26.325Z</time>
      </trkpt>
      <trkpt lat="42.49737167" lon="1.521445">
        <ele>1163.0</ele>
        <time>2019-08-04T12:51:27.313Z</time>
      </trkpt>
      <trkpt lat="42.49742167" lon="1.52144">
        <ele>1163.0</ele>
        <time>2019-08-04T12:51:28.315Z</time>
      </trkpt>
      <trkpt lat="42.49742167" lon="1.52144">
        <ele>1163.0</ele>
        <time>2019-08-04T12:51:29.327Z</time>
      </trkpt>
      <trkpt lat="42.49747" lon="1.52144167">
        <ele>1163.0</ele>
        <time>2019-08-04T12:51:30.307Z</time>
      </trkpt>
      <trkpt lat="42.497495" lon="1.521445">
        <ele>1163.0</ele>
        <time>2019-08-04T12:51:31.312Z</time>
      </trkpt>
      <trkpt lat="42.497495" lon="1.521445">
        <ele>1163.0</ele>
        <time>2019-08-04T12:51:32.319Z</time>
      </trkpt>
      <trkpt lat="42.497545" lon="1.52145">
        <ele>1162.0</ele>
        <time>2019-08-04T12:51:33.313Z</time>
      </trkpt>
      <trkpt lat="42.497545" lon="1.52145">
        <ele>1162.0</ele>
        <time>2019-08-04T12:51:34.330Z</time>
      </trkpt>
      <trkpt lat="42.49759333" lon="1.52145167">
        <ele>1162.0</ele>
        <time>2019-08-04T12:51:35.315Z</time>
      </trkpt>
      <trkpt lat="42.49759333" lon="1.52145167">
        <ele>1162.0</ele>
        <time>2019-08-04T12:51:36.332Z</time>
      </trkpt>
      <trkpt lat="42.49763667" lon="1.52144667">
        <ele>1162.0</ele>
        <time>2019-08-04T12:51:37.316Z</time>
      </trkpt>
      <trkpt lat="42.49765667" lon="1.52143667">
        <ele>1163.0</ele>
        <time>2019-08-04T12:51:38.316Z</time>
      </trkpt>
      <trkpt lat="42.49765667" lon="1.52143667">
        <ele>1163.0</ele>
        <time>2019-08-04T12:51:39.312Z</time>
      </trkpt>
      <trkpt lat="42.49765667" lon="1.52143667">
        <ele>1163.0</ele>
        <time>2019-08-04T12:51:40.297Z</time>
      </trkpt>
      <trkpt lat="42.49769667" lon="1.52141167">
        <ele>1165.0</ele>
        <time>2019-08-04T12:51:41.314Z</time>
      </trkpt>
      <trkpt lat="42.49774167" lon="1.521385">
        <ele>1166.0</ele>
        <time>2019-08-04T12:51:42.313Z</time>
      </trkpt>
      <trkpt lat="42.49774167" lon="1.521385">
        <ele>1166.0</ele>
        <time>2019-08-04T12:51:43.313Z</time>
      </trkpt>
      <trkpt lat="42.497785" lon="1.52136">
        <ele>1167.0</ele>
        <time>2019-08-04T12:51:44.328Z</time>
      </trkpt>
      <trkpt lat="42.497785" lon="1.52136">
        <ele>1167.0</ele>
        <time>2019-08-04T12:51:45.313Z</time>
      </trkpt>
      <trkpt lat="42.49782667" lon="1.521345">
        <ele>1167.0</ele>
        <time>2019-08-04T12:51:46.317Z</time>
      </trkpt>
      <trkpt lat="42.49782667" lon="1.521345">
        <ele>1167.0</ele>
        <time>2019-08-04T12:51:47.336Z</time>
      </trkpt>
      <trkpt lat="42.49787" lon="1.52134167">
        <ele>1169.0</ele>
        <time>2019-08-04T12:51:48.317Z</time>
      </trkpt>
      <trkpt lat="42.49787" lon="1.52134167">
        <ele>1169.0</ele>
        <time>2019-08-04T12:51:49.313Z</time>
      </trkpt>
      <trkpt lat="42.49790833" lon="1.52136167">
        <ele>1172.0</ele>
        <time>2019-08-04T12:51:50.315Z</time>
      </trkpt>
      <trkpt lat="42.49790833" lon="1.52136167">
        <ele>1172.0</ele>
        <time>2019-08-04T12:51:51.331Z</time>
      </trkpt>
      <trkpt lat="42.49793" lon="1.52142667">
        <ele>1171.0</ele>
        <time>2019-08-04T12:51:52.318Z</time>
      </trkpt>
      <trkpt lat="42.497935" lon="1.521465">
        <ele>1170.0</ele>
        <time>2019-08-04T12:51:53.316Z</time>
      </trkpt>
      <trkpt lat="42.497935" lon="1.521465">
        <ele>1170.0</ele>
        <time>2019-08-04T12:51:54.331Z</time>
      </trkpt>
      <trkpt lat="42.49793833" lon="1.52154333">
        <ele>1169.0</ele>
        <time>2019-08-04T12:51:55.315Z</time>
      </trkpt>
      <trkpt lat="42.49793667" lon="1.52158">
        <ele>1169.0</ele>
        <time>2019-08-04T12:51:56.331Z</time>
      </trkpt>
      <trkpt lat="42.49793333" lon="1.521615">
        <ele>1169.0</ele>
        <time>2019-08-04T12:51:57.326Z</time>
      </trkpt>
      <trkpt lat="42.49793333" lon="1.521615">
        <ele>1169.0</ele>
        <time>2019-08-04T12:51:58.315Z</time>
      </trkpt>
      <trkpt lat="42.49792667" lon="1.52167667">
        <ele>1169.0</ele>
        <time>2019-08-04T12:51:59.315Z</time>
      </trkpt>
      <trkpt lat="42.49792333" lon="1.52170833">
        <ele>1169.0</ele>
        <time>2019-08-04T12:52:00.331Z</time>
      </trkpt>
      <trkpt lat="42.49792167" lon="1.52173833">
        <ele>1169.0</ele>
        <time>2019-08-04T12:52:01.316Z</time>
      </trkpt>
      <trkpt lat="42.49792167" lon="1.52173833">
        <ele>1169.0</ele>
        <time>2019-08-04T12:52:02.331Z</time>
      </trkpt>
      <trkpt lat="42.497915" lon="1.52180833">
        <ele>1170.0</ele>
        <time>2019-08-04T12:52:03.315Z</time>
      </trkpt>
      <trkpt lat="42.49791" lon="1.52183833">
        <ele>1170.0</ele>
        <time>2019-08-04T12:52:04.330Z</time>
      </trkpt>
      <trkpt lat="42.49791" lon="1.52183833">
        <ele>1170.0</ele>
        <time>2019-08-04T12:52:05.313Z</time>
      </trkpt>
      <trkpt lat="42.49791" lon="1.52183833">
        <ele>1170.0</ele>
        <time>2019-08-04T12:52:06.478Z</time>
      </trkpt>
      <trkpt lat="42.49790333" lon="1.52189833">
        <ele>1170.0</ele>
        <time>2019-08-04T12:52:07.332Z</time>
      </trkpt>
      <trkpt lat="42.497905" lon="1.52197">
        <ele>1171.0</ele>
        <time>2019-08-04T12:52:08.316Z</time>
      </trkpt>
      <trkpt lat="42.497905" lon="1.52197">
        <ele>1171.0</ele>
        <time>2019-08-04T12:52:09.332Z</time>
      </trkpt>
      <trkpt lat="42.497905" lon="1.52203667">
        <ele>1172.0</ele>
        <time>2019-08-04T12:52:10.316Z</time>
      </trkpt>
      <trkpt lat="42.497905" lon="1.52203667">
        <ele>1172.0</ele>
        <time>2019-08-04T12:52:11.312Z</time>
      </trkpt>
      <trkpt lat="42.49791167" lon="1.52210333">
        <ele>1173.0</ele>
        <time>2019-08-04T12:52:12.296Z</time>
      </trkpt>
      <trkpt lat="42.49791167" lon="1.52213833">
        <ele>1173.0</ele>
        <time>2019-08-04T12:52:13.315Z</time>
      </trkpt>
      <trkpt lat="42.49791167" lon="1.52213833">
        <ele>1173.0</ele>
        <time>2019-08-04T12:52:14.313Z</time>
      </trkpt>
      <trkpt lat="42.49791333" lon="1.522205">
        <ele>1174.0</ele>
        <time>2019-08-04T12:52:15.329Z</time>
      </trkpt>
      <trkpt lat="42.49792" lon="1.52223833">
        <ele>1174.0</ele>
        <time>2019-08-04T12:52:16.317Z</time>
      </trkpt>
      <trkpt lat="42.49792" lon="1.52223833">
        <ele>1174.0</ele>
        <time>2019-08-04T12:52:17.296Z</time>
      </trkpt>
      <trkpt lat="42.497925" lon="1.52230333">
        <ele>1175.0</ele>
        <time>2019-08-04T12:52:18.317Z</time>
      </trkpt>
      <trkpt lat="42.497925" lon="1.52230333">
        <ele>1175.0</ele>
        <time>2019-08-04T12:52:19.313Z</time>
      </trkpt>
      <trkpt lat="42.49794" lon="1.52237333">
        <ele>1176.0</ele>
        <time>2019-08-04T12:52:20.316Z</time>
      </trkpt>
      <trkpt lat="42.49794" lon="1.52237333">
        <ele>1176.0</ele>
        <time>2019-08-04T12:52:21.332Z</time>
      </trkpt>
      <trkpt lat="42.49795333" lon="1.52244167">
        <ele>1177.0</ele>
        <time>2019-08-04T12:52:22.318Z</time>
      </trkpt>
      <trkpt lat="42.49796167" lon="1.522475">
        <ele>1177.0</ele>
        <time>2019-08-04T12:52:23.318Z</time>
      </trkpt>
      <trkpt lat="42.49796167" lon="1.522475">
        <ele>1177.0</ele>
        <time>2019-08-04T12:52:24.310Z</time>
      </trkpt>
      <trkpt lat="42.49797833" lon="1.522535">
        <ele>1178.0</ele>
        <time>2019-08-04T12:52:25.326Z</time>
      </trkpt>
      <trkpt lat="42.49797833" lon="1.522535">
        <ele>1178.0</ele>
        <time>2019-08-04T12:52:26.313Z</time>
      </trkpt>
      <trkpt lat="42.49799333" lon="1.52259">
        <ele>1179.0</ele>
        <time>2019-08-04T12:52:27.316Z</time>
      </trkpt>
      <trkpt lat="42.49800333" lon="1.52261667">
        <ele>1179.0</ele>
        <time>2019-08-04T12:52:28.319Z</time>
      </trkpt>
      <trkpt lat="42.49800333" lon="1.52261667">
        <ele>1179.0</ele>
        <time>2019-08-04T12:52:29.307Z</time>
      </trkpt>
      <trkpt lat="42.49803" lon="1.52267833">
        <ele>1180.0</ele>
        <time>2019-08-04T12:52:30.318Z</time>
      </trkpt>
      <trkpt lat="42.49803" lon="1.52267833">
        <ele>1180.0</ele>
        <time>2019-08-04T12:52:31.324Z</time>
      </trkpt>
      <trkpt lat="42.49806" lon="1.52274333">
        <ele>1181.0</ele>
        <time>2019-08-04T12:52:32.329Z</time>
      </trkpt>
      <trkpt lat="42.49806833" lon="1.52277167">
        <ele>1181.0</ele>
        <time>2019-08-04T12:52:33.317Z</time>
      </trkpt>
      <trkpt lat="42.49806833" lon="1.52277167">
        <ele>1181.0</ele>
        <time>2019-08-04T12:52:34.305Z</time>
      </trkpt>
      <trkpt lat="42.498075" lon="1.52279667">
        <ele>1182.0</ele>
        <time>2019-08-04T12:52:35.328Z</time>
      </trkpt>
      <trkpt lat="42.498075" lon="1.52279667">
        <ele>1182.0</ele>
        <time>2019-08-04T12:52:36.314Z</time>
      </trkpt>
      <trkpt lat="42.49809667" lon="1.522845">
        <ele>1182.0</ele>
        <time>2019-08-04T12:52:37.313Z</time>
      </trkpt>
      <trkpt lat="42.49812833" lon="1.52290167">
        <ele>1182.0</ele>
        <time>2019-08-04T12:52:38.316Z</time>
      </trkpt>
      <trkpt lat="42.49812833" lon="1.52290167">
        <ele>1182.0</ele>
        <time>2019-08-04T12:52:39.332Z</time>
      </trkpt>
      <trkpt lat="42.49816" lon="1.52295667">
        <ele>1183.0</ele>
        <time>2019-08-04T12:52:40.317Z</time>
      </trkpt>
      <trkpt lat="42.49816" lon="1.52295667">
        <ele>1183.0</ele>
        <time>2019-08-04T12:52:41.312Z</time>
      </trkpt>
      <trkpt lat="42.49819" lon="1.52301167">
        <ele>1183.0</ele>
        <time>2019-08-04T12:52:42.316Z</time>
      </trkpt>
      <trkpt lat="42.49819" lon="1.52301167">
        <ele>1183.0</ele>
        <time>2019-08-04T12:52:43.311Z</time>
      </trkpt>
      <trkpt lat="42.49819" lon="1.52301167">
        <ele>1183.0</ele>
        <time>2019-08-04T12:52:44.297Z</time>
      </trkpt>
      <trkpt lat="42.49822" lon="1.52306667">
        <ele>1184.0</ele>
        <time>2019-08-04T12:52:45.317Z</time>
      </trkpt>
      <trkpt lat="42.49824667" lon="1.52312">
        <ele>1184.0</ele>
        <time>2019-08-04T12:52:46.317Z</time>
      </trkpt>
      <trkpt lat="42.49824667" lon="1.52312">
        <ele>1184.0</ele>
        <time>2019-08-04T12:52:47.297Z</time>
      </trkpt>
      <trkpt lat="42.49827667" lon="1.52317">
        <ele>1184.0</ele>
        <time>2019-08-04T12:52:48.325Z</time>
      </trkpt>
      <trkpt lat="42.49827667" lon="1.52317">
        <ele>1184.0</ele>
        <time>2019-08-04T12:52:49.311Z</time>
      </trkpt>
      <trkpt lat="42.49831" lon="1.52321833">
        <ele>1184.0</ele>
        <time>2019-08-04T12:52:50.332Z</time>
      </trkpt>
      <trkpt lat="42.49831" lon="1.52321833">
        <ele>1184.0</ele>
        <time>2019-08-04T12:52:51.313Z</time>
      </trkpt>
      <trkpt lat="42.49833833" lon="1.52326">
        <ele>1184.0</ele>
        <time>2019-08-04T12:52:52.318Z</time>
      </trkpt>
      <trkpt lat="42.49833833" lon="1.52326">
        <ele>1184.0</ele>
        <time>2019-08-04T12:52:53.314Z</time>
      </trkpt>
      <trkpt lat="42.49837333" lon="1.52330167">
        <ele>1184.0</ele>
        <time>2019-08-04T12:52:54.327Z</time>
      </trkpt>
      <trkpt lat="42.49837333" lon="1.52330167">
        <ele>1184.0</ele>
        <time>2019-08-04T12:52:55.313Z</time>
      </trkpt>
      <trkpt lat="42.49840667" lon="1.523345">
        <ele>1184.0</ele>
        <time>2019-08-04T12:52:56.312Z</time>
      </trkpt>
      <trkpt lat="42.49840667" lon="1.523345">
        <ele>1184.0</ele>
        <time>2019-08-04T12:52:57.328Z</time>
      </trkpt>
      <trkpt lat="42.49844333" lon="1.523395">
        <ele>1184.0</ele>
        <time>2019-08-04T12:52:58.317Z</time>
      </trkpt>
      <trkpt lat="42.49844333" lon="1.523395">
        <ele>1184.0</ele>
        <time>2019-08-04T12:52:59.313Z</time>
      </trkpt>
      <trkpt lat="42.49847833" lon="1.52343667">
        <ele>1185.0</ele>
        <time>2019-08-04T12:53:00.317Z</time>
      </trkpt>
      <trkpt lat="42.49847833" lon="1.52343667">
        <ele>1185.0</ele>
        <time>2019-08-04T12:53:01.311Z</time>
      </trkpt>
      <trkpt lat="42.49851333" lon="1.52347833">
        <ele>1185.0</ele>
        <time>2019-08-04T12:53:02.332Z</time>
      </trkpt>
      <trkpt lat="42.49851333" lon="1.52347833">
        <ele>1185.0</ele>
        <time>2019-08-04T12:53:03.316Z</time>
      </trkpt>
      <trkpt lat="42.49851333" lon="1.52347833">
        <ele>1185.0</ele>
        <time>2019-08-04T12:53:04.304Z</time>
      </trkpt>
      <trkpt lat="42.498545" lon="1.52352167">
        <ele>1185.0</ele>
        <time>2019-08-04T12:53:05.318Z</time>
      </trkpt>
      <trkpt lat="42.49857667" lon="1.52355833">
        <ele>1185.0</ele>
        <time>2019-08-04T12:53:06.316Z</time>
      </trkpt>
      <trkpt lat="42.49857667" lon="1.52355833">
        <ele>1185.0</ele>
        <time>2019-08-04T12:53:07.312Z</time>
      </trkpt>
      <trkpt lat="42.49860667" lon="1.52359667">
        <ele>1186.0</ele>
        <time>2019-08-04T12:53:08.332Z</time>
      </trkpt>
      <trkpt lat="42.49862167" lon="1.52361667">
        <ele>1186.0</ele>
        <time>2019-08-04T12:53:09.316Z</time>
      </trkpt>
      <trkpt lat="42.49862167" lon="1.52361667">
        <ele>1186.0</ele>
        <time>2019-08-04T12:53:10.467Z</time>
      </trkpt>
      <trkpt lat="42.49864" lon="1.52363833">
        <ele>1186.0</ele>
        <time>2019-08-04T12:53:11.300Z</time>
      </trkpt>
      <trkpt lat="42.49867667" lon="1.52368">
        <ele>1186.0</ele>
        <time>2019-08-04T12:53:12.327Z</time>
      </trkpt>
      <trkpt lat="42.49867667" lon="1.52368">
        <ele>1186.0</ele>
        <time>2019-08-04T12:53:13.307Z</time>
      </trkpt>
      <trkpt lat="42.49871167" lon="1.523725">
        <ele>1187.0</ele>
        <time>2019-08-04T12:53:14.329Z</time>
      </trkpt>
      <trkpt lat="42.49871167" lon="1.523725">
        <ele>1187.0</ele>
        <time>2019-08-04T12:53:15.312Z</time>
      </trkpt>
      <trkpt lat="42.49874833" lon="1.523765">
        <ele>1187.0</ele>
        <time>2019-08-04T12:53:16.333Z</time>
      </trkpt>
      <trkpt lat="42.49874833" lon="1.523765">
        <ele>1187.0</ele>
        <time>2019-08-04T12:53:17.328Z</time>
      </trkpt>
      <trkpt lat="42.49878667" lon="1.52380333">
        <ele>1188.0</ele>
        <time>2019-08-04T12:53:18.316Z</time>
      </trkpt>
      <trkpt lat="42.49878667" lon="1.52380333">
        <ele>1188.0</ele>
        <time>2019-08-04T12:53:19.332Z</time>
      </trkpt>
      <trkpt lat="42.498825" lon="1.52384333">
        <ele>1188.0</ele>
        <time>2019-08-04T12:53:20.317Z</time>
      </trkpt>
      <trkpt lat="42.498825" lon="1.52384333">
        <ele>1188.0</ele>
        <time>2019-08-04T12:53:21.332Z</time>
      </trkpt>
      <trkpt lat="42.498865" lon="1.52387833">
        <ele>1189.0</ele>
        <time>2019-08-04T12:53:22.318Z</time>
      </trkpt>
      <trkpt lat="42.498865" lon="1.52387833">
        <ele>1189.0</ele>
        <time>2019-08-04T12:53:23.305Z</time>
      </trkpt>
      <trkpt lat="42.498905" lon="1.52391333">
        <ele>1190.0</ele>
        <time>2019-08-04T12:53:24.325Z</time>
      </trkpt>
      <trkpt lat="42.498905" lon="1.52391333">
        <ele>1190.0</ele>
        <time>2019-08-04T12:53:25.314Z</time>
      </trkpt>
      <trkpt lat="42.49895" lon="1.523955">
        <ele>1191.0</ele>
        <time>2019-08-04T12:53:26.316Z</time>
      </trkpt>
      <trkpt lat="42.49895" lon="1.523955">
        <ele>1191.0</ele>
        <time>2019-08-04T12:53:27.332Z</time>
      </trkpt>
      <trkpt lat="42.49898833" lon="1.52398833">
        <ele>1192.0</ele>
        <time>2019-08-04T12:53:28.315Z</time>
      </trkpt>
      <trkpt lat="42.49898833" lon="1.52398833">
        <ele>1192.0</ele>
        <time>2019-08-04T12:53:29.307Z</time>
      </trkpt>
      <trkpt lat="42.49903" lon="1.52401167">
        <ele>1193.0</ele>
        <time>2019-08-04T12:53:30.333Z</time>
      </trkpt>
      <trkpt lat="42.49904833" lon="1.52402167">
        <ele>1193.0</ele>
        <time>2019-08-04T12:53:31.299Z</time>
      </trkpt>
      <trkpt lat="42.49904833" lon="1.52402167">
        <ele>1193.0</ele>
        <time>2019-08-04T12:53:32.313Z</time>
      </trkpt>
      <trkpt lat="42.49908833" lon="1.52403333">
        <ele>1194.0</ele>
        <time>2019-08-04T12:53:33.317Z</time>
      </trkpt>
      <trkpt lat="42.49911333" lon="1.52404167">
        <ele>1195.0</ele>
        <time>2019-08-04T12:53:34.331Z</time>
      </trkpt>
      <trkpt lat="42.49911333" lon="1.52404167">
        <ele>1195.0</ele>
        <time>2019-08-04T12:53:35.329Z</time>
      </trkpt>
      <trkpt lat="42.49916833" lon="1.52403333">
        <ele>1196.0</ele>
        <time>2019-08-04T12:53:36.316Z</time>
      </trkpt>
      <trkpt lat="42.49916833" lon="1.52403333">
        <ele>1196.0</ele>
        <time>2019-08-04T12:53:37.332Z</time>
      </trkpt>
      <trkpt lat="42.49922" lon="1.52399">
        <ele>1197.0</ele>
        <time>2019-08-04T12:53:38.317Z</time>
      </trkpt>
      <trkpt lat="42.49922" lon="1.52399">
        <ele>1197.0</ele>
        <time>2019-08-04T12:53:39.332Z</time>
      </trkpt>
      <trkpt lat="42.499265" lon="1.52392667">
        <ele>1198.0</ele>
        <time>2019-08-04T12:53:40.318Z</time>
      </trkpt>
      <trkpt lat="42.499265" lon="1.52392667">
        <ele>1198.0</ele>
        <time>2019-08-04T12:53:41.314Z</time>
      </trkpt>
      <trkpt lat="42.49929833" lon="1.52386667">
        <ele>1199.0</ele>
        <time>2019-08-04T12:53:42.296Z</time>
      </trkpt>
      <trkpt lat="42.49929833" lon="1.52386667">
        <ele>1199.0</ele>
        <time>2019-08-04T12:53:43.314Z</time>
      </trkpt>
      <trkpt lat="42.49931667" lon="1.523805">
        <ele>1199.0</ele>
        <time>2019-08-04T12:53:44.329Z</time>
      </trkpt>
      <trkpt lat="42.49931667" lon="1.523805">
        <ele>1199.0</ele>
        <time>2019-08-04T12:53:45.313Z</time>
      </trkpt>
      <trkpt lat="42.49932667" lon="1.52375833">
        <ele>1199.0</ele>
        <time>2019-08-04T12:53:46.333Z</time>
      </trkpt>
      <trkpt lat="42.49932667" lon="1.52375833">
        <ele>1199.0</ele>
        <time>2019-08-04T12:53:47.313Z</time>
      </trkpt>
      <trkpt lat="42.499325" lon="1.52369833">
        <ele>1199.0</ele>
        <time>2019-08-04T12:53:48.317Z</time>
      </trkpt>
      <trkpt lat="42.499325" lon="1.52369833">
        <ele>1199.0</ele>
        <time>2019-08-04T12:53:49.313Z</time>
      </trkpt>
      <trkpt lat="42.49931833" lon="1.523625">
        <ele>1199.0</ele>
        <time>2019-08-04T12:53:50.317Z</time>
      </trkpt>
      <trkpt lat="42.49931833" lon="1.523625">
        <ele>1199.0</ele>
        <time>2019-08-04T12:53:51.313Z</time>
      </trkpt>
      <trkpt lat="42.49932" lon="1.523555">
        <ele>1199.0</ele>
        <time>2019-08-04T12:53:52.318Z</time>
      </trkpt>
      <trkpt lat="42.49932" lon="1.523555">
        <ele>1199.0</ele>
        <time>2019-08-04T12:53:53.314Z</time>
      </trkpt>
      <trkpt lat="42.499325" lon="1.523485">
        <ele>1199.0</ele>
        <time>2019-08-04T12:53:54.329Z</time>
      </trkpt>
      <trkpt lat="42.499325" lon="1.523485">
        <ele>1199.0</ele>
        <time>2019-08-04T12:53:55.314Z</time>
      </trkpt>
      <trkpt lat="42.49933167" lon="1.523415">
        <ele>1198.0</ele>
        <time>2019-08-04T12:53:56.314Z</time>
      </trkpt>
      <trkpt lat="42.49933667" lon="1.52338">
        <ele>1198.0</ele>
        <time>2019-08-04T12:53:57.330Z</time>
      </trkpt>
      <trkpt lat="42.49933667" lon="1.52338">
        <ele>1198.0</ele>
        <time>2019-08-04T12:53:58.315Z</time>
      </trkpt>
      <trkpt lat="42.499355" lon="1.52331333">
        <ele>1198.0</ele>
        <time>2019-08-04T12:53:59.317Z</time>
      </trkpt>
      <trkpt lat="42.499375" lon="1.523285">
        <ele>1198.0</ele>
        <time>2019-08-04T12:54:00.332Z</time>
      </trkpt>
      <trkpt lat="42.499375" lon="1.523285">
        <ele>1198.0</ele>
        <time>2019-08-04T12:54:01.312Z</time>
      </trkpt>
      <trkpt lat="42.49942" lon="1.523245">
        <ele>1197.0</ele>
        <time>2019-08-04T12:54:02.296Z</time>
      </trkpt>
      <trkpt lat="42.49942" lon="1.523245">
        <ele>1197.0</ele>
        <time>2019-08-04T12:54:03.314Z</time>
      </trkpt>
      <trkpt lat="42.49942" lon="1.523245">
        <ele>1197.0</ele>
        <time>2019-08-04T12:54:04.298Z</time>
      </trkpt>
      <trkpt lat="42.49947333" lon="1.52322333">
        <ele>1197.0</ele>
        <time>2019-08-04T12:54:05.305Z</time>
      </trkpt>
      <trkpt lat="42.49947333" lon="1.52322333">
        <ele>1197.0</ele>
        <time>2019-08-04T12:54:06.475Z</time>
      </trkpt>
      <trkpt lat="42.49952667" lon="1.523225">
        <ele>1197.0</ele>
        <time>2019-08-04T12:54:07.331Z</time>
      </trkpt>
      <trkpt lat="42.49958333" lon="1.523235">
        <ele>1198.0</ele>
        <time>2019-08-04T12:54:08.317Z</time>
      </trkpt>
      <trkpt lat="42.49958333" lon="1.523235">
        <ele>1198.0</ele>
        <time>2019-08-04T12:54:09.314Z</time>
      </trkpt>
      <trkpt lat="42.49964" lon="1.52325833">
        <ele>1198.0</ele>
        <time>2019-08-04T12:54:10.318Z</time>
      </trkpt>
      <trkpt lat="42.49966833" lon="1.52328">
        <ele>1198.0</ele>
        <time>2019-08-04T12:54:11.315Z</time>
      </trkpt>
      <trkpt lat="42.49966833" lon="1.52328">
        <ele>1198.0</ele>
        <time>2019-08-04T12:54:12.331Z</time>
      </trkpt>
      <trkpt lat="42.49971833" lon="1.52330833">
        <ele>1198.0</ele>
        <time>2019-08-04T12:54:13.317Z</time>
      </trkpt>
      <trkpt lat="42.49971833" lon="1.52330833">
        <ele>1198.0</ele>
        <time>2019-08-04T12:54:14.296Z</time>
      </trkpt>
      <trkpt lat="42.49977" lon="1.52333833">
        <ele>1198.0</ele>
        <time>2019-08-04T12:54:15.325Z</time>
      </trkpt>
      <trkpt lat="42.49979167" lon="1.52335667">
        <ele>1199.0</ele>
        <time>2019-08-04T12:54:16.318Z</time>
      </trkpt>
      <trkpt lat="42.49979167" lon="1.52335667">
        <ele>1199.0</ele>
        <time>2019-08-04T12:54:17.314Z</time>
      </trkpt>
      <trkpt lat="42.499835" lon="1.52340167">
        <ele>1199.0</ele>
        <time>2019-08-04T12:54:18.318Z</time>
      </trkpt>
      <trkpt lat="42.499835" lon="1.52340167">
        <ele>1199.0</ele>
        <time>2019-08-04T12:54:19.312Z</time>
      </trkpt>
      <trkpt lat="42.49988" lon="1.523445">
        <ele>1199.0</ele>
        <time>2019-08-04T12:54:20.332Z</time>
      </trkpt>
      <trkpt lat="42.49988" lon="1.523445">
        <ele>1199.0</ele>
        <time>2019-08-04T12:54:21.314Z</time>
      </trkpt>
      <trkpt lat="42.49992167" lon="1.52348833">
        <ele>1199.0</ele>
        <time>2019-08-04T12:54:22.318Z</time>
      </trkpt>
      <trkpt lat="42.49992167" lon="1.52348833">
        <ele>1199.0</ele>
        <time>2019-08-04T12:54:23.314Z</time>
      </trkpt>
      <trkpt lat="42.49996" lon="1.52353333">
        <ele>1200.0</ele>
        <time>2019-08-04T12:54:24.305Z</time>
      </trkpt>
      <trkpt lat="42.49998167" lon="1.52355667">
        <ele>1200.0</ele>
        <time>2019-08-04T12:54:25.314Z</time>
      </trkpt>
      <trkpt lat="42.49998167" lon="1.52355667">
        <ele>1200.0</ele>
        <time>2019-08-04T12:54:26.331Z</time>
      </trkpt>
      <trkpt lat="42.50002833" lon="1.52360667">
        <ele>1200.0</ele>
        <time>2019-08-04T12:54:27.315Z</time>
      </trkpt>
      <trkpt lat="42.50005" lon="1.52363">
        <ele>1200.0</ele>
        <time>2019-08-04T12:54:28.333Z</time>
      </trkpt>
      <trkpt lat="42.50005" lon="1.52363">
        <ele>1200.0</ele>
        <time>2019-08-04T12:54:29.309Z</time>
      </trkpt>
      <trkpt lat="42.500095" lon="1.52367667">
        <ele>1200.0</ele>
        <time>2019-08-04T12:54:30.296Z</time>
      </trkpt>
      <trkpt lat="42.50011667" lon="1.52369833">
        <ele>1201.0</ele>
        <time>2019-08-04T12:54:31.309Z</time>
      </trkpt>
      <trkpt lat="42.50011667" lon="1.52369833">
        <ele>1201.0</ele>
        <time>2019-08-04T12:54:32.328Z</time>
      </trkpt>
      <trkpt lat="42.50016167" lon="1.52374167">
        <ele>1201.0</ele>
        <time>2019-08-04T12:54:33.315Z</time>
      </trkpt>
      <trkpt lat="42.50016167" lon="1.52374167">
        <ele>1201.0</ele>
        <time>2019-08-04T12:54:34.341Z</time>
      </trkpt>
      <trkpt lat="42.500205" lon="1.52378167">
        <ele>1201.0</ele>
        <time>2019-08-04T12:54:35.332Z</time>
      </trkpt>
      <trkpt lat="42.50022667" lon="1.5238">
        <ele>1201.0</ele>
        <time>2019-08-04T12:54:36.317Z</time>
      </trkpt>
      <trkpt lat="42.50022667" lon="1.5238">
        <ele>1201.0</ele>
        <time>2019-08-04T12:54:37.328Z</time>
      </trkpt>
      <trkpt lat="42.50026833" lon="1.52384">
        <ele>1202.0</ele>
        <time>2019-08-04T12:54:38.317Z</time>
      </trkpt>
      <trkpt lat="42.50026833" lon="1.52384">
        <ele>1202.0</ele>
        <time>2019-08-04T12:54:39.333Z</time>
      </trkpt>
      <trkpt lat="42.50031333" lon="1.52387833">
        <ele>1202.0</ele>
        <time>2019-08-04T12:54:40.317Z</time>
      </trkpt>
      <trkpt lat="42.50031333" lon="1.52387833">
        <ele>1202.0</ele>
        <time>2019-08-04T12:54:41.333Z</time>
      </trkpt>
      <trkpt lat="42.50036" lon="1.52391667">
        <ele>1203.0</ele>
        <time>2019-08-04T12:54:42.317Z</time>
      </trkpt>
      <trkpt lat="42.50036" lon="1.52391667">
        <ele>1203.0</ele>
        <time>2019-08-04T12:54:43.313Z</time>
      </trkpt>
      <trkpt lat="42.50040833" lon="1.52396833">
        <ele>1203.0</ele>
        <time>2019-08-04T12:54:44.306Z</time>
      </trkpt>
      <trkpt lat="42.50042833" lon="1.52399333">
        <ele>1203.0</ele>
        <time>2019-08-04T12:54:45.316Z</time>
      </trkpt>
      <trkpt lat="42.50044833" lon="1.52402">
        <ele>1203.0</ele>
        <time>2019-08-04T12:54:46.332Z</time>
      </trkpt>
      <trkpt lat="42.50044833" lon="1.52402">
        <ele>1203.0</ele>
        <time>2019-08-04T12:54:47.314Z</time>
      </trkpt>
      <trkpt lat="42.50048667" lon="1.524075">
        <ele>1204.0</ele>
        <time>2019-08-04T12:54:48.297Z</time>
      </trkpt>
      <trkpt lat="42.50048667" lon="1.524075">
        <ele>1204.0</ele>
        <time>2019-08-04T12:54:49.314Z</time>
      </trkpt>
      <trkpt lat="42.50052667" lon="1.52413">
        <ele>1204.0</ele>
        <time>2019-08-04T12:54:50.316Z</time>
      </trkpt>
      <trkpt lat="42.50052667" lon="1.52413">
        <ele>1204.0</ele>
        <time>2019-08-04T12:54:51.332Z</time>
      </trkpt>
      <trkpt lat="42.500565" lon="1.52418167">
        <ele>1204.0</ele>
        <time>2019-08-04T12:54:52.317Z</time>
      </trkpt>
      <trkpt lat="42.500565" lon="1.52418167">
        <ele>1204.0</ele>
        <time>2019-08-04T12:54:53.300Z</time>
      </trkpt>
      <trkpt lat="42.50060667" lon="1.52423167">
        <ele>1205.0</ele>
        <time>2019-08-04T12:54:54.328Z</time>
      </trkpt>
      <trkpt lat="42.50060667" lon="1.52423167">
        <ele>1205.0</ele>
        <time>2019-08-04T12:54:55.311Z</time>
      </trkpt>
      <trkpt lat="42.50064833" lon="1.52428833">
        <ele>1206.0</ele>
        <time>2019-08-04T12:54:56.332Z</time>
      </trkpt>
      <trkpt lat="42.50064833" lon="1.52428833">
        <ele>1206.0</ele>
        <time>2019-08-04T12:54:57.313Z</time>
      </trkpt>
      <trkpt lat="42.50068167" lon="1.52435">
        <ele>1207.0</ele>
        <time>2019-08-04T12:54:58.334Z</time>
      </trkpt>
      <trkpt lat="42.50068167" lon="1.52435">
        <ele>1207.0</ele>
        <time>2019-08-04T12:54:59.314Z</time>
      </trkpt>
      <trkpt lat="42.50071333" lon="1.52440833">
        <ele>1207.0</ele>
        <time>2019-08-04T12:55:00.318Z</time>
      </trkpt>
      <trkpt lat="42.500725" lon="1.52443667">
        <ele>1207.0</ele>
        <time>2019-08-04T12:55:01.316Z</time>
      </trkpt>
      <trkpt lat="42.500725" lon="1.52443667">
        <ele>1207.0</ele>
        <time>2019-08-04T12:55:02.333Z</time>
      </trkpt>
      <trkpt lat="42.50075167" lon="1.52449167">
        <ele>1208.0</ele>
        <time>2019-08-04T12:55:03.316Z</time>
      </trkpt>
      <trkpt lat="42.50075167" lon="1.52449167">
        <ele>1208.0</ele>
        <time>2019-08-04T12:55:04.332Z</time>
      </trkpt>
      <trkpt lat="42.50078333" lon="1.52454833">
        <ele>1208.0</ele>
        <time>2019-08-04T12:55:05.317Z</time>
      </trkpt>
      <trkpt lat="42.50078333" lon="1.52454833">
        <ele>1208.0</ele>
        <time>2019-08-04T12:55:06.467Z</time>
      </trkpt>
      <trkpt lat="42.50079833" lon="1.52457667">
        <ele>1208.0</ele>
        <time>2019-08-04T12:55:07.318Z</time>
      </trkpt>
      <trkpt lat="42.50083" lon="1.52463667">
        <ele>1209.0</ele>
        <time>2019-08-04T12:55:08.316Z</time>
      </trkpt>
      <trkpt lat="42.50083" lon="1.52463667">
        <ele>1209.0</ele>
        <time>2019-08-04T12:55:09.332Z</time>
      </trkpt>
      <trkpt lat="42.50086167" lon="1.5247">
        <ele>1209.0</ele>
        <time>2019-08-04T12:55:10.318Z</time>
      </trkpt>
      <trkpt lat="42.50086167" lon="1.5247">
        <ele>1209.0</ele>
        <time>2019-08-04T12:55:11.311Z</time>
      </trkpt>
      <trkpt lat="42.50089167" lon="1.52476167">
        <ele>1210.0</ele>
        <time>2019-08-04T12:55:12.333Z</time>
      </trkpt>
      <trkpt lat="42.50089167" lon="1.52476167">
        <ele>1210.0</ele>
        <time>2019-08-04T12:55:13.314Z</time>
      </trkpt>
      <trkpt lat="42.50089167" lon="1.52476167">
        <ele>1210.0</ele>
        <time>2019-08-04T12:55:14.310Z</time>
      </trkpt>
      <trkpt lat="42.50091833" lon="1.52482">
        <ele>1210.0</ele>
        <time>2019-08-04T12:55:15.321Z</time>
      </trkpt>
      <trkpt lat="42.50095" lon="1.52488">
        <ele>1211.0</ele>
        <time>2019-08-04T12:55:16.320Z</time>
      </trkpt>
      <trkpt lat="42.50095" lon="1.52488">
        <ele>1211.0</ele>
        <time>2019-08-04T12:55:17.299Z</time>
      </trkpt>
      <trkpt lat="42.50098333" lon="1.52493667">
        <ele>1211.0</ele>
        <time>2019-08-04T12:55:18.321Z</time>
      </trkpt>
      <trkpt lat="42.50098333" lon="1.52493667">
        <ele>1211.0</ele>
        <time>2019-08-04T12:55:19.314Z</time>
      </trkpt>
      <trkpt lat="42.50101167" lon="1.524995">
        <ele>1212.0</ele>
        <time>2019-08-04T12:55:20.317Z</time>
      </trkpt>
      <trkpt lat="42.50101167" lon="1.524995">
        <ele>1212.0</ele>
        <time>2019-08-04T12:55:21.333Z</time>
      </trkpt>
      <trkpt lat="42.501045" lon="1.52505167">
        <ele>1213.0</ele>
        <time>2019-08-04T12:55:22.317Z</time>
      </trkpt>
      <trkpt lat="42.501045" lon="1.52505167">
        <ele>1213.0</ele>
        <time>2019-08-04T12:55:23.299Z</time>
      </trkpt>
      <trkpt lat="42.50107333" lon="1.52510667">
        <ele>1213.0</ele>
        <time>2019-08-04T12:55:24.322Z</time>
      </trkpt>
      <trkpt lat="42.50107333" lon="1.52510667">
        <ele>1213.0</ele>
        <time>2019-08-04T12:55:25.311Z</time>
      </trkpt>
      <trkpt lat="42.501105" lon="1.52516333">
        <ele>1214.0</ele>
        <time>2019-08-04T12:55:26.331Z</time>
      </trkpt>
      <trkpt lat="42.501105" lon="1.52516333">
        <ele>1214.0</ele>
        <time>2019-08-04T12:55:27.314Z</time>
      </trkpt>
      <trkpt lat="42.501135" lon="1.52522333">
        <ele>1215.0</ele>
        <time>2019-08-04T12:55:28.318Z</time>
      </trkpt>
      <trkpt lat="42.501135" lon="1.52522333">
        <ele>1215.0</ele>
        <time>2019-08-04T12:55:29.318Z</time>
      </trkpt>
      <trkpt lat="42.50116833" lon="1.52528">
        <ele>1215.0</ele>
        <time>2019-08-04T12:55:30.297Z</time>
      </trkpt>
      <trkpt lat="42.50118333" lon="1.52531">
        <ele>1215.0</ele>
        <time>2019-08-04T12:55:31.308Z</time>
      </trkpt>
      <trkpt lat="42.50118333" lon="1.52531">
        <ele>1215.0</ele>
        <time>2019-08-04T12:55:32.314Z</time>
      </trkpt>
      <trkpt lat="42.50121167" lon="1.52536833">
        <ele>1216.0</ele>
        <time>2019-08-04T12:55:33.316Z</time>
      </trkpt>
      <trkpt lat="42.50122833" lon="1.5254">
        <ele>1216.0</ele>
        <time>2019-08-04T12:55:34.334Z</time>
      </trkpt>
      <trkpt lat="42.50122833" lon="1.5254">
        <ele>1216.0</ele>
        <time>2019-08-04T12:55:35.328Z</time>
      </trkpt>
      <trkpt lat="42.501255" lon="1.525455">
        <ele>1216.0</ele>
        <time>2019-08-04T12:55:36.317Z</time>
      </trkpt>
      <trkpt lat="42.501255" lon="1.525455">
        <ele>1216.0</ele>
        <time>2019-08-04T12:55:37.314Z</time>
      </trkpt>
      <trkpt lat="42.501285" lon="1.52550833">
        <ele>1217.0</ele>
        <time>2019-08-04T12:55:38.317Z</time>
      </trkpt>
      <trkpt lat="42.501285" lon="1.52550833">
        <ele>1217.0</ele>
        <time>2019-08-04T12:55:39.314Z</time>
      </trkpt>
      <trkpt lat="42.501315" lon="1.52555833">
        <ele>1217.0</ele>
        <time>2019-08-04T12:55:40.334Z</time>
      </trkpt>
      <trkpt lat="42.501315" lon="1.52555833">
        <ele>1217.0</ele>
        <time>2019-08-04T12:55:41.314Z</time>
      </trkpt>
      <trkpt lat="42.50135" lon="1.52560667">
        <ele>1217.0</ele>
        <time>2019-08-04T12:55:42.317Z</time>
      </trkpt>
      <trkpt lat="42.50135" lon="1.52560667">
        <ele>1217.0</ele>
        <time>2019-08-04T12:55:43.333Z</time>
      </trkpt>
      <trkpt lat="42.50138" lon="1.52565667">
        <ele>1217.0</ele>
        <time>2019-08-04T12:55:44.329Z</time>
      </trkpt>
      <trkpt lat="42.50138" lon="1.52565667">
        <ele>1217.0</ele>
        <time>2019-08-04T12:55:45.314Z</time>
      </trkpt>
      <trkpt lat="42.501405" lon="1.52571167">
        <ele>1217.0</ele>
        <time>2019-08-04T12:55:46.318Z</time>
      </trkpt>
      <trkpt lat="42.501405" lon="1.52571167">
        <ele>1217.0</ele>
        <time>2019-08-04T12:55:47.300Z</time>
      </trkpt>
      <trkpt lat="42.501435" lon="1.52576333">
        <ele>1218.0</ele>
        <time>2019-08-04T12:55:48.326Z</time>
      </trkpt>
      <trkpt lat="42.501435" lon="1.52576333">
        <ele>1218.0</ele>
        <time>2019-08-04T12:55:49.313Z</time>
      </trkpt>
      <trkpt lat="42.50147" lon="1.52581833">
        <ele>1218.0</ele>
        <time>2019-08-04T12:55:50.317Z</time>
      </trkpt>
      <trkpt lat="42.50147" lon="1.52581833">
        <ele>1218.0</ele>
        <time>2019-08-04T12:55:51.333Z</time>
      </trkpt>
      <trkpt lat="42.50150167" lon="1.52587">
        <ele>1218.0</ele>
        <time>2019-08-04T12:55:52.317Z</time>
      </trkpt>
      <trkpt lat="42.50150167" lon="1.52587">
        <ele>1218.0</ele>
        <time>2019-08-04T12:55:53.314Z</time>
      </trkpt>
      <trkpt lat="42.501535" lon="1.52592333">
        <ele>1218.0</ele>
        <time>2019-08-04T12:55:54.326Z</time>
      </trkpt>
      <trkpt lat="42.50155333" lon="1.52595167">
        <ele>1218.0</ele>
        <time>2019-08-04T12:55:55.316Z</time>
      </trkpt>
      <trkpt lat="42.50155333" lon="1.52595167">
        <ele>1218.0</ele>
        <time>2019-08-04T12:55:56.331Z</time>
      </trkpt>
      <trkpt lat="42.50159" lon="1.52600167">
        <ele>1219.0</ele>
        <time>2019-08-04T12:55:57.329Z</time>
      </trkpt>
      <trkpt lat="42.50159" lon="1.52600167">
        <ele>1219.0</ele>
        <time>2019-08-04T12:55:58.307Z</time>
      </trkpt>
      <trkpt lat="42.50162667" lon="1.52604833">
        <ele>1219.0</ele>
        <time>2019-08-04T12:55:59.328Z</time>
      </trkpt>
      <trkpt lat="42.50162667" lon="1.52604833">
        <ele>1219.0</ele>
        <time>2019-08-04T12:56:00.312Z</time>
      </trkpt>
      <trkpt lat="42.50166333" lon="1.52609">
        <ele>1219.0</ele>
        <time>2019-08-04T12:56:01.333Z</time>
      </trkpt>
      <trkpt lat="42.50166333" lon="1.52609">
        <ele>1219.0</ele>
        <time>2019-08-04T12:56:02.314Z</time>
      </trkpt>
      <trkpt lat="42.50169833" lon="1.52613333">
        <ele>1220.0</ele>
        <time>2019-08-04T12:56:03.317Z</time>
      </trkpt>
      <trkpt lat="42.50169833" lon="1.52613333">
        <ele>1220.0</ele>
        <time>2019-08-04T12:56:04.296Z</time>
      </trkpt>
      <trkpt lat="42.501715" lon="1.526155">
        <ele>1220.0</ele>
        <time>2019-08-04T12:56:05.312Z</time>
      </trkpt>
      <trkpt lat="42.50175333" lon="1.5262">
        <ele>1221.0</ele>
        <time>2019-08-04T12:56:06.298Z</time>
      </trkpt>
      <trkpt lat="42.50175333" lon="1.5262">
        <ele>1221.0</ele>
        <time>2019-08-04T12:56:07.316Z</time>
      </trkpt>
      <trkpt lat="42.50179" lon="1.52624333">
        <ele>1221.0</ele>
        <time>2019-08-04T12:56:08.297Z</time>
      </trkpt>
      <trkpt lat="42.50179" lon="1.52624333">
        <ele>1221.0</ele>
        <time>2019-08-04T12:56:09.314Z</time>
      </trkpt>
      <trkpt lat="42.50182833" lon="1.52628667">
        <ele>1221.0</ele>
        <time>2019-08-04T12:56:10.334Z</time>
      </trkpt>
      <trkpt lat="42.50182833" lon="1.52628667">
        <ele>1221.0</ele>
        <time>2019-08-04T12:56:11.317Z</time>
      </trkpt>
      <trkpt lat="42.50186167" lon="1.52633">
        <ele>1221.0</ele>
        <time>2019-08-04T12:56:12.316Z</time>
      </trkpt>
      <trkpt lat="42.50187833" lon="1.52635167">
        <ele>1222.0</ele>
        <time>2019-08-04T12:56:13.331Z</time>
      </trkpt>
      <trkpt lat="42.50187833" lon="1.52635167">
        <ele>1222.0</ele>
        <time>2019-08-04T12:56:14.510Z</time>
      </trkpt>
      <trkpt lat="42.501895" lon="1.52637333">
        <ele>1222.0</ele>
        <time>2019-08-04T12:56:15.331Z</time>
      </trkpt>
      <trkpt lat="42.50193" lon="1.52640833">
        <ele>1223.0</ele>
        <time>2019-08-04T12:56:16.316Z</time>
      </trkpt>
      <trkpt lat="42.50193" lon="1.52640833">
        <ele>1223.0</ele>
        <time>2019-08-04T12:56:17.297Z</time>
      </trkpt>
      <trkpt lat="42.50196833" lon="1.52645">
        <ele>1224.0</ele>
        <time>2019-08-04T12:56:18.317Z</time>
      </trkpt>
      <trkpt lat="42.50196833" lon="1.52645">
        <ele>1224.0</ele>
        <time>2019-08-04T12:56:19.312Z</time>
      </trkpt>
      <trkpt lat="42.50200333" lon="1.52648833">
        <ele>1224.0</ele>
        <time>2019-08-04T12:56:20.333Z</time>
      </trkpt>
      <trkpt lat="42.50202167" lon="1.52651">
        <ele>1224.0</ele>
        <time>2019-08-04T12:56:21.317Z</time>
      </trkpt>
      <trkpt lat="42.50202167" lon="1.52651">
        <ele>1224.0</ele>
        <time>2019-08-04T12:56:22.333Z</time>
      </trkpt>
      <trkpt lat="42.502055" lon="1.52655667">
        <ele>1225.0</ele>
        <time>2019-08-04T12:56:23.318Z</time>
      </trkpt>
      <trkpt lat="42.502055" lon="1.52655667">
        <ele>1225.0</ele>
        <time>2019-08-04T12:56:24.309Z</time>
      </trkpt>
      <trkpt lat="42.50206333" lon="1.52660333">
        <ele>1226.0</ele>
        <time>2019-08-04T12:56:25.324Z</time>
      </trkpt>
      <trkpt lat="42.50205333" lon="1.52662333">
        <ele>1226.0</ele>
        <time>2019-08-04T12:56:26.317Z</time>
      </trkpt>
      <trkpt lat="42.50205333" lon="1.52662333">
        <ele>1226.0</ele>
        <time>2019-08-04T12:56:27.314Z</time>
      </trkpt>
      <trkpt lat="42.50201333" lon="1.52664333">
        <ele>1227.0</ele>
        <time>2019-08-04T12:56:28.316Z</time>
      </trkpt>
      <trkpt lat="42.50201333" lon="1.52664333">
        <ele>1227.0</ele>
        <time>2019-08-04T12:56:29.328Z</time>
      </trkpt>
      <trkpt lat="42.50197167" lon="1.52662333">
        <ele>1228.0</ele>
        <time>2019-08-04T12:56:30.308Z</time>
      </trkpt>
      <trkpt lat="42.50197167" lon="1.52662333">
        <ele>1228.0</ele>
        <time>2019-08-04T12:56:31.332Z</time>
      </trkpt>
      <trkpt lat="42.50194" lon="1.5266">
        <ele>1228.0</ele>
        <time>2019-08-04T12:56:32.317Z</time>
      </trkpt>
      <trkpt lat="42.50192333" lon="1.52658667">
        <ele>1229.0</ele>
        <time>2019-08-04T12:56:33.333Z</time>
      </trkpt>
      <trkpt lat="42.50190667" lon="1.526575">
        <ele>1229.0</ele>
        <time>2019-08-04T12:56:34.325Z</time>
      </trkpt>
      <trkpt lat="42.50190667" lon="1.526575">
        <ele>1229.0</ele>
        <time>2019-08-04T12:56:35.311Z</time>
      </trkpt>
      <trkpt lat="42.50186667" lon="1.52652833">
        <ele>1230.0</ele>
        <time>2019-08-04T12:56:36.329Z</time>
      </trkpt>
      <trkpt lat="42.50186667" lon="1.52652833">
        <ele>1230.0</ele>
        <time>2019-08-04T12:56:37.314Z</time>
      </trkpt>
      <trkpt lat="42.50182333" lon="1.52648167">
        <ele>1230.0</ele>
        <time>2019-08-04T12:56:38.297Z</time>
      </trkpt>
      <trkpt lat="42.501805" lon="1.52645833">
        <ele>1230.0</ele>
        <time>2019-08-04T12:56:39.317Z</time>
      </trkpt>
      <trkpt lat="42.50178667" lon="1.52643833">
        <ele>1230.0</ele>
        <time>2019-08-04T12:56:40.334Z</time>
      </trkpt>
      <trkpt lat="42.50178667" lon="1.52643833">
        <ele>1230.0</ele>
        <time>2019-08-04T12:56:41.314Z</time>
      </trkpt>
      <trkpt lat="42.50175" lon="1.52640167">
        <ele>1231.0</ele>
        <time>2019-08-04T12:56:42.296Z</time>
      </trkpt>
      <trkpt lat="42.50175" lon="1.52640167">
        <ele>1231.0</ele>
        <time>2019-08-04T12:56:43.315Z</time>
      </trkpt>
      <trkpt lat="42.50170833" lon="1.52637833">
        <ele>1231.0</ele>
        <time>2019-08-04T12:56:44.329Z</time>
      </trkpt>
      <trkpt lat="42.50170833" lon="1.52637833">
        <ele>1231.0</ele>
        <time>2019-08-04T12:56:45.307Z</time>
      </trkpt>
      <trkpt lat="42.50166833" lon="1.52635333">
        <ele>1232.0</ele>
        <time>2019-08-04T12:56:46.328Z</time>
      </trkpt>
      <trkpt lat="42.50166833" lon="1.52635333">
        <ele>1232.0</ele>
        <time>2019-08-04T12:56:47.315Z</time>
      </trkpt>
      <trkpt lat="42.50163167" lon="1.52634">
        <ele>1232.0</ele>
        <time>2019-08-04T12:56:48.317Z</time>
      </trkpt>
      <trkpt lat="42.50163167" lon="1.52634">
        <ele>1232.0</ele>
        <time>2019-08-04T12:56:49.333Z</time>
      </trkpt>
      <trkpt lat="42.501595" lon="1.52633667">
        <ele>1233.0</ele>
        <time>2019-08-04T12:56:50.317Z</time>
      </trkpt>
      <trkpt lat="42.501595" lon="1.52633667">
        <ele>1233.0</ele>
        <time>2019-08-04T12:56:51.333Z</time>
      </trkpt>
      <trkpt lat="42.50155167" lon="1.526335">
        <ele>1234.0</ele>
        <time>2019-08-04T12:56:52.319Z</time>
      </trkpt>
      <trkpt lat="42.50155167" lon="1.526335">
        <ele>1234.0</ele>
        <time>2019-08-04T12:56:53.312Z</time>
      </trkpt>
      <trkpt lat="42.50150167" lon="1.52632833">
        <ele>1234.0</ele>
        <time>2019-08-04T12:56:54.330Z</time>
      </trkpt>
      <trkpt lat="42.50150167" lon="1.52632833">
        <ele>1234.0</ele>
        <time>2019-08-04T12:56:55.322Z</time>
      </trkpt>
      <trkpt lat="42.50145" lon="1.52632167">
        <ele>1234.0</ele>
        <time>2019-08-04T12:56:56.317Z</time>
      </trkpt>
      <trkpt lat="42.50145" lon="1.52632167">
        <ele>1234.0</ele>
        <time>2019-08-04T12:56:57.332Z</time>
      </trkpt>
      <trkpt lat="42.50140167" lon="1.52631667">
        <ele>1235.0</ele>
        <time>2019-08-04T12:56:58.319Z</time>
      </trkpt>
      <trkpt lat="42.50140167" lon="1.52631667">
        <ele>1235.0</ele>
        <time>2019-08-04T12:56:59.314Z</time>
      </trkpt>
      <trkpt lat="42.50135667" lon="1.526305">
        <ele>1235.0</ele>
        <time>2019-08-04T12:57:00.315Z</time>
      </trkpt>
      <trkpt lat="42.50135667" lon="1.526305">
        <ele>1235.0</ele>
        <time>2019-08-04T12:57:01.331Z</time>
      </trkpt>
      <trkpt lat="42.50131167" lon="1.526285">
        <ele>1235.0</ele>
        <time>2019-08-04T12:57:02.314Z</time>
      </trkpt>
      <trkpt lat="42.50131167" lon="1.526285">
        <ele>1235.0</ele>
        <time>2019-08-04T12:57:03.330Z</time>
      </trkpt>
      <trkpt lat="42.50126833" lon="1.52626">
        <ele>1236.0</ele>
        <time>2019-08-04T12:57:04.329Z</time>
      </trkpt>
      <trkpt lat="42.50126833" lon="1.52626">
        <ele>1236.0</ele>
        <time>2019-08-04T12:57:05.315Z</time>
      </trkpt>
      <trkpt lat="42.50122833" lon="1.52623167">
        <ele>1236.0</ele>
        <time>2019-08-04T12:57:06.317Z</time>
      </trkpt>
      <trkpt lat="42.50122833" lon="1.52623167">
        <ele>1236.0</ele>
        <time>2019-08-04T12:57:07.334Z</time>
      </trkpt>
      <trkpt lat="42.50119167" lon="1.52619833">
        <ele>1237.0</ele>
        <time>2019-08-04T12:57:08.315Z</time>
      </trkpt>
      <trkpt lat="42.50119167" lon="1.52619833">
        <ele>1237.0</ele>
        <time>2019-08-04T12:57:09.331Z</time>
      </trkpt>
      <trkpt lat="42.501165" lon="1.52616333">
        <ele>1237.0</ele>
        <time>2019-08-04T12:57:10.315Z</time>
      </trkpt>
      <trkpt lat="42.501165" lon="1.52616333">
        <ele>1237.0</ele>
        <time>2019-08-04T12:57:11.296Z</time>
      </trkpt>
      <trkpt lat="42.501165" lon="1.52616333">
        <ele>1237.0</ele>
        <time>2019-08-04T12:57:12.476Z</time>
      </trkpt>
      <trkpt lat="42.50111167" lon="1.52611333">
        <ele>1237.0</ele>
        <time>2019-08-04T12:57:13.332Z</time>
      </trkpt>
      <trkpt lat="42.50111167" lon="1.52611333">
        <ele>1237.0</ele>
        <time>2019-08-04T12:57:14.315Z</time>
      </trkpt>
      <trkpt lat="42.501075" lon="1.52607833">
        <ele>1238.0</ele>
        <time>2019-08-04T12:57:15.330Z</time>
      </trkpt>
      <trkpt lat="42.501055" lon="1.52606667">
        <ele>1238.0</ele>
        <time>2019-08-04T12:57:16.319Z</time>
      </trkpt>
      <trkpt lat="42.501055" lon="1.52606667">
        <ele>1238.0</ele>
        <time>2019-08-04T12:57:17.297Z</time>
      </trkpt>
      <trkpt lat="42.50101333" lon="1.526045">
        <ele>1238.0</ele>
        <time>2019-08-04T12:57:18.318Z</time>
      </trkpt>
      <trkpt lat="42.50101333" lon="1.526045">
        <ele>1238.0</ele>
        <time>2019-08-04T12:57:19.315Z</time>
      </trkpt>
      <trkpt lat="42.50098667" lon="1.52601833">
        <ele>1239.0</ele>
        <time>2019-08-04T12:57:20.317Z</time>
      </trkpt>
      <trkpt lat="42.50098667" lon="1.52601833">
        <ele>1239.0</ele>
        <time>2019-08-04T12:57:21.333Z</time>
      </trkpt>
      <trkpt lat="42.50096167" lon="1.52598">
        <ele>1239.0</ele>
        <time>2019-08-04T12:57:22.319Z</time>
      </trkpt>
      <trkpt lat="42.50096167" lon="1.52598">
        <ele>1239.0</ele>
        <time>2019-08-04T12:57:23.314Z</time>
      </trkpt>
      <trkpt lat="42.50094" lon="1.525945">
        <ele>1239.0</ele>
        <time>2019-08-04T12:57:24.326Z</time>
      </trkpt>
      <trkpt lat="42.50094" lon="1.525945">
        <ele>1239.0</ele>
        <time>2019-08-04T12:57:25.314Z</time>
      </trkpt>
      <trkpt lat="42.50092" lon="1.52590667">
        <ele>1239.0</ele>
        <time>2019-08-04T12:57:26.297Z</time>
      </trkpt>
      <trkpt lat="42.50092" lon="1.52590667">
        <ele>1239.0</ele>
        <time>2019-08-04T12:57:27.315Z</time>
      </trkpt>
      <trkpt lat="42.50089167" lon="1.52587833">
        <ele>1240.0</ele>
        <time>2019-08-04T12:57:28.298Z</time>
      </trkpt>
      <trkpt lat="42.50089167" lon="1.52587833">
        <ele>1240.0</ele>
        <time>2019-08-04T12:57:29.305Z</time>
      </trkpt>
      <trkpt lat="42.50086833" lon="1.52587">
        <ele>1240.0</ele>
        <time>2019-08-04T12:57:30.319Z</time>
      </trkpt>
      <trkpt lat="42.50085833" lon="1.52586167">
        <ele>1240.0</ele>
        <time>2019-08-04T12:57:31.325Z</time>
      </trkpt>
      <trkpt lat="42.50085833" lon="1.52586167">
        <ele>1240.0</ele>
        <time>2019-08-04T12:57:32.330Z</time>
      </trkpt>
      <trkpt lat="42.50083833" lon="1.52584333">
        <ele>1240.0</ele>
        <time>2019-08-04T12:57:33.317Z</time>
      </trkpt>
      <trkpt lat="42.50083833" lon="1.52584333">
        <ele>1240.0</ele>
        <time>2019-08-04T12:57:34.300Z</time>
      </trkpt>
      <trkpt lat="42.50083167" lon="1.52583167">
        <ele>1240.0</ele>
        <time>2019-08-04T12:57:35.328Z</time>
      </trkpt>
      <trkpt lat="42.50082833" lon="1.52580833">
        <ele>1240.0</ele>
        <time>2019-08-04T12:57:36.320Z</time>
      </trkpt>
      <trkpt lat="42.50082833" lon="1.52580833">
        <ele>1240.0</ele>
        <time>2019-08-04T12:57:37.315Z</time>
      </trkpt>
      <trkpt lat="42.50081833" lon="1.52578167">
        <ele>1240.0</ele>
        <time>2019-08-04T12:57:38.314Z</time>
      </trkpt>
      <trkpt lat="42.50081167" lon="1.52576667">
        <ele>1240.0</ele>
        <time>2019-08-04T12:57:39.331Z</time>
      </trkpt>
      <trkpt lat="42.50081167" lon="1.52576667">
        <ele>1240.0</ele>
        <time>2019-08-04T12:57:40.317Z</time>
      </trkpt>
      <trkpt lat="42.50079167" lon="1.52575667">
        <ele>1240.0</ele>
        <time>2019-08-04T12:57:41.318Z</time>
      </trkpt>
      <trkpt lat="42.50079167" lon="1.52575667">
        <ele>1240.0</ele>
        <time>2019-08-04T12:57:42.333Z</time>
      </trkpt>
      <trkpt lat="42.50077167" lon="1.525745">
        <ele>1241.0</ele>
        <time>2019-08-04T12:57:43.318Z</time>
      </trkpt>
      <trkpt lat="42.50077167" lon="1.525745">
        <ele>1241.0</ele>
        <time>2019-08-04T12:57:44.314Z</time>
      </trkpt>
      <trkpt lat="42.50075" lon="1.525725">
        <ele>1241.0</ele>
        <time>2019-08-04T12:57:45.331Z</time>
      </trkpt>
      <trkpt lat="42.50074167" lon="1.52571167">
        <ele>1241.0</ele>
        <time>2019-08-04T12:57:46.319Z</time>
      </trkpt>
      <trkpt lat="42.50074167" lon="1.52571167">
        <ele>1241.0</ele>
        <time>2019-08-04T12:57:47.312Z</time>
      </trkpt>
      <trkpt lat="42.50073167" lon="1.52567333">
        <ele>1241.0</ele>
        <time>2019-08-04T12:57:48.317Z</time>
      </trkpt>
      <trkpt lat="42.50073167" lon="1.52567333">
        <ele>1241.0</ele>
        <time>2019-08-04T12:57:49.334Z</time>
      </trkpt>
      <trkpt lat="42.50071833" lon="1.52563833">
        <ele>1241.0</ele>
        <time>2019-08-04T12:57:50.317Z</time>
      </trkpt>
      <trkpt lat="42.50071833" lon="1.52563833">
        <ele>1241.0</ele>
        <time>2019-08-04T12:57:51.332Z</time>
      </trkpt>
      <trkpt lat="42.50069667" lon="1.52560667">
        <ele>1241.0</ele>
        <time>2019-08-04T12:57:52.319Z</time>
      </trkpt>
      <trkpt lat="42.50069667" lon="1.52560667">
        <ele>1241.0</ele>
        <time>2019-08-04T12:57:53.317Z</time>
      </trkpt>
      <trkpt lat="42.50067" lon="1.52557667">
        <ele>1241.0</ele>
        <time>2019-08-04T12:57:54.329Z</time>
      </trkpt>
      <trkpt lat="42.50067" lon="1.52557667">
        <ele>1241.0</ele>
        <time>2019-08-04T12:57:55.312Z</time>
      </trkpt>
      <trkpt lat="42.50064167" lon="1.52554667">
        <ele>1242.0</ele>
        <time>2019-08-04T12:57:56.334Z</time>
      </trkpt>
      <trkpt lat="42.50063" lon="1.52553333">
        <ele>1242.0</ele>
        <time>2019-08-04T12:57:57.317Z</time>
      </trkpt>
      <trkpt lat="42.50061833" lon="1.52552167">
        <ele>1242.0</ele>
        <time>2019-08-04T12:57:58.333Z</time>
      </trkpt>
      <trkpt lat="42.50061833" lon="1.52552167">
        <ele>1242.0</ele>
        <time>2019-08-04T12:57:59.315Z</time>
      </trkpt>
      <trkpt lat="42.50059667" lon="1.52549833">
        <ele>1242.0</ele>
        <time>2019-08-04T12:58:00.317Z</time>
      </trkpt>
      <trkpt lat="42.500585" lon="1.52548333">
        <ele>1242.0</ele>
        <time>2019-08-04T12:58:01.334Z</time>
      </trkpt>
      <trkpt lat="42.500585" lon="1.52548333">
        <ele>1242.0</ele>
        <time>2019-08-04T12:58:02.314Z</time>
      </trkpt>
      <trkpt lat="42.50055833" lon="1.52545333">
        <ele>1243.0</ele>
        <time>2019-08-04T12:58:03.317Z</time>
      </trkpt>
      <trkpt lat="42.50054833" lon="1.52543667">
        <ele>1243.0</ele>
        <time>2019-08-04T12:58:04.307Z</time>
      </trkpt>
      <trkpt lat="42.50054833" lon="1.52543667">
        <ele>1243.0</ele>
        <time>2019-08-04T12:58:05.300Z</time>
      </trkpt>
      <trkpt lat="42.500525" lon="1.52541167">
        <ele>1243.0</ele>
        <time>2019-08-04T12:58:06.325Z</time>
      </trkpt>
      <trkpt lat="42.50051333" lon="1.52539667">
        <ele>1243.0</ele>
        <time>2019-08-04T12:58:07.317Z</time>
      </trkpt>
      <trkpt lat="42.50051333" lon="1.52539667">
        <ele>1243.0</ele>
        <time>2019-08-04T12:58:08.314Z</time>
      </trkpt>
      <trkpt lat="42.50049167" lon="1.52536333">
        <ele>1243.0</ele>
        <time>2019-08-04T12:58:09.317Z</time>
      </trkpt>
      <trkpt lat="42.50049167" lon="1.52536333">
        <ele>1243.0</ele>
        <time>2019-08-04T12:58:10.468Z</time>
      </trkpt>
      <trkpt lat="42.50047833" lon="1.52534667">
        <ele>1243.0</ele>
        <time>2019-08-04T12:58:11.297Z</time>
      </trkpt>
      <trkpt lat="42.50044333" lon="1.52532">
        <ele>1243.0</ele>
        <time>2019-08-04T12:58:12.328Z</time>
      </trkpt>
      <trkpt lat="42.50044333" lon="1.52532">
        <ele>1243.0</ele>
        <time>2019-08-04T12:58:13.315Z</time>
      </trkpt>
      <trkpt lat="42.50040833" lon="1.52531333">
        <ele>1243.0</ele>
        <time>2019-08-04T12:58:14.329Z</time>
      </trkpt>
      <trkpt lat="42.50040833" lon="1.52531333">
        <ele>1243.0</ele>
        <time>2019-08-04T12:58:15.315Z</time>
      </trkpt>
      <trkpt lat="42.50037333" lon="1.52533167">
        <ele>1244.0</ele>
        <time>2019-08-04T12:58:16.335Z</time>
      </trkpt>
      <trkpt lat="42.50037333" lon="1.52533167">
        <ele>1244.0</ele>
        <time>2019-08-04T12:58:17.330Z</time>
      </trkpt>
      <trkpt lat="42.50035667" lon="1.52534667">
        <ele>1244.0</ele>
        <time>2019-08-04T12:58:18.322Z</time>
      </trkpt>
      <trkpt lat="42.50033333" lon="1.52539">
        <ele>1244.0</ele>
        <time>2019-08-04T12:58:19.328Z</time>
      </trkpt>
      <trkpt lat="42.50033333" lon="1.52539">
        <ele>1244.0</ele>
        <time>2019-08-04T12:58:20.335Z</time>
      </trkpt>
      <trkpt lat="42.50031833" lon="1.52544333">
        <ele>1245.0</ele>
        <time>2019-08-04T12:58:21.317Z</time>
      </trkpt>
      <trkpt lat="42.500315" lon="1.52547167">
        <ele>1245.0</ele>
        <time>2019-08-04T12:58:22.316Z</time>
      </trkpt>
      <trkpt lat="42.500315" lon="1.52547167">
        <ele>1245.0</ele>
        <time>2019-08-04T12:58:23.332Z</time>
      </trkpt>
      <trkpt lat="42.50031833" lon="1.52552833">
        <ele>1245.0</ele>
        <time>2019-08-04T12:58:24.330Z</time>
      </trkpt>
      <trkpt lat="42.50031833" lon="1.52552833">
        <ele>1245.0</ele>
        <time>2019-08-04T12:58:25.315Z</time>
      </trkpt>
      <trkpt lat="42.50032667" lon="1.52558">
        <ele>1245.0</ele>
        <time>2019-08-04T12:58:26.296Z</time>
      </trkpt>
      <trkpt lat="42.50032667" lon="1.52558">
        <ele>1245.0</ele>
        <time>2019-08-04T12:58:27.323Z</time>
      </trkpt>
      <trkpt lat="42.50034333" lon="1.52563167">
        <ele>1246.0</ele>
        <time>2019-08-04T12:58:28.316Z</time>
      </trkpt>
      <trkpt lat="42.50034333" lon="1.52563167">
        <ele>1246.0</ele>
        <time>2019-08-04T12:58:29.309Z</time>
      </trkpt>
      <trkpt lat="42.50036167" lon="1.525685">
        <ele>1246.0</ele>
        <time>2019-08-04T12:58:30.326Z</time>
      </trkpt>
      <trkpt lat="42.50036167" lon="1.525685">
        <ele>1246.0</ele>
        <time>2019-08-04T12:58:31.332Z</time>
      </trkpt>
      <trkpt lat="42.50038667" lon="1.52573333">
        <ele>1247.0</ele>
        <time>2019-08-04T12:58:32.297Z</time>
      </trkpt>
      <trkpt lat="42.5004" lon="1.52575667">
        <ele>1247.0</ele>
        <time>2019-08-04T12:58:33.317Z</time>
      </trkpt>
      <trkpt lat="42.5004" lon="1.52575667">
        <ele>1247.0</ele>
        <time>2019-08-04T12:58:34.296Z</time>
      </trkpt>
      <trkpt lat="42.500415" lon="1.52577833">
        <ele>1247.0</ele>
        <time>2019-08-04T12:58:35.328Z</time>
      </trkpt>
      <trkpt lat="42.50044667" lon="1.52581667">
        <ele>1248.0</ele>
        <time>2019-08-04T12:58:36.311Z</time>
      </trkpt>
      <trkpt lat="42.50046333" lon="1.52583333">
        <ele>1248.0</ele>
        <time>2019-08-04T12:58:37.334Z</time>
      </trkpt>
      <trkpt lat="42.50046333" lon="1.52583333">
        <ele>1248.0</ele>
        <time>2019-08-04T12:58:38.316Z</time>
      </trkpt>
      <trkpt lat="42.5005" lon="1.52586667">
        <ele>1249.0</ele>
        <time>2019-08-04T12:58:39.315Z</time>
      </trkpt>
      <trkpt lat="42.50051833" lon="1.52588333">
        <ele>1249.0</ele>
        <time>2019-08-04T12:58:40.331Z</time>
      </trkpt>
      <trkpt lat="42.50051833" lon="1.52588333">
        <ele>1249.0</ele>
        <time>2019-08-04T12:58:41.315Z</time>
      </trkpt>
      <trkpt lat="42.500555" lon="1.52591333">
        <ele>1249.0</ele>
        <time>2019-08-04T12:58:42.331Z</time>
      </trkpt>
      <trkpt lat="42.500555" lon="1.52591333">
        <ele>1249.0</ele>
        <time>2019-08-04T12:58:43.315Z</time>
      </trkpt>
      <trkpt lat="42.50059333" lon="1.52594167">
        <ele>1250.0</ele>
        <time>2019-08-04T12:58:44.329Z</time>
      </trkpt>
      <trkpt lat="42.50059333" lon="1.52594167">
        <ele>1250.0</ele>
        <time>2019-08-04T12:58:45.314Z</time>
      </trkpt>
      <trkpt lat="42.50063" lon="1.52597167">
        <ele>1250.0</ele>
        <time>2019-08-04T12:58:46.335Z</time>
      </trkpt>
      <trkpt lat="42.50064667" lon="1.525985">
        <ele>1250.0</ele>
        <time>2019-08-04T12:58:47.317Z</time>
      </trkpt>
      <trkpt lat="42.50066667" lon="1.52600333">
        <ele>1250.0</ele>
        <time>2019-08-04T12:58:48.334Z</time>
      </trkpt>
      <trkpt lat="42.50066667" lon="1.52600333">
        <ele>1250.0</ele>
        <time>2019-08-04T12:58:49.313Z</time>
      </trkpt>
      <trkpt lat="42.50070167" lon="1.52604333">
        <ele>1251.0</ele>
        <time>2019-08-04T12:58:50.334Z</time>
      </trkpt>
      <trkpt lat="42.50070167" lon="1.52604333">
        <ele>1251.0</ele>
        <time>2019-08-04T12:58:51.315Z</time>
      </trkpt>
      <trkpt lat="42.50073333" lon="1.52609333">
        <ele>1252.0</ele>
        <time>2019-08-04T12:58:52.299Z</time>
      </trkpt>
      <trkpt lat="42.50074833" lon="1.52611833">
        <ele>1252.0</ele>
        <time>2019-08-04T12:58:53.318Z</time>
      </trkpt>
      <trkpt lat="42.50074833" lon="1.52611833">
        <ele>1252.0</ele>
        <time>2019-08-04T12:58:54.334Z</time>
      </trkpt>
      <trkpt lat="42.50077667" lon="1.52616833">
        <ele>1253.0</ele>
        <time>2019-08-04T12:58:55.317Z</time>
      </trkpt>
      <trkpt lat="42.50077667" lon="1.52616833">
        <ele>1253.0</ele>
        <time>2019-08-04T12:58:56.332Z</time>
      </trkpt>
      <trkpt lat="42.5008" lon="1.52622">
        <ele>1253.0</ele>
        <time>2019-08-04T12:58:57.325Z</time>
      </trkpt>
      <trkpt lat="42.50081333" lon="1.52624833">
        <ele>1253.0</ele>
        <time>2019-08-04T12:58:58.319Z</time>
      </trkpt>
      <trkpt lat="42.50081333" lon="1.52624833">
        <ele>1253.0</ele>
        <time>2019-08-04T12:58:59.315Z</time>
      </trkpt>
      <trkpt lat="42.50083833" lon="1.526305">
        <ele>1253.0</ele>
        <time>2019-08-04T12:59:00.318Z</time>
      </trkpt>
      <trkpt lat="42.50083833" lon="1.526305">
        <ele>1253.0</ele>
        <time>2019-08-04T12:59:01.333Z</time>
      </trkpt>
      <trkpt lat="42.50086" lon="1.52636333">
        <ele>1254.0</ele>
        <time>2019-08-04T12:59:02.317Z</time>
      </trkpt>
      <trkpt lat="42.50087" lon="1.52639167">
        <ele>1254.0</ele>
        <time>2019-08-04T12:59:03.318Z</time>
      </trkpt>
      <trkpt lat="42.50087" lon="1.52639167">
        <ele>1254.0</ele>
        <time>2019-08-04T12:59:04.334Z</time>
      </trkpt>
      <trkpt lat="42.50089167" lon="1.52644667">
        <ele>1254.0</ele>
        <time>2019-08-04T12:59:05.318Z</time>
      </trkpt>
      <trkpt lat="42.50089167" lon="1.52644667">
        <ele>1254.0</ele>
        <time>2019-08-04T12:59:06.505Z</time>
      </trkpt>
      <trkpt lat="42.50090333" lon="1.52647333">
        <ele>1254.0</ele>
        <time>2019-08-04T12:59:07.315Z</time>
      </trkpt>
      <trkpt lat="42.500925" lon="1.52652667">
        <ele>1255.0</ele>
        <time>2019-08-04T12:59:08.315Z</time>
      </trkpt>
      <trkpt lat="42.500925" lon="1.52652667">
        <ele>1255.0</ele>
        <time>2019-08-04T12:59:09.332Z</time>
      </trkpt>
      <trkpt lat="42.50094167" lon="1.526575">
        <ele>1256.0</ele>
        <time>2019-08-04T12:59:10.316Z</time>
      </trkpt>
      <trkpt lat="42.50094167" lon="1.526575">
        <ele>1256.0</ele>
        <time>2019-08-04T12:59:11.334Z</time>
      </trkpt>
      <trkpt lat="42.50095167" lon="1.52661333">
        <ele>1257.0</ele>
        <time>2019-08-04T12:59:12.319Z</time>
      </trkpt>
      <trkpt lat="42.50095167" lon="1.52661333">
        <ele>1257.0</ele>
        <time>2019-08-04T12:59:13.334Z</time>
      </trkpt>
      <trkpt lat="42.50096333" lon="1.52665833">
        <ele>1258.0</ele>
        <time>2019-08-04T12:59:14.328Z</time>
      </trkpt>
      <trkpt lat="42.50096333" lon="1.52665833">
        <ele>1258.0</ele>
        <time>2019-08-04T12:59:15.315Z</time>
      </trkpt>
      <trkpt lat="42.50098333" lon="1.52670833">
        <ele>1258.0</ele>
        <time>2019-08-04T12:59:16.320Z</time>
      </trkpt>
      <trkpt lat="42.50098333" lon="1.52670833">
        <ele>1258.0</ele>
        <time>2019-08-04T12:59:17.302Z</time>
      </trkpt>
      <trkpt lat="42.50100167" lon="1.52676">
        <ele>1259.0</ele>
        <time>2019-08-04T12:59:18.322Z</time>
      </trkpt>
      <trkpt lat="42.50101333" lon="1.52679">
        <ele>1259.0</ele>
        <time>2019-08-04T12:59:19.318Z</time>
      </trkpt>
      <trkpt lat="42.50101333" lon="1.52679">
        <ele>1259.0</ele>
        <time>2019-08-04T12:59:20.334Z</time>
      </trkpt>
      <trkpt lat="42.50103333" lon="1.52684833">
        <ele>1259.0</ele>
        <time>2019-08-04T12:59:21.319Z</time>
      </trkpt>
      <trkpt lat="42.50103333" lon="1.52684833">
        <ele>1259.0</ele>
        <time>2019-08-04T12:59:22.325Z</time>
      </trkpt>
      <trkpt lat="42.50105667" lon="1.52690667">
        <ele>1259.0</ele>
        <time>2019-08-04T12:59:23.317Z</time>
      </trkpt>
      <trkpt lat="42.50106667" lon="1.52693333">
        <ele>1260.0</ele>
        <time>2019-08-04T12:59:24.334Z</time>
      </trkpt>
      <trkpt lat="42.50106667" lon="1.52693333">
        <ele>1260.0</ele>
        <time>2019-08-04T12:59:25.313Z</time>
      </trkpt>
      <trkpt lat="42.50109167" lon="1.52698833">
        <ele>1260.0</ele>
        <time>2019-08-04T12:59:26.334Z</time>
      </trkpt>
      <trkpt lat="42.50109167" lon="1.52698833">
        <ele>1260.0</ele>
        <time>2019-08-04T12:59:27.315Z</time>
      </trkpt>
      <trkpt lat="42.50111833" lon="1.52704333">
        <ele>1260.0</ele>
        <time>2019-08-04T12:59:28.319Z</time>
      </trkpt>
      <trkpt lat="42.50111833" lon="1.52704333">
        <ele>1260.0</ele>
        <time>2019-08-04T12:59:29.307Z</time>
      </trkpt>
      <trkpt lat="42.50114833" lon="1.52709">
        <ele>1261.0</ele>
        <time>2019-08-04T12:59:30.307Z</time>
      </trkpt>
      <trkpt lat="42.50114833" lon="1.52709">
        <ele>1261.0</ele>
        <time>2019-08-04T12:59:31.313Z</time>
      </trkpt>
      <trkpt lat="42.50117333" lon="1.52713667">
        <ele>1261.0</ele>
        <time>2019-08-04T12:59:32.332Z</time>
      </trkpt>
      <trkpt lat="42.501185" lon="1.52716167">
        <ele>1262.0</ele>
        <time>2019-08-04T12:59:33.318Z</time>
      </trkpt>
      <trkpt lat="42.50119667" lon="1.52718667">
        <ele>1262.0</ele>
        <time>2019-08-04T12:59:34.330Z</time>
      </trkpt>
      <trkpt lat="42.50119667" lon="1.52718667">
        <ele>1262.0</ele>
        <time>2019-08-04T12:59:35.328Z</time>
      </trkpt>
      <trkpt lat="42.50122" lon="1.52723167">
        <ele>1263.0</ele>
        <time>2019-08-04T12:59:36.319Z</time>
      </trkpt>
      <trkpt lat="42.50122" lon="1.52723167">
        <ele>1263.0</ele>
        <time>2019-08-04T12:59:37.315Z</time>
      </trkpt>
      <trkpt lat="42.50124667" lon="1.527275">
        <ele>1263.0</ele>
        <time>2019-08-04T12:59:38.318Z</time>
      </trkpt>
      <trkpt lat="42.50124667" lon="1.527275">
        <ele>1263.0</ele>
        <time>2019-08-04T12:59:39.334Z</time>
      </trkpt>
      <trkpt lat="42.50127333" lon="1.52732">
        <ele>1264.0</ele>
        <time>2019-08-04T12:59:40.320Z</time>
      </trkpt>
      <trkpt lat="42.50127333" lon="1.52732">
        <ele>1264.0</ele>
        <time>2019-08-04T12:59:41.315Z</time>
      </trkpt>
      <trkpt lat="42.5013" lon="1.527365">
        <ele>1264.0</ele>
        <time>2019-08-04T12:59:42.319Z</time>
      </trkpt>
      <trkpt lat="42.5013" lon="1.527365">
        <ele>1264.0</ele>
        <time>2019-08-04T12:59:43.316Z</time>
      </trkpt>
      <trkpt lat="42.50133333" lon="1.52741">
        <ele>1264.0</ele>
        <time>2019-08-04T12:59:44.324Z</time>
      </trkpt>
      <trkpt lat="42.50133333" lon="1.52741">
        <ele>1264.0</ele>
        <time>2019-08-04T12:59:45.313Z</time>
      </trkpt>
      <trkpt lat="42.501365" lon="1.52745667">
        <ele>1265.0</ele>
        <time>2019-08-04T12:59:46.334Z</time>
      </trkpt>
      <trkpt lat="42.501365" lon="1.52745667">
        <ele>1265.0</ele>
        <time>2019-08-04T12:59:47.315Z</time>
      </trkpt>
      <trkpt lat="42.50139833" lon="1.52749667">
        <ele>1265.0</ele>
        <time>2019-08-04T12:59:48.318Z</time>
      </trkpt>
      <trkpt lat="42.50139833" lon="1.52749667">
        <ele>1265.0</ele>
        <time>2019-08-04T12:59:49.334Z</time>
      </trkpt>
      <trkpt lat="42.501435" lon="1.52753333">
        <ele>1265.0</ele>
        <time>2019-08-04T12:59:50.318Z</time>
      </trkpt>
      <trkpt lat="42.501435" lon="1.52753333">
        <ele>1265.0</ele>
        <time>2019-08-04T12:59:51.333Z</time>
      </trkpt>
      <trkpt lat="42.50146833" lon="1.52756333">
        <ele>1266.0</ele>
        <time>2019-08-04T12:59:52.316Z</time>
      </trkpt>
      <trkpt lat="42.50146833" lon="1.52756333">
        <ele>1266.0</ele>
        <time>2019-08-04T12:59:53.298Z</time>
      </trkpt>
      <trkpt lat="42.50151167" lon="1.527585">
        <ele>1266.0</ele>
        <time>2019-08-04T12:59:54.329Z</time>
      </trkpt>
      <trkpt lat="42.501535" lon="1.52759333">
        <ele>1266.0</ele>
        <time>2019-08-04T12:59:55.318Z</time>
      </trkpt>
      <trkpt lat="42.501535" lon="1.52759333">
        <ele>1266.0</ele>
        <time>2019-08-04T12:59:56.315Z</time>
      </trkpt>
      <trkpt lat="42.50157833" lon="1.52761167">
        <ele>1267.0</ele>
        <time>2019-08-04T12:59:57.318Z</time>
      </trkpt>
      <trkpt lat="42.5016" lon="1.52762">
        <ele>1267.0</ele>
        <time>2019-08-04T12:59:58.319Z</time>
      </trkpt>
      <trkpt lat="42.5016" lon="1.52762">
        <ele>1267.0</ele>
        <time>2019-08-04T12:59:59.307Z</time>
      </trkpt>
      <trkpt lat="42.50164167" lon="1.52764">
        <ele>1267.0</ele>
        <time>2019-08-04T13:00:00.330Z</time>
      </trkpt>
      <trkpt lat="42.50164167" lon="1.52764">
        <ele>1267.0</ele>
        <time>2019-08-04T13:00:01.315Z</time>
      </trkpt>
      <trkpt lat="42.501685" lon="1.527655">
        <ele>1267.0</ele>
        <time>2019-08-04T13:00:02.319Z</time>
      </trkpt>
      <trkpt lat="42.501685" lon="1.527655">
        <ele>1267.0</ele>
        <time>2019-08-04T13:00:03.334Z</time>
      </trkpt>
      <trkpt lat="42.50172833" lon="1.52767333">
        <ele>1268.0</ele>
        <time>2019-08-04T13:00:04.329Z</time>
      </trkpt>
      <trkpt lat="42.50172833" lon="1.52767333">
        <ele>1268.0</ele>
        <time>2019-08-04T13:00:05.315Z</time>
      </trkpt>
      <trkpt lat="42.50177" lon="1.52769833">
        <ele>1268.0</ele>
        <time>2019-08-04T13:00:06.334Z</time>
      </trkpt>
      <trkpt lat="42.50177" lon="1.52769833">
        <ele>1268.0</ele>
        <time>2019-08-04T13:00:07.315Z</time>
      </trkpt>
      <trkpt lat="42.50180667" lon="1.52773667">
        <ele>1268.0</ele>
        <time>2019-08-04T13:00:08.315Z</time>
      </trkpt>
      <trkpt lat="42.50180667" lon="1.52773667">
        <ele>1268.0</ele>
        <time>2019-08-04T13:00:09.332Z</time>
      </trkpt>
      <trkpt lat="42.50184333" lon="1.52777333">
        <ele>1269.0</ele>
        <time>2019-08-04T13:00:10.319Z</time>
      </trkpt>
      <trkpt lat="42.50184333" lon="1.52777333">
        <ele>1269.0</ele>
        <time>2019-08-04T13:00:11.300Z</time>
      </trkpt>
      <trkpt lat="42.50184333" lon="1.52777333">
        <ele>1269.0</ele>
        <time>2019-08-04T13:00:12.475Z</time>
      </trkpt>
      <trkpt lat="42.50188" lon="1.52781167">
        <ele>1269.0</ele>
        <time>2019-08-04T13:00:13.331Z</time>
      </trkpt>
      <trkpt lat="42.50191833" lon="1.52785167">
        <ele>1269.0</ele>
        <time>2019-08-04T13:00:14.316Z</time>
      </trkpt>
      <trkpt lat="42.50191833" lon="1.52785167">
        <ele>1269.0</ele>
        <time>2019-08-04T13:00:15.332Z</time>
      </trkpt>
      <trkpt lat="42.50195667" lon="1.52789667">
        <ele>1269.0</ele>
        <time>2019-08-04T13:00:16.319Z</time>
      </trkpt>
      <trkpt lat="42.50195667" lon="1.52789667">
        <ele>1269.0</ele>
        <time>2019-08-04T13:00:17.317Z</time>
      </trkpt>
      <trkpt lat="42.50199667" lon="1.52793833">
        <ele>1269.0</ele>
        <time>2019-08-04T13:00:18.309Z</time>
      </trkpt>
      <trkpt lat="42.50199667" lon="1.52793833">
        <ele>1269.0</ele>
        <time>2019-08-04T13:00:19.315Z</time>
      </trkpt>
      <trkpt lat="42.50203333" lon="1.527985">
        <ele>1269.0</ele>
        <time>2019-08-04T13:00:20.321Z</time>
      </trkpt>
      <trkpt lat="42.50203333" lon="1.527985">
        <ele>1269.0</ele>
        <time>2019-08-04T13:00:21.327Z</time>
      </trkpt>
      <trkpt lat="42.502065" lon="1.52803833">
        <ele>1269.0</ele>
        <time>2019-08-04T13:00:22.296Z</time>
      </trkpt>
      <trkpt lat="42.50207667" lon="1.52807167">
        <ele>1269.0</ele>
        <time>2019-08-04T13:00:23.333Z</time>
      </trkpt>
      <trkpt lat="42.50207667" lon="1.52807167">
        <ele>1269.0</ele>
        <time>2019-08-04T13:00:24.313Z</time>
      </trkpt>
      <trkpt lat="42.50208833" lon="1.528135">
        <ele>1268.0</ele>
        <time>2019-08-04T13:00:25.329Z</time>
      </trkpt>
      <trkpt lat="42.50208833" lon="1.528135">
        <ele>1268.0</ele>
        <time>2019-08-04T13:00:26.315Z</time>
      </trkpt>
      <trkpt lat="42.50208833" lon="1.528135">
        <ele>1268.0</ele>
        <time>2019-08-04T13:00:27.304Z</time>
      </trkpt>
      <trkpt lat="42.50205667" lon="1.52820667">
        <ele>1270.0</ele>
        <time>2019-08-04T13:00:28.325Z</time>
      </trkpt>
      <trkpt lat="42.50205667" lon="1.52820667">
        <ele>1270.0</ele>
        <time>2019-08-04T13:00:29.310Z</time>
      </trkpt>
      <trkpt lat="42.50201333" lon="1.528225">
        <ele>1270.0</ele>
        <time>2019-08-04T13:00:30.332Z</time>
      </trkpt>
      <trkpt lat="42.50199167" lon="1.52822667">
        <ele>1270.0</ele>
        <time>2019-08-04T13:00:31.304Z</time>
      </trkpt>
      <trkpt lat="42.50199167" lon="1.52822667">
        <ele>1270.0</ele>
        <time>2019-08-04T13:00:32.315Z</time>
      </trkpt>
      <trkpt lat="42.50195167" lon="1.52819833">
        <ele>1270.0</ele>
        <time>2019-08-04T13:00:33.299Z</time>
      </trkpt>
      <trkpt lat="42.501935" lon="1.528175">
        <ele>1270.0</ele>
        <time>2019-08-04T13:00:34.331Z</time>
      </trkpt>
      <trkpt lat="42.501935" lon="1.528175">
        <ele>1270.0</ele>
        <time>2019-08-04T13:00:35.328Z</time>
      </trkpt>
      <trkpt lat="42.50190667" lon="1.52812">
        <ele>1269.0</ele>
        <time>2019-08-04T13:00:36.319Z</time>
      </trkpt>
      <trkpt lat="42.50189167" lon="1.528095">
        <ele>1269.0</ele>
        <time>2019-08-04T13:00:37.316Z</time>
      </trkpt>
      <trkpt lat="42.50189167" lon="1.528095">
        <ele>1269.0</ele>
        <time>2019-08-04T13:00:38.314Z</time>
      </trkpt>
      <trkpt lat="42.50189167" lon="1.528095">
        <ele>1269.0</ele>
        <time>2019-08-04T13:00:39.468Z</time>
      </trkpt>
      <trkpt lat="42.501845" lon="1.52801667">
        <ele>1270.0</ele>
        <time>2019-08-04T13:00:40.332Z</time>
      </trkpt>
      <trkpt lat="42.501845" lon="1.52801667">
        <ele>1270.0</ele>
        <time>2019-08-04T13:00:41.315Z</time>
      </trkpt>
      <trkpt lat="42.501815" lon="1.52797333">
        <ele>1270.0</ele>
        <time>2019-08-04T13:00:42.297Z</time>
      </trkpt>
      <trkpt lat="42.50179667" lon="1.52795">
        <ele>1270.0</ele>
        <time>2019-08-04T13:00:43.320Z</time>
      </trkpt>
      <trkpt lat="42.50179667" lon="1.52795">
        <ele>1270.0</ele>
        <time>2019-08-04T13:00:44.320Z</time>
      </trkpt>
      <trkpt lat="42.50175833" lon="1.52792167">
        <ele>1270.0</ele>
        <time>2019-08-04T13:00:45.328Z</time>
      </trkpt>
      <trkpt lat="42.50173667" lon="1.52791667">
        <ele>1270.0</ele>
        <time>2019-08-04T13:00:46.322Z</time>
      </trkpt>
      <trkpt lat="42.50173667" lon="1.52791667">
        <ele>1270.0</ele>
        <time>2019-08-04T13:00:47.300Z</time>
      </trkpt>
      <trkpt lat="42.50169167" lon="1.52792167">
        <ele>1271.0</ele>
        <time>2019-08-04T13:00:48.320Z</time>
      </trkpt>
      <trkpt lat="42.50169167" lon="1.52792167">
        <ele>1271.0</ele>
        <time>2019-08-04T13:00:49.316Z</time>
      </trkpt>
      <trkpt lat="42.50164833" lon="1.52793667">
        <ele>1271.0</ele>
        <time>2019-08-04T13:00:50.318Z</time>
      </trkpt>
      <trkpt lat="42.501625" lon="1.52794333">
        <ele>1271.0</ele>
        <time>2019-08-04T13:00:51.333Z</time>
      </trkpt>
      <trkpt lat="42.50160167" lon="1.52795">
        <ele>1271.0</ele>
        <time>2019-08-04T13:00:52.331Z</time>
      </trkpt>
      <trkpt lat="42.50160167" lon="1.52795">
        <ele>1271.0</ele>
        <time>2019-08-04T13:00:53.316Z</time>
      </trkpt>
      <trkpt lat="42.501555" lon="1.527965">
        <ele>1272.0</ele>
        <time>2019-08-04T13:00:54.323Z</time>
      </trkpt>
      <trkpt lat="42.501555" lon="1.527965">
        <ele>1272.0</ele>
        <time>2019-08-04T13:00:55.314Z</time>
      </trkpt>
      <trkpt lat="42.50150833" lon="1.52798167">
        <ele>1272.0</ele>
        <time>2019-08-04T13:00:56.334Z</time>
      </trkpt>
      <trkpt lat="42.50150833" lon="1.52798167">
        <ele>1272.0</ele>
        <time>2019-08-04T13:00:57.315Z</time>
      </trkpt>
      <trkpt lat="42.50146" lon="1.52799833">
        <ele>1272.0</ele>
        <time>2019-08-04T13:00:58.335Z</time>
      </trkpt>
      <trkpt lat="42.50146" lon="1.52799833">
        <ele>1272.0</ele>
        <time>2019-08-04T13:00:59.315Z</time>
      </trkpt>
      <trkpt lat="42.501415" lon="1.52801833">
        <ele>1273.0</ele>
        <time>2019-08-04T13:01:00.318Z</time>
      </trkpt>
      <trkpt lat="42.501415" lon="1.52801833">
        <ele>1273.0</ele>
        <time>2019-08-04T13:01:01.315Z</time>
      </trkpt>
      <trkpt lat="42.50137" lon="1.52803667">
        <ele>1273.0</ele>
        <time>2019-08-04T13:01:02.315Z</time>
      </trkpt>
      <trkpt lat="42.50137" lon="1.52803667">
        <ele>1273.0</ele>
        <time>2019-08-04T13:01:03.331Z</time>
      </trkpt>
      <trkpt lat="42.50132333" lon="1.52805167">
        <ele>1273.0</ele>
        <time>2019-08-04T13:01:04.330Z</time>
      </trkpt>
      <trkpt lat="42.50132333" lon="1.52805167">
        <ele>1273.0</ele>
        <time>2019-08-04T13:01:05.315Z</time>
      </trkpt>
      <trkpt lat="42.50127667" lon="1.52806667">
        <ele>1274.0</ele>
        <time>2019-08-04T13:01:06.316Z</time>
      </trkpt>
      <trkpt lat="42.50127667" lon="1.52806667">
        <ele>1274.0</ele>
        <time>2019-08-04T13:01:07.333Z</time>
      </trkpt>
      <trkpt lat="42.50123333" lon="1.52807">
        <ele>1274.0</ele>
        <time>2019-08-04T13:01:08.320Z</time>
      </trkpt>
      <trkpt lat="42.50123333" lon="1.52807">
        <ele>1274.0</ele>
        <time>2019-08-04T13:01:09.307Z</time>
      </trkpt>
      <trkpt lat="42.50119667" lon="1.52806167">
        <ele>1274.0</ele>
        <time>2019-08-04T13:01:10.329Z</time>
      </trkpt>
      <trkpt lat="42.50119667" lon="1.52806167">
        <ele>1274.0</ele>
        <time>2019-08-04T13:01:11.314Z</time>
      </trkpt>
      <trkpt lat="42.50117667" lon="1.52808833">
        <ele>1275.0</ele>
        <time>2019-08-04T13:01:12.335Z</time>
      </trkpt>
      <trkpt lat="42.50118833" lon="1.528105">
        <ele>1275.0</ele>
        <time>2019-08-04T13:01:13.320Z</time>
      </trkpt>
      <trkpt lat="42.50121" lon="1.52810333">
        <ele>1275.0</ele>
        <time>2019-08-04T13:01:14.330Z</time>
      </trkpt>
      <trkpt lat="42.50121" lon="1.52810333">
        <ele>1275.0</ele>
        <time>2019-08-04T13:01:15.315Z</time>
      </trkpt>
      <trkpt lat="42.50126667" lon="1.52808667">
        <ele>1275.0</ele>
        <time>2019-08-04T13:01:16.298Z</time>
      </trkpt>
      <trkpt lat="42.50126667" lon="1.52808667">
        <ele>1275.0</ele>
        <time>2019-08-04T13:01:17.321Z</time>
      </trkpt>
      <trkpt lat="42.501325" lon="1.528065">
        <ele>1274.0</ele>
        <time>2019-08-04T13:01:18.318Z</time>
      </trkpt>
      <trkpt lat="42.501325" lon="1.528065">
        <ele>1274.0</ele>
        <time>2019-08-04T13:01:19.333Z</time>
      </trkpt>
      <trkpt lat="42.50138333" lon="1.52804333">
        <ele>1274.0</ele>
        <time>2019-08-04T13:01:20.319Z</time>
      </trkpt>
      <trkpt lat="42.50138333" lon="1.52804333">
        <ele>1274.0</ele>
        <time>2019-08-04T13:01:21.335Z</time>
      </trkpt>
      <trkpt lat="42.50143667" lon="1.52802333">
        <ele>1273.0</ele>
        <time>2019-08-04T13:01:22.320Z</time>
      </trkpt>
      <trkpt lat="42.50143667" lon="1.52802333">
        <ele>1273.0</ele>
        <time>2019-08-04T13:01:23.307Z</time>
      </trkpt>
      <trkpt lat="42.50149667" lon="1.528">
        <ele>1272.0</ele>
        <time>2019-08-04T13:01:24.329Z</time>
      </trkpt>
      <trkpt lat="42.50149667" lon="1.528">
        <ele>1272.0</ele>
        <time>2019-08-04T13:01:25.313Z</time>
      </trkpt>
      <trkpt lat="42.50149667" lon="1.528">
        <ele>1272.0</ele>
        <time>2019-08-04T13:01:26.475Z</time>
      </trkpt>
      <trkpt lat="42.50161167" lon="1.52795667">
        <ele>1271.0</ele>
        <time>2019-08-04T13:01:27.331Z</time>
      </trkpt>
      <trkpt lat="42.50161167" lon="1.52795667">
        <ele>1271.0</ele>
        <time>2019-08-04T13:01:28.319Z</time>
      </trkpt>
      <trkpt lat="42.5017" lon="1.52793667">
        <ele>1271.0</ele>
        <time>2019-08-04T13:01:29.306Z</time>
      </trkpt>
      <trkpt lat="42.50174167" lon="1.527945">
        <ele>1270.0</ele>
        <time>2019-08-04T13:01:30.323Z</time>
      </trkpt>
      <trkpt lat="42.50174167" lon="1.527945">
        <ele>1270.0</ele>
        <time>2019-08-04T13:01:31.329Z</time>
      </trkpt>
      <trkpt lat="42.50182" lon="1.52802833">
        <ele>1270.0</ele>
        <time>2019-08-04T13:01:32.298Z</time>
      </trkpt>
      <trkpt lat="42.50186167" lon="1.528095">
        <ele>1270.0</ele>
        <time>2019-08-04T13:01:33.318Z</time>
      </trkpt>
      <trkpt lat="42.5019" lon="1.52816667">
        <ele>1269.0</ele>
        <time>2019-08-04T13:01:34.308Z</time>
      </trkpt>
      <trkpt lat="42.5019" lon="1.52816667">
        <ele>1269.0</ele>
        <time>2019-08-04T13:01:35.313Z</time>
      </trkpt>
      <trkpt lat="42.50197833" lon="1.52828667">
        <ele>1269.0</ele>
        <time>2019-08-04T13:01:36.329Z</time>
      </trkpt>
      <trkpt lat="42.50197833" lon="1.52828667">
        <ele>1269.0</ele>
        <time>2019-08-04T13:01:37.317Z</time>
      </trkpt>
      <trkpt lat="42.50197833" lon="1.52828667">
        <ele>1269.0</ele>
        <time>2019-08-04T13:01:38.462Z</time>
      </trkpt>
      <trkpt lat="42.502105" lon="1.528215">
        <ele>1269.0</ele>
        <time>2019-08-04T13:01:39.316Z</time>
      </trkpt>
      <trkpt lat="42.50212167" lon="1.52813333">
        <ele>1269.0</ele>
        <time>2019-08-04T13:01:40.332Z</time>
      </trkpt>
      <trkpt lat="42.50212167" lon="1.52813333">
        <ele>1269.0</ele>
        <time>2019-08-04T13:01:41.313Z</time>
      </trkpt>
      <trkpt lat="42.502085" lon="1.527995">
        <ele>1269.0</ele>
        <time>2019-08-04T13:01:42.335Z</time>
      </trkpt>
      <trkpt lat="42.502085" lon="1.527995">
        <ele>1269.0</ele>
        <time>2019-08-04T13:01:43.314Z</time>
      </trkpt>
      <trkpt lat="42.502" lon="1.52788333">
        <ele>1269.0</ele>
        <time>2019-08-04T13:01:44.330Z</time>
      </trkpt>
      <trkpt lat="42.502" lon="1.52788333">
        <ele>1269.0</ele>
        <time>2019-08-04T13:01:45.313Z</time>
      </trkpt>
      <trkpt lat="42.50193167" lon="1.52781833">
        <ele>1269.0</ele>
        <time>2019-08-04T13:01:46.334Z</time>
      </trkpt>
      <trkpt lat="42.50193167" lon="1.52781833">
        <ele>1269.0</ele>
        <time>2019-08-04T13:01:47.314Z</time>
      </trkpt>
      <trkpt lat="42.50189833" lon="1.52781667">
        <ele>1269.0</ele>
        <time>2019-08-04T13:01:48.299Z</time>
      </trkpt>
      <trkpt lat="42.50189833" lon="1.52783167">
        <ele>1269.0</ele>
        <time>2019-08-04T13:01:49.318Z</time>
      </trkpt>
      <trkpt lat="42.50189833" lon="1.52783167">
        <ele>1269.0</ele>
        <time>2019-08-04T13:01:50.335Z</time>
      </trkpt>
      <trkpt lat="42.50192167" lon="1.52785333">
        <ele>1269.0</ele>
        <time>2019-08-04T13:01:51.316Z</time>
      </trkpt>
      <trkpt lat="42.50194333" lon="1.52786">
        <ele>1269.0</ele>
        <time>2019-08-04T13:01:52.332Z</time>
      </trkpt>
      <trkpt lat="42.50194333" lon="1.52786">
        <ele>1269.0</ele>
        <time>2019-08-04T13:01:53.313Z</time>
      </trkpt>
      <trkpt lat="42.50198167" lon="1.52788833">
        <ele>1269.0</ele>
        <time>2019-08-04T13:01:54.304Z</time>
      </trkpt>
      <trkpt lat="42.50198167" lon="1.52788833">
        <ele>1269.0</ele>
        <time>2019-08-04T13:01:55.334Z</time>
      </trkpt>
      <trkpt lat="42.50201833" lon="1.52793667">
        <ele>1270.0</ele>
        <time>2019-08-04T13:01:56.319Z</time>
      </trkpt>
      <trkpt lat="42.50201833" lon="1.52793667">
        <ele>1270.0</ele>
        <time>2019-08-04T13:01:57.299Z</time>
      </trkpt>
      <trkpt lat="42.50204833" lon="1.52798333">
        <ele>1270.0</ele>
        <time>2019-08-04T13:01:58.320Z</time>
      </trkpt>
      <trkpt lat="42.502065" lon="1.52801">
        <ele>1270.0</ele>
        <time>2019-08-04T13:01:59.316Z</time>
      </trkpt>
      <trkpt lat="42.50208167" lon="1.52803667">
        <ele>1270.0</ele>
        <time>2019-08-04T13:02:00.331Z</time>
      </trkpt>
      <trkpt lat="42.50208167" lon="1.52803667">
        <ele>1270.0</ele>
        <time>2019-08-04T13:02:01.314Z</time>
      </trkpt>
      <trkpt lat="42.50210167" lon="1.52810167">
        <ele>1270.0</ele>
        <time>2019-08-04T13:02:02.335Z</time>
      </trkpt>
      <trkpt lat="42.50210167" lon="1.52810167">
        <ele>1270.0</ele>
        <time>2019-08-04T13:02:03.313Z</time>
      </trkpt>
      <trkpt lat="42.50210167" lon="1.52810167">
        <ele>1270.0</ele>
        <time>2019-08-04T13:02:04.297Z</time>
      </trkpt>
      <trkpt lat="42.50209667" lon="1.52817">
        <ele>1271.0</ele>
        <time>2019-08-04T13:02:05.313Z</time>
      </trkpt>
      <trkpt lat="42.50206667" lon="1.52821833">
        <ele>1272.0</ele>
        <time>2019-08-04T13:02:06.333Z</time>
      </trkpt>
      <trkpt lat="42.50206667" lon="1.52821833">
        <ele>1272.0</ele>
        <time>2019-08-04T13:02:07.314Z</time>
      </trkpt>
      <trkpt lat="42.50202" lon="1.52823667">
        <ele>1273.0</ele>
        <time>2019-08-04T13:02:08.331Z</time>
      </trkpt>
      <trkpt lat="42.501995" lon="1.52823167">
        <ele>1273.0</ele>
        <time>2019-08-04T13:02:09.319Z</time>
      </trkpt>
      <trkpt lat="42.50197333" lon="1.52821333">
        <ele>1272.0</ele>
        <time>2019-08-04T13:02:10.335Z</time>
      </trkpt>
      <trkpt lat="42.50197333" lon="1.52821333">
        <ele>1272.0</ele>
        <time>2019-08-04T13:02:11.314Z</time>
      </trkpt>
      <trkpt lat="42.50194" lon="1.52815833">
        <ele>1272.0</ele>
        <time>2019-08-04T13:02:12.335Z</time>
      </trkpt>
      <trkpt lat="42.50194" lon="1.52815833">
        <ele>1272.0</ele>
        <time>2019-08-04T13:02:13.313Z</time>
      </trkpt>
      <trkpt lat="42.50191167" lon="1.52810667">
        <ele>1273.0</ele>
        <time>2019-08-04T13:02:14.334Z</time>
      </trkpt>
      <trkpt lat="42.50191167" lon="1.52810667">
        <ele>1273.0</ele>
        <time>2019-08-04T13:02:15.313Z</time>
      </trkpt>
      <trkpt lat="42.50188167" lon="1.52805333">
        <ele>1273.0</ele>
        <time>2019-08-04T13:02:16.335Z</time>
      </trkpt>
      <trkpt lat="42.50188167" lon="1.52805333">
        <ele>1273.0</ele>
        <time>2019-08-04T13:02:17.315Z</time>
      </trkpt>
      <trkpt lat="42.50185" lon="1.52800833">
        <ele>1273.0</ele>
        <time>2019-08-04T13:02:18.296Z</time>
      </trkpt>
      <trkpt lat="42.501835" lon="1.52798833">
        <ele>1273.0</ele>
        <time>2019-08-04T13:02:19.329Z</time>
      </trkpt>
      <trkpt lat="42.501835" lon="1.52798833">
        <ele>1273.0</ele>
        <time>2019-08-04T13:02:20.313Z</time>
      </trkpt>
      <trkpt lat="42.50180333" lon="1.52794667">
        <ele>1273.0</ele>
        <time>2019-08-04T13:02:21.333Z</time>
      </trkpt>
      <trkpt lat="42.50180333" lon="1.52794667">
        <ele>1273.0</ele>
        <time>2019-08-04T13:02:22.317Z</time>
      </trkpt>
      <trkpt lat="42.50176333" lon="1.527915">
        <ele>1273.0</ele>
        <time>2019-08-04T13:02:23.316Z</time>
      </trkpt>
      <trkpt lat="42.50176333" lon="1.527915">
        <ele>1273.0</ele>
        <time>2019-08-04T13:02:24.337Z</time>
      </trkpt>
      <trkpt lat="42.50176333" lon="1.527915">
        <ele>1273.0</ele>
        <time>2019-08-04T13:02:25.472Z</time>
      </trkpt>
      <trkpt lat="42.50172167" lon="1.52791">
        <ele>1274.0</ele>
        <time>2019-08-04T13:02:26.328Z</time>
      </trkpt>
      <trkpt lat="42.50168167" lon="1.52791667">
        <ele>1274.0</ele>
        <time>2019-08-04T13:02:27.317Z</time>
      </trkpt>
      <trkpt lat="42.50166167" lon="1.52792333">
        <ele>1274.0</ele>
        <time>2019-08-04T13:02:28.320Z</time>
      </trkpt>
      <trkpt lat="42.50166167" lon="1.52792333">
        <ele>1274.0</ele>
        <time>2019-08-04T13:02:29.305Z</time>
      </trkpt>
      <trkpt lat="42.50161833" lon="1.52794">
        <ele>1274.0</ele>
        <time>2019-08-04T13:02:30.328Z</time>
      </trkpt>
      <trkpt lat="42.50159333" lon="1.52794833">
        <ele>1274.0</ele>
        <time>2019-08-04T13:02:31.334Z</time>
      </trkpt>
      <trkpt lat="42.50159333" lon="1.52794833">
        <ele>1274.0</ele>
        <time>2019-08-04T13:02:32.316Z</time>
      </trkpt>
      <trkpt lat="42.50154833" lon="1.527965">
        <ele>1275.0</ele>
        <time>2019-08-04T13:02:33.316Z</time>
      </trkpt>
      <trkpt lat="42.50154833" lon="1.527965">
        <ele>1275.0</ele>
        <time>2019-08-04T13:02:34.297Z</time>
      </trkpt>
      <trkpt lat="42.501505" lon="1.52798333">
        <ele>1275.0</ele>
        <time>2019-08-04T13:02:35.335Z</time>
      </trkpt>
      <trkpt lat="42.501505" lon="1.52798333">
        <ele>1275.0</ele>
        <time>2019-08-04T13:02:36.318Z</time>
      </trkpt>
      <trkpt lat="42.50146167" lon="1.52800333">
        <ele>1275.0</ele>
        <time>2019-08-04T13:02:37.316Z</time>
      </trkpt>
      <trkpt lat="42.50146167" lon="1.52800333">
        <ele>1275.0</ele>
        <time>2019-08-04T13:02:38.332Z</time>
      </trkpt>
      <trkpt lat="42.501415" lon="1.52802">
        <ele>1275.0</ele>
        <time>2019-08-04T13:02:39.320Z</time>
      </trkpt>
      <trkpt lat="42.501415" lon="1.52802">
        <ele>1275.0</ele>
        <time>2019-08-04T13:02:40.477Z</time>
      </trkpt>
      <trkpt lat="42.50139333" lon="1.52803167">
        <ele>1275.0</ele>
        <time>2019-08-04T13:02:41.316Z</time>
      </trkpt>
      <trkpt lat="42.50135" lon="1.52804667">
        <ele>1276.0</ele>
        <time>2019-08-04T13:02:42.319Z</time>
      </trkpt>
      <trkpt lat="42.50135" lon="1.52804667">
        <ele>1276.0</ele>
        <time>2019-08-04T13:02:43.313Z</time>
      </trkpt>
      <trkpt lat="42.50130333" lon="1.52806333">
        <ele>1276.0</ele>
        <time>2019-08-04T13:02:44.335Z</time>
      </trkpt>
      <trkpt lat="42.50130333" lon="1.52806333">
        <ele>1276.0</ele>
        <time>2019-08-04T13:02:45.313Z</time>
      </trkpt>
      <trkpt lat="42.50125667" lon="1.52808">
        <ele>1276.0</ele>
        <time>2019-08-04T13:02:46.320Z</time>
      </trkpt>
      <trkpt lat="42.50125667" lon="1.52808">
        <ele>1276.0</ele>
        <time>2019-08-04T13:02:47.314Z</time>
      </trkpt>
      <trkpt lat="42.50120667" lon="1.52808167">
        <ele>1276.0</ele>
        <time>2019-08-04T13:02:48.335Z</time>
      </trkpt>
      <trkpt lat="42.50120667" lon="1.52808167">
        <ele>1276.0</ele>
        <time>2019-08-04T13:02:49.317Z</time>
      </trkpt>
      <trkpt lat="42.501155" lon="1.52806667">
        <ele>1277.0</ele>
        <time>2019-08-04T13:02:50.319Z</time>
      </trkpt>
      <trkpt lat="42.501155" lon="1.52806667">
        <ele>1277.0</ele>
        <time>2019-08-04T13:02:51.314Z</time>
      </trkpt>
      <trkpt lat="42.50110667" lon="1.52803833">
        <ele>1277.0</ele>
        <time>2019-08-04T13:02:52.334Z</time>
      </trkpt>
      <trkpt lat="42.50110667" lon="1.52803833">
        <ele>1277.0</ele>
        <time>2019-08-04T13:02:53.314Z</time>
      </trkpt>
      <trkpt lat="42.50110667" lon="1.52803833">
        <ele>1277.0</ele>
        <time>2019-08-04T13:02:54.306Z</time>
      </trkpt>
      <trkpt lat="42.50106333" lon="1.528005">
        <ele>1277.0</ele>
        <time>2019-08-04T13:02:55.334Z</time>
      </trkpt>
      <trkpt lat="42.50102667" lon="1.52796167">
        <ele>1277.0</ele>
        <time>2019-08-04T13:02:56.319Z</time>
      </trkpt>
      <trkpt lat="42.50102667" lon="1.52796167">
        <ele>1277.0</ele>
        <time>2019-08-04T13:02:57.296Z</time>
      </trkpt>
      <trkpt lat="42.50098833" lon="1.52791833">
        <ele>1277.0</ele>
        <time>2019-08-04T13:02:58.326Z</time>
      </trkpt>
      <trkpt lat="42.50098833" lon="1.52791833">
        <ele>1277.0</ele>
        <time>2019-08-04T13:02:59.313Z</time>
      </trkpt>
      <trkpt lat="42.50094833" lon="1.52788333">
        <ele>1277.0</ele>
        <time>2019-08-04T13:03:00.297Z</time>
      </trkpt>
      <trkpt lat="42.50094833" lon="1.52788333">
        <ele>1277.0</ele>
        <time>2019-08-04T13:03:01.316Z</time>
      </trkpt>
      <trkpt lat="42.500905" lon="1.52786167">
        <ele>1277.0</ele>
        <time>2019-08-04T13:03:02.320Z</time>
      </trkpt>
      <trkpt lat="42.500905" lon="1.52786167">
        <ele>1277.0</ele>
        <time>2019-08-04T13:03:03.314Z</time>
      </trkpt>
      <trkpt lat="42.500905" lon="1.52786167">
        <ele>1277.0</ele>
        <time>2019-08-04T13:03:04.297Z</time>
      </trkpt>
      <trkpt lat="42.50085333" lon="1.527875">
        <ele>1277.0</ele>
        <time>2019-08-04T13:03:05.332Z</time>
      </trkpt>
      <trkpt lat="42.50081333" lon="1.52791667">
        <ele>1278.0</ele>
        <time>2019-08-04T13:03:06.320Z</time>
      </trkpt>
      <trkpt lat="42.50081333" lon="1.52791667">
        <ele>1278.0</ele>
        <time>2019-08-04T13:03:07.314Z</time>
      </trkpt>
      <trkpt lat="42.50078833" lon="1.52797667">
        <ele>1278.0</ele>
        <time>2019-08-04T13:03:08.319Z</time>
      </trkpt>
      <trkpt lat="42.50078833" lon="1.52797667">
        <ele>1278.0</ele>
        <time>2019-08-04T13:03:09.316Z</time>
      </trkpt>
      <trkpt lat="42.50077167" lon="1.52804167">
        <ele>1278.0</ele>
        <time>2019-08-04T13:03:10.320Z</time>
      </trkpt>
      <trkpt lat="42.50077167" lon="1.52804167">
        <ele>1278.0</ele>
        <time>2019-08-04T13:03:11.314Z</time>
      </trkpt>
      <trkpt lat="42.50076" lon="1.52811">
        <ele>1279.0</ele>
        <time>2019-08-04T13:03:12.335Z</time>
      </trkpt>
      <trkpt lat="42.50076" lon="1.52811">
        <ele>1279.0</ele>
        <time>2019-08-04T13:03:13.313Z</time>
      </trkpt>
      <trkpt lat="42.50076" lon="1.52811">
        <ele>1279.0</ele>
        <time>2019-08-04T13:03:14.297Z</time>
      </trkpt>
      <trkpt lat="42.50074833" lon="1.52817667">
        <ele>1279.0</ele>
        <time>2019-08-04T13:03:15.313Z</time>
      </trkpt>
      <trkpt lat="42.50073833" lon="1.52824333">
        <ele>1279.0</ele>
        <time>2019-08-04T13:03:16.333Z</time>
      </trkpt>
      <trkpt lat="42.50073833" lon="1.52824333">
        <ele>1279.0</ele>
        <time>2019-08-04T13:03:17.315Z</time>
      </trkpt>
      <trkpt lat="42.50073" lon="1.52830667">
        <ele>1279.0</ele>
        <time>2019-08-04T13:03:18.335Z</time>
      </trkpt>
      <trkpt lat="42.50073" lon="1.52830667">
        <ele>1279.0</ele>
        <time>2019-08-04T13:03:19.318Z</time>
      </trkpt>
      <trkpt lat="42.50071833" lon="1.52836667">
        <ele>1280.0</ele>
        <time>2019-08-04T13:03:20.318Z</time>
      </trkpt>
      <trkpt lat="42.50071333" lon="1.52839667">
        <ele>1280.0</ele>
        <time>2019-08-04T13:03:21.298Z</time>
      </trkpt>
      <trkpt lat="42.50071333" lon="1.52839667">
        <ele>1280.0</ele>
        <time>2019-08-04T13:03:22.318Z</time>
      </trkpt>
      <trkpt lat="42.50070667" lon="1.52845667">
        <ele>1280.0</ele>
        <time>2019-08-04T13:03:23.320Z</time>
      </trkpt>
      <trkpt lat="42.50070667" lon="1.52845667">
        <ele>1280.0</ele>
        <time>2019-08-04T13:03:24.314Z</time>
      </trkpt>
      <trkpt lat="42.50069833" lon="1.52851333">
        <ele>1281.0</ele>
        <time>2019-08-04T13:03:25.329Z</time>
      </trkpt>
      <trkpt lat="42.50069833" lon="1.52851333">
        <ele>1281.0</ele>
        <time>2019-08-04T13:03:26.317Z</time>
      </trkpt>
      <trkpt lat="42.50068333" lon="1.52856667">
        <ele>1281.0</ele>
        <time>2019-08-04T13:03:27.320Z</time>
      </trkpt>
      <trkpt lat="42.50068333" lon="1.52856667">
        <ele>1281.0</ele>
        <time>2019-08-04T13:03:28.335Z</time>
      </trkpt>
      <trkpt lat="42.50066667" lon="1.52862167">
        <ele>1281.0</ele>
        <time>2019-08-04T13:03:29.326Z</time>
      </trkpt>
      <trkpt lat="42.50066" lon="1.52864833">
        <ele>1281.0</ele>
        <time>2019-08-04T13:03:30.309Z</time>
      </trkpt>
      <trkpt lat="42.50066" lon="1.52864833">
        <ele>1281.0</ele>
        <time>2019-08-04T13:03:31.315Z</time>
      </trkpt>
      <trkpt lat="42.500645" lon="1.5287">
        <ele>1282.0</ele>
        <time>2019-08-04T13:03:32.322Z</time>
      </trkpt>
      <trkpt lat="42.500645" lon="1.5287">
        <ele>1282.0</ele>
        <time>2019-08-04T13:03:33.314Z</time>
      </trkpt>
      <trkpt lat="42.50063" lon="1.52875333">
        <ele>1282.0</ele>
        <time>2019-08-04T13:03:34.305Z</time>
      </trkpt>
      <trkpt lat="42.50063" lon="1.52875333">
        <ele>1282.0</ele>
        <time>2019-08-04T13:03:35.314Z</time>
      </trkpt>
      <trkpt lat="42.500615" lon="1.52880833">
        <ele>1282.0</ele>
        <time>2019-08-04T13:03:36.333Z</time>
      </trkpt>
      <trkpt lat="42.500615" lon="1.52880833">
        <ele>1282.0</ele>
        <time>2019-08-04T13:03:37.317Z</time>
      </trkpt>
      <trkpt lat="42.500595" lon="1.52885833">
        <ele>1283.0</ele>
        <time>2019-08-04T13:03:38.319Z</time>
      </trkpt>
      <trkpt lat="42.500595" lon="1.52885833">
        <ele>1283.0</ele>
        <time>2019-08-04T13:03:39.335Z</time>
      </trkpt>
      <trkpt lat="42.500565" lon="1.528895">
        <ele>1283.0</ele>
        <time>2019-08-04T13:03:40.321Z</time>
      </trkpt>
      <trkpt lat="42.500565" lon="1.528895">
        <ele>1283.0</ele>
        <time>2019-08-04T13:03:41.314Z</time>
      </trkpt>
      <trkpt lat="42.50052667" lon="1.52891833">
        <ele>1283.0</ele>
        <time>2019-08-04T13:03:42.335Z</time>
      </trkpt>
      <trkpt lat="42.50050667" lon="1.52892">
        <ele>1284.0</ele>
        <time>2019-08-04T13:03:43.316Z</time>
      </trkpt>
      <trkpt lat="42.50048833" lon="1.52891333">
        <ele>1284.0</ele>
        <time>2019-08-04T13:03:44.302Z</time>
      </trkpt>
      <trkpt lat="42.50048833" lon="1.52891333">
        <ele>1284.0</ele>
        <time>2019-08-04T13:03:45.334Z</time>
      </trkpt>
      <trkpt lat="42.50045167" lon="1.5289">
        <ele>1284.0</ele>
        <time>2019-08-04T13:03:46.321Z</time>
      </trkpt>
      <trkpt lat="42.50045167" lon="1.5289">
        <ele>1284.0</ele>
        <time>2019-08-04T13:03:47.314Z</time>
      </trkpt>
      <trkpt lat="42.500415" lon="1.528885">
        <ele>1284.0</ele>
        <time>2019-08-04T13:03:48.334Z</time>
      </trkpt>
      <trkpt lat="42.500415" lon="1.528885">
        <ele>1284.0</ele>
        <time>2019-08-04T13:03:49.315Z</time>
      </trkpt>
      <trkpt lat="42.50038" lon="1.52886167">
        <ele>1285.0</ele>
        <time>2019-08-04T13:03:50.336Z</time>
      </trkpt>
      <trkpt lat="42.50036167" lon="1.52885333">
        <ele>1285.0</ele>
        <time>2019-08-04T13:03:51.320Z</time>
      </trkpt>
      <trkpt lat="42.50036167" lon="1.52885333">
        <ele>1285.0</ele>
        <time>2019-08-04T13:03:52.296Z</time>
      </trkpt>
      <trkpt lat="42.500325" lon="1.52884">
        <ele>1286.0</ele>
        <time>2019-08-04T13:03:53.319Z</time>
      </trkpt>
      <trkpt lat="42.50030667" lon="1.52883333">
        <ele>1286.0</ele>
        <time>2019-08-04T13:03:54.335Z</time>
      </trkpt>
      <trkpt lat="42.50030667" lon="1.52883333">
        <ele>1286.0</ele>
        <time>2019-08-04T13:03:55.315Z</time>
      </trkpt>
      <trkpt lat="42.50027" lon="1.52882667">
        <ele>1286.0</ele>
        <time>2019-08-04T13:03:56.335Z</time>
      </trkpt>
      <trkpt lat="42.50027" lon="1.52882667">
        <ele>1286.0</ele>
        <time>2019-08-04T13:03:57.314Z</time>
      </trkpt>
      <trkpt lat="42.500235" lon="1.52881167">
        <ele>1287.0</ele>
        <time>2019-08-04T13:03:58.334Z</time>
      </trkpt>
      <trkpt lat="42.500235" lon="1.52881167">
        <ele>1287.0</ele>
        <time>2019-08-04T13:03:59.312Z</time>
      </trkpt>
      <trkpt lat="42.5002" lon="1.528795">
        <ele>1287.0</ele>
        <time>2019-08-04T13:04:00.334Z</time>
      </trkpt>
      <trkpt lat="42.50018333" lon="1.528785">
        <ele>1287.0</ele>
        <time>2019-08-04T13:04:01.319Z</time>
      </trkpt>
      <trkpt lat="42.50018333" lon="1.528785">
        <ele>1287.0</ele>
        <time>2019-08-04T13:04:02.334Z</time>
      </trkpt>
      <trkpt lat="42.50015167" lon="1.52876833">
        <ele>1288.0</ele>
        <time>2019-08-04T13:04:03.318Z</time>
      </trkpt>
      <trkpt lat="42.50013333" lon="1.52876">
        <ele>1288.0</ele>
        <time>2019-08-04T13:04:04.330Z</time>
      </trkpt>
      <trkpt lat="42.50013333" lon="1.52876">
        <ele>1288.0</ele>
        <time>2019-08-04T13:04:05.314Z</time>
      </trkpt>
      <trkpt lat="42.500095" lon="1.52874333">
        <ele>1288.0</ele>
        <time>2019-08-04T13:04:06.335Z</time>
      </trkpt>
      <trkpt lat="42.500095" lon="1.52874333">
        <ele>1288.0</ele>
        <time>2019-08-04T13:04:07.316Z</time>
      </trkpt>
      <trkpt lat="42.500055" lon="1.52873333">
        <ele>1288.0</ele>
        <time>2019-08-04T13:04:08.336Z</time>
      </trkpt>
      <trkpt lat="42.500055" lon="1.52873333">
        <ele>1288.0</ele>
        <time>2019-08-04T13:04:09.315Z</time>
      </trkpt>
      <trkpt lat="42.50001833" lon="1.52872">
        <ele>1289.0</ele>
        <time>2019-08-04T13:04:10.321Z</time>
      </trkpt>
      <trkpt lat="42.5" lon="1.52871333">
        <ele>1289.0</ele>
        <time>2019-08-04T13:04:11.336Z</time>
      </trkpt>
      <trkpt lat="42.5" lon="1.52871333">
        <ele>1289.0</ele>
        <time>2019-08-04T13:04:12.316Z</time>
      </trkpt>
      <trkpt lat="42.49996333" lon="1.528705">
        <ele>1289.0</ele>
        <time>2019-08-04T13:04:13.318Z</time>
      </trkpt>
      <trkpt lat="42.49996333" lon="1.528705">
        <ele>1289.0</ele>
        <time>2019-08-04T13:04:14.512Z</time>
      </trkpt>
      <trkpt lat="42.49994667" lon="1.528705">
        <ele>1289.0</ele>
        <time>2019-08-04T13:04:15.332Z</time>
      </trkpt>
      <trkpt lat="42.49992" lon="1.52871">
        <ele>1289.0</ele>
        <time>2019-08-04T13:04:16.321Z</time>
      </trkpt>
      <trkpt lat="42.49992" lon="1.52871">
        <ele>1289.0</ele>
        <time>2019-08-04T13:04:17.299Z</time>
      </trkpt>
      <trkpt lat="42.49989167" lon="1.52871167">
        <ele>1290.0</ele>
        <time>2019-08-04T13:04:18.321Z</time>
      </trkpt>
      <trkpt lat="42.49989167" lon="1.52871167">
        <ele>1290.0</ele>
        <time>2019-08-04T13:04:19.315Z</time>
      </trkpt>
      <trkpt lat="42.49985833" lon="1.52871167">
        <ele>1290.0</ele>
        <time>2019-08-04T13:04:20.335Z</time>
      </trkpt>
      <trkpt lat="42.49985833" lon="1.52871167">
        <ele>1290.0</ele>
        <time>2019-08-04T13:04:21.315Z</time>
      </trkpt>
      <trkpt lat="42.49982167" lon="1.52872667">
        <ele>1290.0</ele>
        <time>2019-08-04T13:04:22.336Z</time>
      </trkpt>
      <trkpt lat="42.49980333" lon="1.52873833">
        <ele>1290.0</ele>
        <time>2019-08-04T13:04:23.322Z</time>
      </trkpt>
      <trkpt lat="42.49980333" lon="1.52873833">
        <ele>1290.0</ele>
        <time>2019-08-04T13:04:24.311Z</time>
      </trkpt>
      <trkpt lat="42.49977" lon="1.52876667">
        <ele>1291.0</ele>
        <time>2019-08-04T13:04:25.299Z</time>
      </trkpt>
      <trkpt lat="42.49977" lon="1.52876667">
        <ele>1291.0</ele>
        <time>2019-08-04T13:04:26.317Z</time>
      </trkpt>
      <trkpt lat="42.49974333" lon="1.52880833">
        <ele>1291.0</ele>
        <time>2019-08-04T13:04:27.321Z</time>
      </trkpt>
      <trkpt lat="42.499735" lon="1.528835">
        <ele>1291.0</ele>
        <time>2019-08-04T13:04:28.321Z</time>
      </trkpt>
      <trkpt lat="42.499735" lon="1.528835">
        <ele>1291.0</ele>
        <time>2019-08-04T13:04:29.319Z</time>
      </trkpt>
      <trkpt lat="42.49973333" lon="1.52889">
        <ele>1291.0</ele>
        <time>2019-08-04T13:04:30.323Z</time>
      </trkpt>
      <trkpt lat="42.49973333" lon="1.52889">
        <ele>1291.0</ele>
        <time>2019-08-04T13:04:31.330Z</time>
      </trkpt>
      <trkpt lat="42.49974" lon="1.52894667">
        <ele>1291.0</ele>
        <time>2019-08-04T13:04:32.336Z</time>
      </trkpt>
      <trkpt lat="42.49974" lon="1.52894667">
        <ele>1291.0</ele>
        <time>2019-08-04T13:04:33.315Z</time>
      </trkpt>
      <trkpt lat="42.49974" lon="1.52894667">
        <ele>1291.0</ele>
        <time>2019-08-04T13:04:34.296Z</time>
      </trkpt>
      <trkpt lat="42.49975667" lon="1.52899833">
        <ele>1291.0</ele>
        <time>2019-08-04T13:04:35.296Z</time>
      </trkpt>
      <trkpt lat="42.49979" lon="1.52903667">
        <ele>1291.0</ele>
        <time>2019-08-04T13:04:36.317Z</time>
      </trkpt>
      <trkpt lat="42.49979" lon="1.52903667">
        <ele>1291.0</ele>
        <time>2019-08-04T13:04:37.301Z</time>
      </trkpt>
      <trkpt lat="42.49982667" lon="1.52906667">
        <ele>1292.0</ele>
        <time>2019-08-04T13:04:38.323Z</time>
      </trkpt>
      <trkpt lat="42.49982667" lon="1.52906667">
        <ele>1292.0</ele>
        <time>2019-08-04T13:04:39.315Z</time>
      </trkpt>
      <trkpt lat="42.49986667" lon="1.529095">
        <ele>1292.0</ele>
        <time>2019-08-04T13:04:40.296Z</time>
      </trkpt>
      <trkpt lat="42.499885" lon="1.52910833">
        <ele>1292.0</ele>
        <time>2019-08-04T13:04:41.320Z</time>
      </trkpt>
      <trkpt lat="42.499885" lon="1.52910833">
        <ele>1292.0</ele>
        <time>2019-08-04T13:04:42.296Z</time>
      </trkpt>
      <trkpt lat="42.49992667" lon="1.52913167">
        <ele>1293.0</ele>
        <time>2019-08-04T13:04:43.320Z</time>
      </trkpt>
      <trkpt lat="42.49992667" lon="1.52913167">
        <ele>1293.0</ele>
        <time>2019-08-04T13:04:44.317Z</time>
      </trkpt>
      <trkpt lat="42.49996333" lon="1.529155">
        <ele>1293.0</ele>
        <time>2019-08-04T13:04:45.332Z</time>
      </trkpt>
      <trkpt lat="42.49998167" lon="1.52917">
        <ele>1293.0</ele>
        <time>2019-08-04T13:04:46.321Z</time>
      </trkpt>
      <trkpt lat="42.49998167" lon="1.52917">
        <ele>1293.0</ele>
        <time>2019-08-04T13:04:47.324Z</time>
      </trkpt>
      <trkpt lat="42.50001333" lon="1.52920167">
        <ele>1294.0</ele>
        <time>2019-08-04T13:04:48.320Z</time>
      </trkpt>
      <trkpt lat="42.50001333" lon="1.52920167">
        <ele>1294.0</ele>
        <time>2019-08-04T13:04:49.314Z</time>
      </trkpt>
      <trkpt lat="42.500045" lon="1.52923833">
        <ele>1295.0</ele>
        <time>2019-08-04T13:04:50.299Z</time>
      </trkpt>
      <trkpt lat="42.50006" lon="1.52925833">
        <ele>1295.0</ele>
        <time>2019-08-04T13:04:51.319Z</time>
      </trkpt>
      <trkpt lat="42.50006" lon="1.52925833">
        <ele>1295.0</ele>
        <time>2019-08-04T13:04:52.296Z</time>
      </trkpt>
      <trkpt lat="42.50008833" lon="1.52930167">
        <ele>1295.0</ele>
        <time>2019-08-04T13:04:53.319Z</time>
      </trkpt>
      <trkpt lat="42.50008833" lon="1.52930167">
        <ele>1295.0</ele>
        <time>2019-08-04T13:04:54.334Z</time>
      </trkpt>
      <trkpt lat="42.50011667" lon="1.529345">
        <ele>1295.0</ele>
        <time>2019-08-04T13:04:55.319Z</time>
      </trkpt>
      <trkpt lat="42.50011667" lon="1.529345">
        <ele>1295.0</ele>
        <time>2019-08-04T13:04:56.334Z</time>
      </trkpt>
      <trkpt lat="42.50014333" lon="1.52939">
        <ele>1295.0</ele>
        <time>2019-08-04T13:04:57.326Z</time>
      </trkpt>
      <trkpt lat="42.500155" lon="1.52941167">
        <ele>1296.0</ele>
        <time>2019-08-04T13:04:58.321Z</time>
      </trkpt>
      <trkpt lat="42.500155" lon="1.52941167">
        <ele>1296.0</ele>
        <time>2019-08-04T13:04:59.314Z</time>
      </trkpt>
      <trkpt lat="42.50018167" lon="1.52945667">
        <ele>1296.0</ele>
        <time>2019-08-04T13:05:00.334Z</time>
      </trkpt>
      <trkpt lat="42.50019333" lon="1.52948167">
        <ele>1296.0</ele>
        <time>2019-08-04T13:05:01.320Z</time>
      </trkpt>
      <trkpt lat="42.50019333" lon="1.52948167">
        <ele>1296.0</ele>
        <time>2019-08-04T13:05:02.296Z</time>
      </trkpt>
      <trkpt lat="42.50021833" lon="1.52952833">
        <ele>1297.0</ele>
        <time>2019-08-04T13:05:03.319Z</time>
      </trkpt>
      <trkpt lat="42.50021833" lon="1.52952833">
        <ele>1297.0</ele>
        <time>2019-08-04T13:05:04.335Z</time>
      </trkpt>
      <trkpt lat="42.50024167" lon="1.529575">
        <ele>1297.0</ele>
        <time>2019-08-04T13:05:05.320Z</time>
      </trkpt>
      <trkpt lat="42.50025333" lon="1.52959833">
        <ele>1297.0</ele>
        <time>2019-08-04T13:05:06.302Z</time>
      </trkpt>
      <trkpt lat="42.50025333" lon="1.52959833">
        <ele>1297.0</ele>
        <time>2019-08-04T13:05:07.322Z</time>
      </trkpt>
      <trkpt lat="42.50027667" lon="1.529645">
        <ele>1298.0</ele>
        <time>2019-08-04T13:05:08.320Z</time>
      </trkpt>
      <trkpt lat="42.50027667" lon="1.529645">
        <ele>1298.0</ele>
        <time>2019-08-04T13:05:09.335Z</time>
      </trkpt>
      <trkpt lat="42.50030333" lon="1.52969167">
        <ele>1298.0</ele>
        <time>2019-08-04T13:05:10.317Z</time>
      </trkpt>
      <trkpt lat="42.50031333" lon="1.52971333">
        <ele>1298.0</ele>
        <time>2019-08-04T13:05:11.332Z</time>
      </trkpt>
      <trkpt lat="42.50031333" lon="1.52971333">
        <ele>1298.0</ele>
        <time>2019-08-04T13:05:12.312Z</time>
      </trkpt>
      <trkpt lat="42.50033833" lon="1.529755">
        <ele>1298.0</ele>
        <time>2019-08-04T13:05:13.333Z</time>
      </trkpt>
      <trkpt lat="42.50033833" lon="1.529755">
        <ele>1298.0</ele>
        <time>2019-08-04T13:05:14.314Z</time>
      </trkpt>
      <trkpt lat="42.50033833" lon="1.529755">
        <ele>1298.0</ele>
        <time>2019-08-04T13:05:15.476Z</time>
      </trkpt>
      <trkpt lat="42.50038" lon="1.529815">
        <ele>1299.0</ele>
        <time>2019-08-04T13:05:16.332Z</time>
      </trkpt>
      <trkpt lat="42.50038" lon="1.529815">
        <ele>1299.0</ele>
        <time>2019-08-04T13:05:17.314Z</time>
      </trkpt>
      <trkpt lat="42.50041" lon="1.52985167">
        <ele>1299.0</ele>
        <time>2019-08-04T13:05:18.320Z</time>
      </trkpt>
      <trkpt lat="42.50042333" lon="1.52987167">
        <ele>1300.0</ele>
        <time>2019-08-04T13:05:19.320Z</time>
      </trkpt>
      <trkpt lat="42.50042333" lon="1.52987167">
        <ele>1300.0</ele>
        <time>2019-08-04T13:05:20.300Z</time>
      </trkpt>
      <trkpt lat="42.50045167" lon="1.52991167">
        <ele>1300.0</ele>
        <time>2019-08-04T13:05:21.320Z</time>
      </trkpt>
      <trkpt lat="42.50046667" lon="1.52992667">
        <ele>1300.0</ele>
        <time>2019-08-04T13:05:22.296Z</time>
      </trkpt>
      <trkpt lat="42.50046667" lon="1.52992667">
        <ele>1300.0</ele>
        <time>2019-08-04T13:05:23.316Z</time>
      </trkpt>
      <trkpt lat="42.50046667" lon="1.52992667">
        <ele>1300.0</ele>
        <time>2019-08-04T13:05:24.297Z</time>
      </trkpt>
      <trkpt lat="42.5005" lon="1.52995833">
        <ele>1301.0</ele>
        <time>2019-08-04T13:05:25.315Z</time>
      </trkpt>
      <trkpt lat="42.50053333" lon="1.52999">
        <ele>1301.0</ele>
        <time>2019-08-04T13:05:26.296Z</time>
      </trkpt>
      <trkpt lat="42.50053333" lon="1.52999">
        <ele>1301.0</ele>
        <time>2019-08-04T13:05:27.315Z</time>
      </trkpt>
      <trkpt lat="42.50057" lon="1.53002">
        <ele>1301.0</ele>
        <time>2019-08-04T13:05:28.335Z</time>
      </trkpt>
      <trkpt lat="42.50057" lon="1.53002">
        <ele>1301.0</ele>
        <time>2019-08-04T13:05:29.313Z</time>
      </trkpt>
      <trkpt lat="42.50060833" lon="1.53005">
        <ele>1302.0</ele>
        <time>2019-08-04T13:05:30.323Z</time>
      </trkpt>
      <trkpt lat="42.50062833" lon="1.53006333">
        <ele>1302.0</ele>
        <time>2019-08-04T13:05:31.330Z</time>
      </trkpt>
      <trkpt lat="42.50062833" lon="1.53006333">
        <ele>1302.0</ele>
        <time>2019-08-04T13:05:32.316Z</time>
      </trkpt>
      <trkpt lat="42.50067167" lon="1.53008167">
        <ele>1302.0</ele>
        <time>2019-08-04T13:05:33.320Z</time>
      </trkpt>
      <trkpt lat="42.50069" lon="1.53009">
        <ele>1303.0</ele>
        <time>2019-08-04T13:05:34.306Z</time>
      </trkpt>
      <trkpt lat="42.50069" lon="1.53009">
        <ele>1303.0</ele>
        <time>2019-08-04T13:05:35.296Z</time>
      </trkpt>
      <trkpt lat="42.50073167" lon="1.5301">
        <ele>1303.0</ele>
        <time>2019-08-04T13:05:36.320Z</time>
      </trkpt>
      <trkpt lat="42.50073167" lon="1.5301">
        <ele>1303.0</ele>
        <time>2019-08-04T13:05:37.300Z</time>
      </trkpt>
      <trkpt lat="42.50077167" lon="1.5301">
        <ele>1304.0</ele>
        <time>2019-08-04T13:05:38.324Z</time>
      </trkpt>
      <trkpt lat="42.50077167" lon="1.5301">
        <ele>1304.0</ele>
        <time>2019-08-04T13:05:39.315Z</time>
      </trkpt>
      <trkpt lat="42.50077167" lon="1.5301">
        <ele>1304.0</ele>
        <time>2019-08-04T13:05:40.468Z</time>
      </trkpt>
      <trkpt lat="42.50083" lon="1.53009333">
        <ele>1304.0</ele>
        <time>2019-08-04T13:05:41.322Z</time>
      </trkpt>
      <trkpt lat="42.50083" lon="1.53009333">
        <ele>1304.0</ele>
        <time>2019-08-04T13:05:42.312Z</time>
      </trkpt>
      <trkpt lat="42.500865" lon="1.53010667">
        <ele>1305.0</ele>
        <time>2019-08-04T13:05:43.321Z</time>
      </trkpt>
      <trkpt lat="42.500865" lon="1.53010667">
        <ele>1305.0</ele>
        <time>2019-08-04T13:05:44.315Z</time>
      </trkpt>
      <trkpt lat="42.50088667" lon="1.530135">
        <ele>1305.0</ele>
        <time>2019-08-04T13:05:45.330Z</time>
      </trkpt>
      <trkpt lat="42.50089667" lon="1.53015">
        <ele>1305.0</ele>
        <time>2019-08-04T13:05:46.320Z</time>
      </trkpt>
      <trkpt lat="42.50089667" lon="1.53015">
        <ele>1305.0</ele>
        <time>2019-08-04T13:05:47.315Z</time>
      </trkpt>
      <trkpt lat="42.50091333" lon="1.53018167">
        <ele>1306.0</ele>
        <time>2019-08-04T13:05:48.335Z</time>
      </trkpt>
      <trkpt lat="42.50091667" lon="1.53019833">
        <ele>1306.0</ele>
        <time>2019-08-04T13:05:49.320Z</time>
      </trkpt>
      <trkpt lat="42.50091667" lon="1.53019833">
        <ele>1306.0</ele>
        <time>2019-08-04T13:05:50.298Z</time>
      </trkpt>
      <trkpt lat="42.500915" lon="1.53023167">
        <ele>1306.0</ele>
        <time>2019-08-04T13:05:51.321Z</time>
      </trkpt>
      <trkpt lat="42.50091" lon="1.53025">
        <ele>1306.0</ele>
        <time>2019-08-04T13:05:52.296Z</time>
      </trkpt>
      <trkpt lat="42.50091" lon="1.53025">
        <ele>1306.0</ele>
        <time>2019-08-04T13:05:53.317Z</time>
      </trkpt>
      <trkpt lat="42.50091" lon="1.53025">
        <ele>1306.0</ele>
        <time>2019-08-04T13:05:54.314Z</time>
      </trkpt>
      <trkpt lat="42.500895" lon="1.53028333">
        <ele>1307.0</ele>
        <time>2019-08-04T13:05:55.328Z</time>
      </trkpt>
      <trkpt lat="42.50087167" lon="1.53031">
        <ele>1307.0</ele>
        <time>2019-08-04T13:05:56.319Z</time>
      </trkpt>
      <trkpt lat="42.50087167" lon="1.53031">
        <ele>1307.0</ele>
        <time>2019-08-04T13:05:57.335Z</time>
      </trkpt>
      <trkpt lat="42.500845" lon="1.53033833">
        <ele>1307.0</ele>
        <time>2019-08-04T13:05:58.321Z</time>
      </trkpt>
      <trkpt lat="42.500845" lon="1.53033833">
        <ele>1307.0</ele>
        <time>2019-08-04T13:05:59.315Z</time>
      </trkpt>
      <trkpt lat="42.500845" lon="1.53033833">
        <ele>1307.0</ele>
        <time>2019-08-04T13:06:00.301Z</time>
      </trkpt>
      <trkpt lat="42.500815" lon="1.53036333">
        <ele>1308.0</ele>
        <time>2019-08-04T13:06:01.335Z</time>
      </trkpt>
      <trkpt lat="42.50078833" lon="1.53039167">
        <ele>1308.0</ele>
        <time>2019-08-04T13:06:02.310Z</time>
      </trkpt>
      <trkpt lat="42.50077333" lon="1.53040333">
        <ele>1308.0</ele>
        <time>2019-08-04T13:06:03.320Z</time>
      </trkpt>
      <trkpt lat="42.50077333" lon="1.53040333">
        <ele>1308.0</ele>
        <time>2019-08-04T13:06:04.297Z</time>
      </trkpt>
      <trkpt lat="42.50074333" lon="1.530425">
        <ele>1309.0</ele>
        <time>2019-08-04T13:06:05.313Z</time>
      </trkpt>
      <trkpt lat="42.50074333" lon="1.530425">
        <ele>1309.0</ele>
        <time>2019-08-04T13:06:06.318Z</time>
      </trkpt>
      <trkpt lat="42.50071333" lon="1.53044833">
        <ele>1309.0</ele>
        <time>2019-08-04T13:06:07.324Z</time>
      </trkpt>
      <trkpt lat="42.50071333" lon="1.53044833">
        <ele>1309.0</ele>
        <time>2019-08-04T13:06:08.334Z</time>
      </trkpt>
      <trkpt lat="42.50068167" lon="1.53047">
        <ele>1309.0</ele>
        <time>2019-08-04T13:06:09.320Z</time>
      </trkpt>
      <trkpt lat="42.50066833" lon="1.53048833">
        <ele>1310.0</ele>
        <time>2019-08-04T13:06:10.296Z</time>
      </trkpt>
      <trkpt lat="42.50066833" lon="1.53048833">
        <ele>1310.0</ele>
        <time>2019-08-04T13:06:11.317Z</time>
      </trkpt>
      <trkpt lat="42.50064" lon="1.53051833">
        <ele>1310.0</ele>
        <time>2019-08-04T13:06:12.335Z</time>
      </trkpt>
      <trkpt lat="42.50064" lon="1.53051833">
        <ele>1310.0</ele>
        <time>2019-08-04T13:06:13.315Z</time>
      </trkpt>
      <trkpt lat="42.50064" lon="1.53051833">
        <ele>1310.0</ele>
        <time>2019-08-04T13:06:14.299Z</time>
      </trkpt>
      <trkpt lat="42.50061167" lon="1.53054833">
        <ele>1311.0</ele>
        <time>2019-08-04T13:06:15.315Z</time>
      </trkpt>
      <trkpt lat="42.50058167" lon="1.530575">
        <ele>1311.0</ele>
        <time>2019-08-04T13:06:16.296Z</time>
      </trkpt>
      <trkpt lat="42.50058167" lon="1.530575">
        <ele>1311.0</ele>
        <time>2019-08-04T13:06:17.318Z</time>
      </trkpt>
      <trkpt lat="42.50055333" lon="1.53060167">
        <ele>1312.0</ele>
        <time>2019-08-04T13:06:18.320Z</time>
      </trkpt>
      <trkpt lat="42.50055333" lon="1.53060167">
        <ele>1312.0</ele>
        <time>2019-08-04T13:06:19.315Z</time>
      </trkpt>
      <trkpt lat="42.50052667" lon="1.53063">
        <ele>1313.0</ele>
        <time>2019-08-04T13:06:20.335Z</time>
      </trkpt>
      <trkpt lat="42.50052667" lon="1.53063">
        <ele>1313.0</ele>
        <time>2019-08-04T13:06:21.317Z</time>
      </trkpt>
      <trkpt lat="42.500495" lon="1.53065167">
        <ele>1313.0</ele>
        <time>2019-08-04T13:06:22.301Z</time>
      </trkpt>
      <trkpt lat="42.500495" lon="1.53065167">
        <ele>1313.0</ele>
        <time>2019-08-04T13:06:23.322Z</time>
      </trkpt>
      <trkpt lat="42.50046" lon="1.53066667">
        <ele>1314.0</ele>
        <time>2019-08-04T13:06:24.329Z</time>
      </trkpt>
      <trkpt lat="42.50046" lon="1.53066667">
        <ele>1314.0</ele>
        <time>2019-08-04T13:06:25.318Z</time>
      </trkpt>
      <trkpt lat="42.50043167" lon="1.53069333">
        <ele>1314.0</ele>
        <time>2019-08-04T13:06:26.319Z</time>
      </trkpt>
      <trkpt lat="42.50043167" lon="1.53069333">
        <ele>1314.0</ele>
        <time>2019-08-04T13:06:27.296Z</time>
      </trkpt>
      <trkpt lat="42.50040333" lon="1.53071833">
        <ele>1315.0</ele>
        <time>2019-08-04T13:06:28.322Z</time>
      </trkpt>
      <trkpt lat="42.50040333" lon="1.53071833">
        <ele>1315.0</ele>
        <time>2019-08-04T13:06:29.330Z</time>
      </trkpt>
      <trkpt lat="42.500365" lon="1.53073167">
        <ele>1316.0</ele>
        <time>2019-08-04T13:06:30.308Z</time>
      </trkpt>
      <trkpt lat="42.500365" lon="1.53073167">
        <ele>1316.0</ele>
        <time>2019-08-04T13:06:31.313Z</time>
      </trkpt>
      <trkpt lat="42.50032667" lon="1.53073333">
        <ele>1316.0</ele>
        <time>2019-08-04T13:06:32.320Z</time>
      </trkpt>
      <trkpt lat="42.50032667" lon="1.53073333">
        <ele>1316.0</ele>
        <time>2019-08-04T13:06:33.296Z</time>
      </trkpt>
      <trkpt lat="42.50028667" lon="1.53072667">
        <ele>1317.0</ele>
        <time>2019-08-04T13:06:34.331Z</time>
      </trkpt>
      <trkpt lat="42.50028667" lon="1.53072667">
        <ele>1317.0</ele>
        <time>2019-08-04T13:06:35.328Z</time>
      </trkpt>
      <trkpt lat="42.50024833" lon="1.53071833">
        <ele>1317.0</ele>
        <time>2019-08-04T13:06:36.320Z</time>
      </trkpt>
      <trkpt lat="42.50024833" lon="1.53071833">
        <ele>1317.0</ele>
        <time>2019-08-04T13:06:37.316Z</time>
      </trkpt>
      <trkpt lat="42.50020833" lon="1.53070833">
        <ele>1318.0</ele>
        <time>2019-08-04T13:06:38.296Z</time>
      </trkpt>
      <trkpt lat="42.50018833" lon="1.53070167">
        <ele>1318.0</ele>
        <time>2019-08-04T13:06:39.320Z</time>
      </trkpt>
      <trkpt lat="42.50016833" lon="1.53069833">
        <ele>1318.0</ele>
        <time>2019-08-04T13:06:40.296Z</time>
      </trkpt>
      <trkpt lat="42.50016833" lon="1.53069833">
        <ele>1318.0</ele>
        <time>2019-08-04T13:06:41.315Z</time>
      </trkpt>
      <trkpt lat="42.50013" lon="1.53068833">
        <ele>1319.0</ele>
        <time>2019-08-04T13:06:42.300Z</time>
      </trkpt>
      <trkpt lat="42.50011167" lon="1.530685">
        <ele>1319.0</ele>
        <time>2019-08-04T13:06:43.320Z</time>
      </trkpt>
      <trkpt lat="42.50011167" lon="1.530685">
        <ele>1319.0</ele>
        <time>2019-08-04T13:06:44.296Z</time>
      </trkpt>
      <trkpt lat="42.50011167" lon="1.530685">
        <ele>1319.0</ele>
        <time>2019-08-04T13:06:45.475Z</time>
      </trkpt>
      <trkpt lat="42.50007333" lon="1.53068167">
        <ele>1320.0</ele>
        <time>2019-08-04T13:06:46.329Z</time>
      </trkpt>
      <trkpt lat="42.500035" lon="1.53067667">
        <ele>1320.0</ele>
        <time>2019-08-04T13:06:47.320Z</time>
      </trkpt>
      <trkpt lat="42.50001833" lon="1.53066833">
        <ele>1321.0</ele>
        <time>2019-08-04T13:06:48.296Z</time>
      </trkpt>
      <trkpt lat="42.50000167" lon="1.53066167">
        <ele>1321.0</ele>
        <time>2019-08-04T13:06:49.320Z</time>
      </trkpt>
      <trkpt lat="42.50000167" lon="1.53066167">
        <ele>1321.0</ele>
        <time>2019-08-04T13:06:50.296Z</time>
      </trkpt>
      <trkpt lat="42.49996833" lon="1.53064833">
        <ele>1321.0</ele>
        <time>2019-08-04T13:06:51.321Z</time>
      </trkpt>
      <trkpt lat="42.49996833" lon="1.53064833">
        <ele>1321.0</ele>
        <time>2019-08-04T13:06:52.297Z</time>
      </trkpt>
      <trkpt lat="42.49993167" lon="1.53063833">
        <ele>1322.0</ele>
        <time>2019-08-04T13:06:53.334Z</time>
      </trkpt>
      <trkpt lat="42.499915" lon="1.53063333">
        <ele>1322.0</ele>
        <time>2019-08-04T13:06:54.329Z</time>
      </trkpt>
      <trkpt lat="42.499915" lon="1.53063333">
        <ele>1322.0</ele>
        <time>2019-08-04T13:06:55.316Z</time>
      </trkpt>
      <trkpt lat="42.49987667" lon="1.53061833">
        <ele>1323.0</ele>
        <time>2019-08-04T13:06:56.296Z</time>
      </trkpt>
      <trkpt lat="42.49987667" lon="1.53061833">
        <ele>1323.0</ele>
        <time>2019-08-04T13:06:57.316Z</time>
      </trkpt>
      <trkpt lat="42.49984" lon="1.5306">
        <ele>1323.0</ele>
        <time>2019-08-04T13:06:58.322Z</time>
      </trkpt>
      <trkpt lat="42.49984" lon="1.5306">
        <ele>1323.0</ele>
        <time>2019-08-04T13:06:59.316Z</time>
      </trkpt>
      <trkpt lat="42.49980333" lon="1.53058333">
        <ele>1324.0</ele>
        <time>2019-08-04T13:07:00.296Z</time>
      </trkpt>
      <trkpt lat="42.49980333" lon="1.53058333">
        <ele>1324.0</ele>
        <time>2019-08-04T13:07:01.317Z</time>
      </trkpt>
      <trkpt lat="42.499765" lon="1.53057167">
        <ele>1324.0</ele>
        <time>2019-08-04T13:07:02.321Z</time>
      </trkpt>
      <trkpt lat="42.499745" lon="1.53056667">
        <ele>1324.0</ele>
        <time>2019-08-04T13:07:03.320Z</time>
      </trkpt>
      <trkpt lat="42.499745" lon="1.53056667">
        <ele>1324.0</ele>
        <time>2019-08-04T13:07:04.335Z</time>
      </trkpt>
      <trkpt lat="42.49970667" lon="1.53056">
        <ele>1325.0</ele>
        <time>2019-08-04T13:07:05.321Z</time>
      </trkpt>
      <trkpt lat="42.49968833" lon="1.53055833">
        <ele>1325.0</ele>
        <time>2019-08-04T13:07:06.320Z</time>
      </trkpt>
      <trkpt lat="42.49968833" lon="1.53055833">
        <ele>1325.0</ele>
        <time>2019-08-04T13:07:07.336Z</time>
      </trkpt>
      <trkpt lat="42.49965167" lon="1.530555">
        <ele>1326.0</ele>
        <time>2019-08-04T13:07:08.320Z</time>
      </trkpt>
      <trkpt lat="42.49965167" lon="1.530555">
        <ele>1326.0</ele>
        <time>2019-08-04T13:07:09.296Z</time>
      </trkpt>
      <trkpt lat="42.49961333" lon="1.53054833">
        <ele>1326.0</ele>
        <time>2019-08-04T13:07:10.322Z</time>
      </trkpt>
      <trkpt lat="42.49961333" lon="1.53054833">
        <ele>1326.0</ele>
        <time>2019-08-04T13:07:11.300Z</time>
      </trkpt>
      <trkpt lat="42.499575" lon="1.53054167">
        <ele>1326.0</ele>
        <time>2019-08-04T13:07:12.322Z</time>
      </trkpt>
      <trkpt lat="42.49955667" lon="1.530535">
        <ele>1327.0</ele>
        <time>2019-08-04T13:07:13.322Z</time>
      </trkpt>
      <trkpt lat="42.49955667" lon="1.530535">
        <ele>1327.0</ele>
        <time>2019-08-04T13:07:14.316Z</time>
      </trkpt>
      <trkpt lat="42.49951833" lon="1.53052333">
        <ele>1327.0</ele>
        <time>2019-08-04T13:07:15.299Z</time>
      </trkpt>
      <trkpt lat="42.4995" lon="1.53052167">
        <ele>1327.0</ele>
        <time>2019-08-04T13:07:16.322Z</time>
      </trkpt>
      <trkpt lat="42.4995" lon="1.53052167">
        <ele>1327.0</ele>
        <time>2019-08-04T13:07:17.300Z</time>
      </trkpt>
      <trkpt lat="42.49946667" lon="1.530515">
        <ele>1328.0</ele>
        <time>2019-08-04T13:07:18.321Z</time>
      </trkpt>
      <trkpt lat="42.49945167" lon="1.53051167">
        <ele>1328.0</ele>
        <time>2019-08-04T13:07:19.296Z</time>
      </trkpt>
      <trkpt lat="42.49945167" lon="1.53051167">
        <ele>1328.0</ele>
        <time>2019-08-04T13:07:20.317Z</time>
      </trkpt>
      <trkpt lat="42.49942" lon="1.53050333">
        <ele>1329.0</ele>
        <time>2019-08-04T13:07:21.321Z</time>
      </trkpt>
      <trkpt lat="42.49939833" lon="1.53050333">
        <ele>1329.0</ele>
        <time>2019-08-04T13:07:22.330Z</time>
      </trkpt>
      <trkpt lat="42.49938" lon="1.53050833">
        <ele>1329.0</ele>
        <time>2019-08-04T13:07:23.320Z</time>
      </trkpt>
      <trkpt lat="42.49938" lon="1.53050833">
        <ele>1329.0</ele>
        <time>2019-08-04T13:07:24.315Z</time>
      </trkpt>
      <trkpt lat="42.49934167" lon="1.53052">
        <ele>1330.0</ele>
        <time>2019-08-04T13:07:25.331Z</time>
      </trkpt>
      <trkpt lat="42.49934167" lon="1.53052">
        <ele>1330.0</ele>
        <time>2019-08-04T13:07:26.315Z</time>
      </trkpt>
      <trkpt lat="42.49930333" lon="1.530525">
        <ele>1330.0</ele>
        <time>2019-08-04T13:07:27.320Z</time>
      </trkpt>
      <trkpt lat="42.49928333" lon="1.53053">
        <ele>1330.0</ele>
        <time>2019-08-04T13:07:28.321Z</time>
      </trkpt>
      <trkpt lat="42.49928333" lon="1.53053">
        <ele>1330.0</ele>
        <time>2019-08-04T13:07:29.320Z</time>
      </trkpt>
      <trkpt lat="42.49924833" lon="1.53054667">
        <ele>1331.0</ele>
        <time>2019-08-04T13:07:30.306Z</time>
      </trkpt>
      <trkpt lat="42.49924833" lon="1.53054667">
        <ele>1331.0</ele>
        <time>2019-08-04T13:07:31.312Z</time>
      </trkpt>
      <trkpt lat="42.49921167" lon="1.53056667">
        <ele>1331.0</ele>
        <time>2019-08-04T13:07:32.320Z</time>
      </trkpt>
      <trkpt lat="42.49919333" lon="1.53057833">
        <ele>1332.0</ele>
        <time>2019-08-04T13:07:33.296Z</time>
      </trkpt>
      <trkpt lat="42.49919333" lon="1.53057833">
        <ele>1332.0</ele>
        <time>2019-08-04T13:07:34.328Z</time>
      </trkpt>
      <trkpt lat="42.49916" lon="1.53059">
        <ele>1332.0</ele>
        <time>2019-08-04T13:07:35.321Z</time>
      </trkpt>
      <trkpt lat="42.49914667" lon="1.53059333">
        <ele>1332.0</ele>
        <time>2019-08-04T13:07:36.325Z</time>
      </trkpt>
      <trkpt lat="42.49914667" lon="1.53059333">
        <ele>1332.0</ele>
        <time>2019-08-04T13:07:37.322Z</time>
      </trkpt>
      <trkpt lat="42.49913167" lon="1.5306">
        <ele>1333.0</ele>
        <time>2019-08-04T13:07:38.321Z</time>
      </trkpt>
      <trkpt lat="42.49913167" lon="1.5306">
        <ele>1333.0</ele>
        <time>2019-08-04T13:07:39.296Z</time>
      </trkpt>
      <trkpt lat="42.49913167" lon="1.53059667">
        <ele>1333.0</ele>
        <time>2019-08-04T13:07:40.322Z</time>
      </trkpt>
      <trkpt lat="42.49913167" lon="1.53059667">
        <ele>1333.0</ele>
        <time>2019-08-04T13:07:41.299Z</time>
      </trkpt>
      <trkpt lat="42.49913167" lon="1.53059667">
        <ele>1333.0</ele>
        <time>2019-08-04T13:07:42.321Z</time>
      </trkpt>
      <trkpt lat="42.49913167" lon="1.53059667">
        <ele>1333.0</ele>
        <time>2019-08-04T13:07:43.316Z</time>
      </trkpt>
      <trkpt lat="42.49913167" lon="1.53059667">
        <ele>1333.0</ele>
        <time>2019-08-04T13:07:44.297Z</time>
      </trkpt>
      <trkpt lat="42.49911333" lon="1.53058667">
        <ele>1333.0</ele>
        <time>2019-08-04T13:07:45.316Z</time>
      </trkpt>
      <trkpt lat="42.49911333" lon="1.53058667">
        <ele>1333.0</ele>
        <time>2019-08-04T13:07:46.473Z</time>
      </trkpt>
      <trkpt lat="42.49910667" lon="1.530585">
        <ele>1333.0</ele>
        <time>2019-08-04T13:07:47.328Z</time>
      </trkpt>
      <trkpt lat="42.49910667" lon="1.530585">
        <ele>1333.0</ele>
        <time>2019-08-04T13:07:48.327Z</time>
      </trkpt>
      <trkpt lat="42.49910667" lon="1.53058333">
        <ele>1333.0</ele>
        <time>2019-08-04T13:07:49.331Z</time>
      </trkpt>
      <trkpt lat="42.49910667" lon="1.53058333">
        <ele>1333.0</ele>
        <time>2019-08-04T13:07:50.321Z</time>
      </trkpt>
      <trkpt lat="42.49910667" lon="1.53058333">
        <ele>1333.0</ele>
        <time>2019-08-04T13:07:51.332Z</time>
      </trkpt>
      <trkpt lat="42.49910667" lon="1.53058333">
        <ele>1333.0</ele>
        <time>2019-08-04T13:07:52.331Z</time>
      </trkpt>
      <trkpt lat="42.499125" lon="1.53072167">
        <ele>1334.0</ele>
        <time>2019-08-04T13:07:53.324Z</time>
      </trkpt>
      <trkpt lat="42.499125" lon="1.53072167">
        <ele>1334.0</ele>
        <time>2019-08-04T13:07:54.316Z</time>
      </trkpt>
      <trkpt lat="42.499125" lon="1.53072167">
        <ele>1334.0</ele>
        <time>2019-08-04T13:07:55.299Z</time>
      </trkpt>
      <trkpt lat="42.49904167" lon="1.53063667">
        <ele>1335.0</ele>
        <time>2019-08-04T13:07:56.306Z</time>
      </trkpt>
      <trkpt lat="42.49903167" lon="1.53062833">
        <ele>1335.0</ele>
        <time>2019-08-04T13:07:57.333Z</time>
      </trkpt>
      <trkpt lat="42.49901833" lon="1.53062">
        <ele>1335.0</ele>
        <time>2019-08-04T13:07:58.299Z</time>
      </trkpt>
      <trkpt lat="42.49901833" lon="1.53062">
        <ele>1335.0</ele>
        <time>2019-08-04T13:07:59.332Z</time>
      </trkpt>
      <trkpt lat="42.499005" lon="1.53061">
        <ele>1335.0</ele>
        <time>2019-08-04T13:08:00.299Z</time>
      </trkpt>
      <trkpt lat="42.49899833" lon="1.53060667">
        <ele>1335.0</ele>
        <time>2019-08-04T13:08:01.304Z</time>
      </trkpt>
      <trkpt lat="42.49899833" lon="1.53060667">
        <ele>1335.0</ele>
        <time>2019-08-04T13:08:02.306Z</time>
      </trkpt>
      <trkpt lat="42.49898" lon="1.53060333">
        <ele>1335.0</ele>
        <time>2019-08-04T13:08:03.334Z</time>
      </trkpt>
      <trkpt lat="42.49897333" lon="1.5306">
        <ele>1335.0</ele>
        <time>2019-08-04T13:08:04.334Z</time>
      </trkpt>
      <trkpt lat="42.49897333" lon="1.5306">
        <ele>1335.0</ele>
        <time>2019-08-04T13:08:05.328Z</time>
      </trkpt>
      <trkpt lat="42.49896" lon="1.530595">
        <ele>1335.0</ele>
        <time>2019-08-04T13:08:06.308Z</time>
      </trkpt>
      <trkpt lat="42.49895833" lon="1.53059333">
        <ele>1335.0</ele>
        <time>2019-08-04T13:08:07.300Z</time>
      </trkpt>
      <trkpt lat="42.49895833" lon="1.53059333">
        <ele>1335.0</ele>
        <time>2019-08-04T13:08:08.329Z</time>
      </trkpt>
      <trkpt lat="42.49895" lon="1.53059333">
        <ele>1335.0</ele>
        <time>2019-08-04T13:08:09.305Z</time>
      </trkpt>
      <trkpt lat="42.498945" lon="1.53059333">
        <ele>1335.0</ele>
        <time>2019-08-04T13:08:10.334Z</time>
      </trkpt>
      <trkpt lat="42.498945" lon="1.53059333">
        <ele>1335.0</ele>
        <time>2019-08-04T13:08:11.331Z</time>
      </trkpt>
      <trkpt lat="42.498945" lon="1.53059333">
        <ele>1335.0</ele>
        <time>2019-08-04T13:08:12.333Z</time>
      </trkpt>
      <trkpt lat="42.498925" lon="1.53059167">
        <ele>1335.0</ele>
        <time>2019-08-04T13:08:13.332Z</time>
      </trkpt>
      <trkpt lat="42.49892333" lon="1.530595">
        <ele>1335.0</ele>
        <time>2019-08-04T13:08:14.334Z</time>
      </trkpt>
      <trkpt lat="42.49892167" lon="1.5306">
        <ele>1335.0</ele>
        <time>2019-08-04T13:08:15.334Z</time>
      </trkpt>
      <trkpt lat="42.49892167" lon="1.5306">
        <ele>1335.0</ele>
        <time>2019-08-04T13:08:16.333Z</time>
      </trkpt>
      <trkpt lat="42.49891167" lon="1.53060667">
        <ele>1335.0</ele>
        <time>2019-08-04T13:08:17.304Z</time>
      </trkpt>
      <trkpt lat="42.49891167" lon="1.53060667">
        <ele>1335.0</ele>
        <time>2019-08-04T13:08:18.328Z</time>
      </trkpt>
      <trkpt lat="42.49890333" lon="1.530615">
        <ele>1335.0</ele>
        <time>2019-08-04T13:08:19.309Z</time>
      </trkpt>
      <trkpt lat="42.49890333" lon="1.53061667">
        <ele>1335.0</ele>
        <time>2019-08-04T13:08:20.334Z</time>
      </trkpt>
      <trkpt lat="42.49890333" lon="1.53061667">
        <ele>1335.0</ele>
        <time>2019-08-04T13:08:21.332Z</time>
      </trkpt>
      <trkpt lat="42.49889167" lon="1.53061167">
        <ele>1335.0</ele>
        <time>2019-08-04T13:08:22.296Z</time>
      </trkpt>
      <trkpt lat="42.49889167" lon="1.53061167">
        <ele>1335.0</ele>
        <time>2019-08-04T13:08:23.301Z</time>
      </trkpt>
      <trkpt lat="42.49889167" lon="1.53061167">
        <ele>1335.0</ele>
        <time>2019-08-04T13:08:24.311Z</time>
      </trkpt>
      <trkpt lat="42.49889167" lon="1.53061167">
        <ele>1335.0</ele>
        <time>2019-08-04T13:08:25.320Z</time>
      </trkpt>
      <trkpt lat="42.49889167" lon="1.53061167">
        <ele>1335.0</ele>
        <time>2019-08-04T13:08:26.303Z</time>
      </trkpt>
      <trkpt lat="42.49889167" lon="1.53061167">
        <ele>1335.0</ele>
        <time>2019-08-04T13:08:27.329Z</time>
      </trkpt>
      <trkpt lat="42.49887667" lon="1.53057167">
        <ele>1334.0</ele>
        <time>2019-08-04T13:08:28.315Z</time>
      </trkpt>
      <trkpt lat="42.49887667" lon="1.53057167">
        <ele>1334.0</ele>
        <time>2019-08-04T13:08:29.309Z</time>
      </trkpt>
      <trkpt lat="42.49889167" lon="1.53057">
        <ele>1334.0</ele>
        <time>2019-08-04T13:08:30.334Z</time>
      </trkpt>
      <trkpt lat="42.4989" lon="1.53057">
        <ele>1334.0</ele>
        <time>2019-08-04T13:08:31.301Z</time>
      </trkpt>
      <trkpt lat="42.4989" lon="1.53057">
        <ele>1334.0</ele>
        <time>2019-08-04T13:08:32.308Z</time>
      </trkpt>
      <trkpt lat="42.49890167" lon="1.530565">
        <ele>1334.0</ele>
        <time>2019-08-04T13:08:33.315Z</time>
      </trkpt>
      <trkpt lat="42.498905" lon="1.530565">
        <ele>1334.0</ele>
        <time>2019-08-04T13:08:34.330Z</time>
      </trkpt>
      <trkpt lat="42.49891" lon="1.530565">
        <ele>1334.0</ele>
        <time>2019-08-04T13:08:35.326Z</time>
      </trkpt>
      <trkpt lat="42.49891" lon="1.530565">
        <ele>1334.0</ele>
        <time>2019-08-04T13:08:36.316Z</time>
      </trkpt>
      <trkpt lat="42.49891" lon="1.530565">
        <ele>1334.0</ele>
        <time>2019-08-04T13:08:37.319Z</time>
      </trkpt>
      <trkpt lat="42.498955" lon="1.53056">
        <ele>1335.0</ele>
        <time>2019-08-04T13:08:38.325Z</time>
      </trkpt>
      <trkpt lat="42.498955" lon="1.53056">
        <ele>1335.0</ele>
        <time>2019-08-04T13:08:39.323Z</time>
      </trkpt>
      <trkpt lat="42.49896667" lon="1.53056833">
        <ele>1335.0</ele>
        <time>2019-08-04T13:08:40.314Z</time>
      </trkpt>
      <trkpt lat="42.49896667" lon="1.53056833">
        <ele>1335.0</ele>
        <time>2019-08-04T13:08:41.306Z</time>
      </trkpt>
      <trkpt lat="42.49897333" lon="1.53056833">
        <ele>1335.0</ele>
        <time>2019-08-04T13:08:42.333Z</time>
      </trkpt>
      <trkpt lat="42.49897333" lon="1.53056833">
        <ele>1335.0</ele>
        <time>2019-08-04T13:08:43.315Z</time>
      </trkpt>
      <trkpt lat="42.49897167" lon="1.53057667">
        <ele>1335.0</ele>
        <time>2019-08-04T13:08:44.329Z</time>
      </trkpt>
      <trkpt lat="42.49897167" lon="1.53057667">
        <ele>1335.0</ele>
        <time>2019-08-04T13:08:45.317Z</time>
      </trkpt>
      <trkpt lat="42.49897167" lon="1.53057667">
        <ele>1335.0</ele>
        <time>2019-08-04T13:08:46.323Z</time>
      </trkpt>
      <trkpt lat="42.49909167" lon="1.530615">
        <ele>1335.0</ele>
        <time>2019-08-04T13:08:47.314Z</time>
      </trkpt>
      <trkpt lat="42.49909667" lon="1.53060833">
        <ele>1335.0</ele>
        <time>2019-08-04T13:08:48.319Z</time>
      </trkpt>
      <trkpt lat="42.49910333" lon="1.53060667">
        <ele>1335.0</ele>
        <time>2019-08-04T13:08:49.333Z</time>
      </trkpt>
      <trkpt lat="42.49910333" lon="1.53060667">
        <ele>1335.0</ele>
        <time>2019-08-04T13:08:50.320Z</time>
      </trkpt>
      <trkpt lat="42.49910167" lon="1.5306">
        <ele>1335.0</ele>
        <time>2019-08-04T13:08:51.335Z</time>
      </trkpt>
      <trkpt lat="42.49909833" lon="1.53059833">
        <ele>1335.0</ele>
        <time>2019-08-04T13:08:52.317Z</time>
      </trkpt>
      <trkpt lat="42.49909833" lon="1.53059833">
        <ele>1335.0</ele>
        <time>2019-08-04T13:08:53.305Z</time>
      </trkpt>
      <trkpt lat="42.49909833" lon="1.53059833">
        <ele>1335.0</ele>
        <time>2019-08-04T13:08:54.312Z</time>
      </trkpt>
      <trkpt lat="42.49909833" lon="1.53059833">
        <ele>1335.0</ele>
        <time>2019-08-04T13:08:55.324Z</time>
      </trkpt>
      <trkpt lat="42.49909833" lon="1.53059833">
        <ele>1335.0</ele>
        <time>2019-08-04T13:08:56.331Z</time>
      </trkpt>
      <trkpt lat="42.49909833" lon="1.53059833">
        <ele>1335.0</ele>
        <time>2019-08-04T13:08:57.298Z</time>
      </trkpt>
      <trkpt lat="42.49909833" lon="1.53059833">
        <ele>1335.0</ele>
        <time>2019-08-04T13:08:58.305Z</time>
      </trkpt>
      <trkpt lat="42.49909833" lon="1.53059833">
        <ele>1335.0</ele>
        <time>2019-08-04T13:08:59.312Z</time>
      </trkpt>
      <trkpt lat="42.49909833" lon="1.53059833">
        <ele>1335.0</ele>
        <time>2019-08-04T13:09:00.325Z</time>
      </trkpt>
      <trkpt lat="42.49909833" lon="1.53059833">
        <ele>1335.0</ele>
        <time>2019-08-04T13:09:01.301Z</time>
      </trkpt>
      <trkpt lat="42.49909833" lon="1.53059833">
        <ele>1335.0</ele>
        <time>2019-08-04T13:09:02.307Z</time>
      </trkpt>
      <trkpt lat="42.49909833" lon="1.53059833">
        <ele>1335.0</ele>
        <time>2019-08-04T13:09:03.314Z</time>
      </trkpt>
      <trkpt lat="42.49909833" lon="1.53059833">
        <ele>1335.0</ele>
        <time>2019-08-04T13:09:04.325Z</time>
      </trkpt>
      <trkpt lat="42.49909833" lon="1.53059833">
        <ele>1335.0</ele>
        <time>2019-08-04T13:09:05.335Z</time>
      </trkpt>
      <trkpt lat="42.49909833" lon="1.53059833">
        <ele>1335.0</ele>
        <time>2019-08-04T13:09:06.328Z</time>
      </trkpt>
      <trkpt lat="42.49909833" lon="1.53059833">
        <ele>1335.0</ele>
        <time>2019-08-04T13:09:07.323Z</time>
      </trkpt>
      <trkpt lat="42.49909833" lon="1.53059833">
        <ele>1335.0</ele>
        <time>2019-08-04T13:09:08.314Z</time>
      </trkpt>
      <trkpt lat="42.49909833" lon="1.53059833">
        <ele>1335.0</ele>
        <time>2019-08-04T13:09:09.335Z</time>
      </trkpt>
      <trkpt lat="42.49909833" lon="1.53059833">
        <ele>1335.0</ele>
        <time>2019-08-04T13:09:10.307Z</time>
      </trkpt>
      <trkpt lat="42.49909833" lon="1.53059833">
        <ele>1335.0</ele>
        <time>2019-08-04T13:09:11.334Z</time>
      </trkpt>
      <trkpt lat="42.49909833" lon="1.53059833">
        <ele>1335.0</ele>
        <time>2019-08-04T13:09:12.298Z</time>
      </trkpt>
      <trkpt lat="42.49909833" lon="1.53059833">
        <ele>1335.0</ele>
        <time>2019-08-04T13:09:13.334Z</time>
      </trkpt>
      <trkpt lat="42.49909833" lon="1.53059833">
        <ele>1335.0</ele>
        <time>2019-08-04T13:09:14.300Z</time>
      </trkpt>
      <trkpt lat="42.49909833" lon="1.53059833">
        <ele>1335.0</ele>
        <time>2019-08-04T13:09:15.336Z</time>
      </trkpt>
      <trkpt lat="42.49909833" lon="1.53059833">
        <ele>1335.0</ele>
        <time>2019-08-04T13:09:16.305Z</time>
      </trkpt>
      <trkpt lat="42.49909833" lon="1.53059833">
        <ele>1335.0</ele>
        <time>2019-08-04T13:09:17.333Z</time>
      </trkpt>
      <trkpt lat="42.49909833" lon="1.53059833">
        <ele>1335.0</ele>
        <time>2019-08-04T13:09:18.307Z</time>
      </trkpt>
      <trkpt lat="42.49909833" lon="1.53059833">
        <ele>1335.0</ele>
        <time>2019-08-04T13:09:19.335Z</time>
      </trkpt>
      <trkpt lat="42.49909833" lon="1.53059833">
        <ele>1335.0</ele>
        <time>2019-08-04T13:09:20.301Z</time>
      </trkpt>
      <trkpt lat="42.49909833" lon="1.53059833">
        <ele>1335.0</ele>
        <time>2019-08-04T13:09:21.298Z</time>
      </trkpt>
      <trkpt lat="42.49909833" lon="1.53059833">
        <ele>1335.0</ele>
        <time>2019-08-04T13:09:22.313Z</time>
      </trkpt>
      <trkpt lat="42.49909833" lon="1.53059833">
        <ele>1335.0</ele>
        <time>2019-08-04T13:09:23.334Z</time>
      </trkpt>
      <trkpt lat="42.49909833" lon="1.53059833">
        <ele>1335.0</ele>
        <time>2019-08-04T13:09:24.299Z</time>
      </trkpt>
      <trkpt lat="42.49909833" lon="1.53059833">
        <ele>1335.0</ele>
        <time>2019-08-04T13:09:25.296Z</time>
      </trkpt>
      <trkpt lat="42.49909833" lon="1.53059833">
        <ele>1335.0</ele>
        <time>2019-08-04T13:09:26.315Z</time>
      </trkpt>
      <trkpt lat="42.49909833" lon="1.53059833">
        <ele>1335.0</ele>
        <time>2019-08-04T13:09:27.297Z</time>
      </trkpt>
      <trkpt lat="42.49909833" lon="1.53059833">
        <ele>1335.0</ele>
        <time>2019-08-04T13:09:28.322Z</time>
      </trkpt>
      <trkpt lat="42.49915833" lon="1.53065667">
        <ele>1333.0</ele>
        <time>2019-08-04T13:09:29.305Z</time>
      </trkpt>
      <trkpt lat="42.49917667" lon="1.53066833">
        <ele>1333.0</ele>
        <time>2019-08-04T13:09:30.322Z</time>
      </trkpt>
      <trkpt lat="42.49917667" lon="1.53066833">
        <ele>1333.0</ele>
        <time>2019-08-04T13:09:31.302Z</time>
      </trkpt>
      <trkpt lat="42.499215" lon="1.53071167">
        <ele>1333.0</ele>
        <time>2019-08-04T13:09:32.308Z</time>
      </trkpt>
      <trkpt lat="42.49923167" lon="1.53073333">
        <ele>1334.0</ele>
        <time>2019-08-04T13:09:33.314Z</time>
      </trkpt>
      <trkpt lat="42.49924667" lon="1.53075333">
        <ele>1334.0</ele>
        <time>2019-08-04T13:09:34.320Z</time>
      </trkpt>
      <trkpt lat="42.49924667" lon="1.53075333">
        <ele>1334.0</ele>
        <time>2019-08-04T13:09:35.308Z</time>
      </trkpt>
      <trkpt lat="42.49924667" lon="1.53075333">
        <ele>1334.0</ele>
        <time>2019-08-04T13:09:36.311Z</time>
      </trkpt>
      <trkpt lat="42.49928167" lon="1.53079167">
        <ele>1335.0</ele>
        <time>2019-08-04T13:09:37.326Z</time>
      </trkpt>
      <trkpt lat="42.49930167" lon="1.53080833">
        <ele>1335.0</ele>
        <time>2019-08-04T13:09:38.324Z</time>
      </trkpt>
      <trkpt lat="42.49932" lon="1.53082167">
        <ele>1335.0</ele>
        <time>2019-08-04T13:09:39.308Z</time>
      </trkpt>
      <trkpt lat="42.49932" lon="1.53082167">
        <ele>1335.0</ele>
        <time>2019-08-04T13:09:40.310Z</time>
      </trkpt>
      <trkpt lat="42.49935667" lon="1.53084167">
        <ele>1336.0</ele>
        <time>2019-08-04T13:09:41.324Z</time>
      </trkpt>
      <trkpt lat="42.49935667" lon="1.53084167">
        <ele>1336.0</ele>
        <time>2019-08-04T13:09:42.311Z</time>
      </trkpt>
      <trkpt lat="42.499415" lon="1.53088333">
        <ele>1337.0</ele>
        <time>2019-08-04T13:09:43.325Z</time>
      </trkpt>
      <trkpt lat="42.499415" lon="1.53088333">
        <ele>1337.0</ele>
        <time>2019-08-04T13:09:44.310Z</time>
      </trkpt>
      <trkpt lat="42.49943167" lon="1.5309">
        <ele>1337.0</ele>
        <time>2019-08-04T13:09:45.324Z</time>
      </trkpt>
      <trkpt lat="42.49943167" lon="1.5309">
        <ele>1337.0</ele>
        <time>2019-08-04T13:09:46.311Z</time>
      </trkpt>
      <trkpt lat="42.49948167" lon="1.53094">
        <ele>1338.0</ele>
        <time>2019-08-04T13:09:47.324Z</time>
      </trkpt>
      <trkpt lat="42.49948167" lon="1.53094">
        <ele>1338.0</ele>
        <time>2019-08-04T13:09:48.342Z</time>
      </trkpt>
      <trkpt lat="42.499515" lon="1.53098">
        <ele>1338.0</ele>
        <time>2019-08-04T13:09:49.324Z</time>
      </trkpt>
      <trkpt lat="42.499515" lon="1.53098">
        <ele>1338.0</ele>
        <time>2019-08-04T13:09:50.310Z</time>
      </trkpt>
      <trkpt lat="42.49953167" lon="1.53100333">
        <ele>1339.0</ele>
        <time>2019-08-04T13:09:51.323Z</time>
      </trkpt>
      <trkpt lat="42.49953167" lon="1.53100333">
        <ele>1339.0</ele>
        <time>2019-08-04T13:09:52.310Z</time>
      </trkpt>
      <trkpt lat="42.49956333" lon="1.531045">
        <ele>1339.0</ele>
        <time>2019-08-04T13:09:53.322Z</time>
      </trkpt>
      <trkpt lat="42.49956333" lon="1.531045">
        <ele>1339.0</ele>
        <time>2019-08-04T13:09:54.307Z</time>
      </trkpt>
      <trkpt lat="42.49961167" lon="1.53108333">
        <ele>1339.0</ele>
        <time>2019-08-04T13:09:55.324Z</time>
      </trkpt>
      <trkpt lat="42.49961167" lon="1.53108333">
        <ele>1339.0</ele>
        <time>2019-08-04T13:09:56.310Z</time>
      </trkpt>
      <trkpt lat="42.49962833" lon="1.53109667">
        <ele>1339.0</ele>
        <time>2019-08-04T13:09:57.324Z</time>
      </trkpt>
      <trkpt lat="42.49962833" lon="1.53109667">
        <ele>1339.0</ele>
        <time>2019-08-04T13:09:58.316Z</time>
      </trkpt>
      <trkpt lat="42.49966167" lon="1.53112833">
        <ele>1340.0</ele>
        <time>2019-08-04T13:09:59.310Z</time>
      </trkpt>
      <trkpt lat="42.49967667" lon="1.53114167">
        <ele>1340.0</ele>
        <time>2019-08-04T13:10:00.309Z</time>
      </trkpt>
      <trkpt lat="42.49967667" lon="1.53114167">
        <ele>1340.0</ele>
        <time>2019-08-04T13:10:01.314Z</time>
      </trkpt>
      <trkpt lat="42.49970833" lon="1.53116833">
        <ele>1340.0</ele>
        <time>2019-08-04T13:10:02.310Z</time>
      </trkpt>
      <trkpt lat="42.499725" lon="1.53118333">
        <ele>1341.0</ele>
        <time>2019-08-04T13:10:03.322Z</time>
      </trkpt>
      <trkpt lat="42.499725" lon="1.53118333">
        <ele>1341.0</ele>
        <time>2019-08-04T13:10:04.310Z</time>
      </trkpt>
      <trkpt lat="42.49975833" lon="1.53121167">
        <ele>1341.0</ele>
        <time>2019-08-04T13:10:05.320Z</time>
      </trkpt>
      <trkpt lat="42.49975833" lon="1.53121167">
        <ele>1341.0</ele>
        <time>2019-08-04T13:10:06.310Z</time>
      </trkpt>
      <trkpt lat="42.49979" lon="1.531235">
        <ele>1341.0</ele>
        <time>2019-08-04T13:10:07.324Z</time>
      </trkpt>
      <trkpt lat="42.49979" lon="1.531235">
        <ele>1341.0</ele>
        <time>2019-08-04T13:10:08.324Z</time>
      </trkpt>
      <trkpt lat="42.49982167" lon="1.53126667">
        <ele>1341.0</ele>
        <time>2019-08-04T13:10:09.309Z</time>
      </trkpt>
      <trkpt lat="42.49982167" lon="1.53126667">
        <ele>1341.0</ele>
        <time>2019-08-04T13:10:10.310Z</time>
      </trkpt>
      <trkpt lat="42.49985167" lon="1.53129333">
        <ele>1341.0</ele>
        <time>2019-08-04T13:10:11.332Z</time>
      </trkpt>
      <trkpt lat="42.499885" lon="1.53131833">
        <ele>1341.0</ele>
        <time>2019-08-04T13:10:12.325Z</time>
      </trkpt>
      <trkpt lat="42.499885" lon="1.53131833">
        <ele>1341.0</ele>
        <time>2019-08-04T13:10:13.308Z</time>
      </trkpt>
      <trkpt lat="42.499885" lon="1.53131833">
        <ele>1341.0</ele>
        <time>2019-08-04T13:10:14.310Z</time>
      </trkpt>
      <trkpt lat="42.499915" lon="1.53135167">
        <ele>1342.0</ele>
        <time>2019-08-04T13:10:15.324Z</time>
      </trkpt>
      <trkpt lat="42.499915" lon="1.53135167">
        <ele>1342.0</ele>
        <time>2019-08-04T13:10:16.311Z</time>
      </trkpt>
      <trkpt lat="42.49994833" lon="1.53137667">
        <ele>1342.0</ele>
        <time>2019-08-04T13:10:17.324Z</time>
      </trkpt>
      <trkpt lat="42.49994833" lon="1.53137667">
        <ele>1342.0</ele>
        <time>2019-08-04T13:10:18.318Z</time>
      </trkpt>
      <trkpt lat="42.49998833" lon="1.5314">
        <ele>1343.0</ele>
        <time>2019-08-04T13:10:19.310Z</time>
      </trkpt>
      <trkpt lat="42.50002333" lon="1.531425">
        <ele>1343.0</ele>
        <time>2019-08-04T13:10:20.318Z</time>
      </trkpt>
      <trkpt lat="42.50002333" lon="1.531425">
        <ele>1343.0</ele>
        <time>2019-08-04T13:10:21.308Z</time>
      </trkpt>
      <trkpt lat="42.50002333" lon="1.531425">
        <ele>1343.0</ele>
        <time>2019-08-04T13:10:22.310Z</time>
      </trkpt>
      <trkpt lat="42.50005833" lon="1.531445">
        <ele>1343.0</ele>
        <time>2019-08-04T13:10:23.324Z</time>
      </trkpt>
      <trkpt lat="42.50009667" lon="1.53145667">
        <ele>1344.0</ele>
        <time>2019-08-04T13:10:24.320Z</time>
      </trkpt>
      <trkpt lat="42.50009667" lon="1.53145667">
        <ele>1344.0</ele>
        <time>2019-08-04T13:10:25.310Z</time>
      </trkpt>
      <trkpt lat="42.500135" lon="1.53147333">
        <ele>1345.0</ele>
        <time>2019-08-04T13:10:26.324Z</time>
      </trkpt>
      <trkpt lat="42.500135" lon="1.53147333">
        <ele>1345.0</ele>
        <time>2019-08-04T13:10:27.307Z</time>
      </trkpt>
      <trkpt lat="42.500135" lon="1.53147333">
        <ele>1345.0</ele>
        <time>2019-08-04T13:10:28.307Z</time>
      </trkpt>
      <trkpt lat="42.500175" lon="1.53147833">
        <ele>1345.0</ele>
        <time>2019-08-04T13:10:29.302Z</time>
      </trkpt>
      <trkpt lat="42.500215" lon="1.53147667">
        <ele>1346.0</ele>
        <time>2019-08-04T13:10:30.309Z</time>
      </trkpt>
      <trkpt lat="42.500215" lon="1.53147667">
        <ele>1346.0</ele>
        <time>2019-08-04T13:10:31.315Z</time>
      </trkpt>
      <trkpt lat="42.50025667" lon="1.53147167">
        <ele>1347.0</ele>
        <time>2019-08-04T13:10:32.321Z</time>
      </trkpt>
      <trkpt lat="42.50025667" lon="1.53147167">
        <ele>1347.0</ele>
        <time>2019-08-04T13:10:33.329Z</time>
      </trkpt>
      <trkpt lat="42.50025667" lon="1.53147167">
        <ele>1347.0</ele>
        <time>2019-08-04T13:10:34.311Z</time>
      </trkpt>
      <trkpt lat="42.50029833" lon="1.53146">
        <ele>1348.0</ele>
        <time>2019-08-04T13:10:35.324Z</time>
      </trkpt>
      <trkpt lat="42.50029833" lon="1.53146">
        <ele>1348.0</ele>
        <time>2019-08-04T13:10:36.311Z</time>
      </trkpt>
      <trkpt lat="42.50034" lon="1.53145">
        <ele>1348.0</ele>
        <time>2019-08-04T13:10:37.324Z</time>
      </trkpt>
      <trkpt lat="42.50034" lon="1.53145">
        <ele>1348.0</ele>
        <time>2019-08-04T13:10:38.333Z</time>
      </trkpt>
      <trkpt lat="42.50039167" lon="1.531445">
        <ele>1348.0</ele>
        <time>2019-08-04T13:10:39.311Z</time>
      </trkpt>
      <trkpt lat="42.50039167" lon="1.531445">
        <ele>1348.0</ele>
        <time>2019-08-04T13:10:40.311Z</time>
      </trkpt>
      <trkpt lat="42.50044333" lon="1.53142833">
        <ele>1348.0</ele>
        <time>2019-08-04T13:10:41.308Z</time>
      </trkpt>
      <trkpt lat="42.50044333" lon="1.53142833">
        <ele>1348.0</ele>
        <time>2019-08-04T13:10:42.315Z</time>
      </trkpt>
      <trkpt lat="42.50049" lon="1.531415">
        <ele>1348.0</ele>
        <time>2019-08-04T13:10:43.321Z</time>
      </trkpt>
      <trkpt lat="42.50049" lon="1.531415">
        <ele>1348.0</ele>
        <time>2019-08-04T13:10:44.311Z</time>
      </trkpt>
      <trkpt lat="42.50053833" lon="1.53139333">
        <ele>1349.0</ele>
        <time>2019-08-04T13:10:45.324Z</time>
      </trkpt>
      <trkpt lat="42.50053833" lon="1.53139333">
        <ele>1349.0</ele>
        <time>2019-08-04T13:10:46.311Z</time>
      </trkpt>
      <trkpt lat="42.50058667" lon="1.53137667">
        <ele>1350.0</ele>
        <time>2019-08-04T13:10:47.327Z</time>
      </trkpt>
      <trkpt lat="42.50058667" lon="1.53137667">
        <ele>1350.0</ele>
        <time>2019-08-04T13:10:48.333Z</time>
      </trkpt>
      <trkpt lat="42.50063167" lon="1.53136167">
        <ele>1350.0</ele>
        <time>2019-08-04T13:10:49.312Z</time>
      </trkpt>
      <trkpt lat="42.50063167" lon="1.53136167">
        <ele>1350.0</ele>
        <time>2019-08-04T13:10:50.311Z</time>
      </trkpt>
      <trkpt lat="42.500675" lon="1.53136333">
        <ele>1350.0</ele>
        <time>2019-08-04T13:10:51.324Z</time>
      </trkpt>
      <trkpt lat="42.500675" lon="1.53136333">
        <ele>1350.0</ele>
        <time>2019-08-04T13:10:52.310Z</time>
      </trkpt>
      <trkpt lat="42.50071167" lon="1.531375">
        <ele>1350.0</ele>
        <time>2019-08-04T13:10:53.307Z</time>
      </trkpt>
      <trkpt lat="42.50071167" lon="1.531375">
        <ele>1350.0</ele>
        <time>2019-08-04T13:10:54.311Z</time>
      </trkpt>
      <trkpt lat="42.50074333" lon="1.53143667">
        <ele>1351.0</ele>
        <time>2019-08-04T13:10:55.324Z</time>
      </trkpt>
      <trkpt lat="42.50074333" lon="1.53143667">
        <ele>1351.0</ele>
        <time>2019-08-04T13:10:56.311Z</time>
      </trkpt>
      <trkpt lat="42.50072833" lon="1.53151833">
        <ele>1350.0</ele>
        <time>2019-08-04T13:10:57.324Z</time>
      </trkpt>
      <trkpt lat="42.50072833" lon="1.53151833">
        <ele>1350.0</ele>
        <time>2019-08-04T13:10:58.308Z</time>
      </trkpt>
      <trkpt lat="42.50069" lon="1.53160333">
        <ele>1349.0</ele>
        <time>2019-08-04T13:10:59.331Z</time>
      </trkpt>
      <trkpt lat="42.50069" lon="1.53160333">
        <ele>1349.0</ele>
        <time>2019-08-04T13:11:00.309Z</time>
      </trkpt>
      <trkpt lat="42.50066167" lon="1.53164333">
        <ele>1349.0</ele>
        <time>2019-08-04T13:11:01.324Z</time>
      </trkpt>
      <trkpt lat="42.50059" lon="1.53172333">
        <ele>1348.0</ele>
        <time>2019-08-04T13:11:02.318Z</time>
      </trkpt>
      <trkpt lat="42.50059" lon="1.53172333">
        <ele>1348.0</ele>
        <time>2019-08-04T13:11:03.308Z</time>
      </trkpt>
      <trkpt lat="42.50059" lon="1.53172333">
        <ele>1348.0</ele>
        <time>2019-08-04T13:11:04.310Z</time>
      </trkpt>
      <trkpt lat="42.50052" lon="1.531805">
        <ele>1347.0</ele>
        <time>2019-08-04T13:11:05.322Z</time>
      </trkpt>
      <trkpt lat="42.50052" lon="1.531805">
        <ele>1347.0</ele>
        <time>2019-08-04T13:11:06.312Z</time>
      </trkpt>
      <trkpt lat="42.50045667" lon="1.53192167">
        <ele>1346.0</ele>
        <time>2019-08-04T13:11:07.319Z</time>
      </trkpt>
      <trkpt lat="42.50045667" lon="1.53192167">
        <ele>1346.0</ele>
        <time>2019-08-04T13:11:08.339Z</time>
      </trkpt>
      <trkpt lat="42.50041833" lon="1.53206833">
        <ele>1345.0</ele>
        <time>2019-08-04T13:11:09.325Z</time>
      </trkpt>
      <trkpt lat="42.50041833" lon="1.53206833">
        <ele>1345.0</ele>
        <time>2019-08-04T13:11:10.310Z</time>
      </trkpt>
      <trkpt lat="42.50037833" lon="1.53222833">
        <ele>1343.0</ele>
        <time>2019-08-04T13:11:11.324Z</time>
      </trkpt>
      <trkpt lat="42.50033" lon="1.53240667">
        <ele>1342.0</ele>
        <time>2019-08-04T13:11:12.324Z</time>
      </trkpt>
      <trkpt lat="42.50033" lon="1.53240667">
        <ele>1342.0</ele>
        <time>2019-08-04T13:11:13.310Z</time>
      </trkpt>
      <trkpt lat="42.50030167" lon="1.53250333">
        <ele>1342.0</ele>
        <time>2019-08-04T13:11:14.324Z</time>
      </trkpt>
      <trkpt lat="42.50030167" lon="1.53250333">
        <ele>1342.0</ele>
        <time>2019-08-04T13:11:15.311Z</time>
      </trkpt>
      <trkpt lat="42.50026" lon="1.53272833">
        <ele>1341.0</ele>
        <time>2019-08-04T13:11:16.324Z</time>
      </trkpt>
      <trkpt lat="42.50026" lon="1.53272833">
        <ele>1341.0</ele>
        <time>2019-08-04T13:11:17.310Z</time>
      </trkpt>
      <trkpt lat="42.50025333" lon="1.53295667">
        <ele>1340.0</ele>
        <time>2019-08-04T13:11:18.324Z</time>
      </trkpt>
      <trkpt lat="42.500285" lon="1.53316833">
        <ele>1339.0</ele>
        <time>2019-08-04T13:11:19.319Z</time>
      </trkpt>
      <trkpt lat="42.500285" lon="1.53316833">
        <ele>1339.0</ele>
        <time>2019-08-04T13:11:20.311Z</time>
      </trkpt>
      <trkpt lat="42.50032167" lon="1.53327">
        <ele>1339.0</ele>
        <time>2019-08-04T13:11:21.324Z</time>
      </trkpt>
      <trkpt lat="42.50032167" lon="1.53327">
        <ele>1339.0</ele>
        <time>2019-08-04T13:11:22.324Z</time>
      </trkpt>
      <trkpt lat="42.50042167" lon="1.53349">
        <ele>1338.0</ele>
        <time>2019-08-04T13:11:23.308Z</time>
      </trkpt>
      <trkpt lat="42.50042167" lon="1.53349">
        <ele>1338.0</ele>
        <time>2019-08-04T13:11:24.311Z</time>
      </trkpt>
      <trkpt lat="42.50053833" lon="1.53373667">
        <ele>1336.0</ele>
        <time>2019-08-04T13:11:25.324Z</time>
      </trkpt>
      <trkpt lat="42.50053833" lon="1.53373667">
        <ele>1336.0</ele>
        <time>2019-08-04T13:11:26.311Z</time>
      </trkpt>
      <trkpt lat="42.500675" lon="1.53398">
        <ele>1334.0</ele>
        <time>2019-08-04T13:11:27.308Z</time>
      </trkpt>
      <trkpt lat="42.500675" lon="1.53398">
        <ele>1334.0</ele>
        <time>2019-08-04T13:11:28.333Z</time>
      </trkpt>
      <trkpt lat="42.50086" lon="1.53419167">
        <ele>1332.0</ele>
        <time>2019-08-04T13:11:29.304Z</time>
      </trkpt>
      <trkpt lat="42.50086" lon="1.53419167">
        <ele>1332.0</ele>
        <time>2019-08-04T13:11:30.299Z</time>
      </trkpt>
      <trkpt lat="42.50108167" lon="1.53437167">
        <ele>1330.0</ele>
        <time>2019-08-04T13:11:31.310Z</time>
      </trkpt>
      <trkpt lat="42.50119333" lon="1.53446333">
        <ele>1328.0</ele>
        <time>2019-08-04T13:11:32.306Z</time>
      </trkpt>
      <trkpt lat="42.50119333" lon="1.53446333">
        <ele>1328.0</ele>
        <time>2019-08-04T13:11:33.311Z</time>
      </trkpt>
      <trkpt lat="42.5014" lon="1.534635">
        <ele>1326.0</ele>
        <time>2019-08-04T13:11:34.308Z</time>
      </trkpt>
      <trkpt lat="42.5014" lon="1.534635">
        <ele>1326.0</ele>
        <time>2019-08-04T13:11:35.311Z</time>
      </trkpt>
      <trkpt lat="42.50162" lon="1.53484333">
        <ele>1323.0</ele>
        <time>2019-08-04T13:11:36.324Z</time>
      </trkpt>
      <trkpt lat="42.50162" lon="1.53484333">
        <ele>1323.0</ele>
        <time>2019-08-04T13:11:37.308Z</time>
      </trkpt>
      <trkpt lat="42.50162" lon="1.53484333">
        <ele>1323.0</ele>
        <time>2019-08-04T13:11:38.319Z</time>
      </trkpt>
      <trkpt lat="42.50172667" lon="1.53485667">
        <ele>1319.0</ele>
        <time>2019-08-04T13:11:39.308Z</time>
      </trkpt>
      <trkpt lat="42.50172667" lon="1.53485667">
        <ele>1319.0</ele>
        <time>2019-08-04T13:11:40.311Z</time>
      </trkpt>
      <trkpt lat="42.501755" lon="1.53474">
        <ele>1318.0</ele>
        <time>2019-08-04T13:11:41.308Z</time>
      </trkpt>
      <trkpt lat="42.501755" lon="1.53474">
        <ele>1318.0</ele>
        <time>2019-08-04T13:11:42.304Z</time>
      </trkpt>
      <trkpt lat="42.50156" lon="1.53454">
        <ele>1315.0</ele>
        <time>2019-08-04T13:11:43.318Z</time>
      </trkpt>
      <trkpt lat="42.50156" lon="1.53454">
        <ele>1315.0</ele>
        <time>2019-08-04T13:11:44.312Z</time>
      </trkpt>
      <trkpt lat="42.50148" lon="1.53447">
        <ele>1314.0</ele>
        <time>2019-08-04T13:11:45.309Z</time>
      </trkpt>
      <trkpt lat="42.50148" lon="1.53447">
        <ele>1314.0</ele>
        <time>2019-08-04T13:11:46.310Z</time>
      </trkpt>
      <trkpt lat="42.50131667" lon="1.53429667">
        <ele>1311.0</ele>
        <time>2019-08-04T13:11:47.324Z</time>
      </trkpt>
      <trkpt lat="42.50131667" lon="1.53429667">
        <ele>1311.0</ele>
        <time>2019-08-04T13:11:48.325Z</time>
      </trkpt>
      <trkpt lat="42.50116167" lon="1.534085">
        <ele>1309.0</ele>
        <time>2019-08-04T13:11:49.305Z</time>
      </trkpt>
      <trkpt lat="42.50116167" lon="1.534085">
        <ele>1309.0</ele>
        <time>2019-08-04T13:11:50.311Z</time>
      </trkpt>
      <trkpt lat="42.50105333" lon="1.53383">
        <ele>1306.0</ele>
        <time>2019-08-04T13:11:51.324Z</time>
      </trkpt>
      <trkpt lat="42.50105333" lon="1.53383">
        <ele>1306.0</ele>
        <time>2019-08-04T13:11:52.326Z</time>
      </trkpt>
      <trkpt lat="42.50097667" lon="1.53354833">
        <ele>1304.0</ele>
        <time>2019-08-04T13:11:53.326Z</time>
      </trkpt>
      <trkpt lat="42.50092" lon="1.53329667">
        <ele>1302.0</ele>
        <time>2019-08-04T13:11:54.320Z</time>
      </trkpt>
      <trkpt lat="42.50092" lon="1.53329667">
        <ele>1302.0</ele>
        <time>2019-08-04T13:11:55.308Z</time>
      </trkpt>
      <trkpt lat="42.50093833" lon="1.53310167">
        <ele>1300.0</ele>
        <time>2019-08-04T13:11:56.330Z</time>
      </trkpt>
      <trkpt lat="42.50093833" lon="1.53310167">
        <ele>1300.0</ele>
        <time>2019-08-04T13:11:57.312Z</time>
      </trkpt>
      <trkpt lat="42.500985" lon="1.53306833">
        <ele>1298.0</ele>
        <time>2019-08-04T13:11:58.318Z</time>
      </trkpt>
      <trkpt lat="42.50103667" lon="1.53307">
        <ele>1297.0</ele>
        <time>2019-08-04T13:11:59.308Z</time>
      </trkpt>
      <trkpt lat="42.50103667" lon="1.53307">
        <ele>1297.0</ele>
        <time>2019-08-04T13:12:00.312Z</time>
      </trkpt>
      <trkpt lat="42.50107833" lon="1.53324">
        <ele>1294.0</ele>
        <time>2019-08-04T13:12:01.324Z</time>
      </trkpt>
      <trkpt lat="42.50107833" lon="1.53324">
        <ele>1294.0</ele>
        <time>2019-08-04T13:12:02.311Z</time>
      </trkpt>
      <trkpt lat="42.50121167" lon="1.53360333">
        <ele>1290.0</ele>
        <time>2019-08-04T13:12:03.324Z</time>
      </trkpt>
      <trkpt lat="42.50121167" lon="1.53360333">
        <ele>1290.0</ele>
        <time>2019-08-04T13:12:04.308Z</time>
      </trkpt>
      <trkpt lat="42.50121167" lon="1.53360333">
        <ele>1290.0</ele>
        <time>2019-08-04T13:12:05.310Z</time>
      </trkpt>
      <trkpt lat="42.50147" lon="1.53384667">
        <ele>1287.0</ele>
        <time>2019-08-04T13:12:06.320Z</time>
      </trkpt>
      <trkpt lat="42.50147" lon="1.53384667">
        <ele>1287.0</ele>
        <time>2019-08-04T13:12:07.306Z</time>
      </trkpt>
      <trkpt lat="42.50147" lon="1.53384667">
        <ele>1287.0</ele>
        <time>2019-08-04T13:12:08.325Z</time>
      </trkpt>
      <trkpt lat="42.501665" lon="1.53396">
        <ele>1285.0</ele>
        <time>2019-08-04T13:12:09.308Z</time>
      </trkpt>
      <trkpt lat="42.501665" lon="1.53396">
        <ele>1285.0</ele>
        <time>2019-08-04T13:12:10.311Z</time>
      </trkpt>
      <trkpt lat="42.50183" lon="1.5341">
        <ele>1284.0</ele>
        <time>2019-08-04T13:12:11.328Z</time>
      </trkpt>
      <trkpt lat="42.50195833" lon="1.53424833">
        <ele>1282.0</ele>
        <time>2019-08-04T13:12:12.318Z</time>
      </trkpt>
      <trkpt lat="42.50195833" lon="1.53424833">
        <ele>1282.0</ele>
        <time>2019-08-04T13:12:13.308Z</time>
      </trkpt>
      <trkpt lat="42.50195833" lon="1.53424833">
        <ele>1282.0</ele>
        <time>2019-08-04T13:12:14.312Z</time>
      </trkpt>
      <trkpt lat="42.50208" lon="1.53429667">
        <ele>1280.0</ele>
        <time>2019-08-04T13:12:15.325Z</time>
      </trkpt>
      <trkpt lat="42.50208" lon="1.53429667">
        <ele>1280.0</ele>
        <time>2019-08-04T13:12:16.311Z</time>
      </trkpt>
      <trkpt lat="42.50214667" lon="1.534165">
        <ele>1277.0</ele>
        <time>2019-08-04T13:12:17.308Z</time>
      </trkpt>
      <trkpt lat="42.50214667" lon="1.534165">
        <ele>1277.0</ele>
        <time>2019-08-04T13:12:18.324Z</time>
      </trkpt>
      <trkpt lat="42.50209667" lon="1.534">
        <ele>1276.0</ele>
        <time>2019-08-04T13:12:19.312Z</time>
      </trkpt>
      <trkpt lat="42.50204833" lon="1.53392">
        <ele>1274.0</ele>
        <time>2019-08-04T13:12:20.324Z</time>
      </trkpt>
      <trkpt lat="42.50204833" lon="1.53392">
        <ele>1274.0</ele>
        <time>2019-08-04T13:12:21.310Z</time>
      </trkpt>
      <trkpt lat="42.501935" lon="1.53371667">
        <ele>1273.0</ele>
        <time>2019-08-04T13:12:22.307Z</time>
      </trkpt>
      <trkpt lat="42.50181" lon="1.53349667">
        <ele>1271.0</ele>
        <time>2019-08-04T13:12:23.311Z</time>
      </trkpt>
      <trkpt lat="42.50181" lon="1.53349667">
        <ele>1271.0</ele>
        <time>2019-08-04T13:12:24.309Z</time>
      </trkpt>
      <trkpt lat="42.50181" lon="1.53349667">
        <ele>1271.0</ele>
        <time>2019-08-04T13:12:25.319Z</time>
      </trkpt>
      <trkpt lat="42.50172333" lon="1.53332333">
        <ele>1269.0</ele>
        <time>2019-08-04T13:12:26.308Z</time>
      </trkpt>
      <trkpt lat="42.50172333" lon="1.53332333">
        <ele>1269.0</ele>
        <time>2019-08-04T13:12:27.307Z</time>
      </trkpt>
      <trkpt lat="42.501755" lon="1.533175">
        <ele>1268.0</ele>
        <time>2019-08-04T13:12:28.328Z</time>
      </trkpt>
      <trkpt lat="42.50181333" lon="1.53317333">
        <ele>1266.0</ele>
        <time>2019-08-04T13:12:29.305Z</time>
      </trkpt>
      <trkpt lat="42.5019" lon="1.533285">
        <ele>1264.0</ele>
        <time>2019-08-04T13:12:30.305Z</time>
      </trkpt>
      <trkpt lat="42.5019" lon="1.533285">
        <ele>1264.0</ele>
        <time>2019-08-04T13:12:31.314Z</time>
      </trkpt>
      <trkpt lat="42.50200833" lon="1.53344167">
        <ele>1263.0</ele>
        <time>2019-08-04T13:12:32.320Z</time>
      </trkpt>
      <trkpt lat="42.50200833" lon="1.53344167">
        <ele>1263.0</ele>
        <time>2019-08-04T13:12:33.309Z</time>
      </trkpt>
      <trkpt lat="42.50200833" lon="1.53344167">
        <ele>1263.0</ele>
        <time>2019-08-04T13:12:34.310Z</time>
      </trkpt>
      <trkpt lat="42.50225167" lon="1.53368167">
        <ele>1261.0</ele>
        <time>2019-08-04T13:12:35.322Z</time>
      </trkpt>
      <trkpt lat="42.50225167" lon="1.53368167">
        <ele>1261.0</ele>
        <time>2019-08-04T13:12:36.309Z</time>
      </trkpt>
      <trkpt lat="42.50225167" lon="1.53368167">
        <ele>1261.0</ele>
        <time>2019-08-04T13:12:37.311Z</time>
      </trkpt>
      <trkpt lat="42.50243333" lon="1.533825">
        <ele>1260.0</ele>
        <time>2019-08-04T13:12:38.308Z</time>
      </trkpt>
      <trkpt lat="42.50243333" lon="1.533825">
        <ele>1260.0</ele>
        <time>2019-08-04T13:12:39.311Z</time>
      </trkpt>
      <trkpt lat="42.50261" lon="1.53396">
        <ele>1258.0</ele>
        <time>2019-08-04T13:12:40.324Z</time>
      </trkpt>
      <trkpt lat="42.50261" lon="1.53396">
        <ele>1258.0</ele>
        <time>2019-08-04T13:12:41.311Z</time>
      </trkpt>
      <trkpt lat="42.50273167" lon="1.53413333">
        <ele>1257.0</ele>
        <time>2019-08-04T13:12:42.325Z</time>
      </trkpt>
      <trkpt lat="42.50273167" lon="1.53413333">
        <ele>1257.0</ele>
        <time>2019-08-04T13:12:43.311Z</time>
      </trkpt>
      <trkpt lat="42.50273667" lon="1.534415">
        <ele>1256.0</ele>
        <time>2019-08-04T13:12:44.309Z</time>
      </trkpt>
      <trkpt lat="42.50273667" lon="1.534415">
        <ele>1256.0</ele>
        <time>2019-08-04T13:12:45.312Z</time>
      </trkpt>
      <trkpt lat="42.50282667" lon="1.53488833">
        <ele>1251.0</ele>
        <time>2019-08-04T13:12:46.324Z</time>
      </trkpt>
      <trkpt lat="42.50282667" lon="1.53488833">
        <ele>1251.0</ele>
        <time>2019-08-04T13:12:47.308Z</time>
      </trkpt>
      <trkpt lat="42.50282667" lon="1.53488833">
        <ele>1251.0</ele>
        <time>2019-08-04T13:12:48.322Z</time>
      </trkpt>
      <trkpt lat="42.50289833" lon="1.53523833">
        <ele>1249.0</ele>
        <time>2019-08-04T13:12:49.327Z</time>
      </trkpt>
      <trkpt lat="42.50289833" lon="1.53523833">
        <ele>1249.0</ele>
        <time>2019-08-04T13:12:50.311Z</time>
      </trkpt>
      <trkpt lat="42.502965" lon="1.53561333">
        <ele>1246.0</ele>
        <time>2019-08-04T13:12:51.309Z</time>
      </trkpt>
      <trkpt lat="42.502965" lon="1.53561333">
        <ele>1246.0</ele>
        <time>2019-08-04T13:12:52.310Z</time>
      </trkpt>
      <trkpt lat="42.50307" lon="1.53619833">
        <ele>1242.0</ele>
        <time>2019-08-04T13:12:53.322Z</time>
      </trkpt>
      <trkpt lat="42.50307" lon="1.53619833">
        <ele>1242.0</ele>
        <time>2019-08-04T13:12:54.309Z</time>
      </trkpt>
      <trkpt lat="42.50311167" lon="1.53639833">
        <ele>1240.0</ele>
        <time>2019-08-04T13:12:55.325Z</time>
      </trkpt>
      <trkpt lat="42.50311167" lon="1.53639833">
        <ele>1240.0</ele>
        <time>2019-08-04T13:12:56.311Z</time>
      </trkpt>
      <trkpt lat="42.50319833" lon="1.536795">
        <ele>1238.0</ele>
        <time>2019-08-04T13:12:57.333Z</time>
      </trkpt>
      <trkpt lat="42.50319833" lon="1.536795">
        <ele>1238.0</ele>
        <time>2019-08-04T13:12:58.317Z</time>
      </trkpt>
      <trkpt lat="42.503285" lon="1.53718">
        <ele>1237.0</ele>
        <time>2019-08-04T13:12:59.305Z</time>
      </trkpt>
      <trkpt lat="42.503285" lon="1.53718">
        <ele>1237.0</ele>
        <time>2019-08-04T13:13:00.312Z</time>
      </trkpt>
      <trkpt lat="42.50335333" lon="1.53756667">
        <ele>1235.0</ele>
        <time>2019-08-04T13:13:01.325Z</time>
      </trkpt>
      <trkpt lat="42.50335333" lon="1.53756667">
        <ele>1235.0</ele>
        <time>2019-08-04T13:13:02.312Z</time>
      </trkpt>
      <trkpt lat="42.50337167" lon="1.537955">
        <ele>1233.0</ele>
        <time>2019-08-04T13:13:03.339Z</time>
      </trkpt>
      <trkpt lat="42.50338833" lon="1.538335">
        <ele>1231.0</ele>
        <time>2019-08-04T13:13:04.320Z</time>
      </trkpt>
      <trkpt lat="42.50338833" lon="1.538335">
        <ele>1231.0</ele>
        <time>2019-08-04T13:13:05.309Z</time>
      </trkpt>
      <trkpt lat="42.50338833" lon="1.538335">
        <ele>1231.0</ele>
        <time>2019-08-04T13:13:06.312Z</time>
      </trkpt>
      <trkpt lat="42.503485" lon="1.53867">
        <ele>1229.0</ele>
        <time>2019-08-04T13:13:07.308Z</time>
      </trkpt>
      <trkpt lat="42.503485" lon="1.53867">
        <ele>1229.0</ele>
        <time>2019-08-04T13:13:08.324Z</time>
      </trkpt>
      <trkpt lat="42.503705" lon="1.53888167">
        <ele>1228.0</ele>
        <time>2019-08-04T13:13:09.311Z</time>
      </trkpt>
      <trkpt lat="42.50380833" lon="1.53897333">
        <ele>1228.0</ele>
        <time>2019-08-04T13:13:10.324Z</time>
      </trkpt>
      <trkpt lat="42.50380833" lon="1.53897333">
        <ele>1228.0</ele>
        <time>2019-08-04T13:13:11.311Z</time>
      </trkpt>
      <trkpt lat="42.50398833" lon="1.53919">
        <ele>1227.0</ele>
        <time>2019-08-04T13:13:12.312Z</time>
      </trkpt>
      <trkpt lat="42.50405833" lon="1.53932">
        <ele>1226.0</ele>
        <time>2019-08-04T13:13:13.325Z</time>
      </trkpt>
      <trkpt lat="42.50405833" lon="1.53932">
        <ele>1226.0</ele>
        <time>2019-08-04T13:13:14.309Z</time>
      </trkpt>
      <trkpt lat="42.50416667" lon="1.53957167">
        <ele>1226.0</ele>
        <time>2019-08-04T13:13:15.327Z</time>
      </trkpt>
      <trkpt lat="42.50416667" lon="1.53957167">
        <ele>1226.0</ele>
        <time>2019-08-04T13:13:16.310Z</time>
      </trkpt>
      <trkpt lat="42.50432667" lon="1.53972333">
        <ele>1226.0</ele>
        <time>2019-08-04T13:13:17.310Z</time>
      </trkpt>
      <trkpt lat="42.5045" lon="1.53982833">
        <ele>1227.0</ele>
        <time>2019-08-04T13:13:18.322Z</time>
      </trkpt>
      <trkpt lat="42.5045" lon="1.53982833">
        <ele>1227.0</ele>
        <time>2019-08-04T13:13:19.309Z</time>
      </trkpt>
      <trkpt lat="42.50465333" lon="1.539935">
        <ele>1227.0</ele>
        <time>2019-08-04T13:13:20.311Z</time>
      </trkpt>
      <trkpt lat="42.50465333" lon="1.539935">
        <ele>1227.0</ele>
        <time>2019-08-04T13:13:21.309Z</time>
      </trkpt>
      <trkpt lat="42.50465333" lon="1.539935">
        <ele>1227.0</ele>
        <time>2019-08-04T13:13:22.312Z</time>
      </trkpt>
      <trkpt lat="42.504795" lon="1.54005">
        <ele>1228.0</ele>
        <time>2019-08-04T13:13:23.307Z</time>
      </trkpt>
      <trkpt lat="42.50492333" lon="1.54017333">
        <ele>1228.0</ele>
        <time>2019-08-04T13:13:24.327Z</time>
      </trkpt>
      <trkpt lat="42.50492333" lon="1.54017333">
        <ele>1228.0</ele>
        <time>2019-08-04T13:13:25.310Z</time>
      </trkpt>
      <trkpt lat="42.504985" lon="1.54023167">
        <ele>1228.0</ele>
        <time>2019-08-04T13:13:26.324Z</time>
      </trkpt>
      <trkpt lat="42.504985" lon="1.54023167">
        <ele>1228.0</ele>
        <time>2019-08-04T13:13:27.319Z</time>
      </trkpt>
      <trkpt lat="42.50510167" lon="1.54034">
        <ele>1229.0</ele>
        <time>2019-08-04T13:13:28.309Z</time>
      </trkpt>
      <trkpt lat="42.50520667" lon="1.54044833">
        <ele>1230.0</ele>
        <time>2019-08-04T13:13:29.306Z</time>
      </trkpt>
      <trkpt lat="42.50525333" lon="1.5405">
        <ele>1230.0</ele>
        <time>2019-08-04T13:13:30.328Z</time>
      </trkpt>
      <trkpt lat="42.50525333" lon="1.5405">
        <ele>1230.0</ele>
        <time>2019-08-04T13:13:31.296Z</time>
      </trkpt>
      <trkpt lat="42.50525333" lon="1.5405">
        <ele>1230.0</ele>
        <time>2019-08-04T13:13:32.312Z</time>
      </trkpt>
      <trkpt lat="42.505335" lon="1.54060833">
        <ele>1231.0</ele>
        <time>2019-08-04T13:13:33.316Z</time>
      </trkpt>
      <trkpt lat="42.50539333" lon="1.54072833">
        <ele>1233.0</ele>
        <time>2019-08-04T13:13:34.311Z</time>
      </trkpt>
      <trkpt lat="42.50539333" lon="1.54072833">
        <ele>1233.0</ele>
        <time>2019-08-04T13:13:35.309Z</time>
      </trkpt>
      <trkpt lat="42.50539333" lon="1.54072833">
        <ele>1233.0</ele>
        <time>2019-08-04T13:13:36.312Z</time>
      </trkpt>
      <trkpt lat="42.50543333" lon="1.54085833">
        <ele>1233.0</ele>
        <time>2019-08-04T13:13:37.325Z</time>
      </trkpt>
      <trkpt lat="42.50543333" lon="1.54085833">
        <ele>1233.0</ele>
        <time>2019-08-04T13:13:38.325Z</time>
      </trkpt>
      <trkpt lat="42.50547" lon="1.54099">
        <ele>1234.0</ele>
        <time>2019-08-04T13:13:39.313Z</time>
      </trkpt>
      <trkpt lat="42.50547" lon="1.54099">
        <ele>1234.0</ele>
        <time>2019-08-04T13:13:40.312Z</time>
      </trkpt>
      <trkpt lat="42.50550333" lon="1.541125">
        <ele>1235.0</ele>
        <time>2019-08-04T13:13:41.324Z</time>
      </trkpt>
      <trkpt lat="42.50550333" lon="1.541125">
        <ele>1235.0</ele>
        <time>2019-08-04T13:13:42.312Z</time>
      </trkpt>
      <trkpt lat="42.50553333" lon="1.54125833">
        <ele>1235.0</ele>
        <time>2019-08-04T13:13:43.325Z</time>
      </trkpt>
      <trkpt lat="42.50553333" lon="1.54125833">
        <ele>1235.0</ele>
        <time>2019-08-04T13:13:44.312Z</time>
      </trkpt>
      <trkpt lat="42.505555" lon="1.541395">
        <ele>1236.0</ele>
        <time>2019-08-04T13:13:45.335Z</time>
      </trkpt>
      <trkpt lat="42.50556833" lon="1.54153333">
        <ele>1236.0</ele>
        <time>2019-08-04T13:13:46.318Z</time>
      </trkpt>
      <trkpt lat="42.50556833" lon="1.54153333">
        <ele>1236.0</ele>
        <time>2019-08-04T13:13:47.312Z</time>
      </trkpt>
      <trkpt lat="42.505575" lon="1.54160167">
        <ele>1237.0</ele>
        <time>2019-08-04T13:13:48.342Z</time>
      </trkpt>
      <trkpt lat="42.50558667" lon="1.54167167">
        <ele>1237.0</ele>
        <time>2019-08-04T13:13:49.312Z</time>
      </trkpt>
      <trkpt lat="42.50558667" lon="1.54167167">
        <ele>1237.0</ele>
        <time>2019-08-04T13:13:50.312Z</time>
      </trkpt>
      <trkpt lat="42.50560333" lon="1.54181">
        <ele>1236.0</ele>
        <time>2019-08-04T13:13:51.330Z</time>
      </trkpt>
      <trkpt lat="42.50560333" lon="1.54181">
        <ele>1236.0</ele>
        <time>2019-08-04T13:13:52.314Z</time>
      </trkpt>
      <trkpt lat="42.50562667" lon="1.54195333">
        <ele>1236.0</ele>
        <time>2019-08-04T13:13:53.319Z</time>
      </trkpt>
      <trkpt lat="42.50562667" lon="1.54195333">
        <ele>1236.0</ele>
        <time>2019-08-04T13:13:54.312Z</time>
      </trkpt>
      <trkpt lat="42.505645" lon="1.54210167">
        <ele>1236.0</ele>
        <time>2019-08-04T13:13:55.309Z</time>
      </trkpt>
      <trkpt lat="42.505645" lon="1.54210167">
        <ele>1236.0</ele>
        <time>2019-08-04T13:13:56.311Z</time>
      </trkpt>
      <trkpt lat="42.50568167" lon="1.54225167">
        <ele>1235.0</ele>
        <time>2019-08-04T13:13:57.337Z</time>
      </trkpt>
      <trkpt lat="42.50571" lon="1.54239833">
        <ele>1235.0</ele>
        <time>2019-08-04T13:13:58.322Z</time>
      </trkpt>
      <trkpt lat="42.50571" lon="1.54239833">
        <ele>1235.0</ele>
        <time>2019-08-04T13:13:59.324Z</time>
      </trkpt>
      <trkpt lat="42.50571" lon="1.54239833">
        <ele>1235.0</ele>
        <time>2019-08-04T13:14:00.310Z</time>
      </trkpt>
      <trkpt lat="42.50574167" lon="1.54254333">
        <ele>1235.0</ele>
        <time>2019-08-04T13:14:01.325Z</time>
      </trkpt>
      <trkpt lat="42.50574167" lon="1.54254333">
        <ele>1235.0</ele>
        <time>2019-08-04T13:14:02.311Z</time>
      </trkpt>
      <trkpt lat="42.50577" lon="1.54268833">
        <ele>1236.0</ele>
        <time>2019-08-04T13:14:03.324Z</time>
      </trkpt>
      <trkpt lat="42.50580667" lon="1.54283333">
        <ele>1235.0</ele>
        <time>2019-08-04T13:14:04.319Z</time>
      </trkpt>
      <trkpt lat="42.50580667" lon="1.54283333">
        <ele>1235.0</ele>
        <time>2019-08-04T13:14:05.308Z</time>
      </trkpt>
      <trkpt lat="42.50585" lon="1.54297667">
        <ele>1235.0</ele>
        <time>2019-08-04T13:14:06.328Z</time>
      </trkpt>
      <trkpt lat="42.50585" lon="1.54297667">
        <ele>1235.0</ele>
        <time>2019-08-04T13:14:07.309Z</time>
      </trkpt>
      <trkpt lat="42.50585" lon="1.54297667">
        <ele>1235.0</ele>
        <time>2019-08-04T13:14:08.320Z</time>
      </trkpt>
      <trkpt lat="42.50588667" lon="1.54312333">
        <ele>1236.0</ele>
        <time>2019-08-04T13:14:09.520Z</time>
      </trkpt>
      <trkpt lat="42.50590667" lon="1.54319833">
        <ele>1236.0</ele>
        <time>2019-08-04T13:14:10.312Z</time>
      </trkpt>
      <trkpt lat="42.50590667" lon="1.54319833">
        <ele>1236.0</ele>
        <time>2019-08-04T13:14:11.312Z</time>
      </trkpt>
      <trkpt lat="42.50595" lon="1.54334667">
        <ele>1236.0</ele>
        <time>2019-08-04T13:14:12.314Z</time>
      </trkpt>
      <trkpt lat="42.50596833" lon="1.54342333">
        <ele>1237.0</ele>
        <time>2019-08-04T13:14:13.303Z</time>
      </trkpt>
      <trkpt lat="42.50596833" lon="1.54342333">
        <ele>1237.0</ele>
        <time>2019-08-04T13:14:14.309Z</time>
      </trkpt>
      <trkpt lat="42.50601833" lon="1.54357667">
        <ele>1236.0</ele>
        <time>2019-08-04T13:14:15.308Z</time>
      </trkpt>
      <trkpt lat="42.50601833" lon="1.54357667">
        <ele>1236.0</ele>
        <time>2019-08-04T13:14:16.312Z</time>
      </trkpt>
      <trkpt lat="42.50606667" lon="1.54373333">
        <ele>1236.0</ele>
        <time>2019-08-04T13:14:17.325Z</time>
      </trkpt>
      <trkpt lat="42.50606667" lon="1.54373333">
        <ele>1236.0</ele>
        <time>2019-08-04T13:14:18.343Z</time>
      </trkpt>
      <trkpt lat="42.50610833" lon="1.54389333">
        <ele>1236.0</ele>
        <time>2019-08-04T13:14:19.312Z</time>
      </trkpt>
      <trkpt lat="42.50610833" lon="1.54389333">
        <ele>1236.0</ele>
        <time>2019-08-04T13:14:20.311Z</time>
      </trkpt>
      <trkpt lat="42.50613667" lon="1.544065">
        <ele>1236.0</ele>
        <time>2019-08-04T13:14:21.329Z</time>
      </trkpt>
      <trkpt lat="42.50613667" lon="1.544065">
        <ele>1236.0</ele>
        <time>2019-08-04T13:14:22.312Z</time>
      </trkpt>
      <trkpt lat="42.50615667" lon="1.54424167">
        <ele>1236.0</ele>
        <time>2019-08-04T13:14:23.326Z</time>
      </trkpt>
      <trkpt lat="42.50615667" lon="1.54424167">
        <ele>1236.0</ele>
        <time>2019-08-04T13:14:24.312Z</time>
      </trkpt>
      <trkpt lat="42.50617167" lon="1.54442667">
        <ele>1236.0</ele>
        <time>2019-08-04T13:14:25.324Z</time>
      </trkpt>
      <trkpt lat="42.50617167" lon="1.54442667">
        <ele>1236.0</ele>
        <time>2019-08-04T13:14:26.311Z</time>
      </trkpt>
      <trkpt lat="42.50618833" lon="1.54470667">
        <ele>1235.0</ele>
        <time>2019-08-04T13:14:27.329Z</time>
      </trkpt>
      <trkpt lat="42.50618833" lon="1.54470667">
        <ele>1235.0</ele>
        <time>2019-08-04T13:14:28.309Z</time>
      </trkpt>
      <trkpt lat="42.50619667" lon="1.5449">
        <ele>1235.0</ele>
        <time>2019-08-04T13:14:29.302Z</time>
      </trkpt>
      <trkpt lat="42.50619333" lon="1.545">
        <ele>1235.0</ele>
        <time>2019-08-04T13:14:30.332Z</time>
      </trkpt>
      <trkpt lat="42.50619333" lon="1.545">
        <ele>1235.0</ele>
        <time>2019-08-04T13:14:31.306Z</time>
      </trkpt>
      <trkpt lat="42.50619333" lon="1.545">
        <ele>1235.0</ele>
        <time>2019-08-04T13:14:32.324Z</time>
      </trkpt>
      <trkpt lat="42.50618667" lon="1.54520167">
        <ele>1234.0</ele>
        <time>2019-08-04T13:14:33.308Z</time>
      </trkpt>
      <trkpt lat="42.50618667" lon="1.54520167">
        <ele>1234.0</ele>
        <time>2019-08-04T13:14:34.331Z</time>
      </trkpt>
      <trkpt lat="42.50617333" lon="1.5454">
        <ele>1234.0</ele>
        <time>2019-08-04T13:14:35.315Z</time>
      </trkpt>
      <trkpt lat="42.50617333" lon="1.5454">
        <ele>1234.0</ele>
        <time>2019-08-04T13:14:36.313Z</time>
      </trkpt>
      <trkpt lat="42.506155" lon="1.54560167">
        <ele>1233.0</ele>
        <time>2019-08-04T13:14:37.308Z</time>
      </trkpt>
      <trkpt lat="42.506155" lon="1.54560167">
        <ele>1233.0</ele>
        <time>2019-08-04T13:14:38.309Z</time>
      </trkpt>
      <trkpt lat="42.506135" lon="1.54580833">
        <ele>1232.0</ele>
        <time>2019-08-04T13:14:39.309Z</time>
      </trkpt>
      <trkpt lat="42.506135" lon="1.54580833">
        <ele>1232.0</ele>
        <time>2019-08-04T13:14:40.311Z</time>
      </trkpt>
      <trkpt lat="42.50609333" lon="1.54611333">
        <ele>1232.0</ele>
        <time>2019-08-04T13:14:41.324Z</time>
      </trkpt>
      <trkpt lat="42.50609333" lon="1.54611333">
        <ele>1232.0</ele>
        <time>2019-08-04T13:14:42.313Z</time>
      </trkpt>
      <trkpt lat="42.50606833" lon="1.54621">
        <ele>1232.0</ele>
        <time>2019-08-04T13:14:43.326Z</time>
      </trkpt>
      <trkpt lat="42.50606833" lon="1.54621">
        <ele>1232.0</ele>
        <time>2019-08-04T13:14:44.312Z</time>
      </trkpt>
      <trkpt lat="42.506005" lon="1.54639833">
        <ele>1232.0</ele>
        <time>2019-08-04T13:14:45.325Z</time>
      </trkpt>
      <trkpt lat="42.50593667" lon="1.546585">
        <ele>1232.0</ele>
        <time>2019-08-04T13:14:46.319Z</time>
      </trkpt>
      <trkpt lat="42.50593667" lon="1.546585">
        <ele>1232.0</ele>
        <time>2019-08-04T13:14:47.308Z</time>
      </trkpt>
      <trkpt lat="42.50587" lon="1.546765">
        <ele>1232.0</ele>
        <time>2019-08-04T13:14:48.331Z</time>
      </trkpt>
      <trkpt lat="42.50587" lon="1.546765">
        <ele>1232.0</ele>
        <time>2019-08-04T13:14:49.309Z</time>
      </trkpt>
      <trkpt lat="42.50587" lon="1.546765">
        <ele>1232.0</ele>
        <time>2019-08-04T13:14:50.311Z</time>
      </trkpt>
      <trkpt lat="42.50580167" lon="1.54694">
        <ele>1232.0</ele>
        <time>2019-08-04T13:14:51.331Z</time>
      </trkpt>
      <trkpt lat="42.50580167" lon="1.54694">
        <ele>1232.0</ele>
        <time>2019-08-04T13:14:52.312Z</time>
      </trkpt>
      <trkpt lat="42.50573167" lon="1.54711333">
        <ele>1232.0</ele>
        <time>2019-08-04T13:14:53.306Z</time>
      </trkpt>
      <trkpt lat="42.50566167" lon="1.54728667">
        <ele>1232.0</ele>
        <time>2019-08-04T13:14:54.332Z</time>
      </trkpt>
      <trkpt lat="42.50566167" lon="1.54728667">
        <ele>1232.0</ele>
        <time>2019-08-04T13:14:55.308Z</time>
      </trkpt>
      <trkpt lat="42.50558833" lon="1.547455">
        <ele>1233.0</ele>
        <time>2019-08-04T13:14:56.332Z</time>
      </trkpt>
      <trkpt lat="42.50558833" lon="1.547455">
        <ele>1233.0</ele>
        <time>2019-08-04T13:14:57.308Z</time>
      </trkpt>
      <trkpt lat="42.50558833" lon="1.547455">
        <ele>1233.0</ele>
        <time>2019-08-04T13:14:58.325Z</time>
      </trkpt>
      <trkpt lat="42.50550833" lon="1.54761667">
        <ele>1233.0</ele>
        <time>2019-08-04T13:14:59.308Z</time>
      </trkpt>
      <trkpt lat="42.50550833" lon="1.54761667">
        <ele>1233.0</ele>
        <time>2019-08-04T13:15:00.311Z</time>
      </trkpt>
      <trkpt lat="42.50543333" lon="1.54778167">
        <ele>1233.0</ele>
        <time>2019-08-04T13:15:01.328Z</time>
      </trkpt>
      <trkpt lat="42.50543333" lon="1.54778167">
        <ele>1233.0</ele>
        <time>2019-08-04T13:15:02.311Z</time>
      </trkpt>
      <trkpt lat="42.50537" lon="1.54795833">
        <ele>1233.0</ele>
        <time>2019-08-04T13:15:03.324Z</time>
      </trkpt>
      <trkpt lat="42.50532167" lon="1.54814167">
        <ele>1233.0</ele>
        <time>2019-08-04T13:15:04.318Z</time>
      </trkpt>
      <trkpt lat="42.50532167" lon="1.54814167">
        <ele>1233.0</ele>
        <time>2019-08-04T13:15:05.311Z</time>
      </trkpt>
      <trkpt lat="42.5053" lon="1.54823167">
        <ele>1233.0</ele>
        <time>2019-08-04T13:15:06.528Z</time>
      </trkpt>
      <trkpt lat="42.50528167" lon="1.54832167">
        <ele>1233.0</ele>
        <time>2019-08-04T13:15:07.309Z</time>
      </trkpt>
      <trkpt lat="42.50528167" lon="1.54832167">
        <ele>1233.0</ele>
        <time>2019-08-04T13:15:08.322Z</time>
      </trkpt>
      <trkpt lat="42.50523667" lon="1.5485">
        <ele>1233.0</ele>
        <time>2019-08-04T13:15:09.332Z</time>
      </trkpt>
      <trkpt lat="42.50523667" lon="1.5485">
        <ele>1233.0</ele>
        <time>2019-08-04T13:15:10.313Z</time>
      </trkpt>
      <trkpt lat="42.50519667" lon="1.54867833">
        <ele>1233.0</ele>
        <time>2019-08-04T13:15:11.306Z</time>
      </trkpt>
      <trkpt lat="42.50519667" lon="1.54867833">
        <ele>1233.0</ele>
        <time>2019-08-04T13:15:12.312Z</time>
      </trkpt>
      <trkpt lat="42.50516" lon="1.54885667">
        <ele>1233.0</ele>
        <time>2019-08-04T13:15:13.312Z</time>
      </trkpt>
      <trkpt lat="42.50513667" lon="1.548945">
        <ele>1233.0</ele>
        <time>2019-08-04T13:15:14.324Z</time>
      </trkpt>
      <trkpt lat="42.50513667" lon="1.548945">
        <ele>1233.0</ele>
        <time>2019-08-04T13:15:15.311Z</time>
      </trkpt>
      <trkpt lat="42.50508167" lon="1.54911667">
        <ele>1233.0</ele>
        <time>2019-08-04T13:15:16.309Z</time>
      </trkpt>
      <trkpt lat="42.50508167" lon="1.54911667">
        <ele>1233.0</ele>
        <time>2019-08-04T13:15:17.311Z</time>
      </trkpt>
      <trkpt lat="42.505025" lon="1.54928167">
        <ele>1234.0</ele>
        <time>2019-08-04T13:15:18.334Z</time>
      </trkpt>
      <trkpt lat="42.50499833" lon="1.54936">
        <ele>1235.0</ele>
        <time>2019-08-04T13:15:19.309Z</time>
      </trkpt>
      <trkpt lat="42.50499833" lon="1.54936">
        <ele>1235.0</ele>
        <time>2019-08-04T13:15:20.312Z</time>
      </trkpt>
      <trkpt lat="42.50493333" lon="1.54951167">
        <ele>1235.0</ele>
        <time>2019-08-04T13:15:21.328Z</time>
      </trkpt>
      <trkpt lat="42.50493333" lon="1.54951167">
        <ele>1235.0</ele>
        <time>2019-08-04T13:15:22.311Z</time>
      </trkpt>
      <trkpt lat="42.504865" lon="1.54965667">
        <ele>1235.0</ele>
        <time>2019-08-04T13:15:23.311Z</time>
      </trkpt>
      <trkpt lat="42.50483667" lon="1.54972833">
        <ele>1235.0</ele>
        <time>2019-08-04T13:15:24.324Z</time>
      </trkpt>
      <trkpt lat="42.50483667" lon="1.54972833">
        <ele>1235.0</ele>
        <time>2019-08-04T13:15:25.311Z</time>
      </trkpt>
      <trkpt lat="42.50476667" lon="1.54986167">
        <ele>1235.0</ele>
        <time>2019-08-04T13:15:26.326Z</time>
      </trkpt>
      <trkpt lat="42.50476667" lon="1.54986167">
        <ele>1235.0</ele>
        <time>2019-08-04T13:15:27.312Z</time>
      </trkpt>
      <trkpt lat="42.50470333" lon="1.55000667">
        <ele>1235.0</ele>
        <time>2019-08-04T13:15:28.324Z</time>
      </trkpt>
      <trkpt lat="42.50463333" lon="1.55015167">
        <ele>1235.0</ele>
        <time>2019-08-04T13:15:29.304Z</time>
      </trkpt>
      <trkpt lat="42.50463333" lon="1.55015167">
        <ele>1235.0</ele>
        <time>2019-08-04T13:15:30.327Z</time>
      </trkpt>
      <trkpt lat="42.50459833" lon="1.55022833">
        <ele>1235.0</ele>
        <time>2019-08-04T13:15:31.298Z</time>
      </trkpt>
      <trkpt lat="42.50459833" lon="1.55022833">
        <ele>1235.0</ele>
        <time>2019-08-04T13:15:32.312Z</time>
      </trkpt>
      <trkpt lat="42.50453167" lon="1.55038167">
        <ele>1235.0</ele>
        <time>2019-08-04T13:15:33.325Z</time>
      </trkpt>
      <trkpt lat="42.50453167" lon="1.55038167">
        <ele>1235.0</ele>
        <time>2019-08-04T13:15:34.351Z</time>
      </trkpt>
      <trkpt lat="42.504435" lon="1.55061833">
        <ele>1234.0</ele>
        <time>2019-08-04T13:15:35.323Z</time>
      </trkpt>
      <trkpt lat="42.504435" lon="1.55061833">
        <ele>1234.0</ele>
        <time>2019-08-04T13:15:36.313Z</time>
      </trkpt>
      <trkpt lat="42.5044" lon="1.55069667">
        <ele>1234.0</ele>
        <time>2019-08-04T13:15:37.309Z</time>
      </trkpt>
      <trkpt lat="42.5044" lon="1.55069667">
        <ele>1234.0</ele>
        <time>2019-08-04T13:15:38.324Z</time>
      </trkpt>
      <trkpt lat="42.50433833" lon="1.55086">
        <ele>1234.0</ele>
        <time>2019-08-04T13:15:39.315Z</time>
      </trkpt>
      <trkpt lat="42.50433833" lon="1.55086">
        <ele>1234.0</ele>
        <time>2019-08-04T13:15:40.311Z</time>
      </trkpt>
      <trkpt lat="42.50426167" lon="1.55110833">
        <ele>1233.0</ele>
        <time>2019-08-04T13:15:41.324Z</time>
      </trkpt>
      <trkpt lat="42.50426167" lon="1.55110833">
        <ele>1233.0</ele>
        <time>2019-08-04T13:15:42.313Z</time>
      </trkpt>
      <trkpt lat="42.50423167" lon="1.55119">
        <ele>1233.0</ele>
        <time>2019-08-04T13:15:43.327Z</time>
      </trkpt>
      <trkpt lat="42.50423167" lon="1.55119">
        <ele>1233.0</ele>
        <time>2019-08-04T13:15:44.309Z</time>
      </trkpt>
      <trkpt lat="42.50419" lon="1.55135667">
        <ele>1233.0</ele>
        <time>2019-08-04T13:15:45.310Z</time>
      </trkpt>
      <trkpt lat="42.50419" lon="1.55135667">
        <ele>1233.0</ele>
        <time>2019-08-04T13:15:46.311Z</time>
      </trkpt>
      <trkpt lat="42.50415" lon="1.55152333">
        <ele>1233.0</ele>
        <time>2019-08-04T13:15:47.309Z</time>
      </trkpt>
      <trkpt lat="42.50415" lon="1.55152333">
        <ele>1233.0</ele>
        <time>2019-08-04T13:15:48.325Z</time>
      </trkpt>
      <trkpt lat="42.50411" lon="1.551685">
        <ele>1234.0</ele>
        <time>2019-08-04T13:15:49.314Z</time>
      </trkpt>
      <trkpt lat="42.50411" lon="1.551685">
        <ele>1234.0</ele>
        <time>2019-08-04T13:15:50.312Z</time>
      </trkpt>
      <trkpt lat="42.50407833" lon="1.55183667">
        <ele>1234.0</ele>
        <time>2019-08-04T13:15:51.328Z</time>
      </trkpt>
      <trkpt lat="42.50407833" lon="1.55183667">
        <ele>1234.0</ele>
        <time>2019-08-04T13:15:52.308Z</time>
      </trkpt>
      <trkpt lat="42.50407167" lon="1.552065">
        <ele>1233.0</ele>
        <time>2019-08-04T13:15:53.324Z</time>
      </trkpt>
      <trkpt lat="42.50407167" lon="1.552065">
        <ele>1233.0</ele>
        <time>2019-08-04T13:15:54.311Z</time>
      </trkpt>
      <trkpt lat="42.50407167" lon="1.552065">
        <ele>1233.0</ele>
        <time>2019-08-04T13:15:55.312Z</time>
      </trkpt>
      <trkpt lat="42.504165" lon="1.55223833">
        <ele>1232.0</ele>
        <time>2019-08-04T13:15:56.324Z</time>
      </trkpt>
      <trkpt lat="42.504165" lon="1.55223833">
        <ele>1232.0</ele>
        <time>2019-08-04T13:15:57.306Z</time>
      </trkpt>
      <trkpt lat="42.504165" lon="1.55223833">
        <ele>1232.0</ele>
        <time>2019-08-04T13:15:58.324Z</time>
      </trkpt>
      <trkpt lat="42.50428333" lon="1.55222667">
        <ele>1230.0</ele>
        <time>2019-08-04T13:15:59.313Z</time>
      </trkpt>
      <trkpt lat="42.50428333" lon="1.55222667">
        <ele>1230.0</ele>
        <time>2019-08-04T13:16:00.312Z</time>
      </trkpt>
      <trkpt lat="42.504425" lon="1.55214667">
        <ele>1227.0</ele>
        <time>2019-08-04T13:16:01.324Z</time>
      </trkpt>
      <trkpt lat="42.504425" lon="1.55214667">
        <ele>1227.0</ele>
        <time>2019-08-04T13:16:02.311Z</time>
      </trkpt>
      <trkpt lat="42.50458833" lon="1.55203667">
        <ele>1224.0</ele>
        <time>2019-08-04T13:16:03.324Z</time>
      </trkpt>
      <trkpt lat="42.50458833" lon="1.55203667">
        <ele>1224.0</ele>
        <time>2019-08-04T13:16:04.312Z</time>
      </trkpt>
      <trkpt lat="42.50474833" lon="1.55186167">
        <ele>1222.0</ele>
        <time>2019-08-04T13:16:05.325Z</time>
      </trkpt>
      <trkpt lat="42.50474833" lon="1.55186167">
        <ele>1222.0</ele>
        <time>2019-08-04T13:16:06.313Z</time>
      </trkpt>
      <trkpt lat="42.50486833" lon="1.55161">
        <ele>1220.0</ele>
        <time>2019-08-04T13:16:07.309Z</time>
      </trkpt>
      <trkpt lat="42.50486833" lon="1.55161">
        <ele>1220.0</ele>
        <time>2019-08-04T13:16:08.320Z</time>
      </trkpt>
      <trkpt lat="42.50500667" lon="1.55135333">
        <ele>1218.0</ele>
        <time>2019-08-04T13:16:09.306Z</time>
      </trkpt>
      <trkpt lat="42.50510333" lon="1.55125333">
        <ele>1218.0</ele>
        <time>2019-08-04T13:16:10.314Z</time>
      </trkpt>
      <trkpt lat="42.50534167" lon="1.55113333">
        <ele>1216.0</ele>
        <time>2019-08-04T13:16:11.323Z</time>
      </trkpt>
      <trkpt lat="42.50547" lon="1.55108667">
        <ele>1214.0</ele>
        <time>2019-08-04T13:16:12.314Z</time>
      </trkpt>
      <trkpt lat="42.50547" lon="1.55108667">
        <ele>1214.0</ele>
        <time>2019-08-04T13:16:13.306Z</time>
      </trkpt>
      <trkpt lat="42.50547" lon="1.55108667">
        <ele>1214.0</ele>
        <time>2019-08-04T13:16:14.311Z</time>
      </trkpt>
      <trkpt lat="42.50587167" lon="1.55091333">
        <ele>1211.0</ele>
        <time>2019-08-04T13:16:15.325Z</time>
      </trkpt>
      <trkpt lat="42.50587167" lon="1.55091333">
        <ele>1211.0</ele>
        <time>2019-08-04T13:16:16.324Z</time>
      </trkpt>
      <trkpt lat="42.50587167" lon="1.55091333">
        <ele>1211.0</ele>
        <time>2019-08-04T13:16:17.311Z</time>
      </trkpt>
      <trkpt lat="42.50613" lon="1.55071667">
        <ele>1208.0</ele>
        <time>2019-08-04T13:16:18.343Z</time>
      </trkpt>
      <trkpt lat="42.50626" lon="1.55061667">
        <ele>1207.0</ele>
        <time>2019-08-04T13:16:19.313Z</time>
      </trkpt>
      <trkpt lat="42.50626" lon="1.55061667">
        <ele>1207.0</ele>
        <time>2019-08-04T13:16:20.311Z</time>
      </trkpt>
      <trkpt lat="42.50668" lon="1.55033833">
        <ele>1204.0</ele>
        <time>2019-08-04T13:16:21.325Z</time>
      </trkpt>
      <trkpt lat="42.50668" lon="1.55033833">
        <ele>1204.0</ele>
        <time>2019-08-04T13:16:22.307Z</time>
      </trkpt>
      <trkpt lat="42.50668" lon="1.55033833">
        <ele>1204.0</ele>
        <time>2019-08-04T13:16:23.312Z</time>
      </trkpt>
      <trkpt lat="42.507115" lon="1.55004667">
        <ele>1200.0</ele>
        <time>2019-08-04T13:16:24.325Z</time>
      </trkpt>
      <trkpt lat="42.507115" lon="1.55004667">
        <ele>1200.0</ele>
        <time>2019-08-04T13:16:25.309Z</time>
      </trkpt>
      <trkpt lat="42.507115" lon="1.55004667">
        <ele>1200.0</ele>
        <time>2019-08-04T13:16:26.312Z</time>
      </trkpt>
      <trkpt lat="42.5074" lon="1.54984833">
        <ele>1197.0</ele>
        <time>2019-08-04T13:16:27.308Z</time>
      </trkpt>
      <trkpt lat="42.5074" lon="1.54984833">
        <ele>1197.0</ele>
        <time>2019-08-04T13:16:28.349Z</time>
      </trkpt>
      <trkpt lat="42.50766333" lon="1.549675">
        <ele>1193.0</ele>
        <time>2019-08-04T13:16:29.314Z</time>
      </trkpt>
      <trkpt lat="42.50766333" lon="1.549675">
        <ele>1193.0</ele>
        <time>2019-08-04T13:16:30.324Z</time>
      </trkpt>
      <trkpt lat="42.50791667" lon="1.54946167">
        <ele>1190.0</ele>
        <time>2019-08-04T13:16:31.329Z</time>
      </trkpt>
      <trkpt lat="42.50791667" lon="1.54946167">
        <ele>1190.0</ele>
        <time>2019-08-04T13:16:32.296Z</time>
      </trkpt>
      <trkpt lat="42.50793667" lon="1.54929667">
        <ele>1187.0</ele>
        <time>2019-08-04T13:16:33.307Z</time>
      </trkpt>
      <trkpt lat="42.50793667" lon="1.54929667">
        <ele>1187.0</ele>
        <time>2019-08-04T13:16:34.313Z</time>
      </trkpt>
      <trkpt lat="42.50793667" lon="1.54929667">
        <ele>1187.0</ele>
        <time>2019-08-04T13:16:35.312Z</time>
      </trkpt>
      <trkpt lat="42.50770833" lon="1.54926167">
        <ele>1183.0</ele>
        <time>2019-08-04T13:16:36.325Z</time>
      </trkpt>
      <trkpt lat="42.50770833" lon="1.54926167">
        <ele>1183.0</ele>
        <time>2019-08-04T13:16:37.310Z</time>
      </trkpt>
      <trkpt lat="42.50770833" lon="1.54926167">
        <ele>1183.0</ele>
        <time>2019-08-04T13:16:38.321Z</time>
      </trkpt>
      <trkpt lat="42.50751667" lon="1.54932833">
        <ele>1180.0</ele>
        <time>2019-08-04T13:16:39.313Z</time>
      </trkpt>
      <trkpt lat="42.50741167" lon="1.54935167">
        <ele>1178.0</ele>
        <time>2019-08-04T13:16:40.329Z</time>
      </trkpt>
      <trkpt lat="42.50718833" lon="1.54939167">
        <ele>1177.0</ele>
        <time>2019-08-04T13:16:41.320Z</time>
      </trkpt>
      <trkpt lat="42.50718833" lon="1.54939167">
        <ele>1177.0</ele>
        <time>2019-08-04T13:16:42.314Z</time>
      </trkpt>
      <trkpt lat="42.50707" lon="1.54941167">
        <ele>1177.0</ele>
        <time>2019-08-04T13:16:43.309Z</time>
      </trkpt>
      <trkpt lat="42.50707" lon="1.54941167">
        <ele>1177.0</ele>
        <time>2019-08-04T13:16:44.312Z</time>
      </trkpt>
      <trkpt lat="42.50684167" lon="1.54947167">
        <ele>1174.0</ele>
        <time>2019-08-04T13:16:45.332Z</time>
      </trkpt>
      <trkpt lat="42.50684167" lon="1.54947167">
        <ele>1174.0</ele>
        <time>2019-08-04T13:16:46.312Z</time>
      </trkpt>
      <trkpt lat="42.50666833" lon="1.54952">
        <ele>1172.0</ele>
        <time>2019-08-04T13:16:47.309Z</time>
      </trkpt>
      <trkpt lat="42.50666833" lon="1.54952">
        <ele>1172.0</ele>
        <time>2019-08-04T13:16:48.324Z</time>
      </trkpt>
      <trkpt lat="42.506575" lon="1.549425">
        <ele>1170.0</ele>
        <time>2019-08-04T13:16:49.309Z</time>
      </trkpt>
      <trkpt lat="42.506575" lon="1.549425">
        <ele>1170.0</ele>
        <time>2019-08-04T13:16:50.311Z</time>
      </trkpt>
      <trkpt lat="42.506635" lon="1.54928667">
        <ele>1169.0</ele>
        <time>2019-08-04T13:16:51.324Z</time>
      </trkpt>
      <trkpt lat="42.506635" lon="1.54928667">
        <ele>1169.0</ele>
        <time>2019-08-04T13:16:52.313Z</time>
      </trkpt>
      <trkpt lat="42.50677833" lon="1.54919667">
        <ele>1168.0</ele>
        <time>2019-08-04T13:16:53.325Z</time>
      </trkpt>
      <trkpt lat="42.50677833" lon="1.54919667">
        <ele>1168.0</ele>
        <time>2019-08-04T13:16:54.318Z</time>
      </trkpt>
      <trkpt lat="42.50694333" lon="1.5491">
        <ele>1166.0</ele>
        <time>2019-08-04T13:16:55.326Z</time>
      </trkpt>
      <trkpt lat="42.50694333" lon="1.5491">
        <ele>1166.0</ele>
        <time>2019-08-04T13:16:56.312Z</time>
      </trkpt>
      <trkpt lat="42.50721833" lon="1.54891833">
        <ele>1163.0</ele>
        <time>2019-08-04T13:16:57.324Z</time>
      </trkpt>
      <trkpt lat="42.50721833" lon="1.54891833">
        <ele>1163.0</ele>
        <time>2019-08-04T13:16:58.309Z</time>
      </trkpt>
      <trkpt lat="42.50721833" lon="1.54891833">
        <ele>1163.0</ele>
        <time>2019-08-04T13:16:59.311Z</time>
      </trkpt>
      <trkpt lat="42.50741667" lon="1.548775">
        <ele>1160.0</ele>
        <time>2019-08-04T13:17:00.313Z</time>
      </trkpt>
      <trkpt lat="42.50752333" lon="1.54870333">
        <ele>1159.0</ele>
        <time>2019-08-04T13:17:01.325Z</time>
      </trkpt>
      <trkpt lat="42.50752333" lon="1.54870333">
        <ele>1159.0</ele>
        <time>2019-08-04T13:17:02.311Z</time>
      </trkpt>
      <trkpt lat="42.50775167" lon="1.54857">
        <ele>1156.0</ele>
        <time>2019-08-04T13:17:03.324Z</time>
      </trkpt>
      <trkpt lat="42.50775167" lon="1.54857">
        <ele>1156.0</ele>
        <time>2019-08-04T13:17:04.312Z</time>
      </trkpt>
      <trkpt lat="42.50799667" lon="1.54845667">
        <ele>1153.0</ele>
        <time>2019-08-04T13:17:05.335Z</time>
      </trkpt>
      <trkpt lat="42.50799667" lon="1.54845667">
        <ele>1153.0</ele>
        <time>2019-08-04T13:17:06.315Z</time>
      </trkpt>
      <trkpt lat="42.50823833" lon="1.54838">
        <ele>1151.0</ele>
        <time>2019-08-04T13:17:07.320Z</time>
      </trkpt>
      <trkpt lat="42.50823833" lon="1.54838">
        <ele>1151.0</ele>
        <time>2019-08-04T13:17:08.324Z</time>
      </trkpt>
      <trkpt lat="42.50848833" lon="1.54837333">
        <ele>1149.0</ele>
        <time>2019-08-04T13:17:09.305Z</time>
      </trkpt>
      <trkpt lat="42.50875167" lon="1.54844">
        <ele>1145.0</ele>
        <time>2019-08-04T13:17:10.311Z</time>
      </trkpt>
      <trkpt lat="42.50875167" lon="1.54844">
        <ele>1145.0</ele>
        <time>2019-08-04T13:17:11.316Z</time>
      </trkpt>
      <trkpt lat="42.50902" lon="1.54849333">
        <ele>1142.0</ele>
        <time>2019-08-04T13:17:12.322Z</time>
      </trkpt>
      <trkpt lat="42.50902" lon="1.54849333">
        <ele>1142.0</ele>
        <time>2019-08-04T13:17:13.309Z</time>
      </trkpt>
      <trkpt lat="42.50902" lon="1.54849333">
        <ele>1142.0</ele>
        <time>2019-08-04T13:17:14.312Z</time>
      </trkpt>
      <trkpt lat="42.509275" lon="1.54851">
        <ele>1139.0</ele>
        <time>2019-08-04T13:17:15.313Z</time>
      </trkpt>
      <trkpt lat="42.5095" lon="1.54851167">
        <ele>1138.0</ele>
        <time>2019-08-04T13:17:16.332Z</time>
      </trkpt>
      <trkpt lat="42.5095" lon="1.54851167">
        <ele>1138.0</ele>
        <time>2019-08-04T13:17:17.313Z</time>
      </trkpt>
      <trkpt lat="42.5095" lon="1.54851167">
        <ele>1138.0</ele>
        <time>2019-08-04T13:17:18.326Z</time>
      </trkpt>
      <trkpt lat="42.50978167" lon="1.54847667">
        <ele>1135.0</ele>
        <time>2019-08-04T13:17:19.327Z</time>
      </trkpt>
      <trkpt lat="42.50978167" lon="1.54847667">
        <ele>1135.0</ele>
        <time>2019-08-04T13:17:20.310Z</time>
      </trkpt>
      <trkpt lat="42.50978167" lon="1.54847667">
        <ele>1135.0</ele>
        <time>2019-08-04T13:17:21.312Z</time>
      </trkpt>
      <trkpt lat="42.50996333" lon="1.54843333">
        <ele>1133.0</ele>
        <time>2019-08-04T13:17:22.325Z</time>
      </trkpt>
      <trkpt lat="42.50996333" lon="1.54843333">
        <ele>1133.0</ele>
        <time>2019-08-04T13:17:23.312Z</time>
      </trkpt>
      <trkpt lat="42.51016" lon="1.548395">
        <ele>1131.0</ele>
        <time>2019-08-04T13:17:24.314Z</time>
      </trkpt>
      <trkpt lat="42.51026667" lon="1.54838667">
        <ele>1131.0</ele>
        <time>2019-08-04T13:17:25.315Z</time>
      </trkpt>
      <trkpt lat="42.51026667" lon="1.54838667">
        <ele>1131.0</ele>
        <time>2019-08-04T13:17:26.313Z</time>
      </trkpt>
      <trkpt lat="42.51049167" lon="1.54842667">
        <ele>1130.0</ele>
        <time>2019-08-04T13:17:27.325Z</time>
      </trkpt>
      <trkpt lat="42.51049167" lon="1.54842667">
        <ele>1130.0</ele>
        <time>2019-08-04T13:17:28.324Z</time>
      </trkpt>
      <trkpt lat="42.51073" lon="1.54850667">
        <ele>1129.0</ele>
        <time>2019-08-04T13:17:29.303Z</time>
      </trkpt>
      <trkpt lat="42.51097833" lon="1.54862">
        <ele>1126.0</ele>
        <time>2019-08-04T13:17:30.330Z</time>
      </trkpt>
      <trkpt lat="42.51097833" lon="1.54862">
        <ele>1126.0</ele>
        <time>2019-08-04T13:17:31.310Z</time>
      </trkpt>
      <trkpt lat="42.51097833" lon="1.54862">
        <ele>1126.0</ele>
        <time>2019-08-04T13:17:32.309Z</time>
      </trkpt>
      <trkpt lat="42.51120833" lon="1.54880833">
        <ele>1124.0</ele>
        <time>2019-08-04T13:17:33.324Z</time>
      </trkpt>
      <trkpt lat="42.51120833" lon="1.54880833">
        <ele>1124.0</ele>
        <time>2019-08-04T13:17:34.312Z</time>
      </trkpt>
      <trkpt lat="42.51137333" lon="1.54911">
        <ele>1121.0</ele>
        <time>2019-08-04T13:17:35.310Z</time>
      </trkpt>
      <trkpt lat="42.51137333" lon="1.54911">
        <ele>1121.0</ele>
        <time>2019-08-04T13:17:36.313Z</time>
      </trkpt>
      <trkpt lat="42.51153667" lon="1.54940667">
        <ele>1119.0</ele>
        <time>2019-08-04T13:17:37.305Z</time>
      </trkpt>
      <trkpt lat="42.51153667" lon="1.54940667">
        <ele>1119.0</ele>
        <time>2019-08-04T13:17:38.327Z</time>
      </trkpt>
      <trkpt lat="42.51171333" lon="1.54969167">
        <ele>1116.0</ele>
        <time>2019-08-04T13:17:39.310Z</time>
      </trkpt>
      <trkpt lat="42.51171333" lon="1.54969167">
        <ele>1116.0</ele>
        <time>2019-08-04T13:17:40.312Z</time>
      </trkpt>
      <trkpt lat="42.51187333" lon="1.55001167">
        <ele>1114.0</ele>
        <time>2019-08-04T13:17:41.330Z</time>
      </trkpt>
      <trkpt lat="42.51202" lon="1.550345">
        <ele>1112.0</ele>
        <time>2019-08-04T13:17:42.324Z</time>
      </trkpt>
      <trkpt lat="42.51202" lon="1.550345">
        <ele>1112.0</ele>
        <time>2019-08-04T13:17:43.332Z</time>
      </trkpt>
      <trkpt lat="42.5121" lon="1.55049667">
        <ele>1111.0</ele>
        <time>2019-08-04T13:17:44.322Z</time>
      </trkpt>
      <trkpt lat="42.5121" lon="1.55049667">
        <ele>1111.0</ele>
        <time>2019-08-04T13:17:45.313Z</time>
      </trkpt>
      <trkpt lat="42.512295" lon="1.55073833">
        <ele>1110.0</ele>
        <time>2019-08-04T13:17:46.326Z</time>
      </trkpt>
      <trkpt lat="42.512295" lon="1.55073833">
        <ele>1110.0</ele>
        <time>2019-08-04T13:17:47.313Z</time>
      </trkpt>
      <trkpt lat="42.51248" lon="1.55092667">
        <ele>1110.0</ele>
        <time>2019-08-04T13:17:48.324Z</time>
      </trkpt>
      <trkpt lat="42.51256" lon="1.55100833">
        <ele>1110.0</ele>
        <time>2019-08-04T13:17:49.310Z</time>
      </trkpt>
      <trkpt lat="42.51256" lon="1.55100833">
        <ele>1110.0</ele>
        <time>2019-08-04T13:17:50.312Z</time>
      </trkpt>
      <trkpt lat="42.51271333" lon="1.55114333">
        <ele>1109.0</ele>
        <time>2019-08-04T13:17:51.314Z</time>
      </trkpt>
      <trkpt lat="42.51278" lon="1.55120667">
        <ele>1109.0</ele>
        <time>2019-08-04T13:17:52.310Z</time>
      </trkpt>
      <trkpt lat="42.51278" lon="1.55120667">
        <ele>1109.0</ele>
        <time>2019-08-04T13:17:53.312Z</time>
      </trkpt>
      <trkpt lat="42.51294167" lon="1.55138333">
        <ele>1108.0</ele>
        <time>2019-08-04T13:17:54.324Z</time>
      </trkpt>
      <trkpt lat="42.51294167" lon="1.55138333">
        <ele>1108.0</ele>
        <time>2019-08-04T13:17:55.308Z</time>
      </trkpt>
      <trkpt lat="42.51294167" lon="1.55138333">
        <ele>1108.0</ele>
        <time>2019-08-04T13:17:56.313Z</time>
      </trkpt>
      <trkpt lat="42.51301833" lon="1.55150667">
        <ele>1108.0</ele>
        <time>2019-08-04T13:17:57.325Z</time>
      </trkpt>
      <trkpt lat="42.51301833" lon="1.55150667">
        <ele>1108.0</ele>
        <time>2019-08-04T13:17:58.318Z</time>
      </trkpt>
      <trkpt lat="42.51307833" lon="1.55161">
        <ele>1108.0</ele>
        <time>2019-08-04T13:17:59.307Z</time>
      </trkpt>
      <trkpt lat="42.51307833" lon="1.55161">
        <ele>1108.0</ele>
        <time>2019-08-04T13:18:00.314Z</time>
      </trkpt>
      <trkpt lat="42.513115" lon="1.55170167">
        <ele>1107.0</ele>
        <time>2019-08-04T13:18:01.310Z</time>
      </trkpt>
      <trkpt lat="42.513115" lon="1.55170167">
        <ele>1107.0</ele>
        <time>2019-08-04T13:18:02.313Z</time>
      </trkpt>
      <trkpt lat="42.51314167" lon="1.55180333">
        <ele>1107.0</ele>
        <time>2019-08-04T13:18:03.325Z</time>
      </trkpt>
      <trkpt lat="42.51314167" lon="1.55180333">
        <ele>1107.0</ele>
        <time>2019-08-04T13:18:04.313Z</time>
      </trkpt>
      <trkpt lat="42.51317167" lon="1.551905">
        <ele>1106.0</ele>
        <time>2019-08-04T13:18:05.336Z</time>
      </trkpt>
      <trkpt lat="42.51317167" lon="1.551905">
        <ele>1106.0</ele>
        <time>2019-08-04T13:18:06.318Z</time>
      </trkpt>
      <trkpt lat="42.5132" lon="1.55199167">
        <ele>1106.0</ele>
        <time>2019-08-04T13:18:07.335Z</time>
      </trkpt>
      <trkpt lat="42.51321333" lon="1.55203333">
        <ele>1106.0</ele>
        <time>2019-08-04T13:18:08.307Z</time>
      </trkpt>
      <trkpt lat="42.51321333" lon="1.55203333">
        <ele>1106.0</ele>
        <time>2019-08-04T13:18:09.313Z</time>
      </trkpt>
      <trkpt lat="42.51324167" lon="1.55211833">
        <ele>1106.0</ele>
        <time>2019-08-04T13:18:10.310Z</time>
      </trkpt>
      <trkpt lat="42.51324167" lon="1.55211833">
        <ele>1106.0</ele>
        <time>2019-08-04T13:18:11.333Z</time>
      </trkpt>
      <trkpt lat="42.513285" lon="1.55223667">
        <ele>1105.0</ele>
        <time>2019-08-04T13:18:12.325Z</time>
      </trkpt>
      <trkpt lat="42.513285" lon="1.55223667">
        <ele>1105.0</ele>
        <time>2019-08-04T13:18:13.336Z</time>
      </trkpt>
      <trkpt lat="42.51330333" lon="1.55227667">
        <ele>1105.0</ele>
        <time>2019-08-04T13:18:14.320Z</time>
      </trkpt>
      <trkpt lat="42.51330333" lon="1.55227667">
        <ele>1105.0</ele>
        <time>2019-08-04T13:18:15.312Z</time>
      </trkpt>
      <trkpt lat="42.51333" lon="1.55234333">
        <ele>1105.0</ele>
        <time>2019-08-04T13:18:16.326Z</time>
      </trkpt>
      <trkpt lat="42.513355" lon="1.55241167">
        <ele>1105.0</ele>
        <time>2019-08-04T13:18:17.320Z</time>
      </trkpt>
      <trkpt lat="42.51337" lon="1.55244667">
        <ele>1105.0</ele>
        <time>2019-08-04T13:18:18.322Z</time>
      </trkpt>
      <trkpt lat="42.51337" lon="1.55244667">
        <ele>1105.0</ele>
        <time>2019-08-04T13:18:19.309Z</time>
      </trkpt>
      <trkpt lat="42.51337" lon="1.55244667">
        <ele>1105.0</ele>
        <time>2019-08-04T13:18:20.313Z</time>
      </trkpt>
      <trkpt lat="42.51340333" lon="1.55252">
        <ele>1104.0</ele>
        <time>2019-08-04T13:18:21.325Z</time>
      </trkpt>
      <trkpt lat="42.51340333" lon="1.55252">
        <ele>1104.0</ele>
        <time>2019-08-04T13:18:22.313Z</time>
      </trkpt>
      <trkpt lat="42.51343667" lon="1.55258667">
        <ele>1105.0</ele>
        <time>2019-08-04T13:18:23.310Z</time>
      </trkpt>
      <trkpt lat="42.51343667" lon="1.55258667">
        <ele>1105.0</ele>
        <time>2019-08-04T13:18:24.314Z</time>
      </trkpt>
      <trkpt lat="42.51347667" lon="1.55265167">
        <ele>1105.0</ele>
        <time>2019-08-04T13:18:25.328Z</time>
      </trkpt>
      <trkpt lat="42.51347667" lon="1.55265167">
        <ele>1105.0</ele>
        <time>2019-08-04T13:18:26.312Z</time>
      </trkpt>
      <trkpt lat="42.51352333" lon="1.55270833">
        <ele>1106.0</ele>
        <time>2019-08-04T13:18:27.324Z</time>
      </trkpt>
      <trkpt lat="42.51352333" lon="1.55270833">
        <ele>1106.0</ele>
        <time>2019-08-04T13:18:28.317Z</time>
      </trkpt>
      <trkpt lat="42.51356333" lon="1.55275833">
        <ele>1107.0</ele>
        <time>2019-08-04T13:18:29.313Z</time>
      </trkpt>
      <trkpt lat="42.51356333" lon="1.55275833">
        <ele>1107.0</ele>
        <time>2019-08-04T13:18:30.303Z</time>
      </trkpt>
      <trkpt lat="42.513605" lon="1.55281167">
        <ele>1107.0</ele>
        <time>2019-08-04T13:18:31.311Z</time>
      </trkpt>
      <trkpt lat="42.513605" lon="1.55281167">
        <ele>1107.0</ele>
        <time>2019-08-04T13:18:32.312Z</time>
      </trkpt>
      <trkpt lat="42.51364667" lon="1.55285667">
        <ele>1108.0</ele>
        <time>2019-08-04T13:18:33.310Z</time>
      </trkpt>
      <trkpt lat="42.51364667" lon="1.55285667">
        <ele>1108.0</ele>
        <time>2019-08-04T13:18:34.312Z</time>
      </trkpt>
      <trkpt lat="42.51368833" lon="1.55290333">
        <ele>1109.0</ele>
        <time>2019-08-04T13:18:35.327Z</time>
      </trkpt>
      <trkpt lat="42.51370833" lon="1.55292333">
        <ele>1109.0</ele>
        <time>2019-08-04T13:18:36.311Z</time>
      </trkpt>
      <trkpt lat="42.51370833" lon="1.55292333">
        <ele>1109.0</ele>
        <time>2019-08-04T13:18:37.320Z</time>
      </trkpt>
      <trkpt lat="42.51375333" lon="1.55296167">
        <ele>1110.0</ele>
        <time>2019-08-04T13:18:38.324Z</time>
      </trkpt>
      <trkpt lat="42.513775" lon="1.55298">
        <ele>1110.0</ele>
        <time>2019-08-04T13:18:39.315Z</time>
      </trkpt>
      <trkpt lat="42.513775" lon="1.55298">
        <ele>1110.0</ele>
        <time>2019-08-04T13:18:40.312Z</time>
      </trkpt>
      <trkpt lat="42.51382167" lon="1.55300833">
        <ele>1111.0</ele>
        <time>2019-08-04T13:18:41.324Z</time>
      </trkpt>
      <trkpt lat="42.51382167" lon="1.55300833">
        <ele>1111.0</ele>
        <time>2019-08-04T13:18:42.314Z</time>
      </trkpt>
      <trkpt lat="42.51386667" lon="1.55304333">
        <ele>1111.0</ele>
        <time>2019-08-04T13:18:43.337Z</time>
      </trkpt>
      <trkpt lat="42.51389" lon="1.55306">
        <ele>1111.0</ele>
        <time>2019-08-04T13:18:44.308Z</time>
      </trkpt>
      <trkpt lat="42.51389" lon="1.55306">
        <ele>1111.0</ele>
        <time>2019-08-04T13:18:45.312Z</time>
      </trkpt>
      <trkpt lat="42.51393167" lon="1.553105">
        <ele>1112.0</ele>
        <time>2019-08-04T13:18:46.324Z</time>
      </trkpt>
      <trkpt lat="42.51393167" lon="1.553105">
        <ele>1112.0</ele>
        <time>2019-08-04T13:18:47.312Z</time>
      </trkpt>
      <trkpt lat="42.51397667" lon="1.55313333">
        <ele>1112.0</ele>
        <time>2019-08-04T13:18:48.325Z</time>
      </trkpt>
      <trkpt lat="42.514" lon="1.55314833">
        <ele>1112.0</ele>
        <time>2019-08-04T13:18:49.324Z</time>
      </trkpt>
      <trkpt lat="42.514" lon="1.55314833">
        <ele>1112.0</ele>
        <time>2019-08-04T13:18:50.310Z</time>
      </trkpt>
      <trkpt lat="42.51404333" lon="1.55318667">
        <ele>1112.0</ele>
        <time>2019-08-04T13:18:51.311Z</time>
      </trkpt>
      <trkpt lat="42.51404333" lon="1.55318667">
        <ele>1112.0</ele>
        <time>2019-08-04T13:18:52.311Z</time>
      </trkpt>
      <trkpt lat="42.514085" lon="1.55323167">
        <ele>1113.0</ele>
        <time>2019-08-04T13:18:53.325Z</time>
      </trkpt>
      <trkpt lat="42.51411667" lon="1.55327">
        <ele>1113.0</ele>
        <time>2019-08-04T13:18:54.328Z</time>
      </trkpt>
      <trkpt lat="42.51411667" lon="1.55327">
        <ele>1113.0</ele>
        <time>2019-08-04T13:18:55.310Z</time>
      </trkpt>
      <trkpt lat="42.51416333" lon="1.55330333">
        <ele>1113.0</ele>
        <time>2019-08-04T13:18:56.331Z</time>
      </trkpt>
      <trkpt lat="42.51416333" lon="1.55330333">
        <ele>1113.0</ele>
        <time>2019-08-04T13:18:57.313Z</time>
      </trkpt>
      <trkpt lat="42.51418667" lon="1.553315">
        <ele>1114.0</ele>
        <time>2019-08-04T13:18:58.311Z</time>
      </trkpt>
      <trkpt lat="42.51418667" lon="1.553315">
        <ele>1114.0</ele>
        <time>2019-08-04T13:18:59.313Z</time>
      </trkpt>
      <trkpt lat="42.51424833" lon="1.55336333">
        <ele>1115.0</ele>
        <time>2019-08-04T13:19:00.326Z</time>
      </trkpt>
      <trkpt lat="42.51424833" lon="1.55336333">
        <ele>1115.0</ele>
        <time>2019-08-04T13:19:01.305Z</time>
      </trkpt>
      <trkpt lat="42.51424833" lon="1.55336333">
        <ele>1115.0</ele>
        <time>2019-08-04T13:19:02.314Z</time>
      </trkpt>
      <trkpt lat="42.51429" lon="1.55338167">
        <ele>1117.0</ele>
        <time>2019-08-04T13:19:03.310Z</time>
      </trkpt>
      <trkpt lat="42.51429" lon="1.55338167">
        <ele>1117.0</ele>
        <time>2019-08-04T13:19:04.312Z</time>
      </trkpt>
      <trkpt lat="42.51431833" lon="1.55335667">
        <ele>1122.0</ele>
        <time>2019-08-04T13:19:05.327Z</time>
      </trkpt>
      <trkpt lat="42.51431833" lon="1.55335667">
        <ele>1122.0</ele>
        <time>2019-08-04T13:19:06.307Z</time>
      </trkpt>
      <trkpt lat="42.51435667" lon="1.553375">
        <ele>1124.0</ele>
        <time>2019-08-04T13:19:07.313Z</time>
      </trkpt>
      <trkpt lat="42.51437333" lon="1.55337833">
        <ele>1126.0</ele>
        <time>2019-08-04T13:19:08.308Z</time>
      </trkpt>
      <trkpt lat="42.51437333" lon="1.55337833">
        <ele>1126.0</ele>
        <time>2019-08-04T13:19:09.313Z</time>
      </trkpt>
      <trkpt lat="42.51442" lon="1.55340333">
        <ele>1128.0</ele>
        <time>2019-08-04T13:19:10.307Z</time>
      </trkpt>
      <trkpt lat="42.51442" lon="1.55340333">
        <ele>1128.0</ele>
        <time>2019-08-04T13:19:11.312Z</time>
      </trkpt>
      <trkpt lat="42.51446333" lon="1.55343333">
        <ele>1129.0</ele>
        <time>2019-08-04T13:19:12.315Z</time>
      </trkpt>
      <trkpt lat="42.51449" lon="1.55344667">
        <ele>1130.0</ele>
        <time>2019-08-04T13:19:13.328Z</time>
      </trkpt>
      <trkpt lat="42.51449" lon="1.55344667">
        <ele>1130.0</ele>
        <time>2019-08-04T13:19:14.313Z</time>
      </trkpt>
      <trkpt lat="42.51454167" lon="1.55347833">
        <ele>1131.0</ele>
        <time>2019-08-04T13:19:15.312Z</time>
      </trkpt>
      <trkpt lat="42.51456667" lon="1.55349667">
        <ele>1132.0</ele>
        <time>2019-08-04T13:19:16.327Z</time>
      </trkpt>
      <trkpt lat="42.51456667" lon="1.55349667">
        <ele>1132.0</ele>
        <time>2019-08-04T13:19:17.312Z</time>
      </trkpt>
      <trkpt lat="42.51461333" lon="1.55353">
        <ele>1133.0</ele>
        <time>2019-08-04T13:19:18.325Z</time>
      </trkpt>
      <trkpt lat="42.51463833" lon="1.55354667">
        <ele>1134.0</ele>
        <time>2019-08-04T13:19:19.311Z</time>
      </trkpt>
      <trkpt lat="42.51463833" lon="1.55354667">
        <ele>1134.0</ele>
        <time>2019-08-04T13:19:20.313Z</time>
      </trkpt>
      <trkpt lat="42.51468833" lon="1.55358">
        <ele>1135.0</ele>
        <time>2019-08-04T13:19:21.303Z</time>
      </trkpt>
      <trkpt lat="42.51468833" lon="1.55358">
        <ele>1135.0</ele>
        <time>2019-08-04T13:19:22.312Z</time>
      </trkpt>
      <trkpt lat="42.51473167" lon="1.55361333">
        <ele>1136.0</ele>
        <time>2019-08-04T13:19:23.310Z</time>
      </trkpt>
      <trkpt lat="42.51478167" lon="1.55363667">
        <ele>1137.0</ele>
        <time>2019-08-04T13:19:24.330Z</time>
      </trkpt>
      <trkpt lat="42.51478167" lon="1.55363667">
        <ele>1137.0</ele>
        <time>2019-08-04T13:19:25.308Z</time>
      </trkpt>
      <trkpt lat="42.514825" lon="1.55366">
        <ele>1137.0</ele>
        <time>2019-08-04T13:19:26.333Z</time>
      </trkpt>
      <trkpt lat="42.514825" lon="1.55366">
        <ele>1137.0</ele>
        <time>2019-08-04T13:19:27.314Z</time>
      </trkpt>
      <trkpt lat="42.514825" lon="1.55366">
        <ele>1137.0</ele>
        <time>2019-08-04T13:19:28.318Z</time>
      </trkpt>
      <trkpt lat="42.514875" lon="1.55367833">
        <ele>1138.0</ele>
        <time>2019-08-04T13:19:29.309Z</time>
      </trkpt>
      <trkpt lat="42.51492167" lon="1.553705">
        <ele>1140.0</ele>
        <time>2019-08-04T13:19:30.329Z</time>
      </trkpt>
      <trkpt lat="42.51492167" lon="1.553705">
        <ele>1140.0</ele>
        <time>2019-08-04T13:19:31.303Z</time>
      </trkpt>
      <trkpt lat="42.51492167" lon="1.553705">
        <ele>1140.0</ele>
        <time>2019-08-04T13:19:32.313Z</time>
      </trkpt>
      <trkpt lat="42.51496833" lon="1.55372667">
        <ele>1141.0</ele>
        <time>2019-08-04T13:19:33.311Z</time>
      </trkpt>
      <trkpt lat="42.51496833" lon="1.55372667">
        <ele>1141.0</ele>
        <time>2019-08-04T13:19:34.312Z</time>
      </trkpt>
      <trkpt lat="42.51501333" lon="1.55375167">
        <ele>1142.0</ele>
        <time>2019-08-04T13:19:35.328Z</time>
      </trkpt>
      <trkpt lat="42.51503667" lon="1.55376667">
        <ele>1142.0</ele>
        <time>2019-08-04T13:19:36.314Z</time>
      </trkpt>
      <trkpt lat="42.51505833" lon="1.553775">
        <ele>1142.0</ele>
        <time>2019-08-04T13:19:37.310Z</time>
      </trkpt>
      <trkpt lat="42.51505833" lon="1.553775">
        <ele>1142.0</ele>
        <time>2019-08-04T13:19:38.343Z</time>
      </trkpt>
      <trkpt lat="42.51512333" lon="1.55382333">
        <ele>1143.0</ele>
        <time>2019-08-04T13:19:39.321Z</time>
      </trkpt>
      <trkpt lat="42.51512333" lon="1.55382333">
        <ele>1143.0</ele>
        <time>2019-08-04T13:19:40.310Z</time>
      </trkpt>
      <trkpt lat="42.51512333" lon="1.55382333">
        <ele>1143.0</ele>
        <time>2019-08-04T13:19:41.313Z</time>
      </trkpt>
      <trkpt lat="42.51516833" lon="1.55385833">
        <ele>1144.0</ele>
        <time>2019-08-04T13:19:42.311Z</time>
      </trkpt>
      <trkpt lat="42.51519167" lon="1.55386333">
        <ele>1145.0</ele>
        <time>2019-08-04T13:19:43.308Z</time>
      </trkpt>
      <trkpt lat="42.51519167" lon="1.55386333">
        <ele>1145.0</ele>
        <time>2019-08-04T13:19:44.313Z</time>
      </trkpt>
      <trkpt lat="42.515235" lon="1.55389">
        <ele>1146.0</ele>
        <time>2019-08-04T13:19:45.310Z</time>
      </trkpt>
      <trkpt lat="42.515235" lon="1.55389">
        <ele>1146.0</ele>
        <time>2019-08-04T13:19:46.313Z</time>
      </trkpt>
      <trkpt lat="42.51528" lon="1.55390833">
        <ele>1147.0</ele>
        <time>2019-08-04T13:19:47.310Z</time>
      </trkpt>
      <trkpt lat="42.51528" lon="1.55390833">
        <ele>1147.0</ele>
        <time>2019-08-04T13:19:48.311Z</time>
      </trkpt>
      <trkpt lat="42.515325" lon="1.553935">
        <ele>1148.0</ele>
        <time>2019-08-04T13:19:49.310Z</time>
      </trkpt>
      <trkpt lat="42.515325" lon="1.553935">
        <ele>1148.0</ele>
        <time>2019-08-04T13:19:50.311Z</time>
      </trkpt>
      <trkpt lat="42.51537" lon="1.55396667">
        <ele>1149.0</ele>
        <time>2019-08-04T13:19:51.310Z</time>
      </trkpt>
      <trkpt lat="42.51537" lon="1.55396667">
        <ele>1149.0</ele>
        <time>2019-08-04T13:19:52.313Z</time>
      </trkpt>
      <trkpt lat="42.51541833" lon="1.553985">
        <ele>1150.0</ele>
        <time>2019-08-04T13:19:53.310Z</time>
      </trkpt>
      <trkpt lat="42.51541833" lon="1.553985">
        <ele>1150.0</ele>
        <time>2019-08-04T13:19:54.312Z</time>
      </trkpt>
      <trkpt lat="42.515465" lon="1.55400667">
        <ele>1152.0</ele>
        <time>2019-08-04T13:19:55.328Z</time>
      </trkpt>
      <trkpt lat="42.515465" lon="1.55400667">
        <ele>1152.0</ele>
        <time>2019-08-04T13:19:56.315Z</time>
      </trkpt>
      <trkpt lat="42.51553667" lon="1.554035">
        <ele>1155.0</ele>
        <time>2019-08-04T13:19:57.326Z</time>
      </trkpt>
      <trkpt lat="42.51553667" lon="1.554035">
        <ele>1155.0</ele>
        <time>2019-08-04T13:19:58.310Z</time>
      </trkpt>
      <trkpt lat="42.51553667" lon="1.554035">
        <ele>1155.0</ele>
        <time>2019-08-04T13:19:59.313Z</time>
      </trkpt>
      <trkpt lat="42.51558167" lon="1.55406667">
        <ele>1155.0</ele>
        <time>2019-08-04T13:20:00.312Z</time>
      </trkpt>
      <trkpt lat="42.51558167" lon="1.55406667">
        <ele>1155.0</ele>
        <time>2019-08-04T13:20:01.312Z</time>
      </trkpt>
      <trkpt lat="42.51565833" lon="1.554105">
        <ele>1157.0</ele>
        <time>2019-08-04T13:20:02.322Z</time>
      </trkpt>
      <trkpt lat="42.51565833" lon="1.554105">
        <ele>1157.0</ele>
        <time>2019-08-04T13:20:03.310Z</time>
      </trkpt>
      <trkpt lat="42.51565833" lon="1.554105">
        <ele>1157.0</ele>
        <time>2019-08-04T13:20:04.313Z</time>
      </trkpt>
      <trkpt lat="42.51569833" lon="1.554125">
        <ele>1158.0</ele>
        <time>2019-08-04T13:20:05.310Z</time>
      </trkpt>
      <trkpt lat="42.51569833" lon="1.554125">
        <ele>1158.0</ele>
        <time>2019-08-04T13:20:06.311Z</time>
      </trkpt>
      <trkpt lat="42.515745" lon="1.55413667">
        <ele>1159.0</ele>
        <time>2019-08-04T13:20:07.310Z</time>
      </trkpt>
      <trkpt lat="42.515745" lon="1.55413667">
        <ele>1159.0</ele>
        <time>2019-08-04T13:20:08.322Z</time>
      </trkpt>
      <trkpt lat="42.51579167" lon="1.554145">
        <ele>1160.0</ele>
        <time>2019-08-04T13:20:09.311Z</time>
      </trkpt>
      <trkpt lat="42.51579167" lon="1.554145">
        <ele>1160.0</ele>
        <time>2019-08-04T13:20:10.313Z</time>
      </trkpt>
      <trkpt lat="42.51584167" lon="1.55414667">
        <ele>1161.0</ele>
        <time>2019-08-04T13:20:11.310Z</time>
      </trkpt>
      <trkpt lat="42.51584167" lon="1.55414667">
        <ele>1161.0</ele>
        <time>2019-08-04T13:20:12.314Z</time>
      </trkpt>
      <trkpt lat="42.51589167" lon="1.55415">
        <ele>1162.0</ele>
        <time>2019-08-04T13:20:13.341Z</time>
      </trkpt>
      <trkpt lat="42.51594333" lon="1.55415">
        <ele>1162.0</ele>
        <time>2019-08-04T13:20:14.322Z</time>
      </trkpt>
      <trkpt lat="42.51594333" lon="1.55415">
        <ele>1162.0</ele>
        <time>2019-08-04T13:20:15.311Z</time>
      </trkpt>
      <trkpt lat="42.51599667" lon="1.55414333">
        <ele>1164.0</ele>
        <time>2019-08-04T13:20:16.334Z</time>
      </trkpt>
      <trkpt lat="42.51599667" lon="1.55414333">
        <ele>1164.0</ele>
        <time>2019-08-04T13:20:17.318Z</time>
      </trkpt>
      <trkpt lat="42.51602333" lon="1.55414">
        <ele>1164.0</ele>
        <time>2019-08-04T13:20:18.324Z</time>
      </trkpt>
      <trkpt lat="42.51604333" lon="1.55413333">
        <ele>1164.0</ele>
        <time>2019-08-04T13:20:19.311Z</time>
      </trkpt>
      <trkpt lat="42.51604333" lon="1.55413333">
        <ele>1164.0</ele>
        <time>2019-08-04T13:20:20.313Z</time>
      </trkpt>
      <trkpt lat="42.51608833" lon="1.55412">
        <ele>1165.0</ele>
        <time>2019-08-04T13:20:21.310Z</time>
      </trkpt>
      <trkpt lat="42.51608833" lon="1.55412">
        <ele>1165.0</ele>
        <time>2019-08-04T13:20:22.313Z</time>
      </trkpt>
      <trkpt lat="42.516135" lon="1.55410333">
        <ele>1166.0</ele>
        <time>2019-08-04T13:20:23.312Z</time>
      </trkpt>
      <trkpt lat="42.516135" lon="1.55410333">
        <ele>1166.0</ele>
        <time>2019-08-04T13:20:24.314Z</time>
      </trkpt>
      <trkpt lat="42.51617833" lon="1.55408">
        <ele>1167.0</ele>
        <time>2019-08-04T13:20:25.310Z</time>
      </trkpt>
      <trkpt lat="42.51617833" lon="1.55408">
        <ele>1167.0</ele>
        <time>2019-08-04T13:20:26.310Z</time>
      </trkpt>
      <trkpt lat="42.51622" lon="1.55405833">
        <ele>1168.0</ele>
        <time>2019-08-04T13:20:27.310Z</time>
      </trkpt>
      <trkpt lat="42.51622" lon="1.55405833">
        <ele>1168.0</ele>
        <time>2019-08-04T13:20:28.322Z</time>
      </trkpt>
      <trkpt lat="42.516265" lon="1.554035">
        <ele>1170.0</ele>
        <time>2019-08-04T13:20:29.316Z</time>
      </trkpt>
      <trkpt lat="42.51631167" lon="1.554015">
        <ele>1171.0</ele>
        <time>2019-08-04T13:20:30.307Z</time>
      </trkpt>
      <trkpt lat="42.51631167" lon="1.554015">
        <ele>1171.0</ele>
        <time>2019-08-04T13:20:31.312Z</time>
      </trkpt>
      <trkpt lat="42.51635833" lon="1.55399667">
        <ele>1172.0</ele>
        <time>2019-08-04T13:20:32.318Z</time>
      </trkpt>
      <trkpt lat="42.51635833" lon="1.55399667">
        <ele>1172.0</ele>
        <time>2019-08-04T13:20:33.325Z</time>
      </trkpt>
      <trkpt lat="42.51635833" lon="1.55399667">
        <ele>1172.0</ele>
        <time>2019-08-04T13:20:34.314Z</time>
      </trkpt>
      <trkpt lat="42.51640333" lon="1.55398167">
        <ele>1172.0</ele>
        <time>2019-08-04T13:20:35.309Z</time>
      </trkpt>
      <trkpt lat="42.51640333" lon="1.55398167">
        <ele>1172.0</ele>
        <time>2019-08-04T13:20:36.312Z</time>
      </trkpt>
      <trkpt lat="42.51644333" lon="1.55396333">
        <ele>1172.0</ele>
        <time>2019-08-04T13:20:37.325Z</time>
      </trkpt>
      <trkpt lat="42.51644333" lon="1.55396333">
        <ele>1172.0</ele>
        <time>2019-08-04T13:20:38.321Z</time>
      </trkpt>
      <trkpt lat="42.51648667" lon="1.553945">
        <ele>1173.0</ele>
        <time>2019-08-04T13:20:39.328Z</time>
      </trkpt>
      <trkpt lat="42.51648667" lon="1.553945">
        <ele>1173.0</ele>
        <time>2019-08-04T13:20:40.314Z</time>
      </trkpt>
      <trkpt lat="42.51653" lon="1.55392667">
        <ele>1173.0</ele>
        <time>2019-08-04T13:20:41.312Z</time>
      </trkpt>
      <trkpt lat="42.51653" lon="1.55392667">
        <ele>1173.0</ele>
        <time>2019-08-04T13:20:42.315Z</time>
      </trkpt>
      <trkpt lat="42.51657667" lon="1.55391333">
        <ele>1173.0</ele>
        <time>2019-08-04T13:20:43.348Z</time>
      </trkpt>
      <trkpt lat="42.51659667" lon="1.55390833">
        <ele>1173.0</ele>
        <time>2019-08-04T13:20:44.321Z</time>
      </trkpt>
      <trkpt lat="42.51659667" lon="1.55390833">
        <ele>1173.0</ele>
        <time>2019-08-04T13:20:45.312Z</time>
      </trkpt>
      <trkpt lat="42.51664167" lon="1.55390167">
        <ele>1173.0</ele>
        <time>2019-08-04T13:20:46.325Z</time>
      </trkpt>
      <trkpt lat="42.51664167" lon="1.55390167">
        <ele>1173.0</ele>
        <time>2019-08-04T13:20:47.314Z</time>
      </trkpt>
      <trkpt lat="42.51669333" lon="1.553905">
        <ele>1172.0</ele>
        <time>2019-08-04T13:20:48.325Z</time>
      </trkpt>
      <trkpt lat="42.51672" lon="1.55390833">
        <ele>1172.0</ele>
        <time>2019-08-04T13:20:49.328Z</time>
      </trkpt>
      <trkpt lat="42.51672" lon="1.55390833">
        <ele>1172.0</ele>
        <time>2019-08-04T13:20:50.315Z</time>
      </trkpt>
      <trkpt lat="42.51677167" lon="1.55392167">
        <ele>1171.0</ele>
        <time>2019-08-04T13:20:51.328Z</time>
      </trkpt>
      <trkpt lat="42.51677167" lon="1.55392167">
        <ele>1171.0</ele>
        <time>2019-08-04T13:20:52.314Z</time>
      </trkpt>
      <trkpt lat="42.51682" lon="1.55394">
        <ele>1171.0</ele>
        <time>2019-08-04T13:20:53.309Z</time>
      </trkpt>
      <trkpt lat="42.51687167" lon="1.55396333">
        <ele>1171.0</ele>
        <time>2019-08-04T13:20:54.312Z</time>
      </trkpt>
      <trkpt lat="42.51687167" lon="1.55396333">
        <ele>1171.0</ele>
        <time>2019-08-04T13:20:55.311Z</time>
      </trkpt>
      <trkpt lat="42.51687167" lon="1.55396333">
        <ele>1171.0</ele>
        <time>2019-08-04T13:20:56.314Z</time>
      </trkpt>
      <trkpt lat="42.51692167" lon="1.553995">
        <ele>1170.0</ele>
        <time>2019-08-04T13:20:57.304Z</time>
      </trkpt>
      <trkpt lat="42.51692167" lon="1.553995">
        <ele>1170.0</ele>
        <time>2019-08-04T13:20:58.324Z</time>
      </trkpt>
      <trkpt lat="42.51696667" lon="1.55403167">
        <ele>1170.0</ele>
        <time>2019-08-04T13:20:59.327Z</time>
      </trkpt>
      <trkpt lat="42.51696667" lon="1.55403167">
        <ele>1170.0</ele>
        <time>2019-08-04T13:21:00.312Z</time>
      </trkpt>
      <trkpt lat="42.51701" lon="1.55407">
        <ele>1170.0</ele>
        <time>2019-08-04T13:21:01.334Z</time>
      </trkpt>
      <trkpt lat="42.51701" lon="1.55407">
        <ele>1170.0</ele>
        <time>2019-08-04T13:21:02.317Z</time>
      </trkpt>
      <trkpt lat="42.51705333" lon="1.55410833">
        <ele>1171.0</ele>
        <time>2019-08-04T13:21:03.322Z</time>
      </trkpt>
      <trkpt lat="42.51705333" lon="1.55410833">
        <ele>1171.0</ele>
        <time>2019-08-04T13:21:04.313Z</time>
      </trkpt>
      <trkpt lat="42.51711667" lon="1.554165">
        <ele>1171.0</ele>
        <time>2019-08-04T13:21:05.325Z</time>
      </trkpt>
      <trkpt lat="42.51711667" lon="1.554165">
        <ele>1171.0</ele>
        <time>2019-08-04T13:21:06.314Z</time>
      </trkpt>
      <trkpt lat="42.51713667" lon="1.55418667">
        <ele>1171.0</ele>
        <time>2019-08-04T13:21:07.336Z</time>
      </trkpt>
      <trkpt lat="42.51713667" lon="1.55418667">
        <ele>1171.0</ele>
        <time>2019-08-04T13:21:08.324Z</time>
      </trkpt>
      <trkpt lat="42.51717833" lon="1.55422833">
        <ele>1172.0</ele>
        <time>2019-08-04T13:21:09.330Z</time>
      </trkpt>
      <trkpt lat="42.51717833" lon="1.55422833">
        <ele>1172.0</ele>
        <time>2019-08-04T13:21:10.313Z</time>
      </trkpt>
      <trkpt lat="42.51721833" lon="1.55426833">
        <ele>1172.0</ele>
        <time>2019-08-04T13:21:11.311Z</time>
      </trkpt>
      <trkpt lat="42.51721833" lon="1.55426833">
        <ele>1172.0</ele>
        <time>2019-08-04T13:21:12.315Z</time>
      </trkpt>
      <trkpt lat="42.51726167" lon="1.55430667">
        <ele>1173.0</ele>
        <time>2019-08-04T13:21:13.328Z</time>
      </trkpt>
      <trkpt lat="42.51726167" lon="1.55430667">
        <ele>1173.0</ele>
        <time>2019-08-04T13:21:14.318Z</time>
      </trkpt>
      <trkpt lat="42.51730167" lon="1.55435167">
        <ele>1173.0</ele>
        <time>2019-08-04T13:21:15.311Z</time>
      </trkpt>
      <trkpt lat="42.51730167" lon="1.55435167">
        <ele>1173.0</ele>
        <time>2019-08-04T13:21:16.313Z</time>
      </trkpt>
      <trkpt lat="42.51733833" lon="1.55439167">
        <ele>1172.0</ele>
        <time>2019-08-04T13:21:17.328Z</time>
      </trkpt>
      <trkpt lat="42.51733833" lon="1.55439167">
        <ele>1172.0</ele>
        <time>2019-08-04T13:21:18.326Z</time>
      </trkpt>
      <trkpt lat="42.51736667" lon="1.55443333">
        <ele>1172.0</ele>
        <time>2019-08-04T13:21:19.338Z</time>
      </trkpt>
      <trkpt lat="42.517405" lon="1.55448167">
        <ele>1172.0</ele>
        <time>2019-08-04T13:21:20.322Z</time>
      </trkpt>
      <trkpt lat="42.517405" lon="1.55448167">
        <ele>1172.0</ele>
        <time>2019-08-04T13:21:21.309Z</time>
      </trkpt>
      <trkpt lat="42.517405" lon="1.55448167">
        <ele>1172.0</ele>
        <time>2019-08-04T13:21:22.315Z</time>
      </trkpt>
      <trkpt lat="42.51743833" lon="1.55453167">
        <ele>1173.0</ele>
        <time>2019-08-04T13:21:23.328Z</time>
      </trkpt>
      <trkpt lat="42.51743833" lon="1.55453167">
        <ele>1173.0</ele>
        <time>2019-08-04T13:21:24.313Z</time>
      </trkpt>
      <trkpt lat="42.51747833" lon="1.55458167">
        <ele>1173.0</ele>
        <time>2019-08-04T13:21:25.333Z</time>
      </trkpt>
      <trkpt lat="42.51751333" lon="1.55463333">
        <ele>1173.0</ele>
        <time>2019-08-04T13:21:26.322Z</time>
      </trkpt>
      <trkpt lat="42.51751333" lon="1.55463333">
        <ele>1173.0</ele>
        <time>2019-08-04T13:21:27.312Z</time>
      </trkpt>
      <trkpt lat="42.51751333" lon="1.55463333">
        <ele>1173.0</ele>
        <time>2019-08-04T13:21:28.338Z</time>
      </trkpt>
      <trkpt lat="42.51754833" lon="1.55468333">
        <ele>1173.0</ele>
        <time>2019-08-04T13:21:29.314Z</time>
      </trkpt>
      <trkpt lat="42.51754833" lon="1.55468333">
        <ele>1173.0</ele>
        <time>2019-08-04T13:21:30.306Z</time>
      </trkpt>
      <trkpt lat="42.51758" lon="1.55473667">
        <ele>1174.0</ele>
        <time>2019-08-04T13:21:31.313Z</time>
      </trkpt>
      <trkpt lat="42.517615" lon="1.55479167">
        <ele>1174.0</ele>
        <time>2019-08-04T13:21:32.319Z</time>
      </trkpt>
      <trkpt lat="42.517615" lon="1.55479167">
        <ele>1174.0</ele>
        <time>2019-08-04T13:21:33.326Z</time>
      </trkpt>
      <trkpt lat="42.517615" lon="1.55479167">
        <ele>1174.0</ele>
        <time>2019-08-04T13:21:34.313Z</time>
      </trkpt>
      <trkpt lat="42.51765" lon="1.55484833">
        <ele>1174.0</ele>
        <time>2019-08-04T13:21:35.310Z</time>
      </trkpt>
      <trkpt lat="42.51766833" lon="1.55487833">
        <ele>1174.0</ele>
        <time>2019-08-04T13:21:36.316Z</time>
      </trkpt>
      <trkpt lat="42.517685" lon="1.55491">
        <ele>1174.0</ele>
        <time>2019-08-04T13:21:37.326Z</time>
      </trkpt>
      <trkpt lat="42.517685" lon="1.55491">
        <ele>1174.0</ele>
        <time>2019-08-04T13:21:38.324Z</time>
      </trkpt>
      <trkpt lat="42.51771667" lon="1.554975">
        <ele>1174.0</ele>
        <time>2019-08-04T13:21:39.314Z</time>
      </trkpt>
      <trkpt lat="42.51772667" lon="1.55501167">
        <ele>1174.0</ele>
        <time>2019-08-04T13:21:40.309Z</time>
      </trkpt>
      <trkpt lat="42.51772667" lon="1.55501167">
        <ele>1174.0</ele>
        <time>2019-08-04T13:21:41.312Z</time>
      </trkpt>
      <trkpt lat="42.51773833" lon="1.55508833">
        <ele>1174.0</ele>
        <time>2019-08-04T13:21:42.315Z</time>
      </trkpt>
      <trkpt lat="42.51774" lon="1.55512833">
        <ele>1174.0</ele>
        <time>2019-08-04T13:21:43.343Z</time>
      </trkpt>
      <trkpt lat="42.51773833" lon="1.55520167">
        <ele>1174.0</ele>
        <time>2019-08-04T13:21:44.324Z</time>
      </trkpt>
      <trkpt lat="42.51773833" lon="1.55520167">
        <ele>1174.0</ele>
        <time>2019-08-04T13:21:45.314Z</time>
      </trkpt>
      <trkpt lat="42.51773" lon="1.55524">
        <ele>1174.0</ele>
        <time>2019-08-04T13:21:46.328Z</time>
      </trkpt>
      <trkpt lat="42.51773" lon="1.55524">
        <ele>1174.0</ele>
        <time>2019-08-04T13:21:47.322Z</time>
      </trkpt>
      <trkpt lat="42.51771167" lon="1.555325">
        <ele>1174.0</ele>
        <time>2019-08-04T13:21:48.312Z</time>
      </trkpt>
      <trkpt lat="42.51770667" lon="1.55537167">
        <ele>1174.0</ele>
        <time>2019-08-04T13:21:49.329Z</time>
      </trkpt>
      <trkpt lat="42.51770667" lon="1.55537167">
        <ele>1174.0</ele>
        <time>2019-08-04T13:21:50.316Z</time>
      </trkpt>
      <trkpt lat="42.51770833" lon="1.55546833">
        <ele>1174.0</ele>
        <time>2019-08-04T13:21:51.329Z</time>
      </trkpt>
      <trkpt lat="42.51770833" lon="1.55546833">
        <ele>1174.0</ele>
        <time>2019-08-04T13:21:52.314Z</time>
      </trkpt>
      <trkpt lat="42.51773167" lon="1.55556">
        <ele>1173.0</ele>
        <time>2019-08-04T13:21:53.311Z</time>
      </trkpt>
      <trkpt lat="42.51776833" lon="1.55564">
        <ele>1173.0</ele>
        <time>2019-08-04T13:21:54.330Z</time>
      </trkpt>
      <trkpt lat="42.51776833" lon="1.55564">
        <ele>1173.0</ele>
        <time>2019-08-04T13:21:55.311Z</time>
      </trkpt>
      <trkpt lat="42.51776833" lon="1.55564">
        <ele>1173.0</ele>
        <time>2019-08-04T13:21:56.315Z</time>
      </trkpt>
      <trkpt lat="42.51781833" lon="1.55569667">
        <ele>1173.0</ele>
        <time>2019-08-04T13:21:57.311Z</time>
      </trkpt>
      <trkpt lat="42.51781833" lon="1.55569667">
        <ele>1173.0</ele>
        <time>2019-08-04T13:21:58.324Z</time>
      </trkpt>
      <trkpt lat="42.51786833" lon="1.55573">
        <ele>1173.0</ele>
        <time>2019-08-04T13:21:59.314Z</time>
      </trkpt>
      <trkpt lat="42.51789167" lon="1.55574">
        <ele>1173.0</ele>
        <time>2019-08-04T13:22:00.309Z</time>
      </trkpt>
      <trkpt lat="42.51789167" lon="1.55574">
        <ele>1173.0</ele>
        <time>2019-08-04T13:22:01.314Z</time>
      </trkpt>
      <trkpt lat="42.51793" lon="1.555755">
        <ele>1173.0</ele>
        <time>2019-08-04T13:22:02.314Z</time>
      </trkpt>
      <trkpt lat="42.51794667" lon="1.55576333">
        <ele>1173.0</ele>
        <time>2019-08-04T13:22:03.329Z</time>
      </trkpt>
      <trkpt lat="42.51794667" lon="1.55576333">
        <ele>1173.0</ele>
        <time>2019-08-04T13:22:04.313Z</time>
      </trkpt>
      <trkpt lat="42.51797667" lon="1.55577333">
        <ele>1173.0</ele>
        <time>2019-08-04T13:22:05.325Z</time>
      </trkpt>
      <trkpt lat="42.51797667" lon="1.55577333">
        <ele>1173.0</ele>
        <time>2019-08-04T13:22:06.316Z</time>
      </trkpt>
      <trkpt lat="42.518015" lon="1.55578">
        <ele>1173.0</ele>
        <time>2019-08-04T13:22:07.308Z</time>
      </trkpt>
      <trkpt lat="42.518015" lon="1.55578">
        <ele>1173.0</ele>
        <time>2019-08-04T13:22:08.324Z</time>
      </trkpt>
      <trkpt lat="42.51806333" lon="1.55579333">
        <ele>1173.0</ele>
        <time>2019-08-04T13:22:09.311Z</time>
      </trkpt>
      <trkpt lat="42.51806333" lon="1.55579333">
        <ele>1173.0</ele>
        <time>2019-08-04T13:22:10.314Z</time>
      </trkpt>
      <trkpt lat="42.51811833" lon="1.55582667">
        <ele>1173.0</ele>
        <time>2019-08-04T13:22:11.311Z</time>
      </trkpt>
      <trkpt lat="42.51811833" lon="1.55582667">
        <ele>1173.0</ele>
        <time>2019-08-04T13:22:12.315Z</time>
      </trkpt>
      <trkpt lat="42.51816667" lon="1.555865">
        <ele>1173.0</ele>
        <time>2019-08-04T13:22:13.342Z</time>
      </trkpt>
      <trkpt lat="42.518215" lon="1.55592167">
        <ele>1173.0</ele>
        <time>2019-08-04T13:22:14.322Z</time>
      </trkpt>
      <trkpt lat="42.518215" lon="1.55592167">
        <ele>1173.0</ele>
        <time>2019-08-04T13:22:15.310Z</time>
      </trkpt>
      <trkpt lat="42.51827167" lon="1.556">
        <ele>1173.0</ele>
        <time>2019-08-04T13:22:16.333Z</time>
      </trkpt>
      <trkpt lat="42.51827167" lon="1.556">
        <ele>1173.0</ele>
        <time>2019-08-04T13:22:17.314Z</time>
      </trkpt>
      <trkpt lat="42.51830667" lon="1.55605">
        <ele>1173.0</ele>
        <time>2019-08-04T13:22:18.326Z</time>
      </trkpt>
      <trkpt lat="42.51830667" lon="1.55605">
        <ele>1173.0</ele>
        <time>2019-08-04T13:22:19.315Z</time>
      </trkpt>
      <trkpt lat="42.518395" lon="1.556165">
        <ele>1172.0</ele>
        <time>2019-08-04T13:22:20.309Z</time>
      </trkpt>
      <trkpt lat="42.518395" lon="1.556165">
        <ele>1172.0</ele>
        <time>2019-08-04T13:22:21.325Z</time>
      </trkpt>
      <trkpt lat="42.51850333" lon="1.55630167">
        <ele>1171.0</ele>
        <time>2019-08-04T13:22:22.313Z</time>
      </trkpt>
      <trkpt lat="42.51855667" lon="1.55636833">
        <ele>1171.0</ele>
        <time>2019-08-04T13:22:23.309Z</time>
      </trkpt>
      <trkpt lat="42.51855667" lon="1.55636833">
        <ele>1171.0</ele>
        <time>2019-08-04T13:22:24.312Z</time>
      </trkpt>
      <trkpt lat="42.51866333" lon="1.55647667">
        <ele>1171.0</ele>
        <time>2019-08-04T13:22:25.328Z</time>
      </trkpt>
      <trkpt lat="42.51866333" lon="1.55647667">
        <ele>1171.0</ele>
        <time>2019-08-04T13:22:26.314Z</time>
      </trkpt>
      <trkpt lat="42.51877167" lon="1.55655333">
        <ele>1172.0</ele>
        <time>2019-08-04T13:22:27.329Z</time>
      </trkpt>
      <trkpt lat="42.51877167" lon="1.55655333">
        <ele>1172.0</ele>
        <time>2019-08-04T13:22:28.324Z</time>
      </trkpt>
      <trkpt lat="42.51887167" lon="1.55661167">
        <ele>1172.0</ele>
        <time>2019-08-04T13:22:29.302Z</time>
      </trkpt>
      <trkpt lat="42.51896" lon="1.556665">
        <ele>1173.0</ele>
        <time>2019-08-04T13:22:30.299Z</time>
      </trkpt>
      <trkpt lat="42.51899833" lon="1.55669">
        <ele>1173.0</ele>
        <time>2019-08-04T13:22:31.311Z</time>
      </trkpt>
      <trkpt lat="42.51899833" lon="1.55669">
        <ele>1173.0</ele>
        <time>2019-08-04T13:22:32.318Z</time>
      </trkpt>
      <trkpt lat="42.51907167" lon="1.55674">
        <ele>1173.0</ele>
        <time>2019-08-04T13:22:33.324Z</time>
      </trkpt>
      <trkpt lat="42.51907167" lon="1.55674">
        <ele>1173.0</ele>
        <time>2019-08-04T13:22:34.351Z</time>
      </trkpt>
      <trkpt lat="42.51907167" lon="1.55674">
        <ele>1173.0</ele>
        <time>2019-08-04T13:22:35.313Z</time>
      </trkpt>
      <trkpt lat="42.51914167" lon="1.55678333">
        <ele>1173.0</ele>
        <time>2019-08-04T13:22:36.312Z</time>
      </trkpt>
      <trkpt lat="42.51914167" lon="1.55678333">
        <ele>1173.0</ele>
        <time>2019-08-04T13:22:37.314Z</time>
      </trkpt>
      <trkpt lat="42.51920833" lon="1.55682">
        <ele>1173.0</ele>
        <time>2019-08-04T13:22:38.328Z</time>
      </trkpt>
      <trkpt lat="42.51920833" lon="1.55682">
        <ele>1173.0</ele>
        <time>2019-08-04T13:22:39.316Z</time>
      </trkpt>
      <trkpt lat="42.51927333" lon="1.55685833">
        <ele>1173.0</ele>
        <time>2019-08-04T13:22:40.336Z</time>
      </trkpt>
      <trkpt lat="42.51927333" lon="1.55685833">
        <ele>1173.0</ele>
        <time>2019-08-04T13:22:41.318Z</time>
      </trkpt>
      <trkpt lat="42.51935833" lon="1.55692">
        <ele>1173.0</ele>
        <time>2019-08-04T13:22:42.325Z</time>
      </trkpt>
      <trkpt lat="42.51935833" lon="1.55692">
        <ele>1173.0</ele>
        <time>2019-08-04T13:22:43.309Z</time>
      </trkpt>
      <trkpt lat="42.51935833" lon="1.55692">
        <ele>1173.0</ele>
        <time>2019-08-04T13:22:44.311Z</time>
      </trkpt>
      <trkpt lat="42.51941333" lon="1.55696">
        <ele>1173.0</ele>
        <time>2019-08-04T13:22:45.311Z</time>
      </trkpt>
      <trkpt lat="42.51941333" lon="1.55696">
        <ele>1173.0</ele>
        <time>2019-08-04T13:22:46.315Z</time>
      </trkpt>
      <trkpt lat="42.51946833" lon="1.55699333">
        <ele>1173.0</ele>
        <time>2019-08-04T13:22:47.309Z</time>
      </trkpt>
      <trkpt lat="42.51951167" lon="1.55705167">
        <ele>1173.0</ele>
        <time>2019-08-04T13:22:48.334Z</time>
      </trkpt>
      <trkpt lat="42.51951167" lon="1.55705167">
        <ele>1173.0</ele>
        <time>2019-08-04T13:22:49.314Z</time>
      </trkpt>
      <trkpt lat="42.51952667" lon="1.55708333">
        <ele>1173.0</ele>
        <time>2019-08-04T13:22:50.332Z</time>
      </trkpt>
      <trkpt lat="42.51954333" lon="1.55711167">
        <ele>1172.0</ele>
        <time>2019-08-04T13:22:51.309Z</time>
      </trkpt>
      <trkpt lat="42.51954333" lon="1.55711167">
        <ele>1172.0</ele>
        <time>2019-08-04T13:22:52.314Z</time>
      </trkpt>
      <trkpt lat="42.51957667" lon="1.55713667">
        <ele>1172.0</ele>
        <time>2019-08-04T13:22:53.312Z</time>
      </trkpt>
      <trkpt lat="42.51957667" lon="1.55713667">
        <ele>1172.0</ele>
        <time>2019-08-04T13:22:54.315Z</time>
      </trkpt>
      <trkpt lat="42.519595" lon="1.55713333">
        <ele>1172.0</ele>
        <time>2019-08-04T13:22:55.329Z</time>
      </trkpt>
      <trkpt lat="42.519595" lon="1.55713333">
        <ele>1172.0</ele>
        <time>2019-08-04T13:22:56.315Z</time>
      </trkpt>
      <trkpt lat="42.519595" lon="1.55713">
        <ele>1172.0</ele>
        <time>2019-08-04T13:22:57.311Z</time>
      </trkpt>
      <trkpt lat="42.519595" lon="1.55713">
        <ele>1172.0</ele>
        <time>2019-08-04T13:22:58.331Z</time>
      </trkpt>
      <trkpt lat="42.519595" lon="1.55713">
        <ele>1172.0</ele>
        <time>2019-08-04T13:22:59.305Z</time>
      </trkpt>
      <trkpt lat="42.51965333" lon="1.55714">
        <ele>1173.0</ele>
        <time>2019-08-04T13:23:00.330Z</time>
      </trkpt>
      <trkpt lat="42.51967333" lon="1.55715667">
        <ele>1174.0</ele>
        <time>2019-08-04T13:23:01.331Z</time>
      </trkpt>
      <trkpt lat="42.51967333" lon="1.55715667">
        <ele>1174.0</ele>
        <time>2019-08-04T13:23:02.312Z</time>
      </trkpt>
      <trkpt lat="42.51971333" lon="1.55719167">
        <ele>1174.0</ele>
        <time>2019-08-04T13:23:03.332Z</time>
      </trkpt>
      <trkpt lat="42.51971333" lon="1.55719167">
        <ele>1174.0</ele>
        <time>2019-08-04T13:23:04.323Z</time>
      </trkpt>
      <trkpt lat="42.51975833" lon="1.55722333">
        <ele>1175.0</ele>
        <time>2019-08-04T13:23:05.304Z</time>
      </trkpt>
      <trkpt lat="42.51978167" lon="1.557245">
        <ele>1175.0</ele>
        <time>2019-08-04T13:23:06.327Z</time>
      </trkpt>
      <trkpt lat="42.51978167" lon="1.557245">
        <ele>1175.0</ele>
        <time>2019-08-04T13:23:07.327Z</time>
      </trkpt>
      <trkpt lat="42.51983167" lon="1.55728833">
        <ele>1176.0</ele>
        <time>2019-08-04T13:23:08.332Z</time>
      </trkpt>
      <trkpt lat="42.51983167" lon="1.55728833">
        <ele>1176.0</ele>
        <time>2019-08-04T13:23:09.326Z</time>
      </trkpt>
      <trkpt lat="42.519885" lon="1.55733667">
        <ele>1176.0</ele>
        <time>2019-08-04T13:23:10.328Z</time>
      </trkpt>
      <trkpt lat="42.519885" lon="1.55733667">
        <ele>1176.0</ele>
        <time>2019-08-04T13:23:11.327Z</time>
      </trkpt>
      <trkpt lat="42.51994" lon="1.55738667">
        <ele>1176.0</ele>
        <time>2019-08-04T13:23:12.329Z</time>
      </trkpt>
      <trkpt lat="42.51994" lon="1.55738667">
        <ele>1176.0</ele>
        <time>2019-08-04T13:23:13.325Z</time>
      </trkpt>
      <trkpt lat="42.52000167" lon="1.55744167">
        <ele>1177.0</ele>
        <time>2019-08-04T13:23:14.299Z</time>
      </trkpt>
      <trkpt lat="42.52000167" lon="1.55744167">
        <ele>1177.0</ele>
        <time>2019-08-04T13:23:15.326Z</time>
      </trkpt>
      <trkpt lat="42.520065" lon="1.55750167">
        <ele>1177.0</ele>
        <time>2019-08-04T13:23:16.329Z</time>
      </trkpt>
      <trkpt lat="42.520065" lon="1.55750167">
        <ele>1177.0</ele>
        <time>2019-08-04T13:23:17.323Z</time>
      </trkpt>
      <trkpt lat="42.52012833" lon="1.55756">
        <ele>1177.0</ele>
        <time>2019-08-04T13:23:18.326Z</time>
      </trkpt>
      <trkpt lat="42.52012833" lon="1.55756">
        <ele>1177.0</ele>
        <time>2019-08-04T13:23:19.326Z</time>
      </trkpt>
      <trkpt lat="42.52019333" lon="1.55762">
        <ele>1177.0</ele>
        <time>2019-08-04T13:23:20.329Z</time>
      </trkpt>
      <trkpt lat="42.52019333" lon="1.55762">
        <ele>1177.0</ele>
        <time>2019-08-04T13:23:21.324Z</time>
      </trkpt>
      <trkpt lat="42.52026" lon="1.55768">
        <ele>1178.0</ele>
        <time>2019-08-04T13:23:22.305Z</time>
      </trkpt>
      <trkpt lat="42.52026" lon="1.55768">
        <ele>1178.0</ele>
        <time>2019-08-04T13:23:23.327Z</time>
      </trkpt>
      <trkpt lat="42.52032333" lon="1.55774">
        <ele>1178.0</ele>
        <time>2019-08-04T13:23:24.326Z</time>
      </trkpt>
      <trkpt lat="42.52032333" lon="1.55774">
        <ele>1178.0</ele>
        <time>2019-08-04T13:23:25.323Z</time>
      </trkpt>
      <trkpt lat="42.52038667" lon="1.55780333">
        <ele>1179.0</ele>
        <time>2019-08-04T13:23:26.316Z</time>
      </trkpt>
      <trkpt lat="42.52038667" lon="1.55780333">
        <ele>1179.0</ele>
        <time>2019-08-04T13:23:27.299Z</time>
      </trkpt>
      <trkpt lat="42.52045" lon="1.55786167">
        <ele>1179.0</ele>
        <time>2019-08-04T13:23:28.330Z</time>
      </trkpt>
      <trkpt lat="42.52045" lon="1.55786167">
        <ele>1179.0</ele>
        <time>2019-08-04T13:23:29.307Z</time>
      </trkpt>
      <trkpt lat="42.52051333" lon="1.55792667">
        <ele>1180.0</ele>
        <time>2019-08-04T13:23:30.333Z</time>
      </trkpt>
      <trkpt lat="42.52051333" lon="1.55792667">
        <ele>1180.0</ele>
        <time>2019-08-04T13:23:31.299Z</time>
      </trkpt>
      <trkpt lat="42.52057833" lon="1.55799167">
        <ele>1180.0</ele>
        <time>2019-08-04T13:23:32.305Z</time>
      </trkpt>
      <trkpt lat="42.52057833" lon="1.55799167">
        <ele>1180.0</ele>
        <time>2019-08-04T13:23:33.328Z</time>
      </trkpt>
      <trkpt lat="42.52064167" lon="1.55805833">
        <ele>1181.0</ele>
        <time>2019-08-04T13:23:34.313Z</time>
      </trkpt>
      <trkpt lat="42.52064167" lon="1.55805833">
        <ele>1181.0</ele>
        <time>2019-08-04T13:23:35.319Z</time>
      </trkpt>
      <trkpt lat="42.520705" lon="1.55812">
        <ele>1182.0</ele>
        <time>2019-08-04T13:23:36.325Z</time>
      </trkpt>
      <trkpt lat="42.520705" lon="1.55812">
        <ele>1182.0</ele>
        <time>2019-08-04T13:23:37.333Z</time>
      </trkpt>
      <trkpt lat="42.52076833" lon="1.55818333">
        <ele>1183.0</ele>
        <time>2019-08-04T13:23:38.299Z</time>
      </trkpt>
      <trkpt lat="42.5208" lon="1.55821333">
        <ele>1183.0</ele>
        <time>2019-08-04T13:23:39.305Z</time>
      </trkpt>
      <trkpt lat="42.5208" lon="1.55821333">
        <ele>1183.0</ele>
        <time>2019-08-04T13:23:40.328Z</time>
      </trkpt>
      <trkpt lat="42.52086167" lon="1.55827667">
        <ele>1184.0</ele>
        <time>2019-08-04T13:23:41.306Z</time>
      </trkpt>
      <trkpt lat="42.52086167" lon="1.55827667">
        <ele>1184.0</ele>
        <time>2019-08-04T13:23:42.329Z</time>
      </trkpt>
      <trkpt lat="42.52092333" lon="1.55833667">
        <ele>1185.0</ele>
        <time>2019-08-04T13:23:43.330Z</time>
      </trkpt>
      <trkpt lat="42.52095833" lon="1.55837">
        <ele>1185.0</ele>
        <time>2019-08-04T13:23:44.300Z</time>
      </trkpt>
      <trkpt lat="42.52095833" lon="1.55837">
        <ele>1185.0</ele>
        <time>2019-08-04T13:23:45.329Z</time>
      </trkpt>
      <trkpt lat="42.52102667" lon="1.55844167">
        <ele>1186.0</ele>
        <time>2019-08-04T13:23:46.297Z</time>
      </trkpt>
      <trkpt lat="42.52102667" lon="1.55844167">
        <ele>1186.0</ele>
        <time>2019-08-04T13:23:47.326Z</time>
      </trkpt>
      <trkpt lat="42.521095" lon="1.55852167">
        <ele>1186.0</ele>
        <time>2019-08-04T13:23:48.326Z</time>
      </trkpt>
      <trkpt lat="42.521095" lon="1.55852167">
        <ele>1186.0</ele>
        <time>2019-08-04T13:23:49.326Z</time>
      </trkpt>
      <trkpt lat="42.52116333" lon="1.55860667">
        <ele>1186.0</ele>
        <time>2019-08-04T13:23:50.330Z</time>
      </trkpt>
      <trkpt lat="42.52116333" lon="1.55860667">
        <ele>1186.0</ele>
        <time>2019-08-04T13:23:51.297Z</time>
      </trkpt>
      <trkpt lat="42.52123333" lon="1.55870167">
        <ele>1186.0</ele>
        <time>2019-08-04T13:23:52.303Z</time>
      </trkpt>
      <trkpt lat="42.52123333" lon="1.55870167">
        <ele>1186.0</ele>
        <time>2019-08-04T13:23:53.312Z</time>
      </trkpt>
      <trkpt lat="42.52130667" lon="1.55879">
        <ele>1185.0</ele>
        <time>2019-08-04T13:23:54.298Z</time>
      </trkpt>
      <trkpt lat="42.52130667" lon="1.55879">
        <ele>1185.0</ele>
        <time>2019-08-04T13:23:55.326Z</time>
      </trkpt>
      <trkpt lat="42.52137667" lon="1.558885">
        <ele>1186.0</ele>
        <time>2019-08-04T13:23:56.331Z</time>
      </trkpt>
      <trkpt lat="42.52137667" lon="1.558885">
        <ele>1186.0</ele>
        <time>2019-08-04T13:23:57.333Z</time>
      </trkpt>
      <trkpt lat="42.52145167" lon="1.55898">
        <ele>1185.0</ele>
        <time>2019-08-04T13:23:58.330Z</time>
      </trkpt>
      <trkpt lat="42.52145167" lon="1.55898">
        <ele>1185.0</ele>
        <time>2019-08-04T13:23:59.326Z</time>
      </trkpt>
      <trkpt lat="42.52152667" lon="1.55907833">
        <ele>1185.0</ele>
        <time>2019-08-04T13:24:00.327Z</time>
      </trkpt>
      <trkpt lat="42.52152667" lon="1.55907833">
        <ele>1185.0</ele>
        <time>2019-08-04T13:24:01.326Z</time>
      </trkpt>
      <trkpt lat="42.52160333" lon="1.55917667">
        <ele>1185.0</ele>
        <time>2019-08-04T13:24:02.313Z</time>
      </trkpt>
      <trkpt lat="42.52160333" lon="1.55917667">
        <ele>1185.0</ele>
        <time>2019-08-04T13:24:03.301Z</time>
      </trkpt>
      <trkpt lat="42.52168" lon="1.55927833">
        <ele>1185.0</ele>
        <time>2019-08-04T13:24:04.326Z</time>
      </trkpt>
      <trkpt lat="42.52168" lon="1.55927833">
        <ele>1185.0</ele>
        <time>2019-08-04T13:24:05.326Z</time>
      </trkpt>
      <trkpt lat="42.52175833" lon="1.559385">
        <ele>1184.0</ele>
        <time>2019-08-04T13:24:06.326Z</time>
      </trkpt>
      <trkpt lat="42.52175833" lon="1.559385">
        <ele>1184.0</ele>
        <time>2019-08-04T13:24:07.324Z</time>
      </trkpt>
      <trkpt lat="42.52184" lon="1.55949167">
        <ele>1184.0</ele>
        <time>2019-08-04T13:24:08.306Z</time>
      </trkpt>
      <trkpt lat="42.52184" lon="1.55949167">
        <ele>1184.0</ele>
        <time>2019-08-04T13:24:09.327Z</time>
      </trkpt>
      <trkpt lat="42.52191833" lon="1.55960667">
        <ele>1185.0</ele>
        <time>2019-08-04T13:24:10.330Z</time>
      </trkpt>
      <trkpt lat="42.521955" lon="1.559665">
        <ele>1185.0</ele>
        <time>2019-08-04T13:24:11.327Z</time>
      </trkpt>
      <trkpt lat="42.521955" lon="1.559665">
        <ele>1185.0</ele>
        <time>2019-08-04T13:24:12.317Z</time>
      </trkpt>
      <trkpt lat="42.52202833" lon="1.55978167">
        <ele>1185.0</ele>
        <time>2019-08-04T13:24:13.298Z</time>
      </trkpt>
      <trkpt lat="42.52206167" lon="1.55984333">
        <ele>1185.0</ele>
        <time>2019-08-04T13:24:14.300Z</time>
      </trkpt>
      <trkpt lat="42.52206167" lon="1.55984333">
        <ele>1185.0</ele>
        <time>2019-08-04T13:24:15.326Z</time>
      </trkpt>
      <trkpt lat="42.52212667" lon="1.559975">
        <ele>1185.0</ele>
        <time>2019-08-04T13:24:16.331Z</time>
      </trkpt>
      <trkpt lat="42.52212667" lon="1.559975">
        <ele>1185.0</ele>
        <time>2019-08-04T13:24:17.325Z</time>
      </trkpt>
      <trkpt lat="42.52219167" lon="1.56011333">
        <ele>1186.0</ele>
        <time>2019-08-04T13:24:18.329Z</time>
      </trkpt>
      <trkpt lat="42.52219167" lon="1.56011333">
        <ele>1186.0</ele>
        <time>2019-08-04T13:24:19.326Z</time>
      </trkpt>
      <trkpt lat="42.52226" lon="1.560255">
        <ele>1186.0</ele>
        <time>2019-08-04T13:24:20.331Z</time>
      </trkpt>
      <trkpt lat="42.52226" lon="1.560255">
        <ele>1186.0</ele>
        <time>2019-08-04T13:24:21.321Z</time>
      </trkpt>
      <trkpt lat="42.52233167" lon="1.560395">
        <ele>1185.0</ele>
        <time>2019-08-04T13:24:22.302Z</time>
      </trkpt>
      <trkpt lat="42.52233167" lon="1.560395">
        <ele>1185.0</ele>
        <time>2019-08-04T13:24:23.326Z</time>
      </trkpt>
      <trkpt lat="42.522405" lon="1.56054">
        <ele>1185.0</ele>
        <time>2019-08-04T13:24:24.310Z</time>
      </trkpt>
      <trkpt lat="42.522405" lon="1.56054">
        <ele>1185.0</ele>
        <time>2019-08-04T13:24:25.316Z</time>
      </trkpt>
      <trkpt lat="42.522485" lon="1.56068333">
        <ele>1185.0</ele>
        <time>2019-08-04T13:24:26.327Z</time>
      </trkpt>
      <trkpt lat="42.52252833" lon="1.56075">
        <ele>1185.0</ele>
        <time>2019-08-04T13:24:27.312Z</time>
      </trkpt>
      <trkpt lat="42.52257333" lon="1.56081667">
        <ele>1185.0</ele>
        <time>2019-08-04T13:24:28.298Z</time>
      </trkpt>
      <trkpt lat="42.52257333" lon="1.56081667">
        <ele>1185.0</ele>
        <time>2019-08-04T13:24:29.310Z</time>
      </trkpt>
      <trkpt lat="42.52266333" lon="1.56095167">
        <ele>1185.0</ele>
        <time>2019-08-04T13:24:30.333Z</time>
      </trkpt>
      <trkpt lat="42.52266333" lon="1.56095167">
        <ele>1185.0</ele>
        <time>2019-08-04T13:24:31.299Z</time>
      </trkpt>
      <trkpt lat="42.52275333" lon="1.56108833">
        <ele>1185.0</ele>
        <time>2019-08-04T13:24:32.304Z</time>
      </trkpt>
      <trkpt lat="42.5228" lon="1.56115667">
        <ele>1185.0</ele>
        <time>2019-08-04T13:24:33.329Z</time>
      </trkpt>
      <trkpt lat="42.5228" lon="1.56115667">
        <ele>1185.0</ele>
        <time>2019-08-04T13:24:34.324Z</time>
      </trkpt>
      <trkpt lat="42.52289833" lon="1.56128833">
        <ele>1185.0</ele>
        <time>2019-08-04T13:24:35.322Z</time>
      </trkpt>
      <trkpt lat="42.52294667" lon="1.56135333">
        <ele>1185.0</ele>
        <time>2019-08-04T13:24:36.304Z</time>
      </trkpt>
      <trkpt lat="42.52294667" lon="1.56135333">
        <ele>1185.0</ele>
        <time>2019-08-04T13:24:37.327Z</time>
      </trkpt>
      <trkpt lat="42.52304833" lon="1.561475">
        <ele>1185.0</ele>
        <time>2019-08-04T13:24:38.331Z</time>
      </trkpt>
      <trkpt lat="42.52304833" lon="1.561475">
        <ele>1185.0</ele>
        <time>2019-08-04T13:24:39.325Z</time>
      </trkpt>
      <trkpt lat="42.52315333" lon="1.56159167">
        <ele>1186.0</ele>
        <time>2019-08-04T13:24:40.330Z</time>
      </trkpt>
      <trkpt lat="42.52320667" lon="1.56164833">
        <ele>1186.0</ele>
        <time>2019-08-04T13:24:41.330Z</time>
      </trkpt>
      <trkpt lat="42.52320667" lon="1.56164833">
        <ele>1186.0</ele>
        <time>2019-08-04T13:24:42.325Z</time>
      </trkpt>
      <trkpt lat="42.52331833" lon="1.56176333">
        <ele>1186.0</ele>
        <time>2019-08-04T13:24:43.328Z</time>
      </trkpt>
      <trkpt lat="42.52337333" lon="1.56181833">
        <ele>1186.0</ele>
        <time>2019-08-04T13:24:44.314Z</time>
      </trkpt>
      <trkpt lat="42.52343167" lon="1.56186833">
        <ele>1187.0</ele>
        <time>2019-08-04T13:24:45.301Z</time>
      </trkpt>
      <trkpt lat="42.52343167" lon="1.56186833">
        <ele>1187.0</ele>
        <time>2019-08-04T13:24:46.325Z</time>
      </trkpt>
      <trkpt lat="42.52355" lon="1.56196167">
        <ele>1188.0</ele>
        <time>2019-08-04T13:24:47.330Z</time>
      </trkpt>
      <trkpt lat="42.52355" lon="1.56196167">
        <ele>1188.0</ele>
        <time>2019-08-04T13:24:48.324Z</time>
      </trkpt>
      <trkpt lat="42.52367167" lon="1.56205833">
        <ele>1188.0</ele>
        <time>2019-08-04T13:24:49.312Z</time>
      </trkpt>
      <trkpt lat="42.52373167" lon="1.56211">
        <ele>1188.0</ele>
        <time>2019-08-04T13:24:50.334Z</time>
      </trkpt>
      <trkpt lat="42.52379167" lon="1.56215833">
        <ele>1188.0</ele>
        <time>2019-08-04T13:24:51.331Z</time>
      </trkpt>
      <trkpt lat="42.52379167" lon="1.56215833">
        <ele>1188.0</ele>
        <time>2019-08-04T13:24:52.325Z</time>
      </trkpt>
      <trkpt lat="42.52391333" lon="1.562255">
        <ele>1189.0</ele>
        <time>2019-08-04T13:24:53.327Z</time>
      </trkpt>
      <trkpt lat="42.52391333" lon="1.562255">
        <ele>1189.0</ele>
        <time>2019-08-04T13:24:54.324Z</time>
      </trkpt>
      <trkpt lat="42.52403167" lon="1.56235">
        <ele>1190.0</ele>
        <time>2019-08-04T13:24:55.333Z</time>
      </trkpt>
      <trkpt lat="42.52409" lon="1.56239667">
        <ele>1190.0</ele>
        <time>2019-08-04T13:24:56.331Z</time>
      </trkpt>
      <trkpt lat="42.52409" lon="1.56239667">
        <ele>1190.0</ele>
        <time>2019-08-04T13:24:57.326Z</time>
      </trkpt>
      <trkpt lat="42.52420167" lon="1.562505">
        <ele>1191.0</ele>
        <time>2019-08-04T13:24:58.331Z</time>
      </trkpt>
      <trkpt lat="42.52420167" lon="1.562505">
        <ele>1191.0</ele>
        <time>2019-08-04T13:24:59.325Z</time>
      </trkpt>
      <trkpt lat="42.52430667" lon="1.562625">
        <ele>1191.0</ele>
        <time>2019-08-04T13:25:00.331Z</time>
      </trkpt>
      <trkpt lat="42.52430667" lon="1.562625">
        <ele>1191.0</ele>
        <time>2019-08-04T13:25:01.324Z</time>
      </trkpt>
      <trkpt lat="42.52440333" lon="1.56275167">
        <ele>1191.0</ele>
        <time>2019-08-04T13:25:02.305Z</time>
      </trkpt>
      <trkpt lat="42.52440333" lon="1.56275167">
        <ele>1191.0</ele>
        <time>2019-08-04T13:25:03.326Z</time>
      </trkpt>
      <trkpt lat="42.52448833" lon="1.56288667">
        <ele>1191.0</ele>
        <time>2019-08-04T13:25:04.299Z</time>
      </trkpt>
      <trkpt lat="42.52448833" lon="1.56288667">
        <ele>1191.0</ele>
        <time>2019-08-04T13:25:05.327Z</time>
      </trkpt>
      <trkpt lat="42.52456167" lon="1.56303167">
        <ele>1191.0</ele>
        <time>2019-08-04T13:25:06.330Z</time>
      </trkpt>
      <trkpt lat="42.52456167" lon="1.56303167">
        <ele>1191.0</ele>
        <time>2019-08-04T13:25:07.326Z</time>
      </trkpt>
      <trkpt lat="42.524625" lon="1.56317333">
        <ele>1192.0</ele>
        <time>2019-08-04T13:25:08.307Z</time>
      </trkpt>
      <trkpt lat="42.524625" lon="1.56317333">
        <ele>1192.0</ele>
        <time>2019-08-04T13:25:09.327Z</time>
      </trkpt>
      <trkpt lat="42.52468" lon="1.56330833">
        <ele>1192.0</ele>
        <time>2019-08-04T13:25:10.329Z</time>
      </trkpt>
      <trkpt lat="42.52470333" lon="1.563375">
        <ele>1192.0</ele>
        <time>2019-08-04T13:25:11.331Z</time>
      </trkpt>
      <trkpt lat="42.52470333" lon="1.563375">
        <ele>1192.0</ele>
        <time>2019-08-04T13:25:12.324Z</time>
      </trkpt>
      <trkpt lat="42.52474833" lon="1.563505">
        <ele>1192.0</ele>
        <time>2019-08-04T13:25:13.305Z</time>
      </trkpt>
      <trkpt lat="42.52474833" lon="1.563505">
        <ele>1192.0</ele>
        <time>2019-08-04T13:25:14.327Z</time>
      </trkpt>
      <trkpt lat="42.52478833" lon="1.56363333">
        <ele>1192.0</ele>
        <time>2019-08-04T13:25:15.332Z</time>
      </trkpt>
      <trkpt lat="42.52480667" lon="1.56369667">
        <ele>1193.0</ele>
        <time>2019-08-04T13:25:16.331Z</time>
      </trkpt>
      <trkpt lat="42.52480667" lon="1.56369667">
        <ele>1193.0</ele>
        <time>2019-08-04T13:25:17.327Z</time>
      </trkpt>
      <trkpt lat="42.52484333" lon="1.56382333">
        <ele>1193.0</ele>
        <time>2019-08-04T13:25:18.326Z</time>
      </trkpt>
      <trkpt lat="42.52484333" lon="1.56382333">
        <ele>1193.0</ele>
        <time>2019-08-04T13:25:19.324Z</time>
      </trkpt>
      <trkpt lat="42.52488167" lon="1.56394167">
        <ele>1193.0</ele>
        <time>2019-08-04T13:25:20.304Z</time>
      </trkpt>
      <trkpt lat="42.52488167" lon="1.56394167">
        <ele>1193.0</ele>
        <time>2019-08-04T13:25:21.326Z</time>
      </trkpt>
      <trkpt lat="42.52491667" lon="1.56405167">
        <ele>1193.0</ele>
        <time>2019-08-04T13:25:22.331Z</time>
      </trkpt>
      <trkpt lat="42.52491667" lon="1.56405167">
        <ele>1193.0</ele>
        <time>2019-08-04T13:25:23.332Z</time>
      </trkpt>
      <trkpt lat="42.524955" lon="1.56415333">
        <ele>1193.0</ele>
        <time>2019-08-04T13:25:24.327Z</time>
      </trkpt>
      <trkpt lat="42.524955" lon="1.56415333">
        <ele>1193.0</ele>
        <time>2019-08-04T13:25:25.332Z</time>
      </trkpt>
      <trkpt lat="42.52499167" lon="1.56425167">
        <ele>1194.0</ele>
        <time>2019-08-04T13:25:26.330Z</time>
      </trkpt>
      <trkpt lat="42.52499167" lon="1.56425167">
        <ele>1194.0</ele>
        <time>2019-08-04T13:25:27.327Z</time>
      </trkpt>
      <trkpt lat="42.52501333" lon="1.564355">
        <ele>1194.0</ele>
        <time>2019-08-04T13:25:28.331Z</time>
      </trkpt>
      <trkpt lat="42.52501333" lon="1.564355">
        <ele>1194.0</ele>
        <time>2019-08-04T13:25:29.324Z</time>
      </trkpt>
      <trkpt lat="42.52503833" lon="1.56445333">
        <ele>1194.0</ele>
        <time>2019-08-04T13:25:30.316Z</time>
      </trkpt>
      <trkpt lat="42.52505667" lon="1.56449667">
        <ele>1194.0</ele>
        <time>2019-08-04T13:25:31.323Z</time>
      </trkpt>
      <trkpt lat="42.52507333" lon="1.56453833">
        <ele>1194.0</ele>
        <time>2019-08-04T13:25:32.331Z</time>
      </trkpt>
      <trkpt lat="42.52509" lon="1.56458">
        <ele>1195.0</ele>
        <time>2019-08-04T13:25:33.327Z</time>
      </trkpt>
      <trkpt lat="42.52509" lon="1.56458">
        <ele>1195.0</ele>
        <time>2019-08-04T13:25:34.321Z</time>
      </trkpt>
      <trkpt lat="42.525115" lon="1.56467167">
        <ele>1195.0</ele>
        <time>2019-08-04T13:25:35.304Z</time>
      </trkpt>
      <trkpt lat="42.525115" lon="1.56467167">
        <ele>1195.0</ele>
        <time>2019-08-04T13:25:36.330Z</time>
      </trkpt>
      <trkpt lat="42.525135" lon="1.56476667">
        <ele>1195.0</ele>
        <time>2019-08-04T13:25:37.330Z</time>
      </trkpt>
      <trkpt lat="42.52514833" lon="1.56481167">
        <ele>1196.0</ele>
        <time>2019-08-04T13:25:38.331Z</time>
      </trkpt>
      <trkpt lat="42.52514833" lon="1.56481167">
        <ele>1196.0</ele>
        <time>2019-08-04T13:25:39.324Z</time>
      </trkpt>
      <trkpt lat="42.52517333" lon="1.56490333">
        <ele>1196.0</ele>
        <time>2019-08-04T13:25:40.330Z</time>
      </trkpt>
      <trkpt lat="42.52518667" lon="1.56494667">
        <ele>1197.0</ele>
        <time>2019-08-04T13:25:41.297Z</time>
      </trkpt>
      <trkpt lat="42.52518667" lon="1.56494667">
        <ele>1197.0</ele>
        <time>2019-08-04T13:25:42.324Z</time>
      </trkpt>
      <trkpt lat="42.52521167" lon="1.56503167">
        <ele>1198.0</ele>
        <time>2019-08-04T13:25:43.331Z</time>
      </trkpt>
      <trkpt lat="42.52522667" lon="1.56507167">
        <ele>1198.0</ele>
        <time>2019-08-04T13:25:44.302Z</time>
      </trkpt>
      <trkpt lat="42.52522667" lon="1.56507167">
        <ele>1198.0</ele>
        <time>2019-08-04T13:25:45.325Z</time>
      </trkpt>
      <trkpt lat="42.52526" lon="1.56515333">
        <ele>1198.0</ele>
        <time>2019-08-04T13:25:46.333Z</time>
      </trkpt>
      <trkpt lat="42.52526" lon="1.56515333">
        <ele>1198.0</ele>
        <time>2019-08-04T13:25:47.327Z</time>
      </trkpt>
      <trkpt lat="42.525295" lon="1.56523667">
        <ele>1199.0</ele>
        <time>2019-08-04T13:25:48.327Z</time>
      </trkpt>
      <trkpt lat="42.52531" lon="1.56528">
        <ele>1199.0</ele>
        <time>2019-08-04T13:25:49.330Z</time>
      </trkpt>
      <trkpt lat="42.52531" lon="1.56528">
        <ele>1199.0</ele>
        <time>2019-08-04T13:25:50.325Z</time>
      </trkpt>
      <trkpt lat="42.525345" lon="1.56536">
        <ele>1200.0</ele>
        <time>2019-08-04T13:25:51.328Z</time>
      </trkpt>
      <trkpt lat="42.525345" lon="1.56536">
        <ele>1200.0</ele>
        <time>2019-08-04T13:25:52.311Z</time>
      </trkpt>
      <trkpt lat="42.52538" lon="1.56544167">
        <ele>1201.0</ele>
        <time>2019-08-04T13:25:53.304Z</time>
      </trkpt>
      <trkpt lat="42.52538" lon="1.56544167">
        <ele>1201.0</ele>
        <time>2019-08-04T13:25:54.327Z</time>
      </trkpt>
      <trkpt lat="42.52541833" lon="1.56552667">
        <ele>1201.0</ele>
        <time>2019-08-04T13:25:55.329Z</time>
      </trkpt>
      <trkpt lat="42.525435" lon="1.565565">
        <ele>1201.0</ele>
        <time>2019-08-04T13:25:56.313Z</time>
      </trkpt>
      <trkpt lat="42.525435" lon="1.565565">
        <ele>1201.0</ele>
        <time>2019-08-04T13:25:57.296Z</time>
      </trkpt>
      <trkpt lat="42.52546167" lon="1.56564333">
        <ele>1202.0</ele>
        <time>2019-08-04T13:25:58.330Z</time>
      </trkpt>
      <trkpt lat="42.52546167" lon="1.56564333">
        <ele>1202.0</ele>
        <time>2019-08-04T13:25:59.324Z</time>
      </trkpt>
      <trkpt lat="42.52549667" lon="1.56571333">
        <ele>1203.0</ele>
        <time>2019-08-04T13:26:00.305Z</time>
      </trkpt>
      <trkpt lat="42.52549667" lon="1.56571333">
        <ele>1203.0</ele>
        <time>2019-08-04T13:26:01.327Z</time>
      </trkpt>
      <trkpt lat="42.52553" lon="1.565785">
        <ele>1203.0</ele>
        <time>2019-08-04T13:26:02.331Z</time>
      </trkpt>
      <trkpt lat="42.525545" lon="1.56581833">
        <ele>1204.0</ele>
        <time>2019-08-04T13:26:03.331Z</time>
      </trkpt>
      <trkpt lat="42.52556167" lon="1.565855">
        <ele>1204.0</ele>
        <time>2019-08-04T13:26:04.328Z</time>
      </trkpt>
      <trkpt lat="42.52556167" lon="1.565855">
        <ele>1204.0</ele>
        <time>2019-08-04T13:26:05.325Z</time>
      </trkpt>
      <trkpt lat="42.52559333" lon="1.565925">
        <ele>1204.0</ele>
        <time>2019-08-04T13:26:06.312Z</time>
      </trkpt>
      <trkpt lat="42.52561" lon="1.56595667">
        <ele>1204.0</ele>
        <time>2019-08-04T13:26:07.335Z</time>
      </trkpt>
      <trkpt lat="42.52562833" lon="1.56599">
        <ele>1204.0</ele>
        <time>2019-08-04T13:26:08.332Z</time>
      </trkpt>
      <trkpt lat="42.52562833" lon="1.56599">
        <ele>1204.0</ele>
        <time>2019-08-04T13:26:09.325Z</time>
      </trkpt>
      <trkpt lat="42.52566167" lon="1.56605667">
        <ele>1204.0</ele>
        <time>2019-08-04T13:26:10.306Z</time>
      </trkpt>
      <trkpt lat="42.52566167" lon="1.56605667">
        <ele>1204.0</ele>
        <time>2019-08-04T13:26:11.327Z</time>
      </trkpt>
      <trkpt lat="42.52569833" lon="1.56612">
        <ele>1204.0</ele>
        <time>2019-08-04T13:26:12.329Z</time>
      </trkpt>
      <trkpt lat="42.52569833" lon="1.56612">
        <ele>1204.0</ele>
        <time>2019-08-04T13:26:13.324Z</time>
      </trkpt>
      <trkpt lat="42.525735" lon="1.56617833">
        <ele>1204.0</ele>
        <time>2019-08-04T13:26:14.333Z</time>
      </trkpt>
      <trkpt lat="42.525735" lon="1.56617833">
        <ele>1204.0</ele>
        <time>2019-08-04T13:26:15.299Z</time>
      </trkpt>
      <trkpt lat="42.52577167" lon="1.56623667">
        <ele>1204.0</ele>
        <time>2019-08-04T13:26:16.305Z</time>
      </trkpt>
      <trkpt lat="42.52577167" lon="1.56623667">
        <ele>1204.0</ele>
        <time>2019-08-04T13:26:17.313Z</time>
      </trkpt>
      <trkpt lat="42.52580833" lon="1.56629167">
        <ele>1204.0</ele>
        <time>2019-08-04T13:26:18.297Z</time>
      </trkpt>
      <trkpt lat="42.52580833" lon="1.56629167">
        <ele>1204.0</ele>
        <time>2019-08-04T13:26:19.325Z</time>
      </trkpt>
      <trkpt lat="42.525845" lon="1.56635">
        <ele>1204.0</ele>
        <time>2019-08-04T13:26:20.331Z</time>
      </trkpt>
      <trkpt lat="42.525845" lon="1.56635">
        <ele>1204.0</ele>
        <time>2019-08-04T13:26:21.327Z</time>
      </trkpt>
      <trkpt lat="42.52588333" lon="1.566405">
        <ele>1204.0</ele>
        <time>2019-08-04T13:26:22.330Z</time>
      </trkpt>
      <trkpt lat="42.52588333" lon="1.566405">
        <ele>1204.0</ele>
        <time>2019-08-04T13:26:23.327Z</time>
      </trkpt>
      <trkpt lat="42.52592333" lon="1.56646">
        <ele>1204.0</ele>
        <time>2019-08-04T13:26:24.300Z</time>
      </trkpt>
      <trkpt lat="42.52592333" lon="1.56646">
        <ele>1204.0</ele>
        <time>2019-08-04T13:26:25.325Z</time>
      </trkpt>
      <trkpt lat="42.52596333" lon="1.566515">
        <ele>1204.0</ele>
        <time>2019-08-04T13:26:26.308Z</time>
      </trkpt>
      <trkpt lat="42.52598167" lon="1.56654333">
        <ele>1204.0</ele>
        <time>2019-08-04T13:26:27.332Z</time>
      </trkpt>
      <trkpt lat="42.52600167" lon="1.56657">
        <ele>1204.0</ele>
        <time>2019-08-04T13:26:28.329Z</time>
      </trkpt>
      <trkpt lat="42.52600167" lon="1.56657">
        <ele>1204.0</ele>
        <time>2019-08-04T13:26:29.317Z</time>
      </trkpt>
      <trkpt lat="42.52604333" lon="1.566625">
        <ele>1204.0</ele>
        <time>2019-08-04T13:26:30.300Z</time>
      </trkpt>
      <trkpt lat="42.52604333" lon="1.566625">
        <ele>1204.0</ele>
        <time>2019-08-04T13:26:31.306Z</time>
      </trkpt>
      <trkpt lat="42.526085" lon="1.56667667">
        <ele>1204.0</ele>
        <time>2019-08-04T13:26:32.329Z</time>
      </trkpt>
      <trkpt lat="42.526085" lon="1.56667667">
        <ele>1204.0</ele>
        <time>2019-08-04T13:26:33.326Z</time>
      </trkpt>
      <trkpt lat="42.52612833" lon="1.56673">
        <ele>1204.0</ele>
        <time>2019-08-04T13:26:34.336Z</time>
      </trkpt>
      <trkpt lat="42.52615" lon="1.56675667">
        <ele>1204.0</ele>
        <time>2019-08-04T13:26:35.307Z</time>
      </trkpt>
      <trkpt lat="42.52615" lon="1.56675667">
        <ele>1204.0</ele>
        <time>2019-08-04T13:26:36.296Z</time>
      </trkpt>
      <trkpt lat="42.52619167" lon="1.56681333">
        <ele>1204.0</ele>
        <time>2019-08-04T13:26:37.306Z</time>
      </trkpt>
      <trkpt lat="42.52621333" lon="1.56684">
        <ele>1204.0</ele>
        <time>2019-08-04T13:26:38.332Z</time>
      </trkpt>
      <trkpt lat="42.52621333" lon="1.56684">
        <ele>1204.0</ele>
        <time>2019-08-04T13:26:39.325Z</time>
      </trkpt>
      <trkpt lat="42.52625667" lon="1.56689167">
        <ele>1205.0</ele>
        <time>2019-08-04T13:26:40.330Z</time>
      </trkpt>
      <trkpt lat="42.52627833" lon="1.56691833">
        <ele>1205.0</ele>
        <time>2019-08-04T13:26:41.331Z</time>
      </trkpt>
      <trkpt lat="42.52627833" lon="1.56691833">
        <ele>1205.0</ele>
        <time>2019-08-04T13:26:42.332Z</time>
      </trkpt>
      <trkpt lat="42.52632" lon="1.566975">
        <ele>1204.0</ele>
        <time>2019-08-04T13:26:43.331Z</time>
      </trkpt>
      <trkpt lat="42.52634" lon="1.56700167">
        <ele>1204.0</ele>
        <time>2019-08-04T13:26:44.300Z</time>
      </trkpt>
      <trkpt lat="42.52634" lon="1.56700167">
        <ele>1204.0</ele>
        <time>2019-08-04T13:26:45.322Z</time>
      </trkpt>
      <trkpt lat="42.52638167" lon="1.56704833">
        <ele>1205.0</ele>
        <time>2019-08-04T13:26:46.311Z</time>
      </trkpt>
      <trkpt lat="42.52638167" lon="1.56704833">
        <ele>1205.0</ele>
        <time>2019-08-04T13:26:47.331Z</time>
      </trkpt>
      <trkpt lat="42.52642167" lon="1.56709667">
        <ele>1205.0</ele>
        <time>2019-08-04T13:26:48.329Z</time>
      </trkpt>
      <trkpt lat="42.52642167" lon="1.56709667">
        <ele>1205.0</ele>
        <time>2019-08-04T13:26:49.324Z</time>
      </trkpt>
      <trkpt lat="42.52646167" lon="1.56714833">
        <ele>1206.0</ele>
        <time>2019-08-04T13:26:50.325Z</time>
      </trkpt>
      <trkpt lat="42.52646167" lon="1.56714833">
        <ele>1206.0</ele>
        <time>2019-08-04T13:26:51.306Z</time>
      </trkpt>
      <trkpt lat="42.5265" lon="1.5672">
        <ele>1206.0</ele>
        <time>2019-08-04T13:26:52.331Z</time>
      </trkpt>
      <trkpt lat="42.5265" lon="1.5672">
        <ele>1206.0</ele>
        <time>2019-08-04T13:26:53.325Z</time>
      </trkpt>
      <trkpt lat="42.52654" lon="1.56725167">
        <ele>1206.0</ele>
        <time>2019-08-04T13:26:54.299Z</time>
      </trkpt>
      <trkpt lat="42.52654" lon="1.56725167">
        <ele>1206.0</ele>
        <time>2019-08-04T13:26:55.325Z</time>
      </trkpt>
      <trkpt lat="42.52658167" lon="1.5673">
        <ele>1207.0</ele>
        <time>2019-08-04T13:26:56.307Z</time>
      </trkpt>
      <trkpt lat="42.52658167" lon="1.5673">
        <ele>1207.0</ele>
        <time>2019-08-04T13:26:57.328Z</time>
      </trkpt>
      <trkpt lat="42.52662333" lon="1.56735167">
        <ele>1207.0</ele>
        <time>2019-08-04T13:26:58.331Z</time>
      </trkpt>
      <trkpt lat="42.52664333" lon="1.56737833">
        <ele>1207.0</ele>
        <time>2019-08-04T13:26:59.331Z</time>
      </trkpt>
      <trkpt lat="42.52664333" lon="1.56737833">
        <ele>1207.0</ele>
        <time>2019-08-04T13:27:00.327Z</time>
      </trkpt>
      <trkpt lat="42.52668333" lon="1.56743333">
        <ele>1207.0</ele>
        <time>2019-08-04T13:27:01.331Z</time>
      </trkpt>
      <trkpt lat="42.52668333" lon="1.56743333">
        <ele>1207.0</ele>
        <time>2019-08-04T13:27:02.325Z</time>
      </trkpt>
      <trkpt lat="42.526725" lon="1.56748833">
        <ele>1208.0</ele>
        <time>2019-08-04T13:27:03.331Z</time>
      </trkpt>
      <trkpt lat="42.52674333" lon="1.56751667">
        <ele>1208.0</ele>
        <time>2019-08-04T13:27:04.300Z</time>
      </trkpt>
      <trkpt lat="42.52674333" lon="1.56751667">
        <ele>1208.0</ele>
        <time>2019-08-04T13:27:05.326Z</time>
      </trkpt>
      <trkpt lat="42.52678333" lon="1.56757333">
        <ele>1208.0</ele>
        <time>2019-08-04T13:27:06.327Z</time>
      </trkpt>
      <trkpt lat="42.52680333" lon="1.56760167">
        <ele>1209.0</ele>
        <time>2019-08-04T13:27:07.318Z</time>
      </trkpt>
      <trkpt lat="42.52682167" lon="1.56762833">
        <ele>1209.0</ele>
        <time>2019-08-04T13:27:08.301Z</time>
      </trkpt>
      <trkpt lat="42.52682167" lon="1.56762833">
        <ele>1209.0</ele>
        <time>2019-08-04T13:27:09.325Z</time>
      </trkpt>
      <trkpt lat="42.52686" lon="1.56768667">
        <ele>1210.0</ele>
        <time>2019-08-04T13:27:10.307Z</time>
      </trkpt>
      <trkpt lat="42.52687833" lon="1.56771667">
        <ele>1210.0</ele>
        <time>2019-08-04T13:27:11.329Z</time>
      </trkpt>
      <trkpt lat="42.52689667" lon="1.567745">
        <ele>1210.0</ele>
        <time>2019-08-04T13:27:12.331Z</time>
      </trkpt>
      <trkpt lat="42.52689667" lon="1.567745">
        <ele>1210.0</ele>
        <time>2019-08-04T13:27:13.325Z</time>
      </trkpt>
      <trkpt lat="42.52693167" lon="1.567805">
        <ele>1210.0</ele>
        <time>2019-08-04T13:27:14.307Z</time>
      </trkpt>
      <trkpt lat="42.52694833" lon="1.56783667">
        <ele>1210.0</ele>
        <time>2019-08-04T13:27:15.331Z</time>
      </trkpt>
      <trkpt lat="42.52694833" lon="1.56783667">
        <ele>1210.0</ele>
        <time>2019-08-04T13:27:16.326Z</time>
      </trkpt>
      <trkpt lat="42.52698167" lon="1.56789833">
        <ele>1211.0</ele>
        <time>2019-08-04T13:27:17.303Z</time>
      </trkpt>
      <trkpt lat="42.52698167" lon="1.56789833">
        <ele>1211.0</ele>
        <time>2019-08-04T13:27:18.326Z</time>
      </trkpt>
      <trkpt lat="42.527015" lon="1.56796">
        <ele>1211.0</ele>
        <time>2019-08-04T13:27:19.331Z</time>
      </trkpt>
      <trkpt lat="42.527015" lon="1.56796">
        <ele>1211.0</ele>
        <time>2019-08-04T13:27:20.330Z</time>
      </trkpt>
      <trkpt lat="42.52704667" lon="1.56802333">
        <ele>1211.0</ele>
        <time>2019-08-04T13:27:21.327Z</time>
      </trkpt>
      <trkpt lat="42.52706167" lon="1.568055">
        <ele>1211.0</ele>
        <time>2019-08-04T13:27:22.331Z</time>
      </trkpt>
      <trkpt lat="42.52706167" lon="1.568055">
        <ele>1211.0</ele>
        <time>2019-08-04T13:27:23.325Z</time>
      </trkpt>
      <trkpt lat="42.52708833" lon="1.56812">
        <ele>1212.0</ele>
        <time>2019-08-04T13:27:24.299Z</time>
      </trkpt>
      <trkpt lat="42.52708833" lon="1.56812">
        <ele>1212.0</ele>
        <time>2019-08-04T13:27:25.325Z</time>
      </trkpt>
      <trkpt lat="42.527115" lon="1.56818167">
        <ele>1212.0</ele>
        <time>2019-08-04T13:27:26.314Z</time>
      </trkpt>
      <trkpt lat="42.527115" lon="1.56818167">
        <ele>1212.0</ele>
        <time>2019-08-04T13:27:27.301Z</time>
      </trkpt>
      <trkpt lat="42.52714167" lon="1.56824167">
        <ele>1212.0</ele>
        <time>2019-08-04T13:27:28.331Z</time>
      </trkpt>
      <trkpt lat="42.52714167" lon="1.56824167">
        <ele>1212.0</ele>
        <time>2019-08-04T13:27:29.299Z</time>
      </trkpt>
      <trkpt lat="42.52716833" lon="1.56828833">
        <ele>1214.0</ele>
        <time>2019-08-04T13:27:30.329Z</time>
      </trkpt>
      <trkpt lat="42.52716833" lon="1.56828833">
        <ele>1214.0</ele>
        <time>2019-08-04T13:27:31.335Z</time>
      </trkpt>
      <trkpt lat="42.5272" lon="1.56834333">
        <ele>1214.0</ele>
        <time>2019-08-04T13:27:32.302Z</time>
      </trkpt>
      <trkpt lat="42.527215" lon="1.56837167">
        <ele>1214.0</ele>
        <time>2019-08-04T13:27:33.297Z</time>
      </trkpt>
      <trkpt lat="42.527215" lon="1.56837167">
        <ele>1214.0</ele>
        <time>2019-08-04T13:27:34.325Z</time>
      </trkpt>
      <trkpt lat="42.52724333" lon="1.56843167">
        <ele>1214.0</ele>
        <time>2019-08-04T13:27:35.330Z</time>
      </trkpt>
      <trkpt lat="42.52724333" lon="1.56843167">
        <ele>1214.0</ele>
        <time>2019-08-04T13:27:36.325Z</time>
      </trkpt>
      <trkpt lat="42.52727" lon="1.568495">
        <ele>1214.0</ele>
        <time>2019-08-04T13:27:37.332Z</time>
      </trkpt>
      <trkpt lat="42.52728333" lon="1.56852667">
        <ele>1214.0</ele>
        <time>2019-08-04T13:27:38.333Z</time>
      </trkpt>
      <trkpt lat="42.52728333" lon="1.56852667">
        <ele>1214.0</ele>
        <time>2019-08-04T13:27:39.326Z</time>
      </trkpt>
      <trkpt lat="42.52731167" lon="1.56858833">
        <ele>1215.0</ele>
        <time>2019-08-04T13:27:40.332Z</time>
      </trkpt>
      <trkpt lat="42.52732667" lon="1.56862">
        <ele>1215.0</ele>
        <time>2019-08-04T13:27:41.331Z</time>
      </trkpt>
      <trkpt lat="42.52734167" lon="1.56865">
        <ele>1216.0</ele>
        <time>2019-08-04T13:27:42.331Z</time>
      </trkpt>
      <trkpt lat="42.52734167" lon="1.56865">
        <ele>1216.0</ele>
        <time>2019-08-04T13:27:43.325Z</time>
      </trkpt>
      <trkpt lat="42.52737167" lon="1.56871167">
        <ele>1216.0</ele>
        <time>2019-08-04T13:27:44.306Z</time>
      </trkpt>
      <trkpt lat="42.52737167" lon="1.56871167">
        <ele>1216.0</ele>
        <time>2019-08-04T13:27:45.327Z</time>
      </trkpt>
      <trkpt lat="42.52740333" lon="1.56877">
        <ele>1216.0</ele>
        <time>2019-08-04T13:27:46.331Z</time>
      </trkpt>
      <trkpt lat="42.52740333" lon="1.56877">
        <ele>1216.0</ele>
        <time>2019-08-04T13:27:47.327Z</time>
      </trkpt>
      <trkpt lat="42.527435" lon="1.568825">
        <ele>1216.0</ele>
        <time>2019-08-04T13:27:48.331Z</time>
      </trkpt>
      <trkpt lat="42.527435" lon="1.568825">
        <ele>1216.0</ele>
        <time>2019-08-04T13:27:49.327Z</time>
      </trkpt>
      <trkpt lat="42.52747" lon="1.56887833">
        <ele>1216.0</ele>
        <time>2019-08-04T13:27:50.332Z</time>
      </trkpt>
      <trkpt lat="42.52747" lon="1.56887833">
        <ele>1216.0</ele>
        <time>2019-08-04T13:27:51.325Z</time>
      </trkpt>
      <trkpt lat="42.52750333" lon="1.56892833">
        <ele>1216.0</ele>
        <time>2019-08-04T13:27:52.331Z</time>
      </trkpt>
      <trkpt lat="42.52750333" lon="1.56892833">
        <ele>1216.0</ele>
        <time>2019-08-04T13:27:53.325Z</time>
      </trkpt>
      <trkpt lat="42.52753333" lon="1.56898333">
        <ele>1216.0</ele>
        <time>2019-08-04T13:27:54.314Z</time>
      </trkpt>
      <trkpt lat="42.52753333" lon="1.56898333">
        <ele>1216.0</ele>
        <time>2019-08-04T13:27:55.334Z</time>
      </trkpt>
      <trkpt lat="42.52756667" lon="1.56903833">
        <ele>1216.0</ele>
        <time>2019-08-04T13:27:56.333Z</time>
      </trkpt>
      <trkpt lat="42.52756667" lon="1.56903833">
        <ele>1216.0</ele>
        <time>2019-08-04T13:27:57.324Z</time>
      </trkpt>
      <trkpt lat="42.52759833" lon="1.569095">
        <ele>1217.0</ele>
        <time>2019-08-04T13:27:58.305Z</time>
      </trkpt>
      <trkpt lat="42.52759833" lon="1.569095">
        <ele>1217.0</ele>
        <time>2019-08-04T13:27:59.328Z</time>
      </trkpt>
      <trkpt lat="42.52763167" lon="1.56914833">
        <ele>1217.0</ele>
        <time>2019-08-04T13:28:00.331Z</time>
      </trkpt>
      <trkpt lat="42.52763167" lon="1.56914833">
        <ele>1217.0</ele>
        <time>2019-08-04T13:28:01.323Z</time>
      </trkpt>
      <trkpt lat="42.52766167" lon="1.56920167">
        <ele>1217.0</ele>
        <time>2019-08-04T13:28:02.305Z</time>
      </trkpt>
      <trkpt lat="42.52766167" lon="1.56920167">
        <ele>1217.0</ele>
        <time>2019-08-04T13:28:03.327Z</time>
      </trkpt>
      <trkpt lat="42.52768833" lon="1.56925167">
        <ele>1217.0</ele>
        <time>2019-08-04T13:28:04.330Z</time>
      </trkpt>
      <trkpt lat="42.52768833" lon="1.56925167">
        <ele>1217.0</ele>
        <time>2019-08-04T13:28:05.326Z</time>
      </trkpt>
      <trkpt lat="42.52771833" lon="1.56930833">
        <ele>1217.0</ele>
        <time>2019-08-04T13:28:06.331Z</time>
      </trkpt>
      <trkpt lat="42.52771833" lon="1.56930833">
        <ele>1217.0</ele>
        <time>2019-08-04T13:28:07.335Z</time>
      </trkpt>
      <trkpt lat="42.52774833" lon="1.56936">
        <ele>1217.0</ele>
        <time>2019-08-04T13:28:08.333Z</time>
      </trkpt>
      <trkpt lat="42.52774833" lon="1.56936">
        <ele>1217.0</ele>
        <time>2019-08-04T13:28:09.325Z</time>
      </trkpt>
      <trkpt lat="42.52778167" lon="1.56941333">
        <ele>1217.0</ele>
        <time>2019-08-04T13:28:10.306Z</time>
      </trkpt>
      <trkpt lat="42.52779667" lon="1.56944">
        <ele>1218.0</ele>
        <time>2019-08-04T13:28:11.331Z</time>
      </trkpt>
      <trkpt lat="42.52779667" lon="1.56944">
        <ele>1218.0</ele>
        <time>2019-08-04T13:28:12.325Z</time>
      </trkpt>
      <trkpt lat="42.52782667" lon="1.56949333">
        <ele>1218.0</ele>
        <time>2019-08-04T13:28:13.331Z</time>
      </trkpt>
      <trkpt lat="42.52782667" lon="1.56949333">
        <ele>1218.0</ele>
        <time>2019-08-04T13:28:14.326Z</time>
      </trkpt>
      <trkpt lat="42.527855" lon="1.569535">
        <ele>1218.0</ele>
        <time>2019-08-04T13:28:15.331Z</time>
      </trkpt>
      <trkpt lat="42.52787" lon="1.56955833">
        <ele>1218.0</ele>
        <time>2019-08-04T13:28:16.330Z</time>
      </trkpt>
      <trkpt lat="42.52787" lon="1.56955833">
        <ele>1218.0</ele>
        <time>2019-08-04T13:28:17.321Z</time>
      </trkpt>
      <trkpt lat="42.52789833" lon="1.5696">
        <ele>1218.0</ele>
        <time>2019-08-04T13:28:18.312Z</time>
      </trkpt>
      <trkpt lat="42.52789833" lon="1.5696">
        <ele>1218.0</ele>
        <time>2019-08-04T13:28:19.333Z</time>
      </trkpt>
      <trkpt lat="42.52792667" lon="1.569645">
        <ele>1218.0</ele>
        <time>2019-08-04T13:28:20.332Z</time>
      </trkpt>
      <trkpt lat="42.52792667" lon="1.569645">
        <ele>1218.0</ele>
        <time>2019-08-04T13:28:21.327Z</time>
      </trkpt>
      <trkpt lat="42.527955" lon="1.56969167">
        <ele>1219.0</ele>
        <time>2019-08-04T13:28:22.313Z</time>
      </trkpt>
      <trkpt lat="42.527955" lon="1.56969167">
        <ele>1219.0</ele>
        <time>2019-08-04T13:28:23.334Z</time>
      </trkpt>
      <trkpt lat="42.527955" lon="1.56969167">
        <ele>1219.0</ele>
        <time>2019-08-04T13:28:24.334Z</time>
      </trkpt>
      <trkpt lat="42.527955" lon="1.56969167">
        <ele>1219.0</ele>
        <time>2019-08-04T13:28:25.328Z</time>
      </trkpt>
      <trkpt lat="42.527955" lon="1.56969167">
        <ele>1219.0</ele>
        <time>2019-08-04T13:28:26.325Z</time>
      </trkpt>
      <trkpt lat="42.527955" lon="1.56969167">
        <ele>1219.0</ele>
        <time>2019-08-04T13:28:27.307Z</time>
      </trkpt>
      <trkpt lat="42.527955" lon="1.56969167">
        <ele>1219.0</ele>
        <time>2019-08-04T13:28:28.327Z</time>
      </trkpt>
      <trkpt lat="42.527955" lon="1.56969167">
        <ele>1219.0</ele>
        <time>2019-08-04T13:28:29.307Z</time>
      </trkpt>
      <trkpt lat="42.527955" lon="1.56969167">
        <ele>1219.0</ele>
        <time>2019-08-04T13:28:30.333Z</time>
      </trkpt>
      <trkpt lat="42.527955" lon="1.56969167">
        <ele>1219.0</ele>
        <time>2019-08-04T13:28:31.299Z</time>
      </trkpt>
      <trkpt lat="42.527955" lon="1.56969167">
        <ele>1219.0</ele>
        <time>2019-08-04T13:28:32.305Z</time>
      </trkpt>
      <trkpt lat="42.527955" lon="1.56969167">
        <ele>1219.0</ele>
        <time>2019-08-04T13:28:33.336Z</time>
      </trkpt>
      <trkpt lat="42.527955" lon="1.56969167">
        <ele>1219.0</ele>
        <time>2019-08-04T13:28:34.299Z</time>
      </trkpt>
      <trkpt lat="42.527955" lon="1.56969167">
        <ele>1219.0</ele>
        <time>2019-08-04T13:28:35.326Z</time>
      </trkpt>
      <trkpt lat="42.527955" lon="1.56969167">
        <ele>1219.0</ele>
        <time>2019-08-04T13:28:36.323Z</time>
      </trkpt>
      <trkpt lat="42.527955" lon="1.56969167">
        <ele>1219.0</ele>
        <time>2019-08-04T13:28:37.330Z</time>
      </trkpt>
      <trkpt lat="42.527955" lon="1.56969167">
        <ele>1219.0</ele>
        <time>2019-08-04T13:28:38.327Z</time>
      </trkpt>
      <trkpt lat="42.527955" lon="1.56969167">
        <ele>1219.0</ele>
        <time>2019-08-04T13:28:39.324Z</time>
      </trkpt>
      <trkpt lat="42.527955" lon="1.56969167">
        <ele>1219.0</ele>
        <time>2019-08-04T13:28:40.323Z</time>
      </trkpt>
      <trkpt lat="42.527955" lon="1.56969167">
        <ele>1219.0</ele>
        <time>2019-08-04T13:28:41.323Z</time>
      </trkpt>
      <trkpt lat="42.527955" lon="1.56969167">
        <ele>1219.0</ele>
        <time>2019-08-04T13:28:42.325Z</time>
      </trkpt>
      <trkpt lat="42.527955" lon="1.56969167">
        <ele>1219.0</ele>
        <time>2019-08-04T13:28:43.323Z</time>
      </trkpt>
      <trkpt lat="42.527955" lon="1.56969167">
        <ele>1219.0</ele>
        <time>2019-08-04T13:28:44.299Z</time>
      </trkpt>
      <trkpt lat="42.527955" lon="1.56969167">
        <ele>1219.0</ele>
        <time>2019-08-04T13:28:45.327Z</time>
      </trkpt>
      <trkpt lat="42.527955" lon="1.56969167">
        <ele>1219.0</ele>
        <time>2019-08-04T13:28:46.334Z</time>
      </trkpt>
      <trkpt lat="42.527955" lon="1.56969167">
        <ele>1219.0</ele>
        <time>2019-08-04T13:28:47.330Z</time>
      </trkpt>
      <trkpt lat="42.527955" lon="1.56969167">
        <ele>1219.0</ele>
        <time>2019-08-04T13:28:48.326Z</time>
      </trkpt>
      <trkpt lat="42.527955" lon="1.56969167">
        <ele>1219.0</ele>
        <time>2019-08-04T13:28:49.323Z</time>
      </trkpt>
      <trkpt lat="42.527955" lon="1.56969167">
        <ele>1219.0</ele>
        <time>2019-08-04T13:28:50.304Z</time>
      </trkpt>
      <trkpt lat="42.527955" lon="1.56969167">
        <ele>1219.0</ele>
        <time>2019-08-04T13:28:51.327Z</time>
      </trkpt>
      <trkpt lat="42.527955" lon="1.56969167">
        <ele>1219.0</ele>
        <time>2019-08-04T13:28:52.323Z</time>
      </trkpt>
      <trkpt lat="42.527955" lon="1.56969167">
        <ele>1219.0</ele>
        <time>2019-08-04T13:28:53.307Z</time>
      </trkpt>
      <trkpt lat="42.527955" lon="1.56969167">
        <ele>1219.0</ele>
        <time>2019-08-04T13:28:54.328Z</time>
      </trkpt>
      <trkpt lat="42.527955" lon="1.56969167">
        <ele>1219.0</ele>
        <time>2019-08-04T13:28:55.325Z</time>
      </trkpt>
      <trkpt lat="42.527955" lon="1.56969167">
        <ele>1219.0</ele>
        <time>2019-08-04T13:28:56.314Z</time>
      </trkpt>
      <trkpt lat="42.527955" lon="1.56969167">
        <ele>1219.0</ele>
        <time>2019-08-04T13:28:57.297Z</time>
      </trkpt>
      <trkpt lat="42.527955" lon="1.56969167">
        <ele>1219.0</ele>
        <time>2019-08-04T13:28:58.324Z</time>
      </trkpt>
      <trkpt lat="42.527955" lon="1.56969167">
        <ele>1219.0</ele>
        <time>2019-08-04T13:28:59.308Z</time>
      </trkpt>
      <trkpt lat="42.527955" lon="1.56969167">
        <ele>1219.0</ele>
        <time>2019-08-04T13:29:00.329Z</time>
      </trkpt>
      <trkpt lat="42.527955" lon="1.56969167">
        <ele>1219.0</ele>
        <time>2019-08-04T13:29:01.322Z</time>
      </trkpt>
      <trkpt lat="42.527955" lon="1.56969167">
        <ele>1219.0</ele>
        <time>2019-08-04T13:29:02.307Z</time>
      </trkpt>
      <trkpt lat="42.527955" lon="1.56969167">
        <ele>1219.0</ele>
        <time>2019-08-04T13:29:03.327Z</time>
      </trkpt>
      <trkpt lat="42.527955" lon="1.56969167">
        <ele>1219.0</ele>
        <time>2019-08-04T13:29:04.325Z</time>
      </trkpt>
      <trkpt lat="42.527955" lon="1.56969167">
        <ele>1219.0</ele>
        <time>2019-08-04T13:29:05.307Z</time>
      </trkpt>
      <trkpt lat="42.527955" lon="1.56969167">
        <ele>1219.0</ele>
        <time>2019-08-04T13:29:06.332Z</time>
      </trkpt>
      <trkpt lat="42.527955" lon="1.56969167">
        <ele>1219.0</ele>
        <time>2019-08-04T13:29:07.306Z</time>
      </trkpt>
      <trkpt lat="42.527955" lon="1.56969167">
        <ele>1219.0</ele>
        <time>2019-08-04T13:29:08.327Z</time>
      </trkpt>
      <trkpt lat="42.527955" lon="1.56969167">
        <ele>1219.0</ele>
        <time>2019-08-04T13:29:09.325Z</time>
      </trkpt>
      <trkpt lat="42.527955" lon="1.56969167">
        <ele>1219.0</ele>
        <time>2019-08-04T13:29:10.322Z</time>
      </trkpt>
      <trkpt lat="42.527955" lon="1.56969167">
        <ele>1219.0</ele>
        <time>2019-08-04T13:29:11.304Z</time>
      </trkpt>
      <trkpt lat="42.527955" lon="1.56969167">
        <ele>1219.0</ele>
        <time>2019-08-04T13:29:12.330Z</time>
      </trkpt>
      <trkpt lat="42.527955" lon="1.56969167">
        <ele>1219.0</ele>
        <time>2019-08-04T13:29:13.326Z</time>
      </trkpt>
      <trkpt lat="42.527955" lon="1.56969167">
        <ele>1219.0</ele>
        <time>2019-08-04T13:29:14.314Z</time>
      </trkpt>
      <trkpt lat="42.527955" lon="1.56969167">
        <ele>1219.0</ele>
        <time>2019-08-04T13:29:15.333Z</time>
      </trkpt>
      <trkpt lat="42.528965" lon="1.57112833">
        <ele>1227.0</ele>
        <time>2019-08-04T13:29:16.335Z</time>
      </trkpt>
      <trkpt lat="42.528965" lon="1.57112833">
        <ele>1227.0</ele>
        <time>2019-08-04T13:29:17.325Z</time>
      </trkpt>
      <trkpt lat="42.52899167" lon="1.57114333">
        <ele>1232.0</ele>
        <time>2019-08-04T13:29:18.316Z</time>
      </trkpt>
      <trkpt lat="42.52899167" lon="1.57114333">
        <ele>1232.0</ele>
        <time>2019-08-04T13:29:19.335Z</time>
      </trkpt>
      <trkpt lat="42.529025" lon="1.57119167">
        <ele>1233.0</ele>
        <time>2019-08-04T13:29:20.332Z</time>
      </trkpt>
      <trkpt lat="42.529025" lon="1.57119167">
        <ele>1233.0</ele>
        <time>2019-08-04T13:29:21.326Z</time>
      </trkpt>
      <trkpt lat="42.52904167" lon="1.57123167">
        <ele>1233.0</ele>
        <time>2019-08-04T13:29:22.311Z</time>
      </trkpt>
      <trkpt lat="42.52904167" lon="1.57123167">
        <ele>1233.0</ele>
        <time>2019-08-04T13:29:23.334Z</time>
      </trkpt>
      <trkpt lat="42.52906667" lon="1.57126167">
        <ele>1235.0</ele>
        <time>2019-08-04T13:29:24.317Z</time>
      </trkpt>
      <trkpt lat="42.52906667" lon="1.57126167">
        <ele>1235.0</ele>
        <time>2019-08-04T13:29:25.298Z</time>
      </trkpt>
      <trkpt lat="42.529095" lon="1.571305">
        <ele>1236.0</ele>
        <time>2019-08-04T13:29:26.332Z</time>
      </trkpt>
      <trkpt lat="42.529095" lon="1.571305">
        <ele>1236.0</ele>
        <time>2019-08-04T13:29:27.327Z</time>
      </trkpt>
      <trkpt lat="42.52912167" lon="1.57135167">
        <ele>1237.0</ele>
        <time>2019-08-04T13:29:28.332Z</time>
      </trkpt>
      <trkpt lat="42.52912167" lon="1.57135167">
        <ele>1237.0</ele>
        <time>2019-08-04T13:29:29.333Z</time>
      </trkpt>
      <trkpt lat="42.52914667" lon="1.57140833">
        <ele>1237.0</ele>
        <time>2019-08-04T13:29:30.332Z</time>
      </trkpt>
      <trkpt lat="42.52914667" lon="1.57140833">
        <ele>1237.0</ele>
        <time>2019-08-04T13:29:31.298Z</time>
      </trkpt>
      <trkpt lat="42.52917" lon="1.57147">
        <ele>1236.0</ele>
        <time>2019-08-04T13:29:32.304Z</time>
      </trkpt>
      <trkpt lat="42.52918" lon="1.57150333">
        <ele>1236.0</ele>
        <time>2019-08-04T13:29:33.323Z</time>
      </trkpt>
      <trkpt lat="42.52918" lon="1.57150333">
        <ele>1236.0</ele>
        <time>2019-08-04T13:29:34.305Z</time>
      </trkpt>
      <trkpt lat="42.5292" lon="1.57156833">
        <ele>1236.0</ele>
        <time>2019-08-04T13:29:35.332Z</time>
      </trkpt>
      <trkpt lat="42.5292" lon="1.57156833">
        <ele>1236.0</ele>
        <time>2019-08-04T13:29:36.327Z</time>
      </trkpt>
      <trkpt lat="42.52922" lon="1.571635">
        <ele>1235.0</ele>
        <time>2019-08-04T13:29:37.332Z</time>
      </trkpt>
      <trkpt lat="42.52922" lon="1.571635">
        <ele>1235.0</ele>
        <time>2019-08-04T13:29:38.302Z</time>
      </trkpt>
      <trkpt lat="42.52924" lon="1.57170667">
        <ele>1235.0</ele>
        <time>2019-08-04T13:29:39.334Z</time>
      </trkpt>
      <trkpt lat="42.52924833" lon="1.57174333">
        <ele>1235.0</ele>
        <time>2019-08-04T13:29:40.332Z</time>
      </trkpt>
      <trkpt lat="42.52924833" lon="1.57174333">
        <ele>1235.0</ele>
        <time>2019-08-04T13:29:41.326Z</time>
      </trkpt>
      <trkpt lat="42.52925833" lon="1.57181667">
        <ele>1235.0</ele>
        <time>2019-08-04T13:29:42.314Z</time>
      </trkpt>
      <trkpt lat="42.529265" lon="1.57185333">
        <ele>1235.0</ele>
        <time>2019-08-04T13:29:43.334Z</time>
      </trkpt>
      <trkpt lat="42.529265" lon="1.57185333">
        <ele>1235.0</ele>
        <time>2019-08-04T13:29:44.332Z</time>
      </trkpt>
      <trkpt lat="42.529275" lon="1.57192833">
        <ele>1235.0</ele>
        <time>2019-08-04T13:29:45.332Z</time>
      </trkpt>
      <trkpt lat="42.52927667" lon="1.571965">
        <ele>1235.0</ele>
        <time>2019-08-04T13:29:46.332Z</time>
      </trkpt>
      <trkpt lat="42.52927667" lon="1.571965">
        <ele>1235.0</ele>
        <time>2019-08-04T13:29:47.314Z</time>
      </trkpt>
      <trkpt lat="42.52928167" lon="1.57203667">
        <ele>1235.0</ele>
        <time>2019-08-04T13:29:48.296Z</time>
      </trkpt>
      <trkpt lat="42.52928333" lon="1.57207333">
        <ele>1235.0</ele>
        <time>2019-08-04T13:29:49.331Z</time>
      </trkpt>
      <trkpt lat="42.529285" lon="1.57210833">
        <ele>1235.0</ele>
        <time>2019-08-04T13:29:50.333Z</time>
      </trkpt>
      <trkpt lat="42.529285" lon="1.57210833">
        <ele>1235.0</ele>
        <time>2019-08-04T13:29:51.330Z</time>
      </trkpt>
      <trkpt lat="42.52929167" lon="1.57217833">
        <ele>1234.0</ele>
        <time>2019-08-04T13:29:52.332Z</time>
      </trkpt>
      <trkpt lat="42.52929167" lon="1.57217833">
        <ele>1234.0</ele>
        <time>2019-08-04T13:29:53.327Z</time>
      </trkpt>
      <trkpt lat="42.52930167" lon="1.57224833">
        <ele>1234.0</ele>
        <time>2019-08-04T13:29:54.307Z</time>
      </trkpt>
      <trkpt lat="42.52930167" lon="1.57224833">
        <ele>1234.0</ele>
        <time>2019-08-04T13:29:55.332Z</time>
      </trkpt>
      <trkpt lat="42.52931333" lon="1.57231333">
        <ele>1234.0</ele>
        <time>2019-08-04T13:29:56.302Z</time>
      </trkpt>
      <trkpt lat="42.52931333" lon="1.57231333">
        <ele>1234.0</ele>
        <time>2019-08-04T13:29:57.324Z</time>
      </trkpt>
      <trkpt lat="42.52932333" lon="1.57238">
        <ele>1234.0</ele>
        <time>2019-08-04T13:29:58.330Z</time>
      </trkpt>
      <trkpt lat="42.52933" lon="1.57241167">
        <ele>1235.0</ele>
        <time>2019-08-04T13:29:59.299Z</time>
      </trkpt>
      <trkpt lat="42.529335" lon="1.57244667">
        <ele>1235.0</ele>
        <time>2019-08-04T13:30:00.332Z</time>
      </trkpt>
      <trkpt lat="42.529335" lon="1.57244667">
        <ele>1235.0</ele>
        <time>2019-08-04T13:30:01.324Z</time>
      </trkpt>
      <trkpt lat="42.52934667" lon="1.57251167">
        <ele>1235.0</ele>
        <time>2019-08-04T13:30:02.305Z</time>
      </trkpt>
      <trkpt lat="42.529355" lon="1.57253667">
        <ele>1235.0</ele>
        <time>2019-08-04T13:30:03.331Z</time>
      </trkpt>
      <trkpt lat="42.529355" lon="1.57253667">
        <ele>1235.0</ele>
        <time>2019-08-04T13:30:04.297Z</time>
      </trkpt>
      <trkpt lat="42.52938" lon="1.5726">
        <ele>1236.0</ele>
        <time>2019-08-04T13:30:05.332Z</time>
      </trkpt>
      <trkpt lat="42.52938" lon="1.5726">
        <ele>1236.0</ele>
        <time>2019-08-04T13:30:06.326Z</time>
      </trkpt>
      <trkpt lat="42.52941333" lon="1.57266">
        <ele>1236.0</ele>
        <time>2019-08-04T13:30:07.312Z</time>
      </trkpt>
      <trkpt lat="42.52941333" lon="1.57266">
        <ele>1236.0</ele>
        <time>2019-08-04T13:30:08.332Z</time>
      </trkpt>
      <trkpt lat="42.52944333" lon="1.57271667">
        <ele>1237.0</ele>
        <time>2019-08-04T13:30:09.332Z</time>
      </trkpt>
      <trkpt lat="42.52946333" lon="1.57274833">
        <ele>1237.0</ele>
        <time>2019-08-04T13:30:10.332Z</time>
      </trkpt>
      <trkpt lat="42.52946333" lon="1.57274833">
        <ele>1237.0</ele>
        <time>2019-08-04T13:30:11.327Z</time>
      </trkpt>
      <trkpt lat="42.529505" lon="1.5728">
        <ele>1237.0</ele>
        <time>2019-08-04T13:30:12.332Z</time>
      </trkpt>
      <trkpt lat="42.529505" lon="1.5728">
        <ele>1237.0</ele>
        <time>2019-08-04T13:30:13.327Z</time>
      </trkpt>
      <trkpt lat="42.52954333" lon="1.57285167">
        <ele>1238.0</ele>
        <time>2019-08-04T13:30:14.307Z</time>
      </trkpt>
      <trkpt lat="42.52954333" lon="1.57285167">
        <ele>1238.0</ele>
        <time>2019-08-04T13:30:15.329Z</time>
      </trkpt>
      <trkpt lat="42.52957833" lon="1.57290167">
        <ele>1238.0</ele>
        <time>2019-08-04T13:30:16.331Z</time>
      </trkpt>
      <trkpt lat="42.52957833" lon="1.57290167">
        <ele>1238.0</ele>
        <time>2019-08-04T13:30:17.329Z</time>
      </trkpt>
      <trkpt lat="42.529615" lon="1.57295333">
        <ele>1238.0</ele>
        <time>2019-08-04T13:30:18.312Z</time>
      </trkpt>
      <trkpt lat="42.52963167" lon="1.572975">
        <ele>1239.0</ele>
        <time>2019-08-04T13:30:19.333Z</time>
      </trkpt>
      <trkpt lat="42.52964667" lon="1.57299833">
        <ele>1239.0</ele>
        <time>2019-08-04T13:30:20.333Z</time>
      </trkpt>
      <trkpt lat="42.52964667" lon="1.57299833">
        <ele>1239.0</ele>
        <time>2019-08-04T13:30:21.324Z</time>
      </trkpt>
      <trkpt lat="42.52968167" lon="1.57304">
        <ele>1239.0</ele>
        <time>2019-08-04T13:30:22.306Z</time>
      </trkpt>
      <trkpt lat="42.52968167" lon="1.57304">
        <ele>1239.0</ele>
        <time>2019-08-04T13:30:23.329Z</time>
      </trkpt>
      <trkpt lat="42.52972" lon="1.57307667">
        <ele>1240.0</ele>
        <time>2019-08-04T13:30:24.303Z</time>
      </trkpt>
      <trkpt lat="42.52972" lon="1.57307667">
        <ele>1240.0</ele>
        <time>2019-08-04T13:30:25.313Z</time>
      </trkpt>
      <trkpt lat="42.52975667" lon="1.57311333">
        <ele>1240.0</ele>
        <time>2019-08-04T13:30:26.334Z</time>
      </trkpt>
      <trkpt lat="42.52975667" lon="1.57311333">
        <ele>1240.0</ele>
        <time>2019-08-04T13:30:27.328Z</time>
      </trkpt>
      <trkpt lat="42.52979333" lon="1.57314667">
        <ele>1241.0</ele>
        <time>2019-08-04T13:30:28.333Z</time>
      </trkpt>
      <trkpt lat="42.52979333" lon="1.57314667">
        <ele>1241.0</ele>
        <time>2019-08-04T13:30:29.324Z</time>
      </trkpt>
      <trkpt lat="42.52982667" lon="1.57317833">
        <ele>1241.0</ele>
        <time>2019-08-04T13:30:30.307Z</time>
      </trkpt>
      <trkpt lat="42.52982667" lon="1.57317833">
        <ele>1241.0</ele>
        <time>2019-08-04T13:30:31.321Z</time>
      </trkpt>
      <trkpt lat="42.529865" lon="1.57321">
        <ele>1242.0</ele>
        <time>2019-08-04T13:30:32.329Z</time>
      </trkpt>
      <trkpt lat="42.529885" lon="1.573225">
        <ele>1242.0</ele>
        <time>2019-08-04T13:30:33.327Z</time>
      </trkpt>
      <trkpt lat="42.529905" lon="1.57324">
        <ele>1242.0</ele>
        <time>2019-08-04T13:30:34.300Z</time>
      </trkpt>
      <trkpt lat="42.529905" lon="1.57324">
        <ele>1242.0</ele>
        <time>2019-08-04T13:30:35.330Z</time>
      </trkpt>
      <trkpt lat="42.529945" lon="1.57326333">
        <ele>1243.0</ele>
        <time>2019-08-04T13:30:36.332Z</time>
      </trkpt>
      <trkpt lat="42.52996667" lon="1.57327333">
        <ele>1244.0</ele>
        <time>2019-08-04T13:30:37.314Z</time>
      </trkpt>
      <trkpt lat="42.52996667" lon="1.57327333">
        <ele>1244.0</ele>
        <time>2019-08-04T13:30:38.301Z</time>
      </trkpt>
      <trkpt lat="42.53000833" lon="1.5733">
        <ele>1244.0</ele>
        <time>2019-08-04T13:30:39.332Z</time>
      </trkpt>
      <trkpt lat="42.53000833" lon="1.5733">
        <ele>1244.0</ele>
        <time>2019-08-04T13:30:40.327Z</time>
      </trkpt>
      <trkpt lat="42.53005333" lon="1.57332333">
        <ele>1244.0</ele>
        <time>2019-08-04T13:30:41.332Z</time>
      </trkpt>
      <trkpt lat="42.53005333" lon="1.57332333">
        <ele>1244.0</ele>
        <time>2019-08-04T13:30:42.329Z</time>
      </trkpt>
      <trkpt lat="42.53009333" lon="1.57333667">
        <ele>1244.0</ele>
        <time>2019-08-04T13:30:43.331Z</time>
      </trkpt>
      <trkpt lat="42.53011333" lon="1.573345">
        <ele>1245.0</ele>
        <time>2019-08-04T13:30:44.318Z</time>
      </trkpt>
      <trkpt lat="42.53011333" lon="1.573345">
        <ele>1245.0</ele>
        <time>2019-08-04T13:30:45.299Z</time>
      </trkpt>
      <trkpt lat="42.53015333" lon="1.57336">
        <ele>1247.0</ele>
        <time>2019-08-04T13:30:46.332Z</time>
      </trkpt>
      <trkpt lat="42.53017333" lon="1.57337167">
        <ele>1248.0</ele>
        <time>2019-08-04T13:30:47.332Z</time>
      </trkpt>
      <trkpt lat="42.53017333" lon="1.57337167">
        <ele>1248.0</ele>
        <time>2019-08-04T13:30:48.333Z</time>
      </trkpt>
      <trkpt lat="42.530215" lon="1.57339667">
        <ele>1248.0</ele>
        <time>2019-08-04T13:30:49.332Z</time>
      </trkpt>
      <trkpt lat="42.53023667" lon="1.57340833">
        <ele>1248.0</ele>
        <time>2019-08-04T13:30:50.334Z</time>
      </trkpt>
      <trkpt lat="42.53023667" lon="1.57340833">
        <ele>1248.0</ele>
        <time>2019-08-04T13:30:51.327Z</time>
      </trkpt>
      <trkpt lat="42.53027833" lon="1.573435">
        <ele>1249.0</ele>
        <time>2019-08-04T13:30:52.332Z</time>
      </trkpt>
      <trkpt lat="42.53027833" lon="1.573435">
        <ele>1249.0</ele>
        <time>2019-08-04T13:30:53.327Z</time>
      </trkpt>
      <trkpt lat="42.53031667" lon="1.57346333">
        <ele>1249.0</ele>
        <time>2019-08-04T13:30:54.296Z</time>
      </trkpt>
      <trkpt lat="42.53031667" lon="1.57346333">
        <ele>1249.0</ele>
        <time>2019-08-04T13:30:55.328Z</time>
      </trkpt>
      <trkpt lat="42.530355" lon="1.57349333">
        <ele>1250.0</ele>
        <time>2019-08-04T13:30:56.315Z</time>
      </trkpt>
      <trkpt lat="42.530355" lon="1.57349333">
        <ele>1250.0</ele>
        <time>2019-08-04T13:30:57.298Z</time>
      </trkpt>
      <trkpt lat="42.53039333" lon="1.57352667">
        <ele>1250.0</ele>
        <time>2019-08-04T13:30:58.335Z</time>
      </trkpt>
      <trkpt lat="42.53039333" lon="1.57352667">
        <ele>1250.0</ele>
        <time>2019-08-04T13:30:59.328Z</time>
      </trkpt>
      <trkpt lat="42.53043" lon="1.57356">
        <ele>1250.0</ele>
        <time>2019-08-04T13:31:00.297Z</time>
      </trkpt>
      <trkpt lat="42.53043" lon="1.57356">
        <ele>1250.0</ele>
        <time>2019-08-04T13:31:01.327Z</time>
      </trkpt>
      <trkpt lat="42.53046667" lon="1.57359333">
        <ele>1251.0</ele>
        <time>2019-08-04T13:31:02.309Z</time>
      </trkpt>
      <trkpt lat="42.53046667" lon="1.57359333">
        <ele>1251.0</ele>
        <time>2019-08-04T13:31:03.330Z</time>
      </trkpt>
      <trkpt lat="42.530505" lon="1.57362667">
        <ele>1251.0</ele>
        <time>2019-08-04T13:31:04.299Z</time>
      </trkpt>
      <trkpt lat="42.530505" lon="1.57362667">
        <ele>1251.0</ele>
        <time>2019-08-04T13:31:05.329Z</time>
      </trkpt>
      <trkpt lat="42.53054333" lon="1.57366333">
        <ele>1252.0</ele>
        <time>2019-08-04T13:31:06.333Z</time>
      </trkpt>
      <trkpt lat="42.53054333" lon="1.57366333">
        <ele>1252.0</ele>
        <time>2019-08-04T13:31:07.330Z</time>
      </trkpt>
      <trkpt lat="42.53057833" lon="1.5737">
        <ele>1252.0</ele>
        <time>2019-08-04T13:31:08.300Z</time>
      </trkpt>
      <trkpt lat="42.53057833" lon="1.5737">
        <ele>1252.0</ele>
        <time>2019-08-04T13:31:09.303Z</time>
      </trkpt>
      <trkpt lat="42.53061667" lon="1.57373833">
        <ele>1252.0</ele>
        <time>2019-08-04T13:31:10.332Z</time>
      </trkpt>
      <trkpt lat="42.53061667" lon="1.57373833">
        <ele>1252.0</ele>
        <time>2019-08-04T13:31:11.326Z</time>
      </trkpt>
      <trkpt lat="42.53065333" lon="1.57377667">
        <ele>1253.0</ele>
        <time>2019-08-04T13:31:12.308Z</time>
      </trkpt>
      <trkpt lat="42.53065333" lon="1.57377667">
        <ele>1253.0</ele>
        <time>2019-08-04T13:31:13.329Z</time>
      </trkpt>
      <trkpt lat="42.53068667" lon="1.57381833">
        <ele>1253.0</ele>
        <time>2019-08-04T13:31:14.316Z</time>
      </trkpt>
      <trkpt lat="42.53068667" lon="1.57381833">
        <ele>1253.0</ele>
        <time>2019-08-04T13:31:15.298Z</time>
      </trkpt>
      <trkpt lat="42.53072" lon="1.57386">
        <ele>1253.0</ele>
        <time>2019-08-04T13:31:16.332Z</time>
      </trkpt>
      <trkpt lat="42.530735" lon="1.57388">
        <ele>1253.0</ele>
        <time>2019-08-04T13:31:17.333Z</time>
      </trkpt>
      <trkpt lat="42.530735" lon="1.57388">
        <ele>1253.0</ele>
        <time>2019-08-04T13:31:18.326Z</time>
      </trkpt>
      <trkpt lat="42.53077" lon="1.57392167">
        <ele>1253.0</ele>
        <time>2019-08-04T13:31:19.332Z</time>
      </trkpt>
      <trkpt lat="42.53078667" lon="1.573945">
        <ele>1253.0</ele>
        <time>2019-08-04T13:31:20.334Z</time>
      </trkpt>
      <trkpt lat="42.53078667" lon="1.573945">
        <ele>1253.0</ele>
        <time>2019-08-04T13:31:21.327Z</time>
      </trkpt>
      <trkpt lat="42.53081833" lon="1.57398833">
        <ele>1253.0</ele>
        <time>2019-08-04T13:31:22.308Z</time>
      </trkpt>
      <trkpt lat="42.53081833" lon="1.57398833">
        <ele>1253.0</ele>
        <time>2019-08-04T13:31:23.331Z</time>
      </trkpt>
      <trkpt lat="42.53084833" lon="1.57403333">
        <ele>1254.0</ele>
        <time>2019-08-04T13:31:24.300Z</time>
      </trkpt>
      <trkpt lat="42.53084833" lon="1.57403333">
        <ele>1254.0</ele>
        <time>2019-08-04T13:31:25.327Z</time>
      </trkpt>
      <trkpt lat="42.53087833" lon="1.57407833">
        <ele>1254.0</ele>
        <time>2019-08-04T13:31:26.308Z</time>
      </trkpt>
      <trkpt lat="42.53087833" lon="1.57407833">
        <ele>1254.0</ele>
        <time>2019-08-04T13:31:27.330Z</time>
      </trkpt>
      <trkpt lat="42.53091" lon="1.574125">
        <ele>1254.0</ele>
        <time>2019-08-04T13:31:28.332Z</time>
      </trkpt>
      <trkpt lat="42.53091" lon="1.574125">
        <ele>1254.0</ele>
        <time>2019-08-04T13:31:29.333Z</time>
      </trkpt>
      <trkpt lat="42.53093833" lon="1.57417167">
        <ele>1255.0</ele>
        <time>2019-08-04T13:31:30.333Z</time>
      </trkpt>
      <trkpt lat="42.53095333" lon="1.574195">
        <ele>1255.0</ele>
        <time>2019-08-04T13:31:31.300Z</time>
      </trkpt>
      <trkpt lat="42.53097" lon="1.57422">
        <ele>1255.0</ele>
        <time>2019-08-04T13:31:32.305Z</time>
      </trkpt>
      <trkpt lat="42.53098333" lon="1.57424333">
        <ele>1255.0</ele>
        <time>2019-08-04T13:31:33.315Z</time>
      </trkpt>
      <trkpt lat="42.53098333" lon="1.57424333">
        <ele>1255.0</ele>
        <time>2019-08-04T13:31:34.321Z</time>
      </trkpt>
      <trkpt lat="42.53100833" lon="1.57429">
        <ele>1255.0</ele>
        <time>2019-08-04T13:31:35.327Z</time>
      </trkpt>
      <trkpt lat="42.53100833" lon="1.57429">
        <ele>1255.0</ele>
        <time>2019-08-04T13:31:36.333Z</time>
      </trkpt>
      <trkpt lat="42.53103167" lon="1.57433833">
        <ele>1256.0</ele>
        <time>2019-08-04T13:31:37.300Z</time>
      </trkpt>
      <trkpt lat="42.53104333" lon="1.574365">
        <ele>1256.0</ele>
        <time>2019-08-04T13:31:38.334Z</time>
      </trkpt>
      <trkpt lat="42.53104333" lon="1.574365">
        <ele>1256.0</ele>
        <time>2019-08-04T13:31:39.327Z</time>
      </trkpt>
      <trkpt lat="42.531065" lon="1.57441667">
        <ele>1256.0</ele>
        <time>2019-08-04T13:31:40.333Z</time>
      </trkpt>
      <trkpt lat="42.53107667" lon="1.574445">
        <ele>1256.0</ele>
        <time>2019-08-04T13:31:41.336Z</time>
      </trkpt>
      <trkpt lat="42.53107667" lon="1.574445">
        <ele>1256.0</ele>
        <time>2019-08-04T13:31:42.302Z</time>
      </trkpt>
      <trkpt lat="42.53109667" lon="1.5745">
        <ele>1257.0</ele>
        <time>2019-08-04T13:31:43.332Z</time>
      </trkpt>
      <trkpt lat="42.53110833" lon="1.57453167">
        <ele>1257.0</ele>
        <time>2019-08-04T13:31:44.308Z</time>
      </trkpt>
      <trkpt lat="42.53110833" lon="1.57453167">
        <ele>1257.0</ele>
        <time>2019-08-04T13:31:45.331Z</time>
      </trkpt>
      <trkpt lat="42.53113667" lon="1.57458833">
        <ele>1258.0</ele>
        <time>2019-08-04T13:31:46.333Z</time>
      </trkpt>
      <trkpt lat="42.53113667" lon="1.57458833">
        <ele>1258.0</ele>
        <time>2019-08-04T13:31:47.327Z</time>
      </trkpt>
      <trkpt lat="42.53116" lon="1.574645">
        <ele>1258.0</ele>
        <time>2019-08-04T13:31:48.314Z</time>
      </trkpt>
      <trkpt lat="42.53116" lon="1.574645">
        <ele>1258.0</ele>
        <time>2019-08-04T13:31:49.335Z</time>
      </trkpt>
      <trkpt lat="42.531185" lon="1.57470167">
        <ele>1259.0</ele>
        <time>2019-08-04T13:31:50.334Z</time>
      </trkpt>
      <trkpt lat="42.531185" lon="1.57470167">
        <ele>1259.0</ele>
        <time>2019-08-04T13:31:51.327Z</time>
      </trkpt>
      <trkpt lat="42.531205" lon="1.57475833">
        <ele>1259.0</ele>
        <time>2019-08-04T13:31:52.308Z</time>
      </trkpt>
      <trkpt lat="42.53121667" lon="1.57478833">
        <ele>1259.0</ele>
        <time>2019-08-04T13:31:53.332Z</time>
      </trkpt>
      <trkpt lat="42.53121667" lon="1.57478833">
        <ele>1259.0</ele>
        <time>2019-08-04T13:31:54.328Z</time>
      </trkpt>
      <trkpt lat="42.53123667" lon="1.57484333">
        <ele>1259.0</ele>
        <time>2019-08-04T13:31:55.332Z</time>
      </trkpt>
      <trkpt lat="42.531245" lon="1.57487167">
        <ele>1260.0</ele>
        <time>2019-08-04T13:31:56.334Z</time>
      </trkpt>
      <trkpt lat="42.531245" lon="1.57487167">
        <ele>1260.0</ele>
        <time>2019-08-04T13:31:57.327Z</time>
      </trkpt>
      <trkpt lat="42.53126167" lon="1.574925">
        <ele>1260.0</ele>
        <time>2019-08-04T13:31:58.297Z</time>
      </trkpt>
      <trkpt lat="42.53126167" lon="1.574925">
        <ele>1260.0</ele>
        <time>2019-08-04T13:31:59.323Z</time>
      </trkpt>
      <trkpt lat="42.53128" lon="1.57498">
        <ele>1261.0</ele>
        <time>2019-08-04T13:32:00.307Z</time>
      </trkpt>
      <trkpt lat="42.53128" lon="1.57498">
        <ele>1261.0</ele>
        <time>2019-08-04T13:32:01.329Z</time>
      </trkpt>
      <trkpt lat="42.53129667" lon="1.57503667">
        <ele>1261.0</ele>
        <time>2019-08-04T13:32:02.332Z</time>
      </trkpt>
      <trkpt lat="42.53129667" lon="1.57503667">
        <ele>1261.0</ele>
        <time>2019-08-04T13:32:03.329Z</time>
      </trkpt>
      <trkpt lat="42.53131167" lon="1.57509333">
        <ele>1261.0</ele>
        <time>2019-08-04T13:32:04.300Z</time>
      </trkpt>
      <trkpt lat="42.53131833" lon="1.57512167">
        <ele>1262.0</ele>
        <time>2019-08-04T13:32:05.330Z</time>
      </trkpt>
      <trkpt lat="42.53132667" lon="1.57514833">
        <ele>1262.0</ele>
        <time>2019-08-04T13:32:06.333Z</time>
      </trkpt>
      <trkpt lat="42.53132667" lon="1.57514833">
        <ele>1262.0</ele>
        <time>2019-08-04T13:32:07.330Z</time>
      </trkpt>
      <trkpt lat="42.53134" lon="1.575205">
        <ele>1262.0</ele>
        <time>2019-08-04T13:32:08.333Z</time>
      </trkpt>
      <trkpt lat="42.531345" lon="1.575235">
        <ele>1262.0</ele>
        <time>2019-08-04T13:32:09.332Z</time>
      </trkpt>
      <trkpt lat="42.531345" lon="1.575235">
        <ele>1262.0</ele>
        <time>2019-08-04T13:32:10.309Z</time>
      </trkpt>
      <trkpt lat="42.53135833" lon="1.57529333">
        <ele>1263.0</ele>
        <time>2019-08-04T13:32:11.325Z</time>
      </trkpt>
      <trkpt lat="42.53136667" lon="1.575325">
        <ele>1263.0</ele>
        <time>2019-08-04T13:32:12.331Z</time>
      </trkpt>
      <trkpt lat="42.53136667" lon="1.575325">
        <ele>1263.0</ele>
        <time>2019-08-04T13:32:13.328Z</time>
      </trkpt>
      <trkpt lat="42.53138167" lon="1.57539167">
        <ele>1263.0</ele>
        <time>2019-08-04T13:32:14.317Z</time>
      </trkpt>
      <trkpt lat="42.53138167" lon="1.57539167">
        <ele>1263.0</ele>
        <time>2019-08-04T13:32:15.298Z</time>
      </trkpt>
      <trkpt lat="42.531395" lon="1.57545667">
        <ele>1264.0</ele>
        <time>2019-08-04T13:32:16.332Z</time>
      </trkpt>
      <trkpt lat="42.531395" lon="1.57545667">
        <ele>1264.0</ele>
        <time>2019-08-04T13:32:17.298Z</time>
      </trkpt>
      <trkpt lat="42.53140667" lon="1.57551667">
        <ele>1264.0</ele>
        <time>2019-08-04T13:32:18.332Z</time>
      </trkpt>
      <trkpt lat="42.53140667" lon="1.57551667">
        <ele>1264.0</ele>
        <time>2019-08-04T13:32:19.300Z</time>
      </trkpt>
      <trkpt lat="42.531425" lon="1.575575">
        <ele>1265.0</ele>
        <time>2019-08-04T13:32:20.334Z</time>
      </trkpt>
      <trkpt lat="42.531425" lon="1.575575">
        <ele>1265.0</ele>
        <time>2019-08-04T13:32:21.327Z</time>
      </trkpt>
      <trkpt lat="42.53144" lon="1.575635">
        <ele>1265.0</ele>
        <time>2019-08-04T13:32:22.310Z</time>
      </trkpt>
      <trkpt lat="42.53144" lon="1.575635">
        <ele>1265.0</ele>
        <time>2019-08-04T13:32:23.332Z</time>
      </trkpt>
      <trkpt lat="42.53145833" lon="1.57569333">
        <ele>1266.0</ele>
        <time>2019-08-04T13:32:24.326Z</time>
      </trkpt>
      <trkpt lat="42.531465" lon="1.575725">
        <ele>1266.0</ele>
        <time>2019-08-04T13:32:25.332Z</time>
      </trkpt>
      <trkpt lat="42.53147167" lon="1.57575667">
        <ele>1266.0</ele>
        <time>2019-08-04T13:32:26.336Z</time>
      </trkpt>
      <trkpt lat="42.53147167" lon="1.57575667">
        <ele>1266.0</ele>
        <time>2019-08-04T13:32:27.328Z</time>
      </trkpt>
      <trkpt lat="42.53148167" lon="1.57582">
        <ele>1266.0</ele>
        <time>2019-08-04T13:32:28.333Z</time>
      </trkpt>
      <trkpt lat="42.53148167" lon="1.57582">
        <ele>1266.0</ele>
        <time>2019-08-04T13:32:29.320Z</time>
      </trkpt>
      <trkpt lat="42.531495" lon="1.57588333">
        <ele>1266.0</ele>
        <time>2019-08-04T13:32:30.304Z</time>
      </trkpt>
      <trkpt lat="42.531495" lon="1.57588333">
        <ele>1266.0</ele>
        <time>2019-08-04T13:32:31.311Z</time>
      </trkpt>
      <trkpt lat="42.53150833" lon="1.57594667">
        <ele>1267.0</ele>
        <time>2019-08-04T13:32:32.331Z</time>
      </trkpt>
      <trkpt lat="42.53150833" lon="1.57594667">
        <ele>1267.0</ele>
        <time>2019-08-04T13:32:33.328Z</time>
      </trkpt>
      <trkpt lat="42.531515" lon="1.57601">
        <ele>1267.0</ele>
        <time>2019-08-04T13:32:34.301Z</time>
      </trkpt>
      <trkpt lat="42.53151833" lon="1.576045">
        <ele>1267.0</ele>
        <time>2019-08-04T13:32:35.309Z</time>
      </trkpt>
      <trkpt lat="42.53151833" lon="1.576045">
        <ele>1267.0</ele>
        <time>2019-08-04T13:32:36.330Z</time>
      </trkpt>
      <trkpt lat="42.53153167" lon="1.57611333">
        <ele>1267.0</ele>
        <time>2019-08-04T13:32:37.334Z</time>
      </trkpt>
      <trkpt lat="42.53153167" lon="1.57611333">
        <ele>1267.0</ele>
        <time>2019-08-04T13:32:38.332Z</time>
      </trkpt>
      <trkpt lat="42.53154667" lon="1.57618667">
        <ele>1268.0</ele>
        <time>2019-08-04T13:32:39.296Z</time>
      </trkpt>
      <trkpt lat="42.53154667" lon="1.57618667">
        <ele>1268.0</ele>
        <time>2019-08-04T13:32:40.327Z</time>
      </trkpt>
      <trkpt lat="42.53156" lon="1.57626333">
        <ele>1268.0</ele>
        <time>2019-08-04T13:32:41.334Z</time>
      </trkpt>
      <trkpt lat="42.53156833" lon="1.57630333">
        <ele>1268.0</ele>
        <time>2019-08-04T13:32:42.334Z</time>
      </trkpt>
      <trkpt lat="42.53156833" lon="1.57630333">
        <ele>1268.0</ele>
        <time>2019-08-04T13:32:43.327Z</time>
      </trkpt>
      <trkpt lat="42.53158167" lon="1.57638833">
        <ele>1268.0</ele>
        <time>2019-08-04T13:32:44.325Z</time>
      </trkpt>
      <trkpt lat="42.53158167" lon="1.57638833">
        <ele>1268.0</ele>
        <time>2019-08-04T13:32:45.307Z</time>
      </trkpt>
      <trkpt lat="42.531595" lon="1.57647333">
        <ele>1268.0</ele>
        <time>2019-08-04T13:32:46.332Z</time>
      </trkpt>
      <trkpt lat="42.531595" lon="1.57647333">
        <ele>1268.0</ele>
        <time>2019-08-04T13:32:47.329Z</time>
      </trkpt>
      <trkpt lat="42.53161167" lon="1.576555">
        <ele>1269.0</ele>
        <time>2019-08-04T13:32:48.333Z</time>
      </trkpt>
      <trkpt lat="42.53161167" lon="1.576555">
        <ele>1269.0</ele>
        <time>2019-08-04T13:32:49.333Z</time>
      </trkpt>
      <trkpt lat="42.531625" lon="1.576645">
        <ele>1269.0</ele>
        <time>2019-08-04T13:32:50.328Z</time>
      </trkpt>
      <trkpt lat="42.531625" lon="1.576645">
        <ele>1269.0</ele>
        <time>2019-08-04T13:32:51.327Z</time>
      </trkpt>
      <trkpt lat="42.531635" lon="1.57673">
        <ele>1269.0</ele>
        <time>2019-08-04T13:32:52.333Z</time>
      </trkpt>
      <trkpt lat="42.53163667" lon="1.57677167">
        <ele>1269.0</ele>
        <time>2019-08-04T13:32:53.333Z</time>
      </trkpt>
      <trkpt lat="42.53163667" lon="1.57677167">
        <ele>1269.0</ele>
        <time>2019-08-04T13:32:54.325Z</time>
      </trkpt>
      <trkpt lat="42.53164667" lon="1.576855">
        <ele>1269.0</ele>
        <time>2019-08-04T13:32:55.314Z</time>
      </trkpt>
      <trkpt lat="42.53165167" lon="1.57689833">
        <ele>1269.0</ele>
        <time>2019-08-04T13:32:56.335Z</time>
      </trkpt>
      <trkpt lat="42.53165167" lon="1.57689833">
        <ele>1269.0</ele>
        <time>2019-08-04T13:32:57.327Z</time>
      </trkpt>
      <trkpt lat="42.53166" lon="1.57698833">
        <ele>1270.0</ele>
        <time>2019-08-04T13:32:58.333Z</time>
      </trkpt>
      <trkpt lat="42.53166" lon="1.57698833">
        <ele>1270.0</ele>
        <time>2019-08-04T13:32:59.327Z</time>
      </trkpt>
      <trkpt lat="42.53166667" lon="1.57707667">
        <ele>1270.0</ele>
        <time>2019-08-04T13:33:00.333Z</time>
      </trkpt>
      <trkpt lat="42.53166667" lon="1.57707667">
        <ele>1270.0</ele>
        <time>2019-08-04T13:33:01.330Z</time>
      </trkpt>
      <trkpt lat="42.53167167" lon="1.57717333">
        <ele>1270.0</ele>
        <time>2019-08-04T13:33:02.335Z</time>
      </trkpt>
      <trkpt lat="42.53167167" lon="1.57717333">
        <ele>1270.0</ele>
        <time>2019-08-04T13:33:03.329Z</time>
      </trkpt>
      <trkpt lat="42.53168167" lon="1.57726">
        <ele>1270.0</ele>
        <time>2019-08-04T13:33:04.307Z</time>
      </trkpt>
      <trkpt lat="42.53168333" lon="1.57730167">
        <ele>1271.0</ele>
        <time>2019-08-04T13:33:05.332Z</time>
      </trkpt>
      <trkpt lat="42.53168333" lon="1.57730167">
        <ele>1271.0</ele>
        <time>2019-08-04T13:33:06.328Z</time>
      </trkpt>
      <trkpt lat="42.53169333" lon="1.57739167">
        <ele>1271.0</ele>
        <time>2019-08-04T13:33:07.313Z</time>
      </trkpt>
      <trkpt lat="42.53169667" lon="1.57743833">
        <ele>1271.0</ele>
        <time>2019-08-04T13:33:08.334Z</time>
      </trkpt>
      <trkpt lat="42.53169667" lon="1.57743833">
        <ele>1271.0</ele>
        <time>2019-08-04T13:33:09.328Z</time>
      </trkpt>
      <trkpt lat="42.53170167" lon="1.57753">
        <ele>1271.0</ele>
        <time>2019-08-04T13:33:10.332Z</time>
      </trkpt>
      <trkpt lat="42.53170167" lon="1.57753">
        <ele>1271.0</ele>
        <time>2019-08-04T13:33:11.325Z</time>
      </trkpt>
      <trkpt lat="42.53170667" lon="1.577625">
        <ele>1271.0</ele>
        <time>2019-08-04T13:33:12.308Z</time>
      </trkpt>
      <trkpt lat="42.53170667" lon="1.577625">
        <ele>1271.0</ele>
        <time>2019-08-04T13:33:13.330Z</time>
      </trkpt>
      <trkpt lat="42.53170667" lon="1.57772667">
        <ele>1272.0</ele>
        <time>2019-08-04T13:33:14.325Z</time>
      </trkpt>
      <trkpt lat="42.53170667" lon="1.57772667">
        <ele>1272.0</ele>
        <time>2019-08-04T13:33:15.314Z</time>
      </trkpt>
      <trkpt lat="42.531715" lon="1.57782333">
        <ele>1272.0</ele>
        <time>2019-08-04T13:33:16.334Z</time>
      </trkpt>
      <trkpt lat="42.531715" lon="1.57782333">
        <ele>1272.0</ele>
        <time>2019-08-04T13:33:17.328Z</time>
      </trkpt>
      <trkpt lat="42.53172167" lon="1.57791833">
        <ele>1272.0</ele>
        <time>2019-08-04T13:33:18.333Z</time>
      </trkpt>
      <trkpt lat="42.53172167" lon="1.57791833">
        <ele>1272.0</ele>
        <time>2019-08-04T13:33:19.328Z</time>
      </trkpt>
      <trkpt lat="42.53172" lon="1.57801">
        <ele>1272.0</ele>
        <time>2019-08-04T13:33:20.331Z</time>
      </trkpt>
      <trkpt lat="42.53172" lon="1.57801">
        <ele>1272.0</ele>
        <time>2019-08-04T13:33:21.325Z</time>
      </trkpt>
      <trkpt lat="42.53172333" lon="1.57811167">
        <ele>1273.0</ele>
        <time>2019-08-04T13:33:22.333Z</time>
      </trkpt>
      <trkpt lat="42.53172333" lon="1.57811167">
        <ele>1273.0</ele>
        <time>2019-08-04T13:33:23.327Z</time>
      </trkpt>
      <trkpt lat="42.53173167" lon="1.5782">
        <ele>1273.0</ele>
        <time>2019-08-04T13:33:24.309Z</time>
      </trkpt>
      <trkpt lat="42.53173167" lon="1.5782">
        <ele>1273.0</ele>
        <time>2019-08-04T13:33:25.330Z</time>
      </trkpt>
      <trkpt lat="42.53173667" lon="1.57828833">
        <ele>1273.0</ele>
        <time>2019-08-04T13:33:26.334Z</time>
      </trkpt>
      <trkpt lat="42.53173667" lon="1.57828833">
        <ele>1273.0</ele>
        <time>2019-08-04T13:33:27.331Z</time>
      </trkpt>
      <trkpt lat="42.53173333" lon="1.57838167">
        <ele>1273.0</ele>
        <time>2019-08-04T13:33:28.333Z</time>
      </trkpt>
      <trkpt lat="42.53173333" lon="1.57838167">
        <ele>1273.0</ele>
        <time>2019-08-04T13:33:29.296Z</time>
      </trkpt>
      <trkpt lat="42.53173" lon="1.57847">
        <ele>1273.0</ele>
        <time>2019-08-04T13:33:30.298Z</time>
      </trkpt>
      <trkpt lat="42.53173333" lon="1.578515">
        <ele>1273.0</ele>
        <time>2019-08-04T13:33:31.304Z</time>
      </trkpt>
      <trkpt lat="42.53173333" lon="1.578515">
        <ele>1273.0</ele>
        <time>2019-08-04T13:33:32.312Z</time>
      </trkpt>
      <trkpt lat="42.53173333" lon="1.5786">
        <ele>1273.0</ele>
        <time>2019-08-04T13:33:33.318Z</time>
      </trkpt>
      <trkpt lat="42.53173333" lon="1.5786">
        <ele>1273.0</ele>
        <time>2019-08-04T13:33:34.324Z</time>
      </trkpt>
      <trkpt lat="42.53174167" lon="1.57869">
        <ele>1273.0</ele>
        <time>2019-08-04T13:33:35.307Z</time>
      </trkpt>
      <trkpt lat="42.53174167" lon="1.57869">
        <ele>1273.0</ele>
        <time>2019-08-04T13:33:36.330Z</time>
      </trkpt>
      <trkpt lat="42.53175" lon="1.57878167">
        <ele>1274.0</ele>
        <time>2019-08-04T13:33:37.332Z</time>
      </trkpt>
      <trkpt lat="42.53176333" lon="1.57883167">
        <ele>1274.0</ele>
        <time>2019-08-04T13:33:38.335Z</time>
      </trkpt>
      <trkpt lat="42.53176333" lon="1.57887167">
        <ele>1274.0</ele>
        <time>2019-08-04T13:33:39.334Z</time>
      </trkpt>
      <trkpt lat="42.53176333" lon="1.57887167">
        <ele>1274.0</ele>
        <time>2019-08-04T13:33:40.329Z</time>
      </trkpt>
      <trkpt lat="42.53175667" lon="1.57895667">
        <ele>1274.0</ele>
        <time>2019-08-04T13:33:41.333Z</time>
      </trkpt>
      <trkpt lat="42.53175667" lon="1.57895667">
        <ele>1274.0</ele>
        <time>2019-08-04T13:33:42.331Z</time>
      </trkpt>
      <trkpt lat="42.53176667" lon="1.57904">
        <ele>1274.0</ele>
        <time>2019-08-04T13:33:43.333Z</time>
      </trkpt>
      <trkpt lat="42.53176" lon="1.579085">
        <ele>1274.0</ele>
        <time>2019-08-04T13:33:44.308Z</time>
      </trkpt>
      <trkpt lat="42.53176" lon="1.579085">
        <ele>1274.0</ele>
        <time>2019-08-04T13:33:45.331Z</time>
      </trkpt>
      <trkpt lat="42.53174333" lon="1.57918167">
        <ele>1274.0</ele>
        <time>2019-08-04T13:33:46.330Z</time>
      </trkpt>
      <trkpt lat="42.53174333" lon="1.57918167">
        <ele>1274.0</ele>
        <time>2019-08-04T13:33:47.315Z</time>
      </trkpt>
      <trkpt lat="42.53173333" lon="1.57929167">
        <ele>1274.0</ele>
        <time>2019-08-04T13:33:48.297Z</time>
      </trkpt>
      <trkpt lat="42.53172667" lon="1.57933667">
        <ele>1274.0</ele>
        <time>2019-08-04T13:33:49.333Z</time>
      </trkpt>
      <trkpt lat="42.53172667" lon="1.57933667">
        <ele>1274.0</ele>
        <time>2019-08-04T13:33:50.333Z</time>
      </trkpt>
      <trkpt lat="42.53172" lon="1.57941833">
        <ele>1274.0</ele>
        <time>2019-08-04T13:33:51.334Z</time>
      </trkpt>
      <trkpt lat="42.53172" lon="1.57941833">
        <ele>1274.0</ele>
        <time>2019-08-04T13:33:52.327Z</time>
      </trkpt>
      <trkpt lat="42.53171167" lon="1.579505">
        <ele>1274.0</ele>
        <time>2019-08-04T13:33:53.309Z</time>
      </trkpt>
      <trkpt lat="42.53170667" lon="1.57953333">
        <ele>1274.0</ele>
        <time>2019-08-04T13:33:54.334Z</time>
      </trkpt>
      <trkpt lat="42.53170667" lon="1.57953333">
        <ele>1274.0</ele>
        <time>2019-08-04T13:33:55.328Z</time>
      </trkpt>
      <trkpt lat="42.53167833" lon="1.5796">
        <ele>1274.0</ele>
        <time>2019-08-04T13:33:56.308Z</time>
      </trkpt>
      <trkpt lat="42.531645" lon="1.579645">
        <ele>1274.0</ele>
        <time>2019-08-04T13:33:57.334Z</time>
      </trkpt>
      <trkpt lat="42.531645" lon="1.579645">
        <ele>1274.0</ele>
        <time>2019-08-04T13:33:58.330Z</time>
      </trkpt>
      <trkpt lat="42.53162167" lon="1.57971167">
        <ele>1274.0</ele>
        <time>2019-08-04T13:33:59.333Z</time>
      </trkpt>
      <trkpt lat="42.53162167" lon="1.57971167">
        <ele>1274.0</ele>
        <time>2019-08-04T13:34:00.327Z</time>
      </trkpt>
      <trkpt lat="42.53160333" lon="1.57978">
        <ele>1274.0</ele>
        <time>2019-08-04T13:34:01.309Z</time>
      </trkpt>
      <trkpt lat="42.53160333" lon="1.57978">
        <ele>1274.0</ele>
        <time>2019-08-04T13:34:02.330Z</time>
      </trkpt>
      <trkpt lat="42.531625" lon="1.57985667">
        <ele>1274.0</ele>
        <time>2019-08-04T13:34:03.332Z</time>
      </trkpt>
      <trkpt lat="42.531625" lon="1.57985667">
        <ele>1274.0</ele>
        <time>2019-08-04T13:34:04.328Z</time>
      </trkpt>
      <trkpt lat="42.531655" lon="1.57993167">
        <ele>1275.0</ele>
        <time>2019-08-04T13:34:05.309Z</time>
      </trkpt>
      <trkpt lat="42.531655" lon="1.57993167">
        <ele>1275.0</ele>
        <time>2019-08-04T13:34:06.329Z</time>
      </trkpt>
      <trkpt lat="42.53168333" lon="1.58001333">
        <ele>1275.0</ele>
        <time>2019-08-04T13:34:07.335Z</time>
      </trkpt>
      <trkpt lat="42.53168333" lon="1.58001333">
        <ele>1275.0</ele>
        <time>2019-08-04T13:34:08.330Z</time>
      </trkpt>
      <trkpt lat="42.53169667" lon="1.58009833">
        <ele>1275.0</ele>
        <time>2019-08-04T13:34:09.334Z</time>
      </trkpt>
      <trkpt lat="42.531705" lon="1.58014333">
        <ele>1275.0</ele>
        <time>2019-08-04T13:34:10.334Z</time>
      </trkpt>
      <trkpt lat="42.531705" lon="1.58014333">
        <ele>1275.0</ele>
        <time>2019-08-04T13:34:11.331Z</time>
      </trkpt>
      <trkpt lat="42.53170667" lon="1.580235">
        <ele>1275.0</ele>
        <time>2019-08-04T13:34:12.315Z</time>
      </trkpt>
      <trkpt lat="42.53170667" lon="1.580235">
        <ele>1275.0</ele>
        <time>2019-08-04T13:34:13.336Z</time>
      </trkpt>
      <trkpt lat="42.53170833" lon="1.58032">
        <ele>1275.0</ele>
        <time>2019-08-04T13:34:14.309Z</time>
      </trkpt>
      <trkpt lat="42.53171167" lon="1.58035833">
        <ele>1275.0</ele>
        <time>2019-08-04T13:34:15.336Z</time>
      </trkpt>
      <trkpt lat="42.53171167" lon="1.58035833">
        <ele>1275.0</ele>
        <time>2019-08-04T13:34:16.330Z</time>
      </trkpt>
      <trkpt lat="42.53170833" lon="1.580445">
        <ele>1275.0</ele>
        <time>2019-08-04T13:34:17.316Z</time>
      </trkpt>
      <trkpt lat="42.53171167" lon="1.58048833">
        <ele>1275.0</ele>
        <time>2019-08-04T13:34:18.296Z</time>
      </trkpt>
      <trkpt lat="42.53171167" lon="1.58048833">
        <ele>1275.0</ele>
        <time>2019-08-04T13:34:19.333Z</time>
      </trkpt>
      <trkpt lat="42.53170667" lon="1.580565">
        <ele>1275.0</ele>
        <time>2019-08-04T13:34:20.297Z</time>
      </trkpt>
      <trkpt lat="42.53170167" lon="1.58060167">
        <ele>1275.0</ele>
        <time>2019-08-04T13:34:21.296Z</time>
      </trkpt>
      <trkpt lat="42.53170167" lon="1.58060167">
        <ele>1275.0</ele>
        <time>2019-08-04T13:34:22.333Z</time>
      </trkpt>
      <trkpt lat="42.531695" lon="1.58068667">
        <ele>1276.0</ele>
        <time>2019-08-04T13:34:23.335Z</time>
      </trkpt>
      <trkpt lat="42.53168833" lon="1.58073167">
        <ele>1276.0</ele>
        <time>2019-08-04T13:34:24.301Z</time>
      </trkpt>
      <trkpt lat="42.53168833" lon="1.58073167">
        <ele>1276.0</ele>
        <time>2019-08-04T13:34:25.304Z</time>
      </trkpt>
      <trkpt lat="42.53167167" lon="1.58081667">
        <ele>1276.0</ele>
        <time>2019-08-04T13:34:26.303Z</time>
      </trkpt>
      <trkpt lat="42.53167167" lon="1.58081667">
        <ele>1276.0</ele>
        <time>2019-08-04T13:34:27.335Z</time>
      </trkpt>
      <trkpt lat="42.531665" lon="1.58090167">
        <ele>1276.0</ele>
        <time>2019-08-04T13:34:28.309Z</time>
      </trkpt>
      <trkpt lat="42.531665" lon="1.58090167">
        <ele>1276.0</ele>
        <time>2019-08-04T13:34:29.316Z</time>
      </trkpt>
      <trkpt lat="42.53166167" lon="1.58098667">
        <ele>1276.0</ele>
        <time>2019-08-04T13:34:30.296Z</time>
      </trkpt>
      <trkpt lat="42.53165833" lon="1.58103667">
        <ele>1276.0</ele>
        <time>2019-08-04T13:34:31.303Z</time>
      </trkpt>
      <trkpt lat="42.53166167" lon="1.58108167">
        <ele>1276.0</ele>
        <time>2019-08-04T13:34:32.309Z</time>
      </trkpt>
      <trkpt lat="42.53166167" lon="1.58108167">
        <ele>1276.0</ele>
        <time>2019-08-04T13:34:33.298Z</time>
      </trkpt>
      <trkpt lat="42.531645" lon="1.58116333">
        <ele>1277.0</ele>
        <time>2019-08-04T13:34:34.307Z</time>
      </trkpt>
      <trkpt lat="42.53166" lon="1.58120667">
        <ele>1277.0</ele>
        <time>2019-08-04T13:34:35.300Z</time>
      </trkpt>
      <trkpt lat="42.53166333" lon="1.58123833">
        <ele>1277.0</ele>
        <time>2019-08-04T13:34:36.297Z</time>
      </trkpt>
      <trkpt lat="42.53166333" lon="1.58123833">
        <ele>1277.0</ele>
        <time>2019-08-04T13:34:37.336Z</time>
      </trkpt>
      <trkpt lat="42.531665" lon="1.58130833">
        <ele>1277.0</ele>
        <time>2019-08-04T13:34:38.302Z</time>
      </trkpt>
      <trkpt lat="42.53166167" lon="1.58135333">
        <ele>1278.0</ele>
        <time>2019-08-04T13:34:39.296Z</time>
      </trkpt>
      <trkpt lat="42.53166" lon="1.58139667">
        <ele>1278.0</ele>
        <time>2019-08-04T13:34:40.336Z</time>
      </trkpt>
      <trkpt lat="42.53166" lon="1.58139667">
        <ele>1278.0</ele>
        <time>2019-08-04T13:34:41.334Z</time>
      </trkpt>
      <trkpt lat="42.53166" lon="1.58146667">
        <ele>1278.0</ele>
        <time>2019-08-04T13:34:42.297Z</time>
      </trkpt>
      <trkpt lat="42.53166" lon="1.58146667">
        <ele>1278.0</ele>
        <time>2019-08-04T13:34:43.331Z</time>
      </trkpt>
      <trkpt lat="42.53165667" lon="1.58154333">
        <ele>1278.0</ele>
        <time>2019-08-04T13:34:44.329Z</time>
      </trkpt>
      <trkpt lat="42.53165667" lon="1.58154333">
        <ele>1278.0</ele>
        <time>2019-08-04T13:34:45.332Z</time>
      </trkpt>
      <trkpt lat="42.53165167" lon="1.58162167">
        <ele>1278.0</ele>
        <time>2019-08-04T13:34:46.296Z</time>
      </trkpt>
      <trkpt lat="42.53165167" lon="1.58162167">
        <ele>1278.0</ele>
        <time>2019-08-04T13:34:47.334Z</time>
      </trkpt>
      <trkpt lat="42.53164333" lon="1.58169167">
        <ele>1279.0</ele>
        <time>2019-08-04T13:34:48.297Z</time>
      </trkpt>
      <trkpt lat="42.53164333" lon="1.58169167">
        <ele>1279.0</ele>
        <time>2019-08-04T13:34:49.330Z</time>
      </trkpt>
      <trkpt lat="42.53164167" lon="1.58176167">
        <ele>1279.0</ele>
        <time>2019-08-04T13:34:50.313Z</time>
      </trkpt>
      <trkpt lat="42.53164167" lon="1.58176167">
        <ele>1279.0</ele>
        <time>2019-08-04T13:34:51.331Z</time>
      </trkpt>
      <trkpt lat="42.53162833" lon="1.58181667">
        <ele>1279.0</ele>
        <time>2019-08-04T13:34:52.334Z</time>
      </trkpt>
      <trkpt lat="42.53162833" lon="1.58181667">
        <ele>1279.0</ele>
        <time>2019-08-04T13:34:53.326Z</time>
      </trkpt>
      <trkpt lat="42.53161833" lon="1.581885">
        <ele>1279.0</ele>
        <time>2019-08-04T13:34:54.306Z</time>
      </trkpt>
      <trkpt lat="42.53161833" lon="1.581885">
        <ele>1279.0</ele>
        <time>2019-08-04T13:34:55.332Z</time>
      </trkpt>
      <trkpt lat="42.53162167" lon="1.58195833">
        <ele>1279.0</ele>
        <time>2019-08-04T13:34:56.333Z</time>
      </trkpt>
      <trkpt lat="42.53162167" lon="1.58195833">
        <ele>1279.0</ele>
        <time>2019-08-04T13:34:57.329Z</time>
      </trkpt>
      <trkpt lat="42.53162" lon="1.58203167">
        <ele>1279.0</ele>
        <time>2019-08-04T13:34:58.334Z</time>
      </trkpt>
      <trkpt lat="42.53162" lon="1.58203167">
        <ele>1279.0</ele>
        <time>2019-08-04T13:34:59.333Z</time>
      </trkpt>
      <trkpt lat="42.531625" lon="1.582095">
        <ele>1280.0</ele>
        <time>2019-08-04T13:35:00.336Z</time>
      </trkpt>
      <trkpt lat="42.531625" lon="1.582095">
        <ele>1280.0</ele>
        <time>2019-08-04T13:35:01.332Z</time>
      </trkpt>
      <trkpt lat="42.53162167" lon="1.58215833">
        <ele>1280.0</ele>
        <time>2019-08-04T13:35:02.298Z</time>
      </trkpt>
      <trkpt lat="42.53162167" lon="1.58215833">
        <ele>1280.0</ele>
        <time>2019-08-04T13:35:03.326Z</time>
      </trkpt>
      <trkpt lat="42.53162667" lon="1.58222167">
        <ele>1280.0</ele>
        <time>2019-08-04T13:35:04.335Z</time>
      </trkpt>
      <trkpt lat="42.53162667" lon="1.58222167">
        <ele>1280.0</ele>
        <time>2019-08-04T13:35:05.333Z</time>
      </trkpt>
      <trkpt lat="42.53162333" lon="1.58228167">
        <ele>1280.0</ele>
        <time>2019-08-04T13:35:06.333Z</time>
      </trkpt>
      <trkpt lat="42.53162333" lon="1.58228167">
        <ele>1280.0</ele>
        <time>2019-08-04T13:35:07.327Z</time>
      </trkpt>
      <trkpt lat="42.53162" lon="1.58234333">
        <ele>1280.0</ele>
        <time>2019-08-04T13:35:08.335Z</time>
      </trkpt>
      <trkpt lat="42.53162" lon="1.58234333">
        <ele>1280.0</ele>
        <time>2019-08-04T13:35:09.334Z</time>
      </trkpt>
      <trkpt lat="42.53161833" lon="1.58240833">
        <ele>1281.0</ele>
        <time>2019-08-04T13:35:10.335Z</time>
      </trkpt>
      <trkpt lat="42.53161833" lon="1.58240833">
        <ele>1281.0</ele>
        <time>2019-08-04T13:35:11.332Z</time>
      </trkpt>
      <trkpt lat="42.53162167" lon="1.58247833">
        <ele>1281.0</ele>
        <time>2019-08-04T13:35:12.296Z</time>
      </trkpt>
      <trkpt lat="42.53162167" lon="1.58247833">
        <ele>1281.0</ele>
        <time>2019-08-04T13:35:13.330Z</time>
      </trkpt>
      <trkpt lat="42.53163167" lon="1.58253833">
        <ele>1281.0</ele>
        <time>2019-08-04T13:35:14.307Z</time>
      </trkpt>
      <trkpt lat="42.53163167" lon="1.58253833">
        <ele>1281.0</ele>
        <time>2019-08-04T13:35:15.332Z</time>
      </trkpt>
      <trkpt lat="42.53163667" lon="1.58259333">
        <ele>1282.0</ele>
        <time>2019-08-04T13:35:16.335Z</time>
      </trkpt>
      <trkpt lat="42.53163667" lon="1.58259333">
        <ele>1282.0</ele>
        <time>2019-08-04T13:35:17.325Z</time>
      </trkpt>
      <trkpt lat="42.53165667" lon="1.582655">
        <ele>1282.0</ele>
        <time>2019-08-04T13:35:18.335Z</time>
      </trkpt>
      <trkpt lat="42.53165667" lon="1.582655">
        <ele>1282.0</ele>
        <time>2019-08-04T13:35:19.332Z</time>
      </trkpt>
      <trkpt lat="42.53167833" lon="1.58271333">
        <ele>1283.0</ele>
        <time>2019-08-04T13:35:20.296Z</time>
      </trkpt>
      <trkpt lat="42.53167833" lon="1.58271333">
        <ele>1283.0</ele>
        <time>2019-08-04T13:35:21.331Z</time>
      </trkpt>
      <trkpt lat="42.531705" lon="1.58278167">
        <ele>1284.0</ele>
        <time>2019-08-04T13:35:22.296Z</time>
      </trkpt>
      <trkpt lat="42.531705" lon="1.58278167">
        <ele>1284.0</ele>
        <time>2019-08-04T13:35:23.332Z</time>
      </trkpt>
      <trkpt lat="42.53172667" lon="1.58285">
        <ele>1284.0</ele>
        <time>2019-08-04T13:35:24.305Z</time>
      </trkpt>
      <trkpt lat="42.53174333" lon="1.58288833">
        <ele>1285.0</ele>
        <time>2019-08-04T13:35:25.335Z</time>
      </trkpt>
      <trkpt lat="42.53175" lon="1.582925">
        <ele>1285.0</ele>
        <time>2019-08-04T13:35:26.335Z</time>
      </trkpt>
      <trkpt lat="42.53175" lon="1.582925">
        <ele>1285.0</ele>
        <time>2019-08-04T13:35:27.329Z</time>
      </trkpt>
      <trkpt lat="42.53176833" lon="1.58298">
        <ele>1286.0</ele>
        <time>2019-08-04T13:35:28.334Z</time>
      </trkpt>
      <trkpt lat="42.53176833" lon="1.58298">
        <ele>1286.0</ele>
        <time>2019-08-04T13:35:29.315Z</time>
      </trkpt>
      <trkpt lat="42.53178667" lon="1.583035">
        <ele>1287.0</ele>
        <time>2019-08-04T13:35:30.329Z</time>
      </trkpt>
      <trkpt lat="42.53178667" lon="1.583035">
        <ele>1287.0</ele>
        <time>2019-08-04T13:35:31.297Z</time>
      </trkpt>
      <trkpt lat="42.53180833" lon="1.58309667">
        <ele>1288.0</ele>
        <time>2019-08-04T13:35:32.304Z</time>
      </trkpt>
      <trkpt lat="42.53180833" lon="1.58309667">
        <ele>1288.0</ele>
        <time>2019-08-04T13:35:33.331Z</time>
      </trkpt>
      <trkpt lat="42.53183167" lon="1.58315333">
        <ele>1289.0</ele>
        <time>2019-08-04T13:35:34.318Z</time>
      </trkpt>
      <trkpt lat="42.53185" lon="1.58318">
        <ele>1290.0</ele>
        <time>2019-08-04T13:35:35.300Z</time>
      </trkpt>
      <trkpt lat="42.53186167" lon="1.58321167">
        <ele>1291.0</ele>
        <time>2019-08-04T13:35:36.335Z</time>
      </trkpt>
      <trkpt lat="42.53186167" lon="1.58321167">
        <ele>1291.0</ele>
        <time>2019-08-04T13:35:37.326Z</time>
      </trkpt>
      <trkpt lat="42.531895" lon="1.58327167">
        <ele>1292.0</ele>
        <time>2019-08-04T13:35:38.307Z</time>
      </trkpt>
      <trkpt lat="42.531895" lon="1.58327167">
        <ele>1292.0</ele>
        <time>2019-08-04T13:35:39.333Z</time>
      </trkpt>
      <trkpt lat="42.53193167" lon="1.58333">
        <ele>1292.0</ele>
        <time>2019-08-04T13:35:40.334Z</time>
      </trkpt>
      <trkpt lat="42.53194667" lon="1.58336">
        <ele>1293.0</ele>
        <time>2019-08-04T13:35:41.304Z</time>
      </trkpt>
      <trkpt lat="42.53194667" lon="1.58336">
        <ele>1293.0</ele>
        <time>2019-08-04T13:35:42.331Z</time>
      </trkpt>
      <trkpt lat="42.531975" lon="1.58342333">
        <ele>1294.0</ele>
        <time>2019-08-04T13:35:43.334Z</time>
      </trkpt>
      <trkpt lat="42.531975" lon="1.58342333">
        <ele>1294.0</ele>
        <time>2019-08-04T13:35:44.330Z</time>
      </trkpt>
      <trkpt lat="42.53200667" lon="1.58348333">
        <ele>1295.0</ele>
        <time>2019-08-04T13:35:45.334Z</time>
      </trkpt>
      <trkpt lat="42.532025" lon="1.58351333">
        <ele>1296.0</ele>
        <time>2019-08-04T13:35:46.332Z</time>
      </trkpt>
      <trkpt lat="42.532025" lon="1.58351333">
        <ele>1296.0</ele>
        <time>2019-08-04T13:35:47.333Z</time>
      </trkpt>
      <trkpt lat="42.53205833" lon="1.58357">
        <ele>1296.0</ele>
        <time>2019-08-04T13:35:48.335Z</time>
      </trkpt>
      <trkpt lat="42.53205833" lon="1.58357">
        <ele>1296.0</ele>
        <time>2019-08-04T13:35:49.330Z</time>
      </trkpt>
      <trkpt lat="42.53209167" lon="1.58362667">
        <ele>1297.0</ele>
        <time>2019-08-04T13:35:50.296Z</time>
      </trkpt>
      <trkpt lat="42.53209167" lon="1.58362667">
        <ele>1297.0</ele>
        <time>2019-08-04T13:35:51.332Z</time>
      </trkpt>
      <trkpt lat="42.53212667" lon="1.583685">
        <ele>1298.0</ele>
        <time>2019-08-04T13:35:52.332Z</time>
      </trkpt>
      <trkpt lat="42.53212667" lon="1.583685">
        <ele>1298.0</ele>
        <time>2019-08-04T13:35:53.330Z</time>
      </trkpt>
      <trkpt lat="42.53216667" lon="1.58373667">
        <ele>1298.0</ele>
        <time>2019-08-04T13:35:54.308Z</time>
      </trkpt>
      <trkpt lat="42.53216667" lon="1.58373667">
        <ele>1298.0</ele>
        <time>2019-08-04T13:35:55.335Z</time>
      </trkpt>
      <trkpt lat="42.53220667" lon="1.58378833">
        <ele>1298.0</ele>
        <time>2019-08-04T13:35:56.296Z</time>
      </trkpt>
      <trkpt lat="42.53220667" lon="1.58378833">
        <ele>1298.0</ele>
        <time>2019-08-04T13:35:57.329Z</time>
      </trkpt>
      <trkpt lat="42.53224667" lon="1.58384333">
        <ele>1299.0</ele>
        <time>2019-08-04T13:35:58.335Z</time>
      </trkpt>
      <trkpt lat="42.53224667" lon="1.58384333">
        <ele>1299.0</ele>
        <time>2019-08-04T13:35:59.332Z</time>
      </trkpt>
      <trkpt lat="42.53228667" lon="1.58389833">
        <ele>1300.0</ele>
        <time>2019-08-04T13:36:00.296Z</time>
      </trkpt>
      <trkpt lat="42.53228667" lon="1.58389833">
        <ele>1300.0</ele>
        <time>2019-08-04T13:36:01.329Z</time>
      </trkpt>
      <trkpt lat="42.53232667" lon="1.58395">
        <ele>1300.0</ele>
        <time>2019-08-04T13:36:02.319Z</time>
      </trkpt>
      <trkpt lat="42.53232667" lon="1.58395">
        <ele>1300.0</ele>
        <time>2019-08-04T13:36:03.301Z</time>
      </trkpt>
      <trkpt lat="42.53237167" lon="1.58400333">
        <ele>1300.0</ele>
        <time>2019-08-04T13:36:04.334Z</time>
      </trkpt>
      <trkpt lat="42.53239333" lon="1.58402667">
        <ele>1301.0</ele>
        <time>2019-08-04T13:36:05.332Z</time>
      </trkpt>
      <trkpt lat="42.53239333" lon="1.58402667">
        <ele>1301.0</ele>
        <time>2019-08-04T13:36:06.330Z</time>
      </trkpt>
      <trkpt lat="42.53243833" lon="1.58407667">
        <ele>1301.0</ele>
        <time>2019-08-04T13:36:07.296Z</time>
      </trkpt>
      <trkpt lat="42.53246167" lon="1.58410333">
        <ele>1301.0</ele>
        <time>2019-08-04T13:36:08.300Z</time>
      </trkpt>
      <trkpt lat="42.53246167" lon="1.58410333">
        <ele>1301.0</ele>
        <time>2019-08-04T13:36:09.332Z</time>
      </trkpt>
      <trkpt lat="42.53250833" lon="1.58415167">
        <ele>1301.0</ele>
        <time>2019-08-04T13:36:10.334Z</time>
      </trkpt>
      <trkpt lat="42.53253" lon="1.58417667">
        <ele>1302.0</ele>
        <time>2019-08-04T13:36:11.335Z</time>
      </trkpt>
      <trkpt lat="42.53255167" lon="1.58419833">
        <ele>1302.0</ele>
        <time>2019-08-04T13:36:12.334Z</time>
      </trkpt>
      <trkpt lat="42.53257333" lon="1.58422167">
        <ele>1302.0</ele>
        <time>2019-08-04T13:36:13.335Z</time>
      </trkpt>
      <trkpt lat="42.53257333" lon="1.58422167">
        <ele>1302.0</ele>
        <time>2019-08-04T13:36:14.334Z</time>
      </trkpt>
      <trkpt lat="42.53261667" lon="1.58426667">
        <ele>1303.0</ele>
        <time>2019-08-04T13:36:15.335Z</time>
      </trkpt>
      <trkpt lat="42.53263667" lon="1.58428833">
        <ele>1303.0</ele>
        <time>2019-08-04T13:36:16.335Z</time>
      </trkpt>
      <trkpt lat="42.53263667" lon="1.58428833">
        <ele>1303.0</ele>
        <time>2019-08-04T13:36:17.329Z</time>
      </trkpt>
      <trkpt lat="42.53267833" lon="1.584335">
        <ele>1304.0</ele>
        <time>2019-08-04T13:36:18.334Z</time>
      </trkpt>
      <trkpt lat="42.5327" lon="1.58435833">
        <ele>1304.0</ele>
        <time>2019-08-04T13:36:19.335Z</time>
      </trkpt>
      <trkpt lat="42.5327" lon="1.58435833">
        <ele>1304.0</ele>
        <time>2019-08-04T13:36:20.333Z</time>
      </trkpt>
      <trkpt lat="42.53274333" lon="1.58440333">
        <ele>1304.0</ele>
        <time>2019-08-04T13:36:21.331Z</time>
      </trkpt>
      <trkpt lat="42.53276667" lon="1.58442667">
        <ele>1305.0</ele>
        <time>2019-08-04T13:36:22.309Z</time>
      </trkpt>
      <trkpt lat="42.53276667" lon="1.58442667">
        <ele>1305.0</ele>
        <time>2019-08-04T13:36:23.335Z</time>
      </trkpt>
      <trkpt lat="42.53281" lon="1.58446833">
        <ele>1305.0</ele>
        <time>2019-08-04T13:36:24.335Z</time>
      </trkpt>
      <trkpt lat="42.53283167" lon="1.58449167">
        <ele>1305.0</ele>
        <time>2019-08-04T13:36:25.334Z</time>
      </trkpt>
      <trkpt lat="42.53283167" lon="1.58449167">
        <ele>1305.0</ele>
        <time>2019-08-04T13:36:26.327Z</time>
      </trkpt>
      <trkpt lat="42.53287667" lon="1.58454333">
        <ele>1305.0</ele>
        <time>2019-08-04T13:36:27.310Z</time>
      </trkpt>
      <trkpt lat="42.53289833" lon="1.58457">
        <ele>1306.0</ele>
        <time>2019-08-04T13:36:28.334Z</time>
      </trkpt>
      <trkpt lat="42.53289833" lon="1.58457">
        <ele>1306.0</ele>
        <time>2019-08-04T13:36:29.334Z</time>
      </trkpt>
      <trkpt lat="42.53294333" lon="1.584615">
        <ele>1306.0</ele>
        <time>2019-08-04T13:36:30.325Z</time>
      </trkpt>
      <trkpt lat="42.53294333" lon="1.584615">
        <ele>1306.0</ele>
        <time>2019-08-04T13:36:31.332Z</time>
      </trkpt>
      <trkpt lat="42.53298333" lon="1.584665">
        <ele>1306.0</ele>
        <time>2019-08-04T13:36:32.308Z</time>
      </trkpt>
      <trkpt lat="42.53298333" lon="1.584665">
        <ele>1306.0</ele>
        <time>2019-08-04T13:36:33.333Z</time>
      </trkpt>
      <trkpt lat="42.53302667" lon="1.58471167">
        <ele>1307.0</ele>
        <time>2019-08-04T13:36:34.334Z</time>
      </trkpt>
      <trkpt lat="42.53304833" lon="1.584735">
        <ele>1307.0</ele>
        <time>2019-08-04T13:36:35.308Z</time>
      </trkpt>
      <trkpt lat="42.53307" lon="1.584755">
        <ele>1307.0</ele>
        <time>2019-08-04T13:36:36.296Z</time>
      </trkpt>
      <trkpt lat="42.53307" lon="1.584755">
        <ele>1307.0</ele>
        <time>2019-08-04T13:36:37.332Z</time>
      </trkpt>
      <trkpt lat="42.53311333" lon="1.58480167">
        <ele>1308.0</ele>
        <time>2019-08-04T13:36:38.296Z</time>
      </trkpt>
      <trkpt lat="42.53311333" lon="1.58480167">
        <ele>1308.0</ele>
        <time>2019-08-04T13:36:39.333Z</time>
      </trkpt>
      <trkpt lat="42.533155" lon="1.58485">
        <ele>1308.0</ele>
        <time>2019-08-04T13:36:40.335Z</time>
      </trkpt>
      <trkpt lat="42.533175" lon="1.584875">
        <ele>1308.0</ele>
        <time>2019-08-04T13:36:41.335Z</time>
      </trkpt>
      <trkpt lat="42.533175" lon="1.584875">
        <ele>1308.0</ele>
        <time>2019-08-04T13:36:42.298Z</time>
      </trkpt>
      <trkpt lat="42.53321" lon="1.58493">
        <ele>1309.0</ele>
        <time>2019-08-04T13:36:43.335Z</time>
      </trkpt>
      <trkpt lat="42.53322833" lon="1.58496167">
        <ele>1309.0</ele>
        <time>2019-08-04T13:36:44.303Z</time>
      </trkpt>
      <trkpt lat="42.53322833" lon="1.58496167">
        <ele>1309.0</ele>
        <time>2019-08-04T13:36:45.332Z</time>
      </trkpt>
      <trkpt lat="42.53326333" lon="1.58502333">
        <ele>1309.0</ele>
        <time>2019-08-04T13:36:46.335Z</time>
      </trkpt>
      <trkpt lat="42.53326333" lon="1.58502333">
        <ele>1309.0</ele>
        <time>2019-08-04T13:36:47.332Z</time>
      </trkpt>
      <trkpt lat="42.53329833" lon="1.58508833">
        <ele>1310.0</ele>
        <time>2019-08-04T13:36:48.296Z</time>
      </trkpt>
      <trkpt lat="42.53329833" lon="1.58508833">
        <ele>1310.0</ele>
        <time>2019-08-04T13:36:49.327Z</time>
      </trkpt>
      <trkpt lat="42.53333" lon="1.58516">
        <ele>1310.0</ele>
        <time>2019-08-04T13:36:50.331Z</time>
      </trkpt>
      <trkpt lat="42.53333" lon="1.58516">
        <ele>1310.0</ele>
        <time>2019-08-04T13:36:51.333Z</time>
      </trkpt>
      <trkpt lat="42.53336" lon="1.58524">
        <ele>1310.0</ele>
        <time>2019-08-04T13:36:52.317Z</time>
      </trkpt>
      <trkpt lat="42.53336" lon="1.58524">
        <ele>1310.0</ele>
        <time>2019-08-04T13:36:53.298Z</time>
      </trkpt>
      <trkpt lat="42.533385" lon="1.585325">
        <ele>1310.0</ele>
        <time>2019-08-04T13:36:54.309Z</time>
      </trkpt>
      <trkpt lat="42.533385" lon="1.585325">
        <ele>1310.0</ele>
        <time>2019-08-04T13:36:55.332Z</time>
      </trkpt>
      <trkpt lat="42.53341" lon="1.58540833">
        <ele>1311.0</ele>
        <time>2019-08-04T13:36:56.296Z</time>
      </trkpt>
      <trkpt lat="42.53341" lon="1.58540833">
        <ele>1311.0</ele>
        <time>2019-08-04T13:36:57.329Z</time>
      </trkpt>
      <trkpt lat="42.53344" lon="1.58548333">
        <ele>1311.0</ele>
        <time>2019-08-04T13:36:58.335Z</time>
      </trkpt>
      <trkpt lat="42.53344" lon="1.58548333">
        <ele>1311.0</ele>
        <time>2019-08-04T13:36:59.334Z</time>
      </trkpt>
      <trkpt lat="42.53347667" lon="1.58555167">
        <ele>1312.0</ele>
        <time>2019-08-04T13:37:00.299Z</time>
      </trkpt>
      <trkpt lat="42.53347667" lon="1.58555167">
        <ele>1312.0</ele>
        <time>2019-08-04T13:37:01.334Z</time>
      </trkpt>
      <trkpt lat="42.53351833" lon="1.58561167">
        <ele>1312.0</ele>
        <time>2019-08-04T13:37:02.298Z</time>
      </trkpt>
      <trkpt lat="42.53351833" lon="1.58561167">
        <ele>1312.0</ele>
        <time>2019-08-04T13:37:03.330Z</time>
      </trkpt>
      <trkpt lat="42.533565" lon="1.585665">
        <ele>1313.0</ele>
        <time>2019-08-04T13:37:04.308Z</time>
      </trkpt>
      <trkpt lat="42.533565" lon="1.585665">
        <ele>1313.0</ele>
        <time>2019-08-04T13:37:05.331Z</time>
      </trkpt>
      <trkpt lat="42.53361333" lon="1.58570667">
        <ele>1313.0</ele>
        <time>2019-08-04T13:37:06.296Z</time>
      </trkpt>
      <trkpt lat="42.53361333" lon="1.58570667">
        <ele>1313.0</ele>
        <time>2019-08-04T13:37:07.334Z</time>
      </trkpt>
      <trkpt lat="42.53366167" lon="1.58574833">
        <ele>1313.0</ele>
        <time>2019-08-04T13:37:08.297Z</time>
      </trkpt>
      <trkpt lat="42.53366167" lon="1.58574833">
        <ele>1313.0</ele>
        <time>2019-08-04T13:37:09.332Z</time>
      </trkpt>
      <trkpt lat="42.53370833" lon="1.58579">
        <ele>1314.0</ele>
        <time>2019-08-04T13:37:10.297Z</time>
      </trkpt>
      <trkpt lat="42.53370833" lon="1.58579">
        <ele>1314.0</ele>
        <time>2019-08-04T13:37:11.334Z</time>
      </trkpt>
      <trkpt lat="42.53375167" lon="1.58582667">
        <ele>1315.0</ele>
        <time>2019-08-04T13:37:12.332Z</time>
      </trkpt>
      <trkpt lat="42.53377333" lon="1.58584667">
        <ele>1315.0</ele>
        <time>2019-08-04T13:37:13.335Z</time>
      </trkpt>
      <trkpt lat="42.53377333" lon="1.58584667">
        <ele>1315.0</ele>
        <time>2019-08-04T13:37:14.334Z</time>
      </trkpt>
      <trkpt lat="42.533815" lon="1.58588167">
        <ele>1316.0</ele>
        <time>2019-08-04T13:37:15.335Z</time>
      </trkpt>
      <trkpt lat="42.53383333" lon="1.5859">
        <ele>1316.0</ele>
        <time>2019-08-04T13:37:16.296Z</time>
      </trkpt>
      <trkpt lat="42.53383333" lon="1.5859">
        <ele>1316.0</ele>
        <time>2019-08-04T13:37:17.331Z</time>
      </trkpt>
      <trkpt lat="42.53387" lon="1.58594333">
        <ele>1317.0</ele>
        <time>2019-08-04T13:37:18.335Z</time>
      </trkpt>
      <trkpt lat="42.53387" lon="1.58594333">
        <ele>1317.0</ele>
        <time>2019-08-04T13:37:19.333Z</time>
      </trkpt>
      <trkpt lat="42.5339" lon="1.58597667">
        <ele>1318.0</ele>
        <time>2019-08-04T13:37:20.305Z</time>
      </trkpt>
      <trkpt lat="42.5339" lon="1.58597667">
        <ele>1318.0</ele>
        <time>2019-08-04T13:37:21.333Z</time>
      </trkpt>
      <trkpt lat="42.53393667" lon="1.58601333">
        <ele>1319.0</ele>
        <time>2019-08-04T13:37:22.335Z</time>
      </trkpt>
      <trkpt lat="42.533955" lon="1.58603">
        <ele>1319.0</ele>
        <time>2019-08-04T13:37:23.296Z</time>
      </trkpt>
      <trkpt lat="42.533955" lon="1.58603">
        <ele>1319.0</ele>
        <time>2019-08-04T13:37:24.333Z</time>
      </trkpt>
      <trkpt lat="42.53399167" lon="1.58606667">
        <ele>1320.0</ele>
        <time>2019-08-04T13:37:25.335Z</time>
      </trkpt>
      <trkpt lat="42.53401" lon="1.58608667">
        <ele>1320.0</ele>
        <time>2019-08-04T13:37:26.296Z</time>
      </trkpt>
      <trkpt lat="42.53402667" lon="1.58610667">
        <ele>1320.0</ele>
        <time>2019-08-04T13:37:27.297Z</time>
      </trkpt>
      <trkpt lat="42.53404667" lon="1.58612667">
        <ele>1320.0</ele>
        <time>2019-08-04T13:37:28.296Z</time>
      </trkpt>
      <trkpt lat="42.53404667" lon="1.58612667">
        <ele>1320.0</ele>
        <time>2019-08-04T13:37:29.298Z</time>
      </trkpt>
      <trkpt lat="42.53408667" lon="1.58616833">
        <ele>1321.0</ele>
        <time>2019-08-04T13:37:30.312Z</time>
      </trkpt>
      <trkpt lat="42.53408667" lon="1.58616833">
        <ele>1321.0</ele>
        <time>2019-08-04T13:37:31.321Z</time>
      </trkpt>
      <trkpt lat="42.534125" lon="1.58621667">
        <ele>1321.0</ele>
        <time>2019-08-04T13:37:32.296Z</time>
      </trkpt>
      <trkpt lat="42.53414167" lon="1.58624333">
        <ele>1322.0</ele>
        <time>2019-08-04T13:37:33.296Z</time>
      </trkpt>
      <trkpt lat="42.53415833" lon="1.586275">
        <ele>1322.0</ele>
        <time>2019-08-04T13:37:34.301Z</time>
      </trkpt>
      <trkpt lat="42.53415833" lon="1.586275">
        <ele>1322.0</ele>
        <time>2019-08-04T13:37:35.334Z</time>
      </trkpt>
      <trkpt lat="42.53419" lon="1.58634667">
        <ele>1323.0</ele>
        <time>2019-08-04T13:37:36.296Z</time>
      </trkpt>
      <trkpt lat="42.53420667" lon="1.58638">
        <ele>1323.0</ele>
        <time>2019-08-04T13:37:37.296Z</time>
      </trkpt>
      <trkpt lat="42.53422333" lon="1.58641333">
        <ele>1323.0</ele>
        <time>2019-08-04T13:37:38.297Z</time>
      </trkpt>
      <trkpt lat="42.53422333" lon="1.58641333">
        <ele>1323.0</ele>
        <time>2019-08-04T13:37:39.334Z</time>
      </trkpt>
      <trkpt lat="42.53425333" lon="1.58647833">
        <ele>1323.0</ele>
        <time>2019-08-04T13:37:40.297Z</time>
      </trkpt>
      <trkpt lat="42.53425333" lon="1.58647833">
        <ele>1323.0</ele>
        <time>2019-08-04T13:37:41.333Z</time>
      </trkpt>
      <trkpt lat="42.53428" lon="1.586545">
        <ele>1324.0</ele>
        <time>2019-08-04T13:37:42.298Z</time>
      </trkpt>
      <trkpt lat="42.53429333" lon="1.58658">
        <ele>1324.0</ele>
        <time>2019-08-04T13:37:43.297Z</time>
      </trkpt>
      <trkpt lat="42.53430667" lon="1.58661333">
        <ele>1325.0</ele>
        <time>2019-08-04T13:37:44.307Z</time>
      </trkpt>
      <trkpt lat="42.53430667" lon="1.58661333">
        <ele>1325.0</ele>
        <time>2019-08-04T13:37:45.334Z</time>
      </trkpt>
      <trkpt lat="42.53433333" lon="1.58667333">
        <ele>1325.0</ele>
        <time>2019-08-04T13:37:46.296Z</time>
      </trkpt>
      <trkpt lat="42.53433333" lon="1.58667333">
        <ele>1325.0</ele>
        <time>2019-08-04T13:37:47.334Z</time>
      </trkpt>
      <trkpt lat="42.53436" lon="1.58672833">
        <ele>1325.0</ele>
        <time>2019-08-04T13:37:48.336Z</time>
      </trkpt>
      <trkpt lat="42.53437833" lon="1.586755">
        <ele>1325.0</ele>
        <time>2019-08-04T13:37:49.297Z</time>
      </trkpt>
      <trkpt lat="42.53437833" lon="1.586755">
        <ele>1325.0</ele>
        <time>2019-08-04T13:37:50.335Z</time>
      </trkpt>
      <trkpt lat="42.53440667" lon="1.58680667">
        <ele>1325.0</ele>
        <time>2019-08-04T13:37:51.296Z</time>
      </trkpt>
      <trkpt lat="42.53440667" lon="1.58680667">
        <ele>1325.0</ele>
        <time>2019-08-04T13:37:52.297Z</time>
      </trkpt>
      <trkpt lat="42.53443667" lon="1.58686333">
        <ele>1326.0</ele>
        <time>2019-08-04T13:37:53.296Z</time>
      </trkpt>
      <trkpt lat="42.53443667" lon="1.58686333">
        <ele>1326.0</ele>
        <time>2019-08-04T13:37:54.334Z</time>
      </trkpt>
      <trkpt lat="42.53446833" lon="1.58691667">
        <ele>1326.0</ele>
        <time>2019-08-04T13:37:55.296Z</time>
      </trkpt>
      <trkpt lat="42.534485" lon="1.58694333">
        <ele>1326.0</ele>
        <time>2019-08-04T13:37:56.297Z</time>
      </trkpt>
      <trkpt lat="42.534485" lon="1.58694333">
        <ele>1326.0</ele>
        <time>2019-08-04T13:37:57.331Z</time>
      </trkpt>
      <trkpt lat="42.53451833" lon="1.586995">
        <ele>1327.0</ele>
        <time>2019-08-04T13:37:58.297Z</time>
      </trkpt>
      <trkpt lat="42.53451833" lon="1.586995">
        <ele>1327.0</ele>
        <time>2019-08-04T13:37:59.334Z</time>
      </trkpt>
      <trkpt lat="42.53454167" lon="1.587045">
        <ele>1327.0</ele>
        <time>2019-08-04T13:38:00.297Z</time>
      </trkpt>
      <trkpt lat="42.53454167" lon="1.587045">
        <ele>1327.0</ele>
        <time>2019-08-04T13:38:01.333Z</time>
      </trkpt>
      <trkpt lat="42.53457" lon="1.58710167">
        <ele>1327.0</ele>
        <time>2019-08-04T13:38:02.300Z</time>
      </trkpt>
      <trkpt lat="42.53457" lon="1.58710167">
        <ele>1327.0</ele>
        <time>2019-08-04T13:38:03.334Z</time>
      </trkpt>
      <trkpt lat="42.53459667" lon="1.58716333">
        <ele>1327.0</ele>
        <time>2019-08-04T13:38:04.305Z</time>
      </trkpt>
      <trkpt lat="42.53459667" lon="1.58716333">
        <ele>1327.0</ele>
        <time>2019-08-04T13:38:05.333Z</time>
      </trkpt>
      <trkpt lat="42.53461833" lon="1.58722167">
        <ele>1327.0</ele>
        <time>2019-08-04T13:38:06.296Z</time>
      </trkpt>
      <trkpt lat="42.53461833" lon="1.58722167">
        <ele>1327.0</ele>
        <time>2019-08-04T13:38:07.332Z</time>
      </trkpt>
      <trkpt lat="42.53464833" lon="1.58727333">
        <ele>1328.0</ele>
        <time>2019-08-04T13:38:08.334Z</time>
      </trkpt>
      <trkpt lat="42.53464833" lon="1.58727333">
        <ele>1328.0</ele>
        <time>2019-08-04T13:38:09.329Z</time>
      </trkpt>
      <trkpt lat="42.534675" lon="1.58732667">
        <ele>1328.0</ele>
        <time>2019-08-04T13:38:10.296Z</time>
      </trkpt>
      <trkpt lat="42.534675" lon="1.58732667">
        <ele>1328.0</ele>
        <time>2019-08-04T13:38:11.333Z</time>
      </trkpt>
      <trkpt lat="42.53470167" lon="1.587375">
        <ele>1328.0</ele>
        <time>2019-08-04T13:38:12.301Z</time>
      </trkpt>
      <trkpt lat="42.53470167" lon="1.587375">
        <ele>1328.0</ele>
        <time>2019-08-04T13:38:13.333Z</time>
      </trkpt>
      <trkpt lat="42.53472833" lon="1.58741167">
        <ele>1328.0</ele>
        <time>2019-08-04T13:38:14.326Z</time>
      </trkpt>
      <trkpt lat="42.53472833" lon="1.58741167">
        <ele>1328.0</ele>
        <time>2019-08-04T13:38:15.333Z</time>
      </trkpt>
      <trkpt lat="42.53474667" lon="1.587435">
        <ele>1328.0</ele>
        <time>2019-08-04T13:38:16.297Z</time>
      </trkpt>
      <trkpt lat="42.53474667" lon="1.587435">
        <ele>1328.0</ele>
        <time>2019-08-04T13:38:17.335Z</time>
      </trkpt>
      <trkpt lat="42.53475" lon="1.58744">
        <ele>1328.0</ele>
        <time>2019-08-04T13:38:18.332Z</time>
      </trkpt>
      <trkpt lat="42.53474833" lon="1.58744667">
        <ele>1328.0</ele>
        <time>2019-08-04T13:38:19.334Z</time>
      </trkpt>
      <trkpt lat="42.53474833" lon="1.58744667">
        <ele>1328.0</ele>
        <time>2019-08-04T13:38:20.334Z</time>
      </trkpt>
      <trkpt lat="42.53474667" lon="1.58744333">
        <ele>1329.0</ele>
        <time>2019-08-04T13:38:21.335Z</time>
      </trkpt>
      <trkpt lat="42.53474667" lon="1.58744333">
        <ele>1329.0</ele>
        <time>2019-08-04T13:38:22.327Z</time>
      </trkpt>
      <trkpt lat="42.53474667" lon="1.58745">
        <ele>1333.0</ele>
        <time>2019-08-04T13:38:23.298Z</time>
      </trkpt>
      <trkpt lat="42.53474667" lon="1.58745">
        <ele>1333.0</ele>
        <time>2019-08-04T13:38:24.329Z</time>
      </trkpt>
      <trkpt lat="42.534755" lon="1.587445">
        <ele>1333.0</ele>
        <time>2019-08-04T13:38:25.319Z</time>
      </trkpt>
      <trkpt lat="42.534755" lon="1.587445">
        <ele>1333.0</ele>
        <time>2019-08-04T13:38:26.303Z</time>
      </trkpt>
      <trkpt lat="42.53476" lon="1.58744333">
        <ele>1334.0</ele>
        <time>2019-08-04T13:38:27.307Z</time>
      </trkpt>
      <trkpt lat="42.53476" lon="1.58744333">
        <ele>1334.0</ele>
        <time>2019-08-04T13:38:28.317Z</time>
      </trkpt>
      <trkpt lat="42.53478333" lon="1.58746167">
        <ele>1334.0</ele>
        <time>2019-08-04T13:38:29.329Z</time>
      </trkpt>
      <trkpt lat="42.534795" lon="1.58747833">
        <ele>1334.0</ele>
        <time>2019-08-04T13:38:30.308Z</time>
      </trkpt>
      <trkpt lat="42.53481167" lon="1.58750833">
        <ele>1334.0</ele>
        <time>2019-08-04T13:38:31.332Z</time>
      </trkpt>
      <trkpt lat="42.53481167" lon="1.58750833">
        <ele>1334.0</ele>
        <time>2019-08-04T13:38:32.317Z</time>
      </trkpt>
      <trkpt lat="42.534835" lon="1.58756333">
        <ele>1334.0</ele>
        <time>2019-08-04T13:38:33.321Z</time>
      </trkpt>
      <trkpt lat="42.534835" lon="1.58756333">
        <ele>1334.0</ele>
        <time>2019-08-04T13:38:34.298Z</time>
      </trkpt>
      <trkpt lat="42.53486167" lon="1.58761333">
        <ele>1334.0</ele>
        <time>2019-08-04T13:38:35.320Z</time>
      </trkpt>
      <trkpt lat="42.53486167" lon="1.58761333">
        <ele>1334.0</ele>
        <time>2019-08-04T13:38:36.317Z</time>
      </trkpt>
      <trkpt lat="42.5349" lon="1.58766">
        <ele>1334.0</ele>
        <time>2019-08-04T13:38:37.319Z</time>
      </trkpt>
      <trkpt lat="42.5349" lon="1.58766">
        <ele>1334.0</ele>
        <time>2019-08-04T13:38:38.314Z</time>
      </trkpt>
      <trkpt lat="42.53494167" lon="1.587715">
        <ele>1334.0</ele>
        <time>2019-08-04T13:38:39.335Z</time>
      </trkpt>
      <trkpt lat="42.53494167" lon="1.587715">
        <ele>1334.0</ele>
        <time>2019-08-04T13:38:40.317Z</time>
      </trkpt>
      <trkpt lat="42.53498333" lon="1.58776333">
        <ele>1334.0</ele>
        <time>2019-08-04T13:38:41.319Z</time>
      </trkpt>
      <trkpt lat="42.53498333" lon="1.58776333">
        <ele>1334.0</ele>
        <time>2019-08-04T13:38:42.316Z</time>
      </trkpt>
      <trkpt lat="42.53502167" lon="1.587815">
        <ele>1334.0</ele>
        <time>2019-08-04T13:38:43.318Z</time>
      </trkpt>
      <trkpt lat="42.53502167" lon="1.587815">
        <ele>1334.0</ele>
        <time>2019-08-04T13:38:44.342Z</time>
      </trkpt>
      <trkpt lat="42.53505667" lon="1.587875">
        <ele>1335.0</ele>
        <time>2019-08-04T13:38:45.319Z</time>
      </trkpt>
      <trkpt lat="42.53505667" lon="1.587875">
        <ele>1335.0</ele>
        <time>2019-08-04T13:38:46.315Z</time>
      </trkpt>
      <trkpt lat="42.53509" lon="1.58793833">
        <ele>1335.0</ele>
        <time>2019-08-04T13:38:47.318Z</time>
      </trkpt>
      <trkpt lat="42.53510667" lon="1.58796833">
        <ele>1335.0</ele>
        <time>2019-08-04T13:38:48.481Z</time>
      </trkpt>
      <trkpt lat="42.53510667" lon="1.58796833">
        <ele>1335.0</ele>
        <time>2019-08-04T13:38:49.314Z</time>
      </trkpt>
      <trkpt lat="42.53513333" lon="1.58802833">
        <ele>1335.0</ele>
        <time>2019-08-04T13:38:50.320Z</time>
      </trkpt>
      <trkpt lat="42.53513333" lon="1.58802833">
        <ele>1335.0</ele>
        <time>2019-08-04T13:38:51.328Z</time>
      </trkpt>
      <trkpt lat="42.53515167" lon="1.58809833">
        <ele>1335.0</ele>
        <time>2019-08-04T13:38:52.319Z</time>
      </trkpt>
      <trkpt lat="42.53515" lon="1.58814333">
        <ele>1336.0</ele>
        <time>2019-08-04T13:38:53.320Z</time>
      </trkpt>
      <trkpt lat="42.53515" lon="1.58814333">
        <ele>1336.0</ele>
        <time>2019-08-04T13:38:54.298Z</time>
      </trkpt>
      <trkpt lat="42.53513667" lon="1.58821333">
        <ele>1336.0</ele>
        <time>2019-08-04T13:38:55.319Z</time>
      </trkpt>
      <trkpt lat="42.53513667" lon="1.58821333">
        <ele>1336.0</ele>
        <time>2019-08-04T13:38:56.317Z</time>
      </trkpt>
      <trkpt lat="42.53510333" lon="1.588255">
        <ele>1336.0</ele>
        <time>2019-08-04T13:38:57.320Z</time>
      </trkpt>
      <trkpt lat="42.53510333" lon="1.588255">
        <ele>1336.0</ele>
        <time>2019-08-04T13:38:58.314Z</time>
      </trkpt>
      <trkpt lat="42.535065" lon="1.58827833">
        <ele>1337.0</ele>
        <time>2019-08-04T13:38:59.317Z</time>
      </trkpt>
      <trkpt lat="42.535065" lon="1.58827833">
        <ele>1337.0</ele>
        <time>2019-08-04T13:39:00.317Z</time>
      </trkpt>
      <trkpt lat="42.535025" lon="1.588285">
        <ele>1337.0</ele>
        <time>2019-08-04T13:39:01.318Z</time>
      </trkpt>
      <trkpt lat="42.53500833" lon="1.58827833">
        <ele>1337.0</ele>
        <time>2019-08-04T13:39:02.334Z</time>
      </trkpt>
      <trkpt lat="42.53500833" lon="1.58827833">
        <ele>1337.0</ele>
        <time>2019-08-04T13:39:03.316Z</time>
      </trkpt>
      <trkpt lat="42.53498167" lon="1.58824833">
        <ele>1338.0</ele>
        <time>2019-08-04T13:39:04.319Z</time>
      </trkpt>
      <trkpt lat="42.534965" lon="1.58822833">
        <ele>1338.0</ele>
        <time>2019-08-04T13:39:05.318Z</time>
      </trkpt>
      <trkpt lat="42.534965" lon="1.58822833">
        <ele>1338.0</ele>
        <time>2019-08-04T13:39:06.334Z</time>
      </trkpt>
      <trkpt lat="42.534925" lon="1.58819333">
        <ele>1338.0</ele>
        <time>2019-08-04T13:39:07.319Z</time>
      </trkpt>
      <trkpt lat="42.53490167" lon="1.588175">
        <ele>1339.0</ele>
        <time>2019-08-04T13:39:08.320Z</time>
      </trkpt>
      <trkpt lat="42.53490167" lon="1.588175">
        <ele>1339.0</ele>
        <time>2019-08-04T13:39:09.319Z</time>
      </trkpt>
      <trkpt lat="42.53485833" lon="1.58813333">
        <ele>1339.0</ele>
        <time>2019-08-04T13:39:10.320Z</time>
      </trkpt>
      <trkpt lat="42.53485833" lon="1.58813333">
        <ele>1339.0</ele>
        <time>2019-08-04T13:39:11.298Z</time>
      </trkpt>
      <trkpt lat="42.53481667" lon="1.58809667">
        <ele>1339.0</ele>
        <time>2019-08-04T13:39:12.329Z</time>
      </trkpt>
      <trkpt lat="42.53481667" lon="1.58809667">
        <ele>1339.0</ele>
        <time>2019-08-04T13:39:13.313Z</time>
      </trkpt>
      <trkpt lat="42.534765" lon="1.58808333">
        <ele>1340.0</ele>
        <time>2019-08-04T13:39:14.333Z</time>
      </trkpt>
      <trkpt lat="42.53474" lon="1.58808167">
        <ele>1340.0</ele>
        <time>2019-08-04T13:39:15.321Z</time>
      </trkpt>
      <trkpt lat="42.53474" lon="1.58808167">
        <ele>1340.0</ele>
        <time>2019-08-04T13:39:16.319Z</time>
      </trkpt>
      <trkpt lat="42.53469" lon="1.58808">
        <ele>1340.0</ele>
        <time>2019-08-04T13:39:17.316Z</time>
      </trkpt>
      <trkpt lat="42.53469" lon="1.58808">
        <ele>1340.0</ele>
        <time>2019-08-04T13:39:18.333Z</time>
      </trkpt>
      <trkpt lat="42.53464667" lon="1.58808167">
        <ele>1341.0</ele>
        <time>2019-08-04T13:39:19.327Z</time>
      </trkpt>
      <trkpt lat="42.534625" lon="1.58808333">
        <ele>1341.0</ele>
        <time>2019-08-04T13:39:20.320Z</time>
      </trkpt>
      <trkpt lat="42.534625" lon="1.58808333">
        <ele>1341.0</ele>
        <time>2019-08-04T13:39:21.298Z</time>
      </trkpt>
      <trkpt lat="42.534575" lon="1.58808167">
        <ele>1341.0</ele>
        <time>2019-08-04T13:39:22.327Z</time>
      </trkpt>
      <trkpt lat="42.534575" lon="1.58808167">
        <ele>1341.0</ele>
        <time>2019-08-04T13:39:23.317Z</time>
      </trkpt>
      <trkpt lat="42.53452833" lon="1.58807167">
        <ele>1342.0</ele>
        <time>2019-08-04T13:39:24.332Z</time>
      </trkpt>
      <trkpt lat="42.53450667" lon="1.58807">
        <ele>1342.0</ele>
        <time>2019-08-04T13:39:25.316Z</time>
      </trkpt>
      <trkpt lat="42.53450667" lon="1.58807">
        <ele>1342.0</ele>
        <time>2019-08-04T13:39:26.333Z</time>
      </trkpt>
      <trkpt lat="42.53445667" lon="1.58807">
        <ele>1343.0</ele>
        <time>2019-08-04T13:39:27.320Z</time>
      </trkpt>
      <trkpt lat="42.53445667" lon="1.58807">
        <ele>1343.0</ele>
        <time>2019-08-04T13:39:28.317Z</time>
      </trkpt>
      <trkpt lat="42.53440667" lon="1.588075">
        <ele>1343.0</ele>
        <time>2019-08-04T13:39:29.305Z</time>
      </trkpt>
      <trkpt lat="42.534385" lon="1.58808167">
        <ele>1343.0</ele>
        <time>2019-08-04T13:39:30.318Z</time>
      </trkpt>
      <trkpt lat="42.534385" lon="1.58808167">
        <ele>1343.0</ele>
        <time>2019-08-04T13:39:31.331Z</time>
      </trkpt>
      <trkpt lat="42.53434" lon="1.58809833">
        <ele>1344.0</ele>
        <time>2019-08-04T13:39:32.320Z</time>
      </trkpt>
      <trkpt lat="42.534315" lon="1.58810167">
        <ele>1344.0</ele>
        <time>2019-08-04T13:39:33.335Z</time>
      </trkpt>
      <trkpt lat="42.534315" lon="1.58810167">
        <ele>1344.0</ele>
        <time>2019-08-04T13:39:34.315Z</time>
      </trkpt>
      <trkpt lat="42.53426833" lon="1.58810667">
        <ele>1345.0</ele>
        <time>2019-08-04T13:39:35.317Z</time>
      </trkpt>
      <trkpt lat="42.53426833" lon="1.58810667">
        <ele>1345.0</ele>
        <time>2019-08-04T13:39:36.333Z</time>
      </trkpt>
      <trkpt lat="42.53422667" lon="1.5881">
        <ele>1346.0</ele>
        <time>2019-08-04T13:39:37.320Z</time>
      </trkpt>
      <trkpt lat="42.53422667" lon="1.5881">
        <ele>1346.0</ele>
        <time>2019-08-04T13:39:38.317Z</time>
      </trkpt>
      <trkpt lat="42.534185" lon="1.588085">
        <ele>1346.0</ele>
        <time>2019-08-04T13:39:39.300Z</time>
      </trkpt>
      <trkpt lat="42.534185" lon="1.588085">
        <ele>1346.0</ele>
        <time>2019-08-04T13:39:40.323Z</time>
      </trkpt>
      <trkpt lat="42.53413667" lon="1.58806667">
        <ele>1346.0</ele>
        <time>2019-08-04T13:39:41.312Z</time>
      </trkpt>
      <trkpt lat="42.53410667" lon="1.58805667">
        <ele>1346.0</ele>
        <time>2019-08-04T13:39:42.329Z</time>
      </trkpt>
      <trkpt lat="42.53410667" lon="1.58805667">
        <ele>1346.0</ele>
        <time>2019-08-04T13:39:43.317Z</time>
      </trkpt>
      <trkpt lat="42.534055" lon="1.588035">
        <ele>1346.0</ele>
        <time>2019-08-04T13:39:44.315Z</time>
      </trkpt>
      <trkpt lat="42.534035" lon="1.588025">
        <ele>1347.0</ele>
        <time>2019-08-04T13:39:45.331Z</time>
      </trkpt>
      <trkpt lat="42.534035" lon="1.588025">
        <ele>1347.0</ele>
        <time>2019-08-04T13:39:46.314Z</time>
      </trkpt>
      <trkpt lat="42.533995" lon="1.58799667">
        <ele>1348.0</ele>
        <time>2019-08-04T13:39:47.334Z</time>
      </trkpt>
      <trkpt lat="42.533995" lon="1.58799667">
        <ele>1348.0</ele>
        <time>2019-08-04T13:39:48.314Z</time>
      </trkpt>
      <trkpt lat="42.533995" lon="1.58799667">
        <ele>1348.0</ele>
        <time>2019-08-04T13:39:49.486Z</time>
      </trkpt>
      <trkpt lat="42.53395667" lon="1.58796333">
        <ele>1348.0</ele>
        <time>2019-08-04T13:39:50.317Z</time>
      </trkpt>
      <trkpt lat="42.53395667" lon="1.58796333">
        <ele>1348.0</ele>
        <time>2019-08-04T13:39:51.310Z</time>
      </trkpt>
      <trkpt lat="42.53389" lon="1.58792167">
        <ele>1349.0</ele>
        <time>2019-08-04T13:39:52.328Z</time>
      </trkpt>
      <trkpt lat="42.53387" lon="1.587905">
        <ele>1349.0</ele>
        <time>2019-08-04T13:39:53.317Z</time>
      </trkpt>
      <trkpt lat="42.53387" lon="1.587905">
        <ele>1349.0</ele>
        <time>2019-08-04T13:39:54.332Z</time>
      </trkpt>
      <trkpt lat="42.53383167" lon="1.58787333">
        <ele>1350.0</ele>
        <time>2019-08-04T13:39:55.317Z</time>
      </trkpt>
      <trkpt lat="42.53383167" lon="1.58787333">
        <ele>1350.0</ele>
        <time>2019-08-04T13:39:56.338Z</time>
      </trkpt>
      <trkpt lat="42.53378833" lon="1.58784">
        <ele>1351.0</ele>
        <time>2019-08-04T13:39:57.320Z</time>
      </trkpt>
      <trkpt lat="42.53378833" lon="1.58784">
        <ele>1351.0</ele>
        <time>2019-08-04T13:39:58.317Z</time>
      </trkpt>
      <trkpt lat="42.53375167" lon="1.58780333">
        <ele>1351.0</ele>
        <time>2019-08-04T13:39:59.299Z</time>
      </trkpt>
      <trkpt lat="42.53375167" lon="1.58780333">
        <ele>1351.0</ele>
        <time>2019-08-04T13:40:00.316Z</time>
      </trkpt>
      <trkpt lat="42.53371" lon="1.58777167">
        <ele>1352.0</ele>
        <time>2019-08-04T13:40:01.331Z</time>
      </trkpt>
      <trkpt lat="42.53371" lon="1.58777167">
        <ele>1352.0</ele>
        <time>2019-08-04T13:40:02.316Z</time>
      </trkpt>
      <trkpt lat="42.53366667" lon="1.58773667">
        <ele>1352.0</ele>
        <time>2019-08-04T13:40:03.320Z</time>
      </trkpt>
      <trkpt lat="42.53366667" lon="1.58773667">
        <ele>1352.0</ele>
        <time>2019-08-04T13:40:04.298Z</time>
      </trkpt>
      <trkpt lat="42.533625" lon="1.58770167">
        <ele>1353.0</ele>
        <time>2019-08-04T13:40:05.321Z</time>
      </trkpt>
      <trkpt lat="42.533625" lon="1.58770167">
        <ele>1353.0</ele>
        <time>2019-08-04T13:40:06.316Z</time>
      </trkpt>
      <trkpt lat="42.533585" lon="1.58765833">
        <ele>1354.0</ele>
        <time>2019-08-04T13:40:07.319Z</time>
      </trkpt>
      <trkpt lat="42.533585" lon="1.58765833">
        <ele>1354.0</ele>
        <time>2019-08-04T13:40:08.317Z</time>
      </trkpt>
      <trkpt lat="42.53354833" lon="1.58761333">
        <ele>1354.0</ele>
        <time>2019-08-04T13:40:09.333Z</time>
      </trkpt>
      <trkpt lat="42.53354833" lon="1.58761333">
        <ele>1354.0</ele>
        <time>2019-08-04T13:40:10.317Z</time>
      </trkpt>
      <trkpt lat="42.533515" lon="1.58757167">
        <ele>1355.0</ele>
        <time>2019-08-04T13:40:11.317Z</time>
      </trkpt>
      <trkpt lat="42.533515" lon="1.58757167">
        <ele>1355.0</ele>
        <time>2019-08-04T13:40:12.316Z</time>
      </trkpt>
      <trkpt lat="42.53348" lon="1.58753333">
        <ele>1356.0</ele>
        <time>2019-08-04T13:40:13.317Z</time>
      </trkpt>
      <trkpt lat="42.53348" lon="1.58753333">
        <ele>1356.0</ele>
        <time>2019-08-04T13:40:14.333Z</time>
      </trkpt>
      <trkpt lat="42.53344333" lon="1.587495">
        <ele>1356.0</ele>
        <time>2019-08-04T13:40:15.320Z</time>
      </trkpt>
      <trkpt lat="42.53344333" lon="1.587495">
        <ele>1356.0</ele>
        <time>2019-08-04T13:40:16.317Z</time>
      </trkpt>
      <trkpt lat="42.53340333" lon="1.58745833">
        <ele>1358.0</ele>
        <time>2019-08-04T13:40:17.319Z</time>
      </trkpt>
      <trkpt lat="42.53340333" lon="1.58745833">
        <ele>1358.0</ele>
        <time>2019-08-04T13:40:18.335Z</time>
      </trkpt>
      <trkpt lat="42.53340333" lon="1.58745833">
        <ele>1358.0</ele>
        <time>2019-08-04T13:40:19.320Z</time>
      </trkpt>
      <trkpt lat="42.53337" lon="1.58742167">
        <ele>1359.0</ele>
        <time>2019-08-04T13:40:20.317Z</time>
      </trkpt>
      <trkpt lat="42.533335" lon="1.58738667">
        <ele>1359.0</ele>
        <time>2019-08-04T13:40:21.326Z</time>
      </trkpt>
      <trkpt lat="42.533335" lon="1.58738667">
        <ele>1359.0</ele>
        <time>2019-08-04T13:40:22.317Z</time>
      </trkpt>
      <trkpt lat="42.5333" lon="1.58735167">
        <ele>1359.0</ele>
        <time>2019-08-04T13:40:23.317Z</time>
      </trkpt>
      <trkpt lat="42.5333" lon="1.58735167">
        <ele>1359.0</ele>
        <time>2019-08-04T13:40:24.333Z</time>
      </trkpt>
      <trkpt lat="42.53325833" lon="1.58732167">
        <ele>1361.0</ele>
        <time>2019-08-04T13:40:25.328Z</time>
      </trkpt>
      <trkpt lat="42.53325833" lon="1.58732167">
        <ele>1361.0</ele>
        <time>2019-08-04T13:40:26.317Z</time>
      </trkpt>
      <trkpt lat="42.53322333" lon="1.58728667">
        <ele>1361.0</ele>
        <time>2019-08-04T13:40:27.321Z</time>
      </trkpt>
      <trkpt lat="42.533205" lon="1.58726833">
        <ele>1362.0</ele>
        <time>2019-08-04T13:40:28.320Z</time>
      </trkpt>
      <trkpt lat="42.533205" lon="1.58726833">
        <ele>1362.0</ele>
        <time>2019-08-04T13:40:29.334Z</time>
      </trkpt>
      <trkpt lat="42.53316833" lon="1.58723833">
        <ele>1362.0</ele>
        <time>2019-08-04T13:40:30.318Z</time>
      </trkpt>
      <trkpt lat="42.53316833" lon="1.58723833">
        <ele>1362.0</ele>
        <time>2019-08-04T13:40:31.323Z</time>
      </trkpt>
      <trkpt lat="42.53313667" lon="1.58720667">
        <ele>1363.0</ele>
        <time>2019-08-04T13:40:32.320Z</time>
      </trkpt>
      <trkpt lat="42.53311833" lon="1.58718833">
        <ele>1363.0</ele>
        <time>2019-08-04T13:40:33.296Z</time>
      </trkpt>
      <trkpt lat="42.53311833" lon="1.58718833">
        <ele>1363.0</ele>
        <time>2019-08-04T13:40:34.317Z</time>
      </trkpt>
      <trkpt lat="42.533085" lon="1.58715667">
        <ele>1363.0</ele>
        <time>2019-08-04T13:40:35.320Z</time>
      </trkpt>
      <trkpt lat="42.53306833" lon="1.58714">
        <ele>1363.0</ele>
        <time>2019-08-04T13:40:36.322Z</time>
      </trkpt>
      <trkpt lat="42.53306833" lon="1.58714">
        <ele>1363.0</ele>
        <time>2019-08-04T13:40:37.319Z</time>
      </trkpt>
      <trkpt lat="42.53304" lon="1.587105">
        <ele>1364.0</ele>
        <time>2019-08-04T13:40:38.320Z</time>
      </trkpt>
      <trkpt lat="42.533025" lon="1.58708833">
        <ele>1364.0</ele>
        <time>2019-08-04T13:40:39.317Z</time>
      </trkpt>
      <trkpt lat="42.533025" lon="1.58708833">
        <ele>1364.0</ele>
        <time>2019-08-04T13:40:40.334Z</time>
      </trkpt>
      <trkpt lat="42.53299167" lon="1.58705667">
        <ele>1364.0</ele>
        <time>2019-08-04T13:40:41.318Z</time>
      </trkpt>
      <trkpt lat="42.53299167" lon="1.58705667">
        <ele>1364.0</ele>
        <time>2019-08-04T13:40:42.317Z</time>
      </trkpt>
      <trkpt lat="42.53296167" lon="1.587025">
        <ele>1365.0</ele>
        <time>2019-08-04T13:40:43.320Z</time>
      </trkpt>
      <trkpt lat="42.53296167" lon="1.587025">
        <ele>1365.0</ele>
        <time>2019-08-04T13:40:44.314Z</time>
      </trkpt>
      <trkpt lat="42.532925" lon="1.58699833">
        <ele>1365.0</ele>
        <time>2019-08-04T13:40:45.321Z</time>
      </trkpt>
      <trkpt lat="42.532925" lon="1.58699833">
        <ele>1365.0</ele>
        <time>2019-08-04T13:40:46.314Z</time>
      </trkpt>
      <trkpt lat="42.532925" lon="1.58699833">
        <ele>1365.0</ele>
        <time>2019-08-04T13:40:47.477Z</time>
      </trkpt>
      <trkpt lat="42.53288833" lon="1.58697167">
        <ele>1366.0</ele>
        <time>2019-08-04T13:40:48.317Z</time>
      </trkpt>
      <trkpt lat="42.53286" lon="1.58694667">
        <ele>1366.0</ele>
        <time>2019-08-04T13:40:49.299Z</time>
      </trkpt>
      <trkpt lat="42.53286" lon="1.58694667">
        <ele>1366.0</ele>
        <time>2019-08-04T13:40:50.321Z</time>
      </trkpt>
      <trkpt lat="42.53282667" lon="1.58692333">
        <ele>1367.0</ele>
        <time>2019-08-04T13:40:51.335Z</time>
      </trkpt>
      <trkpt lat="42.53282667" lon="1.58692333">
        <ele>1367.0</ele>
        <time>2019-08-04T13:40:52.317Z</time>
      </trkpt>
      <trkpt lat="42.53279" lon="1.58689833">
        <ele>1368.0</ele>
        <time>2019-08-04T13:40:53.317Z</time>
      </trkpt>
      <trkpt lat="42.53279" lon="1.58689833">
        <ele>1368.0</ele>
        <time>2019-08-04T13:40:54.301Z</time>
      </trkpt>
      <trkpt lat="42.532735" lon="1.586885">
        <ele>1369.0</ele>
        <time>2019-08-04T13:40:55.328Z</time>
      </trkpt>
      <trkpt lat="42.532735" lon="1.586885">
        <ele>1369.0</ele>
        <time>2019-08-04T13:40:56.315Z</time>
      </trkpt>
      <trkpt lat="42.532695" lon="1.58687333">
        <ele>1370.0</ele>
        <time>2019-08-04T13:40:57.296Z</time>
      </trkpt>
      <trkpt lat="42.532695" lon="1.58687333">
        <ele>1370.0</ele>
        <time>2019-08-04T13:40:58.318Z</time>
      </trkpt>
      <trkpt lat="42.53265167" lon="1.58686833">
        <ele>1370.0</ele>
        <time>2019-08-04T13:40:59.317Z</time>
      </trkpt>
      <trkpt lat="42.53265167" lon="1.58686833">
        <ele>1370.0</ele>
        <time>2019-08-04T13:41:00.296Z</time>
      </trkpt>
      <trkpt lat="42.53260333" lon="1.58686333">
        <ele>1371.0</ele>
        <time>2019-08-04T13:41:01.331Z</time>
      </trkpt>
      <trkpt lat="42.53260333" lon="1.58686333">
        <ele>1371.0</ele>
        <time>2019-08-04T13:41:02.316Z</time>
      </trkpt>
      <trkpt lat="42.53256333" lon="1.58686">
        <ele>1372.0</ele>
        <time>2019-08-04T13:41:03.320Z</time>
      </trkpt>
      <trkpt lat="42.53256333" lon="1.58686">
        <ele>1372.0</ele>
        <time>2019-08-04T13:41:04.317Z</time>
      </trkpt>
      <trkpt lat="42.532525" lon="1.58685667">
        <ele>1372.0</ele>
        <time>2019-08-04T13:41:05.319Z</time>
      </trkpt>
      <trkpt lat="42.532525" lon="1.58685667">
        <ele>1372.0</ele>
        <time>2019-08-04T13:41:06.317Z</time>
      </trkpt>
      <trkpt lat="42.53248833" lon="1.58685667">
        <ele>1373.0</ele>
        <time>2019-08-04T13:41:07.319Z</time>
      </trkpt>
      <trkpt lat="42.53248833" lon="1.58685667">
        <ele>1373.0</ele>
        <time>2019-08-04T13:41:08.317Z</time>
      </trkpt>
      <trkpt lat="42.53245333" lon="1.58685667">
        <ele>1373.0</ele>
        <time>2019-08-04T13:41:09.321Z</time>
      </trkpt>
      <trkpt lat="42.53243667" lon="1.58685167">
        <ele>1373.0</ele>
        <time>2019-08-04T13:41:10.320Z</time>
      </trkpt>
      <trkpt lat="42.53243667" lon="1.58685167">
        <ele>1373.0</ele>
        <time>2019-08-04T13:41:11.315Z</time>
      </trkpt>
      <trkpt lat="42.53239333" lon="1.586845">
        <ele>1374.0</ele>
        <time>2019-08-04T13:41:12.296Z</time>
      </trkpt>
      <trkpt lat="42.53237667" lon="1.58683833">
        <ele>1374.0</ele>
        <time>2019-08-04T13:41:13.320Z</time>
      </trkpt>
      <trkpt lat="42.53237667" lon="1.58683833">
        <ele>1374.0</ele>
        <time>2019-08-04T13:41:14.299Z</time>
      </trkpt>
      <trkpt lat="42.53233833" lon="1.58682333">
        <ele>1374.0</ele>
        <time>2019-08-04T13:41:15.321Z</time>
      </trkpt>
      <trkpt lat="42.53233833" lon="1.58682333">
        <ele>1374.0</ele>
        <time>2019-08-04T13:41:16.317Z</time>
      </trkpt>
      <trkpt lat="42.53231167" lon="1.58680167">
        <ele>1375.0</ele>
        <time>2019-08-04T13:41:17.320Z</time>
      </trkpt>
      <trkpt lat="42.53231167" lon="1.58680167">
        <ele>1375.0</ele>
        <time>2019-08-04T13:41:18.314Z</time>
      </trkpt>
      <trkpt lat="42.53231167" lon="1.58680167">
        <ele>1375.0</ele>
        <time>2019-08-04T13:41:19.320Z</time>
      </trkpt>
      <trkpt lat="42.53226" lon="1.58677333">
        <ele>1375.0</ele>
        <time>2019-08-04T13:41:20.320Z</time>
      </trkpt>
      <trkpt lat="42.53226" lon="1.58677333">
        <ele>1375.0</ele>
        <time>2019-08-04T13:41:21.300Z</time>
      </trkpt>
      <trkpt lat="42.53223833" lon="1.586765">
        <ele>1375.0</ele>
        <time>2019-08-04T13:41:22.311Z</time>
      </trkpt>
      <trkpt lat="42.53221" lon="1.58673667">
        <ele>1376.0</ele>
        <time>2019-08-04T13:41:23.328Z</time>
      </trkpt>
      <trkpt lat="42.53221" lon="1.58673667">
        <ele>1376.0</ele>
        <time>2019-08-04T13:41:24.317Z</time>
      </trkpt>
      <trkpt lat="42.532175" lon="1.58670667">
        <ele>1376.0</ele>
        <time>2019-08-04T13:41:25.333Z</time>
      </trkpt>
      <trkpt lat="42.532175" lon="1.58670667">
        <ele>1376.0</ele>
        <time>2019-08-04T13:41:26.316Z</time>
      </trkpt>
      <trkpt lat="42.53214" lon="1.58667167">
        <ele>1376.0</ele>
        <time>2019-08-04T13:41:27.296Z</time>
      </trkpt>
      <trkpt lat="42.53214" lon="1.58667167">
        <ele>1376.0</ele>
        <time>2019-08-04T13:41:28.312Z</time>
      </trkpt>
      <trkpt lat="42.53212333" lon="1.58662833">
        <ele>1376.0</ele>
        <time>2019-08-04T13:41:29.302Z</time>
      </trkpt>
      <trkpt lat="42.53211667" lon="1.58660333">
        <ele>1377.0</ele>
        <time>2019-08-04T13:41:30.322Z</time>
      </trkpt>
      <trkpt lat="42.53210833" lon="1.58658">
        <ele>1377.0</ele>
        <time>2019-08-04T13:41:31.327Z</time>
      </trkpt>
      <trkpt lat="42.53210833" lon="1.58658">
        <ele>1377.0</ele>
        <time>2019-08-04T13:41:32.316Z</time>
      </trkpt>
      <trkpt lat="42.53208333" lon="1.58654333">
        <ele>1377.0</ele>
        <time>2019-08-04T13:41:33.321Z</time>
      </trkpt>
      <trkpt lat="42.53208333" lon="1.58654333">
        <ele>1377.0</ele>
        <time>2019-08-04T13:41:34.299Z</time>
      </trkpt>
      <trkpt lat="42.53205167" lon="1.586515">
        <ele>1377.0</ele>
        <time>2019-08-04T13:41:35.322Z</time>
      </trkpt>
      <trkpt lat="42.53205167" lon="1.586515">
        <ele>1377.0</ele>
        <time>2019-08-04T13:41:36.317Z</time>
      </trkpt>
      <trkpt lat="42.53202" lon="1.58648667">
        <ele>1378.0</ele>
        <time>2019-08-04T13:41:37.320Z</time>
      </trkpt>
      <trkpt lat="42.53202" lon="1.58648667">
        <ele>1378.0</ele>
        <time>2019-08-04T13:41:38.317Z</time>
      </trkpt>
      <trkpt lat="42.53198167" lon="1.58647167">
        <ele>1378.0</ele>
        <time>2019-08-04T13:41:39.299Z</time>
      </trkpt>
      <trkpt lat="42.53198167" lon="1.58647167">
        <ele>1378.0</ele>
        <time>2019-08-04T13:41:40.321Z</time>
      </trkpt>
      <trkpt lat="42.53194333" lon="1.58647333">
        <ele>1379.0</ele>
        <time>2019-08-04T13:41:41.320Z</time>
      </trkpt>
      <trkpt lat="42.531925" lon="1.58647667">
        <ele>1378.0</ele>
        <time>2019-08-04T13:41:42.320Z</time>
      </trkpt>
      <trkpt lat="42.531925" lon="1.58647667">
        <ele>1378.0</ele>
        <time>2019-08-04T13:41:43.318Z</time>
      </trkpt>
      <trkpt lat="42.531895" lon="1.58650167">
        <ele>1379.0</ele>
        <time>2019-08-04T13:41:44.319Z</time>
      </trkpt>
      <trkpt lat="42.53188" lon="1.58652167">
        <ele>1378.0</ele>
        <time>2019-08-04T13:41:45.322Z</time>
      </trkpt>
      <trkpt lat="42.53188" lon="1.58652167">
        <ele>1378.0</ele>
        <time>2019-08-04T13:41:46.318Z</time>
      </trkpt>
      <trkpt lat="42.53188" lon="1.58652167">
        <ele>1378.0</ele>
        <time>2019-08-04T13:41:47.488Z</time>
      </trkpt>
      <trkpt lat="42.53185833" lon="1.58656833">
        <ele>1378.0</ele>
        <time>2019-08-04T13:41:48.319Z</time>
      </trkpt>
      <trkpt lat="42.53184" lon="1.586625">
        <ele>1378.0</ele>
        <time>2019-08-04T13:41:49.322Z</time>
      </trkpt>
      <trkpt lat="42.53184" lon="1.586625">
        <ele>1378.0</ele>
        <time>2019-08-04T13:41:50.318Z</time>
      </trkpt>
      <trkpt lat="42.53184833" lon="1.58667167">
        <ele>1379.0</ele>
        <time>2019-08-04T13:41:51.327Z</time>
      </trkpt>
      <trkpt lat="42.53184833" lon="1.58667167">
        <ele>1379.0</ele>
        <time>2019-08-04T13:41:52.318Z</time>
      </trkpt>
      <trkpt lat="42.53185833" lon="1.58672333">
        <ele>1379.0</ele>
        <time>2019-08-04T13:41:53.317Z</time>
      </trkpt>
      <trkpt lat="42.53185833" lon="1.58672333">
        <ele>1379.0</ele>
        <time>2019-08-04T13:41:54.334Z</time>
      </trkpt>
      <trkpt lat="42.53186833" lon="1.586765">
        <ele>1379.0</ele>
        <time>2019-08-04T13:41:55.319Z</time>
      </trkpt>
      <trkpt lat="42.53186833" lon="1.586765">
        <ele>1379.0</ele>
        <time>2019-08-04T13:41:56.335Z</time>
      </trkpt>
      <trkpt lat="42.53189" lon="1.58680167">
        <ele>1379.0</ele>
        <time>2019-08-04T13:41:57.321Z</time>
      </trkpt>
      <trkpt lat="42.53189" lon="1.58680167">
        <ele>1379.0</ele>
        <time>2019-08-04T13:41:58.312Z</time>
      </trkpt>
      <trkpt lat="42.53191667" lon="1.58683333">
        <ele>1379.0</ele>
        <time>2019-08-04T13:41:59.333Z</time>
      </trkpt>
      <trkpt lat="42.53193333" lon="1.58684667">
        <ele>1379.0</ele>
        <time>2019-08-04T13:42:00.320Z</time>
      </trkpt>
      <trkpt lat="42.53195" lon="1.58686">
        <ele>1379.0</ele>
        <time>2019-08-04T13:42:01.320Z</time>
      </trkpt>
      <trkpt lat="42.53195" lon="1.58686">
        <ele>1379.0</ele>
        <time>2019-08-04T13:42:02.315Z</time>
      </trkpt>
      <trkpt lat="42.53198167" lon="1.58689">
        <ele>1380.0</ele>
        <time>2019-08-04T13:42:03.296Z</time>
      </trkpt>
      <trkpt lat="42.53198167" lon="1.58689">
        <ele>1380.0</ele>
        <time>2019-08-04T13:42:04.317Z</time>
      </trkpt>
      <trkpt lat="42.53201" lon="1.586925">
        <ele>1380.0</ele>
        <time>2019-08-04T13:42:05.317Z</time>
      </trkpt>
      <trkpt lat="42.53201" lon="1.586925">
        <ele>1380.0</ele>
        <time>2019-08-04T13:42:06.333Z</time>
      </trkpt>
      <trkpt lat="42.53204167" lon="1.58695167">
        <ele>1380.0</ele>
        <time>2019-08-04T13:42:07.319Z</time>
      </trkpt>
      <trkpt lat="42.53205667" lon="1.58696">
        <ele>1381.0</ele>
        <time>2019-08-04T13:42:08.319Z</time>
      </trkpt>
      <trkpt lat="42.53207333" lon="1.586975">
        <ele>1381.0</ele>
        <time>2019-08-04T13:42:09.335Z</time>
      </trkpt>
      <trkpt lat="42.53207333" lon="1.586975">
        <ele>1381.0</ele>
        <time>2019-08-04T13:42:10.317Z</time>
      </trkpt>
      <trkpt lat="42.53210667" lon="1.58699667">
        <ele>1382.0</ele>
        <time>2019-08-04T13:42:11.331Z</time>
      </trkpt>
      <trkpt lat="42.53210667" lon="1.58699667">
        <ele>1382.0</ele>
        <time>2019-08-04T13:42:12.315Z</time>
      </trkpt>
      <trkpt lat="42.53213667" lon="1.58702833">
        <ele>1383.0</ele>
        <time>2019-08-04T13:42:13.319Z</time>
      </trkpt>
      <trkpt lat="42.53213667" lon="1.58702833">
        <ele>1383.0</ele>
        <time>2019-08-04T13:42:14.334Z</time>
      </trkpt>
      <trkpt lat="42.53216333" lon="1.587065">
        <ele>1383.0</ele>
        <time>2019-08-04T13:42:15.329Z</time>
      </trkpt>
      <trkpt lat="42.53216333" lon="1.587065">
        <ele>1383.0</ele>
        <time>2019-08-04T13:42:16.320Z</time>
      </trkpt>
      <trkpt lat="42.53218667" lon="1.58710833">
        <ele>1384.0</ele>
        <time>2019-08-04T13:42:17.320Z</time>
      </trkpt>
      <trkpt lat="42.53218667" lon="1.58710833">
        <ele>1384.0</ele>
        <time>2019-08-04T13:42:18.318Z</time>
      </trkpt>
      <trkpt lat="42.53221333" lon="1.587135">
        <ele>1384.0</ele>
        <time>2019-08-04T13:42:19.320Z</time>
      </trkpt>
      <trkpt lat="42.53221333" lon="1.587135">
        <ele>1384.0</ele>
        <time>2019-08-04T13:42:20.317Z</time>
      </trkpt>
      <trkpt lat="42.53224167" lon="1.58716">
        <ele>1384.0</ele>
        <time>2019-08-04T13:42:21.332Z</time>
      </trkpt>
      <trkpt lat="42.53224167" lon="1.58716">
        <ele>1384.0</ele>
        <time>2019-08-04T13:42:22.318Z</time>
      </trkpt>
      <trkpt lat="42.53227167" lon="1.587185">
        <ele>1385.0</ele>
        <time>2019-08-04T13:42:23.317Z</time>
      </trkpt>
      <trkpt lat="42.53227167" lon="1.587185">
        <ele>1385.0</ele>
        <time>2019-08-04T13:42:24.334Z</time>
      </trkpt>
      <trkpt lat="42.532295" lon="1.587215">
        <ele>1385.0</ele>
        <time>2019-08-04T13:42:25.320Z</time>
      </trkpt>
      <trkpt lat="42.532295" lon="1.587215">
        <ele>1385.0</ele>
        <time>2019-08-04T13:42:26.317Z</time>
      </trkpt>
      <trkpt lat="42.532315" lon="1.58725333">
        <ele>1385.0</ele>
        <time>2019-08-04T13:42:27.297Z</time>
      </trkpt>
      <trkpt lat="42.532315" lon="1.58725333">
        <ele>1385.0</ele>
        <time>2019-08-04T13:42:28.318Z</time>
      </trkpt>
      <trkpt lat="42.53233167" lon="1.587285">
        <ele>1386.0</ele>
        <time>2019-08-04T13:42:29.333Z</time>
      </trkpt>
      <trkpt lat="42.53233333" lon="1.58730833">
        <ele>1386.0</ele>
        <time>2019-08-04T13:42:30.331Z</time>
      </trkpt>
      <trkpt lat="42.53233833" lon="1.58733">
        <ele>1386.0</ele>
        <time>2019-08-04T13:42:31.333Z</time>
      </trkpt>
      <trkpt lat="42.53233833" lon="1.58733">
        <ele>1386.0</ele>
        <time>2019-08-04T13:42:32.318Z</time>
      </trkpt>
      <trkpt lat="42.53234833" lon="1.58737667">
        <ele>1386.0</ele>
        <time>2019-08-04T13:42:33.322Z</time>
      </trkpt>
      <trkpt lat="42.53235333" lon="1.5874">
        <ele>1386.0</ele>
        <time>2019-08-04T13:42:34.335Z</time>
      </trkpt>
      <trkpt lat="42.53235333" lon="1.5874">
        <ele>1386.0</ele>
        <time>2019-08-04T13:42:35.314Z</time>
      </trkpt>
      <trkpt lat="42.53235167" lon="1.58744833">
        <ele>1387.0</ele>
        <time>2019-08-04T13:42:36.335Z</time>
      </trkpt>
      <trkpt lat="42.53235167" lon="1.58744833">
        <ele>1387.0</ele>
        <time>2019-08-04T13:42:37.317Z</time>
      </trkpt>
      <trkpt lat="42.53234833" lon="1.58750333">
        <ele>1387.0</ele>
        <time>2019-08-04T13:42:38.320Z</time>
      </trkpt>
      <trkpt lat="42.532345" lon="1.587525">
        <ele>1387.0</ele>
        <time>2019-08-04T13:42:39.321Z</time>
      </trkpt>
      <trkpt lat="42.532345" lon="1.587525">
        <ele>1387.0</ele>
        <time>2019-08-04T13:42:40.318Z</time>
      </trkpt>
      <trkpt lat="42.53233333" lon="1.58756667">
        <ele>1388.0</ele>
        <time>2019-08-04T13:42:41.326Z</time>
      </trkpt>
      <trkpt lat="42.53233333" lon="1.58756667">
        <ele>1388.0</ele>
        <time>2019-08-04T13:42:42.315Z</time>
      </trkpt>
      <trkpt lat="42.53232167" lon="1.58761667">
        <ele>1388.0</ele>
        <time>2019-08-04T13:42:43.299Z</time>
      </trkpt>
      <trkpt lat="42.53231833" lon="1.58763833">
        <ele>1388.0</ele>
        <time>2019-08-04T13:42:44.320Z</time>
      </trkpt>
      <trkpt lat="42.53232333" lon="1.58768167">
        <ele>1389.0</ele>
        <time>2019-08-04T13:42:45.323Z</time>
      </trkpt>
      <trkpt lat="42.53232333" lon="1.58768167">
        <ele>1389.0</ele>
        <time>2019-08-04T13:42:46.318Z</time>
      </trkpt>
      <trkpt lat="42.53232333" lon="1.58772833">
        <ele>1389.0</ele>
        <time>2019-08-04T13:42:47.320Z</time>
      </trkpt>
      <trkpt lat="42.53232333" lon="1.58772833">
        <ele>1389.0</ele>
        <time>2019-08-04T13:42:48.335Z</time>
      </trkpt>
      <trkpt lat="42.53232" lon="1.58776833">
        <ele>1389.0</ele>
        <time>2019-08-04T13:42:49.320Z</time>
      </trkpt>
      <trkpt lat="42.53232167" lon="1.58779">
        <ele>1390.0</ele>
        <time>2019-08-04T13:42:50.320Z</time>
      </trkpt>
      <trkpt lat="42.53232167" lon="1.58779">
        <ele>1390.0</ele>
        <time>2019-08-04T13:42:51.335Z</time>
      </trkpt>
      <trkpt lat="42.53232167" lon="1.587835">
        <ele>1390.0</ele>
        <time>2019-08-04T13:42:52.320Z</time>
      </trkpt>
      <trkpt lat="42.53232167" lon="1.587835">
        <ele>1390.0</ele>
        <time>2019-08-04T13:42:53.296Z</time>
      </trkpt>
      <trkpt lat="42.53230833" lon="1.58788833">
        <ele>1390.0</ele>
        <time>2019-08-04T13:42:54.321Z</time>
      </trkpt>
      <trkpt lat="42.53230333" lon="1.58791667">
        <ele>1391.0</ele>
        <time>2019-08-04T13:42:55.320Z</time>
      </trkpt>
      <trkpt lat="42.53230333" lon="1.58791667">
        <ele>1391.0</ele>
        <time>2019-08-04T13:42:56.336Z</time>
      </trkpt>
      <trkpt lat="42.5323" lon="1.58794833">
        <ele>1391.0</ele>
        <time>2019-08-04T13:42:57.321Z</time>
      </trkpt>
      <trkpt lat="42.5323" lon="1.58794833">
        <ele>1391.0</ele>
        <time>2019-08-04T13:42:58.315Z</time>
      </trkpt>
      <trkpt lat="42.53229333" lon="1.58798333">
        <ele>1391.0</ele>
        <time>2019-08-04T13:42:59.320Z</time>
      </trkpt>
      <trkpt lat="42.53229333" lon="1.58798333">
        <ele>1391.0</ele>
        <time>2019-08-04T13:43:00.318Z</time>
      </trkpt>
      <trkpt lat="42.53229167" lon="1.58801833">
        <ele>1392.0</ele>
        <time>2019-08-04T13:43:01.320Z</time>
      </trkpt>
      <trkpt lat="42.53229167" lon="1.58801833">
        <ele>1392.0</ele>
        <time>2019-08-04T13:43:02.318Z</time>
      </trkpt>
      <trkpt lat="42.53230167" lon="1.58805833">
        <ele>1392.0</ele>
        <time>2019-08-04T13:43:03.299Z</time>
      </trkpt>
      <trkpt lat="42.53229667" lon="1.58808167">
        <ele>1392.0</ele>
        <time>2019-08-04T13:43:04.319Z</time>
      </trkpt>
      <trkpt lat="42.53229333" lon="1.58810333">
        <ele>1392.0</ele>
        <time>2019-08-04T13:43:05.335Z</time>
      </trkpt>
      <trkpt lat="42.53229333" lon="1.58810333">
        <ele>1392.0</ele>
        <time>2019-08-04T13:43:06.318Z</time>
      </trkpt>
      <trkpt lat="42.5323" lon="1.58816667">
        <ele>1393.0</ele>
        <time>2019-08-04T13:43:07.317Z</time>
      </trkpt>
      <trkpt lat="42.53229833" lon="1.588195">
        <ele>1393.0</ele>
        <time>2019-08-04T13:43:08.333Z</time>
      </trkpt>
      <trkpt lat="42.53229833" lon="1.588195">
        <ele>1393.0</ele>
        <time>2019-08-04T13:43:09.318Z</time>
      </trkpt>
      <trkpt lat="42.532295" lon="1.58823833">
        <ele>1393.0</ele>
        <time>2019-08-04T13:43:10.320Z</time>
      </trkpt>
      <trkpt lat="42.53229667" lon="1.58826167">
        <ele>1393.0</ele>
        <time>2019-08-04T13:43:11.359Z</time>
      </trkpt>
      <trkpt lat="42.53229667" lon="1.58826167">
        <ele>1393.0</ele>
        <time>2019-08-04T13:43:12.315Z</time>
      </trkpt>
      <trkpt lat="42.53229333" lon="1.58831">
        <ele>1393.0</ele>
        <time>2019-08-04T13:43:13.335Z</time>
      </trkpt>
      <trkpt lat="42.53229333" lon="1.58833167">
        <ele>1393.0</ele>
        <time>2019-08-04T13:43:14.319Z</time>
      </trkpt>
      <trkpt lat="42.53229" lon="1.58835833">
        <ele>1393.0</ele>
        <time>2019-08-04T13:43:15.334Z</time>
      </trkpt>
      <trkpt lat="42.53229" lon="1.58835833">
        <ele>1393.0</ele>
        <time>2019-08-04T13:43:16.316Z</time>
      </trkpt>
      <trkpt lat="42.53229" lon="1.58835833">
        <ele>1393.0</ele>
        <time>2019-08-04T13:43:17.490Z</time>
      </trkpt>
      <trkpt lat="42.53229667" lon="1.588405">
        <ele>1393.0</ele>
        <time>2019-08-04T13:43:18.326Z</time>
      </trkpt>
      <trkpt lat="42.53231167" lon="1.58845">
        <ele>1393.0</ele>
        <time>2019-08-04T13:43:19.319Z</time>
      </trkpt>
      <trkpt lat="42.53231667" lon="1.58847333">
        <ele>1393.0</ele>
        <time>2019-08-04T13:43:20.321Z</time>
      </trkpt>
      <trkpt lat="42.53232" lon="1.58849833">
        <ele>1393.0</ele>
        <time>2019-08-04T13:43:21.331Z</time>
      </trkpt>
      <trkpt lat="42.532325" lon="1.58852">
        <ele>1393.0</ele>
        <time>2019-08-04T13:43:22.322Z</time>
      </trkpt>
      <trkpt lat="42.532325" lon="1.58852">
        <ele>1393.0</ele>
        <time>2019-08-04T13:43:23.299Z</time>
      </trkpt>
      <trkpt lat="42.53233333" lon="1.58856833">
        <ele>1393.0</ele>
        <time>2019-08-04T13:43:24.324Z</time>
      </trkpt>
      <trkpt lat="42.53233333" lon="1.58856833">
        <ele>1393.0</ele>
        <time>2019-08-04T13:43:25.318Z</time>
      </trkpt>
      <trkpt lat="42.53234667" lon="1.588615">
        <ele>1394.0</ele>
        <time>2019-08-04T13:43:26.321Z</time>
      </trkpt>
      <trkpt lat="42.53236" lon="1.588635">
        <ele>1394.0</ele>
        <time>2019-08-04T13:43:27.321Z</time>
      </trkpt>
      <trkpt lat="42.53236" lon="1.588635">
        <ele>1394.0</ele>
        <time>2019-08-04T13:43:28.318Z</time>
      </trkpt>
      <trkpt lat="42.53238333" lon="1.588675">
        <ele>1395.0</ele>
        <time>2019-08-04T13:43:29.322Z</time>
      </trkpt>
      <trkpt lat="42.53238333" lon="1.588675">
        <ele>1395.0</ele>
        <time>2019-08-04T13:43:30.296Z</time>
      </trkpt>
      <trkpt lat="42.532405" lon="1.58871333">
        <ele>1395.0</ele>
        <time>2019-08-04T13:43:31.302Z</time>
      </trkpt>
      <trkpt lat="42.53241833" lon="1.58872833">
        <ele>1395.0</ele>
        <time>2019-08-04T13:43:32.321Z</time>
      </trkpt>
      <trkpt lat="42.53243" lon="1.588745">
        <ele>1395.0</ele>
        <time>2019-08-04T13:43:33.296Z</time>
      </trkpt>
      <trkpt lat="42.53243" lon="1.588745">
        <ele>1395.0</ele>
        <time>2019-08-04T13:43:34.323Z</time>
      </trkpt>
      <trkpt lat="42.53245833" lon="1.58877667">
        <ele>1395.0</ele>
        <time>2019-08-04T13:43:35.321Z</time>
      </trkpt>
      <trkpt lat="42.53245833" lon="1.58877667">
        <ele>1395.0</ele>
        <time>2019-08-04T13:43:36.316Z</time>
      </trkpt>
      <trkpt lat="42.53248667" lon="1.58881167">
        <ele>1395.0</ele>
        <time>2019-08-04T13:43:37.320Z</time>
      </trkpt>
      <trkpt lat="42.53248667" lon="1.58881167">
        <ele>1395.0</ele>
        <time>2019-08-04T13:43:38.296Z</time>
      </trkpt>
      <trkpt lat="42.53251667" lon="1.588845">
        <ele>1396.0</ele>
        <time>2019-08-04T13:43:39.322Z</time>
      </trkpt>
      <trkpt lat="42.53251667" lon="1.588845">
        <ele>1396.0</ele>
        <time>2019-08-04T13:43:40.315Z</time>
      </trkpt>
      <trkpt lat="42.53251667" lon="1.588845">
        <ele>1396.0</ele>
        <time>2019-08-04T13:43:41.300Z</time>
      </trkpt>
      <trkpt lat="42.53254667" lon="1.588875">
        <ele>1396.0</ele>
        <time>2019-08-04T13:43:42.317Z</time>
      </trkpt>
      <trkpt lat="42.53257333" lon="1.588905">
        <ele>1396.0</ele>
        <time>2019-08-04T13:43:43.321Z</time>
      </trkpt>
      <trkpt lat="42.53257333" lon="1.588905">
        <ele>1396.0</ele>
        <time>2019-08-04T13:43:44.318Z</time>
      </trkpt>
      <trkpt lat="42.5326" lon="1.58893667">
        <ele>1396.0</ele>
        <time>2019-08-04T13:43:45.322Z</time>
      </trkpt>
      <trkpt lat="42.5326" lon="1.58893667">
        <ele>1396.0</ele>
        <time>2019-08-04T13:43:46.318Z</time>
      </trkpt>
      <trkpt lat="42.53261833" lon="1.58897833">
        <ele>1396.0</ele>
        <time>2019-08-04T13:43:47.320Z</time>
      </trkpt>
      <trkpt lat="42.53261833" lon="1.58897833">
        <ele>1396.0</ele>
        <time>2019-08-04T13:43:48.336Z</time>
      </trkpt>
      <trkpt lat="42.532635" lon="1.58901833">
        <ele>1397.0</ele>
        <time>2019-08-04T13:43:49.320Z</time>
      </trkpt>
      <trkpt lat="42.532635" lon="1.58901833">
        <ele>1397.0</ele>
        <time>2019-08-04T13:43:50.336Z</time>
      </trkpt>
      <trkpt lat="42.53264833" lon="1.58906667">
        <ele>1397.0</ele>
        <time>2019-08-04T13:43:51.331Z</time>
      </trkpt>
      <trkpt lat="42.53265833" lon="1.58908833">
        <ele>1397.0</ele>
        <time>2019-08-04T13:43:52.322Z</time>
      </trkpt>
      <trkpt lat="42.53265833" lon="1.58908833">
        <ele>1397.0</ele>
        <time>2019-08-04T13:43:53.315Z</time>
      </trkpt>
      <trkpt lat="42.53266667" lon="1.58913333">
        <ele>1397.0</ele>
        <time>2019-08-04T13:43:54.321Z</time>
      </trkpt>
      <trkpt lat="42.53266667" lon="1.58913333">
        <ele>1397.0</ele>
        <time>2019-08-04T13:43:55.318Z</time>
      </trkpt>
      <trkpt lat="42.53267833" lon="1.58917333">
        <ele>1398.0</ele>
        <time>2019-08-04T13:43:56.321Z</time>
      </trkpt>
      <trkpt lat="42.532675" lon="1.58919167">
        <ele>1398.0</ele>
        <time>2019-08-04T13:43:57.296Z</time>
      </trkpt>
      <trkpt lat="42.532675" lon="1.58919167">
        <ele>1398.0</ele>
        <time>2019-08-04T13:43:58.323Z</time>
      </trkpt>
      <trkpt lat="42.53267667" lon="1.58923833">
        <ele>1398.0</ele>
        <time>2019-08-04T13:43:59.320Z</time>
      </trkpt>
      <trkpt lat="42.53267667" lon="1.58923833">
        <ele>1398.0</ele>
        <time>2019-08-04T13:44:00.315Z</time>
      </trkpt>
      <trkpt lat="42.53268167" lon="1.58928667">
        <ele>1399.0</ele>
        <time>2019-08-04T13:44:01.320Z</time>
      </trkpt>
      <trkpt lat="42.53268167" lon="1.58928667">
        <ele>1399.0</ele>
        <time>2019-08-04T13:44:02.317Z</time>
      </trkpt>
      <trkpt lat="42.53268667" lon="1.58932833">
        <ele>1399.0</ele>
        <time>2019-08-04T13:44:03.320Z</time>
      </trkpt>
      <trkpt lat="42.53268667" lon="1.58932833">
        <ele>1399.0</ele>
        <time>2019-08-04T13:44:04.300Z</time>
      </trkpt>
      <trkpt lat="42.53268667" lon="1.58937167">
        <ele>1400.0</ele>
        <time>2019-08-04T13:44:05.320Z</time>
      </trkpt>
      <trkpt lat="42.53268667" lon="1.58937167">
        <ele>1400.0</ele>
        <time>2019-08-04T13:44:06.296Z</time>
      </trkpt>
      <trkpt lat="42.53268667" lon="1.58937167">
        <ele>1400.0</ele>
        <time>2019-08-04T13:44:07.319Z</time>
      </trkpt>
      <trkpt lat="42.53269333" lon="1.589415">
        <ele>1400.0</ele>
        <time>2019-08-04T13:44:08.318Z</time>
      </trkpt>
      <trkpt lat="42.53269833" lon="1.58945833">
        <ele>1400.0</ele>
        <time>2019-08-04T13:44:09.320Z</time>
      </trkpt>
      <trkpt lat="42.53269833" lon="1.58945833">
        <ele>1400.0</ele>
        <time>2019-08-04T13:44:10.316Z</time>
      </trkpt>
      <trkpt lat="42.53270833" lon="1.589505">
        <ele>1401.0</ele>
        <time>2019-08-04T13:44:11.333Z</time>
      </trkpt>
      <trkpt lat="42.53270833" lon="1.589505">
        <ele>1401.0</ele>
        <time>2019-08-04T13:44:12.318Z</time>
      </trkpt>
      <trkpt lat="42.53271" lon="1.58953667">
        <ele>1401.0</ele>
        <time>2019-08-04T13:44:13.321Z</time>
      </trkpt>
      <trkpt lat="42.53271" lon="1.58953667">
        <ele>1401.0</ele>
        <time>2019-08-04T13:44:14.317Z</time>
      </trkpt>
      <trkpt lat="42.53270333" lon="1.58957833">
        <ele>1401.0</ele>
        <time>2019-08-04T13:44:15.321Z</time>
      </trkpt>
      <trkpt lat="42.53270333" lon="1.58957833">
        <ele>1401.0</ele>
        <time>2019-08-04T13:44:16.318Z</time>
      </trkpt>
      <trkpt lat="42.53270333" lon="1.58963">
        <ele>1402.0</ele>
        <time>2019-08-04T13:44:17.321Z</time>
      </trkpt>
      <trkpt lat="42.53270333" lon="1.58963">
        <ele>1402.0</ele>
        <time>2019-08-04T13:44:18.318Z</time>
      </trkpt>
      <trkpt lat="42.53272833" lon="1.58968167">
        <ele>1402.0</ele>
        <time>2019-08-04T13:44:19.320Z</time>
      </trkpt>
      <trkpt lat="42.53272833" lon="1.58968167">
        <ele>1402.0</ele>
        <time>2019-08-04T13:44:20.335Z</time>
      </trkpt>
      <trkpt lat="42.53271833" lon="1.58974667">
        <ele>1403.0</ele>
        <time>2019-08-04T13:44:21.321Z</time>
      </trkpt>
      <trkpt lat="42.53271833" lon="1.58974667">
        <ele>1403.0</ele>
        <time>2019-08-04T13:44:22.316Z</time>
      </trkpt>
      <trkpt lat="42.53272333" lon="1.58980167">
        <ele>1404.0</ele>
        <time>2019-08-04T13:44:23.296Z</time>
      </trkpt>
      <trkpt lat="42.53272333" lon="1.58980167">
        <ele>1404.0</ele>
        <time>2019-08-04T13:44:24.317Z</time>
      </trkpt>
      <trkpt lat="42.53272167" lon="1.589855">
        <ele>1404.0</ele>
        <time>2019-08-04T13:44:25.321Z</time>
      </trkpt>
      <trkpt lat="42.53272167" lon="1.589855">
        <ele>1404.0</ele>
        <time>2019-08-04T13:44:26.315Z</time>
      </trkpt>
      <trkpt lat="42.53272167" lon="1.589855">
        <ele>1404.0</ele>
        <time>2019-08-04T13:44:27.320Z</time>
      </trkpt>
      <trkpt lat="42.53272" lon="1.58989833">
        <ele>1406.0</ele>
        <time>2019-08-04T13:44:28.303Z</time>
      </trkpt>
      <trkpt lat="42.53272167" lon="1.589945">
        <ele>1407.0</ele>
        <time>2019-08-04T13:44:29.312Z</time>
      </trkpt>
      <trkpt lat="42.532725" lon="1.58996667">
        <ele>1407.0</ele>
        <time>2019-08-04T13:44:30.296Z</time>
      </trkpt>
      <trkpt lat="42.532725" lon="1.58996667">
        <ele>1407.0</ele>
        <time>2019-08-04T13:44:31.302Z</time>
      </trkpt>
      <trkpt lat="42.53272667" lon="1.59000833">
        <ele>1409.0</ele>
        <time>2019-08-04T13:44:32.322Z</time>
      </trkpt>
      <trkpt lat="42.53272667" lon="1.59000833">
        <ele>1409.0</ele>
        <time>2019-08-04T13:44:33.321Z</time>
      </trkpt>
      <trkpt lat="42.53273167" lon="1.59005333">
        <ele>1410.0</ele>
        <time>2019-08-04T13:44:34.335Z</time>
      </trkpt>
      <trkpt lat="42.53273333" lon="1.590075">
        <ele>1410.0</ele>
        <time>2019-08-04T13:44:35.324Z</time>
      </trkpt>
      <trkpt lat="42.53273333" lon="1.590075">
        <ele>1410.0</ele>
        <time>2019-08-04T13:44:36.316Z</time>
      </trkpt>
      <trkpt lat="42.53273" lon="1.590115">
        <ele>1412.0</ele>
        <time>2019-08-04T13:44:37.321Z</time>
      </trkpt>
      <trkpt lat="42.53273" lon="1.590115">
        <ele>1412.0</ele>
        <time>2019-08-04T13:44:38.318Z</time>
      </trkpt>
      <trkpt lat="42.53271833" lon="1.59016167">
        <ele>1413.0</ele>
        <time>2019-08-04T13:44:39.320Z</time>
      </trkpt>
      <trkpt lat="42.53271833" lon="1.59016167">
        <ele>1413.0</ele>
        <time>2019-08-04T13:44:40.296Z</time>
      </trkpt>
      <trkpt lat="42.532715" lon="1.59021">
        <ele>1414.0</ele>
        <time>2019-08-04T13:44:41.321Z</time>
      </trkpt>
      <trkpt lat="42.53271167" lon="1.590235">
        <ele>1414.0</ele>
        <time>2019-08-04T13:44:42.321Z</time>
      </trkpt>
      <trkpt lat="42.53271167" lon="1.590235">
        <ele>1414.0</ele>
        <time>2019-08-04T13:44:43.296Z</time>
      </trkpt>
      <trkpt lat="42.53270333" lon="1.59028">
        <ele>1414.0</ele>
        <time>2019-08-04T13:44:44.323Z</time>
      </trkpt>
      <trkpt lat="42.53270333" lon="1.59028">
        <ele>1414.0</ele>
        <time>2019-08-04T13:44:45.479Z</time>
      </trkpt>
      <trkpt lat="42.53270167" lon="1.590305">
        <ele>1415.0</ele>
        <time>2019-08-04T13:44:46.319Z</time>
      </trkpt>
      <trkpt lat="42.53270333" lon="1.590345">
        <ele>1415.0</ele>
        <time>2019-08-04T13:44:47.321Z</time>
      </trkpt>
      <trkpt lat="42.53270333" lon="1.590345">
        <ele>1415.0</ele>
        <time>2019-08-04T13:44:48.319Z</time>
      </trkpt>
      <trkpt lat="42.53270167" lon="1.59038333">
        <ele>1416.0</ele>
        <time>2019-08-04T13:44:49.322Z</time>
      </trkpt>
      <trkpt lat="42.53269333" lon="1.59041">
        <ele>1416.0</ele>
        <time>2019-08-04T13:44:50.320Z</time>
      </trkpt>
      <trkpt lat="42.53269333" lon="1.59041">
        <ele>1416.0</ele>
        <time>2019-08-04T13:44:51.299Z</time>
      </trkpt>
      <trkpt lat="42.53268167" lon="1.590455">
        <ele>1417.0</ele>
        <time>2019-08-04T13:44:52.300Z</time>
      </trkpt>
      <trkpt lat="42.53267" lon="1.59048">
        <ele>1417.0</ele>
        <time>2019-08-04T13:44:53.323Z</time>
      </trkpt>
      <trkpt lat="42.53267" lon="1.59048">
        <ele>1417.0</ele>
        <time>2019-08-04T13:44:54.319Z</time>
      </trkpt>
      <trkpt lat="42.53265167" lon="1.59052833">
        <ele>1417.0</ele>
        <time>2019-08-04T13:44:55.321Z</time>
      </trkpt>
      <trkpt lat="42.532645" lon="1.59055">
        <ele>1418.0</ele>
        <time>2019-08-04T13:44:56.321Z</time>
      </trkpt>
      <trkpt lat="42.532645" lon="1.59055">
        <ele>1418.0</ele>
        <time>2019-08-04T13:44:57.297Z</time>
      </trkpt>
      <trkpt lat="42.532625" lon="1.59059333">
        <ele>1418.0</ele>
        <time>2019-08-04T13:44:58.333Z</time>
      </trkpt>
      <trkpt lat="42.53261667" lon="1.590615">
        <ele>1418.0</ele>
        <time>2019-08-04T13:44:59.321Z</time>
      </trkpt>
      <trkpt lat="42.53261667" lon="1.590615">
        <ele>1418.0</ele>
        <time>2019-08-04T13:45:00.319Z</time>
      </trkpt>
      <trkpt lat="42.532595" lon="1.59065833">
        <ele>1419.0</ele>
        <time>2019-08-04T13:45:01.331Z</time>
      </trkpt>
      <trkpt lat="42.532595" lon="1.59065833">
        <ele>1419.0</ele>
        <time>2019-08-04T13:45:02.318Z</time>
      </trkpt>
      <trkpt lat="42.53257333" lon="1.590705">
        <ele>1419.0</ele>
        <time>2019-08-04T13:45:03.319Z</time>
      </trkpt>
      <trkpt lat="42.53257333" lon="1.590705">
        <ele>1419.0</ele>
        <time>2019-08-04T13:45:04.317Z</time>
      </trkpt>
      <trkpt lat="42.532555" lon="1.59074667">
        <ele>1420.0</ele>
        <time>2019-08-04T13:45:05.342Z</time>
      </trkpt>
      <trkpt lat="42.532555" lon="1.59074667">
        <ele>1420.0</ele>
        <time>2019-08-04T13:45:06.320Z</time>
      </trkpt>
      <trkpt lat="42.53252833" lon="1.59078667">
        <ele>1420.0</ele>
        <time>2019-08-04T13:45:07.321Z</time>
      </trkpt>
      <trkpt lat="42.53252833" lon="1.59078667">
        <ele>1420.0</ele>
        <time>2019-08-04T13:45:08.296Z</time>
      </trkpt>
      <trkpt lat="42.53250833" lon="1.59082833">
        <ele>1421.0</ele>
        <time>2019-08-04T13:45:09.335Z</time>
      </trkpt>
      <trkpt lat="42.53250167" lon="1.59085">
        <ele>1421.0</ele>
        <time>2019-08-04T13:45:10.324Z</time>
      </trkpt>
      <trkpt lat="42.53250167" lon="1.59085">
        <ele>1421.0</ele>
        <time>2019-08-04T13:45:11.316Z</time>
      </trkpt>
      <trkpt lat="42.53248" lon="1.59089333">
        <ele>1422.0</ele>
        <time>2019-08-04T13:45:12.331Z</time>
      </trkpt>
      <trkpt lat="42.53248" lon="1.59089333">
        <ele>1422.0</ele>
        <time>2019-08-04T13:45:13.319Z</time>
      </trkpt>
      <trkpt lat="42.53246" lon="1.59094333">
        <ele>1422.0</ele>
        <time>2019-08-04T13:45:14.306Z</time>
      </trkpt>
      <trkpt lat="42.53244667" lon="1.59096833">
        <ele>1422.0</ele>
        <time>2019-08-04T13:45:15.329Z</time>
      </trkpt>
      <trkpt lat="42.53244667" lon="1.59096833">
        <ele>1422.0</ele>
        <time>2019-08-04T13:45:16.319Z</time>
      </trkpt>
      <trkpt lat="42.53242333" lon="1.59101">
        <ele>1422.0</ele>
        <time>2019-08-04T13:45:17.321Z</time>
      </trkpt>
      <trkpt lat="42.53242333" lon="1.59101">
        <ele>1422.0</ele>
        <time>2019-08-04T13:45:18.296Z</time>
      </trkpt>
      <trkpt lat="42.5324" lon="1.59105167">
        <ele>1423.0</ele>
        <time>2019-08-04T13:45:19.323Z</time>
      </trkpt>
      <trkpt lat="42.53239" lon="1.59107167">
        <ele>1423.0</ele>
        <time>2019-08-04T13:45:20.322Z</time>
      </trkpt>
      <trkpt lat="42.53239" lon="1.59107167">
        <ele>1423.0</ele>
        <time>2019-08-04T13:45:21.300Z</time>
      </trkpt>
      <trkpt lat="42.53238" lon="1.59109167">
        <ele>1423.0</ele>
        <time>2019-08-04T13:45:22.319Z</time>
      </trkpt>
      <trkpt lat="42.53235667" lon="1.59113167">
        <ele>1423.0</ele>
        <time>2019-08-04T13:45:23.321Z</time>
      </trkpt>
      <trkpt lat="42.53235667" lon="1.59113167">
        <ele>1423.0</ele>
        <time>2019-08-04T13:45:24.316Z</time>
      </trkpt>
      <trkpt lat="42.532335" lon="1.59116667">
        <ele>1423.0</ele>
        <time>2019-08-04T13:45:25.320Z</time>
      </trkpt>
      <trkpt lat="42.532335" lon="1.59116667">
        <ele>1423.0</ele>
        <time>2019-08-04T13:45:26.335Z</time>
      </trkpt>
      <trkpt lat="42.53230667" lon="1.59120333">
        <ele>1424.0</ele>
        <time>2019-08-04T13:45:27.319Z</time>
      </trkpt>
      <trkpt lat="42.53230667" lon="1.59120333">
        <ele>1424.0</ele>
        <time>2019-08-04T13:45:28.335Z</time>
      </trkpt>
      <trkpt lat="42.532295" lon="1.59123833">
        <ele>1424.0</ele>
        <time>2019-08-04T13:45:29.332Z</time>
      </trkpt>
      <trkpt lat="42.532285" lon="1.59125833">
        <ele>1424.0</ele>
        <time>2019-08-04T13:45:30.315Z</time>
      </trkpt>
      <trkpt lat="42.532285" lon="1.59125833">
        <ele>1424.0</ele>
        <time>2019-08-04T13:45:31.320Z</time>
      </trkpt>
      <trkpt lat="42.53226" lon="1.59129833">
        <ele>1424.0</ele>
        <time>2019-08-04T13:45:32.299Z</time>
      </trkpt>
      <trkpt lat="42.53225167" lon="1.59131667">
        <ele>1424.0</ele>
        <time>2019-08-04T13:45:33.323Z</time>
      </trkpt>
      <trkpt lat="42.53225167" lon="1.59131667">
        <ele>1424.0</ele>
        <time>2019-08-04T13:45:34.300Z</time>
      </trkpt>
      <trkpt lat="42.532225" lon="1.59135">
        <ele>1424.0</ele>
        <time>2019-08-04T13:45:35.323Z</time>
      </trkpt>
      <trkpt lat="42.532225" lon="1.59135">
        <ele>1424.0</ele>
        <time>2019-08-04T13:45:36.320Z</time>
      </trkpt>
      <trkpt lat="42.5322" lon="1.59138667">
        <ele>1424.0</ele>
        <time>2019-08-04T13:45:37.319Z</time>
      </trkpt>
      <trkpt lat="42.53218333" lon="1.59140333">
        <ele>1424.0</ele>
        <time>2019-08-04T13:45:38.335Z</time>
      </trkpt>
      <trkpt lat="42.53218333" lon="1.59140333">
        <ele>1424.0</ele>
        <time>2019-08-04T13:45:39.319Z</time>
      </trkpt>
      <trkpt lat="42.53214833" lon="1.59144333">
        <ele>1424.0</ele>
        <time>2019-08-04T13:45:40.321Z</time>
      </trkpt>
      <trkpt lat="42.53214833" lon="1.59144333">
        <ele>1424.0</ele>
        <time>2019-08-04T13:45:41.510Z</time>
      </trkpt>
      <trkpt lat="42.53213333" lon="1.59146167">
        <ele>1424.0</ele>
        <time>2019-08-04T13:45:42.323Z</time>
      </trkpt>
      <trkpt lat="42.53211333" lon="1.59149833">
        <ele>1424.0</ele>
        <time>2019-08-04T13:45:43.318Z</time>
      </trkpt>
      <trkpt lat="42.53211333" lon="1.59149833">
        <ele>1424.0</ele>
        <time>2019-08-04T13:45:44.340Z</time>
      </trkpt>
      <trkpt lat="42.53209333" lon="1.59153333">
        <ele>1424.0</ele>
        <time>2019-08-04T13:45:45.319Z</time>
      </trkpt>
      <trkpt lat="42.53209333" lon="1.59153333">
        <ele>1424.0</ele>
        <time>2019-08-04T13:45:46.296Z</time>
      </trkpt>
      <trkpt lat="42.53207333" lon="1.59156833">
        <ele>1424.0</ele>
        <time>2019-08-04T13:45:47.319Z</time>
      </trkpt>
      <trkpt lat="42.53207333" lon="1.59156833">
        <ele>1424.0</ele>
        <time>2019-08-04T13:45:48.320Z</time>
      </trkpt>
      <trkpt lat="42.53205167" lon="1.59159833">
        <ele>1425.0</ele>
        <time>2019-08-04T13:45:49.322Z</time>
      </trkpt>
      <trkpt lat="42.53205167" lon="1.59159833">
        <ele>1425.0</ele>
        <time>2019-08-04T13:45:50.318Z</time>
      </trkpt>
      <trkpt lat="42.53203333" lon="1.59162">
        <ele>1425.0</ele>
        <time>2019-08-04T13:45:51.334Z</time>
      </trkpt>
      <trkpt lat="42.53203333" lon="1.59162">
        <ele>1425.0</ele>
        <time>2019-08-04T13:45:52.316Z</time>
      </trkpt>
      <trkpt lat="42.53201" lon="1.59164833">
        <ele>1426.0</ele>
        <time>2019-08-04T13:45:53.322Z</time>
      </trkpt>
      <trkpt lat="42.53201" lon="1.59164833">
        <ele>1426.0</ele>
        <time>2019-08-04T13:45:54.318Z</time>
      </trkpt>
      <trkpt lat="42.531985" lon="1.59167833">
        <ele>1426.0</ele>
        <time>2019-08-04T13:45:55.321Z</time>
      </trkpt>
      <trkpt lat="42.531985" lon="1.59167833">
        <ele>1426.0</ele>
        <time>2019-08-04T13:45:56.309Z</time>
      </trkpt>
      <trkpt lat="42.53196333" lon="1.59171167">
        <ele>1426.0</ele>
        <time>2019-08-04T13:45:57.331Z</time>
      </trkpt>
      <trkpt lat="42.53196333" lon="1.59171167">
        <ele>1426.0</ele>
        <time>2019-08-04T13:45:58.318Z</time>
      </trkpt>
      <trkpt lat="42.53193833" lon="1.59175">
        <ele>1427.0</ele>
        <time>2019-08-04T13:45:59.321Z</time>
      </trkpt>
      <trkpt lat="42.53193833" lon="1.59175">
        <ele>1427.0</ele>
        <time>2019-08-04T13:46:00.318Z</time>
      </trkpt>
      <trkpt lat="42.53191833" lon="1.59178833">
        <ele>1427.0</ele>
        <time>2019-08-04T13:46:01.321Z</time>
      </trkpt>
      <trkpt lat="42.53191833" lon="1.59178833">
        <ele>1427.0</ele>
        <time>2019-08-04T13:46:02.319Z</time>
      </trkpt>
      <trkpt lat="42.5319" lon="1.59183167">
        <ele>1428.0</ele>
        <time>2019-08-04T13:46:03.320Z</time>
      </trkpt>
      <trkpt lat="42.5319" lon="1.59183167">
        <ele>1428.0</ele>
        <time>2019-08-04T13:46:04.321Z</time>
      </trkpt>
      <trkpt lat="42.53188167" lon="1.59187167">
        <ele>1429.0</ele>
        <time>2019-08-04T13:46:05.322Z</time>
      </trkpt>
      <trkpt lat="42.53187" lon="1.59189167">
        <ele>1429.0</ele>
        <time>2019-08-04T13:46:06.324Z</time>
      </trkpt>
      <trkpt lat="42.53187" lon="1.59189167">
        <ele>1429.0</ele>
        <time>2019-08-04T13:46:07.318Z</time>
      </trkpt>
      <trkpt lat="42.53185" lon="1.591935">
        <ele>1429.0</ele>
        <time>2019-08-04T13:46:08.321Z</time>
      </trkpt>
      <trkpt lat="42.53184333" lon="1.59195667">
        <ele>1429.0</ele>
        <time>2019-08-04T13:46:09.334Z</time>
      </trkpt>
      <trkpt lat="42.53184333" lon="1.59195667">
        <ele>1429.0</ele>
        <time>2019-08-04T13:46:10.316Z</time>
      </trkpt>
      <trkpt lat="42.53184333" lon="1.59195667">
        <ele>1429.0</ele>
        <time>2019-08-04T13:46:11.296Z</time>
      </trkpt>
      <trkpt lat="42.53183333" lon="1.59200167">
        <ele>1430.0</ele>
        <time>2019-08-04T13:46:12.319Z</time>
      </trkpt>
      <trkpt lat="42.531825" lon="1.59205">
        <ele>1430.0</ele>
        <time>2019-08-04T13:46:13.321Z</time>
      </trkpt>
      <trkpt lat="42.531825" lon="1.59205">
        <ele>1430.0</ele>
        <time>2019-08-04T13:46:14.318Z</time>
      </trkpt>
      <trkpt lat="42.53181667" lon="1.59209833">
        <ele>1431.0</ele>
        <time>2019-08-04T13:46:15.301Z</time>
      </trkpt>
      <trkpt lat="42.53181667" lon="1.59209833">
        <ele>1431.0</ele>
        <time>2019-08-04T13:46:16.319Z</time>
      </trkpt>
      <trkpt lat="42.53180667" lon="1.59214833">
        <ele>1431.0</ele>
        <time>2019-08-04T13:46:17.321Z</time>
      </trkpt>
      <trkpt lat="42.53180667" lon="1.59214833">
        <ele>1431.0</ele>
        <time>2019-08-04T13:46:18.296Z</time>
      </trkpt>
      <trkpt lat="42.53180167" lon="1.59220167">
        <ele>1431.0</ele>
        <time>2019-08-04T13:46:19.332Z</time>
      </trkpt>
      <trkpt lat="42.53180167" lon="1.59222667">
        <ele>1432.0</ele>
        <time>2019-08-04T13:46:20.319Z</time>
      </trkpt>
      <trkpt lat="42.53180167" lon="1.59222667">
        <ele>1432.0</ele>
        <time>2019-08-04T13:46:21.334Z</time>
      </trkpt>
      <trkpt lat="42.5318" lon="1.59228">
        <ele>1432.0</ele>
        <time>2019-08-04T13:46:22.319Z</time>
      </trkpt>
      <trkpt lat="42.53180333" lon="1.59230667">
        <ele>1432.0</ele>
        <time>2019-08-04T13:46:23.334Z</time>
      </trkpt>
      <trkpt lat="42.53180333" lon="1.59230667">
        <ele>1432.0</ele>
        <time>2019-08-04T13:46:24.319Z</time>
      </trkpt>
      <trkpt lat="42.53180833" lon="1.59236167">
        <ele>1433.0</ele>
        <time>2019-08-04T13:46:25.301Z</time>
      </trkpt>
      <trkpt lat="42.53180833" lon="1.59236167">
        <ele>1433.0</ele>
        <time>2019-08-04T13:46:26.318Z</time>
      </trkpt>
      <trkpt lat="42.531815" lon="1.59241167">
        <ele>1433.0</ele>
        <time>2019-08-04T13:46:27.322Z</time>
      </trkpt>
      <trkpt lat="42.531815" lon="1.59241167">
        <ele>1433.0</ele>
        <time>2019-08-04T13:46:28.297Z</time>
      </trkpt>
      <trkpt lat="42.53182333" lon="1.59246">
        <ele>1433.0</ele>
        <time>2019-08-04T13:46:29.331Z</time>
      </trkpt>
      <trkpt lat="42.53182833" lon="1.592485">
        <ele>1434.0</ele>
        <time>2019-08-04T13:46:30.312Z</time>
      </trkpt>
      <trkpt lat="42.53183667" lon="1.59250833">
        <ele>1434.0</ele>
        <time>2019-08-04T13:46:31.319Z</time>
      </trkpt>
      <trkpt lat="42.53183667" lon="1.59250833">
        <ele>1434.0</ele>
        <time>2019-08-04T13:46:32.297Z</time>
      </trkpt>
      <trkpt lat="42.53184833" lon="1.592555">
        <ele>1434.0</ele>
        <time>2019-08-04T13:46:33.323Z</time>
      </trkpt>
      <trkpt lat="42.53184833" lon="1.592555">
        <ele>1434.0</ele>
        <time>2019-08-04T13:46:34.319Z</time>
      </trkpt>
      <trkpt lat="42.53186833" lon="1.59259833">
        <ele>1435.0</ele>
        <time>2019-08-04T13:46:35.301Z</time>
      </trkpt>
      <trkpt lat="42.53186833" lon="1.59259833">
        <ele>1435.0</ele>
        <time>2019-08-04T13:46:36.318Z</time>
      </trkpt>
      <trkpt lat="42.531885" lon="1.59264333">
        <ele>1435.0</ele>
        <time>2019-08-04T13:46:37.322Z</time>
      </trkpt>
      <trkpt lat="42.531885" lon="1.59264333">
        <ele>1435.0</ele>
        <time>2019-08-04T13:46:38.319Z</time>
      </trkpt>
      <trkpt lat="42.53190667" lon="1.59268833">
        <ele>1436.0</ele>
        <time>2019-08-04T13:46:39.319Z</time>
      </trkpt>
      <trkpt lat="42.53190667" lon="1.59268833">
        <ele>1436.0</ele>
        <time>2019-08-04T13:46:40.296Z</time>
      </trkpt>
      <trkpt lat="42.53192667" lon="1.59273">
        <ele>1436.0</ele>
        <time>2019-08-04T13:46:41.331Z</time>
      </trkpt>
      <trkpt lat="42.53192667" lon="1.59273">
        <ele>1436.0</ele>
        <time>2019-08-04T13:46:42.317Z</time>
      </trkpt>
      <trkpt lat="42.53194833" lon="1.59277333">
        <ele>1436.0</ele>
        <time>2019-08-04T13:46:43.320Z</time>
      </trkpt>
      <trkpt lat="42.53194833" lon="1.59277333">
        <ele>1436.0</ele>
        <time>2019-08-04T13:46:44.336Z</time>
      </trkpt>
      <trkpt lat="42.531975" lon="1.59280667">
        <ele>1437.0</ele>
        <time>2019-08-04T13:46:45.324Z</time>
      </trkpt>
      <trkpt lat="42.53199167" lon="1.59282167">
        <ele>1437.0</ele>
        <time>2019-08-04T13:46:46.322Z</time>
      </trkpt>
      <trkpt lat="42.53200667" lon="1.59283833">
        <ele>1437.0</ele>
        <time>2019-08-04T13:46:47.322Z</time>
      </trkpt>
      <trkpt lat="42.53200667" lon="1.59283833">
        <ele>1437.0</ele>
        <time>2019-08-04T13:46:48.320Z</time>
      </trkpt>
      <trkpt lat="42.53203833" lon="1.59286833">
        <ele>1437.0</ele>
        <time>2019-08-04T13:46:49.300Z</time>
      </trkpt>
      <trkpt lat="42.53205667" lon="1.59287833">
        <ele>1437.0</ele>
        <time>2019-08-04T13:46:50.320Z</time>
      </trkpt>
      <trkpt lat="42.532075" lon="1.59288667">
        <ele>1438.0</ele>
        <time>2019-08-04T13:46:51.302Z</time>
      </trkpt>
      <trkpt lat="42.532075" lon="1.59288667">
        <ele>1438.0</ele>
        <time>2019-08-04T13:46:52.317Z</time>
      </trkpt>
      <trkpt lat="42.532115" lon="1.592895">
        <ele>1438.0</ele>
        <time>2019-08-04T13:46:53.322Z</time>
      </trkpt>
      <trkpt lat="42.532115" lon="1.592895">
        <ele>1438.0</ele>
        <time>2019-08-04T13:46:54.300Z</time>
      </trkpt>
      <trkpt lat="42.53215833" lon="1.59289667">
        <ele>1438.0</ele>
        <time>2019-08-04T13:46:55.327Z</time>
      </trkpt>
      <trkpt lat="42.53217833" lon="1.59289667">
        <ele>1438.0</ele>
        <time>2019-08-04T13:46:56.319Z</time>
      </trkpt>
      <trkpt lat="42.53220167" lon="1.59289">
        <ele>1439.0</ele>
        <time>2019-08-04T13:46:57.334Z</time>
      </trkpt>
      <trkpt lat="42.53220167" lon="1.59289">
        <ele>1439.0</ele>
        <time>2019-08-04T13:46:58.316Z</time>
      </trkpt>
      <trkpt lat="42.53220167" lon="1.59289">
        <ele>1439.0</ele>
        <time>2019-08-04T13:46:59.330Z</time>
      </trkpt>
      <trkpt lat="42.53224167" lon="1.592885">
        <ele>1439.0</ele>
        <time>2019-08-04T13:47:00.319Z</time>
      </trkpt>
      <trkpt lat="42.53228333" lon="1.59287333">
        <ele>1439.0</ele>
        <time>2019-08-04T13:47:01.321Z</time>
      </trkpt>
      <trkpt lat="42.53230333" lon="1.592865">
        <ele>1440.0</ele>
        <time>2019-08-04T13:47:02.322Z</time>
      </trkpt>
      <trkpt lat="42.53230333" lon="1.592865">
        <ele>1440.0</ele>
        <time>2019-08-04T13:47:03.297Z</time>
      </trkpt>
      <trkpt lat="42.53233833" lon="1.59284">
        <ele>1440.0</ele>
        <time>2019-08-04T13:47:04.321Z</time>
      </trkpt>
      <trkpt lat="42.53233833" lon="1.59284">
        <ele>1440.0</ele>
        <time>2019-08-04T13:47:05.296Z</time>
      </trkpt>
      <trkpt lat="42.53236667" lon="1.59280667">
        <ele>1440.0</ele>
        <time>2019-08-04T13:47:06.322Z</time>
      </trkpt>
      <trkpt lat="42.53238333" lon="1.59279167">
        <ele>1441.0</ele>
        <time>2019-08-04T13:47:07.319Z</time>
      </trkpt>
      <trkpt lat="42.53238333" lon="1.59279167">
        <ele>1441.0</ele>
        <time>2019-08-04T13:47:08.334Z</time>
      </trkpt>
      <trkpt lat="42.53240833" lon="1.59276333">
        <ele>1441.0</ele>
        <time>2019-08-04T13:47:09.323Z</time>
      </trkpt>
      <trkpt lat="42.53240833" lon="1.59276333">
        <ele>1441.0</ele>
        <time>2019-08-04T13:47:10.315Z</time>
      </trkpt>
      <trkpt lat="42.53243833" lon="1.592735">
        <ele>1441.0</ele>
        <time>2019-08-04T13:47:11.310Z</time>
      </trkpt>
      <trkpt lat="42.53243833" lon="1.592735">
        <ele>1441.0</ele>
        <time>2019-08-04T13:47:12.304Z</time>
      </trkpt>
      <trkpt lat="42.53243833" lon="1.592735">
        <ele>1441.0</ele>
        <time>2019-08-04T13:47:13.492Z</time>
      </trkpt>
      <trkpt lat="42.53247" lon="1.59271333">
        <ele>1441.0</ele>
        <time>2019-08-04T13:47:14.319Z</time>
      </trkpt>
      <trkpt lat="42.532505" lon="1.59269333">
        <ele>1442.0</ele>
        <time>2019-08-04T13:47:15.332Z</time>
      </trkpt>
      <trkpt lat="42.532505" lon="1.59269333">
        <ele>1442.0</ele>
        <time>2019-08-04T13:47:16.322Z</time>
      </trkpt>
      <trkpt lat="42.53253" lon="1.59267667">
        <ele>1442.0</ele>
        <time>2019-08-04T13:47:17.322Z</time>
      </trkpt>
      <trkpt lat="42.53253" lon="1.59267667">
        <ele>1442.0</ele>
        <time>2019-08-04T13:47:18.320Z</time>
      </trkpt>
      <trkpt lat="42.53254667" lon="1.59266167">
        <ele>1442.0</ele>
        <time>2019-08-04T13:47:19.322Z</time>
      </trkpt>
      <trkpt lat="42.53256167" lon="1.59265667">
        <ele>1442.0</ele>
        <time>2019-08-04T13:47:20.322Z</time>
      </trkpt>
      <trkpt lat="42.53257833" lon="1.59265333">
        <ele>1443.0</ele>
        <time>2019-08-04T13:47:21.331Z</time>
      </trkpt>
      <trkpt lat="42.53257833" lon="1.59265333">
        <ele>1443.0</ele>
        <time>2019-08-04T13:47:22.317Z</time>
      </trkpt>
      <trkpt lat="42.532605" lon="1.59263833">
        <ele>1443.0</ele>
        <time>2019-08-04T13:47:23.322Z</time>
      </trkpt>
      <trkpt lat="42.532605" lon="1.59263833">
        <ele>1443.0</ele>
        <time>2019-08-04T13:47:24.316Z</time>
      </trkpt>
      <trkpt lat="42.53262667" lon="1.59261667">
        <ele>1443.0</ele>
        <time>2019-08-04T13:47:25.334Z</time>
      </trkpt>
      <trkpt lat="42.53262667" lon="1.59261667">
        <ele>1443.0</ele>
        <time>2019-08-04T13:47:26.320Z</time>
      </trkpt>
      <trkpt lat="42.53265167" lon="1.592595">
        <ele>1443.0</ele>
        <time>2019-08-04T13:47:27.320Z</time>
      </trkpt>
      <trkpt lat="42.53265167" lon="1.592595">
        <ele>1443.0</ele>
        <time>2019-08-04T13:47:28.318Z</time>
      </trkpt>
      <trkpt lat="42.53267167" lon="1.59259333">
        <ele>1444.0</ele>
        <time>2019-08-04T13:47:29.331Z</time>
      </trkpt>
      <trkpt lat="42.53268167" lon="1.592585">
        <ele>1444.0</ele>
        <time>2019-08-04T13:47:30.311Z</time>
      </trkpt>
      <trkpt lat="42.53268167" lon="1.592585">
        <ele>1444.0</ele>
        <time>2019-08-04T13:47:31.317Z</time>
      </trkpt>
      <trkpt lat="42.53271333" lon="1.59257333">
        <ele>1444.0</ele>
        <time>2019-08-04T13:47:32.332Z</time>
      </trkpt>
      <trkpt lat="42.53273167" lon="1.59256833">
        <ele>1445.0</ele>
        <time>2019-08-04T13:47:33.323Z</time>
      </trkpt>
      <trkpt lat="42.53274833" lon="1.59256667">
        <ele>1445.0</ele>
        <time>2019-08-04T13:47:34.322Z</time>
      </trkpt>
      <trkpt lat="42.53274833" lon="1.59256667">
        <ele>1445.0</ele>
        <time>2019-08-04T13:47:35.318Z</time>
      </trkpt>
      <trkpt lat="42.53278" lon="1.59256">
        <ele>1445.0</ele>
        <time>2019-08-04T13:47:36.319Z</time>
      </trkpt>
      <trkpt lat="42.53278" lon="1.59256">
        <ele>1445.0</ele>
        <time>2019-08-04T13:47:37.487Z</time>
      </trkpt>
      <trkpt lat="42.532795" lon="1.59256">
        <ele>1446.0</ele>
        <time>2019-08-04T13:47:38.316Z</time>
      </trkpt>
      <trkpt lat="42.53283" lon="1.592545">
        <ele>1446.0</ele>
        <time>2019-08-04T13:47:39.297Z</time>
      </trkpt>
      <trkpt lat="42.53283" lon="1.592545">
        <ele>1446.0</ele>
        <time>2019-08-04T13:47:40.320Z</time>
      </trkpt>
      <trkpt lat="42.53286667" lon="1.59253667">
        <ele>1446.0</ele>
        <time>2019-08-04T13:47:41.333Z</time>
      </trkpt>
      <trkpt lat="42.532885" lon="1.59253333">
        <ele>1447.0</ele>
        <time>2019-08-04T13:47:42.329Z</time>
      </trkpt>
      <trkpt lat="42.532885" lon="1.59253333">
        <ele>1447.0</ele>
        <time>2019-08-04T13:47:43.319Z</time>
      </trkpt>
      <trkpt lat="42.53292167" lon="1.59252167">
        <ele>1447.0</ele>
        <time>2019-08-04T13:47:44.319Z</time>
      </trkpt>
      <trkpt lat="42.53294" lon="1.59251667">
        <ele>1447.0</ele>
        <time>2019-08-04T13:47:45.325Z</time>
      </trkpt>
      <trkpt lat="42.53294" lon="1.59251667">
        <ele>1447.0</ele>
        <time>2019-08-04T13:47:46.320Z</time>
      </trkpt>
      <trkpt lat="42.53296833" lon="1.592505">
        <ele>1447.0</ele>
        <time>2019-08-04T13:47:47.322Z</time>
      </trkpt>
      <trkpt lat="42.53296833" lon="1.592505">
        <ele>1447.0</ele>
        <time>2019-08-04T13:47:48.317Z</time>
      </trkpt>
      <trkpt lat="42.533" lon="1.59250167">
        <ele>1447.0</ele>
        <time>2019-08-04T13:47:49.319Z</time>
      </trkpt>
      <trkpt lat="42.533" lon="1.59250167">
        <ele>1447.0</ele>
        <time>2019-08-04T13:47:50.297Z</time>
      </trkpt>
      <trkpt lat="42.533035" lon="1.59249333">
        <ele>1449.0</ele>
        <time>2019-08-04T13:47:51.328Z</time>
      </trkpt>
      <trkpt lat="42.533035" lon="1.59249333">
        <ele>1449.0</ele>
        <time>2019-08-04T13:47:52.319Z</time>
      </trkpt>
      <trkpt lat="42.53307167" lon="1.59249833">
        <ele>1449.0</ele>
        <time>2019-08-04T13:47:53.323Z</time>
      </trkpt>
      <trkpt lat="42.53307167" lon="1.59249833">
        <ele>1449.0</ele>
        <time>2019-08-04T13:47:54.320Z</time>
      </trkpt>
      <trkpt lat="42.533105" lon="1.59250167">
        <ele>1449.0</ele>
        <time>2019-08-04T13:47:55.323Z</time>
      </trkpt>
      <trkpt lat="42.533105" lon="1.59250167">
        <ele>1449.0</ele>
        <time>2019-08-04T13:47:56.322Z</time>
      </trkpt>
      <trkpt lat="42.53314" lon="1.59249833">
        <ele>1450.0</ele>
        <time>2019-08-04T13:47:57.324Z</time>
      </trkpt>
      <trkpt lat="42.53316167" lon="1.59249833">
        <ele>1450.0</ele>
        <time>2019-08-04T13:47:58.322Z</time>
      </trkpt>
      <trkpt lat="42.53316167" lon="1.59249833">
        <ele>1450.0</ele>
        <time>2019-08-04T13:47:59.317Z</time>
      </trkpt>
      <trkpt lat="42.53319833" lon="1.59250167">
        <ele>1450.0</ele>
        <time>2019-08-04T13:48:00.301Z</time>
      </trkpt>
      <trkpt lat="42.53319833" lon="1.59250167">
        <ele>1450.0</ele>
        <time>2019-08-04T13:48:01.320Z</time>
      </trkpt>
      <trkpt lat="42.53323833" lon="1.59250833">
        <ele>1450.0</ele>
        <time>2019-08-04T13:48:02.335Z</time>
      </trkpt>
      <trkpt lat="42.53325833" lon="1.592515">
        <ele>1450.0</ele>
        <time>2019-08-04T13:48:03.324Z</time>
      </trkpt>
      <trkpt lat="42.53325833" lon="1.592515">
        <ele>1450.0</ele>
        <time>2019-08-04T13:48:04.301Z</time>
      </trkpt>
      <trkpt lat="42.5333" lon="1.59253333">
        <ele>1449.0</ele>
        <time>2019-08-04T13:48:05.323Z</time>
      </trkpt>
      <trkpt lat="42.5333" lon="1.59253333">
        <ele>1449.0</ele>
        <time>2019-08-04T13:48:06.316Z</time>
      </trkpt>
      <trkpt lat="42.53333833" lon="1.592545">
        <ele>1450.0</ele>
        <time>2019-08-04T13:48:07.319Z</time>
      </trkpt>
      <trkpt lat="42.53333833" lon="1.592545">
        <ele>1450.0</ele>
        <time>2019-08-04T13:48:08.335Z</time>
      </trkpt>
      <trkpt lat="42.53337667" lon="1.59255167">
        <ele>1451.0</ele>
        <time>2019-08-04T13:48:09.324Z</time>
      </trkpt>
      <trkpt lat="42.53337667" lon="1.59255167">
        <ele>1451.0</ele>
        <time>2019-08-04T13:48:10.317Z</time>
      </trkpt>
      <trkpt lat="42.53337667" lon="1.59255167">
        <ele>1451.0</ele>
        <time>2019-08-04T13:48:11.297Z</time>
      </trkpt>
      <trkpt lat="42.533435" lon="1.59255333">
        <ele>1451.0</ele>
        <time>2019-08-04T13:48:12.322Z</time>
      </trkpt>
      <trkpt lat="42.53345333" lon="1.59255333">
        <ele>1451.0</ele>
        <time>2019-08-04T13:48:13.319Z</time>
      </trkpt>
      <trkpt lat="42.53345333" lon="1.59255333">
        <ele>1451.0</ele>
        <time>2019-08-04T13:48:14.335Z</time>
      </trkpt>
      <trkpt lat="42.53348833" lon="1.59255333">
        <ele>1452.0</ele>
        <time>2019-08-04T13:48:15.323Z</time>
      </trkpt>
      <trkpt lat="42.53348833" lon="1.59255333">
        <ele>1452.0</ele>
        <time>2019-08-04T13:48:16.314Z</time>
      </trkpt>
      <trkpt lat="42.53352167" lon="1.59254167">
        <ele>1452.0</ele>
        <time>2019-08-04T13:48:17.335Z</time>
      </trkpt>
      <trkpt lat="42.53352167" lon="1.59254167">
        <ele>1452.0</ele>
        <time>2019-08-04T13:48:18.318Z</time>
      </trkpt>
      <trkpt lat="42.53356167" lon="1.59253">
        <ele>1452.0</ele>
        <time>2019-08-04T13:48:19.320Z</time>
      </trkpt>
      <trkpt lat="42.53356167" lon="1.59253">
        <ele>1452.0</ele>
        <time>2019-08-04T13:48:20.296Z</time>
      </trkpt>
      <trkpt lat="42.53356167" lon="1.59253">
        <ele>1452.0</ele>
        <time>2019-08-04T13:48:21.522Z</time>
      </trkpt>
      <trkpt lat="42.5336" lon="1.59251">
        <ele>1453.0</ele>
        <time>2019-08-04T13:48:22.335Z</time>
      </trkpt>
      <trkpt lat="42.533635" lon="1.59248333">
        <ele>1453.0</ele>
        <time>2019-08-04T13:48:23.302Z</time>
      </trkpt>
      <trkpt lat="42.533635" lon="1.59248333">
        <ele>1453.0</ele>
        <time>2019-08-04T13:48:24.310Z</time>
      </trkpt>
      <trkpt lat="42.53366833" lon="1.59246">
        <ele>1453.0</ele>
        <time>2019-08-04T13:48:25.324Z</time>
      </trkpt>
      <trkpt lat="42.53368167" lon="1.59244333">
        <ele>1453.0</ele>
        <time>2019-08-04T13:48:26.301Z</time>
      </trkpt>
      <trkpt lat="42.53368167" lon="1.59244333">
        <ele>1453.0</ele>
        <time>2019-08-04T13:48:27.319Z</time>
      </trkpt>
      <trkpt lat="42.53371167" lon="1.59242167">
        <ele>1454.0</ele>
        <time>2019-08-04T13:48:28.319Z</time>
      </trkpt>
      <trkpt lat="42.53371167" lon="1.59242167">
        <ele>1454.0</ele>
        <time>2019-08-04T13:48:29.315Z</time>
      </trkpt>
      <trkpt lat="42.53374" lon="1.59239667">
        <ele>1454.0</ele>
        <time>2019-08-04T13:48:30.299Z</time>
      </trkpt>
      <trkpt lat="42.53375667" lon="1.592385">
        <ele>1454.0</ele>
        <time>2019-08-04T13:48:31.331Z</time>
      </trkpt>
      <trkpt lat="42.53375667" lon="1.592385">
        <ele>1454.0</ele>
        <time>2019-08-04T13:48:32.319Z</time>
      </trkpt>
      <trkpt lat="42.53379167" lon="1.59236167">
        <ele>1454.0</ele>
        <time>2019-08-04T13:48:33.324Z</time>
      </trkpt>
      <trkpt lat="42.53379167" lon="1.59236167">
        <ele>1454.0</ele>
        <time>2019-08-04T13:48:34.310Z</time>
      </trkpt>
      <trkpt lat="42.53382667" lon="1.59233833">
        <ele>1455.0</ele>
        <time>2019-08-04T13:48:35.331Z</time>
      </trkpt>
      <trkpt lat="42.53382667" lon="1.59233833">
        <ele>1455.0</ele>
        <time>2019-08-04T13:48:36.320Z</time>
      </trkpt>
      <trkpt lat="42.53385833" lon="1.59231333">
        <ele>1455.0</ele>
        <time>2019-08-04T13:48:37.319Z</time>
      </trkpt>
      <trkpt lat="42.53385833" lon="1.59231333">
        <ele>1455.0</ele>
        <time>2019-08-04T13:48:38.335Z</time>
      </trkpt>
      <trkpt lat="42.53389" lon="1.59228833">
        <ele>1456.0</ele>
        <time>2019-08-04T13:48:39.325Z</time>
      </trkpt>
      <trkpt lat="42.53389" lon="1.59228833">
        <ele>1456.0</ele>
        <time>2019-08-04T13:48:40.310Z</time>
      </trkpt>
      <trkpt lat="42.53389" lon="1.59228833">
        <ele>1456.0</ele>
        <time>2019-08-04T13:48:41.512Z</time>
      </trkpt>
      <trkpt lat="42.53391667" lon="1.59226333">
        <ele>1456.0</ele>
        <time>2019-08-04T13:48:42.299Z</time>
      </trkpt>
      <trkpt lat="42.53394667" lon="1.59224833">
        <ele>1457.0</ele>
        <time>2019-08-04T13:48:43.323Z</time>
      </trkpt>
      <trkpt lat="42.53394667" lon="1.59224833">
        <ele>1457.0</ele>
        <time>2019-08-04T13:48:44.301Z</time>
      </trkpt>
      <trkpt lat="42.53397333" lon="1.59222667">
        <ele>1458.0</ele>
        <time>2019-08-04T13:48:45.324Z</time>
      </trkpt>
      <trkpt lat="42.53397333" lon="1.59222667">
        <ele>1458.0</ele>
        <time>2019-08-04T13:48:46.313Z</time>
      </trkpt>
      <trkpt lat="42.53400333" lon="1.59221167">
        <ele>1458.0</ele>
        <time>2019-08-04T13:48:47.332Z</time>
      </trkpt>
      <trkpt lat="42.53400333" lon="1.59221167">
        <ele>1458.0</ele>
        <time>2019-08-04T13:48:48.319Z</time>
      </trkpt>
      <trkpt lat="42.53403667" lon="1.59220667">
        <ele>1459.0</ele>
        <time>2019-08-04T13:48:49.324Z</time>
      </trkpt>
      <trkpt lat="42.53403667" lon="1.59220667">
        <ele>1459.0</ele>
        <time>2019-08-04T13:48:50.318Z</time>
      </trkpt>
      <trkpt lat="42.53407" lon="1.59220667">
        <ele>1459.0</ele>
        <time>2019-08-04T13:48:51.322Z</time>
      </trkpt>
      <trkpt lat="42.53407" lon="1.59220667">
        <ele>1459.0</ele>
        <time>2019-08-04T13:48:52.297Z</time>
      </trkpt>
      <trkpt lat="42.53410167" lon="1.59220833">
        <ele>1459.0</ele>
        <time>2019-08-04T13:48:53.322Z</time>
      </trkpt>
      <trkpt lat="42.53410167" lon="1.59220833">
        <ele>1459.0</ele>
        <time>2019-08-04T13:48:54.314Z</time>
      </trkpt>
      <trkpt lat="42.53410167" lon="1.59220833">
        <ele>1459.0</ele>
        <time>2019-08-04T13:48:55.320Z</time>
      </trkpt>
      <trkpt lat="42.53413333" lon="1.59221833">
        <ele>1459.0</ele>
        <time>2019-08-04T13:48:56.322Z</time>
      </trkpt>
      <trkpt lat="42.53416167" lon="1.592235">
        <ele>1459.0</ele>
        <time>2019-08-04T13:48:57.297Z</time>
      </trkpt>
      <trkpt lat="42.53416167" lon="1.592235">
        <ele>1459.0</ele>
        <time>2019-08-04T13:48:58.317Z</time>
      </trkpt>
      <trkpt lat="42.53419" lon="1.59225">
        <ele>1459.0</ele>
        <time>2019-08-04T13:48:59.323Z</time>
      </trkpt>
      <trkpt lat="42.53419" lon="1.59225">
        <ele>1459.0</ele>
        <time>2019-08-04T13:49:00.319Z</time>
      </trkpt>
      <trkpt lat="42.53421667" lon="1.59227167">
        <ele>1459.0</ele>
        <time>2019-08-04T13:49:01.321Z</time>
      </trkpt>
      <trkpt lat="42.53421667" lon="1.59227167">
        <ele>1459.0</ele>
        <time>2019-08-04T13:49:02.319Z</time>
      </trkpt>
      <trkpt lat="42.53423333" lon="1.59230667">
        <ele>1459.0</ele>
        <time>2019-08-04T13:49:03.324Z</time>
      </trkpt>
      <trkpt lat="42.53423333" lon="1.59230667">
        <ele>1459.0</ele>
        <time>2019-08-04T13:49:04.319Z</time>
      </trkpt>
      <trkpt lat="42.53424833" lon="1.59234333">
        <ele>1460.0</ele>
        <time>2019-08-04T13:49:05.323Z</time>
      </trkpt>
      <trkpt lat="42.53424833" lon="1.59234333">
        <ele>1460.0</ele>
        <time>2019-08-04T13:49:06.320Z</time>
      </trkpt>
      <trkpt lat="42.53426833" lon="1.59237833">
        <ele>1460.0</ele>
        <time>2019-08-04T13:49:07.321Z</time>
      </trkpt>
      <trkpt lat="42.53427667" lon="1.59239667">
        <ele>1461.0</ele>
        <time>2019-08-04T13:49:08.297Z</time>
      </trkpt>
      <trkpt lat="42.53427667" lon="1.59239667">
        <ele>1461.0</ele>
        <time>2019-08-04T13:49:09.318Z</time>
      </trkpt>
      <trkpt lat="42.53429167" lon="1.59243667">
        <ele>1461.0</ele>
        <time>2019-08-04T13:49:10.319Z</time>
      </trkpt>
      <trkpt lat="42.53429167" lon="1.59243667">
        <ele>1461.0</ele>
        <time>2019-08-04T13:49:11.300Z</time>
      </trkpt>
      <trkpt lat="42.5343" lon="1.592455">
        <ele>1461.0</ele>
        <time>2019-08-04T13:49:12.315Z</time>
      </trkpt>
      <trkpt lat="42.53432" lon="1.59249333">
        <ele>1461.0</ele>
        <time>2019-08-04T13:49:13.336Z</time>
      </trkpt>
      <trkpt lat="42.53433" lon="1.59251">
        <ele>1461.0</ele>
        <time>2019-08-04T13:49:14.319Z</time>
      </trkpt>
      <trkpt lat="42.53434167" lon="1.59252667">
        <ele>1461.0</ele>
        <time>2019-08-04T13:49:15.324Z</time>
      </trkpt>
      <trkpt lat="42.53434167" lon="1.59252667">
        <ele>1461.0</ele>
        <time>2019-08-04T13:49:16.316Z</time>
      </trkpt>
      <trkpt lat="42.53436167" lon="1.59256333">
        <ele>1462.0</ele>
        <time>2019-08-04T13:49:17.323Z</time>
      </trkpt>
      <trkpt lat="42.53436167" lon="1.59256333">
        <ele>1462.0</ele>
        <time>2019-08-04T13:49:18.310Z</time>
      </trkpt>
      <trkpt lat="42.53438167" lon="1.59259833">
        <ele>1463.0</ele>
        <time>2019-08-04T13:49:19.332Z</time>
      </trkpt>
      <trkpt lat="42.53438167" lon="1.59259833">
        <ele>1463.0</ele>
        <time>2019-08-04T13:49:20.319Z</time>
      </trkpt>
      <trkpt lat="42.53439667" lon="1.59263667">
        <ele>1463.0</ele>
        <time>2019-08-04T13:49:21.332Z</time>
      </trkpt>
      <trkpt lat="42.53439667" lon="1.59263667">
        <ele>1463.0</ele>
        <time>2019-08-04T13:49:22.316Z</time>
      </trkpt>
      <trkpt lat="42.53442" lon="1.59267">
        <ele>1463.0</ele>
        <time>2019-08-04T13:49:23.323Z</time>
      </trkpt>
      <trkpt lat="42.53442" lon="1.59267">
        <ele>1463.0</ele>
        <time>2019-08-04T13:49:24.319Z</time>
      </trkpt>
      <trkpt lat="42.534445" lon="1.592705">
        <ele>1463.0</ele>
        <time>2019-08-04T13:49:25.319Z</time>
      </trkpt>
      <trkpt lat="42.534455" lon="1.592725">
        <ele>1464.0</ele>
        <time>2019-08-04T13:49:26.335Z</time>
      </trkpt>
      <trkpt lat="42.534455" lon="1.592725">
        <ele>1464.0</ele>
        <time>2019-08-04T13:49:27.319Z</time>
      </trkpt>
      <trkpt lat="42.53447667" lon="1.59276167">
        <ele>1464.0</ele>
        <time>2019-08-04T13:49:28.320Z</time>
      </trkpt>
      <trkpt lat="42.53447667" lon="1.59276167">
        <ele>1464.0</ele>
        <time>2019-08-04T13:49:29.331Z</time>
      </trkpt>
      <trkpt lat="42.53450167" lon="1.59278333">
        <ele>1464.0</ele>
        <time>2019-08-04T13:49:30.312Z</time>
      </trkpt>
      <trkpt lat="42.53451667" lon="1.592785">
        <ele>1464.0</ele>
        <time>2019-08-04T13:49:31.322Z</time>
      </trkpt>
      <trkpt lat="42.53453" lon="1.592785">
        <ele>1464.0</ele>
        <time>2019-08-04T13:49:32.320Z</time>
      </trkpt>
      <trkpt lat="42.534545" lon="1.59279333">
        <ele>1464.0</ele>
        <time>2019-08-04T13:49:33.335Z</time>
      </trkpt>
      <trkpt lat="42.534545" lon="1.59279333">
        <ele>1464.0</ele>
        <time>2019-08-04T13:49:34.319Z</time>
      </trkpt>
      <trkpt lat="42.534565" lon="1.59282333">
        <ele>1465.0</ele>
        <time>2019-08-04T13:49:35.322Z</time>
      </trkpt>
      <trkpt lat="42.534565" lon="1.59282333">
        <ele>1465.0</ele>
        <time>2019-08-04T13:49:36.308Z</time>
      </trkpt>
      <trkpt lat="42.53458167" lon="1.59286167">
        <ele>1465.0</ele>
        <time>2019-08-04T13:49:37.332Z</time>
      </trkpt>
      <trkpt lat="42.53458167" lon="1.59286167">
        <ele>1465.0</ele>
        <time>2019-08-04T13:49:38.317Z</time>
      </trkpt>
      <trkpt lat="42.53460667" lon="1.592895">
        <ele>1465.0</ele>
        <time>2019-08-04T13:49:39.297Z</time>
      </trkpt>
      <trkpt lat="42.53460667" lon="1.592895">
        <ele>1465.0</ele>
        <time>2019-08-04T13:49:40.317Z</time>
      </trkpt>
      <trkpt lat="42.53460667" lon="1.592895">
        <ele>1465.0</ele>
        <time>2019-08-04T13:49:41.510Z</time>
      </trkpt>
      <trkpt lat="42.53464833" lon="1.59294">
        <ele>1465.0</ele>
        <time>2019-08-04T13:49:42.324Z</time>
      </trkpt>
      <trkpt lat="42.53464833" lon="1.59294">
        <ele>1465.0</ele>
        <time>2019-08-04T13:49:43.318Z</time>
      </trkpt>
      <trkpt lat="42.53468" lon="1.59296833">
        <ele>1466.0</ele>
        <time>2019-08-04T13:49:44.323Z</time>
      </trkpt>
      <trkpt lat="42.534695" lon="1.59298">
        <ele>1466.0</ele>
        <time>2019-08-04T13:49:45.323Z</time>
      </trkpt>
      <trkpt lat="42.534695" lon="1.59298">
        <ele>1466.0</ele>
        <time>2019-08-04T13:49:46.315Z</time>
      </trkpt>
      <trkpt lat="42.534725" lon="1.59300667">
        <ele>1466.0</ele>
        <time>2019-08-04T13:49:47.296Z</time>
      </trkpt>
      <trkpt lat="42.534725" lon="1.59300667">
        <ele>1466.0</ele>
        <time>2019-08-04T13:49:48.323Z</time>
      </trkpt>
      <trkpt lat="42.53475333" lon="1.59303333">
        <ele>1466.0</ele>
        <time>2019-08-04T13:49:49.320Z</time>
      </trkpt>
      <trkpt lat="42.53475333" lon="1.59303333">
        <ele>1466.0</ele>
        <time>2019-08-04T13:49:50.297Z</time>
      </trkpt>
      <trkpt lat="42.53478167" lon="1.593065">
        <ele>1467.0</ele>
        <time>2019-08-04T13:49:51.332Z</time>
      </trkpt>
      <trkpt lat="42.53478167" lon="1.593065">
        <ele>1467.0</ele>
        <time>2019-08-04T13:49:52.317Z</time>
      </trkpt>
      <trkpt lat="42.53480667" lon="1.59309833">
        <ele>1467.0</ele>
        <time>2019-08-04T13:49:53.297Z</time>
      </trkpt>
      <trkpt lat="42.53480667" lon="1.59309833">
        <ele>1467.0</ele>
        <time>2019-08-04T13:49:54.321Z</time>
      </trkpt>
      <trkpt lat="42.53482833" lon="1.59313167">
        <ele>1467.0</ele>
        <time>2019-08-04T13:49:55.323Z</time>
      </trkpt>
      <trkpt lat="42.53482833" lon="1.59313167">
        <ele>1467.0</ele>
        <time>2019-08-04T13:49:56.310Z</time>
      </trkpt>
      <trkpt lat="42.53484833" lon="1.59316333">
        <ele>1467.0</ele>
        <time>2019-08-04T13:49:57.332Z</time>
      </trkpt>
      <trkpt lat="42.53484833" lon="1.59316333">
        <ele>1467.0</ele>
        <time>2019-08-04T13:49:58.316Z</time>
      </trkpt>
      <trkpt lat="42.53484833" lon="1.59316333">
        <ele>1467.0</ele>
        <time>2019-08-04T13:49:59.296Z</time>
      </trkpt>
      <trkpt lat="42.53487167" lon="1.59319333">
        <ele>1468.0</ele>
        <time>2019-08-04T13:50:00.317Z</time>
      </trkpt>
      <trkpt lat="42.53489667" lon="1.59322333">
        <ele>1468.0</ele>
        <time>2019-08-04T13:50:01.299Z</time>
      </trkpt>
      <trkpt lat="42.53490833" lon="1.59323833">
        <ele>1469.0</ele>
        <time>2019-08-04T13:50:02.333Z</time>
      </trkpt>
      <trkpt lat="42.53492167" lon="1.59325333">
        <ele>1469.0</ele>
        <time>2019-08-04T13:50:03.323Z</time>
      </trkpt>
      <trkpt lat="42.53492167" lon="1.59325333">
        <ele>1469.0</ele>
        <time>2019-08-04T13:50:04.316Z</time>
      </trkpt>
      <trkpt lat="42.53495167" lon="1.59327667">
        <ele>1469.0</ele>
        <time>2019-08-04T13:50:05.297Z</time>
      </trkpt>
      <trkpt lat="42.53497" lon="1.59328833">
        <ele>1470.0</ele>
        <time>2019-08-04T13:50:06.320Z</time>
      </trkpt>
      <trkpt lat="42.53497" lon="1.59328833">
        <ele>1470.0</ele>
        <time>2019-08-04T13:50:07.335Z</time>
      </trkpt>
      <trkpt lat="42.53500333" lon="1.59331333">
        <ele>1470.0</ele>
        <time>2019-08-04T13:50:08.319Z</time>
      </trkpt>
      <trkpt lat="42.53502167" lon="1.59332667">
        <ele>1470.0</ele>
        <time>2019-08-04T13:50:09.334Z</time>
      </trkpt>
      <trkpt lat="42.53502167" lon="1.59332667">
        <ele>1470.0</ele>
        <time>2019-08-04T13:50:10.316Z</time>
      </trkpt>
      <trkpt lat="42.53505333" lon="1.59335333">
        <ele>1471.0</ele>
        <time>2019-08-04T13:50:11.321Z</time>
      </trkpt>
      <trkpt lat="42.53506833" lon="1.593365">
        <ele>1471.0</ele>
        <time>2019-08-04T13:50:12.319Z</time>
      </trkpt>
      <trkpt lat="42.53506833" lon="1.593365">
        <ele>1471.0</ele>
        <time>2019-08-04T13:50:13.296Z</time>
      </trkpt>
      <trkpt lat="42.5351" lon="1.59338833">
        <ele>1471.0</ele>
        <time>2019-08-04T13:50:14.323Z</time>
      </trkpt>
      <trkpt lat="42.5351" lon="1.59338833">
        <ele>1471.0</ele>
        <time>2019-08-04T13:50:15.298Z</time>
      </trkpt>
      <trkpt lat="42.53512667" lon="1.59341167">
        <ele>1471.0</ele>
        <time>2019-08-04T13:50:16.319Z</time>
      </trkpt>
      <trkpt lat="42.53512667" lon="1.59341167">
        <ele>1471.0</ele>
        <time>2019-08-04T13:50:17.316Z</time>
      </trkpt>
      <trkpt lat="42.53515167" lon="1.59344333">
        <ele>1472.0</ele>
        <time>2019-08-04T13:50:18.296Z</time>
      </trkpt>
      <trkpt lat="42.53516" lon="1.593465">
        <ele>1472.0</ele>
        <time>2019-08-04T13:50:19.323Z</time>
      </trkpt>
      <trkpt lat="42.53516" lon="1.593465">
        <ele>1472.0</ele>
        <time>2019-08-04T13:50:20.317Z</time>
      </trkpt>
      <trkpt lat="42.53514833" lon="1.59350167">
        <ele>1472.0</ele>
        <time>2019-08-04T13:50:21.304Z</time>
      </trkpt>
      <trkpt lat="42.53514833" lon="1.59350167">
        <ele>1472.0</ele>
        <time>2019-08-04T13:50:22.316Z</time>
      </trkpt>
      <trkpt lat="42.53512333" lon="1.59352333">
        <ele>1473.0</ele>
        <time>2019-08-04T13:50:23.301Z</time>
      </trkpt>
      <trkpt lat="42.53512333" lon="1.59352333">
        <ele>1473.0</ele>
        <time>2019-08-04T13:50:24.319Z</time>
      </trkpt>
      <trkpt lat="42.53508333" lon="1.59353">
        <ele>1473.0</ele>
        <time>2019-08-04T13:50:25.319Z</time>
      </trkpt>
      <trkpt lat="42.53508333" lon="1.59353">
        <ele>1473.0</ele>
        <time>2019-08-04T13:50:26.334Z</time>
      </trkpt>
      <trkpt lat="42.53504833" lon="1.59353833">
        <ele>1473.0</ele>
        <time>2019-08-04T13:50:27.318Z</time>
      </trkpt>
      <trkpt lat="42.53503167" lon="1.59353667">
        <ele>1474.0</ele>
        <time>2019-08-04T13:50:28.334Z</time>
      </trkpt>
      <trkpt lat="42.53503167" lon="1.59353667">
        <ele>1474.0</ele>
        <time>2019-08-04T13:50:29.331Z</time>
      </trkpt>
      <trkpt lat="42.535" lon="1.59352667">
        <ele>1474.0</ele>
        <time>2019-08-04T13:50:30.312Z</time>
      </trkpt>
      <trkpt lat="42.53497833" lon="1.59352833">
        <ele>1474.0</ele>
        <time>2019-08-04T13:50:31.317Z</time>
      </trkpt>
      <trkpt lat="42.53497833" lon="1.59352833">
        <ele>1474.0</ele>
        <time>2019-08-04T13:50:32.323Z</time>
      </trkpt>
      <trkpt lat="42.53493667" lon="1.59351833">
        <ele>1474.0</ele>
        <time>2019-08-04T13:50:33.322Z</time>
      </trkpt>
      <trkpt lat="42.53493667" lon="1.59351833">
        <ele>1474.0</ele>
        <time>2019-08-04T13:50:34.317Z</time>
      </trkpt>
      <trkpt lat="42.53493667" lon="1.59351833">
        <ele>1474.0</ele>
        <time>2019-08-04T13:50:35.298Z</time>
      </trkpt>
      <trkpt lat="42.534905" lon="1.59350167">
        <ele>1474.0</ele>
        <time>2019-08-04T13:50:36.316Z</time>
      </trkpt>
      <trkpt lat="42.53488" lon="1.59349167">
        <ele>1475.0</ele>
        <time>2019-08-04T13:50:37.314Z</time>
      </trkpt>
      <trkpt lat="42.53486833" lon="1.59348333">
        <ele>1475.0</ele>
        <time>2019-08-04T13:50:38.331Z</time>
      </trkpt>
      <trkpt lat="42.53485833" lon="1.59347167">
        <ele>1475.0</ele>
        <time>2019-08-04T13:50:39.325Z</time>
      </trkpt>
      <trkpt lat="42.53485833" lon="1.59347167">
        <ele>1475.0</ele>
        <time>2019-08-04T13:50:40.317Z</time>
      </trkpt>
      <trkpt lat="42.53485833" lon="1.59347167">
        <ele>1475.0</ele>
        <time>2019-08-04T13:50:41.298Z</time>
      </trkpt>
      <trkpt lat="42.53480667" lon="1.593435">
        <ele>1476.0</ele>
        <time>2019-08-04T13:50:42.319Z</time>
      </trkpt>
      <trkpt lat="42.53480667" lon="1.593435">
        <ele>1476.0</ele>
        <time>2019-08-04T13:50:43.296Z</time>
      </trkpt>
      <trkpt lat="42.53477833" lon="1.593405">
        <ele>1476.0</ele>
        <time>2019-08-04T13:50:44.321Z</time>
      </trkpt>
      <trkpt lat="42.53476167" lon="1.59339">
        <ele>1477.0</ele>
        <time>2019-08-04T13:50:45.323Z</time>
      </trkpt>
      <trkpt lat="42.53476167" lon="1.59339">
        <ele>1477.0</ele>
        <time>2019-08-04T13:50:46.317Z</time>
      </trkpt>
      <trkpt lat="42.53473" lon="1.59336167">
        <ele>1477.0</ele>
        <time>2019-08-04T13:50:47.305Z</time>
      </trkpt>
      <trkpt lat="42.53471333" lon="1.59335167">
        <ele>1478.0</ele>
        <time>2019-08-04T13:50:48.324Z</time>
      </trkpt>
      <trkpt lat="42.53471333" lon="1.59335167">
        <ele>1478.0</ele>
        <time>2019-08-04T13:50:49.319Z</time>
      </trkpt>
      <trkpt lat="42.53468" lon="1.59333167">
        <ele>1478.0</ele>
        <time>2019-08-04T13:50:50.319Z</time>
      </trkpt>
      <trkpt lat="42.53468" lon="1.59333167">
        <ele>1478.0</ele>
        <time>2019-08-04T13:50:51.300Z</time>
      </trkpt>
      <trkpt lat="42.53466333" lon="1.59332">
        <ele>1478.0</ele>
        <time>2019-08-04T13:50:52.298Z</time>
      </trkpt>
      <trkpt lat="42.53463" lon="1.59329833">
        <ele>1479.0</ele>
        <time>2019-08-04T13:50:53.322Z</time>
      </trkpt>
      <trkpt lat="42.53463" lon="1.59329833">
        <ele>1479.0</ele>
        <time>2019-08-04T13:50:54.316Z</time>
      </trkpt>
      <trkpt lat="42.53459667" lon="1.59328">
        <ele>1479.0</ele>
        <time>2019-08-04T13:50:55.296Z</time>
      </trkpt>
      <trkpt lat="42.53459667" lon="1.59328">
        <ele>1479.0</ele>
        <time>2019-08-04T13:50:56.316Z</time>
      </trkpt>
      <trkpt lat="42.53459667" lon="1.59328">
        <ele>1479.0</ele>
        <time>2019-08-04T13:50:57.311Z</time>
      </trkpt>
      <trkpt lat="42.53456667" lon="1.59326">
        <ele>1480.0</ele>
        <time>2019-08-04T13:50:58.316Z</time>
      </trkpt>
      <trkpt lat="42.53453167" lon="1.59324167">
        <ele>1481.0</ele>
        <time>2019-08-04T13:50:59.298Z</time>
      </trkpt>
      <trkpt lat="42.53453167" lon="1.59324167">
        <ele>1481.0</ele>
        <time>2019-08-04T13:51:00.317Z</time>
      </trkpt>
      <trkpt lat="42.53453167" lon="1.59324167">
        <ele>1481.0</ele>
        <time>2019-08-04T13:51:01.298Z</time>
      </trkpt>
      <trkpt lat="42.53450167" lon="1.59322667">
        <ele>1481.0</ele>
        <time>2019-08-04T13:51:02.324Z</time>
      </trkpt>
      <trkpt lat="42.53447167" lon="1.593205">
        <ele>1482.0</ele>
        <time>2019-08-04T13:51:03.324Z</time>
      </trkpt>
      <trkpt lat="42.53447167" lon="1.593205">
        <ele>1482.0</ele>
        <time>2019-08-04T13:51:04.316Z</time>
      </trkpt>
      <trkpt lat="42.53443333" lon="1.59318833">
        <ele>1482.0</ele>
        <time>2019-08-04T13:51:05.296Z</time>
      </trkpt>
      <trkpt lat="42.53441667" lon="1.59318">
        <ele>1483.0</ele>
        <time>2019-08-04T13:51:06.321Z</time>
      </trkpt>
      <trkpt lat="42.53439833" lon="1.59317">
        <ele>1483.0</ele>
        <time>2019-08-04T13:51:07.297Z</time>
      </trkpt>
      <trkpt lat="42.53439833" lon="1.59317">
        <ele>1483.0</ele>
        <time>2019-08-04T13:51:08.316Z</time>
      </trkpt>
      <trkpt lat="42.53436333" lon="1.59315167">
        <ele>1483.0</ele>
        <time>2019-08-04T13:51:09.296Z</time>
      </trkpt>
      <trkpt lat="42.53436333" lon="1.59315167">
        <ele>1483.0</ele>
        <time>2019-08-04T13:51:10.316Z</time>
      </trkpt>
      <trkpt lat="42.53436333" lon="1.59315167">
        <ele>1483.0</ele>
        <time>2019-08-04T13:51:11.310Z</time>
      </trkpt>
      <trkpt lat="42.53431333" lon="1.593135">
        <ele>1484.0</ele>
        <time>2019-08-04T13:51:12.320Z</time>
      </trkpt>
      <trkpt lat="42.53431333" lon="1.593135">
        <ele>1484.0</ele>
        <time>2019-08-04T13:51:13.296Z</time>
      </trkpt>
      <trkpt lat="42.53427833" lon="1.593125">
        <ele>1485.0</ele>
        <time>2019-08-04T13:51:14.319Z</time>
      </trkpt>
      <trkpt lat="42.53426167" lon="1.593115">
        <ele>1485.0</ele>
        <time>2019-08-04T13:51:15.297Z</time>
      </trkpt>
      <trkpt lat="42.53426167" lon="1.593115">
        <ele>1485.0</ele>
        <time>2019-08-04T13:51:16.316Z</time>
      </trkpt>
      <trkpt lat="42.53422333" lon="1.5931">
        <ele>1486.0</ele>
        <time>2019-08-04T13:51:17.298Z</time>
      </trkpt>
      <trkpt lat="42.534205" lon="1.59309">
        <ele>1486.0</ele>
        <time>2019-08-04T13:51:18.320Z</time>
      </trkpt>
      <trkpt lat="42.534205" lon="1.59309">
        <ele>1486.0</ele>
        <time>2019-08-04T13:51:19.297Z</time>
      </trkpt>
      <trkpt lat="42.534175" lon="1.59306833">
        <ele>1487.0</ele>
        <time>2019-08-04T13:51:20.323Z</time>
      </trkpt>
      <trkpt lat="42.534175" lon="1.59306833">
        <ele>1487.0</ele>
        <time>2019-08-04T13:51:21.308Z</time>
      </trkpt>
      <trkpt lat="42.53414833" lon="1.59304">
        <ele>1488.0</ele>
        <time>2019-08-04T13:51:22.302Z</time>
      </trkpt>
      <trkpt lat="42.534135" lon="1.593025">
        <ele>1488.0</ele>
        <time>2019-08-04T13:51:23.323Z</time>
      </trkpt>
      <trkpt lat="42.534135" lon="1.593025">
        <ele>1488.0</ele>
        <time>2019-08-04T13:51:24.317Z</time>
      </trkpt>
      <trkpt lat="42.534105" lon="1.59300167">
        <ele>1488.0</ele>
        <time>2019-08-04T13:51:25.298Z</time>
      </trkpt>
      <trkpt lat="42.534105" lon="1.59300167">
        <ele>1488.0</ele>
        <time>2019-08-04T13:51:26.317Z</time>
      </trkpt>
      <trkpt lat="42.53407167" lon="1.59298833">
        <ele>1489.0</ele>
        <time>2019-08-04T13:51:27.296Z</time>
      </trkpt>
      <trkpt lat="42.53407167" lon="1.59298833">
        <ele>1489.0</ele>
        <time>2019-08-04T13:51:28.324Z</time>
      </trkpt>
      <trkpt lat="42.53403333" lon="1.59298167">
        <ele>1489.0</ele>
        <time>2019-08-04T13:51:29.333Z</time>
      </trkpt>
      <trkpt lat="42.53401667" lon="1.59297667">
        <ele>1490.0</ele>
        <time>2019-08-04T13:51:30.311Z</time>
      </trkpt>
      <trkpt lat="42.53401667" lon="1.59297667">
        <ele>1490.0</ele>
        <time>2019-08-04T13:51:31.316Z</time>
      </trkpt>
      <trkpt lat="42.533975" lon="1.59298167">
        <ele>1490.0</ele>
        <time>2019-08-04T13:51:32.332Z</time>
      </trkpt>
      <trkpt lat="42.533955" lon="1.59299167">
        <ele>1491.0</ele>
        <time>2019-08-04T13:51:33.324Z</time>
      </trkpt>
      <trkpt lat="42.533955" lon="1.59299167">
        <ele>1491.0</ele>
        <time>2019-08-04T13:51:34.328Z</time>
      </trkpt>
      <trkpt lat="42.53393" lon="1.59302833">
        <ele>1491.0</ele>
        <time>2019-08-04T13:51:35.323Z</time>
      </trkpt>
      <trkpt lat="42.53393" lon="1.59302833">
        <ele>1491.0</ele>
        <time>2019-08-04T13:51:36.298Z</time>
      </trkpt>
      <trkpt lat="42.53390333" lon="1.59306833">
        <ele>1492.0</ele>
        <time>2019-08-04T13:51:37.323Z</time>
      </trkpt>
      <trkpt lat="42.53390333" lon="1.59306833">
        <ele>1492.0</ele>
        <time>2019-08-04T13:51:38.318Z</time>
      </trkpt>
      <trkpt lat="42.53390333" lon="1.59306833">
        <ele>1492.0</ele>
        <time>2019-08-04T13:51:39.491Z</time>
      </trkpt>
      <trkpt lat="42.53387833" lon="1.5931">
        <ele>1492.0</ele>
        <time>2019-08-04T13:51:40.319Z</time>
      </trkpt>
      <trkpt lat="42.53387833" lon="1.59314333">
        <ele>1493.0</ele>
        <time>2019-08-04T13:51:41.325Z</time>
      </trkpt>
      <trkpt lat="42.53387833" lon="1.59314333">
        <ele>1493.0</ele>
        <time>2019-08-04T13:51:42.331Z</time>
      </trkpt>
      <trkpt lat="42.53387833" lon="1.59318667">
        <ele>1493.0</ele>
        <time>2019-08-04T13:51:43.296Z</time>
      </trkpt>
      <trkpt lat="42.53387833" lon="1.59318667">
        <ele>1493.0</ele>
        <time>2019-08-04T13:51:44.317Z</time>
      </trkpt>
      <trkpt lat="42.533895" lon="1.59321833">
        <ele>1493.0</ele>
        <time>2019-08-04T13:51:45.335Z</time>
      </trkpt>
      <trkpt lat="42.533895" lon="1.59321833">
        <ele>1493.0</ele>
        <time>2019-08-04T13:51:46.325Z</time>
      </trkpt>
      <trkpt lat="42.53391333" lon="1.59325333">
        <ele>1494.0</ele>
        <time>2019-08-04T13:51:47.322Z</time>
      </trkpt>
      <trkpt lat="42.53392667" lon="1.59326333">
        <ele>1494.0</ele>
        <time>2019-08-04T13:51:48.320Z</time>
      </trkpt>
      <trkpt lat="42.53392667" lon="1.59326333">
        <ele>1494.0</ele>
        <time>2019-08-04T13:51:49.317Z</time>
      </trkpt>
      <trkpt lat="42.53395333" lon="1.59328667">
        <ele>1494.0</ele>
        <time>2019-08-04T13:51:50.321Z</time>
      </trkpt>
      <trkpt lat="42.53395333" lon="1.59328667">
        <ele>1494.0</ele>
        <time>2019-08-04T13:51:51.300Z</time>
      </trkpt>
      <trkpt lat="42.53396667" lon="1.5933">
        <ele>1494.0</ele>
        <time>2019-08-04T13:51:52.326Z</time>
      </trkpt>
      <trkpt lat="42.533995" lon="1.59332167">
        <ele>1495.0</ele>
        <time>2019-08-04T13:51:53.322Z</time>
      </trkpt>
      <trkpt lat="42.533995" lon="1.59332167">
        <ele>1495.0</ele>
        <time>2019-08-04T13:51:54.298Z</time>
      </trkpt>
      <trkpt lat="42.53403" lon="1.59333333">
        <ele>1495.0</ele>
        <time>2019-08-04T13:51:55.323Z</time>
      </trkpt>
      <trkpt lat="42.53403" lon="1.59333333">
        <ele>1495.0</ele>
        <time>2019-08-04T13:51:56.316Z</time>
      </trkpt>
      <trkpt lat="42.53406833" lon="1.59333333">
        <ele>1495.0</ele>
        <time>2019-08-04T13:51:57.296Z</time>
      </trkpt>
      <trkpt lat="42.53406833" lon="1.59333333">
        <ele>1495.0</ele>
        <time>2019-08-04T13:51:58.324Z</time>
      </trkpt>
      <trkpt lat="42.53410167" lon="1.593335">
        <ele>1495.0</ele>
        <time>2019-08-04T13:51:59.323Z</time>
      </trkpt>
      <trkpt lat="42.53410167" lon="1.593335">
        <ele>1495.0</ele>
        <time>2019-08-04T13:52:00.298Z</time>
      </trkpt>
      <trkpt lat="42.53413333" lon="1.59333833">
        <ele>1495.0</ele>
        <time>2019-08-04T13:52:01.331Z</time>
      </trkpt>
      <trkpt lat="42.53413333" lon="1.59333833">
        <ele>1495.0</ele>
        <time>2019-08-04T13:52:02.317Z</time>
      </trkpt>
      <trkpt lat="42.534165" lon="1.59334667">
        <ele>1496.0</ele>
        <time>2019-08-04T13:52:03.297Z</time>
      </trkpt>
      <trkpt lat="42.534165" lon="1.59334667">
        <ele>1496.0</ele>
        <time>2019-08-04T13:52:04.318Z</time>
      </trkpt>
      <trkpt lat="42.53419333" lon="1.59336333">
        <ele>1496.0</ele>
        <time>2019-08-04T13:52:05.322Z</time>
      </trkpt>
      <trkpt lat="42.53419333" lon="1.59336333">
        <ele>1496.0</ele>
        <time>2019-08-04T13:52:06.317Z</time>
      </trkpt>
      <trkpt lat="42.53421833" lon="1.59338333">
        <ele>1497.0</ele>
        <time>2019-08-04T13:52:07.297Z</time>
      </trkpt>
      <trkpt lat="42.53421833" lon="1.59338333">
        <ele>1497.0</ele>
        <time>2019-08-04T13:52:08.320Z</time>
      </trkpt>
      <trkpt lat="42.53424167" lon="1.59340833">
        <ele>1497.0</ele>
        <time>2019-08-04T13:52:09.323Z</time>
      </trkpt>
      <trkpt lat="42.53424167" lon="1.59340833">
        <ele>1497.0</ele>
        <time>2019-08-04T13:52:10.303Z</time>
      </trkpt>
      <trkpt lat="42.53426" lon="1.593435">
        <ele>1497.0</ele>
        <time>2019-08-04T13:52:11.332Z</time>
      </trkpt>
      <trkpt lat="42.53426167" lon="1.59345">
        <ele>1497.0</ele>
        <time>2019-08-04T13:52:12.324Z</time>
      </trkpt>
      <trkpt lat="42.53426167" lon="1.59345">
        <ele>1497.0</ele>
        <time>2019-08-04T13:52:13.318Z</time>
      </trkpt>
      <trkpt lat="42.53425333" lon="1.593495">
        <ele>1497.0</ele>
        <time>2019-08-04T13:52:14.298Z</time>
      </trkpt>
      <trkpt lat="42.53425667" lon="1.59351333">
        <ele>1498.0</ele>
        <time>2019-08-04T13:52:15.324Z</time>
      </trkpt>
      <trkpt lat="42.53425667" lon="1.59351333">
        <ele>1498.0</ele>
        <time>2019-08-04T13:52:16.317Z</time>
      </trkpt>
      <trkpt lat="42.53425" lon="1.59355333">
        <ele>1498.0</ele>
        <time>2019-08-04T13:52:17.298Z</time>
      </trkpt>
      <trkpt lat="42.53425" lon="1.59355333">
        <ele>1498.0</ele>
        <time>2019-08-04T13:52:18.319Z</time>
      </trkpt>
      <trkpt lat="42.53425333" lon="1.59359667">
        <ele>1498.0</ele>
        <time>2019-08-04T13:52:19.302Z</time>
      </trkpt>
      <trkpt lat="42.53425333" lon="1.59359667">
        <ele>1498.0</ele>
        <time>2019-08-04T13:52:20.325Z</time>
      </trkpt>
      <trkpt lat="42.53425667" lon="1.59364667">
        <ele>1498.0</ele>
        <time>2019-08-04T13:52:21.333Z</time>
      </trkpt>
      <trkpt lat="42.53425667" lon="1.59364667">
        <ele>1498.0</ele>
        <time>2019-08-04T13:52:22.301Z</time>
      </trkpt>
      <trkpt lat="42.534265" lon="1.593685">
        <ele>1498.0</ele>
        <time>2019-08-04T13:52:23.323Z</time>
      </trkpt>
      <trkpt lat="42.534265" lon="1.593685">
        <ele>1498.0</ele>
        <time>2019-08-04T13:52:24.319Z</time>
      </trkpt>
      <trkpt lat="42.534265" lon="1.59373333">
        <ele>1498.0</ele>
        <time>2019-08-04T13:52:25.334Z</time>
      </trkpt>
      <trkpt lat="42.534265" lon="1.59373333">
        <ele>1498.0</ele>
        <time>2019-08-04T13:52:26.317Z</time>
      </trkpt>
      <trkpt lat="42.53427" lon="1.59378">
        <ele>1498.0</ele>
        <time>2019-08-04T13:52:27.296Z</time>
      </trkpt>
      <trkpt lat="42.53427" lon="1.59378">
        <ele>1498.0</ele>
        <time>2019-08-04T13:52:28.318Z</time>
      </trkpt>
      <trkpt lat="42.53427333" lon="1.59383167">
        <ele>1498.0</ele>
        <time>2019-08-04T13:52:29.333Z</time>
      </trkpt>
      <trkpt lat="42.53427667" lon="1.593855">
        <ele>1498.0</ele>
        <time>2019-08-04T13:52:30.309Z</time>
      </trkpt>
      <trkpt lat="42.53427667" lon="1.593855">
        <ele>1498.0</ele>
        <time>2019-08-04T13:52:31.317Z</time>
      </trkpt>
      <trkpt lat="42.53428833" lon="1.59389333">
        <ele>1499.0</ele>
        <time>2019-08-04T13:52:32.333Z</time>
      </trkpt>
      <trkpt lat="42.53429333" lon="1.593915">
        <ele>1499.0</ele>
        <time>2019-08-04T13:52:33.323Z</time>
      </trkpt>
      <trkpt lat="42.53429333" lon="1.593915">
        <ele>1499.0</ele>
        <time>2019-08-04T13:52:34.302Z</time>
      </trkpt>
      <trkpt lat="42.53430833" lon="1.593955">
        <ele>1499.0</ele>
        <time>2019-08-04T13:52:35.323Z</time>
      </trkpt>
      <trkpt lat="42.53430833" lon="1.593955">
        <ele>1499.0</ele>
        <time>2019-08-04T13:52:36.298Z</time>
      </trkpt>
      <trkpt lat="42.53432667" lon="1.59399667">
        <ele>1500.0</ele>
        <time>2019-08-04T13:52:37.323Z</time>
      </trkpt>
      <trkpt lat="42.53432667" lon="1.59399667">
        <ele>1500.0</ele>
        <time>2019-08-04T13:52:38.313Z</time>
      </trkpt>
      <trkpt lat="42.53434667" lon="1.59403667">
        <ele>1500.0</ele>
        <time>2019-08-04T13:52:39.328Z</time>
      </trkpt>
      <trkpt lat="42.53434667" lon="1.59403667">
        <ele>1500.0</ele>
        <time>2019-08-04T13:52:40.318Z</time>
      </trkpt>
      <trkpt lat="42.53434667" lon="1.59403667">
        <ele>1500.0</ele>
        <time>2019-08-04T13:52:41.298Z</time>
      </trkpt>
      <trkpt lat="42.534375" lon="1.59406833">
        <ele>1500.0</ele>
        <time>2019-08-04T13:52:42.318Z</time>
      </trkpt>
      <trkpt lat="42.53440167" lon="1.59409833">
        <ele>1501.0</ele>
        <time>2019-08-04T13:52:43.298Z</time>
      </trkpt>
      <trkpt lat="42.53440167" lon="1.59409833">
        <ele>1501.0</ele>
        <time>2019-08-04T13:52:44.318Z</time>
      </trkpt>
      <trkpt lat="42.534425" lon="1.59413">
        <ele>1501.0</ele>
        <time>2019-08-04T13:52:45.335Z</time>
      </trkpt>
      <trkpt lat="42.534425" lon="1.59413">
        <ele>1501.0</ele>
        <time>2019-08-04T13:52:46.327Z</time>
      </trkpt>
      <trkpt lat="42.53445167" lon="1.59415333">
        <ele>1502.0</ele>
        <time>2019-08-04T13:52:47.323Z</time>
      </trkpt>
      <trkpt lat="42.53445167" lon="1.59415333">
        <ele>1502.0</ele>
        <time>2019-08-04T13:52:48.303Z</time>
      </trkpt>
      <trkpt lat="42.53448" lon="1.59417833">
        <ele>1502.0</ele>
        <time>2019-08-04T13:52:49.333Z</time>
      </trkpt>
      <trkpt lat="42.53448" lon="1.59417833">
        <ele>1502.0</ele>
        <time>2019-08-04T13:52:50.315Z</time>
      </trkpt>
      <trkpt lat="42.53450167" lon="1.59421">
        <ele>1503.0</ele>
        <time>2019-08-04T13:52:51.310Z</time>
      </trkpt>
      <trkpt lat="42.53450167" lon="1.59421">
        <ele>1503.0</ele>
        <time>2019-08-04T13:52:52.305Z</time>
      </trkpt>
      <trkpt lat="42.53451667" lon="1.594245">
        <ele>1503.0</ele>
        <time>2019-08-04T13:52:53.327Z</time>
      </trkpt>
      <trkpt lat="42.53452167" lon="1.59426333">
        <ele>1503.0</ele>
        <time>2019-08-04T13:52:54.324Z</time>
      </trkpt>
      <trkpt lat="42.53452167" lon="1.59426333">
        <ele>1503.0</ele>
        <time>2019-08-04T13:52:55.317Z</time>
      </trkpt>
      <trkpt lat="42.53453667" lon="1.59429833">
        <ele>1503.0</ele>
        <time>2019-08-04T13:52:56.297Z</time>
      </trkpt>
      <trkpt lat="42.53454333" lon="1.59431833">
        <ele>1503.0</ele>
        <time>2019-08-04T13:52:57.325Z</time>
      </trkpt>
      <trkpt lat="42.53454333" lon="1.59431833">
        <ele>1503.0</ele>
        <time>2019-08-04T13:52:58.317Z</time>
      </trkpt>
      <trkpt lat="42.53455667" lon="1.594355">
        <ele>1504.0</ele>
        <time>2019-08-04T13:52:59.298Z</time>
      </trkpt>
      <trkpt lat="42.53455667" lon="1.594355">
        <ele>1504.0</ele>
        <time>2019-08-04T13:53:00.318Z</time>
      </trkpt>
      <trkpt lat="42.53456167" lon="1.594395">
        <ele>1504.0</ele>
        <time>2019-08-04T13:53:01.301Z</time>
      </trkpt>
      <trkpt lat="42.53456167" lon="1.594395">
        <ele>1504.0</ele>
        <time>2019-08-04T13:53:02.297Z</time>
      </trkpt>
      <trkpt lat="42.53457167" lon="1.59444">
        <ele>1504.0</ele>
        <time>2019-08-04T13:53:03.325Z</time>
      </trkpt>
      <trkpt lat="42.53457167" lon="1.59444">
        <ele>1504.0</ele>
        <time>2019-08-04T13:53:04.307Z</time>
      </trkpt>
      <trkpt lat="42.53457167" lon="1.59448833">
        <ele>1505.0</ele>
        <time>2019-08-04T13:53:05.332Z</time>
      </trkpt>
      <trkpt lat="42.53457333" lon="1.59451333">
        <ele>1505.0</ele>
        <time>2019-08-04T13:53:06.322Z</time>
      </trkpt>
      <trkpt lat="42.53457333" lon="1.59451333">
        <ele>1505.0</ele>
        <time>2019-08-04T13:53:07.297Z</time>
      </trkpt>
      <trkpt lat="42.534575" lon="1.594555">
        <ele>1505.0</ele>
        <time>2019-08-04T13:53:08.324Z</time>
      </trkpt>
      <trkpt lat="42.53458" lon="1.594575">
        <ele>1506.0</ele>
        <time>2019-08-04T13:53:09.324Z</time>
      </trkpt>
      <trkpt lat="42.53458" lon="1.594575">
        <ele>1506.0</ele>
        <time>2019-08-04T13:53:10.317Z</time>
      </trkpt>
      <trkpt lat="42.53458" lon="1.594575">
        <ele>1506.0</ele>
        <time>2019-08-04T13:53:11.300Z</time>
      </trkpt>
      <trkpt lat="42.53461333" lon="1.594645">
        <ele>1506.0</ele>
        <time>2019-08-04T13:53:12.324Z</time>
      </trkpt>
      <trkpt lat="42.53461333" lon="1.594645">
        <ele>1506.0</ele>
        <time>2019-08-04T13:53:13.298Z</time>
      </trkpt>
      <trkpt lat="42.53462833" lon="1.59469667">
        <ele>1507.0</ele>
        <time>2019-08-04T13:53:14.323Z</time>
      </trkpt>
      <trkpt lat="42.53462833" lon="1.59469667">
        <ele>1507.0</ele>
        <time>2019-08-04T13:53:15.494Z</time>
      </trkpt>
      <trkpt lat="42.53463833" lon="1.59472167">
        <ele>1507.0</ele>
        <time>2019-08-04T13:53:16.318Z</time>
      </trkpt>
      <trkpt lat="42.53465667" lon="1.59477">
        <ele>1508.0</ele>
        <time>2019-08-04T13:53:17.298Z</time>
      </trkpt>
      <trkpt lat="42.53467167" lon="1.59479167">
        <ele>1508.0</ele>
        <time>2019-08-04T13:53:18.324Z</time>
      </trkpt>
      <trkpt lat="42.53467167" lon="1.59479167">
        <ele>1508.0</ele>
        <time>2019-08-04T13:53:19.318Z</time>
      </trkpt>
      <trkpt lat="42.534695" lon="1.59483">
        <ele>1509.0</ele>
        <time>2019-08-04T13:53:20.298Z</time>
      </trkpt>
      <trkpt lat="42.53470833" lon="1.59485">
        <ele>1509.0</ele>
        <time>2019-08-04T13:53:21.331Z</time>
      </trkpt>
      <trkpt lat="42.53470833" lon="1.59485">
        <ele>1509.0</ele>
        <time>2019-08-04T13:53:22.320Z</time>
      </trkpt>
      <trkpt lat="42.534735" lon="1.59488333">
        <ele>1510.0</ele>
        <time>2019-08-04T13:53:23.323Z</time>
      </trkpt>
      <trkpt lat="42.534735" lon="1.59488333">
        <ele>1510.0</ele>
        <time>2019-08-04T13:53:24.299Z</time>
      </trkpt>
      <trkpt lat="42.53476667" lon="1.59491333">
        <ele>1511.0</ele>
        <time>2019-08-04T13:53:25.324Z</time>
      </trkpt>
      <trkpt lat="42.53476667" lon="1.59491333">
        <ele>1511.0</ele>
        <time>2019-08-04T13:53:26.318Z</time>
      </trkpt>
      <trkpt lat="42.53479667" lon="1.59494167">
        <ele>1511.0</ele>
        <time>2019-08-04T13:53:27.298Z</time>
      </trkpt>
      <trkpt lat="42.53479667" lon="1.59494167">
        <ele>1511.0</ele>
        <time>2019-08-04T13:53:28.317Z</time>
      </trkpt>
      <trkpt lat="42.534825" lon="1.594965">
        <ele>1512.0</ele>
        <time>2019-08-04T13:53:29.331Z</time>
      </trkpt>
      <trkpt lat="42.53484167" lon="1.59497333">
        <ele>1512.0</ele>
        <time>2019-08-04T13:53:30.305Z</time>
      </trkpt>
      <trkpt lat="42.53484167" lon="1.59497333">
        <ele>1512.0</ele>
        <time>2019-08-04T13:53:31.324Z</time>
      </trkpt>
      <trkpt lat="42.534875" lon="1.59498167">
        <ele>1512.0</ele>
        <time>2019-08-04T13:53:32.332Z</time>
      </trkpt>
      <trkpt lat="42.53489" lon="1.594985">
        <ele>1512.0</ele>
        <time>2019-08-04T13:53:33.322Z</time>
      </trkpt>
      <trkpt lat="42.53489" lon="1.594985">
        <ele>1512.0</ele>
        <time>2019-08-04T13:53:34.299Z</time>
      </trkpt>
      <trkpt lat="42.53492" lon="1.59499667">
        <ele>1513.0</ele>
        <time>2019-08-04T13:53:35.324Z</time>
      </trkpt>
      <trkpt lat="42.53492" lon="1.59499667">
        <ele>1513.0</ele>
        <time>2019-08-04T13:53:36.318Z</time>
      </trkpt>
      <trkpt lat="42.53494167" lon="1.59503">
        <ele>1513.0</ele>
        <time>2019-08-04T13:53:37.298Z</time>
      </trkpt>
      <trkpt lat="42.53494167" lon="1.59503">
        <ele>1513.0</ele>
        <time>2019-08-04T13:53:38.318Z</time>
      </trkpt>
      <trkpt lat="42.53496333" lon="1.59506667">
        <ele>1513.0</ele>
        <time>2019-08-04T13:53:39.298Z</time>
      </trkpt>
      <trkpt lat="42.53496333" lon="1.59506667">
        <ele>1513.0</ele>
        <time>2019-08-04T13:53:40.318Z</time>
      </trkpt>
      <trkpt lat="42.53496333" lon="1.59506667">
        <ele>1513.0</ele>
        <time>2019-08-04T13:53:41.510Z</time>
      </trkpt>
      <trkpt lat="42.53498833" lon="1.595095">
        <ele>1514.0</ele>
        <time>2019-08-04T13:53:42.296Z</time>
      </trkpt>
      <trkpt lat="42.53502" lon="1.59511667">
        <ele>1514.0</ele>
        <time>2019-08-04T13:53:43.323Z</time>
      </trkpt>
      <trkpt lat="42.53502" lon="1.59511667">
        <ele>1514.0</ele>
        <time>2019-08-04T13:53:44.320Z</time>
      </trkpt>
      <trkpt lat="42.53505" lon="1.59513833">
        <ele>1515.0</ele>
        <time>2019-08-04T13:53:45.333Z</time>
      </trkpt>
      <trkpt lat="42.53505" lon="1.59513833">
        <ele>1515.0</ele>
        <time>2019-08-04T13:53:46.317Z</time>
      </trkpt>
      <trkpt lat="42.53508167" lon="1.59516167">
        <ele>1515.0</ele>
        <time>2019-08-04T13:53:47.299Z</time>
      </trkpt>
      <trkpt lat="42.53508167" lon="1.59516167">
        <ele>1515.0</ele>
        <time>2019-08-04T13:53:48.318Z</time>
      </trkpt>
      <trkpt lat="42.53511" lon="1.59518">
        <ele>1515.0</ele>
        <time>2019-08-04T13:53:49.299Z</time>
      </trkpt>
      <trkpt lat="42.535125" lon="1.59519">
        <ele>1516.0</ele>
        <time>2019-08-04T13:53:50.325Z</time>
      </trkpt>
      <trkpt lat="42.53514167" lon="1.59519833">
        <ele>1516.0</ele>
        <time>2019-08-04T13:53:51.331Z</time>
      </trkpt>
      <trkpt lat="42.53514167" lon="1.59519833">
        <ele>1516.0</ele>
        <time>2019-08-04T13:53:52.317Z</time>
      </trkpt>
      <trkpt lat="42.53517333" lon="1.59521833">
        <ele>1516.0</ele>
        <time>2019-08-04T13:53:53.324Z</time>
      </trkpt>
      <trkpt lat="42.53517333" lon="1.59521833">
        <ele>1516.0</ele>
        <time>2019-08-04T13:53:54.299Z</time>
      </trkpt>
      <trkpt lat="42.53520333" lon="1.59523667">
        <ele>1516.0</ele>
        <time>2019-08-04T13:53:55.324Z</time>
      </trkpt>
      <trkpt lat="42.53522167" lon="1.59524667">
        <ele>1517.0</ele>
        <time>2019-08-04T13:53:56.299Z</time>
      </trkpt>
      <trkpt lat="42.53522167" lon="1.59524667">
        <ele>1517.0</ele>
        <time>2019-08-04T13:53:57.319Z</time>
      </trkpt>
      <trkpt lat="42.53525167" lon="1.59526833">
        <ele>1517.0</ele>
        <time>2019-08-04T13:53:58.302Z</time>
      </trkpt>
      <trkpt lat="42.53525167" lon="1.59526833">
        <ele>1517.0</ele>
        <time>2019-08-04T13:53:59.320Z</time>
      </trkpt>
      <trkpt lat="42.53528333" lon="1.59529333">
        <ele>1518.0</ele>
        <time>2019-08-04T13:54:00.323Z</time>
      </trkpt>
      <trkpt lat="42.53528333" lon="1.59529333">
        <ele>1518.0</ele>
        <time>2019-08-04T13:54:01.299Z</time>
      </trkpt>
      <trkpt lat="42.53531667" lon="1.59531667">
        <ele>1518.0</ele>
        <time>2019-08-04T13:54:02.324Z</time>
      </trkpt>
      <trkpt lat="42.53533" lon="1.59532167">
        <ele>1518.0</ele>
        <time>2019-08-04T13:54:03.299Z</time>
      </trkpt>
      <trkpt lat="42.53533" lon="1.59532167">
        <ele>1518.0</ele>
        <time>2019-08-04T13:54:04.327Z</time>
      </trkpt>
      <trkpt lat="42.53535667" lon="1.59534333">
        <ele>1519.0</ele>
        <time>2019-08-04T13:54:05.324Z</time>
      </trkpt>
      <trkpt lat="42.53535667" lon="1.59534333">
        <ele>1519.0</ele>
        <time>2019-08-04T13:54:06.316Z</time>
      </trkpt>
      <trkpt lat="42.53538" lon="1.59537667">
        <ele>1519.0</ele>
        <time>2019-08-04T13:54:07.296Z</time>
      </trkpt>
      <trkpt lat="42.53538" lon="1.59537667">
        <ele>1519.0</ele>
        <time>2019-08-04T13:54:08.318Z</time>
      </trkpt>
      <trkpt lat="42.5354" lon="1.595415">
        <ele>1520.0</ele>
        <time>2019-08-04T13:54:09.297Z</time>
      </trkpt>
      <trkpt lat="42.53540667" lon="1.59543833">
        <ele>1520.0</ele>
        <time>2019-08-04T13:54:10.324Z</time>
      </trkpt>
      <trkpt lat="42.53540667" lon="1.59546">
        <ele>1520.0</ele>
        <time>2019-08-04T13:54:11.320Z</time>
      </trkpt>
      <trkpt lat="42.53540667" lon="1.59546">
        <ele>1520.0</ele>
        <time>2019-08-04T13:54:12.335Z</time>
      </trkpt>
      <trkpt lat="42.53539833" lon="1.595505">
        <ele>1521.0</ele>
        <time>2019-08-04T13:54:13.322Z</time>
      </trkpt>
      <trkpt lat="42.53539833" lon="1.595505">
        <ele>1521.0</ele>
        <time>2019-08-04T13:54:14.298Z</time>
      </trkpt>
      <trkpt lat="42.53538" lon="1.59554">
        <ele>1521.0</ele>
        <time>2019-08-04T13:54:15.325Z</time>
      </trkpt>
      <trkpt lat="42.53538" lon="1.59554">
        <ele>1521.0</ele>
        <time>2019-08-04T13:54:16.318Z</time>
      </trkpt>
      <trkpt lat="42.53534667" lon="1.59556">
        <ele>1521.0</ele>
        <time>2019-08-04T13:54:17.298Z</time>
      </trkpt>
      <trkpt lat="42.53534667" lon="1.59556">
        <ele>1521.0</ele>
        <time>2019-08-04T13:54:18.315Z</time>
      </trkpt>
      <trkpt lat="42.53530667" lon="1.59556833">
        <ele>1521.0</ele>
        <time>2019-08-04T13:54:19.296Z</time>
      </trkpt>
      <trkpt lat="42.53529" lon="1.59556833">
        <ele>1522.0</ele>
        <time>2019-08-04T13:54:20.320Z</time>
      </trkpt>
      <trkpt lat="42.53529" lon="1.59556833">
        <ele>1522.0</ele>
        <time>2019-08-04T13:54:21.297Z</time>
      </trkpt>
      <trkpt lat="42.53527" lon="1.59556667">
        <ele>1522.0</ele>
        <time>2019-08-04T13:54:22.318Z</time>
      </trkpt>
      <trkpt lat="42.535235" lon="1.59556">
        <ele>1522.0</ele>
        <time>2019-08-04T13:54:23.323Z</time>
      </trkpt>
      <trkpt lat="42.53521833" lon="1.59555167">
        <ele>1522.0</ele>
        <time>2019-08-04T13:54:24.299Z</time>
      </trkpt>
      <trkpt lat="42.53521833" lon="1.59555167">
        <ele>1522.0</ele>
        <time>2019-08-04T13:54:25.318Z</time>
      </trkpt>
      <trkpt lat="42.535185" lon="1.59553167">
        <ele>1523.0</ele>
        <time>2019-08-04T13:54:26.297Z</time>
      </trkpt>
      <trkpt lat="42.535185" lon="1.59553167">
        <ele>1523.0</ele>
        <time>2019-08-04T13:54:27.504Z</time>
      </trkpt>
      <trkpt lat="42.53517167" lon="1.59551833">
        <ele>1523.0</ele>
        <time>2019-08-04T13:54:28.306Z</time>
      </trkpt>
      <trkpt lat="42.53514167" lon="1.59549833">
        <ele>1523.0</ele>
        <time>2019-08-04T13:54:29.298Z</time>
      </trkpt>
      <trkpt lat="42.53512667" lon="1.59549">
        <ele>1523.0</ele>
        <time>2019-08-04T13:54:30.321Z</time>
      </trkpt>
      <trkpt lat="42.53512667" lon="1.59549">
        <ele>1523.0</ele>
        <time>2019-08-04T13:54:31.327Z</time>
      </trkpt>
      <trkpt lat="42.53509333" lon="1.59548833">
        <ele>1524.0</ele>
        <time>2019-08-04T13:54:32.333Z</time>
      </trkpt>
      <trkpt lat="42.53507833" lon="1.59549">
        <ele>1524.0</ele>
        <time>2019-08-04T13:54:33.299Z</time>
      </trkpt>
      <trkpt lat="42.53507833" lon="1.59549">
        <ele>1524.0</ele>
        <time>2019-08-04T13:54:34.333Z</time>
      </trkpt>
      <trkpt lat="42.53504333" lon="1.59549833">
        <ele>1524.0</ele>
        <time>2019-08-04T13:54:35.324Z</time>
      </trkpt>
      <trkpt lat="42.53504333" lon="1.59549833">
        <ele>1524.0</ele>
        <time>2019-08-04T13:54:36.299Z</time>
      </trkpt>
      <trkpt lat="42.53501" lon="1.595495">
        <ele>1525.0</ele>
        <time>2019-08-04T13:54:37.324Z</time>
      </trkpt>
      <trkpt lat="42.53501" lon="1.595495">
        <ele>1525.0</ele>
        <time>2019-08-04T13:54:38.317Z</time>
      </trkpt>
      <trkpt lat="42.53498" lon="1.59548833">
        <ele>1525.0</ele>
        <time>2019-08-04T13:54:39.307Z</time>
      </trkpt>
      <trkpt lat="42.53496333" lon="1.59548833">
        <ele>1526.0</ele>
        <time>2019-08-04T13:54:40.348Z</time>
      </trkpt>
      <trkpt lat="42.53494" lon="1.59549167">
        <ele>1526.0</ele>
        <time>2019-08-04T13:54:41.300Z</time>
      </trkpt>
      <trkpt lat="42.53494" lon="1.59549167">
        <ele>1526.0</ele>
        <time>2019-08-04T13:54:42.332Z</time>
      </trkpt>
      <trkpt lat="42.5349" lon="1.59549833">
        <ele>1526.0</ele>
        <time>2019-08-04T13:54:43.324Z</time>
      </trkpt>
      <trkpt lat="42.5349" lon="1.59549833">
        <ele>1526.0</ele>
        <time>2019-08-04T13:54:44.318Z</time>
      </trkpt>
      <trkpt lat="42.53486" lon="1.59550333">
        <ele>1527.0</ele>
        <time>2019-08-04T13:54:45.324Z</time>
      </trkpt>
      <trkpt lat="42.53486" lon="1.59550333">
        <ele>1527.0</ele>
        <time>2019-08-04T13:54:46.319Z</time>
      </trkpt>
      <trkpt lat="42.53481167" lon="1.59550833">
        <ele>1527.0</ele>
        <time>2019-08-04T13:54:47.298Z</time>
      </trkpt>
      <trkpt lat="42.53478833" lon="1.59551167">
        <ele>1527.0</ele>
        <time>2019-08-04T13:54:48.324Z</time>
      </trkpt>
      <trkpt lat="42.53478833" lon="1.59551167">
        <ele>1527.0</ele>
        <time>2019-08-04T13:54:49.318Z</time>
      </trkpt>
      <trkpt lat="42.53474667" lon="1.59550667">
        <ele>1528.0</ele>
        <time>2019-08-04T13:54:50.299Z</time>
      </trkpt>
      <trkpt lat="42.534725" lon="1.59550167">
        <ele>1528.0</ele>
        <time>2019-08-04T13:54:51.337Z</time>
      </trkpt>
      <trkpt lat="42.534725" lon="1.59550167">
        <ele>1528.0</ele>
        <time>2019-08-04T13:54:52.319Z</time>
      </trkpt>
      <trkpt lat="42.53469833" lon="1.59548833">
        <ele>1528.0</ele>
        <time>2019-08-04T13:54:53.334Z</time>
      </trkpt>
      <trkpt lat="42.53468167" lon="1.595485">
        <ele>1529.0</ele>
        <time>2019-08-04T13:54:54.324Z</time>
      </trkpt>
      <trkpt lat="42.53468167" lon="1.595485">
        <ele>1529.0</ele>
        <time>2019-08-04T13:54:55.299Z</time>
      </trkpt>
      <trkpt lat="42.534655" lon="1.59547167">
        <ele>1529.0</ele>
        <time>2019-08-04T13:54:56.323Z</time>
      </trkpt>
      <trkpt lat="42.534655" lon="1.59547167">
        <ele>1529.0</ele>
        <time>2019-08-04T13:54:57.299Z</time>
      </trkpt>
      <trkpt lat="42.53460667" lon="1.59546167">
        <ele>1530.0</ele>
        <time>2019-08-04T13:54:58.324Z</time>
      </trkpt>
      <trkpt lat="42.53460667" lon="1.59546167">
        <ele>1530.0</ele>
        <time>2019-08-04T13:54:59.299Z</time>
      </trkpt>
      <trkpt lat="42.534575" lon="1.595445">
        <ele>1530.0</ele>
        <time>2019-08-04T13:55:00.324Z</time>
      </trkpt>
      <trkpt lat="42.534575" lon="1.595445">
        <ele>1530.0</ele>
        <time>2019-08-04T13:55:01.299Z</time>
      </trkpt>
      <trkpt lat="42.53454333" lon="1.595425">
        <ele>1531.0</ele>
        <time>2019-08-04T13:55:02.324Z</time>
      </trkpt>
      <trkpt lat="42.53452833" lon="1.59541667">
        <ele>1531.0</ele>
        <time>2019-08-04T13:55:03.299Z</time>
      </trkpt>
      <trkpt lat="42.53452833" lon="1.59541667">
        <ele>1531.0</ele>
        <time>2019-08-04T13:55:04.326Z</time>
      </trkpt>
      <trkpt lat="42.53451333" lon="1.59539833">
        <ele>1531.0</ele>
        <time>2019-08-04T13:55:05.323Z</time>
      </trkpt>
      <trkpt lat="42.53451333" lon="1.59539833">
        <ele>1531.0</ele>
        <time>2019-08-04T13:55:06.299Z</time>
      </trkpt>
      <trkpt lat="42.53449167" lon="1.59538333">
        <ele>1532.0</ele>
        <time>2019-08-04T13:55:07.323Z</time>
      </trkpt>
      <trkpt lat="42.53449167" lon="1.59538333">
        <ele>1532.0</ele>
        <time>2019-08-04T13:55:08.298Z</time>
      </trkpt>
      <trkpt lat="42.53447333" lon="1.59535333">
        <ele>1532.0</ele>
        <time>2019-08-04T13:55:09.324Z</time>
      </trkpt>
      <trkpt lat="42.53447333" lon="1.59535333">
        <ele>1532.0</ele>
        <time>2019-08-04T13:55:10.301Z</time>
      </trkpt>
      <trkpt lat="42.53445333" lon="1.59532">
        <ele>1532.0</ele>
        <time>2019-08-04T13:55:11.316Z</time>
      </trkpt>
      <trkpt lat="42.53445333" lon="1.59532">
        <ele>1532.0</ele>
        <time>2019-08-04T13:55:12.321Z</time>
      </trkpt>
      <trkpt lat="42.53441167" lon="1.59529167">
        <ele>1532.0</ele>
        <time>2019-08-04T13:55:13.326Z</time>
      </trkpt>
      <trkpt lat="42.53441167" lon="1.59529167">
        <ele>1532.0</ele>
        <time>2019-08-04T13:55:14.332Z</time>
      </trkpt>
      <trkpt lat="42.53438667" lon="1.59525">
        <ele>1533.0</ele>
        <time>2019-08-04T13:55:15.324Z</time>
      </trkpt>
      <trkpt lat="42.53438667" lon="1.59525">
        <ele>1533.0</ele>
        <time>2019-08-04T13:55:16.299Z</time>
      </trkpt>
      <trkpt lat="42.534355" lon="1.59519833">
        <ele>1533.0</ele>
        <time>2019-08-04T13:55:17.323Z</time>
      </trkpt>
      <trkpt lat="42.534355" lon="1.59519833">
        <ele>1533.0</ele>
        <time>2019-08-04T13:55:18.298Z</time>
      </trkpt>
      <trkpt lat="42.53433333" lon="1.595155">
        <ele>1533.0</ele>
        <time>2019-08-04T13:55:19.323Z</time>
      </trkpt>
      <trkpt lat="42.53433333" lon="1.595155">
        <ele>1533.0</ele>
        <time>2019-08-04T13:55:20.299Z</time>
      </trkpt>
      <trkpt lat="42.53433333" lon="1.595155">
        <ele>1533.0</ele>
        <time>2019-08-04T13:55:21.525Z</time>
      </trkpt>
      <trkpt lat="42.534295" lon="1.59511833">
        <ele>1534.0</ele>
        <time>2019-08-04T13:55:22.319Z</time>
      </trkpt>
      <trkpt lat="42.534275" lon="1.59507667">
        <ele>1534.0</ele>
        <time>2019-08-04T13:55:23.324Z</time>
      </trkpt>
      <trkpt lat="42.534275" lon="1.59507667">
        <ele>1534.0</ele>
        <time>2019-08-04T13:55:24.319Z</time>
      </trkpt>
      <trkpt lat="42.53424333" lon="1.59504667">
        <ele>1534.0</ele>
        <time>2019-08-04T13:55:25.299Z</time>
      </trkpt>
      <trkpt lat="42.53424333" lon="1.59504667">
        <ele>1534.0</ele>
        <time>2019-08-04T13:55:26.319Z</time>
      </trkpt>
      <trkpt lat="42.53424167" lon="1.59499333">
        <ele>1535.0</ele>
        <time>2019-08-04T13:55:27.299Z</time>
      </trkpt>
      <trkpt lat="42.53422833" lon="1.594975">
        <ele>1535.0</ele>
        <time>2019-08-04T13:55:28.324Z</time>
      </trkpt>
      <trkpt lat="42.53422833" lon="1.594975">
        <ele>1535.0</ele>
        <time>2019-08-04T13:55:29.328Z</time>
      </trkpt>
      <trkpt lat="42.53420833" lon="1.59493833">
        <ele>1535.0</ele>
        <time>2019-08-04T13:55:30.315Z</time>
      </trkpt>
      <trkpt lat="42.53420833" lon="1.59493833">
        <ele>1535.0</ele>
        <time>2019-08-04T13:55:31.321Z</time>
      </trkpt>
      <trkpt lat="42.534175" lon="1.59490333">
        <ele>1536.0</ele>
        <time>2019-08-04T13:55:32.296Z</time>
      </trkpt>
      <trkpt lat="42.53415833" lon="1.59488333">
        <ele>1536.0</ele>
        <time>2019-08-04T13:55:33.325Z</time>
      </trkpt>
      <trkpt lat="42.53415833" lon="1.59488333">
        <ele>1536.0</ele>
        <time>2019-08-04T13:55:34.318Z</time>
      </trkpt>
      <trkpt lat="42.53412167" lon="1.59485833">
        <ele>1536.0</ele>
        <time>2019-08-04T13:55:35.298Z</time>
      </trkpt>
      <trkpt lat="42.534105" lon="1.59485167">
        <ele>1537.0</ele>
        <time>2019-08-04T13:55:36.325Z</time>
      </trkpt>
      <trkpt lat="42.534105" lon="1.59485167">
        <ele>1537.0</ele>
        <time>2019-08-04T13:55:37.319Z</time>
      </trkpt>
      <trkpt lat="42.53407167" lon="1.59485333">
        <ele>1537.0</ele>
        <time>2019-08-04T13:55:38.303Z</time>
      </trkpt>
      <trkpt lat="42.53405667" lon="1.59484667">
        <ele>1537.0</ele>
        <time>2019-08-04T13:55:39.325Z</time>
      </trkpt>
      <trkpt lat="42.53405667" lon="1.59484667">
        <ele>1537.0</ele>
        <time>2019-08-04T13:55:40.319Z</time>
      </trkpt>
      <trkpt lat="42.53405667" lon="1.59484667">
        <ele>1537.0</ele>
        <time>2019-08-04T13:55:41.299Z</time>
      </trkpt>
      <trkpt lat="42.53401333" lon="1.59484333">
        <ele>1538.0</ele>
        <time>2019-08-04T13:55:42.299Z</time>
      </trkpt>
      <trkpt lat="42.53401333" lon="1.59484333">
        <ele>1538.0</ele>
        <time>2019-08-04T13:55:43.319Z</time>
      </trkpt>
      <trkpt lat="42.53401333" lon="1.59484333">
        <ele>1538.0</ele>
        <time>2019-08-04T13:55:44.505Z</time>
      </trkpt>
      <trkpt lat="42.53396333" lon="1.59486333">
        <ele>1539.0</ele>
        <time>2019-08-04T13:55:45.298Z</time>
      </trkpt>
      <trkpt lat="42.53396333" lon="1.59486333">
        <ele>1539.0</ele>
        <time>2019-08-04T13:55:46.307Z</time>
      </trkpt>
      <trkpt lat="42.53393" lon="1.59488167">
        <ele>1539.0</ele>
        <time>2019-08-04T13:55:47.314Z</time>
      </trkpt>
      <trkpt lat="42.53393" lon="1.59488167">
        <ele>1539.0</ele>
        <time>2019-08-04T13:55:48.320Z</time>
      </trkpt>
      <trkpt lat="42.53389333" lon="1.59491">
        <ele>1540.0</ele>
        <time>2019-08-04T13:55:49.303Z</time>
      </trkpt>
      <trkpt lat="42.53389333" lon="1.59491">
        <ele>1540.0</ele>
        <time>2019-08-04T13:55:50.320Z</time>
      </trkpt>
      <trkpt lat="42.53389333" lon="1.59491">
        <ele>1540.0</ele>
        <time>2019-08-04T13:55:51.301Z</time>
      </trkpt>
      <trkpt lat="42.53386333" lon="1.59493833">
        <ele>1540.0</ele>
        <time>2019-08-04T13:55:52.328Z</time>
      </trkpt>
      <trkpt lat="42.53383667" lon="1.59496167">
        <ele>1540.0</ele>
        <time>2019-08-04T13:55:53.325Z</time>
      </trkpt>
      <trkpt lat="42.53383667" lon="1.59496167">
        <ele>1540.0</ele>
        <time>2019-08-04T13:55:54.303Z</time>
      </trkpt>
      <trkpt lat="42.533805" lon="1.594985">
        <ele>1541.0</ele>
        <time>2019-08-04T13:55:55.326Z</time>
      </trkpt>
      <trkpt lat="42.533805" lon="1.594985">
        <ele>1541.0</ele>
        <time>2019-08-04T13:55:56.319Z</time>
      </trkpt>
      <trkpt lat="42.533785" lon="1.59500833">
        <ele>1541.0</ele>
        <time>2019-08-04T13:55:57.299Z</time>
      </trkpt>
      <trkpt lat="42.533785" lon="1.59500833">
        <ele>1541.0</ele>
        <time>2019-08-04T13:55:58.319Z</time>
      </trkpt>
      <trkpt lat="42.53376" lon="1.595035">
        <ele>1541.0</ele>
        <time>2019-08-04T13:55:59.324Z</time>
      </trkpt>
      <trkpt lat="42.53376" lon="1.595035">
        <ele>1541.0</ele>
        <time>2019-08-04T13:56:00.320Z</time>
      </trkpt>
      <trkpt lat="42.53373833" lon="1.59506167">
        <ele>1542.0</ele>
        <time>2019-08-04T13:56:01.323Z</time>
      </trkpt>
      <trkpt lat="42.53373833" lon="1.59506167">
        <ele>1542.0</ele>
        <time>2019-08-04T13:56:02.319Z</time>
      </trkpt>
      <trkpt lat="42.53371667" lon="1.59509">
        <ele>1542.0</ele>
        <time>2019-08-04T13:56:03.324Z</time>
      </trkpt>
      <trkpt lat="42.53371667" lon="1.59509">
        <ele>1542.0</ele>
        <time>2019-08-04T13:56:04.300Z</time>
      </trkpt>
      <trkpt lat="42.53369" lon="1.59512833">
        <ele>1542.0</ele>
        <time>2019-08-04T13:56:05.327Z</time>
      </trkpt>
      <trkpt lat="42.53369" lon="1.59512833">
        <ele>1542.0</ele>
        <time>2019-08-04T13:56:06.319Z</time>
      </trkpt>
      <trkpt lat="42.53366833" lon="1.59516">
        <ele>1543.0</ele>
        <time>2019-08-04T13:56:07.299Z</time>
      </trkpt>
      <trkpt lat="42.53366833" lon="1.59516">
        <ele>1543.0</ele>
        <time>2019-08-04T13:56:08.321Z</time>
      </trkpt>
      <trkpt lat="42.53364333" lon="1.595185">
        <ele>1543.0</ele>
        <time>2019-08-04T13:56:09.324Z</time>
      </trkpt>
      <trkpt lat="42.53364333" lon="1.595185">
        <ele>1543.0</ele>
        <time>2019-08-04T13:56:10.300Z</time>
      </trkpt>
      <trkpt lat="42.53361667" lon="1.595215">
        <ele>1544.0</ele>
        <time>2019-08-04T13:56:11.323Z</time>
      </trkpt>
      <trkpt lat="42.533605" lon="1.59523167">
        <ele>1544.0</ele>
        <time>2019-08-04T13:56:12.324Z</time>
      </trkpt>
      <trkpt lat="42.533605" lon="1.59523167">
        <ele>1544.0</ele>
        <time>2019-08-04T13:56:13.319Z</time>
      </trkpt>
      <trkpt lat="42.533595" lon="1.595275">
        <ele>1545.0</ele>
        <time>2019-08-04T13:56:14.299Z</time>
      </trkpt>
      <trkpt lat="42.53359333" lon="1.59529667">
        <ele>1545.0</ele>
        <time>2019-08-04T13:56:15.325Z</time>
      </trkpt>
      <trkpt lat="42.53359333" lon="1.59529667">
        <ele>1545.0</ele>
        <time>2019-08-04T13:56:16.322Z</time>
      </trkpt>
      <trkpt lat="42.53358167" lon="1.59533">
        <ele>1546.0</ele>
        <time>2019-08-04T13:56:17.324Z</time>
      </trkpt>
      <trkpt lat="42.53357667" lon="1.59534667">
        <ele>1546.0</ele>
        <time>2019-08-04T13:56:18.324Z</time>
      </trkpt>
      <trkpt lat="42.53357667" lon="1.59534667">
        <ele>1546.0</ele>
        <time>2019-08-04T13:56:19.321Z</time>
      </trkpt>
      <trkpt lat="42.53355667" lon="1.595375">
        <ele>1547.0</ele>
        <time>2019-08-04T13:56:20.302Z</time>
      </trkpt>
      <trkpt lat="42.53355667" lon="1.595375">
        <ele>1547.0</ele>
        <time>2019-08-04T13:56:21.297Z</time>
      </trkpt>
      <trkpt lat="42.53354333" lon="1.59538333">
        <ele>1547.0</ele>
        <time>2019-08-04T13:56:22.319Z</time>
      </trkpt>
      <trkpt lat="42.53351167" lon="1.59539667">
        <ele>1547.0</ele>
        <time>2019-08-04T13:56:23.299Z</time>
      </trkpt>
      <trkpt lat="42.53351167" lon="1.59539667">
        <ele>1547.0</ele>
        <time>2019-08-04T13:56:24.318Z</time>
      </trkpt>
      <trkpt lat="42.53348333" lon="1.59540833">
        <ele>1548.0</ele>
        <time>2019-08-04T13:56:25.298Z</time>
      </trkpt>
      <trkpt lat="42.53348333" lon="1.59540833">
        <ele>1548.0</ele>
        <time>2019-08-04T13:56:26.319Z</time>
      </trkpt>
      <trkpt lat="42.53346167" lon="1.59542833">
        <ele>1548.0</ele>
        <time>2019-08-04T13:56:27.298Z</time>
      </trkpt>
      <trkpt lat="42.53346167" lon="1.59542833">
        <ele>1548.0</ele>
        <time>2019-08-04T13:56:28.319Z</time>
      </trkpt>
      <trkpt lat="42.533445" lon="1.59545333">
        <ele>1548.0</ele>
        <time>2019-08-04T13:56:29.303Z</time>
      </trkpt>
      <trkpt lat="42.53343333" lon="1.59546167">
        <ele>1549.0</ele>
        <time>2019-08-04T13:56:30.300Z</time>
      </trkpt>
      <trkpt lat="42.53342167" lon="1.59547333">
        <ele>1549.0</ele>
        <time>2019-08-04T13:56:31.323Z</time>
      </trkpt>
      <trkpt lat="42.53342167" lon="1.59547333">
        <ele>1549.0</ele>
        <time>2019-08-04T13:56:32.319Z</time>
      </trkpt>
      <trkpt lat="42.53339667" lon="1.595505">
        <ele>1549.0</ele>
        <time>2019-08-04T13:56:33.325Z</time>
      </trkpt>
      <trkpt lat="42.53339667" lon="1.595505">
        <ele>1549.0</ele>
        <time>2019-08-04T13:56:34.303Z</time>
      </trkpt>
      <trkpt lat="42.53337667" lon="1.595535">
        <ele>1550.0</ele>
        <time>2019-08-04T13:56:35.330Z</time>
      </trkpt>
      <trkpt lat="42.53337667" lon="1.595535">
        <ele>1550.0</ele>
        <time>2019-08-04T13:56:36.327Z</time>
      </trkpt>
      <trkpt lat="42.533355" lon="1.59556833">
        <ele>1550.0</ele>
        <time>2019-08-04T13:56:37.326Z</time>
      </trkpt>
      <trkpt lat="42.533355" lon="1.59556833">
        <ele>1550.0</ele>
        <time>2019-08-04T13:56:38.319Z</time>
      </trkpt>
      <trkpt lat="42.53333667" lon="1.59560333">
        <ele>1550.0</ele>
        <time>2019-08-04T13:56:39.300Z</time>
      </trkpt>
      <trkpt lat="42.53333667" lon="1.59560333">
        <ele>1550.0</ele>
        <time>2019-08-04T13:56:40.319Z</time>
      </trkpt>
      <trkpt lat="42.533315" lon="1.59563333">
        <ele>1550.0</ele>
        <time>2019-08-04T13:56:41.337Z</time>
      </trkpt>
      <trkpt lat="42.53330667" lon="1.59565">
        <ele>1551.0</ele>
        <time>2019-08-04T13:56:42.324Z</time>
      </trkpt>
      <trkpt lat="42.53330667" lon="1.59565">
        <ele>1551.0</ele>
        <time>2019-08-04T13:56:43.319Z</time>
      </trkpt>
      <trkpt lat="42.53328667" lon="1.59568667">
        <ele>1551.0</ele>
        <time>2019-08-04T13:56:44.324Z</time>
      </trkpt>
      <trkpt lat="42.53328" lon="1.595705">
        <ele>1551.0</ele>
        <time>2019-08-04T13:56:45.325Z</time>
      </trkpt>
      <trkpt lat="42.53328" lon="1.595705">
        <ele>1551.0</ele>
        <time>2019-08-04T13:56:46.319Z</time>
      </trkpt>
      <trkpt lat="42.53325667" lon="1.59574333">
        <ele>1551.0</ele>
        <time>2019-08-04T13:56:47.324Z</time>
      </trkpt>
      <trkpt lat="42.53324333" lon="1.59575833">
        <ele>1551.0</ele>
        <time>2019-08-04T13:56:48.324Z</time>
      </trkpt>
      <trkpt lat="42.53324333" lon="1.59575833">
        <ele>1551.0</ele>
        <time>2019-08-04T13:56:49.319Z</time>
      </trkpt>
      <trkpt lat="42.53322167" lon="1.59578833">
        <ele>1552.0</ele>
        <time>2019-08-04T13:56:50.299Z</time>
      </trkpt>
      <trkpt lat="42.53322167" lon="1.59578833">
        <ele>1552.0</ele>
        <time>2019-08-04T13:56:51.297Z</time>
      </trkpt>
      <trkpt lat="42.53320667" lon="1.59580333">
        <ele>1552.0</ele>
        <time>2019-08-04T13:56:52.322Z</time>
      </trkpt>
      <trkpt lat="42.53317667" lon="1.59583167">
        <ele>1552.0</ele>
        <time>2019-08-04T13:56:53.323Z</time>
      </trkpt>
      <trkpt lat="42.53316333" lon="1.595845">
        <ele>1552.0</ele>
        <time>2019-08-04T13:56:54.324Z</time>
      </trkpt>
      <trkpt lat="42.53316333" lon="1.595845">
        <ele>1552.0</ele>
        <time>2019-08-04T13:56:55.319Z</time>
      </trkpt>
      <trkpt lat="42.533135" lon="1.59587167">
        <ele>1552.0</ele>
        <time>2019-08-04T13:56:56.300Z</time>
      </trkpt>
      <trkpt lat="42.533135" lon="1.59587167">
        <ele>1552.0</ele>
        <time>2019-08-04T13:56:57.317Z</time>
      </trkpt>
      <trkpt lat="42.53311" lon="1.5959">
        <ele>1552.0</ele>
        <time>2019-08-04T13:56:58.305Z</time>
      </trkpt>
      <trkpt lat="42.53311" lon="1.5959">
        <ele>1552.0</ele>
        <time>2019-08-04T13:56:59.323Z</time>
      </trkpt>
      <trkpt lat="42.533085" lon="1.59592667">
        <ele>1552.0</ele>
        <time>2019-08-04T13:57:00.325Z</time>
      </trkpt>
      <trkpt lat="42.533085" lon="1.59592667">
        <ele>1552.0</ele>
        <time>2019-08-04T13:57:01.300Z</time>
      </trkpt>
      <trkpt lat="42.53305833" lon="1.59595333">
        <ele>1553.0</ele>
        <time>2019-08-04T13:57:02.324Z</time>
      </trkpt>
      <trkpt lat="42.533045" lon="1.59596667">
        <ele>1553.0</ele>
        <time>2019-08-04T13:57:03.324Z</time>
      </trkpt>
      <trkpt lat="42.533045" lon="1.59596667">
        <ele>1553.0</ele>
        <time>2019-08-04T13:57:04.300Z</time>
      </trkpt>
      <trkpt lat="42.533015" lon="1.59598833">
        <ele>1553.0</ele>
        <time>2019-08-04T13:57:05.326Z</time>
      </trkpt>
      <trkpt lat="42.533015" lon="1.59598833">
        <ele>1553.0</ele>
        <time>2019-08-04T13:57:06.319Z</time>
      </trkpt>
      <trkpt lat="42.53298667" lon="1.59601333">
        <ele>1553.0</ele>
        <time>2019-08-04T13:57:07.300Z</time>
      </trkpt>
      <trkpt lat="42.53297167" lon="1.59602333">
        <ele>1554.0</ele>
        <time>2019-08-04T13:57:08.324Z</time>
      </trkpt>
      <trkpt lat="42.53295667" lon="1.59603667">
        <ele>1554.0</ele>
        <time>2019-08-04T13:57:09.324Z</time>
      </trkpt>
      <trkpt lat="42.53295667" lon="1.59603667">
        <ele>1554.0</ele>
        <time>2019-08-04T13:57:10.306Z</time>
      </trkpt>
      <trkpt lat="42.53295667" lon="1.59603667">
        <ele>1554.0</ele>
        <time>2019-08-04T13:57:11.300Z</time>
      </trkpt>
      <trkpt lat="42.532915" lon="1.59606167">
        <ele>1554.0</ele>
        <time>2019-08-04T13:57:12.325Z</time>
      </trkpt>
      <trkpt lat="42.532915" lon="1.59606167">
        <ele>1554.0</ele>
        <time>2019-08-04T13:57:13.319Z</time>
      </trkpt>
      <trkpt lat="42.53288333" lon="1.59608">
        <ele>1554.0</ele>
        <time>2019-08-04T13:57:14.298Z</time>
      </trkpt>
      <trkpt lat="42.53288333" lon="1.59608">
        <ele>1554.0</ele>
        <time>2019-08-04T13:57:15.321Z</time>
      </trkpt>
      <trkpt lat="42.53288333" lon="1.59608">
        <ele>1554.0</ele>
        <time>2019-08-04T13:57:16.512Z</time>
      </trkpt>
      <trkpt lat="42.53285167" lon="1.596095">
        <ele>1554.0</ele>
        <time>2019-08-04T13:57:17.327Z</time>
      </trkpt>
      <trkpt lat="42.53282333" lon="1.59611167">
        <ele>1555.0</ele>
        <time>2019-08-04T13:57:18.324Z</time>
      </trkpt>
      <trkpt lat="42.53282333" lon="1.59611167">
        <ele>1555.0</ele>
        <time>2019-08-04T13:57:19.320Z</time>
      </trkpt>
      <trkpt lat="42.53279167" lon="1.59613667">
        <ele>1555.0</ele>
        <time>2019-08-04T13:57:20.324Z</time>
      </trkpt>
      <trkpt lat="42.53279167" lon="1.59613667">
        <ele>1555.0</ele>
        <time>2019-08-04T13:57:21.301Z</time>
      </trkpt>
      <trkpt lat="42.532775" lon="1.59614667">
        <ele>1555.0</ele>
        <time>2019-08-04T13:57:22.325Z</time>
      </trkpt>
      <trkpt lat="42.53275167" lon="1.59617833">
        <ele>1555.0</ele>
        <time>2019-08-04T13:57:23.324Z</time>
      </trkpt>
      <trkpt lat="42.53275167" lon="1.59617833">
        <ele>1555.0</ele>
        <time>2019-08-04T13:57:24.300Z</time>
      </trkpt>
      <trkpt lat="42.53274167" lon="1.59621833">
        <ele>1555.0</ele>
        <time>2019-08-04T13:57:25.324Z</time>
      </trkpt>
      <trkpt lat="42.53274167" lon="1.59621833">
        <ele>1555.0</ele>
        <time>2019-08-04T13:57:26.300Z</time>
      </trkpt>
      <trkpt lat="42.53274167" lon="1.59625333">
        <ele>1556.0</ele>
        <time>2019-08-04T13:57:27.324Z</time>
      </trkpt>
      <trkpt lat="42.53274167" lon="1.59625333">
        <ele>1556.0</ele>
        <time>2019-08-04T13:57:28.319Z</time>
      </trkpt>
      <trkpt lat="42.53275" lon="1.596285">
        <ele>1556.0</ele>
        <time>2019-08-04T13:57:29.323Z</time>
      </trkpt>
      <trkpt lat="42.53276167" lon="1.59629667">
        <ele>1556.0</ele>
        <time>2019-08-04T13:57:30.314Z</time>
      </trkpt>
      <trkpt lat="42.53276167" lon="1.59629667">
        <ele>1556.0</ele>
        <time>2019-08-04T13:57:31.321Z</time>
      </trkpt>
      <trkpt lat="42.53276167" lon="1.59629667">
        <ele>1556.0</ele>
        <time>2019-08-04T13:57:32.340Z</time>
      </trkpt>
      <trkpt lat="42.53279" lon="1.59633">
        <ele>1557.0</ele>
        <time>2019-08-04T13:57:33.325Z</time>
      </trkpt>
      <trkpt lat="42.53279" lon="1.59633">
        <ele>1557.0</ele>
        <time>2019-08-04T13:57:34.301Z</time>
      </trkpt>
      <trkpt lat="42.53280667" lon="1.59630333">
        <ele>1557.0</ele>
        <time>2019-08-04T13:57:35.324Z</time>
      </trkpt>
      <trkpt lat="42.53280667" lon="1.59630333">
        <ele>1557.0</ele>
        <time>2019-08-04T13:57:36.301Z</time>
      </trkpt>
      <trkpt lat="42.532825" lon="1.59621667">
        <ele>1557.0</ele>
        <time>2019-08-04T13:57:37.323Z</time>
      </trkpt>
      <trkpt lat="42.532825" lon="1.59621667">
        <ele>1557.0</ele>
        <time>2019-08-04T13:57:38.322Z</time>
      </trkpt>
      <trkpt lat="42.532895" lon="1.596125">
        <ele>1556.0</ele>
        <time>2019-08-04T13:57:39.325Z</time>
      </trkpt>
      <trkpt lat="42.532895" lon="1.596125">
        <ele>1556.0</ele>
        <time>2019-08-04T13:57:40.319Z</time>
      </trkpt>
      <trkpt lat="42.53299833" lon="1.59605333">
        <ele>1555.0</ele>
        <time>2019-08-04T13:57:41.310Z</time>
      </trkpt>
      <trkpt lat="42.53299833" lon="1.59605333">
        <ele>1555.0</ele>
        <time>2019-08-04T13:57:42.316Z</time>
      </trkpt>
      <trkpt lat="42.53309833" lon="1.59598667">
        <ele>1553.0</ele>
        <time>2019-08-04T13:57:43.297Z</time>
      </trkpt>
      <trkpt lat="42.53309833" lon="1.59598667">
        <ele>1553.0</ele>
        <time>2019-08-04T13:57:44.319Z</time>
      </trkpt>
      <trkpt lat="42.53309833" lon="1.59598667">
        <ele>1553.0</ele>
        <time>2019-08-04T13:57:45.496Z</time>
      </trkpt>
      <trkpt lat="42.53317333" lon="1.59591333">
        <ele>1552.0</ele>
        <time>2019-08-04T13:57:46.319Z</time>
      </trkpt>
      <trkpt lat="42.53321667" lon="1.59586167">
        <ele>1551.0</ele>
        <time>2019-08-04T13:57:47.300Z</time>
      </trkpt>
      <trkpt lat="42.53321667" lon="1.59586167">
        <ele>1551.0</ele>
        <time>2019-08-04T13:57:48.322Z</time>
      </trkpt>
      <trkpt lat="42.53321667" lon="1.59582667">
        <ele>1550.0</ele>
        <time>2019-08-04T13:57:49.304Z</time>
      </trkpt>
      <trkpt lat="42.5332" lon="1.59583667">
        <ele>1549.0</ele>
        <time>2019-08-04T13:57:50.323Z</time>
      </trkpt>
      <trkpt lat="42.5332" lon="1.59583667">
        <ele>1549.0</ele>
        <time>2019-08-04T13:57:51.320Z</time>
      </trkpt>
      <trkpt lat="42.53316333" lon="1.59587667">
        <ele>1548.0</ele>
        <time>2019-08-04T13:57:52.335Z</time>
      </trkpt>
      <trkpt lat="42.53315" lon="1.59589667">
        <ele>1548.0</ele>
        <time>2019-08-04T13:57:53.324Z</time>
      </trkpt>
      <trkpt lat="42.53315" lon="1.59589667">
        <ele>1548.0</ele>
        <time>2019-08-04T13:57:54.319Z</time>
      </trkpt>
      <trkpt lat="42.53312167" lon="1.59593333">
        <ele>1547.0</ele>
        <time>2019-08-04T13:57:55.302Z</time>
      </trkpt>
      <trkpt lat="42.53312167" lon="1.59593333">
        <ele>1547.0</ele>
        <time>2019-08-04T13:57:56.322Z</time>
      </trkpt>
      <trkpt lat="42.53308667" lon="1.59596167">
        <ele>1547.0</ele>
        <time>2019-08-04T13:57:57.326Z</time>
      </trkpt>
      <trkpt lat="42.53308667" lon="1.59596167">
        <ele>1547.0</ele>
        <time>2019-08-04T13:57:58.322Z</time>
      </trkpt>
      <trkpt lat="42.53305333" lon="1.59599">
        <ele>1547.0</ele>
        <time>2019-08-04T13:57:59.324Z</time>
      </trkpt>
      <trkpt lat="42.53305333" lon="1.59599">
        <ele>1547.0</ele>
        <time>2019-08-04T13:58:00.323Z</time>
      </trkpt>
      <trkpt lat="42.53302167" lon="1.596015">
        <ele>1547.0</ele>
        <time>2019-08-04T13:58:01.324Z</time>
      </trkpt>
      <trkpt lat="42.53300333" lon="1.596025">
        <ele>1547.0</ele>
        <time>2019-08-04T13:58:02.325Z</time>
      </trkpt>
      <trkpt lat="42.53298667" lon="1.59603333">
        <ele>1548.0</ele>
        <time>2019-08-04T13:58:03.325Z</time>
      </trkpt>
      <trkpt lat="42.53298667" lon="1.59603333">
        <ele>1548.0</ele>
        <time>2019-08-04T13:58:04.317Z</time>
      </trkpt>
      <trkpt lat="42.53295333" lon="1.596055">
        <ele>1548.0</ele>
        <time>2019-08-04T13:58:05.298Z</time>
      </trkpt>
      <trkpt lat="42.532935" lon="1.596065">
        <ele>1548.0</ele>
        <time>2019-08-04T13:58:06.323Z</time>
      </trkpt>
      <trkpt lat="42.532935" lon="1.596065">
        <ele>1548.0</ele>
        <time>2019-08-04T13:58:07.298Z</time>
      </trkpt>
      <trkpt lat="42.5329" lon="1.59608667">
        <ele>1549.0</ele>
        <time>2019-08-04T13:58:08.325Z</time>
      </trkpt>
      <trkpt lat="42.53288333" lon="1.59609667">
        <ele>1549.0</ele>
        <time>2019-08-04T13:58:09.325Z</time>
      </trkpt>
      <trkpt lat="42.53286667" lon="1.59610667">
        <ele>1549.0</ele>
        <time>2019-08-04T13:58:10.301Z</time>
      </trkpt>
      <trkpt lat="42.53286667" lon="1.59610667">
        <ele>1549.0</ele>
        <time>2019-08-04T13:58:11.335Z</time>
      </trkpt>
      <trkpt lat="42.53283" lon="1.59612">
        <ele>1549.0</ele>
        <time>2019-08-04T13:58:12.324Z</time>
      </trkpt>
      <trkpt lat="42.53283" lon="1.59612">
        <ele>1549.0</ele>
        <time>2019-08-04T13:58:13.301Z</time>
      </trkpt>
      <trkpt lat="42.5328" lon="1.59614833">
        <ele>1550.0</ele>
        <time>2019-08-04T13:58:14.325Z</time>
      </trkpt>
      <trkpt lat="42.53278333" lon="1.59616">
        <ele>1550.0</ele>
        <time>2019-08-04T13:58:15.325Z</time>
      </trkpt>
      <trkpt lat="42.53278333" lon="1.59616">
        <ele>1550.0</ele>
        <time>2019-08-04T13:58:16.321Z</time>
      </trkpt>
      <trkpt lat="42.53275667" lon="1.59619333">
        <ele>1551.0</ele>
        <time>2019-08-04T13:58:17.324Z</time>
      </trkpt>
      <trkpt lat="42.53275667" lon="1.59619333">
        <ele>1551.0</ele>
        <time>2019-08-04T13:58:18.299Z</time>
      </trkpt>
      <trkpt lat="42.53274667" lon="1.59623667">
        <ele>1551.0</ele>
        <time>2019-08-04T13:58:19.324Z</time>
      </trkpt>
      <trkpt lat="42.53274667" lon="1.59623667">
        <ele>1551.0</ele>
        <time>2019-08-04T13:58:20.321Z</time>
      </trkpt>
      <trkpt lat="42.53274167" lon="1.59628">
        <ele>1552.0</ele>
        <time>2019-08-04T13:58:21.308Z</time>
      </trkpt>
      <trkpt lat="42.53274167" lon="1.59628">
        <ele>1552.0</ele>
        <time>2019-08-04T13:58:22.322Z</time>
      </trkpt>
      <trkpt lat="42.53275833" lon="1.59632167">
        <ele>1553.0</ele>
        <time>2019-08-04T13:58:23.324Z</time>
      </trkpt>
      <trkpt lat="42.53275833" lon="1.59632167">
        <ele>1553.0</ele>
        <time>2019-08-04T13:58:24.301Z</time>
      </trkpt>
      <trkpt lat="42.53277167" lon="1.59635833">
        <ele>1554.0</ele>
        <time>2019-08-04T13:58:25.335Z</time>
      </trkpt>
      <trkpt lat="42.53277167" lon="1.59635833">
        <ele>1554.0</ele>
        <time>2019-08-04T13:58:26.322Z</time>
      </trkpt>
      <trkpt lat="42.53279" lon="1.59639333">
        <ele>1554.0</ele>
        <time>2019-08-04T13:58:27.325Z</time>
      </trkpt>
      <trkpt lat="42.53279" lon="1.59639333">
        <ele>1554.0</ele>
        <time>2019-08-04T13:58:28.498Z</time>
      </trkpt>
      <trkpt lat="42.53280333" lon="1.596405">
        <ele>1554.0</ele>
        <time>2019-08-04T13:58:29.312Z</time>
      </trkpt>
      <trkpt lat="42.532835" lon="1.59641167">
        <ele>1555.0</ele>
        <time>2019-08-04T13:58:30.324Z</time>
      </trkpt>
      <trkpt lat="42.53285167" lon="1.59641333">
        <ele>1555.0</ele>
        <time>2019-08-04T13:58:31.329Z</time>
      </trkpt>
      <trkpt lat="42.53285167" lon="1.59641333">
        <ele>1555.0</ele>
        <time>2019-08-04T13:58:32.334Z</time>
      </trkpt>
      <trkpt lat="42.532885" lon="1.59640333">
        <ele>1555.0</ele>
        <time>2019-08-04T13:58:33.300Z</time>
      </trkpt>
      <trkpt lat="42.532885" lon="1.59640333">
        <ele>1555.0</ele>
        <time>2019-08-04T13:58:34.307Z</time>
      </trkpt>
      <trkpt lat="42.53291667" lon="1.59637667">
        <ele>1556.0</ele>
        <time>2019-08-04T13:58:35.330Z</time>
      </trkpt>
      <trkpt lat="42.53291667" lon="1.59637667">
        <ele>1556.0</ele>
        <time>2019-08-04T13:58:36.328Z</time>
      </trkpt>
      <trkpt lat="42.53294" lon="1.596345">
        <ele>1557.0</ele>
        <time>2019-08-04T13:58:37.324Z</time>
      </trkpt>
      <trkpt lat="42.53294" lon="1.596345">
        <ele>1557.0</ele>
        <time>2019-08-04T13:58:38.301Z</time>
      </trkpt>
      <trkpt lat="42.53296667" lon="1.59631833">
        <ele>1557.0</ele>
        <time>2019-08-04T13:58:39.326Z</time>
      </trkpt>
      <trkpt lat="42.53296667" lon="1.59631833">
        <ele>1557.0</ele>
        <time>2019-08-04T13:58:40.318Z</time>
      </trkpt>
      <trkpt lat="42.53298667" lon="1.59629">
        <ele>1558.0</ele>
        <time>2019-08-04T13:58:41.299Z</time>
      </trkpt>
      <trkpt lat="42.53298667" lon="1.59629">
        <ele>1558.0</ele>
        <time>2019-08-04T13:58:42.318Z</time>
      </trkpt>
      <trkpt lat="42.53301333" lon="1.59626833">
        <ele>1558.0</ele>
        <time>2019-08-04T13:58:43.298Z</time>
      </trkpt>
      <trkpt lat="42.53301333" lon="1.59626833">
        <ele>1558.0</ele>
        <time>2019-08-04T13:58:44.322Z</time>
      </trkpt>
      <trkpt lat="42.53304167" lon="1.59625167">
        <ele>1559.0</ele>
        <time>2019-08-04T13:58:45.326Z</time>
      </trkpt>
      <trkpt lat="42.53304167" lon="1.59625167">
        <ele>1559.0</ele>
        <time>2019-08-04T13:58:46.322Z</time>
      </trkpt>
      <trkpt lat="42.53307" lon="1.596235">
        <ele>1559.0</ele>
        <time>2019-08-04T13:58:47.324Z</time>
      </trkpt>
      <trkpt lat="42.53307" lon="1.596235">
        <ele>1559.0</ele>
        <time>2019-08-04T13:58:48.301Z</time>
      </trkpt>
      <trkpt lat="42.533105" lon="1.596215">
        <ele>1559.0</ele>
        <time>2019-08-04T13:58:49.328Z</time>
      </trkpt>
      <trkpt lat="42.53312167" lon="1.59620833">
        <ele>1560.0</ele>
        <time>2019-08-04T13:58:50.325Z</time>
      </trkpt>
      <trkpt lat="42.53312167" lon="1.59620833">
        <ele>1560.0</ele>
        <time>2019-08-04T13:58:51.301Z</time>
      </trkpt>
      <trkpt lat="42.533155" lon="1.59619833">
        <ele>1560.0</ele>
        <time>2019-08-04T13:58:52.325Z</time>
      </trkpt>
      <trkpt lat="42.533155" lon="1.59619833">
        <ele>1560.0</ele>
        <time>2019-08-04T13:58:53.301Z</time>
      </trkpt>
      <trkpt lat="42.53318833" lon="1.596185">
        <ele>1561.0</ele>
        <time>2019-08-04T13:58:54.324Z</time>
      </trkpt>
      <trkpt lat="42.53318833" lon="1.596185">
        <ele>1561.0</ele>
        <time>2019-08-04T13:58:55.301Z</time>
      </trkpt>
      <trkpt lat="42.53322167" lon="1.59617333">
        <ele>1561.0</ele>
        <time>2019-08-04T13:58:56.325Z</time>
      </trkpt>
      <trkpt lat="42.53323667" lon="1.59616667">
        <ele>1561.0</ele>
        <time>2019-08-04T13:58:57.300Z</time>
      </trkpt>
      <trkpt lat="42.53323667" lon="1.59616667">
        <ele>1561.0</ele>
        <time>2019-08-04T13:58:58.322Z</time>
      </trkpt>
      <trkpt lat="42.53327" lon="1.59615333">
        <ele>1561.0</ele>
        <time>2019-08-04T13:58:59.327Z</time>
      </trkpt>
      <trkpt lat="42.53327" lon="1.59615333">
        <ele>1561.0</ele>
        <time>2019-08-04T13:59:00.318Z</time>
      </trkpt>
      <trkpt lat="42.53327" lon="1.59615333">
        <ele>1561.0</ele>
        <time>2019-08-04T13:59:01.299Z</time>
      </trkpt>
      <trkpt lat="42.53330167" lon="1.59613833">
        <ele>1562.0</ele>
        <time>2019-08-04T13:59:02.331Z</time>
      </trkpt>
      <trkpt lat="42.53333333" lon="1.59612">
        <ele>1562.0</ele>
        <time>2019-08-04T13:59:03.326Z</time>
      </trkpt>
      <trkpt lat="42.53333333" lon="1.59612">
        <ele>1562.0</ele>
        <time>2019-08-04T13:59:04.319Z</time>
      </trkpt>
      <trkpt lat="42.533365" lon="1.59610333">
        <ele>1562.0</ele>
        <time>2019-08-04T13:59:05.324Z</time>
      </trkpt>
      <trkpt lat="42.533365" lon="1.59610333">
        <ele>1562.0</ele>
        <time>2019-08-04T13:59:06.299Z</time>
      </trkpt>
      <trkpt lat="42.53340333" lon="1.59609333">
        <ele>1562.0</ele>
        <time>2019-08-04T13:59:07.335Z</time>
      </trkpt>
      <trkpt lat="42.53340333" lon="1.59609333">
        <ele>1562.0</ele>
        <time>2019-08-04T13:59:08.321Z</time>
      </trkpt>
      <trkpt lat="42.53343833" lon="1.59608333">
        <ele>1563.0</ele>
        <time>2019-08-04T13:59:09.301Z</time>
      </trkpt>
      <trkpt lat="42.53343833" lon="1.59608333">
        <ele>1563.0</ele>
        <time>2019-08-04T13:59:10.321Z</time>
      </trkpt>
      <trkpt lat="42.53347667" lon="1.59607167">
        <ele>1563.0</ele>
        <time>2019-08-04T13:59:11.324Z</time>
      </trkpt>
      <trkpt lat="42.53347667" lon="1.59607167">
        <ele>1563.0</ele>
        <time>2019-08-04T13:59:12.322Z</time>
      </trkpt>
      <trkpt lat="42.533515" lon="1.59606667">
        <ele>1563.0</ele>
        <time>2019-08-04T13:59:13.324Z</time>
      </trkpt>
      <trkpt lat="42.533515" lon="1.59606667">
        <ele>1563.0</ele>
        <time>2019-08-04T13:59:14.299Z</time>
      </trkpt>
      <trkpt lat="42.53355333" lon="1.59607">
        <ele>1564.0</ele>
        <time>2019-08-04T13:59:15.326Z</time>
      </trkpt>
      <trkpt lat="42.53355333" lon="1.59607">
        <ele>1564.0</ele>
        <time>2019-08-04T13:59:16.319Z</time>
      </trkpt>
      <trkpt lat="42.533585" lon="1.59607333">
        <ele>1564.0</ele>
        <time>2019-08-04T13:59:17.298Z</time>
      </trkpt>
      <trkpt lat="42.533585" lon="1.59607333">
        <ele>1564.0</ele>
        <time>2019-08-04T13:59:18.322Z</time>
      </trkpt>
      <trkpt lat="42.53362" lon="1.59606833">
        <ele>1565.0</ele>
        <time>2019-08-04T13:59:19.325Z</time>
      </trkpt>
      <trkpt lat="42.53362" lon="1.59606833">
        <ele>1565.0</ele>
        <time>2019-08-04T13:59:20.319Z</time>
      </trkpt>
      <trkpt lat="42.53362" lon="1.59606833">
        <ele>1565.0</ele>
        <time>2019-08-04T13:59:21.301Z</time>
      </trkpt>
      <trkpt lat="42.53365667" lon="1.596065">
        <ele>1566.0</ele>
        <time>2019-08-04T13:59:22.319Z</time>
      </trkpt>
      <trkpt lat="42.533685" lon="1.59606833">
        <ele>1567.0</ele>
        <time>2019-08-04T13:59:23.299Z</time>
      </trkpt>
      <trkpt lat="42.53370167" lon="1.59606833">
        <ele>1567.0</ele>
        <time>2019-08-04T13:59:24.327Z</time>
      </trkpt>
      <trkpt lat="42.53370167" lon="1.59606833">
        <ele>1567.0</ele>
        <time>2019-08-04T13:59:25.319Z</time>
      </trkpt>
      <trkpt lat="42.53373333" lon="1.59606">
        <ele>1568.0</ele>
        <time>2019-08-04T13:59:26.299Z</time>
      </trkpt>
      <trkpt lat="42.53373333" lon="1.59606">
        <ele>1568.0</ele>
        <time>2019-08-04T13:59:27.552Z</time>
      </trkpt>
      <trkpt lat="42.53375" lon="1.59605833">
        <ele>1569.0</ele>
        <time>2019-08-04T13:59:28.334Z</time>
      </trkpt>
      <trkpt lat="42.53378" lon="1.59605667">
        <ele>1569.0</ele>
        <time>2019-08-04T13:59:29.333Z</time>
      </trkpt>
      <trkpt lat="42.53379" lon="1.59606167">
        <ele>1570.0</ele>
        <time>2019-08-04T13:59:30.315Z</time>
      </trkpt>
      <trkpt lat="42.53379" lon="1.59606167">
        <ele>1570.0</ele>
        <time>2019-08-04T13:59:31.321Z</time>
      </trkpt>
      <trkpt lat="42.53382167" lon="1.59605667">
        <ele>1571.0</ele>
        <time>2019-08-04T13:59:32.329Z</time>
      </trkpt>
      <trkpt lat="42.533835" lon="1.59604667">
        <ele>1571.0</ele>
        <time>2019-08-04T13:59:33.327Z</time>
      </trkpt>
      <trkpt lat="42.533835" lon="1.59604667">
        <ele>1571.0</ele>
        <time>2019-08-04T13:59:34.323Z</time>
      </trkpt>
      <trkpt lat="42.533835" lon="1.59604667">
        <ele>1571.0</ele>
        <time>2019-08-04T13:59:35.301Z</time>
      </trkpt>
      <trkpt lat="42.53387667" lon="1.596035">
        <ele>1572.0</ele>
        <time>2019-08-04T13:59:36.320Z</time>
      </trkpt>
      <trkpt lat="42.53391667" lon="1.59603167">
        <ele>1573.0</ele>
        <time>2019-08-04T13:59:37.301Z</time>
      </trkpt>
      <trkpt lat="42.53391667" lon="1.59603167">
        <ele>1573.0</ele>
        <time>2019-08-04T13:59:38.322Z</time>
      </trkpt>
      <trkpt lat="42.53396" lon="1.59604667">
        <ele>1574.0</ele>
        <time>2019-08-04T13:59:39.325Z</time>
      </trkpt>
      <trkpt lat="42.53396" lon="1.59604667">
        <ele>1574.0</ele>
        <time>2019-08-04T13:59:40.320Z</time>
      </trkpt>
      <trkpt lat="42.53399333" lon="1.59608833">
        <ele>1574.0</ele>
        <time>2019-08-04T13:59:41.324Z</time>
      </trkpt>
      <trkpt lat="42.53399333" lon="1.59608833">
        <ele>1574.0</ele>
        <time>2019-08-04T13:59:42.303Z</time>
      </trkpt>
      <trkpt lat="42.53401667" lon="1.59613167">
        <ele>1575.0</ele>
        <time>2019-08-04T13:59:43.324Z</time>
      </trkpt>
      <trkpt lat="42.53402667" lon="1.59615833">
        <ele>1576.0</ele>
        <time>2019-08-04T13:59:44.337Z</time>
      </trkpt>
      <trkpt lat="42.53403667" lon="1.59617167">
        <ele>1576.0</ele>
        <time>2019-08-04T13:59:45.326Z</time>
      </trkpt>
      <trkpt lat="42.53403667" lon="1.59617167">
        <ele>1576.0</ele>
        <time>2019-08-04T13:59:46.319Z</time>
      </trkpt>
      <trkpt lat="42.53407" lon="1.59620833">
        <ele>1577.0</ele>
        <time>2019-08-04T13:59:47.298Z</time>
      </trkpt>
      <trkpt lat="42.53407" lon="1.59620833">
        <ele>1577.0</ele>
        <time>2019-08-04T13:59:48.321Z</time>
      </trkpt>
      <trkpt lat="42.53410167" lon="1.59624333">
        <ele>1578.0</ele>
        <time>2019-08-04T13:59:49.301Z</time>
      </trkpt>
      <trkpt lat="42.53411833" lon="1.59626">
        <ele>1578.0</ele>
        <time>2019-08-04T13:59:50.325Z</time>
      </trkpt>
      <trkpt lat="42.53411833" lon="1.59626">
        <ele>1578.0</ele>
        <time>2019-08-04T13:59:51.329Z</time>
      </trkpt>
      <trkpt lat="42.53415333" lon="1.59629333">
        <ele>1579.0</ele>
        <time>2019-08-04T13:59:52.301Z</time>
      </trkpt>
      <trkpt lat="42.53415333" lon="1.59629333">
        <ele>1579.0</ele>
        <time>2019-08-04T13:59:53.492Z</time>
      </trkpt>
      <trkpt lat="42.53417" lon="1.59631333">
        <ele>1579.0</ele>
        <time>2019-08-04T13:59:54.325Z</time>
      </trkpt>
      <trkpt lat="42.53417" lon="1.59631333">
        <ele>1579.0</ele>
        <time>2019-08-04T13:59:55.319Z</time>
      </trkpt>
      <trkpt lat="42.53417" lon="1.59631333">
        <ele>1579.0</ele>
        <time>2019-08-04T13:59:56.299Z</time>
      </trkpt>
      <trkpt lat="42.53417" lon="1.59631333">
        <ele>1579.0</ele>
        <time>2019-08-04T13:59:57.322Z</time>
      </trkpt>
      <trkpt lat="42.53417" lon="1.59631333">
        <ele>1579.0</ele>
        <time>2019-08-04T13:59:58.322Z</time>
      </trkpt>
      <trkpt lat="42.53417" lon="1.59631333">
        <ele>1579.0</ele>
        <time>2019-08-04T13:59:59.319Z</time>
      </trkpt>
      <trkpt lat="42.53417167" lon="1.59632">
        <ele>1581.0</ele>
        <time>2019-08-04T14:00:00.299Z</time>
      </trkpt>
      <trkpt lat="42.53417167" lon="1.59632">
        <ele>1581.0</ele>
        <time>2019-08-04T14:00:01.324Z</time>
      </trkpt>
      <trkpt lat="42.53397667" lon="1.59616667">
        <ele>1582.0</ele>
        <time>2019-08-04T14:00:02.326Z</time>
      </trkpt>
      <trkpt lat="42.53397167" lon="1.59621167">
        <ele>1582.0</ele>
        <time>2019-08-04T14:00:03.325Z</time>
      </trkpt>
      <trkpt lat="42.53397167" lon="1.59621167">
        <ele>1582.0</ele>
        <time>2019-08-04T14:00:04.320Z</time>
      </trkpt>
      <trkpt lat="42.53394333" lon="1.596215">
        <ele>1583.0</ele>
        <time>2019-08-04T14:00:05.306Z</time>
      </trkpt>
      <trkpt lat="42.53394333" lon="1.596215">
        <ele>1583.0</ele>
        <time>2019-08-04T14:00:06.324Z</time>
      </trkpt>
      <trkpt lat="42.53391833" lon="1.59625333">
        <ele>1583.0</ele>
        <time>2019-08-04T14:00:07.326Z</time>
      </trkpt>
      <trkpt lat="42.53391833" lon="1.59625333">
        <ele>1583.0</ele>
        <time>2019-08-04T14:00:08.317Z</time>
      </trkpt>
      <trkpt lat="42.53388667" lon="1.59630167">
        <ele>1584.0</ele>
        <time>2019-08-04T14:00:09.299Z</time>
      </trkpt>
      <trkpt lat="42.53386333" lon="1.59630833">
        <ele>1584.0</ele>
        <time>2019-08-04T14:00:10.325Z</time>
      </trkpt>
      <trkpt lat="42.53386333" lon="1.59630833">
        <ele>1584.0</ele>
        <time>2019-08-04T14:00:11.320Z</time>
      </trkpt>
      <trkpt lat="42.533745" lon="1.59633">
        <ele>1585.0</ele>
        <time>2019-08-04T14:00:12.336Z</time>
      </trkpt>
      <trkpt lat="42.533745" lon="1.59633">
        <ele>1585.0</ele>
        <time>2019-08-04T14:00:13.296Z</time>
      </trkpt>
      <trkpt lat="42.53367667" lon="1.59636167">
        <ele>1584.0</ele>
        <time>2019-08-04T14:00:14.325Z</time>
      </trkpt>
      <trkpt lat="42.53365833" lon="1.59637333">
        <ele>1584.0</ele>
        <time>2019-08-04T14:00:15.301Z</time>
      </trkpt>
      <trkpt lat="42.53365833" lon="1.59637333">
        <ele>1584.0</ele>
        <time>2019-08-04T14:00:16.323Z</time>
      </trkpt>
      <trkpt lat="42.533615" lon="1.596395">
        <ele>1584.0</ele>
        <time>2019-08-04T14:00:17.325Z</time>
      </trkpt>
      <trkpt lat="42.533615" lon="1.596395">
        <ele>1584.0</ele>
        <time>2019-08-04T14:00:18.301Z</time>
      </trkpt>
      <trkpt lat="42.53357667" lon="1.596415">
        <ele>1584.0</ele>
        <time>2019-08-04T14:00:19.325Z</time>
      </trkpt>
      <trkpt lat="42.53357667" lon="1.596415">
        <ele>1584.0</ele>
        <time>2019-08-04T14:00:20.319Z</time>
      </trkpt>
      <trkpt lat="42.53357667" lon="1.596415">
        <ele>1584.0</ele>
        <time>2019-08-04T14:00:21.302Z</time>
      </trkpt>
      <trkpt lat="42.53355333" lon="1.59642833">
        <ele>1584.0</ele>
        <time>2019-08-04T14:00:22.320Z</time>
      </trkpt>
      <trkpt lat="42.53353833" lon="1.59644">
        <ele>1585.0</ele>
        <time>2019-08-04T14:00:23.325Z</time>
      </trkpt>
      <trkpt lat="42.53353833" lon="1.59644">
        <ele>1585.0</ele>
        <time>2019-08-04T14:00:24.301Z</time>
      </trkpt>
      <trkpt lat="42.533545" lon="1.59644833">
        <ele>1586.0</ele>
        <time>2019-08-04T14:00:25.325Z</time>
      </trkpt>
      <trkpt lat="42.53353167" lon="1.59645167">
        <ele>1586.0</ele>
        <time>2019-08-04T14:00:26.326Z</time>
      </trkpt>
      <trkpt lat="42.53351833" lon="1.59646">
        <ele>1586.0</ele>
        <time>2019-08-04T14:00:27.301Z</time>
      </trkpt>
      <trkpt lat="42.53351833" lon="1.59646">
        <ele>1586.0</ele>
        <time>2019-08-04T14:00:28.322Z</time>
      </trkpt>
      <trkpt lat="42.53349167" lon="1.59648">
        <ele>1586.0</ele>
        <time>2019-08-04T14:00:29.297Z</time>
      </trkpt>
      <trkpt lat="42.53347333" lon="1.59648667">
        <ele>1586.0</ele>
        <time>2019-08-04T14:00:30.327Z</time>
      </trkpt>
      <trkpt lat="42.53347333" lon="1.59648667">
        <ele>1586.0</ele>
        <time>2019-08-04T14:00:31.296Z</time>
      </trkpt>
      <trkpt lat="42.53343167" lon="1.59650667">
        <ele>1587.0</ele>
        <time>2019-08-04T14:00:32.326Z</time>
      </trkpt>
      <trkpt lat="42.53340833" lon="1.59651833">
        <ele>1587.0</ele>
        <time>2019-08-04T14:00:33.327Z</time>
      </trkpt>
      <trkpt lat="42.53340833" lon="1.59651833">
        <ele>1587.0</ele>
        <time>2019-08-04T14:00:34.312Z</time>
      </trkpt>
      <trkpt lat="42.53338333" lon="1.59653667">
        <ele>1587.0</ele>
        <time>2019-08-04T14:00:35.323Z</time>
      </trkpt>
      <trkpt lat="42.53335167" lon="1.59656667">
        <ele>1587.0</ele>
        <time>2019-08-04T14:00:36.325Z</time>
      </trkpt>
      <trkpt lat="42.53335167" lon="1.59656667">
        <ele>1587.0</ele>
        <time>2019-08-04T14:00:37.301Z</time>
      </trkpt>
      <trkpt lat="42.53332333" lon="1.59658667">
        <ele>1587.0</ele>
        <time>2019-08-04T14:00:38.325Z</time>
      </trkpt>
      <trkpt lat="42.53330333" lon="1.596605">
        <ele>1587.0</ele>
        <time>2019-08-04T14:00:39.301Z</time>
      </trkpt>
      <trkpt lat="42.53330333" lon="1.596605">
        <ele>1587.0</ele>
        <time>2019-08-04T14:00:40.322Z</time>
      </trkpt>
      <trkpt lat="42.53327167" lon="1.59663667">
        <ele>1587.0</ele>
        <time>2019-08-04T14:00:41.325Z</time>
      </trkpt>
      <trkpt lat="42.53325667" lon="1.59665167">
        <ele>1587.0</ele>
        <time>2019-08-04T14:00:42.301Z</time>
      </trkpt>
      <trkpt lat="42.53325667" lon="1.59665167">
        <ele>1587.0</ele>
        <time>2019-08-04T14:00:43.325Z</time>
      </trkpt>
      <trkpt lat="42.53323833" lon="1.59668833">
        <ele>1587.0</ele>
        <time>2019-08-04T14:00:44.324Z</time>
      </trkpt>
      <trkpt lat="42.53323333" lon="1.596705">
        <ele>1587.0</ele>
        <time>2019-08-04T14:00:45.327Z</time>
      </trkpt>
      <trkpt lat="42.53323333" lon="1.596705">
        <ele>1587.0</ele>
        <time>2019-08-04T14:00:46.317Z</time>
      </trkpt>
      <trkpt lat="42.53323" lon="1.59673667">
        <ele>1588.0</ele>
        <time>2019-08-04T14:00:47.297Z</time>
      </trkpt>
      <trkpt lat="42.53323" lon="1.59673667">
        <ele>1588.0</ele>
        <time>2019-08-04T14:00:48.317Z</time>
      </trkpt>
      <trkpt lat="42.53321167" lon="1.59675833">
        <ele>1588.0</ele>
        <time>2019-08-04T14:00:49.297Z</time>
      </trkpt>
      <trkpt lat="42.53321167" lon="1.59675833">
        <ele>1588.0</ele>
        <time>2019-08-04T14:00:50.321Z</time>
      </trkpt>
      <trkpt lat="42.53319833" lon="1.59678167">
        <ele>1589.0</ele>
        <time>2019-08-04T14:00:51.335Z</time>
      </trkpt>
      <trkpt lat="42.53319167" lon="1.5968">
        <ele>1589.0</ele>
        <time>2019-08-04T14:00:52.326Z</time>
      </trkpt>
      <trkpt lat="42.53319167" lon="1.5968">
        <ele>1589.0</ele>
        <time>2019-08-04T14:00:53.320Z</time>
      </trkpt>
      <trkpt lat="42.53318333" lon="1.59683833">
        <ele>1589.0</ele>
        <time>2019-08-04T14:00:54.325Z</time>
      </trkpt>
      <trkpt lat="42.53318333" lon="1.59683833">
        <ele>1589.0</ele>
        <time>2019-08-04T14:00:55.301Z</time>
      </trkpt>
      <trkpt lat="42.53316667" lon="1.59686333">
        <ele>1590.0</ele>
        <time>2019-08-04T14:00:56.325Z</time>
      </trkpt>
      <trkpt lat="42.53316" lon="1.59687">
        <ele>1590.0</ele>
        <time>2019-08-04T14:00:57.301Z</time>
      </trkpt>
      <trkpt lat="42.53316" lon="1.59687">
        <ele>1590.0</ele>
        <time>2019-08-04T14:00:58.326Z</time>
      </trkpt>
      <trkpt lat="42.53314167" lon="1.59688167">
        <ele>1590.0</ele>
        <time>2019-08-04T14:00:59.323Z</time>
      </trkpt>
      <trkpt lat="42.53314167" lon="1.59688167">
        <ele>1590.0</ele>
        <time>2019-08-04T14:01:00.320Z</time>
      </trkpt>
      <trkpt lat="42.53314167" lon="1.59688167">
        <ele>1590.0</ele>
        <time>2019-08-04T14:01:01.301Z</time>
      </trkpt>
      <trkpt lat="42.53312333" lon="1.59689833">
        <ele>1591.0</ele>
        <time>2019-08-04T14:01:02.317Z</time>
      </trkpt>
      <trkpt lat="42.533105" lon="1.59693167">
        <ele>1591.0</ele>
        <time>2019-08-04T14:01:03.302Z</time>
      </trkpt>
      <trkpt lat="42.533105" lon="1.59693167">
        <ele>1591.0</ele>
        <time>2019-08-04T14:01:04.320Z</time>
      </trkpt>
      <trkpt lat="42.53308667" lon="1.596965">
        <ele>1591.0</ele>
        <time>2019-08-04T14:01:05.324Z</time>
      </trkpt>
      <trkpt lat="42.53308667" lon="1.596965">
        <ele>1591.0</ele>
        <time>2019-08-04T14:01:06.320Z</time>
      </trkpt>
      <trkpt lat="42.53306" lon="1.59699167">
        <ele>1591.0</ele>
        <time>2019-08-04T14:01:07.301Z</time>
      </trkpt>
      <trkpt lat="42.53304667" lon="1.597">
        <ele>1591.0</ele>
        <time>2019-08-04T14:01:08.326Z</time>
      </trkpt>
      <trkpt lat="42.53304667" lon="1.597">
        <ele>1591.0</ele>
        <time>2019-08-04T14:01:09.322Z</time>
      </trkpt>
      <trkpt lat="42.53301833" lon="1.59701833">
        <ele>1591.0</ele>
        <time>2019-08-04T14:01:10.325Z</time>
      </trkpt>
      <trkpt lat="42.53301833" lon="1.59701833">
        <ele>1591.0</ele>
        <time>2019-08-04T14:01:11.304Z</time>
      </trkpt>
      <trkpt lat="42.53298833" lon="1.59704">
        <ele>1592.0</ele>
        <time>2019-08-04T14:01:12.333Z</time>
      </trkpt>
      <trkpt lat="42.53298833" lon="1.59704">
        <ele>1592.0</ele>
        <time>2019-08-04T14:01:13.323Z</time>
      </trkpt>
      <trkpt lat="42.53295667" lon="1.59706">
        <ele>1593.0</ele>
        <time>2019-08-04T14:01:14.326Z</time>
      </trkpt>
      <trkpt lat="42.53294" lon="1.59706833">
        <ele>1593.0</ele>
        <time>2019-08-04T14:01:15.301Z</time>
      </trkpt>
      <trkpt lat="42.53294" lon="1.59706833">
        <ele>1593.0</ele>
        <time>2019-08-04T14:01:16.328Z</time>
      </trkpt>
      <trkpt lat="42.53290833" lon="1.59708667">
        <ele>1593.0</ele>
        <time>2019-08-04T14:01:17.324Z</time>
      </trkpt>
      <trkpt lat="42.53290833" lon="1.59708667">
        <ele>1593.0</ele>
        <time>2019-08-04T14:01:18.299Z</time>
      </trkpt>
      <trkpt lat="42.53287667" lon="1.59709667">
        <ele>1594.0</ele>
        <time>2019-08-04T14:01:19.324Z</time>
      </trkpt>
      <trkpt lat="42.53287667" lon="1.59709667">
        <ele>1594.0</ele>
        <time>2019-08-04T14:01:20.299Z</time>
      </trkpt>
      <trkpt lat="42.53284667" lon="1.59710167">
        <ele>1594.0</ele>
        <time>2019-08-04T14:01:21.326Z</time>
      </trkpt>
      <trkpt lat="42.53284667" lon="1.59710167">
        <ele>1594.0</ele>
        <time>2019-08-04T14:01:22.308Z</time>
      </trkpt>
      <trkpt lat="42.53281833" lon="1.59711">
        <ele>1594.0</ele>
        <time>2019-08-04T14:01:23.334Z</time>
      </trkpt>
      <trkpt lat="42.53281833" lon="1.59711">
        <ele>1594.0</ele>
        <time>2019-08-04T14:01:24.500Z</time>
      </trkpt>
      <trkpt lat="42.53280333" lon="1.59710833">
        <ele>1595.0</ele>
        <time>2019-08-04T14:01:25.320Z</time>
      </trkpt>
      <trkpt lat="42.53280333" lon="1.59710833">
        <ele>1595.0</ele>
        <time>2019-08-04T14:01:26.300Z</time>
      </trkpt>
      <trkpt lat="42.53275667" lon="1.59711167">
        <ele>1595.0</ele>
        <time>2019-08-04T14:01:27.301Z</time>
      </trkpt>
      <trkpt lat="42.53275667" lon="1.59711167">
        <ele>1595.0</ele>
        <time>2019-08-04T14:01:28.323Z</time>
      </trkpt>
      <trkpt lat="42.53272333" lon="1.597115">
        <ele>1596.0</ele>
        <time>2019-08-04T14:01:29.326Z</time>
      </trkpt>
      <trkpt lat="42.53270833" lon="1.59711833">
        <ele>1596.0</ele>
        <time>2019-08-04T14:01:30.313Z</time>
      </trkpt>
      <trkpt lat="42.53270833" lon="1.59711833">
        <ele>1596.0</ele>
        <time>2019-08-04T14:01:31.320Z</time>
      </trkpt>
      <trkpt lat="42.532675" lon="1.59711833">
        <ele>1596.0</ele>
        <time>2019-08-04T14:01:32.335Z</time>
      </trkpt>
      <trkpt lat="42.532675" lon="1.59711833">
        <ele>1596.0</ele>
        <time>2019-08-04T14:01:33.321Z</time>
      </trkpt>
      <trkpt lat="42.532675" lon="1.59711833">
        <ele>1596.0</ele>
        <time>2019-08-04T14:01:34.301Z</time>
      </trkpt>
      <trkpt lat="42.53262667" lon="1.59710667">
        <ele>1596.0</ele>
        <time>2019-08-04T14:01:35.325Z</time>
      </trkpt>
      <trkpt lat="42.53262667" lon="1.59710667">
        <ele>1596.0</ele>
        <time>2019-08-04T14:01:36.321Z</time>
      </trkpt>
      <trkpt lat="42.53259" lon="1.59709667">
        <ele>1596.0</ele>
        <time>2019-08-04T14:01:37.323Z</time>
      </trkpt>
      <trkpt lat="42.53259" lon="1.59709667">
        <ele>1596.0</ele>
        <time>2019-08-04T14:01:38.299Z</time>
      </trkpt>
      <trkpt lat="42.53255667" lon="1.59708333">
        <ele>1596.0</ele>
        <time>2019-08-04T14:01:39.326Z</time>
      </trkpt>
      <trkpt lat="42.53253667" lon="1.597075">
        <ele>1596.0</ele>
        <time>2019-08-04T14:01:40.325Z</time>
      </trkpt>
      <trkpt lat="42.53253667" lon="1.597075">
        <ele>1596.0</ele>
        <time>2019-08-04T14:01:41.321Z</time>
      </trkpt>
      <trkpt lat="42.5325" lon="1.59706333">
        <ele>1596.0</ele>
        <time>2019-08-04T14:01:42.296Z</time>
      </trkpt>
      <trkpt lat="42.5325" lon="1.59706333">
        <ele>1596.0</ele>
        <time>2019-08-04T14:01:43.315Z</time>
      </trkpt>
      <trkpt lat="42.53247167" lon="1.597055">
        <ele>1597.0</ele>
        <time>2019-08-04T14:01:44.337Z</time>
      </trkpt>
      <trkpt lat="42.53245667" lon="1.59705667">
        <ele>1597.0</ele>
        <time>2019-08-04T14:01:45.324Z</time>
      </trkpt>
      <trkpt lat="42.53245667" lon="1.59705667">
        <ele>1597.0</ele>
        <time>2019-08-04T14:01:46.299Z</time>
      </trkpt>
      <trkpt lat="42.53242333" lon="1.59706">
        <ele>1597.0</ele>
        <time>2019-08-04T14:01:47.327Z</time>
      </trkpt>
      <trkpt lat="42.53242333" lon="1.59706">
        <ele>1597.0</ele>
        <time>2019-08-04T14:01:48.320Z</time>
      </trkpt>
      <trkpt lat="42.53239" lon="1.597065">
        <ele>1598.0</ele>
        <time>2019-08-04T14:01:49.300Z</time>
      </trkpt>
      <trkpt lat="42.532375" lon="1.59707">
        <ele>1598.0</ele>
        <time>2019-08-04T14:01:50.326Z</time>
      </trkpt>
      <trkpt lat="42.532375" lon="1.59707">
        <ele>1598.0</ele>
        <time>2019-08-04T14:01:51.302Z</time>
      </trkpt>
      <trkpt lat="42.53234333" lon="1.59708333">
        <ele>1598.0</ele>
        <time>2019-08-04T14:01:52.334Z</time>
      </trkpt>
      <trkpt lat="42.53234333" lon="1.59708333">
        <ele>1598.0</ele>
        <time>2019-08-04T14:01:53.335Z</time>
      </trkpt>
      <trkpt lat="42.53234333" lon="1.59708333">
        <ele>1598.0</ele>
        <time>2019-08-04T14:01:54.494Z</time>
      </trkpt>
      <trkpt lat="42.53231167" lon="1.59710667">
        <ele>1599.0</ele>
        <time>2019-08-04T14:01:55.318Z</time>
      </trkpt>
      <trkpt lat="42.532285" lon="1.59713333">
        <ele>1599.0</ele>
        <time>2019-08-04T14:01:56.298Z</time>
      </trkpt>
      <trkpt lat="42.532285" lon="1.59713333">
        <ele>1599.0</ele>
        <time>2019-08-04T14:01:57.324Z</time>
      </trkpt>
      <trkpt lat="42.53225" lon="1.59716833">
        <ele>1600.0</ele>
        <time>2019-08-04T14:01:58.325Z</time>
      </trkpt>
      <trkpt lat="42.53223667" lon="1.59718667">
        <ele>1600.0</ele>
        <time>2019-08-04T14:01:59.301Z</time>
      </trkpt>
      <trkpt lat="42.53223667" lon="1.59718667">
        <ele>1600.0</ele>
        <time>2019-08-04T14:02:00.324Z</time>
      </trkpt>
      <trkpt lat="42.53220667" lon="1.59722333">
        <ele>1600.0</ele>
        <time>2019-08-04T14:02:01.325Z</time>
      </trkpt>
      <trkpt lat="42.53220667" lon="1.59722333">
        <ele>1600.0</ele>
        <time>2019-08-04T14:02:02.320Z</time>
      </trkpt>
      <trkpt lat="42.53220667" lon="1.59722333">
        <ele>1600.0</ele>
        <time>2019-08-04T14:02:03.302Z</time>
      </trkpt>
      <trkpt lat="42.53217333" lon="1.59725833">
        <ele>1601.0</ele>
        <time>2019-08-04T14:02:04.321Z</time>
      </trkpt>
      <trkpt lat="42.53214333" lon="1.59729833">
        <ele>1601.0</ele>
        <time>2019-08-04T14:02:05.326Z</time>
      </trkpt>
      <trkpt lat="42.53214333" lon="1.59729833">
        <ele>1601.0</ele>
        <time>2019-08-04T14:02:06.320Z</time>
      </trkpt>
      <trkpt lat="42.53211" lon="1.59734167">
        <ele>1602.0</ele>
        <time>2019-08-04T14:02:07.301Z</time>
      </trkpt>
      <trkpt lat="42.53211" lon="1.59734167">
        <ele>1602.0</ele>
        <time>2019-08-04T14:02:08.321Z</time>
      </trkpt>
      <trkpt lat="42.53207333" lon="1.597385">
        <ele>1602.0</ele>
        <time>2019-08-04T14:02:09.301Z</time>
      </trkpt>
      <trkpt lat="42.53205333" lon="1.59741167">
        <ele>1602.0</ele>
        <time>2019-08-04T14:02:10.325Z</time>
      </trkpt>
      <trkpt lat="42.53205333" lon="1.59741167">
        <ele>1602.0</ele>
        <time>2019-08-04T14:02:11.301Z</time>
      </trkpt>
      <trkpt lat="42.53201" lon="1.59746833">
        <ele>1602.0</ele>
        <time>2019-08-04T14:02:12.330Z</time>
      </trkpt>
      <trkpt lat="42.531985" lon="1.59750167">
        <ele>1602.0</ele>
        <time>2019-08-04T14:02:13.327Z</time>
      </trkpt>
      <trkpt lat="42.531985" lon="1.59750167">
        <ele>1602.0</ele>
        <time>2019-08-04T14:02:14.321Z</time>
      </trkpt>
      <trkpt lat="42.53193667" lon="1.597565">
        <ele>1602.0</ele>
        <time>2019-08-04T14:02:15.325Z</time>
      </trkpt>
      <trkpt lat="42.53191167" lon="1.59760167">
        <ele>1602.0</ele>
        <time>2019-08-04T14:02:16.301Z</time>
      </trkpt>
      <trkpt lat="42.53191167" lon="1.59760167">
        <ele>1602.0</ele>
        <time>2019-08-04T14:02:17.324Z</time>
      </trkpt>
      <trkpt lat="42.531855" lon="1.597675">
        <ele>1602.0</ele>
        <time>2019-08-04T14:02:18.326Z</time>
      </trkpt>
      <trkpt lat="42.53182667" lon="1.59771333">
        <ele>1602.0</ele>
        <time>2019-08-04T14:02:19.301Z</time>
      </trkpt>
      <trkpt lat="42.53182667" lon="1.59771333">
        <ele>1602.0</ele>
        <time>2019-08-04T14:02:20.321Z</time>
      </trkpt>
      <trkpt lat="42.53177667" lon="1.59779167">
        <ele>1601.0</ele>
        <time>2019-08-04T14:02:21.302Z</time>
      </trkpt>
      <trkpt lat="42.53177667" lon="1.59779167">
        <ele>1601.0</ele>
        <time>2019-08-04T14:02:22.340Z</time>
      </trkpt>
      <trkpt lat="42.53175167" lon="1.59783167">
        <ele>1601.0</ele>
        <time>2019-08-04T14:02:23.321Z</time>
      </trkpt>
      <trkpt lat="42.53171" lon="1.59792">
        <ele>1601.0</ele>
        <time>2019-08-04T14:02:24.300Z</time>
      </trkpt>
      <trkpt lat="42.53171" lon="1.59792">
        <ele>1601.0</ele>
        <time>2019-08-04T14:02:25.321Z</time>
      </trkpt>
      <trkpt lat="42.53167333" lon="1.59801167">
        <ele>1601.0</ele>
        <time>2019-08-04T14:02:26.301Z</time>
      </trkpt>
      <trkpt lat="42.53167333" lon="1.59801167">
        <ele>1601.0</ele>
        <time>2019-08-04T14:02:27.329Z</time>
      </trkpt>
      <trkpt lat="42.53164333" lon="1.59810333">
        <ele>1602.0</ele>
        <time>2019-08-04T14:02:28.326Z</time>
      </trkpt>
      <trkpt lat="42.53164333" lon="1.59810333">
        <ele>1602.0</ele>
        <time>2019-08-04T14:02:29.320Z</time>
      </trkpt>
      <trkpt lat="42.53162167" lon="1.59819333">
        <ele>1602.0</ele>
        <time>2019-08-04T14:02:30.333Z</time>
      </trkpt>
      <trkpt lat="42.53161333" lon="1.59823333">
        <ele>1602.0</ele>
        <time>2019-08-04T14:02:31.299Z</time>
      </trkpt>
      <trkpt lat="42.53160333" lon="1.59827167">
        <ele>1602.0</ele>
        <time>2019-08-04T14:02:32.326Z</time>
      </trkpt>
      <trkpt lat="42.53159667" lon="1.59830833">
        <ele>1602.0</ele>
        <time>2019-08-04T14:02:33.309Z</time>
      </trkpt>
      <trkpt lat="42.53158667" lon="1.59834333">
        <ele>1603.0</ele>
        <time>2019-08-04T14:02:34.327Z</time>
      </trkpt>
      <trkpt lat="42.53158667" lon="1.59834333">
        <ele>1603.0</ele>
        <time>2019-08-04T14:02:35.320Z</time>
      </trkpt>
      <trkpt lat="42.53157" lon="1.59840833">
        <ele>1603.0</ele>
        <time>2019-08-04T14:02:36.301Z</time>
      </trkpt>
      <trkpt lat="42.53157" lon="1.59840833">
        <ele>1603.0</ele>
        <time>2019-08-04T14:02:37.324Z</time>
      </trkpt>
      <trkpt lat="42.53155833" lon="1.59846667">
        <ele>1603.0</ele>
        <time>2019-08-04T14:02:38.327Z</time>
      </trkpt>
      <trkpt lat="42.53155833" lon="1.59846667">
        <ele>1603.0</ele>
        <time>2019-08-04T14:02:39.325Z</time>
      </trkpt>
      <trkpt lat="42.53154833" lon="1.59852333">
        <ele>1604.0</ele>
        <time>2019-08-04T14:02:40.326Z</time>
      </trkpt>
      <trkpt lat="42.53154833" lon="1.59852333">
        <ele>1604.0</ele>
        <time>2019-08-04T14:02:41.321Z</time>
      </trkpt>
      <trkpt lat="42.53153833" lon="1.59857667">
        <ele>1604.0</ele>
        <time>2019-08-04T14:02:42.296Z</time>
      </trkpt>
      <trkpt lat="42.53153833" lon="1.59857667">
        <ele>1604.0</ele>
        <time>2019-08-04T14:02:43.321Z</time>
      </trkpt>
      <trkpt lat="42.531525" lon="1.59863333">
        <ele>1604.0</ele>
        <time>2019-08-04T14:02:44.306Z</time>
      </trkpt>
      <trkpt lat="42.531525" lon="1.59863333">
        <ele>1604.0</ele>
        <time>2019-08-04T14:02:45.323Z</time>
      </trkpt>
      <trkpt lat="42.53151333" lon="1.59869">
        <ele>1605.0</ele>
        <time>2019-08-04T14:02:46.298Z</time>
      </trkpt>
      <trkpt lat="42.53150833" lon="1.59871667">
        <ele>1605.0</ele>
        <time>2019-08-04T14:02:47.325Z</time>
      </trkpt>
      <trkpt lat="42.53150833" lon="1.59871667">
        <ele>1605.0</ele>
        <time>2019-08-04T14:02:48.301Z</time>
      </trkpt>
      <trkpt lat="42.5315" lon="1.59876833">
        <ele>1605.0</ele>
        <time>2019-08-04T14:02:49.326Z</time>
      </trkpt>
      <trkpt lat="42.531495" lon="1.59879333">
        <ele>1605.0</ele>
        <time>2019-08-04T14:02:50.326Z</time>
      </trkpt>
      <trkpt lat="42.531495" lon="1.59879333">
        <ele>1605.0</ele>
        <time>2019-08-04T14:02:51.313Z</time>
      </trkpt>
      <trkpt lat="42.531495" lon="1.59879333">
        <ele>1605.0</ele>
        <time>2019-08-04T14:02:52.496Z</time>
      </trkpt>
      <trkpt lat="42.53148667" lon="1.598845">
        <ele>1606.0</ele>
        <time>2019-08-04T14:02:53.321Z</time>
      </trkpt>
      <trkpt lat="42.53147833" lon="1.59889167">
        <ele>1606.0</ele>
        <time>2019-08-04T14:02:54.302Z</time>
      </trkpt>
      <trkpt lat="42.53147" lon="1.598915">
        <ele>1606.0</ele>
        <time>2019-08-04T14:02:55.326Z</time>
      </trkpt>
      <trkpt lat="42.53147" lon="1.598915">
        <ele>1606.0</ele>
        <time>2019-08-04T14:02:56.301Z</time>
      </trkpt>
      <trkpt lat="42.53145667" lon="1.59896167">
        <ele>1607.0</ele>
        <time>2019-08-04T14:02:57.327Z</time>
      </trkpt>
      <trkpt lat="42.53145" lon="1.598985">
        <ele>1607.0</ele>
        <time>2019-08-04T14:02:58.323Z</time>
      </trkpt>
      <trkpt lat="42.53145" lon="1.598985">
        <ele>1607.0</ele>
        <time>2019-08-04T14:02:59.301Z</time>
      </trkpt>
      <trkpt lat="42.531435" lon="1.59902833">
        <ele>1607.0</ele>
        <time>2019-08-04T14:03:00.325Z</time>
      </trkpt>
      <trkpt lat="42.531435" lon="1.59902833">
        <ele>1607.0</ele>
        <time>2019-08-04T14:03:01.301Z</time>
      </trkpt>
      <trkpt lat="42.53143" lon="1.59905">
        <ele>1608.0</ele>
        <time>2019-08-04T14:03:02.325Z</time>
      </trkpt>
      <trkpt lat="42.53141833" lon="1.59909833">
        <ele>1608.0</ele>
        <time>2019-08-04T14:03:03.324Z</time>
      </trkpt>
      <trkpt lat="42.53141833" lon="1.59909833">
        <ele>1608.0</ele>
        <time>2019-08-04T14:03:04.301Z</time>
      </trkpt>
      <trkpt lat="42.531405" lon="1.59914333">
        <ele>1608.0</ele>
        <time>2019-08-04T14:03:05.326Z</time>
      </trkpt>
      <trkpt lat="42.531405" lon="1.59914333">
        <ele>1608.0</ele>
        <time>2019-08-04T14:03:06.323Z</time>
      </trkpt>
      <trkpt lat="42.531395" lon="1.59919">
        <ele>1609.0</ele>
        <time>2019-08-04T14:03:07.324Z</time>
      </trkpt>
      <trkpt lat="42.531395" lon="1.59919">
        <ele>1609.0</ele>
        <time>2019-08-04T14:03:08.301Z</time>
      </trkpt>
      <trkpt lat="42.53138833" lon="1.59923833">
        <ele>1609.0</ele>
        <time>2019-08-04T14:03:09.327Z</time>
      </trkpt>
      <trkpt lat="42.531385" lon="1.59926167">
        <ele>1609.0</ele>
        <time>2019-08-04T14:03:10.327Z</time>
      </trkpt>
      <trkpt lat="42.531385" lon="1.59926167">
        <ele>1609.0</ele>
        <time>2019-08-04T14:03:11.321Z</time>
      </trkpt>
      <trkpt lat="42.53137667" lon="1.59930667">
        <ele>1610.0</ele>
        <time>2019-08-04T14:03:12.296Z</time>
      </trkpt>
      <trkpt lat="42.53137667" lon="1.59930667">
        <ele>1610.0</ele>
        <time>2019-08-04T14:03:13.321Z</time>
      </trkpt>
      <trkpt lat="42.53137" lon="1.59935333">
        <ele>1610.0</ele>
        <time>2019-08-04T14:03:14.307Z</time>
      </trkpt>
      <trkpt lat="42.531365" lon="1.59937667">
        <ele>1610.0</ele>
        <time>2019-08-04T14:03:15.327Z</time>
      </trkpt>
      <trkpt lat="42.53136" lon="1.59940167">
        <ele>1611.0</ele>
        <time>2019-08-04T14:03:16.324Z</time>
      </trkpt>
      <trkpt lat="42.53135833" lon="1.59942667">
        <ele>1611.0</ele>
        <time>2019-08-04T14:03:17.330Z</time>
      </trkpt>
      <trkpt lat="42.53135833" lon="1.59942667">
        <ele>1611.0</ele>
        <time>2019-08-04T14:03:18.328Z</time>
      </trkpt>
      <trkpt lat="42.53135667" lon="1.59947167">
        <ele>1611.0</ele>
        <time>2019-08-04T14:03:19.325Z</time>
      </trkpt>
      <trkpt lat="42.53135833" lon="1.59949167">
        <ele>1611.0</ele>
        <time>2019-08-04T14:03:20.302Z</time>
      </trkpt>
      <trkpt lat="42.53135833" lon="1.59949167">
        <ele>1611.0</ele>
        <time>2019-08-04T14:03:21.323Z</time>
      </trkpt>
      <trkpt lat="42.53137" lon="1.59952333">
        <ele>1612.0</ele>
        <time>2019-08-04T14:03:22.298Z</time>
      </trkpt>
      <trkpt lat="42.53137333" lon="1.59954">
        <ele>1612.0</ele>
        <time>2019-08-04T14:03:23.327Z</time>
      </trkpt>
      <trkpt lat="42.53137333" lon="1.59954">
        <ele>1612.0</ele>
        <time>2019-08-04T14:03:24.302Z</time>
      </trkpt>
      <trkpt lat="42.53137333" lon="1.59957667">
        <ele>1612.0</ele>
        <time>2019-08-04T14:03:25.326Z</time>
      </trkpt>
      <trkpt lat="42.53137167" lon="1.599595">
        <ele>1612.0</ele>
        <time>2019-08-04T14:03:26.327Z</time>
      </trkpt>
      <trkpt lat="42.53137167" lon="1.599595">
        <ele>1612.0</ele>
        <time>2019-08-04T14:03:27.302Z</time>
      </trkpt>
      <trkpt lat="42.53137167" lon="1.59963833">
        <ele>1612.0</ele>
        <time>2019-08-04T14:03:28.327Z</time>
      </trkpt>
      <trkpt lat="42.53137167" lon="1.59963833">
        <ele>1612.0</ele>
        <time>2019-08-04T14:03:29.312Z</time>
      </trkpt>
      <trkpt lat="42.531365" lon="1.59967667">
        <ele>1612.0</ele>
        <time>2019-08-04T14:03:30.335Z</time>
      </trkpt>
      <trkpt lat="42.531365" lon="1.59967667">
        <ele>1612.0</ele>
        <time>2019-08-04T14:03:31.307Z</time>
      </trkpt>
      <trkpt lat="42.53136167" lon="1.59969667">
        <ele>1612.0</ele>
        <time>2019-08-04T14:03:32.325Z</time>
      </trkpt>
      <trkpt lat="42.53135833" lon="1.59973833">
        <ele>1613.0</ele>
        <time>2019-08-04T14:03:33.328Z</time>
      </trkpt>
      <trkpt lat="42.53135833" lon="1.59973833">
        <ele>1613.0</ele>
        <time>2019-08-04T14:03:34.317Z</time>
      </trkpt>
      <trkpt lat="42.531355" lon="1.59977667">
        <ele>1613.0</ele>
        <time>2019-08-04T14:03:35.335Z</time>
      </trkpt>
      <trkpt lat="42.531355" lon="1.59977667">
        <ele>1613.0</ele>
        <time>2019-08-04T14:03:36.322Z</time>
      </trkpt>
      <trkpt lat="42.53135167" lon="1.59981333">
        <ele>1613.0</ele>
        <time>2019-08-04T14:03:37.326Z</time>
      </trkpt>
      <trkpt lat="42.53135167" lon="1.59983">
        <ele>1613.0</ele>
        <time>2019-08-04T14:03:38.327Z</time>
      </trkpt>
      <trkpt lat="42.53135167" lon="1.59983">
        <ele>1613.0</ele>
        <time>2019-08-04T14:03:39.303Z</time>
      </trkpt>
      <trkpt lat="42.531345" lon="1.599865">
        <ele>1614.0</ele>
        <time>2019-08-04T14:03:40.324Z</time>
      </trkpt>
      <trkpt lat="42.531345" lon="1.599865">
        <ele>1614.0</ele>
        <time>2019-08-04T14:03:41.301Z</time>
      </trkpt>
      <trkpt lat="42.531345" lon="1.599865">
        <ele>1614.0</ele>
        <time>2019-08-04T14:03:42.299Z</time>
      </trkpt>
      <trkpt lat="42.53133333" lon="1.599935">
        <ele>1615.0</ele>
        <time>2019-08-04T14:03:43.327Z</time>
      </trkpt>
      <trkpt lat="42.53133333" lon="1.599935">
        <ele>1615.0</ele>
        <time>2019-08-04T14:03:44.307Z</time>
      </trkpt>
      <trkpt lat="42.53132833" lon="1.599985">
        <ele>1615.0</ele>
        <time>2019-08-04T14:03:45.327Z</time>
      </trkpt>
      <trkpt lat="42.53132833" lon="1.60001">
        <ele>1615.0</ele>
        <time>2019-08-04T14:03:46.327Z</time>
      </trkpt>
      <trkpt lat="42.53132667" lon="1.600035">
        <ele>1615.0</ele>
        <time>2019-08-04T14:03:47.327Z</time>
      </trkpt>
      <trkpt lat="42.53132667" lon="1.600035">
        <ele>1615.0</ele>
        <time>2019-08-04T14:03:48.321Z</time>
      </trkpt>
      <trkpt lat="42.53132167" lon="1.60008333">
        <ele>1615.0</ele>
        <time>2019-08-04T14:03:49.302Z</time>
      </trkpt>
      <trkpt lat="42.53132167" lon="1.60008333">
        <ele>1615.0</ele>
        <time>2019-08-04T14:03:50.492Z</time>
      </trkpt>
      <trkpt lat="42.53132" lon="1.60010667">
        <ele>1616.0</ele>
        <time>2019-08-04T14:03:51.324Z</time>
      </trkpt>
      <trkpt lat="42.53131333" lon="1.60015167">
        <ele>1616.0</ele>
        <time>2019-08-04T14:03:52.299Z</time>
      </trkpt>
      <trkpt lat="42.53131333" lon="1.60015167">
        <ele>1616.0</ele>
        <time>2019-08-04T14:03:53.322Z</time>
      </trkpt>
      <trkpt lat="42.53131" lon="1.60019833">
        <ele>1617.0</ele>
        <time>2019-08-04T14:03:54.327Z</time>
      </trkpt>
      <trkpt lat="42.53131" lon="1.60019833">
        <ele>1617.0</ele>
        <time>2019-08-04T14:03:55.324Z</time>
      </trkpt>
      <trkpt lat="42.53130333" lon="1.60024667">
        <ele>1617.0</ele>
        <time>2019-08-04T14:03:56.326Z</time>
      </trkpt>
      <trkpt lat="42.5313" lon="1.60026833">
        <ele>1617.0</ele>
        <time>2019-08-04T14:03:57.302Z</time>
      </trkpt>
      <trkpt lat="42.5313" lon="1.60026833">
        <ele>1617.0</ele>
        <time>2019-08-04T14:03:58.325Z</time>
      </trkpt>
      <trkpt lat="42.5313" lon="1.60030833">
        <ele>1617.0</ele>
        <time>2019-08-04T14:03:59.326Z</time>
      </trkpt>
      <trkpt lat="42.5313" lon="1.60030833">
        <ele>1617.0</ele>
        <time>2019-08-04T14:04:00.302Z</time>
      </trkpt>
      <trkpt lat="42.53131333" lon="1.600335">
        <ele>1617.0</ele>
        <time>2019-08-04T14:04:01.327Z</time>
      </trkpt>
      <trkpt lat="42.53131333" lon="1.600335">
        <ele>1617.0</ele>
        <time>2019-08-04T14:04:02.325Z</time>
      </trkpt>
      <trkpt lat="42.531325" lon="1.60036">
        <ele>1617.0</ele>
        <time>2019-08-04T14:04:03.328Z</time>
      </trkpt>
      <trkpt lat="42.53132333" lon="1.60037333">
        <ele>1618.0</ele>
        <time>2019-08-04T14:04:04.327Z</time>
      </trkpt>
      <trkpt lat="42.53132333" lon="1.60038667">
        <ele>1618.0</ele>
        <time>2019-08-04T14:04:05.327Z</time>
      </trkpt>
      <trkpt lat="42.53132333" lon="1.60038667">
        <ele>1618.0</ele>
        <time>2019-08-04T14:04:06.324Z</time>
      </trkpt>
      <trkpt lat="42.53131667" lon="1.60040833">
        <ele>1618.0</ele>
        <time>2019-08-04T14:04:07.327Z</time>
      </trkpt>
      <trkpt lat="42.53131667" lon="1.60040833">
        <ele>1618.0</ele>
        <time>2019-08-04T14:04:08.325Z</time>
      </trkpt>
      <trkpt lat="42.531315" lon="1.60044">
        <ele>1619.0</ele>
        <time>2019-08-04T14:04:09.327Z</time>
      </trkpt>
      <trkpt lat="42.531315" lon="1.60044">
        <ele>1619.0</ele>
        <time>2019-08-04T14:04:10.322Z</time>
      </trkpt>
      <trkpt lat="42.531315" lon="1.60044">
        <ele>1619.0</ele>
        <time>2019-08-04T14:04:11.328Z</time>
      </trkpt>
      <trkpt lat="42.53131667" lon="1.60048">
        <ele>1619.0</ele>
        <time>2019-08-04T14:04:12.324Z</time>
      </trkpt>
      <trkpt lat="42.53131667" lon="1.60048">
        <ele>1619.0</ele>
        <time>2019-08-04T14:04:13.330Z</time>
      </trkpt>
      <trkpt lat="42.53133" lon="1.60052333">
        <ele>1619.0</ele>
        <time>2019-08-04T14:04:14.297Z</time>
      </trkpt>
      <trkpt lat="42.53135" lon="1.60056833">
        <ele>1619.0</ele>
        <time>2019-08-04T14:04:15.327Z</time>
      </trkpt>
      <trkpt lat="42.53135" lon="1.60056833">
        <ele>1619.0</ele>
        <time>2019-08-04T14:04:16.302Z</time>
      </trkpt>
      <trkpt lat="42.53137667" lon="1.60060667">
        <ele>1620.0</ele>
        <time>2019-08-04T14:04:17.326Z</time>
      </trkpt>
      <trkpt lat="42.53137667" lon="1.60060667">
        <ele>1620.0</ele>
        <time>2019-08-04T14:04:18.302Z</time>
      </trkpt>
      <trkpt lat="42.53140833" lon="1.60063667">
        <ele>1620.0</ele>
        <time>2019-08-04T14:04:19.328Z</time>
      </trkpt>
      <trkpt lat="42.53140833" lon="1.60063667">
        <ele>1620.0</ele>
        <time>2019-08-04T14:04:20.324Z</time>
      </trkpt>
      <trkpt lat="42.53140833" lon="1.60063667">
        <ele>1620.0</ele>
        <time>2019-08-04T14:04:21.316Z</time>
      </trkpt>
      <trkpt lat="42.53144333" lon="1.60066167">
        <ele>1621.0</ele>
        <time>2019-08-04T14:04:22.322Z</time>
      </trkpt>
      <trkpt lat="42.53148167" lon="1.60067667">
        <ele>1621.0</ele>
        <time>2019-08-04T14:04:23.302Z</time>
      </trkpt>
      <trkpt lat="42.53150167" lon="1.60068333">
        <ele>1621.0</ele>
        <time>2019-08-04T14:04:24.326Z</time>
      </trkpt>
      <trkpt lat="42.53150167" lon="1.60068333">
        <ele>1621.0</ele>
        <time>2019-08-04T14:04:25.324Z</time>
      </trkpt>
      <trkpt lat="42.53153833" lon="1.600685">
        <ele>1622.0</ele>
        <time>2019-08-04T14:04:26.327Z</time>
      </trkpt>
      <trkpt lat="42.53153833" lon="1.600685">
        <ele>1622.0</ele>
        <time>2019-08-04T14:04:27.303Z</time>
      </trkpt>
      <trkpt lat="42.53156833" lon="1.600675">
        <ele>1622.0</ele>
        <time>2019-08-04T14:04:28.327Z</time>
      </trkpt>
      <trkpt lat="42.53156833" lon="1.600675">
        <ele>1622.0</ele>
        <time>2019-08-04T14:04:29.314Z</time>
      </trkpt>
      <trkpt lat="42.53160333" lon="1.60066333">
        <ele>1622.0</ele>
        <time>2019-08-04T14:04:30.301Z</time>
      </trkpt>
      <trkpt lat="42.53160333" lon="1.60066333">
        <ele>1622.0</ele>
        <time>2019-08-04T14:04:31.321Z</time>
      </trkpt>
      <trkpt lat="42.53164" lon="1.60064667">
        <ele>1623.0</ele>
        <time>2019-08-04T14:04:32.296Z</time>
      </trkpt>
      <trkpt lat="42.53165667" lon="1.60063667">
        <ele>1623.0</ele>
        <time>2019-08-04T14:04:33.328Z</time>
      </trkpt>
      <trkpt lat="42.53165667" lon="1.60063667">
        <ele>1623.0</ele>
        <time>2019-08-04T14:04:34.306Z</time>
      </trkpt>
      <trkpt lat="42.53165667" lon="1.60063667">
        <ele>1623.0</ele>
        <time>2019-08-04T14:04:35.303Z</time>
      </trkpt>
      <trkpt lat="42.53168833" lon="1.60060833">
        <ele>1623.0</ele>
        <time>2019-08-04T14:04:36.325Z</time>
      </trkpt>
      <trkpt lat="42.53171833" lon="1.60057167">
        <ele>1624.0</ele>
        <time>2019-08-04T14:04:37.326Z</time>
      </trkpt>
      <trkpt lat="42.53173167" lon="1.60055167">
        <ele>1624.0</ele>
        <time>2019-08-04T14:04:38.302Z</time>
      </trkpt>
      <trkpt lat="42.531745" lon="1.60053167">
        <ele>1624.0</ele>
        <time>2019-08-04T14:04:39.328Z</time>
      </trkpt>
      <trkpt lat="42.531745" lon="1.60053167">
        <ele>1624.0</ele>
        <time>2019-08-04T14:04:40.320Z</time>
      </trkpt>
      <trkpt lat="42.53176667" lon="1.60048667">
        <ele>1624.0</ele>
        <time>2019-08-04T14:04:41.328Z</time>
      </trkpt>
      <trkpt lat="42.53176667" lon="1.60048667">
        <ele>1624.0</ele>
        <time>2019-08-04T14:04:42.321Z</time>
      </trkpt>
      <trkpt lat="42.53178333" lon="1.60043833">
        <ele>1624.0</ele>
        <time>2019-08-04T14:04:43.302Z</time>
      </trkpt>
      <trkpt lat="42.53178333" lon="1.60043833">
        <ele>1624.0</ele>
        <time>2019-08-04T14:04:44.335Z</time>
      </trkpt>
      <trkpt lat="42.53179667" lon="1.60038833">
        <ele>1625.0</ele>
        <time>2019-08-04T14:04:45.301Z</time>
      </trkpt>
      <trkpt lat="42.53179667" lon="1.60038833">
        <ele>1625.0</ele>
        <time>2019-08-04T14:04:46.324Z</time>
      </trkpt>
      <trkpt lat="42.53180833" lon="1.600335">
        <ele>1625.0</ele>
        <time>2019-08-04T14:04:47.327Z</time>
      </trkpt>
      <trkpt lat="42.53180833" lon="1.600335">
        <ele>1625.0</ele>
        <time>2019-08-04T14:04:48.302Z</time>
      </trkpt>
      <trkpt lat="42.53182167" lon="1.600285">
        <ele>1625.0</ele>
        <time>2019-08-04T14:04:49.326Z</time>
      </trkpt>
      <trkpt lat="42.53182167" lon="1.600285">
        <ele>1625.0</ele>
        <time>2019-08-04T14:04:50.301Z</time>
      </trkpt>
      <trkpt lat="42.53182167" lon="1.600285">
        <ele>1625.0</ele>
        <time>2019-08-04T14:04:51.534Z</time>
      </trkpt>
      <trkpt lat="42.53183667" lon="1.600235">
        <ele>1625.0</ele>
        <time>2019-08-04T14:04:52.325Z</time>
      </trkpt>
      <trkpt lat="42.53185333" lon="1.60019">
        <ele>1626.0</ele>
        <time>2019-08-04T14:04:53.328Z</time>
      </trkpt>
      <trkpt lat="42.53186167" lon="1.60016833">
        <ele>1626.0</ele>
        <time>2019-08-04T14:04:54.306Z</time>
      </trkpt>
      <trkpt lat="42.53186167" lon="1.60016833">
        <ele>1626.0</ele>
        <time>2019-08-04T14:04:55.323Z</time>
      </trkpt>
      <trkpt lat="42.53187833" lon="1.600125">
        <ele>1626.0</ele>
        <time>2019-08-04T14:04:56.327Z</time>
      </trkpt>
      <trkpt lat="42.53187833" lon="1.600125">
        <ele>1626.0</ele>
        <time>2019-08-04T14:04:57.303Z</time>
      </trkpt>
      <trkpt lat="42.53190167" lon="1.60008833">
        <ele>1627.0</ele>
        <time>2019-08-04T14:04:58.327Z</time>
      </trkpt>
      <trkpt lat="42.53190167" lon="1.60008833">
        <ele>1627.0</ele>
        <time>2019-08-04T14:04:59.306Z</time>
      </trkpt>
      <trkpt lat="42.53192333" lon="1.60005167">
        <ele>1627.0</ele>
        <time>2019-08-04T14:05:00.328Z</time>
      </trkpt>
      <trkpt lat="42.53192333" lon="1.60005167">
        <ele>1627.0</ele>
        <time>2019-08-04T14:05:01.325Z</time>
      </trkpt>
      <trkpt lat="42.53194833" lon="1.60002">
        <ele>1628.0</ele>
        <time>2019-08-04T14:05:02.301Z</time>
      </trkpt>
      <trkpt lat="42.53196167" lon="1.60000333">
        <ele>1628.0</ele>
        <time>2019-08-04T14:05:03.320Z</time>
      </trkpt>
      <trkpt lat="42.53196167" lon="1.60000333">
        <ele>1628.0</ele>
        <time>2019-08-04T14:05:04.329Z</time>
      </trkpt>
      <trkpt lat="42.53198667" lon="1.59996667">
        <ele>1628.0</ele>
        <time>2019-08-04T14:05:05.298Z</time>
      </trkpt>
      <trkpt lat="42.53199833" lon="1.59994833">
        <ele>1628.0</ele>
        <time>2019-08-04T14:05:06.327Z</time>
      </trkpt>
      <trkpt lat="42.53201333" lon="1.59993167">
        <ele>1629.0</ele>
        <time>2019-08-04T14:05:07.327Z</time>
      </trkpt>
      <trkpt lat="42.53201333" lon="1.59993167">
        <ele>1629.0</ele>
        <time>2019-08-04T14:05:08.326Z</time>
      </trkpt>
      <trkpt lat="42.53203833" lon="1.599895">
        <ele>1629.0</ele>
        <time>2019-08-04T14:05:09.309Z</time>
      </trkpt>
      <trkpt lat="42.53203833" lon="1.599895">
        <ele>1629.0</ele>
        <time>2019-08-04T14:05:10.317Z</time>
      </trkpt>
      <trkpt lat="42.53206333" lon="1.59986167">
        <ele>1630.0</ele>
        <time>2019-08-04T14:05:11.335Z</time>
      </trkpt>
      <trkpt lat="42.53207333" lon="1.59984333">
        <ele>1630.0</ele>
        <time>2019-08-04T14:05:12.328Z</time>
      </trkpt>
      <trkpt lat="42.53207333" lon="1.59984333">
        <ele>1630.0</ele>
        <time>2019-08-04T14:05:13.322Z</time>
      </trkpt>
      <trkpt lat="42.53209667" lon="1.59980667">
        <ele>1630.0</ele>
        <time>2019-08-04T14:05:14.302Z</time>
      </trkpt>
      <trkpt lat="42.53209667" lon="1.59980667">
        <ele>1630.0</ele>
        <time>2019-08-04T14:05:15.328Z</time>
      </trkpt>
      <trkpt lat="42.53211833" lon="1.599775">
        <ele>1631.0</ele>
        <time>2019-08-04T14:05:16.326Z</time>
      </trkpt>
      <trkpt lat="42.53211833" lon="1.599775">
        <ele>1631.0</ele>
        <time>2019-08-04T14:05:17.302Z</time>
      </trkpt>
      <trkpt lat="42.53214167" lon="1.59974">
        <ele>1631.0</ele>
        <time>2019-08-04T14:05:18.327Z</time>
      </trkpt>
      <trkpt lat="42.53214167" lon="1.59974">
        <ele>1631.0</ele>
        <time>2019-08-04T14:05:19.322Z</time>
      </trkpt>
      <trkpt lat="42.532165" lon="1.599705">
        <ele>1632.0</ele>
        <time>2019-08-04T14:05:20.302Z</time>
      </trkpt>
      <trkpt lat="42.532165" lon="1.599705">
        <ele>1632.0</ele>
        <time>2019-08-04T14:05:21.301Z</time>
      </trkpt>
      <trkpt lat="42.53217667" lon="1.59968667">
        <ele>1632.0</ele>
        <time>2019-08-04T14:05:22.323Z</time>
      </trkpt>
      <trkpt lat="42.53220167" lon="1.59964833">
        <ele>1633.0</ele>
        <time>2019-08-04T14:05:23.328Z</time>
      </trkpt>
      <trkpt lat="42.53220167" lon="1.59964833">
        <ele>1633.0</ele>
        <time>2019-08-04T14:05:24.319Z</time>
      </trkpt>
      <trkpt lat="42.53222667" lon="1.599615">
        <ele>1633.0</ele>
        <time>2019-08-04T14:05:25.300Z</time>
      </trkpt>
      <trkpt lat="42.53224" lon="1.599595">
        <ele>1634.0</ele>
        <time>2019-08-04T14:05:26.327Z</time>
      </trkpt>
      <trkpt lat="42.53225167" lon="1.59957667">
        <ele>1634.0</ele>
        <time>2019-08-04T14:05:27.302Z</time>
      </trkpt>
      <trkpt lat="42.53225167" lon="1.59957667">
        <ele>1634.0</ele>
        <time>2019-08-04T14:05:28.325Z</time>
      </trkpt>
      <trkpt lat="42.53227833" lon="1.59954">
        <ele>1634.0</ele>
        <time>2019-08-04T14:05:29.302Z</time>
      </trkpt>
      <trkpt lat="42.53229" lon="1.59952167">
        <ele>1635.0</ele>
        <time>2019-08-04T14:05:30.326Z</time>
      </trkpt>
      <trkpt lat="42.53229" lon="1.59952167">
        <ele>1635.0</ele>
        <time>2019-08-04T14:05:31.333Z</time>
      </trkpt>
      <trkpt lat="42.532315" lon="1.599485">
        <ele>1635.0</ele>
        <time>2019-08-04T14:05:32.297Z</time>
      </trkpt>
      <trkpt lat="42.53232667" lon="1.59946667">
        <ele>1636.0</ele>
        <time>2019-08-04T14:05:33.328Z</time>
      </trkpt>
      <trkpt lat="42.53232667" lon="1.59946667">
        <ele>1636.0</ele>
        <time>2019-08-04T14:05:34.308Z</time>
      </trkpt>
      <trkpt lat="42.53232667" lon="1.59946667">
        <ele>1636.0</ele>
        <time>2019-08-04T14:05:35.305Z</time>
      </trkpt>
      <trkpt lat="42.53236833" lon="1.59941333">
        <ele>1636.0</ele>
        <time>2019-08-04T14:05:36.328Z</time>
      </trkpt>
      <trkpt lat="42.53236833" lon="1.59941333">
        <ele>1636.0</ele>
        <time>2019-08-04T14:05:37.322Z</time>
      </trkpt>
      <trkpt lat="42.53239333" lon="1.59937667">
        <ele>1637.0</ele>
        <time>2019-08-04T14:05:38.303Z</time>
      </trkpt>
      <trkpt lat="42.53240667" lon="1.59935667">
        <ele>1637.0</ele>
        <time>2019-08-04T14:05:39.328Z</time>
      </trkpt>
      <trkpt lat="42.53240667" lon="1.59935667">
        <ele>1637.0</ele>
        <time>2019-08-04T14:05:40.330Z</time>
      </trkpt>
      <trkpt lat="42.53243333" lon="1.59932">
        <ele>1637.0</ele>
        <time>2019-08-04T14:05:41.327Z</time>
      </trkpt>
      <trkpt lat="42.53244667" lon="1.59930167">
        <ele>1637.0</ele>
        <time>2019-08-04T14:05:42.324Z</time>
      </trkpt>
      <trkpt lat="42.53244667" lon="1.59930167">
        <ele>1637.0</ele>
        <time>2019-08-04T14:05:43.301Z</time>
      </trkpt>
      <trkpt lat="42.53247167" lon="1.599265">
        <ele>1638.0</ele>
        <time>2019-08-04T14:05:44.324Z</time>
      </trkpt>
      <trkpt lat="42.532485" lon="1.59924833">
        <ele>1638.0</ele>
        <time>2019-08-04T14:05:45.329Z</time>
      </trkpt>
      <trkpt lat="42.532485" lon="1.59924833">
        <ele>1638.0</ele>
        <time>2019-08-04T14:05:46.324Z</time>
      </trkpt>
      <trkpt lat="42.53251167" lon="1.59921167">
        <ele>1638.0</ele>
        <time>2019-08-04T14:05:47.327Z</time>
      </trkpt>
      <trkpt lat="42.53252167" lon="1.59919167">
        <ele>1638.0</ele>
        <time>2019-08-04T14:05:48.302Z</time>
      </trkpt>
      <trkpt lat="42.53252167" lon="1.59919167">
        <ele>1638.0</ele>
        <time>2019-08-04T14:05:49.499Z</time>
      </trkpt>
      <trkpt lat="42.53253333" lon="1.59917167">
        <ele>1638.0</ele>
        <time>2019-08-04T14:05:50.331Z</time>
      </trkpt>
      <trkpt lat="42.53256" lon="1.59913167">
        <ele>1639.0</ele>
        <time>2019-08-04T14:05:51.327Z</time>
      </trkpt>
      <trkpt lat="42.53256" lon="1.59913167">
        <ele>1639.0</ele>
        <time>2019-08-04T14:05:52.322Z</time>
      </trkpt>
      <trkpt lat="42.53258167" lon="1.599095">
        <ele>1639.0</ele>
        <time>2019-08-04T14:05:53.328Z</time>
      </trkpt>
      <trkpt lat="42.53258167" lon="1.599095">
        <ele>1639.0</ele>
        <time>2019-08-04T14:05:54.325Z</time>
      </trkpt>
      <trkpt lat="42.532605" lon="1.59905333">
        <ele>1639.0</ele>
        <time>2019-08-04T14:05:55.327Z</time>
      </trkpt>
      <trkpt lat="42.532605" lon="1.59905333">
        <ele>1639.0</ele>
        <time>2019-08-04T14:05:56.324Z</time>
      </trkpt>
      <trkpt lat="42.53263" lon="1.59901167">
        <ele>1640.0</ele>
        <time>2019-08-04T14:05:57.328Z</time>
      </trkpt>
      <trkpt lat="42.53263" lon="1.59901167">
        <ele>1640.0</ele>
        <time>2019-08-04T14:05:58.324Z</time>
      </trkpt>
      <trkpt lat="42.53265333" lon="1.598965">
        <ele>1640.0</ele>
        <time>2019-08-04T14:05:59.306Z</time>
      </trkpt>
      <trkpt lat="42.53266333" lon="1.598945">
        <ele>1640.0</ele>
        <time>2019-08-04T14:06:00.328Z</time>
      </trkpt>
      <trkpt lat="42.53266333" lon="1.598945">
        <ele>1640.0</ele>
        <time>2019-08-04T14:06:01.315Z</time>
      </trkpt>
      <trkpt lat="42.53268167" lon="1.5989">
        <ele>1641.0</ele>
        <time>2019-08-04T14:06:02.335Z</time>
      </trkpt>
      <trkpt lat="42.53269333" lon="1.598875">
        <ele>1641.0</ele>
        <time>2019-08-04T14:06:03.329Z</time>
      </trkpt>
      <trkpt lat="42.53269333" lon="1.598875">
        <ele>1641.0</ele>
        <time>2019-08-04T14:06:04.325Z</time>
      </trkpt>
      <trkpt lat="42.53271333" lon="1.59882333">
        <ele>1641.0</ele>
        <time>2019-08-04T14:06:05.327Z</time>
      </trkpt>
      <trkpt lat="42.53271333" lon="1.59882333">
        <ele>1641.0</ele>
        <time>2019-08-04T14:06:06.322Z</time>
      </trkpt>
      <trkpt lat="42.53271333" lon="1.59882333">
        <ele>1641.0</ele>
        <time>2019-08-04T14:06:07.310Z</time>
      </trkpt>
      <trkpt lat="42.53273167" lon="1.59877167">
        <ele>1641.0</ele>
        <time>2019-08-04T14:06:08.331Z</time>
      </trkpt>
      <trkpt lat="42.53275" lon="1.59872">
        <ele>1642.0</ele>
        <time>2019-08-04T14:06:09.328Z</time>
      </trkpt>
      <trkpt lat="42.53275" lon="1.59872">
        <ele>1642.0</ele>
        <time>2019-08-04T14:06:10.315Z</time>
      </trkpt>
      <trkpt lat="42.53275" lon="1.59872">
        <ele>1642.0</ele>
        <time>2019-08-04T14:06:11.301Z</time>
      </trkpt>
      <trkpt lat="42.53277167" lon="1.59867">
        <ele>1642.0</ele>
        <time>2019-08-04T14:06:12.299Z</time>
      </trkpt>
      <trkpt lat="42.53279" lon="1.59861833">
        <ele>1642.0</ele>
        <time>2019-08-04T14:06:13.327Z</time>
      </trkpt>
      <trkpt lat="42.53279" lon="1.59861833">
        <ele>1642.0</ele>
        <time>2019-08-04T14:06:14.302Z</time>
      </trkpt>
      <trkpt lat="42.53280833" lon="1.59857">
        <ele>1643.0</ele>
        <time>2019-08-04T14:06:15.329Z</time>
      </trkpt>
      <trkpt lat="42.53280833" lon="1.59857">
        <ele>1643.0</ele>
        <time>2019-08-04T14:06:16.330Z</time>
      </trkpt>
      <trkpt lat="42.532825" lon="1.59852167">
        <ele>1643.0</ele>
        <time>2019-08-04T14:06:17.325Z</time>
      </trkpt>
      <trkpt lat="42.532825" lon="1.59852167">
        <ele>1643.0</ele>
        <time>2019-08-04T14:06:18.301Z</time>
      </trkpt>
      <trkpt lat="42.53284333" lon="1.598475">
        <ele>1644.0</ele>
        <time>2019-08-04T14:06:19.326Z</time>
      </trkpt>
      <trkpt lat="42.53284333" lon="1.598475">
        <ele>1644.0</ele>
        <time>2019-08-04T14:06:20.302Z</time>
      </trkpt>
      <trkpt lat="42.53286" lon="1.59842833">
        <ele>1644.0</ele>
        <time>2019-08-04T14:06:21.328Z</time>
      </trkpt>
      <trkpt lat="42.53286833" lon="1.598405">
        <ele>1644.0</ele>
        <time>2019-08-04T14:06:22.323Z</time>
      </trkpt>
      <trkpt lat="42.53287667" lon="1.59838333">
        <ele>1644.0</ele>
        <time>2019-08-04T14:06:23.301Z</time>
      </trkpt>
      <trkpt lat="42.53287667" lon="1.59838333">
        <ele>1644.0</ele>
        <time>2019-08-04T14:06:24.322Z</time>
      </trkpt>
      <trkpt lat="42.53289667" lon="1.598345">
        <ele>1645.0</ele>
        <time>2019-08-04T14:06:25.326Z</time>
      </trkpt>
      <trkpt lat="42.53289667" lon="1.598345">
        <ele>1645.0</ele>
        <time>2019-08-04T14:06:26.324Z</time>
      </trkpt>
      <trkpt lat="42.53292" lon="1.59831">
        <ele>1646.0</ele>
        <time>2019-08-04T14:06:27.328Z</time>
      </trkpt>
      <trkpt lat="42.53292" lon="1.59831">
        <ele>1646.0</ele>
        <time>2019-08-04T14:06:28.325Z</time>
      </trkpt>
      <trkpt lat="42.53295" lon="1.59828">
        <ele>1646.0</ele>
        <time>2019-08-04T14:06:29.331Z</time>
      </trkpt>
      <trkpt lat="42.532965" lon="1.59827">
        <ele>1647.0</ele>
        <time>2019-08-04T14:06:30.317Z</time>
      </trkpt>
      <trkpt lat="42.532965" lon="1.59827">
        <ele>1647.0</ele>
        <time>2019-08-04T14:06:31.323Z</time>
      </trkpt>
      <trkpt lat="42.533" lon="1.59826333">
        <ele>1647.0</ele>
        <time>2019-08-04T14:06:32.329Z</time>
      </trkpt>
      <trkpt lat="42.53301667" lon="1.59826667">
        <ele>1648.0</ele>
        <time>2019-08-04T14:06:33.328Z</time>
      </trkpt>
      <trkpt lat="42.53301667" lon="1.59826667">
        <ele>1648.0</ele>
        <time>2019-08-04T14:06:34.331Z</time>
      </trkpt>
      <trkpt lat="42.53304667" lon="1.59828333">
        <ele>1648.0</ele>
        <time>2019-08-04T14:06:35.327Z</time>
      </trkpt>
      <trkpt lat="42.53304667" lon="1.59828333">
        <ele>1648.0</ele>
        <time>2019-08-04T14:06:36.303Z</time>
      </trkpt>
      <trkpt lat="42.533065" lon="1.59832">
        <ele>1649.0</ele>
        <time>2019-08-04T14:06:37.328Z</time>
      </trkpt>
      <trkpt lat="42.533065" lon="1.59832">
        <ele>1649.0</ele>
        <time>2019-08-04T14:06:38.324Z</time>
      </trkpt>
      <trkpt lat="42.53307833" lon="1.59836333">
        <ele>1650.0</ele>
        <time>2019-08-04T14:06:39.308Z</time>
      </trkpt>
      <trkpt lat="42.53307833" lon="1.59838833">
        <ele>1650.0</ele>
        <time>2019-08-04T14:06:40.299Z</time>
      </trkpt>
      <trkpt lat="42.53307667" lon="1.59841333">
        <ele>1650.0</ele>
        <time>2019-08-04T14:06:41.324Z</time>
      </trkpt>
      <trkpt lat="42.53307667" lon="1.59841333">
        <ele>1650.0</ele>
        <time>2019-08-04T14:06:42.325Z</time>
      </trkpt>
      <trkpt lat="42.53306333" lon="1.59846167">
        <ele>1650.0</ele>
        <time>2019-08-04T14:06:43.324Z</time>
      </trkpt>
      <trkpt lat="42.53306333" lon="1.59846167">
        <ele>1650.0</ele>
        <time>2019-08-04T14:06:44.301Z</time>
      </trkpt>
      <trkpt lat="42.53303833" lon="1.598505">
        <ele>1651.0</ele>
        <time>2019-08-04T14:06:45.329Z</time>
      </trkpt>
      <trkpt lat="42.53303833" lon="1.598505">
        <ele>1651.0</ele>
        <time>2019-08-04T14:06:46.321Z</time>
      </trkpt>
      <trkpt lat="42.53300833" lon="1.59854667">
        <ele>1651.0</ele>
        <time>2019-08-04T14:06:47.301Z</time>
      </trkpt>
      <trkpt lat="42.53300833" lon="1.59854667">
        <ele>1651.0</ele>
        <time>2019-08-04T14:06:48.324Z</time>
      </trkpt>
      <trkpt lat="42.532975" lon="1.59858">
        <ele>1652.0</ele>
        <time>2019-08-04T14:06:49.327Z</time>
      </trkpt>
      <trkpt lat="42.532975" lon="1.59858">
        <ele>1652.0</ele>
        <time>2019-08-04T14:06:50.322Z</time>
      </trkpt>
      <trkpt lat="42.532975" lon="1.59858">
        <ele>1652.0</ele>
        <time>2019-08-04T14:06:51.302Z</time>
      </trkpt>
      <trkpt lat="42.53294333" lon="1.59861667">
        <ele>1653.0</ele>
        <time>2019-08-04T14:06:52.301Z</time>
      </trkpt>
      <trkpt lat="42.53291667" lon="1.598655">
        <ele>1653.0</ele>
        <time>2019-08-04T14:06:53.327Z</time>
      </trkpt>
      <trkpt lat="42.53291667" lon="1.598655">
        <ele>1653.0</ele>
        <time>2019-08-04T14:06:54.322Z</time>
      </trkpt>
      <trkpt lat="42.53288833" lon="1.59869167">
        <ele>1654.0</ele>
        <time>2019-08-04T14:06:55.328Z</time>
      </trkpt>
      <trkpt lat="42.53287833" lon="1.59871333">
        <ele>1654.0</ele>
        <time>2019-08-04T14:06:56.307Z</time>
      </trkpt>
      <trkpt lat="42.53287833" lon="1.59871333">
        <ele>1654.0</ele>
        <time>2019-08-04T14:06:57.326Z</time>
      </trkpt>
      <trkpt lat="42.53286167" lon="1.59876">
        <ele>1654.0</ele>
        <time>2019-08-04T14:06:58.327Z</time>
      </trkpt>
      <trkpt lat="42.53285333" lon="1.59878167">
        <ele>1654.0</ele>
        <time>2019-08-04T14:06:59.327Z</time>
      </trkpt>
      <trkpt lat="42.53285333" lon="1.59878167">
        <ele>1654.0</ele>
        <time>2019-08-04T14:07:00.325Z</time>
      </trkpt>
      <trkpt lat="42.53283667" lon="1.598825">
        <ele>1654.0</ele>
        <time>2019-08-04T14:07:01.328Z</time>
      </trkpt>
      <trkpt lat="42.53283667" lon="1.598825">
        <ele>1654.0</ele>
        <time>2019-08-04T14:07:02.325Z</time>
      </trkpt>
      <trkpt lat="42.532825" lon="1.59887333">
        <ele>1654.0</ele>
        <time>2019-08-04T14:07:03.328Z</time>
      </trkpt>
      <trkpt lat="42.532825" lon="1.59887333">
        <ele>1654.0</ele>
        <time>2019-08-04T14:07:04.307Z</time>
      </trkpt>
      <trkpt lat="42.532815" lon="1.59892167">
        <ele>1654.0</ele>
        <time>2019-08-04T14:07:05.337Z</time>
      </trkpt>
      <trkpt lat="42.532815" lon="1.59892167">
        <ele>1654.0</ele>
        <time>2019-08-04T14:07:06.329Z</time>
      </trkpt>
      <trkpt lat="42.53281" lon="1.598975">
        <ele>1655.0</ele>
        <time>2019-08-04T14:07:07.327Z</time>
      </trkpt>
      <trkpt lat="42.53281" lon="1.598975">
        <ele>1655.0</ele>
        <time>2019-08-04T14:07:08.322Z</time>
      </trkpt>
      <trkpt lat="42.53280167" lon="1.599025">
        <ele>1655.0</ele>
        <time>2019-08-04T14:07:09.303Z</time>
      </trkpt>
      <trkpt lat="42.53280167" lon="1.599025">
        <ele>1655.0</ele>
        <time>2019-08-04T14:07:10.324Z</time>
      </trkpt>
      <trkpt lat="42.53279333" lon="1.59906833">
        <ele>1656.0</ele>
        <time>2019-08-04T14:07:11.327Z</time>
      </trkpt>
      <trkpt lat="42.53279333" lon="1.59906833">
        <ele>1656.0</ele>
        <time>2019-08-04T14:07:12.324Z</time>
      </trkpt>
      <trkpt lat="42.532785" lon="1.59911">
        <ele>1656.0</ele>
        <time>2019-08-04T14:07:13.327Z</time>
      </trkpt>
      <trkpt lat="42.532785" lon="1.59911">
        <ele>1656.0</ele>
        <time>2019-08-04T14:07:14.303Z</time>
      </trkpt>
      <trkpt lat="42.53277167" lon="1.59915167">
        <ele>1657.0</ele>
        <time>2019-08-04T14:07:15.328Z</time>
      </trkpt>
      <trkpt lat="42.53277167" lon="1.59915167">
        <ele>1657.0</ele>
        <time>2019-08-04T14:07:16.305Z</time>
      </trkpt>
      <trkpt lat="42.53276667" lon="1.59919167">
        <ele>1658.0</ele>
        <time>2019-08-04T14:07:17.327Z</time>
      </trkpt>
      <trkpt lat="42.53276667" lon="1.59919167">
        <ele>1658.0</ele>
        <time>2019-08-04T14:07:18.325Z</time>
      </trkpt>
      <trkpt lat="42.53275833" lon="1.59923">
        <ele>1658.0</ele>
        <time>2019-08-04T14:07:19.327Z</time>
      </trkpt>
      <trkpt lat="42.53275833" lon="1.59923">
        <ele>1658.0</ele>
        <time>2019-08-04T14:07:20.325Z</time>
      </trkpt>
      <trkpt lat="42.53275167" lon="1.599275">
        <ele>1659.0</ele>
        <time>2019-08-04T14:07:21.325Z</time>
      </trkpt>
      <trkpt lat="42.53275167" lon="1.599275">
        <ele>1659.0</ele>
        <time>2019-08-04T14:07:22.311Z</time>
      </trkpt>
      <trkpt lat="42.53274167" lon="1.59933">
        <ele>1659.0</ele>
        <time>2019-08-04T14:07:23.335Z</time>
      </trkpt>
      <trkpt lat="42.53274167" lon="1.59933">
        <ele>1659.0</ele>
        <time>2019-08-04T14:07:24.324Z</time>
      </trkpt>
      <trkpt lat="42.53273167" lon="1.59938167">
        <ele>1659.0</ele>
        <time>2019-08-04T14:07:25.327Z</time>
      </trkpt>
      <trkpt lat="42.53273167" lon="1.59938167">
        <ele>1659.0</ele>
        <time>2019-08-04T14:07:26.302Z</time>
      </trkpt>
      <trkpt lat="42.53271833" lon="1.59943167">
        <ele>1659.0</ele>
        <time>2019-08-04T14:07:27.296Z</time>
      </trkpt>
      <trkpt lat="42.53271833" lon="1.59943167">
        <ele>1659.0</ele>
        <time>2019-08-04T14:07:28.324Z</time>
      </trkpt>
      <trkpt lat="42.53270833" lon="1.599485">
        <ele>1659.0</ele>
        <time>2019-08-04T14:07:29.302Z</time>
      </trkpt>
      <trkpt lat="42.53270333" lon="1.59951167">
        <ele>1659.0</ele>
        <time>2019-08-04T14:07:30.317Z</time>
      </trkpt>
      <trkpt lat="42.53270333" lon="1.59951167">
        <ele>1659.0</ele>
        <time>2019-08-04T14:07:31.323Z</time>
      </trkpt>
      <trkpt lat="42.532695" lon="1.59956167">
        <ele>1660.0</ele>
        <time>2019-08-04T14:07:32.301Z</time>
      </trkpt>
      <trkpt lat="42.532695" lon="1.59956167">
        <ele>1660.0</ele>
        <time>2019-08-04T14:07:33.325Z</time>
      </trkpt>
      <trkpt lat="42.532695" lon="1.59956167">
        <ele>1660.0</ele>
        <time>2019-08-04T14:07:34.303Z</time>
      </trkpt>
      <trkpt lat="42.53267667" lon="1.599635">
        <ele>1661.0</ele>
        <time>2019-08-04T14:07:35.328Z</time>
      </trkpt>
      <trkpt lat="42.53267667" lon="1.599635">
        <ele>1661.0</ele>
        <time>2019-08-04T14:07:36.319Z</time>
      </trkpt>
      <trkpt lat="42.53266667" lon="1.59968333">
        <ele>1662.0</ele>
        <time>2019-08-04T14:07:37.301Z</time>
      </trkpt>
      <trkpt lat="42.53266333" lon="1.59970833">
        <ele>1662.0</ele>
        <time>2019-08-04T14:07:38.328Z</time>
      </trkpt>
      <trkpt lat="42.53266333" lon="1.59970833">
        <ele>1662.0</ele>
        <time>2019-08-04T14:07:39.303Z</time>
      </trkpt>
      <trkpt lat="42.53265667" lon="1.59975833">
        <ele>1662.0</ele>
        <time>2019-08-04T14:07:40.299Z</time>
      </trkpt>
      <trkpt lat="42.53265667" lon="1.59975833">
        <ele>1662.0</ele>
        <time>2019-08-04T14:07:41.322Z</time>
      </trkpt>
      <trkpt lat="42.53264667" lon="1.59980667">
        <ele>1662.0</ele>
        <time>2019-08-04T14:07:42.297Z</time>
      </trkpt>
      <trkpt lat="42.53264667" lon="1.59980667">
        <ele>1662.0</ele>
        <time>2019-08-04T14:07:43.325Z</time>
      </trkpt>
      <trkpt lat="42.53264" lon="1.59985833">
        <ele>1662.0</ele>
        <time>2019-08-04T14:07:44.324Z</time>
      </trkpt>
      <trkpt lat="42.53264" lon="1.59985833">
        <ele>1662.0</ele>
        <time>2019-08-04T14:07:45.326Z</time>
      </trkpt>
      <trkpt lat="42.532635" lon="1.59990833">
        <ele>1663.0</ele>
        <time>2019-08-04T14:07:46.301Z</time>
      </trkpt>
      <trkpt lat="42.532635" lon="1.59990833">
        <ele>1663.0</ele>
        <time>2019-08-04T14:07:47.497Z</time>
      </trkpt>
      <trkpt lat="42.53263167" lon="1.59993167">
        <ele>1663.0</ele>
        <time>2019-08-04T14:07:48.325Z</time>
      </trkpt>
      <trkpt lat="42.53262333" lon="1.59997667">
        <ele>1664.0</ele>
        <time>2019-08-04T14:07:49.327Z</time>
      </trkpt>
      <trkpt lat="42.53262333" lon="1.59997667">
        <ele>1664.0</ele>
        <time>2019-08-04T14:07:50.325Z</time>
      </trkpt>
      <trkpt lat="42.53262333" lon="1.59997667">
        <ele>1664.0</ele>
        <time>2019-08-04T14:07:51.328Z</time>
      </trkpt>
      <trkpt lat="42.53261" lon="1.600045">
        <ele>1664.0</ele>
        <time>2019-08-04T14:07:52.328Z</time>
      </trkpt>
      <trkpt lat="42.53261" lon="1.600045">
        <ele>1664.0</ele>
        <time>2019-08-04T14:07:53.325Z</time>
      </trkpt>
      <trkpt lat="42.532605" lon="1.60009833">
        <ele>1665.0</ele>
        <time>2019-08-04T14:07:54.307Z</time>
      </trkpt>
      <trkpt lat="42.532605" lon="1.60009833">
        <ele>1665.0</ele>
        <time>2019-08-04T14:07:55.328Z</time>
      </trkpt>
      <trkpt lat="42.5326" lon="1.60014833">
        <ele>1665.0</ele>
        <time>2019-08-04T14:07:56.330Z</time>
      </trkpt>
      <trkpt lat="42.53259833" lon="1.60017167">
        <ele>1665.0</ele>
        <time>2019-08-04T14:07:57.329Z</time>
      </trkpt>
      <trkpt lat="42.53259833" lon="1.60017167">
        <ele>1665.0</ele>
        <time>2019-08-04T14:07:58.325Z</time>
      </trkpt>
      <trkpt lat="42.53259167" lon="1.60022">
        <ele>1665.0</ele>
        <time>2019-08-04T14:07:59.307Z</time>
      </trkpt>
      <trkpt lat="42.53259167" lon="1.60022">
        <ele>1665.0</ele>
        <time>2019-08-04T14:08:00.324Z</time>
      </trkpt>
      <trkpt lat="42.53258333" lon="1.60026333">
        <ele>1666.0</ele>
        <time>2019-08-04T14:08:01.328Z</time>
      </trkpt>
      <trkpt lat="42.53257833" lon="1.60028667">
        <ele>1666.0</ele>
        <time>2019-08-04T14:08:02.328Z</time>
      </trkpt>
      <trkpt lat="42.53257833" lon="1.60028667">
        <ele>1666.0</ele>
        <time>2019-08-04T14:08:03.303Z</time>
      </trkpt>
      <trkpt lat="42.53257333" lon="1.60033167">
        <ele>1666.0</ele>
        <time>2019-08-04T14:08:04.328Z</time>
      </trkpt>
      <trkpt lat="42.53257333" lon="1.60035833">
        <ele>1667.0</ele>
        <time>2019-08-04T14:08:05.333Z</time>
      </trkpt>
      <trkpt lat="42.53257333" lon="1.60035833">
        <ele>1667.0</ele>
        <time>2019-08-04T14:08:06.327Z</time>
      </trkpt>
      <trkpt lat="42.532565" lon="1.60041">
        <ele>1667.0</ele>
        <time>2019-08-04T14:08:07.327Z</time>
      </trkpt>
      <trkpt lat="42.532565" lon="1.60041">
        <ele>1667.0</ele>
        <time>2019-08-04T14:08:08.303Z</time>
      </trkpt>
      <trkpt lat="42.53255667" lon="1.600465">
        <ele>1668.0</ele>
        <time>2019-08-04T14:08:09.328Z</time>
      </trkpt>
      <trkpt lat="42.53255667" lon="1.600465">
        <ele>1668.0</ele>
        <time>2019-08-04T14:08:10.323Z</time>
      </trkpt>
      <trkpt lat="42.53255167" lon="1.60051167">
        <ele>1669.0</ele>
        <time>2019-08-04T14:08:11.339Z</time>
      </trkpt>
      <trkpt lat="42.53255167" lon="1.60051167">
        <ele>1669.0</ele>
        <time>2019-08-04T14:08:12.325Z</time>
      </trkpt>
      <trkpt lat="42.53254333" lon="1.600555">
        <ele>1669.0</ele>
        <time>2019-08-04T14:08:13.327Z</time>
      </trkpt>
      <trkpt lat="42.53254333" lon="1.600555">
        <ele>1669.0</ele>
        <time>2019-08-04T14:08:14.309Z</time>
      </trkpt>
      <trkpt lat="42.53253333" lon="1.60059833">
        <ele>1670.0</ele>
        <time>2019-08-04T14:08:15.329Z</time>
      </trkpt>
      <trkpt lat="42.53253333" lon="1.60059833">
        <ele>1670.0</ele>
        <time>2019-08-04T14:08:16.325Z</time>
      </trkpt>
      <trkpt lat="42.532525" lon="1.60064833">
        <ele>1670.0</ele>
        <time>2019-08-04T14:08:17.328Z</time>
      </trkpt>
      <trkpt lat="42.532525" lon="1.60064833">
        <ele>1670.0</ele>
        <time>2019-08-04T14:08:18.323Z</time>
      </trkpt>
      <trkpt lat="42.53252333" lon="1.60070333">
        <ele>1671.0</ele>
        <time>2019-08-04T14:08:19.307Z</time>
      </trkpt>
      <trkpt lat="42.53252333" lon="1.60070333">
        <ele>1671.0</ele>
        <time>2019-08-04T14:08:20.325Z</time>
      </trkpt>
      <trkpt lat="42.53251833" lon="1.600755">
        <ele>1671.0</ele>
        <time>2019-08-04T14:08:21.329Z</time>
      </trkpt>
      <trkpt lat="42.532515" lon="1.60077833">
        <ele>1672.0</ele>
        <time>2019-08-04T14:08:22.327Z</time>
      </trkpt>
      <trkpt lat="42.53251167" lon="1.60080167">
        <ele>1672.0</ele>
        <time>2019-08-04T14:08:23.303Z</time>
      </trkpt>
      <trkpt lat="42.53251167" lon="1.60080167">
        <ele>1672.0</ele>
        <time>2019-08-04T14:08:24.321Z</time>
      </trkpt>
      <trkpt lat="42.53250667" lon="1.60085333">
        <ele>1673.0</ele>
        <time>2019-08-04T14:08:25.303Z</time>
      </trkpt>
      <trkpt lat="42.53250667" lon="1.60085333">
        <ele>1673.0</ele>
        <time>2019-08-04T14:08:26.324Z</time>
      </trkpt>
      <trkpt lat="42.53250167" lon="1.60090167">
        <ele>1673.0</ele>
        <time>2019-08-04T14:08:27.301Z</time>
      </trkpt>
      <trkpt lat="42.53250167" lon="1.60090167">
        <ele>1673.0</ele>
        <time>2019-08-04T14:08:28.324Z</time>
      </trkpt>
      <trkpt lat="42.5325" lon="1.60095167">
        <ele>1674.0</ele>
        <time>2019-08-04T14:08:29.322Z</time>
      </trkpt>
      <trkpt lat="42.5325" lon="1.60095167">
        <ele>1674.0</ele>
        <time>2019-08-04T14:08:30.306Z</time>
      </trkpt>
      <trkpt lat="42.532495" lon="1.60099833">
        <ele>1674.0</ele>
        <time>2019-08-04T14:08:31.319Z</time>
      </trkpt>
      <trkpt lat="42.53249333" lon="1.60102333">
        <ele>1675.0</ele>
        <time>2019-08-04T14:08:32.328Z</time>
      </trkpt>
      <trkpt lat="42.53249167" lon="1.60104667">
        <ele>1675.0</ele>
        <time>2019-08-04T14:08:33.304Z</time>
      </trkpt>
      <trkpt lat="42.53249167" lon="1.60104667">
        <ele>1675.0</ele>
        <time>2019-08-04T14:08:34.326Z</time>
      </trkpt>
      <trkpt lat="42.53249167" lon="1.60109333">
        <ele>1676.0</ele>
        <time>2019-08-04T14:08:35.327Z</time>
      </trkpt>
      <trkpt lat="42.53249167" lon="1.60109333">
        <ele>1676.0</ele>
        <time>2019-08-04T14:08:36.303Z</time>
      </trkpt>
      <trkpt lat="42.532495" lon="1.60113833">
        <ele>1676.0</ele>
        <time>2019-08-04T14:08:37.330Z</time>
      </trkpt>
      <trkpt lat="42.532495" lon="1.60113833">
        <ele>1676.0</ele>
        <time>2019-08-04T14:08:38.325Z</time>
      </trkpt>
      <trkpt lat="42.53248833" lon="1.60118333">
        <ele>1677.0</ele>
        <time>2019-08-04T14:08:39.308Z</time>
      </trkpt>
      <trkpt lat="42.53248833" lon="1.60118333">
        <ele>1677.0</ele>
        <time>2019-08-04T14:08:40.334Z</time>
      </trkpt>
      <trkpt lat="42.53249167" lon="1.60122167">
        <ele>1678.0</ele>
        <time>2019-08-04T14:08:41.328Z</time>
      </trkpt>
      <trkpt lat="42.53249167" lon="1.60122167">
        <ele>1678.0</ele>
        <time>2019-08-04T14:08:42.326Z</time>
      </trkpt>
      <trkpt lat="42.53248833" lon="1.60126">
        <ele>1678.0</ele>
        <time>2019-08-04T14:08:43.328Z</time>
      </trkpt>
      <trkpt lat="42.53248833" lon="1.60126">
        <ele>1678.0</ele>
        <time>2019-08-04T14:08:44.328Z</time>
      </trkpt>
      <trkpt lat="42.53249333" lon="1.60130333">
        <ele>1679.0</ele>
        <time>2019-08-04T14:08:45.328Z</time>
      </trkpt>
      <trkpt lat="42.53249333" lon="1.60130333">
        <ele>1679.0</ele>
        <time>2019-08-04T14:08:46.326Z</time>
      </trkpt>
      <trkpt lat="42.53249667" lon="1.60134333">
        <ele>1680.0</ele>
        <time>2019-08-04T14:08:47.324Z</time>
      </trkpt>
      <trkpt lat="42.53249667" lon="1.60134333">
        <ele>1680.0</ele>
        <time>2019-08-04T14:08:48.499Z</time>
      </trkpt>
      <trkpt lat="42.53249833" lon="1.60136333">
        <ele>1680.0</ele>
        <time>2019-08-04T14:08:49.325Z</time>
      </trkpt>
      <trkpt lat="42.532495" lon="1.6014">
        <ele>1681.0</ele>
        <time>2019-08-04T14:08:50.327Z</time>
      </trkpt>
      <trkpt lat="42.532495" lon="1.6014">
        <ele>1681.0</ele>
        <time>2019-08-04T14:08:51.308Z</time>
      </trkpt>
      <trkpt lat="42.532495" lon="1.60142">
        <ele>1681.0</ele>
        <time>2019-08-04T14:08:52.301Z</time>
      </trkpt>
      <trkpt lat="42.53249333" lon="1.60146">
        <ele>1681.0</ele>
        <time>2019-08-04T14:08:53.327Z</time>
      </trkpt>
      <trkpt lat="42.53249333" lon="1.60146">
        <ele>1681.0</ele>
        <time>2019-08-04T14:08:54.302Z</time>
      </trkpt>
      <trkpt lat="42.53249333" lon="1.60151333">
        <ele>1681.0</ele>
        <time>2019-08-04T14:08:55.327Z</time>
      </trkpt>
      <trkpt lat="42.53249" lon="1.60154">
        <ele>1682.0</ele>
        <time>2019-08-04T14:08:56.327Z</time>
      </trkpt>
      <trkpt lat="42.53249" lon="1.60154">
        <ele>1682.0</ele>
        <time>2019-08-04T14:08:57.325Z</time>
      </trkpt>
      <trkpt lat="42.53248667" lon="1.60158167">
        <ele>1682.0</ele>
        <time>2019-08-04T14:08:58.327Z</time>
      </trkpt>
      <trkpt lat="42.53248833" lon="1.60160167">
        <ele>1683.0</ele>
        <time>2019-08-04T14:08:59.303Z</time>
      </trkpt>
      <trkpt lat="42.53248833" lon="1.60160167">
        <ele>1683.0</ele>
        <time>2019-08-04T14:09:00.325Z</time>
      </trkpt>
      <trkpt lat="42.53249833" lon="1.60164833">
        <ele>1683.0</ele>
        <time>2019-08-04T14:09:01.325Z</time>
      </trkpt>
      <trkpt lat="42.53249833" lon="1.60164833">
        <ele>1683.0</ele>
        <time>2019-08-04T14:09:02.320Z</time>
      </trkpt>
      <trkpt lat="42.53250333" lon="1.601695">
        <ele>1683.0</ele>
        <time>2019-08-04T14:09:03.307Z</time>
      </trkpt>
      <trkpt lat="42.53250333" lon="1.60171833">
        <ele>1684.0</ele>
        <time>2019-08-04T14:09:04.329Z</time>
      </trkpt>
      <trkpt lat="42.53250333" lon="1.60174333">
        <ele>1684.0</ele>
        <time>2019-08-04T14:09:05.325Z</time>
      </trkpt>
      <trkpt lat="42.53250333" lon="1.60174333">
        <ele>1684.0</ele>
        <time>2019-08-04T14:09:06.304Z</time>
      </trkpt>
      <trkpt lat="42.5325" lon="1.601795">
        <ele>1685.0</ele>
        <time>2019-08-04T14:09:07.321Z</time>
      </trkpt>
      <trkpt lat="42.532495" lon="1.60182">
        <ele>1685.0</ele>
        <time>2019-08-04T14:09:08.297Z</time>
      </trkpt>
      <trkpt lat="42.532495" lon="1.60182">
        <ele>1685.0</ele>
        <time>2019-08-04T14:09:09.327Z</time>
      </trkpt>
      <trkpt lat="42.53249333" lon="1.60186333">
        <ele>1685.0</ele>
        <time>2019-08-04T14:09:10.302Z</time>
      </trkpt>
      <trkpt lat="42.53249167" lon="1.60188">
        <ele>1685.0</ele>
        <time>2019-08-04T14:09:11.328Z</time>
      </trkpt>
      <trkpt lat="42.53249167" lon="1.60188">
        <ele>1685.0</ele>
        <time>2019-08-04T14:09:12.303Z</time>
      </trkpt>
      <trkpt lat="42.53248667" lon="1.60192167">
        <ele>1686.0</ele>
        <time>2019-08-04T14:09:13.328Z</time>
      </trkpt>
      <trkpt lat="42.53248667" lon="1.60192167">
        <ele>1686.0</ele>
        <time>2019-08-04T14:09:14.303Z</time>
      </trkpt>
      <trkpt lat="42.53248" lon="1.60196833">
        <ele>1686.0</ele>
        <time>2019-08-04T14:09:15.329Z</time>
      </trkpt>
      <trkpt lat="42.53248" lon="1.60199167">
        <ele>1686.0</ele>
        <time>2019-08-04T14:09:16.329Z</time>
      </trkpt>
      <trkpt lat="42.53248" lon="1.60199167">
        <ele>1686.0</ele>
        <time>2019-08-04T14:09:17.310Z</time>
      </trkpt>
      <trkpt lat="42.53247833" lon="1.602015">
        <ele>1687.0</ele>
        <time>2019-08-04T14:09:18.301Z</time>
      </trkpt>
      <trkpt lat="42.53247833" lon="1.60206">
        <ele>1687.0</ele>
        <time>2019-08-04T14:09:19.296Z</time>
      </trkpt>
      <trkpt lat="42.53247833" lon="1.60206">
        <ele>1687.0</ele>
        <time>2019-08-04T14:09:20.322Z</time>
      </trkpt>
      <trkpt lat="42.53247833" lon="1.60206">
        <ele>1687.0</ele>
        <time>2019-08-04T14:09:21.303Z</time>
      </trkpt>
      <trkpt lat="42.53247667" lon="1.60210833">
        <ele>1687.0</ele>
        <time>2019-08-04T14:09:22.325Z</time>
      </trkpt>
      <trkpt lat="42.53247333" lon="1.60215167">
        <ele>1687.0</ele>
        <time>2019-08-04T14:09:23.328Z</time>
      </trkpt>
      <trkpt lat="42.53247333" lon="1.60215167">
        <ele>1687.0</ele>
        <time>2019-08-04T14:09:24.323Z</time>
      </trkpt>
      <trkpt lat="42.532475" lon="1.60219333">
        <ele>1688.0</ele>
        <time>2019-08-04T14:09:25.297Z</time>
      </trkpt>
      <trkpt lat="42.532475" lon="1.60219333">
        <ele>1688.0</ele>
        <time>2019-08-04T14:09:26.325Z</time>
      </trkpt>
      <trkpt lat="42.532475" lon="1.60223833">
        <ele>1688.0</ele>
        <time>2019-08-04T14:09:27.327Z</time>
      </trkpt>
      <trkpt lat="42.532475" lon="1.60223833">
        <ele>1688.0</ele>
        <time>2019-08-04T14:09:28.302Z</time>
      </trkpt>
      <trkpt lat="42.53247167" lon="1.60227667">
        <ele>1688.0</ele>
        <time>2019-08-04T14:09:29.301Z</time>
      </trkpt>
      <trkpt lat="42.53247167" lon="1.60229667">
        <ele>1688.0</ele>
        <time>2019-08-04T14:09:30.325Z</time>
      </trkpt>
      <trkpt lat="42.53247167" lon="1.60229667">
        <ele>1688.0</ele>
        <time>2019-08-04T14:09:31.298Z</time>
      </trkpt>
      <trkpt lat="42.53247167" lon="1.60233833">
        <ele>1688.0</ele>
        <time>2019-08-04T14:09:32.298Z</time>
      </trkpt>
      <trkpt lat="42.53247" lon="1.60235833">
        <ele>1689.0</ele>
        <time>2019-08-04T14:09:33.329Z</time>
      </trkpt>
      <trkpt lat="42.53247" lon="1.60235833">
        <ele>1689.0</ele>
        <time>2019-08-04T14:09:34.324Z</time>
      </trkpt>
      <trkpt lat="42.53246667" lon="1.60239667">
        <ele>1689.0</ele>
        <time>2019-08-04T14:09:35.328Z</time>
      </trkpt>
      <trkpt lat="42.53246667" lon="1.60239667">
        <ele>1689.0</ele>
        <time>2019-08-04T14:09:36.326Z</time>
      </trkpt>
      <trkpt lat="42.532475" lon="1.60242833">
        <ele>1689.0</ele>
        <time>2019-08-04T14:09:37.328Z</time>
      </trkpt>
      <trkpt lat="42.532475" lon="1.60242833">
        <ele>1689.0</ele>
        <time>2019-08-04T14:09:38.325Z</time>
      </trkpt>
      <trkpt lat="42.532485" lon="1.60246">
        <ele>1689.0</ele>
        <time>2019-08-04T14:09:39.329Z</time>
      </trkpt>
      <trkpt lat="42.532485" lon="1.60246">
        <ele>1689.0</ele>
        <time>2019-08-04T14:09:40.326Z</time>
      </trkpt>
      <trkpt lat="42.53248333" lon="1.60249667">
        <ele>1689.0</ele>
        <time>2019-08-04T14:09:41.337Z</time>
      </trkpt>
      <trkpt lat="42.53248333" lon="1.60249667">
        <ele>1689.0</ele>
        <time>2019-08-04T14:09:42.302Z</time>
      </trkpt>
      <trkpt lat="42.53247667" lon="1.602535">
        <ele>1689.0</ele>
        <time>2019-08-04T14:09:43.296Z</time>
      </trkpt>
      <trkpt lat="42.53247667" lon="1.602535">
        <ele>1689.0</ele>
        <time>2019-08-04T14:09:44.335Z</time>
      </trkpt>
      <trkpt lat="42.53247167" lon="1.602575">
        <ele>1689.0</ele>
        <time>2019-08-04T14:09:45.301Z</time>
      </trkpt>
      <trkpt lat="42.53247167" lon="1.602575">
        <ele>1689.0</ele>
        <time>2019-08-04T14:09:46.325Z</time>
      </trkpt>
      <trkpt lat="42.53247167" lon="1.602575">
        <ele>1689.0</ele>
        <time>2019-08-04T14:09:47.507Z</time>
      </trkpt>
      <trkpt lat="42.53246833" lon="1.60261">
        <ele>1689.0</ele>
        <time>2019-08-04T14:09:48.325Z</time>
      </trkpt>
      <trkpt lat="42.532465" lon="1.602645">
        <ele>1690.0</ele>
        <time>2019-08-04T14:09:49.328Z</time>
      </trkpt>
      <trkpt lat="42.532465" lon="1.602645">
        <ele>1690.0</ele>
        <time>2019-08-04T14:09:50.326Z</time>
      </trkpt>
      <trkpt lat="42.53246333" lon="1.602685">
        <ele>1690.0</ele>
        <time>2019-08-04T14:09:51.327Z</time>
      </trkpt>
      <trkpt lat="42.53246167" lon="1.60270667">
        <ele>1690.0</ele>
        <time>2019-08-04T14:09:52.303Z</time>
      </trkpt>
      <trkpt lat="42.53246167" lon="1.60270667">
        <ele>1690.0</ele>
        <time>2019-08-04T14:09:53.326Z</time>
      </trkpt>
      <trkpt lat="42.53245167" lon="1.60274667">
        <ele>1690.0</ele>
        <time>2019-08-04T14:09:54.328Z</time>
      </trkpt>
      <trkpt lat="42.53245167" lon="1.60274667">
        <ele>1690.0</ele>
        <time>2019-08-04T14:09:55.326Z</time>
      </trkpt>
      <trkpt lat="42.53245" lon="1.602795">
        <ele>1691.0</ele>
        <time>2019-08-04T14:09:56.328Z</time>
      </trkpt>
      <trkpt lat="42.53245" lon="1.60281833">
        <ele>1691.0</ele>
        <time>2019-08-04T14:09:57.304Z</time>
      </trkpt>
      <trkpt lat="42.53245" lon="1.60281833">
        <ele>1691.0</ele>
        <time>2019-08-04T14:09:58.327Z</time>
      </trkpt>
      <trkpt lat="42.53245167" lon="1.60286">
        <ele>1691.0</ele>
        <time>2019-08-04T14:09:59.328Z</time>
      </trkpt>
      <trkpt lat="42.53245167" lon="1.60286">
        <ele>1691.0</ele>
        <time>2019-08-04T14:10:00.325Z</time>
      </trkpt>
      <trkpt lat="42.53245167" lon="1.60286">
        <ele>1691.0</ele>
        <time>2019-08-04T14:10:01.360Z</time>
      </trkpt>
      <trkpt lat="42.53245" lon="1.60289667">
        <ele>1692.0</ele>
        <time>2019-08-04T14:10:02.297Z</time>
      </trkpt>
      <trkpt lat="42.53244667" lon="1.60293667">
        <ele>1692.0</ele>
        <time>2019-08-04T14:10:03.329Z</time>
      </trkpt>
      <trkpt lat="42.53244667" lon="1.60293667">
        <ele>1692.0</ele>
        <time>2019-08-04T14:10:04.326Z</time>
      </trkpt>
      <trkpt lat="42.53244167" lon="1.60298167">
        <ele>1692.0</ele>
        <time>2019-08-04T14:10:05.328Z</time>
      </trkpt>
      <trkpt lat="42.53244167" lon="1.60298167">
        <ele>1692.0</ele>
        <time>2019-08-04T14:10:06.327Z</time>
      </trkpt>
      <trkpt lat="42.53243" lon="1.60302">
        <ele>1693.0</ele>
        <time>2019-08-04T14:10:07.327Z</time>
      </trkpt>
      <trkpt lat="42.53243333" lon="1.60303833">
        <ele>1693.0</ele>
        <time>2019-08-04T14:10:08.328Z</time>
      </trkpt>
      <trkpt lat="42.53243333" lon="1.60303833">
        <ele>1693.0</ele>
        <time>2019-08-04T14:10:09.303Z</time>
      </trkpt>
      <trkpt lat="42.53243167" lon="1.60308333">
        <ele>1693.0</ele>
        <time>2019-08-04T14:10:10.330Z</time>
      </trkpt>
      <trkpt lat="42.53243333" lon="1.60310167">
        <ele>1693.0</ele>
        <time>2019-08-04T14:10:11.328Z</time>
      </trkpt>
      <trkpt lat="42.53243333" lon="1.60310167">
        <ele>1693.0</ele>
        <time>2019-08-04T14:10:12.306Z</time>
      </trkpt>
      <trkpt lat="42.53242833" lon="1.60314167">
        <ele>1694.0</ele>
        <time>2019-08-04T14:10:13.330Z</time>
      </trkpt>
      <trkpt lat="42.53242833" lon="1.60315833">
        <ele>1694.0</ele>
        <time>2019-08-04T14:10:14.328Z</time>
      </trkpt>
      <trkpt lat="42.53242833" lon="1.603175">
        <ele>1694.0</ele>
        <time>2019-08-04T14:10:15.304Z</time>
      </trkpt>
      <trkpt lat="42.53242833" lon="1.603175">
        <ele>1694.0</ele>
        <time>2019-08-04T14:10:16.325Z</time>
      </trkpt>
      <trkpt lat="42.53242667" lon="1.60321667">
        <ele>1694.0</ele>
        <time>2019-08-04T14:10:17.329Z</time>
      </trkpt>
      <trkpt lat="42.53242667" lon="1.60321667">
        <ele>1694.0</ele>
        <time>2019-08-04T14:10:18.325Z</time>
      </trkpt>
      <trkpt lat="42.53242" lon="1.60325833">
        <ele>1694.0</ele>
        <time>2019-08-04T14:10:19.329Z</time>
      </trkpt>
      <trkpt lat="42.53242" lon="1.60325833">
        <ele>1694.0</ele>
        <time>2019-08-04T14:10:20.325Z</time>
      </trkpt>
      <trkpt lat="42.532415" lon="1.60330333">
        <ele>1695.0</ele>
        <time>2019-08-04T14:10:21.329Z</time>
      </trkpt>
      <trkpt lat="42.532415" lon="1.60330333">
        <ele>1695.0</ele>
        <time>2019-08-04T14:10:22.323Z</time>
      </trkpt>
      <trkpt lat="42.53240833" lon="1.60334333">
        <ele>1695.0</ele>
        <time>2019-08-04T14:10:23.304Z</time>
      </trkpt>
      <trkpt lat="42.53240833" lon="1.60334333">
        <ele>1695.0</ele>
        <time>2019-08-04T14:10:24.323Z</time>
      </trkpt>
      <trkpt lat="42.532405" lon="1.60338333">
        <ele>1695.0</ele>
        <time>2019-08-04T14:10:25.297Z</time>
      </trkpt>
      <trkpt lat="42.532405" lon="1.60338333">
        <ele>1695.0</ele>
        <time>2019-08-04T14:10:26.323Z</time>
      </trkpt>
      <trkpt lat="42.53240167" lon="1.60342667">
        <ele>1696.0</ele>
        <time>2019-08-04T14:10:27.302Z</time>
      </trkpt>
      <trkpt lat="42.53240167" lon="1.60342667">
        <ele>1696.0</ele>
        <time>2019-08-04T14:10:28.323Z</time>
      </trkpt>
      <trkpt lat="42.532395" lon="1.603465">
        <ele>1696.0</ele>
        <time>2019-08-04T14:10:29.300Z</time>
      </trkpt>
      <trkpt lat="42.532395" lon="1.60348667">
        <ele>1696.0</ele>
        <time>2019-08-04T14:10:30.304Z</time>
      </trkpt>
      <trkpt lat="42.532395" lon="1.60348667">
        <ele>1696.0</ele>
        <time>2019-08-04T14:10:31.316Z</time>
      </trkpt>
      <trkpt lat="42.532395" lon="1.60352667">
        <ele>1696.0</ele>
        <time>2019-08-04T14:10:32.328Z</time>
      </trkpt>
      <trkpt lat="42.53239167" lon="1.60354667">
        <ele>1696.0</ele>
        <time>2019-08-04T14:10:33.304Z</time>
      </trkpt>
      <trkpt lat="42.53239167" lon="1.60354667">
        <ele>1696.0</ele>
        <time>2019-08-04T14:10:34.326Z</time>
      </trkpt>
      <trkpt lat="42.53239" lon="1.60358667">
        <ele>1696.0</ele>
        <time>2019-08-04T14:10:35.328Z</time>
      </trkpt>
      <trkpt lat="42.53239" lon="1.60358667">
        <ele>1696.0</ele>
        <time>2019-08-04T14:10:36.304Z</time>
      </trkpt>
      <trkpt lat="42.532385" lon="1.60363">
        <ele>1697.0</ele>
        <time>2019-08-04T14:10:37.325Z</time>
      </trkpt>
      <trkpt lat="42.532385" lon="1.60363">
        <ele>1697.0</ele>
        <time>2019-08-04T14:10:38.321Z</time>
      </trkpt>
      <trkpt lat="42.53237833" lon="1.60367333">
        <ele>1697.0</ele>
        <time>2019-08-04T14:10:39.302Z</time>
      </trkpt>
      <trkpt lat="42.53237833" lon="1.60367333">
        <ele>1697.0</ele>
        <time>2019-08-04T14:10:40.325Z</time>
      </trkpt>
      <trkpt lat="42.53237167" lon="1.60371667">
        <ele>1697.0</ele>
        <time>2019-08-04T14:10:41.328Z</time>
      </trkpt>
      <trkpt lat="42.53237167" lon="1.60371667">
        <ele>1697.0</ele>
        <time>2019-08-04T14:10:42.330Z</time>
      </trkpt>
      <trkpt lat="42.53236667" lon="1.60376">
        <ele>1697.0</ele>
        <time>2019-08-04T14:10:43.328Z</time>
      </trkpt>
      <trkpt lat="42.53236667" lon="1.60376">
        <ele>1697.0</ele>
        <time>2019-08-04T14:10:44.304Z</time>
      </trkpt>
      <trkpt lat="42.53235833" lon="1.60380333">
        <ele>1698.0</ele>
        <time>2019-08-04T14:10:45.304Z</time>
      </trkpt>
      <trkpt lat="42.53235833" lon="1.60380333">
        <ele>1698.0</ele>
        <time>2019-08-04T14:10:46.325Z</time>
      </trkpt>
      <trkpt lat="42.53235167" lon="1.60385">
        <ele>1698.0</ele>
        <time>2019-08-04T14:10:47.328Z</time>
      </trkpt>
      <trkpt lat="42.53235167" lon="1.60385">
        <ele>1698.0</ele>
        <time>2019-08-04T14:10:48.324Z</time>
      </trkpt>
      <trkpt lat="42.532345" lon="1.60389">
        <ele>1698.0</ele>
        <time>2019-08-04T14:10:49.304Z</time>
      </trkpt>
      <trkpt lat="42.532345" lon="1.60389">
        <ele>1698.0</ele>
        <time>2019-08-04T14:10:50.325Z</time>
      </trkpt>
      <trkpt lat="42.532345" lon="1.60392667">
        <ele>1698.0</ele>
        <time>2019-08-04T14:10:51.329Z</time>
      </trkpt>
      <trkpt lat="42.532345" lon="1.60392667">
        <ele>1698.0</ele>
        <time>2019-08-04T14:10:52.326Z</time>
      </trkpt>
      <trkpt lat="42.53234167" lon="1.60397167">
        <ele>1699.0</ele>
        <time>2019-08-04T14:10:53.328Z</time>
      </trkpt>
      <trkpt lat="42.53233833" lon="1.603995">
        <ele>1699.0</ele>
        <time>2019-08-04T14:10:54.329Z</time>
      </trkpt>
      <trkpt lat="42.53233833" lon="1.603995">
        <ele>1699.0</ele>
        <time>2019-08-04T14:10:55.324Z</time>
      </trkpt>
      <trkpt lat="42.53233667" lon="1.60403667">
        <ele>1699.0</ele>
        <time>2019-08-04T14:10:56.328Z</time>
      </trkpt>
      <trkpt lat="42.53233333" lon="1.60405667">
        <ele>1699.0</ele>
        <time>2019-08-04T14:10:57.303Z</time>
      </trkpt>
      <trkpt lat="42.53233333" lon="1.60405667">
        <ele>1699.0</ele>
        <time>2019-08-04T14:10:58.322Z</time>
      </trkpt>
      <trkpt lat="42.53232833" lon="1.604095">
        <ele>1700.0</ele>
        <time>2019-08-04T14:10:59.299Z</time>
      </trkpt>
      <trkpt lat="42.53232833" lon="1.604095">
        <ele>1700.0</ele>
        <time>2019-08-04T14:11:00.338Z</time>
      </trkpt>
      <trkpt lat="42.53232167" lon="1.60414">
        <ele>1700.0</ele>
        <time>2019-08-04T14:11:01.328Z</time>
      </trkpt>
      <trkpt lat="42.53232167" lon="1.60414">
        <ele>1700.0</ele>
        <time>2019-08-04T14:11:02.304Z</time>
      </trkpt>
      <trkpt lat="42.53231667" lon="1.60418">
        <ele>1700.0</ele>
        <time>2019-08-04T14:11:03.327Z</time>
      </trkpt>
      <trkpt lat="42.53231667" lon="1.60418">
        <ele>1700.0</ele>
        <time>2019-08-04T14:11:04.304Z</time>
      </trkpt>
      <trkpt lat="42.53230333" lon="1.60422167">
        <ele>1701.0</ele>
        <time>2019-08-04T14:11:05.327Z</time>
      </trkpt>
      <trkpt lat="42.5323" lon="1.60424333">
        <ele>1701.0</ele>
        <time>2019-08-04T14:11:06.308Z</time>
      </trkpt>
      <trkpt lat="42.5323" lon="1.60424333">
        <ele>1701.0</ele>
        <time>2019-08-04T14:11:07.325Z</time>
      </trkpt>
      <trkpt lat="42.5323" lon="1.60424333">
        <ele>1701.0</ele>
        <time>2019-08-04T14:11:08.312Z</time>
      </trkpt>
      <trkpt lat="42.53229833" lon="1.60427667">
        <ele>1701.0</ele>
        <time>2019-08-04T14:11:09.309Z</time>
      </trkpt>
      <trkpt lat="42.53229167" lon="1.604315">
        <ele>1702.0</ele>
        <time>2019-08-04T14:11:10.330Z</time>
      </trkpt>
      <trkpt lat="42.53229167" lon="1.60432833">
        <ele>1702.0</ele>
        <time>2019-08-04T14:11:11.333Z</time>
      </trkpt>
      <trkpt lat="42.53229167" lon="1.60432833">
        <ele>1702.0</ele>
        <time>2019-08-04T14:11:12.323Z</time>
      </trkpt>
      <trkpt lat="42.53228667" lon="1.60436667">
        <ele>1702.0</ele>
        <time>2019-08-04T14:11:13.303Z</time>
      </trkpt>
      <trkpt lat="42.53228667" lon="1.60436667">
        <ele>1702.0</ele>
        <time>2019-08-04T14:11:14.325Z</time>
      </trkpt>
      <trkpt lat="42.53228667" lon="1.60436667">
        <ele>1702.0</ele>
        <time>2019-08-04T14:11:15.509Z</time>
      </trkpt>
      <trkpt lat="42.53228" lon="1.60440833">
        <ele>1703.0</ele>
        <time>2019-08-04T14:11:16.325Z</time>
      </trkpt>
      <trkpt lat="42.53227" lon="1.60445">
        <ele>1703.0</ele>
        <time>2019-08-04T14:11:17.326Z</time>
      </trkpt>
      <trkpt lat="42.53227" lon="1.60445">
        <ele>1703.0</ele>
        <time>2019-08-04T14:11:18.303Z</time>
      </trkpt>
      <trkpt lat="42.53226" lon="1.60449167">
        <ele>1704.0</ele>
        <time>2019-08-04T14:11:19.329Z</time>
      </trkpt>
      <trkpt lat="42.53226" lon="1.60449167">
        <ele>1704.0</ele>
        <time>2019-08-04T14:11:20.326Z</time>
      </trkpt>
      <trkpt lat="42.532255" lon="1.60453833">
        <ele>1704.0</ele>
        <time>2019-08-04T14:11:21.329Z</time>
      </trkpt>
      <trkpt lat="42.532255" lon="1.60453833">
        <ele>1704.0</ele>
        <time>2019-08-04T14:11:22.326Z</time>
      </trkpt>
      <trkpt lat="42.53225" lon="1.60457833">
        <ele>1705.0</ele>
        <time>2019-08-04T14:11:23.329Z</time>
      </trkpt>
      <trkpt lat="42.53225" lon="1.60457833">
        <ele>1705.0</ele>
        <time>2019-08-04T14:11:24.326Z</time>
      </trkpt>
      <trkpt lat="42.53224" lon="1.60461833">
        <ele>1705.0</ele>
        <time>2019-08-04T14:11:25.325Z</time>
      </trkpt>
      <trkpt lat="42.53224" lon="1.60461833">
        <ele>1705.0</ele>
        <time>2019-08-04T14:11:26.302Z</time>
      </trkpt>
      <trkpt lat="42.53223167" lon="1.604655">
        <ele>1706.0</ele>
        <time>2019-08-04T14:11:27.330Z</time>
      </trkpt>
      <trkpt lat="42.53223167" lon="1.604655">
        <ele>1706.0</ele>
        <time>2019-08-04T14:11:28.326Z</time>
      </trkpt>
      <trkpt lat="42.53222167" lon="1.60469167">
        <ele>1706.0</ele>
        <time>2019-08-04T14:11:29.321Z</time>
      </trkpt>
      <trkpt lat="42.53221667" lon="1.60471">
        <ele>1707.0</ele>
        <time>2019-08-04T14:11:30.296Z</time>
      </trkpt>
      <trkpt lat="42.53221667" lon="1.60471">
        <ele>1707.0</ele>
        <time>2019-08-04T14:11:31.303Z</time>
      </trkpt>
      <trkpt lat="42.53220333" lon="1.60475167">
        <ele>1707.0</ele>
        <time>2019-08-04T14:11:32.330Z</time>
      </trkpt>
      <trkpt lat="42.53219833" lon="1.60477667">
        <ele>1707.0</ele>
        <time>2019-08-04T14:11:33.329Z</time>
      </trkpt>
      <trkpt lat="42.53219833" lon="1.60477667">
        <ele>1707.0</ele>
        <time>2019-08-04T14:11:34.304Z</time>
      </trkpt>
      <trkpt lat="42.53219333" lon="1.60480167">
        <ele>1708.0</ele>
        <time>2019-08-04T14:11:35.327Z</time>
      </trkpt>
      <trkpt lat="42.53218" lon="1.604845">
        <ele>1708.0</ele>
        <time>2019-08-04T14:11:36.329Z</time>
      </trkpt>
      <trkpt lat="42.53218" lon="1.604845">
        <ele>1708.0</ele>
        <time>2019-08-04T14:11:37.304Z</time>
      </trkpt>
      <trkpt lat="42.53216667" lon="1.60489">
        <ele>1708.0</ele>
        <time>2019-08-04T14:11:38.328Z</time>
      </trkpt>
      <trkpt lat="42.53216167" lon="1.60491333">
        <ele>1709.0</ele>
        <time>2019-08-04T14:11:39.330Z</time>
      </trkpt>
      <trkpt lat="42.53216167" lon="1.60491333">
        <ele>1709.0</ele>
        <time>2019-08-04T14:11:40.326Z</time>
      </trkpt>
      <trkpt lat="42.53215667" lon="1.604955">
        <ele>1709.0</ele>
        <time>2019-08-04T14:11:41.328Z</time>
      </trkpt>
      <trkpt lat="42.53215667" lon="1.604955">
        <ele>1709.0</ele>
        <time>2019-08-04T14:11:42.326Z</time>
      </trkpt>
      <trkpt lat="42.53214667" lon="1.60499833">
        <ele>1709.0</ele>
        <time>2019-08-04T14:11:43.329Z</time>
      </trkpt>
      <trkpt lat="42.53214667" lon="1.60499833">
        <ele>1709.0</ele>
        <time>2019-08-04T14:11:44.336Z</time>
      </trkpt>
      <trkpt lat="42.53213833" lon="1.60504">
        <ele>1710.0</ele>
        <time>2019-08-04T14:11:45.297Z</time>
      </trkpt>
      <trkpt lat="42.53213833" lon="1.60504">
        <ele>1710.0</ele>
        <time>2019-08-04T14:11:46.326Z</time>
      </trkpt>
      <trkpt lat="42.53213833" lon="1.60504">
        <ele>1710.0</ele>
        <time>2019-08-04T14:11:47.546Z</time>
      </trkpt>
      <trkpt lat="42.53212833" lon="1.60508167">
        <ele>1710.0</ele>
        <time>2019-08-04T14:11:48.326Z</time>
      </trkpt>
      <trkpt lat="42.53211833" lon="1.60511667">
        <ele>1711.0</ele>
        <time>2019-08-04T14:11:49.328Z</time>
      </trkpt>
      <trkpt lat="42.532115" lon="1.60513333">
        <ele>1711.0</ele>
        <time>2019-08-04T14:11:50.304Z</time>
      </trkpt>
      <trkpt lat="42.532115" lon="1.60513333">
        <ele>1711.0</ele>
        <time>2019-08-04T14:11:51.333Z</time>
      </trkpt>
      <trkpt lat="42.532115" lon="1.60513333">
        <ele>1711.0</ele>
        <time>2019-08-04T14:11:52.301Z</time>
      </trkpt>
      <trkpt lat="42.5321" lon="1.60519167">
        <ele>1711.0</ele>
        <time>2019-08-04T14:11:53.328Z</time>
      </trkpt>
      <trkpt lat="42.5321" lon="1.60519167">
        <ele>1711.0</ele>
        <time>2019-08-04T14:11:54.304Z</time>
      </trkpt>
      <trkpt lat="42.53209167" lon="1.60523333">
        <ele>1712.0</ele>
        <time>2019-08-04T14:11:55.327Z</time>
      </trkpt>
      <trkpt lat="42.53208667" lon="1.60525333">
        <ele>1712.0</ele>
        <time>2019-08-04T14:11:56.303Z</time>
      </trkpt>
      <trkpt lat="42.53208167" lon="1.60527167">
        <ele>1712.0</ele>
        <time>2019-08-04T14:11:57.330Z</time>
      </trkpt>
      <trkpt lat="42.53208167" lon="1.60527167">
        <ele>1712.0</ele>
        <time>2019-08-04T14:11:58.326Z</time>
      </trkpt>
      <trkpt lat="42.53207167" lon="1.60531167">
        <ele>1712.0</ele>
        <time>2019-08-04T14:11:59.328Z</time>
      </trkpt>
      <trkpt lat="42.53207167" lon="1.60531167">
        <ele>1712.0</ele>
        <time>2019-08-04T14:12:00.303Z</time>
      </trkpt>
      <trkpt lat="42.53206167" lon="1.60535333">
        <ele>1712.0</ele>
        <time>2019-08-04T14:12:01.329Z</time>
      </trkpt>
      <trkpt lat="42.53206167" lon="1.60535333">
        <ele>1712.0</ele>
        <time>2019-08-04T14:12:02.323Z</time>
      </trkpt>
      <trkpt lat="42.53205333" lon="1.605395">
        <ele>1713.0</ele>
        <time>2019-08-04T14:12:03.303Z</time>
      </trkpt>
      <trkpt lat="42.53205333" lon="1.605395">
        <ele>1713.0</ele>
        <time>2019-08-04T14:12:04.326Z</time>
      </trkpt>
      <trkpt lat="42.53204333" lon="1.60543833">
        <ele>1713.0</ele>
        <time>2019-08-04T14:12:05.327Z</time>
      </trkpt>
      <trkpt lat="42.53204333" lon="1.60543833">
        <ele>1713.0</ele>
        <time>2019-08-04T14:12:06.303Z</time>
      </trkpt>
      <trkpt lat="42.53203333" lon="1.605475">
        <ele>1713.0</ele>
        <time>2019-08-04T14:12:07.329Z</time>
      </trkpt>
      <trkpt lat="42.53203333" lon="1.605475">
        <ele>1713.0</ele>
        <time>2019-08-04T14:12:08.305Z</time>
      </trkpt>
      <trkpt lat="42.53202" lon="1.605515">
        <ele>1714.0</ele>
        <time>2019-08-04T14:12:09.331Z</time>
      </trkpt>
      <trkpt lat="42.53202" lon="1.605515">
        <ele>1714.0</ele>
        <time>2019-08-04T14:12:10.326Z</time>
      </trkpt>
      <trkpt lat="42.53201" lon="1.60555667">
        <ele>1714.0</ele>
        <time>2019-08-04T14:12:11.328Z</time>
      </trkpt>
      <trkpt lat="42.532005" lon="1.60557667">
        <ele>1714.0</ele>
        <time>2019-08-04T14:12:12.304Z</time>
      </trkpt>
      <trkpt lat="42.532005" lon="1.60557667">
        <ele>1714.0</ele>
        <time>2019-08-04T14:12:13.326Z</time>
      </trkpt>
      <trkpt lat="42.53199333" lon="1.60561833">
        <ele>1714.0</ele>
        <time>2019-08-04T14:12:14.327Z</time>
      </trkpt>
      <trkpt lat="42.53198833" lon="1.60564">
        <ele>1714.0</ele>
        <time>2019-08-04T14:12:15.302Z</time>
      </trkpt>
      <trkpt lat="42.53198833" lon="1.60564">
        <ele>1714.0</ele>
        <time>2019-08-04T14:12:16.323Z</time>
      </trkpt>
      <trkpt lat="42.531975" lon="1.60568333">
        <ele>1714.0</ele>
        <time>2019-08-04T14:12:17.303Z</time>
      </trkpt>
      <trkpt lat="42.531975" lon="1.60568333">
        <ele>1714.0</ele>
        <time>2019-08-04T14:12:18.325Z</time>
      </trkpt>
      <trkpt lat="42.53196333" lon="1.60572667">
        <ele>1715.0</ele>
        <time>2019-08-04T14:12:19.328Z</time>
      </trkpt>
      <trkpt lat="42.53196333" lon="1.60572667">
        <ele>1715.0</ele>
        <time>2019-08-04T14:12:20.304Z</time>
      </trkpt>
      <trkpt lat="42.53195167" lon="1.60576833">
        <ele>1715.0</ele>
        <time>2019-08-04T14:12:21.329Z</time>
      </trkpt>
      <trkpt lat="42.53195167" lon="1.60576833">
        <ele>1715.0</ele>
        <time>2019-08-04T14:12:22.325Z</time>
      </trkpt>
      <trkpt lat="42.53194" lon="1.60581">
        <ele>1715.0</ele>
        <time>2019-08-04T14:12:23.304Z</time>
      </trkpt>
      <trkpt lat="42.53194" lon="1.60581">
        <ele>1715.0</ele>
        <time>2019-08-04T14:12:24.326Z</time>
      </trkpt>
      <trkpt lat="42.531925" lon="1.60585167">
        <ele>1715.0</ele>
        <time>2019-08-04T14:12:25.328Z</time>
      </trkpt>
      <trkpt lat="42.531925" lon="1.60585167">
        <ele>1715.0</ele>
        <time>2019-08-04T14:12:26.303Z</time>
      </trkpt>
      <trkpt lat="42.53190833" lon="1.60589333">
        <ele>1715.0</ele>
        <time>2019-08-04T14:12:27.329Z</time>
      </trkpt>
      <trkpt lat="42.53190833" lon="1.60589333">
        <ele>1715.0</ele>
        <time>2019-08-04T14:12:28.325Z</time>
      </trkpt>
      <trkpt lat="42.53189" lon="1.60593667">
        <ele>1715.0</ele>
        <time>2019-08-04T14:12:29.315Z</time>
      </trkpt>
      <trkpt lat="42.53188333" lon="1.60595833">
        <ele>1715.0</ele>
        <time>2019-08-04T14:12:30.332Z</time>
      </trkpt>
      <trkpt lat="42.53188333" lon="1.60595833">
        <ele>1715.0</ele>
        <time>2019-08-04T14:12:31.298Z</time>
      </trkpt>
      <trkpt lat="42.53186667" lon="1.60599833">
        <ele>1716.0</ele>
        <time>2019-08-04T14:12:32.319Z</time>
      </trkpt>
      <trkpt lat="42.53186667" lon="1.60599833">
        <ele>1716.0</ele>
        <time>2019-08-04T14:12:33.325Z</time>
      </trkpt>
      <trkpt lat="42.53186667" lon="1.60599833">
        <ele>1716.0</ele>
        <time>2019-08-04T14:12:34.305Z</time>
      </trkpt>
      <trkpt lat="42.53183333" lon="1.60605667">
        <ele>1716.0</ele>
        <time>2019-08-04T14:12:35.328Z</time>
      </trkpt>
      <trkpt lat="42.53183333" lon="1.60605667">
        <ele>1716.0</ele>
        <time>2019-08-04T14:12:36.324Z</time>
      </trkpt>
      <trkpt lat="42.53181167" lon="1.606095">
        <ele>1716.0</ele>
        <time>2019-08-04T14:12:37.327Z</time>
      </trkpt>
      <trkpt lat="42.53180167" lon="1.606115">
        <ele>1716.0</ele>
        <time>2019-08-04T14:12:38.303Z</time>
      </trkpt>
      <trkpt lat="42.53180167" lon="1.606115">
        <ele>1716.0</ele>
        <time>2019-08-04T14:12:39.324Z</time>
      </trkpt>
      <trkpt lat="42.53177833" lon="1.60615167">
        <ele>1716.0</ele>
        <time>2019-08-04T14:12:40.329Z</time>
      </trkpt>
      <trkpt lat="42.53176667" lon="1.60617167">
        <ele>1716.0</ele>
        <time>2019-08-04T14:12:41.310Z</time>
      </trkpt>
      <trkpt lat="42.53176667" lon="1.60617167">
        <ele>1716.0</ele>
        <time>2019-08-04T14:12:42.322Z</time>
      </trkpt>
      <trkpt lat="42.531745" lon="1.60620833">
        <ele>1717.0</ele>
        <time>2019-08-04T14:12:43.304Z</time>
      </trkpt>
      <trkpt lat="42.531745" lon="1.60620833">
        <ele>1717.0</ele>
        <time>2019-08-04T14:12:44.340Z</time>
      </trkpt>
      <trkpt lat="42.53172167" lon="1.60624333">
        <ele>1717.0</ele>
        <time>2019-08-04T14:12:45.330Z</time>
      </trkpt>
      <trkpt lat="42.53172167" lon="1.60624333">
        <ele>1717.0</ele>
        <time>2019-08-04T14:12:46.324Z</time>
      </trkpt>
      <trkpt lat="42.53169833" lon="1.60627667">
        <ele>1717.0</ele>
        <time>2019-08-04T14:12:47.304Z</time>
      </trkpt>
      <trkpt lat="42.53169833" lon="1.60627667">
        <ele>1717.0</ele>
        <time>2019-08-04T14:12:48.326Z</time>
      </trkpt>
      <trkpt lat="42.53167333" lon="1.60630667">
        <ele>1717.0</ele>
        <time>2019-08-04T14:12:49.307Z</time>
      </trkpt>
      <trkpt lat="42.53166" lon="1.60632333">
        <ele>1717.0</ele>
        <time>2019-08-04T14:12:50.329Z</time>
      </trkpt>
      <trkpt lat="42.53165" lon="1.60634167">
        <ele>1717.0</ele>
        <time>2019-08-04T14:12:51.310Z</time>
      </trkpt>
      <trkpt lat="42.53165" lon="1.60634167">
        <ele>1717.0</ele>
        <time>2019-08-04T14:12:52.301Z</time>
      </trkpt>
      <trkpt lat="42.53162833" lon="1.60637833">
        <ele>1718.0</ele>
        <time>2019-08-04T14:12:53.329Z</time>
      </trkpt>
      <trkpt lat="42.53162833" lon="1.60637833">
        <ele>1718.0</ele>
        <time>2019-08-04T14:12:54.320Z</time>
      </trkpt>
      <trkpt lat="42.531605" lon="1.606415">
        <ele>1718.0</ele>
        <time>2019-08-04T14:12:55.301Z</time>
      </trkpt>
      <trkpt lat="42.53159333" lon="1.60643167">
        <ele>1718.0</ele>
        <time>2019-08-04T14:12:56.329Z</time>
      </trkpt>
      <trkpt lat="42.531585" lon="1.60645">
        <ele>1718.0</ele>
        <time>2019-08-04T14:12:57.304Z</time>
      </trkpt>
      <trkpt lat="42.531585" lon="1.60645">
        <ele>1718.0</ele>
        <time>2019-08-04T14:12:58.322Z</time>
      </trkpt>
      <trkpt lat="42.531585" lon="1.60645">
        <ele>1718.0</ele>
        <time>2019-08-04T14:12:59.303Z</time>
      </trkpt>
      <trkpt lat="42.53156333" lon="1.60648333">
        <ele>1718.0</ele>
        <time>2019-08-04T14:13:00.324Z</time>
      </trkpt>
      <trkpt lat="42.53153833" lon="1.60651167">
        <ele>1719.0</ele>
        <time>2019-08-04T14:13:01.304Z</time>
      </trkpt>
      <trkpt lat="42.53153833" lon="1.60651167">
        <ele>1719.0</ele>
        <time>2019-08-04T14:13:02.307Z</time>
      </trkpt>
      <trkpt lat="42.531515" lon="1.60654333">
        <ele>1719.0</ele>
        <time>2019-08-04T14:13:03.332Z</time>
      </trkpt>
      <trkpt lat="42.531515" lon="1.60654333">
        <ele>1719.0</ele>
        <time>2019-08-04T14:13:04.297Z</time>
      </trkpt>
      <trkpt lat="42.53149167" lon="1.606575">
        <ele>1719.0</ele>
        <time>2019-08-04T14:13:05.326Z</time>
      </trkpt>
      <trkpt lat="42.53149167" lon="1.606575">
        <ele>1719.0</ele>
        <time>2019-08-04T14:13:06.302Z</time>
      </trkpt>
      <trkpt lat="42.53147167" lon="1.60660833">
        <ele>1720.0</ele>
        <time>2019-08-04T14:13:07.327Z</time>
      </trkpt>
      <trkpt lat="42.53147167" lon="1.60660833">
        <ele>1720.0</ele>
        <time>2019-08-04T14:13:08.512Z</time>
      </trkpt>
      <trkpt lat="42.53145" lon="1.60664333">
        <ele>1720.0</ele>
        <time>2019-08-04T14:13:09.330Z</time>
      </trkpt>
      <trkpt lat="42.53145" lon="1.60664333">
        <ele>1720.0</ele>
        <time>2019-08-04T14:13:10.325Z</time>
      </trkpt>
      <trkpt lat="42.53143" lon="1.60667833">
        <ele>1720.0</ele>
        <time>2019-08-04T14:13:11.330Z</time>
      </trkpt>
      <trkpt lat="42.53143" lon="1.60667833">
        <ele>1720.0</ele>
        <time>2019-08-04T14:13:12.321Z</time>
      </trkpt>
      <trkpt lat="42.53140833" lon="1.606715">
        <ele>1720.0</ele>
        <time>2019-08-04T14:13:13.302Z</time>
      </trkpt>
      <trkpt lat="42.5314" lon="1.606735">
        <ele>1720.0</ele>
        <time>2019-08-04T14:13:14.329Z</time>
      </trkpt>
      <trkpt lat="42.53139167" lon="1.60675333">
        <ele>1720.0</ele>
        <time>2019-08-04T14:13:15.305Z</time>
      </trkpt>
      <trkpt lat="42.53139167" lon="1.60675333">
        <ele>1720.0</ele>
        <time>2019-08-04T14:13:16.323Z</time>
      </trkpt>
      <trkpt lat="42.53137167" lon="1.60679167">
        <ele>1721.0</ele>
        <time>2019-08-04T14:13:17.303Z</time>
      </trkpt>
      <trkpt lat="42.53137167" lon="1.60679167">
        <ele>1721.0</ele>
        <time>2019-08-04T14:13:18.324Z</time>
      </trkpt>
      <trkpt lat="42.53134833" lon="1.606825">
        <ele>1721.0</ele>
        <time>2019-08-04T14:13:19.309Z</time>
      </trkpt>
      <trkpt lat="42.53134833" lon="1.606825">
        <ele>1721.0</ele>
        <time>2019-08-04T14:13:20.326Z</time>
      </trkpt>
      <trkpt lat="42.531325" lon="1.60685833">
        <ele>1721.0</ele>
        <time>2019-08-04T14:13:21.341Z</time>
      </trkpt>
      <trkpt lat="42.531325" lon="1.60685833">
        <ele>1721.0</ele>
        <time>2019-08-04T14:13:22.326Z</time>
      </trkpt>
      <trkpt lat="42.53129833" lon="1.60689167">
        <ele>1721.0</ele>
        <time>2019-08-04T14:13:23.326Z</time>
      </trkpt>
      <trkpt lat="42.53129833" lon="1.60689167">
        <ele>1721.0</ele>
        <time>2019-08-04T14:13:24.303Z</time>
      </trkpt>
      <trkpt lat="42.53127167" lon="1.60692667">
        <ele>1722.0</ele>
        <time>2019-08-04T14:13:25.298Z</time>
      </trkpt>
      <trkpt lat="42.53127167" lon="1.60692667">
        <ele>1722.0</ele>
        <time>2019-08-04T14:13:26.325Z</time>
      </trkpt>
      <trkpt lat="42.531245" lon="1.60695667">
        <ele>1722.0</ele>
        <time>2019-08-04T14:13:27.305Z</time>
      </trkpt>
      <trkpt lat="42.531245" lon="1.60695667">
        <ele>1722.0</ele>
        <time>2019-08-04T14:13:28.326Z</time>
      </trkpt>
      <trkpt lat="42.531215" lon="1.60698333">
        <ele>1722.0</ele>
        <time>2019-08-04T14:13:29.315Z</time>
      </trkpt>
      <trkpt lat="42.5312" lon="1.606995">
        <ele>1722.0</ele>
        <time>2019-08-04T14:13:30.335Z</time>
      </trkpt>
      <trkpt lat="42.5312" lon="1.606995">
        <ele>1722.0</ele>
        <time>2019-08-04T14:13:31.301Z</time>
      </trkpt>
      <trkpt lat="42.53116667" lon="1.607015">
        <ele>1723.0</ele>
        <time>2019-08-04T14:13:32.329Z</time>
      </trkpt>
      <trkpt lat="42.53115" lon="1.60702167">
        <ele>1723.0</ele>
        <time>2019-08-04T14:13:33.304Z</time>
      </trkpt>
      <trkpt lat="42.53115" lon="1.60702167">
        <ele>1723.0</ele>
        <time>2019-08-04T14:13:34.323Z</time>
      </trkpt>
      <trkpt lat="42.531115" lon="1.60703833">
        <ele>1723.0</ele>
        <time>2019-08-04T14:13:35.329Z</time>
      </trkpt>
      <trkpt lat="42.531115" lon="1.60703833">
        <ele>1723.0</ele>
        <time>2019-08-04T14:13:36.305Z</time>
      </trkpt>
      <trkpt lat="42.53108167" lon="1.60705833">
        <ele>1723.0</ele>
        <time>2019-08-04T14:13:37.329Z</time>
      </trkpt>
      <trkpt lat="42.53108167" lon="1.60705833">
        <ele>1723.0</ele>
        <time>2019-08-04T14:13:38.326Z</time>
      </trkpt>
      <trkpt lat="42.53108167" lon="1.60705833">
        <ele>1723.0</ele>
        <time>2019-08-04T14:13:39.301Z</time>
      </trkpt>
      <trkpt lat="42.53105" lon="1.607075">
        <ele>1724.0</ele>
        <time>2019-08-04T14:13:40.327Z</time>
      </trkpt>
      <trkpt lat="42.53101667" lon="1.60708833">
        <ele>1724.0</ele>
        <time>2019-08-04T14:13:41.342Z</time>
      </trkpt>
      <trkpt lat="42.53101667" lon="1.60708833">
        <ele>1724.0</ele>
        <time>2019-08-04T14:13:42.325Z</time>
      </trkpt>
      <trkpt lat="42.530985" lon="1.60710333">
        <ele>1724.0</ele>
        <time>2019-08-04T14:13:43.329Z</time>
      </trkpt>
      <trkpt lat="42.53097" lon="1.60711333">
        <ele>1724.0</ele>
        <time>2019-08-04T14:13:44.308Z</time>
      </trkpt>
      <trkpt lat="42.53097" lon="1.60711333">
        <ele>1724.0</ele>
        <time>2019-08-04T14:13:45.328Z</time>
      </trkpt>
      <trkpt lat="42.53093833" lon="1.60712667">
        <ele>1724.0</ele>
        <time>2019-08-04T14:13:46.329Z</time>
      </trkpt>
      <trkpt lat="42.530925" lon="1.607135">
        <ele>1725.0</ele>
        <time>2019-08-04T14:13:47.305Z</time>
      </trkpt>
      <trkpt lat="42.530925" lon="1.607135">
        <ele>1725.0</ele>
        <time>2019-08-04T14:13:48.326Z</time>
      </trkpt>
      <trkpt lat="42.530895" lon="1.60715667">
        <ele>1725.0</ele>
        <time>2019-08-04T14:13:49.309Z</time>
      </trkpt>
      <trkpt lat="42.53088" lon="1.60716333">
        <ele>1725.0</ele>
        <time>2019-08-04T14:13:50.332Z</time>
      </trkpt>
      <trkpt lat="42.530865" lon="1.60717167">
        <ele>1725.0</ele>
        <time>2019-08-04T14:13:51.330Z</time>
      </trkpt>
      <trkpt lat="42.530865" lon="1.60717167">
        <ele>1725.0</ele>
        <time>2019-08-04T14:13:52.326Z</time>
      </trkpt>
      <trkpt lat="42.530835" lon="1.60718167">
        <ele>1725.0</ele>
        <time>2019-08-04T14:13:53.326Z</time>
      </trkpt>
      <trkpt lat="42.530835" lon="1.60718167">
        <ele>1725.0</ele>
        <time>2019-08-04T14:13:54.312Z</time>
      </trkpt>
      <trkpt lat="42.53080667" lon="1.60719667">
        <ele>1725.0</ele>
        <time>2019-08-04T14:13:55.298Z</time>
      </trkpt>
      <trkpt lat="42.53080667" lon="1.60719667">
        <ele>1725.0</ele>
        <time>2019-08-04T14:13:56.326Z</time>
      </trkpt>
      <trkpt lat="42.53078" lon="1.60721333">
        <ele>1726.0</ele>
        <time>2019-08-04T14:13:57.330Z</time>
      </trkpt>
      <trkpt lat="42.53078" lon="1.60721333">
        <ele>1726.0</ele>
        <time>2019-08-04T14:13:58.325Z</time>
      </trkpt>
      <trkpt lat="42.53075333" lon="1.60723">
        <ele>1726.0</ele>
        <time>2019-08-04T14:13:59.331Z</time>
      </trkpt>
      <trkpt lat="42.53075333" lon="1.60723">
        <ele>1726.0</ele>
        <time>2019-08-04T14:14:00.326Z</time>
      </trkpt>
      <trkpt lat="42.53072833" lon="1.607245">
        <ele>1726.0</ele>
        <time>2019-08-04T14:14:01.329Z</time>
      </trkpt>
      <trkpt lat="42.53072833" lon="1.607245">
        <ele>1726.0</ele>
        <time>2019-08-04T14:14:02.326Z</time>
      </trkpt>
      <trkpt lat="42.5307" lon="1.607255">
        <ele>1726.0</ele>
        <time>2019-08-04T14:14:03.306Z</time>
      </trkpt>
      <trkpt lat="42.5307" lon="1.607255">
        <ele>1726.0</ele>
        <time>2019-08-04T14:14:04.324Z</time>
      </trkpt>
      <trkpt lat="42.530675" lon="1.60726667">
        <ele>1726.0</ele>
        <time>2019-08-04T14:14:05.330Z</time>
      </trkpt>
      <trkpt lat="42.53066333" lon="1.60727333">
        <ele>1727.0</ele>
        <time>2019-08-04T14:14:06.329Z</time>
      </trkpt>
      <trkpt lat="42.53066333" lon="1.60727333">
        <ele>1727.0</ele>
        <time>2019-08-04T14:14:07.304Z</time>
      </trkpt>
      <trkpt lat="42.53064" lon="1.607285">
        <ele>1727.0</ele>
        <time>2019-08-04T14:14:08.329Z</time>
      </trkpt>
      <trkpt lat="42.53064" lon="1.607285">
        <ele>1727.0</ele>
        <time>2019-08-04T14:14:09.305Z</time>
      </trkpt>
      <trkpt lat="42.53061" lon="1.60729333">
        <ele>1727.0</ele>
        <time>2019-08-04T14:14:10.336Z</time>
      </trkpt>
      <trkpt lat="42.53061" lon="1.60729333">
        <ele>1727.0</ele>
        <time>2019-08-04T14:14:11.543Z</time>
      </trkpt>
      <trkpt lat="42.530595" lon="1.60730167">
        <ele>1727.0</ele>
        <time>2019-08-04T14:14:12.334Z</time>
      </trkpt>
      <trkpt lat="42.53056833" lon="1.60732333">
        <ele>1727.0</ele>
        <time>2019-08-04T14:14:13.330Z</time>
      </trkpt>
      <trkpt lat="42.53056833" lon="1.60732333">
        <ele>1727.0</ele>
        <time>2019-08-04T14:14:14.308Z</time>
      </trkpt>
      <trkpt lat="42.53053833" lon="1.60734">
        <ele>1728.0</ele>
        <time>2019-08-04T14:14:15.329Z</time>
      </trkpt>
      <trkpt lat="42.53053833" lon="1.60734">
        <ele>1728.0</ele>
        <time>2019-08-04T14:14:16.323Z</time>
      </trkpt>
      <trkpt lat="42.53051333" lon="1.60736">
        <ele>1728.0</ele>
        <time>2019-08-04T14:14:17.305Z</time>
      </trkpt>
      <trkpt lat="42.53051333" lon="1.60736">
        <ele>1728.0</ele>
        <time>2019-08-04T14:14:18.326Z</time>
      </trkpt>
      <trkpt lat="42.53049167" lon="1.60737">
        <ele>1729.0</ele>
        <time>2019-08-04T14:14:19.330Z</time>
      </trkpt>
      <trkpt lat="42.53049167" lon="1.60737">
        <ele>1729.0</ele>
        <time>2019-08-04T14:14:20.326Z</time>
      </trkpt>
      <trkpt lat="42.530475" lon="1.60738">
        <ele>1729.0</ele>
        <time>2019-08-04T14:14:21.331Z</time>
      </trkpt>
      <trkpt lat="42.530475" lon="1.60738">
        <ele>1729.0</ele>
        <time>2019-08-04T14:14:22.327Z</time>
      </trkpt>
      <trkpt lat="42.530455" lon="1.60739">
        <ele>1729.0</ele>
        <time>2019-08-04T14:14:23.329Z</time>
      </trkpt>
      <trkpt lat="42.530455" lon="1.60739">
        <ele>1729.0</ele>
        <time>2019-08-04T14:14:24.305Z</time>
      </trkpt>
      <trkpt lat="42.53043167" lon="1.6074">
        <ele>1730.0</ele>
        <time>2019-08-04T14:14:25.329Z</time>
      </trkpt>
      <trkpt lat="42.53043167" lon="1.6074">
        <ele>1730.0</ele>
        <time>2019-08-04T14:14:26.305Z</time>
      </trkpt>
      <trkpt lat="42.53040833" lon="1.60741333">
        <ele>1730.0</ele>
        <time>2019-08-04T14:14:27.330Z</time>
      </trkpt>
      <trkpt lat="42.53040833" lon="1.60741333">
        <ele>1730.0</ele>
        <time>2019-08-04T14:14:28.326Z</time>
      </trkpt>
      <trkpt lat="42.53038667" lon="1.60742833">
        <ele>1730.0</ele>
        <time>2019-08-04T14:14:29.300Z</time>
      </trkpt>
      <trkpt lat="42.530375" lon="1.607435">
        <ele>1730.0</ele>
        <time>2019-08-04T14:14:30.306Z</time>
      </trkpt>
      <trkpt lat="42.53036333" lon="1.60744167">
        <ele>1730.0</ele>
        <time>2019-08-04T14:14:31.328Z</time>
      </trkpt>
      <trkpt lat="42.53035167" lon="1.60744667">
        <ele>1730.0</ele>
        <time>2019-08-04T14:14:32.303Z</time>
      </trkpt>
      <trkpt lat="42.53034167" lon="1.60745">
        <ele>1730.0</ele>
        <time>2019-08-04T14:14:33.330Z</time>
      </trkpt>
      <trkpt lat="42.53034167" lon="1.60745">
        <ele>1730.0</ele>
        <time>2019-08-04T14:14:34.309Z</time>
      </trkpt>
      <trkpt lat="42.53034167" lon="1.60745">
        <ele>1730.0</ele>
        <time>2019-08-04T14:14:35.330Z</time>
      </trkpt>
      <trkpt lat="42.53031833" lon="1.60746167">
        <ele>1730.0</ele>
        <time>2019-08-04T14:14:36.327Z</time>
      </trkpt>
      <trkpt lat="42.53029833" lon="1.60747333">
        <ele>1731.0</ele>
        <time>2019-08-04T14:14:37.329Z</time>
      </trkpt>
      <trkpt lat="42.53029833" lon="1.60747333">
        <ele>1731.0</ele>
        <time>2019-08-04T14:14:38.305Z</time>
      </trkpt>
      <trkpt lat="42.53028" lon="1.60748667">
        <ele>1731.0</ele>
        <time>2019-08-04T14:14:39.331Z</time>
      </trkpt>
      <trkpt lat="42.53028" lon="1.60748667">
        <ele>1731.0</ele>
        <time>2019-08-04T14:14:40.308Z</time>
      </trkpt>
      <trkpt lat="42.53026" lon="1.60749833">
        <ele>1731.0</ele>
        <time>2019-08-04T14:14:41.329Z</time>
      </trkpt>
      <trkpt lat="42.53026" lon="1.60749833">
        <ele>1731.0</ele>
        <time>2019-08-04T14:14:42.327Z</time>
      </trkpt>
      <trkpt lat="42.53023833" lon="1.607515">
        <ele>1732.0</ele>
        <time>2019-08-04T14:14:43.329Z</time>
      </trkpt>
      <trkpt lat="42.53023833" lon="1.607515">
        <ele>1732.0</ele>
        <time>2019-08-04T14:14:44.305Z</time>
      </trkpt>
      <trkpt lat="42.53021667" lon="1.60753">
        <ele>1732.0</ele>
        <time>2019-08-04T14:14:45.331Z</time>
      </trkpt>
      <trkpt lat="42.53021667" lon="1.60753">
        <ele>1732.0</ele>
        <time>2019-08-04T14:14:46.317Z</time>
      </trkpt>
      <trkpt lat="42.53019167" lon="1.607545">
        <ele>1732.0</ele>
        <time>2019-08-04T14:14:47.298Z</time>
      </trkpt>
      <trkpt lat="42.53019167" lon="1.607545">
        <ele>1732.0</ele>
        <time>2019-08-04T14:14:48.327Z</time>
      </trkpt>
      <trkpt lat="42.53017167" lon="1.60756667">
        <ele>1732.0</ele>
        <time>2019-08-04T14:14:49.329Z</time>
      </trkpt>
      <trkpt lat="42.53017167" lon="1.60756667">
        <ele>1732.0</ele>
        <time>2019-08-04T14:14:50.305Z</time>
      </trkpt>
      <trkpt lat="42.53017167" lon="1.60756667">
        <ele>1732.0</ele>
        <time>2019-08-04T14:14:51.301Z</time>
      </trkpt>
      <trkpt lat="42.530155" lon="1.60759">
        <ele>1732.0</ele>
        <time>2019-08-04T14:14:52.327Z</time>
      </trkpt>
      <trkpt lat="42.53013833" lon="1.60761333">
        <ele>1732.0</ele>
        <time>2019-08-04T14:14:53.327Z</time>
      </trkpt>
      <trkpt lat="42.53013833" lon="1.60761333">
        <ele>1732.0</ele>
        <time>2019-08-04T14:14:54.303Z</time>
      </trkpt>
      <trkpt lat="42.53012" lon="1.60762833">
        <ele>1733.0</ele>
        <time>2019-08-04T14:14:55.329Z</time>
      </trkpt>
      <trkpt lat="42.53011" lon="1.60763333">
        <ele>1733.0</ele>
        <time>2019-08-04T14:14:56.305Z</time>
      </trkpt>
      <trkpt lat="42.53011" lon="1.60763333">
        <ele>1733.0</ele>
        <time>2019-08-04T14:14:57.327Z</time>
      </trkpt>
      <trkpt lat="42.53008833" lon="1.60764">
        <ele>1733.0</ele>
        <time>2019-08-04T14:14:58.330Z</time>
      </trkpt>
      <trkpt lat="42.53008833" lon="1.60764">
        <ele>1733.0</ele>
        <time>2019-08-04T14:14:59.309Z</time>
      </trkpt>
      <trkpt lat="42.53006333" lon="1.60764333">
        <ele>1733.0</ele>
        <time>2019-08-04T14:15:00.330Z</time>
      </trkpt>
      <trkpt lat="42.53005" lon="1.60765">
        <ele>1734.0</ele>
        <time>2019-08-04T14:15:01.329Z</time>
      </trkpt>
      <trkpt lat="42.53005" lon="1.60765">
        <ele>1734.0</ele>
        <time>2019-08-04T14:15:02.304Z</time>
      </trkpt>
      <trkpt lat="42.530035" lon="1.60767333">
        <ele>1734.0</ele>
        <time>2019-08-04T14:15:03.330Z</time>
      </trkpt>
      <trkpt lat="42.530035" lon="1.60767333">
        <ele>1734.0</ele>
        <time>2019-08-04T14:15:04.305Z</time>
      </trkpt>
      <trkpt lat="42.53002333" lon="1.60769833">
        <ele>1734.0</ele>
        <time>2019-08-04T14:15:05.326Z</time>
      </trkpt>
      <trkpt lat="42.53002333" lon="1.60769833">
        <ele>1734.0</ele>
        <time>2019-08-04T14:15:06.302Z</time>
      </trkpt>
      <trkpt lat="42.530015" lon="1.60772833">
        <ele>1735.0</ele>
        <time>2019-08-04T14:15:07.329Z</time>
      </trkpt>
      <trkpt lat="42.530015" lon="1.60772833">
        <ele>1735.0</ele>
        <time>2019-08-04T14:15:08.305Z</time>
      </trkpt>
      <trkpt lat="42.53001333" lon="1.607765">
        <ele>1735.0</ele>
        <time>2019-08-04T14:15:09.331Z</time>
      </trkpt>
      <trkpt lat="42.53001333" lon="1.607765">
        <ele>1735.0</ele>
        <time>2019-08-04T14:15:10.327Z</time>
      </trkpt>
      <trkpt lat="42.53002" lon="1.60781">
        <ele>1735.0</ele>
        <time>2019-08-04T14:15:11.326Z</time>
      </trkpt>
      <trkpt lat="42.53002" lon="1.60781">
        <ele>1735.0</ele>
        <time>2019-08-04T14:15:12.325Z</time>
      </trkpt>
      <trkpt lat="42.53003667" lon="1.607845">
        <ele>1736.0</ele>
        <time>2019-08-04T14:15:13.305Z</time>
      </trkpt>
      <trkpt lat="42.53003667" lon="1.607845">
        <ele>1736.0</ele>
        <time>2019-08-04T14:15:14.327Z</time>
      </trkpt>
      <trkpt lat="42.53003667" lon="1.607845">
        <ele>1736.0</ele>
        <time>2019-08-04T14:15:15.512Z</time>
      </trkpt>
      <trkpt lat="42.53006" lon="1.607875">
        <ele>1736.0</ele>
        <time>2019-08-04T14:15:16.328Z</time>
      </trkpt>
      <trkpt lat="42.53008" lon="1.607905">
        <ele>1737.0</ele>
        <time>2019-08-04T14:15:17.329Z</time>
      </trkpt>
      <trkpt lat="42.53009333" lon="1.607915">
        <ele>1737.0</ele>
        <time>2019-08-04T14:15:18.305Z</time>
      </trkpt>
      <trkpt lat="42.530105" lon="1.60792167">
        <ele>1737.0</ele>
        <time>2019-08-04T14:15:19.330Z</time>
      </trkpt>
      <trkpt lat="42.530105" lon="1.60792167">
        <ele>1737.0</ele>
        <time>2019-08-04T14:15:20.326Z</time>
      </trkpt>
      <trkpt lat="42.530135" lon="1.60793167">
        <ele>1737.0</ele>
        <time>2019-08-04T14:15:21.331Z</time>
      </trkpt>
      <trkpt lat="42.530135" lon="1.60793167">
        <ele>1737.0</ele>
        <time>2019-08-04T14:15:22.328Z</time>
      </trkpt>
      <trkpt lat="42.530165" lon="1.607935">
        <ele>1737.0</ele>
        <time>2019-08-04T14:15:23.327Z</time>
      </trkpt>
      <trkpt lat="42.530165" lon="1.607935">
        <ele>1737.0</ele>
        <time>2019-08-04T14:15:24.304Z</time>
      </trkpt>
      <trkpt lat="42.5302" lon="1.60792">
        <ele>1736.0</ele>
        <time>2019-08-04T14:15:25.329Z</time>
      </trkpt>
      <trkpt lat="42.5302" lon="1.60792">
        <ele>1736.0</ele>
        <time>2019-08-04T14:15:26.305Z</time>
      </trkpt>
      <trkpt lat="42.530215" lon="1.60786667">
        <ele>1736.0</ele>
        <time>2019-08-04T14:15:27.330Z</time>
      </trkpt>
      <trkpt lat="42.530215" lon="1.60786667">
        <ele>1736.0</ele>
        <time>2019-08-04T14:15:28.312Z</time>
      </trkpt>
      <trkpt lat="42.53015333" lon="1.60784333">
        <ele>1735.0</ele>
        <time>2019-08-04T14:15:29.312Z</time>
      </trkpt>
      <trkpt lat="42.53011833" lon="1.607825">
        <ele>1735.0</ele>
        <time>2019-08-04T14:15:30.327Z</time>
      </trkpt>
      <trkpt lat="42.53011833" lon="1.607825">
        <ele>1735.0</ele>
        <time>2019-08-04T14:15:31.301Z</time>
      </trkpt>
      <trkpt lat="42.530095" lon="1.60773">
        <ele>1734.0</ele>
        <time>2019-08-04T14:15:32.297Z</time>
      </trkpt>
      <trkpt lat="42.53012" lon="1.60768833">
        <ele>1733.0</ele>
        <time>2019-08-04T14:15:33.331Z</time>
      </trkpt>
      <trkpt lat="42.53012" lon="1.60768833">
        <ele>1733.0</ele>
        <time>2019-08-04T14:15:34.297Z</time>
      </trkpt>
      <trkpt lat="42.53017" lon="1.607625">
        <ele>1733.0</ele>
        <time>2019-08-04T14:15:35.338Z</time>
      </trkpt>
      <trkpt lat="42.53017667" lon="1.6076">
        <ele>1732.0</ele>
        <time>2019-08-04T14:15:36.331Z</time>
      </trkpt>
      <trkpt lat="42.53017667" lon="1.6076">
        <ele>1732.0</ele>
        <time>2019-08-04T14:15:37.328Z</time>
      </trkpt>
      <trkpt lat="42.53017667" lon="1.6076">
        <ele>1732.0</ele>
        <time>2019-08-04T14:15:38.329Z</time>
      </trkpt>
      <trkpt lat="42.53017667" lon="1.607585">
        <ele>1732.0</ele>
        <time>2019-08-04T14:15:39.334Z</time>
      </trkpt>
      <trkpt lat="42.53017667" lon="1.607585">
        <ele>1732.0</ele>
        <time>2019-08-04T14:15:40.318Z</time>
      </trkpt>
      <trkpt lat="42.53017667" lon="1.607585">
        <ele>1732.0</ele>
        <time>2019-08-04T14:15:41.321Z</time>
      </trkpt>
      <trkpt lat="42.53017667" lon="1.607585">
        <ele>1732.0</ele>
        <time>2019-08-04T14:15:42.316Z</time>
      </trkpt>
      <trkpt lat="42.53017667" lon="1.607585">
        <ele>1732.0</ele>
        <time>2019-08-04T14:15:43.308Z</time>
      </trkpt>
      <trkpt lat="42.53012" lon="1.60762">
        <ele>1737.0</ele>
        <time>2019-08-04T14:15:44.309Z</time>
      </trkpt>
      <trkpt lat="42.53012" lon="1.60762">
        <ele>1737.0</ele>
        <time>2019-08-04T14:15:45.331Z</time>
      </trkpt>
      <trkpt lat="42.530115" lon="1.607625">
        <ele>1737.0</ele>
        <time>2019-08-04T14:15:46.312Z</time>
      </trkpt>
      <trkpt lat="42.530115" lon="1.607625">
        <ele>1737.0</ele>
        <time>2019-08-04T14:15:47.337Z</time>
      </trkpt>
      <trkpt lat="42.53007667" lon="1.60766333">
        <ele>1737.0</ele>
        <time>2019-08-04T14:15:48.330Z</time>
      </trkpt>
      <trkpt lat="42.53007667" lon="1.60766333">
        <ele>1737.0</ele>
        <time>2019-08-04T14:15:49.317Z</time>
      </trkpt>
      <trkpt lat="42.530055" lon="1.60770667">
        <ele>1738.0</ele>
        <time>2019-08-04T14:15:50.320Z</time>
      </trkpt>
      <trkpt lat="42.530055" lon="1.60770667">
        <ele>1738.0</ele>
        <time>2019-08-04T14:15:51.318Z</time>
      </trkpt>
      <trkpt lat="42.53005333" lon="1.60775833">
        <ele>1738.0</ele>
        <time>2019-08-04T14:15:52.320Z</time>
      </trkpt>
      <trkpt lat="42.53005667" lon="1.607785">
        <ele>1738.0</ele>
        <time>2019-08-04T14:15:53.317Z</time>
      </trkpt>
      <trkpt lat="42.53005667" lon="1.607785">
        <ele>1738.0</ele>
        <time>2019-08-04T14:15:54.334Z</time>
      </trkpt>
      <trkpt lat="42.53007" lon="1.60783667">
        <ele>1738.0</ele>
        <time>2019-08-04T14:15:55.316Z</time>
      </trkpt>
      <trkpt lat="42.53008333" lon="1.60786167">
        <ele>1738.0</ele>
        <time>2019-08-04T14:15:56.332Z</time>
      </trkpt>
      <trkpt lat="42.53008333" lon="1.60786167">
        <ele>1738.0</ele>
        <time>2019-08-04T14:15:57.315Z</time>
      </trkpt>
      <trkpt lat="42.53012333" lon="1.6079">
        <ele>1739.0</ele>
        <time>2019-08-04T14:15:58.335Z</time>
      </trkpt>
      <trkpt lat="42.53012333" lon="1.6079">
        <ele>1739.0</ele>
        <time>2019-08-04T14:15:59.317Z</time>
      </trkpt>
      <trkpt lat="42.53017167" lon="1.60791333">
        <ele>1739.0</ele>
        <time>2019-08-04T14:16:00.318Z</time>
      </trkpt>
      <trkpt lat="42.53017167" lon="1.60791333">
        <ele>1739.0</ele>
        <time>2019-08-04T14:16:01.298Z</time>
      </trkpt>
      <trkpt lat="42.53021667" lon="1.60791">
        <ele>1739.0</ele>
        <time>2019-08-04T14:16:02.320Z</time>
      </trkpt>
      <trkpt lat="42.53023833" lon="1.607905">
        <ele>1740.0</ele>
        <time>2019-08-04T14:16:03.320Z</time>
      </trkpt>
      <trkpt lat="42.53023833" lon="1.607905">
        <ele>1740.0</ele>
        <time>2019-08-04T14:16:04.317Z</time>
      </trkpt>
      <trkpt lat="42.53028333" lon="1.60789">
        <ele>1740.0</ele>
        <time>2019-08-04T14:16:05.332Z</time>
      </trkpt>
      <trkpt lat="42.530305" lon="1.60788333">
        <ele>1740.0</ele>
        <time>2019-08-04T14:16:06.321Z</time>
      </trkpt>
      <trkpt lat="42.530305" lon="1.60788333">
        <ele>1740.0</ele>
        <time>2019-08-04T14:16:07.299Z</time>
      </trkpt>
      <trkpt lat="42.53034667" lon="1.60786333">
        <ele>1741.0</ele>
        <time>2019-08-04T14:16:08.317Z</time>
      </trkpt>
      <trkpt lat="42.53034667" lon="1.60786333">
        <ele>1741.0</ele>
        <time>2019-08-04T14:16:09.334Z</time>
      </trkpt>
      <trkpt lat="42.53038833" lon="1.60785167">
        <ele>1741.0</ele>
        <time>2019-08-04T14:16:10.317Z</time>
      </trkpt>
      <trkpt lat="42.53038833" lon="1.60785167">
        <ele>1741.0</ele>
        <time>2019-08-04T14:16:11.462Z</time>
      </trkpt>
      <trkpt lat="42.53043" lon="1.607845">
        <ele>1742.0</ele>
        <time>2019-08-04T14:16:12.321Z</time>
      </trkpt>
      <trkpt lat="42.53043" lon="1.607845">
        <ele>1742.0</ele>
        <time>2019-08-04T14:16:13.316Z</time>
      </trkpt>
      <trkpt lat="42.53046833" lon="1.60783667">
        <ele>1743.0</ele>
        <time>2019-08-04T14:16:14.320Z</time>
      </trkpt>
      <trkpt lat="42.53046833" lon="1.60783667">
        <ele>1743.0</ele>
        <time>2019-08-04T14:16:15.298Z</time>
      </trkpt>
      <trkpt lat="42.530505" lon="1.60782833">
        <ele>1743.0</ele>
        <time>2019-08-04T14:16:16.320Z</time>
      </trkpt>
      <trkpt lat="42.530505" lon="1.60782833">
        <ele>1743.0</ele>
        <time>2019-08-04T14:16:17.317Z</time>
      </trkpt>
      <trkpt lat="42.53054" lon="1.60782333">
        <ele>1744.0</ele>
        <time>2019-08-04T14:16:18.323Z</time>
      </trkpt>
      <trkpt lat="42.53054" lon="1.60782333">
        <ele>1744.0</ele>
        <time>2019-08-04T14:16:19.317Z</time>
      </trkpt>
      <trkpt lat="42.53057667" lon="1.60782667">
        <ele>1744.0</ele>
        <time>2019-08-04T14:16:20.321Z</time>
      </trkpt>
      <trkpt lat="42.53057667" lon="1.60782667">
        <ele>1744.0</ele>
        <time>2019-08-04T14:16:21.318Z</time>
      </trkpt>
      <trkpt lat="42.53061" lon="1.60782667">
        <ele>1745.0</ele>
        <time>2019-08-04T14:16:22.317Z</time>
      </trkpt>
      <trkpt lat="42.53061" lon="1.60782667">
        <ele>1745.0</ele>
        <time>2019-08-04T14:16:23.334Z</time>
      </trkpt>
      <trkpt lat="42.53064667" lon="1.60783167">
        <ele>1745.0</ele>
        <time>2019-08-04T14:16:24.334Z</time>
      </trkpt>
      <trkpt lat="42.53064667" lon="1.60783167">
        <ele>1745.0</ele>
        <time>2019-08-04T14:16:25.309Z</time>
      </trkpt>
      <trkpt lat="42.53068333" lon="1.60783833">
        <ele>1746.0</ele>
        <time>2019-08-04T14:16:26.331Z</time>
      </trkpt>
      <trkpt lat="42.53068333" lon="1.60783833">
        <ele>1746.0</ele>
        <time>2019-08-04T14:16:27.317Z</time>
      </trkpt>
      <trkpt lat="42.53071833" lon="1.60784">
        <ele>1746.0</ele>
        <time>2019-08-04T14:16:28.319Z</time>
      </trkpt>
      <trkpt lat="42.53071833" lon="1.60784">
        <ele>1746.0</ele>
        <time>2019-08-04T14:16:29.327Z</time>
      </trkpt>
      <trkpt lat="42.53075333" lon="1.60784333">
        <ele>1747.0</ele>
        <time>2019-08-04T14:16:30.322Z</time>
      </trkpt>
      <trkpt lat="42.53077167" lon="1.607845">
        <ele>1747.0</ele>
        <time>2019-08-04T14:16:31.329Z</time>
      </trkpt>
      <trkpt lat="42.53077167" lon="1.607845">
        <ele>1747.0</ele>
        <time>2019-08-04T14:16:32.335Z</time>
      </trkpt>
      <trkpt lat="42.53080667" lon="1.60785">
        <ele>1747.0</ele>
        <time>2019-08-04T14:16:33.310Z</time>
      </trkpt>
      <trkpt lat="42.530825" lon="1.60785333">
        <ele>1748.0</ele>
        <time>2019-08-04T14:16:34.333Z</time>
      </trkpt>
      <trkpt lat="42.530825" lon="1.60785333">
        <ele>1748.0</ele>
        <time>2019-08-04T14:16:35.319Z</time>
      </trkpt>
      <trkpt lat="42.53086" lon="1.607865">
        <ele>1748.0</ele>
        <time>2019-08-04T14:16:36.323Z</time>
      </trkpt>
      <trkpt lat="42.53086" lon="1.607865">
        <ele>1748.0</ele>
        <time>2019-08-04T14:16:37.315Z</time>
      </trkpt>
      <trkpt lat="42.53089333" lon="1.60788">
        <ele>1748.0</ele>
        <time>2019-08-04T14:16:38.335Z</time>
      </trkpt>
      <trkpt lat="42.53089333" lon="1.60788">
        <ele>1748.0</ele>
        <time>2019-08-04T14:16:39.319Z</time>
      </trkpt>
      <trkpt lat="42.53092833" lon="1.60788833">
        <ele>1749.0</ele>
        <time>2019-08-04T14:16:40.318Z</time>
      </trkpt>
      <trkpt lat="42.53092833" lon="1.60788833">
        <ele>1749.0</ele>
        <time>2019-08-04T14:16:41.334Z</time>
      </trkpt>
      <trkpt lat="42.53096167" lon="1.60789833">
        <ele>1749.0</ele>
        <time>2019-08-04T14:16:42.319Z</time>
      </trkpt>
      <trkpt lat="42.53096167" lon="1.60789833">
        <ele>1749.0</ele>
        <time>2019-08-04T14:16:43.296Z</time>
      </trkpt>
      <trkpt lat="42.530995" lon="1.60790833">
        <ele>1750.0</ele>
        <time>2019-08-04T14:16:44.320Z</time>
      </trkpt>
      <trkpt lat="42.53101" lon="1.607915">
        <ele>1750.0</ele>
        <time>2019-08-04T14:16:45.336Z</time>
      </trkpt>
      <trkpt lat="42.53101" lon="1.607915">
        <ele>1750.0</ele>
        <time>2019-08-04T14:16:46.317Z</time>
      </trkpt>
      <trkpt lat="42.53104167" lon="1.60792667">
        <ele>1750.0</ele>
        <time>2019-08-04T14:16:47.300Z</time>
      </trkpt>
      <trkpt lat="42.53105667" lon="1.60793167">
        <ele>1750.0</ele>
        <time>2019-08-04T14:16:48.296Z</time>
      </trkpt>
      <trkpt lat="42.53105667" lon="1.60793167">
        <ele>1750.0</ele>
        <time>2019-08-04T14:16:49.318Z</time>
      </trkpt>
      <trkpt lat="42.53108833" lon="1.60794167">
        <ele>1751.0</ele>
        <time>2019-08-04T14:16:50.320Z</time>
      </trkpt>
      <trkpt lat="42.53108833" lon="1.60794167">
        <ele>1751.0</ele>
        <time>2019-08-04T14:16:51.317Z</time>
      </trkpt>
      <trkpt lat="42.53112167" lon="1.60794833">
        <ele>1751.0</ele>
        <time>2019-08-04T14:16:52.299Z</time>
      </trkpt>
      <trkpt lat="42.53113833" lon="1.607955">
        <ele>1751.0</ele>
        <time>2019-08-04T14:16:53.321Z</time>
      </trkpt>
      <trkpt lat="42.53115167" lon="1.607965">
        <ele>1752.0</ele>
        <time>2019-08-04T14:16:54.321Z</time>
      </trkpt>
      <trkpt lat="42.53115167" lon="1.607965">
        <ele>1752.0</ele>
        <time>2019-08-04T14:16:55.318Z</time>
      </trkpt>
      <trkpt lat="42.53118167" lon="1.60797333">
        <ele>1752.0</ele>
        <time>2019-08-04T14:16:56.321Z</time>
      </trkpt>
      <trkpt lat="42.53118167" lon="1.60797333">
        <ele>1752.0</ele>
        <time>2019-08-04T14:16:57.318Z</time>
      </trkpt>
      <trkpt lat="42.53121333" lon="1.60798333">
        <ele>1752.0</ele>
        <time>2019-08-04T14:16:58.320Z</time>
      </trkpt>
      <trkpt lat="42.53123" lon="1.60798833">
        <ele>1752.0</ele>
        <time>2019-08-04T14:16:59.318Z</time>
      </trkpt>
      <trkpt lat="42.531245" lon="1.607995">
        <ele>1753.0</ele>
        <time>2019-08-04T14:17:00.323Z</time>
      </trkpt>
      <trkpt lat="42.531245" lon="1.607995">
        <ele>1753.0</ele>
        <time>2019-08-04T14:17:01.317Z</time>
      </trkpt>
      <trkpt lat="42.531275" lon="1.60800333">
        <ele>1753.0</ele>
        <time>2019-08-04T14:17:02.320Z</time>
      </trkpt>
      <trkpt lat="42.531275" lon="1.60800333">
        <ele>1753.0</ele>
        <time>2019-08-04T14:17:03.318Z</time>
      </trkpt>
      <trkpt lat="42.531305" lon="1.60801333">
        <ele>1753.0</ele>
        <time>2019-08-04T14:17:04.319Z</time>
      </trkpt>
      <trkpt lat="42.53131833" lon="1.60801667">
        <ele>1753.0</ele>
        <time>2019-08-04T14:17:05.336Z</time>
      </trkpt>
      <trkpt lat="42.53133167" lon="1.60801833">
        <ele>1753.0</ele>
        <time>2019-08-04T14:17:06.322Z</time>
      </trkpt>
      <trkpt lat="42.53133167" lon="1.60801833">
        <ele>1753.0</ele>
        <time>2019-08-04T14:17:07.315Z</time>
      </trkpt>
      <trkpt lat="42.53136167" lon="1.60802">
        <ele>1754.0</ele>
        <time>2019-08-04T14:17:08.296Z</time>
      </trkpt>
      <trkpt lat="42.53136167" lon="1.60802">
        <ele>1754.0</ele>
        <time>2019-08-04T14:17:09.316Z</time>
      </trkpt>
      <trkpt lat="42.53139333" lon="1.608015">
        <ele>1754.0</ele>
        <time>2019-08-04T14:17:10.296Z</time>
      </trkpt>
      <trkpt lat="42.53139333" lon="1.608015">
        <ele>1754.0</ele>
        <time>2019-08-04T14:17:11.320Z</time>
      </trkpt>
      <trkpt lat="42.531425" lon="1.60800333">
        <ele>1754.0</ele>
        <time>2019-08-04T14:17:12.323Z</time>
      </trkpt>
      <trkpt lat="42.531425" lon="1.60800333">
        <ele>1754.0</ele>
        <time>2019-08-04T14:17:13.309Z</time>
      </trkpt>
      <trkpt lat="42.53145833" lon="1.60799333">
        <ele>1755.0</ele>
        <time>2019-08-04T14:17:14.330Z</time>
      </trkpt>
      <trkpt lat="42.53145833" lon="1.60799333">
        <ele>1755.0</ele>
        <time>2019-08-04T14:17:15.316Z</time>
      </trkpt>
      <trkpt lat="42.53145833" lon="1.60799333">
        <ele>1755.0</ele>
        <time>2019-08-04T14:17:16.459Z</time>
      </trkpt>
      <trkpt lat="42.53149167" lon="1.60798167">
        <ele>1755.0</ele>
        <time>2019-08-04T14:17:17.319Z</time>
      </trkpt>
      <trkpt lat="42.53152" lon="1.60796167">
        <ele>1755.0</ele>
        <time>2019-08-04T14:17:18.323Z</time>
      </trkpt>
      <trkpt lat="42.53152" lon="1.60796167">
        <ele>1755.0</ele>
        <time>2019-08-04T14:17:19.315Z</time>
      </trkpt>
      <trkpt lat="42.53154833" lon="1.60794167">
        <ele>1756.0</ele>
        <time>2019-08-04T14:17:20.296Z</time>
      </trkpt>
      <trkpt lat="42.53156333" lon="1.60793167">
        <ele>1756.0</ele>
        <time>2019-08-04T14:17:21.321Z</time>
      </trkpt>
      <trkpt lat="42.53157667" lon="1.60792333">
        <ele>1756.0</ele>
        <time>2019-08-04T14:17:22.328Z</time>
      </trkpt>
      <trkpt lat="42.53157667" lon="1.60792333">
        <ele>1756.0</ele>
        <time>2019-08-04T14:17:23.316Z</time>
      </trkpt>
      <trkpt lat="42.53160667" lon="1.60790833">
        <ele>1756.0</ele>
        <time>2019-08-04T14:17:24.310Z</time>
      </trkpt>
      <trkpt lat="42.53160667" lon="1.60790833">
        <ele>1756.0</ele>
        <time>2019-08-04T14:17:25.303Z</time>
      </trkpt>
      <trkpt lat="42.53163833" lon="1.60790833">
        <ele>1757.0</ele>
        <time>2019-08-04T14:17:26.331Z</time>
      </trkpt>
      <trkpt lat="42.53165333" lon="1.607915">
        <ele>1758.0</ele>
        <time>2019-08-04T14:17:27.321Z</time>
      </trkpt>
      <trkpt lat="42.53165333" lon="1.607915">
        <ele>1758.0</ele>
        <time>2019-08-04T14:17:28.315Z</time>
      </trkpt>
      <trkpt lat="42.53168167" lon="1.60793667">
        <ele>1758.0</ele>
        <time>2019-08-04T14:17:29.331Z</time>
      </trkpt>
      <trkpt lat="42.53168833" lon="1.607955">
        <ele>1758.0</ele>
        <time>2019-08-04T14:17:30.314Z</time>
      </trkpt>
      <trkpt lat="42.53168833" lon="1.607955">
        <ele>1758.0</ele>
        <time>2019-08-04T14:17:31.320Z</time>
      </trkpt>
      <trkpt lat="42.53168833" lon="1.60800167">
        <ele>1758.0</ele>
        <time>2019-08-04T14:17:32.328Z</time>
      </trkpt>
      <trkpt lat="42.53168833" lon="1.60800167">
        <ele>1758.0</ele>
        <time>2019-08-04T14:17:33.317Z</time>
      </trkpt>
      <trkpt lat="42.531675" lon="1.60804667">
        <ele>1759.0</ele>
        <time>2019-08-04T14:17:34.310Z</time>
      </trkpt>
      <trkpt lat="42.531675" lon="1.60804667">
        <ele>1759.0</ele>
        <time>2019-08-04T14:17:35.328Z</time>
      </trkpt>
      <trkpt lat="42.53165" lon="1.60808333">
        <ele>1759.0</ele>
        <time>2019-08-04T14:17:36.321Z</time>
      </trkpt>
      <trkpt lat="42.531635" lon="1.60810167">
        <ele>1759.0</ele>
        <time>2019-08-04T14:17:37.301Z</time>
      </trkpt>
      <trkpt lat="42.53162167" lon="1.608115">
        <ele>1759.0</ele>
        <time>2019-08-04T14:17:38.322Z</time>
      </trkpt>
      <trkpt lat="42.53162167" lon="1.608115">
        <ele>1759.0</ele>
        <time>2019-08-04T14:17:39.315Z</time>
      </trkpt>
      <trkpt lat="42.53159" lon="1.60814">
        <ele>1760.0</ele>
        <time>2019-08-04T14:17:40.318Z</time>
      </trkpt>
      <trkpt lat="42.53159" lon="1.60814">
        <ele>1760.0</ele>
        <time>2019-08-04T14:17:41.334Z</time>
      </trkpt>
      <trkpt lat="42.53156167" lon="1.60816833">
        <ele>1760.0</ele>
        <time>2019-08-04T14:17:42.321Z</time>
      </trkpt>
      <trkpt lat="42.53154667" lon="1.60818">
        <ele>1760.0</ele>
        <time>2019-08-04T14:17:43.321Z</time>
      </trkpt>
      <trkpt lat="42.53153167" lon="1.60819">
        <ele>1760.0</ele>
        <time>2019-08-04T14:17:44.320Z</time>
      </trkpt>
      <trkpt lat="42.53153167" lon="1.60819">
        <ele>1760.0</ele>
        <time>2019-08-04T14:17:45.296Z</time>
      </trkpt>
      <trkpt lat="42.53149667" lon="1.60820667">
        <ele>1761.0</ele>
        <time>2019-08-04T14:17:46.320Z</time>
      </trkpt>
      <trkpt lat="42.53147833" lon="1.60821167">
        <ele>1761.0</ele>
        <time>2019-08-04T14:17:47.300Z</time>
      </trkpt>
      <trkpt lat="42.53146167" lon="1.60821667">
        <ele>1761.0</ele>
        <time>2019-08-04T14:17:48.298Z</time>
      </trkpt>
      <trkpt lat="42.53146167" lon="1.60821667">
        <ele>1761.0</ele>
        <time>2019-08-04T14:17:49.316Z</time>
      </trkpt>
      <trkpt lat="42.53142667" lon="1.60822833">
        <ele>1761.0</ele>
        <time>2019-08-04T14:17:50.336Z</time>
      </trkpt>
      <trkpt lat="42.53142667" lon="1.60822833">
        <ele>1761.0</ele>
        <time>2019-08-04T14:17:51.317Z</time>
      </trkpt>
      <trkpt lat="42.531395" lon="1.608245">
        <ele>1762.0</ele>
        <time>2019-08-04T14:17:52.318Z</time>
      </trkpt>
      <trkpt lat="42.531395" lon="1.608245">
        <ele>1762.0</ele>
        <time>2019-08-04T14:17:53.334Z</time>
      </trkpt>
      <trkpt lat="42.53136167" lon="1.60826">
        <ele>1762.0</ele>
        <time>2019-08-04T14:17:54.330Z</time>
      </trkpt>
      <trkpt lat="42.53136167" lon="1.60826">
        <ele>1762.0</ele>
        <time>2019-08-04T14:17:55.315Z</time>
      </trkpt>
      <trkpt lat="42.53133167" lon="1.60827333">
        <ele>1762.0</ele>
        <time>2019-08-04T14:17:56.296Z</time>
      </trkpt>
      <trkpt lat="42.531315" lon="1.60827667">
        <ele>1763.0</ele>
        <time>2019-08-04T14:17:57.318Z</time>
      </trkpt>
      <trkpt lat="42.531315" lon="1.60827667">
        <ele>1763.0</ele>
        <time>2019-08-04T14:17:58.315Z</time>
      </trkpt>
      <trkpt lat="42.531285" lon="1.60828667">
        <ele>1763.0</ele>
        <time>2019-08-04T14:17:59.335Z</time>
      </trkpt>
      <trkpt lat="42.531285" lon="1.60828667">
        <ele>1763.0</ele>
        <time>2019-08-04T14:18:00.317Z</time>
      </trkpt>
      <trkpt lat="42.53125333" lon="1.608295">
        <ele>1764.0</ele>
        <time>2019-08-04T14:18:01.319Z</time>
      </trkpt>
      <trkpt lat="42.53123833" lon="1.6083">
        <ele>1764.0</ele>
        <time>2019-08-04T14:18:02.296Z</time>
      </trkpt>
      <trkpt lat="42.53123833" lon="1.6083">
        <ele>1764.0</ele>
        <time>2019-08-04T14:18:03.317Z</time>
      </trkpt>
      <trkpt lat="42.53120667" lon="1.60830667">
        <ele>1764.0</ele>
        <time>2019-08-04T14:18:04.319Z</time>
      </trkpt>
      <trkpt lat="42.53120667" lon="1.60830667">
        <ele>1764.0</ele>
        <time>2019-08-04T14:18:05.335Z</time>
      </trkpt>
      <trkpt lat="42.53117333" lon="1.60831167">
        <ele>1765.0</ele>
        <time>2019-08-04T14:18:06.324Z</time>
      </trkpt>
      <trkpt lat="42.53117333" lon="1.60831167">
        <ele>1765.0</ele>
        <time>2019-08-04T14:18:07.464Z</time>
      </trkpt>
      <trkpt lat="42.53114" lon="1.60831333">
        <ele>1765.0</ele>
        <time>2019-08-04T14:18:08.333Z</time>
      </trkpt>
      <trkpt lat="42.53114" lon="1.60831333">
        <ele>1765.0</ele>
        <time>2019-08-04T14:18:09.315Z</time>
      </trkpt>
      <trkpt lat="42.53110333" lon="1.60831167">
        <ele>1765.0</ele>
        <time>2019-08-04T14:18:10.296Z</time>
      </trkpt>
      <trkpt lat="42.53110333" lon="1.60831167">
        <ele>1765.0</ele>
        <time>2019-08-04T14:18:11.319Z</time>
      </trkpt>
      <trkpt lat="42.53106667" lon="1.608315">
        <ele>1765.0</ele>
        <time>2019-08-04T14:18:12.301Z</time>
      </trkpt>
      <trkpt lat="42.53104833" lon="1.60831667">
        <ele>1766.0</ele>
        <time>2019-08-04T14:18:13.325Z</time>
      </trkpt>
      <trkpt lat="42.53102833" lon="1.60831833">
        <ele>1766.0</ele>
        <time>2019-08-04T14:18:14.332Z</time>
      </trkpt>
      <trkpt lat="42.53102833" lon="1.60831833">
        <ele>1766.0</ele>
        <time>2019-08-04T14:18:15.312Z</time>
      </trkpt>
      <trkpt lat="42.53102833" lon="1.60831833">
        <ele>1766.0</ele>
        <time>2019-08-04T14:18:16.309Z</time>
      </trkpt>
      <trkpt lat="42.53099333" lon="1.60832">
        <ele>1766.0</ele>
        <time>2019-08-04T14:18:17.316Z</time>
      </trkpt>
      <trkpt lat="42.53096" lon="1.60832667">
        <ele>1766.0</ele>
        <time>2019-08-04T14:18:18.303Z</time>
      </trkpt>
      <trkpt lat="42.53096" lon="1.60832667">
        <ele>1766.0</ele>
        <time>2019-08-04T14:18:19.319Z</time>
      </trkpt>
      <trkpt lat="42.530925" lon="1.60833333">
        <ele>1767.0</ele>
        <time>2019-08-04T14:18:20.321Z</time>
      </trkpt>
      <trkpt lat="42.530925" lon="1.60833333">
        <ele>1767.0</ele>
        <time>2019-08-04T14:18:21.316Z</time>
      </trkpt>
      <trkpt lat="42.53089667" lon="1.608355">
        <ele>1767.0</ele>
        <time>2019-08-04T14:18:22.322Z</time>
      </trkpt>
      <trkpt lat="42.53089667" lon="1.608355">
        <ele>1767.0</ele>
        <time>2019-08-04T14:18:23.317Z</time>
      </trkpt>
      <trkpt lat="42.53087333" lon="1.60838667">
        <ele>1767.0</ele>
        <time>2019-08-04T14:18:24.323Z</time>
      </trkpt>
      <trkpt lat="42.53087333" lon="1.60838667">
        <ele>1767.0</ele>
        <time>2019-08-04T14:18:25.316Z</time>
      </trkpt>
      <trkpt lat="42.53085833" lon="1.60843167">
        <ele>1767.0</ele>
        <time>2019-08-04T14:18:26.322Z</time>
      </trkpt>
      <trkpt lat="42.53085833" lon="1.60843167">
        <ele>1767.0</ele>
        <time>2019-08-04T14:18:27.316Z</time>
      </trkpt>
      <trkpt lat="42.53085167" lon="1.60848">
        <ele>1768.0</ele>
        <time>2019-08-04T14:18:28.319Z</time>
      </trkpt>
      <trkpt lat="42.53085167" lon="1.60848">
        <ele>1768.0</ele>
        <time>2019-08-04T14:18:29.331Z</time>
      </trkpt>
      <trkpt lat="42.53085667" lon="1.60853">
        <ele>1768.0</ele>
        <time>2019-08-04T14:18:30.347Z</time>
      </trkpt>
      <trkpt lat="42.530865" lon="1.60855333">
        <ele>1768.0</ele>
        <time>2019-08-04T14:18:31.327Z</time>
      </trkpt>
      <trkpt lat="42.530865" lon="1.60855333">
        <ele>1768.0</ele>
        <time>2019-08-04T14:18:32.334Z</time>
      </trkpt>
      <trkpt lat="42.53089" lon="1.60858833">
        <ele>1768.0</ele>
        <time>2019-08-04T14:18:33.301Z</time>
      </trkpt>
      <trkpt lat="42.53090833" lon="1.6086">
        <ele>1769.0</ele>
        <time>2019-08-04T14:18:34.331Z</time>
      </trkpt>
      <trkpt lat="42.53090833" lon="1.6086">
        <ele>1769.0</ele>
        <time>2019-08-04T14:18:35.330Z</time>
      </trkpt>
      <trkpt lat="42.53094333" lon="1.608615">
        <ele>1769.0</ele>
        <time>2019-08-04T14:18:36.323Z</time>
      </trkpt>
      <trkpt lat="42.53094333" lon="1.608615">
        <ele>1769.0</ele>
        <time>2019-08-04T14:18:37.319Z</time>
      </trkpt>
      <trkpt lat="42.53098" lon="1.60861667">
        <ele>1769.0</ele>
        <time>2019-08-04T14:18:38.323Z</time>
      </trkpt>
      <trkpt lat="42.53098" lon="1.60861667">
        <ele>1769.0</ele>
        <time>2019-08-04T14:18:39.317Z</time>
      </trkpt>
      <trkpt lat="42.53102" lon="1.60861">
        <ele>1770.0</ele>
        <time>2019-08-04T14:18:40.320Z</time>
      </trkpt>
      <trkpt lat="42.53102" lon="1.60861">
        <ele>1770.0</ele>
        <time>2019-08-04T14:18:41.316Z</time>
      </trkpt>
      <trkpt lat="42.531055" lon="1.60860667">
        <ele>1770.0</ele>
        <time>2019-08-04T14:18:42.298Z</time>
      </trkpt>
      <trkpt lat="42.531055" lon="1.60860667">
        <ele>1770.0</ele>
        <time>2019-08-04T14:18:43.317Z</time>
      </trkpt>
      <trkpt lat="42.531095" lon="1.60860833">
        <ele>1770.0</ele>
        <time>2019-08-04T14:18:44.309Z</time>
      </trkpt>
      <trkpt lat="42.531115" lon="1.60860667">
        <ele>1770.0</ele>
        <time>2019-08-04T14:18:45.326Z</time>
      </trkpt>
      <trkpt lat="42.531115" lon="1.60860667">
        <ele>1770.0</ele>
        <time>2019-08-04T14:18:46.316Z</time>
      </trkpt>
      <trkpt lat="42.53115667" lon="1.60860333">
        <ele>1771.0</ele>
        <time>2019-08-04T14:18:47.323Z</time>
      </trkpt>
      <trkpt lat="42.53117833" lon="1.6086">
        <ele>1771.0</ele>
        <time>2019-08-04T14:18:48.324Z</time>
      </trkpt>
      <trkpt lat="42.53117833" lon="1.6086">
        <ele>1771.0</ele>
        <time>2019-08-04T14:18:49.316Z</time>
      </trkpt>
      <trkpt lat="42.53122" lon="1.608595">
        <ele>1771.0</ele>
        <time>2019-08-04T14:18:50.296Z</time>
      </trkpt>
      <trkpt lat="42.53124" lon="1.60859333">
        <ele>1771.0</ele>
        <time>2019-08-04T14:18:51.322Z</time>
      </trkpt>
      <trkpt lat="42.53124" lon="1.60859333">
        <ele>1771.0</ele>
        <time>2019-08-04T14:18:52.322Z</time>
      </trkpt>
      <trkpt lat="42.53128167" lon="1.60859">
        <ele>1772.0</ele>
        <time>2019-08-04T14:18:53.319Z</time>
      </trkpt>
      <trkpt lat="42.53130167" lon="1.60858833">
        <ele>1772.0</ele>
        <time>2019-08-04T14:18:54.309Z</time>
      </trkpt>
      <trkpt lat="42.53130167" lon="1.60858833">
        <ele>1772.0</ele>
        <time>2019-08-04T14:18:55.325Z</time>
      </trkpt>
      <trkpt lat="42.53134167" lon="1.60858333">
        <ele>1772.0</ele>
        <time>2019-08-04T14:18:56.321Z</time>
      </trkpt>
      <trkpt lat="42.53134167" lon="1.60858333">
        <ele>1772.0</ele>
        <time>2019-08-04T14:18:57.316Z</time>
      </trkpt>
      <trkpt lat="42.53138333" lon="1.60858">
        <ele>1772.0</ele>
        <time>2019-08-04T14:18:58.298Z</time>
      </trkpt>
      <trkpt lat="42.53138333" lon="1.60858">
        <ele>1772.0</ele>
        <time>2019-08-04T14:18:59.316Z</time>
      </trkpt>
      <trkpt lat="42.53142333" lon="1.60857333">
        <ele>1772.0</ele>
        <time>2019-08-04T14:19:00.297Z</time>
      </trkpt>
      <trkpt lat="42.53142333" lon="1.60857333">
        <ele>1772.0</ele>
        <time>2019-08-04T14:19:01.315Z</time>
      </trkpt>
      <trkpt lat="42.531465" lon="1.60856667">
        <ele>1773.0</ele>
        <time>2019-08-04T14:19:02.296Z</time>
      </trkpt>
      <trkpt lat="42.531465" lon="1.60856667">
        <ele>1773.0</ele>
        <time>2019-08-04T14:19:03.320Z</time>
      </trkpt>
      <trkpt lat="42.531505" lon="1.60856167">
        <ele>1773.0</ele>
        <time>2019-08-04T14:19:04.321Z</time>
      </trkpt>
      <trkpt lat="42.531505" lon="1.60856167">
        <ele>1773.0</ele>
        <time>2019-08-04T14:19:05.315Z</time>
      </trkpt>
      <trkpt lat="42.53154333" lon="1.60855333">
        <ele>1773.0</ele>
        <time>2019-08-04T14:19:06.296Z</time>
      </trkpt>
      <trkpt lat="42.53154333" lon="1.60855333">
        <ele>1773.0</ele>
        <time>2019-08-04T14:19:07.316Z</time>
      </trkpt>
      <trkpt lat="42.53158333" lon="1.60854667">
        <ele>1774.0</ele>
        <time>2019-08-04T14:19:08.297Z</time>
      </trkpt>
      <trkpt lat="42.53158333" lon="1.60854667">
        <ele>1774.0</ele>
        <time>2019-08-04T14:19:09.317Z</time>
      </trkpt>
      <trkpt lat="42.53162333" lon="1.60853833">
        <ele>1774.0</ele>
        <time>2019-08-04T14:19:10.322Z</time>
      </trkpt>
      <trkpt lat="42.53162333" lon="1.60853833">
        <ele>1774.0</ele>
        <time>2019-08-04T14:19:11.316Z</time>
      </trkpt>
      <trkpt lat="42.53166333" lon="1.60852333">
        <ele>1774.0</ele>
        <time>2019-08-04T14:19:12.296Z</time>
      </trkpt>
      <trkpt lat="42.53166333" lon="1.60852333">
        <ele>1774.0</ele>
        <time>2019-08-04T14:19:13.316Z</time>
      </trkpt>
      <trkpt lat="42.53169833" lon="1.608505">
        <ele>1775.0</ele>
        <time>2019-08-04T14:19:14.308Z</time>
      </trkpt>
      <trkpt lat="42.53169833" lon="1.608505">
        <ele>1775.0</ele>
        <time>2019-08-04T14:19:15.323Z</time>
      </trkpt>
      <trkpt lat="42.53173167" lon="1.60848833">
        <ele>1775.0</ele>
        <time>2019-08-04T14:19:16.331Z</time>
      </trkpt>
      <trkpt lat="42.53173167" lon="1.60848833">
        <ele>1775.0</ele>
        <time>2019-08-04T14:19:17.316Z</time>
      </trkpt>
      <trkpt lat="42.53176333" lon="1.60847">
        <ele>1775.0</ele>
        <time>2019-08-04T14:19:18.465Z</time>
      </trkpt>
      <trkpt lat="42.53176333" lon="1.60847">
        <ele>1775.0</ele>
        <time>2019-08-04T14:19:19.316Z</time>
      </trkpt>
      <trkpt lat="42.531795" lon="1.60845">
        <ele>1775.0</ele>
        <time>2019-08-04T14:19:20.296Z</time>
      </trkpt>
      <trkpt lat="42.531795" lon="1.60845">
        <ele>1775.0</ele>
        <time>2019-08-04T14:19:21.317Z</time>
      </trkpt>
      <trkpt lat="42.531825" lon="1.608425">
        <ele>1776.0</ele>
        <time>2019-08-04T14:19:22.323Z</time>
      </trkpt>
      <trkpt lat="42.531825" lon="1.608425">
        <ele>1776.0</ele>
        <time>2019-08-04T14:19:23.316Z</time>
      </trkpt>
      <trkpt lat="42.53185667" lon="1.60840333">
        <ele>1776.0</ele>
        <time>2019-08-04T14:19:24.306Z</time>
      </trkpt>
      <trkpt lat="42.53185667" lon="1.60840333">
        <ele>1776.0</ele>
        <time>2019-08-04T14:19:25.322Z</time>
      </trkpt>
      <trkpt lat="42.53188667" lon="1.608375">
        <ele>1776.0</ele>
        <time>2019-08-04T14:19:26.326Z</time>
      </trkpt>
      <trkpt lat="42.53190167" lon="1.60836333">
        <ele>1776.0</ele>
        <time>2019-08-04T14:19:27.321Z</time>
      </trkpt>
      <trkpt lat="42.53190167" lon="1.60836333">
        <ele>1776.0</ele>
        <time>2019-08-04T14:19:28.317Z</time>
      </trkpt>
      <trkpt lat="42.53193333" lon="1.60833833">
        <ele>1776.0</ele>
        <time>2019-08-04T14:19:29.313Z</time>
      </trkpt>
      <trkpt lat="42.53195" lon="1.608325">
        <ele>1776.0</ele>
        <time>2019-08-04T14:19:30.335Z</time>
      </trkpt>
      <trkpt lat="42.53195" lon="1.608325">
        <ele>1776.0</ele>
        <time>2019-08-04T14:19:31.301Z</time>
      </trkpt>
      <trkpt lat="42.53198167" lon="1.60829833">
        <ele>1777.0</ele>
        <time>2019-08-04T14:19:32.322Z</time>
      </trkpt>
      <trkpt lat="42.53198167" lon="1.60829833">
        <ele>1777.0</ele>
        <time>2019-08-04T14:19:33.316Z</time>
      </trkpt>
      <trkpt lat="42.532015" lon="1.60827333">
        <ele>1777.0</ele>
        <time>2019-08-04T14:19:34.297Z</time>
      </trkpt>
      <trkpt lat="42.532015" lon="1.60827333">
        <ele>1777.0</ele>
        <time>2019-08-04T14:19:35.317Z</time>
      </trkpt>
      <trkpt lat="42.53204833" lon="1.60824833">
        <ele>1777.0</ele>
        <time>2019-08-04T14:19:36.323Z</time>
      </trkpt>
      <trkpt lat="42.53204833" lon="1.60824833">
        <ele>1777.0</ele>
        <time>2019-08-04T14:19:37.315Z</time>
      </trkpt>
      <trkpt lat="42.53208" lon="1.60822167">
        <ele>1777.0</ele>
        <time>2019-08-04T14:19:38.319Z</time>
      </trkpt>
      <trkpt lat="42.53208" lon="1.60822167">
        <ele>1777.0</ele>
        <time>2019-08-04T14:19:39.303Z</time>
      </trkpt>
      <trkpt lat="42.53211" lon="1.60819667">
        <ele>1778.0</ele>
        <time>2019-08-04T14:19:40.324Z</time>
      </trkpt>
      <trkpt lat="42.53211" lon="1.60819667">
        <ele>1778.0</ele>
        <time>2019-08-04T14:19:41.317Z</time>
      </trkpt>
      <trkpt lat="42.53214" lon="1.60816667">
        <ele>1778.0</ele>
        <time>2019-08-04T14:19:42.323Z</time>
      </trkpt>
      <trkpt lat="42.53214" lon="1.60816667">
        <ele>1778.0</ele>
        <time>2019-08-04T14:19:43.317Z</time>
      </trkpt>
      <trkpt lat="42.53216833" lon="1.608135">
        <ele>1778.0</ele>
        <time>2019-08-04T14:19:44.320Z</time>
      </trkpt>
      <trkpt lat="42.53216833" lon="1.608135">
        <ele>1778.0</ele>
        <time>2019-08-04T14:19:45.298Z</time>
      </trkpt>
      <trkpt lat="42.532195" lon="1.60810667">
        <ele>1778.0</ele>
        <time>2019-08-04T14:19:46.323Z</time>
      </trkpt>
      <trkpt lat="42.532195" lon="1.60810667">
        <ele>1778.0</ele>
        <time>2019-08-04T14:19:47.314Z</time>
      </trkpt>
      <trkpt lat="42.532225" lon="1.60808333">
        <ele>1778.0</ele>
        <time>2019-08-04T14:19:48.324Z</time>
      </trkpt>
      <trkpt lat="42.53223833" lon="1.60807167">
        <ele>1778.0</ele>
        <time>2019-08-04T14:19:49.324Z</time>
      </trkpt>
      <trkpt lat="42.53223833" lon="1.60807167">
        <ele>1778.0</ele>
        <time>2019-08-04T14:19:50.297Z</time>
      </trkpt>
      <trkpt lat="42.53226833" lon="1.608045">
        <ele>1779.0</ele>
        <time>2019-08-04T14:19:51.307Z</time>
      </trkpt>
      <trkpt lat="42.53226833" lon="1.608045">
        <ele>1779.0</ele>
        <time>2019-08-04T14:19:52.314Z</time>
      </trkpt>
      <trkpt lat="42.53229667" lon="1.60801667">
        <ele>1779.0</ele>
        <time>2019-08-04T14:19:53.321Z</time>
      </trkpt>
      <trkpt lat="42.53231167" lon="1.60800333">
        <ele>1779.0</ele>
        <time>2019-08-04T14:19:54.297Z</time>
      </trkpt>
      <trkpt lat="42.53231167" lon="1.60800333">
        <ele>1779.0</ele>
        <time>2019-08-04T14:19:55.316Z</time>
      </trkpt>
      <trkpt lat="42.53234" lon="1.60797333">
        <ele>1779.0</ele>
        <time>2019-08-04T14:19:56.296Z</time>
      </trkpt>
      <trkpt lat="42.53234" lon="1.60797333">
        <ele>1779.0</ele>
        <time>2019-08-04T14:19:57.317Z</time>
      </trkpt>
      <trkpt lat="42.53237" lon="1.60794167">
        <ele>1780.0</ele>
        <time>2019-08-04T14:19:58.301Z</time>
      </trkpt>
      <trkpt lat="42.532385" lon="1.60792667">
        <ele>1780.0</ele>
        <time>2019-08-04T14:19:59.321Z</time>
      </trkpt>
      <trkpt lat="42.532385" lon="1.60792667">
        <ele>1780.0</ele>
        <time>2019-08-04T14:20:00.298Z</time>
      </trkpt>
      <trkpt lat="42.532415" lon="1.607895">
        <ele>1780.0</ele>
        <time>2019-08-04T14:20:01.321Z</time>
      </trkpt>
      <trkpt lat="42.53243" lon="1.60787833">
        <ele>1780.0</ele>
        <time>2019-08-04T14:20:02.302Z</time>
      </trkpt>
      <trkpt lat="42.53243" lon="1.60787833">
        <ele>1780.0</ele>
        <time>2019-08-04T14:20:03.321Z</time>
      </trkpt>
      <trkpt lat="42.53245833" lon="1.60784833">
        <ele>1780.0</ele>
        <time>2019-08-04T14:20:04.319Z</time>
      </trkpt>
      <trkpt lat="42.53245833" lon="1.60784833">
        <ele>1780.0</ele>
        <time>2019-08-04T14:20:05.335Z</time>
      </trkpt>
      <trkpt lat="42.532485" lon="1.60781667">
        <ele>1781.0</ele>
        <time>2019-08-04T14:20:06.324Z</time>
      </trkpt>
      <trkpt lat="42.532485" lon="1.60781667">
        <ele>1781.0</ele>
        <time>2019-08-04T14:20:07.301Z</time>
      </trkpt>
      <trkpt lat="42.53251" lon="1.60778167">
        <ele>1781.0</ele>
        <time>2019-08-04T14:20:08.330Z</time>
      </trkpt>
      <trkpt lat="42.53252333" lon="1.60776833">
        <ele>1781.0</ele>
        <time>2019-08-04T14:20:09.323Z</time>
      </trkpt>
      <trkpt lat="42.53252333" lon="1.60776833">
        <ele>1781.0</ele>
        <time>2019-08-04T14:20:10.316Z</time>
      </trkpt>
      <trkpt lat="42.53254667" lon="1.60773667">
        <ele>1781.0</ele>
        <time>2019-08-04T14:20:11.336Z</time>
      </trkpt>
      <trkpt lat="42.53254667" lon="1.60773667">
        <ele>1781.0</ele>
        <time>2019-08-04T14:20:12.318Z</time>
      </trkpt>
      <trkpt lat="42.53257167" lon="1.607705">
        <ele>1782.0</ele>
        <time>2019-08-04T14:20:13.321Z</time>
      </trkpt>
      <trkpt lat="42.53257167" lon="1.607705">
        <ele>1782.0</ele>
        <time>2019-08-04T14:20:14.325Z</time>
      </trkpt>
      <trkpt lat="42.53257167" lon="1.607705">
        <ele>1782.0</ele>
        <time>2019-08-04T14:20:15.520Z</time>
      </trkpt>
      <trkpt lat="42.53261167" lon="1.607655">
        <ele>1782.0</ele>
        <time>2019-08-04T14:20:16.298Z</time>
      </trkpt>
      <trkpt lat="42.53261167" lon="1.607655">
        <ele>1782.0</ele>
        <time>2019-08-04T14:20:17.317Z</time>
      </trkpt>
      <trkpt lat="42.53263833" lon="1.60761833">
        <ele>1782.0</ele>
        <time>2019-08-04T14:20:18.298Z</time>
      </trkpt>
      <trkpt lat="42.53263833" lon="1.60761833">
        <ele>1782.0</ele>
        <time>2019-08-04T14:20:19.317Z</time>
      </trkpt>
      <trkpt lat="42.53266333" lon="1.60758">
        <ele>1782.0</ele>
        <time>2019-08-04T14:20:20.319Z</time>
      </trkpt>
      <trkpt lat="42.53266333" lon="1.60758">
        <ele>1782.0</ele>
        <time>2019-08-04T14:20:21.335Z</time>
      </trkpt>
      <trkpt lat="42.53269" lon="1.60754333">
        <ele>1783.0</ele>
        <time>2019-08-04T14:20:22.321Z</time>
      </trkpt>
      <trkpt lat="42.53270333" lon="1.607525">
        <ele>1783.0</ele>
        <time>2019-08-04T14:20:23.325Z</time>
      </trkpt>
      <trkpt lat="42.53271667" lon="1.607505">
        <ele>1783.0</ele>
        <time>2019-08-04T14:20:24.300Z</time>
      </trkpt>
      <trkpt lat="42.53271667" lon="1.607505">
        <ele>1783.0</ele>
        <time>2019-08-04T14:20:25.317Z</time>
      </trkpt>
      <trkpt lat="42.53274167" lon="1.60746667">
        <ele>1783.0</ele>
        <time>2019-08-04T14:20:26.323Z</time>
      </trkpt>
      <trkpt lat="42.53275333" lon="1.60744667">
        <ele>1783.0</ele>
        <time>2019-08-04T14:20:27.323Z</time>
      </trkpt>
      <trkpt lat="42.53275333" lon="1.60744667">
        <ele>1783.0</ele>
        <time>2019-08-04T14:20:28.317Z</time>
      </trkpt>
      <trkpt lat="42.53278" lon="1.60740667">
        <ele>1783.0</ele>
        <time>2019-08-04T14:20:29.326Z</time>
      </trkpt>
      <trkpt lat="42.53279167" lon="1.60738667">
        <ele>1784.0</ele>
        <time>2019-08-04T14:20:30.313Z</time>
      </trkpt>
      <trkpt lat="42.53279167" lon="1.60738667">
        <ele>1784.0</ele>
        <time>2019-08-04T14:20:31.319Z</time>
      </trkpt>
      <trkpt lat="42.53281667" lon="1.607345">
        <ele>1784.0</ele>
        <time>2019-08-04T14:20:32.331Z</time>
      </trkpt>
      <trkpt lat="42.53282833" lon="1.607325">
        <ele>1784.0</ele>
        <time>2019-08-04T14:20:33.323Z</time>
      </trkpt>
      <trkpt lat="42.53282833" lon="1.607325">
        <ele>1784.0</ele>
        <time>2019-08-04T14:20:34.316Z</time>
      </trkpt>
      <trkpt lat="42.53285333" lon="1.607285">
        <ele>1784.0</ele>
        <time>2019-08-04T14:20:35.332Z</time>
      </trkpt>
      <trkpt lat="42.53285333" lon="1.607285">
        <ele>1784.0</ele>
        <time>2019-08-04T14:20:36.318Z</time>
      </trkpt>
      <trkpt lat="42.53287667" lon="1.60724667">
        <ele>1785.0</ele>
        <time>2019-08-04T14:20:37.323Z</time>
      </trkpt>
      <trkpt lat="42.53287667" lon="1.60724667">
        <ele>1785.0</ele>
        <time>2019-08-04T14:20:38.317Z</time>
      </trkpt>
      <trkpt lat="42.53290167" lon="1.60720833">
        <ele>1785.0</ele>
        <time>2019-08-04T14:20:39.319Z</time>
      </trkpt>
      <trkpt lat="42.53290167" lon="1.60720833">
        <ele>1785.0</ele>
        <time>2019-08-04T14:20:40.335Z</time>
      </trkpt>
      <trkpt lat="42.53292167" lon="1.60717">
        <ele>1785.0</ele>
        <time>2019-08-04T14:20:41.323Z</time>
      </trkpt>
      <trkpt lat="42.53293333" lon="1.60715167">
        <ele>1785.0</ele>
        <time>2019-08-04T14:20:42.302Z</time>
      </trkpt>
      <trkpt lat="42.53293333" lon="1.60715167">
        <ele>1785.0</ele>
        <time>2019-08-04T14:20:43.321Z</time>
      </trkpt>
      <trkpt lat="42.53295667" lon="1.60711667">
        <ele>1786.0</ele>
        <time>2019-08-04T14:20:44.318Z</time>
      </trkpt>
      <trkpt lat="42.53295667" lon="1.60711667">
        <ele>1786.0</ele>
        <time>2019-08-04T14:20:45.296Z</time>
      </trkpt>
      <trkpt lat="42.53297833" lon="1.60707667">
        <ele>1786.0</ele>
        <time>2019-08-04T14:20:46.323Z</time>
      </trkpt>
      <trkpt lat="42.53297833" lon="1.60707667">
        <ele>1786.0</ele>
        <time>2019-08-04T14:20:47.325Z</time>
      </trkpt>
      <trkpt lat="42.53300167" lon="1.60703833">
        <ele>1786.0</ele>
        <time>2019-08-04T14:20:48.335Z</time>
      </trkpt>
      <trkpt lat="42.53300167" lon="1.60703833">
        <ele>1786.0</ele>
        <time>2019-08-04T14:20:49.319Z</time>
      </trkpt>
      <trkpt lat="42.53302667" lon="1.607">
        <ele>1787.0</ele>
        <time>2019-08-04T14:20:50.321Z</time>
      </trkpt>
      <trkpt lat="42.53302667" lon="1.607">
        <ele>1787.0</ele>
        <time>2019-08-04T14:20:51.316Z</time>
      </trkpt>
      <trkpt lat="42.53304833" lon="1.60696">
        <ele>1787.0</ele>
        <time>2019-08-04T14:20:52.297Z</time>
      </trkpt>
      <trkpt lat="42.53306" lon="1.60694">
        <ele>1787.0</ele>
        <time>2019-08-04T14:20:53.322Z</time>
      </trkpt>
      <trkpt lat="42.53306" lon="1.60694">
        <ele>1787.0</ele>
        <time>2019-08-04T14:20:54.317Z</time>
      </trkpt>
      <trkpt lat="42.53308333" lon="1.60690167">
        <ele>1787.0</ele>
        <time>2019-08-04T14:20:55.300Z</time>
      </trkpt>
      <trkpt lat="42.533095" lon="1.60688167">
        <ele>1787.0</ele>
        <time>2019-08-04T14:20:56.321Z</time>
      </trkpt>
      <trkpt lat="42.533095" lon="1.60688167">
        <ele>1787.0</ele>
        <time>2019-08-04T14:20:57.317Z</time>
      </trkpt>
      <trkpt lat="42.53311833" lon="1.60684">
        <ele>1788.0</ele>
        <time>2019-08-04T14:20:58.319Z</time>
      </trkpt>
      <trkpt lat="42.53311833" lon="1.60684">
        <ele>1788.0</ele>
        <time>2019-08-04T14:20:59.316Z</time>
      </trkpt>
      <trkpt lat="42.53314333" lon="1.6068">
        <ele>1788.0</ele>
        <time>2019-08-04T14:21:00.335Z</time>
      </trkpt>
      <trkpt lat="42.53314333" lon="1.6068">
        <ele>1788.0</ele>
        <time>2019-08-04T14:21:01.316Z</time>
      </trkpt>
      <trkpt lat="42.53316667" lon="1.60675667">
        <ele>1788.0</ele>
        <time>2019-08-04T14:21:02.297Z</time>
      </trkpt>
      <trkpt lat="42.53316667" lon="1.60675667">
        <ele>1788.0</ele>
        <time>2019-08-04T14:21:03.316Z</time>
      </trkpt>
      <trkpt lat="42.53318833" lon="1.60671333">
        <ele>1788.0</ele>
        <time>2019-08-04T14:21:04.297Z</time>
      </trkpt>
      <trkpt lat="42.53318833" lon="1.60671333">
        <ele>1788.0</ele>
        <time>2019-08-04T14:21:05.316Z</time>
      </trkpt>
      <trkpt lat="42.53320833" lon="1.60667167">
        <ele>1789.0</ele>
        <time>2019-08-04T14:21:06.296Z</time>
      </trkpt>
      <trkpt lat="42.53320833" lon="1.60667167">
        <ele>1789.0</ele>
        <time>2019-08-04T14:21:07.317Z</time>
      </trkpt>
      <trkpt lat="42.53322833" lon="1.60663167">
        <ele>1789.0</ele>
        <time>2019-08-04T14:21:08.319Z</time>
      </trkpt>
      <trkpt lat="42.53322833" lon="1.60663167">
        <ele>1789.0</ele>
        <time>2019-08-04T14:21:09.297Z</time>
      </trkpt>
      <trkpt lat="42.53324667" lon="1.60659333">
        <ele>1789.0</ele>
        <time>2019-08-04T14:21:10.318Z</time>
      </trkpt>
      <trkpt lat="42.53324667" lon="1.60659333">
        <ele>1789.0</ele>
        <time>2019-08-04T14:21:11.317Z</time>
      </trkpt>
      <trkpt lat="42.53326667" lon="1.60655">
        <ele>1790.0</ele>
        <time>2019-08-04T14:21:12.297Z</time>
      </trkpt>
      <trkpt lat="42.53326667" lon="1.60655">
        <ele>1790.0</ele>
        <time>2019-08-04T14:21:13.316Z</time>
      </trkpt>
      <trkpt lat="42.53326667" lon="1.60655">
        <ele>1790.0</ele>
        <time>2019-08-04T14:21:14.553Z</time>
      </trkpt>
      <trkpt lat="42.53329833" lon="1.606485">
        <ele>1790.0</ele>
        <time>2019-08-04T14:21:15.315Z</time>
      </trkpt>
      <trkpt lat="42.53329833" lon="1.606485">
        <ele>1790.0</ele>
        <time>2019-08-04T14:21:16.321Z</time>
      </trkpt>
      <trkpt lat="42.53331833" lon="1.60644167">
        <ele>1790.0</ele>
        <time>2019-08-04T14:21:17.298Z</time>
      </trkpt>
      <trkpt lat="42.53331833" lon="1.60644167">
        <ele>1790.0</ele>
        <time>2019-08-04T14:21:18.321Z</time>
      </trkpt>
      <trkpt lat="42.53334" lon="1.60639667">
        <ele>1790.0</ele>
        <time>2019-08-04T14:21:19.323Z</time>
      </trkpt>
      <trkpt lat="42.53335" lon="1.60637333">
        <ele>1791.0</ele>
        <time>2019-08-04T14:21:20.323Z</time>
      </trkpt>
      <trkpt lat="42.53335" lon="1.60637333">
        <ele>1791.0</ele>
        <time>2019-08-04T14:21:21.317Z</time>
      </trkpt>
      <trkpt lat="42.53337" lon="1.60633">
        <ele>1791.0</ele>
        <time>2019-08-04T14:21:22.321Z</time>
      </trkpt>
      <trkpt lat="42.53337" lon="1.60633">
        <ele>1791.0</ele>
        <time>2019-08-04T14:21:23.316Z</time>
      </trkpt>
      <trkpt lat="42.53339" lon="1.60628833">
        <ele>1791.0</ele>
        <time>2019-08-04T14:21:24.298Z</time>
      </trkpt>
      <trkpt lat="42.53339" lon="1.60628833">
        <ele>1791.0</ele>
        <time>2019-08-04T14:21:25.317Z</time>
      </trkpt>
      <trkpt lat="42.53341333" lon="1.60624667">
        <ele>1791.0</ele>
        <time>2019-08-04T14:21:26.320Z</time>
      </trkpt>
      <trkpt lat="42.53341333" lon="1.60624667">
        <ele>1791.0</ele>
        <time>2019-08-04T14:21:27.317Z</time>
      </trkpt>
      <trkpt lat="42.53343333" lon="1.606205">
        <ele>1792.0</ele>
        <time>2019-08-04T14:21:28.321Z</time>
      </trkpt>
      <trkpt lat="42.53343333" lon="1.606205">
        <ele>1792.0</ele>
        <time>2019-08-04T14:21:29.330Z</time>
      </trkpt>
      <trkpt lat="42.533455" lon="1.60616333">
        <ele>1792.0</ele>
        <time>2019-08-04T14:21:30.297Z</time>
      </trkpt>
      <trkpt lat="42.533455" lon="1.60616333">
        <ele>1792.0</ele>
        <time>2019-08-04T14:21:31.319Z</time>
      </trkpt>
      <trkpt lat="42.533475" lon="1.60612">
        <ele>1792.0</ele>
        <time>2019-08-04T14:21:32.323Z</time>
      </trkpt>
      <trkpt lat="42.53348667" lon="1.60609667">
        <ele>1792.0</ele>
        <time>2019-08-04T14:21:33.323Z</time>
      </trkpt>
      <trkpt lat="42.53348667" lon="1.60609667">
        <ele>1792.0</ele>
        <time>2019-08-04T14:21:34.317Z</time>
      </trkpt>
      <trkpt lat="42.53350833" lon="1.60604833">
        <ele>1793.0</ele>
        <time>2019-08-04T14:21:35.332Z</time>
      </trkpt>
      <trkpt lat="42.53351833" lon="1.60602667">
        <ele>1793.0</ele>
        <time>2019-08-04T14:21:36.323Z</time>
      </trkpt>
      <trkpt lat="42.53351833" lon="1.60602667">
        <ele>1793.0</ele>
        <time>2019-08-04T14:21:37.317Z</time>
      </trkpt>
      <trkpt lat="42.53354" lon="1.60598">
        <ele>1793.0</ele>
        <time>2019-08-04T14:21:38.300Z</time>
      </trkpt>
      <trkpt lat="42.53355167" lon="1.60595667">
        <ele>1793.0</ele>
        <time>2019-08-04T14:21:39.323Z</time>
      </trkpt>
      <trkpt lat="42.53355167" lon="1.60595667">
        <ele>1793.0</ele>
        <time>2019-08-04T14:21:40.316Z</time>
      </trkpt>
      <trkpt lat="42.53357167" lon="1.60590667">
        <ele>1793.0</ele>
        <time>2019-08-04T14:21:41.297Z</time>
      </trkpt>
      <trkpt lat="42.53358333" lon="1.605885">
        <ele>1793.0</ele>
        <time>2019-08-04T14:21:42.323Z</time>
      </trkpt>
      <trkpt lat="42.53358333" lon="1.605885">
        <ele>1793.0</ele>
        <time>2019-08-04T14:21:43.317Z</time>
      </trkpt>
      <trkpt lat="42.53360333" lon="1.60583667">
        <ele>1794.0</ele>
        <time>2019-08-04T14:21:44.300Z</time>
      </trkpt>
      <trkpt lat="42.533615" lon="1.60581333">
        <ele>1794.0</ele>
        <time>2019-08-04T14:21:45.323Z</time>
      </trkpt>
      <trkpt lat="42.533615" lon="1.60581333">
        <ele>1794.0</ele>
        <time>2019-08-04T14:21:46.317Z</time>
      </trkpt>
      <trkpt lat="42.533635" lon="1.605765">
        <ele>1794.0</ele>
        <time>2019-08-04T14:21:47.298Z</time>
      </trkpt>
      <trkpt lat="42.533635" lon="1.605765">
        <ele>1794.0</ele>
        <time>2019-08-04T14:21:48.321Z</time>
      </trkpt>
      <trkpt lat="42.53365667" lon="1.605715">
        <ele>1794.0</ele>
        <time>2019-08-04T14:21:49.299Z</time>
      </trkpt>
      <trkpt lat="42.533665" lon="1.60569">
        <ele>1794.0</ele>
        <time>2019-08-04T14:21:50.323Z</time>
      </trkpt>
      <trkpt lat="42.533665" lon="1.60569">
        <ele>1794.0</ele>
        <time>2019-08-04T14:21:51.317Z</time>
      </trkpt>
      <trkpt lat="42.533685" lon="1.60564">
        <ele>1794.0</ele>
        <time>2019-08-04T14:21:52.297Z</time>
      </trkpt>
      <trkpt lat="42.533685" lon="1.60564">
        <ele>1794.0</ele>
        <time>2019-08-04T14:21:53.317Z</time>
      </trkpt>
      <trkpt lat="42.533705" lon="1.60559167">
        <ele>1794.0</ele>
        <time>2019-08-04T14:21:54.298Z</time>
      </trkpt>
      <trkpt lat="42.533705" lon="1.60559167">
        <ele>1794.0</ele>
        <time>2019-08-04T14:21:55.317Z</time>
      </trkpt>
      <trkpt lat="42.53372833" lon="1.60554333">
        <ele>1795.0</ele>
        <time>2019-08-04T14:21:56.297Z</time>
      </trkpt>
      <trkpt lat="42.53372833" lon="1.60554333">
        <ele>1795.0</ele>
        <time>2019-08-04T14:21:57.319Z</time>
      </trkpt>
      <trkpt lat="42.53374667" lon="1.60549">
        <ele>1795.0</ele>
        <time>2019-08-04T14:21:58.323Z</time>
      </trkpt>
      <trkpt lat="42.53374667" lon="1.60549">
        <ele>1795.0</ele>
        <time>2019-08-04T14:21:59.317Z</time>
      </trkpt>
      <trkpt lat="42.533765" lon="1.605435">
        <ele>1795.0</ele>
        <time>2019-08-04T14:22:00.298Z</time>
      </trkpt>
      <trkpt lat="42.533765" lon="1.605435">
        <ele>1795.0</ele>
        <time>2019-08-04T14:22:01.316Z</time>
      </trkpt>
      <trkpt lat="42.533785" lon="1.60538167">
        <ele>1795.0</ele>
        <time>2019-08-04T14:22:02.323Z</time>
      </trkpt>
      <trkpt lat="42.533785" lon="1.60538167">
        <ele>1795.0</ele>
        <time>2019-08-04T14:22:03.316Z</time>
      </trkpt>
      <trkpt lat="42.53380333" lon="1.60532667">
        <ele>1795.0</ele>
        <time>2019-08-04T14:22:04.297Z</time>
      </trkpt>
      <trkpt lat="42.53380333" lon="1.60532667">
        <ele>1795.0</ele>
        <time>2019-08-04T14:22:05.318Z</time>
      </trkpt>
      <trkpt lat="42.53382333" lon="1.60527">
        <ele>1796.0</ele>
        <time>2019-08-04T14:22:06.323Z</time>
      </trkpt>
      <trkpt lat="42.53382333" lon="1.60527">
        <ele>1796.0</ele>
        <time>2019-08-04T14:22:07.318Z</time>
      </trkpt>
      <trkpt lat="42.53384333" lon="1.60521">
        <ele>1796.0</ele>
        <time>2019-08-04T14:22:08.323Z</time>
      </trkpt>
      <trkpt lat="42.53384333" lon="1.60521">
        <ele>1796.0</ele>
        <time>2019-08-04T14:22:09.316Z</time>
      </trkpt>
      <trkpt lat="42.53386333" lon="1.60515333">
        <ele>1796.0</ele>
        <time>2019-08-04T14:22:10.323Z</time>
      </trkpt>
      <trkpt lat="42.53387333" lon="1.60512667">
        <ele>1796.0</ele>
        <time>2019-08-04T14:22:11.333Z</time>
      </trkpt>
      <trkpt lat="42.53388333" lon="1.60509667">
        <ele>1796.0</ele>
        <time>2019-08-04T14:22:12.323Z</time>
      </trkpt>
      <trkpt lat="42.53388333" lon="1.60509667">
        <ele>1796.0</ele>
        <time>2019-08-04T14:22:13.464Z</time>
      </trkpt>
      <trkpt lat="42.53389167" lon="1.60506667">
        <ele>1796.0</ele>
        <time>2019-08-04T14:22:14.335Z</time>
      </trkpt>
      <trkpt lat="42.53391333" lon="1.60500833">
        <ele>1796.0</ele>
        <time>2019-08-04T14:22:15.323Z</time>
      </trkpt>
      <trkpt lat="42.53391333" lon="1.60500833">
        <ele>1796.0</ele>
        <time>2019-08-04T14:22:16.329Z</time>
      </trkpt>
      <trkpt lat="42.53393333" lon="1.60495333">
        <ele>1796.0</ele>
        <time>2019-08-04T14:22:17.323Z</time>
      </trkpt>
      <trkpt lat="42.53393333" lon="1.60495333">
        <ele>1796.0</ele>
        <time>2019-08-04T14:22:18.319Z</time>
      </trkpt>
      <trkpt lat="42.533955" lon="1.60489833">
        <ele>1797.0</ele>
        <time>2019-08-04T14:22:19.323Z</time>
      </trkpt>
      <trkpt lat="42.53396333" lon="1.60486833">
        <ele>1797.0</ele>
        <time>2019-08-04T14:22:20.322Z</time>
      </trkpt>
      <trkpt lat="42.53396333" lon="1.60486833">
        <ele>1797.0</ele>
        <time>2019-08-04T14:22:21.320Z</time>
      </trkpt>
      <trkpt lat="42.53398167" lon="1.60481167">
        <ele>1797.0</ele>
        <time>2019-08-04T14:22:22.301Z</time>
      </trkpt>
      <trkpt lat="42.53399" lon="1.60478333">
        <ele>1797.0</ele>
        <time>2019-08-04T14:22:23.321Z</time>
      </trkpt>
      <trkpt lat="42.53399833" lon="1.604755">
        <ele>1797.0</ele>
        <time>2019-08-04T14:22:24.329Z</time>
      </trkpt>
      <trkpt lat="42.53399833" lon="1.604755">
        <ele>1797.0</ele>
        <time>2019-08-04T14:22:25.317Z</time>
      </trkpt>
      <trkpt lat="42.53401667" lon="1.604695">
        <ele>1797.0</ele>
        <time>2019-08-04T14:22:26.322Z</time>
      </trkpt>
      <trkpt lat="42.53401667" lon="1.604695">
        <ele>1797.0</ele>
        <time>2019-08-04T14:22:27.321Z</time>
      </trkpt>
      <trkpt lat="42.53403333" lon="1.60463333">
        <ele>1798.0</ele>
        <time>2019-08-04T14:22:28.323Z</time>
      </trkpt>
      <trkpt lat="42.53403333" lon="1.60463333">
        <ele>1798.0</ele>
        <time>2019-08-04T14:22:29.301Z</time>
      </trkpt>
      <trkpt lat="42.53405" lon="1.60457333">
        <ele>1798.0</ele>
        <time>2019-08-04T14:22:30.313Z</time>
      </trkpt>
      <trkpt lat="42.53405667" lon="1.604545">
        <ele>1798.0</ele>
        <time>2019-08-04T14:22:31.322Z</time>
      </trkpt>
      <trkpt lat="42.53406333" lon="1.60451667">
        <ele>1798.0</ele>
        <time>2019-08-04T14:22:32.323Z</time>
      </trkpt>
      <trkpt lat="42.53406333" lon="1.60451667">
        <ele>1798.0</ele>
        <time>2019-08-04T14:22:33.318Z</time>
      </trkpt>
      <trkpt lat="42.53407667" lon="1.60445">
        <ele>1799.0</ele>
        <time>2019-08-04T14:22:34.323Z</time>
      </trkpt>
      <trkpt lat="42.53408333" lon="1.60441833">
        <ele>1799.0</ele>
        <time>2019-08-04T14:22:35.323Z</time>
      </trkpt>
      <trkpt lat="42.53408333" lon="1.60441833">
        <ele>1799.0</ele>
        <time>2019-08-04T14:22:36.321Z</time>
      </trkpt>
      <trkpt lat="42.53409333" lon="1.60435333">
        <ele>1800.0</ele>
        <time>2019-08-04T14:22:37.323Z</time>
      </trkpt>
      <trkpt lat="42.53409833" lon="1.60431833">
        <ele>1800.0</ele>
        <time>2019-08-04T14:22:38.323Z</time>
      </trkpt>
      <trkpt lat="42.53409833" lon="1.60431833">
        <ele>1800.0</ele>
        <time>2019-08-04T14:22:39.318Z</time>
      </trkpt>
      <trkpt lat="42.53411167" lon="1.60424333">
        <ele>1801.0</ele>
        <time>2019-08-04T14:22:40.323Z</time>
      </trkpt>
      <trkpt lat="42.53411167" lon="1.60424333">
        <ele>1801.0</ele>
        <time>2019-08-04T14:22:41.317Z</time>
      </trkpt>
      <trkpt lat="42.53412833" lon="1.604165">
        <ele>1801.0</ele>
        <time>2019-08-04T14:22:42.303Z</time>
      </trkpt>
      <trkpt lat="42.53412833" lon="1.604165">
        <ele>1801.0</ele>
        <time>2019-08-04T14:22:43.322Z</time>
      </trkpt>
      <trkpt lat="42.53415" lon="1.60408667">
        <ele>1801.0</ele>
        <time>2019-08-04T14:22:44.323Z</time>
      </trkpt>
      <trkpt lat="42.534165" lon="1.60405">
        <ele>1801.0</ele>
        <time>2019-08-04T14:22:45.322Z</time>
      </trkpt>
      <trkpt lat="42.534165" lon="1.60405">
        <ele>1801.0</ele>
        <time>2019-08-04T14:22:46.317Z</time>
      </trkpt>
      <trkpt lat="42.5342" lon="1.603985">
        <ele>1802.0</ele>
        <time>2019-08-04T14:22:47.301Z</time>
      </trkpt>
      <trkpt lat="42.53422167" lon="1.60396167">
        <ele>1802.0</ele>
        <time>2019-08-04T14:22:48.324Z</time>
      </trkpt>
      <trkpt lat="42.53422167" lon="1.60396167">
        <ele>1802.0</ele>
        <time>2019-08-04T14:22:49.318Z</time>
      </trkpt>
      <trkpt lat="42.534275" lon="1.60394333">
        <ele>1803.0</ele>
        <time>2019-08-04T14:22:50.323Z</time>
      </trkpt>
      <trkpt lat="42.534275" lon="1.60394333">
        <ele>1803.0</ele>
        <time>2019-08-04T14:22:51.317Z</time>
      </trkpt>
      <trkpt lat="42.53432333" lon="1.60397333">
        <ele>1803.0</ele>
        <time>2019-08-04T14:22:52.297Z</time>
      </trkpt>
      <trkpt lat="42.53433833" lon="1.604">
        <ele>1804.0</ele>
        <time>2019-08-04T14:22:53.322Z</time>
      </trkpt>
      <trkpt lat="42.53434833" lon="1.60403">
        <ele>1804.0</ele>
        <time>2019-08-04T14:22:54.329Z</time>
      </trkpt>
      <trkpt lat="42.53434833" lon="1.60403">
        <ele>1804.0</ele>
        <time>2019-08-04T14:22:55.318Z</time>
      </trkpt>
      <trkpt lat="42.53436" lon="1.60409">
        <ele>1805.0</ele>
        <time>2019-08-04T14:22:56.324Z</time>
      </trkpt>
      <trkpt lat="42.53436" lon="1.60409">
        <ele>1805.0</ele>
        <time>2019-08-04T14:22:57.317Z</time>
      </trkpt>
      <trkpt lat="42.53434833" lon="1.60415333">
        <ele>1805.0</ele>
        <time>2019-08-04T14:22:58.322Z</time>
      </trkpt>
      <trkpt lat="42.53434833" lon="1.60415333">
        <ele>1805.0</ele>
        <time>2019-08-04T14:22:59.302Z</time>
      </trkpt>
      <trkpt lat="42.53433333" lon="1.604215">
        <ele>1807.0</ele>
        <time>2019-08-04T14:23:00.323Z</time>
      </trkpt>
      <trkpt lat="42.53433333" lon="1.604215">
        <ele>1807.0</ele>
        <time>2019-08-04T14:23:01.317Z</time>
      </trkpt>
      <trkpt lat="42.53432167" lon="1.60427333">
        <ele>1807.0</ele>
        <time>2019-08-04T14:23:02.297Z</time>
      </trkpt>
      <trkpt lat="42.53432167" lon="1.60427333">
        <ele>1807.0</ele>
        <time>2019-08-04T14:23:03.317Z</time>
      </trkpt>
      <trkpt lat="42.53430833" lon="1.60433167">
        <ele>1808.0</ele>
        <time>2019-08-04T14:23:04.297Z</time>
      </trkpt>
      <trkpt lat="42.53430833" lon="1.60433167">
        <ele>1808.0</ele>
        <time>2019-08-04T14:23:05.317Z</time>
      </trkpt>
      <trkpt lat="42.53429667" lon="1.60438833">
        <ele>1809.0</ele>
        <time>2019-08-04T14:23:06.319Z</time>
      </trkpt>
      <trkpt lat="42.53429667" lon="1.60438833">
        <ele>1809.0</ele>
        <time>2019-08-04T14:23:07.335Z</time>
      </trkpt>
      <trkpt lat="42.53428333" lon="1.60443833">
        <ele>1810.0</ele>
        <time>2019-08-04T14:23:08.323Z</time>
      </trkpt>
      <trkpt lat="42.53428333" lon="1.60443833">
        <ele>1810.0</ele>
        <time>2019-08-04T14:23:09.316Z</time>
      </trkpt>
      <trkpt lat="42.53427167" lon="1.60448833">
        <ele>1810.0</ele>
        <time>2019-08-04T14:23:10.296Z</time>
      </trkpt>
      <trkpt lat="42.53427167" lon="1.60448833">
        <ele>1810.0</ele>
        <time>2019-08-04T14:23:11.317Z</time>
      </trkpt>
      <trkpt lat="42.53426167" lon="1.60454167">
        <ele>1811.0</ele>
        <time>2019-08-04T14:23:12.298Z</time>
      </trkpt>
      <trkpt lat="42.53426167" lon="1.60454167">
        <ele>1811.0</ele>
        <time>2019-08-04T14:23:13.317Z</time>
      </trkpt>
      <trkpt lat="42.53425667" lon="1.60459667">
        <ele>1811.0</ele>
        <time>2019-08-04T14:23:14.309Z</time>
      </trkpt>
      <trkpt lat="42.53425667" lon="1.60459667">
        <ele>1811.0</ele>
        <time>2019-08-04T14:23:15.300Z</time>
      </trkpt>
      <trkpt lat="42.53424833" lon="1.604645">
        <ele>1812.0</ele>
        <time>2019-08-04T14:23:16.323Z</time>
      </trkpt>
      <trkpt lat="42.53424833" lon="1.604645">
        <ele>1812.0</ele>
        <time>2019-08-04T14:23:17.302Z</time>
      </trkpt>
      <trkpt lat="42.53424833" lon="1.604645">
        <ele>1812.0</ele>
        <time>2019-08-04T14:23:18.466Z</time>
      </trkpt>
      <trkpt lat="42.53424167" lon="1.60469833">
        <ele>1812.0</ele>
        <time>2019-08-04T14:23:19.324Z</time>
      </trkpt>
      <trkpt lat="42.53423333" lon="1.60475333">
        <ele>1812.0</ele>
        <time>2019-08-04T14:23:20.330Z</time>
      </trkpt>
      <trkpt lat="42.53423333" lon="1.60475333">
        <ele>1812.0</ele>
        <time>2019-08-04T14:23:21.296Z</time>
      </trkpt>
      <trkpt lat="42.534225" lon="1.60480667">
        <ele>1813.0</ele>
        <time>2019-08-04T14:23:22.321Z</time>
      </trkpt>
      <trkpt lat="42.53422" lon="1.60483333">
        <ele>1813.0</ele>
        <time>2019-08-04T14:23:23.323Z</time>
      </trkpt>
      <trkpt lat="42.53422" lon="1.60483333">
        <ele>1813.0</ele>
        <time>2019-08-04T14:23:24.319Z</time>
      </trkpt>
      <trkpt lat="42.53421333" lon="1.60489">
        <ele>1813.0</ele>
        <time>2019-08-04T14:23:25.296Z</time>
      </trkpt>
      <trkpt lat="42.53421333" lon="1.60489">
        <ele>1813.0</ele>
        <time>2019-08-04T14:23:26.318Z</time>
      </trkpt>
      <trkpt lat="42.53420167" lon="1.60494333">
        <ele>1814.0</ele>
        <time>2019-08-04T14:23:27.323Z</time>
      </trkpt>
      <trkpt lat="42.53420167" lon="1.60494333">
        <ele>1814.0</ele>
        <time>2019-08-04T14:23:28.318Z</time>
      </trkpt>
      <trkpt lat="42.53419167" lon="1.60499833">
        <ele>1815.0</ele>
        <time>2019-08-04T14:23:29.327Z</time>
      </trkpt>
      <trkpt lat="42.53418667" lon="1.60502667">
        <ele>1815.0</ele>
        <time>2019-08-04T14:23:30.313Z</time>
      </trkpt>
      <trkpt lat="42.53418667" lon="1.60502667">
        <ele>1815.0</ele>
        <time>2019-08-04T14:23:31.320Z</time>
      </trkpt>
      <trkpt lat="42.53417667" lon="1.60508167">
        <ele>1816.0</ele>
        <time>2019-08-04T14:23:32.326Z</time>
      </trkpt>
      <trkpt lat="42.53417667" lon="1.60508167">
        <ele>1816.0</ele>
        <time>2019-08-04T14:23:33.318Z</time>
      </trkpt>
      <trkpt lat="42.53416833" lon="1.60513667">
        <ele>1816.0</ele>
        <time>2019-08-04T14:23:34.329Z</time>
      </trkpt>
      <trkpt lat="42.53416833" lon="1.60513667">
        <ele>1816.0</ele>
        <time>2019-08-04T14:23:35.317Z</time>
      </trkpt>
      <trkpt lat="42.53415667" lon="1.60519167">
        <ele>1817.0</ele>
        <time>2019-08-04T14:23:36.298Z</time>
      </trkpt>
      <trkpt lat="42.53415667" lon="1.60519167">
        <ele>1817.0</ele>
        <time>2019-08-04T14:23:37.321Z</time>
      </trkpt>
      <trkpt lat="42.53414667" lon="1.60525">
        <ele>1818.0</ele>
        <time>2019-08-04T14:23:38.323Z</time>
      </trkpt>
      <trkpt lat="42.53414667" lon="1.60525">
        <ele>1818.0</ele>
        <time>2019-08-04T14:23:39.324Z</time>
      </trkpt>
      <trkpt lat="42.534135" lon="1.605305">
        <ele>1818.0</ele>
        <time>2019-08-04T14:23:40.323Z</time>
      </trkpt>
      <trkpt lat="42.534135" lon="1.605305">
        <ele>1818.0</ele>
        <time>2019-08-04T14:23:41.318Z</time>
      </trkpt>
      <trkpt lat="42.53412167" lon="1.60536167">
        <ele>1819.0</ele>
        <time>2019-08-04T14:23:42.300Z</time>
      </trkpt>
      <trkpt lat="42.53412167" lon="1.60536167">
        <ele>1819.0</ele>
        <time>2019-08-04T14:23:43.322Z</time>
      </trkpt>
      <trkpt lat="42.53410667" lon="1.605415">
        <ele>1819.0</ele>
        <time>2019-08-04T14:23:44.323Z</time>
      </trkpt>
      <trkpt lat="42.53410667" lon="1.605415">
        <ele>1819.0</ele>
        <time>2019-08-04T14:23:45.318Z</time>
      </trkpt>
      <trkpt lat="42.53409667" lon="1.60546833">
        <ele>1820.0</ele>
        <time>2019-08-04T14:23:46.298Z</time>
      </trkpt>
      <trkpt lat="42.53409167" lon="1.60549333">
        <ele>1820.0</ele>
        <time>2019-08-04T14:23:47.331Z</time>
      </trkpt>
      <trkpt lat="42.534085" lon="1.60551667">
        <ele>1820.0</ele>
        <time>2019-08-04T14:23:48.325Z</time>
      </trkpt>
      <trkpt lat="42.534085" lon="1.60551667">
        <ele>1820.0</ele>
        <time>2019-08-04T14:23:49.317Z</time>
      </trkpt>
      <trkpt lat="42.53407167" lon="1.60556333">
        <ele>1821.0</ele>
        <time>2019-08-04T14:23:50.323Z</time>
      </trkpt>
      <trkpt lat="42.53407167" lon="1.60556333">
        <ele>1821.0</ele>
        <time>2019-08-04T14:23:51.318Z</time>
      </trkpt>
      <trkpt lat="42.53405833" lon="1.60561167">
        <ele>1821.0</ele>
        <time>2019-08-04T14:23:52.298Z</time>
      </trkpt>
      <trkpt lat="42.53405167" lon="1.60563833">
        <ele>1821.0</ele>
        <time>2019-08-04T14:23:53.323Z</time>
      </trkpt>
      <trkpt lat="42.53405167" lon="1.60563833">
        <ele>1821.0</ele>
        <time>2019-08-04T14:23:54.325Z</time>
      </trkpt>
      <trkpt lat="42.534035" lon="1.60569">
        <ele>1822.0</ele>
        <time>2019-08-04T14:23:55.333Z</time>
      </trkpt>
      <trkpt lat="42.53402667" lon="1.60571667">
        <ele>1822.0</ele>
        <time>2019-08-04T14:23:56.323Z</time>
      </trkpt>
      <trkpt lat="42.53402667" lon="1.60571667">
        <ele>1822.0</ele>
        <time>2019-08-04T14:23:57.317Z</time>
      </trkpt>
      <trkpt lat="42.53401333" lon="1.60577167">
        <ele>1822.0</ele>
        <time>2019-08-04T14:23:58.322Z</time>
      </trkpt>
      <trkpt lat="42.53401333" lon="1.60577167">
        <ele>1822.0</ele>
        <time>2019-08-04T14:23:59.317Z</time>
      </trkpt>
      <trkpt lat="42.53399667" lon="1.605825">
        <ele>1822.0</ele>
        <time>2019-08-04T14:24:00.324Z</time>
      </trkpt>
      <trkpt lat="42.53399667" lon="1.605825">
        <ele>1822.0</ele>
        <time>2019-08-04T14:24:01.317Z</time>
      </trkpt>
      <trkpt lat="42.533985" lon="1.60587833">
        <ele>1823.0</ele>
        <time>2019-08-04T14:24:02.323Z</time>
      </trkpt>
      <trkpt lat="42.533985" lon="1.60587833">
        <ele>1823.0</ele>
        <time>2019-08-04T14:24:03.318Z</time>
      </trkpt>
      <trkpt lat="42.53397" lon="1.60593">
        <ele>1823.0</ele>
        <time>2019-08-04T14:24:04.298Z</time>
      </trkpt>
      <trkpt lat="42.53397" lon="1.60593">
        <ele>1823.0</ele>
        <time>2019-08-04T14:24:05.318Z</time>
      </trkpt>
      <trkpt lat="42.53395833" lon="1.60598167">
        <ele>1824.0</ele>
        <time>2019-08-04T14:24:06.319Z</time>
      </trkpt>
      <trkpt lat="42.53395833" lon="1.60598167">
        <ele>1824.0</ele>
        <time>2019-08-04T14:24:07.334Z</time>
      </trkpt>
      <trkpt lat="42.53394667" lon="1.60603333">
        <ele>1824.0</ele>
        <time>2019-08-04T14:24:08.324Z</time>
      </trkpt>
      <trkpt lat="42.53394667" lon="1.60603333">
        <ele>1824.0</ele>
        <time>2019-08-04T14:24:09.318Z</time>
      </trkpt>
      <trkpt lat="42.533935" lon="1.606085">
        <ele>1824.0</ele>
        <time>2019-08-04T14:24:10.323Z</time>
      </trkpt>
      <trkpt lat="42.533935" lon="1.606085">
        <ele>1824.0</ele>
        <time>2019-08-04T14:24:11.317Z</time>
      </trkpt>
      <trkpt lat="42.53392333" lon="1.60613667">
        <ele>1824.0</ele>
        <time>2019-08-04T14:24:12.297Z</time>
      </trkpt>
      <trkpt lat="42.53391833" lon="1.60616167">
        <ele>1825.0</ele>
        <time>2019-08-04T14:24:13.323Z</time>
      </trkpt>
      <trkpt lat="42.53391333" lon="1.60618833">
        <ele>1825.0</ele>
        <time>2019-08-04T14:24:14.323Z</time>
      </trkpt>
      <trkpt lat="42.53391333" lon="1.60618833">
        <ele>1825.0</ele>
        <time>2019-08-04T14:24:15.317Z</time>
      </trkpt>
      <trkpt lat="42.53389833" lon="1.60624167">
        <ele>1825.0</ele>
        <time>2019-08-04T14:24:16.298Z</time>
      </trkpt>
      <trkpt lat="42.53389833" lon="1.60624167">
        <ele>1825.0</ele>
        <time>2019-08-04T14:24:17.318Z</time>
      </trkpt>
      <trkpt lat="42.53389833" lon="1.60624167">
        <ele>1825.0</ele>
        <time>2019-08-04T14:24:18.471Z</time>
      </trkpt>
      <trkpt lat="42.53388333" lon="1.60629667">
        <ele>1825.0</ele>
        <time>2019-08-04T14:24:19.324Z</time>
      </trkpt>
      <trkpt lat="42.53386833" lon="1.60635167">
        <ele>1826.0</ele>
        <time>2019-08-04T14:24:20.330Z</time>
      </trkpt>
      <trkpt lat="42.53386833" lon="1.60635167">
        <ele>1826.0</ele>
        <time>2019-08-04T14:24:21.296Z</time>
      </trkpt>
      <trkpt lat="42.53385333" lon="1.606405">
        <ele>1826.0</ele>
        <time>2019-08-04T14:24:22.323Z</time>
      </trkpt>
      <trkpt lat="42.53385333" lon="1.606405">
        <ele>1826.0</ele>
        <time>2019-08-04T14:24:23.315Z</time>
      </trkpt>
      <trkpt lat="42.53384" lon="1.60645833">
        <ele>1826.0</ele>
        <time>2019-08-04T14:24:24.297Z</time>
      </trkpt>
      <trkpt lat="42.53384" lon="1.60645833">
        <ele>1826.0</ele>
        <time>2019-08-04T14:24:25.317Z</time>
      </trkpt>
      <trkpt lat="42.533825" lon="1.60651">
        <ele>1826.0</ele>
        <time>2019-08-04T14:24:26.323Z</time>
      </trkpt>
      <trkpt lat="42.533825" lon="1.60651">
        <ele>1826.0</ele>
        <time>2019-08-04T14:24:27.318Z</time>
      </trkpt>
      <trkpt lat="42.53381333" lon="1.60656167">
        <ele>1827.0</ele>
        <time>2019-08-04T14:24:28.322Z</time>
      </trkpt>
      <trkpt lat="42.53381333" lon="1.60656167">
        <ele>1827.0</ele>
        <time>2019-08-04T14:24:29.331Z</time>
      </trkpt>
      <trkpt lat="42.53380167" lon="1.60661">
        <ele>1827.0</ele>
        <time>2019-08-04T14:24:30.297Z</time>
      </trkpt>
      <trkpt lat="42.53380167" lon="1.60661">
        <ele>1827.0</ele>
        <time>2019-08-04T14:24:31.305Z</time>
      </trkpt>
      <trkpt lat="42.53378833" lon="1.60666167">
        <ele>1827.0</ele>
        <time>2019-08-04T14:24:32.314Z</time>
      </trkpt>
      <trkpt lat="42.53378833" lon="1.60666167">
        <ele>1827.0</ele>
        <time>2019-08-04T14:24:33.320Z</time>
      </trkpt>
      <trkpt lat="42.53377667" lon="1.60671667">
        <ele>1827.0</ele>
        <time>2019-08-04T14:24:34.334Z</time>
      </trkpt>
      <trkpt lat="42.53377667" lon="1.60671667">
        <ele>1827.0</ele>
        <time>2019-08-04T14:24:35.318Z</time>
      </trkpt>
      <trkpt lat="42.53376167" lon="1.60677">
        <ele>1828.0</ele>
        <time>2019-08-04T14:24:36.298Z</time>
      </trkpt>
      <trkpt lat="42.53376167" lon="1.60677">
        <ele>1828.0</ele>
        <time>2019-08-04T14:24:37.318Z</time>
      </trkpt>
      <trkpt lat="42.53375167" lon="1.606825">
        <ele>1828.0</ele>
        <time>2019-08-04T14:24:38.323Z</time>
      </trkpt>
      <trkpt lat="42.53375167" lon="1.606825">
        <ele>1828.0</ele>
        <time>2019-08-04T14:24:39.317Z</time>
      </trkpt>
      <trkpt lat="42.533735" lon="1.60688">
        <ele>1828.0</ele>
        <time>2019-08-04T14:24:40.298Z</time>
      </trkpt>
      <trkpt lat="42.533735" lon="1.60688">
        <ele>1828.0</ele>
        <time>2019-08-04T14:24:41.318Z</time>
      </trkpt>
      <trkpt lat="42.533725" lon="1.60693333">
        <ele>1829.0</ele>
        <time>2019-08-04T14:24:42.299Z</time>
      </trkpt>
      <trkpt lat="42.533725" lon="1.60693333">
        <ele>1829.0</ele>
        <time>2019-08-04T14:24:43.317Z</time>
      </trkpt>
      <trkpt lat="42.53371333" lon="1.60698667">
        <ele>1829.0</ele>
        <time>2019-08-04T14:24:44.301Z</time>
      </trkpt>
      <trkpt lat="42.53371333" lon="1.60698667">
        <ele>1829.0</ele>
        <time>2019-08-04T14:24:45.318Z</time>
      </trkpt>
      <trkpt lat="42.53370167" lon="1.60704167">
        <ele>1829.0</ele>
        <time>2019-08-04T14:24:46.298Z</time>
      </trkpt>
      <trkpt lat="42.53369667" lon="1.60706667">
        <ele>1830.0</ele>
        <time>2019-08-04T14:24:47.327Z</time>
      </trkpt>
      <trkpt lat="42.53369667" lon="1.60706667">
        <ele>1830.0</ele>
        <time>2019-08-04T14:24:48.300Z</time>
      </trkpt>
      <trkpt lat="42.53368667" lon="1.60712167">
        <ele>1830.0</ele>
        <time>2019-08-04T14:24:49.323Z</time>
      </trkpt>
      <trkpt lat="42.53368667" lon="1.60712167">
        <ele>1830.0</ele>
        <time>2019-08-04T14:24:50.314Z</time>
      </trkpt>
      <trkpt lat="42.53367833" lon="1.60717667">
        <ele>1830.0</ele>
        <time>2019-08-04T14:24:51.301Z</time>
      </trkpt>
      <trkpt lat="42.53367833" lon="1.60717667">
        <ele>1830.0</ele>
        <time>2019-08-04T14:24:52.320Z</time>
      </trkpt>
      <trkpt lat="42.53367167" lon="1.60723167">
        <ele>1831.0</ele>
        <time>2019-08-04T14:24:53.323Z</time>
      </trkpt>
      <trkpt lat="42.53366667" lon="1.60725833">
        <ele>1831.0</ele>
        <time>2019-08-04T14:24:54.308Z</time>
      </trkpt>
      <trkpt lat="42.53366667" lon="1.60725833">
        <ele>1831.0</ele>
        <time>2019-08-04T14:24:55.296Z</time>
      </trkpt>
      <trkpt lat="42.53365667" lon="1.60731333">
        <ele>1831.0</ele>
        <time>2019-08-04T14:24:56.323Z</time>
      </trkpt>
      <trkpt lat="42.53365667" lon="1.60731333">
        <ele>1831.0</ele>
        <time>2019-08-04T14:24:57.315Z</time>
      </trkpt>
      <trkpt lat="42.53365167" lon="1.607365">
        <ele>1831.0</ele>
        <time>2019-08-04T14:24:58.296Z</time>
      </trkpt>
      <trkpt lat="42.53365167" lon="1.607365">
        <ele>1831.0</ele>
        <time>2019-08-04T14:24:59.318Z</time>
      </trkpt>
      <trkpt lat="42.533645" lon="1.60741667">
        <ele>1831.0</ele>
        <time>2019-08-04T14:25:00.298Z</time>
      </trkpt>
      <trkpt lat="42.53364" lon="1.60744333">
        <ele>1832.0</ele>
        <time>2019-08-04T14:25:01.324Z</time>
      </trkpt>
      <trkpt lat="42.533635" lon="1.60747">
        <ele>1832.0</ele>
        <time>2019-08-04T14:25:02.324Z</time>
      </trkpt>
      <trkpt lat="42.533635" lon="1.60747">
        <ele>1832.0</ele>
        <time>2019-08-04T14:25:03.318Z</time>
      </trkpt>
      <trkpt lat="42.53362667" lon="1.607525">
        <ele>1832.0</ele>
        <time>2019-08-04T14:25:04.323Z</time>
      </trkpt>
      <trkpt lat="42.53362667" lon="1.607525">
        <ele>1832.0</ele>
        <time>2019-08-04T14:25:05.299Z</time>
      </trkpt>
      <trkpt lat="42.53361833" lon="1.60757833">
        <ele>1832.0</ele>
        <time>2019-08-04T14:25:06.324Z</time>
      </trkpt>
      <trkpt lat="42.53361833" lon="1.60757833">
        <ele>1832.0</ele>
        <time>2019-08-04T14:25:07.318Z</time>
      </trkpt>
      <trkpt lat="42.53360833" lon="1.60763333">
        <ele>1832.0</ele>
        <time>2019-08-04T14:25:08.298Z</time>
      </trkpt>
      <trkpt lat="42.53360833" lon="1.60763333">
        <ele>1832.0</ele>
        <time>2019-08-04T14:25:09.318Z</time>
      </trkpt>
      <trkpt lat="42.53359833" lon="1.60768833">
        <ele>1832.0</ele>
        <time>2019-08-04T14:25:10.301Z</time>
      </trkpt>
      <trkpt lat="42.53359333" lon="1.607715">
        <ele>1832.0</ele>
        <time>2019-08-04T14:25:11.323Z</time>
      </trkpt>
      <trkpt lat="42.53358833" lon="1.60774333">
        <ele>1832.0</ele>
        <time>2019-08-04T14:25:12.324Z</time>
      </trkpt>
      <trkpt lat="42.53358833" lon="1.60774333">
        <ele>1832.0</ele>
        <time>2019-08-04T14:25:13.318Z</time>
      </trkpt>
      <trkpt lat="42.53358167" lon="1.6078">
        <ele>1833.0</ele>
        <time>2019-08-04T14:25:14.298Z</time>
      </trkpt>
      <trkpt lat="42.53357833" lon="1.607825">
        <ele>1833.0</ele>
        <time>2019-08-04T14:25:15.325Z</time>
      </trkpt>
      <trkpt lat="42.53357833" lon="1.607825">
        <ele>1833.0</ele>
        <time>2019-08-04T14:25:16.318Z</time>
      </trkpt>
      <trkpt lat="42.53357" lon="1.60788">
        <ele>1833.0</ele>
        <time>2019-08-04T14:25:17.298Z</time>
      </trkpt>
      <trkpt lat="42.53357" lon="1.60788">
        <ele>1833.0</ele>
        <time>2019-08-04T14:25:18.465Z</time>
      </trkpt>
      <trkpt lat="42.53356333" lon="1.60790833">
        <ele>1833.0</ele>
        <time>2019-08-04T14:25:19.324Z</time>
      </trkpt>
      <trkpt lat="42.533555" lon="1.607965">
        <ele>1833.0</ele>
        <time>2019-08-04T14:25:20.315Z</time>
      </trkpt>
      <trkpt lat="42.53355" lon="1.60799333">
        <ele>1833.0</ele>
        <time>2019-08-04T14:25:21.298Z</time>
      </trkpt>
      <trkpt lat="42.53355" lon="1.60799333">
        <ele>1833.0</ele>
        <time>2019-08-04T14:25:22.320Z</time>
      </trkpt>
      <trkpt lat="42.533545" lon="1.60804833">
        <ele>1833.0</ele>
        <time>2019-08-04T14:25:23.324Z</time>
      </trkpt>
      <trkpt lat="42.53354333" lon="1.60807667">
        <ele>1833.0</ele>
        <time>2019-08-04T14:25:24.297Z</time>
      </trkpt>
      <trkpt lat="42.53354333" lon="1.60807667">
        <ele>1833.0</ele>
        <time>2019-08-04T14:25:25.316Z</time>
      </trkpt>
      <trkpt lat="42.533535" lon="1.60812667">
        <ele>1834.0</ele>
        <time>2019-08-04T14:25:26.301Z</time>
      </trkpt>
      <trkpt lat="42.533535" lon="1.60812667">
        <ele>1834.0</ele>
        <time>2019-08-04T14:25:27.320Z</time>
      </trkpt>
      <trkpt lat="42.53353167" lon="1.60817667">
        <ele>1834.0</ele>
        <time>2019-08-04T14:25:28.324Z</time>
      </trkpt>
      <trkpt lat="42.53353167" lon="1.60817667">
        <ele>1834.0</ele>
        <time>2019-08-04T14:25:29.325Z</time>
      </trkpt>
      <trkpt lat="42.53352833" lon="1.60822833">
        <ele>1834.0</ele>
        <time>2019-08-04T14:25:30.296Z</time>
      </trkpt>
      <trkpt lat="42.53352667" lon="1.60825333">
        <ele>1834.0</ele>
        <time>2019-08-04T14:25:31.311Z</time>
      </trkpt>
      <trkpt lat="42.53352667" lon="1.60825333">
        <ele>1834.0</ele>
        <time>2019-08-04T14:25:32.317Z</time>
      </trkpt>
      <trkpt lat="42.53352167" lon="1.60830667">
        <ele>1835.0</ele>
        <time>2019-08-04T14:25:33.324Z</time>
      </trkpt>
      <trkpt lat="42.53352" lon="1.60833333">
        <ele>1835.0</ele>
        <time>2019-08-04T14:25:34.297Z</time>
      </trkpt>
      <trkpt lat="42.53352" lon="1.60833333">
        <ele>1835.0</ele>
        <time>2019-08-04T14:25:35.318Z</time>
      </trkpt>
      <trkpt lat="42.533515" lon="1.60838333">
        <ele>1835.0</ele>
        <time>2019-08-04T14:25:36.298Z</time>
      </trkpt>
      <trkpt lat="42.533515" lon="1.60838333">
        <ele>1835.0</ele>
        <time>2019-08-04T14:25:37.321Z</time>
      </trkpt>
      <trkpt lat="42.53351" lon="1.608435">
        <ele>1836.0</ele>
        <time>2019-08-04T14:25:38.298Z</time>
      </trkpt>
      <trkpt lat="42.53351" lon="1.608435">
        <ele>1836.0</ele>
        <time>2019-08-04T14:25:39.316Z</time>
      </trkpt>
      <trkpt lat="42.533505" lon="1.60848833">
        <ele>1836.0</ele>
        <time>2019-08-04T14:25:40.296Z</time>
      </trkpt>
      <trkpt lat="42.533505" lon="1.60848833">
        <ele>1836.0</ele>
        <time>2019-08-04T14:25:41.319Z</time>
      </trkpt>
      <trkpt lat="42.533505" lon="1.60854167">
        <ele>1837.0</ele>
        <time>2019-08-04T14:25:42.299Z</time>
      </trkpt>
      <trkpt lat="42.53350167" lon="1.60856833">
        <ele>1837.0</ele>
        <time>2019-08-04T14:25:43.323Z</time>
      </trkpt>
      <trkpt lat="42.5335" lon="1.608595">
        <ele>1837.0</ele>
        <time>2019-08-04T14:25:44.334Z</time>
      </trkpt>
      <trkpt lat="42.5335" lon="1.608595">
        <ele>1837.0</ele>
        <time>2019-08-04T14:25:45.298Z</time>
      </trkpt>
      <trkpt lat="42.53349833" lon="1.60864667">
        <ele>1838.0</ele>
        <time>2019-08-04T14:25:46.322Z</time>
      </trkpt>
      <trkpt lat="42.53349833" lon="1.60864667">
        <ele>1838.0</ele>
        <time>2019-08-04T14:25:47.325Z</time>
      </trkpt>
      <trkpt lat="42.53349667" lon="1.60869833">
        <ele>1838.0</ele>
        <time>2019-08-04T14:25:48.331Z</time>
      </trkpt>
      <trkpt lat="42.53349667" lon="1.60869833">
        <ele>1838.0</ele>
        <time>2019-08-04T14:25:49.318Z</time>
      </trkpt>
      <trkpt lat="42.53349" lon="1.60874833">
        <ele>1839.0</ele>
        <time>2019-08-04T14:25:50.298Z</time>
      </trkpt>
      <trkpt lat="42.53349" lon="1.60874833">
        <ele>1839.0</ele>
        <time>2019-08-04T14:25:51.319Z</time>
      </trkpt>
      <trkpt lat="42.53348667" lon="1.60879833">
        <ele>1839.0</ele>
        <time>2019-08-04T14:25:52.323Z</time>
      </trkpt>
      <trkpt lat="42.53348333" lon="1.60882333">
        <ele>1839.0</ele>
        <time>2019-08-04T14:25:53.323Z</time>
      </trkpt>
      <trkpt lat="42.53348333" lon="1.60882333">
        <ele>1839.0</ele>
        <time>2019-08-04T14:25:54.321Z</time>
      </trkpt>
      <trkpt lat="42.53347833" lon="1.60887167">
        <ele>1839.0</ele>
        <time>2019-08-04T14:25:55.301Z</time>
      </trkpt>
      <trkpt lat="42.53347833" lon="1.60887167">
        <ele>1839.0</ele>
        <time>2019-08-04T14:25:56.320Z</time>
      </trkpt>
      <trkpt lat="42.53347333" lon="1.60892167">
        <ele>1840.0</ele>
        <time>2019-08-04T14:25:57.323Z</time>
      </trkpt>
      <trkpt lat="42.53347333" lon="1.60892167">
        <ele>1840.0</ele>
        <time>2019-08-04T14:25:58.318Z</time>
      </trkpt>
      <trkpt lat="42.53347167" lon="1.60897167">
        <ele>1840.0</ele>
        <time>2019-08-04T14:25:59.298Z</time>
      </trkpt>
      <trkpt lat="42.53347" lon="1.60899833">
        <ele>1840.0</ele>
        <time>2019-08-04T14:26:00.302Z</time>
      </trkpt>
      <trkpt lat="42.53347" lon="1.60899833">
        <ele>1840.0</ele>
        <time>2019-08-04T14:26:01.333Z</time>
      </trkpt>
      <trkpt lat="42.53346833" lon="1.60905">
        <ele>1840.0</ele>
        <time>2019-08-04T14:26:02.324Z</time>
      </trkpt>
      <trkpt lat="42.53346833" lon="1.60905">
        <ele>1840.0</ele>
        <time>2019-08-04T14:26:03.318Z</time>
      </trkpt>
      <trkpt lat="42.53346667" lon="1.6091">
        <ele>1841.0</ele>
        <time>2019-08-04T14:26:04.298Z</time>
      </trkpt>
      <trkpt lat="42.53346667" lon="1.609125">
        <ele>1841.0</ele>
        <time>2019-08-04T14:26:05.336Z</time>
      </trkpt>
      <trkpt lat="42.53346833" lon="1.60915167">
        <ele>1841.0</ele>
        <time>2019-08-04T14:26:06.331Z</time>
      </trkpt>
      <trkpt lat="42.53346833" lon="1.60915167">
        <ele>1841.0</ele>
        <time>2019-08-04T14:26:07.321Z</time>
      </trkpt>
      <trkpt lat="42.533465" lon="1.609205">
        <ele>1841.0</ele>
        <time>2019-08-04T14:26:08.323Z</time>
      </trkpt>
      <trkpt lat="42.533465" lon="1.609205">
        <ele>1841.0</ele>
        <time>2019-08-04T14:26:09.318Z</time>
      </trkpt>
      <trkpt lat="42.533465" lon="1.609205">
        <ele>1841.0</ele>
        <time>2019-08-04T14:26:10.474Z</time>
      </trkpt>
      <trkpt lat="42.53346" lon="1.60925667">
        <ele>1842.0</ele>
        <time>2019-08-04T14:26:11.333Z</time>
      </trkpt>
      <trkpt lat="42.53345833" lon="1.60931">
        <ele>1842.0</ele>
        <time>2019-08-04T14:26:12.299Z</time>
      </trkpt>
      <trkpt lat="42.53345833" lon="1.60931">
        <ele>1842.0</ele>
        <time>2019-08-04T14:26:13.306Z</time>
      </trkpt>
      <trkpt lat="42.53345667" lon="1.60936333">
        <ele>1842.0</ele>
        <time>2019-08-04T14:26:14.324Z</time>
      </trkpt>
      <trkpt lat="42.53345667" lon="1.60936333">
        <ele>1842.0</ele>
        <time>2019-08-04T14:26:15.319Z</time>
      </trkpt>
      <trkpt lat="42.533455" lon="1.60942167">
        <ele>1843.0</ele>
        <time>2019-08-04T14:26:16.323Z</time>
      </trkpt>
      <trkpt lat="42.533455" lon="1.60942167">
        <ele>1843.0</ele>
        <time>2019-08-04T14:26:17.330Z</time>
      </trkpt>
      <trkpt lat="42.533455" lon="1.60947833">
        <ele>1843.0</ele>
        <time>2019-08-04T14:26:18.324Z</time>
      </trkpt>
      <trkpt lat="42.533455" lon="1.60947833">
        <ele>1843.0</ele>
        <time>2019-08-04T14:26:19.319Z</time>
      </trkpt>
      <trkpt lat="42.53345167" lon="1.60953333">
        <ele>1844.0</ele>
        <time>2019-08-04T14:26:20.298Z</time>
      </trkpt>
      <trkpt lat="42.53345167" lon="1.60953333">
        <ele>1844.0</ele>
        <time>2019-08-04T14:26:21.323Z</time>
      </trkpt>
      <trkpt lat="42.53345167" lon="1.609585">
        <ele>1844.0</ele>
        <time>2019-08-04T14:26:22.323Z</time>
      </trkpt>
      <trkpt lat="42.53345167" lon="1.609585">
        <ele>1844.0</ele>
        <time>2019-08-04T14:26:23.321Z</time>
      </trkpt>
      <trkpt lat="42.53345" lon="1.60963667">
        <ele>1845.0</ele>
        <time>2019-08-04T14:26:24.325Z</time>
      </trkpt>
      <trkpt lat="42.53345" lon="1.60963667">
        <ele>1845.0</ele>
        <time>2019-08-04T14:26:25.321Z</time>
      </trkpt>
      <trkpt lat="42.53345" lon="1.60969">
        <ele>1845.0</ele>
        <time>2019-08-04T14:26:26.323Z</time>
      </trkpt>
      <trkpt lat="42.53345" lon="1.60969">
        <ele>1845.0</ele>
        <time>2019-08-04T14:26:27.323Z</time>
      </trkpt>
      <trkpt lat="42.53345167" lon="1.60974">
        <ele>1845.0</ele>
        <time>2019-08-04T14:26:28.324Z</time>
      </trkpt>
      <trkpt lat="42.53345167" lon="1.60974">
        <ele>1845.0</ele>
        <time>2019-08-04T14:26:29.301Z</time>
      </trkpt>
      <trkpt lat="42.533455" lon="1.60979333">
        <ele>1846.0</ele>
        <time>2019-08-04T14:26:30.321Z</time>
      </trkpt>
      <trkpt lat="42.53345667" lon="1.60982">
        <ele>1847.0</ele>
        <time>2019-08-04T14:26:31.328Z</time>
      </trkpt>
      <trkpt lat="42.53345833" lon="1.609845">
        <ele>1847.0</ele>
        <time>2019-08-04T14:26:32.324Z</time>
      </trkpt>
      <trkpt lat="42.53345833" lon="1.609845">
        <ele>1847.0</ele>
        <time>2019-08-04T14:26:33.319Z</time>
      </trkpt>
      <trkpt lat="42.53346167" lon="1.609895">
        <ele>1847.0</ele>
        <time>2019-08-04T14:26:34.324Z</time>
      </trkpt>
      <trkpt lat="42.53346167" lon="1.609895">
        <ele>1847.0</ele>
        <time>2019-08-04T14:26:35.319Z</time>
      </trkpt>
      <trkpt lat="42.53346" lon="1.60994333">
        <ele>1847.0</ele>
        <time>2019-08-04T14:26:36.296Z</time>
      </trkpt>
      <trkpt lat="42.53346" lon="1.60994333">
        <ele>1847.0</ele>
        <time>2019-08-04T14:26:37.323Z</time>
      </trkpt>
      <trkpt lat="42.53345833" lon="1.60999167">
        <ele>1848.0</ele>
        <time>2019-08-04T14:26:38.324Z</time>
      </trkpt>
      <trkpt lat="42.53345833" lon="1.60999167">
        <ele>1848.0</ele>
        <time>2019-08-04T14:26:39.322Z</time>
      </trkpt>
      <trkpt lat="42.53345833" lon="1.61004">
        <ele>1848.0</ele>
        <time>2019-08-04T14:26:40.321Z</time>
      </trkpt>
      <trkpt lat="42.53345833" lon="1.61004">
        <ele>1848.0</ele>
        <time>2019-08-04T14:26:41.321Z</time>
      </trkpt>
      <trkpt lat="42.53345667" lon="1.61008667">
        <ele>1848.0</ele>
        <time>2019-08-04T14:26:42.322Z</time>
      </trkpt>
      <trkpt lat="42.53345667" lon="1.61008667">
        <ele>1848.0</ele>
        <time>2019-08-04T14:26:43.319Z</time>
      </trkpt>
      <trkpt lat="42.53345333" lon="1.610135">
        <ele>1848.0</ele>
        <time>2019-08-04T14:26:44.324Z</time>
      </trkpt>
      <trkpt lat="42.53345333" lon="1.610135">
        <ele>1848.0</ele>
        <time>2019-08-04T14:26:45.319Z</time>
      </trkpt>
      <trkpt lat="42.53345167" lon="1.61018333">
        <ele>1849.0</ele>
        <time>2019-08-04T14:26:46.323Z</time>
      </trkpt>
      <trkpt lat="42.53345167" lon="1.61018333">
        <ele>1849.0</ele>
        <time>2019-08-04T14:26:47.318Z</time>
      </trkpt>
      <trkpt lat="42.533455" lon="1.61023">
        <ele>1849.0</ele>
        <time>2019-08-04T14:26:48.298Z</time>
      </trkpt>
      <trkpt lat="42.533455" lon="1.61023">
        <ele>1849.0</ele>
        <time>2019-08-04T14:26:49.318Z</time>
      </trkpt>
      <trkpt lat="42.533455" lon="1.61027667">
        <ele>1849.0</ele>
        <time>2019-08-04T14:26:50.298Z</time>
      </trkpt>
      <trkpt lat="42.533455" lon="1.61027667">
        <ele>1849.0</ele>
        <time>2019-08-04T14:26:51.317Z</time>
      </trkpt>
      <trkpt lat="42.53345667" lon="1.610325">
        <ele>1849.0</ele>
        <time>2019-08-04T14:26:52.298Z</time>
      </trkpt>
      <trkpt lat="42.53345833" lon="1.61035">
        <ele>1850.0</ele>
        <time>2019-08-04T14:26:53.323Z</time>
      </trkpt>
      <trkpt lat="42.53345833" lon="1.61037333">
        <ele>1850.0</ele>
        <time>2019-08-04T14:26:54.322Z</time>
      </trkpt>
      <trkpt lat="42.53345833" lon="1.61037333">
        <ele>1850.0</ele>
        <time>2019-08-04T14:26:55.298Z</time>
      </trkpt>
      <trkpt lat="42.53346" lon="1.610425">
        <ele>1851.0</ele>
        <time>2019-08-04T14:26:56.323Z</time>
      </trkpt>
      <trkpt lat="42.53346" lon="1.610425">
        <ele>1851.0</ele>
        <time>2019-08-04T14:26:57.303Z</time>
      </trkpt>
      <trkpt lat="42.53346333" lon="1.610475">
        <ele>1851.0</ele>
        <time>2019-08-04T14:26:58.301Z</time>
      </trkpt>
      <trkpt lat="42.533465" lon="1.61049833">
        <ele>1851.0</ele>
        <time>2019-08-04T14:26:59.296Z</time>
      </trkpt>
      <trkpt lat="42.533465" lon="1.61049833">
        <ele>1851.0</ele>
        <time>2019-08-04T14:27:00.322Z</time>
      </trkpt>
      <trkpt lat="42.53347" lon="1.61054667">
        <ele>1852.0</ele>
        <time>2019-08-04T14:27:01.303Z</time>
      </trkpt>
      <trkpt lat="42.53347167" lon="1.61057167">
        <ele>1852.0</ele>
        <time>2019-08-04T14:27:02.324Z</time>
      </trkpt>
      <trkpt lat="42.53347167" lon="1.61057167">
        <ele>1852.0</ele>
        <time>2019-08-04T14:27:03.319Z</time>
      </trkpt>
      <trkpt lat="42.533475" lon="1.61062167">
        <ele>1852.0</ele>
        <time>2019-08-04T14:27:04.297Z</time>
      </trkpt>
      <trkpt lat="42.533475" lon="1.61062167">
        <ele>1852.0</ele>
        <time>2019-08-04T14:27:05.321Z</time>
      </trkpt>
      <trkpt lat="42.53347667" lon="1.610675">
        <ele>1853.0</ele>
        <time>2019-08-04T14:27:06.324Z</time>
      </trkpt>
      <trkpt lat="42.53347667" lon="1.610675">
        <ele>1853.0</ele>
        <time>2019-08-04T14:27:07.320Z</time>
      </trkpt>
      <trkpt lat="42.53348" lon="1.61074">
        <ele>1853.0</ele>
        <time>2019-08-04T14:27:08.303Z</time>
      </trkpt>
      <trkpt lat="42.53348" lon="1.61074">
        <ele>1853.0</ele>
        <time>2019-08-04T14:27:09.322Z</time>
      </trkpt>
      <trkpt lat="42.53348333" lon="1.61080667">
        <ele>1854.0</ele>
        <time>2019-08-04T14:27:10.323Z</time>
      </trkpt>
      <trkpt lat="42.53348333" lon="1.61080667">
        <ele>1854.0</ele>
        <time>2019-08-04T14:27:11.302Z</time>
      </trkpt>
      <trkpt lat="42.533485" lon="1.61088667">
        <ele>1855.0</ele>
        <time>2019-08-04T14:27:12.324Z</time>
      </trkpt>
      <trkpt lat="42.533485" lon="1.61088667">
        <ele>1855.0</ele>
        <time>2019-08-04T14:27:13.321Z</time>
      </trkpt>
      <trkpt lat="42.53349" lon="1.61097333">
        <ele>1855.0</ele>
        <time>2019-08-04T14:27:14.497Z</time>
      </trkpt>
      <trkpt lat="42.53349" lon="1.61097333">
        <ele>1855.0</ele>
        <time>2019-08-04T14:27:15.300Z</time>
      </trkpt>
      <trkpt lat="42.5335" lon="1.61106">
        <ele>1856.0</ele>
        <time>2019-08-04T14:27:16.324Z</time>
      </trkpt>
      <trkpt lat="42.5335" lon="1.61106">
        <ele>1856.0</ele>
        <time>2019-08-04T14:27:17.318Z</time>
      </trkpt>
      <trkpt lat="42.53351167" lon="1.611145">
        <ele>1857.0</ele>
        <time>2019-08-04T14:27:18.324Z</time>
      </trkpt>
      <trkpt lat="42.53351167" lon="1.611145">
        <ele>1857.0</ele>
        <time>2019-08-04T14:27:19.321Z</time>
      </trkpt>
      <trkpt lat="42.53352" lon="1.61123167">
        <ele>1857.0</ele>
        <time>2019-08-04T14:27:20.325Z</time>
      </trkpt>
      <trkpt lat="42.53352" lon="1.61123167">
        <ele>1857.0</ele>
        <time>2019-08-04T14:27:21.320Z</time>
      </trkpt>
      <trkpt lat="42.53352833" lon="1.61131833">
        <ele>1858.0</ele>
        <time>2019-08-04T14:27:22.335Z</time>
      </trkpt>
      <trkpt lat="42.53353333" lon="1.61135833">
        <ele>1858.0</ele>
        <time>2019-08-04T14:27:23.323Z</time>
      </trkpt>
      <trkpt lat="42.53354167" lon="1.61139833">
        <ele>1859.0</ele>
        <time>2019-08-04T14:27:24.335Z</time>
      </trkpt>
      <trkpt lat="42.53354167" lon="1.61139833">
        <ele>1859.0</ele>
        <time>2019-08-04T14:27:25.319Z</time>
      </trkpt>
      <trkpt lat="42.53355167" lon="1.61147667">
        <ele>1859.0</ele>
        <time>2019-08-04T14:27:26.325Z</time>
      </trkpt>
      <trkpt lat="42.53355167" lon="1.61147667">
        <ele>1859.0</ele>
        <time>2019-08-04T14:27:27.321Z</time>
      </trkpt>
      <trkpt lat="42.53356" lon="1.61155667">
        <ele>1860.0</ele>
        <time>2019-08-04T14:27:28.324Z</time>
      </trkpt>
      <trkpt lat="42.53356" lon="1.61155667">
        <ele>1860.0</ele>
        <time>2019-08-04T14:27:29.310Z</time>
      </trkpt>
      <trkpt lat="42.53357" lon="1.611635">
        <ele>1860.0</ele>
        <time>2019-08-04T14:27:30.323Z</time>
      </trkpt>
      <trkpt lat="42.53357" lon="1.611635">
        <ele>1860.0</ele>
        <time>2019-08-04T14:27:31.299Z</time>
      </trkpt>
      <trkpt lat="42.53358167" lon="1.61171">
        <ele>1861.0</ele>
        <time>2019-08-04T14:27:32.324Z</time>
      </trkpt>
      <trkpt lat="42.53358167" lon="1.61171">
        <ele>1861.0</ele>
        <time>2019-08-04T14:27:33.322Z</time>
      </trkpt>
      <trkpt lat="42.53359833" lon="1.61178333">
        <ele>1862.0</ele>
        <time>2019-08-04T14:27:34.322Z</time>
      </trkpt>
      <trkpt lat="42.53359833" lon="1.61178333">
        <ele>1862.0</ele>
        <time>2019-08-04T14:27:35.298Z</time>
      </trkpt>
      <trkpt lat="42.53360833" lon="1.61185833">
        <ele>1863.0</ele>
        <time>2019-08-04T14:27:36.325Z</time>
      </trkpt>
      <trkpt lat="42.53360833" lon="1.61185833">
        <ele>1863.0</ele>
        <time>2019-08-04T14:27:37.321Z</time>
      </trkpt>
      <trkpt lat="42.53361833" lon="1.61193333">
        <ele>1863.0</ele>
        <time>2019-08-04T14:27:38.324Z</time>
      </trkpt>
      <trkpt lat="42.53361833" lon="1.61193333">
        <ele>1863.0</ele>
        <time>2019-08-04T14:27:39.316Z</time>
      </trkpt>
      <trkpt lat="42.53363333" lon="1.612005">
        <ele>1864.0</ele>
        <time>2019-08-04T14:27:40.297Z</time>
      </trkpt>
      <trkpt lat="42.53363333" lon="1.612005">
        <ele>1864.0</ele>
        <time>2019-08-04T14:27:41.322Z</time>
      </trkpt>
      <trkpt lat="42.53365167" lon="1.61207667">
        <ele>1864.0</ele>
        <time>2019-08-04T14:27:42.326Z</time>
      </trkpt>
      <trkpt lat="42.53365167" lon="1.61207667">
        <ele>1864.0</ele>
        <time>2019-08-04T14:27:43.320Z</time>
      </trkpt>
      <trkpt lat="42.53367" lon="1.61215">
        <ele>1865.0</ele>
        <time>2019-08-04T14:27:44.323Z</time>
      </trkpt>
      <trkpt lat="42.53367833" lon="1.61218667">
        <ele>1865.0</ele>
        <time>2019-08-04T14:27:45.323Z</time>
      </trkpt>
      <trkpt lat="42.53367833" lon="1.61218667">
        <ele>1865.0</ele>
        <time>2019-08-04T14:27:46.321Z</time>
      </trkpt>
      <trkpt lat="42.533695" lon="1.61226333">
        <ele>1866.0</ele>
        <time>2019-08-04T14:27:47.329Z</time>
      </trkpt>
      <trkpt lat="42.533695" lon="1.61226333">
        <ele>1866.0</ele>
        <time>2019-08-04T14:27:48.323Z</time>
      </trkpt>
      <trkpt lat="42.533715" lon="1.61233667">
        <ele>1867.0</ele>
        <time>2019-08-04T14:27:49.324Z</time>
      </trkpt>
      <trkpt lat="42.533715" lon="1.61233667">
        <ele>1867.0</ele>
        <time>2019-08-04T14:27:50.320Z</time>
      </trkpt>
      <trkpt lat="42.533735" lon="1.61241167">
        <ele>1867.0</ele>
        <time>2019-08-04T14:27:51.324Z</time>
      </trkpt>
      <trkpt lat="42.533735" lon="1.61241167">
        <ele>1867.0</ele>
        <time>2019-08-04T14:27:52.318Z</time>
      </trkpt>
      <trkpt lat="42.53375" lon="1.61248667">
        <ele>1868.0</ele>
        <time>2019-08-04T14:27:53.324Z</time>
      </trkpt>
      <trkpt lat="42.533755" lon="1.612525">
        <ele>1868.0</ele>
        <time>2019-08-04T14:27:54.325Z</time>
      </trkpt>
      <trkpt lat="42.53376167" lon="1.61256333">
        <ele>1868.0</ele>
        <time>2019-08-04T14:27:55.327Z</time>
      </trkpt>
      <trkpt lat="42.53376167" lon="1.61256333">
        <ele>1868.0</ele>
        <time>2019-08-04T14:27:56.319Z</time>
      </trkpt>
      <trkpt lat="42.53377833" lon="1.61263833">
        <ele>1869.0</ele>
        <time>2019-08-04T14:27:57.302Z</time>
      </trkpt>
      <trkpt lat="42.53377833" lon="1.61263833">
        <ele>1869.0</ele>
        <time>2019-08-04T14:27:58.322Z</time>
      </trkpt>
      <trkpt lat="42.53379333" lon="1.61271667">
        <ele>1870.0</ele>
        <time>2019-08-04T14:27:59.324Z</time>
      </trkpt>
      <trkpt lat="42.53379833" lon="1.612755">
        <ele>1870.0</ele>
        <time>2019-08-04T14:28:00.326Z</time>
      </trkpt>
      <trkpt lat="42.53379833" lon="1.612755">
        <ele>1870.0</ele>
        <time>2019-08-04T14:28:01.320Z</time>
      </trkpt>
      <trkpt lat="42.53381" lon="1.612835">
        <ele>1870.0</ele>
        <time>2019-08-04T14:28:02.329Z</time>
      </trkpt>
      <trkpt lat="42.53381" lon="1.612835">
        <ele>1870.0</ele>
        <time>2019-08-04T14:28:03.321Z</time>
      </trkpt>
      <trkpt lat="42.53382333" lon="1.61291333">
        <ele>1871.0</ele>
        <time>2019-08-04T14:28:04.323Z</time>
      </trkpt>
      <trkpt lat="42.53382333" lon="1.61291333">
        <ele>1871.0</ele>
        <time>2019-08-04T14:28:05.300Z</time>
      </trkpt>
      <trkpt lat="42.53383667" lon="1.61298833">
        <ele>1872.0</ele>
        <time>2019-08-04T14:28:06.326Z</time>
      </trkpt>
      <trkpt lat="42.53383667" lon="1.61298833">
        <ele>1872.0</ele>
        <time>2019-08-04T14:28:07.321Z</time>
      </trkpt>
      <trkpt lat="42.53385167" lon="1.61306333">
        <ele>1872.0</ele>
        <time>2019-08-04T14:28:08.324Z</time>
      </trkpt>
      <trkpt lat="42.53386" lon="1.61310167">
        <ele>1872.0</ele>
        <time>2019-08-04T14:28:09.325Z</time>
      </trkpt>
      <trkpt lat="42.53386" lon="1.61310167">
        <ele>1872.0</ele>
        <time>2019-08-04T14:28:10.321Z</time>
      </trkpt>
      <trkpt lat="42.53387667" lon="1.61317833">
        <ele>1873.0</ele>
        <time>2019-08-04T14:28:11.323Z</time>
      </trkpt>
      <trkpt lat="42.533885" lon="1.61321833">
        <ele>1873.0</ele>
        <time>2019-08-04T14:28:12.305Z</time>
      </trkpt>
      <trkpt lat="42.533885" lon="1.61321833">
        <ele>1873.0</ele>
        <time>2019-08-04T14:28:13.325Z</time>
      </trkpt>
      <trkpt lat="42.533885" lon="1.61321833">
        <ele>1873.0</ele>
        <time>2019-08-04T14:28:14.503Z</time>
      </trkpt>
      <trkpt lat="42.53390667" lon="1.61329333">
        <ele>1873.0</ele>
        <time>2019-08-04T14:28:15.319Z</time>
      </trkpt>
      <trkpt lat="42.533935" lon="1.61336667">
        <ele>1874.0</ele>
        <time>2019-08-04T14:28:16.325Z</time>
      </trkpt>
      <trkpt lat="42.533935" lon="1.61336667">
        <ele>1874.0</ele>
        <time>2019-08-04T14:28:17.331Z</time>
      </trkpt>
      <trkpt lat="42.53397" lon="1.61343833">
        <ele>1875.0</ele>
        <time>2019-08-04T14:28:18.297Z</time>
      </trkpt>
      <trkpt lat="42.53397" lon="1.61343833">
        <ele>1875.0</ele>
        <time>2019-08-04T14:28:19.322Z</time>
      </trkpt>
      <trkpt lat="42.53400833" lon="1.61350667">
        <ele>1875.0</ele>
        <time>2019-08-04T14:28:20.324Z</time>
      </trkpt>
      <trkpt lat="42.53400833" lon="1.61350667">
        <ele>1875.0</ele>
        <time>2019-08-04T14:28:21.321Z</time>
      </trkpt>
      <trkpt lat="42.53405167" lon="1.61357333">
        <ele>1875.0</ele>
        <time>2019-08-04T14:28:22.304Z</time>
      </trkpt>
      <trkpt lat="42.534075" lon="1.613605">
        <ele>1876.0</ele>
        <time>2019-08-04T14:28:23.325Z</time>
      </trkpt>
      <trkpt lat="42.534075" lon="1.613605">
        <ele>1876.0</ele>
        <time>2019-08-04T14:28:24.321Z</time>
      </trkpt>
      <trkpt lat="42.53413" lon="1.61365833">
        <ele>1876.0</ele>
        <time>2019-08-04T14:28:25.299Z</time>
      </trkpt>
      <trkpt lat="42.53415833" lon="1.61368333">
        <ele>1876.0</ele>
        <time>2019-08-04T14:28:26.324Z</time>
      </trkpt>
      <trkpt lat="42.53415833" lon="1.61368333">
        <ele>1876.0</ele>
        <time>2019-08-04T14:28:27.319Z</time>
      </trkpt>
      <trkpt lat="42.53422333" lon="1.61372167">
        <ele>1877.0</ele>
        <time>2019-08-04T14:28:28.323Z</time>
      </trkpt>
      <trkpt lat="42.53422333" lon="1.61372167">
        <ele>1877.0</ele>
        <time>2019-08-04T14:28:29.302Z</time>
      </trkpt>
      <trkpt lat="42.53429" lon="1.613755">
        <ele>1878.0</ele>
        <time>2019-08-04T14:28:30.322Z</time>
      </trkpt>
      <trkpt lat="42.53429" lon="1.613755">
        <ele>1878.0</ele>
        <time>2019-08-04T14:28:31.328Z</time>
      </trkpt>
      <trkpt lat="42.53436" lon="1.61378167">
        <ele>1878.0</ele>
        <time>2019-08-04T14:28:32.324Z</time>
      </trkpt>
      <trkpt lat="42.534395" lon="1.61379">
        <ele>1878.0</ele>
        <time>2019-08-04T14:28:33.324Z</time>
      </trkpt>
      <trkpt lat="42.53442833" lon="1.613795">
        <ele>1879.0</ele>
        <time>2019-08-04T14:28:34.324Z</time>
      </trkpt>
      <trkpt lat="42.53442833" lon="1.613795">
        <ele>1879.0</ele>
        <time>2019-08-04T14:28:35.322Z</time>
      </trkpt>
      <trkpt lat="42.5345" lon="1.6138">
        <ele>1879.0</ele>
        <time>2019-08-04T14:28:36.326Z</time>
      </trkpt>
      <trkpt lat="42.5345" lon="1.6138">
        <ele>1879.0</ele>
        <time>2019-08-04T14:28:37.319Z</time>
      </trkpt>
      <trkpt lat="42.53457333" lon="1.61379333">
        <ele>1880.0</ele>
        <time>2019-08-04T14:28:38.325Z</time>
      </trkpt>
      <trkpt lat="42.53457333" lon="1.61379333">
        <ele>1880.0</ele>
        <time>2019-08-04T14:28:39.322Z</time>
      </trkpt>
      <trkpt lat="42.534645" lon="1.61377833">
        <ele>1880.0</ele>
        <time>2019-08-04T14:28:40.325Z</time>
      </trkpt>
      <trkpt lat="42.534645" lon="1.61377833">
        <ele>1880.0</ele>
        <time>2019-08-04T14:28:41.319Z</time>
      </trkpt>
      <trkpt lat="42.53471833" lon="1.613755">
        <ele>1880.0</ele>
        <time>2019-08-04T14:28:42.300Z</time>
      </trkpt>
      <trkpt lat="42.534755" lon="1.61374167">
        <ele>1881.0</ele>
        <time>2019-08-04T14:28:43.324Z</time>
      </trkpt>
      <trkpt lat="42.53479333" lon="1.61372833">
        <ele>1881.0</ele>
        <time>2019-08-04T14:28:44.324Z</time>
      </trkpt>
      <trkpt lat="42.53479333" lon="1.61372833">
        <ele>1881.0</ele>
        <time>2019-08-04T14:28:45.319Z</time>
      </trkpt>
      <trkpt lat="42.53486833" lon="1.61370167">
        <ele>1881.0</ele>
        <time>2019-08-04T14:28:46.299Z</time>
      </trkpt>
      <trkpt lat="42.53486833" lon="1.61370167">
        <ele>1881.0</ele>
        <time>2019-08-04T14:28:47.325Z</time>
      </trkpt>
      <trkpt lat="42.534945" lon="1.61369833">
        <ele>1882.0</ele>
        <time>2019-08-04T14:28:48.296Z</time>
      </trkpt>
      <trkpt lat="42.534945" lon="1.61369833">
        <ele>1882.0</ele>
        <time>2019-08-04T14:28:49.321Z</time>
      </trkpt>
      <trkpt lat="42.53502167" lon="1.61373">
        <ele>1882.0</ele>
        <time>2019-08-04T14:28:50.325Z</time>
      </trkpt>
      <trkpt lat="42.53502167" lon="1.61373">
        <ele>1882.0</ele>
        <time>2019-08-04T14:28:51.321Z</time>
      </trkpt>
      <trkpt lat="42.53507333" lon="1.61380167">
        <ele>1883.0</ele>
        <time>2019-08-04T14:28:52.303Z</time>
      </trkpt>
      <trkpt lat="42.53509333" lon="1.61384667">
        <ele>1883.0</ele>
        <time>2019-08-04T14:28:53.324Z</time>
      </trkpt>
      <trkpt lat="42.53510667" lon="1.61389667">
        <ele>1883.0</ele>
        <time>2019-08-04T14:28:54.321Z</time>
      </trkpt>
      <trkpt lat="42.53510667" lon="1.61389667">
        <ele>1883.0</ele>
        <time>2019-08-04T14:28:55.322Z</time>
      </trkpt>
      <trkpt lat="42.53512333" lon="1.614">
        <ele>1884.0</ele>
        <time>2019-08-04T14:28:56.324Z</time>
      </trkpt>
      <trkpt lat="42.53512333" lon="1.614">
        <ele>1884.0</ele>
        <time>2019-08-04T14:28:57.300Z</time>
      </trkpt>
      <trkpt lat="42.53512833" lon="1.614105">
        <ele>1884.0</ele>
        <time>2019-08-04T14:28:58.323Z</time>
      </trkpt>
      <trkpt lat="42.53512833" lon="1.614105">
        <ele>1884.0</ele>
        <time>2019-08-04T14:28:59.321Z</time>
      </trkpt>
      <trkpt lat="42.53513833" lon="1.614205">
        <ele>1885.0</ele>
        <time>2019-08-04T14:29:00.327Z</time>
      </trkpt>
      <trkpt lat="42.53513833" lon="1.614205">
        <ele>1885.0</ele>
        <time>2019-08-04T14:29:01.319Z</time>
      </trkpt>
      <trkpt lat="42.53514667" lon="1.614305">
        <ele>1886.0</ele>
        <time>2019-08-04T14:29:02.300Z</time>
      </trkpt>
      <trkpt lat="42.53514667" lon="1.61435333">
        <ele>1886.0</ele>
        <time>2019-08-04T14:29:03.323Z</time>
      </trkpt>
      <trkpt lat="42.53514667" lon="1.61435333">
        <ele>1886.0</ele>
        <time>2019-08-04T14:29:04.322Z</time>
      </trkpt>
      <trkpt lat="42.53514667" lon="1.61435333">
        <ele>1886.0</ele>
        <time>2019-08-04T14:29:05.458Z</time>
      </trkpt>
      <trkpt lat="42.53514167" lon="1.61450167">
        <ele>1887.0</ele>
        <time>2019-08-04T14:29:06.333Z</time>
      </trkpt>
      <trkpt lat="42.53514167" lon="1.61450167">
        <ele>1887.0</ele>
        <time>2019-08-04T14:29:07.321Z</time>
      </trkpt>
      <trkpt lat="42.53514" lon="1.61460333">
        <ele>1887.0</ele>
        <time>2019-08-04T14:29:08.324Z</time>
      </trkpt>
      <trkpt lat="42.53514" lon="1.61460333">
        <ele>1887.0</ele>
        <time>2019-08-04T14:29:09.322Z</time>
      </trkpt>
      <trkpt lat="42.53514333" lon="1.614705">
        <ele>1888.0</ele>
        <time>2019-08-04T14:29:10.324Z</time>
      </trkpt>
      <trkpt lat="42.53514167" lon="1.614755">
        <ele>1888.0</ele>
        <time>2019-08-04T14:29:11.325Z</time>
      </trkpt>
      <trkpt lat="42.53514167" lon="1.614755">
        <ele>1888.0</ele>
        <time>2019-08-04T14:29:12.320Z</time>
      </trkpt>
      <trkpt lat="42.53514167" lon="1.61485833">
        <ele>1889.0</ele>
        <time>2019-08-04T14:29:13.299Z</time>
      </trkpt>
      <trkpt lat="42.53514333" lon="1.61491">
        <ele>1889.0</ele>
        <time>2019-08-04T14:29:14.324Z</time>
      </trkpt>
      <trkpt lat="42.53514333" lon="1.61491">
        <ele>1889.0</ele>
        <time>2019-08-04T14:29:15.320Z</time>
      </trkpt>
      <trkpt lat="42.53514167" lon="1.61501167">
        <ele>1890.0</ele>
        <time>2019-08-04T14:29:16.323Z</time>
      </trkpt>
      <trkpt lat="42.53513833" lon="1.61506333">
        <ele>1890.0</ele>
        <time>2019-08-04T14:29:17.324Z</time>
      </trkpt>
      <trkpt lat="42.53513667" lon="1.615115">
        <ele>1890.0</ele>
        <time>2019-08-04T14:29:18.325Z</time>
      </trkpt>
      <trkpt lat="42.53513667" lon="1.615115">
        <ele>1890.0</ele>
        <time>2019-08-04T14:29:19.320Z</time>
      </trkpt>
      <trkpt lat="42.535135" lon="1.61521333">
        <ele>1891.0</ele>
        <time>2019-08-04T14:29:20.325Z</time>
      </trkpt>
      <trkpt lat="42.535135" lon="1.61521333">
        <ele>1891.0</ele>
        <time>2019-08-04T14:29:21.319Z</time>
      </trkpt>
      <trkpt lat="42.535135" lon="1.61531333">
        <ele>1891.0</ele>
        <time>2019-08-04T14:29:22.299Z</time>
      </trkpt>
      <trkpt lat="42.535135" lon="1.61531333">
        <ele>1891.0</ele>
        <time>2019-08-04T14:29:23.329Z</time>
      </trkpt>
      <trkpt lat="42.53513333" lon="1.61541">
        <ele>1892.0</ele>
        <time>2019-08-04T14:29:24.300Z</time>
      </trkpt>
      <trkpt lat="42.53513333" lon="1.61541">
        <ele>1892.0</ele>
        <time>2019-08-04T14:29:25.321Z</time>
      </trkpt>
      <trkpt lat="42.53513" lon="1.61550333">
        <ele>1893.0</ele>
        <time>2019-08-04T14:29:26.324Z</time>
      </trkpt>
      <trkpt lat="42.53513" lon="1.61550333">
        <ele>1893.0</ele>
        <time>2019-08-04T14:29:27.319Z</time>
      </trkpt>
      <trkpt lat="42.53512333" lon="1.61559167">
        <ele>1893.0</ele>
        <time>2019-08-04T14:29:28.299Z</time>
      </trkpt>
      <trkpt lat="42.53512333" lon="1.61559167">
        <ele>1893.0</ele>
        <time>2019-08-04T14:29:29.299Z</time>
      </trkpt>
      <trkpt lat="42.53512" lon="1.61568">
        <ele>1894.0</ele>
        <time>2019-08-04T14:29:30.300Z</time>
      </trkpt>
      <trkpt lat="42.53512" lon="1.61568">
        <ele>1894.0</ele>
        <time>2019-08-04T14:29:31.312Z</time>
      </trkpt>
      <trkpt lat="42.535115" lon="1.61576333">
        <ele>1894.0</ele>
        <time>2019-08-04T14:29:32.318Z</time>
      </trkpt>
      <trkpt lat="42.53511333" lon="1.61580667">
        <ele>1895.0</ele>
        <time>2019-08-04T14:29:33.324Z</time>
      </trkpt>
      <trkpt lat="42.53511333" lon="1.61580667">
        <ele>1895.0</ele>
        <time>2019-08-04T14:29:34.298Z</time>
      </trkpt>
      <trkpt lat="42.53510333" lon="1.61589167">
        <ele>1896.0</ele>
        <time>2019-08-04T14:29:35.324Z</time>
      </trkpt>
      <trkpt lat="42.53509833" lon="1.615935">
        <ele>1896.0</ele>
        <time>2019-08-04T14:29:36.327Z</time>
      </trkpt>
      <trkpt lat="42.53509833" lon="1.615935">
        <ele>1896.0</ele>
        <time>2019-08-04T14:29:37.335Z</time>
      </trkpt>
      <trkpt lat="42.53509167" lon="1.61602167">
        <ele>1897.0</ele>
        <time>2019-08-04T14:29:38.325Z</time>
      </trkpt>
      <trkpt lat="42.53509167" lon="1.61602167">
        <ele>1897.0</ele>
        <time>2019-08-04T14:29:39.322Z</time>
      </trkpt>
      <trkpt lat="42.53509" lon="1.61610833">
        <ele>1897.0</ele>
        <time>2019-08-04T14:29:40.325Z</time>
      </trkpt>
      <trkpt lat="42.53509" lon="1.61610833">
        <ele>1897.0</ele>
        <time>2019-08-04T14:29:41.323Z</time>
      </trkpt>
      <trkpt lat="42.53509167" lon="1.616195">
        <ele>1898.0</ele>
        <time>2019-08-04T14:29:42.305Z</time>
      </trkpt>
      <trkpt lat="42.53509167" lon="1.61623833">
        <ele>1898.0</ele>
        <time>2019-08-04T14:29:43.325Z</time>
      </trkpt>
      <trkpt lat="42.53509167" lon="1.61623833">
        <ele>1898.0</ele>
        <time>2019-08-04T14:29:44.327Z</time>
      </trkpt>
      <trkpt lat="42.535095" lon="1.616325">
        <ele>1899.0</ele>
        <time>2019-08-04T14:29:45.322Z</time>
      </trkpt>
      <trkpt lat="42.535095" lon="1.616325">
        <ele>1899.0</ele>
        <time>2019-08-04T14:29:46.317Z</time>
      </trkpt>
      <trkpt lat="42.53510167" lon="1.61640833">
        <ele>1900.0</ele>
        <time>2019-08-04T14:29:47.304Z</time>
      </trkpt>
      <trkpt lat="42.535105" lon="1.61644667">
        <ele>1900.0</ele>
        <time>2019-08-04T14:29:48.326Z</time>
      </trkpt>
      <trkpt lat="42.535105" lon="1.61644667">
        <ele>1900.0</ele>
        <time>2019-08-04T14:29:49.321Z</time>
      </trkpt>
      <trkpt lat="42.53511667" lon="1.61652167">
        <ele>1901.0</ele>
        <time>2019-08-04T14:29:50.329Z</time>
      </trkpt>
      <trkpt lat="42.53511667" lon="1.61652167">
        <ele>1901.0</ele>
        <time>2019-08-04T14:29:51.322Z</time>
      </trkpt>
      <trkpt lat="42.53512667" lon="1.61659667">
        <ele>1902.0</ele>
        <time>2019-08-04T14:29:52.303Z</time>
      </trkpt>
      <trkpt lat="42.535135" lon="1.616635">
        <ele>1902.0</ele>
        <time>2019-08-04T14:29:53.325Z</time>
      </trkpt>
      <trkpt lat="42.535145" lon="1.61667167">
        <ele>1902.0</ele>
        <time>2019-08-04T14:29:54.334Z</time>
      </trkpt>
      <trkpt lat="42.535145" lon="1.61667167">
        <ele>1902.0</ele>
        <time>2019-08-04T14:29:55.322Z</time>
      </trkpt>
      <trkpt lat="42.53516833" lon="1.61674167">
        <ele>1903.0</ele>
        <time>2019-08-04T14:29:56.324Z</time>
      </trkpt>
      <trkpt lat="42.53516833" lon="1.61674167">
        <ele>1903.0</ele>
        <time>2019-08-04T14:29:57.320Z</time>
      </trkpt>
      <trkpt lat="42.53519333" lon="1.61680667">
        <ele>1904.0</ele>
        <time>2019-08-04T14:29:58.324Z</time>
      </trkpt>
      <trkpt lat="42.53519333" lon="1.61680667">
        <ele>1904.0</ele>
        <time>2019-08-04T14:29:59.322Z</time>
      </trkpt>
      <trkpt lat="42.53522" lon="1.61686833">
        <ele>1904.0</ele>
        <time>2019-08-04T14:30:00.302Z</time>
      </trkpt>
      <trkpt lat="42.53522" lon="1.61686833">
        <ele>1904.0</ele>
        <time>2019-08-04T14:30:01.321Z</time>
      </trkpt>
      <trkpt lat="42.53524667" lon="1.61693167">
        <ele>1905.0</ele>
        <time>2019-08-04T14:30:02.325Z</time>
      </trkpt>
      <trkpt lat="42.53526333" lon="1.61696">
        <ele>1905.0</ele>
        <time>2019-08-04T14:30:03.324Z</time>
      </trkpt>
      <trkpt lat="42.53526333" lon="1.61696">
        <ele>1905.0</ele>
        <time>2019-08-04T14:30:04.322Z</time>
      </trkpt>
      <trkpt lat="42.53526333" lon="1.61696">
        <ele>1905.0</ele>
        <time>2019-08-04T14:30:05.459Z</time>
      </trkpt>
      <trkpt lat="42.535315" lon="1.61704667">
        <ele>1906.0</ele>
        <time>2019-08-04T14:30:06.326Z</time>
      </trkpt>
      <trkpt lat="42.535315" lon="1.61704667">
        <ele>1906.0</ele>
        <time>2019-08-04T14:30:07.322Z</time>
      </trkpt>
      <trkpt lat="42.53534" lon="1.61711167">
        <ele>1907.0</ele>
        <time>2019-08-04T14:30:08.325Z</time>
      </trkpt>
      <trkpt lat="42.53534" lon="1.61711167">
        <ele>1907.0</ele>
        <time>2019-08-04T14:30:09.323Z</time>
      </trkpt>
      <trkpt lat="42.535365" lon="1.61717667">
        <ele>1908.0</ele>
        <time>2019-08-04T14:30:10.322Z</time>
      </trkpt>
      <trkpt lat="42.535365" lon="1.61717667">
        <ele>1908.0</ele>
        <time>2019-08-04T14:30:11.320Z</time>
      </trkpt>
      <trkpt lat="42.53539333" lon="1.61723833">
        <ele>1908.0</ele>
        <time>2019-08-04T14:30:12.300Z</time>
      </trkpt>
      <trkpt lat="42.53539333" lon="1.61723833">
        <ele>1908.0</ele>
        <time>2019-08-04T14:30:13.323Z</time>
      </trkpt>
      <trkpt lat="42.53542167" lon="1.61730167">
        <ele>1909.0</ele>
        <time>2019-08-04T14:30:14.325Z</time>
      </trkpt>
      <trkpt lat="42.53542167" lon="1.61730167">
        <ele>1909.0</ele>
        <time>2019-08-04T14:30:15.319Z</time>
      </trkpt>
      <trkpt lat="42.53545" lon="1.617365">
        <ele>1909.0</ele>
        <time>2019-08-04T14:30:16.299Z</time>
      </trkpt>
      <trkpt lat="42.53545" lon="1.617365">
        <ele>1909.0</ele>
        <time>2019-08-04T14:30:17.319Z</time>
      </trkpt>
      <trkpt lat="42.53548" lon="1.617425">
        <ele>1910.0</ele>
        <time>2019-08-04T14:30:18.300Z</time>
      </trkpt>
      <trkpt lat="42.53548" lon="1.617425">
        <ele>1910.0</ele>
        <time>2019-08-04T14:30:19.322Z</time>
      </trkpt>
      <trkpt lat="42.53550667" lon="1.61748667">
        <ele>1911.0</ele>
        <time>2019-08-04T14:30:20.325Z</time>
      </trkpt>
      <trkpt lat="42.53550667" lon="1.61748667">
        <ele>1911.0</ele>
        <time>2019-08-04T14:30:21.322Z</time>
      </trkpt>
      <trkpt lat="42.53553333" lon="1.61755">
        <ele>1911.0</ele>
        <time>2019-08-04T14:30:22.324Z</time>
      </trkpt>
      <trkpt lat="42.53553333" lon="1.61755">
        <ele>1911.0</ele>
        <time>2019-08-04T14:30:23.319Z</time>
      </trkpt>
      <trkpt lat="42.53555833" lon="1.617615">
        <ele>1912.0</ele>
        <time>2019-08-04T14:30:24.300Z</time>
      </trkpt>
      <trkpt lat="42.53555833" lon="1.617615">
        <ele>1912.0</ele>
        <time>2019-08-04T14:30:25.320Z</time>
      </trkpt>
      <trkpt lat="42.53558333" lon="1.61767833">
        <ele>1912.0</ele>
        <time>2019-08-04T14:30:26.300Z</time>
      </trkpt>
      <trkpt lat="42.53558333" lon="1.61767833">
        <ele>1912.0</ele>
        <time>2019-08-04T14:30:27.322Z</time>
      </trkpt>
      <trkpt lat="42.53560667" lon="1.61774167">
        <ele>1913.0</ele>
        <time>2019-08-04T14:30:28.324Z</time>
      </trkpt>
      <trkpt lat="42.53560667" lon="1.61774167">
        <ele>1913.0</ele>
        <time>2019-08-04T14:30:29.300Z</time>
      </trkpt>
      <trkpt lat="42.53562833" lon="1.61780167">
        <ele>1913.0</ele>
        <time>2019-08-04T14:30:30.321Z</time>
      </trkpt>
      <trkpt lat="42.53562833" lon="1.61780167">
        <ele>1913.0</ele>
        <time>2019-08-04T14:30:31.327Z</time>
      </trkpt>
      <trkpt lat="42.535645" lon="1.617865">
        <ele>1914.0</ele>
        <time>2019-08-04T14:30:32.333Z</time>
      </trkpt>
      <trkpt lat="42.535645" lon="1.617865">
        <ele>1914.0</ele>
        <time>2019-08-04T14:30:33.298Z</time>
      </trkpt>
      <trkpt lat="42.53566167" lon="1.61793">
        <ele>1914.0</ele>
        <time>2019-08-04T14:30:34.296Z</time>
      </trkpt>
      <trkpt lat="42.53566167" lon="1.61793">
        <ele>1914.0</ele>
        <time>2019-08-04T14:30:35.320Z</time>
      </trkpt>
      <trkpt lat="42.535675" lon="1.61799167">
        <ele>1915.0</ele>
        <time>2019-08-04T14:30:36.301Z</time>
      </trkpt>
      <trkpt lat="42.535675" lon="1.61799167">
        <ele>1915.0</ele>
        <time>2019-08-04T14:30:37.301Z</time>
      </trkpt>
      <trkpt lat="42.53568833" lon="1.618055">
        <ele>1915.0</ele>
        <time>2019-08-04T14:30:38.325Z</time>
      </trkpt>
      <trkpt lat="42.53568833" lon="1.618055">
        <ele>1915.0</ele>
        <time>2019-08-04T14:30:39.323Z</time>
      </trkpt>
      <trkpt lat="42.53571" lon="1.61811833">
        <ele>1916.0</ele>
        <time>2019-08-04T14:30:40.325Z</time>
      </trkpt>
      <trkpt lat="42.53571" lon="1.61811833">
        <ele>1916.0</ele>
        <time>2019-08-04T14:30:41.322Z</time>
      </trkpt>
      <trkpt lat="42.53572333" lon="1.61818667">
        <ele>1916.0</ele>
        <time>2019-08-04T14:30:42.326Z</time>
      </trkpt>
      <trkpt lat="42.53572333" lon="1.61818667">
        <ele>1916.0</ele>
        <time>2019-08-04T14:30:43.319Z</time>
      </trkpt>
      <trkpt lat="42.53573" lon="1.618255">
        <ele>1917.0</ele>
        <time>2019-08-04T14:30:44.310Z</time>
      </trkpt>
      <trkpt lat="42.53573" lon="1.618255">
        <ele>1917.0</ele>
        <time>2019-08-04T14:30:45.326Z</time>
      </trkpt>
      <trkpt lat="42.53573833" lon="1.618325">
        <ele>1917.0</ele>
        <time>2019-08-04T14:30:46.324Z</time>
      </trkpt>
      <trkpt lat="42.53574333" lon="1.61835833">
        <ele>1917.0</ele>
        <time>2019-08-04T14:30:47.327Z</time>
      </trkpt>
      <trkpt lat="42.53574333" lon="1.61835833">
        <ele>1917.0</ele>
        <time>2019-08-04T14:30:48.332Z</time>
      </trkpt>
      <trkpt lat="42.53575333" lon="1.618425">
        <ele>1918.0</ele>
        <time>2019-08-04T14:30:49.323Z</time>
      </trkpt>
      <trkpt lat="42.535755" lon="1.61846">
        <ele>1918.0</ele>
        <time>2019-08-04T14:30:50.332Z</time>
      </trkpt>
      <trkpt lat="42.535755" lon="1.61846">
        <ele>1918.0</ele>
        <time>2019-08-04T14:30:51.322Z</time>
      </trkpt>
      <trkpt lat="42.53576" lon="1.61852833">
        <ele>1918.0</ele>
        <time>2019-08-04T14:30:52.324Z</time>
      </trkpt>
      <trkpt lat="42.53576" lon="1.61852833">
        <ele>1918.0</ele>
        <time>2019-08-04T14:30:53.314Z</time>
      </trkpt>
      <trkpt lat="42.53576167" lon="1.61859833">
        <ele>1919.0</ele>
        <time>2019-08-04T14:30:54.297Z</time>
      </trkpt>
      <trkpt lat="42.53576167" lon="1.61859833">
        <ele>1919.0</ele>
        <time>2019-08-04T14:30:55.322Z</time>
      </trkpt>
      <trkpt lat="42.53576167" lon="1.61866833">
        <ele>1919.0</ele>
        <time>2019-08-04T14:30:56.324Z</time>
      </trkpt>
      <trkpt lat="42.53576167" lon="1.61866833">
        <ele>1919.0</ele>
        <time>2019-08-04T14:30:57.305Z</time>
      </trkpt>
      <trkpt lat="42.53576167" lon="1.61874">
        <ele>1920.0</ele>
        <time>2019-08-04T14:30:58.326Z</time>
      </trkpt>
      <trkpt lat="42.53576167" lon="1.61874">
        <ele>1920.0</ele>
        <time>2019-08-04T14:30:59.322Z</time>
      </trkpt>
      <trkpt lat="42.535765" lon="1.61880833">
        <ele>1920.0</ele>
        <time>2019-08-04T14:31:00.325Z</time>
      </trkpt>
      <trkpt lat="42.535765" lon="1.61880833">
        <ele>1920.0</ele>
        <time>2019-08-04T14:31:01.323Z</time>
      </trkpt>
      <trkpt lat="42.53577" lon="1.61887167">
        <ele>1920.0</ele>
        <time>2019-08-04T14:31:02.304Z</time>
      </trkpt>
      <trkpt lat="42.53577" lon="1.61887167">
        <ele>1920.0</ele>
        <time>2019-08-04T14:31:03.329Z</time>
      </trkpt>
      <trkpt lat="42.535775" lon="1.61893333">
        <ele>1921.0</ele>
        <time>2019-08-04T14:31:04.324Z</time>
      </trkpt>
      <trkpt lat="42.535775" lon="1.61893333">
        <ele>1921.0</ele>
        <time>2019-08-04T14:31:05.322Z</time>
      </trkpt>
      <trkpt lat="42.535775" lon="1.618995">
        <ele>1921.0</ele>
        <time>2019-08-04T14:31:06.302Z</time>
      </trkpt>
      <trkpt lat="42.535775" lon="1.618995">
        <ele>1921.0</ele>
        <time>2019-08-04T14:31:07.321Z</time>
      </trkpt>
      <trkpt lat="42.53577167" lon="1.61905667">
        <ele>1921.0</ele>
        <time>2019-08-04T14:31:08.325Z</time>
      </trkpt>
      <trkpt lat="42.53577" lon="1.61909">
        <ele>1922.0</ele>
        <time>2019-08-04T14:31:09.326Z</time>
      </trkpt>
      <trkpt lat="42.53577" lon="1.61909">
        <ele>1922.0</ele>
        <time>2019-08-04T14:31:10.322Z</time>
      </trkpt>
      <trkpt lat="42.53577" lon="1.61909">
        <ele>1922.0</ele>
        <time>2019-08-04T14:31:11.485Z</time>
      </trkpt>
      <trkpt lat="42.535765" lon="1.61915667">
        <ele>1922.0</ele>
        <time>2019-08-04T14:31:12.319Z</time>
      </trkpt>
      <trkpt lat="42.53575667" lon="1.61922667">
        <ele>1922.0</ele>
        <time>2019-08-04T14:31:13.325Z</time>
      </trkpt>
      <trkpt lat="42.53575667" lon="1.61922667">
        <ele>1922.0</ele>
        <time>2019-08-04T14:31:14.306Z</time>
      </trkpt>
      <trkpt lat="42.53574833" lon="1.619295">
        <ele>1923.0</ele>
        <time>2019-08-04T14:31:15.328Z</time>
      </trkpt>
      <trkpt lat="42.53574833" lon="1.619295">
        <ele>1923.0</ele>
        <time>2019-08-04T14:31:16.317Z</time>
      </trkpt>
      <trkpt lat="42.53574167" lon="1.61936">
        <ele>1923.0</ele>
        <time>2019-08-04T14:31:17.325Z</time>
      </trkpt>
      <trkpt lat="42.53573833" lon="1.61939167">
        <ele>1924.0</ele>
        <time>2019-08-04T14:31:18.308Z</time>
      </trkpt>
      <trkpt lat="42.53573833" lon="1.61939167">
        <ele>1924.0</ele>
        <time>2019-08-04T14:31:19.324Z</time>
      </trkpt>
      <trkpt lat="42.53573167" lon="1.61945167">
        <ele>1924.0</ele>
        <time>2019-08-04T14:31:20.326Z</time>
      </trkpt>
      <trkpt lat="42.53573167" lon="1.61945167">
        <ele>1924.0</ele>
        <time>2019-08-04T14:31:21.323Z</time>
      </trkpt>
      <trkpt lat="42.53573333" lon="1.619505">
        <ele>1925.0</ele>
        <time>2019-08-04T14:31:22.326Z</time>
      </trkpt>
      <trkpt lat="42.53573167" lon="1.61953">
        <ele>1925.0</ele>
        <time>2019-08-04T14:31:23.327Z</time>
      </trkpt>
      <trkpt lat="42.53573" lon="1.61955333">
        <ele>1925.0</ele>
        <time>2019-08-04T14:31:24.303Z</time>
      </trkpt>
      <trkpt lat="42.53572833" lon="1.61957833">
        <ele>1925.0</ele>
        <time>2019-08-04T14:31:25.329Z</time>
      </trkpt>
      <trkpt lat="42.53572833" lon="1.61957833">
        <ele>1925.0</ele>
        <time>2019-08-04T14:31:26.321Z</time>
      </trkpt>
      <trkpt lat="42.53572167" lon="1.61962833">
        <ele>1925.0</ele>
        <time>2019-08-04T14:31:27.326Z</time>
      </trkpt>
      <trkpt lat="42.53572" lon="1.61965167">
        <ele>1926.0</ele>
        <time>2019-08-04T14:31:28.326Z</time>
      </trkpt>
      <trkpt lat="42.53572" lon="1.61965167">
        <ele>1926.0</ele>
        <time>2019-08-04T14:31:29.304Z</time>
      </trkpt>
      <trkpt lat="42.535715" lon="1.61970167">
        <ele>1926.0</ele>
        <time>2019-08-04T14:31:30.315Z</time>
      </trkpt>
      <trkpt lat="42.535715" lon="1.61970167">
        <ele>1926.0</ele>
        <time>2019-08-04T14:31:31.322Z</time>
      </trkpt>
      <trkpt lat="42.53570833" lon="1.61974667">
        <ele>1926.0</ele>
        <time>2019-08-04T14:31:32.326Z</time>
      </trkpt>
      <trkpt lat="42.53570833" lon="1.61974667">
        <ele>1926.0</ele>
        <time>2019-08-04T14:31:33.324Z</time>
      </trkpt>
      <trkpt lat="42.535705" lon="1.61979333">
        <ele>1926.0</ele>
        <time>2019-08-04T14:31:34.298Z</time>
      </trkpt>
      <trkpt lat="42.535705" lon="1.61979333">
        <ele>1926.0</ele>
        <time>2019-08-04T14:31:35.325Z</time>
      </trkpt>
      <trkpt lat="42.53570167" lon="1.61984333">
        <ele>1927.0</ele>
        <time>2019-08-04T14:31:36.308Z</time>
      </trkpt>
      <trkpt lat="42.53570167" lon="1.61984333">
        <ele>1927.0</ele>
        <time>2019-08-04T14:31:37.324Z</time>
      </trkpt>
      <trkpt lat="42.53569833" lon="1.61989333">
        <ele>1927.0</ele>
        <time>2019-08-04T14:31:38.326Z</time>
      </trkpt>
      <trkpt lat="42.535695" lon="1.61991833">
        <ele>1927.0</ele>
        <time>2019-08-04T14:31:39.326Z</time>
      </trkpt>
      <trkpt lat="42.535695" lon="1.619945">
        <ele>1928.0</ele>
        <time>2019-08-04T14:31:40.326Z</time>
      </trkpt>
      <trkpt lat="42.535695" lon="1.619945">
        <ele>1928.0</ele>
        <time>2019-08-04T14:31:41.323Z</time>
      </trkpt>
      <trkpt lat="42.53569167" lon="1.61999833">
        <ele>1928.0</ele>
        <time>2019-08-04T14:31:42.327Z</time>
      </trkpt>
      <trkpt lat="42.53569167" lon="1.61999833">
        <ele>1928.0</ele>
        <time>2019-08-04T14:31:43.324Z</time>
      </trkpt>
      <trkpt lat="42.53567833" lon="1.62004833">
        <ele>1929.0</ele>
        <time>2019-08-04T14:31:44.326Z</time>
      </trkpt>
      <trkpt lat="42.53567333" lon="1.62007333">
        <ele>1929.0</ele>
        <time>2019-08-04T14:31:45.326Z</time>
      </trkpt>
      <trkpt lat="42.53567" lon="1.62009833">
        <ele>1929.0</ele>
        <time>2019-08-04T14:31:46.327Z</time>
      </trkpt>
      <trkpt lat="42.53567" lon="1.62009833">
        <ele>1929.0</ele>
        <time>2019-08-04T14:31:47.307Z</time>
      </trkpt>
      <trkpt lat="42.53566333" lon="1.62014833">
        <ele>1930.0</ele>
        <time>2019-08-04T14:31:48.327Z</time>
      </trkpt>
      <trkpt lat="42.53566" lon="1.62017167">
        <ele>1930.0</ele>
        <time>2019-08-04T14:31:49.328Z</time>
      </trkpt>
      <trkpt lat="42.53566" lon="1.62017167">
        <ele>1930.0</ele>
        <time>2019-08-04T14:31:50.326Z</time>
      </trkpt>
      <trkpt lat="42.53565167" lon="1.62022333">
        <ele>1930.0</ele>
        <time>2019-08-04T14:31:51.326Z</time>
      </trkpt>
      <trkpt lat="42.53565167" lon="1.62022333">
        <ele>1930.0</ele>
        <time>2019-08-04T14:31:52.301Z</time>
      </trkpt>
      <trkpt lat="42.53564667" lon="1.62027333">
        <ele>1931.0</ele>
        <time>2019-08-04T14:31:53.328Z</time>
      </trkpt>
      <trkpt lat="42.53564833" lon="1.62029667">
        <ele>1931.0</ele>
        <time>2019-08-04T14:31:54.298Z</time>
      </trkpt>
      <trkpt lat="42.53564833" lon="1.62029667">
        <ele>1931.0</ele>
        <time>2019-08-04T14:31:55.323Z</time>
      </trkpt>
      <trkpt lat="42.535645" lon="1.62034667">
        <ele>1931.0</ele>
        <time>2019-08-04T14:31:56.326Z</time>
      </trkpt>
      <trkpt lat="42.535645" lon="1.62034667">
        <ele>1931.0</ele>
        <time>2019-08-04T14:31:57.321Z</time>
      </trkpt>
      <trkpt lat="42.53563833" lon="1.6204">
        <ele>1931.0</ele>
        <time>2019-08-04T14:31:58.328Z</time>
      </trkpt>
      <trkpt lat="42.53563833" lon="1.6204">
        <ele>1931.0</ele>
        <time>2019-08-04T14:31:59.324Z</time>
      </trkpt>
      <trkpt lat="42.53563333" lon="1.62044833">
        <ele>1931.0</ele>
        <time>2019-08-04T14:32:00.328Z</time>
      </trkpt>
      <trkpt lat="42.53563333" lon="1.62044833">
        <ele>1931.0</ele>
        <time>2019-08-04T14:32:01.324Z</time>
      </trkpt>
      <trkpt lat="42.53562667" lon="1.62049667">
        <ele>1932.0</ele>
        <time>2019-08-04T14:32:02.326Z</time>
      </trkpt>
      <trkpt lat="42.53562667" lon="1.62049667">
        <ele>1932.0</ele>
        <time>2019-08-04T14:32:03.324Z</time>
      </trkpt>
      <trkpt lat="42.53562" lon="1.62054167">
        <ele>1932.0</ele>
        <time>2019-08-04T14:32:04.326Z</time>
      </trkpt>
      <trkpt lat="42.53562" lon="1.62054167">
        <ele>1932.0</ele>
        <time>2019-08-04T14:32:05.324Z</time>
      </trkpt>
      <trkpt lat="42.535615" lon="1.62059">
        <ele>1932.0</ele>
        <time>2019-08-04T14:32:06.304Z</time>
      </trkpt>
      <trkpt lat="42.53561167" lon="1.62061333">
        <ele>1932.0</ele>
        <time>2019-08-04T14:32:07.518Z</time>
      </trkpt>
      <trkpt lat="42.53561167" lon="1.62061333">
        <ele>1932.0</ele>
        <time>2019-08-04T14:32:08.335Z</time>
      </trkpt>
      <trkpt lat="42.53560667" lon="1.62066167">
        <ele>1933.0</ele>
        <time>2019-08-04T14:32:09.301Z</time>
      </trkpt>
      <trkpt lat="42.535605" lon="1.62068667">
        <ele>1933.0</ele>
        <time>2019-08-04T14:32:10.316Z</time>
      </trkpt>
      <trkpt lat="42.535605" lon="1.62068667">
        <ele>1933.0</ele>
        <time>2019-08-04T14:32:11.323Z</time>
      </trkpt>
      <trkpt lat="42.535605" lon="1.62073333">
        <ele>1934.0</ele>
        <time>2019-08-04T14:32:12.306Z</time>
      </trkpt>
      <trkpt lat="42.535605" lon="1.62073333">
        <ele>1934.0</ele>
        <time>2019-08-04T14:32:13.329Z</time>
      </trkpt>
      <trkpt lat="42.5356" lon="1.62078667">
        <ele>1934.0</ele>
        <time>2019-08-04T14:32:14.299Z</time>
      </trkpt>
      <trkpt lat="42.53559833" lon="1.62081333">
        <ele>1934.0</ele>
        <time>2019-08-04T14:32:15.326Z</time>
      </trkpt>
      <trkpt lat="42.53559833" lon="1.62081333">
        <ele>1934.0</ele>
        <time>2019-08-04T14:32:16.324Z</time>
      </trkpt>
      <trkpt lat="42.535595" lon="1.62086333">
        <ele>1935.0</ele>
        <time>2019-08-04T14:32:17.334Z</time>
      </trkpt>
      <trkpt lat="42.535605" lon="1.62087833">
        <ele>1935.0</ele>
        <time>2019-08-04T14:32:18.325Z</time>
      </trkpt>
      <trkpt lat="42.535605" lon="1.62087833">
        <ele>1935.0</ele>
        <time>2019-08-04T14:32:19.315Z</time>
      </trkpt>
      <trkpt lat="42.535625" lon="1.62084167">
        <ele>1934.0</ele>
        <time>2019-08-04T14:32:20.336Z</time>
      </trkpt>
      <trkpt lat="42.535625" lon="1.62084167">
        <ele>1934.0</ele>
        <time>2019-08-04T14:32:21.325Z</time>
      </trkpt>
      <trkpt lat="42.53563167" lon="1.620765">
        <ele>1934.0</ele>
        <time>2019-08-04T14:32:22.326Z</time>
      </trkpt>
      <trkpt lat="42.53563167" lon="1.620765">
        <ele>1934.0</ele>
        <time>2019-08-04T14:32:23.323Z</time>
      </trkpt>
      <trkpt lat="42.53564333" lon="1.62067">
        <ele>1933.0</ele>
        <time>2019-08-04T14:32:24.303Z</time>
      </trkpt>
      <trkpt lat="42.53564333" lon="1.62067">
        <ele>1933.0</ele>
        <time>2019-08-04T14:32:25.324Z</time>
      </trkpt>
      <trkpt lat="42.535655" lon="1.620565">
        <ele>1932.0</ele>
        <time>2019-08-04T14:32:26.326Z</time>
      </trkpt>
      <trkpt lat="42.53566167" lon="1.62051">
        <ele>1932.0</ele>
        <time>2019-08-04T14:32:27.326Z</time>
      </trkpt>
      <trkpt lat="42.53566667" lon="1.62045167">
        <ele>1931.0</ele>
        <time>2019-08-04T14:32:28.325Z</time>
      </trkpt>
      <trkpt lat="42.53566667" lon="1.62045167">
        <ele>1931.0</ele>
        <time>2019-08-04T14:32:29.305Z</time>
      </trkpt>
      <trkpt lat="42.53568167" lon="1.62033833">
        <ele>1930.0</ele>
        <time>2019-08-04T14:32:30.321Z</time>
      </trkpt>
      <trkpt lat="42.53568167" lon="1.62033833">
        <ele>1930.0</ele>
        <time>2019-08-04T14:32:31.327Z</time>
      </trkpt>
      <trkpt lat="42.53569333" lon="1.62022667">
        <ele>1930.0</ele>
        <time>2019-08-04T14:32:32.327Z</time>
      </trkpt>
      <trkpt lat="42.53569333" lon="1.62022667">
        <ele>1930.0</ele>
        <time>2019-08-04T14:32:33.321Z</time>
      </trkpt>
      <trkpt lat="42.53570667" lon="1.62011167">
        <ele>1929.0</ele>
        <time>2019-08-04T14:32:34.300Z</time>
      </trkpt>
      <trkpt lat="42.53570667" lon="1.62011167">
        <ele>1929.0</ele>
        <time>2019-08-04T14:32:35.324Z</time>
      </trkpt>
      <trkpt lat="42.53571667" lon="1.62001">
        <ele>1928.0</ele>
        <time>2019-08-04T14:32:36.329Z</time>
      </trkpt>
      <trkpt lat="42.53571667" lon="1.62001">
        <ele>1928.0</ele>
        <time>2019-08-04T14:32:37.324Z</time>
      </trkpt>
      <trkpt lat="42.53572833" lon="1.6199">
        <ele>1928.0</ele>
        <time>2019-08-04T14:32:38.326Z</time>
      </trkpt>
      <trkpt lat="42.53572833" lon="1.6199">
        <ele>1928.0</ele>
        <time>2019-08-04T14:32:39.325Z</time>
      </trkpt>
      <trkpt lat="42.53573833" lon="1.619785">
        <ele>1927.0</ele>
        <time>2019-08-04T14:32:40.326Z</time>
      </trkpt>
      <trkpt lat="42.53573833" lon="1.619785">
        <ele>1927.0</ele>
        <time>2019-08-04T14:32:41.324Z</time>
      </trkpt>
      <trkpt lat="42.53575" lon="1.61967833">
        <ele>1926.0</ele>
        <time>2019-08-04T14:32:42.324Z</time>
      </trkpt>
      <trkpt lat="42.53575" lon="1.61967833">
        <ele>1926.0</ele>
        <time>2019-08-04T14:32:43.321Z</time>
      </trkpt>
      <trkpt lat="42.53575833" lon="1.619585">
        <ele>1926.0</ele>
        <time>2019-08-04T14:32:44.324Z</time>
      </trkpt>
      <trkpt lat="42.53576333" lon="1.61954">
        <ele>1925.0</ele>
        <time>2019-08-04T14:32:45.305Z</time>
      </trkpt>
      <trkpt lat="42.53576333" lon="1.61954">
        <ele>1925.0</ele>
        <time>2019-08-04T14:32:46.324Z</time>
      </trkpt>
      <trkpt lat="42.53577" lon="1.61945">
        <ele>1925.0</ele>
        <time>2019-08-04T14:32:47.332Z</time>
      </trkpt>
      <trkpt lat="42.53577667" lon="1.61940667">
        <ele>1925.0</ele>
        <time>2019-08-04T14:32:48.326Z</time>
      </trkpt>
      <trkpt lat="42.53577667" lon="1.61940667">
        <ele>1925.0</ele>
        <time>2019-08-04T14:32:49.302Z</time>
      </trkpt>
      <trkpt lat="42.53578833" lon="1.61932167">
        <ele>1924.0</ele>
        <time>2019-08-04T14:32:50.326Z</time>
      </trkpt>
      <trkpt lat="42.53578833" lon="1.61932167">
        <ele>1924.0</ele>
        <time>2019-08-04T14:32:51.324Z</time>
      </trkpt>
      <trkpt lat="42.53579" lon="1.61924333">
        <ele>1924.0</ele>
        <time>2019-08-04T14:32:52.327Z</time>
      </trkpt>
      <trkpt lat="42.53579" lon="1.61924333">
        <ele>1924.0</ele>
        <time>2019-08-04T14:32:53.314Z</time>
      </trkpt>
      <trkpt lat="42.53579833" lon="1.619175">
        <ele>1923.0</ele>
        <time>2019-08-04T14:32:54.299Z</time>
      </trkpt>
      <trkpt lat="42.5358" lon="1.61914167">
        <ele>1923.0</ele>
        <time>2019-08-04T14:32:55.326Z</time>
      </trkpt>
      <trkpt lat="42.535805" lon="1.61911">
        <ele>1923.0</ele>
        <time>2019-08-04T14:32:56.326Z</time>
      </trkpt>
      <trkpt lat="42.535805" lon="1.61911">
        <ele>1923.0</ele>
        <time>2019-08-04T14:32:57.324Z</time>
      </trkpt>
      <trkpt lat="42.53581167" lon="1.61904333">
        <ele>1923.0</ele>
        <time>2019-08-04T14:32:58.327Z</time>
      </trkpt>
      <trkpt lat="42.53581167" lon="1.61904333">
        <ele>1923.0</ele>
        <time>2019-08-04T14:32:59.325Z</time>
      </trkpt>
      <trkpt lat="42.535825" lon="1.61895167">
        <ele>1922.0</ele>
        <time>2019-08-04T14:33:00.328Z</time>
      </trkpt>
      <trkpt lat="42.535825" lon="1.61895167">
        <ele>1922.0</ele>
        <time>2019-08-04T14:33:01.324Z</time>
      </trkpt>
      <trkpt lat="42.535815" lon="1.61887333">
        <ele>1922.0</ele>
        <time>2019-08-04T14:33:02.327Z</time>
      </trkpt>
      <trkpt lat="42.535815" lon="1.61887333">
        <ele>1922.0</ele>
        <time>2019-08-04T14:33:03.322Z</time>
      </trkpt>
      <trkpt lat="42.535815" lon="1.61887333">
        <ele>1922.0</ele>
        <time>2019-08-04T14:33:04.299Z</time>
      </trkpt>
      <trkpt lat="42.53578167" lon="1.61889167">
        <ele>1921.0</ele>
        <time>2019-08-04T14:33:05.296Z</time>
      </trkpt>
      <trkpt lat="42.53578" lon="1.61894333">
        <ele>1922.0</ele>
        <time>2019-08-04T14:33:06.332Z</time>
      </trkpt>
      <trkpt lat="42.53578" lon="1.61894333">
        <ele>1922.0</ele>
        <time>2019-08-04T14:33:07.325Z</time>
      </trkpt>
      <trkpt lat="42.53579167" lon="1.618975">
        <ele>1922.0</ele>
        <time>2019-08-04T14:33:08.327Z</time>
      </trkpt>
      <trkpt lat="42.53579167" lon="1.618975">
        <ele>1922.0</ele>
        <time>2019-08-04T14:33:09.325Z</time>
      </trkpt>
      <trkpt lat="42.53579333" lon="1.61901">
        <ele>1922.0</ele>
        <time>2019-08-04T14:33:10.324Z</time>
      </trkpt>
      <trkpt lat="42.53579333" lon="1.61901">
        <ele>1922.0</ele>
        <time>2019-08-04T14:33:11.300Z</time>
      </trkpt>
      <trkpt lat="42.53578667" lon="1.61905">
        <ele>1923.0</ele>
        <time>2019-08-04T14:33:12.329Z</time>
      </trkpt>
      <trkpt lat="42.53578667" lon="1.61905">
        <ele>1923.0</ele>
        <time>2019-08-04T14:33:13.324Z</time>
      </trkpt>
      <trkpt lat="42.53578167" lon="1.619095">
        <ele>1923.0</ele>
        <time>2019-08-04T14:33:14.300Z</time>
      </trkpt>
      <trkpt lat="42.53578167" lon="1.619095">
        <ele>1923.0</ele>
        <time>2019-08-04T14:33:15.321Z</time>
      </trkpt>
      <trkpt lat="42.53577833" lon="1.61914833">
        <ele>1923.0</ele>
        <time>2019-08-04T14:33:16.328Z</time>
      </trkpt>
      <trkpt lat="42.53577833" lon="1.61914833">
        <ele>1923.0</ele>
        <time>2019-08-04T14:33:17.324Z</time>
      </trkpt>
      <trkpt lat="42.53577333" lon="1.6192">
        <ele>1924.0</ele>
        <time>2019-08-04T14:33:18.328Z</time>
      </trkpt>
      <trkpt lat="42.53577333" lon="1.6192">
        <ele>1924.0</ele>
        <time>2019-08-04T14:33:19.324Z</time>
      </trkpt>
      <trkpt lat="42.53576833" lon="1.61925167">
        <ele>1924.0</ele>
        <time>2019-08-04T14:33:20.327Z</time>
      </trkpt>
      <trkpt lat="42.53576833" lon="1.61925167">
        <ele>1924.0</ele>
        <time>2019-08-04T14:33:21.324Z</time>
      </trkpt>
      <trkpt lat="42.53575833" lon="1.61930167">
        <ele>1924.0</ele>
        <time>2019-08-04T14:33:22.327Z</time>
      </trkpt>
      <trkpt lat="42.53575833" lon="1.61930167">
        <ele>1924.0</ele>
        <time>2019-08-04T14:33:23.325Z</time>
      </trkpt>
      <trkpt lat="42.53575" lon="1.61935333">
        <ele>1925.0</ele>
        <time>2019-08-04T14:33:24.300Z</time>
      </trkpt>
      <trkpt lat="42.53574833" lon="1.61937833">
        <ele>1925.0</ele>
        <time>2019-08-04T14:33:25.325Z</time>
      </trkpt>
      <trkpt lat="42.53574833" lon="1.61937833">
        <ele>1925.0</ele>
        <time>2019-08-04T14:33:26.302Z</time>
      </trkpt>
      <trkpt lat="42.535745" lon="1.61943">
        <ele>1925.0</ele>
        <time>2019-08-04T14:33:27.326Z</time>
      </trkpt>
      <trkpt lat="42.535745" lon="1.61943">
        <ele>1925.0</ele>
        <time>2019-08-04T14:33:28.302Z</time>
      </trkpt>
      <trkpt lat="42.53574167" lon="1.61948167">
        <ele>1926.0</ele>
        <time>2019-08-04T14:33:29.297Z</time>
      </trkpt>
      <trkpt lat="42.53574" lon="1.61950667">
        <ele>1926.0</ele>
        <time>2019-08-04T14:33:30.305Z</time>
      </trkpt>
      <trkpt lat="42.53574" lon="1.61950667">
        <ele>1926.0</ele>
        <time>2019-08-04T14:33:31.312Z</time>
      </trkpt>
      <trkpt lat="42.53573167" lon="1.61955667">
        <ele>1927.0</ele>
        <time>2019-08-04T14:33:32.327Z</time>
      </trkpt>
      <trkpt lat="42.53573167" lon="1.61955667">
        <ele>1927.0</ele>
        <time>2019-08-04T14:33:33.324Z</time>
      </trkpt>
      <trkpt lat="42.53572667" lon="1.61961">
        <ele>1927.0</ele>
        <time>2019-08-04T14:33:34.327Z</time>
      </trkpt>
      <trkpt lat="42.53572667" lon="1.61961">
        <ele>1927.0</ele>
        <time>2019-08-04T14:33:35.325Z</time>
      </trkpt>
      <trkpt lat="42.53572333" lon="1.61966">
        <ele>1927.0</ele>
        <time>2019-08-04T14:33:36.328Z</time>
      </trkpt>
      <trkpt lat="42.53572333" lon="1.61966">
        <ele>1927.0</ele>
        <time>2019-08-04T14:33:37.324Z</time>
      </trkpt>
      <trkpt lat="42.53571833" lon="1.61971">
        <ele>1927.0</ele>
        <time>2019-08-04T14:33:38.328Z</time>
      </trkpt>
      <trkpt lat="42.53571833" lon="1.61971">
        <ele>1927.0</ele>
        <time>2019-08-04T14:33:39.322Z</time>
      </trkpt>
      <trkpt lat="42.53571333" lon="1.61976">
        <ele>1928.0</ele>
        <time>2019-08-04T14:33:40.327Z</time>
      </trkpt>
      <trkpt lat="42.53571333" lon="1.61976">
        <ele>1928.0</ele>
        <time>2019-08-04T14:33:41.324Z</time>
      </trkpt>
      <trkpt lat="42.53571" lon="1.61981">
        <ele>1928.0</ele>
        <time>2019-08-04T14:33:42.308Z</time>
      </trkpt>
      <trkpt lat="42.53571" lon="1.61981">
        <ele>1928.0</ele>
        <time>2019-08-04T14:33:43.326Z</time>
      </trkpt>
      <trkpt lat="42.53570333" lon="1.61986">
        <ele>1928.0</ele>
        <time>2019-08-04T14:33:44.298Z</time>
      </trkpt>
      <trkpt lat="42.53570333" lon="1.61986">
        <ele>1928.0</ele>
        <time>2019-08-04T14:33:45.324Z</time>
      </trkpt>
      <trkpt lat="42.535705" lon="1.61991167">
        <ele>1929.0</ele>
        <time>2019-08-04T14:33:46.308Z</time>
      </trkpt>
      <trkpt lat="42.53570333" lon="1.61993833">
        <ele>1929.0</ele>
        <time>2019-08-04T14:33:47.337Z</time>
      </trkpt>
      <trkpt lat="42.53570333" lon="1.61993833">
        <ele>1929.0</ele>
        <time>2019-08-04T14:33:48.323Z</time>
      </trkpt>
      <trkpt lat="42.53569667" lon="1.61999">
        <ele>1929.0</ele>
        <time>2019-08-04T14:33:49.327Z</time>
      </trkpt>
      <trkpt lat="42.53569667" lon="1.61999">
        <ele>1929.0</ele>
        <time>2019-08-04T14:33:50.325Z</time>
      </trkpt>
      <trkpt lat="42.53569" lon="1.62004333">
        <ele>1930.0</ele>
        <time>2019-08-04T14:33:51.327Z</time>
      </trkpt>
      <trkpt lat="42.53569" lon="1.62004333">
        <ele>1930.0</ele>
        <time>2019-08-04T14:33:52.306Z</time>
      </trkpt>
      <trkpt lat="42.53568667" lon="1.620095">
        <ele>1930.0</ele>
        <time>2019-08-04T14:33:53.327Z</time>
      </trkpt>
      <trkpt lat="42.53568333" lon="1.62012167">
        <ele>1930.0</ele>
        <time>2019-08-04T14:33:54.305Z</time>
      </trkpt>
      <trkpt lat="42.53568333" lon="1.62012167">
        <ele>1930.0</ele>
        <time>2019-08-04T14:33:55.324Z</time>
      </trkpt>
      <trkpt lat="42.53567167" lon="1.62017333">
        <ele>1930.0</ele>
        <time>2019-08-04T14:33:56.324Z</time>
      </trkpt>
      <trkpt lat="42.53567167" lon="1.62017333">
        <ele>1930.0</ele>
        <time>2019-08-04T14:33:57.302Z</time>
      </trkpt>
      <trkpt lat="42.535665" lon="1.62022167">
        <ele>1930.0</ele>
        <time>2019-08-04T14:33:58.327Z</time>
      </trkpt>
      <trkpt lat="42.535665" lon="1.62022167">
        <ele>1930.0</ele>
        <time>2019-08-04T14:33:59.324Z</time>
      </trkpt>
      <trkpt lat="42.53565667" lon="1.62027167">
        <ele>1930.0</ele>
        <time>2019-08-04T14:34:00.329Z</time>
      </trkpt>
      <trkpt lat="42.53565667" lon="1.62027167">
        <ele>1930.0</ele>
        <time>2019-08-04T14:34:01.324Z</time>
      </trkpt>
      <trkpt lat="42.53565167" lon="1.620325">
        <ele>1931.0</ele>
        <time>2019-08-04T14:34:02.306Z</time>
      </trkpt>
      <trkpt lat="42.53564833" lon="1.62035333">
        <ele>1931.0</ele>
        <time>2019-08-04T14:34:03.328Z</time>
      </trkpt>
      <trkpt lat="42.53564833" lon="1.62035333">
        <ele>1931.0</ele>
        <time>2019-08-04T14:34:04.324Z</time>
      </trkpt>
      <trkpt lat="42.53564" lon="1.62040833">
        <ele>1931.0</ele>
        <time>2019-08-04T14:34:05.300Z</time>
      </trkpt>
      <trkpt lat="42.53563667" lon="1.62043333">
        <ele>1931.0</ele>
        <time>2019-08-04T14:34:06.330Z</time>
      </trkpt>
      <trkpt lat="42.53563667" lon="1.62043333">
        <ele>1931.0</ele>
        <time>2019-08-04T14:34:07.490Z</time>
      </trkpt>
      <trkpt lat="42.53563333" lon="1.62045833">
        <ele>1931.0</ele>
        <time>2019-08-04T14:34:08.325Z</time>
      </trkpt>
      <trkpt lat="42.53562833" lon="1.62051167">
        <ele>1932.0</ele>
        <time>2019-08-04T14:34:09.327Z</time>
      </trkpt>
      <trkpt lat="42.53562833" lon="1.62051167">
        <ele>1932.0</ele>
        <time>2019-08-04T14:34:10.325Z</time>
      </trkpt>
      <trkpt lat="42.535625" lon="1.62056167">
        <ele>1932.0</ele>
        <time>2019-08-04T14:34:11.327Z</time>
      </trkpt>
      <trkpt lat="42.53562" lon="1.62058667">
        <ele>1932.0</ele>
        <time>2019-08-04T14:34:12.329Z</time>
      </trkpt>
      <trkpt lat="42.53562" lon="1.62058667">
        <ele>1932.0</ele>
        <time>2019-08-04T14:34:13.325Z</time>
      </trkpt>
      <trkpt lat="42.53561167" lon="1.62063667">
        <ele>1933.0</ele>
        <time>2019-08-04T14:34:14.333Z</time>
      </trkpt>
      <trkpt lat="42.53561167" lon="1.62063667">
        <ele>1933.0</ele>
        <time>2019-08-04T14:34:15.322Z</time>
      </trkpt>
      <trkpt lat="42.53560833" lon="1.62068667">
        <ele>1933.0</ele>
        <time>2019-08-04T14:34:16.302Z</time>
      </trkpt>
      <trkpt lat="42.53560833" lon="1.62068667">
        <ele>1933.0</ele>
        <time>2019-08-04T14:34:17.323Z</time>
      </trkpt>
      <trkpt lat="42.53560333" lon="1.62073667">
        <ele>1933.0</ele>
        <time>2019-08-04T14:34:18.328Z</time>
      </trkpt>
      <trkpt lat="42.53560333" lon="1.62073667">
        <ele>1933.0</ele>
        <time>2019-08-04T14:34:19.325Z</time>
      </trkpt>
      <trkpt lat="42.535595" lon="1.62078833">
        <ele>1934.0</ele>
        <time>2019-08-04T14:34:20.327Z</time>
      </trkpt>
      <trkpt lat="42.535595" lon="1.62078833">
        <ele>1934.0</ele>
        <time>2019-08-04T14:34:21.325Z</time>
      </trkpt>
      <trkpt lat="42.53559" lon="1.62084">
        <ele>1934.0</ele>
        <time>2019-08-04T14:34:22.325Z</time>
      </trkpt>
      <trkpt lat="42.53559" lon="1.62084">
        <ele>1934.0</ele>
        <time>2019-08-04T14:34:23.302Z</time>
      </trkpt>
      <trkpt lat="42.53558667" lon="1.62089167">
        <ele>1934.0</ele>
        <time>2019-08-04T14:34:24.325Z</time>
      </trkpt>
      <trkpt lat="42.53558667" lon="1.62089167">
        <ele>1934.0</ele>
        <time>2019-08-04T14:34:25.310Z</time>
      </trkpt>
      <trkpt lat="42.535585" lon="1.62094167">
        <ele>1935.0</ele>
        <time>2019-08-04T14:34:26.335Z</time>
      </trkpt>
      <trkpt lat="42.535585" lon="1.62094167">
        <ele>1935.0</ele>
        <time>2019-08-04T14:34:27.322Z</time>
      </trkpt>
      <trkpt lat="42.53558333" lon="1.62099167">
        <ele>1935.0</ele>
        <time>2019-08-04T14:34:28.302Z</time>
      </trkpt>
      <trkpt lat="42.53558333" lon="1.62099167">
        <ele>1935.0</ele>
        <time>2019-08-04T14:34:29.301Z</time>
      </trkpt>
      <trkpt lat="42.53558" lon="1.62104167">
        <ele>1936.0</ele>
        <time>2019-08-04T14:34:30.325Z</time>
      </trkpt>
      <trkpt lat="42.53558" lon="1.62104167">
        <ele>1936.0</ele>
        <time>2019-08-04T14:34:31.300Z</time>
      </trkpt>
      <trkpt lat="42.53557333" lon="1.62109167">
        <ele>1936.0</ele>
        <time>2019-08-04T14:34:32.305Z</time>
      </trkpt>
      <trkpt lat="42.53557333" lon="1.62109167">
        <ele>1936.0</ele>
        <time>2019-08-04T14:34:33.312Z</time>
      </trkpt>
      <trkpt lat="42.53557" lon="1.621145">
        <ele>1936.0</ele>
        <time>2019-08-04T14:34:34.298Z</time>
      </trkpt>
      <trkpt lat="42.53557167" lon="1.62117">
        <ele>1936.0</ele>
        <time>2019-08-04T14:34:35.326Z</time>
      </trkpt>
      <trkpt lat="42.53557167" lon="1.62119667">
        <ele>1937.0</ele>
        <time>2019-08-04T14:34:36.303Z</time>
      </trkpt>
      <trkpt lat="42.53557167" lon="1.62119667">
        <ele>1937.0</ele>
        <time>2019-08-04T14:34:37.324Z</time>
      </trkpt>
      <trkpt lat="42.53556333" lon="1.621245">
        <ele>1937.0</ele>
        <time>2019-08-04T14:34:38.300Z</time>
      </trkpt>
      <trkpt lat="42.53556333" lon="1.621245">
        <ele>1937.0</ele>
        <time>2019-08-04T14:34:39.323Z</time>
      </trkpt>
      <trkpt lat="42.53555333" lon="1.62129333">
        <ele>1937.0</ele>
        <time>2019-08-04T14:34:40.327Z</time>
      </trkpt>
      <trkpt lat="42.53555333" lon="1.62129333">
        <ele>1937.0</ele>
        <time>2019-08-04T14:34:41.325Z</time>
      </trkpt>
      <trkpt lat="42.53554333" lon="1.62134333">
        <ele>1938.0</ele>
        <time>2019-08-04T14:34:42.325Z</time>
      </trkpt>
      <trkpt lat="42.53553833" lon="1.62136833">
        <ele>1938.0</ele>
        <time>2019-08-04T14:34:43.307Z</time>
      </trkpt>
      <trkpt lat="42.53553833" lon="1.62136833">
        <ele>1938.0</ele>
        <time>2019-08-04T14:34:44.316Z</time>
      </trkpt>
      <trkpt lat="42.53553333" lon="1.621395">
        <ele>1938.0</ele>
        <time>2019-08-04T14:34:45.306Z</time>
      </trkpt>
      <trkpt lat="42.535525" lon="1.62144333">
        <ele>1938.0</ele>
        <time>2019-08-04T14:34:46.324Z</time>
      </trkpt>
      <trkpt lat="42.53552" lon="1.62146833">
        <ele>1939.0</ele>
        <time>2019-08-04T14:34:47.300Z</time>
      </trkpt>
      <trkpt lat="42.53552" lon="1.62146833">
        <ele>1939.0</ele>
        <time>2019-08-04T14:34:48.324Z</time>
      </trkpt>
      <trkpt lat="42.53551167" lon="1.621515">
        <ele>1939.0</ele>
        <time>2019-08-04T14:34:49.328Z</time>
      </trkpt>
      <trkpt lat="42.535505" lon="1.62153833">
        <ele>1939.0</ele>
        <time>2019-08-04T14:34:50.328Z</time>
      </trkpt>
      <trkpt lat="42.535505" lon="1.62153833">
        <ele>1939.0</ele>
        <time>2019-08-04T14:34:51.324Z</time>
      </trkpt>
      <trkpt lat="42.53549333" lon="1.62158833">
        <ele>1939.0</ele>
        <time>2019-08-04T14:34:52.327Z</time>
      </trkpt>
      <trkpt lat="42.53549333" lon="1.62158833">
        <ele>1939.0</ele>
        <time>2019-08-04T14:34:53.322Z</time>
      </trkpt>
      <trkpt lat="42.53547833" lon="1.62163833">
        <ele>1940.0</ele>
        <time>2019-08-04T14:34:54.315Z</time>
      </trkpt>
      <trkpt lat="42.53547833" lon="1.62163833">
        <ele>1940.0</ele>
        <time>2019-08-04T14:34:55.299Z</time>
      </trkpt>
      <trkpt lat="42.53546667" lon="1.621685">
        <ele>1940.0</ele>
        <time>2019-08-04T14:34:56.336Z</time>
      </trkpt>
      <trkpt lat="42.53546667" lon="1.621685">
        <ele>1940.0</ele>
        <time>2019-08-04T14:34:57.324Z</time>
      </trkpt>
      <trkpt lat="42.53545667" lon="1.62173333">
        <ele>1940.0</ele>
        <time>2019-08-04T14:34:58.327Z</time>
      </trkpt>
      <trkpt lat="42.53545667" lon="1.62173333">
        <ele>1940.0</ele>
        <time>2019-08-04T14:34:59.324Z</time>
      </trkpt>
      <trkpt lat="42.53544167" lon="1.62178167">
        <ele>1940.0</ele>
        <time>2019-08-04T14:35:00.304Z</time>
      </trkpt>
      <trkpt lat="42.53544167" lon="1.62178167">
        <ele>1940.0</ele>
        <time>2019-08-04T14:35:01.325Z</time>
      </trkpt>
      <trkpt lat="42.53542833" lon="1.62183167">
        <ele>1941.0</ele>
        <time>2019-08-04T14:35:02.327Z</time>
      </trkpt>
      <trkpt lat="42.53542833" lon="1.62183167">
        <ele>1941.0</ele>
        <time>2019-08-04T14:35:03.322Z</time>
      </trkpt>
      <trkpt lat="42.535415" lon="1.62188167">
        <ele>1941.0</ele>
        <time>2019-08-04T14:35:04.316Z</time>
      </trkpt>
      <trkpt lat="42.535415" lon="1.62188167">
        <ele>1941.0</ele>
        <time>2019-08-04T14:35:05.305Z</time>
      </trkpt>
      <trkpt lat="42.535415" lon="1.62188167">
        <ele>1941.0</ele>
        <time>2019-08-04T14:35:06.469Z</time>
      </trkpt>
      <trkpt lat="42.53540167" lon="1.62193333">
        <ele>1941.0</ele>
        <time>2019-08-04T14:35:07.325Z</time>
      </trkpt>
      <trkpt lat="42.53538833" lon="1.62198167">
        <ele>1941.0</ele>
        <time>2019-08-04T14:35:08.328Z</time>
      </trkpt>
      <trkpt lat="42.53538833" lon="1.62198167">
        <ele>1941.0</ele>
        <time>2019-08-04T14:35:09.325Z</time>
      </trkpt>
      <trkpt lat="42.535375" lon="1.62203">
        <ele>1942.0</ele>
        <time>2019-08-04T14:35:10.327Z</time>
      </trkpt>
      <trkpt lat="42.53536667" lon="1.62205167">
        <ele>1942.0</ele>
        <time>2019-08-04T14:35:11.329Z</time>
      </trkpt>
      <trkpt lat="42.53536667" lon="1.62205167">
        <ele>1942.0</ele>
        <time>2019-08-04T14:35:12.328Z</time>
      </trkpt>
      <trkpt lat="42.535355" lon="1.6221">
        <ele>1942.0</ele>
        <time>2019-08-04T14:35:13.328Z</time>
      </trkpt>
      <trkpt lat="42.53534667" lon="1.62212167">
        <ele>1942.0</ele>
        <time>2019-08-04T14:35:14.327Z</time>
      </trkpt>
      <trkpt lat="42.53534667" lon="1.62212167">
        <ele>1942.0</ele>
        <time>2019-08-04T14:35:15.323Z</time>
      </trkpt>
      <trkpt lat="42.535335" lon="1.62217167">
        <ele>1943.0</ele>
        <time>2019-08-04T14:35:16.328Z</time>
      </trkpt>
      <trkpt lat="42.535335" lon="1.62217167">
        <ele>1943.0</ele>
        <time>2019-08-04T14:35:17.325Z</time>
      </trkpt>
      <trkpt lat="42.53532333" lon="1.62222">
        <ele>1943.0</ele>
        <time>2019-08-04T14:35:18.328Z</time>
      </trkpt>
      <trkpt lat="42.53532333" lon="1.62222">
        <ele>1943.0</ele>
        <time>2019-08-04T14:35:19.315Z</time>
      </trkpt>
      <trkpt lat="42.53531167" lon="1.62226667">
        <ele>1943.0</ele>
        <time>2019-08-04T14:35:20.297Z</time>
      </trkpt>
      <trkpt lat="42.53531167" lon="1.62226667">
        <ele>1943.0</ele>
        <time>2019-08-04T14:35:21.323Z</time>
      </trkpt>
      <trkpt lat="42.535305" lon="1.62231167">
        <ele>1943.0</ele>
        <time>2019-08-04T14:35:22.328Z</time>
      </trkpt>
      <trkpt lat="42.535305" lon="1.62231167">
        <ele>1943.0</ele>
        <time>2019-08-04T14:35:23.325Z</time>
      </trkpt>
      <trkpt lat="42.53529333" lon="1.62235833">
        <ele>1944.0</ele>
        <time>2019-08-04T14:35:24.300Z</time>
      </trkpt>
      <trkpt lat="42.53529333" lon="1.62235833">
        <ele>1944.0</ele>
        <time>2019-08-04T14:35:25.325Z</time>
      </trkpt>
      <trkpt lat="42.535285" lon="1.622405">
        <ele>1944.0</ele>
        <time>2019-08-04T14:35:26.328Z</time>
      </trkpt>
      <trkpt lat="42.535285" lon="1.622405">
        <ele>1944.0</ele>
        <time>2019-08-04T14:35:27.324Z</time>
      </trkpt>
      <trkpt lat="42.53527333" lon="1.62245">
        <ele>1944.0</ele>
        <time>2019-08-04T14:35:28.326Z</time>
      </trkpt>
      <trkpt lat="42.53527333" lon="1.62245">
        <ele>1944.0</ele>
        <time>2019-08-04T14:35:29.315Z</time>
      </trkpt>
      <trkpt lat="42.53526167" lon="1.622495">
        <ele>1945.0</ele>
        <time>2019-08-04T14:35:30.304Z</time>
      </trkpt>
      <trkpt lat="42.53526167" lon="1.622495">
        <ele>1945.0</ele>
        <time>2019-08-04T14:35:31.325Z</time>
      </trkpt>
      <trkpt lat="42.53525" lon="1.62254333">
        <ele>1945.0</ele>
        <time>2019-08-04T14:35:32.328Z</time>
      </trkpt>
      <trkpt lat="42.53525" lon="1.62254333">
        <ele>1945.0</ele>
        <time>2019-08-04T14:35:33.324Z</time>
      </trkpt>
      <trkpt lat="42.53524333" lon="1.62259333">
        <ele>1945.0</ele>
        <time>2019-08-04T14:35:34.328Z</time>
      </trkpt>
      <trkpt lat="42.53524333" lon="1.62259333">
        <ele>1945.0</ele>
        <time>2019-08-04T14:35:35.300Z</time>
      </trkpt>
      <trkpt lat="42.53523333" lon="1.62264167">
        <ele>1945.0</ele>
        <time>2019-08-04T14:35:36.328Z</time>
      </trkpt>
      <trkpt lat="42.53523333" lon="1.62264167">
        <ele>1945.0</ele>
        <time>2019-08-04T14:35:37.306Z</time>
      </trkpt>
      <trkpt lat="42.535225" lon="1.62269">
        <ele>1946.0</ele>
        <time>2019-08-04T14:35:38.328Z</time>
      </trkpt>
      <trkpt lat="42.53521833" lon="1.62271333">
        <ele>1946.0</ele>
        <time>2019-08-04T14:35:39.328Z</time>
      </trkpt>
      <trkpt lat="42.53521833" lon="1.62271333">
        <ele>1946.0</ele>
        <time>2019-08-04T14:35:40.325Z</time>
      </trkpt>
      <trkpt lat="42.53521333" lon="1.62275833">
        <ele>1946.0</ele>
        <time>2019-08-04T14:35:41.327Z</time>
      </trkpt>
      <trkpt lat="42.53521333" lon="1.62278333">
        <ele>1946.0</ele>
        <time>2019-08-04T14:35:42.306Z</time>
      </trkpt>
      <trkpt lat="42.53521333" lon="1.62278333">
        <ele>1946.0</ele>
        <time>2019-08-04T14:35:43.325Z</time>
      </trkpt>
      <trkpt lat="42.53521" lon="1.62283333">
        <ele>1946.0</ele>
        <time>2019-08-04T14:35:44.319Z</time>
      </trkpt>
      <trkpt lat="42.53521" lon="1.62283333">
        <ele>1946.0</ele>
        <time>2019-08-04T14:35:45.325Z</time>
      </trkpt>
      <trkpt lat="42.53520167" lon="1.62288333">
        <ele>1946.0</ele>
        <time>2019-08-04T14:35:46.328Z</time>
      </trkpt>
      <trkpt lat="42.53520167" lon="1.62288333">
        <ele>1946.0</ele>
        <time>2019-08-04T14:35:47.326Z</time>
      </trkpt>
      <trkpt lat="42.53519833" lon="1.62293333">
        <ele>1947.0</ele>
        <time>2019-08-04T14:35:48.329Z</time>
      </trkpt>
      <trkpt lat="42.53519833" lon="1.62293333">
        <ele>1947.0</ele>
        <time>2019-08-04T14:35:49.322Z</time>
      </trkpt>
      <trkpt lat="42.535195" lon="1.62298333">
        <ele>1947.0</ele>
        <time>2019-08-04T14:35:50.328Z</time>
      </trkpt>
      <trkpt lat="42.535195" lon="1.62298333">
        <ele>1947.0</ele>
        <time>2019-08-04T14:35:51.324Z</time>
      </trkpt>
      <trkpt lat="42.53518833" lon="1.62303333">
        <ele>1947.0</ele>
        <time>2019-08-04T14:35:52.329Z</time>
      </trkpt>
      <trkpt lat="42.53518833" lon="1.62303333">
        <ele>1947.0</ele>
        <time>2019-08-04T14:35:53.325Z</time>
      </trkpt>
      <trkpt lat="42.535185" lon="1.62308167">
        <ele>1947.0</ele>
        <time>2019-08-04T14:35:54.304Z</time>
      </trkpt>
      <trkpt lat="42.535185" lon="1.62308167">
        <ele>1947.0</ele>
        <time>2019-08-04T14:35:55.325Z</time>
      </trkpt>
      <trkpt lat="42.53517833" lon="1.62313">
        <ele>1948.0</ele>
        <time>2019-08-04T14:35:56.307Z</time>
      </trkpt>
      <trkpt lat="42.53517833" lon="1.62313">
        <ele>1948.0</ele>
        <time>2019-08-04T14:35:57.325Z</time>
      </trkpt>
      <trkpt lat="42.535175" lon="1.62318">
        <ele>1948.0</ele>
        <time>2019-08-04T14:35:58.324Z</time>
      </trkpt>
      <trkpt lat="42.535175" lon="1.62318">
        <ele>1948.0</ele>
        <time>2019-08-04T14:35:59.301Z</time>
      </trkpt>
      <trkpt lat="42.53517333" lon="1.62322833">
        <ele>1948.0</ele>
        <time>2019-08-04T14:36:00.330Z</time>
      </trkpt>
      <trkpt lat="42.53517333" lon="1.62322833">
        <ele>1948.0</ele>
        <time>2019-08-04T14:36:01.324Z</time>
      </trkpt>
      <trkpt lat="42.53516833" lon="1.62328">
        <ele>1948.0</ele>
        <time>2019-08-04T14:36:02.307Z</time>
      </trkpt>
      <trkpt lat="42.53516833" lon="1.62328">
        <ele>1948.0</ele>
        <time>2019-08-04T14:36:03.324Z</time>
      </trkpt>
      <trkpt lat="42.53516333" lon="1.62333167">
        <ele>1949.0</ele>
        <time>2019-08-04T14:36:04.298Z</time>
      </trkpt>
      <trkpt lat="42.53516333" lon="1.62333167">
        <ele>1949.0</ele>
        <time>2019-08-04T14:36:05.325Z</time>
      </trkpt>
      <trkpt lat="42.53516" lon="1.62338167">
        <ele>1949.0</ele>
        <time>2019-08-04T14:36:06.308Z</time>
      </trkpt>
      <trkpt lat="42.53515667" lon="1.62340667">
        <ele>1949.0</ele>
        <time>2019-08-04T14:36:07.327Z</time>
      </trkpt>
      <trkpt lat="42.53515667" lon="1.62340667">
        <ele>1949.0</ele>
        <time>2019-08-04T14:36:08.325Z</time>
      </trkpt>
      <trkpt lat="42.53515167" lon="1.623455">
        <ele>1949.0</ele>
        <time>2019-08-04T14:36:09.328Z</time>
      </trkpt>
      <trkpt lat="42.53515167" lon="1.623455">
        <ele>1949.0</ele>
        <time>2019-08-04T14:36:10.325Z</time>
      </trkpt>
      <trkpt lat="42.53515167" lon="1.623455">
        <ele>1949.0</ele>
        <time>2019-08-04T14:36:11.488Z</time>
      </trkpt>
      <trkpt lat="42.535145" lon="1.62352833">
        <ele>1950.0</ele>
        <time>2019-08-04T14:36:12.304Z</time>
      </trkpt>
      <trkpt lat="42.535145" lon="1.62352833">
        <ele>1950.0</ele>
        <time>2019-08-04T14:36:13.316Z</time>
      </trkpt>
      <trkpt lat="42.53514667" lon="1.62357667">
        <ele>1950.0</ele>
        <time>2019-08-04T14:36:14.327Z</time>
      </trkpt>
      <trkpt lat="42.53514833" lon="1.62359667">
        <ele>1950.0</ele>
        <time>2019-08-04T14:36:15.327Z</time>
      </trkpt>
      <trkpt lat="42.53514333" lon="1.62362">
        <ele>1950.0</ele>
        <time>2019-08-04T14:36:16.306Z</time>
      </trkpt>
      <trkpt lat="42.53514333" lon="1.62362">
        <ele>1950.0</ele>
        <time>2019-08-04T14:36:17.325Z</time>
      </trkpt>
      <trkpt lat="42.53513667" lon="1.62367">
        <ele>1950.0</ele>
        <time>2019-08-04T14:36:18.331Z</time>
      </trkpt>
      <trkpt lat="42.53513667" lon="1.62367">
        <ele>1950.0</ele>
        <time>2019-08-04T14:36:19.325Z</time>
      </trkpt>
      <trkpt lat="42.53513167" lon="1.62372">
        <ele>1951.0</ele>
        <time>2019-08-04T14:36:20.329Z</time>
      </trkpt>
      <trkpt lat="42.53512833" lon="1.623745">
        <ele>1951.0</ele>
        <time>2019-08-04T14:36:21.328Z</time>
      </trkpt>
      <trkpt lat="42.53512833" lon="1.623745">
        <ele>1951.0</ele>
        <time>2019-08-04T14:36:22.306Z</time>
      </trkpt>
      <trkpt lat="42.53512167" lon="1.623795">
        <ele>1951.0</ele>
        <time>2019-08-04T14:36:23.328Z</time>
      </trkpt>
      <trkpt lat="42.53511833" lon="1.62382167">
        <ele>1951.0</ele>
        <time>2019-08-04T14:36:24.305Z</time>
      </trkpt>
      <trkpt lat="42.53511833" lon="1.62382167">
        <ele>1951.0</ele>
        <time>2019-08-04T14:36:25.323Z</time>
      </trkpt>
      <trkpt lat="42.53511333" lon="1.62387">
        <ele>1951.0</ele>
        <time>2019-08-04T14:36:26.305Z</time>
      </trkpt>
      <trkpt lat="42.53511" lon="1.623895">
        <ele>1951.0</ele>
        <time>2019-08-04T14:36:27.329Z</time>
      </trkpt>
      <trkpt lat="42.53511" lon="1.623895">
        <ele>1951.0</ele>
        <time>2019-08-04T14:36:28.325Z</time>
      </trkpt>
      <trkpt lat="42.53510333" lon="1.62394667">
        <ele>1951.0</ele>
        <time>2019-08-04T14:36:29.319Z</time>
      </trkpt>
      <trkpt lat="42.53510333" lon="1.62397167">
        <ele>1952.0</ele>
        <time>2019-08-04T14:36:30.334Z</time>
      </trkpt>
      <trkpt lat="42.53510333" lon="1.62397167">
        <ele>1952.0</ele>
        <time>2019-08-04T14:36:31.301Z</time>
      </trkpt>
      <trkpt lat="42.53510167" lon="1.62402">
        <ele>1952.0</ele>
        <time>2019-08-04T14:36:32.329Z</time>
      </trkpt>
      <trkpt lat="42.53510167" lon="1.62402">
        <ele>1952.0</ele>
        <time>2019-08-04T14:36:33.325Z</time>
      </trkpt>
      <trkpt lat="42.535095" lon="1.62407">
        <ele>1952.0</ele>
        <time>2019-08-04T14:36:34.319Z</time>
      </trkpt>
      <trkpt lat="42.53509167" lon="1.62409333">
        <ele>1953.0</ele>
        <time>2019-08-04T14:36:35.296Z</time>
      </trkpt>
      <trkpt lat="42.53509167" lon="1.62409333">
        <ele>1953.0</ele>
        <time>2019-08-04T14:36:36.327Z</time>
      </trkpt>
      <trkpt lat="42.53508667" lon="1.62414333">
        <ele>1953.0</ele>
        <time>2019-08-04T14:36:37.303Z</time>
      </trkpt>
      <trkpt lat="42.53508333" lon="1.62416833">
        <ele>1953.0</ele>
        <time>2019-08-04T14:36:38.328Z</time>
      </trkpt>
      <trkpt lat="42.53508333" lon="1.62416833">
        <ele>1953.0</ele>
        <time>2019-08-04T14:36:39.335Z</time>
      </trkpt>
      <trkpt lat="42.53508167" lon="1.62421833">
        <ele>1953.0</ele>
        <time>2019-08-04T14:36:40.327Z</time>
      </trkpt>
      <trkpt lat="42.53508167" lon="1.62421833">
        <ele>1953.0</ele>
        <time>2019-08-04T14:36:41.324Z</time>
      </trkpt>
      <trkpt lat="42.53508167" lon="1.62421833">
        <ele>1953.0</ele>
        <time>2019-08-04T14:36:42.299Z</time>
      </trkpt>
      <trkpt lat="42.535075" lon="1.62427">
        <ele>1954.0</ele>
        <time>2019-08-04T14:36:43.325Z</time>
      </trkpt>
      <trkpt lat="42.53507167" lon="1.62432333">
        <ele>1954.0</ele>
        <time>2019-08-04T14:36:44.300Z</time>
      </trkpt>
      <trkpt lat="42.53507167" lon="1.62432333">
        <ele>1954.0</ele>
        <time>2019-08-04T14:36:45.326Z</time>
      </trkpt>
      <trkpt lat="42.53507" lon="1.62437667">
        <ele>1954.0</ele>
        <time>2019-08-04T14:36:46.301Z</time>
      </trkpt>
      <trkpt lat="42.53507" lon="1.62437667">
        <ele>1954.0</ele>
        <time>2019-08-04T14:36:47.326Z</time>
      </trkpt>
      <trkpt lat="42.53507" lon="1.62443">
        <ele>1955.0</ele>
        <time>2019-08-04T14:36:48.329Z</time>
      </trkpt>
      <trkpt lat="42.53507" lon="1.62443">
        <ele>1955.0</ele>
        <time>2019-08-04T14:36:49.321Z</time>
      </trkpt>
      <trkpt lat="42.535075" lon="1.624485">
        <ele>1955.0</ele>
        <time>2019-08-04T14:36:50.301Z</time>
      </trkpt>
      <trkpt lat="42.535075" lon="1.624485">
        <ele>1955.0</ele>
        <time>2019-08-04T14:36:51.325Z</time>
      </trkpt>
      <trkpt lat="42.53508" lon="1.62453667">
        <ele>1955.0</ele>
        <time>2019-08-04T14:36:52.327Z</time>
      </trkpt>
      <trkpt lat="42.53508333" lon="1.62456333">
        <ele>1955.0</ele>
        <time>2019-08-04T14:36:53.327Z</time>
      </trkpt>
      <trkpt lat="42.53508667" lon="1.62459">
        <ele>1956.0</ele>
        <time>2019-08-04T14:36:54.328Z</time>
      </trkpt>
      <trkpt lat="42.53508667" lon="1.62459">
        <ele>1956.0</ele>
        <time>2019-08-04T14:36:55.325Z</time>
      </trkpt>
      <trkpt lat="42.53509667" lon="1.62464167">
        <ele>1956.0</ele>
        <time>2019-08-04T14:36:56.328Z</time>
      </trkpt>
      <trkpt lat="42.53509667" lon="1.62464167">
        <ele>1956.0</ele>
        <time>2019-08-04T14:36:57.325Z</time>
      </trkpt>
      <trkpt lat="42.53510833" lon="1.62469167">
        <ele>1956.0</ele>
        <time>2019-08-04T14:36:58.324Z</time>
      </trkpt>
      <trkpt lat="42.53510833" lon="1.62469167">
        <ele>1956.0</ele>
        <time>2019-08-04T14:36:59.300Z</time>
      </trkpt>
      <trkpt lat="42.53512" lon="1.62474333">
        <ele>1956.0</ele>
        <time>2019-08-04T14:37:00.328Z</time>
      </trkpt>
      <trkpt lat="42.53512" lon="1.62474333">
        <ele>1956.0</ele>
        <time>2019-08-04T14:37:01.325Z</time>
      </trkpt>
      <trkpt lat="42.535135" lon="1.62479333">
        <ele>1957.0</ele>
        <time>2019-08-04T14:37:02.328Z</time>
      </trkpt>
      <trkpt lat="42.535135" lon="1.62479333">
        <ele>1957.0</ele>
        <time>2019-08-04T14:37:03.322Z</time>
      </trkpt>
      <trkpt lat="42.53515333" lon="1.62484333">
        <ele>1957.0</ele>
        <time>2019-08-04T14:37:04.302Z</time>
      </trkpt>
      <trkpt lat="42.53515333" lon="1.62484333">
        <ele>1957.0</ele>
        <time>2019-08-04T14:37:05.325Z</time>
      </trkpt>
      <trkpt lat="42.53515333" lon="1.62484333">
        <ele>1957.0</ele>
        <time>2019-08-04T14:37:06.470Z</time>
      </trkpt>
      <trkpt lat="42.53517667" lon="1.62489167">
        <ele>1957.0</ele>
        <time>2019-08-04T14:37:07.331Z</time>
      </trkpt>
      <trkpt lat="42.53520167" lon="1.62493833">
        <ele>1958.0</ele>
        <time>2019-08-04T14:37:08.328Z</time>
      </trkpt>
      <trkpt lat="42.53520167" lon="1.62493833">
        <ele>1958.0</ele>
        <time>2019-08-04T14:37:09.325Z</time>
      </trkpt>
      <trkpt lat="42.53522667" lon="1.62498167">
        <ele>1958.0</ele>
        <time>2019-08-04T14:37:10.328Z</time>
      </trkpt>
      <trkpt lat="42.53522667" lon="1.62498167">
        <ele>1958.0</ele>
        <time>2019-08-04T14:37:11.325Z</time>
      </trkpt>
      <trkpt lat="42.53525167" lon="1.625025">
        <ele>1959.0</ele>
        <time>2019-08-04T14:37:12.327Z</time>
      </trkpt>
      <trkpt lat="42.535265" lon="1.62504833">
        <ele>1959.0</ele>
        <time>2019-08-04T14:37:13.310Z</time>
      </trkpt>
      <trkpt lat="42.535265" lon="1.62504833">
        <ele>1959.0</ele>
        <time>2019-08-04T14:37:14.326Z</time>
      </trkpt>
      <trkpt lat="42.53529333" lon="1.62509167">
        <ele>1959.0</ele>
        <time>2019-08-04T14:37:15.308Z</time>
      </trkpt>
      <trkpt lat="42.53529333" lon="1.62509167">
        <ele>1959.0</ele>
        <time>2019-08-04T14:37:16.327Z</time>
      </trkpt>
      <trkpt lat="42.53532333" lon="1.62513333">
        <ele>1960.0</ele>
        <time>2019-08-04T14:37:17.325Z</time>
      </trkpt>
      <trkpt lat="42.53533667" lon="1.625155">
        <ele>1960.0</ele>
        <time>2019-08-04T14:37:18.304Z</time>
      </trkpt>
      <trkpt lat="42.53533667" lon="1.625155">
        <ele>1960.0</ele>
        <time>2019-08-04T14:37:19.325Z</time>
      </trkpt>
      <trkpt lat="42.53536833" lon="1.62519333">
        <ele>1960.0</ele>
        <time>2019-08-04T14:37:20.329Z</time>
      </trkpt>
      <trkpt lat="42.53536833" lon="1.62519333">
        <ele>1960.0</ele>
        <time>2019-08-04T14:37:21.323Z</time>
      </trkpt>
      <trkpt lat="42.53540333" lon="1.62522667">
        <ele>1961.0</ele>
        <time>2019-08-04T14:37:22.303Z</time>
      </trkpt>
      <trkpt lat="42.53540333" lon="1.62522667">
        <ele>1961.0</ele>
        <time>2019-08-04T14:37:23.325Z</time>
      </trkpt>
      <trkpt lat="42.53544" lon="1.62525833">
        <ele>1961.0</ele>
        <time>2019-08-04T14:37:24.335Z</time>
      </trkpt>
      <trkpt lat="42.53544" lon="1.62525833">
        <ele>1961.0</ele>
        <time>2019-08-04T14:37:25.325Z</time>
      </trkpt>
      <trkpt lat="42.53547667" lon="1.62528333">
        <ele>1961.0</ele>
        <time>2019-08-04T14:37:26.325Z</time>
      </trkpt>
      <trkpt lat="42.53547667" lon="1.62528333">
        <ele>1961.0</ele>
        <time>2019-08-04T14:37:27.311Z</time>
      </trkpt>
      <trkpt lat="42.535515" lon="1.62531">
        <ele>1962.0</ele>
        <time>2019-08-04T14:37:28.336Z</time>
      </trkpt>
      <trkpt lat="42.535515" lon="1.62531">
        <ele>1962.0</ele>
        <time>2019-08-04T14:37:29.301Z</time>
      </trkpt>
      <trkpt lat="42.53555167" lon="1.625345">
        <ele>1962.0</ele>
        <time>2019-08-04T14:37:30.324Z</time>
      </trkpt>
      <trkpt lat="42.53555167" lon="1.625345">
        <ele>1962.0</ele>
        <time>2019-08-04T14:37:31.331Z</time>
      </trkpt>
      <trkpt lat="42.53559" lon="1.62538">
        <ele>1962.0</ele>
        <time>2019-08-04T14:37:32.296Z</time>
      </trkpt>
      <trkpt lat="42.53559" lon="1.62538">
        <ele>1962.0</ele>
        <time>2019-08-04T14:37:33.303Z</time>
      </trkpt>
      <trkpt lat="42.53562833" lon="1.62542167">
        <ele>1963.0</ele>
        <time>2019-08-04T14:37:34.328Z</time>
      </trkpt>
      <trkpt lat="42.53562833" lon="1.62542167">
        <ele>1963.0</ele>
        <time>2019-08-04T14:37:35.326Z</time>
      </trkpt>
      <trkpt lat="42.53566833" lon="1.625465">
        <ele>1963.0</ele>
        <time>2019-08-04T14:37:36.331Z</time>
      </trkpt>
      <trkpt lat="42.53566833" lon="1.625465">
        <ele>1963.0</ele>
        <time>2019-08-04T14:37:37.323Z</time>
      </trkpt>
      <trkpt lat="42.535705" lon="1.62551667">
        <ele>1963.0</ele>
        <time>2019-08-04T14:37:38.325Z</time>
      </trkpt>
      <trkpt lat="42.535705" lon="1.62551667">
        <ele>1963.0</ele>
        <time>2019-08-04T14:37:39.316Z</time>
      </trkpt>
      <trkpt lat="42.53573833" lon="1.62556667">
        <ele>1963.0</ele>
        <time>2019-08-04T14:37:40.298Z</time>
      </trkpt>
      <trkpt lat="42.53573833" lon="1.62556667">
        <ele>1963.0</ele>
        <time>2019-08-04T14:37:41.323Z</time>
      </trkpt>
      <trkpt lat="42.53577" lon="1.62561833">
        <ele>1963.0</ele>
        <time>2019-08-04T14:37:42.304Z</time>
      </trkpt>
      <trkpt lat="42.53577" lon="1.62561833">
        <ele>1963.0</ele>
        <time>2019-08-04T14:37:43.326Z</time>
      </trkpt>
      <trkpt lat="42.53577" lon="1.62561833">
        <ele>1963.0</ele>
        <time>2019-08-04T14:37:44.319Z</time>
      </trkpt>
      <trkpt lat="42.5358" lon="1.62567667">
        <ele>1963.0</ele>
        <time>2019-08-04T14:37:45.323Z</time>
      </trkpt>
      <trkpt lat="42.53582333" lon="1.62574333">
        <ele>1963.0</ele>
        <time>2019-08-04T14:37:46.298Z</time>
      </trkpt>
      <trkpt lat="42.53582333" lon="1.62574333">
        <ele>1963.0</ele>
        <time>2019-08-04T14:37:47.328Z</time>
      </trkpt>
      <trkpt lat="42.53584667" lon="1.62581167">
        <ele>1963.0</ele>
        <time>2019-08-04T14:37:48.296Z</time>
      </trkpt>
      <trkpt lat="42.53585667" lon="1.62584667">
        <ele>1963.0</ele>
        <time>2019-08-04T14:37:49.328Z</time>
      </trkpt>
      <trkpt lat="42.53585667" lon="1.62584667">
        <ele>1963.0</ele>
        <time>2019-08-04T14:37:50.325Z</time>
      </trkpt>
      <trkpt lat="42.535875" lon="1.62592">
        <ele>1963.0</ele>
        <time>2019-08-04T14:37:51.325Z</time>
      </trkpt>
      <trkpt lat="42.53588333" lon="1.62595667">
        <ele>1963.0</ele>
        <time>2019-08-04T14:37:52.300Z</time>
      </trkpt>
      <trkpt lat="42.53588333" lon="1.62595667">
        <ele>1963.0</ele>
        <time>2019-08-04T14:37:53.325Z</time>
      </trkpt>
      <trkpt lat="42.5359" lon="1.62603">
        <ele>1964.0</ele>
        <time>2019-08-04T14:37:54.296Z</time>
      </trkpt>
      <trkpt lat="42.5359" lon="1.62603">
        <ele>1964.0</ele>
        <time>2019-08-04T14:37:55.326Z</time>
      </trkpt>
      <trkpt lat="42.53591667" lon="1.626105">
        <ele>1964.0</ele>
        <time>2019-08-04T14:37:56.328Z</time>
      </trkpt>
      <trkpt lat="42.53591667" lon="1.626105">
        <ele>1964.0</ele>
        <time>2019-08-04T14:37:57.320Z</time>
      </trkpt>
      <trkpt lat="42.53593667" lon="1.62617667">
        <ele>1964.0</ele>
        <time>2019-08-04T14:37:58.301Z</time>
      </trkpt>
      <trkpt lat="42.53593667" lon="1.62617667">
        <ele>1964.0</ele>
        <time>2019-08-04T14:37:59.325Z</time>
      </trkpt>
      <trkpt lat="42.535955" lon="1.62625">
        <ele>1964.0</ele>
        <time>2019-08-04T14:38:00.326Z</time>
      </trkpt>
      <trkpt lat="42.535955" lon="1.62625">
        <ele>1964.0</ele>
        <time>2019-08-04T14:38:01.301Z</time>
      </trkpt>
      <trkpt lat="42.53597667" lon="1.62631667">
        <ele>1964.0</ele>
        <time>2019-08-04T14:38:02.328Z</time>
      </trkpt>
      <trkpt lat="42.53597667" lon="1.62631667">
        <ele>1964.0</ele>
        <time>2019-08-04T14:38:03.326Z</time>
      </trkpt>
      <trkpt lat="42.536" lon="1.626375">
        <ele>1965.0</ele>
        <time>2019-08-04T14:38:04.299Z</time>
      </trkpt>
      <trkpt lat="42.536" lon="1.626375">
        <ele>1965.0</ele>
        <time>2019-08-04T14:38:05.325Z</time>
      </trkpt>
      <trkpt lat="42.53602833" lon="1.62643333">
        <ele>1965.0</ele>
        <time>2019-08-04T14:38:06.329Z</time>
      </trkpt>
      <trkpt lat="42.53602833" lon="1.62643333">
        <ele>1965.0</ele>
        <time>2019-08-04T14:38:07.307Z</time>
      </trkpt>
      <trkpt lat="42.53606" lon="1.62649">
        <ele>1965.0</ele>
        <time>2019-08-04T14:38:08.328Z</time>
      </trkpt>
      <trkpt lat="42.53606" lon="1.62649">
        <ele>1965.0</ele>
        <time>2019-08-04T14:38:09.324Z</time>
      </trkpt>
      <trkpt lat="42.53606" lon="1.62649">
        <ele>1965.0</ele>
        <time>2019-08-04T14:38:10.481Z</time>
      </trkpt>
      <trkpt lat="42.5361" lon="1.62654">
        <ele>1966.0</ele>
        <time>2019-08-04T14:38:11.334Z</time>
      </trkpt>
      <trkpt lat="42.53614833" lon="1.62658167">
        <ele>1966.0</ele>
        <time>2019-08-04T14:38:12.326Z</time>
      </trkpt>
      <trkpt lat="42.53614833" lon="1.62658167">
        <ele>1966.0</ele>
        <time>2019-08-04T14:38:13.303Z</time>
      </trkpt>
      <trkpt lat="42.53620167" lon="1.62661333">
        <ele>1966.0</ele>
        <time>2019-08-04T14:38:14.328Z</time>
      </trkpt>
      <trkpt lat="42.53622833" lon="1.62662667">
        <ele>1967.0</ele>
        <time>2019-08-04T14:38:15.329Z</time>
      </trkpt>
      <trkpt lat="42.53622833" lon="1.62662667">
        <ele>1967.0</ele>
        <time>2019-08-04T14:38:16.325Z</time>
      </trkpt>
      <trkpt lat="42.53627833" lon="1.62664833">
        <ele>1967.0</ele>
        <time>2019-08-04T14:38:17.306Z</time>
      </trkpt>
      <trkpt lat="42.53630667" lon="1.62665167">
        <ele>1967.0</ele>
        <time>2019-08-04T14:38:18.329Z</time>
      </trkpt>
      <trkpt lat="42.53630667" lon="1.62665167">
        <ele>1967.0</ele>
        <time>2019-08-04T14:38:19.325Z</time>
      </trkpt>
      <trkpt lat="42.536365" lon="1.62665">
        <ele>1968.0</ele>
        <time>2019-08-04T14:38:20.328Z</time>
      </trkpt>
      <trkpt lat="42.53639667" lon="1.62665">
        <ele>1968.0</ele>
        <time>2019-08-04T14:38:21.328Z</time>
      </trkpt>
      <trkpt lat="42.53642833" lon="1.62664833">
        <ele>1968.0</ele>
        <time>2019-08-04T14:38:22.307Z</time>
      </trkpt>
      <trkpt lat="42.53642833" lon="1.62664833">
        <ele>1968.0</ele>
        <time>2019-08-04T14:38:23.325Z</time>
      </trkpt>
      <trkpt lat="42.53648833" lon="1.62663667">
        <ele>1968.0</ele>
        <time>2019-08-04T14:38:24.328Z</time>
      </trkpt>
      <trkpt lat="42.53648833" lon="1.62663667">
        <ele>1968.0</ele>
        <time>2019-08-04T14:38:25.325Z</time>
      </trkpt>
      <trkpt lat="42.53654833" lon="1.62662167">
        <ele>1969.0</ele>
        <time>2019-08-04T14:38:26.329Z</time>
      </trkpt>
      <trkpt lat="42.53654833" lon="1.62662167">
        <ele>1969.0</ele>
        <time>2019-08-04T14:38:27.307Z</time>
      </trkpt>
      <trkpt lat="42.53660667" lon="1.62660667">
        <ele>1969.0</ele>
        <time>2019-08-04T14:38:28.296Z</time>
      </trkpt>
      <trkpt lat="42.53660667" lon="1.62660667">
        <ele>1969.0</ele>
        <time>2019-08-04T14:38:29.299Z</time>
      </trkpt>
      <trkpt lat="42.53666333" lon="1.62659">
        <ele>1970.0</ele>
        <time>2019-08-04T14:38:30.316Z</time>
      </trkpt>
      <trkpt lat="42.53666333" lon="1.62659">
        <ele>1970.0</ele>
        <time>2019-08-04T14:38:31.322Z</time>
      </trkpt>
      <trkpt lat="42.53671833" lon="1.62656667">
        <ele>1970.0</ele>
        <time>2019-08-04T14:38:32.329Z</time>
      </trkpt>
      <trkpt lat="42.53674333" lon="1.62655333">
        <ele>1970.0</ele>
        <time>2019-08-04T14:38:33.335Z</time>
      </trkpt>
      <trkpt lat="42.53674333" lon="1.62655333">
        <ele>1970.0</ele>
        <time>2019-08-04T14:38:34.301Z</time>
      </trkpt>
      <trkpt lat="42.536795" lon="1.62652833">
        <ele>1971.0</ele>
        <time>2019-08-04T14:38:35.328Z</time>
      </trkpt>
      <trkpt lat="42.53681833" lon="1.62651667">
        <ele>1971.0</ele>
        <time>2019-08-04T14:38:36.304Z</time>
      </trkpt>
      <trkpt lat="42.53681833" lon="1.62651667">
        <ele>1971.0</ele>
        <time>2019-08-04T14:38:37.298Z</time>
      </trkpt>
      <trkpt lat="42.536865" lon="1.626485">
        <ele>1971.0</ele>
        <time>2019-08-04T14:38:38.326Z</time>
      </trkpt>
      <trkpt lat="42.536865" lon="1.626485">
        <ele>1971.0</ele>
        <time>2019-08-04T14:38:39.326Z</time>
      </trkpt>
      <trkpt lat="42.53691" lon="1.62645167">
        <ele>1971.0</ele>
        <time>2019-08-04T14:38:40.328Z</time>
      </trkpt>
      <trkpt lat="42.53691" lon="1.62645167">
        <ele>1971.0</ele>
        <time>2019-08-04T14:38:41.303Z</time>
      </trkpt>
      <trkpt lat="42.53695167" lon="1.62641667">
        <ele>1972.0</ele>
        <time>2019-08-04T14:38:42.300Z</time>
      </trkpt>
      <trkpt lat="42.53695167" lon="1.62641667">
        <ele>1972.0</ele>
        <time>2019-08-04T14:38:43.329Z</time>
      </trkpt>
      <trkpt lat="42.53699" lon="1.62638333">
        <ele>1972.0</ele>
        <time>2019-08-04T14:38:44.328Z</time>
      </trkpt>
      <trkpt lat="42.53699" lon="1.62638333">
        <ele>1972.0</ele>
        <time>2019-08-04T14:38:45.303Z</time>
      </trkpt>
      <trkpt lat="42.53702667" lon="1.62635">
        <ele>1972.0</ele>
        <time>2019-08-04T14:38:46.328Z</time>
      </trkpt>
      <trkpt lat="42.53702667" lon="1.62635">
        <ele>1972.0</ele>
        <time>2019-08-04T14:38:47.307Z</time>
      </trkpt>
      <trkpt lat="42.53706167" lon="1.62631667">
        <ele>1973.0</ele>
        <time>2019-08-04T14:38:48.330Z</time>
      </trkpt>
      <trkpt lat="42.53706167" lon="1.62631667">
        <ele>1973.0</ele>
        <time>2019-08-04T14:38:49.323Z</time>
      </trkpt>
      <trkpt lat="42.53709667" lon="1.62628833">
        <ele>1973.0</ele>
        <time>2019-08-04T14:38:50.303Z</time>
      </trkpt>
      <trkpt lat="42.53709667" lon="1.62628833">
        <ele>1973.0</ele>
        <time>2019-08-04T14:38:51.326Z</time>
      </trkpt>
      <trkpt lat="42.53713167" lon="1.626255">
        <ele>1973.0</ele>
        <time>2019-08-04T14:38:52.307Z</time>
      </trkpt>
      <trkpt lat="42.53715" lon="1.62623667">
        <ele>1973.0</ele>
        <time>2019-08-04T14:38:53.329Z</time>
      </trkpt>
      <trkpt lat="42.53716667" lon="1.62621667">
        <ele>1973.0</ele>
        <time>2019-08-04T14:38:54.306Z</time>
      </trkpt>
      <trkpt lat="42.53716667" lon="1.62621667">
        <ele>1973.0</ele>
        <time>2019-08-04T14:38:55.326Z</time>
      </trkpt>
      <trkpt lat="42.5372" lon="1.62617833">
        <ele>1974.0</ele>
        <time>2019-08-04T14:38:56.326Z</time>
      </trkpt>
      <trkpt lat="42.537215" lon="1.62616">
        <ele>1974.0</ele>
        <time>2019-08-04T14:38:57.301Z</time>
      </trkpt>
      <trkpt lat="42.537215" lon="1.62616">
        <ele>1974.0</ele>
        <time>2019-08-04T14:38:58.324Z</time>
      </trkpt>
      <trkpt lat="42.53724333" lon="1.62612">
        <ele>1974.0</ele>
        <time>2019-08-04T14:38:59.328Z</time>
      </trkpt>
      <trkpt lat="42.53725667" lon="1.62609833">
        <ele>1974.0</ele>
        <time>2019-08-04T14:39:00.304Z</time>
      </trkpt>
      <trkpt lat="42.53725667" lon="1.62609833">
        <ele>1974.0</ele>
        <time>2019-08-04T14:39:01.323Z</time>
      </trkpt>
      <trkpt lat="42.53728" lon="1.62605333">
        <ele>1975.0</ele>
        <time>2019-08-04T14:39:02.303Z</time>
      </trkpt>
      <trkpt lat="42.53728" lon="1.62605333">
        <ele>1975.0</ele>
        <time>2019-08-04T14:39:03.325Z</time>
      </trkpt>
      <trkpt lat="42.53730333" lon="1.626005">
        <ele>1975.0</ele>
        <time>2019-08-04T14:39:04.327Z</time>
      </trkpt>
      <trkpt lat="42.53730333" lon="1.626005">
        <ele>1975.0</ele>
        <time>2019-08-04T14:39:05.303Z</time>
      </trkpt>
      <trkpt lat="42.53730333" lon="1.626005">
        <ele>1975.0</ele>
        <time>2019-08-04T14:39:06.472Z</time>
      </trkpt>
      <trkpt lat="42.537325" lon="1.62595833">
        <ele>1975.0</ele>
        <time>2019-08-04T14:39:07.326Z</time>
      </trkpt>
      <trkpt lat="42.53734333" lon="1.62591">
        <ele>1976.0</ele>
        <time>2019-08-04T14:39:08.326Z</time>
      </trkpt>
      <trkpt lat="42.53734333" lon="1.62591">
        <ele>1976.0</ele>
        <time>2019-08-04T14:39:09.303Z</time>
      </trkpt>
      <trkpt lat="42.53736" lon="1.62585833">
        <ele>1976.0</ele>
        <time>2019-08-04T14:39:10.330Z</time>
      </trkpt>
      <trkpt lat="42.53736667" lon="1.62583167">
        <ele>1976.0</ele>
        <time>2019-08-04T14:39:11.329Z</time>
      </trkpt>
      <trkpt lat="42.53736667" lon="1.62583167">
        <ele>1976.0</ele>
        <time>2019-08-04T14:39:12.308Z</time>
      </trkpt>
      <trkpt lat="42.53737833" lon="1.62578">
        <ele>1976.0</ele>
        <time>2019-08-04T14:39:13.330Z</time>
      </trkpt>
      <trkpt lat="42.53738333" lon="1.62575333">
        <ele>1977.0</ele>
        <time>2019-08-04T14:39:14.329Z</time>
      </trkpt>
      <trkpt lat="42.53738333" lon="1.62575333">
        <ele>1977.0</ele>
        <time>2019-08-04T14:39:15.324Z</time>
      </trkpt>
      <trkpt lat="42.53739333" lon="1.6257">
        <ele>1977.0</ele>
        <time>2019-08-04T14:39:16.329Z</time>
      </trkpt>
      <trkpt lat="42.53739333" lon="1.6257">
        <ele>1977.0</ele>
        <time>2019-08-04T14:39:17.307Z</time>
      </trkpt>
      <trkpt lat="42.53740667" lon="1.62565">
        <ele>1977.0</ele>
        <time>2019-08-04T14:39:18.331Z</time>
      </trkpt>
      <trkpt lat="42.53740667" lon="1.62565">
        <ele>1977.0</ele>
        <time>2019-08-04T14:39:19.325Z</time>
      </trkpt>
      <trkpt lat="42.53741833" lon="1.62560167">
        <ele>1977.0</ele>
        <time>2019-08-04T14:39:20.328Z</time>
      </trkpt>
      <trkpt lat="42.53741833" lon="1.62560167">
        <ele>1977.0</ele>
        <time>2019-08-04T14:39:21.326Z</time>
      </trkpt>
      <trkpt lat="42.53742833" lon="1.62554833">
        <ele>1978.0</ele>
        <time>2019-08-04T14:39:22.329Z</time>
      </trkpt>
      <trkpt lat="42.53742833" lon="1.62554833">
        <ele>1978.0</ele>
        <time>2019-08-04T14:39:23.326Z</time>
      </trkpt>
      <trkpt lat="42.53744" lon="1.62549667">
        <ele>1978.0</ele>
        <time>2019-08-04T14:39:24.300Z</time>
      </trkpt>
      <trkpt lat="42.53744" lon="1.62549667">
        <ele>1978.0</ele>
        <time>2019-08-04T14:39:25.326Z</time>
      </trkpt>
      <trkpt lat="42.537455" lon="1.625445">
        <ele>1978.0</ele>
        <time>2019-08-04T14:39:26.329Z</time>
      </trkpt>
      <trkpt lat="42.537455" lon="1.625445">
        <ele>1978.0</ele>
        <time>2019-08-04T14:39:27.326Z</time>
      </trkpt>
      <trkpt lat="42.53746667" lon="1.62539333">
        <ele>1979.0</ele>
        <time>2019-08-04T14:39:28.326Z</time>
      </trkpt>
      <trkpt lat="42.53746667" lon="1.62539333">
        <ele>1979.0</ele>
        <time>2019-08-04T14:39:29.303Z</time>
      </trkpt>
      <trkpt lat="42.53748" lon="1.62534167">
        <ele>1979.0</ele>
        <time>2019-08-04T14:39:30.318Z</time>
      </trkpt>
      <trkpt lat="42.53748667" lon="1.62532">
        <ele>1979.0</ele>
        <time>2019-08-04T14:39:31.325Z</time>
      </trkpt>
      <trkpt lat="42.53748667" lon="1.62532">
        <ele>1979.0</ele>
        <time>2019-08-04T14:39:32.331Z</time>
      </trkpt>
      <trkpt lat="42.5375" lon="1.62527667">
        <ele>1979.0</ele>
        <time>2019-08-04T14:39:33.297Z</time>
      </trkpt>
      <trkpt lat="42.53750667" lon="1.62525333">
        <ele>1979.0</ele>
        <time>2019-08-04T14:39:34.329Z</time>
      </trkpt>
      <trkpt lat="42.53750667" lon="1.62525333">
        <ele>1979.0</ele>
        <time>2019-08-04T14:39:35.326Z</time>
      </trkpt>
      <trkpt lat="42.53752333" lon="1.625205">
        <ele>1980.0</ele>
        <time>2019-08-04T14:39:36.330Z</time>
      </trkpt>
      <trkpt lat="42.53752333" lon="1.625205">
        <ele>1980.0</ele>
        <time>2019-08-04T14:39:37.308Z</time>
      </trkpt>
      <trkpt lat="42.53754333" lon="1.62516">
        <ele>1980.0</ele>
        <time>2019-08-04T14:39:38.329Z</time>
      </trkpt>
      <trkpt lat="42.53755167" lon="1.62513667">
        <ele>1980.0</ele>
        <time>2019-08-04T14:39:39.330Z</time>
      </trkpt>
      <trkpt lat="42.53755167" lon="1.62513667">
        <ele>1980.0</ele>
        <time>2019-08-04T14:39:40.324Z</time>
      </trkpt>
      <trkpt lat="42.53755167" lon="1.62513667">
        <ele>1980.0</ele>
        <time>2019-08-04T14:39:41.299Z</time>
      </trkpt>
      <trkpt lat="42.53756167" lon="1.62508833">
        <ele>1981.0</ele>
        <time>2019-08-04T14:39:42.327Z</time>
      </trkpt>
      <trkpt lat="42.537575" lon="1.62504167">
        <ele>1981.0</ele>
        <time>2019-08-04T14:39:43.328Z</time>
      </trkpt>
      <trkpt lat="42.53758167" lon="1.62501667">
        <ele>1982.0</ele>
        <time>2019-08-04T14:39:44.327Z</time>
      </trkpt>
      <trkpt lat="42.53758167" lon="1.62501667">
        <ele>1982.0</ele>
        <time>2019-08-04T14:39:45.304Z</time>
      </trkpt>
      <trkpt lat="42.537595" lon="1.62496333">
        <ele>1982.0</ele>
        <time>2019-08-04T14:39:46.328Z</time>
      </trkpt>
      <trkpt lat="42.537595" lon="1.62496333">
        <ele>1982.0</ele>
        <time>2019-08-04T14:39:47.325Z</time>
      </trkpt>
      <trkpt lat="42.53761167" lon="1.624915">
        <ele>1983.0</ele>
        <time>2019-08-04T14:39:48.310Z</time>
      </trkpt>
      <trkpt lat="42.53762167" lon="1.62489">
        <ele>1983.0</ele>
        <time>2019-08-04T14:39:49.330Z</time>
      </trkpt>
      <trkpt lat="42.53763" lon="1.624865">
        <ele>1983.0</ele>
        <time>2019-08-04T14:39:50.329Z</time>
      </trkpt>
      <trkpt lat="42.53763" lon="1.624865">
        <ele>1983.0</ele>
        <time>2019-08-04T14:39:51.325Z</time>
      </trkpt>
      <trkpt lat="42.53764667" lon="1.62481833">
        <ele>1983.0</ele>
        <time>2019-08-04T14:39:52.329Z</time>
      </trkpt>
      <trkpt lat="42.53764667" lon="1.62481833">
        <ele>1983.0</ele>
        <time>2019-08-04T14:39:53.326Z</time>
      </trkpt>
      <trkpt lat="42.53766667" lon="1.62477167">
        <ele>1984.0</ele>
        <time>2019-08-04T14:39:54.300Z</time>
      </trkpt>
      <trkpt lat="42.53766667" lon="1.62477167">
        <ele>1984.0</ele>
        <time>2019-08-04T14:39:55.326Z</time>
      </trkpt>
      <trkpt lat="42.53769333" lon="1.624725">
        <ele>1984.0</ele>
        <time>2019-08-04T14:39:56.329Z</time>
      </trkpt>
      <trkpt lat="42.53769333" lon="1.624725">
        <ele>1984.0</ele>
        <time>2019-08-04T14:39:57.307Z</time>
      </trkpt>
      <trkpt lat="42.53772" lon="1.62467833">
        <ele>1984.0</ele>
        <time>2019-08-04T14:39:58.328Z</time>
      </trkpt>
      <trkpt lat="42.537735" lon="1.62465667">
        <ele>1984.0</ele>
        <time>2019-08-04T14:39:59.328Z</time>
      </trkpt>
      <trkpt lat="42.53775" lon="1.62463833">
        <ele>1984.0</ele>
        <time>2019-08-04T14:40:00.304Z</time>
      </trkpt>
      <trkpt lat="42.53775" lon="1.62463833">
        <ele>1984.0</ele>
        <time>2019-08-04T14:40:01.325Z</time>
      </trkpt>
      <trkpt lat="42.53778" lon="1.62460167">
        <ele>1985.0</ele>
        <time>2019-08-04T14:40:02.308Z</time>
      </trkpt>
      <trkpt lat="42.53779833" lon="1.62458333">
        <ele>1985.0</ele>
        <time>2019-08-04T14:40:03.329Z</time>
      </trkpt>
      <trkpt lat="42.53779833" lon="1.62458333">
        <ele>1985.0</ele>
        <time>2019-08-04T14:40:04.304Z</time>
      </trkpt>
      <trkpt lat="42.53779833" lon="1.62458333">
        <ele>1985.0</ele>
        <time>2019-08-04T14:40:05.474Z</time>
      </trkpt>
      <trkpt lat="42.53785333" lon="1.62453667">
        <ele>1985.0</ele>
        <time>2019-08-04T14:40:06.333Z</time>
      </trkpt>
      <trkpt lat="42.53787167" lon="1.62452">
        <ele>1985.0</ele>
        <time>2019-08-04T14:40:07.327Z</time>
      </trkpt>
      <trkpt lat="42.53787167" lon="1.62452">
        <ele>1985.0</ele>
        <time>2019-08-04T14:40:08.319Z</time>
      </trkpt>
      <trkpt lat="42.53790667" lon="1.62449">
        <ele>1986.0</ele>
        <time>2019-08-04T14:40:09.300Z</time>
      </trkpt>
      <trkpt lat="42.53790667" lon="1.62449">
        <ele>1986.0</ele>
        <time>2019-08-04T14:40:10.326Z</time>
      </trkpt>
      <trkpt lat="42.537945" lon="1.62447">
        <ele>1986.0</ele>
        <time>2019-08-04T14:40:11.328Z</time>
      </trkpt>
      <trkpt lat="42.537965" lon="1.62445833">
        <ele>1986.0</ele>
        <time>2019-08-04T14:40:12.305Z</time>
      </trkpt>
      <trkpt lat="42.537965" lon="1.62445833">
        <ele>1986.0</ele>
        <time>2019-08-04T14:40:13.327Z</time>
      </trkpt>
      <trkpt lat="42.538005" lon="1.62443">
        <ele>1986.0</ele>
        <time>2019-08-04T14:40:14.329Z</time>
      </trkpt>
      <trkpt lat="42.538005" lon="1.62443">
        <ele>1986.0</ele>
        <time>2019-08-04T14:40:15.326Z</time>
      </trkpt>
      <trkpt lat="42.53804167" lon="1.62439833">
        <ele>1987.0</ele>
        <time>2019-08-04T14:40:16.329Z</time>
      </trkpt>
      <trkpt lat="42.53804167" lon="1.62439833">
        <ele>1987.0</ele>
        <time>2019-08-04T14:40:17.326Z</time>
      </trkpt>
      <trkpt lat="42.53808167" lon="1.62436833">
        <ele>1987.0</ele>
        <time>2019-08-04T14:40:18.331Z</time>
      </trkpt>
      <trkpt lat="42.5381" lon="1.62435667">
        <ele>1987.0</ele>
        <time>2019-08-04T14:40:19.328Z</time>
      </trkpt>
      <trkpt lat="42.5381" lon="1.62435667">
        <ele>1987.0</ele>
        <time>2019-08-04T14:40:20.320Z</time>
      </trkpt>
      <trkpt lat="42.53813333" lon="1.62433">
        <ele>1987.0</ele>
        <time>2019-08-04T14:40:21.300Z</time>
      </trkpt>
      <trkpt lat="42.53813333" lon="1.62433">
        <ele>1987.0</ele>
        <time>2019-08-04T14:40:22.326Z</time>
      </trkpt>
      <trkpt lat="42.538165" lon="1.624295">
        <ele>1987.0</ele>
        <time>2019-08-04T14:40:23.329Z</time>
      </trkpt>
      <trkpt lat="42.53818333" lon="1.624275">
        <ele>1987.0</ele>
        <time>2019-08-04T14:40:24.320Z</time>
      </trkpt>
      <trkpt lat="42.53818333" lon="1.624275">
        <ele>1987.0</ele>
        <time>2019-08-04T14:40:25.296Z</time>
      </trkpt>
      <trkpt lat="42.538215" lon="1.62423167">
        <ele>1988.0</ele>
        <time>2019-08-04T14:40:26.329Z</time>
      </trkpt>
      <trkpt lat="42.538215" lon="1.62423167">
        <ele>1988.0</ele>
        <time>2019-08-04T14:40:27.307Z</time>
      </trkpt>
      <trkpt lat="42.538245" lon="1.62418667">
        <ele>1988.0</ele>
        <time>2019-08-04T14:40:28.329Z</time>
      </trkpt>
      <trkpt lat="42.538245" lon="1.62418667">
        <ele>1988.0</ele>
        <time>2019-08-04T14:40:29.313Z</time>
      </trkpt>
      <trkpt lat="42.538275" lon="1.62414167">
        <ele>1988.0</ele>
        <time>2019-08-04T14:40:30.299Z</time>
      </trkpt>
      <trkpt lat="42.538275" lon="1.62414167">
        <ele>1988.0</ele>
        <time>2019-08-04T14:40:31.317Z</time>
      </trkpt>
      <trkpt lat="42.53830833" lon="1.6241">
        <ele>1989.0</ele>
        <time>2019-08-04T14:40:32.323Z</time>
      </trkpt>
      <trkpt lat="42.538325" lon="1.624075">
        <ele>1989.0</ele>
        <time>2019-08-04T14:40:33.329Z</time>
      </trkpt>
      <trkpt lat="42.538325" lon="1.624075">
        <ele>1989.0</ele>
        <time>2019-08-04T14:40:34.296Z</time>
      </trkpt>
      <trkpt lat="42.53834667" lon="1.62402">
        <ele>1989.0</ele>
        <time>2019-08-04T14:40:35.317Z</time>
      </trkpt>
      <trkpt lat="42.53834667" lon="1.62402">
        <ele>1989.0</ele>
        <time>2019-08-04T14:40:36.333Z</time>
      </trkpt>
      <trkpt lat="42.53834667" lon="1.62402">
        <ele>1989.0</ele>
        <time>2019-08-04T14:40:37.299Z</time>
      </trkpt>
      <trkpt lat="42.53838" lon="1.62394167">
        <ele>1989.0</ele>
        <time>2019-08-04T14:40:38.330Z</time>
      </trkpt>
      <trkpt lat="42.53838" lon="1.62394167">
        <ele>1989.0</ele>
        <time>2019-08-04T14:40:39.324Z</time>
      </trkpt>
      <trkpt lat="42.538405" lon="1.623895">
        <ele>1990.0</ele>
        <time>2019-08-04T14:40:40.329Z</time>
      </trkpt>
      <trkpt lat="42.538405" lon="1.623895">
        <ele>1990.0</ele>
        <time>2019-08-04T14:40:41.327Z</time>
      </trkpt>
      <trkpt lat="42.53842333" lon="1.62383833">
        <ele>1990.0</ele>
        <time>2019-08-04T14:40:42.310Z</time>
      </trkpt>
      <trkpt lat="42.53842333" lon="1.62383833">
        <ele>1990.0</ele>
        <time>2019-08-04T14:40:43.326Z</time>
      </trkpt>
      <trkpt lat="42.53844167" lon="1.62378333">
        <ele>1990.0</ele>
        <time>2019-08-04T14:40:44.328Z</time>
      </trkpt>
      <trkpt lat="42.53844167" lon="1.62378333">
        <ele>1990.0</ele>
        <time>2019-08-04T14:40:45.304Z</time>
      </trkpt>
      <trkpt lat="42.53846333" lon="1.62372833">
        <ele>1990.0</ele>
        <time>2019-08-04T14:40:46.329Z</time>
      </trkpt>
      <trkpt lat="42.53846333" lon="1.62372833">
        <ele>1990.0</ele>
        <time>2019-08-04T14:40:47.309Z</time>
      </trkpt>
      <trkpt lat="42.538475" lon="1.62366833">
        <ele>1991.0</ele>
        <time>2019-08-04T14:40:48.301Z</time>
      </trkpt>
      <trkpt lat="42.538475" lon="1.62366833">
        <ele>1991.0</ele>
        <time>2019-08-04T14:40:49.326Z</time>
      </trkpt>
      <trkpt lat="42.53848" lon="1.623615">
        <ele>1991.0</ele>
        <time>2019-08-04T14:40:50.326Z</time>
      </trkpt>
      <trkpt lat="42.53848" lon="1.623615">
        <ele>1991.0</ele>
        <time>2019-08-04T14:40:51.302Z</time>
      </trkpt>
      <trkpt lat="42.53847667" lon="1.62356333">
        <ele>1991.0</ele>
        <time>2019-08-04T14:40:52.329Z</time>
      </trkpt>
      <trkpt lat="42.538475" lon="1.62353667">
        <ele>1991.0</ele>
        <time>2019-08-04T14:40:53.329Z</time>
      </trkpt>
      <trkpt lat="42.538475" lon="1.62353667">
        <ele>1991.0</ele>
        <time>2019-08-04T14:40:54.305Z</time>
      </trkpt>
      <trkpt lat="42.538475" lon="1.62348667">
        <ele>1991.0</ele>
        <time>2019-08-04T14:40:55.329Z</time>
      </trkpt>
      <trkpt lat="42.53847667" lon="1.62346167">
        <ele>1991.0</ele>
        <time>2019-08-04T14:40:56.329Z</time>
      </trkpt>
      <trkpt lat="42.53847667" lon="1.62346167">
        <ele>1991.0</ele>
        <time>2019-08-04T14:40:57.327Z</time>
      </trkpt>
      <trkpt lat="42.53847833" lon="1.62339833">
        <ele>1992.0</ele>
        <time>2019-08-04T14:40:58.329Z</time>
      </trkpt>
      <trkpt lat="42.53847833" lon="1.62339833">
        <ele>1992.0</ele>
        <time>2019-08-04T14:40:59.304Z</time>
      </trkpt>
      <trkpt lat="42.538475" lon="1.62333">
        <ele>1992.0</ele>
        <time>2019-08-04T14:41:00.329Z</time>
      </trkpt>
      <trkpt lat="42.538475" lon="1.62333">
        <ele>1992.0</ele>
        <time>2019-08-04T14:41:01.326Z</time>
      </trkpt>
      <trkpt lat="42.53847833" lon="1.62326333">
        <ele>1992.0</ele>
        <time>2019-08-04T14:41:02.329Z</time>
      </trkpt>
      <trkpt lat="42.53847833" lon="1.62326333">
        <ele>1992.0</ele>
        <time>2019-08-04T14:41:03.327Z</time>
      </trkpt>
      <trkpt lat="42.53848167" lon="1.623195">
        <ele>1992.0</ele>
        <time>2019-08-04T14:41:04.329Z</time>
      </trkpt>
      <trkpt lat="42.53848167" lon="1.623195">
        <ele>1992.0</ele>
        <time>2019-08-04T14:41:05.327Z</time>
      </trkpt>
      <trkpt lat="42.53848167" lon="1.62312667">
        <ele>1992.0</ele>
        <time>2019-08-04T14:41:06.329Z</time>
      </trkpt>
      <trkpt lat="42.53848167" lon="1.62312667">
        <ele>1992.0</ele>
        <time>2019-08-04T14:41:07.327Z</time>
      </trkpt>
      <trkpt lat="42.53848333" lon="1.62305833">
        <ele>1992.0</ele>
        <time>2019-08-04T14:41:08.329Z</time>
      </trkpt>
      <trkpt lat="42.53848333" lon="1.62305833">
        <ele>1992.0</ele>
        <time>2019-08-04T14:41:09.327Z</time>
      </trkpt>
      <trkpt lat="42.53848333" lon="1.62298833">
        <ele>1993.0</ele>
        <time>2019-08-04T14:41:10.328Z</time>
      </trkpt>
      <trkpt lat="42.53848333" lon="1.62295">
        <ele>1993.0</ele>
        <time>2019-08-04T14:41:11.304Z</time>
      </trkpt>
      <trkpt lat="42.53848333" lon="1.62295">
        <ele>1993.0</ele>
        <time>2019-08-04T14:41:12.327Z</time>
      </trkpt>
      <trkpt lat="42.53848" lon="1.622875">
        <ele>1993.0</ele>
        <time>2019-08-04T14:41:13.328Z</time>
      </trkpt>
      <trkpt lat="42.53848" lon="1.622875">
        <ele>1993.0</ele>
        <time>2019-08-04T14:41:14.507Z</time>
      </trkpt>
      <trkpt lat="42.53848" lon="1.622835">
        <ele>1993.0</ele>
        <time>2019-08-04T14:41:15.327Z</time>
      </trkpt>
      <trkpt lat="42.53847833" lon="1.62275833">
        <ele>1993.0</ele>
        <time>2019-08-04T14:41:16.329Z</time>
      </trkpt>
      <trkpt lat="42.53848" lon="1.62272">
        <ele>1993.0</ele>
        <time>2019-08-04T14:41:17.301Z</time>
      </trkpt>
      <trkpt lat="42.53848" lon="1.62268">
        <ele>1993.0</ele>
        <time>2019-08-04T14:41:18.330Z</time>
      </trkpt>
      <trkpt lat="42.53848" lon="1.62268">
        <ele>1993.0</ele>
        <time>2019-08-04T14:41:19.327Z</time>
      </trkpt>
      <trkpt lat="42.53848" lon="1.6226">
        <ele>1994.0</ele>
        <time>2019-08-04T14:41:20.329Z</time>
      </trkpt>
      <trkpt lat="42.53847667" lon="1.62255833">
        <ele>1994.0</ele>
        <time>2019-08-04T14:41:21.328Z</time>
      </trkpt>
      <trkpt lat="42.53847667" lon="1.62255833">
        <ele>1994.0</ele>
        <time>2019-08-04T14:41:22.324Z</time>
      </trkpt>
      <trkpt lat="42.53847" lon="1.62247333">
        <ele>1994.0</ele>
        <time>2019-08-04T14:41:23.329Z</time>
      </trkpt>
      <trkpt lat="42.53846667" lon="1.62243167">
        <ele>1994.0</ele>
        <time>2019-08-04T14:41:24.309Z</time>
      </trkpt>
      <trkpt lat="42.53846667" lon="1.62243167">
        <ele>1994.0</ele>
        <time>2019-08-04T14:41:25.327Z</time>
      </trkpt>
      <trkpt lat="42.538455" lon="1.62235667">
        <ele>1994.0</ele>
        <time>2019-08-04T14:41:26.329Z</time>
      </trkpt>
      <trkpt lat="42.53844667" lon="1.62232333">
        <ele>1994.0</ele>
        <time>2019-08-04T14:41:27.330Z</time>
      </trkpt>
      <trkpt lat="42.53844667" lon="1.62232333">
        <ele>1994.0</ele>
        <time>2019-08-04T14:41:28.327Z</time>
      </trkpt>
      <trkpt lat="42.53844" lon="1.62225333">
        <ele>1995.0</ele>
        <time>2019-08-04T14:41:29.322Z</time>
      </trkpt>
      <trkpt lat="42.53844" lon="1.62225333">
        <ele>1995.0</ele>
        <time>2019-08-04T14:41:30.310Z</time>
      </trkpt>
      <trkpt lat="42.53845167" lon="1.62218167">
        <ele>1995.0</ele>
        <time>2019-08-04T14:41:31.320Z</time>
      </trkpt>
      <trkpt lat="42.53847" lon="1.62215">
        <ele>1995.0</ele>
        <time>2019-08-04T14:41:32.332Z</time>
      </trkpt>
      <trkpt lat="42.53847" lon="1.62215">
        <ele>1995.0</ele>
        <time>2019-08-04T14:41:33.327Z</time>
      </trkpt>
      <trkpt lat="42.53847" lon="1.62215">
        <ele>1995.0</ele>
        <time>2019-08-04T14:41:34.316Z</time>
      </trkpt>
      <trkpt lat="42.538555" lon="1.62216333">
        <ele>1995.0</ele>
        <time>2019-08-04T14:41:35.329Z</time>
      </trkpt>
      <trkpt lat="42.53857167" lon="1.62219833">
        <ele>1995.0</ele>
        <time>2019-08-04T14:41:36.333Z</time>
      </trkpt>
      <trkpt lat="42.53857167" lon="1.62219833">
        <ele>1995.0</ele>
        <time>2019-08-04T14:41:37.324Z</time>
      </trkpt>
      <trkpt lat="42.53858333" lon="1.62227">
        <ele>1995.0</ele>
        <time>2019-08-04T14:41:38.331Z</time>
      </trkpt>
      <trkpt lat="42.53858333" lon="1.62227">
        <ele>1995.0</ele>
        <time>2019-08-04T14:41:39.327Z</time>
      </trkpt>
      <trkpt lat="42.53858833" lon="1.62233333">
        <ele>1995.0</ele>
        <time>2019-08-04T14:41:40.329Z</time>
      </trkpt>
      <trkpt lat="42.53858833" lon="1.62233333">
        <ele>1995.0</ele>
        <time>2019-08-04T14:41:41.305Z</time>
      </trkpt>
      <trkpt lat="42.53858667" lon="1.62239167">
        <ele>1995.0</ele>
        <time>2019-08-04T14:41:42.332Z</time>
      </trkpt>
      <trkpt lat="42.53858667" lon="1.62239167">
        <ele>1995.0</ele>
        <time>2019-08-04T14:41:43.327Z</time>
      </trkpt>
      <trkpt lat="42.53859333" lon="1.62245167">
        <ele>1996.0</ele>
        <time>2019-08-04T14:41:44.309Z</time>
      </trkpt>
      <trkpt lat="42.538595" lon="1.62248167">
        <ele>1996.0</ele>
        <time>2019-08-04T14:41:45.298Z</time>
      </trkpt>
      <trkpt lat="42.538595" lon="1.62248167">
        <ele>1996.0</ele>
        <time>2019-08-04T14:41:46.326Z</time>
      </trkpt>
      <trkpt lat="42.53859333" lon="1.622535">
        <ele>1997.0</ele>
        <time>2019-08-04T14:41:47.333Z</time>
      </trkpt>
      <trkpt lat="42.53859667" lon="1.62256">
        <ele>1997.0</ele>
        <time>2019-08-04T14:41:48.331Z</time>
      </trkpt>
      <trkpt lat="42.53859667" lon="1.62256">
        <ele>1997.0</ele>
        <time>2019-08-04T14:41:49.320Z</time>
      </trkpt>
      <trkpt lat="42.53861" lon="1.62262">
        <ele>1997.0</ele>
        <time>2019-08-04T14:41:50.300Z</time>
      </trkpt>
      <trkpt lat="42.53861" lon="1.62262">
        <ele>1997.0</ele>
        <time>2019-08-04T14:41:51.322Z</time>
      </trkpt>
      <trkpt lat="42.53862" lon="1.62267833">
        <ele>1998.0</ele>
        <time>2019-08-04T14:41:52.302Z</time>
      </trkpt>
      <trkpt lat="42.53862" lon="1.62267833">
        <ele>1998.0</ele>
        <time>2019-08-04T14:41:53.326Z</time>
      </trkpt>
      <trkpt lat="42.53861833" lon="1.62273">
        <ele>1999.0</ele>
        <time>2019-08-04T14:41:54.335Z</time>
      </trkpt>
      <trkpt lat="42.53861833" lon="1.62273">
        <ele>1999.0</ele>
        <time>2019-08-04T14:41:55.317Z</time>
      </trkpt>
      <trkpt lat="42.53860833" lon="1.62279167">
        <ele>2000.0</ele>
        <time>2019-08-04T14:41:56.334Z</time>
      </trkpt>
      <trkpt lat="42.53860833" lon="1.62279167">
        <ele>2000.0</ele>
        <time>2019-08-04T14:41:57.326Z</time>
      </trkpt>
      <trkpt lat="42.53861" lon="1.62285667">
        <ele>2001.0</ele>
        <time>2019-08-04T14:41:58.329Z</time>
      </trkpt>
      <trkpt lat="42.53861" lon="1.62285667">
        <ele>2001.0</ele>
        <time>2019-08-04T14:41:59.305Z</time>
      </trkpt>
      <trkpt lat="42.53861167" lon="1.622925">
        <ele>2001.0</ele>
        <time>2019-08-04T14:42:00.330Z</time>
      </trkpt>
      <trkpt lat="42.53861167" lon="1.622925">
        <ele>2001.0</ele>
        <time>2019-08-04T14:42:01.327Z</time>
      </trkpt>
      <trkpt lat="42.53861667" lon="1.622985">
        <ele>2002.0</ele>
        <time>2019-08-04T14:42:02.309Z</time>
      </trkpt>
      <trkpt lat="42.53862" lon="1.623015">
        <ele>2002.0</ele>
        <time>2019-08-04T14:42:03.328Z</time>
      </trkpt>
      <trkpt lat="42.53862" lon="1.623015">
        <ele>2002.0</ele>
        <time>2019-08-04T14:42:04.304Z</time>
      </trkpt>
      <trkpt lat="42.53862833" lon="1.62307167">
        <ele>2003.0</ele>
        <time>2019-08-04T14:42:05.330Z</time>
      </trkpt>
      <trkpt lat="42.53862833" lon="1.62307167">
        <ele>2003.0</ele>
        <time>2019-08-04T14:42:06.327Z</time>
      </trkpt>
      <trkpt lat="42.53862833" lon="1.62307167">
        <ele>2003.0</ele>
        <time>2019-08-04T14:42:07.488Z</time>
      </trkpt>
      <trkpt lat="42.53865167" lon="1.62315167">
        <ele>2004.0</ele>
        <time>2019-08-04T14:42:08.329Z</time>
      </trkpt>
      <trkpt lat="42.53865167" lon="1.62315167">
        <ele>2004.0</ele>
        <time>2019-08-04T14:42:09.325Z</time>
      </trkpt>
      <trkpt lat="42.53866833" lon="1.62320167">
        <ele>2004.0</ele>
        <time>2019-08-04T14:42:10.300Z</time>
      </trkpt>
      <trkpt lat="42.53866833" lon="1.62320167">
        <ele>2004.0</ele>
        <time>2019-08-04T14:42:11.327Z</time>
      </trkpt>
      <trkpt lat="42.53868333" lon="1.62325">
        <ele>2005.0</ele>
        <time>2019-08-04T14:42:12.331Z</time>
      </trkpt>
      <trkpt lat="42.53868333" lon="1.62325">
        <ele>2005.0</ele>
        <time>2019-08-04T14:42:13.327Z</time>
      </trkpt>
      <trkpt lat="42.53870167" lon="1.62329833">
        <ele>2005.0</ele>
        <time>2019-08-04T14:42:14.301Z</time>
      </trkpt>
      <trkpt lat="42.53870167" lon="1.62329833">
        <ele>2005.0</ele>
        <time>2019-08-04T14:42:15.327Z</time>
      </trkpt>
      <trkpt lat="42.53872" lon="1.62334667">
        <ele>2006.0</ele>
        <time>2019-08-04T14:42:16.329Z</time>
      </trkpt>
      <trkpt lat="42.53872833" lon="1.62337">
        <ele>2006.0</ele>
        <time>2019-08-04T14:42:17.328Z</time>
      </trkpt>
      <trkpt lat="42.53873667" lon="1.62339333">
        <ele>2006.0</ele>
        <time>2019-08-04T14:42:18.333Z</time>
      </trkpt>
      <trkpt lat="42.53873667" lon="1.62339333">
        <ele>2006.0</ele>
        <time>2019-08-04T14:42:19.327Z</time>
      </trkpt>
      <trkpt lat="42.53874833" lon="1.62344833">
        <ele>2007.0</ele>
        <time>2019-08-04T14:42:20.332Z</time>
      </trkpt>
      <trkpt lat="42.53874833" lon="1.62344833">
        <ele>2007.0</ele>
        <time>2019-08-04T14:42:21.322Z</time>
      </trkpt>
      <trkpt lat="42.53876167" lon="1.623505">
        <ele>2007.0</ele>
        <time>2019-08-04T14:42:22.302Z</time>
      </trkpt>
      <trkpt lat="42.53876167" lon="1.623505">
        <ele>2007.0</ele>
        <time>2019-08-04T14:42:23.326Z</time>
      </trkpt>
      <trkpt lat="42.53877" lon="1.62356">
        <ele>2007.0</ele>
        <time>2019-08-04T14:42:24.328Z</time>
      </trkpt>
      <trkpt lat="42.53877" lon="1.62356">
        <ele>2007.0</ele>
        <time>2019-08-04T14:42:25.305Z</time>
      </trkpt>
      <trkpt lat="42.538775" lon="1.623615">
        <ele>2008.0</ele>
        <time>2019-08-04T14:42:26.329Z</time>
      </trkpt>
      <trkpt lat="42.538775" lon="1.623615">
        <ele>2008.0</ele>
        <time>2019-08-04T14:42:27.327Z</time>
      </trkpt>
      <trkpt lat="42.53878833" lon="1.623665">
        <ele>2008.0</ele>
        <time>2019-08-04T14:42:28.298Z</time>
      </trkpt>
      <trkpt lat="42.53878833" lon="1.623665">
        <ele>2008.0</ele>
        <time>2019-08-04T14:42:29.312Z</time>
      </trkpt>
      <trkpt lat="42.53879667" lon="1.62371167">
        <ele>2009.0</ele>
        <time>2019-08-04T14:42:30.304Z</time>
      </trkpt>
      <trkpt lat="42.53879667" lon="1.62371167">
        <ele>2009.0</ele>
        <time>2019-08-04T14:42:31.315Z</time>
      </trkpt>
      <trkpt lat="42.53880333" lon="1.62376333">
        <ele>2009.0</ele>
        <time>2019-08-04T14:42:32.305Z</time>
      </trkpt>
      <trkpt lat="42.53880333" lon="1.62376333">
        <ele>2009.0</ele>
        <time>2019-08-04T14:42:33.331Z</time>
      </trkpt>
      <trkpt lat="42.538815" lon="1.62380667">
        <ele>2010.0</ele>
        <time>2019-08-04T14:42:34.329Z</time>
      </trkpt>
      <trkpt lat="42.538815" lon="1.62380667">
        <ele>2010.0</ele>
        <time>2019-08-04T14:42:35.327Z</time>
      </trkpt>
      <trkpt lat="42.53882" lon="1.62385667">
        <ele>2010.0</ele>
        <time>2019-08-04T14:42:36.331Z</time>
      </trkpt>
      <trkpt lat="42.53882167" lon="1.62388">
        <ele>2010.0</ele>
        <time>2019-08-04T14:42:37.314Z</time>
      </trkpt>
      <trkpt lat="42.53882167" lon="1.62388">
        <ele>2010.0</ele>
        <time>2019-08-04T14:42:38.332Z</time>
      </trkpt>
      <trkpt lat="42.53882667" lon="1.62392667">
        <ele>2011.0</ele>
        <time>2019-08-04T14:42:39.330Z</time>
      </trkpt>
      <trkpt lat="42.53882667" lon="1.62392667">
        <ele>2011.0</ele>
        <time>2019-08-04T14:42:40.327Z</time>
      </trkpt>
      <trkpt lat="42.53882667" lon="1.62397833">
        <ele>2011.0</ele>
        <time>2019-08-04T14:42:41.331Z</time>
      </trkpt>
      <trkpt lat="42.53882667" lon="1.62397833">
        <ele>2011.0</ele>
        <time>2019-08-04T14:42:42.329Z</time>
      </trkpt>
      <trkpt lat="42.53882833" lon="1.62403167">
        <ele>2012.0</ele>
        <time>2019-08-04T14:42:43.329Z</time>
      </trkpt>
      <trkpt lat="42.53883" lon="1.62405833">
        <ele>2012.0</ele>
        <time>2019-08-04T14:42:44.309Z</time>
      </trkpt>
      <trkpt lat="42.53883" lon="1.62405833">
        <ele>2012.0</ele>
        <time>2019-08-04T14:42:45.327Z</time>
      </trkpt>
      <trkpt lat="42.53883667" lon="1.62410833">
        <ele>2012.0</ele>
        <time>2019-08-04T14:42:46.330Z</time>
      </trkpt>
      <trkpt lat="42.53883667" lon="1.62410833">
        <ele>2012.0</ele>
        <time>2019-08-04T14:42:47.331Z</time>
      </trkpt>
      <trkpt lat="42.53884" lon="1.62415833">
        <ele>2013.0</ele>
        <time>2019-08-04T14:42:48.306Z</time>
      </trkpt>
      <trkpt lat="42.53884" lon="1.62415833">
        <ele>2013.0</ele>
        <time>2019-08-04T14:42:49.326Z</time>
      </trkpt>
      <trkpt lat="42.53884" lon="1.62421167">
        <ele>2013.0</ele>
        <time>2019-08-04T14:42:50.329Z</time>
      </trkpt>
      <trkpt lat="42.53884" lon="1.62421167">
        <ele>2013.0</ele>
        <time>2019-08-04T14:42:51.327Z</time>
      </trkpt>
      <trkpt lat="42.53884667" lon="1.62425833">
        <ele>2013.0</ele>
        <time>2019-08-04T14:42:52.330Z</time>
      </trkpt>
      <trkpt lat="42.53884667" lon="1.62425833">
        <ele>2013.0</ele>
        <time>2019-08-04T14:42:53.326Z</time>
      </trkpt>
      <trkpt lat="42.53885" lon="1.62430667">
        <ele>2014.0</ele>
        <time>2019-08-04T14:42:54.329Z</time>
      </trkpt>
      <trkpt lat="42.53885" lon="1.62430667">
        <ele>2014.0</ele>
        <time>2019-08-04T14:42:55.305Z</time>
      </trkpt>
      <trkpt lat="42.53885167" lon="1.62435667">
        <ele>2014.0</ele>
        <time>2019-08-04T14:42:56.329Z</time>
      </trkpt>
      <trkpt lat="42.53885167" lon="1.62435667">
        <ele>2014.0</ele>
        <time>2019-08-04T14:42:57.325Z</time>
      </trkpt>
      <trkpt lat="42.53885667" lon="1.62440667">
        <ele>2014.0</ele>
        <time>2019-08-04T14:42:58.329Z</time>
      </trkpt>
      <trkpt lat="42.53885833" lon="1.62443333">
        <ele>2015.0</ele>
        <time>2019-08-04T14:42:59.315Z</time>
      </trkpt>
      <trkpt lat="42.53885833" lon="1.62443333">
        <ele>2015.0</ele>
        <time>2019-08-04T14:43:00.305Z</time>
      </trkpt>
      <trkpt lat="42.538855" lon="1.62448667">
        <ele>2015.0</ele>
        <time>2019-08-04T14:43:01.330Z</time>
      </trkpt>
      <trkpt lat="42.53885333" lon="1.62451333">
        <ele>2015.0</ele>
        <time>2019-08-04T14:43:02.310Z</time>
      </trkpt>
      <trkpt lat="42.53885333" lon="1.62451333">
        <ele>2015.0</ele>
        <time>2019-08-04T14:43:03.330Z</time>
      </trkpt>
      <trkpt lat="42.53885333" lon="1.624565">
        <ele>2016.0</ele>
        <time>2019-08-04T14:43:04.330Z</time>
      </trkpt>
      <trkpt lat="42.53885333" lon="1.624565">
        <ele>2016.0</ele>
        <time>2019-08-04T14:43:05.305Z</time>
      </trkpt>
      <trkpt lat="42.53885333" lon="1.62461667">
        <ele>2016.0</ele>
        <time>2019-08-04T14:43:06.328Z</time>
      </trkpt>
      <trkpt lat="42.53885333" lon="1.62461667">
        <ele>2016.0</ele>
        <time>2019-08-04T14:43:07.305Z</time>
      </trkpt>
      <trkpt lat="42.53885333" lon="1.62466833">
        <ele>2017.0</ele>
        <time>2019-08-04T14:43:08.329Z</time>
      </trkpt>
      <trkpt lat="42.53885333" lon="1.62466833">
        <ele>2017.0</ele>
        <time>2019-08-04T14:43:09.472Z</time>
      </trkpt>
      <trkpt lat="42.538855" lon="1.62469333">
        <ele>2017.0</ele>
        <time>2019-08-04T14:43:10.296Z</time>
      </trkpt>
      <trkpt lat="42.538855" lon="1.62474333">
        <ele>2017.0</ele>
        <time>2019-08-04T14:43:11.327Z</time>
      </trkpt>
      <trkpt lat="42.538855" lon="1.62474333">
        <ele>2017.0</ele>
        <time>2019-08-04T14:43:12.328Z</time>
      </trkpt>
      <trkpt lat="42.53884833" lon="1.62479333">
        <ele>2018.0</ele>
        <time>2019-08-04T14:43:13.330Z</time>
      </trkpt>
      <trkpt lat="42.538845" lon="1.62482">
        <ele>2019.0</ele>
        <time>2019-08-04T14:43:14.329Z</time>
      </trkpt>
      <trkpt lat="42.538845" lon="1.62482">
        <ele>2019.0</ele>
        <time>2019-08-04T14:43:15.326Z</time>
      </trkpt>
      <trkpt lat="42.53883667" lon="1.62487167">
        <ele>2019.0</ele>
        <time>2019-08-04T14:43:16.329Z</time>
      </trkpt>
      <trkpt lat="42.53883667" lon="1.62487167">
        <ele>2019.0</ele>
        <time>2019-08-04T14:43:17.327Z</time>
      </trkpt>
      <trkpt lat="42.538835" lon="1.62492333">
        <ele>2020.0</ele>
        <time>2019-08-04T14:43:18.328Z</time>
      </trkpt>
      <trkpt lat="42.538835" lon="1.62492333">
        <ele>2020.0</ele>
        <time>2019-08-04T14:43:19.325Z</time>
      </trkpt>
      <trkpt lat="42.53883" lon="1.62497333">
        <ele>2021.0</ele>
        <time>2019-08-04T14:43:20.330Z</time>
      </trkpt>
      <trkpt lat="42.53882667" lon="1.62499833">
        <ele>2021.0</ele>
        <time>2019-08-04T14:43:21.329Z</time>
      </trkpt>
      <trkpt lat="42.53882667" lon="1.62499833">
        <ele>2021.0</ele>
        <time>2019-08-04T14:43:22.305Z</time>
      </trkpt>
      <trkpt lat="42.53882333" lon="1.62504833">
        <ele>2021.0</ele>
        <time>2019-08-04T14:43:23.329Z</time>
      </trkpt>
      <trkpt lat="42.53882333" lon="1.62507167">
        <ele>2021.0</ele>
        <time>2019-08-04T14:43:24.323Z</time>
      </trkpt>
      <trkpt lat="42.53882333" lon="1.62507167">
        <ele>2021.0</ele>
        <time>2019-08-04T14:43:25.327Z</time>
      </trkpt>
      <trkpt lat="42.53881833" lon="1.62512167">
        <ele>2022.0</ele>
        <time>2019-08-04T14:43:26.298Z</time>
      </trkpt>
      <trkpt lat="42.53881833" lon="1.62512167">
        <ele>2022.0</ele>
        <time>2019-08-04T14:43:27.330Z</time>
      </trkpt>
      <trkpt lat="42.53881333" lon="1.62517">
        <ele>2022.0</ele>
        <time>2019-08-04T14:43:28.331Z</time>
      </trkpt>
      <trkpt lat="42.53881333" lon="1.62517">
        <ele>2022.0</ele>
        <time>2019-08-04T14:43:29.306Z</time>
      </trkpt>
      <trkpt lat="42.538805" lon="1.62521667">
        <ele>2023.0</ele>
        <time>2019-08-04T14:43:30.329Z</time>
      </trkpt>
      <trkpt lat="42.538805" lon="1.62521667">
        <ele>2023.0</ele>
        <time>2019-08-04T14:43:31.335Z</time>
      </trkpt>
      <trkpt lat="42.53879667" lon="1.62526667">
        <ele>2023.0</ele>
        <time>2019-08-04T14:43:32.301Z</time>
      </trkpt>
      <trkpt lat="42.53879667" lon="1.62526667">
        <ele>2023.0</ele>
        <time>2019-08-04T14:43:33.308Z</time>
      </trkpt>
      <trkpt lat="42.53878833" lon="1.62531667">
        <ele>2023.0</ele>
        <time>2019-08-04T14:43:34.300Z</time>
      </trkpt>
      <trkpt lat="42.53878833" lon="1.62531667">
        <ele>2023.0</ele>
        <time>2019-08-04T14:43:35.300Z</time>
      </trkpt>
      <trkpt lat="42.53878167" lon="1.62536667">
        <ele>2023.0</ele>
        <time>2019-08-04T14:43:36.333Z</time>
      </trkpt>
      <trkpt lat="42.53878167" lon="1.62536667">
        <ele>2023.0</ele>
        <time>2019-08-04T14:43:37.327Z</time>
      </trkpt>
      <trkpt lat="42.53877667" lon="1.62541667">
        <ele>2024.0</ele>
        <time>2019-08-04T14:43:38.330Z</time>
      </trkpt>
      <trkpt lat="42.53877667" lon="1.62541667">
        <ele>2024.0</ele>
        <time>2019-08-04T14:43:39.328Z</time>
      </trkpt>
      <trkpt lat="42.53877167" lon="1.62546667">
        <ele>2024.0</ele>
        <time>2019-08-04T14:43:40.328Z</time>
      </trkpt>
      <trkpt lat="42.53876833" lon="1.62549167">
        <ele>2024.0</ele>
        <time>2019-08-04T14:43:41.308Z</time>
      </trkpt>
      <trkpt lat="42.53876667" lon="1.62551667">
        <ele>2024.0</ele>
        <time>2019-08-04T14:43:42.328Z</time>
      </trkpt>
      <trkpt lat="42.53876667" lon="1.62551667">
        <ele>2024.0</ele>
        <time>2019-08-04T14:43:43.301Z</time>
      </trkpt>
      <trkpt lat="42.53875833" lon="1.62559333">
        <ele>2024.0</ele>
        <time>2019-08-04T14:43:44.300Z</time>
      </trkpt>
      <trkpt lat="42.53875833" lon="1.62559333">
        <ele>2024.0</ele>
        <time>2019-08-04T14:43:45.298Z</time>
      </trkpt>
      <trkpt lat="42.53875333" lon="1.625645">
        <ele>2025.0</ele>
        <time>2019-08-04T14:43:46.331Z</time>
      </trkpt>
      <trkpt lat="42.53875167" lon="1.62567">
        <ele>2025.0</ele>
        <time>2019-08-04T14:43:47.315Z</time>
      </trkpt>
      <trkpt lat="42.53875167" lon="1.62567">
        <ele>2025.0</ele>
        <time>2019-08-04T14:43:48.300Z</time>
      </trkpt>
      <trkpt lat="42.53874833" lon="1.62572333">
        <ele>2025.0</ele>
        <time>2019-08-04T14:43:49.296Z</time>
      </trkpt>
      <trkpt lat="42.538745" lon="1.62574833">
        <ele>2026.0</ele>
        <time>2019-08-04T14:43:50.317Z</time>
      </trkpt>
      <trkpt lat="42.538745" lon="1.62574833">
        <ele>2026.0</ele>
        <time>2019-08-04T14:43:51.302Z</time>
      </trkpt>
      <trkpt lat="42.53874167" lon="1.62579833">
        <ele>2026.0</ele>
        <time>2019-08-04T14:43:52.306Z</time>
      </trkpt>
      <trkpt lat="42.53874167" lon="1.62579833">
        <ele>2026.0</ele>
        <time>2019-08-04T14:43:53.301Z</time>
      </trkpt>
      <trkpt lat="42.53874" lon="1.62584833">
        <ele>2026.0</ele>
        <time>2019-08-04T14:43:54.303Z</time>
      </trkpt>
      <trkpt lat="42.53874" lon="1.62584833">
        <ele>2026.0</ele>
        <time>2019-08-04T14:43:55.335Z</time>
      </trkpt>
      <trkpt lat="42.53874167" lon="1.6259">
        <ele>2027.0</ele>
        <time>2019-08-04T14:43:56.315Z</time>
      </trkpt>
      <trkpt lat="42.53874167" lon="1.6259">
        <ele>2027.0</ele>
        <time>2019-08-04T14:43:57.301Z</time>
      </trkpt>
      <trkpt lat="42.53873833" lon="1.62595167">
        <ele>2027.0</ele>
        <time>2019-08-04T14:43:58.302Z</time>
      </trkpt>
      <trkpt lat="42.53874" lon="1.625975">
        <ele>2027.0</ele>
        <time>2019-08-04T14:43:59.325Z</time>
      </trkpt>
      <trkpt lat="42.53874" lon="1.625975">
        <ele>2027.0</ele>
        <time>2019-08-04T14:44:00.304Z</time>
      </trkpt>
      <trkpt lat="42.53874" lon="1.62602167">
        <ele>2027.0</ele>
        <time>2019-08-04T14:44:01.303Z</time>
      </trkpt>
      <trkpt lat="42.53874" lon="1.62602167">
        <ele>2027.0</ele>
        <time>2019-08-04T14:44:02.301Z</time>
      </trkpt>
      <trkpt lat="42.53874" lon="1.62606833">
        <ele>2027.0</ele>
        <time>2019-08-04T14:44:03.308Z</time>
      </trkpt>
      <trkpt lat="42.53874" lon="1.62606833">
        <ele>2027.0</ele>
        <time>2019-08-04T14:44:04.300Z</time>
      </trkpt>
      <trkpt lat="42.53873833" lon="1.626115">
        <ele>2028.0</ele>
        <time>2019-08-04T14:44:05.304Z</time>
      </trkpt>
      <trkpt lat="42.53873833" lon="1.626115">
        <ele>2028.0</ele>
        <time>2019-08-04T14:44:06.300Z</time>
      </trkpt>
      <trkpt lat="42.53874" lon="1.62616167">
        <ele>2028.0</ele>
        <time>2019-08-04T14:44:07.301Z</time>
      </trkpt>
      <trkpt lat="42.53874" lon="1.62616167">
        <ele>2028.0</ele>
        <time>2019-08-04T14:44:08.300Z</time>
      </trkpt>
      <trkpt lat="42.53874167" lon="1.62621333">
        <ele>2028.0</ele>
        <time>2019-08-04T14:44:09.305Z</time>
      </trkpt>
      <trkpt lat="42.53874167" lon="1.62623833">
        <ele>2029.0</ele>
        <time>2019-08-04T14:44:10.328Z</time>
      </trkpt>
      <trkpt lat="42.53874167" lon="1.62623833">
        <ele>2029.0</ele>
        <time>2019-08-04T14:44:11.310Z</time>
      </trkpt>
      <trkpt lat="42.53874167" lon="1.62628667">
        <ele>2029.0</ele>
        <time>2019-08-04T14:44:12.304Z</time>
      </trkpt>
      <trkpt lat="42.53874167" lon="1.62630833">
        <ele>2029.0</ele>
        <time>2019-08-04T14:44:13.313Z</time>
      </trkpt>
      <trkpt lat="42.53874167" lon="1.62630833">
        <ele>2029.0</ele>
        <time>2019-08-04T14:44:14.298Z</time>
      </trkpt>
      <trkpt lat="42.538735" lon="1.62635">
        <ele>2029.0</ele>
        <time>2019-08-04T14:44:15.305Z</time>
      </trkpt>
      <trkpt lat="42.538735" lon="1.62635">
        <ele>2029.0</ele>
        <time>2019-08-04T14:44:16.302Z</time>
      </trkpt>
      <trkpt lat="42.53873833" lon="1.62639833">
        <ele>2029.0</ele>
        <time>2019-08-04T14:44:17.302Z</time>
      </trkpt>
      <trkpt lat="42.53873833" lon="1.62639833">
        <ele>2029.0</ele>
        <time>2019-08-04T14:44:18.298Z</time>
      </trkpt>
      <trkpt lat="42.53873833" lon="1.62644833">
        <ele>2030.0</ele>
        <time>2019-08-04T14:44:19.309Z</time>
      </trkpt>
      <trkpt lat="42.53873833" lon="1.62644833">
        <ele>2030.0</ele>
        <time>2019-08-04T14:44:20.301Z</time>
      </trkpt>
      <trkpt lat="42.53874" lon="1.62649333">
        <ele>2030.0</ele>
        <time>2019-08-04T14:44:21.305Z</time>
      </trkpt>
      <trkpt lat="42.53874" lon="1.62649333">
        <ele>2030.0</ele>
        <time>2019-08-04T14:44:22.300Z</time>
      </trkpt>
      <trkpt lat="42.53874333" lon="1.62654">
        <ele>2030.0</ele>
        <time>2019-08-04T14:44:23.305Z</time>
      </trkpt>
      <trkpt lat="42.53874333" lon="1.62654">
        <ele>2030.0</ele>
        <time>2019-08-04T14:44:24.300Z</time>
      </trkpt>
      <trkpt lat="42.53874333" lon="1.62658667">
        <ele>2031.0</ele>
        <time>2019-08-04T14:44:25.304Z</time>
      </trkpt>
      <trkpt lat="42.53874333" lon="1.62658667">
        <ele>2031.0</ele>
        <time>2019-08-04T14:44:26.301Z</time>
      </trkpt>
      <trkpt lat="42.538745" lon="1.62663333">
        <ele>2031.0</ele>
        <time>2019-08-04T14:44:27.303Z</time>
      </trkpt>
      <trkpt lat="42.53874667" lon="1.626655">
        <ele>2031.0</ele>
        <time>2019-08-04T14:44:28.304Z</time>
      </trkpt>
      <trkpt lat="42.53874667" lon="1.626655">
        <ele>2031.0</ele>
        <time>2019-08-04T14:44:29.313Z</time>
      </trkpt>
      <trkpt lat="42.53874833" lon="1.62670333">
        <ele>2031.0</ele>
        <time>2019-08-04T14:44:30.322Z</time>
      </trkpt>
      <trkpt lat="42.53875" lon="1.62672667">
        <ele>2031.0</ele>
        <time>2019-08-04T14:44:31.329Z</time>
      </trkpt>
      <trkpt lat="42.53875167" lon="1.62674833">
        <ele>2032.0</ele>
        <time>2019-08-04T14:44:32.336Z</time>
      </trkpt>
      <trkpt lat="42.53875167" lon="1.62674833">
        <ele>2032.0</ele>
        <time>2019-08-04T14:44:33.301Z</time>
      </trkpt>
      <trkpt lat="42.53875667" lon="1.62679667">
        <ele>2032.0</ele>
        <time>2019-08-04T14:44:34.308Z</time>
      </trkpt>
      <trkpt lat="42.53875833" lon="1.62682167">
        <ele>2032.0</ele>
        <time>2019-08-04T14:44:35.302Z</time>
      </trkpt>
      <trkpt lat="42.53875833" lon="1.62682167">
        <ele>2032.0</ele>
        <time>2019-08-04T14:44:36.302Z</time>
      </trkpt>
      <trkpt lat="42.53876333" lon="1.626875">
        <ele>2032.0</ele>
        <time>2019-08-04T14:44:37.303Z</time>
      </trkpt>
      <trkpt lat="42.53876333" lon="1.626875">
        <ele>2032.0</ele>
        <time>2019-08-04T14:44:38.300Z</time>
      </trkpt>
      <trkpt lat="42.53876333" lon="1.62692667">
        <ele>2032.0</ele>
        <time>2019-08-04T14:44:39.325Z</time>
      </trkpt>
      <trkpt lat="42.53876333" lon="1.62692667">
        <ele>2032.0</ele>
        <time>2019-08-04T14:44:40.308Z</time>
      </trkpt>
      <trkpt lat="42.538765" lon="1.62697667">
        <ele>2033.0</ele>
        <time>2019-08-04T14:44:41.306Z</time>
      </trkpt>
      <trkpt lat="42.538765" lon="1.62697667">
        <ele>2033.0</ele>
        <time>2019-08-04T14:44:42.299Z</time>
      </trkpt>
      <trkpt lat="42.53876667" lon="1.62702667">
        <ele>2033.0</ele>
        <time>2019-08-04T14:44:43.304Z</time>
      </trkpt>
      <trkpt lat="42.53876667" lon="1.62702667">
        <ele>2033.0</ele>
        <time>2019-08-04T14:44:44.300Z</time>
      </trkpt>
      <trkpt lat="42.53877" lon="1.627075">
        <ele>2033.0</ele>
        <time>2019-08-04T14:44:45.304Z</time>
      </trkpt>
      <trkpt lat="42.53877333" lon="1.62709833">
        <ele>2034.0</ele>
        <time>2019-08-04T14:44:46.307Z</time>
      </trkpt>
      <trkpt lat="42.538775" lon="1.62712">
        <ele>2034.0</ele>
        <time>2019-08-04T14:44:47.303Z</time>
      </trkpt>
      <trkpt lat="42.538775" lon="1.62712">
        <ele>2034.0</ele>
        <time>2019-08-04T14:44:48.299Z</time>
      </trkpt>
      <trkpt lat="42.53878" lon="1.627165">
        <ele>2034.0</ele>
        <time>2019-08-04T14:44:49.309Z</time>
      </trkpt>
      <trkpt lat="42.53878" lon="1.627165">
        <ele>2034.0</ele>
        <time>2019-08-04T14:44:50.301Z</time>
      </trkpt>
      <trkpt lat="42.538785" lon="1.62721">
        <ele>2035.0</ele>
        <time>2019-08-04T14:44:51.303Z</time>
      </trkpt>
      <trkpt lat="42.538785" lon="1.62721">
        <ele>2035.0</ele>
        <time>2019-08-04T14:44:52.301Z</time>
      </trkpt>
      <trkpt lat="42.53878833" lon="1.627255">
        <ele>2035.0</ele>
        <time>2019-08-04T14:44:53.333Z</time>
      </trkpt>
      <trkpt lat="42.53878833" lon="1.627255">
        <ele>2035.0</ele>
        <time>2019-08-04T14:44:54.313Z</time>
      </trkpt>
      <trkpt lat="42.53879167" lon="1.6273">
        <ele>2036.0</ele>
        <time>2019-08-04T14:44:55.304Z</time>
      </trkpt>
      <trkpt lat="42.53879167" lon="1.6273">
        <ele>2036.0</ele>
        <time>2019-08-04T14:44:56.302Z</time>
      </trkpt>
      <trkpt lat="42.53879333" lon="1.62734667">
        <ele>2036.0</ele>
        <time>2019-08-04T14:44:57.304Z</time>
      </trkpt>
      <trkpt lat="42.53879667" lon="1.62737">
        <ele>2036.0</ele>
        <time>2019-08-04T14:44:58.304Z</time>
      </trkpt>
      <trkpt lat="42.53879667" lon="1.627395">
        <ele>2037.0</ele>
        <time>2019-08-04T14:44:59.306Z</time>
      </trkpt>
      <trkpt lat="42.53879667" lon="1.627395">
        <ele>2037.0</ele>
        <time>2019-08-04T14:45:00.299Z</time>
      </trkpt>
      <trkpt lat="42.538795" lon="1.62744333">
        <ele>2037.0</ele>
        <time>2019-08-04T14:45:01.325Z</time>
      </trkpt>
      <trkpt lat="42.538795" lon="1.62744333">
        <ele>2037.0</ele>
        <time>2019-08-04T14:45:02.304Z</time>
      </trkpt>
      <trkpt lat="42.53879833" lon="1.627495">
        <ele>2037.0</ele>
        <time>2019-08-04T14:45:03.304Z</time>
      </trkpt>
      <trkpt lat="42.53879833" lon="1.627495">
        <ele>2037.0</ele>
        <time>2019-08-04T14:45:04.300Z</time>
      </trkpt>
      <trkpt lat="42.53880333" lon="1.62754333">
        <ele>2037.0</ele>
        <time>2019-08-04T14:45:05.306Z</time>
      </trkpt>
      <trkpt lat="42.53880333" lon="1.62754333">
        <ele>2037.0</ele>
        <time>2019-08-04T14:45:06.302Z</time>
      </trkpt>
      <trkpt lat="42.53880333" lon="1.62758">
        <ele>2038.0</ele>
        <time>2019-08-04T14:45:07.328Z</time>
      </trkpt>
      <trkpt lat="42.53880333" lon="1.62758">
        <ele>2038.0</ele>
        <time>2019-08-04T14:45:08.309Z</time>
      </trkpt>
      <trkpt lat="42.5388" lon="1.62761333">
        <ele>2038.0</ele>
        <time>2019-08-04T14:45:09.304Z</time>
      </trkpt>
      <trkpt lat="42.5388" lon="1.62761333">
        <ele>2038.0</ele>
        <time>2019-08-04T14:45:10.301Z</time>
      </trkpt>
      <trkpt lat="42.538795" lon="1.62763667">
        <ele>2038.0</ele>
        <time>2019-08-04T14:45:11.304Z</time>
      </trkpt>
      <trkpt lat="42.538795" lon="1.62763667">
        <ele>2038.0</ele>
        <time>2019-08-04T14:45:12.299Z</time>
      </trkpt>
      <trkpt lat="42.538795" lon="1.627665">
        <ele>2038.0</ele>
        <time>2019-08-04T14:45:13.315Z</time>
      </trkpt>
      <trkpt lat="42.538795" lon="1.627665">
        <ele>2038.0</ele>
        <time>2019-08-04T14:45:14.301Z</time>
      </trkpt>
      <trkpt lat="42.538795" lon="1.62770667">
        <ele>2038.0</ele>
        <time>2019-08-04T14:45:15.305Z</time>
      </trkpt>
      <trkpt lat="42.538795" lon="1.62770667">
        <ele>2038.0</ele>
        <time>2019-08-04T14:45:16.301Z</time>
      </trkpt>
      <trkpt lat="42.538795" lon="1.62774667">
        <ele>2039.0</ele>
        <time>2019-08-04T14:45:17.303Z</time>
      </trkpt>
      <trkpt lat="42.538795" lon="1.62774667">
        <ele>2039.0</ele>
        <time>2019-08-04T14:45:18.301Z</time>
      </trkpt>
      <trkpt lat="42.53878667" lon="1.62776667">
        <ele>2039.0</ele>
        <time>2019-08-04T14:45:19.304Z</time>
      </trkpt>
      <trkpt lat="42.53878667" lon="1.62776667">
        <ele>2039.0</ele>
        <time>2019-08-04T14:45:20.299Z</time>
      </trkpt>
      <trkpt lat="42.53878333" lon="1.62776667">
        <ele>2039.0</ele>
        <time>2019-08-04T14:45:21.302Z</time>
      </trkpt>
      <trkpt lat="42.53878333" lon="1.62776667">
        <ele>2039.0</ele>
        <time>2019-08-04T14:45:22.312Z</time>
      </trkpt>
      <trkpt lat="42.53878167" lon="1.627765">
        <ele>2039.0</ele>
        <time>2019-08-04T14:45:23.313Z</time>
      </trkpt>
      <trkpt lat="42.53878167" lon="1.627765">
        <ele>2039.0</ele>
        <time>2019-08-04T14:45:24.330Z</time>
      </trkpt>
      <trkpt lat="42.53878167" lon="1.627765">
        <ele>2039.0</ele>
        <time>2019-08-04T14:45:25.304Z</time>
      </trkpt>
      <trkpt lat="42.53878167" lon="1.62783667">
        <ele>2038.0</ele>
        <time>2019-08-04T14:45:26.306Z</time>
      </trkpt>
      <trkpt lat="42.53878333" lon="1.62785833">
        <ele>2038.0</ele>
        <time>2019-08-04T14:45:27.306Z</time>
      </trkpt>
      <trkpt lat="42.53878333" lon="1.62785833">
        <ele>2038.0</ele>
        <time>2019-08-04T14:45:28.321Z</time>
      </trkpt>
      <trkpt lat="42.53878333" lon="1.62791">
        <ele>2039.0</ele>
        <time>2019-08-04T14:45:29.299Z</time>
      </trkpt>
      <trkpt lat="42.53878333" lon="1.62791">
        <ele>2039.0</ele>
        <time>2019-08-04T14:45:30.321Z</time>
      </trkpt>
      <trkpt lat="42.53877833" lon="1.62797333">
        <ele>2039.0</ele>
        <time>2019-08-04T14:45:31.306Z</time>
      </trkpt>
      <trkpt lat="42.53877833" lon="1.62797333">
        <ele>2039.0</ele>
        <time>2019-08-04T14:45:32.301Z</time>
      </trkpt>
      <trkpt lat="42.53877167" lon="1.62802833">
        <ele>2040.0</ele>
        <time>2019-08-04T14:45:33.322Z</time>
      </trkpt>
      <trkpt lat="42.53877167" lon="1.62802833">
        <ele>2040.0</ele>
        <time>2019-08-04T14:45:34.303Z</time>
      </trkpt>
      <trkpt lat="42.53876667" lon="1.628085">
        <ele>2040.0</ele>
        <time>2019-08-04T14:45:35.306Z</time>
      </trkpt>
      <trkpt lat="42.538765" lon="1.62811333">
        <ele>2040.0</ele>
        <time>2019-08-04T14:45:36.303Z</time>
      </trkpt>
      <trkpt lat="42.53876167" lon="1.62814333">
        <ele>2040.0</ele>
        <time>2019-08-04T14:45:37.315Z</time>
      </trkpt>
      <trkpt lat="42.53876167" lon="1.62814333">
        <ele>2040.0</ele>
        <time>2019-08-04T14:45:38.304Z</time>
      </trkpt>
      <trkpt lat="42.53876" lon="1.628205">
        <ele>2041.0</ele>
        <time>2019-08-04T14:45:39.307Z</time>
      </trkpt>
      <trkpt lat="42.53876" lon="1.628205">
        <ele>2041.0</ele>
        <time>2019-08-04T14:45:40.303Z</time>
      </trkpt>
      <trkpt lat="42.53876167" lon="1.62826833">
        <ele>2041.0</ele>
        <time>2019-08-04T14:45:41.305Z</time>
      </trkpt>
      <trkpt lat="42.53876333" lon="1.62830167">
        <ele>2041.0</ele>
        <time>2019-08-04T14:45:42.307Z</time>
      </trkpt>
      <trkpt lat="42.53876333" lon="1.62830167">
        <ele>2041.0</ele>
        <time>2019-08-04T14:45:43.303Z</time>
      </trkpt>
      <trkpt lat="42.538765" lon="1.62836833">
        <ele>2042.0</ele>
        <time>2019-08-04T14:45:44.304Z</time>
      </trkpt>
      <trkpt lat="42.538765" lon="1.62836833">
        <ele>2042.0</ele>
        <time>2019-08-04T14:45:45.303Z</time>
      </trkpt>
      <trkpt lat="42.53876333" lon="1.628435">
        <ele>2042.0</ele>
        <time>2019-08-04T14:45:46.306Z</time>
      </trkpt>
      <trkpt lat="42.53876333" lon="1.628435">
        <ele>2042.0</ele>
        <time>2019-08-04T14:45:47.335Z</time>
      </trkpt>
      <trkpt lat="42.53876167" lon="1.62849833">
        <ele>2043.0</ele>
        <time>2019-08-04T14:45:48.314Z</time>
      </trkpt>
      <trkpt lat="42.53876167" lon="1.62849833">
        <ele>2043.0</ele>
        <time>2019-08-04T14:45:49.303Z</time>
      </trkpt>
      <trkpt lat="42.53876" lon="1.62856167">
        <ele>2043.0</ele>
        <time>2019-08-04T14:45:50.306Z</time>
      </trkpt>
      <trkpt lat="42.53875833" lon="1.62859167">
        <ele>2043.0</ele>
        <time>2019-08-04T14:45:51.308Z</time>
      </trkpt>
      <trkpt lat="42.53875833" lon="1.62859167">
        <ele>2043.0</ele>
        <time>2019-08-04T14:45:52.302Z</time>
      </trkpt>
      <trkpt lat="42.53876" lon="1.62865167">
        <ele>2044.0</ele>
        <time>2019-08-04T14:45:53.303Z</time>
      </trkpt>
      <trkpt lat="42.53876167" lon="1.62868333">
        <ele>2044.0</ele>
        <time>2019-08-04T14:45:54.314Z</time>
      </trkpt>
      <trkpt lat="42.53876167" lon="1.62868333">
        <ele>2044.0</ele>
        <time>2019-08-04T14:45:55.298Z</time>
      </trkpt>
      <trkpt lat="42.53876333" lon="1.62874333">
        <ele>2044.0</ele>
        <time>2019-08-04T14:45:56.318Z</time>
      </trkpt>
      <trkpt lat="42.538765" lon="1.62877333">
        <ele>2044.0</ele>
        <time>2019-08-04T14:45:57.315Z</time>
      </trkpt>
      <trkpt lat="42.538765" lon="1.62877333">
        <ele>2044.0</ele>
        <time>2019-08-04T14:45:58.301Z</time>
      </trkpt>
      <trkpt lat="42.53876833" lon="1.628835">
        <ele>2045.0</ele>
        <time>2019-08-04T14:45:59.305Z</time>
      </trkpt>
      <trkpt lat="42.53876833" lon="1.62886833">
        <ele>2045.0</ele>
        <time>2019-08-04T14:46:00.308Z</time>
      </trkpt>
      <trkpt lat="42.53876833" lon="1.62886833">
        <ele>2045.0</ele>
        <time>2019-08-04T14:46:01.303Z</time>
      </trkpt>
      <trkpt lat="42.53876833" lon="1.62886833">
        <ele>2045.0</ele>
        <time>2019-08-04T14:46:02.458Z</time>
      </trkpt>
      <trkpt lat="42.53877333" lon="1.62896667">
        <ele>2045.0</ele>
        <time>2019-08-04T14:46:03.308Z</time>
      </trkpt>
      <trkpt lat="42.53877333" lon="1.62896667">
        <ele>2045.0</ele>
        <time>2019-08-04T14:46:04.301Z</time>
      </trkpt>
      <trkpt lat="42.53877667" lon="1.629035">
        <ele>2046.0</ele>
        <time>2019-08-04T14:46:05.325Z</time>
      </trkpt>
      <trkpt lat="42.53877667" lon="1.629035">
        <ele>2046.0</ele>
        <time>2019-08-04T14:46:06.303Z</time>
      </trkpt>
      <trkpt lat="42.53878167" lon="1.629105">
        <ele>2046.0</ele>
        <time>2019-08-04T14:46:07.306Z</time>
      </trkpt>
      <trkpt lat="42.53878167" lon="1.629105">
        <ele>2046.0</ele>
        <time>2019-08-04T14:46:08.303Z</time>
      </trkpt>
      <trkpt lat="42.53878833" lon="1.62917667">
        <ele>2046.0</ele>
        <time>2019-08-04T14:46:09.306Z</time>
      </trkpt>
      <trkpt lat="42.53878833" lon="1.62917667">
        <ele>2046.0</ele>
        <time>2019-08-04T14:46:10.325Z</time>
      </trkpt>
      <trkpt lat="42.53879667" lon="1.62925">
        <ele>2047.0</ele>
        <time>2019-08-04T14:46:11.307Z</time>
      </trkpt>
      <trkpt lat="42.53879667" lon="1.62925">
        <ele>2047.0</ele>
        <time>2019-08-04T14:46:12.314Z</time>
      </trkpt>
      <trkpt lat="42.53879667" lon="1.62932667">
        <ele>2048.0</ele>
        <time>2019-08-04T14:46:13.306Z</time>
      </trkpt>
      <trkpt lat="42.53879667" lon="1.62932667">
        <ele>2048.0</ele>
        <time>2019-08-04T14:46:14.298Z</time>
      </trkpt>
      <trkpt lat="42.53880167" lon="1.629395">
        <ele>2048.0</ele>
        <time>2019-08-04T14:46:15.319Z</time>
      </trkpt>
      <trkpt lat="42.53880167" lon="1.629395">
        <ele>2048.0</ele>
        <time>2019-08-04T14:46:16.303Z</time>
      </trkpt>
      <trkpt lat="42.538815" lon="1.62945833">
        <ele>2048.0</ele>
        <time>2019-08-04T14:46:17.306Z</time>
      </trkpt>
      <trkpt lat="42.538815" lon="1.62945833">
        <ele>2048.0</ele>
        <time>2019-08-04T14:46:18.301Z</time>
      </trkpt>
      <trkpt lat="42.53882167" lon="1.62952">
        <ele>2049.0</ele>
        <time>2019-08-04T14:46:19.321Z</time>
      </trkpt>
      <trkpt lat="42.53882667" lon="1.62955167">
        <ele>2049.0</ele>
        <time>2019-08-04T14:46:20.305Z</time>
      </trkpt>
      <trkpt lat="42.53882667" lon="1.62955167">
        <ele>2049.0</ele>
        <time>2019-08-04T14:46:21.310Z</time>
      </trkpt>
      <trkpt lat="42.538835" lon="1.62961333">
        <ele>2050.0</ele>
        <time>2019-08-04T14:46:22.303Z</time>
      </trkpt>
      <trkpt lat="42.53884" lon="1.629645">
        <ele>2050.0</ele>
        <time>2019-08-04T14:46:23.306Z</time>
      </trkpt>
      <trkpt lat="42.53884" lon="1.629645">
        <ele>2050.0</ele>
        <time>2019-08-04T14:46:24.300Z</time>
      </trkpt>
      <trkpt lat="42.53885" lon="1.629705">
        <ele>2050.0</ele>
        <time>2019-08-04T14:46:25.319Z</time>
      </trkpt>
      <trkpt lat="42.53885" lon="1.629705">
        <ele>2050.0</ele>
        <time>2019-08-04T14:46:26.304Z</time>
      </trkpt>
      <trkpt lat="42.53885833" lon="1.62976667">
        <ele>2051.0</ele>
        <time>2019-08-04T14:46:27.317Z</time>
      </trkpt>
      <trkpt lat="42.53885833" lon="1.62976667">
        <ele>2051.0</ele>
        <time>2019-08-04T14:46:28.301Z</time>
      </trkpt>
      <trkpt lat="42.53887667" lon="1.62982333">
        <ele>2052.0</ele>
        <time>2019-08-04T14:46:29.297Z</time>
      </trkpt>
      <trkpt lat="42.53888333" lon="1.62985167">
        <ele>2053.0</ele>
        <time>2019-08-04T14:46:30.313Z</time>
      </trkpt>
      <trkpt lat="42.53889" lon="1.62988333">
        <ele>2053.0</ele>
        <time>2019-08-04T14:46:31.321Z</time>
      </trkpt>
      <trkpt lat="42.53889" lon="1.62988333">
        <ele>2053.0</ele>
        <time>2019-08-04T14:46:32.304Z</time>
      </trkpt>
      <trkpt lat="42.53890167" lon="1.629945">
        <ele>2054.0</ele>
        <time>2019-08-04T14:46:33.308Z</time>
      </trkpt>
      <trkpt lat="42.53890167" lon="1.629945">
        <ele>2054.0</ele>
        <time>2019-08-04T14:46:34.303Z</time>
      </trkpt>
      <trkpt lat="42.53891333" lon="1.63000833">
        <ele>2054.0</ele>
        <time>2019-08-04T14:46:35.325Z</time>
      </trkpt>
      <trkpt lat="42.53892" lon="1.63004167">
        <ele>2054.0</ele>
        <time>2019-08-04T14:46:36.310Z</time>
      </trkpt>
      <trkpt lat="42.53892" lon="1.63004167">
        <ele>2054.0</ele>
        <time>2019-08-04T14:46:37.301Z</time>
      </trkpt>
      <trkpt lat="42.53893333" lon="1.63010833">
        <ele>2055.0</ele>
        <time>2019-08-04T14:46:38.316Z</time>
      </trkpt>
      <trkpt lat="42.53893333" lon="1.63010833">
        <ele>2055.0</ele>
        <time>2019-08-04T14:46:39.302Z</time>
      </trkpt>
      <trkpt lat="42.53894667" lon="1.63017167">
        <ele>2056.0</ele>
        <time>2019-08-04T14:46:40.303Z</time>
      </trkpt>
      <trkpt lat="42.53895167" lon="1.63020167">
        <ele>2056.0</ele>
        <time>2019-08-04T14:46:41.307Z</time>
      </trkpt>
      <trkpt lat="42.53895167" lon="1.63020167">
        <ele>2056.0</ele>
        <time>2019-08-04T14:46:42.301Z</time>
      </trkpt>
      <trkpt lat="42.538965" lon="1.63026333">
        <ele>2057.0</ele>
        <time>2019-08-04T14:46:43.303Z</time>
      </trkpt>
      <trkpt lat="42.53897167" lon="1.63029333">
        <ele>2057.0</ele>
        <time>2019-08-04T14:46:44.303Z</time>
      </trkpt>
      <trkpt lat="42.53897167" lon="1.63029333">
        <ele>2057.0</ele>
        <time>2019-08-04T14:46:45.304Z</time>
      </trkpt>
      <trkpt lat="42.53898167" lon="1.63035333">
        <ele>2058.0</ele>
        <time>2019-08-04T14:46:46.303Z</time>
      </trkpt>
      <trkpt lat="42.53898667" lon="1.63038333">
        <ele>2058.0</ele>
        <time>2019-08-04T14:46:47.305Z</time>
      </trkpt>
      <trkpt lat="42.53898667" lon="1.63038333">
        <ele>2058.0</ele>
        <time>2019-08-04T14:46:48.303Z</time>
      </trkpt>
      <trkpt lat="42.53899667" lon="1.63043833">
        <ele>2059.0</ele>
        <time>2019-08-04T14:46:49.303Z</time>
      </trkpt>
      <trkpt lat="42.53899667" lon="1.63043833">
        <ele>2059.0</ele>
        <time>2019-08-04T14:46:50.314Z</time>
      </trkpt>
      <trkpt lat="42.53901167" lon="1.63049167">
        <ele>2059.0</ele>
        <time>2019-08-04T14:46:51.308Z</time>
      </trkpt>
      <trkpt lat="42.53901167" lon="1.63049167">
        <ele>2059.0</ele>
        <time>2019-08-04T14:46:52.303Z</time>
      </trkpt>
      <trkpt lat="42.539025" lon="1.63054667">
        <ele>2060.0</ele>
        <time>2019-08-04T14:46:53.306Z</time>
      </trkpt>
      <trkpt lat="42.539025" lon="1.63054667">
        <ele>2060.0</ele>
        <time>2019-08-04T14:46:54.303Z</time>
      </trkpt>
      <trkpt lat="42.53903667" lon="1.6306">
        <ele>2060.0</ele>
        <time>2019-08-04T14:46:55.329Z</time>
      </trkpt>
      <trkpt lat="42.53904167" lon="1.63062667">
        <ele>2061.0</ele>
        <time>2019-08-04T14:46:56.310Z</time>
      </trkpt>
      <trkpt lat="42.539045" lon="1.63065333">
        <ele>2061.0</ele>
        <time>2019-08-04T14:46:57.314Z</time>
      </trkpt>
      <trkpt lat="42.539045" lon="1.63065333">
        <ele>2061.0</ele>
        <time>2019-08-04T14:46:58.303Z</time>
      </trkpt>
      <trkpt lat="42.53905" lon="1.63070833">
        <ele>2061.0</ele>
        <time>2019-08-04T14:46:59.306Z</time>
      </trkpt>
      <trkpt lat="42.53905" lon="1.63070833">
        <ele>2061.0</ele>
        <time>2019-08-04T14:47:00.325Z</time>
      </trkpt>
      <trkpt lat="42.53905" lon="1.63070833">
        <ele>2061.0</ele>
        <time>2019-08-04T14:47:01.447Z</time>
      </trkpt>
      <trkpt lat="42.53906" lon="1.63076">
        <ele>2061.0</ele>
        <time>2019-08-04T14:47:02.303Z</time>
      </trkpt>
      <trkpt lat="42.53907" lon="1.63080833">
        <ele>2062.0</ele>
        <time>2019-08-04T14:47:03.308Z</time>
      </trkpt>
      <trkpt lat="42.53907" lon="1.63080833">
        <ele>2062.0</ele>
        <time>2019-08-04T14:47:04.335Z</time>
      </trkpt>
      <trkpt lat="42.539075" lon="1.63085833">
        <ele>2062.0</ele>
        <time>2019-08-04T14:47:05.318Z</time>
      </trkpt>
      <trkpt lat="42.53907667" lon="1.630885">
        <ele>2062.0</ele>
        <time>2019-08-04T14:47:06.303Z</time>
      </trkpt>
      <trkpt lat="42.53907667" lon="1.630885">
        <ele>2062.0</ele>
        <time>2019-08-04T14:47:07.302Z</time>
      </trkpt>
      <trkpt lat="42.53907833" lon="1.630935">
        <ele>2062.0</ele>
        <time>2019-08-04T14:47:08.318Z</time>
      </trkpt>
      <trkpt lat="42.53908" lon="1.63096">
        <ele>2062.0</ele>
        <time>2019-08-04T14:47:09.308Z</time>
      </trkpt>
      <trkpt lat="42.53908" lon="1.63096">
        <ele>2062.0</ele>
        <time>2019-08-04T14:47:10.301Z</time>
      </trkpt>
      <trkpt lat="42.53908667" lon="1.63100833">
        <ele>2062.0</ele>
        <time>2019-08-04T14:47:11.307Z</time>
      </trkpt>
      <trkpt lat="42.53908667" lon="1.63100833">
        <ele>2062.0</ele>
        <time>2019-08-04T14:47:12.301Z</time>
      </trkpt>
      <trkpt lat="42.53908833" lon="1.631065">
        <ele>2062.0</ele>
        <time>2019-08-04T14:47:13.304Z</time>
      </trkpt>
      <trkpt lat="42.53908833" lon="1.631065">
        <ele>2062.0</ele>
        <time>2019-08-04T14:47:14.321Z</time>
      </trkpt>
      <trkpt lat="42.53908667" lon="1.63112667">
        <ele>2062.0</ele>
        <time>2019-08-04T14:47:15.309Z</time>
      </trkpt>
      <trkpt lat="42.53908667" lon="1.63112667">
        <ele>2062.0</ele>
        <time>2019-08-04T14:47:16.303Z</time>
      </trkpt>
      <trkpt lat="42.53908" lon="1.63118333">
        <ele>2063.0</ele>
        <time>2019-08-04T14:47:17.306Z</time>
      </trkpt>
      <trkpt lat="42.539075" lon="1.63121">
        <ele>2064.0</ele>
        <time>2019-08-04T14:47:18.303Z</time>
      </trkpt>
      <trkpt lat="42.53907" lon="1.63123667">
        <ele>2064.0</ele>
        <time>2019-08-04T14:47:19.306Z</time>
      </trkpt>
      <trkpt lat="42.539065" lon="1.63126333">
        <ele>2064.0</ele>
        <time>2019-08-04T14:47:20.307Z</time>
      </trkpt>
      <trkpt lat="42.539065" lon="1.63126333">
        <ele>2064.0</ele>
        <time>2019-08-04T14:47:21.303Z</time>
      </trkpt>
      <trkpt lat="42.539055" lon="1.63131833">
        <ele>2065.0</ele>
        <time>2019-08-04T14:47:22.303Z</time>
      </trkpt>
      <trkpt lat="42.53905" lon="1.63134667">
        <ele>2065.0</ele>
        <time>2019-08-04T14:47:23.306Z</time>
      </trkpt>
      <trkpt lat="42.53905" lon="1.63134667">
        <ele>2065.0</ele>
        <time>2019-08-04T14:47:24.335Z</time>
      </trkpt>
      <trkpt lat="42.53903667" lon="1.6314">
        <ele>2065.0</ele>
        <time>2019-08-04T14:47:25.317Z</time>
      </trkpt>
      <trkpt lat="42.53902667" lon="1.631425">
        <ele>2065.0</ele>
        <time>2019-08-04T14:47:26.307Z</time>
      </trkpt>
      <trkpt lat="42.53902667" lon="1.631425">
        <ele>2065.0</ele>
        <time>2019-08-04T14:47:27.308Z</time>
      </trkpt>
      <trkpt lat="42.53901167" lon="1.63147833">
        <ele>2065.0</ele>
        <time>2019-08-04T14:47:28.303Z</time>
      </trkpt>
      <trkpt lat="42.53901167" lon="1.63147833">
        <ele>2065.0</ele>
        <time>2019-08-04T14:47:29.325Z</time>
      </trkpt>
      <trkpt lat="42.53899667" lon="1.63153">
        <ele>2066.0</ele>
        <time>2019-08-04T14:47:30.300Z</time>
      </trkpt>
      <trkpt lat="42.53898833" lon="1.631555">
        <ele>2066.0</ele>
        <time>2019-08-04T14:47:31.310Z</time>
      </trkpt>
      <trkpt lat="42.53898833" lon="1.631555">
        <ele>2066.0</ele>
        <time>2019-08-04T14:47:32.317Z</time>
      </trkpt>
      <trkpt lat="42.538965" lon="1.63160333">
        <ele>2066.0</ele>
        <time>2019-08-04T14:47:33.323Z</time>
      </trkpt>
      <trkpt lat="42.538965" lon="1.63160333">
        <ele>2066.0</ele>
        <time>2019-08-04T14:47:34.301Z</time>
      </trkpt>
      <trkpt lat="42.53894333" lon="1.63165667">
        <ele>2066.0</ele>
        <time>2019-08-04T14:47:35.326Z</time>
      </trkpt>
      <trkpt lat="42.53894333" lon="1.63165667">
        <ele>2066.0</ele>
        <time>2019-08-04T14:47:36.314Z</time>
      </trkpt>
      <trkpt lat="42.53891833" lon="1.63170167">
        <ele>2066.0</ele>
        <time>2019-08-04T14:47:37.304Z</time>
      </trkpt>
      <trkpt lat="42.53891833" lon="1.63170167">
        <ele>2066.0</ele>
        <time>2019-08-04T14:47:38.321Z</time>
      </trkpt>
      <trkpt lat="42.538895" lon="1.63174333">
        <ele>2066.0</ele>
        <time>2019-08-04T14:47:39.308Z</time>
      </trkpt>
      <trkpt lat="42.538895" lon="1.63174333">
        <ele>2066.0</ele>
        <time>2019-08-04T14:47:40.303Z</time>
      </trkpt>
      <trkpt lat="42.53887" lon="1.63178667">
        <ele>2067.0</ele>
        <time>2019-08-04T14:47:41.307Z</time>
      </trkpt>
      <trkpt lat="42.53887" lon="1.63178667">
        <ele>2067.0</ele>
        <time>2019-08-04T14:47:42.302Z</time>
      </trkpt>
      <trkpt lat="42.538845" lon="1.63183">
        <ele>2067.0</ele>
        <time>2019-08-04T14:47:43.306Z</time>
      </trkpt>
      <trkpt lat="42.538845" lon="1.63183">
        <ele>2067.0</ele>
        <time>2019-08-04T14:47:44.301Z</time>
      </trkpt>
      <trkpt lat="42.538815" lon="1.63186667">
        <ele>2067.0</ele>
        <time>2019-08-04T14:47:45.325Z</time>
      </trkpt>
      <trkpt lat="42.538815" lon="1.63186667">
        <ele>2067.0</ele>
        <time>2019-08-04T14:47:46.309Z</time>
      </trkpt>
      <trkpt lat="42.53878833" lon="1.63190833">
        <ele>2068.0</ele>
        <time>2019-08-04T14:47:47.326Z</time>
      </trkpt>
      <trkpt lat="42.53878833" lon="1.63190833">
        <ele>2068.0</ele>
        <time>2019-08-04T14:47:48.301Z</time>
      </trkpt>
      <trkpt lat="42.538765" lon="1.63195">
        <ele>2068.0</ele>
        <time>2019-08-04T14:47:49.321Z</time>
      </trkpt>
      <trkpt lat="42.538765" lon="1.63195">
        <ele>2068.0</ele>
        <time>2019-08-04T14:47:50.304Z</time>
      </trkpt>
      <trkpt lat="42.538745" lon="1.63199333">
        <ele>2068.0</ele>
        <time>2019-08-04T14:47:51.307Z</time>
      </trkpt>
      <trkpt lat="42.538745" lon="1.63199333">
        <ele>2068.0</ele>
        <time>2019-08-04T14:47:52.300Z</time>
      </trkpt>
      <trkpt lat="42.53872667" lon="1.632045">
        <ele>2068.0</ele>
        <time>2019-08-04T14:47:53.322Z</time>
      </trkpt>
      <trkpt lat="42.53871667" lon="1.63207167">
        <ele>2068.0</ele>
        <time>2019-08-04T14:47:54.303Z</time>
      </trkpt>
      <trkpt lat="42.53871667" lon="1.63207167">
        <ele>2068.0</ele>
        <time>2019-08-04T14:47:55.300Z</time>
      </trkpt>
      <trkpt lat="42.53870333" lon="1.632125">
        <ele>2069.0</ele>
        <time>2019-08-04T14:47:56.321Z</time>
      </trkpt>
      <trkpt lat="42.53869667" lon="1.632155">
        <ele>2069.0</ele>
        <time>2019-08-04T14:47:57.314Z</time>
      </trkpt>
      <trkpt lat="42.53869667" lon="1.632155">
        <ele>2069.0</ele>
        <time>2019-08-04T14:47:58.301Z</time>
      </trkpt>
      <trkpt lat="42.538685" lon="1.632215">
        <ele>2069.0</ele>
        <time>2019-08-04T14:47:59.322Z</time>
      </trkpt>
      <trkpt lat="42.538685" lon="1.632215">
        <ele>2069.0</ele>
        <time>2019-08-04T14:48:00.304Z</time>
      </trkpt>
      <trkpt lat="42.538675" lon="1.63227167">
        <ele>2069.0</ele>
        <time>2019-08-04T14:48:01.308Z</time>
      </trkpt>
      <trkpt lat="42.538675" lon="1.63227167">
        <ele>2069.0</ele>
        <time>2019-08-04T14:48:02.300Z</time>
      </trkpt>
      <trkpt lat="42.538665" lon="1.63233333">
        <ele>2070.0</ele>
        <time>2019-08-04T14:48:03.321Z</time>
      </trkpt>
      <trkpt lat="42.538665" lon="1.63233333">
        <ele>2070.0</ele>
        <time>2019-08-04T14:48:04.301Z</time>
      </trkpt>
      <trkpt lat="42.53865667" lon="1.63239">
        <ele>2070.0</ele>
        <time>2019-08-04T14:48:05.322Z</time>
      </trkpt>
      <trkpt lat="42.53865667" lon="1.63239">
        <ele>2070.0</ele>
        <time>2019-08-04T14:48:06.461Z</time>
      </trkpt>
      <trkpt lat="42.538655" lon="1.63241833">
        <ele>2070.0</ele>
        <time>2019-08-04T14:48:07.315Z</time>
      </trkpt>
      <trkpt lat="42.53865667" lon="1.63247167">
        <ele>2070.0</ele>
        <time>2019-08-04T14:48:08.304Z</time>
      </trkpt>
      <trkpt lat="42.53865833" lon="1.63249667">
        <ele>2070.0</ele>
        <time>2019-08-04T14:48:09.322Z</time>
      </trkpt>
      <trkpt lat="42.53865833" lon="1.63249667">
        <ele>2070.0</ele>
        <time>2019-08-04T14:48:10.307Z</time>
      </trkpt>
      <trkpt lat="42.53866167" lon="1.63254833">
        <ele>2070.0</ele>
        <time>2019-08-04T14:48:11.308Z</time>
      </trkpt>
      <trkpt lat="42.53866167" lon="1.63254833">
        <ele>2070.0</ele>
        <time>2019-08-04T14:48:12.301Z</time>
      </trkpt>
      <trkpt lat="42.53866667" lon="1.63260167">
        <ele>2071.0</ele>
        <time>2019-08-04T14:48:13.322Z</time>
      </trkpt>
      <trkpt lat="42.53866667" lon="1.63260167">
        <ele>2071.0</ele>
        <time>2019-08-04T14:48:14.304Z</time>
      </trkpt>
      <trkpt lat="42.538675" lon="1.63265333">
        <ele>2071.0</ele>
        <time>2019-08-04T14:48:15.308Z</time>
      </trkpt>
      <trkpt lat="42.538675" lon="1.63265333">
        <ele>2071.0</ele>
        <time>2019-08-04T14:48:16.304Z</time>
      </trkpt>
      <trkpt lat="42.538685" lon="1.63270333">
        <ele>2071.0</ele>
        <time>2019-08-04T14:48:17.314Z</time>
      </trkpt>
      <trkpt lat="42.538685" lon="1.63270333">
        <ele>2071.0</ele>
        <time>2019-08-04T14:48:18.301Z</time>
      </trkpt>
      <trkpt lat="42.53869833" lon="1.63275667">
        <ele>2071.0</ele>
        <time>2019-08-04T14:48:19.307Z</time>
      </trkpt>
      <trkpt lat="42.53869833" lon="1.63275667">
        <ele>2071.0</ele>
        <time>2019-08-04T14:48:20.307Z</time>
      </trkpt>
      <trkpt lat="42.53871167" lon="1.63280833">
        <ele>2072.0</ele>
        <time>2019-08-04T14:48:21.313Z</time>
      </trkpt>
      <trkpt lat="42.53871167" lon="1.63280833">
        <ele>2072.0</ele>
        <time>2019-08-04T14:48:22.301Z</time>
      </trkpt>
      <trkpt lat="42.53872667" lon="1.63285833">
        <ele>2072.0</ele>
        <time>2019-08-04T14:48:23.321Z</time>
      </trkpt>
      <trkpt lat="42.53872667" lon="1.63285833">
        <ele>2072.0</ele>
        <time>2019-08-04T14:48:24.304Z</time>
      </trkpt>
      <trkpt lat="42.53873667" lon="1.63291">
        <ele>2072.0</ele>
        <time>2019-08-04T14:48:25.308Z</time>
      </trkpt>
      <trkpt lat="42.53874333" lon="1.632935">
        <ele>2072.0</ele>
        <time>2019-08-04T14:48:26.307Z</time>
      </trkpt>
      <trkpt lat="42.53874333" lon="1.632935">
        <ele>2072.0</ele>
        <time>2019-08-04T14:48:27.303Z</time>
      </trkpt>
      <trkpt lat="42.53875667" lon="1.63298833">
        <ele>2073.0</ele>
        <time>2019-08-04T14:48:28.319Z</time>
      </trkpt>
      <trkpt lat="42.53875667" lon="1.63298833">
        <ele>2073.0</ele>
        <time>2019-08-04T14:48:29.332Z</time>
      </trkpt>
      <trkpt lat="42.53876833" lon="1.63304167">
        <ele>2073.0</ele>
        <time>2019-08-04T14:48:30.327Z</time>
      </trkpt>
      <trkpt lat="42.53876833" lon="1.63304167">
        <ele>2073.0</ele>
        <time>2019-08-04T14:48:31.335Z</time>
      </trkpt>
      <trkpt lat="42.538785" lon="1.63309167">
        <ele>2073.0</ele>
        <time>2019-08-04T14:48:32.303Z</time>
      </trkpt>
      <trkpt lat="42.53879" lon="1.63311667">
        <ele>2073.0</ele>
        <time>2019-08-04T14:48:33.309Z</time>
      </trkpt>
      <trkpt lat="42.53879" lon="1.63311667">
        <ele>2073.0</ele>
        <time>2019-08-04T14:48:34.315Z</time>
      </trkpt>
      <trkpt lat="42.53880333" lon="1.63316667">
        <ele>2074.0</ele>
        <time>2019-08-04T14:48:35.307Z</time>
      </trkpt>
      <trkpt lat="42.53880333" lon="1.63316667">
        <ele>2074.0</ele>
        <time>2019-08-04T14:48:36.301Z</time>
      </trkpt>
      <trkpt lat="42.53881167" lon="1.63321667">
        <ele>2074.0</ele>
        <time>2019-08-04T14:48:37.331Z</time>
      </trkpt>
      <trkpt lat="42.53881167" lon="1.63321667">
        <ele>2074.0</ele>
        <time>2019-08-04T14:48:38.313Z</time>
      </trkpt>
      <trkpt lat="42.53882833" lon="1.633265">
        <ele>2074.0</ele>
        <time>2019-08-04T14:48:39.309Z</time>
      </trkpt>
      <trkpt lat="42.53882833" lon="1.633265">
        <ele>2074.0</ele>
        <time>2019-08-04T14:48:40.301Z</time>
      </trkpt>
      <trkpt lat="42.53884" lon="1.63331833">
        <ele>2075.0</ele>
        <time>2019-08-04T14:48:41.307Z</time>
      </trkpt>
      <trkpt lat="42.53884" lon="1.63331833">
        <ele>2075.0</ele>
        <time>2019-08-04T14:48:42.301Z</time>
      </trkpt>
      <trkpt lat="42.538845" lon="1.63337333">
        <ele>2075.0</ele>
        <time>2019-08-04T14:48:43.322Z</time>
      </trkpt>
      <trkpt lat="42.538845" lon="1.63337333">
        <ele>2075.0</ele>
        <time>2019-08-04T14:48:44.304Z</time>
      </trkpt>
      <trkpt lat="42.53885333" lon="1.63342833">
        <ele>2076.0</ele>
        <time>2019-08-04T14:48:45.308Z</time>
      </trkpt>
      <trkpt lat="42.53885333" lon="1.63342833">
        <ele>2076.0</ele>
        <time>2019-08-04T14:48:46.296Z</time>
      </trkpt>
      <trkpt lat="42.538855" lon="1.63348167">
        <ele>2076.0</ele>
        <time>2019-08-04T14:48:47.318Z</time>
      </trkpt>
      <trkpt lat="42.538855" lon="1.63348167">
        <ele>2076.0</ele>
        <time>2019-08-04T14:48:48.302Z</time>
      </trkpt>
      <trkpt lat="42.538865" lon="1.633535">
        <ele>2077.0</ele>
        <time>2019-08-04T14:48:49.321Z</time>
      </trkpt>
      <trkpt lat="42.538865" lon="1.633535">
        <ele>2077.0</ele>
        <time>2019-08-04T14:48:50.303Z</time>
      </trkpt>
      <trkpt lat="42.53887167" lon="1.63358667">
        <ele>2077.0</ele>
        <time>2019-08-04T14:48:51.308Z</time>
      </trkpt>
      <trkpt lat="42.53887167" lon="1.63358667">
        <ele>2077.0</ele>
        <time>2019-08-04T14:48:52.301Z</time>
      </trkpt>
      <trkpt lat="42.53887" lon="1.63364">
        <ele>2077.0</ele>
        <time>2019-08-04T14:48:53.307Z</time>
      </trkpt>
      <trkpt lat="42.53887" lon="1.63364">
        <ele>2077.0</ele>
        <time>2019-08-04T14:48:54.301Z</time>
      </trkpt>
      <trkpt lat="42.53887" lon="1.63369333">
        <ele>2078.0</ele>
        <time>2019-08-04T14:48:55.322Z</time>
      </trkpt>
      <trkpt lat="42.53887" lon="1.63369333">
        <ele>2078.0</ele>
        <time>2019-08-04T14:48:56.306Z</time>
      </trkpt>
      <trkpt lat="42.53887167" lon="1.633745">
        <ele>2078.0</ele>
        <time>2019-08-04T14:48:57.324Z</time>
      </trkpt>
      <trkpt lat="42.53887333" lon="1.63377">
        <ele>2079.0</ele>
        <time>2019-08-04T14:48:58.309Z</time>
      </trkpt>
      <trkpt lat="42.53887333" lon="1.63377">
        <ele>2079.0</ele>
        <time>2019-08-04T14:48:59.304Z</time>
      </trkpt>
      <trkpt lat="42.53887333" lon="1.63377">
        <ele>2079.0</ele>
        <time>2019-08-04T14:49:00.478Z</time>
      </trkpt>
      <trkpt lat="42.538875" lon="1.63382">
        <ele>2079.0</ele>
        <time>2019-08-04T14:49:01.302Z</time>
      </trkpt>
      <trkpt lat="42.538875" lon="1.63387">
        <ele>2079.0</ele>
        <time>2019-08-04T14:49:02.306Z</time>
      </trkpt>
      <trkpt lat="42.53887667" lon="1.633895">
        <ele>2079.0</ele>
        <time>2019-08-04T14:49:03.308Z</time>
      </trkpt>
      <trkpt lat="42.53887667" lon="1.633895">
        <ele>2079.0</ele>
        <time>2019-08-04T14:49:04.302Z</time>
      </trkpt>
      <trkpt lat="42.538875" lon="1.63394667">
        <ele>2079.0</ele>
        <time>2019-08-04T14:49:05.325Z</time>
      </trkpt>
      <trkpt lat="42.538875" lon="1.63394667">
        <ele>2079.0</ele>
        <time>2019-08-04T14:49:06.312Z</time>
      </trkpt>
      <trkpt lat="42.53888333" lon="1.63400167">
        <ele>2080.0</ele>
        <time>2019-08-04T14:49:07.308Z</time>
      </trkpt>
      <trkpt lat="42.53888333" lon="1.63400167">
        <ele>2080.0</ele>
        <time>2019-08-04T14:49:08.301Z</time>
      </trkpt>
      <trkpt lat="42.538895" lon="1.634055">
        <ele>2080.0</ele>
        <time>2019-08-04T14:49:09.322Z</time>
      </trkpt>
      <trkpt lat="42.538895" lon="1.634055">
        <ele>2080.0</ele>
        <time>2019-08-04T14:49:10.305Z</time>
      </trkpt>
      <trkpt lat="42.538915" lon="1.63410833">
        <ele>2080.0</ele>
        <time>2019-08-04T14:49:11.307Z</time>
      </trkpt>
      <trkpt lat="42.538915" lon="1.63410833">
        <ele>2080.0</ele>
        <time>2019-08-04T14:49:12.302Z</time>
      </trkpt>
      <trkpt lat="42.53894667" lon="1.63414833">
        <ele>2081.0</ele>
        <time>2019-08-04T14:49:13.308Z</time>
      </trkpt>
      <trkpt lat="42.53894667" lon="1.63414833">
        <ele>2081.0</ele>
        <time>2019-08-04T14:49:14.301Z</time>
      </trkpt>
      <trkpt lat="42.53898833" lon="1.63417167">
        <ele>2081.0</ele>
        <time>2019-08-04T14:49:15.322Z</time>
      </trkpt>
      <trkpt lat="42.53898833" lon="1.63417167">
        <ele>2081.0</ele>
        <time>2019-08-04T14:49:16.304Z</time>
      </trkpt>
      <trkpt lat="42.53903667" lon="1.63417667">
        <ele>2081.0</ele>
        <time>2019-08-04T14:49:17.308Z</time>
      </trkpt>
      <trkpt lat="42.53903667" lon="1.63417667">
        <ele>2081.0</ele>
        <time>2019-08-04T14:49:18.301Z</time>
      </trkpt>
      <trkpt lat="42.53908167" lon="1.63415833">
        <ele>2082.0</ele>
        <time>2019-08-04T14:49:19.322Z</time>
      </trkpt>
      <trkpt lat="42.53908167" lon="1.63415833">
        <ele>2082.0</ele>
        <time>2019-08-04T14:49:20.307Z</time>
      </trkpt>
      <trkpt lat="42.53911" lon="1.63411167">
        <ele>2082.0</ele>
        <time>2019-08-04T14:49:21.308Z</time>
      </trkpt>
      <trkpt lat="42.53911" lon="1.63411167">
        <ele>2082.0</ele>
        <time>2019-08-04T14:49:22.302Z</time>
      </trkpt>
      <trkpt lat="42.539125" lon="1.63404333">
        <ele>2082.0</ele>
        <time>2019-08-04T14:49:23.322Z</time>
      </trkpt>
      <trkpt lat="42.539125" lon="1.63404333">
        <ele>2082.0</ele>
        <time>2019-08-04T14:49:24.306Z</time>
      </trkpt>
      <trkpt lat="42.53913667" lon="1.63397333">
        <ele>2083.0</ele>
        <time>2019-08-04T14:49:25.319Z</time>
      </trkpt>
      <trkpt lat="42.53913667" lon="1.63397333">
        <ele>2083.0</ele>
        <time>2019-08-04T14:49:26.302Z</time>
      </trkpt>
      <trkpt lat="42.53914667" lon="1.63390333">
        <ele>2083.0</ele>
        <time>2019-08-04T14:49:27.323Z</time>
      </trkpt>
      <trkpt lat="42.53914667" lon="1.63390333">
        <ele>2083.0</ele>
        <time>2019-08-04T14:49:28.304Z</time>
      </trkpt>
      <trkpt lat="42.53915" lon="1.63383833">
        <ele>2083.0</ele>
        <time>2019-08-04T14:49:29.326Z</time>
      </trkpt>
      <trkpt lat="42.53915333" lon="1.63380667">
        <ele>2084.0</ele>
        <time>2019-08-04T14:49:30.306Z</time>
      </trkpt>
      <trkpt lat="42.53915833" lon="1.63377167">
        <ele>2084.0</ele>
        <time>2019-08-04T14:49:31.312Z</time>
      </trkpt>
      <trkpt lat="42.53915833" lon="1.63377167">
        <ele>2084.0</ele>
        <time>2019-08-04T14:49:32.318Z</time>
      </trkpt>
      <trkpt lat="42.53917" lon="1.63370167">
        <ele>2084.0</ele>
        <time>2019-08-04T14:49:33.324Z</time>
      </trkpt>
      <trkpt lat="42.53917333" lon="1.63366333">
        <ele>2084.0</ele>
        <time>2019-08-04T14:49:34.307Z</time>
      </trkpt>
      <trkpt lat="42.53917667" lon="1.633625">
        <ele>2084.0</ele>
        <time>2019-08-04T14:49:35.308Z</time>
      </trkpt>
      <trkpt lat="42.53917667" lon="1.633625">
        <ele>2084.0</ele>
        <time>2019-08-04T14:49:36.313Z</time>
      </trkpt>
      <trkpt lat="42.53918333" lon="1.63355">
        <ele>2084.0</ele>
        <time>2019-08-04T14:49:37.319Z</time>
      </trkpt>
      <trkpt lat="42.53918333" lon="1.63355">
        <ele>2084.0</ele>
        <time>2019-08-04T14:49:38.302Z</time>
      </trkpt>
      <trkpt lat="42.53919167" lon="1.63347">
        <ele>2085.0</ele>
        <time>2019-08-04T14:49:39.308Z</time>
      </trkpt>
      <trkpt lat="42.53919167" lon="1.63347">
        <ele>2085.0</ele>
        <time>2019-08-04T14:49:40.304Z</time>
      </trkpt>
      <trkpt lat="42.53920167" lon="1.63339333">
        <ele>2085.0</ele>
        <time>2019-08-04T14:49:41.308Z</time>
      </trkpt>
      <trkpt lat="42.53920167" lon="1.63339333">
        <ele>2085.0</ele>
        <time>2019-08-04T14:49:42.302Z</time>
      </trkpt>
      <trkpt lat="42.53921333" lon="1.63331333">
        <ele>2085.0</ele>
        <time>2019-08-04T14:49:43.322Z</time>
      </trkpt>
      <trkpt lat="42.53921333" lon="1.63331333">
        <ele>2085.0</ele>
        <time>2019-08-04T14:49:44.304Z</time>
      </trkpt>
      <trkpt lat="42.53922833" lon="1.63323">
        <ele>2086.0</ele>
        <time>2019-08-04T14:49:45.308Z</time>
      </trkpt>
      <trkpt lat="42.53922833" lon="1.63323">
        <ele>2086.0</ele>
        <time>2019-08-04T14:49:46.303Z</time>
      </trkpt>
      <trkpt lat="42.53924333" lon="1.63315333">
        <ele>2086.0</ele>
        <time>2019-08-04T14:49:47.305Z</time>
      </trkpt>
      <trkpt lat="42.53924333" lon="1.63315333">
        <ele>2086.0</ele>
        <time>2019-08-04T14:49:48.303Z</time>
      </trkpt>
      <trkpt lat="42.53926167" lon="1.63307667">
        <ele>2086.0</ele>
        <time>2019-08-04T14:49:49.322Z</time>
      </trkpt>
      <trkpt lat="42.53926167" lon="1.63307667">
        <ele>2086.0</ele>
        <time>2019-08-04T14:49:50.304Z</time>
      </trkpt>
      <trkpt lat="42.53928167" lon="1.63299833">
        <ele>2086.0</ele>
        <time>2019-08-04T14:49:51.308Z</time>
      </trkpt>
      <trkpt lat="42.53928167" lon="1.63299833">
        <ele>2086.0</ele>
        <time>2019-08-04T14:49:52.302Z</time>
      </trkpt>
      <trkpt lat="42.5393" lon="1.63292167">
        <ele>2087.0</ele>
        <time>2019-08-04T14:49:53.322Z</time>
      </trkpt>
      <trkpt lat="42.53931" lon="1.63288667">
        <ele>2087.0</ele>
        <time>2019-08-04T14:49:54.308Z</time>
      </trkpt>
      <trkpt lat="42.53931" lon="1.63288667">
        <ele>2087.0</ele>
        <time>2019-08-04T14:49:55.305Z</time>
      </trkpt>
      <trkpt lat="42.53932333" lon="1.63282833">
        <ele>2087.0</ele>
        <time>2019-08-04T14:49:56.308Z</time>
      </trkpt>
      <trkpt lat="42.53933" lon="1.6328">
        <ele>2087.0</ele>
        <time>2019-08-04T14:49:57.314Z</time>
      </trkpt>
      <trkpt lat="42.53933" lon="1.6328">
        <ele>2087.0</ele>
        <time>2019-08-04T14:49:58.302Z</time>
      </trkpt>
      <trkpt lat="42.53935333" lon="1.63274667">
        <ele>2087.0</ele>
        <time>2019-08-04T14:49:59.323Z</time>
      </trkpt>
      <trkpt lat="42.53935333" lon="1.63274667">
        <ele>2087.0</ele>
        <time>2019-08-04T14:50:00.305Z</time>
      </trkpt>
      <trkpt lat="42.539365" lon="1.6327">
        <ele>2087.0</ele>
        <time>2019-08-04T14:50:01.308Z</time>
      </trkpt>
      <trkpt lat="42.539365" lon="1.6327">
        <ele>2087.0</ele>
        <time>2019-08-04T14:50:02.302Z</time>
      </trkpt>
      <trkpt lat="42.53937833" lon="1.63266">
        <ele>2087.0</ele>
        <time>2019-08-04T14:50:03.322Z</time>
      </trkpt>
      <trkpt lat="42.53937833" lon="1.63266">
        <ele>2087.0</ele>
        <time>2019-08-04T14:50:04.304Z</time>
      </trkpt>
      <trkpt lat="42.53939167" lon="1.63262">
        <ele>2087.0</ele>
        <time>2019-08-04T14:50:05.308Z</time>
      </trkpt>
      <trkpt lat="42.53939667" lon="1.63260167">
        <ele>2087.0</ele>
        <time>2019-08-04T14:50:06.308Z</time>
      </trkpt>
      <trkpt lat="42.53939667" lon="1.63260167">
        <ele>2087.0</ele>
        <time>2019-08-04T14:50:07.301Z</time>
      </trkpt>
      <trkpt lat="42.53940333" lon="1.63256333">
        <ele>2087.0</ele>
        <time>2019-08-04T14:50:08.317Z</time>
      </trkpt>
      <trkpt lat="42.53940667" lon="1.63254667">
        <ele>2087.0</ele>
        <time>2019-08-04T14:50:09.309Z</time>
      </trkpt>
      <trkpt lat="42.53940667" lon="1.63254667">
        <ele>2087.0</ele>
        <time>2019-08-04T14:50:10.303Z</time>
      </trkpt>
      <trkpt lat="42.53941167" lon="1.632515">
        <ele>2087.0</ele>
        <time>2019-08-04T14:50:11.308Z</time>
      </trkpt>
      <trkpt lat="42.53941167" lon="1.632515">
        <ele>2087.0</ele>
        <time>2019-08-04T14:50:12.302Z</time>
      </trkpt>
      <trkpt lat="42.53941167" lon="1.632515">
        <ele>2087.0</ele>
        <time>2019-08-04T14:50:13.452Z</time>
      </trkpt>
      <trkpt lat="42.53941833" lon="1.63249167">
        <ele>2088.0</ele>
        <time>2019-08-04T14:50:14.302Z</time>
      </trkpt>
      <trkpt lat="42.53942167" lon="1.63248">
        <ele>2087.0</ele>
        <time>2019-08-04T14:50:15.309Z</time>
      </trkpt>
      <trkpt lat="42.53942167" lon="1.63248">
        <ele>2087.0</ele>
        <time>2019-08-04T14:50:16.302Z</time>
      </trkpt>
      <trkpt lat="42.53942" lon="1.63247833">
        <ele>2087.0</ele>
        <time>2019-08-04T14:50:17.334Z</time>
      </trkpt>
      <trkpt lat="42.53942" lon="1.63247833">
        <ele>2087.0</ele>
        <time>2019-08-04T14:50:18.310Z</time>
      </trkpt>
      <trkpt lat="42.53942" lon="1.63247833">
        <ele>2087.0</ele>
        <time>2019-08-04T14:50:19.302Z</time>
      </trkpt>
      <trkpt lat="42.53942" lon="1.63247833">
        <ele>2087.0</ele>
        <time>2019-08-04T14:50:20.330Z</time>
      </trkpt>
      <trkpt lat="42.53942667" lon="1.63246667">
        <ele>2088.0</ele>
        <time>2019-08-04T14:50:21.318Z</time>
      </trkpt>
      <trkpt lat="42.53942667" lon="1.63246667">
        <ele>2088.0</ele>
        <time>2019-08-04T14:50:22.312Z</time>
      </trkpt>
      <trkpt lat="42.53943333" lon="1.632445">
        <ele>2087.0</ele>
        <time>2019-08-04T14:50:23.297Z</time>
      </trkpt>
      <trkpt lat="42.53943333" lon="1.632445">
        <ele>2087.0</ele>
        <time>2019-08-04T14:50:24.317Z</time>
      </trkpt>
      <trkpt lat="42.539435" lon="1.63243667">
        <ele>2087.0</ele>
        <time>2019-08-04T14:50:25.319Z</time>
      </trkpt>
      <trkpt lat="42.53943667" lon="1.63243167">
        <ele>2087.0</ele>
        <time>2019-08-04T14:50:26.318Z</time>
      </trkpt>
      <trkpt lat="42.53943667" lon="1.63243167">
        <ele>2087.0</ele>
        <time>2019-08-04T14:50:27.310Z</time>
      </trkpt>
      <trkpt lat="42.53943833" lon="1.63241333">
        <ele>2087.0</ele>
        <time>2019-08-04T14:50:28.331Z</time>
      </trkpt>
      <trkpt lat="42.53943833" lon="1.63241333">
        <ele>2087.0</ele>
        <time>2019-08-04T14:50:29.329Z</time>
      </trkpt>
      <trkpt lat="42.53944167" lon="1.632395">
        <ele>2087.0</ele>
        <time>2019-08-04T14:50:30.330Z</time>
      </trkpt>
      <trkpt lat="42.539445" lon="1.632385">
        <ele>2087.0</ele>
        <time>2019-08-04T14:50:31.296Z</time>
      </trkpt>
      <trkpt lat="42.53944833" lon="1.63237333">
        <ele>2087.0</ele>
        <time>2019-08-04T14:50:32.308Z</time>
      </trkpt>
      <trkpt lat="42.53944833" lon="1.63237333">
        <ele>2087.0</ele>
        <time>2019-08-04T14:50:33.314Z</time>
      </trkpt>
      <trkpt lat="42.53945833" lon="1.63234833">
        <ele>2087.0</ele>
        <time>2019-08-04T14:50:34.320Z</time>
      </trkpt>
      <trkpt lat="42.53946333" lon="1.63233333">
        <ele>2087.0</ele>
        <time>2019-08-04T14:50:35.324Z</time>
      </trkpt>
      <trkpt lat="42.53946333" lon="1.63233333">
        <ele>2087.0</ele>
        <time>2019-08-04T14:50:36.313Z</time>
      </trkpt>
      <trkpt lat="42.53947167" lon="1.632305">
        <ele>2087.0</ele>
        <time>2019-08-04T14:50:37.332Z</time>
      </trkpt>
      <trkpt lat="42.53947667" lon="1.63229">
        <ele>2087.0</ele>
        <time>2019-08-04T14:50:38.318Z</time>
      </trkpt>
      <trkpt lat="42.53947667" lon="1.63229">
        <ele>2087.0</ele>
        <time>2019-08-04T14:50:39.313Z</time>
      </trkpt>
      <trkpt lat="42.53948833" lon="1.632255">
        <ele>2087.0</ele>
        <time>2019-08-04T14:50:40.334Z</time>
      </trkpt>
      <trkpt lat="42.539495" lon="1.632235">
        <ele>2087.0</ele>
        <time>2019-08-04T14:50:41.319Z</time>
      </trkpt>
      <trkpt lat="42.539495" lon="1.632235">
        <ele>2087.0</ele>
        <time>2019-08-04T14:50:42.313Z</time>
      </trkpt>
      <trkpt lat="42.53951333" lon="1.63219667">
        <ele>2087.0</ele>
        <time>2019-08-04T14:50:43.298Z</time>
      </trkpt>
      <trkpt lat="42.53951333" lon="1.63219667">
        <ele>2087.0</ele>
        <time>2019-08-04T14:50:44.318Z</time>
      </trkpt>
      <trkpt lat="42.539525" lon="1.63215333">
        <ele>2087.0</ele>
        <time>2019-08-04T14:50:45.319Z</time>
      </trkpt>
      <trkpt lat="42.53952833" lon="1.63212667">
        <ele>2087.0</ele>
        <time>2019-08-04T14:50:46.319Z</time>
      </trkpt>
      <trkpt lat="42.539535" lon="1.63210167">
        <ele>2086.0</ele>
        <time>2019-08-04T14:50:47.319Z</time>
      </trkpt>
      <trkpt lat="42.539535" lon="1.63210167">
        <ele>2086.0</ele>
        <time>2019-08-04T14:50:48.312Z</time>
      </trkpt>
      <trkpt lat="42.53955" lon="1.63204667">
        <ele>2086.0</ele>
        <time>2019-08-04T14:50:49.297Z</time>
      </trkpt>
      <trkpt lat="42.53955667" lon="1.63201667">
        <ele>2086.0</ele>
        <time>2019-08-04T14:50:50.319Z</time>
      </trkpt>
      <trkpt lat="42.53955667" lon="1.63201667">
        <ele>2086.0</ele>
        <time>2019-08-04T14:50:51.313Z</time>
      </trkpt>
      <trkpt lat="42.53956333" lon="1.63195">
        <ele>2086.0</ele>
        <time>2019-08-04T14:50:52.318Z</time>
      </trkpt>
      <trkpt lat="42.53956667" lon="1.63191667">
        <ele>2085.0</ele>
        <time>2019-08-04T14:50:53.300Z</time>
      </trkpt>
      <trkpt lat="42.53956667" lon="1.63191667">
        <ele>2085.0</ele>
        <time>2019-08-04T14:50:54.319Z</time>
      </trkpt>
      <trkpt lat="42.53958333" lon="1.63185333">
        <ele>2085.0</ele>
        <time>2019-08-04T14:50:55.318Z</time>
      </trkpt>
      <trkpt lat="42.53958333" lon="1.63185333">
        <ele>2085.0</ele>
        <time>2019-08-04T14:50:56.316Z</time>
      </trkpt>
      <trkpt lat="42.539595" lon="1.63179">
        <ele>2085.0</ele>
        <time>2019-08-04T14:50:57.328Z</time>
      </trkpt>
      <trkpt lat="42.53959833" lon="1.63176167">
        <ele>2085.0</ele>
        <time>2019-08-04T14:50:58.321Z</time>
      </trkpt>
      <trkpt lat="42.53959833" lon="1.63176167">
        <ele>2085.0</ele>
        <time>2019-08-04T14:50:59.318Z</time>
      </trkpt>
      <trkpt lat="42.53960833" lon="1.63170833">
        <ele>2085.0</ele>
        <time>2019-08-04T14:51:00.318Z</time>
      </trkpt>
      <trkpt lat="42.53961333" lon="1.63168167">
        <ele>2084.0</ele>
        <time>2019-08-04T14:51:01.318Z</time>
      </trkpt>
      <trkpt lat="42.53961333" lon="1.63168167">
        <ele>2084.0</ele>
        <time>2019-08-04T14:51:02.313Z</time>
      </trkpt>
      <trkpt lat="42.539615" lon="1.63163167">
        <ele>2084.0</ele>
        <time>2019-08-04T14:51:03.332Z</time>
      </trkpt>
      <trkpt lat="42.539615" lon="1.63163167">
        <ele>2084.0</ele>
        <time>2019-08-04T14:51:04.314Z</time>
      </trkpt>
      <trkpt lat="42.53962" lon="1.63159">
        <ele>2084.0</ele>
        <time>2019-08-04T14:51:05.297Z</time>
      </trkpt>
      <trkpt lat="42.53962" lon="1.63157167">
        <ele>2084.0</ele>
        <time>2019-08-04T14:51:06.319Z</time>
      </trkpt>
      <trkpt lat="42.53962" lon="1.63155333">
        <ele>2083.0</ele>
        <time>2019-08-04T14:51:07.319Z</time>
      </trkpt>
      <trkpt lat="42.53962" lon="1.63155333">
        <ele>2083.0</ele>
        <time>2019-08-04T14:51:08.312Z</time>
      </trkpt>
      <trkpt lat="42.53962333" lon="1.631505">
        <ele>2083.0</ele>
        <time>2019-08-04T14:51:09.332Z</time>
      </trkpt>
      <trkpt lat="42.53962333" lon="1.631505">
        <ele>2083.0</ele>
        <time>2019-08-04T14:51:10.321Z</time>
      </trkpt>
      <trkpt lat="42.53962167" lon="1.63146167">
        <ele>2083.0</ele>
        <time>2019-08-04T14:51:11.320Z</time>
      </trkpt>
      <trkpt lat="42.53962167" lon="1.63146167">
        <ele>2083.0</ele>
        <time>2019-08-04T14:51:12.312Z</time>
      </trkpt>
      <trkpt lat="42.539625" lon="1.63144667">
        <ele>2083.0</ele>
        <time>2019-08-04T14:51:13.332Z</time>
      </trkpt>
      <trkpt lat="42.53963" lon="1.63134667">
        <ele>2081.0</ele>
        <time>2019-08-04T14:51:14.328Z</time>
      </trkpt>
      <trkpt lat="42.53963" lon="1.63134667">
        <ele>2081.0</ele>
        <time>2019-08-04T14:51:15.324Z</time>
      </trkpt>
      <trkpt lat="42.539635" lon="1.63133333">
        <ele>2081.0</ele>
        <time>2019-08-04T14:51:16.329Z</time>
      </trkpt>
      <trkpt lat="42.53963667" lon="1.63132667">
        <ele>2081.0</ele>
        <time>2019-08-04T14:51:17.328Z</time>
      </trkpt>
      <trkpt lat="42.53963667" lon="1.63132667">
        <ele>2081.0</ele>
        <time>2019-08-04T14:51:18.303Z</time>
      </trkpt>
      <trkpt lat="42.53964167" lon="1.63131">
        <ele>2081.0</ele>
        <time>2019-08-04T14:51:19.329Z</time>
      </trkpt>
      <trkpt lat="42.53964167" lon="1.63131">
        <ele>2081.0</ele>
        <time>2019-08-04T14:51:20.326Z</time>
      </trkpt>
      <trkpt lat="42.53963833" lon="1.63129333">
        <ele>2081.0</ele>
        <time>2019-08-04T14:51:21.302Z</time>
      </trkpt>
      <trkpt lat="42.53963833" lon="1.63129333">
        <ele>2081.0</ele>
        <time>2019-08-04T14:51:22.326Z</time>
      </trkpt>
      <trkpt lat="42.53963167" lon="1.63127667">
        <ele>2081.0</ele>
        <time>2019-08-04T14:51:23.329Z</time>
      </trkpt>
      <trkpt lat="42.53963167" lon="1.63126833">
        <ele>2082.0</ele>
        <time>2019-08-04T14:51:24.328Z</time>
      </trkpt>
      <trkpt lat="42.53963167" lon="1.63126833">
        <ele>2082.0</ele>
        <time>2019-08-04T14:51:25.330Z</time>
      </trkpt>
      <trkpt lat="42.53963" lon="1.63125667">
        <ele>2082.0</ele>
        <time>2019-08-04T14:51:26.328Z</time>
      </trkpt>
      <trkpt lat="42.53963" lon="1.63124833">
        <ele>2082.0</ele>
        <time>2019-08-04T14:51:27.329Z</time>
      </trkpt>
      <trkpt lat="42.53963" lon="1.63124833">
        <ele>2082.0</ele>
        <time>2019-08-04T14:51:28.306Z</time>
      </trkpt>
      <trkpt lat="42.539625" lon="1.63123833">
        <ele>2082.0</ele>
        <time>2019-08-04T14:51:29.304Z</time>
      </trkpt>
      <trkpt lat="42.53962333" lon="1.63123167">
        <ele>2082.0</ele>
        <time>2019-08-04T14:51:30.327Z</time>
      </trkpt>
      <trkpt lat="42.53962167" lon="1.631225">
        <ele>2082.0</ele>
        <time>2019-08-04T14:51:31.333Z</time>
      </trkpt>
      <trkpt lat="42.53962167" lon="1.631225">
        <ele>2082.0</ele>
        <time>2019-08-04T14:51:32.300Z</time>
      </trkpt>
      <trkpt lat="42.53961667" lon="1.631215">
        <ele>2082.0</ele>
        <time>2019-08-04T14:51:33.306Z</time>
      </trkpt>
      <trkpt lat="42.53961667" lon="1.631215">
        <ele>2082.0</ele>
        <time>2019-08-04T14:51:34.313Z</time>
      </trkpt>
      <trkpt lat="42.53961167" lon="1.63119333">
        <ele>2082.0</ele>
        <time>2019-08-04T14:51:35.298Z</time>
      </trkpt>
      <trkpt lat="42.539615" lon="1.63118167">
        <ele>2082.0</ele>
        <time>2019-08-04T14:51:36.329Z</time>
      </trkpt>
      <trkpt lat="42.539615" lon="1.63118167">
        <ele>2082.0</ele>
        <time>2019-08-04T14:51:37.324Z</time>
      </trkpt>
      <trkpt lat="42.53961333" lon="1.63115667">
        <ele>2082.0</ele>
        <time>2019-08-04T14:51:38.346Z</time>
      </trkpt>
      <trkpt lat="42.53961" lon="1.63114167">
        <ele>2082.0</ele>
        <time>2019-08-04T14:51:39.296Z</time>
      </trkpt>
      <trkpt lat="42.53961" lon="1.63114167">
        <ele>2082.0</ele>
        <time>2019-08-04T14:51:40.324Z</time>
      </trkpt>
      <trkpt lat="42.53961" lon="1.63111667">
        <ele>2082.0</ele>
        <time>2019-08-04T14:51:41.329Z</time>
      </trkpt>
      <trkpt lat="42.53961" lon="1.63111667">
        <ele>2082.0</ele>
        <time>2019-08-04T14:51:42.326Z</time>
      </trkpt>
      <trkpt lat="42.539615" lon="1.631095">
        <ele>2082.0</ele>
        <time>2019-08-04T14:51:43.329Z</time>
      </trkpt>
      <trkpt lat="42.539615" lon="1.631095">
        <ele>2082.0</ele>
        <time>2019-08-04T14:51:44.323Z</time>
      </trkpt>
      <trkpt lat="42.53961833" lon="1.63107333">
        <ele>2082.0</ele>
        <time>2019-08-04T14:51:45.304Z</time>
      </trkpt>
      <trkpt lat="42.53961833" lon="1.63107333">
        <ele>2082.0</ele>
        <time>2019-08-04T14:51:46.326Z</time>
      </trkpt>
      <trkpt lat="42.53962167" lon="1.63104833">
        <ele>2082.0</ele>
        <time>2019-08-04T14:51:47.328Z</time>
      </trkpt>
      <trkpt lat="42.53962333" lon="1.631035">
        <ele>2082.0</ele>
        <time>2019-08-04T14:51:48.333Z</time>
      </trkpt>
      <trkpt lat="42.53962333" lon="1.631035">
        <ele>2082.0</ele>
        <time>2019-08-04T14:51:49.297Z</time>
      </trkpt>
      <trkpt lat="42.539625" lon="1.63100167">
        <ele>2083.0</ele>
        <time>2019-08-04T14:51:50.330Z</time>
      </trkpt>
      <trkpt lat="42.539625" lon="1.63100167">
        <ele>2083.0</ele>
        <time>2019-08-04T14:51:51.305Z</time>
      </trkpt>
      <trkpt lat="42.53962" lon="1.63097333">
        <ele>2083.0</ele>
        <time>2019-08-04T14:51:52.329Z</time>
      </trkpt>
      <trkpt lat="42.53961667" lon="1.63095833">
        <ele>2083.0</ele>
        <time>2019-08-04T14:51:53.329Z</time>
      </trkpt>
      <trkpt lat="42.53961667" lon="1.63095833">
        <ele>2083.0</ele>
        <time>2019-08-04T14:51:54.321Z</time>
      </trkpt>
      <trkpt lat="42.53961167" lon="1.630935">
        <ele>2084.0</ele>
        <time>2019-08-04T14:51:55.303Z</time>
      </trkpt>
      <trkpt lat="42.53961167" lon="1.630935">
        <ele>2084.0</ele>
        <time>2019-08-04T14:51:56.326Z</time>
      </trkpt>
      <trkpt lat="42.53959833" lon="1.63091333">
        <ele>2084.0</ele>
        <time>2019-08-04T14:51:57.305Z</time>
      </trkpt>
      <trkpt lat="42.53959833" lon="1.63091333">
        <ele>2084.0</ele>
        <time>2019-08-04T14:51:58.324Z</time>
      </trkpt>
      <trkpt lat="42.539595" lon="1.63088333">
        <ele>2084.0</ele>
        <time>2019-08-04T14:51:59.329Z</time>
      </trkpt>
      <trkpt lat="42.539595" lon="1.63088333">
        <ele>2084.0</ele>
        <time>2019-08-04T14:52:00.324Z</time>
      </trkpt>
      <trkpt lat="42.53960333" lon="1.63086167">
        <ele>2084.0</ele>
        <time>2019-08-04T14:52:01.304Z</time>
      </trkpt>
      <trkpt lat="42.53960333" lon="1.63086167">
        <ele>2084.0</ele>
        <time>2019-08-04T14:52:02.326Z</time>
      </trkpt>
      <trkpt lat="42.53960333" lon="1.63085">
        <ele>2085.0</ele>
        <time>2019-08-04T14:52:03.331Z</time>
      </trkpt>
      <trkpt lat="42.53960333" lon="1.63085">
        <ele>2085.0</ele>
        <time>2019-08-04T14:52:04.321Z</time>
      </trkpt>
      <trkpt lat="42.53961333" lon="1.63085167">
        <ele>2085.0</ele>
        <time>2019-08-04T14:52:05.304Z</time>
      </trkpt>
      <trkpt lat="42.53961333" lon="1.63085167">
        <ele>2085.0</ele>
        <time>2019-08-04T14:52:06.333Z</time>
      </trkpt>
      <trkpt lat="42.53961833" lon="1.63085">
        <ele>2085.0</ele>
        <time>2019-08-04T14:52:07.328Z</time>
      </trkpt>
      <trkpt lat="42.53961833" lon="1.63085">
        <ele>2085.0</ele>
        <time>2019-08-04T14:52:08.304Z</time>
      </trkpt>
      <trkpt lat="42.53961833" lon="1.63085">
        <ele>2085.0</ele>
        <time>2019-08-04T14:52:09.307Z</time>
      </trkpt>
      <trkpt lat="42.53961833" lon="1.63085">
        <ele>2085.0</ele>
        <time>2019-08-04T14:52:10.322Z</time>
      </trkpt>
      <trkpt lat="42.53964333" lon="1.63097">
        <ele>2082.0</ele>
        <time>2019-08-04T14:52:11.334Z</time>
      </trkpt>
      <trkpt lat="42.53964333" lon="1.63097">
        <ele>2082.0</ele>
        <time>2019-08-04T14:52:12.321Z</time>
      </trkpt>
      <trkpt lat="42.53964333" lon="1.63097">
        <ele>2082.0</ele>
        <time>2019-08-04T14:52:13.321Z</time>
      </trkpt>
      <trkpt lat="42.53964333" lon="1.63097">
        <ele>2082.0</ele>
        <time>2019-08-04T14:52:14.296Z</time>
      </trkpt>
      <trkpt lat="42.53964333" lon="1.63097">
        <ele>2082.0</ele>
        <time>2019-08-04T14:52:15.310Z</time>
      </trkpt>
      <trkpt lat="42.53964333" lon="1.63097">
        <ele>2082.0</ele>
        <time>2019-08-04T14:52:16.321Z</time>
      </trkpt>
      <trkpt lat="42.53964333" lon="1.63097">
        <ele>2082.0</ele>
        <time>2019-08-04T14:52:17.306Z</time>
      </trkpt>
      <trkpt lat="42.53964333" lon="1.63097">
        <ele>2082.0</ele>
        <time>2019-08-04T14:52:18.324Z</time>
      </trkpt>
      <trkpt lat="42.53964333" lon="1.63097">
        <ele>2082.0</ele>
        <time>2019-08-04T14:52:19.303Z</time>
      </trkpt>
      <trkpt lat="42.53964333" lon="1.63097">
        <ele>2082.0</ele>
        <time>2019-08-04T14:52:20.333Z</time>
      </trkpt>
      <trkpt lat="42.53964333" lon="1.63097">
        <ele>2082.0</ele>
        <time>2019-08-04T14:52:21.306Z</time>
      </trkpt>
      <trkpt lat="42.53964333" lon="1.63097">
        <ele>2082.0</ele>
        <time>2019-08-04T14:52:22.301Z</time>
      </trkpt>
      <trkpt lat="42.53964333" lon="1.63097">
        <ele>2082.0</ele>
        <time>2019-08-04T14:52:23.323Z</time>
      </trkpt>
      <trkpt lat="42.53964333" lon="1.63097">
        <ele>2082.0</ele>
        <time>2019-08-04T14:52:24.332Z</time>
      </trkpt>
      <trkpt lat="42.53964333" lon="1.63097">
        <ele>2082.0</ele>
        <time>2019-08-04T14:52:25.300Z</time>
      </trkpt>
      <trkpt lat="42.53964333" lon="1.63097">
        <ele>2082.0</ele>
        <time>2019-08-04T14:52:26.328Z</time>
      </trkpt>
      <trkpt lat="42.53964333" lon="1.63097">
        <ele>2082.0</ele>
        <time>2019-08-04T14:52:27.297Z</time>
      </trkpt>
      <trkpt lat="42.53964333" lon="1.63097">
        <ele>2082.0</ele>
        <time>2019-08-04T14:52:28.309Z</time>
      </trkpt>
      <trkpt lat="42.53964333" lon="1.63097">
        <ele>2082.0</ele>
        <time>2019-08-04T14:52:29.302Z</time>
      </trkpt>
      <trkpt lat="42.53964333" lon="1.63097">
        <ele>2082.0</ele>
        <time>2019-08-04T14:52:30.305Z</time>
      </trkpt>
      <trkpt lat="42.53964333" lon="1.63097">
        <ele>2082.0</ele>
        <time>2019-08-04T14:52:31.312Z</time>
      </trkpt>
      <trkpt lat="42.53964333" lon="1.63097">
        <ele>2082.0</ele>
        <time>2019-08-04T14:52:32.320Z</time>
      </trkpt>
      <trkpt lat="42.53964333" lon="1.63097">
        <ele>2082.0</ele>
        <time>2019-08-04T14:52:33.329Z</time>
      </trkpt>
      <trkpt lat="42.53964333" lon="1.63097">
        <ele>2082.0</ele>
        <time>2019-08-04T14:52:34.296Z</time>
      </trkpt>
      <trkpt lat="42.53964333" lon="1.63097">
        <ele>2082.0</ele>
        <time>2019-08-04T14:52:35.323Z</time>
      </trkpt>
      <trkpt lat="42.53964333" lon="1.63097">
        <ele>2082.0</ele>
        <time>2019-08-04T14:52:36.325Z</time>
      </trkpt>
      <trkpt lat="42.53964333" lon="1.63097">
        <ele>2082.0</ele>
        <time>2019-08-04T14:52:37.326Z</time>
      </trkpt>
      <trkpt lat="42.53964333" lon="1.63097">
        <ele>2082.0</ele>
        <time>2019-08-04T14:52:38.319Z</time>
      </trkpt>
      <trkpt lat="42.53964333" lon="1.63097">
        <ele>2082.0</ele>
        <time>2019-08-04T14:52:39.327Z</time>
      </trkpt>
      <trkpt lat="42.53964333" lon="1.63097">
        <ele>2082.0</ele>
        <time>2019-08-04T14:52:40.317Z</time>
      </trkpt>
      <trkpt lat="42.53964333" lon="1.63097">
        <ele>2082.0</ele>
        <time>2019-08-04T14:52:41.301Z</time>
      </trkpt>
      <trkpt lat="42.53964333" lon="1.63097">
        <ele>2082.0</ele>
        <time>2019-08-04T14:52:42.334Z</time>
      </trkpt>
      <trkpt lat="42.53964333" lon="1.63097">
        <ele>2082.0</ele>
        <time>2019-08-04T14:52:43.327Z</time>
      </trkpt>
      <trkpt lat="42.53964333" lon="1.63097">
        <ele>2082.0</ele>
        <time>2019-08-04T14:52:44.317Z</time>
      </trkpt>
      <trkpt lat="42.53954667" lon="1.631">
        <ele>2081.0</ele>
        <time>2019-08-04T14:52:45.301Z</time>
      </trkpt>
      <trkpt lat="42.53954667" lon="1.631">
        <ele>2081.0</ele>
        <time>2019-08-04T14:52:46.312Z</time>
      </trkpt>
      <trkpt lat="42.539545" lon="1.63100833">
        <ele>2081.0</ele>
        <time>2019-08-04T14:52:47.335Z</time>
      </trkpt>
      <trkpt lat="42.539545" lon="1.63100833">
        <ele>2081.0</ele>
        <time>2019-08-04T14:52:48.328Z</time>
      </trkpt>
      <trkpt lat="42.539545" lon="1.63101">
        <ele>2081.0</ele>
        <time>2019-08-04T14:52:49.332Z</time>
      </trkpt>
      <trkpt lat="42.539545" lon="1.63101">
        <ele>2081.0</ele>
        <time>2019-08-04T14:52:50.319Z</time>
      </trkpt>
      <trkpt lat="42.539545" lon="1.63101">
        <ele>2081.0</ele>
        <time>2019-08-04T14:52:51.323Z</time>
      </trkpt>
      <trkpt lat="42.539545" lon="1.63101">
        <ele>2081.0</ele>
        <time>2019-08-04T14:52:52.328Z</time>
      </trkpt>
      <trkpt lat="42.539545" lon="1.63101">
        <ele>2081.0</ele>
        <time>2019-08-04T14:52:53.321Z</time>
      </trkpt>
      <trkpt lat="42.539545" lon="1.63101">
        <ele>2081.0</ele>
        <time>2019-08-04T14:52:54.305Z</time>
      </trkpt>
      <trkpt lat="42.539545" lon="1.63101">
        <ele>2081.0</ele>
        <time>2019-08-04T14:52:55.330Z</time>
      </trkpt>
      <trkpt lat="42.539545" lon="1.63101">
        <ele>2081.0</ele>
        <time>2019-08-04T14:52:56.325Z</time>
      </trkpt>
      <trkpt lat="42.539545" lon="1.63101">
        <ele>2081.0</ele>
        <time>2019-08-04T14:52:57.327Z</time>
      </trkpt>
      <trkpt lat="42.539545" lon="1.63101">
        <ele>2081.0</ele>
        <time>2019-08-04T14:52:58.325Z</time>
      </trkpt>
      <trkpt lat="42.539545" lon="1.63101">
        <ele>2081.0</ele>
        <time>2019-08-04T14:52:59.318Z</time>
      </trkpt>
      <trkpt lat="42.539545" lon="1.63101">
        <ele>2081.0</ele>
        <time>2019-08-04T14:53:00.325Z</time>
      </trkpt>
      <trkpt lat="42.539545" lon="1.63101">
        <ele>2081.0</ele>
        <time>2019-08-04T14:53:01.332Z</time>
      </trkpt>
      <trkpt lat="42.539545" lon="1.63101">
        <ele>2081.0</ele>
        <time>2019-08-04T14:53:02.302Z</time>
      </trkpt>
      <trkpt lat="42.539545" lon="1.63101">
        <ele>2081.0</ele>
        <time>2019-08-04T14:53:03.332Z</time>
      </trkpt>
      <trkpt lat="42.539545" lon="1.63101">
        <ele>2081.0</ele>
        <time>2019-08-04T14:53:04.300Z</time>
      </trkpt>
      <trkpt lat="42.539545" lon="1.63101">
        <ele>2081.0</ele>
        <time>2019-08-04T14:53:05.308Z</time>
      </trkpt>
      <trkpt lat="42.539545" lon="1.63101">
        <ele>2081.0</ele>
        <time>2019-08-04T14:53:06.318Z</time>
      </trkpt>
      <trkpt lat="42.539545" lon="1.63101">
        <ele>2081.0</ele>
        <time>2019-08-04T14:53:07.328Z</time>
      </trkpt>
      <trkpt lat="42.539545" lon="1.63101">
        <ele>2081.0</ele>
        <time>2019-08-04T14:53:08.319Z</time>
      </trkpt>
      <trkpt lat="42.539545" lon="1.63101">
        <ele>2081.0</ele>
        <time>2019-08-04T14:53:09.327Z</time>
      </trkpt>
      <trkpt lat="42.539545" lon="1.63101">
        <ele>2081.0</ele>
        <time>2019-08-04T14:53:10.296Z</time>
      </trkpt>
      <trkpt lat="42.539545" lon="1.63101">
        <ele>2081.0</ele>
        <time>2019-08-04T14:53:11.305Z</time>
      </trkpt>
      <trkpt lat="42.539545" lon="1.63101">
        <ele>2081.0</ele>
        <time>2019-08-04T14:53:12.312Z</time>
      </trkpt>
      <trkpt lat="42.539545" lon="1.63101">
        <ele>2081.0</ele>
        <time>2019-08-04T14:53:13.320Z</time>
      </trkpt>
      <trkpt lat="42.539545" lon="1.63101">
        <ele>2081.0</ele>
        <time>2019-08-04T14:53:14.328Z</time>
      </trkpt>
      <trkpt lat="42.539545" lon="1.63101">
        <ele>2081.0</ele>
        <time>2019-08-04T14:53:15.335Z</time>
      </trkpt>
      <trkpt lat="42.539545" lon="1.63101">
        <ele>2081.0</ele>
        <time>2019-08-04T14:53:16.308Z</time>
      </trkpt>
      <trkpt lat="42.539545" lon="1.63101">
        <ele>2081.0</ele>
        <time>2019-08-04T14:53:17.316Z</time>
      </trkpt>
      <trkpt lat="42.539545" lon="1.63101">
        <ele>2081.0</ele>
        <time>2019-08-04T14:53:18.325Z</time>
      </trkpt>
      <trkpt lat="42.539545" lon="1.63101">
        <ele>2081.0</ele>
        <time>2019-08-04T14:53:19.322Z</time>
      </trkpt>
      <trkpt lat="42.539545" lon="1.63101">
        <ele>2081.0</ele>
        <time>2019-08-04T14:53:20.305Z</time>
      </trkpt>
      <trkpt lat="42.539545" lon="1.63101">
        <ele>2081.0</ele>
        <time>2019-08-04T14:53:21.305Z</time>
      </trkpt>
      <trkpt lat="42.539545" lon="1.63101">
        <ele>2081.0</ele>
        <time>2019-08-04T14:53:22.332Z</time>
      </trkpt>
      <trkpt lat="42.539545" lon="1.63101">
        <ele>2081.0</ele>
        <time>2019-08-04T14:53:23.325Z</time>
      </trkpt>
      <trkpt lat="42.539545" lon="1.63101">
        <ele>2081.0</ele>
        <time>2019-08-04T14:53:24.315Z</time>
      </trkpt>
      <trkpt lat="42.539545" lon="1.63101">
        <ele>2081.0</ele>
        <time>2019-08-04T14:53:25.322Z</time>
      </trkpt>
      <trkpt lat="42.539545" lon="1.63101">
        <ele>2081.0</ele>
        <time>2019-08-04T14:53:26.321Z</time>
      </trkpt>
      <trkpt lat="42.539545" lon="1.63101">
        <ele>2081.0</ele>
        <time>2019-08-04T14:53:27.327Z</time>
      </trkpt>
      <trkpt lat="42.539545" lon="1.63101">
        <ele>2081.0</ele>
        <time>2019-08-04T14:53:28.316Z</time>
      </trkpt>
      <trkpt lat="42.539545" lon="1.63101">
        <ele>2081.0</ele>
        <time>2019-08-04T14:53:29.302Z</time>
      </trkpt>
      <trkpt lat="42.539545" lon="1.63101">
        <ele>2081.0</ele>
        <time>2019-08-04T14:53:30.335Z</time>
      </trkpt>
      <trkpt lat="42.539545" lon="1.63101">
        <ele>2081.0</ele>
        <time>2019-08-04T14:53:31.311Z</time>
      </trkpt>
      <trkpt lat="42.539545" lon="1.63101">
        <ele>2081.0</ele>
        <time>2019-08-04T14:53:32.320Z</time>
      </trkpt>
      <trkpt lat="42.539545" lon="1.63101">
        <ele>2081.0</ele>
        <time>2019-08-04T14:53:33.327Z</time>
      </trkpt>
      <trkpt lat="42.539545" lon="1.63101">
        <ele>2081.0</ele>
        <time>2019-08-04T14:53:34.335Z</time>
      </trkpt>
      <trkpt lat="42.539545" lon="1.63101">
        <ele>2081.0</ele>
        <time>2019-08-04T14:53:35.303Z</time>
      </trkpt>
      <trkpt lat="42.539545" lon="1.63101">
        <ele>2081.0</ele>
        <time>2019-08-04T14:53:36.317Z</time>
      </trkpt>
      <trkpt lat="42.539545" lon="1.63101">
        <ele>2081.0</ele>
        <time>2019-08-04T14:53:37.335Z</time>
      </trkpt>
      <trkpt lat="42.539545" lon="1.63101">
        <ele>2081.0</ele>
        <time>2019-08-04T14:53:38.320Z</time>
      </trkpt>
      <trkpt lat="42.539545" lon="1.63101">
        <ele>2081.0</ele>
        <time>2019-08-04T14:53:39.324Z</time>
      </trkpt>
      <trkpt lat="42.539545" lon="1.63101">
        <ele>2081.0</ele>
        <time>2019-08-04T14:53:40.321Z</time>
      </trkpt>
      <trkpt lat="42.539545" lon="1.63101">
        <ele>2081.0</ele>
        <time>2019-08-04T14:53:41.311Z</time>
      </trkpt>
      <trkpt lat="42.539545" lon="1.63101">
        <ele>2081.0</ele>
        <time>2019-08-04T14:53:42.304Z</time>
      </trkpt>
      <trkpt lat="42.539545" lon="1.63101">
        <ele>2081.0</ele>
        <time>2019-08-04T14:53:43.325Z</time>
      </trkpt>
      <trkpt lat="42.539545" lon="1.63101">
        <ele>2081.0</ele>
        <time>2019-08-04T14:53:44.325Z</time>
      </trkpt>
      <trkpt lat="42.539545" lon="1.63101">
        <ele>2081.0</ele>
        <time>2019-08-04T14:53:45.320Z</time>
      </trkpt>
      <trkpt lat="42.539545" lon="1.63101">
        <ele>2081.0</ele>
        <time>2019-08-04T14:53:46.324Z</time>
      </trkpt>
      <trkpt lat="42.539545" lon="1.63101">
        <ele>2081.0</ele>
        <time>2019-08-04T14:53:47.325Z</time>
      </trkpt>
      <trkpt lat="42.539545" lon="1.63101">
        <ele>2081.0</ele>
        <time>2019-08-04T14:53:48.313Z</time>
      </trkpt>
      <trkpt lat="42.539545" lon="1.63101">
        <ele>2081.0</ele>
        <time>2019-08-04T14:53:49.312Z</time>
      </trkpt>
      <trkpt lat="42.539545" lon="1.63101">
        <ele>2081.0</ele>
        <time>2019-08-04T14:53:50.321Z</time>
      </trkpt>
      <trkpt lat="42.539545" lon="1.63101">
        <ele>2081.0</ele>
        <time>2019-08-04T14:53:51.329Z</time>
      </trkpt>
      <trkpt lat="42.539545" lon="1.63101">
        <ele>2081.0</ele>
        <time>2019-08-04T14:53:52.299Z</time>
      </trkpt>
      <trkpt lat="42.539545" lon="1.63101">
        <ele>2081.0</ele>
        <time>2019-08-04T14:53:53.296Z</time>
      </trkpt>
      <trkpt lat="42.539545" lon="1.63101">
        <ele>2081.0</ele>
        <time>2019-08-04T14:53:54.323Z</time>
      </trkpt>
      <trkpt lat="42.539545" lon="1.63101">
        <ele>2081.0</ele>
        <time>2019-08-04T14:53:55.322Z</time>
      </trkpt>
      <trkpt lat="42.539545" lon="1.63101">
        <ele>2081.0</ele>
        <time>2019-08-04T14:53:56.323Z</time>
      </trkpt>
      <trkpt lat="42.539545" lon="1.63101">
        <ele>2081.0</ele>
        <time>2019-08-04T14:53:57.321Z</time>
      </trkpt>
      <trkpt lat="42.539545" lon="1.63101">
        <ele>2081.0</ele>
        <time>2019-08-04T14:53:58.327Z</time>
      </trkpt>
      <trkpt lat="42.539545" lon="1.63101">
        <ele>2081.0</ele>
        <time>2019-08-04T14:53:59.296Z</time>
      </trkpt>
      <trkpt lat="42.539545" lon="1.63101">
        <ele>2081.0</ele>
        <time>2019-08-04T14:54:00.311Z</time>
      </trkpt>
      <trkpt lat="42.539545" lon="1.63101">
        <ele>2081.0</ele>
        <time>2019-08-04T14:54:01.319Z</time>
      </trkpt>
      <trkpt lat="42.539545" lon="1.63101">
        <ele>2081.0</ele>
        <time>2019-08-04T14:54:02.309Z</time>
      </trkpt>
      <trkpt lat="42.539545" lon="1.63101">
        <ele>2081.0</ele>
        <time>2019-08-04T14:54:03.317Z</time>
      </trkpt>
      <trkpt lat="42.539545" lon="1.63101">
        <ele>2081.0</ele>
        <time>2019-08-04T14:54:04.324Z</time>
      </trkpt>
      <trkpt lat="42.539545" lon="1.63101">
        <ele>2081.0</ele>
        <time>2019-08-04T14:54:05.335Z</time>
      </trkpt>
      <trkpt lat="42.539545" lon="1.63101">
        <ele>2081.0</ele>
        <time>2019-08-04T14:54:06.302Z</time>
      </trkpt>
      <trkpt lat="42.539545" lon="1.63101">
        <ele>2081.0</ele>
        <time>2019-08-04T14:54:07.310Z</time>
      </trkpt>
      <trkpt lat="42.539545" lon="1.63101">
        <ele>2081.0</ele>
        <time>2019-08-04T14:54:08.317Z</time>
      </trkpt>
      <trkpt lat="42.539545" lon="1.63101">
        <ele>2081.0</ele>
        <time>2019-08-04T14:54:09.324Z</time>
      </trkpt>
      <trkpt lat="42.539545" lon="1.63101">
        <ele>2081.0</ele>
        <time>2019-08-04T14:54:10.333Z</time>
      </trkpt>
      <trkpt lat="42.539545" lon="1.63101">
        <ele>2081.0</ele>
        <time>2019-08-04T14:54:11.332Z</time>
      </trkpt>
      <trkpt lat="42.539545" lon="1.63101">
        <ele>2081.0</ele>
        <time>2019-08-04T14:54:12.319Z</time>
      </trkpt>
      <trkpt lat="42.539545" lon="1.63101">
        <ele>2081.0</ele>
        <time>2019-08-04T14:54:13.306Z</time>
      </trkpt>
      <trkpt lat="42.539545" lon="1.63101">
        <ele>2081.0</ele>
        <time>2019-08-04T14:54:14.331Z</time>
      </trkpt>
      <trkpt lat="42.539545" lon="1.63101">
        <ele>2081.0</ele>
        <time>2019-08-04T14:54:15.325Z</time>
      </trkpt>
      <trkpt lat="42.539545" lon="1.63101">
        <ele>2081.0</ele>
        <time>2019-08-04T14:54:16.326Z</time>
      </trkpt>
      <trkpt lat="42.539545" lon="1.63101">
        <ele>2081.0</ele>
        <time>2019-08-04T14:54:17.322Z</time>
      </trkpt>
      <trkpt lat="42.539545" lon="1.63101">
        <ele>2081.0</ele>
        <time>2019-08-04T14:54:18.330Z</time>
      </trkpt>
      <trkpt lat="42.539545" lon="1.63101">
        <ele>2081.0</ele>
        <time>2019-08-04T14:54:19.300Z</time>
      </trkpt>
      <trkpt lat="42.539545" lon="1.63101">
        <ele>2081.0</ele>
        <time>2019-08-04T14:54:20.308Z</time>
      </trkpt>
      <trkpt lat="42.539545" lon="1.63101">
        <ele>2081.0</ele>
        <time>2019-08-04T14:54:21.314Z</time>
      </trkpt>
      <trkpt lat="42.539545" lon="1.63101">
        <ele>2081.0</ele>
        <time>2019-08-04T14:54:22.322Z</time>
      </trkpt>
      <trkpt lat="42.539545" lon="1.63101">
        <ele>2081.0</ele>
        <time>2019-08-04T14:54:23.329Z</time>
      </trkpt>
      <trkpt lat="42.539545" lon="1.63101">
        <ele>2081.0</ele>
        <time>2019-08-04T14:54:24.335Z</time>
      </trkpt>
      <trkpt lat="42.539545" lon="1.63101">
        <ele>2081.0</ele>
        <time>2019-08-04T14:54:25.305Z</time>
      </trkpt>
      <trkpt lat="42.539545" lon="1.63101">
        <ele>2081.0</ele>
        <time>2019-08-04T14:54:26.328Z</time>
      </trkpt>
      <trkpt lat="42.539545" lon="1.63101">
        <ele>2081.0</ele>
        <time>2019-08-04T14:54:27.319Z</time>
      </trkpt>
      <trkpt lat="42.539545" lon="1.63101">
        <ele>2081.0</ele>
        <time>2019-08-04T14:54:28.329Z</time>
      </trkpt>
      <trkpt lat="42.539545" lon="1.63101">
        <ele>2081.0</ele>
        <time>2019-08-04T14:54:29.322Z</time>
      </trkpt>
      <trkpt lat="42.539545" lon="1.63101">
        <ele>2081.0</ele>
        <time>2019-08-04T14:54:30.296Z</time>
      </trkpt>
      <trkpt lat="42.539545" lon="1.63101">
        <ele>2081.0</ele>
        <time>2019-08-04T14:54:31.312Z</time>
      </trkpt>
      <trkpt lat="42.539545" lon="1.63101">
        <ele>2081.0</ele>
        <time>2019-08-04T14:54:32.319Z</time>
      </trkpt>
      <trkpt lat="42.539545" lon="1.63101">
        <ele>2081.0</ele>
        <time>2019-08-04T14:54:33.326Z</time>
      </trkpt>
      <trkpt lat="42.539545" lon="1.63101">
        <ele>2081.0</ele>
        <time>2019-08-04T14:54:34.323Z</time>
      </trkpt>
      <trkpt lat="42.539545" lon="1.63101">
        <ele>2081.0</ele>
        <time>2019-08-04T14:54:35.323Z</time>
      </trkpt>
      <trkpt lat="42.539545" lon="1.63101">
        <ele>2081.0</ele>
        <time>2019-08-04T14:54:36.319Z</time>
      </trkpt>
      <trkpt lat="42.539545" lon="1.63101">
        <ele>2081.0</ele>
        <time>2019-08-04T14:54:37.328Z</time>
      </trkpt>
      <trkpt lat="42.539545" lon="1.63101">
        <ele>2081.0</ele>
        <time>2019-08-04T14:54:38.335Z</time>
      </trkpt>
      <trkpt lat="42.539545" lon="1.63101">
        <ele>2081.0</ele>
        <time>2019-08-04T14:54:39.323Z</time>
      </trkpt>
      <trkpt lat="42.539545" lon="1.63101">
        <ele>2081.0</ele>
        <time>2019-08-04T14:54:40.330Z</time>
      </trkpt>
      <trkpt lat="42.539545" lon="1.63101">
        <ele>2081.0</ele>
        <time>2019-08-04T14:54:41.297Z</time>
      </trkpt>
      <trkpt lat="42.539545" lon="1.63101">
        <ele>2081.0</ele>
        <time>2019-08-04T14:54:42.308Z</time>
      </trkpt>
      <trkpt lat="42.539545" lon="1.63101">
        <ele>2081.0</ele>
        <time>2019-08-04T14:54:43.302Z</time>
      </trkpt>
      <trkpt lat="42.539545" lon="1.63101">
        <ele>2081.0</ele>
        <time>2019-08-04T14:54:44.325Z</time>
      </trkpt>
      <trkpt lat="42.539545" lon="1.63101">
        <ele>2081.0</ele>
        <time>2019-08-04T14:54:45.323Z</time>
      </trkpt>
      <trkpt lat="42.539545" lon="1.63101">
        <ele>2081.0</ele>
        <time>2019-08-04T14:54:46.322Z</time>
      </trkpt>
      <trkpt lat="42.539545" lon="1.63101">
        <ele>2081.0</ele>
        <time>2019-08-04T14:54:47.324Z</time>
      </trkpt>
      <trkpt lat="42.539545" lon="1.63101">
        <ele>2081.0</ele>
        <time>2019-08-04T14:54:48.304Z</time>
      </trkpt>
      <trkpt lat="42.539545" lon="1.63101">
        <ele>2081.0</ele>
        <time>2019-08-04T14:54:49.334Z</time>
      </trkpt>
      <trkpt lat="42.539545" lon="1.63101">
        <ele>2081.0</ele>
        <time>2019-08-04T14:54:50.324Z</time>
      </trkpt>
      <trkpt lat="42.539545" lon="1.63101">
        <ele>2081.0</ele>
        <time>2019-08-04T14:54:51.332Z</time>
      </trkpt>
      <trkpt lat="42.539545" lon="1.63101">
        <ele>2081.0</ele>
        <time>2019-08-04T14:54:52.300Z</time>
      </trkpt>
      <trkpt lat="42.539545" lon="1.63101">
        <ele>2081.0</ele>
        <time>2019-08-04T14:54:53.309Z</time>
      </trkpt>
      <trkpt lat="42.539545" lon="1.63101">
        <ele>2081.0</ele>
        <time>2019-08-04T14:54:54.320Z</time>
      </trkpt>
      <trkpt lat="42.539545" lon="1.63101">
        <ele>2081.0</ele>
        <time>2019-08-04T14:54:55.318Z</time>
      </trkpt>
      <trkpt lat="42.539545" lon="1.63101">
        <ele>2081.0</ele>
        <time>2019-08-04T14:54:56.299Z</time>
      </trkpt>
      <trkpt lat="42.539545" lon="1.63101">
        <ele>2081.0</ele>
        <time>2019-08-04T14:54:57.324Z</time>
      </trkpt>
      <trkpt lat="42.539545" lon="1.63101">
        <ele>2081.0</ele>
        <time>2019-08-04T14:54:58.333Z</time>
      </trkpt>
      <trkpt lat="42.539545" lon="1.63101">
        <ele>2081.0</ele>
        <time>2019-08-04T14:54:59.301Z</time>
      </trkpt>
      <trkpt lat="42.539545" lon="1.63101">
        <ele>2081.0</ele>
        <time>2019-08-04T14:55:00.314Z</time>
      </trkpt>
      <trkpt lat="42.539545" lon="1.63101">
        <ele>2081.0</ele>
        <time>2019-08-04T14:55:01.303Z</time>
      </trkpt>
      <trkpt lat="42.539545" lon="1.63101">
        <ele>2081.0</ele>
        <time>2019-08-04T14:55:02.332Z</time>
      </trkpt>
      <trkpt lat="42.539545" lon="1.63101">
        <ele>2081.0</ele>
        <time>2019-08-04T14:55:03.335Z</time>
      </trkpt>
      <trkpt lat="42.539545" lon="1.63101">
        <ele>2081.0</ele>
        <time>2019-08-04T14:55:04.325Z</time>
      </trkpt>
      <trkpt lat="42.539545" lon="1.63101">
        <ele>2081.0</ele>
        <time>2019-08-04T14:55:05.335Z</time>
      </trkpt>
      <trkpt lat="42.539545" lon="1.63101">
        <ele>2081.0</ele>
        <time>2019-08-04T14:55:06.303Z</time>
      </trkpt>
      <trkpt lat="42.539545" lon="1.63101">
        <ele>2081.0</ele>
        <time>2019-08-04T14:55:07.307Z</time>
      </trkpt>
      <trkpt lat="42.539545" lon="1.63101">
        <ele>2081.0</ele>
        <time>2019-08-04T14:55:08.302Z</time>
      </trkpt>
      <trkpt lat="42.539545" lon="1.63101">
        <ele>2081.0</ele>
        <time>2019-08-04T14:55:09.313Z</time>
      </trkpt>
      <trkpt lat="42.539545" lon="1.63101">
        <ele>2081.0</ele>
        <time>2019-08-04T14:55:10.325Z</time>
      </trkpt>
      <trkpt lat="42.539545" lon="1.63101">
        <ele>2081.0</ele>
        <time>2019-08-04T14:55:11.329Z</time>
      </trkpt>
      <trkpt lat="42.539545" lon="1.63101">
        <ele>2081.0</ele>
        <time>2019-08-04T14:55:12.330Z</time>
      </trkpt>
      <trkpt lat="42.539545" lon="1.63101">
        <ele>2081.0</ele>
        <time>2019-08-04T14:55:13.333Z</time>
      </trkpt>
      <trkpt lat="42.539545" lon="1.63101">
        <ele>2081.0</ele>
        <time>2019-08-04T14:55:14.325Z</time>
      </trkpt>
      <trkpt lat="42.539545" lon="1.63101">
        <ele>2081.0</ele>
        <time>2019-08-04T14:55:15.297Z</time>
      </trkpt>
      <trkpt lat="42.539545" lon="1.63101">
        <ele>2081.0</ele>
        <time>2019-08-04T14:55:16.297Z</time>
      </trkpt>
      <trkpt lat="42.539545" lon="1.63101">
        <ele>2081.0</ele>
        <time>2019-08-04T14:55:17.296Z</time>
      </trkpt>
      <trkpt lat="42.539545" lon="1.63101">
        <ele>2081.0</ele>
        <time>2019-08-04T14:55:18.332Z</time>
      </trkpt>
      <trkpt lat="42.539545" lon="1.63101">
        <ele>2081.0</ele>
        <time>2019-08-04T14:55:19.328Z</time>
      </trkpt>
      <trkpt lat="42.539545" lon="1.63101">
        <ele>2081.0</ele>
        <time>2019-08-04T14:55:20.334Z</time>
      </trkpt>
      <trkpt lat="42.539545" lon="1.63101">
        <ele>2081.0</ele>
        <time>2019-08-04T14:55:21.301Z</time>
      </trkpt>
      <trkpt lat="42.539545" lon="1.63101">
        <ele>2081.0</ele>
        <time>2019-08-04T14:55:22.322Z</time>
      </trkpt>
      <trkpt lat="42.539545" lon="1.63101">
        <ele>2081.0</ele>
        <time>2019-08-04T14:55:23.316Z</time>
      </trkpt>
      <trkpt lat="42.539545" lon="1.63101">
        <ele>2081.0</ele>
        <time>2019-08-04T14:55:24.309Z</time>
      </trkpt>
      <trkpt lat="42.539545" lon="1.63101">
        <ele>2081.0</ele>
        <time>2019-08-04T14:55:25.307Z</time>
      </trkpt>
      <trkpt lat="42.539545" lon="1.63101">
        <ele>2081.0</ele>
        <time>2019-08-04T14:55:26.296Z</time>
      </trkpt>
      <trkpt lat="42.539545" lon="1.63101">
        <ele>2081.0</ele>
        <time>2019-08-04T14:55:27.297Z</time>
      </trkpt>
      <trkpt lat="42.539545" lon="1.63101">
        <ele>2081.0</ele>
        <time>2019-08-04T14:55:28.334Z</time>
      </trkpt>
      <trkpt lat="42.539545" lon="1.63101">
        <ele>2081.0</ele>
        <time>2019-08-04T14:55:29.308Z</time>
      </trkpt>
      <trkpt lat="42.539545" lon="1.63101">
        <ele>2081.0</ele>
        <time>2019-08-04T14:55:30.298Z</time>
      </trkpt>
      <trkpt lat="42.539545" lon="1.63101">
        <ele>2081.0</ele>
        <time>2019-08-04T14:55:31.317Z</time>
      </trkpt>
      <trkpt lat="42.539545" lon="1.63101">
        <ele>2081.0</ele>
        <time>2019-08-04T14:55:32.324Z</time>
      </trkpt>
      <trkpt lat="42.539545" lon="1.63101">
        <ele>2081.0</ele>
        <time>2019-08-04T14:55:33.332Z</time>
      </trkpt>
      <trkpt lat="42.539545" lon="1.63101">
        <ele>2081.0</ele>
        <time>2019-08-04T14:55:34.328Z</time>
      </trkpt>
      <trkpt lat="42.539545" lon="1.63101">
        <ele>2081.0</ele>
        <time>2019-08-04T14:55:35.326Z</time>
      </trkpt>
      <trkpt lat="42.539545" lon="1.63101">
        <ele>2081.0</ele>
        <time>2019-08-04T14:55:36.323Z</time>
      </trkpt>
      <trkpt lat="42.539545" lon="1.63101">
        <ele>2081.0</ele>
        <time>2019-08-04T14:55:37.301Z</time>
      </trkpt>
      <trkpt lat="42.539545" lon="1.63101">
        <ele>2081.0</ele>
        <time>2019-08-04T14:55:38.326Z</time>
      </trkpt>
      <trkpt lat="42.539545" lon="1.63101">
        <ele>2081.0</ele>
        <time>2019-08-04T14:55:39.321Z</time>
      </trkpt>
      <trkpt lat="42.539545" lon="1.63101">
        <ele>2081.0</ele>
        <time>2019-08-04T14:55:40.316Z</time>
      </trkpt>
      <trkpt lat="42.539545" lon="1.63101">
        <ele>2081.0</ele>
        <time>2019-08-04T14:55:41.323Z</time>
      </trkpt>
      <trkpt lat="42.539545" lon="1.63101">
        <ele>2081.0</ele>
        <time>2019-08-04T14:55:42.323Z</time>
      </trkpt>
      <trkpt lat="42.539545" lon="1.63101">
        <ele>2081.0</ele>
        <time>2019-08-04T14:55:43.322Z</time>
      </trkpt>
      <trkpt lat="42.539545" lon="1.63101">
        <ele>2081.0</ele>
        <time>2019-08-04T14:55:44.324Z</time>
      </trkpt>
      <trkpt lat="42.539545" lon="1.63101">
        <ele>2081.0</ele>
        <time>2019-08-04T14:55:45.323Z</time>
      </trkpt>
      <trkpt lat="42.539545" lon="1.63101">
        <ele>2081.0</ele>
        <time>2019-08-04T14:55:46.329Z</time>
      </trkpt>
      <trkpt lat="42.539545" lon="1.63101">
        <ele>2081.0</ele>
        <time>2019-08-04T14:55:47.301Z</time>
      </trkpt>
      <trkpt lat="42.539545" lon="1.63101">
        <ele>2081.0</ele>
        <time>2019-08-04T14:55:48.327Z</time>
      </trkpt>
      <trkpt lat="42.539545" lon="1.63101">
        <ele>2081.0</ele>
        <time>2019-08-04T14:55:49.327Z</time>
      </trkpt>
      <trkpt lat="42.539545" lon="1.63101">
        <ele>2081.0</ele>
        <time>2019-08-04T14:55:50.317Z</time>
      </trkpt>
      <trkpt lat="42.539545" lon="1.63101">
        <ele>2081.0</ele>
        <time>2019-08-04T14:55:51.310Z</time>
      </trkpt>
      <trkpt lat="42.539545" lon="1.63101">
        <ele>2081.0</ele>
        <time>2019-08-04T14:55:52.332Z</time>
      </trkpt>
      <trkpt lat="42.539545" lon="1.63101">
        <ele>2081.0</ele>
        <time>2019-08-04T14:55:53.323Z</time>
      </trkpt>
      <trkpt lat="42.539545" lon="1.63101">
        <ele>2081.0</ele>
        <time>2019-08-04T14:55:54.322Z</time>
      </trkpt>
      <trkpt lat="42.539545" lon="1.63101">
        <ele>2081.0</ele>
        <time>2019-08-04T14:55:55.322Z</time>
      </trkpt>
      <trkpt lat="42.539545" lon="1.63101">
        <ele>2081.0</ele>
        <time>2019-08-04T14:55:56.318Z</time>
      </trkpt>
      <trkpt lat="42.539545" lon="1.63101">
        <ele>2081.0</ele>
        <time>2019-08-04T14:55:57.325Z</time>
      </trkpt>
      <trkpt lat="42.539545" lon="1.63101">
        <ele>2081.0</ele>
        <time>2019-08-04T14:55:58.334Z</time>
      </trkpt>
      <trkpt lat="42.539545" lon="1.63101">
        <ele>2081.0</ele>
        <time>2019-08-04T14:55:59.328Z</time>
      </trkpt>
      <trkpt lat="42.539545" lon="1.63101">
        <ele>2081.0</ele>
        <time>2019-08-04T14:56:00.317Z</time>
      </trkpt>
      <trkpt lat="42.539545" lon="1.63101">
        <ele>2081.0</ele>
        <time>2019-08-04T14:56:01.335Z</time>
      </trkpt>
      <trkpt lat="42.539545" lon="1.63101">
        <ele>2081.0</ele>
        <time>2019-08-04T14:56:02.322Z</time>
      </trkpt>
      <trkpt lat="42.539545" lon="1.63101">
        <ele>2081.0</ele>
        <time>2019-08-04T14:56:03.320Z</time>
      </trkpt>
      <trkpt lat="42.539545" lon="1.63101">
        <ele>2081.0</ele>
        <time>2019-08-04T14:56:04.330Z</time>
      </trkpt>
      <trkpt lat="42.539545" lon="1.63101">
        <ele>2081.0</ele>
        <time>2019-08-04T14:56:05.332Z</time>
      </trkpt>
      <trkpt lat="42.539545" lon="1.63101">
        <ele>2081.0</ele>
        <time>2019-08-04T14:56:06.321Z</time>
      </trkpt>
      <trkpt lat="42.539545" lon="1.63101">
        <ele>2081.0</ele>
        <time>2019-08-04T14:56:07.328Z</time>
      </trkpt>
      <trkpt lat="42.539545" lon="1.63101">
        <ele>2081.0</ele>
        <time>2019-08-04T14:56:08.317Z</time>
      </trkpt>
      <trkpt lat="42.539545" lon="1.63101">
        <ele>2081.0</ele>
        <time>2019-08-04T14:56:09.318Z</time>
      </trkpt>
      <trkpt lat="42.539545" lon="1.63101">
        <ele>2081.0</ele>
        <time>2019-08-04T14:56:10.322Z</time>
      </trkpt>
      <trkpt lat="42.539545" lon="1.63101">
        <ele>2081.0</ele>
        <time>2019-08-04T14:56:11.311Z</time>
      </trkpt>
      <trkpt lat="42.539545" lon="1.63101">
        <ele>2081.0</ele>
        <time>2019-08-04T14:56:12.321Z</time>
      </trkpt>
      <trkpt lat="42.539545" lon="1.63101">
        <ele>2081.0</ele>
        <time>2019-08-04T14:56:13.328Z</time>
      </trkpt>
      <trkpt lat="42.539545" lon="1.63101">
        <ele>2081.0</ele>
        <time>2019-08-04T14:56:14.335Z</time>
      </trkpt>
      <trkpt lat="42.539545" lon="1.63101">
        <ele>2081.0</ele>
        <time>2019-08-04T14:56:15.324Z</time>
      </trkpt>
      <trkpt lat="42.539545" lon="1.63101">
        <ele>2081.0</ele>
        <time>2019-08-04T14:56:16.332Z</time>
      </trkpt>
      <trkpt lat="42.539545" lon="1.63101">
        <ele>2081.0</ele>
        <time>2019-08-04T14:56:17.298Z</time>
      </trkpt>
      <trkpt lat="42.539545" lon="1.63101">
        <ele>2081.0</ele>
        <time>2019-08-04T14:56:18.333Z</time>
      </trkpt>
      <trkpt lat="42.539545" lon="1.63101">
        <ele>2081.0</ele>
        <time>2019-08-04T14:56:19.307Z</time>
      </trkpt>
      <trkpt lat="42.539545" lon="1.63101">
        <ele>2081.0</ele>
        <time>2019-08-04T14:56:20.316Z</time>
      </trkpt>
      <trkpt lat="42.539545" lon="1.63101">
        <ele>2081.0</ele>
        <time>2019-08-04T14:56:21.323Z</time>
      </trkpt>
      <trkpt lat="42.539545" lon="1.63101">
        <ele>2081.0</ele>
        <time>2019-08-04T14:56:22.298Z</time>
      </trkpt>
      <trkpt lat="42.539545" lon="1.63101">
        <ele>2081.0</ele>
        <time>2019-08-04T14:56:23.309Z</time>
      </trkpt>
      <trkpt lat="42.539545" lon="1.63101">
        <ele>2081.0</ele>
        <time>2019-08-04T14:56:24.317Z</time>
      </trkpt>
      <trkpt lat="42.539545" lon="1.63101">
        <ele>2081.0</ele>
        <time>2019-08-04T14:56:25.324Z</time>
      </trkpt>
      <trkpt lat="42.539545" lon="1.63101">
        <ele>2081.0</ele>
        <time>2019-08-04T14:56:26.332Z</time>
      </trkpt>
      <trkpt lat="42.539545" lon="1.63101">
        <ele>2081.0</ele>
        <time>2019-08-04T14:56:27.300Z</time>
      </trkpt>
      <trkpt lat="42.539545" lon="1.63101">
        <ele>2081.0</ele>
        <time>2019-08-04T14:56:28.309Z</time>
      </trkpt>
      <trkpt lat="42.539545" lon="1.63101">
        <ele>2081.0</ele>
        <time>2019-08-04T14:56:29.299Z</time>
      </trkpt>
      <trkpt lat="42.539545" lon="1.63101">
        <ele>2081.0</ele>
        <time>2019-08-04T14:56:30.305Z</time>
      </trkpt>
      <trkpt lat="42.539545" lon="1.63101">
        <ele>2081.0</ele>
        <time>2019-08-04T14:56:31.313Z</time>
      </trkpt>
      <trkpt lat="42.539545" lon="1.63101">
        <ele>2081.0</ele>
        <time>2019-08-04T14:56:32.319Z</time>
      </trkpt>
      <trkpt lat="42.539545" lon="1.63101">
        <ele>2081.0</ele>
        <time>2019-08-04T14:56:33.326Z</time>
      </trkpt>
      <trkpt lat="42.539545" lon="1.63101">
        <ele>2081.0</ele>
        <time>2019-08-04T14:56:34.333Z</time>
      </trkpt>
      <trkpt lat="42.539545" lon="1.63101">
        <ele>2081.0</ele>
        <time>2019-08-04T14:56:35.331Z</time>
      </trkpt>
      <trkpt lat="42.539545" lon="1.63101">
        <ele>2081.0</ele>
        <time>2019-08-04T14:56:36.317Z</time>
      </trkpt>
      <trkpt lat="42.539545" lon="1.63101">
        <ele>2081.0</ele>
        <time>2019-08-04T14:56:37.325Z</time>
      </trkpt>
      <trkpt lat="42.539545" lon="1.63101">
        <ele>2081.0</ele>
        <time>2019-08-04T14:56:38.331Z</time>
      </trkpt>
      <trkpt lat="42.539545" lon="1.63101">
        <ele>2081.0</ele>
        <time>2019-08-04T14:56:39.299Z</time>
      </trkpt>
      <trkpt lat="42.539545" lon="1.63101">
        <ele>2081.0</ele>
        <time>2019-08-04T14:56:40.309Z</time>
      </trkpt>
      <trkpt lat="42.539545" lon="1.63101">
        <ele>2081.0</ele>
        <time>2019-08-04T14:56:41.301Z</time>
      </trkpt>
      <trkpt lat="42.539545" lon="1.63101">
        <ele>2081.0</ele>
        <time>2019-08-04T14:56:42.327Z</time>
      </trkpt>
      <trkpt lat="42.539545" lon="1.63101">
        <ele>2081.0</ele>
        <time>2019-08-04T14:56:43.324Z</time>
      </trkpt>
      <trkpt lat="42.539545" lon="1.63101">
        <ele>2081.0</ele>
        <time>2019-08-04T14:56:44.319Z</time>
      </trkpt>
      <trkpt lat="42.539545" lon="1.63101">
        <ele>2081.0</ele>
        <time>2019-08-04T14:56:45.314Z</time>
      </trkpt>
      <trkpt lat="42.539545" lon="1.63101">
        <ele>2081.0</ele>
        <time>2019-08-04T14:56:46.323Z</time>
      </trkpt>
      <trkpt lat="42.539545" lon="1.63101">
        <ele>2081.0</ele>
        <time>2019-08-04T14:56:47.330Z</time>
      </trkpt>
      <trkpt lat="42.539545" lon="1.63101">
        <ele>2081.0</ele>
        <time>2019-08-04T14:56:48.297Z</time>
      </trkpt>
      <trkpt lat="42.539545" lon="1.63101">
        <ele>2081.0</ele>
        <time>2019-08-04T14:56:49.332Z</time>
      </trkpt>
      <trkpt lat="42.539545" lon="1.63101">
        <ele>2081.0</ele>
        <time>2019-08-04T14:56:50.318Z</time>
      </trkpt>
      <trkpt lat="42.539545" lon="1.63101">
        <ele>2081.0</ele>
        <time>2019-08-04T14:56:51.306Z</time>
      </trkpt>
      <trkpt lat="42.539545" lon="1.63101">
        <ele>2081.0</ele>
        <time>2019-08-04T14:56:52.325Z</time>
      </trkpt>
      <trkpt lat="42.539545" lon="1.63101">
        <ele>2081.0</ele>
        <time>2019-08-04T14:56:53.331Z</time>
      </trkpt>
      <trkpt lat="42.539545" lon="1.63101">
        <ele>2081.0</ele>
        <time>2019-08-04T14:56:54.298Z</time>
      </trkpt>
      <trkpt lat="42.539545" lon="1.63101">
        <ele>2081.0</ele>
        <time>2019-08-04T14:56:55.326Z</time>
      </trkpt>
      <trkpt lat="42.539545" lon="1.63101">
        <ele>2081.0</ele>
        <time>2019-08-04T14:56:56.320Z</time>
      </trkpt>
      <trkpt lat="42.539545" lon="1.63101">
        <ele>2081.0</ele>
        <time>2019-08-04T14:56:57.320Z</time>
      </trkpt>
      <trkpt lat="42.539545" lon="1.63101">
        <ele>2081.0</ele>
        <time>2019-08-04T14:56:58.301Z</time>
      </trkpt>
      <trkpt lat="42.539545" lon="1.63101">
        <ele>2081.0</ele>
        <time>2019-08-04T14:56:59.323Z</time>
      </trkpt>
      <trkpt lat="42.539545" lon="1.63101">
        <ele>2081.0</ele>
        <time>2019-08-04T14:57:00.322Z</time>
      </trkpt>
      <trkpt lat="42.539545" lon="1.63101">
        <ele>2081.0</ele>
        <time>2019-08-04T14:57:01.324Z</time>
      </trkpt>
      <trkpt lat="42.539545" lon="1.63101">
        <ele>2081.0</ele>
        <time>2019-08-04T14:57:02.324Z</time>
      </trkpt>
      <trkpt lat="42.539545" lon="1.63101">
        <ele>2081.0</ele>
        <time>2019-08-04T14:57:03.334Z</time>
      </trkpt>
      <trkpt lat="42.539545" lon="1.63101">
        <ele>2081.0</ele>
        <time>2019-08-04T14:57:04.318Z</time>
      </trkpt>
      <trkpt lat="42.539545" lon="1.63101">
        <ele>2081.0</ele>
        <time>2019-08-04T14:57:05.325Z</time>
      </trkpt>
      <trkpt lat="42.539545" lon="1.63101">
        <ele>2081.0</ele>
        <time>2019-08-04T14:57:06.333Z</time>
      </trkpt>
      <trkpt lat="42.539545" lon="1.63101">
        <ele>2081.0</ele>
        <time>2019-08-04T14:57:07.305Z</time>
      </trkpt>
      <trkpt lat="42.539545" lon="1.63101">
        <ele>2081.0</ele>
        <time>2019-08-04T14:57:08.316Z</time>
      </trkpt>
      <trkpt lat="42.539545" lon="1.63101">
        <ele>2081.0</ele>
        <time>2019-08-04T14:57:09.299Z</time>
      </trkpt>
      <trkpt lat="42.539545" lon="1.63101">
        <ele>2081.0</ele>
        <time>2019-08-04T14:57:10.309Z</time>
      </trkpt>
      <trkpt lat="42.539545" lon="1.63101">
        <ele>2081.0</ele>
        <time>2019-08-04T14:57:11.317Z</time>
      </trkpt>
      <trkpt lat="42.539545" lon="1.63101">
        <ele>2081.0</ele>
        <time>2019-08-04T14:57:12.324Z</time>
      </trkpt>
      <trkpt lat="42.539545" lon="1.63101">
        <ele>2081.0</ele>
        <time>2019-08-04T14:57:13.331Z</time>
      </trkpt>
      <trkpt lat="42.539545" lon="1.63101">
        <ele>2081.0</ele>
        <time>2019-08-04T14:57:14.299Z</time>
      </trkpt>
      <trkpt lat="42.539545" lon="1.63101">
        <ele>2081.0</ele>
        <time>2019-08-04T14:57:15.317Z</time>
      </trkpt>
      <trkpt lat="42.539545" lon="1.63101">
        <ele>2081.0</ele>
        <time>2019-08-04T14:57:16.325Z</time>
      </trkpt>
      <trkpt lat="42.539545" lon="1.63101">
        <ele>2081.0</ele>
        <time>2019-08-04T14:57:17.331Z</time>
      </trkpt>
      <trkpt lat="42.539545" lon="1.63101">
        <ele>2081.0</ele>
        <time>2019-08-04T14:57:18.300Z</time>
      </trkpt>
      <trkpt lat="42.539545" lon="1.63101">
        <ele>2081.0</ele>
        <time>2019-08-04T14:57:19.311Z</time>
      </trkpt>
      <trkpt lat="42.539545" lon="1.63101">
        <ele>2081.0</ele>
        <time>2019-08-04T14:57:20.318Z</time>
      </trkpt>
      <trkpt lat="42.539545" lon="1.63101">
        <ele>2081.0</ele>
        <time>2019-08-04T14:57:21.305Z</time>
      </trkpt>
      <trkpt lat="42.539545" lon="1.63101">
        <ele>2081.0</ele>
        <time>2019-08-04T14:57:22.336Z</time>
      </trkpt>
      <trkpt lat="42.539545" lon="1.63101">
        <ele>2081.0</ele>
        <time>2019-08-04T14:57:23.335Z</time>
      </trkpt>
      <trkpt lat="42.539545" lon="1.63101">
        <ele>2081.0</ele>
        <time>2019-08-04T14:57:24.325Z</time>
      </trkpt>
      <trkpt lat="42.539545" lon="1.63101">
        <ele>2081.0</ele>
        <time>2019-08-04T14:57:25.322Z</time>
      </trkpt>
      <trkpt lat="42.539545" lon="1.63101">
        <ele>2081.0</ele>
        <time>2019-08-04T14:57:26.322Z</time>
      </trkpt>
      <trkpt lat="42.539545" lon="1.63101">
        <ele>2081.0</ele>
        <time>2019-08-04T14:57:27.317Z</time>
      </trkpt>
      <trkpt lat="42.539545" lon="1.63101">
        <ele>2081.0</ele>
        <time>2019-08-04T14:57:28.302Z</time>
      </trkpt>
      <trkpt lat="42.539545" lon="1.63101">
        <ele>2081.0</ele>
        <time>2019-08-04T14:57:29.315Z</time>
      </trkpt>
      <trkpt lat="42.539545" lon="1.63101">
        <ele>2081.0</ele>
        <time>2019-08-04T14:57:30.320Z</time>
      </trkpt>
      <trkpt lat="42.539545" lon="1.63101">
        <ele>2081.0</ele>
        <time>2019-08-04T14:57:31.326Z</time>
      </trkpt>
      <trkpt lat="42.539545" lon="1.63101">
        <ele>2081.0</ele>
        <time>2019-08-04T14:57:32.332Z</time>
      </trkpt>
      <trkpt lat="42.539545" lon="1.63101">
        <ele>2081.0</ele>
        <time>2019-08-04T14:57:33.299Z</time>
      </trkpt>
      <trkpt lat="42.539545" lon="1.63101">
        <ele>2081.0</ele>
        <time>2019-08-04T14:57:34.323Z</time>
      </trkpt>
      <trkpt lat="42.539545" lon="1.63101">
        <ele>2081.0</ele>
        <time>2019-08-04T14:57:35.310Z</time>
      </trkpt>
      <trkpt lat="42.539545" lon="1.63101">
        <ele>2081.0</ele>
        <time>2019-08-04T14:57:36.335Z</time>
      </trkpt>
      <trkpt lat="42.539545" lon="1.63101">
        <ele>2081.0</ele>
        <time>2019-08-04T14:57:37.324Z</time>
      </trkpt>
      <trkpt lat="42.539545" lon="1.63101">
        <ele>2081.0</ele>
        <time>2019-08-04T14:57:38.332Z</time>
      </trkpt>
      <trkpt lat="42.539545" lon="1.63101">
        <ele>2081.0</ele>
        <time>2019-08-04T14:57:39.321Z</time>
      </trkpt>
      <trkpt lat="42.539545" lon="1.63101">
        <ele>2081.0</ele>
        <time>2019-08-04T14:57:40.324Z</time>
      </trkpt>
      <trkpt lat="42.539545" lon="1.63101">
        <ele>2081.0</ele>
        <time>2019-08-04T14:57:41.305Z</time>
      </trkpt>
      <trkpt lat="42.539545" lon="1.63101">
        <ele>2081.0</ele>
        <time>2019-08-04T14:57:42.305Z</time>
      </trkpt>
      <trkpt lat="42.539545" lon="1.63101">
        <ele>2081.0</ele>
        <time>2019-08-04T14:57:43.329Z</time>
      </trkpt>
      <trkpt lat="42.539545" lon="1.63101">
        <ele>2081.0</ele>
        <time>2019-08-04T14:57:44.321Z</time>
      </trkpt>
      <trkpt lat="42.539545" lon="1.63101">
        <ele>2081.0</ele>
        <time>2019-08-04T14:57:45.323Z</time>
      </trkpt>
      <trkpt lat="42.539545" lon="1.63101">
        <ele>2081.0</ele>
        <time>2019-08-04T14:57:46.324Z</time>
      </trkpt>
      <trkpt lat="42.539545" lon="1.63101">
        <ele>2081.0</ele>
        <time>2019-08-04T14:57:47.324Z</time>
      </trkpt>
      <trkpt lat="42.539545" lon="1.63101">
        <ele>2081.0</ele>
        <time>2019-08-04T14:57:48.323Z</time>
      </trkpt>
      <trkpt lat="42.539545" lon="1.63101">
        <ele>2081.0</ele>
        <time>2019-08-04T14:57:49.323Z</time>
      </trkpt>
      <trkpt lat="42.539545" lon="1.63101">
        <ele>2081.0</ele>
        <time>2019-08-04T14:57:50.320Z</time>
      </trkpt>
      <trkpt lat="42.539545" lon="1.63101">
        <ele>2081.0</ele>
        <time>2019-08-04T14:57:51.324Z</time>
      </trkpt>
      <trkpt lat="42.539545" lon="1.63101">
        <ele>2081.0</ele>
        <time>2019-08-04T14:57:52.322Z</time>
      </trkpt>
      <trkpt lat="42.539545" lon="1.63101">
        <ele>2081.0</ele>
        <time>2019-08-04T14:57:53.306Z</time>
      </trkpt>
      <trkpt lat="42.539545" lon="1.63101">
        <ele>2081.0</ele>
        <time>2019-08-04T14:57:54.335Z</time>
      </trkpt>
      <trkpt lat="42.539545" lon="1.63101">
        <ele>2081.0</ele>
        <time>2019-08-04T14:57:55.322Z</time>
      </trkpt>
      <trkpt lat="42.539545" lon="1.63101">
        <ele>2081.0</ele>
        <time>2019-08-04T14:57:56.323Z</time>
      </trkpt>
      <trkpt lat="42.539545" lon="1.63101">
        <ele>2081.0</ele>
        <time>2019-08-04T14:57:57.325Z</time>
      </trkpt>
      <trkpt lat="42.539545" lon="1.63101">
        <ele>2081.0</ele>
        <time>2019-08-04T14:57:58.318Z</time>
      </trkpt>
      <trkpt lat="42.539545" lon="1.63101">
        <ele>2081.0</ele>
        <time>2019-08-04T14:57:59.304Z</time>
      </trkpt>
      <trkpt lat="42.539545" lon="1.63101">
        <ele>2081.0</ele>
        <time>2019-08-04T14:58:00.330Z</time>
      </trkpt>
      <trkpt lat="42.539545" lon="1.63101">
        <ele>2081.0</ele>
        <time>2019-08-04T14:58:01.302Z</time>
      </trkpt>
      <trkpt lat="42.539545" lon="1.63101">
        <ele>2081.0</ele>
        <time>2019-08-04T14:58:02.328Z</time>
      </trkpt>
      <trkpt lat="42.539545" lon="1.63101">
        <ele>2081.0</ele>
        <time>2019-08-04T14:58:03.325Z</time>
      </trkpt>
      <trkpt lat="42.539545" lon="1.63101">
        <ele>2081.0</ele>
        <time>2019-08-04T14:58:04.311Z</time>
      </trkpt>
      <trkpt lat="42.539545" lon="1.63101">
        <ele>2081.0</ele>
        <time>2019-08-04T14:58:05.335Z</time>
      </trkpt>
      <trkpt lat="42.539545" lon="1.63101">
        <ele>2081.0</ele>
        <time>2019-08-04T14:58:06.323Z</time>
      </trkpt>
      <trkpt lat="42.539545" lon="1.63101">
        <ele>2081.0</ele>
        <time>2019-08-04T14:58:07.321Z</time>
      </trkpt>
      <trkpt lat="42.539545" lon="1.63101">
        <ele>2081.0</ele>
        <time>2019-08-04T14:58:08.317Z</time>
      </trkpt>
      <trkpt lat="42.539545" lon="1.63101">
        <ele>2081.0</ele>
        <time>2019-08-04T14:58:09.324Z</time>
      </trkpt>
      <trkpt lat="42.539545" lon="1.63101">
        <ele>2081.0</ele>
        <time>2019-08-04T14:58:10.319Z</time>
      </trkpt>
      <trkpt lat="42.539545" lon="1.63101">
        <ele>2081.0</ele>
        <time>2019-08-04T14:58:11.323Z</time>
      </trkpt>
      <trkpt lat="42.539545" lon="1.63101">
        <ele>2081.0</ele>
        <time>2019-08-04T14:58:12.324Z</time>
      </trkpt>
      <trkpt lat="42.539545" lon="1.63101">
        <ele>2081.0</ele>
        <time>2019-08-04T14:58:13.324Z</time>
      </trkpt>
      <trkpt lat="42.539545" lon="1.63101">
        <ele>2081.0</ele>
        <time>2019-08-04T14:58:14.331Z</time>
      </trkpt>
      <trkpt lat="42.539545" lon="1.63101">
        <ele>2081.0</ele>
        <time>2019-08-04T14:58:15.321Z</time>
      </trkpt>
      <trkpt lat="42.539545" lon="1.63101">
        <ele>2081.0</ele>
        <time>2019-08-04T14:58:16.322Z</time>
      </trkpt>
      <trkpt lat="42.539545" lon="1.63101">
        <ele>2081.0</ele>
        <time>2019-08-04T14:58:17.296Z</time>
      </trkpt>
      <trkpt lat="42.539545" lon="1.63101">
        <ele>2081.0</ele>
        <time>2019-08-04T14:58:18.324Z</time>
      </trkpt>
      <trkpt lat="42.539545" lon="1.63101">
        <ele>2081.0</ele>
        <time>2019-08-04T14:58:19.326Z</time>
      </trkpt>
      <trkpt lat="42.539545" lon="1.63101">
        <ele>2081.0</ele>
        <time>2019-08-04T14:58:20.320Z</time>
      </trkpt>
      <trkpt lat="42.539545" lon="1.63101">
        <ele>2081.0</ele>
        <time>2019-08-04T14:58:21.327Z</time>
      </trkpt>
      <trkpt lat="42.539545" lon="1.63101">
        <ele>2081.0</ele>
        <time>2019-08-04T14:58:22.334Z</time>
      </trkpt>
      <trkpt lat="42.539545" lon="1.63101">
        <ele>2081.0</ele>
        <time>2019-08-04T14:58:23.302Z</time>
      </trkpt>
      <trkpt lat="42.539545" lon="1.63101">
        <ele>2081.0</ele>
        <time>2019-08-04T14:58:24.312Z</time>
      </trkpt>
      <trkpt lat="42.539545" lon="1.63101">
        <ele>2081.0</ele>
        <time>2019-08-04T14:58:25.319Z</time>
      </trkpt>
      <trkpt lat="42.539545" lon="1.63101">
        <ele>2081.0</ele>
        <time>2019-08-04T14:58:26.326Z</time>
      </trkpt>
      <trkpt lat="42.539545" lon="1.63101">
        <ele>2081.0</ele>
        <time>2019-08-04T14:58:27.335Z</time>
      </trkpt>
      <trkpt lat="42.539545" lon="1.63101">
        <ele>2081.0</ele>
        <time>2019-08-04T14:58:28.314Z</time>
      </trkpt>
      <trkpt lat="42.539545" lon="1.63101">
        <ele>2081.0</ele>
        <time>2019-08-04T14:58:29.443Z</time>
      </trkpt>
      <trkpt lat="42.539545" lon="1.63101">
        <ele>2081.0</ele>
        <time>2019-08-04T14:58:30.695Z</time>
      </trkpt>
      <trkpt lat="42.539545" lon="1.63101">
        <ele>2081.0</ele>
        <time>2019-08-04T14:58:31.325Z</time>
      </trkpt>
      <trkpt lat="42.539545" lon="1.63101">
        <ele>2081.0</ele>
        <time>2019-08-04T14:58:32.306Z</time>
      </trkpt>
      <trkpt lat="42.539545" lon="1.63101">
        <ele>2081.0</ele>
        <time>2019-08-04T14:58:33.310Z</time>
      </trkpt>
      <trkpt lat="42.539545" lon="1.63101">
        <ele>2081.0</ele>
        <time>2019-08-04T14:58:34.313Z</time>
      </trkpt>
      <trkpt lat="42.539545" lon="1.63101">
        <ele>2081.0</ele>
        <time>2019-08-04T14:58:35.311Z</time>
      </trkpt>
      <trkpt lat="42.539545" lon="1.63101">
        <ele>2081.0</ele>
        <time>2019-08-04T14:58:36.333Z</time>
      </trkpt>
      <trkpt lat="42.539545" lon="1.63101">
        <ele>2081.0</ele>
        <time>2019-08-04T14:58:37.311Z</time>
      </trkpt>
      <trkpt lat="42.539545" lon="1.63101">
        <ele>2081.0</ele>
        <time>2019-08-04T14:58:38.323Z</time>
      </trkpt>
      <trkpt lat="42.539545" lon="1.63101">
        <ele>2081.0</ele>
        <time>2019-08-04T14:58:39.296Z</time>
      </trkpt>
      <trkpt lat="42.539545" lon="1.63101">
        <ele>2081.0</ele>
        <time>2019-08-04T14:58:40.322Z</time>
      </trkpt>
      <trkpt lat="42.539545" lon="1.63101">
        <ele>2081.0</ele>
        <time>2019-08-04T14:58:41.304Z</time>
      </trkpt>
      <trkpt lat="42.539545" lon="1.63101">
        <ele>2081.0</ele>
        <time>2019-08-04T14:58:42.312Z</time>
      </trkpt>
      <trkpt lat="42.539545" lon="1.63101">
        <ele>2081.0</ele>
        <time>2019-08-04T14:58:43.325Z</time>
      </trkpt>
      <trkpt lat="42.539545" lon="1.63101">
        <ele>2081.0</ele>
        <time>2019-08-04T14:58:44.336Z</time>
      </trkpt>
      <trkpt lat="42.539545" lon="1.63101">
        <ele>2081.0</ele>
        <time>2019-08-04T14:58:45.305Z</time>
      </trkpt>
      <trkpt lat="42.539545" lon="1.63101">
        <ele>2081.0</ele>
        <time>2019-08-04T14:58:46.314Z</time>
      </trkpt>
      <trkpt lat="42.539545" lon="1.63101">
        <ele>2081.0</ele>
        <time>2019-08-04T14:58:47.328Z</time>
      </trkpt>
      <trkpt lat="42.539545" lon="1.63101">
        <ele>2081.0</ele>
        <time>2019-08-04T14:58:48.299Z</time>
      </trkpt>
      <trkpt lat="42.539545" lon="1.63101">
        <ele>2081.0</ele>
        <time>2019-08-04T14:58:49.308Z</time>
      </trkpt>
      <trkpt lat="42.539545" lon="1.63101">
        <ele>2081.0</ele>
        <time>2019-08-04T14:58:50.317Z</time>
      </trkpt>
      <trkpt lat="42.53954667" lon="1.63092833">
        <ele>2077.0</ele>
        <time>2019-08-04T14:58:51.324Z</time>
      </trkpt>
      <trkpt lat="42.53955" lon="1.63092833">
        <ele>2077.0</ele>
        <time>2019-08-04T14:58:52.321Z</time>
      </trkpt>
      <trkpt lat="42.53955333" lon="1.63093">
        <ele>2077.0</ele>
        <time>2019-08-04T14:58:53.332Z</time>
      </trkpt>
      <trkpt lat="42.53955333" lon="1.63093">
        <ele>2077.0</ele>
        <time>2019-08-04T14:58:54.311Z</time>
      </trkpt>
      <trkpt lat="42.53956167" lon="1.63093333">
        <ele>2077.0</ele>
        <time>2019-08-04T14:58:55.332Z</time>
      </trkpt>
      <trkpt lat="42.539565" lon="1.63093333">
        <ele>2077.0</ele>
        <time>2019-08-04T14:58:56.315Z</time>
      </trkpt>
      <trkpt lat="42.539565" lon="1.63093333">
        <ele>2077.0</ele>
        <time>2019-08-04T14:58:57.333Z</time>
      </trkpt>
      <trkpt lat="42.53956833" lon="1.630935">
        <ele>2077.0</ele>
        <time>2019-08-04T14:58:58.301Z</time>
      </trkpt>
      <trkpt lat="42.53957" lon="1.63093833">
        <ele>2077.0</ele>
        <time>2019-08-04T14:58:59.300Z</time>
      </trkpt>
      <trkpt lat="42.53957" lon="1.63093833">
        <ele>2077.0</ele>
        <time>2019-08-04T14:59:00.321Z</time>
      </trkpt>
      <trkpt lat="42.53957" lon="1.63093833">
        <ele>2077.0</ele>
        <time>2019-08-04T14:59:01.301Z</time>
      </trkpt>
      <trkpt lat="42.53957" lon="1.63093833">
        <ele>2077.0</ele>
        <time>2019-08-04T14:59:02.319Z</time>
      </trkpt>
      <trkpt lat="42.53957" lon="1.63093833">
        <ele>2077.0</ele>
        <time>2019-08-04T14:59:03.326Z</time>
      </trkpt>
      <trkpt lat="42.53957" lon="1.63093833">
        <ele>2077.0</ele>
        <time>2019-08-04T14:59:04.297Z</time>
      </trkpt>
      <trkpt lat="42.53957" lon="1.63093833">
        <ele>2077.0</ele>
        <time>2019-08-04T14:59:05.307Z</time>
      </trkpt>
      <trkpt lat="42.53957" lon="1.63093833">
        <ele>2077.0</ele>
        <time>2019-08-04T14:59:06.317Z</time>
      </trkpt>
      <trkpt lat="42.53957" lon="1.63093833">
        <ele>2077.0</ele>
        <time>2019-08-04T14:59:07.324Z</time>
      </trkpt>
      <trkpt lat="42.53957" lon="1.63093833">
        <ele>2077.0</ele>
        <time>2019-08-04T14:59:08.332Z</time>
      </trkpt>
      <trkpt lat="42.53957" lon="1.63093833">
        <ele>2077.0</ele>
        <time>2019-08-04T14:59:09.301Z</time>
      </trkpt>
      <trkpt lat="42.53957" lon="1.63093833">
        <ele>2077.0</ele>
        <time>2019-08-04T14:59:10.320Z</time>
      </trkpt>
      <trkpt lat="42.53957" lon="1.63093833">
        <ele>2077.0</ele>
        <time>2019-08-04T14:59:11.323Z</time>
      </trkpt>
      <trkpt lat="42.53957" lon="1.63093833">
        <ele>2077.0</ele>
        <time>2019-08-04T14:59:12.332Z</time>
      </trkpt>
      <trkpt lat="42.539565" lon="1.63098">
        <ele>2077.0</ele>
        <time>2019-08-04T14:59:13.301Z</time>
      </trkpt>
      <trkpt lat="42.53956333" lon="1.63098333">
        <ele>2077.0</ele>
        <time>2019-08-04T14:59:14.308Z</time>
      </trkpt>
      <trkpt lat="42.53956333" lon="1.63098333">
        <ele>2077.0</ele>
        <time>2019-08-04T14:59:15.326Z</time>
      </trkpt>
      <trkpt lat="42.53955667" lon="1.630995">
        <ele>2077.0</ele>
        <time>2019-08-04T14:59:16.302Z</time>
      </trkpt>
      <trkpt lat="42.53955833" lon="1.631005">
        <ele>2077.0</ele>
        <time>2019-08-04T14:59:17.334Z</time>
      </trkpt>
      <trkpt lat="42.53955833" lon="1.631005">
        <ele>2077.0</ele>
        <time>2019-08-04T14:59:18.303Z</time>
      </trkpt>
      <trkpt lat="42.53955833" lon="1.63101833">
        <ele>2077.0</ele>
        <time>2019-08-04T14:59:19.324Z</time>
      </trkpt>
      <trkpt lat="42.53955833" lon="1.63101833">
        <ele>2077.0</ele>
        <time>2019-08-04T14:59:20.302Z</time>
      </trkpt>
      <trkpt lat="42.53955667" lon="1.631035">
        <ele>2078.0</ele>
        <time>2019-08-04T14:59:21.322Z</time>
      </trkpt>
      <trkpt lat="42.53955667" lon="1.631035">
        <ele>2078.0</ele>
        <time>2019-08-04T14:59:22.309Z</time>
      </trkpt>
      <trkpt lat="42.53958" lon="1.63106167">
        <ele>2078.0</ele>
        <time>2019-08-04T14:59:23.326Z</time>
      </trkpt>
      <trkpt lat="42.53958" lon="1.63106167">
        <ele>2078.0</ele>
        <time>2019-08-04T14:59:24.311Z</time>
      </trkpt>
      <trkpt lat="42.53961167" lon="1.63109167">
        <ele>2078.0</ele>
        <time>2019-08-04T14:59:25.320Z</time>
      </trkpt>
      <trkpt lat="42.53961167" lon="1.63109167">
        <ele>2078.0</ele>
        <time>2019-08-04T14:59:26.296Z</time>
      </trkpt>
      <trkpt lat="42.53962333" lon="1.63111667">
        <ele>2078.0</ele>
        <time>2019-08-04T14:59:27.312Z</time>
      </trkpt>
      <trkpt lat="42.53962333" lon="1.63111667">
        <ele>2078.0</ele>
        <time>2019-08-04T14:59:28.326Z</time>
      </trkpt>
      <trkpt lat="42.53962333" lon="1.63111667">
        <ele>2078.0</ele>
        <time>2019-08-04T14:59:29.309Z</time>
      </trkpt>
      <trkpt lat="42.53962333" lon="1.63111667">
        <ele>2078.0</ele>
        <time>2019-08-04T14:59:30.745Z</time>
      </trkpt>
      <trkpt lat="42.53962333" lon="1.63111667">
        <ele>2078.0</ele>
        <time>2019-08-04T14:59:31.321Z</time>
      </trkpt>
      <trkpt lat="42.53962333" lon="1.63111667">
        <ele>2078.0</ele>
        <time>2019-08-04T14:59:32.416Z</time>
      </trkpt>
      <trkpt lat="42.539645" lon="1.63120833">
        <ele>2078.0</ele>
        <time>2019-08-04T14:59:33.316Z</time>
      </trkpt>
      <trkpt lat="42.53964833" lon="1.63121667">
        <ele>2078.0</ele>
        <time>2019-08-04T14:59:34.328Z</time>
      </trkpt>
      <trkpt lat="42.53964833" lon="1.63121667">
        <ele>2078.0</ele>
        <time>2019-08-04T14:59:35.322Z</time>
      </trkpt>
      <trkpt lat="42.53964833" lon="1.63122667">
        <ele>2079.0</ele>
        <time>2019-08-04T14:59:36.304Z</time>
      </trkpt>
      <trkpt lat="42.53965167" lon="1.63123167">
        <ele>2079.0</ele>
        <time>2019-08-04T14:59:37.297Z</time>
      </trkpt>
      <trkpt lat="42.53965167" lon="1.63123167">
        <ele>2079.0</ele>
        <time>2019-08-04T14:59:38.315Z</time>
      </trkpt>
      <trkpt lat="42.53965833" lon="1.63124833">
        <ele>2079.0</ele>
        <time>2019-08-04T14:59:39.330Z</time>
      </trkpt>
      <trkpt lat="42.539665" lon="1.63125833">
        <ele>2079.0</ele>
        <time>2019-08-04T14:59:40.319Z</time>
      </trkpt>
      <trkpt lat="42.539665" lon="1.63125833">
        <ele>2079.0</ele>
        <time>2019-08-04T14:59:41.303Z</time>
      </trkpt>
      <trkpt lat="42.53966833" lon="1.63128167">
        <ele>2079.0</ele>
        <time>2019-08-04T14:59:42.314Z</time>
      </trkpt>
      <trkpt lat="42.53966833" lon="1.63128167">
        <ele>2079.0</ele>
        <time>2019-08-04T14:59:43.307Z</time>
      </trkpt>
      <trkpt lat="42.53967667" lon="1.631315">
        <ele>2079.0</ele>
        <time>2019-08-04T14:59:44.321Z</time>
      </trkpt>
      <trkpt lat="42.53967667" lon="1.631315">
        <ele>2079.0</ele>
        <time>2019-08-04T14:59:45.311Z</time>
      </trkpt>
      <trkpt lat="42.53968" lon="1.63135333">
        <ele>2079.0</ele>
        <time>2019-08-04T14:59:46.325Z</time>
      </trkpt>
      <trkpt lat="42.53968" lon="1.63137167">
        <ele>2079.0</ele>
        <time>2019-08-04T14:59:47.313Z</time>
      </trkpt>
      <trkpt lat="42.53967833" lon="1.63138833">
        <ele>2079.0</ele>
        <time>2019-08-04T14:59:48.299Z</time>
      </trkpt>
      <trkpt lat="42.53967833" lon="1.63138833">
        <ele>2079.0</ele>
        <time>2019-08-04T14:59:49.327Z</time>
      </trkpt>
      <trkpt lat="42.53967667" lon="1.63141667">
        <ele>2079.0</ele>
        <time>2019-08-04T14:59:50.301Z</time>
      </trkpt>
      <trkpt lat="42.53967667" lon="1.63141667">
        <ele>2079.0</ele>
        <time>2019-08-04T14:59:51.382Z</time>
      </trkpt>
      <trkpt lat="42.539675" lon="1.63145167">
        <ele>2079.0</ele>
        <time>2019-08-04T14:59:52.303Z</time>
      </trkpt>
      <trkpt lat="42.53967667" lon="1.63146333">
        <ele>2079.0</ele>
        <time>2019-08-04T14:59:53.303Z</time>
      </trkpt>
      <trkpt lat="42.53967667" lon="1.63146333">
        <ele>2079.0</ele>
        <time>2019-08-04T14:59:54.329Z</time>
      </trkpt>
      <trkpt lat="42.539675" lon="1.63148333">
        <ele>2079.0</ele>
        <time>2019-08-04T14:59:55.302Z</time>
      </trkpt>
      <trkpt lat="42.539675" lon="1.63148333">
        <ele>2079.0</ele>
        <time>2019-08-04T14:59:56.327Z</time>
      </trkpt>
      <trkpt lat="42.53967" lon="1.631515">
        <ele>2079.0</ele>
        <time>2019-08-04T14:59:57.303Z</time>
      </trkpt>
      <trkpt lat="42.53967" lon="1.631515">
        <ele>2079.0</ele>
        <time>2019-08-04T14:59:58.317Z</time>
      </trkpt>
      <trkpt lat="42.53963333" lon="1.631555">
        <ele>2079.0</ele>
        <time>2019-08-04T14:59:59.311Z</time>
      </trkpt>
      <trkpt lat="42.53963333" lon="1.631555">
        <ele>2079.0</ele>
        <time>2019-08-04T15:00:00.322Z</time>
      </trkpt>
      <trkpt lat="42.53961833" lon="1.63158667">
        <ele>2080.0</ele>
        <time>2019-08-04T15:00:01.299Z</time>
      </trkpt>
      <trkpt lat="42.53961167" lon="1.63160333">
        <ele>2080.0</ele>
        <time>2019-08-04T15:00:02.325Z</time>
      </trkpt>
      <trkpt lat="42.53961167" lon="1.63160333">
        <ele>2080.0</ele>
        <time>2019-08-04T15:00:03.313Z</time>
      </trkpt>
      <trkpt lat="42.539605" lon="1.631645">
        <ele>2080.0</ele>
        <time>2019-08-04T15:00:04.308Z</time>
      </trkpt>
      <trkpt lat="42.539605" lon="1.63166167">
        <ele>2080.0</ele>
        <time>2019-08-04T15:00:05.331Z</time>
      </trkpt>
      <trkpt lat="42.539605" lon="1.63166167">
        <ele>2080.0</ele>
        <time>2019-08-04T15:00:06.306Z</time>
      </trkpt>
      <trkpt lat="42.53960667" lon="1.63169167">
        <ele>2080.0</ele>
        <time>2019-08-04T15:00:07.317Z</time>
      </trkpt>
      <trkpt lat="42.53960667" lon="1.63169167">
        <ele>2080.0</ele>
        <time>2019-08-04T15:00:08.326Z</time>
      </trkpt>
      <trkpt lat="42.53960333" lon="1.63172167">
        <ele>2080.0</ele>
        <time>2019-08-04T15:00:09.301Z</time>
      </trkpt>
      <trkpt lat="42.53960333" lon="1.63172167">
        <ele>2080.0</ele>
        <time>2019-08-04T15:00:10.310Z</time>
      </trkpt>
      <trkpt lat="42.53960167" lon="1.63174333">
        <ele>2080.0</ele>
        <time>2019-08-04T15:00:11.325Z</time>
      </trkpt>
      <trkpt lat="42.53960167" lon="1.631755">
        <ele>2080.0</ele>
        <time>2019-08-04T15:00:12.309Z</time>
      </trkpt>
      <trkpt lat="42.53960167" lon="1.631755">
        <ele>2080.0</ele>
        <time>2019-08-04T15:00:13.327Z</time>
      </trkpt>
      <trkpt lat="42.53959667" lon="1.63178167">
        <ele>2080.0</ele>
        <time>2019-08-04T15:00:14.296Z</time>
      </trkpt>
      <trkpt lat="42.53959167" lon="1.63179667">
        <ele>2081.0</ele>
        <time>2019-08-04T15:00:15.305Z</time>
      </trkpt>
      <trkpt lat="42.53959167" lon="1.63179667">
        <ele>2081.0</ele>
        <time>2019-08-04T15:00:16.325Z</time>
      </trkpt>
      <trkpt lat="42.539585" lon="1.63182333">
        <ele>2081.0</ele>
        <time>2019-08-04T15:00:17.323Z</time>
      </trkpt>
      <trkpt lat="42.539585" lon="1.63182333">
        <ele>2081.0</ele>
        <time>2019-08-04T15:00:18.335Z</time>
      </trkpt>
      <trkpt lat="42.53958333" lon="1.63185">
        <ele>2081.0</ele>
        <time>2019-08-04T15:00:19.304Z</time>
      </trkpt>
      <trkpt lat="42.53958" lon="1.63186833">
        <ele>2081.0</ele>
        <time>2019-08-04T15:00:20.334Z</time>
      </trkpt>
      <trkpt lat="42.53958" lon="1.63186833">
        <ele>2081.0</ele>
        <time>2019-08-04T15:00:21.311Z</time>
      </trkpt>
      <trkpt lat="42.53956667" lon="1.63190167">
        <ele>2081.0</ele>
        <time>2019-08-04T15:00:22.302Z</time>
      </trkpt>
      <trkpt lat="42.539565" lon="1.63191667">
        <ele>2081.0</ele>
        <time>2019-08-04T15:00:23.325Z</time>
      </trkpt>
      <trkpt lat="42.53956667" lon="1.63193">
        <ele>2081.0</ele>
        <time>2019-08-04T15:00:24.315Z</time>
      </trkpt>
      <trkpt lat="42.53956667" lon="1.63193">
        <ele>2081.0</ele>
        <time>2019-08-04T15:00:25.302Z</time>
      </trkpt>
      <trkpt lat="42.53956" lon="1.63194833">
        <ele>2081.0</ele>
        <time>2019-08-04T15:00:26.332Z</time>
      </trkpt>
      <trkpt lat="42.53955833" lon="1.63196833">
        <ele>2081.0</ele>
        <time>2019-08-04T15:00:27.319Z</time>
      </trkpt>
      <trkpt lat="42.53955833" lon="1.63196833">
        <ele>2081.0</ele>
        <time>2019-08-04T15:00:28.305Z</time>
      </trkpt>
      <trkpt lat="42.53955833" lon="1.63196833">
        <ele>2081.0</ele>
        <time>2019-08-04T15:00:29.311Z</time>
      </trkpt>
      <trkpt lat="42.53955833" lon="1.63196833">
        <ele>2081.0</ele>
        <time>2019-08-04T15:00:30.935Z</time>
      </trkpt>
      <trkpt lat="42.53955833" lon="1.63196833">
        <ele>2081.0</ele>
        <time>2019-08-04T15:00:31.421Z</time>
      </trkpt>
      <trkpt lat="42.53954333" lon="1.632045">
        <ele>2081.0</ele>
        <time>2019-08-04T15:00:32.315Z</time>
      </trkpt>
      <trkpt lat="42.53953167" lon="1.63207333">
        <ele>2082.0</ele>
        <time>2019-08-04T15:00:33.334Z</time>
      </trkpt>
      <trkpt lat="42.53953167" lon="1.632095">
        <ele>2082.0</ele>
        <time>2019-08-04T15:00:34.318Z</time>
      </trkpt>
      <trkpt lat="42.53952667" lon="1.63211167">
        <ele>2082.0</ele>
        <time>2019-08-04T15:00:35.331Z</time>
      </trkpt>
      <trkpt lat="42.53952667" lon="1.63211167">
        <ele>2082.0</ele>
        <time>2019-08-04T15:00:36.313Z</time>
      </trkpt>
      <trkpt lat="42.53951833" lon="1.632145">
        <ele>2082.0</ele>
        <time>2019-08-04T15:00:37.325Z</time>
      </trkpt>
      <trkpt lat="42.53951667" lon="1.632165">
        <ele>2082.0</ele>
        <time>2019-08-04T15:00:38.315Z</time>
      </trkpt>
      <trkpt lat="42.53951667" lon="1.632165">
        <ele>2082.0</ele>
        <time>2019-08-04T15:00:39.332Z</time>
      </trkpt>
      <trkpt lat="42.53950833" lon="1.63221333">
        <ele>2082.0</ele>
        <time>2019-08-04T15:00:40.301Z</time>
      </trkpt>
      <trkpt lat="42.53950167" lon="1.63222833">
        <ele>2082.0</ele>
        <time>2019-08-04T15:00:41.326Z</time>
      </trkpt>
      <trkpt lat="42.53950167" lon="1.63222833">
        <ele>2082.0</ele>
        <time>2019-08-04T15:00:42.302Z</time>
      </trkpt>
      <trkpt lat="42.53949" lon="1.63226333">
        <ele>2082.0</ele>
        <time>2019-08-04T15:00:43.319Z</time>
      </trkpt>
      <trkpt lat="42.53949" lon="1.63226333">
        <ele>2082.0</ele>
        <time>2019-08-04T15:00:44.299Z</time>
      </trkpt>
      <trkpt lat="42.53948167" lon="1.63228667">
        <ele>2082.0</ele>
        <time>2019-08-04T15:00:45.314Z</time>
      </trkpt>
      <trkpt lat="42.53947833" lon="1.63229667">
        <ele>2082.0</ele>
        <time>2019-08-04T15:00:46.335Z</time>
      </trkpt>
      <trkpt lat="42.539475" lon="1.63230667">
        <ele>2082.0</ele>
        <time>2019-08-04T15:00:47.321Z</time>
      </trkpt>
      <trkpt lat="42.539475" lon="1.63230667">
        <ele>2082.0</ele>
        <time>2019-08-04T15:00:48.300Z</time>
      </trkpt>
      <trkpt lat="42.539475" lon="1.63233167">
        <ele>2082.0</ele>
        <time>2019-08-04T15:00:49.311Z</time>
      </trkpt>
      <trkpt lat="42.539475" lon="1.63235">
        <ele>2082.0</ele>
        <time>2019-08-04T15:00:50.330Z</time>
      </trkpt>
      <trkpt lat="42.539475" lon="1.63235">
        <ele>2082.0</ele>
        <time>2019-08-04T15:00:51.300Z</time>
      </trkpt>
      <trkpt lat="42.53947167" lon="1.63237333">
        <ele>2082.0</ele>
        <time>2019-08-04T15:00:52.311Z</time>
      </trkpt>
      <trkpt lat="42.53946833" lon="1.632385">
        <ele>2082.0</ele>
        <time>2019-08-04T15:00:53.329Z</time>
      </trkpt>
      <trkpt lat="42.53946833" lon="1.632385">
        <ele>2082.0</ele>
        <time>2019-08-04T15:00:54.305Z</time>
      </trkpt>
      <trkpt lat="42.53946" lon="1.6324">
        <ele>2082.0</ele>
        <time>2019-08-04T15:00:55.319Z</time>
      </trkpt>
      <trkpt lat="42.53946" lon="1.6324">
        <ele>2082.0</ele>
        <time>2019-08-04T15:00:56.323Z</time>
      </trkpt>
      <trkpt lat="42.53945333" lon="1.63241667">
        <ele>2083.0</ele>
        <time>2019-08-04T15:00:57.332Z</time>
      </trkpt>
      <trkpt lat="42.53945333" lon="1.63241667">
        <ele>2083.0</ele>
        <time>2019-08-04T15:00:58.315Z</time>
      </trkpt>
      <trkpt lat="42.539445" lon="1.63242833">
        <ele>2083.0</ele>
        <time>2019-08-04T15:00:59.324Z</time>
      </trkpt>
      <trkpt lat="42.539445" lon="1.63242833">
        <ele>2083.0</ele>
        <time>2019-08-04T15:01:00.303Z</time>
      </trkpt>
      <trkpt lat="42.53944" lon="1.63245">
        <ele>2083.0</ele>
        <time>2019-08-04T15:01:01.324Z</time>
      </trkpt>
      <trkpt lat="42.53944" lon="1.63245">
        <ele>2083.0</ele>
        <time>2019-08-04T15:01:02.332Z</time>
      </trkpt>
      <trkpt lat="42.539435" lon="1.63248167">
        <ele>2083.0</ele>
        <time>2019-08-04T15:01:03.301Z</time>
      </trkpt>
      <trkpt lat="42.539435" lon="1.63248167">
        <ele>2083.0</ele>
        <time>2019-08-04T15:01:04.320Z</time>
      </trkpt>
      <trkpt lat="42.53943333" lon="1.632525">
        <ele>2083.0</ele>
        <time>2019-08-04T15:01:05.334Z</time>
      </trkpt>
      <trkpt lat="42.53943333" lon="1.632525">
        <ele>2083.0</ele>
        <time>2019-08-04T15:01:06.313Z</time>
      </trkpt>
      <trkpt lat="42.53943" lon="1.63254667">
        <ele>2083.0</ele>
        <time>2019-08-04T15:01:07.324Z</time>
      </trkpt>
      <trkpt lat="42.53943167" lon="1.632555">
        <ele>2083.0</ele>
        <time>2019-08-04T15:01:08.301Z</time>
      </trkpt>
      <trkpt lat="42.53943167" lon="1.632555">
        <ele>2083.0</ele>
        <time>2019-08-04T15:01:09.324Z</time>
      </trkpt>
      <trkpt lat="42.53943167" lon="1.63257167">
        <ele>2083.0</ele>
        <time>2019-08-04T15:01:10.332Z</time>
      </trkpt>
      <trkpt lat="42.53942333" lon="1.63257833">
        <ele>2084.0</ele>
        <time>2019-08-04T15:01:11.319Z</time>
      </trkpt>
      <trkpt lat="42.53942167" lon="1.63258667">
        <ele>2084.0</ele>
        <time>2019-08-04T15:01:12.297Z</time>
      </trkpt>
      <trkpt lat="42.53942167" lon="1.63258667">
        <ele>2084.0</ele>
        <time>2019-08-04T15:01:13.317Z</time>
      </trkpt>
      <trkpt lat="42.53941" lon="1.63259667">
        <ele>2084.0</ele>
        <time>2019-08-04T15:01:14.325Z</time>
      </trkpt>
      <trkpt lat="42.53940833" lon="1.63259833">
        <ele>2084.0</ele>
        <time>2019-08-04T15:01:15.309Z</time>
      </trkpt>
      <trkpt lat="42.53940833" lon="1.63259833">
        <ele>2084.0</ele>
        <time>2019-08-04T15:01:16.316Z</time>
      </trkpt>
      <trkpt lat="42.53940833" lon="1.63259833">
        <ele>2084.0</ele>
        <time>2019-08-04T15:01:17.331Z</time>
      </trkpt>
      <trkpt lat="42.53940833" lon="1.63259833">
        <ele>2084.0</ele>
        <time>2019-08-04T15:01:18.301Z</time>
      </trkpt>
      <trkpt lat="42.53940833" lon="1.63259833">
        <ele>2084.0</ele>
        <time>2019-08-04T15:01:19.330Z</time>
      </trkpt>
      <trkpt lat="42.53940833" lon="1.63259833">
        <ele>2084.0</ele>
        <time>2019-08-04T15:01:20.297Z</time>
      </trkpt>
      <trkpt lat="42.53940833" lon="1.63259833">
        <ele>2084.0</ele>
        <time>2019-08-04T15:01:21.304Z</time>
      </trkpt>
      <trkpt lat="42.53940833" lon="1.63259833">
        <ele>2084.0</ele>
        <time>2019-08-04T15:01:22.311Z</time>
      </trkpt>
      <trkpt lat="42.53940833" lon="1.63259833">
        <ele>2084.0</ele>
        <time>2019-08-04T15:01:23.329Z</time>
      </trkpt>
      <trkpt lat="42.53940833" lon="1.63259833">
        <ele>2084.0</ele>
        <time>2019-08-04T15:01:24.296Z</time>
      </trkpt>
      <trkpt lat="42.53940833" lon="1.63259833">
        <ele>2084.0</ele>
        <time>2019-08-04T15:01:25.333Z</time>
      </trkpt>
      <trkpt lat="42.53940833" lon="1.63259833">
        <ele>2084.0</ele>
        <time>2019-08-04T15:01:26.333Z</time>
      </trkpt>
      <trkpt lat="42.53940833" lon="1.63259833">
        <ele>2084.0</ele>
        <time>2019-08-04T15:01:27.312Z</time>
      </trkpt>
      <trkpt lat="42.53940833" lon="1.63259833">
        <ele>2084.0</ele>
        <time>2019-08-04T15:01:28.328Z</time>
      </trkpt>
      <trkpt lat="42.53940833" lon="1.63259833">
        <ele>2084.0</ele>
        <time>2019-08-04T15:01:29.302Z</time>
      </trkpt>
      <trkpt lat="42.53940833" lon="1.63259833">
        <ele>2084.0</ele>
        <time>2019-08-04T15:01:30.302Z</time>
      </trkpt>
      <trkpt lat="42.53940833" lon="1.63259833">
        <ele>2084.0</ele>
        <time>2019-08-04T15:01:31.322Z</time>
      </trkpt>
      <trkpt lat="42.53940833" lon="1.63259833">
        <ele>2084.0</ele>
        <time>2019-08-04T15:01:32.330Z</time>
      </trkpt>
      <trkpt lat="42.53940833" lon="1.63259833">
        <ele>2084.0</ele>
        <time>2019-08-04T15:01:33.298Z</time>
      </trkpt>
      <trkpt lat="42.53940833" lon="1.63259833">
        <ele>2084.0</ele>
        <time>2019-08-04T15:01:34.309Z</time>
      </trkpt>
      <trkpt lat="42.53940833" lon="1.63259833">
        <ele>2084.0</ele>
        <time>2019-08-04T15:01:35.312Z</time>
      </trkpt>
      <trkpt lat="42.53940833" lon="1.63259833">
        <ele>2084.0</ele>
        <time>2019-08-04T15:01:36.312Z</time>
      </trkpt>
      <trkpt lat="42.53940833" lon="1.63259833">
        <ele>2084.0</ele>
        <time>2019-08-04T15:01:37.314Z</time>
      </trkpt>
      <trkpt lat="42.53940833" lon="1.63259833">
        <ele>2084.0</ele>
        <time>2019-08-04T15:01:38.299Z</time>
      </trkpt>
      <trkpt lat="42.53940833" lon="1.63259833">
        <ele>2084.0</ele>
        <time>2019-08-04T15:01:39.296Z</time>
      </trkpt>
      <trkpt lat="42.53940833" lon="1.63259833">
        <ele>2084.0</ele>
        <time>2019-08-04T15:01:40.315Z</time>
      </trkpt>
    </trkseg>
  </trk>
</gpx>
